<?xml version="1.0" encoding="UTF-8"?>
<gpx version="1.1" creator="https://www.youtrack.es" xsi:schemaLocation="http://www.topografix.com/GPX/1/1 http://www.topografix.com/GPX/1/1/gpx.xsd http://www.garmin.com/xmlschemas/GpxExtensions/v3 http://www.garmin.com/xmlschemas/GpxExtensionsv3.xsd http://www.garmin.com/xmlschemas/TrackPointExtension/v1 http://www.garmin.com/xmlschemas/TrackPointExtensionv1.xsd" xmlns:gpxtpx="http://www.garmin.com/xmlschemas/TrackPointExtension/v1" xmlns:gpxx="http://www.garmin.com/xmlschemas/GpxExtensions/v3" xmlns:xsi="http://www.w3.org/2001/XMLSchema-instance">
  <metadata>
    <link href="https://www.youtrack.es">
      <text>YouTrack.es</text>
    </link>
    <time>2026-05-09T00:45:00Z</time>
  </metadata>
  <trk>
    <src>https://www.youtrack.es</src>
    <link href="https://www.youtrack.es/ruta/14277-juany-vuelta">
      <text>YouTrack.es</text>
    </link>
    <trkseg>
      <trkpt lat="37.4122040" lon="-4.4759040">
        <ele>479.8</ele>
        <time>2020-07-11T04:58:13Z</time>
      </trkpt>
      <trkpt lat="37.4122040" lon="-4.4759060">
        <ele>479.8</ele>
        <time>2020-07-11T04:58:14Z</time>
      </trkpt>
      <trkpt lat="37.4122170" lon="-4.4758790">
        <ele>479.4</ele>
        <time>2020-07-11T04:58:27Z</time>
      </trkpt>
      <trkpt lat="37.4122220" lon="-4.4758560">
        <ele>479.4</ele>
        <time>2020-07-11T04:58:28Z</time>
      </trkpt>
      <trkpt lat="37.4122320" lon="-4.4758030">
        <ele>479.2</ele>
        <time>2020-07-11T04:58:30Z</time>
      </trkpt>
      <trkpt lat="37.4122740" lon="-4.4755630">
        <ele>479.2</ele>
        <time>2020-07-11T04:58:36Z</time>
      </trkpt>
      <trkpt lat="37.4123020" lon="-4.4754120">
        <ele>479.0</ele>
        <time>2020-07-11T04:58:39Z</time>
      </trkpt>
      <trkpt lat="37.4123440" lon="-4.4752610">
        <ele>479.0</ele>
        <time>2020-07-11T04:58:42Z</time>
      </trkpt>
      <trkpt lat="37.4124890" lon="-4.4750880">
        <ele>478.8</ele>
        <time>2020-07-11T04:58:46Z</time>
      </trkpt>
      <trkpt lat="37.4125250" lon="-4.4750540">
        <ele>478.8</ele>
        <time>2020-07-11T04:58:47Z</time>
      </trkpt>
      <trkpt lat="37.4126050" lon="-4.4749630">
        <ele>478.8</ele>
        <time>2020-07-11T04:58:49Z</time>
      </trkpt>
      <trkpt lat="37.4126410" lon="-4.4749090">
        <ele>478.8</ele>
        <time>2020-07-11T04:58:50Z</time>
      </trkpt>
      <trkpt lat="37.4126970" lon="-4.4747920">
        <ele>478.6</ele>
        <time>2020-07-11T04:58:52Z</time>
      </trkpt>
      <trkpt lat="37.4129080" lon="-4.4743880">
        <ele>478.0</ele>
        <time>2020-07-11T04:58:59Z</time>
      </trkpt>
      <trkpt lat="37.4129260" lon="-4.4743560">
        <ele>477.6</ele>
        <time>2020-07-11T04:59:00Z</time>
      </trkpt>
      <trkpt lat="37.4129490" lon="-4.4743290">
        <ele>477.0</ele>
        <time>2020-07-11T04:59:02Z</time>
      </trkpt>
      <trkpt lat="37.4129390" lon="-4.4743390">
        <ele>476.8</ele>
        <time>2020-07-11T04:59:03Z</time>
      </trkpt>
      <trkpt lat="37.4128210" lon="-4.4741870">
        <ele>476.4</ele>
        <time>2020-07-11T04:59:39Z</time>
      </trkpt>
      <trkpt lat="37.4128070" lon="-4.4741760">
        <ele>476.4</ele>
        <time>2020-07-11T04:59:40Z</time>
      </trkpt>
      <trkpt lat="37.4128050" lon="-4.4741780">
        <ele>476.6</ele>
        <time>2020-07-11T04:59:42Z</time>
      </trkpt>
      <trkpt lat="37.4129120" lon="-4.4741970">
        <ele>476.2</ele>
        <time>2020-07-11T05:05:17Z</time>
      </trkpt>
      <trkpt lat="37.4129140" lon="-4.4741800">
        <ele>476.2</ele>
        <time>2020-07-11T05:05:18Z</time>
      </trkpt>
      <trkpt lat="37.4129330" lon="-4.4741050">
        <ele>476.2</ele>
        <time>2020-07-11T05:05:21Z</time>
      </trkpt>
      <trkpt lat="37.4129850" lon="-4.4739900">
        <ele>476.0</ele>
        <time>2020-07-11T05:05:25Z</time>
      </trkpt>
      <trkpt lat="37.4130910" lon="-4.4738000">
        <ele>475.4</ele>
        <time>2020-07-11T05:05:31Z</time>
      </trkpt>
      <trkpt lat="37.4131080" lon="-4.4737660">
        <ele>475.4</ele>
        <time>2020-07-11T05:05:32Z</time>
      </trkpt>
      <trkpt lat="37.4132190" lon="-4.4735290">
        <ele>475.0</ele>
        <time>2020-07-11T05:05:38Z</time>
      </trkpt>
      <trkpt lat="37.4132110" lon="-4.4734820">
        <ele>475.0</ele>
        <time>2020-07-11T05:05:39Z</time>
      </trkpt>
      <trkpt lat="37.4131660" lon="-4.4734280">
        <ele>474.8</ele>
        <time>2020-07-11T05:05:41Z</time>
      </trkpt>
      <trkpt lat="37.4130940" lon="-4.4734150">
        <ele>474.8</ele>
        <time>2020-07-11T05:05:44Z</time>
      </trkpt>
      <trkpt lat="37.4130650" lon="-4.4734180">
        <ele>475.0</ele>
        <time>2020-07-11T05:05:45Z</time>
      </trkpt>
      <trkpt lat="37.4130390" lon="-4.4734200">
        <ele>475.0</ele>
        <time>2020-07-11T05:05:46Z</time>
      </trkpt>
      <trkpt lat="37.4129900" lon="-4.4734250">
        <ele>475.4</ele>
        <time>2020-07-11T05:05:48Z</time>
      </trkpt>
      <trkpt lat="37.4129400" lon="-4.4734240">
        <ele>476.0</ele>
        <time>2020-07-11T05:05:50Z</time>
      </trkpt>
      <trkpt lat="37.4128650" lon="-4.4734350">
        <ele>476.6</ele>
        <time>2020-07-11T05:05:53Z</time>
      </trkpt>
      <trkpt lat="37.4128390" lon="-4.4734380">
        <ele>476.8</ele>
        <time>2020-07-11T05:05:54Z</time>
      </trkpt>
      <trkpt lat="37.4127040" lon="-4.4734330">
        <ele>477.4</ele>
        <time>2020-07-11T05:05:59Z</time>
      </trkpt>
      <trkpt lat="37.4126540" lon="-4.4734300">
        <ele>477.6</ele>
        <time>2020-07-11T05:06:01Z</time>
      </trkpt>
      <trkpt lat="37.4125650" lon="-4.4734210">
        <ele>478.2</ele>
        <time>2020-07-11T05:06:05Z</time>
      </trkpt>
      <trkpt lat="37.4124820" lon="-4.4733740">
        <ele>478.6</ele>
        <time>2020-07-11T05:06:09Z</time>
      </trkpt>
      <trkpt lat="37.4124690" lon="-4.4733480">
        <ele>478.8</ele>
        <time>2020-07-11T05:06:10Z</time>
      </trkpt>
      <trkpt lat="37.4124610" lon="-4.4732250">
        <ele>479.0</ele>
        <time>2020-07-11T05:06:13Z</time>
      </trkpt>
      <trkpt lat="37.4124660" lon="-4.4731800">
        <ele>479.0</ele>
        <time>2020-07-11T05:06:14Z</time>
      </trkpt>
      <trkpt lat="37.4124690" lon="-4.4731350">
        <ele>479.2</ele>
        <time>2020-07-11T05:06:15Z</time>
      </trkpt>
      <trkpt lat="37.4124820" lon="-4.4728280">
        <ele>479.2</ele>
        <time>2020-07-11T05:06:21Z</time>
      </trkpt>
      <trkpt lat="37.4124870" lon="-4.4727190">
        <ele>479.4</ele>
        <time>2020-07-11T05:06:23Z</time>
      </trkpt>
      <trkpt lat="37.4125080" lon="-4.4722080">
        <ele>479.6</ele>
        <time>2020-07-11T05:06:32Z</time>
      </trkpt>
      <trkpt lat="37.4125200" lon="-4.4719650">
        <ele>479.6</ele>
        <time>2020-07-11T05:06:36Z</time>
      </trkpt>
      <trkpt lat="37.4125300" lon="-4.4717250">
        <ele>479.8</ele>
        <time>2020-07-11T05:06:40Z</time>
      </trkpt>
      <trkpt lat="37.4125560" lon="-4.4710850">
        <ele>480.2</ele>
        <time>2020-07-11T05:06:50Z</time>
      </trkpt>
      <trkpt lat="37.4125800" lon="-4.4704440">
        <ele>480.8</ele>
        <time>2020-07-11T05:07:00Z</time>
      </trkpt>
      <trkpt lat="37.4125810" lon="-4.4703760">
        <ele>480.8</ele>
        <time>2020-07-11T05:07:01Z</time>
      </trkpt>
      <trkpt lat="37.4125980" lon="-4.4699100">
        <ele>481.0</ele>
        <time>2020-07-11T05:07:08Z</time>
      </trkpt>
      <trkpt lat="37.4126060" lon="-4.4697130">
        <ele>481.4</ele>
        <time>2020-07-11T05:07:11Z</time>
      </trkpt>
      <trkpt lat="37.4126170" lon="-4.4693850">
        <ele>481.8</ele>
        <time>2020-07-11T05:07:16Z</time>
      </trkpt>
      <trkpt lat="37.4126230" lon="-4.4691920">
        <ele>482.0</ele>
        <time>2020-07-11T05:07:19Z</time>
      </trkpt>
      <trkpt lat="37.4126380" lon="-4.4686860">
        <ele>482.8</ele>
        <time>2020-07-11T05:07:27Z</time>
      </trkpt>
      <trkpt lat="37.4126410" lon="-4.4686200">
        <ele>483.0</ele>
        <time>2020-07-11T05:07:28Z</time>
      </trkpt>
      <trkpt lat="37.4126590" lon="-4.4680610">
        <ele>483.8</ele>
        <time>2020-07-11T05:07:37Z</time>
      </trkpt>
      <trkpt lat="37.4126600" lon="-4.4679960">
        <ele>484.0</ele>
        <time>2020-07-11T05:07:38Z</time>
      </trkpt>
      <trkpt lat="37.4126800" lon="-4.4676920">
        <ele>484.6</ele>
        <time>2020-07-11T05:07:43Z</time>
      </trkpt>
      <trkpt lat="37.4126850" lon="-4.4675140">
        <ele>484.8</ele>
        <time>2020-07-11T05:07:46Z</time>
      </trkpt>
      <trkpt lat="37.4126880" lon="-4.4674570">
        <ele>485.0</ele>
        <time>2020-07-11T05:07:47Z</time>
      </trkpt>
      <trkpt lat="37.4126930" lon="-4.4672070">
        <ele>485.4</ele>
        <time>2020-07-11T05:07:51Z</time>
      </trkpt>
      <trkpt lat="37.4127000" lon="-4.4669600">
        <ele>485.8</ele>
        <time>2020-07-11T05:07:55Z</time>
      </trkpt>
      <trkpt lat="37.4127070" lon="-4.4668390">
        <ele>486.2</ele>
        <time>2020-07-11T05:07:57Z</time>
      </trkpt>
      <trkpt lat="37.4127230" lon="-4.4664660">
        <ele>486.8</ele>
        <time>2020-07-11T05:08:03Z</time>
      </trkpt>
      <trkpt lat="37.4127290" lon="-4.4662170">
        <ele>487.2</ele>
        <time>2020-07-11T05:08:07Z</time>
      </trkpt>
      <trkpt lat="37.4127380" lon="-4.4660220">
        <ele>487.6</ele>
        <time>2020-07-11T05:08:10Z</time>
      </trkpt>
      <trkpt lat="37.4127570" lon="-4.4655300">
        <ele>488.2</ele>
        <time>2020-07-11T05:08:18Z</time>
      </trkpt>
      <trkpt lat="37.4127680" lon="-4.4653440">
        <ele>488.6</ele>
        <time>2020-07-11T05:08:21Z</time>
      </trkpt>
      <trkpt lat="37.4127820" lon="-4.4649930">
        <ele>489.4</ele>
        <time>2020-07-11T05:08:27Z</time>
      </trkpt>
      <trkpt lat="37.4127970" lon="-4.4646360">
        <ele>489.8</ele>
        <time>2020-07-11T05:08:33Z</time>
      </trkpt>
      <trkpt lat="37.4128070" lon="-4.4643320">
        <ele>490.4</ele>
        <time>2020-07-11T05:08:38Z</time>
      </trkpt>
      <trkpt lat="37.4128210" lon="-4.4639070">
        <ele>491.2</ele>
        <time>2020-07-11T05:08:45Z</time>
      </trkpt>
      <trkpt lat="37.4128250" lon="-4.4637910">
        <ele>491.4</ele>
        <time>2020-07-11T05:08:47Z</time>
      </trkpt>
      <trkpt lat="37.4128470" lon="-4.4632370">
        <ele>492.4</ele>
        <time>2020-07-11T05:08:56Z</time>
      </trkpt>
      <trkpt lat="37.4128510" lon="-4.4631790">
        <ele>492.4</ele>
        <time>2020-07-11T05:08:57Z</time>
      </trkpt>
      <trkpt lat="37.4128620" lon="-4.4627410">
        <ele>493.4</ele>
        <time>2020-07-11T05:09:04Z</time>
      </trkpt>
      <trkpt lat="37.4128750" lon="-4.4624330">
        <ele>494.0</ele>
        <time>2020-07-11T05:09:09Z</time>
      </trkpt>
      <trkpt lat="37.4128850" lon="-4.4621840">
        <ele>494.6</ele>
        <time>2020-07-11T05:09:13Z</time>
      </trkpt>
      <trkpt lat="37.4129040" lon="-4.4616890">
        <ele>495.4</ele>
        <time>2020-07-11T05:09:21Z</time>
      </trkpt>
      <trkpt lat="37.4129050" lon="-4.4616310">
        <ele>495.6</ele>
        <time>2020-07-11T05:09:22Z</time>
      </trkpt>
      <trkpt lat="37.4129230" lon="-4.4611260">
        <ele>496.6</ele>
        <time>2020-07-11T05:09:30Z</time>
      </trkpt>
      <trkpt lat="37.4129250" lon="-4.4610580">
        <ele>496.8</ele>
        <time>2020-07-11T05:09:31Z</time>
      </trkpt>
      <trkpt lat="37.4129380" lon="-4.4607430">
        <ele>497.2</ele>
        <time>2020-07-11T05:09:36Z</time>
      </trkpt>
      <trkpt lat="37.4129380" lon="-4.4606770">
        <ele>497.4</ele>
        <time>2020-07-11T05:09:37Z</time>
      </trkpt>
      <trkpt lat="37.4129460" lon="-4.4604080">
        <ele>497.8</ele>
        <time>2020-07-11T05:09:41Z</time>
      </trkpt>
      <trkpt lat="37.4129520" lon="-4.4601460">
        <ele>498.0</ele>
        <time>2020-07-11T05:09:45Z</time>
      </trkpt>
      <trkpt lat="37.4129630" lon="-4.4598190">
        <ele>498.2</ele>
        <time>2020-07-11T05:09:50Z</time>
      </trkpt>
      <trkpt lat="37.4129710" lon="-4.4595550">
        <ele>498.4</ele>
        <time>2020-07-11T05:09:54Z</time>
      </trkpt>
      <trkpt lat="37.4129780" lon="-4.4593570">
        <ele>498.4</ele>
        <time>2020-07-11T05:09:57Z</time>
      </trkpt>
      <trkpt lat="37.4129850" lon="-4.4590240">
        <ele>498.8</ele>
        <time>2020-07-11T05:10:02Z</time>
      </trkpt>
      <trkpt lat="37.4129960" lon="-4.4587570">
        <ele>499.0</ele>
        <time>2020-07-11T05:10:06Z</time>
      </trkpt>
      <trkpt lat="37.4130170" lon="-4.4580320">
        <ele>499.8</ele>
        <time>2020-07-11T05:10:17Z</time>
      </trkpt>
      <trkpt lat="37.4130200" lon="-4.4579610">
        <ele>499.8</ele>
        <time>2020-07-11T05:10:18Z</time>
      </trkpt>
      <trkpt lat="37.4130260" lon="-4.4577640">
        <ele>500.0</ele>
        <time>2020-07-11T05:10:21Z</time>
      </trkpt>
      <trkpt lat="37.4130440" lon="-4.4572150">
        <ele>500.8</ele>
        <time>2020-07-11T05:10:29Z</time>
      </trkpt>
      <trkpt lat="37.4130450" lon="-4.4571880">
        <ele>501.0</ele>
        <time>2020-07-11T05:10:30Z</time>
      </trkpt>
      <trkpt lat="37.4130750" lon="-4.4564690">
        <ele>501.4</ele>
        <time>2020-07-11T05:10:40Z</time>
      </trkpt>
      <trkpt lat="37.4130900" lon="-4.4560610">
        <ele>502.0</ele>
        <time>2020-07-11T05:10:46Z</time>
      </trkpt>
      <trkpt lat="37.4130980" lon="-4.4557860">
        <ele>502.2</ele>
        <time>2020-07-11T05:10:50Z</time>
      </trkpt>
      <trkpt lat="37.4131140" lon="-4.4551720">
        <ele>503.0</ele>
        <time>2020-07-11T05:10:59Z</time>
      </trkpt>
      <trkpt lat="37.4131220" lon="-4.4549690">
        <ele>503.0</ele>
        <time>2020-07-11T05:11:02Z</time>
      </trkpt>
      <trkpt lat="37.4131230" lon="-4.4546250">
        <ele>503.4</ele>
        <time>2020-07-11T05:11:07Z</time>
      </trkpt>
      <trkpt lat="37.4131240" lon="-4.4544020">
        <ele>503.8</ele>
        <time>2020-07-11T05:11:11Z</time>
      </trkpt>
      <trkpt lat="37.4131220" lon="-4.4541520">
        <ele>504.0</ele>
        <time>2020-07-11T05:11:14Z</time>
      </trkpt>
      <trkpt lat="37.4131120" lon="-4.4537350">
        <ele>504.6</ele>
        <time>2020-07-11T05:11:20Z</time>
      </trkpt>
      <trkpt lat="37.4131050" lon="-4.4534020">
        <ele>505.0</ele>
        <time>2020-07-11T05:11:25Z</time>
      </trkpt>
      <trkpt lat="37.4130970" lon="-4.4530100">
        <ele>505.4</ele>
        <time>2020-07-11T05:11:31Z</time>
      </trkpt>
      <trkpt lat="37.4130860" lon="-4.4526190">
        <ele>506.0</ele>
        <time>2020-07-11T05:11:37Z</time>
      </trkpt>
      <trkpt lat="37.4130770" lon="-4.4523590">
        <ele>506.6</ele>
        <time>2020-07-11T05:11:41Z</time>
      </trkpt>
      <trkpt lat="37.4130680" lon="-4.4520960">
        <ele>507.0</ele>
        <time>2020-07-11T05:11:45Z</time>
      </trkpt>
      <trkpt lat="37.4130550" lon="-4.4516620">
        <ele>508.0</ele>
        <time>2020-07-11T05:11:52Z</time>
      </trkpt>
      <trkpt lat="37.4130520" lon="-4.4515980">
        <ele>508.2</ele>
        <time>2020-07-11T05:11:53Z</time>
      </trkpt>
      <trkpt lat="37.4130420" lon="-4.4512940">
        <ele>509.0</ele>
        <time>2020-07-11T05:11:58Z</time>
      </trkpt>
      <trkpt lat="37.4130380" lon="-4.4511680">
        <ele>509.4</ele>
        <time>2020-07-11T05:12:00Z</time>
      </trkpt>
      <trkpt lat="37.4130360" lon="-4.4510480">
        <ele>509.8</ele>
        <time>2020-07-11T05:12:02Z</time>
      </trkpt>
      <trkpt lat="37.4130310" lon="-4.4508670">
        <ele>510.4</ele>
        <time>2020-07-11T05:12:05Z</time>
      </trkpt>
      <trkpt lat="37.4130290" lon="-4.4508080">
        <ele>510.6</ele>
        <time>2020-07-11T05:12:06Z</time>
      </trkpt>
      <trkpt lat="37.4130250" lon="-4.4505180">
        <ele>511.6</ele>
        <time>2020-07-11T05:12:11Z</time>
      </trkpt>
      <trkpt lat="37.4130260" lon="-4.4504650">
        <ele>511.8</ele>
        <time>2020-07-11T05:12:12Z</time>
      </trkpt>
      <trkpt lat="37.4130110" lon="-4.4501450">
        <ele>512.6</ele>
        <time>2020-07-11T05:12:18Z</time>
      </trkpt>
      <trkpt lat="37.4129960" lon="-4.4497500">
        <ele>513.8</ele>
        <time>2020-07-11T05:12:25Z</time>
      </trkpt>
      <trkpt lat="37.4129860" lon="-4.4495800">
        <ele>514.2</ele>
        <time>2020-07-11T05:12:28Z</time>
      </trkpt>
      <trkpt lat="37.4129790" lon="-4.4493580">
        <ele>514.8</ele>
        <time>2020-07-11T05:12:32Z</time>
      </trkpt>
      <trkpt lat="37.4129750" lon="-4.4490180">
        <ele>515.8</ele>
        <time>2020-07-11T05:12:38Z</time>
      </trkpt>
      <trkpt lat="37.4129630" lon="-4.4486120">
        <ele>517.0</ele>
        <time>2020-07-11T05:12:45Z</time>
      </trkpt>
      <trkpt lat="37.4129570" lon="-4.4484520">
        <ele>517.6</ele>
        <time>2020-07-11T05:12:48Z</time>
      </trkpt>
      <trkpt lat="37.4129520" lon="-4.4482630">
        <ele>518.2</ele>
        <time>2020-07-11T05:12:51Z</time>
      </trkpt>
      <trkpt lat="37.4129380" lon="-4.4478660">
        <ele>519.4</ele>
        <time>2020-07-11T05:12:58Z</time>
      </trkpt>
      <trkpt lat="37.4129350" lon="-4.4477560">
        <ele>519.8</ele>
        <time>2020-07-11T05:13:00Z</time>
      </trkpt>
      <trkpt lat="37.4129330" lon="-4.4475830">
        <ele>520.4</ele>
        <time>2020-07-11T05:13:03Z</time>
      </trkpt>
      <trkpt lat="37.4129210" lon="-4.4472390">
        <ele>521.6</ele>
        <time>2020-07-11T05:13:09Z</time>
      </trkpt>
      <trkpt lat="37.4129200" lon="-4.4471800">
        <ele>521.6</ele>
        <time>2020-07-11T05:13:10Z</time>
      </trkpt>
      <trkpt lat="37.4129130" lon="-4.4468370">
        <ele>522.6</ele>
        <time>2020-07-11T05:13:16Z</time>
      </trkpt>
      <trkpt lat="37.4129040" lon="-4.4465090">
        <ele>523.6</ele>
        <time>2020-07-11T05:13:22Z</time>
      </trkpt>
      <trkpt lat="37.4129050" lon="-4.4464510">
        <ele>523.8</ele>
        <time>2020-07-11T05:13:23Z</time>
      </trkpt>
      <trkpt lat="37.4129110" lon="-4.4461180">
        <ele>525.0</ele>
        <time>2020-07-11T05:13:29Z</time>
      </trkpt>
      <trkpt lat="37.4129230" lon="-4.4459490">
        <ele>525.4</ele>
        <time>2020-07-11T05:13:32Z</time>
      </trkpt>
      <trkpt lat="37.4129500" lon="-4.4457200">
        <ele>526.2</ele>
        <time>2020-07-11T05:13:36Z</time>
      </trkpt>
      <trkpt lat="37.4129600" lon="-4.4455540">
        <ele>526.6</ele>
        <time>2020-07-11T05:13:39Z</time>
      </trkpt>
      <trkpt lat="37.4129720" lon="-4.4454960">
        <ele>526.6</ele>
        <time>2020-07-11T05:13:40Z</time>
      </trkpt>
      <trkpt lat="37.4130160" lon="-4.4452630">
        <ele>527.2</ele>
        <time>2020-07-11T05:13:44Z</time>
      </trkpt>
      <trkpt lat="37.4130940" lon="-4.4448540">
        <ele>528.4</ele>
        <time>2020-07-11T05:13:51Z</time>
      </trkpt>
      <trkpt lat="37.4131630" lon="-4.4445150">
        <ele>529.6</ele>
        <time>2020-07-11T05:13:57Z</time>
      </trkpt>
      <trkpt lat="37.4132420" lon="-4.4441160">
        <ele>530.6</ele>
        <time>2020-07-11T05:14:04Z</time>
      </trkpt>
      <trkpt lat="37.4133240" lon="-4.4437070">
        <ele>531.8</ele>
        <time>2020-07-11T05:14:11Z</time>
      </trkpt>
      <trkpt lat="37.4134120" lon="-4.4432850">
        <ele>532.4</ele>
        <time>2020-07-11T05:14:18Z</time>
      </trkpt>
      <trkpt lat="37.4134490" lon="-4.4431030">
        <ele>532.8</ele>
        <time>2020-07-11T05:14:21Z</time>
      </trkpt>
      <trkpt lat="37.4135330" lon="-4.4426690">
        <ele>533.6</ele>
        <time>2020-07-11T05:14:28Z</time>
      </trkpt>
      <trkpt lat="37.4135570" lon="-4.4425440">
        <ele>533.8</ele>
        <time>2020-07-11T05:14:30Z</time>
      </trkpt>
      <trkpt lat="37.4136390" lon="-4.4421240">
        <ele>535.0</ele>
        <time>2020-07-11T05:14:37Z</time>
      </trkpt>
      <trkpt lat="37.4136600" lon="-4.4420110">
        <ele>535.4</ele>
        <time>2020-07-11T05:14:39Z</time>
      </trkpt>
      <trkpt lat="37.4136790" lon="-4.4419050">
        <ele>536.0</ele>
        <time>2020-07-11T05:14:41Z</time>
      </trkpt>
      <trkpt lat="37.4137240" lon="-4.4416980">
        <ele>537.0</ele>
        <time>2020-07-11T05:14:45Z</time>
      </trkpt>
      <trkpt lat="37.4137630" lon="-4.4415530">
        <ele>538.0</ele>
        <time>2020-07-11T05:14:48Z</time>
      </trkpt>
      <trkpt lat="37.4137780" lon="-4.4415060">
        <ele>538.4</ele>
        <time>2020-07-11T05:14:49Z</time>
      </trkpt>
      <trkpt lat="37.4138330" lon="-4.4413730">
        <ele>539.2</ele>
        <time>2020-07-11T05:14:52Z</time>
      </trkpt>
      <trkpt lat="37.4139210" lon="-4.4411990">
        <ele>540.4</ele>
        <time>2020-07-11T05:14:56Z</time>
      </trkpt>
      <trkpt lat="37.4139430" lon="-4.4411590">
        <ele>540.6</ele>
        <time>2020-07-11T05:14:57Z</time>
      </trkpt>
      <trkpt lat="37.4140490" lon="-4.4410040">
        <ele>541.6</ele>
        <time>2020-07-11T05:15:01Z</time>
      </trkpt>
      <trkpt lat="37.4141650" lon="-4.4408700">
        <ele>542.4</ele>
        <time>2020-07-11T05:15:05Z</time>
      </trkpt>
      <trkpt lat="37.4141940" lon="-4.4408400">
        <ele>542.6</ele>
        <time>2020-07-11T05:15:06Z</time>
      </trkpt>
      <trkpt lat="37.4143520" lon="-4.4406980">
        <ele>543.8</ele>
        <time>2020-07-11T05:15:11Z</time>
      </trkpt>
      <trkpt lat="37.4144940" lon="-4.4405860">
        <ele>544.8</ele>
        <time>2020-07-11T05:15:15Z</time>
      </trkpt>
      <trkpt lat="37.4147040" lon="-4.4404010">
        <ele>546.0</ele>
        <time>2020-07-11T05:15:21Z</time>
      </trkpt>
      <trkpt lat="37.4147350" lon="-4.4403620">
        <ele>546.2</ele>
        <time>2020-07-11T05:15:22Z</time>
      </trkpt>
      <trkpt lat="37.4148200" lon="-4.4401540">
        <ele>546.8</ele>
        <time>2020-07-11T05:15:26Z</time>
      </trkpt>
      <trkpt lat="37.4148350" lon="-4.4400900">
        <ele>546.8</ele>
        <time>2020-07-11T05:15:27Z</time>
      </trkpt>
      <trkpt lat="37.4148480" lon="-4.4400350">
        <ele>547.0</ele>
        <time>2020-07-11T05:15:28Z</time>
      </trkpt>
      <trkpt lat="37.4148670" lon="-4.4399040">
        <ele>547.0</ele>
        <time>2020-07-11T05:15:30Z</time>
      </trkpt>
      <trkpt lat="37.4148550" lon="-4.4397750">
        <ele>547.0</ele>
        <time>2020-07-11T05:15:32Z</time>
      </trkpt>
      <trkpt lat="37.4147670" lon="-4.4395410">
        <ele>546.8</ele>
        <time>2020-07-11T05:15:36Z</time>
      </trkpt>
      <trkpt lat="37.4147400" lon="-4.4394760">
        <ele>546.8</ele>
        <time>2020-07-11T05:15:37Z</time>
      </trkpt>
      <trkpt lat="37.4145650" lon="-4.4390740">
        <ele>546.6</ele>
        <time>2020-07-11T05:15:44Z</time>
      </trkpt>
      <trkpt lat="37.4145160" lon="-4.4389640">
        <ele>546.6</ele>
        <time>2020-07-11T05:15:46Z</time>
      </trkpt>
      <trkpt lat="37.4144610" lon="-4.4388440">
        <ele>546.6</ele>
        <time>2020-07-11T05:15:48Z</time>
      </trkpt>
      <trkpt lat="37.4143830" lon="-4.4386730">
        <ele>546.6</ele>
        <time>2020-07-11T05:15:51Z</time>
      </trkpt>
      <trkpt lat="37.4143020" lon="-4.4384910">
        <ele>546.6</ele>
        <time>2020-07-11T05:15:54Z</time>
      </trkpt>
      <trkpt lat="37.4142000" lon="-4.4382630">
        <ele>546.8</ele>
        <time>2020-07-11T05:15:58Z</time>
      </trkpt>
      <trkpt lat="37.4141730" lon="-4.4382060">
        <ele>546.8</ele>
        <time>2020-07-11T05:15:59Z</time>
      </trkpt>
      <trkpt lat="37.4139060" lon="-4.4376170">
        <ele>547.6</ele>
        <time>2020-07-11T05:16:09Z</time>
      </trkpt>
      <trkpt lat="37.4138320" lon="-4.4374450">
        <ele>548.2</ele>
        <time>2020-07-11T05:16:12Z</time>
      </trkpt>
      <trkpt lat="37.4138060" lon="-4.4373880">
        <ele>548.2</ele>
        <time>2020-07-11T05:16:13Z</time>
      </trkpt>
      <trkpt lat="37.4136780" lon="-4.4371070">
        <ele>549.4</ele>
        <time>2020-07-11T05:16:18Z</time>
      </trkpt>
      <trkpt lat="37.4135600" lon="-4.4368420">
        <ele>550.2</ele>
        <time>2020-07-11T05:16:23Z</time>
      </trkpt>
      <trkpt lat="37.4135360" lon="-4.4367860">
        <ele>550.4</ele>
        <time>2020-07-11T05:16:24Z</time>
      </trkpt>
      <trkpt lat="37.4133700" lon="-4.4364160">
        <ele>551.4</ele>
        <time>2020-07-11T05:16:31Z</time>
      </trkpt>
      <trkpt lat="37.4133470" lon="-4.4363600">
        <ele>551.6</ele>
        <time>2020-07-11T05:16:32Z</time>
      </trkpt>
      <trkpt lat="37.4132080" lon="-4.4360460">
        <ele>552.6</ele>
        <time>2020-07-11T05:16:38Z</time>
      </trkpt>
      <trkpt lat="37.4131640" lon="-4.4359440">
        <ele>552.8</ele>
        <time>2020-07-11T05:16:40Z</time>
      </trkpt>
      <trkpt lat="37.4130540" lon="-4.4356780">
        <ele>553.6</ele>
        <time>2020-07-11T05:16:45Z</time>
      </trkpt>
      <trkpt lat="37.4129560" lon="-4.4353870">
        <ele>554.0</ele>
        <time>2020-07-11T05:16:50Z</time>
      </trkpt>
      <trkpt lat="37.4128420" lon="-4.4348930">
        <ele>554.6</ele>
        <time>2020-07-11T05:16:58Z</time>
      </trkpt>
      <trkpt lat="37.4128330" lon="-4.4348290">
        <ele>554.6</ele>
        <time>2020-07-11T05:16:59Z</time>
      </trkpt>
      <trkpt lat="37.4128040" lon="-4.4343850">
        <ele>555.0</ele>
        <time>2020-07-11T05:17:06Z</time>
      </trkpt>
      <trkpt lat="37.4128060" lon="-4.4343110">
        <ele>555.2</ele>
        <time>2020-07-11T05:17:07Z</time>
      </trkpt>
      <trkpt lat="37.4128220" lon="-4.4340540">
        <ele>555.4</ele>
        <time>2020-07-11T05:17:11Z</time>
      </trkpt>
      <trkpt lat="37.4128440" lon="-4.4338470">
        <ele>555.6</ele>
        <time>2020-07-11T05:17:14Z</time>
      </trkpt>
      <trkpt lat="37.4128640" lon="-4.4337310">
        <ele>555.6</ele>
        <time>2020-07-11T05:17:16Z</time>
      </trkpt>
      <trkpt lat="37.4129170" lon="-4.4334800">
        <ele>556.0</ele>
        <time>2020-07-11T05:17:20Z</time>
      </trkpt>
      <trkpt lat="37.4129980" lon="-4.4332490">
        <ele>556.6</ele>
        <time>2020-07-11T05:17:24Z</time>
      </trkpt>
      <trkpt lat="37.4130210" lon="-4.4331930">
        <ele>556.6</ele>
        <time>2020-07-11T05:17:25Z</time>
      </trkpt>
      <trkpt lat="37.4132420" lon="-4.4327180">
        <ele>557.8</ele>
        <time>2020-07-11T05:17:34Z</time>
      </trkpt>
      <trkpt lat="37.4133870" lon="-4.4324000">
        <ele>558.8</ele>
        <time>2020-07-11T05:17:40Z</time>
      </trkpt>
      <trkpt lat="37.4134100" lon="-4.4323510">
        <ele>559.0</ele>
        <time>2020-07-11T05:17:41Z</time>
      </trkpt>
      <trkpt lat="37.4135300" lon="-4.4320990">
        <ele>559.6</ele>
        <time>2020-07-11T05:17:46Z</time>
      </trkpt>
      <trkpt lat="37.4135760" lon="-4.4319930">
        <ele>560.0</ele>
        <time>2020-07-11T05:17:48Z</time>
      </trkpt>
      <trkpt lat="37.4136890" lon="-4.4317500">
        <ele>560.6</ele>
        <time>2020-07-11T05:17:53Z</time>
      </trkpt>
      <trkpt lat="37.4137390" lon="-4.4316420">
        <ele>561.0</ele>
        <time>2020-07-11T05:17:55Z</time>
      </trkpt>
      <trkpt lat="37.4138080" lon="-4.4314870">
        <ele>561.6</ele>
        <time>2020-07-11T05:17:58Z</time>
      </trkpt>
      <trkpt lat="37.4139060" lon="-4.4312820">
        <ele>562.2</ele>
        <time>2020-07-11T05:18:02Z</time>
      </trkpt>
      <trkpt lat="37.4139290" lon="-4.4312300">
        <ele>562.4</ele>
        <time>2020-07-11T05:18:03Z</time>
      </trkpt>
      <trkpt lat="37.4140460" lon="-4.4309700">
        <ele>563.2</ele>
        <time>2020-07-11T05:18:08Z</time>
      </trkpt>
      <trkpt lat="37.4141150" lon="-4.4308160">
        <ele>563.6</ele>
        <time>2020-07-11T05:18:11Z</time>
      </trkpt>
      <trkpt lat="37.4142220" lon="-4.4305510">
        <ele>564.2</ele>
        <time>2020-07-11T05:18:16Z</time>
      </trkpt>
      <trkpt lat="37.4142430" lon="-4.4304920">
        <ele>564.4</ele>
        <time>2020-07-11T05:18:17Z</time>
      </trkpt>
      <trkpt lat="37.4142790" lon="-4.4303720">
        <ele>564.6</ele>
        <time>2020-07-11T05:18:19Z</time>
      </trkpt>
      <trkpt lat="37.4143410" lon="-4.4300720">
        <ele>565.6</ele>
        <time>2020-07-11T05:18:24Z</time>
      </trkpt>
      <trkpt lat="37.4143510" lon="-4.4299550">
        <ele>565.8</ele>
        <time>2020-07-11T05:18:26Z</time>
      </trkpt>
      <trkpt lat="37.4143580" lon="-4.4296980">
        <ele>566.6</ele>
        <time>2020-07-11T05:18:30Z</time>
      </trkpt>
      <trkpt lat="37.4143440" lon="-4.4294560">
        <ele>567.2</ele>
        <time>2020-07-11T05:18:34Z</time>
      </trkpt>
      <trkpt lat="37.4143130" lon="-4.4292680">
        <ele>567.6</ele>
        <time>2020-07-11T05:18:37Z</time>
      </trkpt>
      <trkpt lat="37.4142380" lon="-4.4289770">
        <ele>568.6</ele>
        <time>2020-07-11T05:18:42Z</time>
      </trkpt>
      <trkpt lat="37.4141230" lon="-4.4287100">
        <ele>569.6</ele>
        <time>2020-07-11T05:18:47Z</time>
      </trkpt>
      <trkpt lat="37.4140700" lon="-4.4286010">
        <ele>570.0</ele>
        <time>2020-07-11T05:18:49Z</time>
      </trkpt>
      <trkpt lat="37.4139680" lon="-4.4284020">
        <ele>570.8</ele>
        <time>2020-07-11T05:18:53Z</time>
      </trkpt>
      <trkpt lat="37.4137800" lon="-4.4280420">
        <ele>572.0</ele>
        <time>2020-07-11T05:19:00Z</time>
      </trkpt>
      <trkpt lat="37.4137290" lon="-4.4279450">
        <ele>572.4</ele>
        <time>2020-07-11T05:19:02Z</time>
      </trkpt>
      <trkpt lat="37.4136280" lon="-4.4277590">
        <ele>573.0</ele>
        <time>2020-07-11T05:19:06Z</time>
      </trkpt>
      <trkpt lat="37.4134710" lon="-4.4274620">
        <ele>574.2</ele>
        <time>2020-07-11T05:19:12Z</time>
      </trkpt>
      <trkpt lat="37.4134450" lon="-4.4274130">
        <ele>574.4</ele>
        <time>2020-07-11T05:19:13Z</time>
      </trkpt>
      <trkpt lat="37.4133180" lon="-4.4271670">
        <ele>575.4</ele>
        <time>2020-07-11T05:19:18Z</time>
      </trkpt>
      <trkpt lat="37.4131920" lon="-4.4269220">
        <ele>576.2</ele>
        <time>2020-07-11T05:19:23Z</time>
      </trkpt>
      <trkpt lat="37.4131650" lon="-4.4268710">
        <ele>576.4</ele>
        <time>2020-07-11T05:19:24Z</time>
      </trkpt>
      <trkpt lat="37.4130400" lon="-4.4266260">
        <ele>577.4</ele>
        <time>2020-07-11T05:19:29Z</time>
      </trkpt>
      <trkpt lat="37.4128890" lon="-4.4263270">
        <ele>578.6</ele>
        <time>2020-07-11T05:19:35Z</time>
      </trkpt>
      <trkpt lat="37.4127100" lon="-4.4259840">
        <ele>579.8</ele>
        <time>2020-07-11T05:19:42Z</time>
      </trkpt>
      <trkpt lat="37.4125620" lon="-4.4256930">
        <ele>580.8</ele>
        <time>2020-07-11T05:19:48Z</time>
      </trkpt>
      <trkpt lat="37.4125370" lon="-4.4256440">
        <ele>581.0</ele>
        <time>2020-07-11T05:19:49Z</time>
      </trkpt>
      <trkpt lat="37.4124380" lon="-4.4254550">
        <ele>582.0</ele>
        <time>2020-07-11T05:19:53Z</time>
      </trkpt>
      <trkpt lat="37.4123130" lon="-4.4252170">
        <ele>583.0</ele>
        <time>2020-07-11T05:19:58Z</time>
      </trkpt>
      <trkpt lat="37.4122110" lon="-4.4250250">
        <ele>583.6</ele>
        <time>2020-07-11T05:20:02Z</time>
      </trkpt>
      <trkpt lat="37.4121380" lon="-4.4248820">
        <ele>584.2</ele>
        <time>2020-07-11T05:20:05Z</time>
      </trkpt>
      <trkpt lat="37.4119660" lon="-4.4245440">
        <ele>585.2</ele>
        <time>2020-07-11T05:20:12Z</time>
      </trkpt>
      <trkpt lat="37.4119410" lon="-4.4244950">
        <ele>585.4</ele>
        <time>2020-07-11T05:20:13Z</time>
      </trkpt>
      <trkpt lat="37.4118130" lon="-4.4242440">
        <ele>586.2</ele>
        <time>2020-07-11T05:20:18Z</time>
      </trkpt>
      <trkpt lat="37.4116280" lon="-4.4238880">
        <ele>587.4</ele>
        <time>2020-07-11T05:20:25Z</time>
      </trkpt>
      <trkpt lat="37.4116040" lon="-4.4238440">
        <ele>587.4</ele>
        <time>2020-07-11T05:20:26Z</time>
      </trkpt>
      <trkpt lat="37.4114750" lon="-4.4235880">
        <ele>588.2</ele>
        <time>2020-07-11T05:20:31Z</time>
      </trkpt>
      <trkpt lat="37.4114470" lon="-4.4235320">
        <ele>588.4</ele>
        <time>2020-07-11T05:20:32Z</time>
      </trkpt>
      <trkpt lat="37.4112900" lon="-4.4232320">
        <ele>589.2</ele>
        <time>2020-07-11T05:20:38Z</time>
      </trkpt>
      <trkpt lat="37.4112370" lon="-4.4231290">
        <ele>589.6</ele>
        <time>2020-07-11T05:20:40Z</time>
      </trkpt>
      <trkpt lat="37.4110220" lon="-4.4227130">
        <ele>590.6</ele>
        <time>2020-07-11T05:20:48Z</time>
      </trkpt>
      <trkpt lat="37.4109140" lon="-4.4224980">
        <ele>591.0</ele>
        <time>2020-07-11T05:20:52Z</time>
      </trkpt>
      <trkpt lat="37.4107500" lon="-4.4221780">
        <ele>591.6</ele>
        <time>2020-07-11T05:20:58Z</time>
      </trkpt>
      <trkpt lat="37.4106080" lon="-4.4219100">
        <ele>592.2</ele>
        <time>2020-07-11T05:21:03Z</time>
      </trkpt>
      <trkpt lat="37.4105530" lon="-4.4218070">
        <ele>592.2</ele>
        <time>2020-07-11T05:21:05Z</time>
      </trkpt>
      <trkpt lat="37.4104390" lon="-4.4215840">
        <ele>592.6</ele>
        <time>2020-07-11T05:21:09Z</time>
      </trkpt>
      <trkpt lat="37.4102490" lon="-4.4212080">
        <ele>593.4</ele>
        <time>2020-07-11T05:21:16Z</time>
      </trkpt>
      <trkpt lat="37.4101580" lon="-4.4210370">
        <ele>593.8</ele>
        <time>2020-07-11T05:21:19Z</time>
      </trkpt>
      <trkpt lat="37.4099100" lon="-4.4205580">
        <ele>594.6</ele>
        <time>2020-07-11T05:21:28Z</time>
      </trkpt>
      <trkpt lat="37.4098510" lon="-4.4204420">
        <ele>594.8</ele>
        <time>2020-07-11T05:21:30Z</time>
      </trkpt>
      <trkpt lat="37.4096220" lon="-4.4199950">
        <ele>595.8</ele>
        <time>2020-07-11T05:21:38Z</time>
      </trkpt>
      <trkpt lat="37.4095680" lon="-4.4198870">
        <ele>596.2</ele>
        <time>2020-07-11T05:21:40Z</time>
      </trkpt>
      <trkpt lat="37.4093370" lon="-4.4194440">
        <ele>597.0</ele>
        <time>2020-07-11T05:21:48Z</time>
      </trkpt>
      <trkpt lat="37.4092560" lon="-4.4192800">
        <ele>597.4</ele>
        <time>2020-07-11T05:21:51Z</time>
      </trkpt>
      <trkpt lat="37.4091430" lon="-4.4190510">
        <ele>598.2</ele>
        <time>2020-07-11T05:21:55Z</time>
      </trkpt>
      <trkpt lat="37.4090900" lon="-4.4189420">
        <ele>598.6</ele>
        <time>2020-07-11T05:21:57Z</time>
      </trkpt>
      <trkpt lat="37.4090630" lon="-4.4188970">
        <ele>598.8</ele>
        <time>2020-07-11T05:21:58Z</time>
      </trkpt>
      <trkpt lat="37.4089700" lon="-4.4187310">
        <ele>599.2</ele>
        <time>2020-07-11T05:22:01Z</time>
      </trkpt>
      <trkpt lat="37.4088540" lon="-4.4185040">
        <ele>600.0</ele>
        <time>2020-07-11T05:22:05Z</time>
      </trkpt>
      <trkpt lat="37.4087950" lon="-4.4183890">
        <ele>600.4</ele>
        <time>2020-07-11T05:22:07Z</time>
      </trkpt>
      <trkpt lat="37.4085740" lon="-4.4179630">
        <ele>601.4</ele>
        <time>2020-07-11T05:22:15Z</time>
      </trkpt>
      <trkpt lat="37.4085210" lon="-4.4178620">
        <ele>601.8</ele>
        <time>2020-07-11T05:22:17Z</time>
      </trkpt>
      <trkpt lat="37.4083840" lon="-4.4175960">
        <ele>602.4</ele>
        <time>2020-07-11T05:22:22Z</time>
      </trkpt>
      <trkpt lat="37.4081930" lon="-4.4172240">
        <ele>603.6</ele>
        <time>2020-07-11T05:22:29Z</time>
      </trkpt>
      <trkpt lat="37.4079650" lon="-4.4167990">
        <ele>604.6</ele>
        <time>2020-07-11T05:22:37Z</time>
      </trkpt>
      <trkpt lat="37.4077890" lon="-4.4164840">
        <ele>605.8</ele>
        <time>2020-07-11T05:22:43Z</time>
      </trkpt>
      <trkpt lat="37.4075680" lon="-4.4161080">
        <ele>606.8</ele>
        <time>2020-07-11T05:22:50Z</time>
      </trkpt>
      <trkpt lat="37.4073780" lon="-4.4158090">
        <ele>608.0</ele>
        <time>2020-07-11T05:22:56Z</time>
      </trkpt>
      <trkpt lat="37.4073430" lon="-4.4157580">
        <ele>608.2</ele>
        <time>2020-07-11T05:22:57Z</time>
      </trkpt>
      <trkpt lat="37.4071800" lon="-4.4155160">
        <ele>609.0</ele>
        <time>2020-07-11T05:23:02Z</time>
      </trkpt>
      <trkpt lat="37.4070130" lon="-4.4152750">
        <ele>610.0</ele>
        <time>2020-07-11T05:23:07Z</time>
      </trkpt>
      <trkpt lat="37.4069820" lon="-4.4152300">
        <ele>610.2</ele>
        <time>2020-07-11T05:23:08Z</time>
      </trkpt>
      <trkpt lat="37.4067530" lon="-4.4148960">
        <ele>611.2</ele>
        <time>2020-07-11T05:23:15Z</time>
      </trkpt>
      <trkpt lat="37.4067260" lon="-4.4148560">
        <ele>611.4</ele>
        <time>2020-07-11T05:23:16Z</time>
      </trkpt>
      <trkpt lat="37.4065950" lon="-4.4146660">
        <ele>612.4</ele>
        <time>2020-07-11T05:23:20Z</time>
      </trkpt>
      <trkpt lat="37.4064670" lon="-4.4144750">
        <ele>613.0</ele>
        <time>2020-07-11T05:23:24Z</time>
      </trkpt>
      <trkpt lat="37.4063780" lon="-4.4143230">
        <ele>613.6</ele>
        <time>2020-07-11T05:23:27Z</time>
      </trkpt>
      <trkpt lat="37.4062190" lon="-4.4140050">
        <ele>614.6</ele>
        <time>2020-07-11T05:23:33Z</time>
      </trkpt>
      <trkpt lat="37.4060160" lon="-4.4135470">
        <ele>615.4</ele>
        <time>2020-07-11T05:23:41Z</time>
      </trkpt>
      <trkpt lat="37.4059860" lon="-4.4134790">
        <ele>615.6</ele>
        <time>2020-07-11T05:23:42Z</time>
      </trkpt>
      <trkpt lat="37.4057330" lon="-4.4128750">
        <ele>616.4</ele>
        <time>2020-07-11T05:23:52Z</time>
      </trkpt>
      <trkpt lat="37.4056780" lon="-4.4127460">
        <ele>616.6</ele>
        <time>2020-07-11T05:23:54Z</time>
      </trkpt>
      <trkpt lat="37.4056280" lon="-4.4126270">
        <ele>616.6</ele>
        <time>2020-07-11T05:23:56Z</time>
      </trkpt>
      <trkpt lat="37.4053630" lon="-4.4120040">
        <ele>617.4</ele>
        <time>2020-07-11T05:24:06Z</time>
      </trkpt>
      <trkpt lat="37.4053120" lon="-4.4118790">
        <ele>617.6</ele>
        <time>2020-07-11T05:24:08Z</time>
      </trkpt>
      <trkpt lat="37.4050720" lon="-4.4113220">
        <ele>618.4</ele>
        <time>2020-07-11T05:24:17Z</time>
      </trkpt>
      <trkpt lat="37.4050470" lon="-4.4112610">
        <ele>618.4</ele>
        <time>2020-07-11T05:24:18Z</time>
      </trkpt>
      <trkpt lat="37.4049920" lon="-4.4111330">
        <ele>618.8</ele>
        <time>2020-07-11T05:24:20Z</time>
      </trkpt>
      <trkpt lat="37.4047300" lon="-4.4105170">
        <ele>619.4</ele>
        <time>2020-07-11T05:24:30Z</time>
      </trkpt>
      <trkpt lat="37.4047050" lon="-4.4104590">
        <ele>619.4</ele>
        <time>2020-07-11T05:24:31Z</time>
      </trkpt>
      <trkpt lat="37.4045730" lon="-4.4101500">
        <ele>620.0</ele>
        <time>2020-07-11T05:24:36Z</time>
      </trkpt>
      <trkpt lat="37.4044140" lon="-4.4097850">
        <ele>620.6</ele>
        <time>2020-07-11T05:24:42Z</time>
      </trkpt>
      <trkpt lat="37.4043120" lon="-4.4095450">
        <ele>621.0</ele>
        <time>2020-07-11T05:24:46Z</time>
      </trkpt>
      <trkpt lat="37.4040990" lon="-4.4090360">
        <ele>621.8</ele>
        <time>2020-07-11T05:24:54Z</time>
      </trkpt>
      <trkpt lat="37.4040480" lon="-4.4089200">
        <ele>622.0</ele>
        <time>2020-07-11T05:24:56Z</time>
      </trkpt>
      <trkpt lat="37.4038390" lon="-4.4084250">
        <ele>623.0</ele>
        <time>2020-07-11T05:25:04Z</time>
      </trkpt>
      <trkpt lat="37.4037600" lon="-4.4082350">
        <ele>623.4</ele>
        <time>2020-07-11T05:25:07Z</time>
      </trkpt>
      <trkpt lat="37.4036070" lon="-4.4078780">
        <ele>624.0</ele>
        <time>2020-07-11T05:25:13Z</time>
      </trkpt>
      <trkpt lat="37.4034520" lon="-4.4075160">
        <ele>624.8</ele>
        <time>2020-07-11T05:25:19Z</time>
      </trkpt>
      <trkpt lat="37.4034030" lon="-4.4074010">
        <ele>625.0</ele>
        <time>2020-07-11T05:25:21Z</time>
      </trkpt>
      <trkpt lat="37.4032200" lon="-4.4069820">
        <ele>625.8</ele>
        <time>2020-07-11T05:25:28Z</time>
      </trkpt>
      <trkpt lat="37.4030840" lon="-4.4066750">
        <ele>626.0</ele>
        <time>2020-07-11T05:25:33Z</time>
      </trkpt>
      <trkpt lat="37.4030550" lon="-4.4066170">
        <ele>626.2</ele>
        <time>2020-07-11T05:25:34Z</time>
      </trkpt>
      <trkpt lat="37.4027690" lon="-4.4061070">
        <ele>627.2</ele>
        <time>2020-07-11T05:25:43Z</time>
      </trkpt>
      <trkpt lat="37.4027300" lon="-4.4060480">
        <ele>627.2</ele>
        <time>2020-07-11T05:25:44Z</time>
      </trkpt>
      <trkpt lat="37.4024150" lon="-4.4055750">
        <ele>628.0</ele>
        <time>2020-07-11T05:25:53Z</time>
      </trkpt>
      <trkpt lat="37.4023020" lon="-4.4054150">
        <ele>628.4</ele>
        <time>2020-07-11T05:25:56Z</time>
      </trkpt>
      <trkpt lat="37.4020020" lon="-4.4049730">
        <ele>629.2</ele>
        <time>2020-07-11T05:26:04Z</time>
      </trkpt>
      <trkpt lat="37.4017240" lon="-4.4045700">
        <ele>629.4</ele>
        <time>2020-07-11T05:26:11Z</time>
      </trkpt>
      <trkpt lat="37.4016340" lon="-4.4044380">
        <ele>629.4</ele>
        <time>2020-07-11T05:26:13Z</time>
      </trkpt>
      <trkpt lat="37.4013230" lon="-4.4040100">
        <ele>629.0</ele>
        <time>2020-07-11T05:26:19Z</time>
      </trkpt>
      <trkpt lat="37.4011230" lon="-4.4037840">
        <ele>628.4</ele>
        <time>2020-07-11T05:26:22Z</time>
      </trkpt>
      <trkpt lat="37.4009530" lon="-4.4036380">
        <ele>627.2</ele>
        <time>2020-07-11T05:26:24Z</time>
      </trkpt>
      <trkpt lat="37.4007790" lon="-4.4035130">
        <ele>626.0</ele>
        <time>2020-07-11T05:26:26Z</time>
      </trkpt>
      <trkpt lat="37.4005900" lon="-4.4033790">
        <ele>624.8</ele>
        <time>2020-07-11T05:26:28Z</time>
      </trkpt>
      <trkpt lat="37.4004900" lon="-4.4032990">
        <ele>624.2</ele>
        <time>2020-07-11T05:26:29Z</time>
      </trkpt>
      <trkpt lat="37.4003850" lon="-4.4032040">
        <ele>623.6</ele>
        <time>2020-07-11T05:26:30Z</time>
      </trkpt>
      <trkpt lat="37.4002010" lon="-4.4029970">
        <ele>622.2</ele>
        <time>2020-07-11T05:26:32Z</time>
      </trkpt>
      <trkpt lat="37.4001140" lon="-4.4028800">
        <ele>621.6</ele>
        <time>2020-07-11T05:26:33Z</time>
      </trkpt>
      <trkpt lat="37.4000360" lon="-4.4027670">
        <ele>620.8</ele>
        <time>2020-07-11T05:26:34Z</time>
      </trkpt>
      <trkpt lat="37.3998640" lon="-4.4025050">
        <ele>619.4</ele>
        <time>2020-07-11T05:26:36Z</time>
      </trkpt>
      <trkpt lat="37.3997820" lon="-4.4023760">
        <ele>618.2</ele>
        <time>2020-07-11T05:26:37Z</time>
      </trkpt>
      <trkpt lat="37.3996610" lon="-4.4021770">
        <ele>616.4</ele>
        <time>2020-07-11T05:26:39Z</time>
      </trkpt>
      <trkpt lat="37.3995780" lon="-4.4020460">
        <ele>615.6</ele>
        <time>2020-07-11T05:26:40Z</time>
      </trkpt>
      <trkpt lat="37.3994520" lon="-4.4018520">
        <ele>615.2</ele>
        <time>2020-07-11T05:26:41Z</time>
      </trkpt>
      <trkpt lat="37.3993570" lon="-4.4017030">
        <ele>614.4</ele>
        <time>2020-07-11T05:26:42Z</time>
      </trkpt>
      <trkpt lat="37.3992730" lon="-4.4015670">
        <ele>613.4</ele>
        <time>2020-07-11T05:26:43Z</time>
      </trkpt>
      <trkpt lat="37.3991080" lon="-4.4013040">
        <ele>612.0</ele>
        <time>2020-07-11T05:26:45Z</time>
      </trkpt>
      <trkpt lat="37.3989430" lon="-4.4010420">
        <ele>610.4</ele>
        <time>2020-07-11T05:26:47Z</time>
      </trkpt>
      <trkpt lat="37.3988510" lon="-4.4008920">
        <ele>609.4</ele>
        <time>2020-07-11T05:26:48Z</time>
      </trkpt>
      <trkpt lat="37.3987710" lon="-4.4007500">
        <ele>608.6</ele>
        <time>2020-07-11T05:26:49Z</time>
      </trkpt>
      <trkpt lat="37.3987020" lon="-4.4005990">
        <ele>607.8</ele>
        <time>2020-07-11T05:26:50Z</time>
      </trkpt>
      <trkpt lat="37.3986520" lon="-4.4004550">
        <ele>606.8</ele>
        <time>2020-07-11T05:26:51Z</time>
      </trkpt>
      <trkpt lat="37.3985840" lon="-4.4001270">
        <ele>605.2</ele>
        <time>2020-07-11T05:26:53Z</time>
      </trkpt>
      <trkpt lat="37.3985670" lon="-4.3999330">
        <ele>604.4</ele>
        <time>2020-07-11T05:26:54Z</time>
      </trkpt>
      <trkpt lat="37.3985600" lon="-4.3997610">
        <ele>603.8</ele>
        <time>2020-07-11T05:26:55Z</time>
      </trkpt>
      <trkpt lat="37.3985560" lon="-4.3994120">
        <ele>602.2</ele>
        <time>2020-07-11T05:26:57Z</time>
      </trkpt>
      <trkpt lat="37.3985500" lon="-4.3990820">
        <ele>600.6</ele>
        <time>2020-07-11T05:26:59Z</time>
      </trkpt>
      <trkpt lat="37.3985460" lon="-4.3988940">
        <ele>599.6</ele>
        <time>2020-07-11T05:27:00Z</time>
      </trkpt>
      <trkpt lat="37.3985390" lon="-4.3985480">
        <ele>598.2</ele>
        <time>2020-07-11T05:27:02Z</time>
      </trkpt>
      <trkpt lat="37.3985290" lon="-4.3980490">
        <ele>596.6</ele>
        <time>2020-07-11T05:27:05Z</time>
      </trkpt>
      <trkpt lat="37.3985170" lon="-4.3976860">
        <ele>595.2</ele>
        <time>2020-07-11T05:27:07Z</time>
      </trkpt>
      <trkpt lat="37.3984850" lon="-4.3973430">
        <ele>593.4</ele>
        <time>2020-07-11T05:27:09Z</time>
      </trkpt>
      <trkpt lat="37.3984550" lon="-4.3971880">
        <ele>592.6</ele>
        <time>2020-07-11T05:27:10Z</time>
      </trkpt>
      <trkpt lat="37.3984110" lon="-4.3970310">
        <ele>591.8</ele>
        <time>2020-07-11T05:27:11Z</time>
      </trkpt>
      <trkpt lat="37.3983380" lon="-4.3968510">
        <ele>591.0</ele>
        <time>2020-07-11T05:27:12Z</time>
      </trkpt>
      <trkpt lat="37.3982600" lon="-4.3967010">
        <ele>590.4</ele>
        <time>2020-07-11T05:27:13Z</time>
      </trkpt>
      <trkpt lat="37.3980820" lon="-4.3964260">
        <ele>588.6</ele>
        <time>2020-07-11T05:27:15Z</time>
      </trkpt>
      <trkpt lat="37.3979930" lon="-4.3963070">
        <ele>587.6</ele>
        <time>2020-07-11T05:27:16Z</time>
      </trkpt>
      <trkpt lat="37.3978910" lon="-4.3961680">
        <ele>586.6</ele>
        <time>2020-07-11T05:27:17Z</time>
      </trkpt>
      <trkpt lat="37.3977160" lon="-4.3958830">
        <ele>584.6</ele>
        <time>2020-07-11T05:27:19Z</time>
      </trkpt>
      <trkpt lat="37.3976480" lon="-4.3957290">
        <ele>583.4</ele>
        <time>2020-07-11T05:27:20Z</time>
      </trkpt>
      <trkpt lat="37.3975540" lon="-4.3953990">
        <ele>581.8</ele>
        <time>2020-07-11T05:27:22Z</time>
      </trkpt>
      <trkpt lat="37.3975220" lon="-4.3952260">
        <ele>581.2</ele>
        <time>2020-07-11T05:27:23Z</time>
      </trkpt>
      <trkpt lat="37.3974930" lon="-4.3950420">
        <ele>580.2</ele>
        <time>2020-07-11T05:27:24Z</time>
      </trkpt>
      <trkpt lat="37.3974380" lon="-4.3946940">
        <ele>578.8</ele>
        <time>2020-07-11T05:27:26Z</time>
      </trkpt>
      <trkpt lat="37.3973830" lon="-4.3943400">
        <ele>577.0</ele>
        <time>2020-07-11T05:27:28Z</time>
      </trkpt>
      <trkpt lat="37.3973260" lon="-4.3939670">
        <ele>575.0</ele>
        <time>2020-07-11T05:27:30Z</time>
      </trkpt>
      <trkpt lat="37.3972690" lon="-4.3936100">
        <ele>573.0</ele>
        <time>2020-07-11T05:27:32Z</time>
      </trkpt>
      <trkpt lat="37.3972380" lon="-4.3934360">
        <ele>572.2</ele>
        <time>2020-07-11T05:27:33Z</time>
      </trkpt>
      <trkpt lat="37.3972030" lon="-4.3932680">
        <ele>571.0</ele>
        <time>2020-07-11T05:27:34Z</time>
      </trkpt>
      <trkpt lat="37.3971060" lon="-4.3929260">
        <ele>569.4</ele>
        <time>2020-07-11T05:27:36Z</time>
      </trkpt>
      <trkpt lat="37.3970400" lon="-4.3927550">
        <ele>568.4</ele>
        <time>2020-07-11T05:27:37Z</time>
      </trkpt>
      <trkpt lat="37.3969710" lon="-4.3926030">
        <ele>567.6</ele>
        <time>2020-07-11T05:27:38Z</time>
      </trkpt>
      <trkpt lat="37.3968070" lon="-4.3923080">
        <ele>565.8</ele>
        <time>2020-07-11T05:27:40Z</time>
      </trkpt>
      <trkpt lat="37.3967160" lon="-4.3921790">
        <ele>564.8</ele>
        <time>2020-07-11T05:27:41Z</time>
      </trkpt>
      <trkpt lat="37.3964940" lon="-4.3919230">
        <ele>563.0</ele>
        <time>2020-07-11T05:27:43Z</time>
      </trkpt>
      <trkpt lat="37.3962820" lon="-4.3916900">
        <ele>561.4</ele>
        <time>2020-07-11T05:27:45Z</time>
      </trkpt>
      <trkpt lat="37.3961020" lon="-4.3914480">
        <ele>560.2</ele>
        <time>2020-07-11T05:27:47Z</time>
      </trkpt>
      <trkpt lat="37.3960240" lon="-4.3913100">
        <ele>559.8</ele>
        <time>2020-07-11T05:27:48Z</time>
      </trkpt>
      <trkpt lat="37.3959030" lon="-4.3910360">
        <ele>559.0</ele>
        <time>2020-07-11T05:27:50Z</time>
      </trkpt>
      <trkpt lat="37.3958110" lon="-4.3907580">
        <ele>558.6</ele>
        <time>2020-07-11T05:27:52Z</time>
      </trkpt>
      <trkpt lat="37.3957230" lon="-4.3904730">
        <ele>558.2</ele>
        <time>2020-07-11T05:27:54Z</time>
      </trkpt>
      <trkpt lat="37.3956320" lon="-4.3902120">
        <ele>557.8</ele>
        <time>2020-07-11T05:27:56Z</time>
      </trkpt>
      <trkpt lat="37.3955720" lon="-4.3900790">
        <ele>557.6</ele>
        <time>2020-07-11T05:27:57Z</time>
      </trkpt>
      <trkpt lat="37.3955120" lon="-4.3899700">
        <ele>557.4</ele>
        <time>2020-07-11T05:27:58Z</time>
      </trkpt>
      <trkpt lat="37.3952960" lon="-4.3896410">
        <ele>556.6</ele>
        <time>2020-07-11T05:28:01Z</time>
      </trkpt>
      <trkpt lat="37.3950880" lon="-4.3893250">
        <ele>556.4</ele>
        <time>2020-07-11T05:28:04Z</time>
      </trkpt>
      <trkpt lat="37.3948200" lon="-4.3889170">
        <ele>556.0</ele>
        <time>2020-07-11T05:28:08Z</time>
      </trkpt>
      <trkpt lat="37.3946790" lon="-4.3887470">
        <ele>555.6</ele>
        <time>2020-07-11T05:28:10Z</time>
      </trkpt>
      <trkpt lat="37.3943290" lon="-4.3884780">
        <ele>555.2</ele>
        <time>2020-07-11T05:28:14Z</time>
      </trkpt>
      <trkpt lat="37.3940350" lon="-4.3883320">
        <ele>554.4</ele>
        <time>2020-07-11T05:28:17Z</time>
      </trkpt>
      <trkpt lat="37.3937190" lon="-4.3881770">
        <ele>553.2</ele>
        <time>2020-07-11T05:28:20Z</time>
      </trkpt>
      <trkpt lat="37.3934240" lon="-4.3879570">
        <ele>552.0</ele>
        <time>2020-07-11T05:28:23Z</time>
      </trkpt>
      <trkpt lat="37.3933330" lon="-4.3878560">
        <ele>551.4</ele>
        <time>2020-07-11T05:28:24Z</time>
      </trkpt>
      <trkpt lat="37.3932540" lon="-4.3877420">
        <ele>551.0</ele>
        <time>2020-07-11T05:28:25Z</time>
      </trkpt>
      <trkpt lat="37.3931320" lon="-4.3874850">
        <ele>549.8</ele>
        <time>2020-07-11T05:28:27Z</time>
      </trkpt>
      <trkpt lat="37.3930520" lon="-4.3872040">
        <ele>548.6</ele>
        <time>2020-07-11T05:28:29Z</time>
      </trkpt>
      <trkpt lat="37.3929560" lon="-4.3869220">
        <ele>547.6</ele>
        <time>2020-07-11T05:28:31Z</time>
      </trkpt>
      <trkpt lat="37.3928770" lon="-4.3867950">
        <ele>547.0</ele>
        <time>2020-07-11T05:28:32Z</time>
      </trkpt>
      <trkpt lat="37.3927780" lon="-4.3867030">
        <ele>546.4</ele>
        <time>2020-07-11T05:28:33Z</time>
      </trkpt>
      <trkpt lat="37.3926690" lon="-4.3866510">
        <ele>545.6</ele>
        <time>2020-07-11T05:28:34Z</time>
      </trkpt>
      <trkpt lat="37.3925490" lon="-4.3866280">
        <ele>545.0</ele>
        <time>2020-07-11T05:28:35Z</time>
      </trkpt>
      <trkpt lat="37.3924310" lon="-4.3866150">
        <ele>544.6</ele>
        <time>2020-07-11T05:28:36Z</time>
      </trkpt>
      <trkpt lat="37.3921930" lon="-4.3865950">
        <ele>543.4</ele>
        <time>2020-07-11T05:28:38Z</time>
      </trkpt>
      <trkpt lat="37.3919770" lon="-4.3865220">
        <ele>543.2</ele>
        <time>2020-07-11T05:28:40Z</time>
      </trkpt>
      <trkpt lat="37.3916530" lon="-4.3863790">
        <ele>542.6</ele>
        <time>2020-07-11T05:28:43Z</time>
      </trkpt>
      <trkpt lat="37.3915460" lon="-4.3863300">
        <ele>542.2</ele>
        <time>2020-07-11T05:28:44Z</time>
      </trkpt>
      <trkpt lat="37.3912130" lon="-4.3861800">
        <ele>541.0</ele>
        <time>2020-07-11T05:28:47Z</time>
      </trkpt>
      <trkpt lat="37.3910920" lon="-4.3861280">
        <ele>540.6</ele>
        <time>2020-07-11T05:28:48Z</time>
      </trkpt>
      <trkpt lat="37.3909780" lon="-4.3860780">
        <ele>540.0</ele>
        <time>2020-07-11T05:28:49Z</time>
      </trkpt>
      <trkpt lat="37.3907450" lon="-4.3859720">
        <ele>538.8</ele>
        <time>2020-07-11T05:28:51Z</time>
      </trkpt>
      <trkpt lat="37.3905000" lon="-4.3858620">
        <ele>537.4</ele>
        <time>2020-07-11T05:28:53Z</time>
      </trkpt>
      <trkpt lat="37.3902460" lon="-4.3857480">
        <ele>536.0</ele>
        <time>2020-07-11T05:28:55Z</time>
      </trkpt>
      <trkpt lat="37.3901290" lon="-4.3857020">
        <ele>535.2</ele>
        <time>2020-07-11T05:28:56Z</time>
      </trkpt>
      <trkpt lat="37.3900050" lon="-4.3856620">
        <ele>534.4</ele>
        <time>2020-07-11T05:28:57Z</time>
      </trkpt>
      <trkpt lat="37.3898860" lon="-4.3856370">
        <ele>533.6</ele>
        <time>2020-07-11T05:28:58Z</time>
      </trkpt>
      <trkpt lat="37.3897510" lon="-4.3856240">
        <ele>533.0</ele>
        <time>2020-07-11T05:28:59Z</time>
      </trkpt>
      <trkpt lat="37.3894880" lon="-4.3856250">
        <ele>531.4</ele>
        <time>2020-07-11T05:29:01Z</time>
      </trkpt>
      <trkpt lat="37.3892150" lon="-4.3856340">
        <ele>529.8</ele>
        <time>2020-07-11T05:29:03Z</time>
      </trkpt>
      <trkpt lat="37.3889530" lon="-4.3856330">
        <ele>528.2</ele>
        <time>2020-07-11T05:29:05Z</time>
      </trkpt>
      <trkpt lat="37.3888350" lon="-4.3856170">
        <ele>527.4</ele>
        <time>2020-07-11T05:29:06Z</time>
      </trkpt>
      <trkpt lat="37.3887070" lon="-4.3855850">
        <ele>526.6</ele>
        <time>2020-07-11T05:29:07Z</time>
      </trkpt>
      <trkpt lat="37.3885890" lon="-4.3855380">
        <ele>525.6</ele>
        <time>2020-07-11T05:29:08Z</time>
      </trkpt>
      <trkpt lat="37.3884760" lon="-4.3854780">
        <ele>524.6</ele>
        <time>2020-07-11T05:29:09Z</time>
      </trkpt>
      <trkpt lat="37.3883720" lon="-4.3854130">
        <ele>523.8</ele>
        <time>2020-07-11T05:29:10Z</time>
      </trkpt>
      <trkpt lat="37.3882670" lon="-4.3853460">
        <ele>523.0</ele>
        <time>2020-07-11T05:29:11Z</time>
      </trkpt>
      <trkpt lat="37.3881490" lon="-4.3852670">
        <ele>522.4</ele>
        <time>2020-07-11T05:29:12Z</time>
      </trkpt>
      <trkpt lat="37.3880430" lon="-4.3851950">
        <ele>521.8</ele>
        <time>2020-07-11T05:29:13Z</time>
      </trkpt>
      <trkpt lat="37.3878310" lon="-4.3850500">
        <ele>520.6</ele>
        <time>2020-07-11T05:29:15Z</time>
      </trkpt>
      <trkpt lat="37.3876330" lon="-4.3849140">
        <ele>519.6</ele>
        <time>2020-07-11T05:29:17Z</time>
      </trkpt>
      <trkpt lat="37.3874280" lon="-4.3847770">
        <ele>518.4</ele>
        <time>2020-07-11T05:29:19Z</time>
      </trkpt>
      <trkpt lat="37.3873290" lon="-4.3847110">
        <ele>517.8</ele>
        <time>2020-07-11T05:29:20Z</time>
      </trkpt>
      <trkpt lat="37.3871360" lon="-4.3845790">
        <ele>517.0</ele>
        <time>2020-07-11T05:29:22Z</time>
      </trkpt>
      <trkpt lat="37.3868460" lon="-4.3843760">
        <ele>515.8</ele>
        <time>2020-07-11T05:29:25Z</time>
      </trkpt>
      <trkpt lat="37.3865630" lon="-4.3842100">
        <ele>515.0</ele>
        <time>2020-07-11T05:29:28Z</time>
      </trkpt>
      <trkpt lat="37.3864570" lon="-4.3841690">
        <ele>514.6</ele>
        <time>2020-07-11T05:29:29Z</time>
      </trkpt>
      <trkpt lat="37.3861470" lon="-4.3841190">
        <ele>513.8</ele>
        <time>2020-07-11T05:29:32Z</time>
      </trkpt>
      <trkpt lat="37.3860400" lon="-4.3841160">
        <ele>513.6</ele>
        <time>2020-07-11T05:29:33Z</time>
      </trkpt>
      <trkpt lat="37.3856250" lon="-4.3841080">
        <ele>512.2</ele>
        <time>2020-07-11T05:29:37Z</time>
      </trkpt>
      <trkpt lat="37.3854260" lon="-4.3840810">
        <ele>511.8</ele>
        <time>2020-07-11T05:29:39Z</time>
      </trkpt>
      <trkpt lat="37.3852450" lon="-4.3840270">
        <ele>511.2</ele>
        <time>2020-07-11T05:29:41Z</time>
      </trkpt>
      <trkpt lat="37.3850580" lon="-4.3839380">
        <ele>510.8</ele>
        <time>2020-07-11T05:29:43Z</time>
      </trkpt>
      <trkpt lat="37.3848240" lon="-4.3837680">
        <ele>510.2</ele>
        <time>2020-07-11T05:29:46Z</time>
      </trkpt>
      <trkpt lat="37.3847410" lon="-4.3836960">
        <ele>510.0</ele>
        <time>2020-07-11T05:29:47Z</time>
      </trkpt>
      <trkpt lat="37.3843230" lon="-4.3832690">
        <ele>509.4</ele>
        <time>2020-07-11T05:29:53Z</time>
      </trkpt>
      <trkpt lat="37.3842480" lon="-4.3831950">
        <ele>509.2</ele>
        <time>2020-07-11T05:29:54Z</time>
      </trkpt>
      <trkpt lat="37.3841020" lon="-4.3830670">
        <ele>509.0</ele>
        <time>2020-07-11T05:29:56Z</time>
      </trkpt>
      <trkpt lat="37.3840210" lon="-4.3830040">
        <ele>509.0</ele>
        <time>2020-07-11T05:29:57Z</time>
      </trkpt>
      <trkpt lat="37.3838630" lon="-4.3828970">
        <ele>508.8</ele>
        <time>2020-07-11T05:29:59Z</time>
      </trkpt>
      <trkpt lat="37.3836980" lon="-4.3827870">
        <ele>508.6</ele>
        <time>2020-07-11T05:30:01Z</time>
      </trkpt>
      <trkpt lat="37.3835230" lon="-4.3826690">
        <ele>508.4</ele>
        <time>2020-07-11T05:30:03Z</time>
      </trkpt>
      <trkpt lat="37.3833470" lon="-4.3825500">
        <ele>507.8</ele>
        <time>2020-07-11T05:30:05Z</time>
      </trkpt>
      <trkpt lat="37.3831550" lon="-4.3824210">
        <ele>507.2</ele>
        <time>2020-07-11T05:30:07Z</time>
      </trkpt>
      <trkpt lat="37.3830630" lon="-4.3823600">
        <ele>506.6</ele>
        <time>2020-07-11T05:30:08Z</time>
      </trkpt>
      <trkpt lat="37.3828580" lon="-4.3822240">
        <ele>505.4</ele>
        <time>2020-07-11T05:30:10Z</time>
      </trkpt>
      <trkpt lat="37.3826260" lon="-4.3821030">
        <ele>503.8</ele>
        <time>2020-07-11T05:30:12Z</time>
      </trkpt>
      <trkpt lat="37.3823670" lon="-4.3820390">
        <ele>502.0</ele>
        <time>2020-07-11T05:30:14Z</time>
      </trkpt>
      <trkpt lat="37.3822310" lon="-4.3820370">
        <ele>500.8</ele>
        <time>2020-07-11T05:30:15Z</time>
      </trkpt>
      <trkpt lat="37.3821100" lon="-4.3820530">
        <ele>499.4</ele>
        <time>2020-07-11T05:30:16Z</time>
      </trkpt>
      <trkpt lat="37.3819690" lon="-4.3820880">
        <ele>498.2</ele>
        <time>2020-07-11T05:30:17Z</time>
      </trkpt>
      <trkpt lat="37.3818420" lon="-4.3821310">
        <ele>497.2</ele>
        <time>2020-07-11T05:30:18Z</time>
      </trkpt>
      <trkpt lat="37.3815590" lon="-4.3822330">
        <ele>495.8</ele>
        <time>2020-07-11T05:30:20Z</time>
      </trkpt>
      <trkpt lat="37.3813020" lon="-4.3823340">
        <ele>494.4</ele>
        <time>2020-07-11T05:30:22Z</time>
      </trkpt>
      <trkpt lat="37.3810740" lon="-4.3824330">
        <ele>493.6</ele>
        <time>2020-07-11T05:30:24Z</time>
      </trkpt>
      <trkpt lat="37.3809670" lon="-4.3824760">
        <ele>493.2</ele>
        <time>2020-07-11T05:30:25Z</time>
      </trkpt>
      <trkpt lat="37.3806560" lon="-4.3825400">
        <ele>493.0</ele>
        <time>2020-07-11T05:30:28Z</time>
      </trkpt>
      <trkpt lat="37.3802430" lon="-4.3824630">
        <ele>493.0</ele>
        <time>2020-07-11T05:30:32Z</time>
      </trkpt>
      <trkpt lat="37.3801430" lon="-4.3824270">
        <ele>493.0</ele>
        <time>2020-07-11T05:30:33Z</time>
      </trkpt>
      <trkpt lat="37.3798410" lon="-4.3823180">
        <ele>492.2</ele>
        <time>2020-07-11T05:30:36Z</time>
      </trkpt>
      <trkpt lat="37.3794360" lon="-4.3821620">
        <ele>491.0</ele>
        <time>2020-07-11T05:30:40Z</time>
      </trkpt>
      <trkpt lat="37.3789250" lon="-4.3819780">
        <ele>490.0</ele>
        <time>2020-07-11T05:30:45Z</time>
      </trkpt>
      <trkpt lat="37.3785320" lon="-4.3818530">
        <ele>489.0</ele>
        <time>2020-07-11T05:30:49Z</time>
      </trkpt>
      <trkpt lat="37.3784360" lon="-4.3818240">
        <ele>488.8</ele>
        <time>2020-07-11T05:30:50Z</time>
      </trkpt>
      <trkpt lat="37.3778750" lon="-4.3816760">
        <ele>488.0</ele>
        <time>2020-07-11T05:30:56Z</time>
      </trkpt>
      <trkpt lat="37.3775950" lon="-4.3816150">
        <ele>488.0</ele>
        <time>2020-07-11T05:30:59Z</time>
      </trkpt>
      <trkpt lat="37.3775010" lon="-4.3815950">
        <ele>487.8</ele>
        <time>2020-07-11T05:31:00Z</time>
      </trkpt>
      <trkpt lat="37.3772290" lon="-4.3815420">
        <ele>487.8</ele>
        <time>2020-07-11T05:31:03Z</time>
      </trkpt>
      <trkpt lat="37.3769670" lon="-4.3814930">
        <ele>487.8</ele>
        <time>2020-07-11T05:31:06Z</time>
      </trkpt>
      <trkpt lat="37.3767880" lon="-4.3814570">
        <ele>487.6</ele>
        <time>2020-07-11T05:31:08Z</time>
      </trkpt>
      <trkpt lat="37.3767010" lon="-4.3814390">
        <ele>487.4</ele>
        <time>2020-07-11T05:31:09Z</time>
      </trkpt>
      <trkpt lat="37.3762660" lon="-4.3813520">
        <ele>487.0</ele>
        <time>2020-07-11T05:31:14Z</time>
      </trkpt>
      <trkpt lat="37.3760990" lon="-4.3813140">
        <ele>486.8</ele>
        <time>2020-07-11T05:31:16Z</time>
      </trkpt>
      <trkpt lat="37.3758240" lon="-4.3812460">
        <ele>486.4</ele>
        <time>2020-07-11T05:31:19Z</time>
      </trkpt>
      <trkpt lat="37.3754950" lon="-4.3811500">
        <ele>486.0</ele>
        <time>2020-07-11T05:31:23Z</time>
      </trkpt>
      <trkpt lat="37.3752920" lon="-4.3810870">
        <ele>485.8</ele>
        <time>2020-07-11T05:31:25Z</time>
      </trkpt>
      <trkpt lat="37.3748560" lon="-4.3809430">
        <ele>485.2</ele>
        <time>2020-07-11T05:31:30Z</time>
      </trkpt>
      <trkpt lat="37.3744270" lon="-4.3808290">
        <ele>484.8</ele>
        <time>2020-07-11T05:31:35Z</time>
      </trkpt>
      <trkpt lat="37.3742490" lon="-4.3808270">
        <ele>484.6</ele>
        <time>2020-07-11T05:31:37Z</time>
      </trkpt>
      <trkpt lat="37.3739120" lon="-4.3809170">
        <ele>484.2</ele>
        <time>2020-07-11T05:31:41Z</time>
      </trkpt>
      <trkpt lat="37.3736470" lon="-4.3810410">
        <ele>483.8</ele>
        <time>2020-07-11T05:31:44Z</time>
      </trkpt>
      <trkpt lat="37.3733720" lon="-4.3811640">
        <ele>483.2</ele>
        <time>2020-07-11T05:31:47Z</time>
      </trkpt>
      <trkpt lat="37.3731730" lon="-4.3812540">
        <ele>482.4</ele>
        <time>2020-07-11T05:31:49Z</time>
      </trkpt>
      <trkpt lat="37.3728740" lon="-4.3813650">
        <ele>481.0</ele>
        <time>2020-07-11T05:31:52Z</time>
      </trkpt>
      <trkpt lat="37.3727650" lon="-4.3813840">
        <ele>480.2</ele>
        <time>2020-07-11T05:31:53Z</time>
      </trkpt>
      <trkpt lat="37.3726570" lon="-4.3813910">
        <ele>479.6</ele>
        <time>2020-07-11T05:31:54Z</time>
      </trkpt>
      <trkpt lat="37.3725500" lon="-4.3813810">
        <ele>479.0</ele>
        <time>2020-07-11T05:31:55Z</time>
      </trkpt>
      <trkpt lat="37.3724510" lon="-4.3813550">
        <ele>478.4</ele>
        <time>2020-07-11T05:31:56Z</time>
      </trkpt>
      <trkpt lat="37.3721690" lon="-4.3811860">
        <ele>477.2</ele>
        <time>2020-07-11T05:31:59Z</time>
      </trkpt>
      <trkpt lat="37.3719410" lon="-4.3809270">
        <ele>476.8</ele>
        <time>2020-07-11T05:32:02Z</time>
      </trkpt>
      <trkpt lat="37.3718730" lon="-4.3808340">
        <ele>476.4</ele>
        <time>2020-07-11T05:32:03Z</time>
      </trkpt>
      <trkpt lat="37.3718010" lon="-4.3807360">
        <ele>476.4</ele>
        <time>2020-07-11T05:32:04Z</time>
      </trkpt>
      <trkpt lat="37.3717260" lon="-4.3806350">
        <ele>476.0</ele>
        <time>2020-07-11T05:32:05Z</time>
      </trkpt>
      <trkpt lat="37.3714510" lon="-4.3803700">
        <ele>474.8</ele>
        <time>2020-07-11T05:32:08Z</time>
      </trkpt>
      <trkpt lat="37.3712290" lon="-4.3802700">
        <ele>473.6</ele>
        <time>2020-07-11T05:32:10Z</time>
      </trkpt>
      <trkpt lat="37.3711160" lon="-4.3802490">
        <ele>473.2</ele>
        <time>2020-07-11T05:32:11Z</time>
      </trkpt>
      <trkpt lat="37.3708600" lon="-4.3802450">
        <ele>472.0</ele>
        <time>2020-07-11T05:32:13Z</time>
      </trkpt>
      <trkpt lat="37.3707370" lon="-4.3802510">
        <ele>471.4</ele>
        <time>2020-07-11T05:32:14Z</time>
      </trkpt>
      <trkpt lat="37.3706180" lon="-4.3802560">
        <ele>471.0</ele>
        <time>2020-07-11T05:32:15Z</time>
      </trkpt>
      <trkpt lat="37.3703770" lon="-4.3802660">
        <ele>469.6</ele>
        <time>2020-07-11T05:32:17Z</time>
      </trkpt>
      <trkpt lat="37.3701270" lon="-4.3802670">
        <ele>468.4</ele>
        <time>2020-07-11T05:32:19Z</time>
      </trkpt>
      <trkpt lat="37.3700030" lon="-4.3802590">
        <ele>467.8</ele>
        <time>2020-07-11T05:32:20Z</time>
      </trkpt>
      <trkpt lat="37.3698860" lon="-4.3802390">
        <ele>467.2</ele>
        <time>2020-07-11T05:32:21Z</time>
      </trkpt>
      <trkpt lat="37.3697660" lon="-4.3801970">
        <ele>466.8</ele>
        <time>2020-07-11T05:32:22Z</time>
      </trkpt>
      <trkpt lat="37.3696510" lon="-4.3801320">
        <ele>466.2</ele>
        <time>2020-07-11T05:32:23Z</time>
      </trkpt>
      <trkpt lat="37.3695480" lon="-4.3800520">
        <ele>465.8</ele>
        <time>2020-07-11T05:32:24Z</time>
      </trkpt>
      <trkpt lat="37.3693680" lon="-4.3798610">
        <ele>464.8</ele>
        <time>2020-07-11T05:32:26Z</time>
      </trkpt>
      <trkpt lat="37.3692750" lon="-4.3797560">
        <ele>464.2</ele>
        <time>2020-07-11T05:32:27Z</time>
      </trkpt>
      <trkpt lat="37.3690870" lon="-4.3795820">
        <ele>463.0</ele>
        <time>2020-07-11T05:32:29Z</time>
      </trkpt>
      <trkpt lat="37.3689780" lon="-4.3795050">
        <ele>462.4</ele>
        <time>2020-07-11T05:32:30Z</time>
      </trkpt>
      <trkpt lat="37.3688770" lon="-4.3794550">
        <ele>461.8</ele>
        <time>2020-07-11T05:32:31Z</time>
      </trkpt>
      <trkpt lat="37.3685500" lon="-4.3793490">
        <ele>460.6</ele>
        <time>2020-07-11T05:32:34Z</time>
      </trkpt>
      <trkpt lat="37.3684420" lon="-4.3793250">
        <ele>460.2</ele>
        <time>2020-07-11T05:32:35Z</time>
      </trkpt>
      <trkpt lat="37.3681230" lon="-4.3792600">
        <ele>459.6</ele>
        <time>2020-07-11T05:32:38Z</time>
      </trkpt>
      <trkpt lat="37.3679160" lon="-4.3792150">
        <ele>459.0</ele>
        <time>2020-07-11T05:32:40Z</time>
      </trkpt>
      <trkpt lat="37.3677000" lon="-4.3791690">
        <ele>458.4</ele>
        <time>2020-07-11T05:32:42Z</time>
      </trkpt>
      <trkpt lat="37.3674910" lon="-4.3791270">
        <ele>458.2</ele>
        <time>2020-07-11T05:32:44Z</time>
      </trkpt>
      <trkpt lat="37.3671810" lon="-4.3790950">
        <ele>458.0</ele>
        <time>2020-07-11T05:32:47Z</time>
      </trkpt>
      <trkpt lat="37.3668750" lon="-4.3790920">
        <ele>457.8</ele>
        <time>2020-07-11T05:32:50Z</time>
      </trkpt>
      <trkpt lat="37.3662950" lon="-4.3791410">
        <ele>457.6</ele>
        <time>2020-07-11T05:32:56Z</time>
      </trkpt>
      <trkpt lat="37.3661960" lon="-4.3791410">
        <ele>457.6</ele>
        <time>2020-07-11T05:32:57Z</time>
      </trkpt>
      <trkpt lat="37.3660080" lon="-4.3791270">
        <ele>457.8</ele>
        <time>2020-07-11T05:32:59Z</time>
      </trkpt>
      <trkpt lat="37.3658300" lon="-4.3790850">
        <ele>457.8</ele>
        <time>2020-07-11T05:33:01Z</time>
      </trkpt>
      <trkpt lat="37.3657390" lon="-4.3790520">
        <ele>457.8</ele>
        <time>2020-07-11T05:33:02Z</time>
      </trkpt>
      <trkpt lat="37.3654170" lon="-4.3788710">
        <ele>457.6</ele>
        <time>2020-07-11T05:33:06Z</time>
      </trkpt>
      <trkpt lat="37.3653400" lon="-4.3788090">
        <ele>457.8</ele>
        <time>2020-07-11T05:33:07Z</time>
      </trkpt>
      <trkpt lat="37.3650670" lon="-4.3785640">
        <ele>457.6</ele>
        <time>2020-07-11T05:33:11Z</time>
      </trkpt>
      <trkpt lat="37.3647810" lon="-4.3783140">
        <ele>457.6</ele>
        <time>2020-07-11T05:33:15Z</time>
      </trkpt>
      <trkpt lat="37.3647090" lon="-4.3782740">
        <ele>457.6</ele>
        <time>2020-07-11T05:33:16Z</time>
      </trkpt>
      <trkpt lat="37.3644590" lon="-4.3781870">
        <ele>457.6</ele>
        <time>2020-07-11T05:33:19Z</time>
      </trkpt>
      <trkpt lat="37.3643780" lon="-4.3781720">
        <ele>457.4</ele>
        <time>2020-07-11T05:33:20Z</time>
      </trkpt>
      <trkpt lat="37.3640490" lon="-4.3781490">
        <ele>457.6</ele>
        <time>2020-07-11T05:33:24Z</time>
      </trkpt>
      <trkpt lat="37.3638040" lon="-4.3781470">
        <ele>457.6</ele>
        <time>2020-07-11T05:33:27Z</time>
      </trkpt>
      <trkpt lat="37.3635580" lon="-4.3781640">
        <ele>457.6</ele>
        <time>2020-07-11T05:33:30Z</time>
      </trkpt>
      <trkpt lat="37.3634800" lon="-4.3781820">
        <ele>457.6</ele>
        <time>2020-07-11T05:33:31Z</time>
      </trkpt>
      <trkpt lat="37.3631660" lon="-4.3783070">
        <ele>457.6</ele>
        <time>2020-07-11T05:33:35Z</time>
      </trkpt>
      <trkpt lat="37.3630920" lon="-4.3783410">
        <ele>457.6</ele>
        <time>2020-07-11T05:33:36Z</time>
      </trkpt>
      <trkpt lat="37.3625190" lon="-4.3785990">
        <ele>457.2</ele>
        <time>2020-07-11T05:33:43Z</time>
      </trkpt>
      <trkpt lat="37.3621690" lon="-4.3787270">
        <ele>456.0</ele>
        <time>2020-07-11T05:33:47Z</time>
      </trkpt>
      <trkpt lat="37.3619860" lon="-4.3787600">
        <ele>455.6</ele>
        <time>2020-07-11T05:33:49Z</time>
      </trkpt>
      <trkpt lat="37.3617190" lon="-4.3787590">
        <ele>455.0</ele>
        <time>2020-07-11T05:33:52Z</time>
      </trkpt>
      <trkpt lat="37.3615420" lon="-4.3787470">
        <ele>454.6</ele>
        <time>2020-07-11T05:33:54Z</time>
      </trkpt>
      <trkpt lat="37.3609570" lon="-4.3787450">
        <ele>454.4</ele>
        <time>2020-07-11T05:34:01Z</time>
      </trkpt>
      <trkpt lat="37.3608680" lon="-4.3787590">
        <ele>454.2</ele>
        <time>2020-07-11T05:34:02Z</time>
      </trkpt>
      <trkpt lat="37.3606200" lon="-4.3788390">
        <ele>454.0</ele>
        <time>2020-07-11T05:34:05Z</time>
      </trkpt>
      <trkpt lat="37.3604540" lon="-4.3789170">
        <ele>453.8</ele>
        <time>2020-07-11T05:34:07Z</time>
      </trkpt>
      <trkpt lat="37.3599460" lon="-4.3791780">
        <ele>452.8</ele>
        <time>2020-07-11T05:34:13Z</time>
      </trkpt>
      <trkpt lat="37.3597750" lon="-4.3792740">
        <ele>452.4</ele>
        <time>2020-07-11T05:34:15Z</time>
      </trkpt>
      <trkpt lat="37.3594400" lon="-4.3795250">
        <ele>451.4</ele>
        <time>2020-07-11T05:34:19Z</time>
      </trkpt>
      <trkpt lat="37.3593600" lon="-4.3796090">
        <ele>451.2</ele>
        <time>2020-07-11T05:34:20Z</time>
      </trkpt>
      <trkpt lat="37.3592150" lon="-4.3797970">
        <ele>450.2</ele>
        <time>2020-07-11T05:34:22Z</time>
      </trkpt>
      <trkpt lat="37.3590730" lon="-4.3799910">
        <ele>449.2</ele>
        <time>2020-07-11T05:34:24Z</time>
      </trkpt>
      <trkpt lat="37.3589850" lon="-4.3801130">
        <ele>448.8</ele>
        <time>2020-07-11T05:34:25Z</time>
      </trkpt>
      <trkpt lat="37.3588310" lon="-4.3803260">
        <ele>447.4</ele>
        <time>2020-07-11T05:34:27Z</time>
      </trkpt>
      <trkpt lat="37.3586820" lon="-4.3805380">
        <ele>446.4</ele>
        <time>2020-07-11T05:34:29Z</time>
      </trkpt>
      <trkpt lat="37.3584550" lon="-4.3808600">
        <ele>445.0</ele>
        <time>2020-07-11T05:34:32Z</time>
      </trkpt>
      <trkpt lat="37.3583850" lon="-4.3809630">
        <ele>444.6</ele>
        <time>2020-07-11T05:34:33Z</time>
      </trkpt>
      <trkpt lat="37.3582520" lon="-4.3811580">
        <ele>444.0</ele>
        <time>2020-07-11T05:34:35Z</time>
      </trkpt>
      <trkpt lat="37.3579370" lon="-4.3816210">
        <ele>443.8</ele>
        <time>2020-07-11T05:34:40Z</time>
      </trkpt>
      <trkpt lat="37.3576940" lon="-4.3820980">
        <ele>444.0</ele>
        <time>2020-07-11T05:34:45Z</time>
      </trkpt>
      <trkpt lat="37.3576690" lon="-4.3821920">
        <ele>444.0</ele>
        <time>2020-07-11T05:34:46Z</time>
      </trkpt>
      <trkpt lat="37.3576260" lon="-4.3825210">
        <ele>444.2</ele>
        <time>2020-07-11T05:34:49Z</time>
      </trkpt>
      <trkpt lat="37.3576250" lon="-4.3827270">
        <ele>444.4</ele>
        <time>2020-07-11T05:34:51Z</time>
      </trkpt>
      <trkpt lat="37.3576320" lon="-4.3831350">
        <ele>444.6</ele>
        <time>2020-07-11T05:34:55Z</time>
      </trkpt>
      <trkpt lat="37.3576420" lon="-4.3835160">
        <ele>445.0</ele>
        <time>2020-07-11T05:34:59Z</time>
      </trkpt>
      <trkpt lat="37.3576460" lon="-4.3837020">
        <ele>445.2</ele>
        <time>2020-07-11T05:35:01Z</time>
      </trkpt>
      <trkpt lat="37.3576530" lon="-4.3840610">
        <ele>445.8</ele>
        <time>2020-07-11T05:35:05Z</time>
      </trkpt>
      <trkpt lat="37.3576500" lon="-4.3843150">
        <ele>446.2</ele>
        <time>2020-07-11T05:35:08Z</time>
      </trkpt>
      <trkpt lat="37.3576390" lon="-4.3845500">
        <ele>447.2</ele>
        <time>2020-07-11T05:35:11Z</time>
      </trkpt>
      <trkpt lat="37.3576320" lon="-4.3846360">
        <ele>447.6</ele>
        <time>2020-07-11T05:35:12Z</time>
      </trkpt>
      <trkpt lat="37.3576050" lon="-4.3848870">
        <ele>448.4</ele>
        <time>2020-07-11T05:35:15Z</time>
      </trkpt>
      <trkpt lat="37.3575550" lon="-4.3851490">
        <ele>448.8</ele>
        <time>2020-07-11T05:35:18Z</time>
      </trkpt>
      <trkpt lat="37.3575360" lon="-4.3852390">
        <ele>449.0</ele>
        <time>2020-07-11T05:35:19Z</time>
      </trkpt>
      <trkpt lat="37.3574220" lon="-4.3855960">
        <ele>449.2</ele>
        <time>2020-07-11T05:35:23Z</time>
      </trkpt>
      <trkpt lat="37.3573830" lon="-4.3856900">
        <ele>449.2</ele>
        <time>2020-07-11T05:35:24Z</time>
      </trkpt>
      <trkpt lat="37.3572670" lon="-4.3859310">
        <ele>449.2</ele>
        <time>2020-07-11T05:35:27Z</time>
      </trkpt>
      <trkpt lat="37.3571800" lon="-4.3860960">
        <ele>449.4</ele>
        <time>2020-07-11T05:35:29Z</time>
      </trkpt>
      <trkpt lat="37.3571370" lon="-4.3861730">
        <ele>449.6</ele>
        <time>2020-07-11T05:35:30Z</time>
      </trkpt>
      <trkpt lat="37.3568950" lon="-4.3865480">
        <ele>450.4</ele>
        <time>2020-07-11T05:35:35Z</time>
      </trkpt>
      <trkpt lat="37.3568390" lon="-4.3866270">
        <ele>450.4</ele>
        <time>2020-07-11T05:35:36Z</time>
      </trkpt>
      <trkpt lat="37.3565420" lon="-4.3870220">
        <ele>449.4</ele>
        <time>2020-07-11T05:35:41Z</time>
      </trkpt>
      <trkpt lat="37.3563950" lon="-4.3871790">
        <ele>448.8</ele>
        <time>2020-07-11T05:35:43Z</time>
      </trkpt>
      <trkpt lat="37.3562370" lon="-4.3873090">
        <ele>448.2</ele>
        <time>2020-07-11T05:35:45Z</time>
      </trkpt>
      <trkpt lat="37.3559820" lon="-4.3874780">
        <ele>447.4</ele>
        <time>2020-07-11T05:35:48Z</time>
      </trkpt>
      <trkpt lat="37.3558950" lon="-4.3875340">
        <ele>447.0</ele>
        <time>2020-07-11T05:35:49Z</time>
      </trkpt>
      <trkpt lat="37.3555520" lon="-4.3877770">
        <ele>445.6</ele>
        <time>2020-07-11T05:35:53Z</time>
      </trkpt>
      <trkpt lat="37.3553150" lon="-4.3880110">
        <ele>444.4</ele>
        <time>2020-07-11T05:35:56Z</time>
      </trkpt>
      <trkpt lat="37.3551090" lon="-4.3882920">
        <ele>443.4</ele>
        <time>2020-07-11T05:35:59Z</time>
      </trkpt>
      <trkpt lat="37.3549790" lon="-4.3884760">
        <ele>442.8</ele>
        <time>2020-07-11T05:36:01Z</time>
      </trkpt>
      <trkpt lat="37.3547930" lon="-4.3887470">
        <ele>442.2</ele>
        <time>2020-07-11T05:36:04Z</time>
      </trkpt>
      <trkpt lat="37.3545720" lon="-4.3890770">
        <ele>442.0</ele>
        <time>2020-07-11T05:36:08Z</time>
      </trkpt>
      <trkpt lat="37.3542750" lon="-4.3895050">
        <ele>443.0</ele>
        <time>2020-07-11T05:36:14Z</time>
      </trkpt>
      <trkpt lat="37.3542290" lon="-4.3895720">
        <ele>443.4</ele>
        <time>2020-07-11T05:36:15Z</time>
      </trkpt>
      <trkpt lat="37.3540060" lon="-4.3898870">
        <ele>444.6</ele>
        <time>2020-07-11T05:36:20Z</time>
      </trkpt>
      <trkpt lat="37.3538820" lon="-4.3900670">
        <ele>445.2</ele>
        <time>2020-07-11T05:36:23Z</time>
      </trkpt>
      <trkpt lat="37.3537960" lon="-4.3901880">
        <ele>445.6</ele>
        <time>2020-07-11T05:36:25Z</time>
      </trkpt>
      <trkpt lat="37.3536330" lon="-4.3904160">
        <ele>446.4</ele>
        <time>2020-07-11T05:36:29Z</time>
      </trkpt>
      <trkpt lat="37.3535920" lon="-4.3904770">
        <ele>446.6</ele>
        <time>2020-07-11T05:36:30Z</time>
      </trkpt>
      <trkpt lat="37.3535120" lon="-4.3905950">
        <ele>447.0</ele>
        <time>2020-07-11T05:36:32Z</time>
      </trkpt>
      <trkpt lat="37.3533560" lon="-4.3908170">
        <ele>447.6</ele>
        <time>2020-07-11T05:36:36Z</time>
      </trkpt>
      <trkpt lat="37.3531930" lon="-4.3910410">
        <ele>448.4</ele>
        <time>2020-07-11T05:36:40Z</time>
      </trkpt>
      <trkpt lat="37.3531470" lon="-4.3910950">
        <ele>448.6</ele>
        <time>2020-07-11T05:36:41Z</time>
      </trkpt>
      <trkpt lat="37.3528820" lon="-4.3913800">
        <ele>448.8</ele>
        <time>2020-07-11T05:36:46Z</time>
      </trkpt>
      <trkpt lat="37.3524580" lon="-4.3916760">
        <ele>447.8</ele>
        <time>2020-07-11T05:36:52Z</time>
      </trkpt>
      <trkpt lat="37.3522950" lon="-4.3917430">
        <ele>447.4</ele>
        <time>2020-07-11T05:36:54Z</time>
      </trkpt>
      <trkpt lat="37.3520500" lon="-4.3918020">
        <ele>447.0</ele>
        <time>2020-07-11T05:36:57Z</time>
      </trkpt>
      <trkpt lat="37.3515860" lon="-4.3918180">
        <ele>446.8</ele>
        <time>2020-07-11T05:37:03Z</time>
      </trkpt>
      <trkpt lat="37.3513670" lon="-4.3917890">
        <ele>447.2</ele>
        <time>2020-07-11T05:37:06Z</time>
      </trkpt>
      <trkpt lat="37.3508560" lon="-4.3917230">
        <ele>447.8</ele>
        <time>2020-07-11T05:37:13Z</time>
      </trkpt>
      <trkpt lat="37.3503540" lon="-4.3916660">
        <ele>448.6</ele>
        <time>2020-07-11T05:37:20Z</time>
      </trkpt>
      <trkpt lat="37.3497760" lon="-4.3915970">
        <ele>449.2</ele>
        <time>2020-07-11T05:37:28Z</time>
      </trkpt>
      <trkpt lat="37.3496950" lon="-4.3915880">
        <ele>449.2</ele>
        <time>2020-07-11T05:37:29Z</time>
      </trkpt>
      <trkpt lat="37.3491450" lon="-4.3915250">
        <ele>448.4</ele>
        <time>2020-07-11T05:37:36Z</time>
      </trkpt>
      <trkpt lat="37.3488400" lon="-4.3914920">
        <ele>448.4</ele>
        <time>2020-07-11T05:37:40Z</time>
      </trkpt>
      <trkpt lat="37.3483580" lon="-4.3914400">
        <ele>449.6</ele>
        <time>2020-07-11T05:37:47Z</time>
      </trkpt>
      <trkpt lat="37.3482930" lon="-4.3914360">
        <ele>449.8</ele>
        <time>2020-07-11T05:37:48Z</time>
      </trkpt>
      <trkpt lat="37.3480530" lon="-4.3914300">
        <ele>450.6</ele>
        <time>2020-07-11T05:37:52Z</time>
      </trkpt>
      <trkpt lat="37.3478220" lon="-4.3914280">
        <ele>451.4</ele>
        <time>2020-07-11T05:37:56Z</time>
      </trkpt>
      <trkpt lat="37.3477120" lon="-4.3914340">
        <ele>451.8</ele>
        <time>2020-07-11T05:37:58Z</time>
      </trkpt>
      <trkpt lat="37.3474580" lon="-4.3914510">
        <ele>453.0</ele>
        <time>2020-07-11T05:38:03Z</time>
      </trkpt>
      <trkpt lat="37.3472860" lon="-4.3914670">
        <ele>454.2</ele>
        <time>2020-07-11T05:38:07Z</time>
      </trkpt>
      <trkpt lat="37.3471350" lon="-4.3914810">
        <ele>455.4</ele>
        <time>2020-07-11T05:38:11Z</time>
      </trkpt>
      <trkpt lat="37.3469920" lon="-4.3914920">
        <ele>456.6</ele>
        <time>2020-07-11T05:38:15Z</time>
      </trkpt>
      <trkpt lat="37.3468900" lon="-4.3914900">
        <ele>457.6</ele>
        <time>2020-07-11T05:38:18Z</time>
      </trkpt>
      <trkpt lat="37.3467560" lon="-4.3914870">
        <ele>458.6</ele>
        <time>2020-07-11T05:38:22Z</time>
      </trkpt>
      <trkpt lat="37.3466140" lon="-4.3914530">
        <ele>459.6</ele>
        <time>2020-07-11T05:38:26Z</time>
      </trkpt>
      <trkpt lat="37.3464690" lon="-4.3913970">
        <ele>460.8</ele>
        <time>2020-07-11T05:38:30Z</time>
      </trkpt>
      <trkpt lat="37.3463280" lon="-4.3913250">
        <ele>462.0</ele>
        <time>2020-07-11T05:38:34Z</time>
      </trkpt>
      <trkpt lat="37.3462920" lon="-4.3913040">
        <ele>462.4</ele>
        <time>2020-07-11T05:38:35Z</time>
      </trkpt>
      <trkpt lat="37.3461510" lon="-4.3911960">
        <ele>463.2</ele>
        <time>2020-07-11T05:38:39Z</time>
      </trkpt>
      <trkpt lat="37.3460470" lon="-4.3910940">
        <ele>464.0</ele>
        <time>2020-07-11T05:38:42Z</time>
      </trkpt>
      <trkpt lat="37.3460110" lon="-4.3910590">
        <ele>464.4</ele>
        <time>2020-07-11T05:38:43Z</time>
      </trkpt>
      <trkpt lat="37.3458890" lon="-4.3909060">
        <ele>465.4</ele>
        <time>2020-07-11T05:38:47Z</time>
      </trkpt>
      <trkpt lat="37.3458300" lon="-4.3908170">
        <ele>465.8</ele>
        <time>2020-07-11T05:38:49Z</time>
      </trkpt>
      <trkpt lat="37.3457550" lon="-4.3906830">
        <ele>466.6</ele>
        <time>2020-07-11T05:38:52Z</time>
      </trkpt>
      <trkpt lat="37.3456620" lon="-4.3904940">
        <ele>467.8</ele>
        <time>2020-07-11T05:38:56Z</time>
      </trkpt>
      <trkpt lat="37.3456380" lon="-4.3904440">
        <ele>468.0</ele>
        <time>2020-07-11T05:38:57Z</time>
      </trkpt>
      <trkpt lat="37.3455560" lon="-4.3902620">
        <ele>469.0</ele>
        <time>2020-07-11T05:39:01Z</time>
      </trkpt>
      <trkpt lat="37.3454720" lon="-4.3900660">
        <ele>470.0</ele>
        <time>2020-07-11T05:39:05Z</time>
      </trkpt>
      <trkpt lat="37.3454500" lon="-4.3900180">
        <ele>470.2</ele>
        <time>2020-07-11T05:39:06Z</time>
      </trkpt>
      <trkpt lat="37.3453210" lon="-4.3897240">
        <ele>471.2</ele>
        <time>2020-07-11T05:39:12Z</time>
      </trkpt>
      <trkpt lat="37.3452140" lon="-4.3894800">
        <ele>472.2</ele>
        <time>2020-07-11T05:39:17Z</time>
      </trkpt>
      <trkpt lat="37.3451910" lon="-4.3894290">
        <ele>472.4</ele>
        <time>2020-07-11T05:39:18Z</time>
      </trkpt>
      <trkpt lat="37.3449980" lon="-4.3890360">
        <ele>473.6</ele>
        <time>2020-07-11T05:39:26Z</time>
      </trkpt>
      <trkpt lat="37.3447440" lon="-4.3886720">
        <ele>474.2</ele>
        <time>2020-07-11T05:39:34Z</time>
      </trkpt>
      <trkpt lat="37.3444880" lon="-4.3884330">
        <ele>474.4</ele>
        <time>2020-07-11T05:39:40Z</time>
      </trkpt>
      <trkpt lat="37.3444400" lon="-4.3883950">
        <ele>474.4</ele>
        <time>2020-07-11T05:39:41Z</time>
      </trkpt>
      <trkpt lat="37.3442810" lon="-4.3882910">
        <ele>474.6</ele>
        <time>2020-07-11T05:39:44Z</time>
      </trkpt>
      <trkpt lat="37.3441730" lon="-4.3882360">
        <ele>474.6</ele>
        <time>2020-07-11T05:39:46Z</time>
      </trkpt>
      <trkpt lat="37.3440500" lon="-4.3881870">
        <ele>474.6</ele>
        <time>2020-07-11T05:39:48Z</time>
      </trkpt>
      <trkpt lat="37.3438750" lon="-4.3881370">
        <ele>474.6</ele>
        <time>2020-07-11T05:39:51Z</time>
      </trkpt>
      <trkpt lat="37.3436530" lon="-4.3881040">
        <ele>475.0</ele>
        <time>2020-07-11T05:39:55Z</time>
      </trkpt>
      <trkpt lat="37.3435070" lon="-4.3880980">
        <ele>475.6</ele>
        <time>2020-07-11T05:39:58Z</time>
      </trkpt>
      <trkpt lat="37.3433670" lon="-4.3880970">
        <ele>476.4</ele>
        <time>2020-07-11T05:40:01Z</time>
      </trkpt>
      <trkpt lat="37.3433200" lon="-4.3880970">
        <ele>476.8</ele>
        <time>2020-07-11T05:40:02Z</time>
      </trkpt>
      <trkpt lat="37.3432770" lon="-4.3880980">
        <ele>477.0</ele>
        <time>2020-07-11T05:40:03Z</time>
      </trkpt>
      <trkpt lat="37.3431550" lon="-4.3881020">
        <ele>478.0</ele>
        <time>2020-07-11T05:40:06Z</time>
      </trkpt>
      <trkpt lat="37.3429870" lon="-4.3881000">
        <ele>479.4</ele>
        <time>2020-07-11T05:40:10Z</time>
      </trkpt>
      <trkpt lat="37.3429450" lon="-4.3881000">
        <ele>479.6</ele>
        <time>2020-07-11T05:40:11Z</time>
      </trkpt>
      <trkpt lat="37.3428150" lon="-4.3880990">
        <ele>480.6</ele>
        <time>2020-07-11T05:40:14Z</time>
      </trkpt>
      <trkpt lat="37.3426040" lon="-4.3881040">
        <ele>482.0</ele>
        <time>2020-07-11T05:40:19Z</time>
      </trkpt>
      <trkpt lat="37.3424270" lon="-4.3881180">
        <ele>482.8</ele>
        <time>2020-07-11T05:40:23Z</time>
      </trkpt>
      <trkpt lat="37.3423810" lon="-4.3881220">
        <ele>483.0</ele>
        <time>2020-07-11T05:40:24Z</time>
      </trkpt>
      <trkpt lat="37.3421140" lon="-4.3881730">
        <ele>484.0</ele>
        <time>2020-07-11T05:40:30Z</time>
      </trkpt>
      <trkpt lat="37.3420740" lon="-4.3881840">
        <ele>484.2</ele>
        <time>2020-07-11T05:40:31Z</time>
      </trkpt>
      <trkpt lat="37.3419090" lon="-4.3882470">
        <ele>485.2</ele>
        <time>2020-07-11T05:40:35Z</time>
      </trkpt>
      <trkpt lat="37.3417840" lon="-4.3883010">
        <ele>486.2</ele>
        <time>2020-07-11T05:40:38Z</time>
      </trkpt>
      <trkpt lat="37.3417410" lon="-4.3883180">
        <ele>486.4</ele>
        <time>2020-07-11T05:40:39Z</time>
      </trkpt>
      <trkpt lat="37.3414210" lon="-4.3884470">
        <ele>487.4</ele>
        <time>2020-07-11T05:40:46Z</time>
      </trkpt>
      <trkpt lat="37.3413690" lon="-4.3884630">
        <ele>487.4</ele>
        <time>2020-07-11T05:40:47Z</time>
      </trkpt>
      <trkpt lat="37.3410680" lon="-4.3884850">
        <ele>488.0</ele>
        <time>2020-07-11T05:40:53Z</time>
      </trkpt>
      <trkpt lat="37.3407690" lon="-4.3883950">
        <ele>488.4</ele>
        <time>2020-07-11T05:40:59Z</time>
      </trkpt>
      <trkpt lat="37.3405810" lon="-4.3883000">
        <ele>488.8</ele>
        <time>2020-07-11T05:41:03Z</time>
      </trkpt>
      <trkpt lat="37.3404020" lon="-4.3882030">
        <ele>489.2</ele>
        <time>2020-07-11T05:41:07Z</time>
      </trkpt>
      <trkpt lat="37.3403540" lon="-4.3881770">
        <ele>489.2</ele>
        <time>2020-07-11T05:41:08Z</time>
      </trkpt>
      <trkpt lat="37.3403090" lon="-4.3881530">
        <ele>489.4</ele>
        <time>2020-07-11T05:41:09Z</time>
      </trkpt>
      <trkpt lat="37.3400850" lon="-4.3880270">
        <ele>490.4</ele>
        <time>2020-07-11T05:41:14Z</time>
      </trkpt>
      <trkpt lat="37.3400000" lon="-4.3879810">
        <ele>490.8</ele>
        <time>2020-07-11T05:41:16Z</time>
      </trkpt>
      <trkpt lat="37.3399070" lon="-4.3879280">
        <ele>491.2</ele>
        <time>2020-07-11T05:41:18Z</time>
      </trkpt>
      <trkpt lat="37.3398210" lon="-4.3878810">
        <ele>491.6</ele>
        <time>2020-07-11T05:41:20Z</time>
      </trkpt>
      <trkpt lat="37.3396030" lon="-4.3877600">
        <ele>492.8</ele>
        <time>2020-07-11T05:41:25Z</time>
      </trkpt>
      <trkpt lat="37.3394770" lon="-4.3876920">
        <ele>493.2</ele>
        <time>2020-07-11T05:41:28Z</time>
      </trkpt>
      <trkpt lat="37.3393900" lon="-4.3876400">
        <ele>493.8</ele>
        <time>2020-07-11T05:41:30Z</time>
      </trkpt>
      <trkpt lat="37.3391980" lon="-4.3874940">
        <ele>495.0</ele>
        <time>2020-07-11T05:41:35Z</time>
      </trkpt>
      <trkpt lat="37.3391270" lon="-4.3874260">
        <ele>495.4</ele>
        <time>2020-07-11T05:41:37Z</time>
      </trkpt>
      <trkpt lat="37.3390310" lon="-4.3873190">
        <ele>496.0</ele>
        <time>2020-07-11T05:41:40Z</time>
      </trkpt>
      <trkpt lat="37.3388750" lon="-4.3871060">
        <ele>496.8</ele>
        <time>2020-07-11T05:41:45Z</time>
      </trkpt>
      <trkpt lat="37.3388180" lon="-4.3870220">
        <ele>497.2</ele>
        <time>2020-07-11T05:41:47Z</time>
      </trkpt>
      <trkpt lat="37.3386020" lon="-4.3866840">
        <ele>498.2</ele>
        <time>2020-07-11T05:41:54Z</time>
      </trkpt>
      <trkpt lat="37.3385680" lon="-4.3866320">
        <ele>498.2</ele>
        <time>2020-07-11T05:41:55Z</time>
      </trkpt>
      <trkpt lat="37.3382860" lon="-4.3861880">
        <ele>498.2</ele>
        <time>2020-07-11T05:42:03Z</time>
      </trkpt>
      <trkpt lat="37.3381780" lon="-4.3860190">
        <ele>498.4</ele>
        <time>2020-07-11T05:42:06Z</time>
      </trkpt>
      <trkpt lat="37.3380540" lon="-4.3858440">
        <ele>498.4</ele>
        <time>2020-07-11T05:42:09Z</time>
      </trkpt>
      <trkpt lat="37.3378100" lon="-4.3855820">
        <ele>498.2</ele>
        <time>2020-07-11T05:42:14Z</time>
      </trkpt>
      <trkpt lat="37.3375900" lon="-4.3854300">
        <ele>498.2</ele>
        <time>2020-07-11T05:42:18Z</time>
      </trkpt>
      <trkpt lat="37.3374760" lon="-4.3853900">
        <ele>498.4</ele>
        <time>2020-07-11T05:42:20Z</time>
      </trkpt>
      <trkpt lat="37.3372240" lon="-4.3853380">
        <ele>499.4</ele>
        <time>2020-07-11T05:42:25Z</time>
      </trkpt>
      <trkpt lat="37.3371800" lon="-4.3853270">
        <ele>499.6</ele>
        <time>2020-07-11T05:42:26Z</time>
      </trkpt>
      <trkpt lat="37.3370450" lon="-4.3852970">
        <ele>500.4</ele>
        <time>2020-07-11T05:42:29Z</time>
      </trkpt>
      <trkpt lat="37.3368760" lon="-4.3852570">
        <ele>501.4</ele>
        <time>2020-07-11T05:42:33Z</time>
      </trkpt>
      <trkpt lat="37.3367940" lon="-4.3852320">
        <ele>501.8</ele>
        <time>2020-07-11T05:42:35Z</time>
      </trkpt>
      <trkpt lat="37.3366700" lon="-4.3851910">
        <ele>502.4</ele>
        <time>2020-07-11T05:42:38Z</time>
      </trkpt>
      <trkpt lat="37.3365090" lon="-4.3851200">
        <ele>503.6</ele>
        <time>2020-07-11T05:42:42Z</time>
      </trkpt>
      <trkpt lat="37.3364300" lon="-4.3850770">
        <ele>504.2</ele>
        <time>2020-07-11T05:42:44Z</time>
      </trkpt>
      <trkpt lat="37.3363180" lon="-4.3850000">
        <ele>504.8</ele>
        <time>2020-07-11T05:42:47Z</time>
      </trkpt>
      <trkpt lat="37.3361340" lon="-4.3848250">
        <ele>505.8</ele>
        <time>2020-07-11T05:42:52Z</time>
      </trkpt>
      <trkpt lat="37.3358920" lon="-4.3844660">
        <ele>507.0</ele>
        <time>2020-07-11T05:43:00Z</time>
      </trkpt>
      <trkpt lat="37.3356960" lon="-4.3841130">
        <ele>507.4</ele>
        <time>2020-07-11T05:43:07Z</time>
      </trkpt>
      <trkpt lat="37.3355820" lon="-4.3839030">
        <ele>507.8</ele>
        <time>2020-07-11T05:43:11Z</time>
      </trkpt>
      <trkpt lat="37.3354960" lon="-4.3837450">
        <ele>508.0</ele>
        <time>2020-07-11T05:43:14Z</time>
      </trkpt>
      <trkpt lat="37.3353190" lon="-4.3834250">
        <ele>509.0</ele>
        <time>2020-07-11T05:43:21Z</time>
      </trkpt>
      <trkpt lat="37.3352010" lon="-4.3832150">
        <ele>510.0</ele>
        <time>2020-07-11T05:43:26Z</time>
      </trkpt>
      <trkpt lat="37.3351060" lon="-4.3830560">
        <ele>511.0</ele>
        <time>2020-07-11T05:43:30Z</time>
      </trkpt>
      <trkpt lat="37.3350830" lon="-4.3830200">
        <ele>511.2</ele>
        <time>2020-07-11T05:43:31Z</time>
      </trkpt>
      <trkpt lat="37.3349890" lon="-4.3828860">
        <ele>512.4</ele>
        <time>2020-07-11T05:43:35Z</time>
      </trkpt>
      <trkpt lat="37.3349140" lon="-4.3827960">
        <ele>513.2</ele>
        <time>2020-07-11T05:43:38Z</time>
      </trkpt>
      <trkpt lat="37.3348880" lon="-4.3827720">
        <ele>513.4</ele>
        <time>2020-07-11T05:43:39Z</time>
      </trkpt>
      <trkpt lat="37.3347570" lon="-4.3826480">
        <ele>514.6</ele>
        <time>2020-07-11T05:43:44Z</time>
      </trkpt>
      <trkpt lat="37.3346720" lon="-4.3825870">
        <ele>515.6</ele>
        <time>2020-07-11T05:43:47Z</time>
      </trkpt>
      <trkpt lat="37.3346380" lon="-4.3825670">
        <ele>515.8</ele>
        <time>2020-07-11T05:43:48Z</time>
      </trkpt>
      <trkpt lat="37.3344730" lon="-4.3824800">
        <ele>517.0</ele>
        <time>2020-07-11T05:43:53Z</time>
      </trkpt>
      <trkpt lat="37.3343720" lon="-4.3824370">
        <ele>517.8</ele>
        <time>2020-07-11T05:43:56Z</time>
      </trkpt>
      <trkpt lat="37.3343000" lon="-4.3824180">
        <ele>518.2</ele>
        <time>2020-07-11T05:43:58Z</time>
      </trkpt>
      <trkpt lat="37.3340810" lon="-4.3823820">
        <ele>519.4</ele>
        <time>2020-07-11T05:44:04Z</time>
      </trkpt>
      <trkpt lat="37.3338880" lon="-4.3823920">
        <ele>520.4</ele>
        <time>2020-07-11T05:44:09Z</time>
      </trkpt>
      <trkpt lat="37.3338170" lon="-4.3824050">
        <ele>520.8</ele>
        <time>2020-07-11T05:44:11Z</time>
      </trkpt>
      <trkpt lat="37.3336280" lon="-4.3824670">
        <ele>521.6</ele>
        <time>2020-07-11T05:44:16Z</time>
      </trkpt>
      <trkpt lat="37.3335120" lon="-4.3825260">
        <ele>521.8</ele>
        <time>2020-07-11T05:44:19Z</time>
      </trkpt>
      <trkpt lat="37.3332610" lon="-4.3826990">
        <ele>522.6</ele>
        <time>2020-07-11T05:44:26Z</time>
      </trkpt>
      <trkpt lat="37.3331910" lon="-4.3827590">
        <ele>523.0</ele>
        <time>2020-07-11T05:44:28Z</time>
      </trkpt>
      <trkpt lat="37.3330190" lon="-4.3829260">
        <ele>523.6</ele>
        <time>2020-07-11T05:44:33Z</time>
      </trkpt>
      <trkpt lat="37.3328890" lon="-4.3830660">
        <ele>524.2</ele>
        <time>2020-07-11T05:44:37Z</time>
      </trkpt>
      <trkpt lat="37.3327880" lon="-4.3831710">
        <ele>524.6</ele>
        <time>2020-07-11T05:44:40Z</time>
      </trkpt>
      <trkpt lat="37.3325360" lon="-4.3833820">
        <ele>525.6</ele>
        <time>2020-07-11T05:44:47Z</time>
      </trkpt>
      <trkpt lat="37.3323710" lon="-4.3834270">
        <ele>526.6</ele>
        <time>2020-07-11T05:44:51Z</time>
      </trkpt>
      <trkpt lat="37.3323300" lon="-4.3834300">
        <ele>526.8</ele>
        <time>2020-07-11T05:44:52Z</time>
      </trkpt>
      <trkpt lat="37.3322900" lon="-4.3834270">
        <ele>527.0</ele>
        <time>2020-07-11T05:44:53Z</time>
      </trkpt>
      <trkpt lat="37.3321420" lon="-4.3833760">
        <ele>528.0</ele>
        <time>2020-07-11T05:44:57Z</time>
      </trkpt>
      <trkpt lat="37.3320700" lon="-4.3833320">
        <ele>528.6</ele>
        <time>2020-07-11T05:44:59Z</time>
      </trkpt>
      <trkpt lat="37.3320360" lon="-4.3833020">
        <ele>528.6</ele>
        <time>2020-07-11T05:45:00Z</time>
      </trkpt>
      <trkpt lat="37.3319830" lon="-4.3832310">
        <ele>529.0</ele>
        <time>2020-07-11T05:45:02Z</time>
      </trkpt>
      <trkpt lat="37.3319380" lon="-4.3831530">
        <ele>529.4</ele>
        <time>2020-07-11T05:45:04Z</time>
      </trkpt>
      <trkpt lat="37.3318810" lon="-4.3829820">
        <ele>530.2</ele>
        <time>2020-07-11T05:45:08Z</time>
      </trkpt>
      <trkpt lat="37.3318730" lon="-4.3828920">
        <ele>530.8</ele>
        <time>2020-07-11T05:45:10Z</time>
      </trkpt>
      <trkpt lat="37.3318790" lon="-4.3827550">
        <ele>531.4</ele>
        <time>2020-07-11T05:45:13Z</time>
      </trkpt>
      <trkpt lat="37.3319190" lon="-4.3825840">
        <ele>532.4</ele>
        <time>2020-07-11T05:45:17Z</time>
      </trkpt>
      <trkpt lat="37.3319370" lon="-4.3825430">
        <ele>532.6</ele>
        <time>2020-07-11T05:45:18Z</time>
      </trkpt>
      <trkpt lat="37.3320230" lon="-4.3823990">
        <ele>533.6</ele>
        <time>2020-07-11T05:45:22Z</time>
      </trkpt>
      <trkpt lat="37.3320490" lon="-4.3823650">
        <ele>534.0</ele>
        <time>2020-07-11T05:45:23Z</time>
      </trkpt>
      <trkpt lat="37.3321290" lon="-4.3822770">
        <ele>534.6</ele>
        <time>2020-07-11T05:45:26Z</time>
      </trkpt>
      <trkpt lat="37.3322500" lon="-4.3821550">
        <ele>535.8</ele>
        <time>2020-07-11T05:45:30Z</time>
      </trkpt>
      <trkpt lat="37.3322790" lon="-4.3821250">
        <ele>536.0</ele>
        <time>2020-07-11T05:45:31Z</time>
      </trkpt>
      <trkpt lat="37.3323950" lon="-4.3820000">
        <ele>537.0</ele>
        <time>2020-07-11T05:45:35Z</time>
      </trkpt>
      <trkpt lat="37.3325020" lon="-4.3818590">
        <ele>537.8</ele>
        <time>2020-07-11T05:45:39Z</time>
      </trkpt>
      <trkpt lat="37.3325250" lon="-4.3818250">
        <ele>538.0</ele>
        <time>2020-07-11T05:45:40Z</time>
      </trkpt>
      <trkpt lat="37.3326320" lon="-4.3816190">
        <ele>539.2</ele>
        <time>2020-07-11T05:45:45Z</time>
      </trkpt>
      <trkpt lat="37.3326960" lon="-4.3814420">
        <ele>540.2</ele>
        <time>2020-07-11T05:45:49Z</time>
      </trkpt>
      <trkpt lat="37.3327600" lon="-4.3812050">
        <ele>541.4</ele>
        <time>2020-07-11T05:45:54Z</time>
      </trkpt>
      <trkpt lat="37.3327990" lon="-4.3809780">
        <ele>542.6</ele>
        <time>2020-07-11T05:45:59Z</time>
      </trkpt>
      <trkpt lat="37.3328100" lon="-4.3808410">
        <ele>543.4</ele>
        <time>2020-07-11T05:46:02Z</time>
      </trkpt>
      <trkpt lat="37.3328170" lon="-4.3807480">
        <ele>543.8</ele>
        <time>2020-07-11T05:46:04Z</time>
      </trkpt>
      <trkpt lat="37.3328320" lon="-4.3805190">
        <ele>544.8</ele>
        <time>2020-07-11T05:46:09Z</time>
      </trkpt>
      <trkpt lat="37.3328380" lon="-4.3804340">
        <ele>545.6</ele>
        <time>2020-07-11T05:46:11Z</time>
      </trkpt>
      <trkpt lat="37.3328440" lon="-4.3803430">
        <ele>546.0</ele>
        <time>2020-07-11T05:46:13Z</time>
      </trkpt>
      <trkpt lat="37.3328550" lon="-4.3801670">
        <ele>547.2</ele>
        <time>2020-07-11T05:46:17Z</time>
      </trkpt>
      <trkpt lat="37.3328650" lon="-4.3799890">
        <ele>548.0</ele>
        <time>2020-07-11T05:46:21Z</time>
      </trkpt>
      <trkpt lat="37.3328670" lon="-4.3799460">
        <ele>548.4</ele>
        <time>2020-07-11T05:46:22Z</time>
      </trkpt>
      <trkpt lat="37.3328820" lon="-4.3797200">
        <ele>549.4</ele>
        <time>2020-07-11T05:46:27Z</time>
      </trkpt>
      <trkpt lat="37.3328940" lon="-4.3795390">
        <ele>550.4</ele>
        <time>2020-07-11T05:46:31Z</time>
      </trkpt>
      <trkpt lat="37.3329020" lon="-4.3794460">
        <ele>550.8</ele>
        <time>2020-07-11T05:46:33Z</time>
      </trkpt>
      <trkpt lat="37.3329130" lon="-4.3793140">
        <ele>551.6</ele>
        <time>2020-07-11T05:46:36Z</time>
      </trkpt>
      <trkpt lat="37.3329310" lon="-4.3790870">
        <ele>552.8</ele>
        <time>2020-07-11T05:46:41Z</time>
      </trkpt>
      <trkpt lat="37.3329430" lon="-4.3789920">
        <ele>553.2</ele>
        <time>2020-07-11T05:46:43Z</time>
      </trkpt>
      <trkpt lat="37.3329580" lon="-4.3788610">
        <ele>553.8</ele>
        <time>2020-07-11T05:46:46Z</time>
      </trkpt>
      <trkpt lat="37.3330000" lon="-4.3786400">
        <ele>555.0</ele>
        <time>2020-07-11T05:46:51Z</time>
      </trkpt>
      <trkpt lat="37.3330080" lon="-4.3785990">
        <ele>555.2</ele>
        <time>2020-07-11T05:46:52Z</time>
      </trkpt>
      <trkpt lat="37.3330510" lon="-4.3784310">
        <ele>556.2</ele>
        <time>2020-07-11T05:46:56Z</time>
      </trkpt>
      <trkpt lat="37.3331260" lon="-4.3782310">
        <ele>557.2</ele>
        <time>2020-07-11T05:47:01Z</time>
      </trkpt>
      <trkpt lat="37.3332080" lon="-4.3780370">
        <ele>558.2</ele>
        <time>2020-07-11T05:47:06Z</time>
      </trkpt>
      <trkpt lat="37.3332640" lon="-4.3779170">
        <ele>558.8</ele>
        <time>2020-07-11T05:47:09Z</time>
      </trkpt>
      <trkpt lat="37.3333180" lon="-4.3778000">
        <ele>559.4</ele>
        <time>2020-07-11T05:47:12Z</time>
      </trkpt>
      <trkpt lat="37.3334360" lon="-4.3775630">
        <ele>560.4</ele>
        <time>2020-07-11T05:47:18Z</time>
      </trkpt>
      <trkpt lat="37.3334700" lon="-4.3774820">
        <ele>560.8</ele>
        <time>2020-07-11T05:47:20Z</time>
      </trkpt>
      <trkpt lat="37.3335420" lon="-4.3773280">
        <ele>561.6</ele>
        <time>2020-07-11T05:47:24Z</time>
      </trkpt>
      <trkpt lat="37.3335950" lon="-4.3771620">
        <ele>562.4</ele>
        <time>2020-07-11T05:47:28Z</time>
      </trkpt>
      <trkpt lat="37.3336020" lon="-4.3771170">
        <ele>562.6</ele>
        <time>2020-07-11T05:47:29Z</time>
      </trkpt>
      <trkpt lat="37.3335860" lon="-4.3768970">
        <ele>563.8</ele>
        <time>2020-07-11T05:47:34Z</time>
      </trkpt>
      <trkpt lat="37.3335020" lon="-4.3766990">
        <ele>564.8</ele>
        <time>2020-07-11T05:47:39Z</time>
      </trkpt>
      <trkpt lat="37.3334790" lon="-4.3766700">
        <ele>565.2</ele>
        <time>2020-07-11T05:47:40Z</time>
      </trkpt>
      <trkpt lat="37.3333840" lon="-4.3766040">
        <ele>566.0</ele>
        <time>2020-07-11T05:47:43Z</time>
      </trkpt>
      <trkpt lat="37.3333140" lon="-4.3765800">
        <ele>566.6</ele>
        <time>2020-07-11T05:47:45Z</time>
      </trkpt>
      <trkpt lat="37.3331920" lon="-4.3765890">
        <ele>567.2</ele>
        <time>2020-07-11T05:47:48Z</time>
      </trkpt>
      <trkpt lat="37.3331170" lon="-4.3766320">
        <ele>567.6</ele>
        <time>2020-07-11T05:47:50Z</time>
      </trkpt>
      <trkpt lat="37.3330190" lon="-4.3767270">
        <ele>568.4</ele>
        <time>2020-07-11T05:47:53Z</time>
      </trkpt>
      <trkpt lat="37.3329640" lon="-4.3768010">
        <ele>568.8</ele>
        <time>2020-07-11T05:47:55Z</time>
      </trkpt>
      <trkpt lat="37.3328150" lon="-4.3770670">
        <ele>569.4</ele>
        <time>2020-07-11T05:48:01Z</time>
      </trkpt>
      <trkpt lat="37.3327900" lon="-4.3771180">
        <ele>569.4</ele>
        <time>2020-07-11T05:48:02Z</time>
      </trkpt>
      <trkpt lat="37.3325890" lon="-4.3775240">
        <ele>570.0</ele>
        <time>2020-07-11T05:48:10Z</time>
      </trkpt>
      <trkpt lat="37.3324740" lon="-4.3777570">
        <ele>570.6</ele>
        <time>2020-07-11T05:48:15Z</time>
      </trkpt>
      <trkpt lat="37.3324310" lon="-4.3778410">
        <ele>571.0</ele>
        <time>2020-07-11T05:48:17Z</time>
      </trkpt>
      <trkpt lat="37.3323440" lon="-4.3780050">
        <ele>572.0</ele>
        <time>2020-07-11T05:48:21Z</time>
      </trkpt>
      <trkpt lat="37.3322330" lon="-4.3781410">
        <ele>572.8</ele>
        <time>2020-07-11T05:48:25Z</time>
      </trkpt>
      <trkpt lat="37.3322020" lon="-4.3781680">
        <ele>573.0</ele>
        <time>2020-07-11T05:48:26Z</time>
      </trkpt>
      <trkpt lat="37.3320670" lon="-4.3782400">
        <ele>574.0</ele>
        <time>2020-07-11T05:48:30Z</time>
      </trkpt>
      <trkpt lat="37.3320340" lon="-4.3782480">
        <ele>574.4</ele>
        <time>2020-07-11T05:48:31Z</time>
      </trkpt>
      <trkpt lat="37.3319610" lon="-4.3782560">
        <ele>575.0</ele>
        <time>2020-07-11T05:48:33Z</time>
      </trkpt>
      <trkpt lat="37.3318170" lon="-4.3782190">
        <ele>576.0</ele>
        <time>2020-07-11T05:48:37Z</time>
      </trkpt>
      <trkpt lat="37.3317830" lon="-4.3782010">
        <ele>576.2</ele>
        <time>2020-07-11T05:48:38Z</time>
      </trkpt>
      <trkpt lat="37.3316400" lon="-4.3780450">
        <ele>577.2</ele>
        <time>2020-07-11T05:48:43Z</time>
      </trkpt>
      <trkpt lat="37.3316160" lon="-4.3780090">
        <ele>577.4</ele>
        <time>2020-07-11T05:48:44Z</time>
      </trkpt>
      <trkpt lat="37.3314890" lon="-4.3777830">
        <ele>578.6</ele>
        <time>2020-07-11T05:48:50Z</time>
      </trkpt>
      <trkpt lat="37.3314460" lon="-4.3777090">
        <ele>579.0</ele>
        <time>2020-07-11T05:48:52Z</time>
      </trkpt>
      <trkpt lat="37.3313790" lon="-4.3775900">
        <ele>579.6</ele>
        <time>2020-07-11T05:48:55Z</time>
      </trkpt>
      <trkpt lat="37.3312490" lon="-4.3773580">
        <ele>580.8</ele>
        <time>2020-07-11T05:49:01Z</time>
      </trkpt>
      <trkpt lat="37.3312250" lon="-4.3773150">
        <ele>581.0</ele>
        <time>2020-07-11T05:49:02Z</time>
      </trkpt>
      <trkpt lat="37.3311570" lon="-4.3771920">
        <ele>581.8</ele>
        <time>2020-07-11T05:49:05Z</time>
      </trkpt>
      <trkpt lat="37.3310690" lon="-4.3770320">
        <ele>583.0</ele>
        <time>2020-07-11T05:49:09Z</time>
      </trkpt>
      <trkpt lat="37.3309520" lon="-4.3768460">
        <ele>584.0</ele>
        <time>2020-07-11T05:49:14Z</time>
      </trkpt>
      <trkpt lat="37.3308470" lon="-4.3767110">
        <ele>585.2</ele>
        <time>2020-07-11T05:49:18Z</time>
      </trkpt>
      <trkpt lat="37.3307130" lon="-4.3765510">
        <ele>586.4</ele>
        <time>2020-07-11T05:49:23Z</time>
      </trkpt>
      <trkpt lat="37.3306540" lon="-4.3764890">
        <ele>586.8</ele>
        <time>2020-07-11T05:49:25Z</time>
      </trkpt>
      <trkpt lat="37.3305350" lon="-4.3763750">
        <ele>587.6</ele>
        <time>2020-07-11T05:49:29Z</time>
      </trkpt>
      <trkpt lat="37.3303760" lon="-4.3762470">
        <ele>588.8</ele>
        <time>2020-07-11T05:49:34Z</time>
      </trkpt>
      <trkpt lat="37.3303430" lon="-4.3762230">
        <ele>589.0</ele>
        <time>2020-07-11T05:49:35Z</time>
      </trkpt>
      <trkpt lat="37.3302110" lon="-4.3761230">
        <ele>590.0</ele>
        <time>2020-07-11T05:49:39Z</time>
      </trkpt>
      <trkpt lat="37.3300850" lon="-4.3760250">
        <ele>591.0</ele>
        <time>2020-07-11T05:49:43Z</time>
      </trkpt>
      <trkpt lat="37.3299920" lon="-4.3759540">
        <ele>591.6</ele>
        <time>2020-07-11T05:49:46Z</time>
      </trkpt>
      <trkpt lat="37.3299220" lon="-4.3759020">
        <ele>592.2</ele>
        <time>2020-07-11T05:49:48Z</time>
      </trkpt>
      <trkpt lat="37.3297560" lon="-4.3757770">
        <ele>593.4</ele>
        <time>2020-07-11T05:49:53Z</time>
      </trkpt>
      <trkpt lat="37.3296240" lon="-4.3756750">
        <ele>594.4</ele>
        <time>2020-07-11T05:49:57Z</time>
      </trkpt>
      <trkpt lat="37.3295910" lon="-4.3756490">
        <ele>594.6</ele>
        <time>2020-07-11T05:49:58Z</time>
      </trkpt>
      <trkpt lat="37.3294890" lon="-4.3755710">
        <ele>595.4</ele>
        <time>2020-07-11T05:50:01Z</time>
      </trkpt>
      <trkpt lat="37.3293170" lon="-4.3754380">
        <ele>596.4</ele>
        <time>2020-07-11T05:50:06Z</time>
      </trkpt>
      <trkpt lat="37.3292410" lon="-4.3753810">
        <ele>596.8</ele>
        <time>2020-07-11T05:50:08Z</time>
      </trkpt>
      <trkpt lat="37.3290490" lon="-4.3752330">
        <ele>597.6</ele>
        <time>2020-07-11T05:50:13Z</time>
      </trkpt>
      <trkpt lat="37.3287800" lon="-4.3750190">
        <ele>598.0</ele>
        <time>2020-07-11T05:50:20Z</time>
      </trkpt>
      <trkpt lat="37.3286250" lon="-4.3749000">
        <ele>598.6</ele>
        <time>2020-07-11T05:50:24Z</time>
      </trkpt>
      <trkpt lat="37.3283510" lon="-4.3746920">
        <ele>599.4</ele>
        <time>2020-07-11T05:50:31Z</time>
      </trkpt>
      <trkpt lat="37.3282720" lon="-4.3746260">
        <ele>599.8</ele>
        <time>2020-07-11T05:50:33Z</time>
      </trkpt>
      <trkpt lat="37.3280720" lon="-4.3744680">
        <ele>600.2</ele>
        <time>2020-07-11T05:50:38Z</time>
      </trkpt>
      <trkpt lat="37.3279570" lon="-4.3743740">
        <ele>600.6</ele>
        <time>2020-07-11T05:50:41Z</time>
      </trkpt>
      <trkpt lat="37.3279140" lon="-4.3743410">
        <ele>600.8</ele>
        <time>2020-07-11T05:50:42Z</time>
      </trkpt>
      <trkpt lat="37.3275510" lon="-4.3740530">
        <ele>601.6</ele>
        <time>2020-07-11T05:50:51Z</time>
      </trkpt>
      <trkpt lat="37.3274200" lon="-4.3739510">
        <ele>601.8</ele>
        <time>2020-07-11T05:50:54Z</time>
      </trkpt>
      <trkpt lat="37.3272410" lon="-4.3738070">
        <ele>601.6</ele>
        <time>2020-07-11T05:50:58Z</time>
      </trkpt>
      <trkpt lat="37.3269960" lon="-4.3736440">
        <ele>601.8</ele>
        <time>2020-07-11T05:51:03Z</time>
      </trkpt>
      <trkpt lat="37.3268860" lon="-4.3736480">
        <ele>601.6</ele>
        <time>2020-07-11T05:51:05Z</time>
      </trkpt>
      <trkpt lat="37.3266780" lon="-4.3737510">
        <ele>601.6</ele>
        <time>2020-07-11T05:51:09Z</time>
      </trkpt>
      <trkpt lat="37.3266320" lon="-4.3737910">
        <ele>601.6</ele>
        <time>2020-07-11T05:51:10Z</time>
      </trkpt>
      <trkpt lat="37.3264840" lon="-4.3739140">
        <ele>601.6</ele>
        <time>2020-07-11T05:51:13Z</time>
      </trkpt>
      <trkpt lat="37.3263840" lon="-4.3739880">
        <ele>601.6</ele>
        <time>2020-07-11T05:51:15Z</time>
      </trkpt>
      <trkpt lat="37.3262350" lon="-4.3740920">
        <ele>601.4</ele>
        <time>2020-07-11T05:51:18Z</time>
      </trkpt>
      <trkpt lat="37.3259900" lon="-4.3742430">
        <ele>601.6</ele>
        <time>2020-07-11T05:51:23Z</time>
      </trkpt>
      <trkpt lat="37.3259360" lon="-4.3742570">
        <ele>601.6</ele>
        <time>2020-07-11T05:51:24Z</time>
      </trkpt>
      <trkpt lat="37.3257730" lon="-4.3742630">
        <ele>601.6</ele>
        <time>2020-07-11T05:51:27Z</time>
      </trkpt>
      <trkpt lat="37.3256660" lon="-4.3742270">
        <ele>601.6</ele>
        <time>2020-07-11T05:51:29Z</time>
      </trkpt>
      <trkpt lat="37.3255670" lon="-4.3741690">
        <ele>601.8</ele>
        <time>2020-07-11T05:51:31Z</time>
      </trkpt>
      <trkpt lat="37.3254130" lon="-4.3740730">
        <ele>602.2</ele>
        <time>2020-07-11T05:51:34Z</time>
      </trkpt>
      <trkpt lat="37.3253610" lon="-4.3740390">
        <ele>602.4</ele>
        <time>2020-07-11T05:51:35Z</time>
      </trkpt>
      <trkpt lat="37.3253190" lon="-4.3740110">
        <ele>602.4</ele>
        <time>2020-07-11T05:51:36Z</time>
      </trkpt>
      <trkpt lat="37.3252760" lon="-4.3739790">
        <ele>602.6</ele>
        <time>2020-07-11T05:51:37Z</time>
      </trkpt>
      <trkpt lat="37.3252390" lon="-4.3739420">
        <ele>602.6</ele>
        <time>2020-07-11T05:51:38Z</time>
      </trkpt>
      <trkpt lat="37.3251660" lon="-4.3738640">
        <ele>602.8</ele>
        <time>2020-07-11T05:51:40Z</time>
      </trkpt>
      <trkpt lat="37.3250690" lon="-4.3737300">
        <ele>603.6</ele>
        <time>2020-07-11T05:51:43Z</time>
      </trkpt>
      <trkpt lat="37.3250420" lon="-4.3736810">
        <ele>603.8</ele>
        <time>2020-07-11T05:51:44Z</time>
      </trkpt>
      <trkpt lat="37.3249570" lon="-4.3735370">
        <ele>604.6</ele>
        <time>2020-07-11T05:51:47Z</time>
      </trkpt>
      <trkpt lat="37.3249270" lon="-4.3734880">
        <ele>605.0</ele>
        <time>2020-07-11T05:51:48Z</time>
      </trkpt>
      <trkpt lat="37.3248480" lon="-4.3733410">
        <ele>605.4</ele>
        <time>2020-07-11T05:51:51Z</time>
      </trkpt>
      <trkpt lat="37.3247660" lon="-4.3732040">
        <ele>606.2</ele>
        <time>2020-07-11T05:51:54Z</time>
      </trkpt>
      <trkpt lat="37.3247410" lon="-4.3731570">
        <ele>606.4</ele>
        <time>2020-07-11T05:51:55Z</time>
      </trkpt>
      <trkpt lat="37.3247230" lon="-4.3731120">
        <ele>606.8</ele>
        <time>2020-07-11T05:51:56Z</time>
      </trkpt>
      <trkpt lat="37.3246830" lon="-4.3730170">
        <ele>607.2</ele>
        <time>2020-07-11T05:51:58Z</time>
      </trkpt>
      <trkpt lat="37.3246120" lon="-4.3728180">
        <ele>608.0</ele>
        <time>2020-07-11T05:52:02Z</time>
      </trkpt>
      <trkpt lat="37.3245820" lon="-4.3727150">
        <ele>608.4</ele>
        <time>2020-07-11T05:52:04Z</time>
      </trkpt>
      <trkpt lat="37.3245470" lon="-4.3725550">
        <ele>608.8</ele>
        <time>2020-07-11T05:52:07Z</time>
      </trkpt>
      <trkpt lat="37.3245380" lon="-4.3725030">
        <ele>609.0</ele>
        <time>2020-07-11T05:52:08Z</time>
      </trkpt>
      <trkpt lat="37.3245160" lon="-4.3723710">
        <ele>609.4</ele>
        <time>2020-07-11T05:52:11Z</time>
      </trkpt>
      <trkpt lat="37.3244790" lon="-4.3721570">
        <ele>610.0</ele>
        <time>2020-07-11T05:52:15Z</time>
      </trkpt>
      <trkpt lat="37.3244450" lon="-4.3719710">
        <ele>610.6</ele>
        <time>2020-07-11T05:52:18Z</time>
      </trkpt>
      <trkpt lat="37.3243960" lon="-4.3717000">
        <ele>611.6</ele>
        <time>2020-07-11T05:52:23Z</time>
      </trkpt>
      <trkpt lat="37.3243810" lon="-4.3715870">
        <ele>612.0</ele>
        <time>2020-07-11T05:52:25Z</time>
      </trkpt>
      <trkpt lat="37.3243100" lon="-4.3713100">
        <ele>612.6</ele>
        <time>2020-07-11T05:52:31Z</time>
      </trkpt>
      <trkpt lat="37.3242910" lon="-4.3712610">
        <ele>612.8</ele>
        <time>2020-07-11T05:52:32Z</time>
      </trkpt>
      <trkpt lat="37.3242680" lon="-4.3712080">
        <ele>613.0</ele>
        <time>2020-07-11T05:52:33Z</time>
      </trkpt>
      <trkpt lat="37.3241430" lon="-4.3708950">
        <ele>613.8</ele>
        <time>2020-07-11T05:52:39Z</time>
      </trkpt>
      <trkpt lat="37.3240660" lon="-4.3707230">
        <ele>613.8</ele>
        <time>2020-07-11T05:52:43Z</time>
      </trkpt>
      <trkpt lat="37.3240340" lon="-4.3706640">
        <ele>613.8</ele>
        <time>2020-07-11T05:52:45Z</time>
      </trkpt>
      <trkpt lat="37.3240130" lon="-4.3706230">
        <ele>613.8</ele>
        <time>2020-07-11T05:52:49Z</time>
      </trkpt>
      <trkpt lat="37.3239930" lon="-4.3705780">
        <ele>613.6</ele>
        <time>2020-07-11T05:53:06Z</time>
      </trkpt>
      <trkpt lat="37.3239830" lon="-4.3705670">
        <ele>613.6</ele>
        <time>2020-07-11T05:53:07Z</time>
      </trkpt>
      <trkpt lat="37.3239610" lon="-4.3705490">
        <ele>613.8</ele>
        <time>2020-07-11T05:53:08Z</time>
      </trkpt>
      <trkpt lat="37.3239240" lon="-4.3704920">
        <ele>613.8</ele>
        <time>2020-07-11T05:53:10Z</time>
      </trkpt>
      <trkpt lat="37.3239060" lon="-4.3704580">
        <ele>613.8</ele>
        <time>2020-07-11T05:53:11Z</time>
      </trkpt>
      <trkpt lat="37.3237770" lon="-4.3702440">
        <ele>614.0</ele>
        <time>2020-07-11T05:53:17Z</time>
      </trkpt>
      <trkpt lat="37.3237220" lon="-4.3701630">
        <ele>614.0</ele>
        <time>2020-07-11T05:53:19Z</time>
      </trkpt>
      <trkpt lat="37.3234690" lon="-4.3698080">
        <ele>614.0</ele>
        <time>2020-07-11T05:53:27Z</time>
      </trkpt>
      <trkpt lat="37.3231830" lon="-4.3694070">
        <ele>613.6</ele>
        <time>2020-07-11T05:53:35Z</time>
      </trkpt>
      <trkpt lat="37.3229940" lon="-4.3691230">
        <ele>612.8</ele>
        <time>2020-07-11T05:53:40Z</time>
      </trkpt>
      <trkpt lat="37.3229610" lon="-4.3690690">
        <ele>612.6</ele>
        <time>2020-07-11T05:53:41Z</time>
      </trkpt>
      <trkpt lat="37.3229240" lon="-4.3690100">
        <ele>612.4</ele>
        <time>2020-07-11T05:53:42Z</time>
      </trkpt>
      <trkpt lat="37.3228080" lon="-4.3688340">
        <ele>612.0</ele>
        <time>2020-07-11T05:53:45Z</time>
      </trkpt>
      <trkpt lat="37.3227310" lon="-4.3687240">
        <ele>611.6</ele>
        <time>2020-07-11T05:53:47Z</time>
      </trkpt>
      <trkpt lat="37.3226870" lon="-4.3686610">
        <ele>611.4</ele>
        <time>2020-07-11T05:53:48Z</time>
      </trkpt>
      <trkpt lat="37.3226070" lon="-4.3685420">
        <ele>611.2</ele>
        <time>2020-07-11T05:53:50Z</time>
      </trkpt>
      <trkpt lat="37.3225290" lon="-4.3684220">
        <ele>610.8</ele>
        <time>2020-07-11T05:53:52Z</time>
      </trkpt>
      <trkpt lat="37.3224880" lon="-4.3683640">
        <ele>610.6</ele>
        <time>2020-07-11T05:53:53Z</time>
      </trkpt>
      <trkpt lat="37.3223990" lon="-4.3682520">
        <ele>610.2</ele>
        <time>2020-07-11T05:53:55Z</time>
      </trkpt>
      <trkpt lat="37.3222590" lon="-4.3680910">
        <ele>609.4</ele>
        <time>2020-07-11T05:53:58Z</time>
      </trkpt>
      <trkpt lat="37.3222070" lon="-4.3680460">
        <ele>609.4</ele>
        <time>2020-07-11T05:53:59Z</time>
      </trkpt>
      <trkpt lat="37.3221480" lon="-4.3680060">
        <ele>609.4</ele>
        <time>2020-07-11T05:54:00Z</time>
      </trkpt>
      <trkpt lat="37.3218750" lon="-4.3679410">
        <ele>608.4</ele>
        <time>2020-07-11T05:54:04Z</time>
      </trkpt>
      <trkpt lat="37.3218070" lon="-4.3679270">
        <ele>608.0</ele>
        <time>2020-07-11T05:54:05Z</time>
      </trkpt>
      <trkpt lat="37.3215850" lon="-4.3678890">
        <ele>607.2</ele>
        <time>2020-07-11T05:54:08Z</time>
      </trkpt>
      <trkpt lat="37.3212710" lon="-4.3678390">
        <ele>606.6</ele>
        <time>2020-07-11T05:54:12Z</time>
      </trkpt>
      <trkpt lat="37.3211070" lon="-4.3678130">
        <ele>606.2</ele>
        <time>2020-07-11T05:54:14Z</time>
      </trkpt>
      <trkpt lat="37.3209530" lon="-4.3677870">
        <ele>605.2</ele>
        <time>2020-07-11T05:54:16Z</time>
      </trkpt>
      <trkpt lat="37.3208840" lon="-4.3677770">
        <ele>604.8</ele>
        <time>2020-07-11T05:54:17Z</time>
      </trkpt>
      <trkpt lat="37.3206510" lon="-4.3677610">
        <ele>604.0</ele>
        <time>2020-07-11T05:54:20Z</time>
      </trkpt>
      <trkpt lat="37.3205810" lon="-4.3677590">
        <ele>603.8</ele>
        <time>2020-07-11T05:54:21Z</time>
      </trkpt>
      <trkpt lat="37.3204440" lon="-4.3677580">
        <ele>604.2</ele>
        <time>2020-07-11T05:54:23Z</time>
      </trkpt>
      <trkpt lat="37.3203010" lon="-4.3677610">
        <ele>604.2</ele>
        <time>2020-07-11T05:54:25Z</time>
      </trkpt>
      <trkpt lat="37.3201760" lon="-4.3677690">
        <ele>604.2</ele>
        <time>2020-07-11T05:54:27Z</time>
      </trkpt>
      <trkpt lat="37.3198740" lon="-4.3677910">
        <ele>604.2</ele>
        <time>2020-07-11T05:54:32Z</time>
      </trkpt>
      <trkpt lat="37.3197580" lon="-4.3678010">
        <ele>604.4</ele>
        <time>2020-07-11T05:54:34Z</time>
      </trkpt>
      <trkpt lat="37.3195910" lon="-4.3678180">
        <ele>604.6</ele>
        <time>2020-07-11T05:54:37Z</time>
      </trkpt>
      <trkpt lat="37.3193740" lon="-4.3678320">
        <ele>604.6</ele>
        <time>2020-07-11T05:54:41Z</time>
      </trkpt>
      <trkpt lat="37.3192080" lon="-4.3678480">
        <ele>604.8</ele>
        <time>2020-07-11T05:54:44Z</time>
      </trkpt>
      <trkpt lat="37.3191560" lon="-4.3678530">
        <ele>604.8</ele>
        <time>2020-07-11T05:54:45Z</time>
      </trkpt>
      <trkpt lat="37.3191040" lon="-4.3678520">
        <ele>605.0</ele>
        <time>2020-07-11T05:54:46Z</time>
      </trkpt>
      <trkpt lat="37.3189030" lon="-4.3678780">
        <ele>605.4</ele>
        <time>2020-07-11T05:54:50Z</time>
      </trkpt>
      <trkpt lat="37.3187030" lon="-4.3678980">
        <ele>605.4</ele>
        <time>2020-07-11T05:54:54Z</time>
      </trkpt>
      <trkpt lat="37.3184570" lon="-4.3679240">
        <ele>605.6</ele>
        <time>2020-07-11T05:54:59Z</time>
      </trkpt>
      <trkpt lat="37.3181150" lon="-4.3679580">
        <ele>606.0</ele>
        <time>2020-07-11T05:55:06Z</time>
      </trkpt>
      <trkpt lat="37.3180320" lon="-4.3679710">
        <ele>606.4</ele>
        <time>2020-07-11T05:55:08Z</time>
      </trkpt>
      <trkpt lat="37.3178030" lon="-4.3679880">
        <ele>607.0</ele>
        <time>2020-07-11T05:55:14Z</time>
      </trkpt>
      <trkpt lat="37.3177190" lon="-4.3679900">
        <ele>607.0</ele>
        <time>2020-07-11T05:55:16Z</time>
      </trkpt>
      <trkpt lat="37.3174950" lon="-4.3680030">
        <ele>607.4</ele>
        <time>2020-07-11T05:55:21Z</time>
      </trkpt>
      <trkpt lat="37.3171640" lon="-4.3679620">
        <ele>607.2</ele>
        <time>2020-07-11T05:55:27Z</time>
      </trkpt>
      <trkpt lat="37.3169150" lon="-4.3678560">
        <ele>606.8</ele>
        <time>2020-07-11T05:55:31Z</time>
      </trkpt>
      <trkpt lat="37.3168540" lon="-4.3678160">
        <ele>606.6</ele>
        <time>2020-07-11T05:55:32Z</time>
      </trkpt>
      <trkpt lat="37.3167850" lon="-4.3677620">
        <ele>606.2</ele>
        <time>2020-07-11T05:55:33Z</time>
      </trkpt>
      <trkpt lat="37.3167230" lon="-4.3676950">
        <ele>606.0</ele>
        <time>2020-07-11T05:55:34Z</time>
      </trkpt>
      <trkpt lat="37.3166060" lon="-4.3675260">
        <ele>605.2</ele>
        <time>2020-07-11T05:55:36Z</time>
      </trkpt>
      <trkpt lat="37.3165670" lon="-4.3674430">
        <ele>604.8</ele>
        <time>2020-07-11T05:55:37Z</time>
      </trkpt>
      <trkpt lat="37.3164730" lon="-4.3671930">
        <ele>603.6</ele>
        <time>2020-07-11T05:55:39Z</time>
      </trkpt>
      <trkpt lat="37.3164320" lon="-4.3670600">
        <ele>602.8</ele>
        <time>2020-07-11T05:55:40Z</time>
      </trkpt>
      <trkpt lat="37.3163950" lon="-4.3669360">
        <ele>602.0</ele>
        <time>2020-07-11T05:55:41Z</time>
      </trkpt>
      <trkpt lat="37.3163070" lon="-4.3666550">
        <ele>600.2</ele>
        <time>2020-07-11T05:55:43Z</time>
      </trkpt>
      <trkpt lat="37.3162630" lon="-4.3665110">
        <ele>599.0</ele>
        <time>2020-07-11T05:55:44Z</time>
      </trkpt>
      <trkpt lat="37.3162170" lon="-4.3663640">
        <ele>598.0</ele>
        <time>2020-07-11T05:55:45Z</time>
      </trkpt>
      <trkpt lat="37.3161710" lon="-4.3662160">
        <ele>596.6</ele>
        <time>2020-07-11T05:55:46Z</time>
      </trkpt>
      <trkpt lat="37.3161280" lon="-4.3660780">
        <ele>595.4</ele>
        <time>2020-07-11T05:55:47Z</time>
      </trkpt>
      <trkpt lat="37.3160750" lon="-4.3659070">
        <ele>594.2</ele>
        <time>2020-07-11T05:55:48Z</time>
      </trkpt>
      <trkpt lat="37.3160250" lon="-4.3657460">
        <ele>593.0</ele>
        <time>2020-07-11T05:55:49Z</time>
      </trkpt>
      <trkpt lat="37.3159730" lon="-4.3655840">
        <ele>591.8</ele>
        <time>2020-07-11T05:55:50Z</time>
      </trkpt>
      <trkpt lat="37.3159220" lon="-4.3654230">
        <ele>590.6</ele>
        <time>2020-07-11T05:55:51Z</time>
      </trkpt>
      <trkpt lat="37.3158750" lon="-4.3652690">
        <ele>589.4</ele>
        <time>2020-07-11T05:55:52Z</time>
      </trkpt>
      <trkpt lat="37.3158240" lon="-4.3651020">
        <ele>588.2</ele>
        <time>2020-07-11T05:55:53Z</time>
      </trkpt>
      <trkpt lat="37.3157710" lon="-4.3649280">
        <ele>587.0</ele>
        <time>2020-07-11T05:55:54Z</time>
      </trkpt>
      <trkpt lat="37.3157170" lon="-4.3647560">
        <ele>585.6</ele>
        <time>2020-07-11T05:55:55Z</time>
      </trkpt>
      <trkpt lat="37.3156640" lon="-4.3645850">
        <ele>584.4</ele>
        <time>2020-07-11T05:55:56Z</time>
      </trkpt>
      <trkpt lat="37.3156120" lon="-4.3644180">
        <ele>583.2</ele>
        <time>2020-07-11T05:55:57Z</time>
      </trkpt>
      <trkpt lat="37.3155570" lon="-4.3642360">
        <ele>581.8</ele>
        <time>2020-07-11T05:55:58Z</time>
      </trkpt>
      <trkpt lat="37.3155100" lon="-4.3640720">
        <ele>580.4</ele>
        <time>2020-07-11T05:55:59Z</time>
      </trkpt>
      <trkpt lat="37.3154560" lon="-4.3638850">
        <ele>579.0</ele>
        <time>2020-07-11T05:56:00Z</time>
      </trkpt>
      <trkpt lat="37.3154030" lon="-4.3637060">
        <ele>577.8</ele>
        <time>2020-07-11T05:56:01Z</time>
      </trkpt>
      <trkpt lat="37.3153520" lon="-4.3635400">
        <ele>576.6</ele>
        <time>2020-07-11T05:56:02Z</time>
      </trkpt>
      <trkpt lat="37.3152960" lon="-4.3633530">
        <ele>575.2</ele>
        <time>2020-07-11T05:56:03Z</time>
      </trkpt>
      <trkpt lat="37.3152430" lon="-4.3631700">
        <ele>573.4</ele>
        <time>2020-07-11T05:56:04Z</time>
      </trkpt>
      <trkpt lat="37.3151380" lon="-4.3628060">
        <ele>570.8</ele>
        <time>2020-07-11T05:56:06Z</time>
      </trkpt>
      <trkpt lat="37.3150910" lon="-4.3626330">
        <ele>569.4</ele>
        <time>2020-07-11T05:56:07Z</time>
      </trkpt>
      <trkpt lat="37.3150430" lon="-4.3624360">
        <ele>568.0</ele>
        <time>2020-07-11T05:56:08Z</time>
      </trkpt>
      <trkpt lat="37.3150030" lon="-4.3622480">
        <ele>566.6</ele>
        <time>2020-07-11T05:56:09Z</time>
      </trkpt>
      <trkpt lat="37.3149670" lon="-4.3620610">
        <ele>565.2</ele>
        <time>2020-07-11T05:56:10Z</time>
      </trkpt>
      <trkpt lat="37.3149350" lon="-4.3618790">
        <ele>563.8</ele>
        <time>2020-07-11T05:56:11Z</time>
      </trkpt>
      <trkpt lat="37.3149050" lon="-4.3616860">
        <ele>562.2</ele>
        <time>2020-07-11T05:56:12Z</time>
      </trkpt>
      <trkpt lat="37.3148750" lon="-4.3614800">
        <ele>560.8</ele>
        <time>2020-07-11T05:56:13Z</time>
      </trkpt>
      <trkpt lat="37.3148500" lon="-4.3612950">
        <ele>559.4</ele>
        <time>2020-07-11T05:56:14Z</time>
      </trkpt>
      <trkpt lat="37.3148300" lon="-4.3611060">
        <ele>557.8</ele>
        <time>2020-07-11T05:56:15Z</time>
      </trkpt>
      <trkpt lat="37.3148160" lon="-4.3609220">
        <ele>556.2</ele>
        <time>2020-07-11T05:56:16Z</time>
      </trkpt>
      <trkpt lat="37.3148090" lon="-4.3607540">
        <ele>554.8</ele>
        <time>2020-07-11T05:56:17Z</time>
      </trkpt>
      <trkpt lat="37.3148010" lon="-4.3605440">
        <ele>553.2</ele>
        <time>2020-07-11T05:56:18Z</time>
      </trkpt>
      <trkpt lat="37.3147980" lon="-4.3603540">
        <ele>551.6</ele>
        <time>2020-07-11T05:56:19Z</time>
      </trkpt>
      <trkpt lat="37.3148000" lon="-4.3601640">
        <ele>550.2</ele>
        <time>2020-07-11T05:56:20Z</time>
      </trkpt>
      <trkpt lat="37.3148040" lon="-4.3599720">
        <ele>548.8</ele>
        <time>2020-07-11T05:56:21Z</time>
      </trkpt>
      <trkpt lat="37.3148110" lon="-4.3597910">
        <ele>547.4</ele>
        <time>2020-07-11T05:56:22Z</time>
      </trkpt>
      <trkpt lat="37.3148160" lon="-4.3596010">
        <ele>546.2</ele>
        <time>2020-07-11T05:56:23Z</time>
      </trkpt>
      <trkpt lat="37.3148220" lon="-4.3594000">
        <ele>544.8</ele>
        <time>2020-07-11T05:56:24Z</time>
      </trkpt>
      <trkpt lat="37.3148280" lon="-4.3592110">
        <ele>543.6</ele>
        <time>2020-07-11T05:56:25Z</time>
      </trkpt>
      <trkpt lat="37.3148320" lon="-4.3590200">
        <ele>542.2</ele>
        <time>2020-07-11T05:56:26Z</time>
      </trkpt>
      <trkpt lat="37.3148350" lon="-4.3588400">
        <ele>540.8</ele>
        <time>2020-07-11T05:56:27Z</time>
      </trkpt>
      <trkpt lat="37.3148390" lon="-4.3586400">
        <ele>538.8</ele>
        <time>2020-07-11T05:56:28Z</time>
      </trkpt>
      <trkpt lat="37.3148390" lon="-4.3584620">
        <ele>537.2</ele>
        <time>2020-07-11T05:56:29Z</time>
      </trkpt>
      <trkpt lat="37.3148390" lon="-4.3582590">
        <ele>535.8</ele>
        <time>2020-07-11T05:56:30Z</time>
      </trkpt>
      <trkpt lat="37.3148330" lon="-4.3580680">
        <ele>534.6</ele>
        <time>2020-07-11T05:56:31Z</time>
      </trkpt>
      <trkpt lat="37.3148250" lon="-4.3578880">
        <ele>533.6</ele>
        <time>2020-07-11T05:56:32Z</time>
      </trkpt>
      <trkpt lat="37.3148120" lon="-4.3576870">
        <ele>532.4</ele>
        <time>2020-07-11T05:56:33Z</time>
      </trkpt>
      <trkpt lat="37.3147990" lon="-4.3574950">
        <ele>531.2</ele>
        <time>2020-07-11T05:56:34Z</time>
      </trkpt>
      <trkpt lat="37.3147870" lon="-4.3573180">
        <ele>530.2</ele>
        <time>2020-07-11T05:56:35Z</time>
      </trkpt>
      <trkpt lat="37.3147720" lon="-4.3571190">
        <ele>529.0</ele>
        <time>2020-07-11T05:56:36Z</time>
      </trkpt>
      <trkpt lat="37.3147560" lon="-4.3569410">
        <ele>527.8</ele>
        <time>2020-07-11T05:56:37Z</time>
      </trkpt>
      <trkpt lat="37.3147340" lon="-4.3567480">
        <ele>526.6</ele>
        <time>2020-07-11T05:56:38Z</time>
      </trkpt>
      <trkpt lat="37.3147100" lon="-4.3565660">
        <ele>525.2</ele>
        <time>2020-07-11T05:56:39Z</time>
      </trkpt>
      <trkpt lat="37.3146840" lon="-4.3563890">
        <ele>524.0</ele>
        <time>2020-07-11T05:56:40Z</time>
      </trkpt>
      <trkpt lat="37.3146600" lon="-4.3562240">
        <ele>523.0</ele>
        <time>2020-07-11T05:56:41Z</time>
      </trkpt>
      <trkpt lat="37.3146310" lon="-4.3560470">
        <ele>522.0</ele>
        <time>2020-07-11T05:56:42Z</time>
      </trkpt>
      <trkpt lat="37.3146010" lon="-4.3558650">
        <ele>520.8</ele>
        <time>2020-07-11T05:56:43Z</time>
      </trkpt>
      <trkpt lat="37.3145400" lon="-4.3555160">
        <ele>518.6</ele>
        <time>2020-07-11T05:56:45Z</time>
      </trkpt>
      <trkpt lat="37.3145090" lon="-4.3553460">
        <ele>517.2</ele>
        <time>2020-07-11T05:56:46Z</time>
      </trkpt>
      <trkpt lat="37.3144480" lon="-4.3550110">
        <ele>515.2</ele>
        <time>2020-07-11T05:56:48Z</time>
      </trkpt>
      <trkpt lat="37.3143800" lon="-4.3546750">
        <ele>513.0</ele>
        <time>2020-07-11T05:56:50Z</time>
      </trkpt>
      <trkpt lat="37.3143430" lon="-4.3545060">
        <ele>511.6</ele>
        <time>2020-07-11T05:56:51Z</time>
      </trkpt>
      <trkpt lat="37.3143050" lon="-4.3543440">
        <ele>510.4</ele>
        <time>2020-07-11T05:56:52Z</time>
      </trkpt>
      <trkpt lat="37.3142640" lon="-4.3541670">
        <ele>509.4</ele>
        <time>2020-07-11T05:56:53Z</time>
      </trkpt>
      <trkpt lat="37.3142240" lon="-4.3539910">
        <ele>508.2</ele>
        <time>2020-07-11T05:56:54Z</time>
      </trkpt>
      <trkpt lat="37.3141810" lon="-4.3538080">
        <ele>507.0</ele>
        <time>2020-07-11T05:56:55Z</time>
      </trkpt>
      <trkpt lat="37.3141380" lon="-4.3536320">
        <ele>506.0</ele>
        <time>2020-07-11T05:56:56Z</time>
      </trkpt>
      <trkpt lat="37.3140960" lon="-4.3534690">
        <ele>505.0</ele>
        <time>2020-07-11T05:56:57Z</time>
      </trkpt>
      <trkpt lat="37.3140050" lon="-4.3531230">
        <ele>503.0</ele>
        <time>2020-07-11T05:56:59Z</time>
      </trkpt>
      <trkpt lat="37.3139570" lon="-4.3529430">
        <ele>501.8</ele>
        <time>2020-07-11T05:57:00Z</time>
      </trkpt>
      <trkpt lat="37.3139090" lon="-4.3527740">
        <ele>500.8</ele>
        <time>2020-07-11T05:57:01Z</time>
      </trkpt>
      <trkpt lat="37.3138620" lon="-4.3526150">
        <ele>499.8</ele>
        <time>2020-07-11T05:57:02Z</time>
      </trkpt>
      <trkpt lat="37.3138090" lon="-4.3524410">
        <ele>498.8</ele>
        <time>2020-07-11T05:57:03Z</time>
      </trkpt>
      <trkpt lat="37.3137630" lon="-4.3522890">
        <ele>497.6</ele>
        <time>2020-07-11T05:57:04Z</time>
      </trkpt>
      <trkpt lat="37.3137150" lon="-4.3521360">
        <ele>496.2</ele>
        <time>2020-07-11T05:57:05Z</time>
      </trkpt>
      <trkpt lat="37.3136620" lon="-4.3519680">
        <ele>495.0</ele>
        <time>2020-07-11T05:57:06Z</time>
      </trkpt>
      <trkpt lat="37.3136120" lon="-4.3518170">
        <ele>493.6</ele>
        <time>2020-07-11T05:57:07Z</time>
      </trkpt>
      <trkpt lat="37.3135540" lon="-4.3516480">
        <ele>492.4</ele>
        <time>2020-07-11T05:57:08Z</time>
      </trkpt>
      <trkpt lat="37.3135000" lon="-4.3514850">
        <ele>491.2</ele>
        <time>2020-07-11T05:57:09Z</time>
      </trkpt>
      <trkpt lat="37.3134440" lon="-4.3513190">
        <ele>489.8</ele>
        <time>2020-07-11T05:57:10Z</time>
      </trkpt>
      <trkpt lat="37.3133300" lon="-4.3510040">
        <ele>488.0</ele>
        <time>2020-07-11T05:57:12Z</time>
      </trkpt>
      <trkpt lat="37.3132640" lon="-4.3508300">
        <ele>486.6</ele>
        <time>2020-07-11T05:57:13Z</time>
      </trkpt>
      <trkpt lat="37.3132050" lon="-4.3506710">
        <ele>485.4</ele>
        <time>2020-07-11T05:57:14Z</time>
      </trkpt>
      <trkpt lat="37.3131390" lon="-4.3504980">
        <ele>484.4</ele>
        <time>2020-07-11T05:57:15Z</time>
      </trkpt>
      <trkpt lat="37.3130740" lon="-4.3503310">
        <ele>483.4</ele>
        <time>2020-07-11T05:57:16Z</time>
      </trkpt>
      <trkpt lat="37.3130110" lon="-4.3501830">
        <ele>482.6</ele>
        <time>2020-07-11T05:57:17Z</time>
      </trkpt>
      <trkpt lat="37.3128600" lon="-4.3498240">
        <ele>480.8</ele>
        <time>2020-07-11T05:57:19Z</time>
      </trkpt>
      <trkpt lat="37.3127890" lon="-4.3496580">
        <ele>479.8</ele>
        <time>2020-07-11T05:57:20Z</time>
      </trkpt>
      <trkpt lat="37.3127130" lon="-4.3494850">
        <ele>478.6</ele>
        <time>2020-07-11T05:57:21Z</time>
      </trkpt>
      <trkpt lat="37.3126420" lon="-4.3493260">
        <ele>477.4</ele>
        <time>2020-07-11T05:57:22Z</time>
      </trkpt>
      <trkpt lat="37.3125660" lon="-4.3491530">
        <ele>476.2</ele>
        <time>2020-07-11T05:57:23Z</time>
      </trkpt>
      <trkpt lat="37.3124870" lon="-4.3489810">
        <ele>475.2</ele>
        <time>2020-07-11T05:57:24Z</time>
      </trkpt>
      <trkpt lat="37.3124050" lon="-4.3488080">
        <ele>474.0</ele>
        <time>2020-07-11T05:57:25Z</time>
      </trkpt>
      <trkpt lat="37.3123230" lon="-4.3486400">
        <ele>472.8</ele>
        <time>2020-07-11T05:57:26Z</time>
      </trkpt>
      <trkpt lat="37.3122460" lon="-4.3484810">
        <ele>471.6</ele>
        <time>2020-07-11T05:57:27Z</time>
      </trkpt>
      <trkpt lat="37.3121580" lon="-4.3483020">
        <ele>470.4</ele>
        <time>2020-07-11T05:57:28Z</time>
      </trkpt>
      <trkpt lat="37.3120840" lon="-4.3481570">
        <ele>469.0</ele>
        <time>2020-07-11T05:57:29Z</time>
      </trkpt>
      <trkpt lat="37.3119930" lon="-4.3479720">
        <ele>468.0</ele>
        <time>2020-07-11T05:57:30Z</time>
      </trkpt>
      <trkpt lat="37.3119130" lon="-4.3478050">
        <ele>466.6</ele>
        <time>2020-07-11T05:57:31Z</time>
      </trkpt>
      <trkpt lat="37.3118370" lon="-4.3476510">
        <ele>465.6</ele>
        <time>2020-07-11T05:57:32Z</time>
      </trkpt>
      <trkpt lat="37.3117470" lon="-4.3474770">
        <ele>464.4</ele>
        <time>2020-07-11T05:57:33Z</time>
      </trkpt>
      <trkpt lat="37.3116630" lon="-4.3473120">
        <ele>462.8</ele>
        <time>2020-07-11T05:57:34Z</time>
      </trkpt>
      <trkpt lat="37.3115830" lon="-4.3471550">
        <ele>461.2</ele>
        <time>2020-07-11T05:57:35Z</time>
      </trkpt>
      <trkpt lat="37.3114940" lon="-4.3469760">
        <ele>460.0</ele>
        <time>2020-07-11T05:57:36Z</time>
      </trkpt>
      <trkpt lat="37.3114150" lon="-4.3468170">
        <ele>458.6</ele>
        <time>2020-07-11T05:57:37Z</time>
      </trkpt>
      <trkpt lat="37.3113240" lon="-4.3466330">
        <ele>457.4</ele>
        <time>2020-07-11T05:57:38Z</time>
      </trkpt>
      <trkpt lat="37.3112420" lon="-4.3464700">
        <ele>456.2</ele>
        <time>2020-07-11T05:57:39Z</time>
      </trkpt>
      <trkpt lat="37.3111520" lon="-4.3462920">
        <ele>455.2</ele>
        <time>2020-07-11T05:57:40Z</time>
      </trkpt>
      <trkpt lat="37.3110710" lon="-4.3461300">
        <ele>454.0</ele>
        <time>2020-07-11T05:57:41Z</time>
      </trkpt>
      <trkpt lat="37.3109850" lon="-4.3459580">
        <ele>452.8</ele>
        <time>2020-07-11T05:57:42Z</time>
      </trkpt>
      <trkpt lat="37.3108920" lon="-4.3457720">
        <ele>451.6</ele>
        <time>2020-07-11T05:57:43Z</time>
      </trkpt>
      <trkpt lat="37.3108100" lon="-4.3456070">
        <ele>450.4</ele>
        <time>2020-07-11T05:57:44Z</time>
      </trkpt>
      <trkpt lat="37.3107190" lon="-4.3454260">
        <ele>449.2</ele>
        <time>2020-07-11T05:57:45Z</time>
      </trkpt>
      <trkpt lat="37.3106310" lon="-4.3452530">
        <ele>448.0</ele>
        <time>2020-07-11T05:57:46Z</time>
      </trkpt>
      <trkpt lat="37.3105540" lon="-4.3450970">
        <ele>446.6</ele>
        <time>2020-07-11T05:57:47Z</time>
      </trkpt>
      <trkpt lat="37.3104550" lon="-4.3449000">
        <ele>445.4</ele>
        <time>2020-07-11T05:57:48Z</time>
      </trkpt>
      <trkpt lat="37.3103660" lon="-4.3447250">
        <ele>444.0</ele>
        <time>2020-07-11T05:57:49Z</time>
      </trkpt>
      <trkpt lat="37.3102780" lon="-4.3445480">
        <ele>442.8</ele>
        <time>2020-07-11T05:57:50Z</time>
      </trkpt>
      <trkpt lat="37.3101900" lon="-4.3443770">
        <ele>441.6</ele>
        <time>2020-07-11T05:57:51Z</time>
      </trkpt>
      <trkpt lat="37.3101030" lon="-4.3442160">
        <ele>440.2</ele>
        <time>2020-07-11T05:57:52Z</time>
      </trkpt>
      <trkpt lat="37.3100100" lon="-4.3440590">
        <ele>439.2</ele>
        <time>2020-07-11T05:57:53Z</time>
      </trkpt>
      <trkpt lat="37.3099120" lon="-4.3439010">
        <ele>438.2</ele>
        <time>2020-07-11T05:57:54Z</time>
      </trkpt>
      <trkpt lat="37.3097140" lon="-4.3436230">
        <ele>436.6</ele>
        <time>2020-07-11T05:57:56Z</time>
      </trkpt>
      <trkpt lat="37.3094180" lon="-4.3432930">
        <ele>435.2</ele>
        <time>2020-07-11T05:57:59Z</time>
      </trkpt>
      <trkpt lat="37.3093070" lon="-4.3431890">
        <ele>435.0</ele>
        <time>2020-07-11T05:58:00Z</time>
      </trkpt>
      <trkpt lat="37.3090090" lon="-4.3429530">
        <ele>434.8</ele>
        <time>2020-07-11T05:58:03Z</time>
      </trkpt>
      <trkpt lat="37.3089170" lon="-4.3428920">
        <ele>435.0</ele>
        <time>2020-07-11T05:58:04Z</time>
      </trkpt>
      <trkpt lat="37.3087460" lon="-4.3427890">
        <ele>435.8</ele>
        <time>2020-07-11T05:58:06Z</time>
      </trkpt>
      <trkpt lat="37.3086710" lon="-4.3427510">
        <ele>436.4</ele>
        <time>2020-07-11T05:58:07Z</time>
      </trkpt>
      <trkpt lat="37.3085930" lon="-4.3427130">
        <ele>437.2</ele>
        <time>2020-07-11T05:58:08Z</time>
      </trkpt>
      <trkpt lat="37.3085270" lon="-4.3426860">
        <ele>437.8</ele>
        <time>2020-07-11T05:58:09Z</time>
      </trkpt>
      <trkpt lat="37.3084040" lon="-4.3426300">
        <ele>439.2</ele>
        <time>2020-07-11T05:58:11Z</time>
      </trkpt>
      <trkpt lat="37.3083470" lon="-4.3426130">
        <ele>439.8</ele>
        <time>2020-07-11T05:58:12Z</time>
      </trkpt>
      <trkpt lat="37.3082870" lon="-4.3425990">
        <ele>440.4</ele>
        <time>2020-07-11T05:58:13Z</time>
      </trkpt>
      <trkpt lat="37.3081840" lon="-4.3425690">
        <ele>441.4</ele>
        <time>2020-07-11T05:58:15Z</time>
      </trkpt>
      <trkpt lat="37.3081080" lon="-4.3425460">
        <ele>442.6</ele>
        <time>2020-07-11T05:58:17Z</time>
      </trkpt>
      <trkpt lat="37.3080290" lon="-4.3425220">
        <ele>443.6</ele>
        <time>2020-07-11T05:58:19Z</time>
      </trkpt>
      <trkpt lat="37.3079560" lon="-4.3425030">
        <ele>444.4</ele>
        <time>2020-07-11T05:58:21Z</time>
      </trkpt>
      <trkpt lat="37.3079230" lon="-4.3424940">
        <ele>444.8</ele>
        <time>2020-07-11T05:58:22Z</time>
      </trkpt>
      <trkpt lat="37.3078500" lon="-4.3424740">
        <ele>445.4</ele>
        <time>2020-07-11T05:58:24Z</time>
      </trkpt>
      <trkpt lat="37.3078150" lon="-4.3424660">
        <ele>445.8</ele>
        <time>2020-07-11T05:58:25Z</time>
      </trkpt>
      <trkpt lat="37.3077810" lon="-4.3424570">
        <ele>446.0</ele>
        <time>2020-07-11T05:58:26Z</time>
      </trkpt>
      <trkpt lat="37.3077150" lon="-4.3424390">
        <ele>446.6</ele>
        <time>2020-07-11T05:58:28Z</time>
      </trkpt>
      <trkpt lat="37.3076520" lon="-4.3424270">
        <ele>447.2</ele>
        <time>2020-07-11T05:58:30Z</time>
      </trkpt>
      <trkpt lat="37.3075610" lon="-4.3423970">
        <ele>448.2</ele>
        <time>2020-07-11T05:58:33Z</time>
      </trkpt>
      <trkpt lat="37.3075320" lon="-4.3423850">
        <ele>448.6</ele>
        <time>2020-07-11T05:58:34Z</time>
      </trkpt>
      <trkpt lat="37.3074160" lon="-4.3423430">
        <ele>449.6</ele>
        <time>2020-07-11T05:58:38Z</time>
      </trkpt>
      <trkpt lat="37.3073000" lon="-4.3423000">
        <ele>450.8</ele>
        <time>2020-07-11T05:58:42Z</time>
      </trkpt>
      <trkpt lat="37.3072420" lon="-4.3422770">
        <ele>451.4</ele>
        <time>2020-07-11T05:58:44Z</time>
      </trkpt>
      <trkpt lat="37.3071870" lon="-4.3422470">
        <ele>451.8</ele>
        <time>2020-07-11T05:58:46Z</time>
      </trkpt>
      <trkpt lat="37.3070750" lon="-4.3422000">
        <ele>453.0</ele>
        <time>2020-07-11T05:58:50Z</time>
      </trkpt>
      <trkpt lat="37.3070220" lon="-4.3421740">
        <ele>453.4</ele>
        <time>2020-07-11T05:58:52Z</time>
      </trkpt>
      <trkpt lat="37.3069610" lon="-4.3421480">
        <ele>454.0</ele>
        <time>2020-07-11T05:58:54Z</time>
      </trkpt>
      <trkpt lat="37.3068540" lon="-4.3421050">
        <ele>455.0</ele>
        <time>2020-07-11T05:58:58Z</time>
      </trkpt>
      <trkpt lat="37.3068000" lon="-4.3420820">
        <ele>455.6</ele>
        <time>2020-07-11T05:59:00Z</time>
      </trkpt>
      <trkpt lat="37.3067460" lon="-4.3420610">
        <ele>456.2</ele>
        <time>2020-07-11T05:59:02Z</time>
      </trkpt>
      <trkpt lat="37.3066340" lon="-4.3420200">
        <ele>457.2</ele>
        <time>2020-07-11T05:59:06Z</time>
      </trkpt>
      <trkpt lat="37.3065470" lon="-4.3419900">
        <ele>458.0</ele>
        <time>2020-07-11T05:59:09Z</time>
      </trkpt>
      <trkpt lat="37.3064930" lon="-4.3419670">
        <ele>458.4</ele>
        <time>2020-07-11T05:59:11Z</time>
      </trkpt>
      <trkpt lat="37.3063500" lon="-4.3419150">
        <ele>459.6</ele>
        <time>2020-07-11T05:59:16Z</time>
      </trkpt>
      <trkpt lat="37.3062470" lon="-4.3418820">
        <ele>460.2</ele>
        <time>2020-07-11T05:59:19Z</time>
      </trkpt>
      <trkpt lat="37.3061760" lon="-4.3418630">
        <ele>460.6</ele>
        <time>2020-07-11T05:59:21Z</time>
      </trkpt>
      <trkpt lat="37.3060450" lon="-4.3418290">
        <ele>461.6</ele>
        <time>2020-07-11T05:59:25Z</time>
      </trkpt>
      <trkpt lat="37.3059550" lon="-4.3417970">
        <ele>462.4</ele>
        <time>2020-07-11T05:59:28Z</time>
      </trkpt>
      <trkpt lat="37.3058960" lon="-4.3417750">
        <ele>462.8</ele>
        <time>2020-07-11T05:59:30Z</time>
      </trkpt>
      <trkpt lat="37.3057540" lon="-4.3417090">
        <ele>463.8</ele>
        <time>2020-07-11T05:59:35Z</time>
      </trkpt>
      <trkpt lat="37.3056630" lon="-4.3416760">
        <ele>464.4</ele>
        <time>2020-07-11T05:59:38Z</time>
      </trkpt>
      <trkpt lat="37.3056030" lon="-4.3416530">
        <ele>464.8</ele>
        <time>2020-07-11T05:59:40Z</time>
      </trkpt>
      <trkpt lat="37.3054260" lon="-4.3415750">
        <ele>465.8</ele>
        <time>2020-07-11T05:59:46Z</time>
      </trkpt>
      <trkpt lat="37.3053400" lon="-4.3415270">
        <ele>466.4</ele>
        <time>2020-07-11T05:59:49Z</time>
      </trkpt>
      <trkpt lat="37.3052830" lon="-4.3414910">
        <ele>466.8</ele>
        <time>2020-07-11T05:59:51Z</time>
      </trkpt>
      <trkpt lat="37.3051500" lon="-4.3413830">
        <ele>468.0</ele>
        <time>2020-07-11T05:59:56Z</time>
      </trkpt>
      <trkpt lat="37.3050790" lon="-4.3413100">
        <ele>468.6</ele>
        <time>2020-07-11T05:59:59Z</time>
      </trkpt>
      <trkpt lat="37.3050080" lon="-4.3412370">
        <ele>469.2</ele>
        <time>2020-07-11T06:00:02Z</time>
      </trkpt>
      <trkpt lat="37.3049060" lon="-4.3410960">
        <ele>470.0</ele>
        <time>2020-07-11T06:00:07Z</time>
      </trkpt>
      <trkpt lat="37.3048850" lon="-4.3410650">
        <ele>470.2</ele>
        <time>2020-07-11T06:00:08Z</time>
      </trkpt>
      <trkpt lat="37.3047960" lon="-4.3409040">
        <ele>471.2</ele>
        <time>2020-07-11T06:00:13Z</time>
      </trkpt>
      <trkpt lat="37.3047530" lon="-4.3408010">
        <ele>471.8</ele>
        <time>2020-07-11T06:00:16Z</time>
      </trkpt>
      <trkpt lat="37.3047130" lon="-4.3406980">
        <ele>472.4</ele>
        <time>2020-07-11T06:00:19Z</time>
      </trkpt>
      <trkpt lat="37.3046500" lon="-4.3404740">
        <ele>473.6</ele>
        <time>2020-07-11T06:00:25Z</time>
      </trkpt>
      <trkpt lat="37.3046420" lon="-4.3404350">
        <ele>473.8</ele>
        <time>2020-07-11T06:00:26Z</time>
      </trkpt>
      <trkpt lat="37.3046150" lon="-4.3402370">
        <ele>474.6</ele>
        <time>2020-07-11T06:00:31Z</time>
      </trkpt>
      <trkpt lat="37.3046060" lon="-4.3400750">
        <ele>475.2</ele>
        <time>2020-07-11T06:00:35Z</time>
      </trkpt>
      <trkpt lat="37.3046120" lon="-4.3399060">
        <ele>475.8</ele>
        <time>2020-07-11T06:00:39Z</time>
      </trkpt>
      <trkpt lat="37.3046330" lon="-4.3397370">
        <ele>477.0</ele>
        <time>2020-07-11T06:00:43Z</time>
      </trkpt>
      <trkpt lat="37.3046400" lon="-4.3396960">
        <ele>477.2</ele>
        <time>2020-07-11T06:00:44Z</time>
      </trkpt>
      <trkpt lat="37.3046810" lon="-4.3395300">
        <ele>478.0</ele>
        <time>2020-07-11T06:00:48Z</time>
      </trkpt>
      <trkpt lat="37.3047490" lon="-4.3393340">
        <ele>479.2</ele>
        <time>2020-07-11T06:00:53Z</time>
      </trkpt>
      <trkpt lat="37.3048370" lon="-4.3391450">
        <ele>480.2</ele>
        <time>2020-07-11T06:00:58Z</time>
      </trkpt>
      <trkpt lat="37.3049170" lon="-4.3390070">
        <ele>480.8</ele>
        <time>2020-07-11T06:01:02Z</time>
      </trkpt>
      <trkpt lat="37.3049600" lon="-4.3389390">
        <ele>481.2</ele>
        <time>2020-07-11T06:01:04Z</time>
      </trkpt>
      <trkpt lat="37.3050870" lon="-4.3387280">
        <ele>482.4</ele>
        <time>2020-07-11T06:01:10Z</time>
      </trkpt>
      <trkpt lat="37.3051760" lon="-4.3385940">
        <ele>483.2</ele>
        <time>2020-07-11T06:01:14Z</time>
      </trkpt>
      <trkpt lat="37.3052220" lon="-4.3385230">
        <ele>483.6</ele>
        <time>2020-07-11T06:01:16Z</time>
      </trkpt>
      <trkpt lat="37.3053590" lon="-4.3383200">
        <ele>484.8</ele>
        <time>2020-07-11T06:01:22Z</time>
      </trkpt>
      <trkpt lat="37.3054910" lon="-4.3381010">
        <ele>485.8</ele>
        <time>2020-07-11T06:01:28Z</time>
      </trkpt>
      <trkpt lat="37.3056290" lon="-4.3378860">
        <ele>487.0</ele>
        <time>2020-07-11T06:01:34Z</time>
      </trkpt>
      <trkpt lat="37.3057610" lon="-4.3376690">
        <ele>488.2</ele>
        <time>2020-07-11T06:01:40Z</time>
      </trkpt>
      <trkpt lat="37.3058780" lon="-4.3374300">
        <ele>489.2</ele>
        <time>2020-07-11T06:01:46Z</time>
      </trkpt>
      <trkpt lat="37.3059490" lon="-4.3372650">
        <ele>490.0</ele>
        <time>2020-07-11T06:01:50Z</time>
      </trkpt>
      <trkpt lat="37.3059770" lon="-4.3371810">
        <ele>490.4</ele>
        <time>2020-07-11T06:01:52Z</time>
      </trkpt>
      <trkpt lat="37.3060460" lon="-4.3369150">
        <ele>491.4</ele>
        <time>2020-07-11T06:01:58Z</time>
      </trkpt>
      <trkpt lat="37.3060480" lon="-4.3368980">
        <ele>491.4</ele>
        <time>2020-07-11T06:01:59Z</time>
      </trkpt>
      <trkpt lat="37.3060710" lon="-4.3366310">
        <ele>492.4</ele>
        <time>2020-07-11T06:02:04Z</time>
      </trkpt>
      <trkpt lat="37.3060620" lon="-4.3363880">
        <ele>493.4</ele>
        <time>2020-07-11T06:02:09Z</time>
      </trkpt>
      <trkpt lat="37.3060560" lon="-4.3363400">
        <ele>493.6</ele>
        <time>2020-07-11T06:02:10Z</time>
      </trkpt>
      <trkpt lat="37.3060130" lon="-4.3360980">
        <ele>494.6</ele>
        <time>2020-07-11T06:02:15Z</time>
      </trkpt>
      <trkpt lat="37.3059870" lon="-4.3360110">
        <ele>495.0</ele>
        <time>2020-07-11T06:02:17Z</time>
      </trkpt>
      <trkpt lat="37.3059390" lon="-4.3358730">
        <ele>495.6</ele>
        <time>2020-07-11T06:02:20Z</time>
      </trkpt>
      <trkpt lat="37.3058150" lon="-4.3356340">
        <ele>497.0</ele>
        <time>2020-07-11T06:02:26Z</time>
      </trkpt>
      <trkpt lat="37.3056620" lon="-4.3354280">
        <ele>498.2</ele>
        <time>2020-07-11T06:02:32Z</time>
      </trkpt>
      <trkpt lat="37.3055760" lon="-4.3353420">
        <ele>499.0</ele>
        <time>2020-07-11T06:02:35Z</time>
      </trkpt>
      <trkpt lat="37.3055440" lon="-4.3353140">
        <ele>499.2</ele>
        <time>2020-07-11T06:02:36Z</time>
      </trkpt>
      <trkpt lat="37.3053540" lon="-4.3351650">
        <ele>500.2</ele>
        <time>2020-07-11T06:02:42Z</time>
      </trkpt>
      <trkpt lat="37.3052510" lon="-4.3351040">
        <ele>500.8</ele>
        <time>2020-07-11T06:02:45Z</time>
      </trkpt>
      <trkpt lat="37.3051840" lon="-4.3350670">
        <ele>501.4</ele>
        <time>2020-07-11T06:02:47Z</time>
      </trkpt>
      <trkpt lat="37.3049980" lon="-4.3349760">
        <ele>502.4</ele>
        <time>2020-07-11T06:02:52Z</time>
      </trkpt>
      <trkpt lat="37.3048880" lon="-4.3349240">
        <ele>503.0</ele>
        <time>2020-07-11T06:02:55Z</time>
      </trkpt>
      <trkpt lat="37.3048190" lon="-4.3348930">
        <ele>503.4</ele>
        <time>2020-07-11T06:02:57Z</time>
      </trkpt>
      <trkpt lat="37.3045950" lon="-4.3347920">
        <ele>504.6</ele>
        <time>2020-07-11T06:03:03Z</time>
      </trkpt>
      <trkpt lat="37.3044090" lon="-4.3347090">
        <ele>505.4</ele>
        <time>2020-07-11T06:03:08Z</time>
      </trkpt>
      <trkpt lat="37.3043730" lon="-4.3346920">
        <ele>505.6</ele>
        <time>2020-07-11T06:03:09Z</time>
      </trkpt>
      <trkpt lat="37.3041460" lon="-4.3346050">
        <ele>506.6</ele>
        <time>2020-07-11T06:03:15Z</time>
      </trkpt>
      <trkpt lat="37.3039570" lon="-4.3345610">
        <ele>507.6</ele>
        <time>2020-07-11T06:03:20Z</time>
      </trkpt>
      <trkpt lat="37.3039160" lon="-4.3345570">
        <ele>507.8</ele>
        <time>2020-07-11T06:03:21Z</time>
      </trkpt>
      <trkpt lat="37.3036880" lon="-4.3345440">
        <ele>508.8</ele>
        <time>2020-07-11T06:03:27Z</time>
      </trkpt>
      <trkpt lat="37.3036110" lon="-4.3345530">
        <ele>509.2</ele>
        <time>2020-07-11T06:03:29Z</time>
      </trkpt>
      <trkpt lat="37.3034540" lon="-4.3345880">
        <ele>510.0</ele>
        <time>2020-07-11T06:03:33Z</time>
      </trkpt>
      <trkpt lat="37.3032980" lon="-4.3346400">
        <ele>510.8</ele>
        <time>2020-07-11T06:03:37Z</time>
      </trkpt>
      <trkpt lat="37.3032540" lon="-4.3346620">
        <ele>511.2</ele>
        <time>2020-07-11T06:03:38Z</time>
      </trkpt>
      <trkpt lat="37.3030660" lon="-4.3347480">
        <ele>512.2</ele>
        <time>2020-07-11T06:03:43Z</time>
      </trkpt>
      <trkpt lat="37.3030300" lon="-4.3347630">
        <ele>512.4</ele>
        <time>2020-07-11T06:03:44Z</time>
      </trkpt>
      <trkpt lat="37.3028560" lon="-4.3348510">
        <ele>513.4</ele>
        <time>2020-07-11T06:03:49Z</time>
      </trkpt>
      <trkpt lat="37.3027500" lon="-4.3349040">
        <ele>514.0</ele>
        <time>2020-07-11T06:03:52Z</time>
      </trkpt>
      <trkpt lat="37.3026390" lon="-4.3349540">
        <ele>514.6</ele>
        <time>2020-07-11T06:03:55Z</time>
      </trkpt>
      <trkpt lat="37.3024570" lon="-4.3350130">
        <ele>515.6</ele>
        <time>2020-07-11T06:04:00Z</time>
      </trkpt>
      <trkpt lat="37.3023830" lon="-4.3350330">
        <ele>516.0</ele>
        <time>2020-07-11T06:04:02Z</time>
      </trkpt>
      <trkpt lat="37.3022640" lon="-4.3350510">
        <ele>516.6</ele>
        <time>2020-07-11T06:04:05Z</time>
      </trkpt>
      <trkpt lat="37.3020290" lon="-4.3350600">
        <ele>517.8</ele>
        <time>2020-07-11T06:04:11Z</time>
      </trkpt>
      <trkpt lat="37.3018020" lon="-4.3350170">
        <ele>518.8</ele>
        <time>2020-07-11T06:04:17Z</time>
      </trkpt>
      <trkpt lat="37.3016860" lon="-4.3349730">
        <ele>519.4</ele>
        <time>2020-07-11T06:04:20Z</time>
      </trkpt>
      <trkpt lat="37.3015810" lon="-4.3349230">
        <ele>519.8</ele>
        <time>2020-07-11T06:04:23Z</time>
      </trkpt>
      <trkpt lat="37.3014060" lon="-4.3348140">
        <ele>521.0</ele>
        <time>2020-07-11T06:04:28Z</time>
      </trkpt>
      <trkpt lat="37.3013760" lon="-4.3347900">
        <ele>521.0</ele>
        <time>2020-07-11T06:04:29Z</time>
      </trkpt>
      <trkpt lat="37.3012210" lon="-4.3346400">
        <ele>522.0</ele>
        <time>2020-07-11T06:04:34Z</time>
      </trkpt>
      <trkpt lat="37.3011060" lon="-4.3345060">
        <ele>522.6</ele>
        <time>2020-07-11T06:04:38Z</time>
      </trkpt>
      <trkpt lat="37.3010540" lon="-4.3344330">
        <ele>523.0</ele>
        <time>2020-07-11T06:04:40Z</time>
      </trkpt>
      <trkpt lat="37.3009320" lon="-4.3342320">
        <ele>524.0</ele>
        <time>2020-07-11T06:04:45Z</time>
      </trkpt>
      <trkpt lat="37.3009110" lon="-4.3341890">
        <ele>524.4</ele>
        <time>2020-07-11T06:04:46Z</time>
      </trkpt>
      <trkpt lat="37.3007800" lon="-4.3338700">
        <ele>525.6</ele>
        <time>2020-07-11T06:04:53Z</time>
      </trkpt>
      <trkpt lat="37.3007270" lon="-4.3337300">
        <ele>526.0</ele>
        <time>2020-07-11T06:04:56Z</time>
      </trkpt>
      <trkpt lat="37.3006890" lon="-4.3336290">
        <ele>526.6</ele>
        <time>2020-07-11T06:04:59Z</time>
      </trkpt>
      <trkpt lat="37.3005820" lon="-4.3333200">
        <ele>527.6</ele>
        <time>2020-07-11T06:05:05Z</time>
      </trkpt>
      <trkpt lat="37.3005160" lon="-4.3331360">
        <ele>528.2</ele>
        <time>2020-07-11T06:05:09Z</time>
      </trkpt>
      <trkpt lat="37.3004860" lon="-4.3330450">
        <ele>528.8</ele>
        <time>2020-07-11T06:05:11Z</time>
      </trkpt>
      <trkpt lat="37.3004100" lon="-4.3328170">
        <ele>529.8</ele>
        <time>2020-07-11T06:05:16Z</time>
      </trkpt>
      <trkpt lat="37.3003950" lon="-4.3327770">
        <ele>530.0</ele>
        <time>2020-07-11T06:05:17Z</time>
      </trkpt>
      <trkpt lat="37.3003270" lon="-4.3325820">
        <ele>530.8</ele>
        <time>2020-07-11T06:05:21Z</time>
      </trkpt>
      <trkpt lat="37.3002480" lon="-4.3323530">
        <ele>532.0</ele>
        <time>2020-07-11T06:05:26Z</time>
      </trkpt>
      <trkpt lat="37.3001680" lon="-4.3321240">
        <ele>533.0</ele>
        <time>2020-07-11T06:05:31Z</time>
      </trkpt>
      <trkpt lat="37.3001040" lon="-4.3319450">
        <ele>534.0</ele>
        <time>2020-07-11T06:05:35Z</time>
      </trkpt>
      <trkpt lat="37.3000730" lon="-4.3318560">
        <ele>534.6</ele>
        <time>2020-07-11T06:05:37Z</time>
      </trkpt>
      <trkpt lat="37.3000400" lon="-4.3317660">
        <ele>535.0</ele>
        <time>2020-07-11T06:05:39Z</time>
      </trkpt>
      <trkpt lat="37.2999580" lon="-4.3315450">
        <ele>536.2</ele>
        <time>2020-07-11T06:05:44Z</time>
      </trkpt>
      <trkpt lat="37.2998950" lon="-4.3313680">
        <ele>537.2</ele>
        <time>2020-07-11T06:05:48Z</time>
      </trkpt>
      <trkpt lat="37.2998810" lon="-4.3313260">
        <ele>537.4</ele>
        <time>2020-07-11T06:05:49Z</time>
      </trkpt>
      <trkpt lat="37.2998000" lon="-4.3311060">
        <ele>538.6</ele>
        <time>2020-07-11T06:05:54Z</time>
      </trkpt>
      <trkpt lat="37.2997550" lon="-4.3309740">
        <ele>539.2</ele>
        <time>2020-07-11T06:05:57Z</time>
      </trkpt>
      <trkpt lat="37.2997250" lon="-4.3308840">
        <ele>539.6</ele>
        <time>2020-07-11T06:05:59Z</time>
      </trkpt>
      <trkpt lat="37.2996610" lon="-4.3307010">
        <ele>540.6</ele>
        <time>2020-07-11T06:06:03Z</time>
      </trkpt>
      <trkpt lat="37.2995960" lon="-4.3305200">
        <ele>541.6</ele>
        <time>2020-07-11T06:06:07Z</time>
      </trkpt>
      <trkpt lat="37.2995160" lon="-4.3302980">
        <ele>542.8</ele>
        <time>2020-07-11T06:06:12Z</time>
      </trkpt>
      <trkpt lat="37.2994420" lon="-4.3300780">
        <ele>543.8</ele>
        <time>2020-07-11T06:06:17Z</time>
      </trkpt>
      <trkpt lat="37.2994230" lon="-4.3300270">
        <ele>544.0</ele>
        <time>2020-07-11T06:06:18Z</time>
      </trkpt>
      <trkpt lat="37.2993580" lon="-4.3298490">
        <ele>545.0</ele>
        <time>2020-07-11T06:06:22Z</time>
      </trkpt>
      <trkpt lat="37.2992810" lon="-4.3296220">
        <ele>546.0</ele>
        <time>2020-07-11T06:06:27Z</time>
      </trkpt>
      <trkpt lat="37.2992500" lon="-4.3295310">
        <ele>546.6</ele>
        <time>2020-07-11T06:06:29Z</time>
      </trkpt>
      <trkpt lat="37.2992030" lon="-4.3293980">
        <ele>547.4</ele>
        <time>2020-07-11T06:06:32Z</time>
      </trkpt>
      <trkpt lat="37.2991200" lon="-4.3291650">
        <ele>548.4</ele>
        <time>2020-07-11T06:06:37Z</time>
      </trkpt>
      <trkpt lat="37.2991010" lon="-4.3291140">
        <ele>548.6</ele>
        <time>2020-07-11T06:06:38Z</time>
      </trkpt>
      <trkpt lat="37.2989990" lon="-4.3288070">
        <ele>549.6</ele>
        <time>2020-07-11T06:06:44Z</time>
      </trkpt>
      <trkpt lat="37.2989210" lon="-4.3285800">
        <ele>550.0</ele>
        <time>2020-07-11T06:06:48Z</time>
      </trkpt>
      <trkpt lat="37.2987430" lon="-4.3280890">
        <ele>549.4</ele>
        <time>2020-07-11T06:06:55Z</time>
      </trkpt>
      <trkpt lat="37.2986180" lon="-4.3277280">
        <ele>548.6</ele>
        <time>2020-07-11T06:06:59Z</time>
      </trkpt>
      <trkpt lat="37.2985790" lon="-4.3276150">
        <ele>548.2</ele>
        <time>2020-07-11T06:07:00Z</time>
      </trkpt>
      <trkpt lat="37.2985020" lon="-4.3274020">
        <ele>547.4</ele>
        <time>2020-07-11T06:07:02Z</time>
      </trkpt>
      <trkpt lat="37.2984210" lon="-4.3271660">
        <ele>546.4</ele>
        <time>2020-07-11T06:07:04Z</time>
      </trkpt>
      <trkpt lat="37.2983800" lon="-4.3270470">
        <ele>545.8</ele>
        <time>2020-07-11T06:07:05Z</time>
      </trkpt>
      <trkpt lat="37.2983330" lon="-4.3269160">
        <ele>545.2</ele>
        <time>2020-07-11T06:07:06Z</time>
      </trkpt>
      <trkpt lat="37.2982420" lon="-4.3266600">
        <ele>544.2</ele>
        <time>2020-07-11T06:07:08Z</time>
      </trkpt>
      <trkpt lat="37.2981970" lon="-4.3265320">
        <ele>543.6</ele>
        <time>2020-07-11T06:07:09Z</time>
      </trkpt>
      <trkpt lat="37.2981460" lon="-4.3263940">
        <ele>543.0</ele>
        <time>2020-07-11T06:07:10Z</time>
      </trkpt>
      <trkpt lat="37.2981000" lon="-4.3262650">
        <ele>542.6</ele>
        <time>2020-07-11T06:07:11Z</time>
      </trkpt>
      <trkpt lat="37.2980000" lon="-4.3259750">
        <ele>541.4</ele>
        <time>2020-07-11T06:07:13Z</time>
      </trkpt>
      <trkpt lat="37.2979000" lon="-4.3256850">
        <ele>539.8</ele>
        <time>2020-07-11T06:07:15Z</time>
      </trkpt>
      <trkpt lat="37.2978080" lon="-4.3254000">
        <ele>538.4</ele>
        <time>2020-07-11T06:07:17Z</time>
      </trkpt>
      <trkpt lat="37.2977580" lon="-4.3252240">
        <ele>537.6</ele>
        <time>2020-07-11T06:07:18Z</time>
      </trkpt>
      <trkpt lat="37.2977180" lon="-4.3250630">
        <ele>536.8</ele>
        <time>2020-07-11T06:07:19Z</time>
      </trkpt>
      <trkpt lat="37.2976600" lon="-4.3247280">
        <ele>535.4</ele>
        <time>2020-07-11T06:07:21Z</time>
      </trkpt>
      <trkpt lat="37.2976420" lon="-4.3245680">
        <ele>534.6</ele>
        <time>2020-07-11T06:07:22Z</time>
      </trkpt>
      <trkpt lat="37.2976300" lon="-4.3244040">
        <ele>533.8</ele>
        <time>2020-07-11T06:07:23Z</time>
      </trkpt>
      <trkpt lat="37.2976230" lon="-4.3240540">
        <ele>532.4</ele>
        <time>2020-07-11T06:07:25Z</time>
      </trkpt>
      <trkpt lat="37.2976310" lon="-4.3238880">
        <ele>531.4</ele>
        <time>2020-07-11T06:07:26Z</time>
      </trkpt>
      <trkpt lat="37.2976460" lon="-4.3237410">
        <ele>531.0</ele>
        <time>2020-07-11T06:07:27Z</time>
      </trkpt>
      <trkpt lat="37.2976900" lon="-4.3234340">
        <ele>529.4</ele>
        <time>2020-07-11T06:07:29Z</time>
      </trkpt>
      <trkpt lat="37.2977210" lon="-4.3232770">
        <ele>528.6</ele>
        <time>2020-07-11T06:07:30Z</time>
      </trkpt>
      <trkpt lat="37.2977560" lon="-4.3231310">
        <ele>528.2</ele>
        <time>2020-07-11T06:07:31Z</time>
      </trkpt>
      <trkpt lat="37.2978410" lon="-4.3228360">
        <ele>526.8</ele>
        <time>2020-07-11T06:07:33Z</time>
      </trkpt>
      <trkpt lat="37.2979330" lon="-4.3225490">
        <ele>525.2</ele>
        <time>2020-07-11T06:07:35Z</time>
      </trkpt>
      <trkpt lat="37.2979860" lon="-4.3223910">
        <ele>524.2</ele>
        <time>2020-07-11T06:07:36Z</time>
      </trkpt>
      <trkpt lat="37.2980870" lon="-4.3220900">
        <ele>522.4</ele>
        <time>2020-07-11T06:07:38Z</time>
      </trkpt>
      <trkpt lat="37.2981940" lon="-4.3217890">
        <ele>520.8</ele>
        <time>2020-07-11T06:07:40Z</time>
      </trkpt>
      <trkpt lat="37.2982940" lon="-4.3214930">
        <ele>519.0</ele>
        <time>2020-07-11T06:07:42Z</time>
      </trkpt>
      <trkpt lat="37.2984020" lon="-4.3211770">
        <ele>517.6</ele>
        <time>2020-07-11T06:07:44Z</time>
      </trkpt>
      <trkpt lat="37.2985080" lon="-4.3208630">
        <ele>516.0</ele>
        <time>2020-07-11T06:07:46Z</time>
      </trkpt>
      <trkpt lat="37.2986130" lon="-4.3205600">
        <ele>514.4</ele>
        <time>2020-07-11T06:07:48Z</time>
      </trkpt>
      <trkpt lat="37.2987140" lon="-4.3202580">
        <ele>512.8</ele>
        <time>2020-07-11T06:07:50Z</time>
      </trkpt>
      <trkpt lat="37.2988120" lon="-4.3199690">
        <ele>511.2</ele>
        <time>2020-07-11T06:07:52Z</time>
      </trkpt>
      <trkpt lat="37.2989130" lon="-4.3196730">
        <ele>510.0</ele>
        <time>2020-07-11T06:07:54Z</time>
      </trkpt>
      <trkpt lat="37.2990130" lon="-4.3193920">
        <ele>508.4</ele>
        <time>2020-07-11T06:07:56Z</time>
      </trkpt>
      <trkpt lat="37.2991060" lon="-4.3191250">
        <ele>506.8</ele>
        <time>2020-07-11T06:07:58Z</time>
      </trkpt>
      <trkpt lat="37.2991570" lon="-4.3190060">
        <ele>506.0</ele>
        <time>2020-07-11T06:07:59Z</time>
      </trkpt>
      <trkpt lat="37.2992110" lon="-4.3188990">
        <ele>505.2</ele>
        <time>2020-07-11T06:08:00Z</time>
      </trkpt>
      <trkpt lat="37.2993570" lon="-4.3186430">
        <ele>503.6</ele>
        <time>2020-07-11T06:08:02Z</time>
      </trkpt>
      <trkpt lat="37.2994400" lon="-4.3185160">
        <ele>503.0</ele>
        <time>2020-07-11T06:08:03Z</time>
      </trkpt>
      <trkpt lat="37.2995160" lon="-4.3184070">
        <ele>502.4</ele>
        <time>2020-07-11T06:08:04Z</time>
      </trkpt>
      <trkpt lat="37.2996790" lon="-4.3181710">
        <ele>501.0</ele>
        <time>2020-07-11T06:08:06Z</time>
      </trkpt>
      <trkpt lat="37.2998200" lon="-4.3179180">
        <ele>499.6</ele>
        <time>2020-07-11T06:08:08Z</time>
      </trkpt>
      <trkpt lat="37.2999290" lon="-4.3176490">
        <ele>498.2</ele>
        <time>2020-07-11T06:08:10Z</time>
      </trkpt>
      <trkpt lat="37.3000100" lon="-4.3173770">
        <ele>497.4</ele>
        <time>2020-07-11T06:08:12Z</time>
      </trkpt>
      <trkpt lat="37.3000440" lon="-4.3172240">
        <ele>497.2</ele>
        <time>2020-07-11T06:08:13Z</time>
      </trkpt>
      <trkpt lat="37.3000690" lon="-4.3170760">
        <ele>496.8</ele>
        <time>2020-07-11T06:08:14Z</time>
      </trkpt>
      <trkpt lat="37.3000990" lon="-4.3167520">
        <ele>495.8</ele>
        <time>2020-07-11T06:08:16Z</time>
      </trkpt>
      <trkpt lat="37.3000920" lon="-4.3164110">
        <ele>494.8</ele>
        <time>2020-07-11T06:08:18Z</time>
      </trkpt>
      <trkpt lat="37.3000740" lon="-4.3162370">
        <ele>493.8</ele>
        <time>2020-07-11T06:08:19Z</time>
      </trkpt>
      <trkpt lat="37.3000410" lon="-4.3160460">
        <ele>492.8</ele>
        <time>2020-07-11T06:08:20Z</time>
      </trkpt>
      <trkpt lat="37.3000040" lon="-4.3158700">
        <ele>491.6</ele>
        <time>2020-07-11T06:08:21Z</time>
      </trkpt>
      <trkpt lat="37.2999570" lon="-4.3157020">
        <ele>490.4</ele>
        <time>2020-07-11T06:08:22Z</time>
      </trkpt>
      <trkpt lat="37.2998970" lon="-4.3155260">
        <ele>488.8</ele>
        <time>2020-07-11T06:08:23Z</time>
      </trkpt>
      <trkpt lat="37.2998200" lon="-4.3153360">
        <ele>487.2</ele>
        <time>2020-07-11T06:08:24Z</time>
      </trkpt>
      <trkpt lat="37.2997380" lon="-4.3151630">
        <ele>485.6</ele>
        <time>2020-07-11T06:08:25Z</time>
      </trkpt>
      <trkpt lat="37.2996460" lon="-4.3149970">
        <ele>484.0</ele>
        <time>2020-07-11T06:08:26Z</time>
      </trkpt>
      <trkpt lat="37.2995560" lon="-4.3148580">
        <ele>482.2</ele>
        <time>2020-07-11T06:08:27Z</time>
      </trkpt>
      <trkpt lat="37.2994500" lon="-4.3147050">
        <ele>480.8</ele>
        <time>2020-07-11T06:08:28Z</time>
      </trkpt>
      <trkpt lat="37.2993540" lon="-4.3145850">
        <ele>479.4</ele>
        <time>2020-07-11T06:08:29Z</time>
      </trkpt>
      <trkpt lat="37.2992340" lon="-4.3144540">
        <ele>478.4</ele>
        <time>2020-07-11T06:08:30Z</time>
      </trkpt>
      <trkpt lat="37.2991180" lon="-4.3143540">
        <ele>477.4</ele>
        <time>2020-07-11T06:08:31Z</time>
      </trkpt>
      <trkpt lat="37.2990040" lon="-4.3142760">
        <ele>476.8</ele>
        <time>2020-07-11T06:08:32Z</time>
      </trkpt>
      <trkpt lat="37.2987600" lon="-4.3141400">
        <ele>476.0</ele>
        <time>2020-07-11T06:08:34Z</time>
      </trkpt>
      <trkpt lat="37.2986480" lon="-4.3140920">
        <ele>475.6</ele>
        <time>2020-07-11T06:08:35Z</time>
      </trkpt>
      <trkpt lat="37.2984200" lon="-4.3140240">
        <ele>475.4</ele>
        <time>2020-07-11T06:08:37Z</time>
      </trkpt>
      <trkpt lat="37.2983060" lon="-4.3140080">
        <ele>475.4</ele>
        <time>2020-07-11T06:08:38Z</time>
      </trkpt>
      <trkpt lat="37.2980410" lon="-4.3140160">
        <ele>475.4</ele>
        <time>2020-07-11T06:08:41Z</time>
      </trkpt>
      <trkpt lat="37.2979410" lon="-4.3140450">
        <ele>475.6</ele>
        <time>2020-07-11T06:08:43Z</time>
      </trkpt>
      <trkpt lat="37.2979090" lon="-4.3140580">
        <ele>475.8</ele>
        <time>2020-07-11T06:08:44Z</time>
      </trkpt>
      <trkpt lat="37.2978540" lon="-4.3140820">
        <ele>476.6</ele>
        <time>2020-07-11T06:08:47Z</time>
      </trkpt>
      <trkpt lat="37.2978370" lon="-4.3140920">
        <ele>476.6</ele>
        <time>2020-07-11T06:08:48Z</time>
      </trkpt>
      <trkpt lat="37.2977990" lon="-4.3140990">
        <ele>477.0</ele>
        <time>2020-07-11T06:08:50Z</time>
      </trkpt>
      <trkpt lat="37.2977620" lon="-4.3141120">
        <ele>477.2</ele>
        <time>2020-07-11T06:08:52Z</time>
      </trkpt>
      <trkpt lat="37.2977210" lon="-4.3141110">
        <ele>477.6</ele>
        <time>2020-07-11T06:08:54Z</time>
      </trkpt>
      <trkpt lat="37.2977050" lon="-4.3140990">
        <ele>477.6</ele>
        <time>2020-07-11T06:08:55Z</time>
      </trkpt>
      <trkpt lat="37.2976880" lon="-4.3140440">
        <ele>478.0</ele>
        <time>2020-07-11T06:08:57Z</time>
      </trkpt>
      <trkpt lat="37.2976860" lon="-4.3140100">
        <ele>478.2</ele>
        <time>2020-07-11T06:08:58Z</time>
      </trkpt>
      <trkpt lat="37.2977100" lon="-4.3139240">
        <ele>478.6</ele>
        <time>2020-07-11T06:09:00Z</time>
      </trkpt>
      <trkpt lat="37.2977350" lon="-4.3138870">
        <ele>478.8</ele>
        <time>2020-07-11T06:09:01Z</time>
      </trkpt>
      <trkpt lat="37.2977620" lon="-4.3138460">
        <ele>478.8</ele>
        <time>2020-07-11T06:09:02Z</time>
      </trkpt>
      <trkpt lat="37.2977900" lon="-4.3138000">
        <ele>479.0</ele>
        <time>2020-07-11T06:09:03Z</time>
      </trkpt>
      <trkpt lat="37.2978200" lon="-4.3137630">
        <ele>479.0</ele>
        <time>2020-07-11T06:09:04Z</time>
      </trkpt>
      <trkpt lat="37.2978910" lon="-4.3136940">
        <ele>479.0</ele>
        <time>2020-07-11T06:09:06Z</time>
      </trkpt>
      <trkpt lat="37.2979560" lon="-4.3136230">
        <ele>479.4</ele>
        <time>2020-07-11T06:09:08Z</time>
      </trkpt>
      <trkpt lat="37.2979830" lon="-4.3135860">
        <ele>479.8</ele>
        <time>2020-07-11T06:09:09Z</time>
      </trkpt>
      <trkpt lat="37.2980470" lon="-4.3135120">
        <ele>480.6</ele>
        <time>2020-07-11T06:09:11Z</time>
      </trkpt>
      <trkpt lat="37.2981260" lon="-4.3134190">
        <ele>481.0</ele>
        <time>2020-07-11T06:09:13Z</time>
      </trkpt>
      <trkpt lat="37.2981680" lon="-4.3133680">
        <ele>481.0</ele>
        <time>2020-07-11T06:09:14Z</time>
      </trkpt>
      <trkpt lat="37.2983640" lon="-4.3131320">
        <ele>480.6</ele>
        <time>2020-07-11T06:09:18Z</time>
      </trkpt>
      <trkpt lat="37.2984760" lon="-4.3129950">
        <ele>480.0</ele>
        <time>2020-07-11T06:09:20Z</time>
      </trkpt>
      <trkpt lat="37.2985420" lon="-4.3129270">
        <ele>479.8</ele>
        <time>2020-07-11T06:09:21Z</time>
      </trkpt>
      <trkpt lat="37.2987360" lon="-4.3127020">
        <ele>478.6</ele>
        <time>2020-07-11T06:09:24Z</time>
      </trkpt>
      <trkpt lat="37.2988020" lon="-4.3126220">
        <ele>478.2</ele>
        <time>2020-07-11T06:09:25Z</time>
      </trkpt>
      <trkpt lat="37.2989370" lon="-4.3124630">
        <ele>477.4</ele>
        <time>2020-07-11T06:09:27Z</time>
      </trkpt>
      <trkpt lat="37.2991500" lon="-4.3122110">
        <ele>476.2</ele>
        <time>2020-07-11T06:09:30Z</time>
      </trkpt>
      <trkpt lat="37.2992830" lon="-4.3120520">
        <ele>475.4</ele>
        <time>2020-07-11T06:09:32Z</time>
      </trkpt>
      <trkpt lat="37.2993550" lon="-4.3119640">
        <ele>475.0</ele>
        <time>2020-07-11T06:09:33Z</time>
      </trkpt>
      <trkpt lat="37.2994170" lon="-4.3118830">
        <ele>474.6</ele>
        <time>2020-07-11T06:09:34Z</time>
      </trkpt>
      <trkpt lat="37.2995490" lon="-4.3117230">
        <ele>474.2</ele>
        <time>2020-07-11T06:09:36Z</time>
      </trkpt>
      <trkpt lat="37.2996050" lon="-4.3116540">
        <ele>473.8</ele>
        <time>2020-07-11T06:09:37Z</time>
      </trkpt>
      <trkpt lat="37.2996650" lon="-4.3115790">
        <ele>473.8</ele>
        <time>2020-07-11T06:09:38Z</time>
      </trkpt>
      <trkpt lat="37.2997150" lon="-4.3114950">
        <ele>473.6</ele>
        <time>2020-07-11T06:09:39Z</time>
      </trkpt>
      <trkpt lat="37.2997500" lon="-4.3114040">
        <ele>473.6</ele>
        <time>2020-07-11T06:09:40Z</time>
      </trkpt>
      <trkpt lat="37.2998530" lon="-4.3111700">
        <ele>473.6</ele>
        <time>2020-07-11T06:09:43Z</time>
      </trkpt>
      <trkpt lat="37.2999030" lon="-4.3111190">
        <ele>473.6</ele>
        <time>2020-07-11T06:09:44Z</time>
      </trkpt>
      <trkpt lat="37.3000300" lon="-4.3110500">
        <ele>473.8</ele>
        <time>2020-07-11T06:09:46Z</time>
      </trkpt>
      <trkpt lat="37.3000910" lon="-4.3110240">
        <ele>473.6</ele>
        <time>2020-07-11T06:09:47Z</time>
      </trkpt>
      <trkpt lat="37.3002340" lon="-4.3109720">
        <ele>473.4</ele>
        <time>2020-07-11T06:09:49Z</time>
      </trkpt>
      <trkpt lat="37.3004520" lon="-4.3109200">
        <ele>472.8</ele>
        <time>2020-07-11T06:09:52Z</time>
      </trkpt>
      <trkpt lat="37.3005800" lon="-4.3109130">
        <ele>472.6</ele>
        <time>2020-07-11T06:09:53Z</time>
      </trkpt>
      <trkpt lat="37.3008700" lon="-4.3109380">
        <ele>471.4</ele>
        <time>2020-07-11T06:09:56Z</time>
      </trkpt>
      <trkpt lat="37.3010740" lon="-4.3109470">
        <ele>470.4</ele>
        <time>2020-07-11T06:09:58Z</time>
      </trkpt>
      <trkpt lat="37.3012840" lon="-4.3109280">
        <ele>468.8</ele>
        <time>2020-07-11T06:10:00Z</time>
      </trkpt>
      <trkpt lat="37.3013750" lon="-4.3109050">
        <ele>468.2</ele>
        <time>2020-07-11T06:10:01Z</time>
      </trkpt>
      <trkpt lat="37.3014750" lon="-4.3108670">
        <ele>467.6</ele>
        <time>2020-07-11T06:10:02Z</time>
      </trkpt>
      <trkpt lat="37.3016440" lon="-4.3107630">
        <ele>467.0</ele>
        <time>2020-07-11T06:10:04Z</time>
      </trkpt>
      <trkpt lat="37.3017870" lon="-4.3106190">
        <ele>466.8</ele>
        <time>2020-07-11T06:10:06Z</time>
      </trkpt>
      <trkpt lat="37.3018510" lon="-4.3105330">
        <ele>466.8</ele>
        <time>2020-07-11T06:10:07Z</time>
      </trkpt>
      <trkpt lat="37.3019560" lon="-4.3103610">
        <ele>466.8</ele>
        <time>2020-07-11T06:10:09Z</time>
      </trkpt>
      <trkpt lat="37.3020420" lon="-4.3102320">
        <ele>467.2</ele>
        <time>2020-07-11T06:10:11Z</time>
      </trkpt>
      <trkpt lat="37.3021120" lon="-4.3101320">
        <ele>467.2</ele>
        <time>2020-07-11T06:10:12Z</time>
      </trkpt>
      <trkpt lat="37.3022620" lon="-4.3099050">
        <ele>467.6</ele>
        <time>2020-07-11T06:10:15Z</time>
      </trkpt>
      <trkpt lat="37.3023950" lon="-4.3096840">
        <ele>468.0</ele>
        <time>2020-07-11T06:10:18Z</time>
      </trkpt>
      <trkpt lat="37.3024760" lon="-4.3095300">
        <ele>468.2</ele>
        <time>2020-07-11T06:10:20Z</time>
      </trkpt>
      <trkpt lat="37.3025690" lon="-4.3093190">
        <ele>468.6</ele>
        <time>2020-07-11T06:10:23Z</time>
      </trkpt>
      <trkpt lat="37.3026230" lon="-4.3091560">
        <ele>468.8</ele>
        <time>2020-07-11T06:10:25Z</time>
      </trkpt>
      <trkpt lat="37.3026420" lon="-4.3090810">
        <ele>469.0</ele>
        <time>2020-07-11T06:10:26Z</time>
      </trkpt>
      <trkpt lat="37.3027050" lon="-4.3088080">
        <ele>470.0</ele>
        <time>2020-07-11T06:10:30Z</time>
      </trkpt>
      <trkpt lat="37.3027380" lon="-4.3086100">
        <ele>470.6</ele>
        <time>2020-07-11T06:10:33Z</time>
      </trkpt>
      <trkpt lat="37.3027480" lon="-4.3085470">
        <ele>471.0</ele>
        <time>2020-07-11T06:10:34Z</time>
      </trkpt>
      <trkpt lat="37.3027730" lon="-4.3084200">
        <ele>471.4</ele>
        <time>2020-07-11T06:10:36Z</time>
      </trkpt>
      <trkpt lat="37.3027980" lon="-4.3082950">
        <ele>472.0</ele>
        <time>2020-07-11T06:10:38Z</time>
      </trkpt>
      <trkpt lat="37.3028330" lon="-4.3081190">
        <ele>472.8</ele>
        <time>2020-07-11T06:10:41Z</time>
      </trkpt>
      <trkpt lat="37.3028800" lon="-4.3080060">
        <ele>473.2</ele>
        <time>2020-07-11T06:10:43Z</time>
      </trkpt>
      <trkpt lat="37.3029360" lon="-4.3078930">
        <ele>473.6</ele>
        <time>2020-07-11T06:10:45Z</time>
      </trkpt>
      <trkpt lat="37.3029660" lon="-4.3078430">
        <ele>473.8</ele>
        <time>2020-07-11T06:10:46Z</time>
      </trkpt>
      <trkpt lat="37.3030760" lon="-4.3076690">
        <ele>474.2</ele>
        <time>2020-07-11T06:10:49Z</time>
      </trkpt>
      <trkpt lat="37.3031620" lon="-4.3075740">
        <ele>474.2</ele>
        <time>2020-07-11T06:10:51Z</time>
      </trkpt>
      <trkpt lat="37.3032160" lon="-4.3075330">
        <ele>474.2</ele>
        <time>2020-07-11T06:10:52Z</time>
      </trkpt>
      <trkpt lat="37.3035660" lon="-4.3073230">
        <ele>474.4</ele>
        <time>2020-07-11T06:10:58Z</time>
      </trkpt>
      <trkpt lat="37.3039260" lon="-4.3070570">
        <ele>475.0</ele>
        <time>2020-07-11T06:11:05Z</time>
      </trkpt>
      <trkpt lat="37.3040190" lon="-4.3069730">
        <ele>475.4</ele>
        <time>2020-07-11T06:11:07Z</time>
      </trkpt>
      <trkpt lat="37.3042910" lon="-4.3067010">
        <ele>476.0</ele>
        <time>2020-07-11T06:11:13Z</time>
      </trkpt>
      <trkpt lat="37.3043940" lon="-4.3065400">
        <ele>476.4</ele>
        <time>2020-07-11T06:11:16Z</time>
      </trkpt>
      <trkpt lat="37.3044490" lon="-4.3064130">
        <ele>476.8</ele>
        <time>2020-07-11T06:11:18Z</time>
      </trkpt>
      <trkpt lat="37.3045580" lon="-4.3061890">
        <ele>477.4</ele>
        <time>2020-07-11T06:11:22Z</time>
      </trkpt>
      <trkpt lat="37.3046650" lon="-4.3059620">
        <ele>478.4</ele>
        <time>2020-07-11T06:11:26Z</time>
      </trkpt>
      <trkpt lat="37.3046950" lon="-4.3059040">
        <ele>478.6</ele>
        <time>2020-07-11T06:11:27Z</time>
      </trkpt>
      <trkpt lat="37.3048830" lon="-4.3055320">
        <ele>479.6</ele>
        <time>2020-07-11T06:11:34Z</time>
      </trkpt>
      <trkpt lat="37.3050740" lon="-4.3052720">
        <ele>480.8</ele>
        <time>2020-07-11T06:11:40Z</time>
      </trkpt>
      <trkpt lat="37.3053140" lon="-4.3051140">
        <ele>482.0</ele>
        <time>2020-07-11T06:11:46Z</time>
      </trkpt>
      <trkpt lat="37.3055570" lon="-4.3049950">
        <ele>483.0</ele>
        <time>2020-07-11T06:11:52Z</time>
      </trkpt>
      <trkpt lat="37.3056320" lon="-4.3049430">
        <ele>483.4</ele>
        <time>2020-07-11T06:11:54Z</time>
      </trkpt>
      <trkpt lat="37.3056650" lon="-4.3049130">
        <ele>483.6</ele>
        <time>2020-07-11T06:11:55Z</time>
      </trkpt>
      <trkpt lat="37.3057470" lon="-4.3047990">
        <ele>484.2</ele>
        <time>2020-07-11T06:11:58Z</time>
      </trkpt>
      <trkpt lat="37.3057980" lon="-4.3047130">
        <ele>484.6</ele>
        <time>2020-07-11T06:12:00Z</time>
      </trkpt>
      <trkpt lat="37.3058730" lon="-4.3045880">
        <ele>485.2</ele>
        <time>2020-07-11T06:12:03Z</time>
      </trkpt>
      <trkpt lat="37.3059740" lon="-4.3043820">
        <ele>486.4</ele>
        <time>2020-07-11T06:12:08Z</time>
      </trkpt>
      <trkpt lat="37.3060520" lon="-4.3041780">
        <ele>487.6</ele>
        <time>2020-07-11T06:12:13Z</time>
      </trkpt>
      <trkpt lat="37.3061560" lon="-4.3039750">
        <ele>488.6</ele>
        <time>2020-07-11T06:12:18Z</time>
      </trkpt>
      <trkpt lat="37.3062260" lon="-4.3038410">
        <ele>489.2</ele>
        <time>2020-07-11T06:12:21Z</time>
      </trkpt>
      <trkpt lat="37.3063310" lon="-4.3035690">
        <ele>489.4</ele>
        <time>2020-07-11T06:12:26Z</time>
      </trkpt>
      <trkpt lat="37.3063650" lon="-4.3034490">
        <ele>489.4</ele>
        <time>2020-07-11T06:12:28Z</time>
      </trkpt>
      <trkpt lat="37.3064140" lon="-4.3033360">
        <ele>489.2</ele>
        <time>2020-07-11T06:12:30Z</time>
      </trkpt>
      <trkpt lat="37.3065090" lon="-4.3031800">
        <ele>489.0</ele>
        <time>2020-07-11T06:12:33Z</time>
      </trkpt>
      <trkpt lat="37.3065460" lon="-4.3031340">
        <ele>489.0</ele>
        <time>2020-07-11T06:12:34Z</time>
      </trkpt>
      <trkpt lat="37.3067380" lon="-4.3029130">
        <ele>489.4</ele>
        <time>2020-07-11T06:12:39Z</time>
      </trkpt>
      <trkpt lat="37.3067960" lon="-4.3028210">
        <ele>489.6</ele>
        <time>2020-07-11T06:12:41Z</time>
      </trkpt>
      <trkpt lat="37.3068550" lon="-4.3026540">
        <ele>490.0</ele>
        <time>2020-07-11T06:12:44Z</time>
      </trkpt>
      <trkpt lat="37.3068790" lon="-4.3025470">
        <ele>490.4</ele>
        <time>2020-07-11T06:12:46Z</time>
      </trkpt>
      <trkpt lat="37.3069180" lon="-4.3023690">
        <ele>490.8</ele>
        <time>2020-07-11T06:12:49Z</time>
      </trkpt>
      <trkpt lat="37.3069670" lon="-4.3022020">
        <ele>491.2</ele>
        <time>2020-07-11T06:12:52Z</time>
      </trkpt>
      <trkpt lat="37.3070880" lon="-4.3019450">
        <ele>491.8</ele>
        <time>2020-07-11T06:12:57Z</time>
      </trkpt>
      <trkpt lat="37.3071160" lon="-4.3019010">
        <ele>492.0</ele>
        <time>2020-07-11T06:12:58Z</time>
      </trkpt>
      <trkpt lat="37.3071470" lon="-4.3018540">
        <ele>492.0</ele>
        <time>2020-07-11T06:12:59Z</time>
      </trkpt>
      <trkpt lat="37.3072080" lon="-4.3017800">
        <ele>492.4</ele>
        <time>2020-07-11T06:13:01Z</time>
      </trkpt>
      <trkpt lat="37.3072440" lon="-4.3017480">
        <ele>492.4</ele>
        <time>2020-07-11T06:13:02Z</time>
      </trkpt>
      <trkpt lat="37.3073080" lon="-4.3016950">
        <ele>492.8</ele>
        <time>2020-07-11T06:13:04Z</time>
      </trkpt>
      <trkpt lat="37.3074380" lon="-4.3015840">
        <ele>494.0</ele>
        <time>2020-07-11T06:13:08Z</time>
      </trkpt>
      <trkpt lat="37.3074810" lon="-4.3015290">
        <ele>494.6</ele>
        <time>2020-07-11T06:13:10Z</time>
      </trkpt>
      <trkpt lat="37.3075260" lon="-4.3014650">
        <ele>495.2</ele>
        <time>2020-07-11T06:13:12Z</time>
      </trkpt>
      <trkpt lat="37.3075900" lon="-4.3013330">
        <ele>496.4</ele>
        <time>2020-07-11T06:13:16Z</time>
      </trkpt>
      <trkpt lat="37.3076020" lon="-4.3012510">
        <ele>496.8</ele>
        <time>2020-07-11T06:13:18Z</time>
      </trkpt>
      <trkpt lat="37.3076020" lon="-4.3011820">
        <ele>497.4</ele>
        <time>2020-07-11T06:13:20Z</time>
      </trkpt>
      <trkpt lat="37.3076000" lon="-4.3010750">
        <ele>498.6</ele>
        <time>2020-07-11T06:13:23Z</time>
      </trkpt>
      <trkpt lat="37.3076100" lon="-4.3010060">
        <ele>499.2</ele>
        <time>2020-07-11T06:13:25Z</time>
      </trkpt>
      <trkpt lat="37.3076230" lon="-4.3009770">
        <ele>499.6</ele>
        <time>2020-07-11T06:13:26Z</time>
      </trkpt>
      <trkpt lat="37.3077060" lon="-4.3008670">
        <ele>500.8</ele>
        <time>2020-07-11T06:13:30Z</time>
      </trkpt>
      <trkpt lat="37.3078080" lon="-4.3007990">
        <ele>502.0</ele>
        <time>2020-07-11T06:13:34Z</time>
      </trkpt>
      <trkpt lat="37.3078640" lon="-4.3007630">
        <ele>502.4</ele>
        <time>2020-07-11T06:13:36Z</time>
      </trkpt>
      <trkpt lat="37.3079450" lon="-4.3007120">
        <ele>503.2</ele>
        <time>2020-07-11T06:13:39Z</time>
      </trkpt>
      <trkpt lat="37.3080620" lon="-4.3006190">
        <ele>504.4</ele>
        <time>2020-07-11T06:13:44Z</time>
      </trkpt>
      <trkpt lat="37.3081530" lon="-4.3005140">
        <ele>505.4</ele>
        <time>2020-07-11T06:13:49Z</time>
      </trkpt>
      <trkpt lat="37.3081850" lon="-4.3004680">
        <ele>506.2</ele>
        <time>2020-07-11T06:13:51Z</time>
      </trkpt>
      <trkpt lat="37.3082160" lon="-4.3004180">
        <ele>506.6</ele>
        <time>2020-07-11T06:13:53Z</time>
      </trkpt>
      <trkpt lat="37.3082740" lon="-4.3003020">
        <ele>507.6</ele>
        <time>2020-07-11T06:13:58Z</time>
      </trkpt>
      <trkpt lat="37.3083120" lon="-4.3002170">
        <ele>508.4</ele>
        <time>2020-07-11T06:14:01Z</time>
      </trkpt>
      <trkpt lat="37.3083220" lon="-4.3001940">
        <ele>508.6</ele>
        <time>2020-07-11T06:14:02Z</time>
      </trkpt>
      <trkpt lat="37.3083830" lon="-4.3000860">
        <ele>509.8</ele>
        <time>2020-07-11T06:14:06Z</time>
      </trkpt>
      <trkpt lat="37.3084380" lon="-4.3000240">
        <ele>510.6</ele>
        <time>2020-07-11T06:14:09Z</time>
      </trkpt>
      <trkpt lat="37.3084570" lon="-4.3000020">
        <ele>510.8</ele>
        <time>2020-07-11T06:14:10Z</time>
      </trkpt>
      <trkpt lat="37.3085330" lon="-4.2999270">
        <ele>511.8</ele>
        <time>2020-07-11T06:14:14Z</time>
      </trkpt>
      <trkpt lat="37.3085920" lon="-4.2998780">
        <ele>512.6</ele>
        <time>2020-07-11T06:14:17Z</time>
      </trkpt>
      <trkpt lat="37.3086290" lon="-4.2998390">
        <ele>513.0</ele>
        <time>2020-07-11T06:14:19Z</time>
      </trkpt>
      <trkpt lat="37.3087270" lon="-4.2997590">
        <ele>514.2</ele>
        <time>2020-07-11T06:14:24Z</time>
      </trkpt>
      <trkpt lat="37.3087490" lon="-4.2997400">
        <ele>514.6</ele>
        <time>2020-07-11T06:14:25Z</time>
      </trkpt>
      <trkpt lat="37.3088220" lon="-4.2996780">
        <ele>515.4</ele>
        <time>2020-07-11T06:14:29Z</time>
      </trkpt>
      <trkpt lat="37.3088680" lon="-4.2996440">
        <ele>516.0</ele>
        <time>2020-07-11T06:14:31Z</time>
      </trkpt>
      <trkpt lat="37.3089050" lon="-4.2996110">
        <ele>516.6</ele>
        <time>2020-07-11T06:14:33Z</time>
      </trkpt>
      <trkpt lat="37.3089650" lon="-4.2995380">
        <ele>517.6</ele>
        <time>2020-07-11T06:14:37Z</time>
      </trkpt>
      <trkpt lat="37.3090480" lon="-4.2994420">
        <ele>518.8</ele>
        <time>2020-07-11T06:14:42Z</time>
      </trkpt>
      <trkpt lat="37.3090820" lon="-4.2994030">
        <ele>519.2</ele>
        <time>2020-07-11T06:14:44Z</time>
      </trkpt>
      <trkpt lat="37.3091120" lon="-4.2993600">
        <ele>519.8</ele>
        <time>2020-07-11T06:14:46Z</time>
      </trkpt>
      <trkpt lat="37.3091810" lon="-4.2992710">
        <ele>520.8</ele>
        <time>2020-07-11T06:14:50Z</time>
      </trkpt>
      <trkpt lat="37.3091980" lon="-4.2992500">
        <ele>521.0</ele>
        <time>2020-07-11T06:14:51Z</time>
      </trkpt>
      <trkpt lat="37.3092500" lon="-4.2991860">
        <ele>521.8</ele>
        <time>2020-07-11T06:14:54Z</time>
      </trkpt>
      <trkpt lat="37.3093450" lon="-4.2990780">
        <ele>523.0</ele>
        <time>2020-07-11T06:14:59Z</time>
      </trkpt>
      <trkpt lat="37.3094250" lon="-4.2989980">
        <ele>524.2</ele>
        <time>2020-07-11T06:15:03Z</time>
      </trkpt>
      <trkpt lat="37.3095210" lon="-4.2989000">
        <ele>525.4</ele>
        <time>2020-07-11T06:15:08Z</time>
      </trkpt>
      <trkpt lat="37.3095390" lon="-4.2988780">
        <ele>525.6</ele>
        <time>2020-07-11T06:15:09Z</time>
      </trkpt>
      <trkpt lat="37.3096070" lon="-4.2987820">
        <ele>526.6</ele>
        <time>2020-07-11T06:15:13Z</time>
      </trkpt>
      <trkpt lat="37.3096630" lon="-4.2986780">
        <ele>527.8</ele>
        <time>2020-07-11T06:15:17Z</time>
      </trkpt>
      <trkpt lat="37.3096870" lon="-4.2986200">
        <ele>528.2</ele>
        <time>2020-07-11T06:15:19Z</time>
      </trkpt>
      <trkpt lat="37.3097240" lon="-4.2985380">
        <ele>529.0</ele>
        <time>2020-07-11T06:15:22Z</time>
      </trkpt>
      <trkpt lat="37.3097560" lon="-4.2984170">
        <ele>530.0</ele>
        <time>2020-07-11T06:15:26Z</time>
      </trkpt>
      <trkpt lat="37.3097640" lon="-4.2983900">
        <ele>530.2</ele>
        <time>2020-07-11T06:15:27Z</time>
      </trkpt>
      <trkpt lat="37.3098090" lon="-4.2982280">
        <ele>531.2</ele>
        <time>2020-07-11T06:15:32Z</time>
      </trkpt>
      <trkpt lat="37.3098190" lon="-4.2981940">
        <ele>531.6</ele>
        <time>2020-07-11T06:15:33Z</time>
      </trkpt>
      <trkpt lat="37.3098510" lon="-4.2981020">
        <ele>532.4</ele>
        <time>2020-07-11T06:15:36Z</time>
      </trkpt>
      <trkpt lat="37.3099050" lon="-4.2979750">
        <ele>533.4</ele>
        <time>2020-07-11T06:15:40Z</time>
      </trkpt>
      <trkpt lat="37.3099190" lon="-4.2979480">
        <ele>533.6</ele>
        <time>2020-07-11T06:15:41Z</time>
      </trkpt>
      <trkpt lat="37.3100000" lon="-4.2977920">
        <ele>534.6</ele>
        <time>2020-07-11T06:15:46Z</time>
      </trkpt>
      <trkpt lat="37.3100750" lon="-4.2976460">
        <ele>535.8</ele>
        <time>2020-07-11T06:15:51Z</time>
      </trkpt>
      <trkpt lat="37.3101490" lon="-4.2974860">
        <ele>536.8</ele>
        <time>2020-07-11T06:15:56Z</time>
      </trkpt>
      <trkpt lat="37.3102380" lon="-4.2972960">
        <ele>538.0</ele>
        <time>2020-07-11T06:16:02Z</time>
      </trkpt>
      <trkpt lat="37.3102540" lon="-4.2972640">
        <ele>538.2</ele>
        <time>2020-07-11T06:16:03Z</time>
      </trkpt>
      <trkpt lat="37.3102990" lon="-4.2971730">
        <ele>539.0</ele>
        <time>2020-07-11T06:16:06Z</time>
      </trkpt>
      <trkpt lat="37.3103560" lon="-4.2970490">
        <ele>540.0</ele>
        <time>2020-07-11T06:16:10Z</time>
      </trkpt>
      <trkpt lat="37.3103970" lon="-4.2969520">
        <ele>540.6</ele>
        <time>2020-07-11T06:16:13Z</time>
      </trkpt>
      <trkpt lat="37.3104240" lon="-4.2968870">
        <ele>541.2</ele>
        <time>2020-07-11T06:16:15Z</time>
      </trkpt>
      <trkpt lat="37.3104440" lon="-4.2967000">
        <ele>542.2</ele>
        <time>2020-07-11T06:16:20Z</time>
      </trkpt>
      <trkpt lat="37.3104160" lon="-4.2964690">
        <ele>543.2</ele>
        <time>2020-07-11T06:16:26Z</time>
      </trkpt>
      <trkpt lat="37.3104120" lon="-4.2964340">
        <ele>543.6</ele>
        <time>2020-07-11T06:16:27Z</time>
      </trkpt>
      <trkpt lat="37.3103980" lon="-4.2963210">
        <ele>544.4</ele>
        <time>2020-07-11T06:16:30Z</time>
      </trkpt>
      <trkpt lat="37.3103850" lon="-4.2961360">
        <ele>545.6</ele>
        <time>2020-07-11T06:16:35Z</time>
      </trkpt>
      <trkpt lat="37.3103710" lon="-4.2960240">
        <ele>546.0</ele>
        <time>2020-07-11T06:16:38Z</time>
      </trkpt>
      <trkpt lat="37.3103560" lon="-4.2959110">
        <ele>546.6</ele>
        <time>2020-07-11T06:16:41Z</time>
      </trkpt>
      <trkpt lat="37.3103420" lon="-4.2957100">
        <ele>547.6</ele>
        <time>2020-07-11T06:16:46Z</time>
      </trkpt>
      <trkpt lat="37.3103440" lon="-4.2956290">
        <ele>548.0</ele>
        <time>2020-07-11T06:16:48Z</time>
      </trkpt>
      <trkpt lat="37.3104040" lon="-4.2954520">
        <ele>548.8</ele>
        <time>2020-07-11T06:16:53Z</time>
      </trkpt>
      <trkpt lat="37.3104250" lon="-4.2954200">
        <ele>549.0</ele>
        <time>2020-07-11T06:16:54Z</time>
      </trkpt>
      <trkpt lat="37.3105130" lon="-4.2953210">
        <ele>550.0</ele>
        <time>2020-07-11T06:16:58Z</time>
      </trkpt>
      <trkpt lat="37.3106000" lon="-4.2952430">
        <ele>550.8</ele>
        <time>2020-07-11T06:17:02Z</time>
      </trkpt>
      <trkpt lat="37.3106270" lon="-4.2952190">
        <ele>551.0</ele>
        <time>2020-07-11T06:17:03Z</time>
      </trkpt>
      <trkpt lat="37.3107400" lon="-4.2951240">
        <ele>552.2</ele>
        <time>2020-07-11T06:17:08Z</time>
      </trkpt>
      <trkpt lat="37.3107850" lon="-4.2950830">
        <ele>552.6</ele>
        <time>2020-07-11T06:17:10Z</time>
      </trkpt>
      <trkpt lat="37.3108060" lon="-4.2950650">
        <ele>552.8</ele>
        <time>2020-07-11T06:17:11Z</time>
      </trkpt>
      <trkpt lat="37.3108490" lon="-4.2950230">
        <ele>553.2</ele>
        <time>2020-07-11T06:17:13Z</time>
      </trkpt>
      <trkpt lat="37.3109280" lon="-4.2949440">
        <ele>554.2</ele>
        <time>2020-07-11T06:17:17Z</time>
      </trkpt>
      <trkpt lat="37.3109660" lon="-4.2948890">
        <ele>554.8</ele>
        <time>2020-07-11T06:17:19Z</time>
      </trkpt>
      <trkpt lat="37.3109930" lon="-4.2948310">
        <ele>555.2</ele>
        <time>2020-07-11T06:17:21Z</time>
      </trkpt>
      <trkpt lat="37.3110120" lon="-4.2947670">
        <ele>555.8</ele>
        <time>2020-07-11T06:17:23Z</time>
      </trkpt>
      <trkpt lat="37.3110200" lon="-4.2947310">
        <ele>556.0</ele>
        <time>2020-07-11T06:17:24Z</time>
      </trkpt>
      <trkpt lat="37.3110360" lon="-4.2946560">
        <ele>556.4</ele>
        <time>2020-07-11T06:17:26Z</time>
      </trkpt>
      <trkpt lat="37.3110630" lon="-4.2945150">
        <ele>557.4</ele>
        <time>2020-07-11T06:17:30Z</time>
      </trkpt>
      <trkpt lat="37.3110970" lon="-4.2943430">
        <ele>558.6</ele>
        <time>2020-07-11T06:17:35Z</time>
      </trkpt>
      <trkpt lat="37.3111190" lon="-4.2942410">
        <ele>559.2</ele>
        <time>2020-07-11T06:17:38Z</time>
      </trkpt>
      <trkpt lat="37.3111290" lon="-4.2941720">
        <ele>559.8</ele>
        <time>2020-07-11T06:17:40Z</time>
      </trkpt>
      <trkpt lat="37.3111700" lon="-4.2940010">
        <ele>561.0</ele>
        <time>2020-07-11T06:17:45Z</time>
      </trkpt>
      <trkpt lat="37.3111910" lon="-4.2938950">
        <ele>561.6</ele>
        <time>2020-07-11T06:17:48Z</time>
      </trkpt>
      <trkpt lat="37.3112080" lon="-4.2938240">
        <ele>562.0</ele>
        <time>2020-07-11T06:17:50Z</time>
      </trkpt>
      <trkpt lat="37.3113080" lon="-4.2935680">
        <ele>563.0</ele>
        <time>2020-07-11T06:17:57Z</time>
      </trkpt>
      <trkpt lat="37.3114490" lon="-4.2935210">
        <ele>563.6</ele>
        <time>2020-07-11T06:18:01Z</time>
      </trkpt>
      <trkpt lat="37.3116210" lon="-4.2935890">
        <ele>564.0</ele>
        <time>2020-07-11T06:18:06Z</time>
      </trkpt>
      <trkpt lat="37.3117320" lon="-4.2937330">
        <ele>565.0</ele>
        <time>2020-07-11T06:18:11Z</time>
      </trkpt>
      <trkpt lat="37.3117500" lon="-4.2937630">
        <ele>565.4</ele>
        <time>2020-07-11T06:18:12Z</time>
      </trkpt>
      <trkpt lat="37.3118110" lon="-4.2938870">
        <ele>566.2</ele>
        <time>2020-07-11T06:18:16Z</time>
      </trkpt>
      <trkpt lat="37.3118550" lon="-4.2939780">
        <ele>566.8</ele>
        <time>2020-07-11T06:18:19Z</time>
      </trkpt>
      <trkpt lat="37.3118830" lon="-4.2940340">
        <ele>567.4</ele>
        <time>2020-07-11T06:18:21Z</time>
      </trkpt>
      <trkpt lat="37.3119240" lon="-4.2941100">
        <ele>568.0</ele>
        <time>2020-07-11T06:18:24Z</time>
      </trkpt>
      <trkpt lat="37.3119590" lon="-4.2941650">
        <ele>568.6</ele>
        <time>2020-07-11T06:18:26Z</time>
      </trkpt>
      <trkpt lat="37.3119780" lon="-4.2941870">
        <ele>568.8</ele>
        <time>2020-07-11T06:18:27Z</time>
      </trkpt>
      <trkpt lat="37.3120610" lon="-4.2942700">
        <ele>569.8</ele>
        <time>2020-07-11T06:18:31Z</time>
      </trkpt>
      <trkpt lat="37.3121580" lon="-4.2943090">
        <ele>570.8</ele>
        <time>2020-07-11T06:18:35Z</time>
      </trkpt>
      <trkpt lat="37.3121850" lon="-4.2943100">
        <ele>571.0</ele>
        <time>2020-07-11T06:18:36Z</time>
      </trkpt>
      <trkpt lat="37.3122900" lon="-4.2943040">
        <ele>572.0</ele>
        <time>2020-07-11T06:18:40Z</time>
      </trkpt>
      <trkpt lat="37.3123710" lon="-4.2942880">
        <ele>572.8</ele>
        <time>2020-07-11T06:18:43Z</time>
      </trkpt>
      <trkpt lat="37.3124210" lon="-4.2942760">
        <ele>573.4</ele>
        <time>2020-07-11T06:18:45Z</time>
      </trkpt>
      <trkpt lat="37.3125470" lon="-4.2942430">
        <ele>574.4</ele>
        <time>2020-07-11T06:18:50Z</time>
      </trkpt>
      <trkpt lat="37.3125720" lon="-4.2942350">
        <ele>574.6</ele>
        <time>2020-07-11T06:18:51Z</time>
      </trkpt>
      <trkpt lat="37.3126710" lon="-4.2941930">
        <ele>575.6</ele>
        <time>2020-07-11T06:18:55Z</time>
      </trkpt>
      <trkpt lat="37.3127420" lon="-4.2941490">
        <ele>576.4</ele>
        <time>2020-07-11T06:18:58Z</time>
      </trkpt>
      <trkpt lat="37.3127590" lon="-4.2941270">
        <ele>576.6</ele>
        <time>2020-07-11T06:18:59Z</time>
      </trkpt>
      <trkpt lat="37.3127880" lon="-4.2940150">
        <ele>577.8</ele>
        <time>2020-07-11T06:19:03Z</time>
      </trkpt>
      <trkpt lat="37.3127780" lon="-4.2939310">
        <ele>578.8</ele>
        <time>2020-07-11T06:19:06Z</time>
      </trkpt>
      <trkpt lat="37.3127600" lon="-4.2938210">
        <ele>580.2</ele>
        <time>2020-07-11T06:19:10Z</time>
      </trkpt>
      <trkpt lat="37.3127580" lon="-4.2937930">
        <ele>580.4</ele>
        <time>2020-07-11T06:19:11Z</time>
      </trkpt>
      <trkpt lat="37.3127370" lon="-4.2936610">
        <ele>581.4</ele>
        <time>2020-07-11T06:19:15Z</time>
      </trkpt>
      <trkpt lat="37.3127180" lon="-4.2935300">
        <ele>582.6</ele>
        <time>2020-07-11T06:19:19Z</time>
      </trkpt>
      <trkpt lat="37.3126990" lon="-4.2933710">
        <ele>583.8</ele>
        <time>2020-07-11T06:19:24Z</time>
      </trkpt>
      <trkpt lat="37.3126720" lon="-4.2932210">
        <ele>585.0</ele>
        <time>2020-07-11T06:19:29Z</time>
      </trkpt>
      <trkpt lat="37.3126680" lon="-4.2931880">
        <ele>585.2</ele>
        <time>2020-07-11T06:19:30Z</time>
      </trkpt>
      <trkpt lat="37.3126520" lon="-4.2930700">
        <ele>586.2</ele>
        <time>2020-07-11T06:19:34Z</time>
      </trkpt>
      <trkpt lat="37.3126600" lon="-4.2929500">
        <ele>587.4</ele>
        <time>2020-07-11T06:19:38Z</time>
      </trkpt>
      <trkpt lat="37.3126670" lon="-4.2929210">
        <ele>587.6</ele>
        <time>2020-07-11T06:19:39Z</time>
      </trkpt>
      <trkpt lat="37.3127070" lon="-4.2928100">
        <ele>588.6</ele>
        <time>2020-07-11T06:19:43Z</time>
      </trkpt>
      <trkpt lat="37.3127570" lon="-4.2927090">
        <ele>589.4</ele>
        <time>2020-07-11T06:19:47Z</time>
      </trkpt>
      <trkpt lat="37.3127690" lon="-4.2926770">
        <ele>589.8</ele>
        <time>2020-07-11T06:19:48Z</time>
      </trkpt>
      <trkpt lat="37.3128360" lon="-4.2925420">
        <ele>591.0</ele>
        <time>2020-07-11T06:19:53Z</time>
      </trkpt>
      <trkpt lat="37.3128870" lon="-4.2924270">
        <ele>592.0</ele>
        <time>2020-07-11T06:19:57Z</time>
      </trkpt>
      <trkpt lat="37.3128980" lon="-4.2923950">
        <ele>592.2</ele>
        <time>2020-07-11T06:19:58Z</time>
      </trkpt>
      <trkpt lat="37.3129600" lon="-4.2922020">
        <ele>593.2</ele>
        <time>2020-07-11T06:20:04Z</time>
      </trkpt>
      <trkpt lat="37.3130100" lon="-4.2919500">
        <ele>594.4</ele>
        <time>2020-07-11T06:20:11Z</time>
      </trkpt>
      <trkpt lat="37.3130220" lon="-4.2918340">
        <ele>594.8</ele>
        <time>2020-07-11T06:20:14Z</time>
      </trkpt>
      <trkpt lat="37.3130440" lon="-4.2916430">
        <ele>595.4</ele>
        <time>2020-07-11T06:20:19Z</time>
      </trkpt>
      <trkpt lat="37.3130480" lon="-4.2916060">
        <ele>595.4</ele>
        <time>2020-07-11T06:20:20Z</time>
      </trkpt>
      <trkpt lat="37.3130600" lon="-4.2914940">
        <ele>595.8</ele>
        <time>2020-07-11T06:20:23Z</time>
      </trkpt>
      <trkpt lat="37.3130800" lon="-4.2913410">
        <ele>596.4</ele>
        <time>2020-07-11T06:20:27Z</time>
      </trkpt>
      <trkpt lat="37.3130840" lon="-4.2913010">
        <ele>596.4</ele>
        <time>2020-07-11T06:20:28Z</time>
      </trkpt>
      <trkpt lat="37.3131040" lon="-4.2911190">
        <ele>597.2</ele>
        <time>2020-07-11T06:20:33Z</time>
      </trkpt>
      <trkpt lat="37.3131100" lon="-4.2910840">
        <ele>597.4</ele>
        <time>2020-07-11T06:20:34Z</time>
      </trkpt>
      <trkpt lat="37.3131160" lon="-4.2910540">
        <ele>597.6</ele>
        <time>2020-07-11T06:20:35Z</time>
      </trkpt>
      <trkpt lat="37.3131350" lon="-4.2908490">
        <ele>598.6</ele>
        <time>2020-07-11T06:20:41Z</time>
      </trkpt>
      <trkpt lat="37.3131350" lon="-4.2908150">
        <ele>598.8</ele>
        <time>2020-07-11T06:20:42Z</time>
      </trkpt>
      <trkpt lat="37.3131390" lon="-4.2906810">
        <ele>599.8</ele>
        <time>2020-07-11T06:20:46Z</time>
      </trkpt>
      <trkpt lat="37.3131470" lon="-4.2905850">
        <ele>600.4</ele>
        <time>2020-07-11T06:20:49Z</time>
      </trkpt>
      <trkpt lat="37.3131480" lon="-4.2905230">
        <ele>601.0</ele>
        <time>2020-07-11T06:20:51Z</time>
      </trkpt>
      <trkpt lat="37.3131480" lon="-4.2903690">
        <ele>602.0</ele>
        <time>2020-07-11T06:20:56Z</time>
      </trkpt>
      <trkpt lat="37.3131490" lon="-4.2903390">
        <ele>602.2</ele>
        <time>2020-07-11T06:20:57Z</time>
      </trkpt>
      <trkpt lat="37.3131470" lon="-4.2903060">
        <ele>602.6</ele>
        <time>2020-07-11T06:20:58Z</time>
      </trkpt>
      <trkpt lat="37.3131430" lon="-4.2902000">
        <ele>603.2</ele>
        <time>2020-07-11T06:21:01Z</time>
      </trkpt>
      <trkpt lat="37.3131330" lon="-4.2900830">
        <ele>604.0</ele>
        <time>2020-07-11T06:21:04Z</time>
      </trkpt>
      <trkpt lat="37.3131290" lon="-4.2900470">
        <ele>604.2</ele>
        <time>2020-07-11T06:21:05Z</time>
      </trkpt>
      <trkpt lat="37.3130950" lon="-4.2898500">
        <ele>605.2</ele>
        <time>2020-07-11T06:21:10Z</time>
      </trkpt>
      <trkpt lat="37.3130710" lon="-4.2897410">
        <ele>606.0</ele>
        <time>2020-07-11T06:21:13Z</time>
      </trkpt>
      <trkpt lat="37.3130560" lon="-4.2896680">
        <ele>606.4</ele>
        <time>2020-07-11T06:21:15Z</time>
      </trkpt>
      <trkpt lat="37.3130240" lon="-4.2894790">
        <ele>607.4</ele>
        <time>2020-07-11T06:21:20Z</time>
      </trkpt>
      <trkpt lat="37.3129970" lon="-4.2892430">
        <ele>608.6</ele>
        <time>2020-07-11T06:21:26Z</time>
      </trkpt>
      <trkpt lat="37.3129840" lon="-4.2890410">
        <ele>609.6</ele>
        <time>2020-07-11T06:21:31Z</time>
      </trkpt>
      <trkpt lat="37.3129870" lon="-4.2888010">
        <ele>610.6</ele>
        <time>2020-07-11T06:21:37Z</time>
      </trkpt>
      <trkpt lat="37.3130200" lon="-4.2885660">
        <ele>611.8</ele>
        <time>2020-07-11T06:21:43Z</time>
      </trkpt>
      <trkpt lat="37.3130510" lon="-4.2884590">
        <ele>612.4</ele>
        <time>2020-07-11T06:21:46Z</time>
      </trkpt>
      <trkpt lat="37.3130730" lon="-4.2883880">
        <ele>612.8</ele>
        <time>2020-07-11T06:21:48Z</time>
      </trkpt>
      <trkpt lat="37.3131540" lon="-4.2881800">
        <ele>614.0</ele>
        <time>2020-07-11T06:21:54Z</time>
      </trkpt>
      <trkpt lat="37.3131780" lon="-4.2881150">
        <ele>614.4</ele>
        <time>2020-07-11T06:21:56Z</time>
      </trkpt>
      <trkpt lat="37.3132040" lon="-4.2880530">
        <ele>614.8</ele>
        <time>2020-07-11T06:21:58Z</time>
      </trkpt>
      <trkpt lat="37.3132170" lon="-4.2880240">
        <ele>615.0</ele>
        <time>2020-07-11T06:21:59Z</time>
      </trkpt>
      <trkpt lat="37.3132780" lon="-4.2878720">
        <ele>616.2</ele>
        <time>2020-07-11T06:22:04Z</time>
      </trkpt>
      <trkpt lat="37.3132940" lon="-4.2878090">
        <ele>616.6</ele>
        <time>2020-07-11T06:22:06Z</time>
      </trkpt>
      <trkpt lat="37.3133070" lon="-4.2877090">
        <ele>617.2</ele>
        <time>2020-07-11T06:22:09Z</time>
      </trkpt>
      <trkpt lat="37.3133050" lon="-4.2875830">
        <ele>618.4</ele>
        <time>2020-07-11T06:22:13Z</time>
      </trkpt>
      <trkpt lat="37.3133030" lon="-4.2875520">
        <ele>618.6</ele>
        <time>2020-07-11T06:22:14Z</time>
      </trkpt>
      <trkpt lat="37.3132930" lon="-4.2874630">
        <ele>619.4</ele>
        <time>2020-07-11T06:22:17Z</time>
      </trkpt>
      <trkpt lat="37.3132830" lon="-4.2873360">
        <ele>620.4</ele>
        <time>2020-07-11T06:22:21Z</time>
      </trkpt>
      <trkpt lat="37.3132900" lon="-4.2872770">
        <ele>621.0</ele>
        <time>2020-07-11T06:22:23Z</time>
      </trkpt>
      <trkpt lat="37.3133020" lon="-4.2872160">
        <ele>621.6</ele>
        <time>2020-07-11T06:22:25Z</time>
      </trkpt>
      <trkpt lat="37.3133390" lon="-4.2870770">
        <ele>622.6</ele>
        <time>2020-07-11T06:22:30Z</time>
      </trkpt>
      <trkpt lat="37.3133470" lon="-4.2870460">
        <ele>622.8</ele>
        <time>2020-07-11T06:22:31Z</time>
      </trkpt>
      <trkpt lat="37.3133660" lon="-4.2869550">
        <ele>623.8</ele>
        <time>2020-07-11T06:22:34Z</time>
      </trkpt>
      <trkpt lat="37.3134080" lon="-4.2868460">
        <ele>624.8</ele>
        <time>2020-07-11T06:22:38Z</time>
      </trkpt>
      <trkpt lat="37.3134550" lon="-4.2867000">
        <ele>626.0</ele>
        <time>2020-07-11T06:22:43Z</time>
      </trkpt>
      <trkpt lat="37.3134840" lon="-4.2866130">
        <ele>626.6</ele>
        <time>2020-07-11T06:22:46Z</time>
      </trkpt>
      <trkpt lat="37.3135050" lon="-4.2865560">
        <ele>627.0</ele>
        <time>2020-07-11T06:22:48Z</time>
      </trkpt>
      <trkpt lat="37.3135730" lon="-4.2864220">
        <ele>628.2</ele>
        <time>2020-07-11T06:22:53Z</time>
      </trkpt>
      <trkpt lat="37.3135990" lon="-4.2863660">
        <ele>628.8</ele>
        <time>2020-07-11T06:22:55Z</time>
      </trkpt>
      <trkpt lat="37.3136280" lon="-4.2863130">
        <ele>629.2</ele>
        <time>2020-07-11T06:22:57Z</time>
      </trkpt>
      <trkpt lat="37.3136990" lon="-4.2861780">
        <ele>630.4</ele>
        <time>2020-07-11T06:23:02Z</time>
      </trkpt>
      <trkpt lat="37.3137240" lon="-4.2861250">
        <ele>630.8</ele>
        <time>2020-07-11T06:23:04Z</time>
      </trkpt>
      <trkpt lat="37.3137640" lon="-4.2860380">
        <ele>631.4</ele>
        <time>2020-07-11T06:23:07Z</time>
      </trkpt>
      <trkpt lat="37.3138280" lon="-4.2859040">
        <ele>632.4</ele>
        <time>2020-07-11T06:23:12Z</time>
      </trkpt>
      <trkpt lat="37.3138710" lon="-4.2857780">
        <ele>633.6</ele>
        <time>2020-07-11T06:23:16Z</time>
      </trkpt>
      <trkpt lat="37.3138980" lon="-4.2856230">
        <ele>634.6</ele>
        <time>2020-07-11T06:23:21Z</time>
      </trkpt>
      <trkpt lat="37.3138760" lon="-4.2855340">
        <ele>635.2</ele>
        <time>2020-07-11T06:23:24Z</time>
      </trkpt>
      <trkpt lat="37.3138510" lon="-4.2854850">
        <ele>635.6</ele>
        <time>2020-07-11T06:23:26Z</time>
      </trkpt>
      <trkpt lat="37.3138180" lon="-4.2854460">
        <ele>636.2</ele>
        <time>2020-07-11T06:23:28Z</time>
      </trkpt>
      <trkpt lat="37.3137840" lon="-4.2854050">
        <ele>636.8</ele>
        <time>2020-07-11T06:23:30Z</time>
      </trkpt>
      <trkpt lat="37.3137690" lon="-4.2853860">
        <ele>637.2</ele>
        <time>2020-07-11T06:23:31Z</time>
      </trkpt>
      <trkpt lat="37.3137120" lon="-4.2853280">
        <ele>638.0</ele>
        <time>2020-07-11T06:23:34Z</time>
      </trkpt>
      <trkpt lat="37.3136370" lon="-4.2852080">
        <ele>639.0</ele>
        <time>2020-07-11T06:23:39Z</time>
      </trkpt>
      <trkpt lat="37.3136050" lon="-4.2850880">
        <ele>640.0</ele>
        <time>2020-07-11T06:23:43Z</time>
      </trkpt>
      <trkpt lat="37.3135860" lon="-4.2849620">
        <ele>641.2</ele>
        <time>2020-07-11T06:23:47Z</time>
      </trkpt>
      <trkpt lat="37.3135750" lon="-4.2848260">
        <ele>642.2</ele>
        <time>2020-07-11T06:23:51Z</time>
      </trkpt>
      <trkpt lat="37.3135630" lon="-4.2846620">
        <ele>643.4</ele>
        <time>2020-07-11T06:23:56Z</time>
      </trkpt>
      <trkpt lat="37.3135530" lon="-4.2845040">
        <ele>644.6</ele>
        <time>2020-07-11T06:24:01Z</time>
      </trkpt>
      <trkpt lat="37.3135340" lon="-4.2843470">
        <ele>645.8</ele>
        <time>2020-07-11T06:24:06Z</time>
      </trkpt>
      <trkpt lat="37.3135000" lon="-4.2842250">
        <ele>646.8</ele>
        <time>2020-07-11T06:24:10Z</time>
      </trkpt>
      <trkpt lat="37.3134490" lon="-4.2840790">
        <ele>648.0</ele>
        <time>2020-07-11T06:24:15Z</time>
      </trkpt>
      <trkpt lat="37.3134370" lon="-4.2840490">
        <ele>648.2</ele>
        <time>2020-07-11T06:24:16Z</time>
      </trkpt>
      <trkpt lat="37.3133940" lon="-4.2839350">
        <ele>649.2</ele>
        <time>2020-07-11T06:24:20Z</time>
      </trkpt>
      <trkpt lat="37.3133630" lon="-4.2838170">
        <ele>650.0</ele>
        <time>2020-07-11T06:24:24Z</time>
      </trkpt>
      <trkpt lat="37.3133580" lon="-4.2837890">
        <ele>650.2</ele>
        <time>2020-07-11T06:24:25Z</time>
      </trkpt>
      <trkpt lat="37.3133430" lon="-4.2836380">
        <ele>651.4</ele>
        <time>2020-07-11T06:24:30Z</time>
      </trkpt>
      <trkpt lat="37.3133410" lon="-4.2835760">
        <ele>651.6</ele>
        <time>2020-07-11T06:24:32Z</time>
      </trkpt>
      <trkpt lat="37.3133350" lon="-4.2834470">
        <ele>652.4</ele>
        <time>2020-07-11T06:24:36Z</time>
      </trkpt>
      <trkpt lat="37.3133360" lon="-4.2833170">
        <ele>653.2</ele>
        <time>2020-07-11T06:24:40Z</time>
      </trkpt>
      <trkpt lat="37.3133320" lon="-4.2832510">
        <ele>653.6</ele>
        <time>2020-07-11T06:24:42Z</time>
      </trkpt>
      <trkpt lat="37.3133230" lon="-4.2830910">
        <ele>654.6</ele>
        <time>2020-07-11T06:24:47Z</time>
      </trkpt>
      <trkpt lat="37.3133040" lon="-4.2829240">
        <ele>655.8</ele>
        <time>2020-07-11T06:24:52Z</time>
      </trkpt>
      <trkpt lat="37.3132790" lon="-4.2827870">
        <ele>656.8</ele>
        <time>2020-07-11T06:24:56Z</time>
      </trkpt>
      <trkpt lat="37.3132480" lon="-4.2826240">
        <ele>658.0</ele>
        <time>2020-07-11T06:25:01Z</time>
      </trkpt>
      <trkpt lat="37.3132380" lon="-4.2825590">
        <ele>658.4</ele>
        <time>2020-07-11T06:25:03Z</time>
      </trkpt>
      <trkpt lat="37.3132190" lon="-4.2824610">
        <ele>659.0</ele>
        <time>2020-07-11T06:25:06Z</time>
      </trkpt>
      <trkpt lat="37.3131930" lon="-4.2823010">
        <ele>660.2</ele>
        <time>2020-07-11T06:25:11Z</time>
      </trkpt>
      <trkpt lat="37.3131640" lon="-4.2821410">
        <ele>661.4</ele>
        <time>2020-07-11T06:25:16Z</time>
      </trkpt>
      <trkpt lat="37.3131190" lon="-4.2819850">
        <ele>662.6</ele>
        <time>2020-07-11T06:25:21Z</time>
      </trkpt>
      <trkpt lat="37.3130900" lon="-4.2819250">
        <ele>662.8</ele>
        <time>2020-07-11T06:25:23Z</time>
      </trkpt>
      <trkpt lat="37.3130410" lon="-4.2818320">
        <ele>663.6</ele>
        <time>2020-07-11T06:25:26Z</time>
      </trkpt>
      <trkpt lat="37.3130250" lon="-4.2818020">
        <ele>663.6</ele>
        <time>2020-07-11T06:25:27Z</time>
      </trkpt>
      <trkpt lat="37.3129140" lon="-4.2815620">
        <ele>664.8</ele>
        <time>2020-07-11T06:25:34Z</time>
      </trkpt>
      <trkpt lat="37.3128830" lon="-4.2814490">
        <ele>665.4</ele>
        <time>2020-07-11T06:25:37Z</time>
      </trkpt>
      <trkpt lat="37.3128720" lon="-4.2813190">
        <ele>666.0</ele>
        <time>2020-07-11T06:25:40Z</time>
      </trkpt>
      <trkpt lat="37.3128720" lon="-4.2811410">
        <ele>666.8</ele>
        <time>2020-07-11T06:25:44Z</time>
      </trkpt>
      <trkpt lat="37.3128790" lon="-4.2810490">
        <ele>667.0</ele>
        <time>2020-07-11T06:25:46Z</time>
      </trkpt>
      <trkpt lat="37.3129100" lon="-4.2807410">
        <ele>667.8</ele>
        <time>2020-07-11T06:25:53Z</time>
      </trkpt>
      <trkpt lat="37.3129150" lon="-4.2806490">
        <ele>668.0</ele>
        <time>2020-07-11T06:25:55Z</time>
      </trkpt>
      <trkpt lat="37.3129280" lon="-4.2804090">
        <ele>669.0</ele>
        <time>2020-07-11T06:26:01Z</time>
      </trkpt>
      <trkpt lat="37.3129280" lon="-4.2803730">
        <ele>669.2</ele>
        <time>2020-07-11T06:26:02Z</time>
      </trkpt>
      <trkpt lat="37.3129290" lon="-4.2803340">
        <ele>669.4</ele>
        <time>2020-07-11T06:26:03Z</time>
      </trkpt>
      <trkpt lat="37.3129340" lon="-4.2802260">
        <ele>670.2</ele>
        <time>2020-07-11T06:26:06Z</time>
      </trkpt>
      <trkpt lat="37.3129350" lon="-4.2800810">
        <ele>671.2</ele>
        <time>2020-07-11T06:26:10Z</time>
      </trkpt>
      <trkpt lat="37.3129420" lon="-4.2798480">
        <ele>672.4</ele>
        <time>2020-07-11T06:26:16Z</time>
      </trkpt>
      <trkpt lat="37.3129460" lon="-4.2797280">
        <ele>672.8</ele>
        <time>2020-07-11T06:26:19Z</time>
      </trkpt>
      <trkpt lat="37.3129510" lon="-4.2796470">
        <ele>673.2</ele>
        <time>2020-07-11T06:26:21Z</time>
      </trkpt>
      <trkpt lat="37.3129480" lon="-4.2795710">
        <ele>673.6</ele>
        <time>2020-07-11T06:26:23Z</time>
      </trkpt>
      <trkpt lat="37.3129440" lon="-4.2794530">
        <ele>674.2</ele>
        <time>2020-07-11T06:26:26Z</time>
      </trkpt>
      <trkpt lat="37.3129450" lon="-4.2794170">
        <ele>674.4</ele>
        <time>2020-07-11T06:26:27Z</time>
      </trkpt>
      <trkpt lat="37.3129440" lon="-4.2793780">
        <ele>674.8</ele>
        <time>2020-07-11T06:26:28Z</time>
      </trkpt>
      <trkpt lat="37.3129380" lon="-4.2791590">
        <ele>676.0</ele>
        <time>2020-07-11T06:26:34Z</time>
      </trkpt>
      <trkpt lat="37.3129360" lon="-4.2790180">
        <ele>676.8</ele>
        <time>2020-07-11T06:26:38Z</time>
      </trkpt>
      <trkpt lat="37.3129360" lon="-4.2789840">
        <ele>677.2</ele>
        <time>2020-07-11T06:26:39Z</time>
      </trkpt>
      <trkpt lat="37.3129450" lon="-4.2787780">
        <ele>678.4</ele>
        <time>2020-07-11T06:26:45Z</time>
      </trkpt>
      <trkpt lat="37.3129450" lon="-4.2787420">
        <ele>678.8</ele>
        <time>2020-07-11T06:26:46Z</time>
      </trkpt>
      <trkpt lat="37.3129460" lon="-4.2787120">
        <ele>679.0</ele>
        <time>2020-07-11T06:26:47Z</time>
      </trkpt>
      <trkpt lat="37.3129460" lon="-4.2786420">
        <ele>679.6</ele>
        <time>2020-07-11T06:26:49Z</time>
      </trkpt>
      <trkpt lat="37.3129480" lon="-4.2785160">
        <ele>680.8</ele>
        <time>2020-07-11T06:26:53Z</time>
      </trkpt>
      <trkpt lat="37.3129500" lon="-4.2783880">
        <ele>681.8</ele>
        <time>2020-07-11T06:26:57Z</time>
      </trkpt>
      <trkpt lat="37.3129490" lon="-4.2782600">
        <ele>682.8</ele>
        <time>2020-07-11T06:27:01Z</time>
      </trkpt>
      <trkpt lat="37.3129460" lon="-4.2781570">
        <ele>683.4</ele>
        <time>2020-07-11T06:27:04Z</time>
      </trkpt>
      <trkpt lat="37.3129460" lon="-4.2780590">
        <ele>684.0</ele>
        <time>2020-07-11T06:27:07Z</time>
      </trkpt>
      <trkpt lat="37.3129530" lon="-4.2779330">
        <ele>685.2</ele>
        <time>2020-07-11T06:27:11Z</time>
      </trkpt>
      <trkpt lat="37.3129620" lon="-4.2778380">
        <ele>686.0</ele>
        <time>2020-07-11T06:27:14Z</time>
      </trkpt>
      <trkpt lat="37.3129660" lon="-4.2777780">
        <ele>686.4</ele>
        <time>2020-07-11T06:27:16Z</time>
      </trkpt>
      <trkpt lat="37.3129970" lon="-4.2776330">
        <ele>687.6</ele>
        <time>2020-07-11T06:27:21Z</time>
      </trkpt>
      <trkpt lat="37.3130270" lon="-4.2775460">
        <ele>688.2</ele>
        <time>2020-07-11T06:27:24Z</time>
      </trkpt>
      <trkpt lat="37.3130590" lon="-4.2774340">
        <ele>688.8</ele>
        <time>2020-07-11T06:27:28Z</time>
      </trkpt>
      <trkpt lat="37.3130950" lon="-4.2773270">
        <ele>690.2</ele>
        <time>2020-07-11T06:27:32Z</time>
      </trkpt>
      <trkpt lat="37.3131180" lon="-4.2772730">
        <ele>690.6</ele>
        <time>2020-07-11T06:27:34Z</time>
      </trkpt>
      <trkpt lat="37.3131480" lon="-4.2771960">
        <ele>691.4</ele>
        <time>2020-07-11T06:27:37Z</time>
      </trkpt>
      <trkpt lat="37.3131910" lon="-4.2770610">
        <ele>692.4</ele>
        <time>2020-07-11T06:27:42Z</time>
      </trkpt>
      <trkpt lat="37.3132180" lon="-4.2769800">
        <ele>693.0</ele>
        <time>2020-07-11T06:27:45Z</time>
      </trkpt>
      <trkpt lat="37.3132430" lon="-4.2768980">
        <ele>693.6</ele>
        <time>2020-07-11T06:27:48Z</time>
      </trkpt>
      <trkpt lat="37.3132840" lon="-4.2767670">
        <ele>694.6</ele>
        <time>2020-07-11T06:27:53Z</time>
      </trkpt>
      <trkpt lat="37.3133070" lon="-4.2766550">
        <ele>696.0</ele>
        <time>2020-07-11T06:27:57Z</time>
      </trkpt>
      <trkpt lat="37.3133300" lon="-4.2765230">
        <ele>697.0</ele>
        <time>2020-07-11T06:28:02Z</time>
      </trkpt>
      <trkpt lat="37.3133360" lon="-4.2763820">
        <ele>698.2</ele>
        <time>2020-07-11T06:28:07Z</time>
      </trkpt>
      <trkpt lat="37.3133400" lon="-4.2762540">
        <ele>698.8</ele>
        <time>2020-07-11T06:28:11Z</time>
      </trkpt>
      <trkpt lat="37.3133490" lon="-4.2761580">
        <ele>699.4</ele>
        <time>2020-07-11T06:28:14Z</time>
      </trkpt>
      <trkpt lat="37.3133710" lon="-4.2760080">
        <ele>700.6</ele>
        <time>2020-07-11T06:28:19Z</time>
      </trkpt>
      <trkpt lat="37.3133880" lon="-4.2759230">
        <ele>701.4</ele>
        <time>2020-07-11T06:28:22Z</time>
      </trkpt>
      <trkpt lat="37.3133960" lon="-4.2758610">
        <ele>701.8</ele>
        <time>2020-07-11T06:28:24Z</time>
      </trkpt>
      <trkpt lat="37.3134330" lon="-4.2757170">
        <ele>703.0</ele>
        <time>2020-07-11T06:28:29Z</time>
      </trkpt>
      <trkpt lat="37.3134580" lon="-4.2755720">
        <ele>704.0</ele>
        <time>2020-07-11T06:28:34Z</time>
      </trkpt>
      <trkpt lat="37.3134780" lon="-4.2754860">
        <ele>704.6</ele>
        <time>2020-07-11T06:28:37Z</time>
      </trkpt>
      <trkpt lat="37.3135030" lon="-4.2753970">
        <ele>705.0</ele>
        <time>2020-07-11T06:28:40Z</time>
      </trkpt>
      <trkpt lat="37.3135360" lon="-4.2752800">
        <ele>706.2</ele>
        <time>2020-07-11T06:28:44Z</time>
      </trkpt>
      <trkpt lat="37.3135580" lon="-4.2751940">
        <ele>707.0</ele>
        <time>2020-07-11T06:28:47Z</time>
      </trkpt>
      <trkpt lat="37.3135600" lon="-4.2751630">
        <ele>707.2</ele>
        <time>2020-07-11T06:28:48Z</time>
      </trkpt>
      <trkpt lat="37.3136030" lon="-4.2750090">
        <ele>708.2</ele>
        <time>2020-07-11T06:28:53Z</time>
      </trkpt>
      <trkpt lat="37.3136360" lon="-4.2748520">
        <ele>709.4</ele>
        <time>2020-07-11T06:28:58Z</time>
      </trkpt>
      <trkpt lat="37.3136680" lon="-4.2746990">
        <ele>710.4</ele>
        <time>2020-07-11T06:29:03Z</time>
      </trkpt>
      <trkpt lat="37.3136750" lon="-4.2746380">
        <ele>710.8</ele>
        <time>2020-07-11T06:29:05Z</time>
      </trkpt>
      <trkpt lat="37.3136840" lon="-4.2745130">
        <ele>711.6</ele>
        <time>2020-07-11T06:29:09Z</time>
      </trkpt>
      <trkpt lat="37.3136850" lon="-4.2743880">
        <ele>712.8</ele>
        <time>2020-07-11T06:29:13Z</time>
      </trkpt>
      <trkpt lat="37.3136870" lon="-4.2742670">
        <ele>713.8</ele>
        <time>2020-07-11T06:29:17Z</time>
      </trkpt>
      <trkpt lat="37.3136860" lon="-4.2742360">
        <ele>714.0</ele>
        <time>2020-07-11T06:29:18Z</time>
      </trkpt>
      <trkpt lat="37.3136760" lon="-4.2740770">
        <ele>715.2</ele>
        <time>2020-07-11T06:29:23Z</time>
      </trkpt>
      <trkpt lat="37.3136610" lon="-4.2739580">
        <ele>715.8</ele>
        <time>2020-07-11T06:29:27Z</time>
      </trkpt>
      <trkpt lat="37.3136550" lon="-4.2738970">
        <ele>716.4</ele>
        <time>2020-07-11T06:29:29Z</time>
      </trkpt>
      <trkpt lat="37.3136310" lon="-4.2737220">
        <ele>717.6</ele>
        <time>2020-07-11T06:29:35Z</time>
      </trkpt>
      <trkpt lat="37.3136240" lon="-4.2736630">
        <ele>718.0</ele>
        <time>2020-07-11T06:29:37Z</time>
      </trkpt>
      <trkpt lat="37.3136110" lon="-4.2735790">
        <ele>718.8</ele>
        <time>2020-07-11T06:29:40Z</time>
      </trkpt>
      <trkpt lat="37.3136040" lon="-4.2734320">
        <ele>719.8</ele>
        <time>2020-07-11T06:29:45Z</time>
      </trkpt>
      <trkpt lat="37.3136050" lon="-4.2734050">
        <ele>720.0</ele>
        <time>2020-07-11T06:29:46Z</time>
      </trkpt>
      <trkpt lat="37.3136060" lon="-4.2732890">
        <ele>720.8</ele>
        <time>2020-07-11T06:29:50Z</time>
      </trkpt>
      <trkpt lat="37.3135980" lon="-4.2731550">
        <ele>721.6</ele>
        <time>2020-07-11T06:29:54Z</time>
      </trkpt>
      <trkpt lat="37.3135950" lon="-4.2730870">
        <ele>722.0</ele>
        <time>2020-07-11T06:29:56Z</time>
      </trkpt>
      <trkpt lat="37.3135940" lon="-4.2729300">
        <ele>723.2</ele>
        <time>2020-07-11T06:30:01Z</time>
      </trkpt>
      <trkpt lat="37.3136090" lon="-4.2728070">
        <ele>724.4</ele>
        <time>2020-07-11T06:30:05Z</time>
      </trkpt>
      <trkpt lat="37.3136340" lon="-4.2726310">
        <ele>725.4</ele>
        <time>2020-07-11T06:30:11Z</time>
      </trkpt>
      <trkpt lat="37.3136430" lon="-4.2725090">
        <ele>726.4</ele>
        <time>2020-07-11T06:30:15Z</time>
      </trkpt>
      <trkpt lat="37.3136500" lon="-4.2724760">
        <ele>726.6</ele>
        <time>2020-07-11T06:30:16Z</time>
      </trkpt>
      <trkpt lat="37.3136890" lon="-4.2722930">
        <ele>727.6</ele>
        <time>2020-07-11T06:30:22Z</time>
      </trkpt>
      <trkpt lat="37.3137120" lon="-4.2722020">
        <ele>728.2</ele>
        <time>2020-07-11T06:30:25Z</time>
      </trkpt>
      <trkpt lat="37.3137350" lon="-4.2720790">
        <ele>729.0</ele>
        <time>2020-07-11T06:30:29Z</time>
      </trkpt>
      <trkpt lat="37.3137690" lon="-4.2719620">
        <ele>730.0</ele>
        <time>2020-07-11T06:30:33Z</time>
      </trkpt>
      <trkpt lat="37.3137850" lon="-4.2719050">
        <ele>730.4</ele>
        <time>2020-07-11T06:30:35Z</time>
      </trkpt>
      <trkpt lat="37.3138100" lon="-4.2718140">
        <ele>731.0</ele>
        <time>2020-07-11T06:30:38Z</time>
      </trkpt>
      <trkpt lat="37.3138550" lon="-4.2716230">
        <ele>732.2</ele>
        <time>2020-07-11T06:30:44Z</time>
      </trkpt>
      <trkpt lat="37.3138790" lon="-4.2715270">
        <ele>732.8</ele>
        <time>2020-07-11T06:30:47Z</time>
      </trkpt>
      <trkpt lat="37.3138990" lon="-4.2714630">
        <ele>733.2</ele>
        <time>2020-07-11T06:30:49Z</time>
      </trkpt>
      <trkpt lat="37.3139410" lon="-4.2713090">
        <ele>734.4</ele>
        <time>2020-07-11T06:30:54Z</time>
      </trkpt>
      <trkpt lat="37.3139480" lon="-4.2712420">
        <ele>734.8</ele>
        <time>2020-07-11T06:30:56Z</time>
      </trkpt>
      <trkpt lat="37.3139640" lon="-4.2711450">
        <ele>735.6</ele>
        <time>2020-07-11T06:30:59Z</time>
      </trkpt>
      <trkpt lat="37.3139950" lon="-4.2709830">
        <ele>736.6</ele>
        <time>2020-07-11T06:31:04Z</time>
      </trkpt>
      <trkpt lat="37.3139980" lon="-4.2709530">
        <ele>736.8</ele>
        <time>2020-07-11T06:31:05Z</time>
      </trkpt>
      <trkpt lat="37.3140270" lon="-4.2707870">
        <ele>737.8</ele>
        <time>2020-07-11T06:31:10Z</time>
      </trkpt>
      <trkpt lat="37.3140430" lon="-4.2706550">
        <ele>738.8</ele>
        <time>2020-07-11T06:31:14Z</time>
      </trkpt>
      <trkpt lat="37.3140540" lon="-4.2705890">
        <ele>739.2</ele>
        <time>2020-07-11T06:31:16Z</time>
      </trkpt>
      <trkpt lat="37.3140660" lon="-4.2704920">
        <ele>739.8</ele>
        <time>2020-07-11T06:31:19Z</time>
      </trkpt>
      <trkpt lat="37.3140870" lon="-4.2702880">
        <ele>741.0</ele>
        <time>2020-07-11T06:31:25Z</time>
      </trkpt>
      <trkpt lat="37.3140910" lon="-4.2702180">
        <ele>741.2</ele>
        <time>2020-07-11T06:31:27Z</time>
      </trkpt>
      <trkpt lat="37.3140920" lon="-4.2701110">
        <ele>742.0</ele>
        <time>2020-07-11T06:31:30Z</time>
      </trkpt>
      <trkpt lat="37.3140960" lon="-4.2699720">
        <ele>743.2</ele>
        <time>2020-07-11T06:31:34Z</time>
      </trkpt>
      <trkpt lat="37.3140940" lon="-4.2698710">
        <ele>743.8</ele>
        <time>2020-07-11T06:31:37Z</time>
      </trkpt>
      <trkpt lat="37.3140950" lon="-4.2697630">
        <ele>744.4</ele>
        <time>2020-07-11T06:31:40Z</time>
      </trkpt>
      <trkpt lat="37.3140950" lon="-4.2695880">
        <ele>745.4</ele>
        <time>2020-07-11T06:31:45Z</time>
      </trkpt>
      <trkpt lat="37.3141010" lon="-4.2694470">
        <ele>746.0</ele>
        <time>2020-07-11T06:31:49Z</time>
      </trkpt>
      <trkpt lat="37.3141020" lon="-4.2693420">
        <ele>746.6</ele>
        <time>2020-07-11T06:31:52Z</time>
      </trkpt>
      <trkpt lat="37.3141090" lon="-4.2691970">
        <ele>747.8</ele>
        <time>2020-07-11T06:31:56Z</time>
      </trkpt>
      <trkpt lat="37.3141150" lon="-4.2690490">
        <ele>748.6</ele>
        <time>2020-07-11T06:32:00Z</time>
      </trkpt>
      <trkpt lat="37.3141170" lon="-4.2690110">
        <ele>749.0</ele>
        <time>2020-07-11T06:32:01Z</time>
      </trkpt>
      <trkpt lat="37.3141440" lon="-4.2688160">
        <ele>750.0</ele>
        <time>2020-07-11T06:32:06Z</time>
      </trkpt>
      <trkpt lat="37.3141790" lon="-4.2686810">
        <ele>750.4</ele>
        <time>2020-07-11T06:32:09Z</time>
      </trkpt>
      <trkpt lat="37.3142800" lon="-4.2683670">
        <ele>750.0</ele>
        <time>2020-07-11T06:32:14Z</time>
      </trkpt>
      <trkpt lat="37.3143980" lon="-4.2680240">
        <ele>748.8</ele>
        <time>2020-07-11T06:32:18Z</time>
      </trkpt>
      <trkpt lat="37.3144260" lon="-4.2679210">
        <ele>748.4</ele>
        <time>2020-07-11T06:32:19Z</time>
      </trkpt>
      <trkpt lat="37.3144540" lon="-4.2676980">
        <ele>747.2</ele>
        <time>2020-07-11T06:32:21Z</time>
      </trkpt>
      <trkpt lat="37.3144320" lon="-4.2675860">
        <ele>746.6</ele>
        <time>2020-07-11T06:32:22Z</time>
      </trkpt>
      <trkpt lat="37.3143820" lon="-4.2674840">
        <ele>746.2</ele>
        <time>2020-07-11T06:32:23Z</time>
      </trkpt>
      <trkpt lat="37.3143090" lon="-4.2673900">
        <ele>745.6</ele>
        <time>2020-07-11T06:32:24Z</time>
      </trkpt>
      <trkpt lat="37.3142380" lon="-4.2673080">
        <ele>745.0</ele>
        <time>2020-07-11T06:32:25Z</time>
      </trkpt>
      <trkpt lat="37.3141700" lon="-4.2672190">
        <ele>744.4</ele>
        <time>2020-07-11T06:32:26Z</time>
      </trkpt>
      <trkpt lat="37.3141140" lon="-4.2671240">
        <ele>744.0</ele>
        <time>2020-07-11T06:32:27Z</time>
      </trkpt>
      <trkpt lat="37.3140850" lon="-4.2669960">
        <ele>743.4</ele>
        <time>2020-07-11T06:32:28Z</time>
      </trkpt>
      <trkpt lat="37.3140960" lon="-4.2668780">
        <ele>743.0</ele>
        <time>2020-07-11T06:32:29Z</time>
      </trkpt>
      <trkpt lat="37.3141350" lon="-4.2667430">
        <ele>742.4</ele>
        <time>2020-07-11T06:32:30Z</time>
      </trkpt>
      <trkpt lat="37.3142590" lon="-4.2665220">
        <ele>741.6</ele>
        <time>2020-07-11T06:32:32Z</time>
      </trkpt>
      <trkpt lat="37.3143330" lon="-4.2664050">
        <ele>741.2</ele>
        <time>2020-07-11T06:32:33Z</time>
      </trkpt>
      <trkpt lat="37.3144680" lon="-4.2661940">
        <ele>739.6</ele>
        <time>2020-07-11T06:32:35Z</time>
      </trkpt>
      <trkpt lat="37.3145350" lon="-4.2660700">
        <ele>738.6</ele>
        <time>2020-07-11T06:32:36Z</time>
      </trkpt>
      <trkpt lat="37.3145790" lon="-4.2659570">
        <ele>737.4</ele>
        <time>2020-07-11T06:32:37Z</time>
      </trkpt>
      <trkpt lat="37.3146210" lon="-4.2658280">
        <ele>736.2</ele>
        <time>2020-07-11T06:32:38Z</time>
      </trkpt>
      <trkpt lat="37.3146670" lon="-4.2657050">
        <ele>735.0</ele>
        <time>2020-07-11T06:32:39Z</time>
      </trkpt>
      <trkpt lat="37.3147320" lon="-4.2655930">
        <ele>733.8</ele>
        <time>2020-07-11T06:32:40Z</time>
      </trkpt>
      <trkpt lat="37.3148110" lon="-4.2655070">
        <ele>732.6</ele>
        <time>2020-07-11T06:32:41Z</time>
      </trkpt>
      <trkpt lat="37.3149060" lon="-4.2654310">
        <ele>731.6</ele>
        <time>2020-07-11T06:32:42Z</time>
      </trkpt>
      <trkpt lat="37.3150120" lon="-4.2653620">
        <ele>730.6</ele>
        <time>2020-07-11T06:32:43Z</time>
      </trkpt>
      <trkpt lat="37.3151130" lon="-4.2653050">
        <ele>729.6</ele>
        <time>2020-07-11T06:32:44Z</time>
      </trkpt>
      <trkpt lat="37.3152080" lon="-4.2652590">
        <ele>728.6</ele>
        <time>2020-07-11T06:32:45Z</time>
      </trkpt>
      <trkpt lat="37.3153000" lon="-4.2652200">
        <ele>727.6</ele>
        <time>2020-07-11T06:32:46Z</time>
      </trkpt>
      <trkpt lat="37.3153750" lon="-4.2651810">
        <ele>726.6</ele>
        <time>2020-07-11T06:32:47Z</time>
      </trkpt>
      <trkpt lat="37.3154540" lon="-4.2651100">
        <ele>725.6</ele>
        <time>2020-07-11T06:32:48Z</time>
      </trkpt>
      <trkpt lat="37.3155060" lon="-4.2650170">
        <ele>724.6</ele>
        <time>2020-07-11T06:32:49Z</time>
      </trkpt>
      <trkpt lat="37.3155390" lon="-4.2649170">
        <ele>723.8</ele>
        <time>2020-07-11T06:32:50Z</time>
      </trkpt>
      <trkpt lat="37.3155510" lon="-4.2646810">
        <ele>722.0</ele>
        <time>2020-07-11T06:32:52Z</time>
      </trkpt>
      <trkpt lat="37.3154710" lon="-4.2644350">
        <ele>720.6</ele>
        <time>2020-07-11T06:32:54Z</time>
      </trkpt>
      <trkpt lat="37.3153600" lon="-4.2642470">
        <ele>719.2</ele>
        <time>2020-07-11T06:32:56Z</time>
      </trkpt>
      <trkpt lat="37.3153160" lon="-4.2641590">
        <ele>718.0</ele>
        <time>2020-07-11T06:32:57Z</time>
      </trkpt>
      <trkpt lat="37.3152870" lon="-4.2640570">
        <ele>717.0</ele>
        <time>2020-07-11T06:32:58Z</time>
      </trkpt>
      <trkpt lat="37.3152860" lon="-4.2639630">
        <ele>715.8</ele>
        <time>2020-07-11T06:32:59Z</time>
      </trkpt>
      <trkpt lat="37.3153130" lon="-4.2638840">
        <ele>714.6</ele>
        <time>2020-07-11T06:33:00Z</time>
      </trkpt>
      <trkpt lat="37.3153620" lon="-4.2638210">
        <ele>713.4</ele>
        <time>2020-07-11T06:33:01Z</time>
      </trkpt>
      <trkpt lat="37.3154210" lon="-4.2637690">
        <ele>712.4</ele>
        <time>2020-07-11T06:33:02Z</time>
      </trkpt>
      <trkpt lat="37.3154950" lon="-4.2637150">
        <ele>711.6</ele>
        <time>2020-07-11T06:33:03Z</time>
      </trkpt>
      <trkpt lat="37.3155730" lon="-4.2636610">
        <ele>710.8</ele>
        <time>2020-07-11T06:33:04Z</time>
      </trkpt>
      <trkpt lat="37.3156500" lon="-4.2636080">
        <ele>710.2</ele>
        <time>2020-07-11T06:33:05Z</time>
      </trkpt>
      <trkpt lat="37.3157400" lon="-4.2635460">
        <ele>709.4</ele>
        <time>2020-07-11T06:33:06Z</time>
      </trkpt>
      <trkpt lat="37.3158260" lon="-4.2634780">
        <ele>708.8</ele>
        <time>2020-07-11T06:33:07Z</time>
      </trkpt>
      <trkpt lat="37.3160120" lon="-4.2633200">
        <ele>706.8</ele>
        <time>2020-07-11T06:33:09Z</time>
      </trkpt>
      <trkpt lat="37.3161060" lon="-4.2632350">
        <ele>706.0</ele>
        <time>2020-07-11T06:33:10Z</time>
      </trkpt>
      <trkpt lat="37.3161990" lon="-4.2631600">
        <ele>705.0</ele>
        <time>2020-07-11T06:33:11Z</time>
      </trkpt>
      <trkpt lat="37.3164180" lon="-4.2630030">
        <ele>703.4</ele>
        <time>2020-07-11T06:33:13Z</time>
      </trkpt>
      <trkpt lat="37.3166800" lon="-4.2628210">
        <ele>701.4</ele>
        <time>2020-07-11T06:33:15Z</time>
      </trkpt>
      <trkpt lat="37.3167570" lon="-4.2627510">
        <ele>700.4</ele>
        <time>2020-07-11T06:33:16Z</time>
      </trkpt>
      <trkpt lat="37.3168440" lon="-4.2626490">
        <ele>699.0</ele>
        <time>2020-07-11T06:33:17Z</time>
      </trkpt>
      <trkpt lat="37.3169150" lon="-4.2625560">
        <ele>697.8</ele>
        <time>2020-07-11T06:33:18Z</time>
      </trkpt>
      <trkpt lat="37.3170540" lon="-4.2623900">
        <ele>696.0</ele>
        <time>2020-07-11T06:33:20Z</time>
      </trkpt>
      <trkpt lat="37.3171300" lon="-4.2623450">
        <ele>695.2</ele>
        <time>2020-07-11T06:33:21Z</time>
      </trkpt>
      <trkpt lat="37.3172160" lon="-4.2623260">
        <ele>694.8</ele>
        <time>2020-07-11T06:33:22Z</time>
      </trkpt>
      <trkpt lat="37.3173890" lon="-4.2623280">
        <ele>694.4</ele>
        <time>2020-07-11T06:33:24Z</time>
      </trkpt>
      <trkpt lat="37.3174730" lon="-4.2623160">
        <ele>694.0</ele>
        <time>2020-07-11T06:33:25Z</time>
      </trkpt>
      <trkpt lat="37.3175490" lon="-4.2622880">
        <ele>693.8</ele>
        <time>2020-07-11T06:33:26Z</time>
      </trkpt>
      <trkpt lat="37.3176240" lon="-4.2622340">
        <ele>693.4</ele>
        <time>2020-07-11T06:33:27Z</time>
      </trkpt>
      <trkpt lat="37.3177390" lon="-4.2619910">
        <ele>692.6</ele>
        <time>2020-07-11T06:33:30Z</time>
      </trkpt>
      <trkpt lat="37.3177010" lon="-4.2618120">
        <ele>692.4</ele>
        <time>2020-07-11T06:33:32Z</time>
      </trkpt>
      <trkpt lat="37.3176720" lon="-4.2617520">
        <ele>692.2</ele>
        <time>2020-07-11T06:33:33Z</time>
      </trkpt>
      <trkpt lat="37.3176310" lon="-4.2616710">
        <ele>692.2</ele>
        <time>2020-07-11T06:33:34Z</time>
      </trkpt>
      <trkpt lat="37.3175850" lon="-4.2615620">
        <ele>692.0</ele>
        <time>2020-07-11T06:33:35Z</time>
      </trkpt>
      <trkpt lat="37.3175570" lon="-4.2614700">
        <ele>692.0</ele>
        <time>2020-07-11T06:33:36Z</time>
      </trkpt>
      <trkpt lat="37.3175100" lon="-4.2611330">
        <ele>691.6</ele>
        <time>2020-07-11T06:33:39Z</time>
      </trkpt>
      <trkpt lat="37.3174610" lon="-4.2608890">
        <ele>691.0</ele>
        <time>2020-07-11T06:33:41Z</time>
      </trkpt>
      <trkpt lat="37.3174150" lon="-4.2607660">
        <ele>690.4</ele>
        <time>2020-07-11T06:33:42Z</time>
      </trkpt>
      <trkpt lat="37.3173640" lon="-4.2606540">
        <ele>690.0</ele>
        <time>2020-07-11T06:33:43Z</time>
      </trkpt>
      <trkpt lat="37.3172690" lon="-4.2604200">
        <ele>689.0</ele>
        <time>2020-07-11T06:33:45Z</time>
      </trkpt>
      <trkpt lat="37.3171520" lon="-4.2600680">
        <ele>687.8</ele>
        <time>2020-07-11T06:33:48Z</time>
      </trkpt>
      <trkpt lat="37.3170170" lon="-4.2596190">
        <ele>686.6</ele>
        <time>2020-07-11T06:33:52Z</time>
      </trkpt>
      <trkpt lat="37.3170030" lon="-4.2594880">
        <ele>686.4</ele>
        <time>2020-07-11T06:33:53Z</time>
      </trkpt>
      <trkpt lat="37.3170020" lon="-4.2589360">
        <ele>685.6</ele>
        <time>2020-07-11T06:33:58Z</time>
      </trkpt>
      <trkpt lat="37.3169920" lon="-4.2583360">
        <ele>685.2</ele>
        <time>2020-07-11T06:34:04Z</time>
      </trkpt>
      <trkpt lat="37.3169640" lon="-4.2580750">
        <ele>685.8</ele>
        <time>2020-07-11T06:34:07Z</time>
      </trkpt>
      <trkpt lat="37.3169260" lon="-4.2579280">
        <ele>686.2</ele>
        <time>2020-07-11T06:34:09Z</time>
      </trkpt>
      <trkpt lat="37.3169100" lon="-4.2578650">
        <ele>686.6</ele>
        <time>2020-07-11T06:34:10Z</time>
      </trkpt>
      <trkpt lat="37.3168500" lon="-4.2577350">
        <ele>687.0</ele>
        <time>2020-07-11T06:34:12Z</time>
      </trkpt>
      <trkpt lat="37.3167970" lon="-4.2576870">
        <ele>687.2</ele>
        <time>2020-07-11T06:34:13Z</time>
      </trkpt>
      <trkpt lat="37.3165790" lon="-4.2575460">
        <ele>687.4</ele>
        <time>2020-07-11T06:34:16Z</time>
      </trkpt>
      <trkpt lat="37.3163010" lon="-4.2573500">
        <ele>685.4</ele>
        <time>2020-07-11T06:34:19Z</time>
      </trkpt>
      <trkpt lat="37.3162310" lon="-4.2572750">
        <ele>684.2</ele>
        <time>2020-07-11T06:34:20Z</time>
      </trkpt>
      <trkpt lat="37.3161880" lon="-4.2571930">
        <ele>683.2</ele>
        <time>2020-07-11T06:34:21Z</time>
      </trkpt>
      <trkpt lat="37.3161530" lon="-4.2570840">
        <ele>682.0</ele>
        <time>2020-07-11T06:34:22Z</time>
      </trkpt>
      <trkpt lat="37.3160940" lon="-4.2568450">
        <ele>680.6</ele>
        <time>2020-07-11T06:34:24Z</time>
      </trkpt>
      <trkpt lat="37.3160570" lon="-4.2567380">
        <ele>679.8</ele>
        <time>2020-07-11T06:34:25Z</time>
      </trkpt>
      <trkpt lat="37.3160140" lon="-4.2566390">
        <ele>679.0</ele>
        <time>2020-07-11T06:34:26Z</time>
      </trkpt>
      <trkpt lat="37.3158980" lon="-4.2564100">
        <ele>676.8</ele>
        <time>2020-07-11T06:34:28Z</time>
      </trkpt>
      <trkpt lat="37.3158410" lon="-4.2562960">
        <ele>675.6</ele>
        <time>2020-07-11T06:34:29Z</time>
      </trkpt>
      <trkpt lat="37.3157990" lon="-4.2562070">
        <ele>674.6</ele>
        <time>2020-07-11T06:34:30Z</time>
      </trkpt>
      <trkpt lat="37.3157750" lon="-4.2561400">
        <ele>673.6</ele>
        <time>2020-07-11T06:34:31Z</time>
      </trkpt>
      <trkpt lat="37.3157600" lon="-4.2560670">
        <ele>672.6</ele>
        <time>2020-07-11T06:34:32Z</time>
      </trkpt>
      <trkpt lat="37.3157610" lon="-4.2560020">
        <ele>671.8</ele>
        <time>2020-07-11T06:34:33Z</time>
      </trkpt>
      <trkpt lat="37.3157700" lon="-4.2559460">
        <ele>671.2</ele>
        <time>2020-07-11T06:34:34Z</time>
      </trkpt>
      <trkpt lat="37.3158130" lon="-4.2558230">
        <ele>670.2</ele>
        <time>2020-07-11T06:34:36Z</time>
      </trkpt>
      <trkpt lat="37.3158410" lon="-4.2557570">
        <ele>669.8</ele>
        <time>2020-07-11T06:34:37Z</time>
      </trkpt>
      <trkpt lat="37.3158650" lon="-4.2556970">
        <ele>669.6</ele>
        <time>2020-07-11T06:34:38Z</time>
      </trkpt>
      <trkpt lat="37.3159340" lon="-4.2555160">
        <ele>669.8</ele>
        <time>2020-07-11T06:34:41Z</time>
      </trkpt>
      <trkpt lat="37.3160260" lon="-4.2552540">
        <ele>670.2</ele>
        <time>2020-07-11T06:34:45Z</time>
      </trkpt>
      <trkpt lat="37.3161210" lon="-4.2550230">
        <ele>670.8</ele>
        <time>2020-07-11T06:34:49Z</time>
      </trkpt>
      <trkpt lat="37.3161760" lon="-4.2549140">
        <ele>671.4</ele>
        <time>2020-07-11T06:34:51Z</time>
      </trkpt>
      <trkpt lat="37.3162070" lon="-4.2548660">
        <ele>671.6</ele>
        <time>2020-07-11T06:34:52Z</time>
      </trkpt>
      <trkpt lat="37.3163020" lon="-4.2547300">
        <ele>672.2</ele>
        <time>2020-07-11T06:34:55Z</time>
      </trkpt>
      <trkpt lat="37.3163570" lon="-4.2546500">
        <ele>672.6</ele>
        <time>2020-07-11T06:34:57Z</time>
      </trkpt>
      <trkpt lat="37.3163830" lon="-4.2546180">
        <ele>672.8</ele>
        <time>2020-07-11T06:34:58Z</time>
      </trkpt>
      <trkpt lat="37.3164700" lon="-4.2545110">
        <ele>673.4</ele>
        <time>2020-07-11T06:35:01Z</time>
      </trkpt>
      <trkpt lat="37.3165000" lon="-4.2544740">
        <ele>673.6</ele>
        <time>2020-07-11T06:35:02Z</time>
      </trkpt>
      <trkpt lat="37.3165770" lon="-4.2543830">
        <ele>674.6</ele>
        <time>2020-07-11T06:35:05Z</time>
      </trkpt>
      <trkpt lat="37.3166060" lon="-4.2543460">
        <ele>675.0</ele>
        <time>2020-07-11T06:35:06Z</time>
      </trkpt>
      <trkpt lat="37.3166600" lon="-4.2542780">
        <ele>675.6</ele>
        <time>2020-07-11T06:35:08Z</time>
      </trkpt>
      <trkpt lat="37.3167050" lon="-4.2542220">
        <ele>676.2</ele>
        <time>2020-07-11T06:35:10Z</time>
      </trkpt>
      <trkpt lat="37.3168000" lon="-4.2541060">
        <ele>677.2</ele>
        <time>2020-07-11T06:35:14Z</time>
      </trkpt>
      <trkpt lat="37.3168720" lon="-4.2540180">
        <ele>678.0</ele>
        <time>2020-07-11T06:35:17Z</time>
      </trkpt>
      <trkpt lat="37.3168960" lon="-4.2539930">
        <ele>678.4</ele>
        <time>2020-07-11T06:35:18Z</time>
      </trkpt>
      <trkpt lat="37.3170290" lon="-4.2538160">
        <ele>679.6</ele>
        <time>2020-07-11T06:35:24Z</time>
      </trkpt>
      <trkpt lat="37.3170870" lon="-4.2537330">
        <ele>680.6</ele>
        <time>2020-07-11T06:35:27Z</time>
      </trkpt>
      <trkpt lat="37.3171850" lon="-4.2535960">
        <ele>681.8</ele>
        <time>2020-07-11T06:35:32Z</time>
      </trkpt>
      <trkpt lat="37.3172220" lon="-4.2535480">
        <ele>682.2</ele>
        <time>2020-07-11T06:35:34Z</time>
      </trkpt>
      <trkpt lat="37.3172800" lon="-4.2534700">
        <ele>683.0</ele>
        <time>2020-07-11T06:35:37Z</time>
      </trkpt>
      <trkpt lat="37.3173780" lon="-4.2533030">
        <ele>684.2</ele>
        <time>2020-07-11T06:35:43Z</time>
      </trkpt>
      <trkpt lat="37.3173930" lon="-4.2532770">
        <ele>684.4</ele>
        <time>2020-07-11T06:35:44Z</time>
      </trkpt>
      <trkpt lat="37.3174530" lon="-4.2531760">
        <ele>685.2</ele>
        <time>2020-07-11T06:35:48Z</time>
      </trkpt>
      <trkpt lat="37.3175100" lon="-4.2530720">
        <ele>686.6</ele>
        <time>2020-07-11T06:35:52Z</time>
      </trkpt>
      <trkpt lat="37.3175780" lon="-4.2529560">
        <ele>688.0</ele>
        <time>2020-07-11T06:35:56Z</time>
      </trkpt>
      <trkpt lat="37.3176170" lon="-4.2528930">
        <ele>688.4</ele>
        <time>2020-07-11T06:35:58Z</time>
      </trkpt>
      <trkpt lat="37.3176860" lon="-4.2527510">
        <ele>689.0</ele>
        <time>2020-07-11T06:36:02Z</time>
      </trkpt>
      <trkpt lat="37.3177520" lon="-4.2526180">
        <ele>689.4</ele>
        <time>2020-07-11T06:36:06Z</time>
      </trkpt>
      <trkpt lat="37.3178160" lon="-4.2524930">
        <ele>690.4</ele>
        <time>2020-07-11T06:36:10Z</time>
      </trkpt>
      <trkpt lat="37.3178480" lon="-4.2524280">
        <ele>691.0</ele>
        <time>2020-07-11T06:36:12Z</time>
      </trkpt>
      <trkpt lat="37.3178880" lon="-4.2523090">
        <ele>691.6</ele>
        <time>2020-07-11T06:36:15Z</time>
      </trkpt>
      <trkpt lat="37.3179080" lon="-4.2522100">
        <ele>691.8</ele>
        <time>2020-07-11T06:36:17Z</time>
      </trkpt>
      <trkpt lat="37.3179110" lon="-4.2521540">
        <ele>692.0</ele>
        <time>2020-07-11T06:36:18Z</time>
      </trkpt>
      <trkpt lat="37.3179100" lon="-4.2520970">
        <ele>692.0</ele>
        <time>2020-07-11T06:36:19Z</time>
      </trkpt>
      <trkpt lat="37.3178400" lon="-4.2519410">
        <ele>692.0</ele>
        <time>2020-07-11T06:36:22Z</time>
      </trkpt>
      <trkpt lat="37.3177760" lon="-4.2518630">
        <ele>692.0</ele>
        <time>2020-07-11T06:36:24Z</time>
      </trkpt>
      <trkpt lat="37.3176920" lon="-4.2517520">
        <ele>692.6</ele>
        <time>2020-07-11T06:36:27Z</time>
      </trkpt>
      <trkpt lat="37.3176700" lon="-4.2517160">
        <ele>692.8</ele>
        <time>2020-07-11T06:36:28Z</time>
      </trkpt>
      <trkpt lat="37.3176210" lon="-4.2515900">
        <ele>693.8</ele>
        <time>2020-07-11T06:36:31Z</time>
      </trkpt>
      <trkpt lat="37.3176120" lon="-4.2515380">
        <ele>694.2</ele>
        <time>2020-07-11T06:36:32Z</time>
      </trkpt>
      <trkpt lat="37.3176010" lon="-4.2514180">
        <ele>694.6</ele>
        <time>2020-07-11T06:36:34Z</time>
      </trkpt>
      <trkpt lat="37.3176110" lon="-4.2513020">
        <ele>694.8</ele>
        <time>2020-07-11T06:36:36Z</time>
      </trkpt>
      <trkpt lat="37.3176440" lon="-4.2511600">
        <ele>694.8</ele>
        <time>2020-07-11T06:36:38Z</time>
      </trkpt>
      <trkpt lat="37.3177260" lon="-4.2508820">
        <ele>694.6</ele>
        <time>2020-07-11T06:36:42Z</time>
      </trkpt>
      <trkpt lat="37.3178600" lon="-4.2504600">
        <ele>694.4</ele>
        <time>2020-07-11T06:36:48Z</time>
      </trkpt>
      <trkpt lat="37.3179060" lon="-4.2503140">
        <ele>694.4</ele>
        <time>2020-07-11T06:36:50Z</time>
      </trkpt>
      <trkpt lat="37.3180390" lon="-4.2499180">
        <ele>693.8</ele>
        <time>2020-07-11T06:36:55Z</time>
      </trkpt>
      <trkpt lat="37.3180990" lon="-4.2497460">
        <ele>693.2</ele>
        <time>2020-07-11T06:36:57Z</time>
      </trkpt>
      <trkpt lat="37.3181810" lon="-4.2495080">
        <ele>692.8</ele>
        <time>2020-07-11T06:37:00Z</time>
      </trkpt>
      <trkpt lat="37.3182540" lon="-4.2493200">
        <ele>693.0</ele>
        <time>2020-07-11T06:37:03Z</time>
      </trkpt>
      <trkpt lat="37.3183010" lon="-4.2491720">
        <ele>694.0</ele>
        <time>2020-07-11T06:37:06Z</time>
      </trkpt>
      <trkpt lat="37.3183340" lon="-4.2490820">
        <ele>694.8</ele>
        <time>2020-07-11T06:37:08Z</time>
      </trkpt>
      <trkpt lat="37.3183500" lon="-4.2490390">
        <ele>695.2</ele>
        <time>2020-07-11T06:37:09Z</time>
      </trkpt>
      <trkpt lat="37.3183930" lon="-4.2489190">
        <ele>696.2</ele>
        <time>2020-07-11T06:37:12Z</time>
      </trkpt>
      <trkpt lat="37.3184270" lon="-4.2487990">
        <ele>697.4</ele>
        <time>2020-07-11T06:37:15Z</time>
      </trkpt>
      <trkpt lat="37.3184390" lon="-4.2487630">
        <ele>697.6</ele>
        <time>2020-07-11T06:37:16Z</time>
      </trkpt>
      <trkpt lat="37.3184860" lon="-4.2486430">
        <ele>698.6</ele>
        <time>2020-07-11T06:37:19Z</time>
      </trkpt>
      <trkpt lat="37.3185730" lon="-4.2484940">
        <ele>699.8</ele>
        <time>2020-07-11T06:37:23Z</time>
      </trkpt>
      <trkpt lat="37.3187130" lon="-4.2482660">
        <ele>700.6</ele>
        <time>2020-07-11T06:37:28Z</time>
      </trkpt>
      <trkpt lat="37.3187440" lon="-4.2482240">
        <ele>700.8</ele>
        <time>2020-07-11T06:37:29Z</time>
      </trkpt>
      <trkpt lat="37.3188130" lon="-4.2481310">
        <ele>700.8</ele>
        <time>2020-07-11T06:37:31Z</time>
      </trkpt>
      <trkpt lat="37.3189090" lon="-4.2479680">
        <ele>701.0</ele>
        <time>2020-07-11T06:37:34Z</time>
      </trkpt>
      <trkpt lat="37.3189250" lon="-4.2479080">
        <ele>701.0</ele>
        <time>2020-07-11T06:37:35Z</time>
      </trkpt>
      <trkpt lat="37.3189050" lon="-4.2477060">
        <ele>701.0</ele>
        <time>2020-07-11T06:37:38Z</time>
      </trkpt>
      <trkpt lat="37.3188450" lon="-4.2475900">
        <ele>701.0</ele>
        <time>2020-07-11T06:37:40Z</time>
      </trkpt>
      <trkpt lat="37.3187590" lon="-4.2474240">
        <ele>701.4</ele>
        <time>2020-07-11T06:37:43Z</time>
      </trkpt>
      <trkpt lat="37.3186900" lon="-4.2472120">
        <ele>702.0</ele>
        <time>2020-07-11T06:37:47Z</time>
      </trkpt>
      <trkpt lat="37.3186770" lon="-4.2471170">
        <ele>702.4</ele>
        <time>2020-07-11T06:37:49Z</time>
      </trkpt>
      <trkpt lat="37.3186730" lon="-4.2470370">
        <ele>703.0</ele>
        <time>2020-07-11T06:37:51Z</time>
      </trkpt>
      <trkpt lat="37.3186760" lon="-4.2469190">
        <ele>704.2</ele>
        <time>2020-07-11T06:37:54Z</time>
      </trkpt>
      <trkpt lat="37.3186820" lon="-4.2468490">
        <ele>704.8</ele>
        <time>2020-07-11T06:37:56Z</time>
      </trkpt>
      <trkpt lat="37.3186840" lon="-4.2468090">
        <ele>705.2</ele>
        <time>2020-07-11T06:37:57Z</time>
      </trkpt>
      <trkpt lat="37.3186990" lon="-4.2466610">
        <ele>706.4</ele>
        <time>2020-07-11T06:38:01Z</time>
      </trkpt>
      <trkpt lat="37.3186970" lon="-4.2465800">
        <ele>707.0</ele>
        <time>2020-07-11T06:38:03Z</time>
      </trkpt>
      <trkpt lat="37.3187020" lon="-4.2465030">
        <ele>707.4</ele>
        <time>2020-07-11T06:38:05Z</time>
      </trkpt>
      <trkpt lat="37.3187140" lon="-4.2463490">
        <ele>708.8</ele>
        <time>2020-07-11T06:38:09Z</time>
      </trkpt>
      <trkpt lat="37.3187200" lon="-4.2463120">
        <ele>709.0</ele>
        <time>2020-07-11T06:38:10Z</time>
      </trkpt>
      <trkpt lat="37.3187460" lon="-4.2462010">
        <ele>710.0</ele>
        <time>2020-07-11T06:38:13Z</time>
      </trkpt>
      <trkpt lat="37.3188050" lon="-4.2460460">
        <ele>711.0</ele>
        <time>2020-07-11T06:38:17Z</time>
      </trkpt>
      <trkpt lat="37.3189320" lon="-4.2458000">
        <ele>712.2</ele>
        <time>2020-07-11T06:38:23Z</time>
      </trkpt>
      <trkpt lat="37.3189920" lon="-4.2457110">
        <ele>712.6</ele>
        <time>2020-07-11T06:38:25Z</time>
      </trkpt>
      <trkpt lat="37.3191290" lon="-4.2454810">
        <ele>712.4</ele>
        <time>2020-07-11T06:38:29Z</time>
      </trkpt>
      <trkpt lat="37.3191650" lon="-4.2454070">
        <ele>712.4</ele>
        <time>2020-07-11T06:38:30Z</time>
      </trkpt>
      <trkpt lat="37.3191650" lon="-4.2452900">
        <ele>712.2</ele>
        <time>2020-07-11T06:38:31Z</time>
      </trkpt>
      <trkpt lat="37.3191620" lon="-4.2451720">
        <ele>711.8</ele>
        <time>2020-07-11T06:38:32Z</time>
      </trkpt>
      <trkpt lat="37.3191490" lon="-4.2449350">
        <ele>710.6</ele>
        <time>2020-07-11T06:38:34Z</time>
      </trkpt>
      <trkpt lat="37.3191520" lon="-4.2446970">
        <ele>709.2</ele>
        <time>2020-07-11T06:38:36Z</time>
      </trkpt>
      <trkpt lat="37.3191640" lon="-4.2445680">
        <ele>708.4</ele>
        <time>2020-07-11T06:38:37Z</time>
      </trkpt>
      <trkpt lat="37.3191760" lon="-4.2444450">
        <ele>707.8</ele>
        <time>2020-07-11T06:38:38Z</time>
      </trkpt>
      <trkpt lat="37.3191990" lon="-4.2442020">
        <ele>706.8</ele>
        <time>2020-07-11T06:38:40Z</time>
      </trkpt>
      <trkpt lat="37.3192410" lon="-4.2439630">
        <ele>706.2</ele>
        <time>2020-07-11T06:38:42Z</time>
      </trkpt>
      <trkpt lat="37.3192660" lon="-4.2438450">
        <ele>705.8</ele>
        <time>2020-07-11T06:38:43Z</time>
      </trkpt>
      <trkpt lat="37.3193180" lon="-4.2436040">
        <ele>705.0</ele>
        <time>2020-07-11T06:38:45Z</time>
      </trkpt>
      <trkpt lat="37.3193730" lon="-4.2433680">
        <ele>704.4</ele>
        <time>2020-07-11T06:38:47Z</time>
      </trkpt>
      <trkpt lat="37.3194320" lon="-4.2431220">
        <ele>703.8</ele>
        <time>2020-07-11T06:38:49Z</time>
      </trkpt>
      <trkpt lat="37.3194860" lon="-4.2428960">
        <ele>703.2</ele>
        <time>2020-07-11T06:38:51Z</time>
      </trkpt>
      <trkpt lat="37.3195410" lon="-4.2426690">
        <ele>702.8</ele>
        <time>2020-07-11T06:38:53Z</time>
      </trkpt>
      <trkpt lat="37.3195970" lon="-4.2424440">
        <ele>702.6</ele>
        <time>2020-07-11T06:38:55Z</time>
      </trkpt>
      <trkpt lat="37.3196500" lon="-4.2422360">
        <ele>702.2</ele>
        <time>2020-07-11T06:38:57Z</time>
      </trkpt>
      <trkpt lat="37.3197030" lon="-4.2420420">
        <ele>702.2</ele>
        <time>2020-07-11T06:38:59Z</time>
      </trkpt>
      <trkpt lat="37.3198220" lon="-4.2414940">
        <ele>702.8</ele>
        <time>2020-07-11T06:39:05Z</time>
      </trkpt>
      <trkpt lat="37.3199450" lon="-4.2408000">
        <ele>702.8</ele>
        <time>2020-07-11T06:39:13Z</time>
      </trkpt>
      <trkpt lat="37.3199420" lon="-4.2407170">
        <ele>702.8</ele>
        <time>2020-07-11T06:39:14Z</time>
      </trkpt>
      <trkpt lat="37.3199250" lon="-4.2405730">
        <ele>702.8</ele>
        <time>2020-07-11T06:39:16Z</time>
      </trkpt>
      <trkpt lat="37.3199140" lon="-4.2405120">
        <ele>703.0</ele>
        <time>2020-07-11T06:39:17Z</time>
      </trkpt>
      <trkpt lat="37.3198980" lon="-4.2404380">
        <ele>703.2</ele>
        <time>2020-07-11T06:39:18Z</time>
      </trkpt>
      <trkpt lat="37.3198840" lon="-4.2403750">
        <ele>703.6</ele>
        <time>2020-07-11T06:39:19Z</time>
      </trkpt>
      <trkpt lat="37.3198600" lon="-4.2402490">
        <ele>704.4</ele>
        <time>2020-07-11T06:39:21Z</time>
      </trkpt>
      <trkpt lat="37.3198520" lon="-4.2401720">
        <ele>704.6</ele>
        <time>2020-07-11T06:39:22Z</time>
      </trkpt>
      <trkpt lat="37.3198600" lon="-4.2400060">
        <ele>705.2</ele>
        <time>2020-07-11T06:39:24Z</time>
      </trkpt>
      <trkpt lat="37.3199680" lon="-4.2397690">
        <ele>705.0</ele>
        <time>2020-07-11T06:39:27Z</time>
      </trkpt>
      <trkpt lat="37.3200700" lon="-4.2396360">
        <ele>704.4</ele>
        <time>2020-07-11T06:39:29Z</time>
      </trkpt>
      <trkpt lat="37.3202720" lon="-4.2393810">
        <ele>703.8</ele>
        <time>2020-07-11T06:39:33Z</time>
      </trkpt>
      <trkpt lat="37.3204860" lon="-4.2391740">
        <ele>705.0</ele>
        <time>2020-07-11T06:39:38Z</time>
      </trkpt>
      <trkpt lat="37.3205620" lon="-4.2391150">
        <ele>705.6</ele>
        <time>2020-07-11T06:39:40Z</time>
      </trkpt>
      <trkpt lat="37.3207070" lon="-4.2390190">
        <ele>706.8</ele>
        <time>2020-07-11T06:39:44Z</time>
      </trkpt>
      <trkpt lat="37.3208030" lon="-4.2389580">
        <ele>707.8</ele>
        <time>2020-07-11T06:39:47Z</time>
      </trkpt>
      <trkpt lat="37.3208630" lon="-4.2389110">
        <ele>708.8</ele>
        <time>2020-07-11T06:39:49Z</time>
      </trkpt>
      <trkpt lat="37.3208870" lon="-4.2388830">
        <ele>709.4</ele>
        <time>2020-07-11T06:39:50Z</time>
      </trkpt>
      <trkpt lat="37.3209080" lon="-4.2388490">
        <ele>709.6</ele>
        <time>2020-07-11T06:39:51Z</time>
      </trkpt>
      <trkpt lat="37.3209270" lon="-4.2387210">
        <ele>710.6</ele>
        <time>2020-07-11T06:39:54Z</time>
      </trkpt>
      <trkpt lat="37.3209180" lon="-4.2386830">
        <ele>711.0</ele>
        <time>2020-07-11T06:39:55Z</time>
      </trkpt>
      <trkpt lat="37.3208870" lon="-4.2385920">
        <ele>711.8</ele>
        <time>2020-07-11T06:39:57Z</time>
      </trkpt>
      <trkpt lat="37.3208340" lon="-4.2384350">
        <ele>713.0</ele>
        <time>2020-07-11T06:40:00Z</time>
      </trkpt>
      <trkpt lat="37.3207040" lon="-4.2379350">
        <ele>713.8</ele>
        <time>2020-07-11T06:40:09Z</time>
      </trkpt>
      <trkpt lat="37.3205220" lon="-4.2372740">
        <ele>713.8</ele>
        <time>2020-07-11T06:40:19Z</time>
      </trkpt>
      <trkpt lat="37.3203030" lon="-4.2367790">
        <ele>713.6</ele>
        <time>2020-07-11T06:40:26Z</time>
      </trkpt>
      <trkpt lat="37.3201330" lon="-4.2364180">
        <ele>713.2</ele>
        <time>2020-07-11T06:40:31Z</time>
      </trkpt>
      <trkpt lat="37.3200350" lon="-4.2362030">
        <ele>713.0</ele>
        <time>2020-07-11T06:40:34Z</time>
      </trkpt>
      <trkpt lat="37.3199710" lon="-4.2360590">
        <ele>713.2</ele>
        <time>2020-07-11T06:40:36Z</time>
      </trkpt>
      <trkpt lat="37.3199380" lon="-4.2359830">
        <ele>713.2</ele>
        <time>2020-07-11T06:40:37Z</time>
      </trkpt>
      <trkpt lat="37.3198990" lon="-4.2359030">
        <ele>713.2</ele>
        <time>2020-07-11T06:40:38Z</time>
      </trkpt>
      <trkpt lat="37.3198050" lon="-4.2357620">
        <ele>713.0</ele>
        <time>2020-07-11T06:40:40Z</time>
      </trkpt>
      <trkpt lat="37.3196930" lon="-4.2356410">
        <ele>712.8</ele>
        <time>2020-07-11T06:40:42Z</time>
      </trkpt>
      <trkpt lat="37.3194750" lon="-4.2354430">
        <ele>711.8</ele>
        <time>2020-07-11T06:40:45Z</time>
      </trkpt>
      <trkpt lat="37.3193960" lon="-4.2354090">
        <ele>711.4</ele>
        <time>2020-07-11T06:40:46Z</time>
      </trkpt>
      <trkpt lat="37.3193180" lon="-4.2354050">
        <ele>710.8</ele>
        <time>2020-07-11T06:40:47Z</time>
      </trkpt>
      <trkpt lat="37.3192370" lon="-4.2354340">
        <ele>710.0</ele>
        <time>2020-07-11T06:40:48Z</time>
      </trkpt>
      <trkpt lat="37.3191510" lon="-4.2355030">
        <ele>709.2</ele>
        <time>2020-07-11T06:40:49Z</time>
      </trkpt>
      <trkpt lat="37.3190940" lon="-4.2356000">
        <ele>708.4</ele>
        <time>2020-07-11T06:40:50Z</time>
      </trkpt>
      <trkpt lat="37.3190580" lon="-4.2357190">
        <ele>707.6</ele>
        <time>2020-07-11T06:40:51Z</time>
      </trkpt>
      <trkpt lat="37.3190290" lon="-4.2358480">
        <ele>706.6</ele>
        <time>2020-07-11T06:40:52Z</time>
      </trkpt>
      <trkpt lat="37.3190010" lon="-4.2359760">
        <ele>705.8</ele>
        <time>2020-07-11T06:40:53Z</time>
      </trkpt>
      <trkpt lat="37.3189490" lon="-4.2360820">
        <ele>705.0</ele>
        <time>2020-07-11T06:40:54Z</time>
      </trkpt>
      <trkpt lat="37.3188710" lon="-4.2361740">
        <ele>704.2</ele>
        <time>2020-07-11T06:40:55Z</time>
      </trkpt>
      <trkpt lat="37.3186610" lon="-4.2362890">
        <ele>703.2</ele>
        <time>2020-07-11T06:40:57Z</time>
      </trkpt>
      <trkpt lat="37.3185450" lon="-4.2363470">
        <ele>702.6</ele>
        <time>2020-07-11T06:40:58Z</time>
      </trkpt>
      <trkpt lat="37.3184310" lon="-4.2364060">
        <ele>702.0</ele>
        <time>2020-07-11T06:40:59Z</time>
      </trkpt>
      <trkpt lat="37.3183260" lon="-4.2364700">
        <ele>701.0</ele>
        <time>2020-07-11T06:41:00Z</time>
      </trkpt>
      <trkpt lat="37.3182130" lon="-4.2365250">
        <ele>700.4</ele>
        <time>2020-07-11T06:41:01Z</time>
      </trkpt>
      <trkpt lat="37.3181040" lon="-4.2365670">
        <ele>699.0</ele>
        <time>2020-07-11T06:41:02Z</time>
      </trkpt>
      <trkpt lat="37.3179880" lon="-4.2365820">
        <ele>697.8</ele>
        <time>2020-07-11T06:41:03Z</time>
      </trkpt>
      <trkpt lat="37.3178880" lon="-4.2365640">
        <ele>696.6</ele>
        <time>2020-07-11T06:41:04Z</time>
      </trkpt>
      <trkpt lat="37.3177970" lon="-4.2365170">
        <ele>695.6</ele>
        <time>2020-07-11T06:41:05Z</time>
      </trkpt>
      <trkpt lat="37.3177190" lon="-4.2364260">
        <ele>694.4</ele>
        <time>2020-07-11T06:41:06Z</time>
      </trkpt>
      <trkpt lat="37.3176630" lon="-4.2363140">
        <ele>693.6</ele>
        <time>2020-07-11T06:41:07Z</time>
      </trkpt>
      <trkpt lat="37.3176390" lon="-4.2362060">
        <ele>692.8</ele>
        <time>2020-07-11T06:41:08Z</time>
      </trkpt>
      <trkpt lat="37.3176190" lon="-4.2360440">
        <ele>692.2</ele>
        <time>2020-07-11T06:41:09Z</time>
      </trkpt>
      <trkpt lat="37.3176150" lon="-4.2359060">
        <ele>691.2</ele>
        <time>2020-07-11T06:41:10Z</time>
      </trkpt>
      <trkpt lat="37.3176110" lon="-4.2357700">
        <ele>690.4</ele>
        <time>2020-07-11T06:41:11Z</time>
      </trkpt>
      <trkpt lat="37.3176010" lon="-4.2356400">
        <ele>690.0</ele>
        <time>2020-07-11T06:41:12Z</time>
      </trkpt>
      <trkpt lat="37.3175570" lon="-4.2354890">
        <ele>689.2</ele>
        <time>2020-07-11T06:41:13Z</time>
      </trkpt>
      <trkpt lat="37.3174930" lon="-4.2353650">
        <ele>688.4</ele>
        <time>2020-07-11T06:41:14Z</time>
      </trkpt>
      <trkpt lat="37.3173520" lon="-4.2351190">
        <ele>687.2</ele>
        <time>2020-07-11T06:41:16Z</time>
      </trkpt>
      <trkpt lat="37.3172140" lon="-4.2348800">
        <ele>685.8</ele>
        <time>2020-07-11T06:41:18Z</time>
      </trkpt>
      <trkpt lat="37.3171290" lon="-4.2347750">
        <ele>685.2</ele>
        <time>2020-07-11T06:41:19Z</time>
      </trkpt>
      <trkpt lat="37.3170300" lon="-4.2346940">
        <ele>684.2</ele>
        <time>2020-07-11T06:41:20Z</time>
      </trkpt>
      <trkpt lat="37.3168210" lon="-4.2345910">
        <ele>682.2</ele>
        <time>2020-07-11T06:41:22Z</time>
      </trkpt>
      <trkpt lat="37.3167220" lon="-4.2345710">
        <ele>681.2</ele>
        <time>2020-07-11T06:41:23Z</time>
      </trkpt>
      <trkpt lat="37.3165250" lon="-4.2346680">
        <ele>679.4</ele>
        <time>2020-07-11T06:41:25Z</time>
      </trkpt>
      <trkpt lat="37.3164430" lon="-4.2347480">
        <ele>678.4</ele>
        <time>2020-07-11T06:41:26Z</time>
      </trkpt>
      <trkpt lat="37.3162320" lon="-4.2348330">
        <ele>676.6</ele>
        <time>2020-07-11T06:41:28Z</time>
      </trkpt>
      <trkpt lat="37.3159970" lon="-4.2348300">
        <ele>675.2</ele>
        <time>2020-07-11T06:41:30Z</time>
      </trkpt>
      <trkpt lat="37.3158630" lon="-4.2347950">
        <ele>674.6</ele>
        <time>2020-07-11T06:41:31Z</time>
      </trkpt>
      <trkpt lat="37.3157570" lon="-4.2347560">
        <ele>673.8</ele>
        <time>2020-07-11T06:41:32Z</time>
      </trkpt>
      <trkpt lat="37.3155120" lon="-4.2346170">
        <ele>672.2</ele>
        <time>2020-07-11T06:41:34Z</time>
      </trkpt>
      <trkpt lat="37.3153940" lon="-4.2345320">
        <ele>671.0</ele>
        <time>2020-07-11T06:41:35Z</time>
      </trkpt>
      <trkpt lat="37.3152810" lon="-4.2344570">
        <ele>670.0</ele>
        <time>2020-07-11T06:41:36Z</time>
      </trkpt>
      <trkpt lat="37.3151490" lon="-4.2343980">
        <ele>669.0</ele>
        <time>2020-07-11T06:41:37Z</time>
      </trkpt>
      <trkpt lat="37.3150120" lon="-4.2343600">
        <ele>667.8</ele>
        <time>2020-07-11T06:41:38Z</time>
      </trkpt>
      <trkpt lat="37.3148780" lon="-4.2343310">
        <ele>666.6</ele>
        <time>2020-07-11T06:41:39Z</time>
      </trkpt>
      <trkpt lat="37.3147470" lon="-4.2343090">
        <ele>665.6</ele>
        <time>2020-07-11T06:41:40Z</time>
      </trkpt>
      <trkpt lat="37.3146070" lon="-4.2342820">
        <ele>664.6</ele>
        <time>2020-07-11T06:41:41Z</time>
      </trkpt>
      <trkpt lat="37.3145030" lon="-4.2342600">
        <ele>663.8</ele>
        <time>2020-07-11T06:41:42Z</time>
      </trkpt>
      <trkpt lat="37.3143570" lon="-4.2342290">
        <ele>663.0</ele>
        <time>2020-07-11T06:41:43Z</time>
      </trkpt>
      <trkpt lat="37.3140920" lon="-4.2341770">
        <ele>661.4</ele>
        <time>2020-07-11T06:41:45Z</time>
      </trkpt>
      <trkpt lat="37.3138310" lon="-4.2341270">
        <ele>659.8</ele>
        <time>2020-07-11T06:41:47Z</time>
      </trkpt>
      <trkpt lat="37.3135630" lon="-4.2340760">
        <ele>658.0</ele>
        <time>2020-07-11T06:41:49Z</time>
      </trkpt>
      <trkpt lat="37.3134430" lon="-4.2340570">
        <ele>656.8</ele>
        <time>2020-07-11T06:41:50Z</time>
      </trkpt>
      <trkpt lat="37.3133270" lon="-4.2340400">
        <ele>656.0</ele>
        <time>2020-07-11T06:41:51Z</time>
      </trkpt>
      <trkpt lat="37.3132170" lon="-4.2340140">
        <ele>655.0</ele>
        <time>2020-07-11T06:41:52Z</time>
      </trkpt>
      <trkpt lat="37.3131060" lon="-4.2339610">
        <ele>654.4</ele>
        <time>2020-07-11T06:41:53Z</time>
      </trkpt>
      <trkpt lat="37.3130180" lon="-4.2338850">
        <ele>654.0</ele>
        <time>2020-07-11T06:41:54Z</time>
      </trkpt>
      <trkpt lat="37.3129400" lon="-4.2337780">
        <ele>653.8</ele>
        <time>2020-07-11T06:41:55Z</time>
      </trkpt>
      <trkpt lat="37.3128900" lon="-4.2336640">
        <ele>653.4</ele>
        <time>2020-07-11T06:41:56Z</time>
      </trkpt>
      <trkpt lat="37.3128010" lon="-4.2332740">
        <ele>652.4</ele>
        <time>2020-07-11T06:41:59Z</time>
      </trkpt>
      <trkpt lat="37.3127470" lon="-4.2330190">
        <ele>651.8</ele>
        <time>2020-07-11T06:42:01Z</time>
      </trkpt>
      <trkpt lat="37.3126910" lon="-4.2327580">
        <ele>651.4</ele>
        <time>2020-07-11T06:42:03Z</time>
      </trkpt>
      <trkpt lat="37.3126580" lon="-4.2326300">
        <ele>651.2</ele>
        <time>2020-07-11T06:42:04Z</time>
      </trkpt>
      <trkpt lat="37.3125880" lon="-4.2324020">
        <ele>650.6</ele>
        <time>2020-07-11T06:42:06Z</time>
      </trkpt>
      <trkpt lat="37.3125360" lon="-4.2322880">
        <ele>650.2</ele>
        <time>2020-07-11T06:42:07Z</time>
      </trkpt>
      <trkpt lat="37.3124100" lon="-4.2320730">
        <ele>649.0</ele>
        <time>2020-07-11T06:42:09Z</time>
      </trkpt>
      <trkpt lat="37.3123460" lon="-4.2319710">
        <ele>648.6</ele>
        <time>2020-07-11T06:42:10Z</time>
      </trkpt>
      <trkpt lat="37.3122280" lon="-4.2317760">
        <ele>647.8</ele>
        <time>2020-07-11T06:42:12Z</time>
      </trkpt>
      <trkpt lat="37.3120380" lon="-4.2314450">
        <ele>647.0</ele>
        <time>2020-07-11T06:42:15Z</time>
      </trkpt>
      <trkpt lat="37.3119780" lon="-4.2313420">
        <ele>646.4</ele>
        <time>2020-07-11T06:42:16Z</time>
      </trkpt>
      <trkpt lat="37.3118780" lon="-4.2311100">
        <ele>646.0</ele>
        <time>2020-07-11T06:42:18Z</time>
      </trkpt>
      <trkpt lat="37.3118250" lon="-4.2308360">
        <ele>645.2</ele>
        <time>2020-07-11T06:42:20Z</time>
      </trkpt>
      <trkpt lat="37.3118180" lon="-4.2306990">
        <ele>645.0</ele>
        <time>2020-07-11T06:42:21Z</time>
      </trkpt>
      <trkpt lat="37.3118250" lon="-4.2304130">
        <ele>644.0</ele>
        <time>2020-07-11T06:42:23Z</time>
      </trkpt>
      <trkpt lat="37.3118600" lon="-4.2301310">
        <ele>642.8</ele>
        <time>2020-07-11T06:42:25Z</time>
      </trkpt>
      <trkpt lat="37.3118810" lon="-4.2299870">
        <ele>642.0</ele>
        <time>2020-07-11T06:42:26Z</time>
      </trkpt>
      <trkpt lat="37.3119110" lon="-4.2298480">
        <ele>641.0</ele>
        <time>2020-07-11T06:42:27Z</time>
      </trkpt>
      <trkpt lat="37.3119900" lon="-4.2295510">
        <ele>639.2</ele>
        <time>2020-07-11T06:42:29Z</time>
      </trkpt>
      <trkpt lat="37.3120330" lon="-4.2294130">
        <ele>638.2</ele>
        <time>2020-07-11T06:42:30Z</time>
      </trkpt>
      <trkpt lat="37.3120800" lon="-4.2292610">
        <ele>637.4</ele>
        <time>2020-07-11T06:42:31Z</time>
      </trkpt>
      <trkpt lat="37.3121410" lon="-4.2289460">
        <ele>635.8</ele>
        <time>2020-07-11T06:42:33Z</time>
      </trkpt>
      <trkpt lat="37.3121520" lon="-4.2287850">
        <ele>634.8</ele>
        <time>2020-07-11T06:42:34Z</time>
      </trkpt>
      <trkpt lat="37.3121580" lon="-4.2286260">
        <ele>633.8</ele>
        <time>2020-07-11T06:42:35Z</time>
      </trkpt>
      <trkpt lat="37.3121810" lon="-4.2283210">
        <ele>632.2</ele>
        <time>2020-07-11T06:42:37Z</time>
      </trkpt>
      <trkpt lat="37.3122160" lon="-4.2280050">
        <ele>631.0</ele>
        <time>2020-07-11T06:42:39Z</time>
      </trkpt>
      <trkpt lat="37.3122600" lon="-4.2276960">
        <ele>629.6</ele>
        <time>2020-07-11T06:42:41Z</time>
      </trkpt>
      <trkpt lat="37.3123020" lon="-4.2272330">
        <ele>628.4</ele>
        <time>2020-07-11T06:42:44Z</time>
      </trkpt>
      <trkpt lat="37.3122810" lon="-4.2270810">
        <ele>628.0</ele>
        <time>2020-07-11T06:42:45Z</time>
      </trkpt>
      <trkpt lat="37.3122020" lon="-4.2267990">
        <ele>626.6</ele>
        <time>2020-07-11T06:42:47Z</time>
      </trkpt>
      <trkpt lat="37.3121610" lon="-4.2266650">
        <ele>625.8</ele>
        <time>2020-07-11T06:42:48Z</time>
      </trkpt>
      <trkpt lat="37.3121250" lon="-4.2265180">
        <ele>625.0</ele>
        <time>2020-07-11T06:42:49Z</time>
      </trkpt>
      <trkpt lat="37.3121070" lon="-4.2263740">
        <ele>624.2</ele>
        <time>2020-07-11T06:42:50Z</time>
      </trkpt>
      <trkpt lat="37.3121200" lon="-4.2262380">
        <ele>623.6</ele>
        <time>2020-07-11T06:42:51Z</time>
      </trkpt>
      <trkpt lat="37.3122220" lon="-4.2259630">
        <ele>622.8</ele>
        <time>2020-07-11T06:42:53Z</time>
      </trkpt>
      <trkpt lat="37.3123080" lon="-4.2258580">
        <ele>622.4</ele>
        <time>2020-07-11T06:42:54Z</time>
      </trkpt>
      <trkpt lat="37.3124260" lon="-4.2257680">
        <ele>621.6</ele>
        <time>2020-07-11T06:42:55Z</time>
      </trkpt>
      <trkpt lat="37.3125440" lon="-4.2257100">
        <ele>621.0</ele>
        <time>2020-07-11T06:42:56Z</time>
      </trkpt>
      <trkpt lat="37.3127980" lon="-4.2256150">
        <ele>619.0</ele>
        <time>2020-07-11T06:42:58Z</time>
      </trkpt>
      <trkpt lat="37.3130160" lon="-4.2254690">
        <ele>617.2</ele>
        <time>2020-07-11T06:43:00Z</time>
      </trkpt>
      <trkpt lat="37.3131030" lon="-4.2253550">
        <ele>616.4</ele>
        <time>2020-07-11T06:43:01Z</time>
      </trkpt>
      <trkpt lat="37.3131590" lon="-4.2252270">
        <ele>615.8</ele>
        <time>2020-07-11T06:43:02Z</time>
      </trkpt>
      <trkpt lat="37.3131970" lon="-4.2250850">
        <ele>615.2</ele>
        <time>2020-07-11T06:43:03Z</time>
      </trkpt>
      <trkpt lat="37.3132080" lon="-4.2249460">
        <ele>614.8</ele>
        <time>2020-07-11T06:43:04Z</time>
      </trkpt>
      <trkpt lat="37.3131900" lon="-4.2248150">
        <ele>614.6</ele>
        <time>2020-07-11T06:43:05Z</time>
      </trkpt>
      <trkpt lat="37.3131140" lon="-4.2246070">
        <ele>614.4</ele>
        <time>2020-07-11T06:43:07Z</time>
      </trkpt>
      <trkpt lat="37.3130660" lon="-4.2245000">
        <ele>614.4</ele>
        <time>2020-07-11T06:43:08Z</time>
      </trkpt>
      <trkpt lat="37.3130190" lon="-4.2244030">
        <ele>614.6</ele>
        <time>2020-07-11T06:43:09Z</time>
      </trkpt>
      <trkpt lat="37.3129790" lon="-4.2243120">
        <ele>614.8</ele>
        <time>2020-07-11T06:43:10Z</time>
      </trkpt>
      <trkpt lat="37.3129370" lon="-4.2242200">
        <ele>615.2</ele>
        <time>2020-07-11T06:43:11Z</time>
      </trkpt>
      <trkpt lat="37.3128620" lon="-4.2240450">
        <ele>615.8</ele>
        <time>2020-07-11T06:43:13Z</time>
      </trkpt>
      <trkpt lat="37.3128250" lon="-4.2239600">
        <ele>616.2</ele>
        <time>2020-07-11T06:43:14Z</time>
      </trkpt>
      <trkpt lat="37.3127040" lon="-4.2237340">
        <ele>617.0</ele>
        <time>2020-07-11T06:43:17Z</time>
      </trkpt>
      <trkpt lat="37.3126080" lon="-4.2235920">
        <ele>617.4</ele>
        <time>2020-07-11T06:43:19Z</time>
      </trkpt>
      <trkpt lat="37.3125620" lon="-4.2235250">
        <ele>617.4</ele>
        <time>2020-07-11T06:43:20Z</time>
      </trkpt>
      <trkpt lat="37.3124400" lon="-4.2233310">
        <ele>617.6</ele>
        <time>2020-07-11T06:43:23Z</time>
      </trkpt>
      <trkpt lat="37.3123790" lon="-4.2231980">
        <ele>618.0</ele>
        <time>2020-07-11T06:43:25Z</time>
      </trkpt>
      <trkpt lat="37.3123550" lon="-4.2231310">
        <ele>618.2</ele>
        <time>2020-07-11T06:43:26Z</time>
      </trkpt>
      <trkpt lat="37.3123380" lon="-4.2230660">
        <ele>618.2</ele>
        <time>2020-07-11T06:43:27Z</time>
      </trkpt>
      <trkpt lat="37.3123160" lon="-4.2229310">
        <ele>618.8</ele>
        <time>2020-07-11T06:43:29Z</time>
      </trkpt>
      <trkpt lat="37.3123050" lon="-4.2228120">
        <ele>619.2</ele>
        <time>2020-07-11T06:43:31Z</time>
      </trkpt>
      <trkpt lat="37.3123020" lon="-4.2226930">
        <ele>620.2</ele>
        <time>2020-07-11T06:43:33Z</time>
      </trkpt>
      <trkpt lat="37.3123070" lon="-4.2226370">
        <ele>620.8</ele>
        <time>2020-07-11T06:43:34Z</time>
      </trkpt>
      <trkpt lat="37.3123280" lon="-4.2224750">
        <ele>621.8</ele>
        <time>2020-07-11T06:43:37Z</time>
      </trkpt>
      <trkpt lat="37.3123640" lon="-4.2223070">
        <ele>622.8</ele>
        <time>2020-07-11T06:43:40Z</time>
      </trkpt>
      <trkpt lat="37.3123780" lon="-4.2222550">
        <ele>623.0</ele>
        <time>2020-07-11T06:43:41Z</time>
      </trkpt>
      <trkpt lat="37.3124330" lon="-4.2220190">
        <ele>623.6</ele>
        <time>2020-07-11T06:43:45Z</time>
      </trkpt>
      <trkpt lat="37.3124960" lon="-4.2217720">
        <ele>624.0</ele>
        <time>2020-07-11T06:43:49Z</time>
      </trkpt>
      <trkpt lat="37.3125580" lon="-4.2215230">
        <ele>624.4</ele>
        <time>2020-07-11T06:43:53Z</time>
      </trkpt>
      <trkpt lat="37.3126580" lon="-4.2211110">
        <ele>625.2</ele>
        <time>2020-07-11T06:44:00Z</time>
      </trkpt>
      <trkpt lat="37.3126940" lon="-4.2209370">
        <ele>625.6</ele>
        <time>2020-07-11T06:44:03Z</time>
      </trkpt>
      <trkpt lat="37.3127240" lon="-4.2207920">
        <ele>625.8</ele>
        <time>2020-07-11T06:44:06Z</time>
      </trkpt>
      <trkpt lat="37.3127460" lon="-4.2206730">
        <ele>626.2</ele>
        <time>2020-07-11T06:44:08Z</time>
      </trkpt>
      <trkpt lat="37.3127600" lon="-4.2205790">
        <ele>626.6</ele>
        <time>2020-07-11T06:44:10Z</time>
      </trkpt>
      <trkpt lat="37.3127840" lon="-4.2204470">
        <ele>627.4</ele>
        <time>2020-07-11T06:44:13Z</time>
      </trkpt>
      <trkpt lat="37.3127920" lon="-4.2203780">
        <ele>628.2</ele>
        <time>2020-07-11T06:44:17Z</time>
      </trkpt>
      <trkpt lat="37.3128110" lon="-4.2203410">
        <ele>628.0</ele>
        <time>2020-07-11T06:45:28Z</time>
      </trkpt>
      <trkpt lat="37.3128260" lon="-4.2203170">
        <ele>628.0</ele>
        <time>2020-07-11T06:45:29Z</time>
      </trkpt>
      <trkpt lat="37.3128500" lon="-4.2202860">
        <ele>628.0</ele>
        <time>2020-07-11T06:45:30Z</time>
      </trkpt>
      <trkpt lat="37.3129940" lon="-4.2200910">
        <ele>627.6</ele>
        <time>2020-07-11T06:45:34Z</time>
      </trkpt>
      <trkpt lat="37.3130810" lon="-4.2199610">
        <ele>627.0</ele>
        <time>2020-07-11T06:45:36Z</time>
      </trkpt>
      <trkpt lat="37.3131300" lon="-4.2198770">
        <ele>626.8</ele>
        <time>2020-07-11T06:45:37Z</time>
      </trkpt>
      <trkpt lat="37.3131780" lon="-4.2197780">
        <ele>626.4</ele>
        <time>2020-07-11T06:45:38Z</time>
      </trkpt>
      <trkpt lat="37.3132230" lon="-4.2196770">
        <ele>626.0</ele>
        <time>2020-07-11T06:45:39Z</time>
      </trkpt>
      <trkpt lat="37.3133440" lon="-4.2193460">
        <ele>624.6</ele>
        <time>2020-07-11T06:45:42Z</time>
      </trkpt>
      <trkpt lat="37.3134670" lon="-4.2189590">
        <ele>623.2</ele>
        <time>2020-07-11T06:45:45Z</time>
      </trkpt>
      <trkpt lat="37.3135330" lon="-4.2187010">
        <ele>622.0</ele>
        <time>2020-07-11T06:45:47Z</time>
      </trkpt>
      <trkpt lat="37.3135590" lon="-4.2185660">
        <ele>621.4</ele>
        <time>2020-07-11T06:45:48Z</time>
      </trkpt>
      <trkpt lat="37.3135850" lon="-4.2184230">
        <ele>620.6</ele>
        <time>2020-07-11T06:45:49Z</time>
      </trkpt>
      <trkpt lat="37.3136340" lon="-4.2181570">
        <ele>619.4</ele>
        <time>2020-07-11T06:45:51Z</time>
      </trkpt>
      <trkpt lat="37.3137010" lon="-4.2178910">
        <ele>618.4</ele>
        <time>2020-07-11T06:45:53Z</time>
      </trkpt>
      <trkpt lat="37.3137390" lon="-4.2177730">
        <ele>618.2</ele>
        <time>2020-07-11T06:45:54Z</time>
      </trkpt>
      <trkpt lat="37.3138690" lon="-4.2173950">
        <ele>617.4</ele>
        <time>2020-07-11T06:45:57Z</time>
      </trkpt>
      <trkpt lat="37.3139570" lon="-4.2169910">
        <ele>616.4</ele>
        <time>2020-07-11T06:46:00Z</time>
      </trkpt>
      <trkpt lat="37.3139690" lon="-4.2168440">
        <ele>615.8</ele>
        <time>2020-07-11T06:46:01Z</time>
      </trkpt>
      <trkpt lat="37.3139680" lon="-4.2163980">
        <ele>614.6</ele>
        <time>2020-07-11T06:46:04Z</time>
      </trkpt>
      <trkpt lat="37.3139670" lon="-4.2161140">
        <ele>613.4</ele>
        <time>2020-07-11T06:46:06Z</time>
      </trkpt>
      <trkpt lat="37.3139880" lon="-4.2156470">
        <ele>612.0</ele>
        <time>2020-07-11T06:46:09Z</time>
      </trkpt>
      <trkpt lat="37.3140450" lon="-4.2153430">
        <ele>610.8</ele>
        <time>2020-07-11T06:46:11Z</time>
      </trkpt>
      <trkpt lat="37.3141350" lon="-4.2150440">
        <ele>609.0</ele>
        <time>2020-07-11T06:46:13Z</time>
      </trkpt>
      <trkpt lat="37.3141900" lon="-4.2148940">
        <ele>608.2</ele>
        <time>2020-07-11T06:46:14Z</time>
      </trkpt>
      <trkpt lat="37.3142470" lon="-4.2147420">
        <ele>607.2</ele>
        <time>2020-07-11T06:46:15Z</time>
      </trkpt>
      <trkpt lat="37.3143650" lon="-4.2144440">
        <ele>605.2</ele>
        <time>2020-07-11T06:46:17Z</time>
      </trkpt>
      <trkpt lat="37.3144250" lon="-4.2142900">
        <ele>604.0</ele>
        <time>2020-07-11T06:46:18Z</time>
      </trkpt>
      <trkpt lat="37.3144900" lon="-4.2141310">
        <ele>603.0</ele>
        <time>2020-07-11T06:46:19Z</time>
      </trkpt>
      <trkpt lat="37.3146270" lon="-4.2138400">
        <ele>601.2</ele>
        <time>2020-07-11T06:46:21Z</time>
      </trkpt>
      <trkpt lat="37.3147020" lon="-4.2137100">
        <ele>600.4</ele>
        <time>2020-07-11T06:46:22Z</time>
      </trkpt>
      <trkpt lat="37.3147920" lon="-4.2135680">
        <ele>599.4</ele>
        <time>2020-07-11T06:46:23Z</time>
      </trkpt>
      <trkpt lat="37.3149820" lon="-4.2133150">
        <ele>598.0</ele>
        <time>2020-07-11T06:46:25Z</time>
      </trkpt>
      <trkpt lat="37.3150800" lon="-4.2131900">
        <ele>597.4</ele>
        <time>2020-07-11T06:46:26Z</time>
      </trkpt>
      <trkpt lat="37.3151750" lon="-4.2130720">
        <ele>596.8</ele>
        <time>2020-07-11T06:46:27Z</time>
      </trkpt>
      <trkpt lat="37.3153690" lon="-4.2128050">
        <ele>594.8</ele>
        <time>2020-07-11T06:46:29Z</time>
      </trkpt>
      <trkpt lat="37.3154370" lon="-4.2126660">
        <ele>594.2</ele>
        <time>2020-07-11T06:46:30Z</time>
      </trkpt>
      <trkpt lat="37.3154990" lon="-4.2124920">
        <ele>593.4</ele>
        <time>2020-07-11T06:46:31Z</time>
      </trkpt>
      <trkpt lat="37.3155390" lon="-4.2123300">
        <ele>592.0</ele>
        <time>2020-07-11T06:46:32Z</time>
      </trkpt>
      <trkpt lat="37.3155790" lon="-4.2121430">
        <ele>590.8</ele>
        <time>2020-07-11T06:46:33Z</time>
      </trkpt>
      <trkpt lat="37.3156120" lon="-4.2119650">
        <ele>589.2</ele>
        <time>2020-07-11T06:46:34Z</time>
      </trkpt>
      <trkpt lat="37.3156420" lon="-4.2117890">
        <ele>587.6</ele>
        <time>2020-07-11T06:46:35Z</time>
      </trkpt>
      <trkpt lat="37.3156670" lon="-4.2116360">
        <ele>586.4</ele>
        <time>2020-07-11T06:46:36Z</time>
      </trkpt>
      <trkpt lat="37.3156970" lon="-4.2114580">
        <ele>585.4</ele>
        <time>2020-07-11T06:46:37Z</time>
      </trkpt>
      <trkpt lat="37.3157280" lon="-4.2112860">
        <ele>584.4</ele>
        <time>2020-07-11T06:46:38Z</time>
      </trkpt>
      <trkpt lat="37.3157820" lon="-4.2109630">
        <ele>583.0</ele>
        <time>2020-07-11T06:46:40Z</time>
      </trkpt>
      <trkpt lat="37.3157920" lon="-4.2106630">
        <ele>582.2</ele>
        <time>2020-07-11T06:46:42Z</time>
      </trkpt>
      <trkpt lat="37.3157670" lon="-4.2104750">
        <ele>581.6</ele>
        <time>2020-07-11T06:46:43Z</time>
      </trkpt>
      <trkpt lat="37.3156570" lon="-4.2101770">
        <ele>580.4</ele>
        <time>2020-07-11T06:46:45Z</time>
      </trkpt>
      <trkpt lat="37.3155750" lon="-4.2100430">
        <ele>579.6</ele>
        <time>2020-07-11T06:46:46Z</time>
      </trkpt>
      <trkpt lat="37.3154970" lon="-4.2099350">
        <ele>578.8</ele>
        <time>2020-07-11T06:46:47Z</time>
      </trkpt>
      <trkpt lat="37.3154210" lon="-4.2098090">
        <ele>578.2</ele>
        <time>2020-07-11T06:46:48Z</time>
      </trkpt>
      <trkpt lat="37.3153500" lon="-4.2096630">
        <ele>577.4</ele>
        <time>2020-07-11T06:46:49Z</time>
      </trkpt>
      <trkpt lat="37.3152970" lon="-4.2095230">
        <ele>576.6</ele>
        <time>2020-07-11T06:46:50Z</time>
      </trkpt>
      <trkpt lat="37.3152600" lon="-4.2093770">
        <ele>576.0</ele>
        <time>2020-07-11T06:46:51Z</time>
      </trkpt>
      <trkpt lat="37.3152460" lon="-4.2092490">
        <ele>575.8</ele>
        <time>2020-07-11T06:46:52Z</time>
      </trkpt>
      <trkpt lat="37.3152530" lon="-4.2091020">
        <ele>575.4</ele>
        <time>2020-07-11T06:46:53Z</time>
      </trkpt>
      <trkpt lat="37.3153260" lon="-4.2088070">
        <ele>575.2</ele>
        <time>2020-07-11T06:46:55Z</time>
      </trkpt>
      <trkpt lat="37.3153520" lon="-4.2086560">
        <ele>575.0</ele>
        <time>2020-07-11T06:46:56Z</time>
      </trkpt>
      <trkpt lat="37.3153360" lon="-4.2083440">
        <ele>573.8</ele>
        <time>2020-07-11T06:46:58Z</time>
      </trkpt>
      <trkpt lat="37.3153020" lon="-4.2081920">
        <ele>573.2</ele>
        <time>2020-07-11T06:46:59Z</time>
      </trkpt>
      <trkpt lat="37.3152660" lon="-4.2080580">
        <ele>572.4</ele>
        <time>2020-07-11T06:47:00Z</time>
      </trkpt>
      <trkpt lat="37.3152270" lon="-4.2078860">
        <ele>571.6</ele>
        <time>2020-07-11T06:47:01Z</time>
      </trkpt>
      <trkpt lat="37.3152070" lon="-4.2077500">
        <ele>570.8</ele>
        <time>2020-07-11T06:47:02Z</time>
      </trkpt>
      <trkpt lat="37.3151870" lon="-4.2075750">
        <ele>570.0</ele>
        <time>2020-07-11T06:47:03Z</time>
      </trkpt>
      <trkpt lat="37.3151740" lon="-4.2074170">
        <ele>569.4</ele>
        <time>2020-07-11T06:47:04Z</time>
      </trkpt>
      <trkpt lat="37.3151620" lon="-4.2072580">
        <ele>568.6</ele>
        <time>2020-07-11T06:47:05Z</time>
      </trkpt>
      <trkpt lat="37.3151540" lon="-4.2071240">
        <ele>568.0</ele>
        <time>2020-07-11T06:47:06Z</time>
      </trkpt>
      <trkpt lat="37.3151460" lon="-4.2069790">
        <ele>567.8</ele>
        <time>2020-07-11T06:47:07Z</time>
      </trkpt>
      <trkpt lat="37.3151270" lon="-4.2066130">
        <ele>566.8</ele>
        <time>2020-07-11T06:47:09Z</time>
      </trkpt>
      <trkpt lat="37.3151240" lon="-4.2062680">
        <ele>565.6</ele>
        <time>2020-07-11T06:47:11Z</time>
      </trkpt>
      <trkpt lat="37.3151560" lon="-4.2059300">
        <ele>564.2</ele>
        <time>2020-07-11T06:47:13Z</time>
      </trkpt>
      <trkpt lat="37.3151860" lon="-4.2057670">
        <ele>563.2</ele>
        <time>2020-07-11T06:47:14Z</time>
      </trkpt>
      <trkpt lat="37.3152230" lon="-4.2056030">
        <ele>562.4</ele>
        <time>2020-07-11T06:47:15Z</time>
      </trkpt>
      <trkpt lat="37.3152940" lon="-4.2053160">
        <ele>561.0</ele>
        <time>2020-07-11T06:47:17Z</time>
      </trkpt>
      <trkpt lat="37.3153270" lon="-4.2051740">
        <ele>560.4</ele>
        <time>2020-07-11T06:47:18Z</time>
      </trkpt>
      <trkpt lat="37.3153590" lon="-4.2050080">
        <ele>560.0</ele>
        <time>2020-07-11T06:47:19Z</time>
      </trkpt>
      <trkpt lat="37.3153840" lon="-4.2045910">
        <ele>559.6</ele>
        <time>2020-07-11T06:47:22Z</time>
      </trkpt>
      <trkpt lat="37.3153460" lon="-4.2041750">
        <ele>559.4</ele>
        <time>2020-07-11T06:47:25Z</time>
      </trkpt>
      <trkpt lat="37.3153300" lon="-4.2040590">
        <ele>559.2</ele>
        <time>2020-07-11T06:47:26Z</time>
      </trkpt>
      <trkpt lat="37.3152940" lon="-4.2038120">
        <ele>559.4</ele>
        <time>2020-07-11T06:47:28Z</time>
      </trkpt>
      <trkpt lat="37.3152830" lon="-4.2036030">
        <ele>559.6</ele>
        <time>2020-07-11T06:47:30Z</time>
      </trkpt>
      <trkpt lat="37.3152890" lon="-4.2034920">
        <ele>559.8</ele>
        <time>2020-07-11T06:47:31Z</time>
      </trkpt>
      <trkpt lat="37.3153290" lon="-4.2032680">
        <ele>560.6</ele>
        <time>2020-07-11T06:47:33Z</time>
      </trkpt>
      <trkpt lat="37.3153820" lon="-4.2030560">
        <ele>560.8</ele>
        <time>2020-07-11T06:47:35Z</time>
      </trkpt>
      <trkpt lat="37.3154520" lon="-4.2027310">
        <ele>560.8</ele>
        <time>2020-07-11T06:47:38Z</time>
      </trkpt>
      <trkpt lat="37.3155420" lon="-4.2023140">
        <ele>560.6</ele>
        <time>2020-07-11T06:47:42Z</time>
      </trkpt>
      <trkpt lat="37.3155780" lon="-4.2021910">
        <ele>560.6</ele>
        <time>2020-07-11T06:47:43Z</time>
      </trkpt>
      <trkpt lat="37.3156670" lon="-4.2019910">
        <ele>560.4</ele>
        <time>2020-07-11T06:47:45Z</time>
      </trkpt>
      <trkpt lat="37.3157660" lon="-4.2018170">
        <ele>560.2</ele>
        <time>2020-07-11T06:47:47Z</time>
      </trkpt>
      <trkpt lat="37.3159320" lon="-4.2015540">
        <ele>559.8</ele>
        <time>2020-07-11T06:47:50Z</time>
      </trkpt>
      <trkpt lat="37.3160660" lon="-4.2014130">
        <ele>559.6</ele>
        <time>2020-07-11T06:47:52Z</time>
      </trkpt>
      <trkpt lat="37.3163910" lon="-4.2011700">
        <ele>558.8</ele>
        <time>2020-07-11T06:47:56Z</time>
      </trkpt>
      <trkpt lat="37.3164860" lon="-4.2011280">
        <ele>558.6</ele>
        <time>2020-07-11T06:47:57Z</time>
      </trkpt>
      <trkpt lat="37.3167060" lon="-4.2010600">
        <ele>557.8</ele>
        <time>2020-07-11T06:47:59Z</time>
      </trkpt>
      <trkpt lat="37.3169300" lon="-4.2009860">
        <ele>556.6</ele>
        <time>2020-07-11T06:48:01Z</time>
      </trkpt>
      <trkpt lat="37.3170400" lon="-4.2009260">
        <ele>555.6</ele>
        <time>2020-07-11T06:48:02Z</time>
      </trkpt>
      <trkpt lat="37.3171570" lon="-4.2008430">
        <ele>554.6</ele>
        <time>2020-07-11T06:48:03Z</time>
      </trkpt>
      <trkpt lat="37.3172580" lon="-4.2007470">
        <ele>553.4</ele>
        <time>2020-07-11T06:48:04Z</time>
      </trkpt>
      <trkpt lat="37.3173530" lon="-4.2006420">
        <ele>552.4</ele>
        <time>2020-07-11T06:48:05Z</time>
      </trkpt>
      <trkpt lat="37.3174400" lon="-4.2005390">
        <ele>551.4</ele>
        <time>2020-07-11T06:48:06Z</time>
      </trkpt>
      <trkpt lat="37.3175330" lon="-4.2004290">
        <ele>550.6</ele>
        <time>2020-07-11T06:48:07Z</time>
      </trkpt>
      <trkpt lat="37.3176310" lon="-4.2003070">
        <ele>549.8</ele>
        <time>2020-07-11T06:48:08Z</time>
      </trkpt>
      <trkpt lat="37.3177110" lon="-4.2001810">
        <ele>549.0</ele>
        <time>2020-07-11T06:48:09Z</time>
      </trkpt>
      <trkpt lat="37.3178470" lon="-4.1999190">
        <ele>547.4</ele>
        <time>2020-07-11T06:48:11Z</time>
      </trkpt>
      <trkpt lat="37.3179860" lon="-4.1996640">
        <ele>546.0</ele>
        <time>2020-07-11T06:48:13Z</time>
      </trkpt>
      <trkpt lat="37.3180620" lon="-4.1995430">
        <ele>545.6</ele>
        <time>2020-07-11T06:48:14Z</time>
      </trkpt>
      <trkpt lat="37.3181470" lon="-4.1994110">
        <ele>545.0</ele>
        <time>2020-07-11T06:48:15Z</time>
      </trkpt>
      <trkpt lat="37.3182140" lon="-4.1992920">
        <ele>544.4</ele>
        <time>2020-07-11T06:48:16Z</time>
      </trkpt>
      <trkpt lat="37.3182760" lon="-4.1991620">
        <ele>543.6</ele>
        <time>2020-07-11T06:48:17Z</time>
      </trkpt>
      <trkpt lat="37.3183290" lon="-4.1990210">
        <ele>543.2</ele>
        <time>2020-07-11T06:48:18Z</time>
      </trkpt>
      <trkpt lat="37.3183790" lon="-4.1988580">
        <ele>542.6</ele>
        <time>2020-07-11T06:48:19Z</time>
      </trkpt>
      <trkpt lat="37.3184110" lon="-4.1987200">
        <ele>541.8</ele>
        <time>2020-07-11T06:48:20Z</time>
      </trkpt>
      <trkpt lat="37.3184400" lon="-4.1985620">
        <ele>541.0</ele>
        <time>2020-07-11T06:48:21Z</time>
      </trkpt>
      <trkpt lat="37.3184790" lon="-4.1982640">
        <ele>539.4</ele>
        <time>2020-07-11T06:48:23Z</time>
      </trkpt>
      <trkpt lat="37.3184950" lon="-4.1981340">
        <ele>539.0</ele>
        <time>2020-07-11T06:48:24Z</time>
      </trkpt>
      <trkpt lat="37.3185180" lon="-4.1979710">
        <ele>538.4</ele>
        <time>2020-07-11T06:48:25Z</time>
      </trkpt>
      <trkpt lat="37.3185970" lon="-4.1974000">
        <ele>537.4</ele>
        <time>2020-07-11T06:48:29Z</time>
      </trkpt>
      <trkpt lat="37.3186720" lon="-4.1971360">
        <ele>536.8</ele>
        <time>2020-07-11T06:48:31Z</time>
      </trkpt>
      <trkpt lat="37.3187180" lon="-4.1970250">
        <ele>536.6</ele>
        <time>2020-07-11T06:48:32Z</time>
      </trkpt>
      <trkpt lat="37.3187810" lon="-4.1968960">
        <ele>536.4</ele>
        <time>2020-07-11T06:48:33Z</time>
      </trkpt>
      <trkpt lat="37.3189010" lon="-4.1966740">
        <ele>536.2</ele>
        <time>2020-07-11T06:48:35Z</time>
      </trkpt>
      <trkpt lat="37.3189900" lon="-4.1964470">
        <ele>535.8</ele>
        <time>2020-07-11T06:48:37Z</time>
      </trkpt>
      <trkpt lat="37.3190590" lon="-4.1961960">
        <ele>535.6</ele>
        <time>2020-07-11T06:48:39Z</time>
      </trkpt>
      <trkpt lat="37.3191970" lon="-4.1956760">
        <ele>535.8</ele>
        <time>2020-07-11T06:48:44Z</time>
      </trkpt>
      <trkpt lat="37.3193710" lon="-4.1950160">
        <ele>535.4</ele>
        <time>2020-07-11T06:48:51Z</time>
      </trkpt>
      <trkpt lat="37.3193950" lon="-4.1949150">
        <ele>535.2</ele>
        <time>2020-07-11T06:48:52Z</time>
      </trkpt>
      <trkpt lat="37.3194200" lon="-4.1946940">
        <ele>534.4</ele>
        <time>2020-07-11T06:48:54Z</time>
      </trkpt>
      <trkpt lat="37.3194210" lon="-4.1945690">
        <ele>533.8</ele>
        <time>2020-07-11T06:48:55Z</time>
      </trkpt>
      <trkpt lat="37.3194200" lon="-4.1944780">
        <ele>533.6</ele>
        <time>2020-07-11T06:48:56Z</time>
      </trkpt>
      <trkpt lat="37.3194100" lon="-4.1942580">
        <ele>532.6</ele>
        <time>2020-07-11T06:48:58Z</time>
      </trkpt>
      <trkpt lat="37.3193970" lon="-4.1938620">
        <ele>532.0</ele>
        <time>2020-07-11T06:49:02Z</time>
      </trkpt>
      <trkpt lat="37.3193330" lon="-4.1934880">
        <ele>531.6</ele>
        <time>2020-07-11T06:49:06Z</time>
      </trkpt>
      <trkpt lat="37.3193050" lon="-4.1934010">
        <ele>531.4</ele>
        <time>2020-07-11T06:49:07Z</time>
      </trkpt>
      <trkpt lat="37.3191560" lon="-4.1930020">
        <ele>530.4</ele>
        <time>2020-07-11T06:49:12Z</time>
      </trkpt>
      <trkpt lat="37.3191340" lon="-4.1929530">
        <ele>530.4</ele>
        <time>2020-07-11T06:49:13Z</time>
      </trkpt>
      <trkpt lat="37.3190070" lon="-4.1926650">
        <ele>530.0</ele>
        <time>2020-07-11T06:49:16Z</time>
      </trkpt>
      <trkpt lat="37.3188110" lon="-4.1922590">
        <ele>529.6</ele>
        <time>2020-07-11T06:49:21Z</time>
      </trkpt>
      <trkpt lat="37.3186900" lon="-4.1920510">
        <ele>529.8</ele>
        <time>2020-07-11T06:49:24Z</time>
      </trkpt>
      <trkpt lat="37.3186000" lon="-4.1919040">
        <ele>529.8</ele>
        <time>2020-07-11T06:49:26Z</time>
      </trkpt>
      <trkpt lat="37.3182290" lon="-4.1913060">
        <ele>529.4</ele>
        <time>2020-07-11T06:49:34Z</time>
      </trkpt>
      <trkpt lat="37.3179670" lon="-4.1909160">
        <ele>528.4</ele>
        <time>2020-07-11T06:49:39Z</time>
      </trkpt>
      <trkpt lat="37.3179140" lon="-4.1908390">
        <ele>528.0</ele>
        <time>2020-07-11T06:49:40Z</time>
      </trkpt>
      <trkpt lat="37.3177450" lon="-4.1906230">
        <ele>527.8</ele>
        <time>2020-07-11T06:49:43Z</time>
      </trkpt>
      <trkpt lat="37.3175300" lon="-4.1903600">
        <ele>527.6</ele>
        <time>2020-07-11T06:49:47Z</time>
      </trkpt>
      <trkpt lat="37.3174800" lon="-4.1902980">
        <ele>527.6</ele>
        <time>2020-07-11T06:49:48Z</time>
      </trkpt>
      <trkpt lat="37.3173260" lon="-4.1901110">
        <ele>527.8</ele>
        <time>2020-07-11T06:49:51Z</time>
      </trkpt>
      <trkpt lat="37.3170400" lon="-4.1897600">
        <ele>528.4</ele>
        <time>2020-07-11T06:49:57Z</time>
      </trkpt>
      <trkpt lat="37.3168430" lon="-4.1895290">
        <ele>528.6</ele>
        <time>2020-07-11T06:50:01Z</time>
      </trkpt>
      <trkpt lat="37.3164720" lon="-4.1891750">
        <ele>528.8</ele>
        <time>2020-07-11T06:50:08Z</time>
      </trkpt>
      <trkpt lat="37.3160570" lon="-4.1887380">
        <ele>528.4</ele>
        <time>2020-07-11T06:50:15Z</time>
      </trkpt>
      <trkpt lat="37.3156480" lon="-4.1883060">
        <ele>527.0</ele>
        <time>2020-07-11T06:50:22Z</time>
      </trkpt>
      <trkpt lat="37.3155760" lon="-4.1882560">
        <ele>526.8</ele>
        <time>2020-07-11T06:50:23Z</time>
      </trkpt>
      <trkpt lat="37.3153080" lon="-4.1880810">
        <ele>526.4</ele>
        <time>2020-07-11T06:50:27Z</time>
      </trkpt>
      <trkpt lat="37.3151990" lon="-4.1879470">
        <ele>526.4</ele>
        <time>2020-07-11T06:50:29Z</time>
      </trkpt>
      <trkpt lat="37.3150660" lon="-4.1876170">
        <ele>526.6</ele>
        <time>2020-07-11T06:50:33Z</time>
      </trkpt>
      <trkpt lat="37.3150670" lon="-4.1872760">
        <ele>526.8</ele>
        <time>2020-07-11T06:50:37Z</time>
      </trkpt>
      <trkpt lat="37.3151470" lon="-4.1870400">
        <ele>527.2</ele>
        <time>2020-07-11T06:50:40Z</time>
      </trkpt>
      <trkpt lat="37.3151770" lon="-4.1869650">
        <ele>527.2</ele>
        <time>2020-07-11T06:50:41Z</time>
      </trkpt>
      <trkpt lat="37.3154320" lon="-4.1863590">
        <ele>527.6</ele>
        <time>2020-07-11T06:50:49Z</time>
      </trkpt>
      <trkpt lat="37.3154610" lon="-4.1862880">
        <ele>527.6</ele>
        <time>2020-07-11T06:50:50Z</time>
      </trkpt>
      <trkpt lat="37.3155640" lon="-4.1860350">
        <ele>528.2</ele>
        <time>2020-07-11T06:50:54Z</time>
      </trkpt>
      <trkpt lat="37.3156040" lon="-4.1859260">
        <ele>528.6</ele>
        <time>2020-07-11T06:50:56Z</time>
      </trkpt>
      <trkpt lat="37.3156390" lon="-4.1858270">
        <ele>529.2</ele>
        <time>2020-07-11T06:50:58Z</time>
      </trkpt>
      <trkpt lat="37.3156750" lon="-4.1857440">
        <ele>529.8</ele>
        <time>2020-07-11T06:51:00Z</time>
      </trkpt>
      <trkpt lat="37.3156920" lon="-4.1857000">
        <ele>530.2</ele>
        <time>2020-07-11T06:51:01Z</time>
      </trkpt>
      <trkpt lat="37.3157070" lon="-4.1856620">
        <ele>530.4</ele>
        <time>2020-07-11T06:51:02Z</time>
      </trkpt>
      <trkpt lat="37.3157400" lon="-4.1855780">
        <ele>531.0</ele>
        <time>2020-07-11T06:51:04Z</time>
      </trkpt>
      <trkpt lat="37.3157570" lon="-4.1855370">
        <ele>531.4</ele>
        <time>2020-07-11T06:51:05Z</time>
      </trkpt>
      <trkpt lat="37.3157910" lon="-4.1854060">
        <ele>532.8</ele>
        <time>2020-07-11T06:51:08Z</time>
      </trkpt>
      <trkpt lat="37.3158140" lon="-4.1852720">
        <ele>533.8</ele>
        <time>2020-07-11T06:51:11Z</time>
      </trkpt>
      <trkpt lat="37.3158190" lon="-4.1850890">
        <ele>534.8</ele>
        <time>2020-07-11T06:51:15Z</time>
      </trkpt>
      <trkpt lat="37.3158080" lon="-4.1849620">
        <ele>535.6</ele>
        <time>2020-07-11T06:51:18Z</time>
      </trkpt>
      <trkpt lat="37.3158020" lon="-4.1849190">
        <ele>535.8</ele>
        <time>2020-07-11T06:51:19Z</time>
      </trkpt>
      <trkpt lat="37.3157590" lon="-4.1847550">
        <ele>537.2</ele>
        <time>2020-07-11T06:51:23Z</time>
      </trkpt>
      <trkpt lat="37.3157360" lon="-4.1846750">
        <ele>537.6</ele>
        <time>2020-07-11T06:51:25Z</time>
      </trkpt>
      <trkpt lat="37.3157180" lon="-4.1846000">
        <ele>538.2</ele>
        <time>2020-07-11T06:51:27Z</time>
      </trkpt>
      <trkpt lat="37.3156960" lon="-4.1845200">
        <ele>539.4</ele>
        <time>2020-07-11T06:51:29Z</time>
      </trkpt>
      <trkpt lat="37.3156830" lon="-4.1844410">
        <ele>540.4</ele>
        <time>2020-07-11T06:51:31Z</time>
      </trkpt>
      <trkpt lat="37.3156640" lon="-4.1843070">
        <ele>541.6</ele>
        <time>2020-07-11T06:51:34Z</time>
      </trkpt>
      <trkpt lat="37.3156470" lon="-4.1841720">
        <ele>542.8</ele>
        <time>2020-07-11T06:51:37Z</time>
      </trkpt>
      <trkpt lat="37.3156390" lon="-4.1839850">
        <ele>544.0</ele>
        <time>2020-07-11T06:51:41Z</time>
      </trkpt>
      <trkpt lat="37.3156400" lon="-4.1839420">
        <ele>544.2</ele>
        <time>2020-07-11T06:51:42Z</time>
      </trkpt>
      <trkpt lat="37.3156380" lon="-4.1836860">
        <ele>545.0</ele>
        <time>2020-07-11T06:51:47Z</time>
      </trkpt>
      <trkpt lat="37.3156340" lon="-4.1834780">
        <ele>545.6</ele>
        <time>2020-07-11T06:51:51Z</time>
      </trkpt>
      <trkpt lat="37.3156160" lon="-4.1830920">
        <ele>545.4</ele>
        <time>2020-07-11T06:51:57Z</time>
      </trkpt>
      <trkpt lat="37.3155250" lon="-4.1825880">
        <ele>543.8</ele>
        <time>2020-07-11T06:52:03Z</time>
      </trkpt>
      <trkpt lat="37.3154470" lon="-4.1823030">
        <ele>542.6</ele>
        <time>2020-07-11T06:52:06Z</time>
      </trkpt>
      <trkpt lat="37.3153780" lon="-4.1820800">
        <ele>541.8</ele>
        <time>2020-07-11T06:52:08Z</time>
      </trkpt>
      <trkpt lat="37.3153460" lon="-4.1819690">
        <ele>541.4</ele>
        <time>2020-07-11T06:52:09Z</time>
      </trkpt>
      <trkpt lat="37.3153180" lon="-4.1818490">
        <ele>540.6</ele>
        <time>2020-07-11T06:52:10Z</time>
      </trkpt>
      <trkpt lat="37.3153160" lon="-4.1817930">
        <ele>540.2</ele>
        <time>2020-07-11T06:52:11Z</time>
      </trkpt>
      <trkpt lat="37.3153130" lon="-4.1816280">
        <ele>540.0</ele>
        <time>2020-07-11T06:52:12Z</time>
      </trkpt>
      <trkpt lat="37.3154090" lon="-4.1812690">
        <ele>538.8</ele>
        <time>2020-07-11T06:52:15Z</time>
      </trkpt>
      <trkpt lat="37.3154500" lon="-4.1811620">
        <ele>538.6</ele>
        <time>2020-07-11T06:52:16Z</time>
      </trkpt>
      <trkpt lat="37.3155390" lon="-4.1809490">
        <ele>538.0</ele>
        <time>2020-07-11T06:52:18Z</time>
      </trkpt>
      <trkpt lat="37.3155780" lon="-4.1808310">
        <ele>537.6</ele>
        <time>2020-07-11T06:52:19Z</time>
      </trkpt>
      <trkpt lat="37.3156020" lon="-4.1807160">
        <ele>537.2</ele>
        <time>2020-07-11T06:52:20Z</time>
      </trkpt>
      <trkpt lat="37.3156280" lon="-4.1804880">
        <ele>536.2</ele>
        <time>2020-07-11T06:52:22Z</time>
      </trkpt>
      <trkpt lat="37.3156340" lon="-4.1803660">
        <ele>535.8</ele>
        <time>2020-07-11T06:52:23Z</time>
      </trkpt>
      <trkpt lat="37.3156370" lon="-4.1802580">
        <ele>535.6</ele>
        <time>2020-07-11T06:52:24Z</time>
      </trkpt>
      <trkpt lat="37.3156410" lon="-4.1801380">
        <ele>535.4</ele>
        <time>2020-07-11T06:52:25Z</time>
      </trkpt>
      <trkpt lat="37.3156460" lon="-4.1800380">
        <ele>535.4</ele>
        <time>2020-07-11T06:52:26Z</time>
      </trkpt>
      <trkpt lat="37.3156510" lon="-4.1799300">
        <ele>535.2</ele>
        <time>2020-07-11T06:52:27Z</time>
      </trkpt>
      <trkpt lat="37.3156800" lon="-4.1793020">
        <ele>535.0</ele>
        <time>2020-07-11T06:52:33Z</time>
      </trkpt>
      <trkpt lat="37.3156860" lon="-4.1792090">
        <ele>535.0</ele>
        <time>2020-07-11T06:52:34Z</time>
      </trkpt>
      <trkpt lat="37.3156900" lon="-4.1791130">
        <ele>535.0</ele>
        <time>2020-07-11T06:52:35Z</time>
      </trkpt>
      <trkpt lat="37.3157140" lon="-4.1788480">
        <ele>535.0</ele>
        <time>2020-07-11T06:52:38Z</time>
      </trkpt>
      <trkpt lat="37.3157280" lon="-4.1787630">
        <ele>535.2</ele>
        <time>2020-07-11T06:52:39Z</time>
      </trkpt>
      <trkpt lat="37.3157730" lon="-4.1785990">
        <ele>535.6</ele>
        <time>2020-07-11T06:52:41Z</time>
      </trkpt>
      <trkpt lat="37.3158490" lon="-4.1783560">
        <ele>536.0</ele>
        <time>2020-07-11T06:52:44Z</time>
      </trkpt>
      <trkpt lat="37.3159540" lon="-4.1778340">
        <ele>535.8</ele>
        <time>2020-07-11T06:52:50Z</time>
      </trkpt>
      <trkpt lat="37.3159320" lon="-4.1774970">
        <ele>535.8</ele>
        <time>2020-07-11T06:52:54Z</time>
      </trkpt>
      <trkpt lat="37.3159120" lon="-4.1774140">
        <ele>536.0</ele>
        <time>2020-07-11T06:52:55Z</time>
      </trkpt>
      <trkpt lat="37.3158600" lon="-4.1771920">
        <ele>536.4</ele>
        <time>2020-07-11T06:52:58Z</time>
      </trkpt>
      <trkpt lat="37.3158310" lon="-4.1770490">
        <ele>536.6</ele>
        <time>2020-07-11T06:53:00Z</time>
      </trkpt>
      <trkpt lat="37.3158150" lon="-4.1769040">
        <ele>537.0</ele>
        <time>2020-07-11T06:53:02Z</time>
      </trkpt>
      <trkpt lat="37.3158130" lon="-4.1767520">
        <ele>537.4</ele>
        <time>2020-07-11T06:53:04Z</time>
      </trkpt>
      <trkpt lat="37.3158320" lon="-4.1766100">
        <ele>537.8</ele>
        <time>2020-07-11T06:53:06Z</time>
      </trkpt>
      <trkpt lat="37.3158460" lon="-4.1765380">
        <ele>538.0</ele>
        <time>2020-07-11T06:53:07Z</time>
      </trkpt>
      <trkpt lat="37.3158660" lon="-4.1764760">
        <ele>538.0</ele>
        <time>2020-07-11T06:53:08Z</time>
      </trkpt>
      <trkpt lat="37.3159780" lon="-4.1761940">
        <ele>538.4</ele>
        <time>2020-07-11T06:53:12Z</time>
      </trkpt>
      <trkpt lat="37.3162550" lon="-4.1756070">
        <ele>539.2</ele>
        <time>2020-07-11T06:53:21Z</time>
      </trkpt>
      <trkpt lat="37.3163440" lon="-4.1754280">
        <ele>539.6</ele>
        <time>2020-07-11T06:53:24Z</time>
      </trkpt>
      <trkpt lat="37.3165120" lon="-4.1751050">
        <ele>540.4</ele>
        <time>2020-07-11T06:53:30Z</time>
      </trkpt>
      <trkpt lat="37.3165380" lon="-4.1750630">
        <ele>540.6</ele>
        <time>2020-07-11T06:53:31Z</time>
      </trkpt>
      <trkpt lat="37.3166450" lon="-4.1748880">
        <ele>542.0</ele>
        <time>2020-07-11T06:53:35Z</time>
      </trkpt>
      <trkpt lat="37.3167690" lon="-4.1747320">
        <ele>543.2</ele>
        <time>2020-07-11T06:53:39Z</time>
      </trkpt>
      <trkpt lat="37.3169020" lon="-4.1745930">
        <ele>544.2</ele>
        <time>2020-07-11T06:53:43Z</time>
      </trkpt>
      <trkpt lat="37.3170370" lon="-4.1744630">
        <ele>545.4</ele>
        <time>2020-07-11T06:53:47Z</time>
      </trkpt>
      <trkpt lat="37.3170720" lon="-4.1744310">
        <ele>545.8</ele>
        <time>2020-07-11T06:53:48Z</time>
      </trkpt>
      <trkpt lat="37.3171750" lon="-4.1743370">
        <ele>546.4</ele>
        <time>2020-07-11T06:53:51Z</time>
      </trkpt>
      <trkpt lat="37.3173900" lon="-4.1741390">
        <ele>547.6</ele>
        <time>2020-07-11T06:53:57Z</time>
      </trkpt>
      <trkpt lat="37.3174290" lon="-4.1741030">
        <ele>547.6</ele>
        <time>2020-07-11T06:53:58Z</time>
      </trkpt>
      <trkpt lat="37.3177240" lon="-4.1738330">
        <ele>548.4</ele>
        <time>2020-07-11T06:54:06Z</time>
      </trkpt>
      <trkpt lat="37.3178030" lon="-4.1737580">
        <ele>548.6</ele>
        <time>2020-07-11T06:54:08Z</time>
      </trkpt>
      <trkpt lat="37.3179500" lon="-4.1736330">
        <ele>549.0</ele>
        <time>2020-07-11T06:54:12Z</time>
      </trkpt>
      <trkpt lat="37.3181750" lon="-4.1734210">
        <ele>549.6</ele>
        <time>2020-07-11T06:54:18Z</time>
      </trkpt>
      <trkpt lat="37.3182450" lon="-4.1733270">
        <ele>549.8</ele>
        <time>2020-07-11T06:54:20Z</time>
      </trkpt>
      <trkpt lat="37.3184470" lon="-4.1729820">
        <ele>550.6</ele>
        <time>2020-07-11T06:54:27Z</time>
      </trkpt>
      <trkpt lat="37.3184730" lon="-4.1729250">
        <ele>550.8</ele>
        <time>2020-07-11T06:54:28Z</time>
      </trkpt>
      <trkpt lat="37.3185260" lon="-4.1727580">
        <ele>551.2</ele>
        <time>2020-07-11T06:54:31Z</time>
      </trkpt>
      <trkpt lat="37.3185460" lon="-4.1726450">
        <ele>551.6</ele>
        <time>2020-07-11T06:54:33Z</time>
      </trkpt>
      <trkpt lat="37.3185510" lon="-4.1725860">
        <ele>551.6</ele>
        <time>2020-07-11T06:54:34Z</time>
      </trkpt>
      <trkpt lat="37.3185530" lon="-4.1725260">
        <ele>551.8</ele>
        <time>2020-07-11T06:54:35Z</time>
      </trkpt>
      <trkpt lat="37.3185440" lon="-4.1720900">
        <ele>552.6</ele>
        <time>2020-07-11T06:54:42Z</time>
      </trkpt>
      <trkpt lat="37.3185340" lon="-4.1718810">
        <ele>552.8</ele>
        <time>2020-07-11T06:54:45Z</time>
      </trkpt>
      <trkpt lat="37.3184740" lon="-4.1714800">
        <ele>553.4</ele>
        <time>2020-07-11T06:54:51Z</time>
      </trkpt>
      <trkpt lat="37.3183240" lon="-4.1711800">
        <ele>553.8</ele>
        <time>2020-07-11T06:54:56Z</time>
      </trkpt>
      <trkpt lat="37.3182560" lon="-4.1710650">
        <ele>554.0</ele>
        <time>2020-07-11T06:54:58Z</time>
      </trkpt>
      <trkpt lat="37.3180680" lon="-4.1706870">
        <ele>554.6</ele>
        <time>2020-07-11T06:55:05Z</time>
      </trkpt>
      <trkpt lat="37.3180510" lon="-4.1706190">
        <ele>554.8</ele>
        <time>2020-07-11T06:55:06Z</time>
      </trkpt>
      <trkpt lat="37.3180410" lon="-4.1705520">
        <ele>555.0</ele>
        <time>2020-07-11T06:55:07Z</time>
      </trkpt>
      <trkpt lat="37.3180390" lon="-4.1703520">
        <ele>555.6</ele>
        <time>2020-07-11T06:55:10Z</time>
      </trkpt>
      <trkpt lat="37.3180650" lon="-4.1702320">
        <ele>556.0</ele>
        <time>2020-07-11T06:55:12Z</time>
      </trkpt>
      <trkpt lat="37.3180860" lon="-4.1701610">
        <ele>556.2</ele>
        <time>2020-07-11T06:55:13Z</time>
      </trkpt>
      <trkpt lat="37.3181400" lon="-4.1700110">
        <ele>556.4</ele>
        <time>2020-07-11T06:55:15Z</time>
      </trkpt>
      <trkpt lat="37.3183340" lon="-4.1695550">
        <ele>556.0</ele>
        <time>2020-07-11T06:55:21Z</time>
      </trkpt>
      <trkpt lat="37.3185140" lon="-4.1692110">
        <ele>555.2</ele>
        <time>2020-07-11T06:55:25Z</time>
      </trkpt>
      <trkpt lat="37.3185670" lon="-4.1691350">
        <ele>555.0</ele>
        <time>2020-07-11T06:55:26Z</time>
      </trkpt>
      <trkpt lat="37.3187940" lon="-4.1688440">
        <ele>554.4</ele>
        <time>2020-07-11T06:55:30Z</time>
      </trkpt>
      <trkpt lat="37.3188130" lon="-4.1687400">
        <ele>554.4</ele>
        <time>2020-07-11T06:55:31Z</time>
      </trkpt>
      <trkpt lat="37.3187640" lon="-4.1685620">
        <ele>554.2</ele>
        <time>2020-07-11T06:55:33Z</time>
      </trkpt>
      <trkpt lat="37.3187310" lon="-4.1683950">
        <ele>554.0</ele>
        <time>2020-07-11T06:55:35Z</time>
      </trkpt>
      <trkpt lat="37.3187180" lon="-4.1681420">
        <ele>554.2</ele>
        <time>2020-07-11T06:55:38Z</time>
      </trkpt>
      <trkpt lat="37.3187230" lon="-4.1675680">
        <ele>554.6</ele>
        <time>2020-07-11T06:55:45Z</time>
      </trkpt>
      <trkpt lat="37.3187360" lon="-4.1674860">
        <ele>554.6</ele>
        <time>2020-07-11T06:55:46Z</time>
      </trkpt>
      <trkpt lat="37.3188450" lon="-4.1669070">
        <ele>554.4</ele>
        <time>2020-07-11T06:55:53Z</time>
      </trkpt>
      <trkpt lat="37.3189550" lon="-4.1665960">
        <ele>554.2</ele>
        <time>2020-07-11T06:55:57Z</time>
      </trkpt>
      <trkpt lat="37.3190050" lon="-4.1665320">
        <ele>554.4</ele>
        <time>2020-07-11T06:55:58Z</time>
      </trkpt>
      <trkpt lat="37.3192460" lon="-4.1663590">
        <ele>554.2</ele>
        <time>2020-07-11T06:56:02Z</time>
      </trkpt>
      <trkpt lat="37.3195130" lon="-4.1660980">
        <ele>554.2</ele>
        <time>2020-07-11T06:56:07Z</time>
      </trkpt>
      <trkpt lat="37.3196780" lon="-4.1658620">
        <ele>554.8</ele>
        <time>2020-07-11T06:56:11Z</time>
      </trkpt>
      <trkpt lat="37.3197430" lon="-4.1657360">
        <ele>555.2</ele>
        <time>2020-07-11T06:56:13Z</time>
      </trkpt>
      <trkpt lat="37.3199200" lon="-4.1652970">
        <ele>556.0</ele>
        <time>2020-07-11T06:56:19Z</time>
      </trkpt>
      <trkpt lat="37.3199470" lon="-4.1652270">
        <ele>556.0</ele>
        <time>2020-07-11T06:56:20Z</time>
      </trkpt>
      <trkpt lat="37.3200450" lon="-4.1649420">
        <ele>556.4</ele>
        <time>2020-07-11T06:56:24Z</time>
      </trkpt>
      <trkpt lat="37.3200990" lon="-4.1647100">
        <ele>556.8</ele>
        <time>2020-07-11T06:56:27Z</time>
      </trkpt>
      <trkpt lat="37.3201950" lon="-4.1642380">
        <ele>557.0</ele>
        <time>2020-07-11T06:56:33Z</time>
      </trkpt>
      <trkpt lat="37.3202160" lon="-4.1641650">
        <ele>557.0</ele>
        <time>2020-07-11T06:56:34Z</time>
      </trkpt>
      <trkpt lat="37.3203280" lon="-4.1637420">
        <ele>557.6</ele>
        <time>2020-07-11T06:56:40Z</time>
      </trkpt>
      <trkpt lat="37.3204600" lon="-4.1635930">
        <ele>557.8</ele>
        <time>2020-07-11T06:56:43Z</time>
      </trkpt>
      <trkpt lat="37.3205100" lon="-4.1635590">
        <ele>558.0</ele>
        <time>2020-07-11T06:56:44Z</time>
      </trkpt>
      <trkpt lat="37.3209510" lon="-4.1632790">
        <ele>558.2</ele>
        <time>2020-07-11T06:56:52Z</time>
      </trkpt>
      <trkpt lat="37.3213890" lon="-4.1629650">
        <ele>558.6</ele>
        <time>2020-07-11T06:57:00Z</time>
      </trkpt>
      <trkpt lat="37.3214370" lon="-4.1629110">
        <ele>558.6</ele>
        <time>2020-07-11T06:57:01Z</time>
      </trkpt>
      <trkpt lat="37.3215280" lon="-4.1627870">
        <ele>558.4</ele>
        <time>2020-07-11T06:57:03Z</time>
      </trkpt>
      <trkpt lat="37.3216220" lon="-4.1626790">
        <ele>558.2</ele>
        <time>2020-07-11T06:57:05Z</time>
      </trkpt>
      <trkpt lat="37.3218450" lon="-4.1624960">
        <ele>557.8</ele>
        <time>2020-07-11T06:57:09Z</time>
      </trkpt>
      <trkpt lat="37.3219290" lon="-4.1622770">
        <ele>557.6</ele>
        <time>2020-07-11T06:57:12Z</time>
      </trkpt>
      <trkpt lat="37.3219460" lon="-4.1621980">
        <ele>557.6</ele>
        <time>2020-07-11T06:57:13Z</time>
      </trkpt>
      <trkpt lat="37.3220060" lon="-4.1619220">
        <ele>557.8</ele>
        <time>2020-07-11T06:57:17Z</time>
      </trkpt>
      <trkpt lat="37.3220220" lon="-4.1618590">
        <ele>558.0</ele>
        <time>2020-07-11T06:57:18Z</time>
      </trkpt>
      <trkpt lat="37.3220630" lon="-4.1617490">
        <ele>558.4</ele>
        <time>2020-07-11T06:57:20Z</time>
      </trkpt>
      <trkpt lat="37.3221150" lon="-4.1616560">
        <ele>558.8</ele>
        <time>2020-07-11T06:57:22Z</time>
      </trkpt>
      <trkpt lat="37.3221410" lon="-4.1616170">
        <ele>559.4</ele>
        <time>2020-07-11T06:57:23Z</time>
      </trkpt>
      <trkpt lat="37.3222040" lon="-4.1615410">
        <ele>560.6</ele>
        <time>2020-07-11T06:57:25Z</time>
      </trkpt>
      <trkpt lat="37.3222660" lon="-4.1614720">
        <ele>561.6</ele>
        <time>2020-07-11T06:57:27Z</time>
      </trkpt>
      <trkpt lat="37.3223590" lon="-4.1613720">
        <ele>562.8</ele>
        <time>2020-07-11T06:57:30Z</time>
      </trkpt>
      <trkpt lat="37.3224570" lon="-4.1612700">
        <ele>563.6</ele>
        <time>2020-07-11T06:57:33Z</time>
      </trkpt>
      <trkpt lat="37.3224920" lon="-4.1612350">
        <ele>564.0</ele>
        <time>2020-07-11T06:57:34Z</time>
      </trkpt>
      <trkpt lat="37.3226260" lon="-4.1610850">
        <ele>564.6</ele>
        <time>2020-07-11T06:57:38Z</time>
      </trkpt>
      <trkpt lat="37.3226920" lon="-4.1610070">
        <ele>565.0</ele>
        <time>2020-07-11T06:57:40Z</time>
      </trkpt>
      <trkpt lat="37.3228790" lon="-4.1607850">
        <ele>565.6</ele>
        <time>2020-07-11T06:57:45Z</time>
      </trkpt>
      <trkpt lat="37.3230790" lon="-4.1605580">
        <ele>564.8</ele>
        <time>2020-07-11T06:57:49Z</time>
      </trkpt>
      <trkpt lat="37.3231540" lon="-4.1603150">
        <ele>564.0</ele>
        <time>2020-07-11T06:57:52Z</time>
      </trkpt>
      <trkpt lat="37.3231610" lon="-4.1602390">
        <ele>563.8</ele>
        <time>2020-07-11T06:57:53Z</time>
      </trkpt>
      <trkpt lat="37.3231760" lon="-4.1600850">
        <ele>563.6</ele>
        <time>2020-07-11T06:57:55Z</time>
      </trkpt>
      <trkpt lat="37.3231800" lon="-4.1598530">
        <ele>564.0</ele>
        <time>2020-07-11T06:57:58Z</time>
      </trkpt>
      <trkpt lat="37.3231880" lon="-4.1594140">
        <ele>564.2</ele>
        <time>2020-07-11T06:58:03Z</time>
      </trkpt>
      <trkpt lat="37.3231920" lon="-4.1592630">
        <ele>564.0</ele>
        <time>2020-07-11T06:58:05Z</time>
      </trkpt>
      <trkpt lat="37.3231930" lon="-4.1591130">
        <ele>564.2</ele>
        <time>2020-07-11T06:58:07Z</time>
      </trkpt>
      <trkpt lat="37.3231870" lon="-4.1590410">
        <ele>564.2</ele>
        <time>2020-07-11T06:58:08Z</time>
      </trkpt>
      <trkpt lat="37.3231990" lon="-4.1589100">
        <ele>564.2</ele>
        <time>2020-07-11T06:58:10Z</time>
      </trkpt>
      <trkpt lat="37.3231950" lon="-4.1586870">
        <ele>564.8</ele>
        <time>2020-07-11T06:58:14Z</time>
      </trkpt>
      <trkpt lat="37.3232060" lon="-4.1584660">
        <ele>566.0</ele>
        <time>2020-07-11T06:58:18Z</time>
      </trkpt>
      <trkpt lat="37.3232710" lon="-4.1583250">
        <ele>566.8</ele>
        <time>2020-07-11T06:58:21Z</time>
      </trkpt>
      <trkpt lat="37.3233030" lon="-4.1582810">
        <ele>567.0</ele>
        <time>2020-07-11T06:58:22Z</time>
      </trkpt>
      <trkpt lat="37.3233290" lon="-4.1582430">
        <ele>567.2</ele>
        <time>2020-07-11T06:58:23Z</time>
      </trkpt>
      <trkpt lat="37.3233860" lon="-4.1581590">
        <ele>568.0</ele>
        <time>2020-07-11T06:58:25Z</time>
      </trkpt>
      <trkpt lat="37.3234500" lon="-4.1580820">
        <ele>568.4</ele>
        <time>2020-07-11T06:58:27Z</time>
      </trkpt>
      <trkpt lat="37.3234800" lon="-4.1580440">
        <ele>568.8</ele>
        <time>2020-07-11T06:58:28Z</time>
      </trkpt>
      <trkpt lat="37.3235940" lon="-4.1578930">
        <ele>569.8</ele>
        <time>2020-07-11T06:58:32Z</time>
      </trkpt>
      <trkpt lat="37.3236460" lon="-4.1578130">
        <ele>570.2</ele>
        <time>2020-07-11T06:58:34Z</time>
      </trkpt>
      <trkpt lat="37.3236630" lon="-4.1577840">
        <ele>570.4</ele>
        <time>2020-07-11T06:58:35Z</time>
      </trkpt>
      <trkpt lat="37.3236990" lon="-4.1577390">
        <ele>570.6</ele>
        <time>2020-07-11T06:58:36Z</time>
      </trkpt>
      <trkpt lat="37.3237490" lon="-4.1577180">
        <ele>570.8</ele>
        <time>2020-07-11T06:58:37Z</time>
      </trkpt>
      <trkpt lat="37.3237720" lon="-4.1576780">
        <ele>571.2</ele>
        <time>2020-07-11T06:58:38Z</time>
      </trkpt>
      <trkpt lat="37.3238410" lon="-4.1575550">
        <ele>572.0</ele>
        <time>2020-07-11T06:58:41Z</time>
      </trkpt>
      <trkpt lat="37.3239430" lon="-4.1573490">
        <ele>572.8</ele>
        <time>2020-07-11T06:58:45Z</time>
      </trkpt>
      <trkpt lat="37.3241080" lon="-4.1572170">
        <ele>572.4</ele>
        <time>2020-07-11T06:58:49Z</time>
      </trkpt>
      <trkpt lat="37.3242040" lon="-4.1572370">
        <ele>572.2</ele>
        <time>2020-07-11T06:58:51Z</time>
      </trkpt>
      <trkpt lat="37.3242400" lon="-4.1572530">
        <ele>572.4</ele>
        <time>2020-07-11T06:58:52Z</time>
      </trkpt>
      <trkpt lat="37.3243290" lon="-4.1572800">
        <ele>573.0</ele>
        <time>2020-07-11T06:58:55Z</time>
      </trkpt>
      <trkpt lat="37.3243600" lon="-4.1572860">
        <ele>573.4</ele>
        <time>2020-07-11T06:58:56Z</time>
      </trkpt>
      <trkpt lat="37.3244220" lon="-4.1573130">
        <ele>574.2</ele>
        <time>2020-07-11T06:58:58Z</time>
      </trkpt>
      <trkpt lat="37.3244900" lon="-4.1573570">
        <ele>575.4</ele>
        <time>2020-07-11T06:59:01Z</time>
      </trkpt>
      <trkpt lat="37.3245630" lon="-4.1573790">
        <ele>576.4</ele>
        <time>2020-07-11T06:59:04Z</time>
      </trkpt>
      <trkpt lat="37.3246400" lon="-4.1573940">
        <ele>577.6</ele>
        <time>2020-07-11T06:59:07Z</time>
      </trkpt>
      <trkpt lat="37.3247340" lon="-4.1574240">
        <ele>578.6</ele>
        <time>2020-07-11T06:59:11Z</time>
      </trkpt>
      <trkpt lat="37.3247590" lon="-4.1574290">
        <ele>579.0</ele>
        <time>2020-07-11T06:59:12Z</time>
      </trkpt>
      <trkpt lat="37.3248130" lon="-4.1574230">
        <ele>579.8</ele>
        <time>2020-07-11T06:59:15Z</time>
      </trkpt>
      <trkpt lat="37.3248240" lon="-4.1574110">
        <ele>580.2</ele>
        <time>2020-07-11T06:59:16Z</time>
      </trkpt>
      <trkpt lat="37.3248270" lon="-4.1573990">
        <ele>580.4</ele>
        <time>2020-07-11T06:59:17Z</time>
      </trkpt>
      <trkpt lat="37.3248260" lon="-4.1574040">
        <ele>580.6</ele>
        <time>2020-07-11T06:59:18Z</time>
      </trkpt>
      <trkpt lat="37.3250090" lon="-4.1572420">
        <ele>581.2</ele>
        <time>2020-07-11T07:28:55Z</time>
      </trkpt>
      <trkpt lat="37.3250130" lon="-4.1572300">
        <ele>581.0</ele>
        <time>2020-07-11T07:28:56Z</time>
      </trkpt>
      <trkpt lat="37.3250400" lon="-4.1572110">
        <ele>581.0</ele>
        <time>2020-07-11T07:28:57Z</time>
      </trkpt>
      <trkpt lat="37.3250770" lon="-4.1571660">
        <ele>580.8</ele>
        <time>2020-07-11T07:29:00Z</time>
      </trkpt>
      <trkpt lat="37.3250880" lon="-4.1571640">
        <ele>580.8</ele>
        <time>2020-07-11T07:29:01Z</time>
      </trkpt>
      <trkpt lat="37.3250990" lon="-4.1571040">
        <ele>581.0</ele>
        <time>2020-07-11T07:29:03Z</time>
      </trkpt>
      <trkpt lat="37.3251080" lon="-4.1570710">
        <ele>581.2</ele>
        <time>2020-07-11T07:29:04Z</time>
      </trkpt>
      <trkpt lat="37.3251090" lon="-4.1570400">
        <ele>581.2</ele>
        <time>2020-07-11T07:29:05Z</time>
      </trkpt>
      <trkpt lat="37.3251210" lon="-4.1568970">
        <ele>581.8</ele>
        <time>2020-07-11T07:29:10Z</time>
      </trkpt>
      <trkpt lat="37.3251650" lon="-4.1567630">
        <ele>582.2</ele>
        <time>2020-07-11T07:29:15Z</time>
      </trkpt>
      <trkpt lat="37.3251760" lon="-4.1567440">
        <ele>582.4</ele>
        <time>2020-07-11T07:29:16Z</time>
      </trkpt>
      <trkpt lat="37.3251770" lon="-4.1566950">
        <ele>582.6</ele>
        <time>2020-07-11T07:29:18Z</time>
      </trkpt>
      <trkpt lat="37.3251590" lon="-4.1566400">
        <ele>582.8</ele>
        <time>2020-07-11T07:29:20Z</time>
      </trkpt>
      <trkpt lat="37.3251290" lon="-4.1565610">
        <ele>583.2</ele>
        <time>2020-07-11T07:29:23Z</time>
      </trkpt>
      <trkpt lat="37.3251140" lon="-4.1565360">
        <ele>583.2</ele>
        <time>2020-07-11T07:29:24Z</time>
      </trkpt>
      <trkpt lat="37.3251010" lon="-4.1565140">
        <ele>583.4</ele>
        <time>2020-07-11T07:29:25Z</time>
      </trkpt>
      <trkpt lat="37.3250760" lon="-4.1564390">
        <ele>583.6</ele>
        <time>2020-07-11T07:29:28Z</time>
      </trkpt>
      <trkpt lat="37.3250430" lon="-4.1563930">
        <ele>583.8</ele>
        <time>2020-07-11T07:29:30Z</time>
      </trkpt>
      <trkpt lat="37.3249880" lon="-4.1562640">
        <ele>584.2</ele>
        <time>2020-07-11T07:29:35Z</time>
      </trkpt>
      <trkpt lat="37.3248940" lon="-4.1560830">
        <ele>584.2</ele>
        <time>2020-07-11T07:29:40Z</time>
      </trkpt>
      <trkpt lat="37.3248540" lon="-4.1560040">
        <ele>584.0</ele>
        <time>2020-07-11T07:29:42Z</time>
      </trkpt>
      <trkpt lat="37.3248540" lon="-4.1559510">
        <ele>584.0</ele>
        <time>2020-07-11T07:29:43Z</time>
      </trkpt>
      <trkpt lat="37.3248530" lon="-4.1559070">
        <ele>583.8</ele>
        <time>2020-07-11T07:29:44Z</time>
      </trkpt>
      <trkpt lat="37.3249030" lon="-4.1558000">
        <ele>584.2</ele>
        <time>2020-07-11T07:29:48Z</time>
      </trkpt>
      <trkpt lat="37.3249270" lon="-4.1557510">
        <ele>584.6</ele>
        <time>2020-07-11T07:29:50Z</time>
      </trkpt>
      <trkpt lat="37.3249630" lon="-4.1557170">
        <ele>585.2</ele>
        <time>2020-07-11T07:29:52Z</time>
      </trkpt>
      <trkpt lat="37.3249790" lon="-4.1556970">
        <ele>585.6</ele>
        <time>2020-07-11T07:29:53Z</time>
      </trkpt>
      <trkpt lat="37.3250010" lon="-4.1556570">
        <ele>586.0</ele>
        <time>2020-07-11T07:29:55Z</time>
      </trkpt>
      <trkpt lat="37.3250630" lon="-4.1556090">
        <ele>586.6</ele>
        <time>2020-07-11T07:29:58Z</time>
      </trkpt>
      <trkpt lat="37.3251560" lon="-4.1555640">
        <ele>587.8</ele>
        <time>2020-07-11T07:30:03Z</time>
      </trkpt>
      <trkpt lat="37.3251740" lon="-4.1555570">
        <ele>588.2</ele>
        <time>2020-07-11T07:30:04Z</time>
      </trkpt>
      <trkpt lat="37.3252920" lon="-4.1555660">
        <ele>589.0</ele>
        <time>2020-07-11T07:30:08Z</time>
      </trkpt>
      <trkpt lat="37.3254070" lon="-4.1556430">
        <ele>590.0</ele>
        <time>2020-07-11T07:30:13Z</time>
      </trkpt>
      <trkpt lat="37.3254740" lon="-4.1556880">
        <ele>590.8</ele>
        <time>2020-07-11T07:30:16Z</time>
      </trkpt>
      <trkpt lat="37.3255140" lon="-4.1557220">
        <ele>591.2</ele>
        <time>2020-07-11T07:30:18Z</time>
      </trkpt>
      <trkpt lat="37.3256510" lon="-4.1558040">
        <ele>592.4</ele>
        <time>2020-07-11T07:30:24Z</time>
      </trkpt>
      <trkpt lat="37.3257710" lon="-4.1558150">
        <ele>593.4</ele>
        <time>2020-07-11T07:30:29Z</time>
      </trkpt>
      <trkpt lat="37.3257950" lon="-4.1558070">
        <ele>593.6</ele>
        <time>2020-07-11T07:30:30Z</time>
      </trkpt>
      <trkpt lat="37.3258680" lon="-4.1557800">
        <ele>594.2</ele>
        <time>2020-07-11T07:30:33Z</time>
      </trkpt>
      <trkpt lat="37.3258900" lon="-4.1557690">
        <ele>594.4</ele>
        <time>2020-07-11T07:30:34Z</time>
      </trkpt>
      <trkpt lat="37.3259110" lon="-4.1557810">
        <ele>594.6</ele>
        <time>2020-07-11T07:30:35Z</time>
      </trkpt>
      <trkpt lat="37.3260030" lon="-4.1557370">
        <ele>595.6</ele>
        <time>2020-07-11T07:30:39Z</time>
      </trkpt>
      <trkpt lat="37.3260190" lon="-4.1557270">
        <ele>595.8</ele>
        <time>2020-07-11T07:30:40Z</time>
      </trkpt>
      <trkpt lat="37.3261070" lon="-4.1556680">
        <ele>596.6</ele>
        <time>2020-07-11T07:30:44Z</time>
      </trkpt>
      <trkpt lat="37.3261310" lon="-4.1556490">
        <ele>596.8</ele>
        <time>2020-07-11T07:30:45Z</time>
      </trkpt>
      <trkpt lat="37.3262430" lon="-4.1555490">
        <ele>597.8</ele>
        <time>2020-07-11T07:30:50Z</time>
      </trkpt>
      <trkpt lat="37.3262800" lon="-4.1555030">
        <ele>598.2</ele>
        <time>2020-07-11T07:30:52Z</time>
      </trkpt>
      <trkpt lat="37.3263670" lon="-4.1554100">
        <ele>599.0</ele>
        <time>2020-07-11T07:30:56Z</time>
      </trkpt>
      <trkpt lat="37.3263870" lon="-4.1553920">
        <ele>599.2</ele>
        <time>2020-07-11T07:30:57Z</time>
      </trkpt>
      <trkpt lat="37.3264750" lon="-4.1553630">
        <ele>600.0</ele>
        <time>2020-07-11T07:31:00Z</time>
      </trkpt>
      <trkpt lat="37.3265120" lon="-4.1553720">
        <ele>600.2</ele>
        <time>2020-07-11T07:31:01Z</time>
      </trkpt>
      <trkpt lat="37.3266390" lon="-4.1554840">
        <ele>600.8</ele>
        <time>2020-07-11T07:31:06Z</time>
      </trkpt>
      <trkpt lat="37.3266480" lon="-4.1555670">
        <ele>601.0</ele>
        <time>2020-07-11T07:31:08Z</time>
      </trkpt>
      <trkpt lat="37.3266530" lon="-4.1556320">
        <ele>601.4</ele>
        <time>2020-07-11T07:31:10Z</time>
      </trkpt>
      <trkpt lat="37.3265960" lon="-4.1557800">
        <ele>601.8</ele>
        <time>2020-07-11T07:31:14Z</time>
      </trkpt>
      <trkpt lat="37.3265490" lon="-4.1559120">
        <ele>601.8</ele>
        <time>2020-07-11T07:31:18Z</time>
      </trkpt>
      <trkpt lat="37.3265320" lon="-4.1559800">
        <ele>602.0</ele>
        <time>2020-07-11T07:31:20Z</time>
      </trkpt>
      <trkpt lat="37.3265220" lon="-4.1560130">
        <ele>602.2</ele>
        <time>2020-07-11T07:31:21Z</time>
      </trkpt>
      <trkpt lat="37.3264860" lon="-4.1561040">
        <ele>602.4</ele>
        <time>2020-07-11T07:31:24Z</time>
      </trkpt>
      <trkpt lat="37.3264670" lon="-4.1561310">
        <ele>602.4</ele>
        <time>2020-07-11T07:31:25Z</time>
      </trkpt>
      <trkpt lat="37.3264550" lon="-4.1561600">
        <ele>602.6</ele>
        <time>2020-07-11T07:31:26Z</time>
      </trkpt>
      <trkpt lat="37.3264590" lon="-4.1561890">
        <ele>602.8</ele>
        <time>2020-07-11T07:31:27Z</time>
      </trkpt>
      <trkpt lat="37.3264940" lon="-4.1562300">
        <ele>603.0</ele>
        <time>2020-07-11T07:31:29Z</time>
      </trkpt>
      <trkpt lat="37.3265160" lon="-4.1562290">
        <ele>603.2</ele>
        <time>2020-07-11T07:31:30Z</time>
      </trkpt>
      <trkpt lat="37.3265510" lon="-4.1561940">
        <ele>603.6</ele>
        <time>2020-07-11T07:31:32Z</time>
      </trkpt>
      <trkpt lat="37.3265910" lon="-4.1561510">
        <ele>604.2</ele>
        <time>2020-07-11T07:31:34Z</time>
      </trkpt>
      <trkpt lat="37.3266590" lon="-4.1560400">
        <ele>605.4</ele>
        <time>2020-07-11T07:31:38Z</time>
      </trkpt>
      <trkpt lat="37.3267490" lon="-4.1558850">
        <ele>606.4</ele>
        <time>2020-07-11T07:31:43Z</time>
      </trkpt>
      <trkpt lat="37.3267660" lon="-4.1558520">
        <ele>606.6</ele>
        <time>2020-07-11T07:31:44Z</time>
      </trkpt>
      <trkpt lat="37.3268470" lon="-4.1557020">
        <ele>607.4</ele>
        <time>2020-07-11T07:31:49Z</time>
      </trkpt>
      <trkpt lat="37.3269240" lon="-4.1555760">
        <ele>608.2</ele>
        <time>2020-07-11T07:31:53Z</time>
      </trkpt>
      <trkpt lat="37.3269580" lon="-4.1555110">
        <ele>608.6</ele>
        <time>2020-07-11T07:31:55Z</time>
      </trkpt>
      <trkpt lat="37.3270470" lon="-4.1553660">
        <ele>609.6</ele>
        <time>2020-07-11T07:32:00Z</time>
      </trkpt>
      <trkpt lat="37.3271480" lon="-4.1552300">
        <ele>610.8</ele>
        <time>2020-07-11T07:32:05Z</time>
      </trkpt>
      <trkpt lat="37.3272040" lon="-4.1551450">
        <ele>611.6</ele>
        <time>2020-07-11T07:32:08Z</time>
      </trkpt>
      <trkpt lat="37.3272430" lon="-4.1550900">
        <ele>612.0</ele>
        <time>2020-07-11T07:32:10Z</time>
      </trkpt>
      <trkpt lat="37.3273350" lon="-4.1549360">
        <ele>613.0</ele>
        <time>2020-07-11T07:32:15Z</time>
      </trkpt>
      <trkpt lat="37.3273720" lon="-4.1548060">
        <ele>614.0</ele>
        <time>2020-07-11T07:32:19Z</time>
      </trkpt>
      <trkpt lat="37.3273830" lon="-4.1547750">
        <ele>614.4</ele>
        <time>2020-07-11T07:32:20Z</time>
      </trkpt>
      <trkpt lat="37.3274040" lon="-4.1546750">
        <ele>615.2</ele>
        <time>2020-07-11T07:32:23Z</time>
      </trkpt>
      <trkpt lat="37.3274340" lon="-4.1545700">
        <ele>615.8</ele>
        <time>2020-07-11T07:32:26Z</time>
      </trkpt>
      <trkpt lat="37.3274480" lon="-4.1545020">
        <ele>616.2</ele>
        <time>2020-07-11T07:32:28Z</time>
      </trkpt>
      <trkpt lat="37.3274520" lon="-4.1543680">
        <ele>617.2</ele>
        <time>2020-07-11T07:32:32Z</time>
      </trkpt>
      <trkpt lat="37.3274480" lon="-4.1543340">
        <ele>617.4</ele>
        <time>2020-07-11T07:32:33Z</time>
      </trkpt>
      <trkpt lat="37.3274020" lon="-4.1541640">
        <ele>618.6</ele>
        <time>2020-07-11T07:32:38Z</time>
      </trkpt>
      <trkpt lat="37.3272550" lon="-4.1540730">
        <ele>619.6</ele>
        <time>2020-07-11T07:32:43Z</time>
      </trkpt>
      <trkpt lat="37.3270450" lon="-4.1541410">
        <ele>620.4</ele>
        <time>2020-07-11T07:32:49Z</time>
      </trkpt>
      <trkpt lat="37.3269330" lon="-4.1541650">
        <ele>620.8</ele>
        <time>2020-07-11T07:32:52Z</time>
      </trkpt>
      <trkpt lat="37.3268220" lon="-4.1541320">
        <ele>621.0</ele>
        <time>2020-07-11T07:32:55Z</time>
      </trkpt>
      <trkpt lat="37.3267100" lon="-4.1539890">
        <ele>621.2</ele>
        <time>2020-07-11T07:32:59Z</time>
      </trkpt>
      <trkpt lat="37.3266430" lon="-4.1538580">
        <ele>621.2</ele>
        <time>2020-07-11T07:33:02Z</time>
      </trkpt>
      <trkpt lat="37.3265800" lon="-4.1537630">
        <ele>621.2</ele>
        <time>2020-07-11T07:33:04Z</time>
      </trkpt>
      <trkpt lat="37.3265330" lon="-4.1537370">
        <ele>621.2</ele>
        <time>2020-07-11T07:33:05Z</time>
      </trkpt>
      <trkpt lat="37.3264340" lon="-4.1537420">
        <ele>621.0</ele>
        <time>2020-07-11T07:33:07Z</time>
      </trkpt>
      <trkpt lat="37.3263860" lon="-4.1537660">
        <ele>620.8</ele>
        <time>2020-07-11T07:33:08Z</time>
      </trkpt>
      <trkpt lat="37.3263450" lon="-4.1537930">
        <ele>620.6</ele>
        <time>2020-07-11T07:33:09Z</time>
      </trkpt>
      <trkpt lat="37.3262770" lon="-4.1538600">
        <ele>620.4</ele>
        <time>2020-07-11T07:33:11Z</time>
      </trkpt>
      <trkpt lat="37.3262510" lon="-4.1538910">
        <ele>620.6</ele>
        <time>2020-07-11T07:33:12Z</time>
      </trkpt>
      <trkpt lat="37.3262150" lon="-4.1539310">
        <ele>620.6</ele>
        <time>2020-07-11T07:33:13Z</time>
      </trkpt>
      <trkpt lat="37.3260700" lon="-4.1540640">
        <ele>620.6</ele>
        <time>2020-07-11T07:33:17Z</time>
      </trkpt>
      <trkpt lat="37.3259750" lon="-4.1541110">
        <ele>620.6</ele>
        <time>2020-07-11T07:33:19Z</time>
      </trkpt>
      <trkpt lat="37.3259290" lon="-4.1541330">
        <ele>620.6</ele>
        <time>2020-07-11T07:33:20Z</time>
      </trkpt>
      <trkpt lat="37.3257780" lon="-4.1542050">
        <ele>620.6</ele>
        <time>2020-07-11T07:33:23Z</time>
      </trkpt>
      <trkpt lat="37.3255670" lon="-4.1542890">
        <ele>620.4</ele>
        <time>2020-07-11T07:33:27Z</time>
      </trkpt>
      <trkpt lat="37.3255100" lon="-4.1543110">
        <ele>620.4</ele>
        <time>2020-07-11T07:33:28Z</time>
      </trkpt>
      <trkpt lat="37.3254570" lon="-4.1543370">
        <ele>620.4</ele>
        <time>2020-07-11T07:33:29Z</time>
      </trkpt>
      <trkpt lat="37.3251790" lon="-4.1543960">
        <ele>620.2</ele>
        <time>2020-07-11T07:33:34Z</time>
      </trkpt>
      <trkpt lat="37.3249710" lon="-4.1542920">
        <ele>620.2</ele>
        <time>2020-07-11T07:33:38Z</time>
      </trkpt>
      <trkpt lat="37.3248300" lon="-4.1540750">
        <ele>620.0</ele>
        <time>2020-07-11T07:33:42Z</time>
      </trkpt>
      <trkpt lat="37.3247480" lon="-4.1538690">
        <ele>619.6</ele>
        <time>2020-07-11T07:33:45Z</time>
      </trkpt>
      <trkpt lat="37.3247260" lon="-4.1537900">
        <ele>619.4</ele>
        <time>2020-07-11T07:33:46Z</time>
      </trkpt>
      <trkpt lat="37.3247210" lon="-4.1537120">
        <ele>619.4</ele>
        <time>2020-07-11T07:33:47Z</time>
      </trkpt>
      <trkpt lat="37.3247580" lon="-4.1534480">
        <ele>618.8</ele>
        <time>2020-07-11T07:33:50Z</time>
      </trkpt>
      <trkpt lat="37.3247780" lon="-4.1533600">
        <ele>618.6</ele>
        <time>2020-07-11T07:33:51Z</time>
      </trkpt>
      <trkpt lat="37.3248440" lon="-4.1530930">
        <ele>617.8</ele>
        <time>2020-07-11T07:33:54Z</time>
      </trkpt>
      <trkpt lat="37.3249110" lon="-4.1529100">
        <ele>617.2</ele>
        <time>2020-07-11T07:33:56Z</time>
      </trkpt>
      <trkpt lat="37.3249960" lon="-4.1527310">
        <ele>616.8</ele>
        <time>2020-07-11T07:33:58Z</time>
      </trkpt>
      <trkpt lat="37.3250810" lon="-4.1525520">
        <ele>616.2</ele>
        <time>2020-07-11T07:34:00Z</time>
      </trkpt>
      <trkpt lat="37.3251650" lon="-4.1523530">
        <ele>615.6</ele>
        <time>2020-07-11T07:34:02Z</time>
      </trkpt>
      <trkpt lat="37.3252380" lon="-4.1521330">
        <ele>615.0</ele>
        <time>2020-07-11T07:34:04Z</time>
      </trkpt>
      <trkpt lat="37.3253320" lon="-4.1518130">
        <ele>614.2</ele>
        <time>2020-07-11T07:34:07Z</time>
      </trkpt>
      <trkpt lat="37.3253660" lon="-4.1516960">
        <ele>614.0</ele>
        <time>2020-07-11T07:34:08Z</time>
      </trkpt>
      <trkpt lat="37.3254570" lon="-4.1512750">
        <ele>612.8</ele>
        <time>2020-07-11T07:34:12Z</time>
      </trkpt>
      <trkpt lat="37.3254820" lon="-4.1511640">
        <ele>612.8</ele>
        <time>2020-07-11T07:34:13Z</time>
      </trkpt>
      <trkpt lat="37.3255740" lon="-4.1508700">
        <ele>612.6</ele>
        <time>2020-07-11T07:34:16Z</time>
      </trkpt>
      <trkpt lat="37.3256900" lon="-4.1505830">
        <ele>612.2</ele>
        <time>2020-07-11T07:34:19Z</time>
      </trkpt>
      <trkpt lat="37.3257390" lon="-4.1505000">
        <ele>612.0</ele>
        <time>2020-07-11T07:34:20Z</time>
      </trkpt>
      <trkpt lat="37.3258670" lon="-4.1503530">
        <ele>611.6</ele>
        <time>2020-07-11T07:34:22Z</time>
      </trkpt>
      <trkpt lat="37.3259500" lon="-4.1502970">
        <ele>611.4</ele>
        <time>2020-07-11T07:34:23Z</time>
      </trkpt>
      <trkpt lat="37.3261960" lon="-4.1501850">
        <ele>610.6</ele>
        <time>2020-07-11T07:34:26Z</time>
      </trkpt>
      <trkpt lat="37.3262710" lon="-4.1501490">
        <ele>610.4</ele>
        <time>2020-07-11T07:34:27Z</time>
      </trkpt>
      <trkpt lat="37.3264210" lon="-4.1500630">
        <ele>609.8</ele>
        <time>2020-07-11T07:34:29Z</time>
      </trkpt>
      <trkpt lat="37.3264690" lon="-4.1499970">
        <ele>609.8</ele>
        <time>2020-07-11T07:34:30Z</time>
      </trkpt>
      <trkpt lat="37.3264950" lon="-4.1499040">
        <ele>609.6</ele>
        <time>2020-07-11T07:34:31Z</time>
      </trkpt>
      <trkpt lat="37.3265210" lon="-4.1497310">
        <ele>609.6</ele>
        <time>2020-07-11T07:34:33Z</time>
      </trkpt>
      <trkpt lat="37.3265400" lon="-4.1496520">
        <ele>609.6</ele>
        <time>2020-07-11T07:34:34Z</time>
      </trkpt>
      <trkpt lat="37.3265670" lon="-4.1495760">
        <ele>609.8</ele>
        <time>2020-07-11T07:34:35Z</time>
      </trkpt>
      <trkpt lat="37.3266400" lon="-4.1494540">
        <ele>610.0</ele>
        <time>2020-07-11T07:34:37Z</time>
      </trkpt>
      <trkpt lat="37.3266660" lon="-4.1494280">
        <ele>610.2</ele>
        <time>2020-07-11T07:34:38Z</time>
      </trkpt>
      <trkpt lat="37.3267730" lon="-4.1493260">
        <ele>610.4</ele>
        <time>2020-07-11T07:34:40Z</time>
      </trkpt>
      <trkpt lat="37.3269210" lon="-4.1492050">
        <ele>610.4</ele>
        <time>2020-07-11T07:34:42Z</time>
      </trkpt>
      <trkpt lat="37.3269790" lon="-4.1491440">
        <ele>610.4</ele>
        <time>2020-07-11T07:34:43Z</time>
      </trkpt>
      <trkpt lat="37.3270260" lon="-4.1490810">
        <ele>610.4</ele>
        <time>2020-07-11T07:34:44Z</time>
      </trkpt>
      <trkpt lat="37.3271310" lon="-4.1488580">
        <ele>610.4</ele>
        <time>2020-07-11T07:34:47Z</time>
      </trkpt>
      <trkpt lat="37.3271620" lon="-4.1487780">
        <ele>610.2</ele>
        <time>2020-07-11T07:34:48Z</time>
      </trkpt>
      <trkpt lat="37.3272430" lon="-4.1485300">
        <ele>610.2</ele>
        <time>2020-07-11T07:34:51Z</time>
      </trkpt>
      <trkpt lat="37.3272860" lon="-4.1483630">
        <ele>610.0</ele>
        <time>2020-07-11T07:34:53Z</time>
      </trkpt>
      <trkpt lat="37.3273750" lon="-4.1480410">
        <ele>610.0</ele>
        <time>2020-07-11T07:34:57Z</time>
      </trkpt>
      <trkpt lat="37.3274700" lon="-4.1479120">
        <ele>610.0</ele>
        <time>2020-07-11T07:34:59Z</time>
      </trkpt>
      <trkpt lat="37.3276570" lon="-4.1478080">
        <ele>610.0</ele>
        <time>2020-07-11T07:35:02Z</time>
      </trkpt>
      <trkpt lat="37.3277270" lon="-4.1477840">
        <ele>610.2</ele>
        <time>2020-07-11T07:35:03Z</time>
      </trkpt>
      <trkpt lat="37.3278310" lon="-4.1476980">
        <ele>610.2</ele>
        <time>2020-07-11T07:35:05Z</time>
      </trkpt>
      <trkpt lat="37.3278520" lon="-4.1476260">
        <ele>610.4</ele>
        <time>2020-07-11T07:35:06Z</time>
      </trkpt>
      <trkpt lat="37.3278980" lon="-4.1473080">
        <ele>610.4</ele>
        <time>2020-07-11T07:35:10Z</time>
      </trkpt>
      <trkpt lat="37.3279240" lon="-4.1470720">
        <ele>610.8</ele>
        <time>2020-07-11T07:35:13Z</time>
      </trkpt>
      <trkpt lat="37.3279430" lon="-4.1468460">
        <ele>611.2</ele>
        <time>2020-07-11T07:35:16Z</time>
      </trkpt>
      <trkpt lat="37.3279460" lon="-4.1466930">
        <ele>611.4</ele>
        <time>2020-07-11T07:35:18Z</time>
      </trkpt>
      <trkpt lat="37.3279540" lon="-4.1465370">
        <ele>611.6</ele>
        <time>2020-07-11T07:35:20Z</time>
      </trkpt>
      <trkpt lat="37.3279670" lon="-4.1461740">
        <ele>612.0</ele>
        <time>2020-07-11T07:35:25Z</time>
      </trkpt>
      <trkpt lat="37.3279920" lon="-4.1459610">
        <ele>612.4</ele>
        <time>2020-07-11T07:35:28Z</time>
      </trkpt>
      <trkpt lat="37.3280530" lon="-4.1457580">
        <ele>612.6</ele>
        <time>2020-07-11T07:35:31Z</time>
      </trkpt>
      <trkpt lat="37.3282710" lon="-4.1452300">
        <ele>612.6</ele>
        <time>2020-07-11T07:35:39Z</time>
      </trkpt>
      <trkpt lat="37.3285010" lon="-4.1446670">
        <ele>612.8</ele>
        <time>2020-07-11T07:35:47Z</time>
      </trkpt>
      <trkpt lat="37.3287120" lon="-4.1440060">
        <ele>613.2</ele>
        <time>2020-07-11T07:35:56Z</time>
      </trkpt>
      <trkpt lat="37.3287290" lon="-4.1439380">
        <ele>613.2</ele>
        <time>2020-07-11T07:35:57Z</time>
      </trkpt>
      <trkpt lat="37.3288680" lon="-4.1435060">
        <ele>613.4</ele>
        <time>2020-07-11T07:36:03Z</time>
      </trkpt>
      <trkpt lat="37.3289340" lon="-4.1433760">
        <ele>613.6</ele>
        <time>2020-07-11T07:36:05Z</time>
      </trkpt>
      <trkpt lat="37.3290840" lon="-4.1431200">
        <ele>613.8</ele>
        <time>2020-07-11T07:36:09Z</time>
      </trkpt>
      <trkpt lat="37.3291040" lon="-4.1430440">
        <ele>613.8</ele>
        <time>2020-07-11T07:36:10Z</time>
      </trkpt>
      <trkpt lat="37.3291690" lon="-4.1427200">
        <ele>613.6</ele>
        <time>2020-07-11T07:36:14Z</time>
      </trkpt>
      <trkpt lat="37.3291650" lon="-4.1425570">
        <ele>613.6</ele>
        <time>2020-07-11T07:36:16Z</time>
      </trkpt>
      <trkpt lat="37.3291900" lon="-4.1423140">
        <ele>613.6</ele>
        <time>2020-07-11T07:36:19Z</time>
      </trkpt>
      <trkpt lat="37.3292290" lon="-4.1421600">
        <ele>613.6</ele>
        <time>2020-07-11T07:36:21Z</time>
      </trkpt>
      <trkpt lat="37.3293730" lon="-4.1417270">
        <ele>614.2</ele>
        <time>2020-07-11T07:36:27Z</time>
      </trkpt>
      <trkpt lat="37.3295230" lon="-4.1412940">
        <ele>614.6</ele>
        <time>2020-07-11T07:36:33Z</time>
      </trkpt>
      <trkpt lat="37.3295940" lon="-4.1410920">
        <ele>614.8</ele>
        <time>2020-07-11T07:36:36Z</time>
      </trkpt>
      <trkpt lat="37.3297520" lon="-4.1406200">
        <ele>615.6</ele>
        <time>2020-07-11T07:36:43Z</time>
      </trkpt>
      <trkpt lat="37.3297970" lon="-4.1404910">
        <ele>615.8</ele>
        <time>2020-07-11T07:36:45Z</time>
      </trkpt>
      <trkpt lat="37.3298390" lon="-4.1403620">
        <ele>616.2</ele>
        <time>2020-07-11T07:36:47Z</time>
      </trkpt>
      <trkpt lat="37.3299090" lon="-4.1401690">
        <ele>616.8</ele>
        <time>2020-07-11T07:36:50Z</time>
      </trkpt>
      <trkpt lat="37.3300000" lon="-4.1399280">
        <ele>617.4</ele>
        <time>2020-07-11T07:36:54Z</time>
      </trkpt>
      <trkpt lat="37.3300720" lon="-4.1397520">
        <ele>617.8</ele>
        <time>2020-07-11T07:36:57Z</time>
      </trkpt>
      <trkpt lat="37.3301940" lon="-4.1394450">
        <ele>618.6</ele>
        <time>2020-07-11T07:37:02Z</time>
      </trkpt>
      <trkpt lat="37.3302190" lon="-4.1393840">
        <ele>618.8</ele>
        <time>2020-07-11T07:37:03Z</time>
      </trkpt>
      <trkpt lat="37.3302450" lon="-4.1393240">
        <ele>619.0</ele>
        <time>2020-07-11T07:37:04Z</time>
      </trkpt>
      <trkpt lat="37.3303850" lon="-4.1389860">
        <ele>620.0</ele>
        <time>2020-07-11T07:37:10Z</time>
      </trkpt>
      <trkpt lat="37.3305240" lon="-4.1386670">
        <ele>621.0</ele>
        <time>2020-07-11T07:37:16Z</time>
      </trkpt>
      <trkpt lat="37.3306060" lon="-4.1385130">
        <ele>621.6</ele>
        <time>2020-07-11T07:37:19Z</time>
      </trkpt>
      <trkpt lat="37.3306370" lon="-4.1384670">
        <ele>621.6</ele>
        <time>2020-07-11T07:37:20Z</time>
      </trkpt>
      <trkpt lat="37.3307440" lon="-4.1383280">
        <ele>622.0</ele>
        <time>2020-07-11T07:37:23Z</time>
      </trkpt>
      <trkpt lat="37.3308130" lon="-4.1382420">
        <ele>622.4</ele>
        <time>2020-07-11T07:37:25Z</time>
      </trkpt>
      <trkpt lat="37.3309980" lon="-4.1380250">
        <ele>623.2</ele>
        <time>2020-07-11T07:37:30Z</time>
      </trkpt>
      <trkpt lat="37.3311220" lon="-4.1378900">
        <ele>623.4</ele>
        <time>2020-07-11T07:37:33Z</time>
      </trkpt>
      <trkpt lat="37.3311590" lon="-4.1378460">
        <ele>623.6</ele>
        <time>2020-07-11T07:37:34Z</time>
      </trkpt>
      <trkpt lat="37.3313170" lon="-4.1376770">
        <ele>624.2</ele>
        <time>2020-07-11T07:37:38Z</time>
      </trkpt>
      <trkpt lat="37.3314360" lon="-4.1375720">
        <ele>624.6</ele>
        <time>2020-07-11T07:37:41Z</time>
      </trkpt>
      <trkpt lat="37.3315540" lon="-4.1374720">
        <ele>625.2</ele>
        <time>2020-07-11T07:37:44Z</time>
      </trkpt>
      <trkpt lat="37.3317040" lon="-4.1373240">
        <ele>626.0</ele>
        <time>2020-07-11T07:37:48Z</time>
      </trkpt>
      <trkpt lat="37.3317370" lon="-4.1372750">
        <ele>626.2</ele>
        <time>2020-07-11T07:37:49Z</time>
      </trkpt>
      <trkpt lat="37.3317660" lon="-4.1372260">
        <ele>626.4</ele>
        <time>2020-07-11T07:37:50Z</time>
      </trkpt>
      <trkpt lat="37.3317980" lon="-4.1371110">
        <ele>626.6</ele>
        <time>2020-07-11T07:37:52Z</time>
      </trkpt>
      <trkpt lat="37.3317520" lon="-4.1369240">
        <ele>627.0</ele>
        <time>2020-07-11T07:37:55Z</time>
      </trkpt>
      <trkpt lat="37.3315890" lon="-4.1367400">
        <ele>627.4</ele>
        <time>2020-07-11T07:37:59Z</time>
      </trkpt>
      <trkpt lat="37.3315480" lon="-4.1366970">
        <ele>627.4</ele>
        <time>2020-07-11T07:38:00Z</time>
      </trkpt>
      <trkpt lat="37.3312330" lon="-4.1363560">
        <ele>627.4</ele>
        <time>2020-07-11T07:38:07Z</time>
      </trkpt>
      <trkpt lat="37.3311740" lon="-4.1363170">
        <ele>627.4</ele>
        <time>2020-07-11T07:38:08Z</time>
      </trkpt>
      <trkpt lat="37.3310170" lon="-4.1362410">
        <ele>627.6</ele>
        <time>2020-07-11T07:38:11Z</time>
      </trkpt>
      <trkpt lat="37.3308300" lon="-4.1362420">
        <ele>628.2</ele>
        <time>2020-07-11T07:38:15Z</time>
      </trkpt>
      <trkpt lat="37.3307880" lon="-4.1362560">
        <ele>628.4</ele>
        <time>2020-07-11T07:38:16Z</time>
      </trkpt>
      <trkpt lat="37.3306840" lon="-4.1363210">
        <ele>629.6</ele>
        <time>2020-07-11T07:38:19Z</time>
      </trkpt>
      <trkpt lat="37.3306530" lon="-4.1363500">
        <ele>630.0</ele>
        <time>2020-07-11T07:38:20Z</time>
      </trkpt>
      <trkpt lat="37.3306250" lon="-4.1363780">
        <ele>630.4</ele>
        <time>2020-07-11T07:38:21Z</time>
      </trkpt>
      <trkpt lat="37.3305970" lon="-4.1364070">
        <ele>630.6</ele>
        <time>2020-07-11T07:38:22Z</time>
      </trkpt>
      <trkpt lat="37.3305410" lon="-4.1364630">
        <ele>631.6</ele>
        <time>2020-07-11T07:38:24Z</time>
      </trkpt>
      <trkpt lat="37.3305130" lon="-4.1364940">
        <ele>631.8</ele>
        <time>2020-07-11T07:38:25Z</time>
      </trkpt>
      <trkpt lat="37.3304570" lon="-4.1365500">
        <ele>632.6</ele>
        <time>2020-07-11T07:38:27Z</time>
      </trkpt>
      <trkpt lat="37.3304060" lon="-4.1366070">
        <ele>633.2</ele>
        <time>2020-07-11T07:38:29Z</time>
      </trkpt>
      <trkpt lat="37.3303550" lon="-4.1366680">
        <ele>633.8</ele>
        <time>2020-07-11T07:38:31Z</time>
      </trkpt>
      <trkpt lat="37.3303020" lon="-4.1367200">
        <ele>634.4</ele>
        <time>2020-07-11T07:38:33Z</time>
      </trkpt>
      <trkpt lat="37.3302760" lon="-4.1367440">
        <ele>634.6</ele>
        <time>2020-07-11T07:38:34Z</time>
      </trkpt>
      <trkpt lat="37.3302090" lon="-4.1368190">
        <ele>635.6</ele>
        <time>2020-07-11T07:38:37Z</time>
      </trkpt>
      <trkpt lat="37.3301110" lon="-4.1369090">
        <ele>636.8</ele>
        <time>2020-07-11T07:38:41Z</time>
      </trkpt>
      <trkpt lat="37.3299980" lon="-4.1369580">
        <ele>638.0</ele>
        <time>2020-07-11T07:38:45Z</time>
      </trkpt>
      <trkpt lat="37.3299440" lon="-4.1369780">
        <ele>638.8</ele>
        <time>2020-07-11T07:38:47Z</time>
      </trkpt>
      <trkpt lat="37.3298860" lon="-4.1369920">
        <ele>639.2</ele>
        <time>2020-07-11T07:38:49Z</time>
      </trkpt>
      <trkpt lat="37.3297770" lon="-4.1370230">
        <ele>640.2</ele>
        <time>2020-07-11T07:38:53Z</time>
      </trkpt>
      <trkpt lat="37.3296970" lon="-4.1370540">
        <ele>641.0</ele>
        <time>2020-07-11T07:38:56Z</time>
      </trkpt>
      <trkpt lat="37.3296740" lon="-4.1370670">
        <ele>641.4</ele>
        <time>2020-07-11T07:38:57Z</time>
      </trkpt>
      <trkpt lat="37.3295780" lon="-4.1371200">
        <ele>642.6</ele>
        <time>2020-07-11T07:39:01Z</time>
      </trkpt>
      <trkpt lat="37.3295290" lon="-4.1371450">
        <ele>643.2</ele>
        <time>2020-07-11T07:39:03Z</time>
      </trkpt>
      <trkpt lat="37.3294770" lon="-4.1371700">
        <ele>643.8</ele>
        <time>2020-07-11T07:39:05Z</time>
      </trkpt>
      <trkpt lat="37.3293800" lon="-4.1372340">
        <ele>644.8</ele>
        <time>2020-07-11T07:39:09Z</time>
      </trkpt>
      <trkpt lat="37.3293100" lon="-4.1372770">
        <ele>645.6</ele>
        <time>2020-07-11T07:39:12Z</time>
      </trkpt>
      <trkpt lat="37.3292820" lon="-4.1372930">
        <ele>646.0</ele>
        <time>2020-07-11T07:39:13Z</time>
      </trkpt>
      <trkpt lat="37.3291890" lon="-4.1373500">
        <ele>647.0</ele>
        <time>2020-07-11T07:39:17Z</time>
      </trkpt>
      <trkpt lat="37.3290980" lon="-4.1374090">
        <ele>648.0</ele>
        <time>2020-07-11T07:39:21Z</time>
      </trkpt>
      <trkpt lat="37.3289980" lon="-4.1374580">
        <ele>649.0</ele>
        <time>2020-07-11T07:39:25Z</time>
      </trkpt>
      <trkpt lat="37.3289110" lon="-4.1375100">
        <ele>649.8</ele>
        <time>2020-07-11T07:39:28Z</time>
      </trkpt>
      <trkpt lat="37.3288600" lon="-4.1375450">
        <ele>650.2</ele>
        <time>2020-07-11T07:39:30Z</time>
      </trkpt>
      <trkpt lat="37.3287260" lon="-4.1376570">
        <ele>651.4</ele>
        <time>2020-07-11T07:39:35Z</time>
      </trkpt>
      <trkpt lat="37.3286890" lon="-4.1377210">
        <ele>651.6</ele>
        <time>2020-07-11T07:39:37Z</time>
      </trkpt>
      <trkpt lat="37.3286340" lon="-4.1378660">
        <ele>652.6</ele>
        <time>2020-07-11T07:39:41Z</time>
      </trkpt>
      <trkpt lat="37.3286310" lon="-4.1379790">
        <ele>653.2</ele>
        <time>2020-07-11T07:39:44Z</time>
      </trkpt>
      <trkpt lat="37.3286430" lon="-4.1380520">
        <ele>653.8</ele>
        <time>2020-07-11T07:39:46Z</time>
      </trkpt>
      <trkpt lat="37.3286790" lon="-4.1381970">
        <ele>655.0</ele>
        <time>2020-07-11T07:39:50Z</time>
      </trkpt>
      <trkpt lat="37.3287030" lon="-4.1383380">
        <ele>656.2</ele>
        <time>2020-07-11T07:39:54Z</time>
      </trkpt>
      <trkpt lat="37.3287160" lon="-4.1384880">
        <ele>657.2</ele>
        <time>2020-07-11T07:39:58Z</time>
      </trkpt>
      <trkpt lat="37.3287170" lon="-4.1385610">
        <ele>657.8</ele>
        <time>2020-07-11T07:40:00Z</time>
      </trkpt>
      <trkpt lat="37.3287100" lon="-4.1386730">
        <ele>658.4</ele>
        <time>2020-07-11T07:40:03Z</time>
      </trkpt>
      <trkpt lat="37.3286830" lon="-4.1387790">
        <ele>659.2</ele>
        <time>2020-07-11T07:40:06Z</time>
      </trkpt>
      <trkpt lat="37.3286710" lon="-4.1388120">
        <ele>659.6</ele>
        <time>2020-07-11T07:40:07Z</time>
      </trkpt>
      <trkpt lat="37.3285900" lon="-4.1389790">
        <ele>660.6</ele>
        <time>2020-07-11T07:40:12Z</time>
      </trkpt>
      <trkpt lat="37.3285680" lon="-4.1390140">
        <ele>661.0</ele>
        <time>2020-07-11T07:40:13Z</time>
      </trkpt>
      <trkpt lat="37.3284900" lon="-4.1391430">
        <ele>662.0</ele>
        <time>2020-07-11T07:40:17Z</time>
      </trkpt>
      <trkpt lat="37.3283950" lon="-4.1393120">
        <ele>663.0</ele>
        <time>2020-07-11T07:40:22Z</time>
      </trkpt>
      <trkpt lat="37.3283600" lon="-4.1393810">
        <ele>663.6</ele>
        <time>2020-07-11T07:40:24Z</time>
      </trkpt>
      <trkpt lat="37.3283030" lon="-4.1394810">
        <ele>664.2</ele>
        <time>2020-07-11T07:40:27Z</time>
      </trkpt>
      <trkpt lat="37.3281960" lon="-4.1396450">
        <ele>665.4</ele>
        <time>2020-07-11T07:40:32Z</time>
      </trkpt>
      <trkpt lat="37.3281480" lon="-4.1397070">
        <ele>665.8</ele>
        <time>2020-07-11T07:40:34Z</time>
      </trkpt>
      <trkpt lat="37.3280780" lon="-4.1397980">
        <ele>666.6</ele>
        <time>2020-07-11T07:40:37Z</time>
      </trkpt>
      <trkpt lat="37.3279250" lon="-4.1399670">
        <ele>667.8</ele>
        <time>2020-07-11T07:40:43Z</time>
      </trkpt>
      <trkpt lat="37.3277630" lon="-4.1401290">
        <ele>669.0</ele>
        <time>2020-07-11T07:40:49Z</time>
      </trkpt>
      <trkpt lat="37.3276410" lon="-4.1402680">
        <ele>669.8</ele>
        <time>2020-07-11T07:40:54Z</time>
      </trkpt>
      <trkpt lat="37.3276190" lon="-4.1403020">
        <ele>670.0</ele>
        <time>2020-07-11T07:40:55Z</time>
      </trkpt>
      <trkpt lat="37.3275300" lon="-4.1404730">
        <ele>671.2</ele>
        <time>2020-07-11T07:41:00Z</time>
      </trkpt>
      <trkpt lat="37.3274940" lon="-4.1405600">
        <ele>671.6</ele>
        <time>2020-07-11T07:41:02Z</time>
      </trkpt>
      <trkpt lat="37.3274460" lon="-4.1406570">
        <ele>672.6</ele>
        <time>2020-07-11T07:41:05Z</time>
      </trkpt>
      <trkpt lat="37.3273800" lon="-4.1407790">
        <ele>673.8</ele>
        <time>2020-07-11T07:41:09Z</time>
      </trkpt>
      <trkpt lat="37.3272920" lon="-4.1408910">
        <ele>674.8</ele>
        <time>2020-07-11T07:41:13Z</time>
      </trkpt>
      <trkpt lat="37.3272400" lon="-4.1409350">
        <ele>675.4</ele>
        <time>2020-07-11T07:41:15Z</time>
      </trkpt>
      <trkpt lat="37.3271550" lon="-4.1409880">
        <ele>675.8</ele>
        <time>2020-07-11T07:41:18Z</time>
      </trkpt>
      <trkpt lat="37.3270260" lon="-4.1410570">
        <ele>677.0</ele>
        <time>2020-07-11T07:41:22Z</time>
      </trkpt>
      <trkpt lat="37.3268810" lon="-4.1411690">
        <ele>678.0</ele>
        <time>2020-07-11T07:41:27Z</time>
      </trkpt>
      <trkpt lat="37.3267830" lon="-4.1412760">
        <ele>679.0</ele>
        <time>2020-07-11T07:41:31Z</time>
      </trkpt>
      <trkpt lat="37.3267600" lon="-4.1413020">
        <ele>679.2</ele>
        <time>2020-07-11T07:41:32Z</time>
      </trkpt>
      <trkpt lat="37.3266610" lon="-4.1414070">
        <ele>680.4</ele>
        <time>2020-07-11T07:41:36Z</time>
      </trkpt>
      <trkpt lat="37.3265590" lon="-4.1415080">
        <ele>681.4</ele>
        <time>2020-07-11T07:41:40Z</time>
      </trkpt>
      <trkpt lat="37.3264270" lon="-4.1416900">
        <ele>682.6</ele>
        <time>2020-07-11T07:41:46Z</time>
      </trkpt>
      <trkpt lat="37.3263730" lon="-4.1417990">
        <ele>683.0</ele>
        <time>2020-07-11T07:41:49Z</time>
      </trkpt>
      <trkpt lat="37.3263220" lon="-4.1419070">
        <ele>683.6</ele>
        <time>2020-07-11T07:41:52Z</time>
      </trkpt>
      <trkpt lat="37.3261940" lon="-4.1421010">
        <ele>684.6</ele>
        <time>2020-07-11T07:41:58Z</time>
      </trkpt>
      <trkpt lat="37.3261700" lon="-4.1421310">
        <ele>685.0</ele>
        <time>2020-07-11T07:41:59Z</time>
      </trkpt>
      <trkpt lat="37.3260990" lon="-4.1422120">
        <ele>685.8</ele>
        <time>2020-07-11T07:42:02Z</time>
      </trkpt>
      <trkpt lat="37.3259780" lon="-4.1423470">
        <ele>686.8</ele>
        <time>2020-07-11T07:42:07Z</time>
      </trkpt>
      <trkpt lat="37.3259550" lon="-4.1423770">
        <ele>687.2</ele>
        <time>2020-07-11T07:42:08Z</time>
      </trkpt>
      <trkpt lat="37.3258660" lon="-4.1424800">
        <ele>688.0</ele>
        <time>2020-07-11T07:42:12Z</time>
      </trkpt>
      <trkpt lat="37.3257710" lon="-4.1425840">
        <ele>689.0</ele>
        <time>2020-07-11T07:42:16Z</time>
      </trkpt>
      <trkpt lat="37.3257270" lon="-4.1426370">
        <ele>689.6</ele>
        <time>2020-07-11T07:42:18Z</time>
      </trkpt>
      <trkpt lat="37.3256570" lon="-4.1427200">
        <ele>690.2</ele>
        <time>2020-07-11T07:42:21Z</time>
      </trkpt>
      <trkpt lat="37.3255490" lon="-4.1428490">
        <ele>691.2</ele>
        <time>2020-07-11T07:42:26Z</time>
      </trkpt>
      <trkpt lat="37.3255280" lon="-4.1428740">
        <ele>691.4</ele>
        <time>2020-07-11T07:42:27Z</time>
      </trkpt>
      <trkpt lat="37.3254410" lon="-4.1429940">
        <ele>692.2</ele>
        <time>2020-07-11T07:42:31Z</time>
      </trkpt>
      <trkpt lat="37.3253620" lon="-4.1430760">
        <ele>692.8</ele>
        <time>2020-07-11T07:42:34Z</time>
      </trkpt>
      <trkpt lat="37.3253120" lon="-4.1431270">
        <ele>693.2</ele>
        <time>2020-07-11T07:42:36Z</time>
      </trkpt>
      <trkpt lat="37.3251880" lon="-4.1432670">
        <ele>694.2</ele>
        <time>2020-07-11T07:42:41Z</time>
      </trkpt>
      <trkpt lat="37.3251610" lon="-4.1432910">
        <ele>694.4</ele>
        <time>2020-07-11T07:42:42Z</time>
      </trkpt>
      <trkpt lat="37.3250340" lon="-4.1434340">
        <ele>695.6</ele>
        <time>2020-07-11T07:42:47Z</time>
      </trkpt>
      <trkpt lat="37.3250100" lon="-4.1434600">
        <ele>695.8</ele>
        <time>2020-07-11T07:42:48Z</time>
      </trkpt>
      <trkpt lat="37.3249370" lon="-4.1435330">
        <ele>696.6</ele>
        <time>2020-07-11T07:42:51Z</time>
      </trkpt>
      <trkpt lat="37.3248280" lon="-4.1436570">
        <ele>697.8</ele>
        <time>2020-07-11T07:42:56Z</time>
      </trkpt>
      <trkpt lat="37.3247660" lon="-4.1437390">
        <ele>698.8</ele>
        <time>2020-07-11T07:42:59Z</time>
      </trkpt>
      <trkpt lat="37.3247450" lon="-4.1437650">
        <ele>699.0</ele>
        <time>2020-07-11T07:43:00Z</time>
      </trkpt>
      <trkpt lat="37.3246470" lon="-4.1439150">
        <ele>700.2</ele>
        <time>2020-07-11T07:43:05Z</time>
      </trkpt>
      <trkpt lat="37.3246100" lon="-4.1439730">
        <ele>700.6</ele>
        <time>2020-07-11T07:43:07Z</time>
      </trkpt>
      <trkpt lat="37.3245290" lon="-4.1440870">
        <ele>701.4</ele>
        <time>2020-07-11T07:43:11Z</time>
      </trkpt>
      <trkpt lat="37.3243990" lon="-4.1442630">
        <ele>702.6</ele>
        <time>2020-07-11T07:43:17Z</time>
      </trkpt>
      <trkpt lat="37.3243760" lon="-4.1442930">
        <ele>702.8</ele>
        <time>2020-07-11T07:43:18Z</time>
      </trkpt>
      <trkpt lat="37.3242960" lon="-4.1444170">
        <ele>703.6</ele>
        <time>2020-07-11T07:43:22Z</time>
      </trkpt>
      <trkpt lat="37.3242030" lon="-4.1445730">
        <ele>704.8</ele>
        <time>2020-07-11T07:43:27Z</time>
      </trkpt>
      <trkpt lat="37.3241150" lon="-4.1447380">
        <ele>705.8</ele>
        <time>2020-07-11T07:43:32Z</time>
      </trkpt>
      <trkpt lat="37.3240430" lon="-4.1449260">
        <ele>707.0</ele>
        <time>2020-07-11T07:43:37Z</time>
      </trkpt>
      <trkpt lat="37.3239730" lon="-4.1451950">
        <ele>708.0</ele>
        <time>2020-07-11T07:43:44Z</time>
      </trkpt>
      <trkpt lat="37.3239570" lon="-4.1452690">
        <ele>708.6</ele>
        <time>2020-07-11T07:43:46Z</time>
      </trkpt>
      <trkpt lat="37.3239200" lon="-4.1453730">
        <ele>709.2</ele>
        <time>2020-07-11T07:43:49Z</time>
      </trkpt>
      <trkpt lat="37.3238650" lon="-4.1455220">
        <ele>710.2</ele>
        <time>2020-07-11T07:43:53Z</time>
      </trkpt>
      <trkpt lat="37.3237720" lon="-4.1456920">
        <ele>711.4</ele>
        <time>2020-07-11T07:43:58Z</time>
      </trkpt>
      <trkpt lat="37.3236940" lon="-4.1458170">
        <ele>712.0</ele>
        <time>2020-07-11T07:44:02Z</time>
      </trkpt>
      <trkpt lat="37.3236450" lon="-4.1458710">
        <ele>712.4</ele>
        <time>2020-07-11T07:44:04Z</time>
      </trkpt>
      <trkpt lat="37.3235040" lon="-4.1460330">
        <ele>713.6</ele>
        <time>2020-07-11T07:44:10Z</time>
      </trkpt>
      <trkpt lat="37.3234790" lon="-4.1460620">
        <ele>713.8</ele>
        <time>2020-07-11T07:44:11Z</time>
      </trkpt>
      <trkpt lat="37.3233570" lon="-4.1461870">
        <ele>714.6</ele>
        <time>2020-07-11T07:44:16Z</time>
      </trkpt>
      <trkpt lat="37.3232570" lon="-4.1462860">
        <ele>715.4</ele>
        <time>2020-07-11T07:44:20Z</time>
      </trkpt>
      <trkpt lat="37.3232080" lon="-4.1463420">
        <ele>715.8</ele>
        <time>2020-07-11T07:44:22Z</time>
      </trkpt>
      <trkpt lat="37.3230200" lon="-4.1465590">
        <ele>716.8</ele>
        <time>2020-07-11T07:44:30Z</time>
      </trkpt>
      <trkpt lat="37.3229870" lon="-4.1466000">
        <ele>717.0</ele>
        <time>2020-07-11T07:44:31Z</time>
      </trkpt>
      <trkpt lat="37.3228440" lon="-4.1467560">
        <ele>717.8</ele>
        <time>2020-07-11T07:44:37Z</time>
      </trkpt>
      <trkpt lat="37.3227320" lon="-4.1468840">
        <ele>718.8</ele>
        <time>2020-07-11T07:44:42Z</time>
      </trkpt>
      <trkpt lat="37.3227070" lon="-4.1469120">
        <ele>719.0</ele>
        <time>2020-07-11T07:44:43Z</time>
      </trkpt>
      <trkpt lat="37.3225710" lon="-4.1470660">
        <ele>720.2</ele>
        <time>2020-07-11T07:44:49Z</time>
      </trkpt>
      <trkpt lat="37.3225120" lon="-4.1471410">
        <ele>720.8</ele>
        <time>2020-07-11T07:44:52Z</time>
      </trkpt>
      <trkpt lat="37.3224700" lon="-4.1471910">
        <ele>721.4</ele>
        <time>2020-07-11T07:44:54Z</time>
      </trkpt>
      <trkpt lat="37.3223870" lon="-4.1472840">
        <ele>722.4</ele>
        <time>2020-07-11T07:44:58Z</time>
      </trkpt>
      <trkpt lat="37.3223100" lon="-4.1473310">
        <ele>723.0</ele>
        <time>2020-07-11T07:45:01Z</time>
      </trkpt>
      <trkpt lat="37.3222470" lon="-4.1473460">
        <ele>723.6</ele>
        <time>2020-07-11T07:45:03Z</time>
      </trkpt>
      <trkpt lat="37.3221550" lon="-4.1473240">
        <ele>724.2</ele>
        <time>2020-07-11T07:45:06Z</time>
      </trkpt>
      <trkpt lat="37.3221270" lon="-4.1473060">
        <ele>724.4</ele>
        <time>2020-07-11T07:45:07Z</time>
      </trkpt>
      <trkpt lat="37.3221010" lon="-4.1472830">
        <ele>724.6</ele>
        <time>2020-07-11T07:45:08Z</time>
      </trkpt>
      <trkpt lat="37.3220200" lon="-4.1471850">
        <ele>725.6</ele>
        <time>2020-07-11T07:45:12Z</time>
      </trkpt>
      <trkpt lat="37.3219960" lon="-4.1471560">
        <ele>725.8</ele>
        <time>2020-07-11T07:45:13Z</time>
      </trkpt>
      <trkpt lat="37.3219340" lon="-4.1470780">
        <ele>726.6</ele>
        <time>2020-07-11T07:45:16Z</time>
      </trkpt>
      <trkpt lat="37.3218320" lon="-4.1469520">
        <ele>727.6</ele>
        <time>2020-07-11T07:45:21Z</time>
      </trkpt>
      <trkpt lat="37.3217650" lon="-4.1468890">
        <ele>728.4</ele>
        <time>2020-07-11T07:45:24Z</time>
      </trkpt>
      <trkpt lat="37.3217040" lon="-4.1468560">
        <ele>728.8</ele>
        <time>2020-07-11T07:45:26Z</time>
      </trkpt>
      <trkpt lat="37.3215800" lon="-4.1468400">
        <ele>729.6</ele>
        <time>2020-07-11T07:45:30Z</time>
      </trkpt>
      <trkpt lat="37.3215460" lon="-4.1468460">
        <ele>729.8</ele>
        <time>2020-07-11T07:45:31Z</time>
      </trkpt>
      <trkpt lat="37.3214270" lon="-4.1469190">
        <ele>730.8</ele>
        <time>2020-07-11T07:45:35Z</time>
      </trkpt>
      <trkpt lat="37.3214000" lon="-4.1469390">
        <ele>731.0</ele>
        <time>2020-07-11T07:45:36Z</time>
      </trkpt>
      <trkpt lat="37.3212290" lon="-4.1470780">
        <ele>731.8</ele>
        <time>2020-07-11T07:45:42Z</time>
      </trkpt>
      <trkpt lat="37.3211460" lon="-4.1471480">
        <ele>732.4</ele>
        <time>2020-07-11T07:45:45Z</time>
      </trkpt>
      <trkpt lat="37.3210640" lon="-4.1472080">
        <ele>733.0</ele>
        <time>2020-07-11T07:45:48Z</time>
      </trkpt>
      <trkpt lat="37.3208880" lon="-4.1473090">
        <ele>734.0</ele>
        <time>2020-07-11T07:45:54Z</time>
      </trkpt>
      <trkpt lat="37.3208580" lon="-4.1473180">
        <ele>734.2</ele>
        <time>2020-07-11T07:45:55Z</time>
      </trkpt>
      <trkpt lat="37.3207030" lon="-4.1473410">
        <ele>735.2</ele>
        <time>2020-07-11T07:46:00Z</time>
      </trkpt>
      <trkpt lat="37.3206040" lon="-4.1473350">
        <ele>736.0</ele>
        <time>2020-07-11T07:46:03Z</time>
      </trkpt>
      <trkpt lat="37.3205420" lon="-4.1473250">
        <ele>736.4</ele>
        <time>2020-07-11T07:46:05Z</time>
      </trkpt>
      <trkpt lat="37.3203950" lon="-4.1472460">
        <ele>737.4</ele>
        <time>2020-07-11T07:46:10Z</time>
      </trkpt>
      <trkpt lat="37.3203050" lon="-4.1470840">
        <ele>738.4</ele>
        <time>2020-07-11T07:46:15Z</time>
      </trkpt>
      <trkpt lat="37.3202920" lon="-4.1470440">
        <ele>738.6</ele>
        <time>2020-07-11T07:46:16Z</time>
      </trkpt>
      <trkpt lat="37.3202470" lon="-4.1468910">
        <ele>739.6</ele>
        <time>2020-07-11T07:46:20Z</time>
      </trkpt>
      <trkpt lat="37.3201960" lon="-4.1467030">
        <ele>740.6</ele>
        <time>2020-07-11T07:46:25Z</time>
      </trkpt>
      <trkpt lat="37.3201910" lon="-4.1466640">
        <ele>740.8</ele>
        <time>2020-07-11T07:46:26Z</time>
      </trkpt>
      <trkpt lat="37.3201740" lon="-4.1465080">
        <ele>741.8</ele>
        <time>2020-07-11T07:46:30Z</time>
      </trkpt>
      <trkpt lat="37.3201320" lon="-4.1462220">
        <ele>742.8</ele>
        <time>2020-07-11T07:46:36Z</time>
      </trkpt>
      <trkpt lat="37.3201070" lon="-4.1461770">
        <ele>742.8</ele>
        <time>2020-07-11T07:46:37Z</time>
      </trkpt>
      <trkpt lat="37.3199940" lon="-4.1460960">
        <ele>743.0</ele>
        <time>2020-07-11T07:46:40Z</time>
      </trkpt>
      <trkpt lat="37.3199220" lon="-4.1460690">
        <ele>743.2</ele>
        <time>2020-07-11T07:46:42Z</time>
      </trkpt>
      <trkpt lat="37.3197760" lon="-4.1460490">
        <ele>743.8</ele>
        <time>2020-07-11T07:46:46Z</time>
      </trkpt>
      <trkpt lat="37.3196150" lon="-4.1460270">
        <ele>745.2</ele>
        <time>2020-07-11T07:46:51Z</time>
      </trkpt>
      <trkpt lat="37.3194930" lon="-4.1460130">
        <ele>746.0</ele>
        <time>2020-07-11T07:46:55Z</time>
      </trkpt>
      <trkpt lat="37.3194610" lon="-4.1460110">
        <ele>746.4</ele>
        <time>2020-07-11T07:46:56Z</time>
      </trkpt>
      <trkpt lat="37.3193060" lon="-4.1459790">
        <ele>747.6</ele>
        <time>2020-07-11T07:47:01Z</time>
      </trkpt>
      <trkpt lat="37.3192450" lon="-4.1459550">
        <ele>748.2</ele>
        <time>2020-07-11T07:47:03Z</time>
      </trkpt>
      <trkpt lat="37.3191850" lon="-4.1459310">
        <ele>748.6</ele>
        <time>2020-07-11T07:47:05Z</time>
      </trkpt>
      <trkpt lat="37.3191220" lon="-4.1458410">
        <ele>749.4</ele>
        <time>2020-07-11T07:47:08Z</time>
      </trkpt>
      <trkpt lat="37.3190950" lon="-4.1457610">
        <ele>749.8</ele>
        <time>2020-07-11T07:47:10Z</time>
      </trkpt>
      <trkpt lat="37.3190980" lon="-4.1456170">
        <ele>750.6</ele>
        <time>2020-07-11T07:47:13Z</time>
      </trkpt>
      <trkpt lat="37.3191010" lon="-4.1455680">
        <ele>750.8</ele>
        <time>2020-07-11T07:47:14Z</time>
      </trkpt>
      <trkpt lat="37.3191250" lon="-4.1454260">
        <ele>751.4</ele>
        <time>2020-07-11T07:47:17Z</time>
      </trkpt>
      <trkpt lat="37.3191600" lon="-4.1453280">
        <ele>751.8</ele>
        <time>2020-07-11T07:47:19Z</time>
      </trkpt>
      <trkpt lat="37.3191760" lon="-4.1452800">
        <ele>752.0</ele>
        <time>2020-07-11T07:47:20Z</time>
      </trkpt>
      <trkpt lat="37.3192680" lon="-4.1449890">
        <ele>753.0</ele>
        <time>2020-07-11T07:47:26Z</time>
      </trkpt>
      <trkpt lat="37.3193330" lon="-4.1447510">
        <ele>753.8</ele>
        <time>2020-07-11T07:47:31Z</time>
      </trkpt>
      <trkpt lat="37.3193420" lon="-4.1447050">
        <ele>754.0</ele>
        <time>2020-07-11T07:47:32Z</time>
      </trkpt>
      <trkpt lat="37.3193810" lon="-4.1444080">
        <ele>755.2</ele>
        <time>2020-07-11T07:47:38Z</time>
      </trkpt>
      <trkpt lat="37.3193830" lon="-4.1443590">
        <ele>755.4</ele>
        <time>2020-07-11T07:47:39Z</time>
      </trkpt>
      <trkpt lat="37.3193890" lon="-4.1441090">
        <ele>756.2</ele>
        <time>2020-07-11T07:47:44Z</time>
      </trkpt>
      <trkpt lat="37.3193800" lon="-4.1438580">
        <ele>757.0</ele>
        <time>2020-07-11T07:47:49Z</time>
      </trkpt>
      <trkpt lat="37.3193640" lon="-4.1437580">
        <ele>757.2</ele>
        <time>2020-07-11T07:47:51Z</time>
      </trkpt>
      <trkpt lat="37.3193010" lon="-4.1435790">
        <ele>757.8</ele>
        <time>2020-07-11T07:47:55Z</time>
      </trkpt>
      <trkpt lat="37.3192570" lon="-4.1434390">
        <ele>758.2</ele>
        <time>2020-07-11T07:47:58Z</time>
      </trkpt>
      <trkpt lat="37.3192330" lon="-4.1432420">
        <ele>759.0</ele>
        <time>2020-07-11T07:48:02Z</time>
      </trkpt>
      <trkpt lat="37.3192450" lon="-4.1430870">
        <ele>759.4</ele>
        <time>2020-07-11T07:48:05Z</time>
      </trkpt>
      <trkpt lat="37.3192740" lon="-4.1429360">
        <ele>759.6</ele>
        <time>2020-07-11T07:48:08Z</time>
      </trkpt>
      <trkpt lat="37.3193260" lon="-4.1427030">
        <ele>760.4</ele>
        <time>2020-07-11T07:48:13Z</time>
      </trkpt>
      <trkpt lat="37.3193770" lon="-4.1424860">
        <ele>761.4</ele>
        <time>2020-07-11T07:48:18Z</time>
      </trkpt>
      <trkpt lat="37.3193880" lon="-4.1424430">
        <ele>761.6</ele>
        <time>2020-07-11T07:48:19Z</time>
      </trkpt>
      <trkpt lat="37.3194380" lon="-4.1422350">
        <ele>763.0</ele>
        <time>2020-07-11T07:48:24Z</time>
      </trkpt>
      <trkpt lat="37.3194940" lon="-4.1420770">
        <ele>764.0</ele>
        <time>2020-07-11T07:48:28Z</time>
      </trkpt>
      <trkpt lat="37.3195530" lon="-4.1419280">
        <ele>765.0</ele>
        <time>2020-07-11T07:48:32Z</time>
      </trkpt>
      <trkpt lat="37.3196170" lon="-4.1417790">
        <ele>766.0</ele>
        <time>2020-07-11T07:48:36Z</time>
      </trkpt>
      <trkpt lat="37.3196350" lon="-4.1417450">
        <ele>766.2</ele>
        <time>2020-07-11T07:48:37Z</time>
      </trkpt>
      <trkpt lat="37.3196970" lon="-4.1415950">
        <ele>767.0</ele>
        <time>2020-07-11T07:48:41Z</time>
      </trkpt>
      <trkpt lat="37.3197710" lon="-4.1414120">
        <ele>768.2</ele>
        <time>2020-07-11T07:48:46Z</time>
      </trkpt>
      <trkpt lat="37.3198500" lon="-4.1412310">
        <ele>769.4</ele>
        <time>2020-07-11T07:48:51Z</time>
      </trkpt>
      <trkpt lat="37.3199110" lon="-4.1410700">
        <ele>770.4</ele>
        <time>2020-07-11T07:48:55Z</time>
      </trkpt>
      <trkpt lat="37.3199770" lon="-4.1408470">
        <ele>771.6</ele>
        <time>2020-07-11T07:49:00Z</time>
      </trkpt>
      <trkpt lat="37.3200160" lon="-4.1407080">
        <ele>772.0</ele>
        <time>2020-07-11T07:49:03Z</time>
      </trkpt>
      <trkpt lat="37.3200610" lon="-4.1405300">
        <ele>772.8</ele>
        <time>2020-07-11T07:49:07Z</time>
      </trkpt>
      <trkpt lat="37.3201160" lon="-4.1403340">
        <ele>773.4</ele>
        <time>2020-07-11T07:49:11Z</time>
      </trkpt>
      <trkpt lat="37.3201420" lon="-4.1402410">
        <ele>773.8</ele>
        <time>2020-07-11T07:49:13Z</time>
      </trkpt>
      <trkpt lat="37.3201980" lon="-4.1400180">
        <ele>774.8</ele>
        <time>2020-07-11T07:49:18Z</time>
      </trkpt>
      <trkpt lat="37.3202640" lon="-4.1397850">
        <ele>775.8</ele>
        <time>2020-07-11T07:49:23Z</time>
      </trkpt>
      <trkpt lat="37.3202750" lon="-4.1397430">
        <ele>776.0</ele>
        <time>2020-07-11T07:49:24Z</time>
      </trkpt>
      <trkpt lat="37.3203480" lon="-4.1394830">
        <ele>777.2</ele>
        <time>2020-07-11T07:49:30Z</time>
      </trkpt>
      <trkpt lat="37.3204300" lon="-4.1392280">
        <ele>778.2</ele>
        <time>2020-07-11T07:49:36Z</time>
      </trkpt>
      <trkpt lat="37.3204440" lon="-4.1391860">
        <ele>778.4</ele>
        <time>2020-07-11T07:49:37Z</time>
      </trkpt>
      <trkpt lat="37.3205100" lon="-4.1390180">
        <ele>779.4</ele>
        <time>2020-07-11T07:49:41Z</time>
      </trkpt>
      <trkpt lat="37.3205920" lon="-4.1388110">
        <ele>780.4</ele>
        <time>2020-07-11T07:49:46Z</time>
      </trkpt>
      <trkpt lat="37.3206460" lon="-4.1386350">
        <ele>781.2</ele>
        <time>2020-07-11T07:49:50Z</time>
      </trkpt>
      <trkpt lat="37.3206590" lon="-4.1385910">
        <ele>781.4</ele>
        <time>2020-07-11T07:49:51Z</time>
      </trkpt>
      <trkpt lat="37.3207340" lon="-4.1383310">
        <ele>782.6</ele>
        <time>2020-07-11T07:49:57Z</time>
      </trkpt>
      <trkpt lat="37.3207800" lon="-4.1381540">
        <ele>783.6</ele>
        <time>2020-07-11T07:50:01Z</time>
      </trkpt>
      <trkpt lat="37.3207910" lon="-4.1381140">
        <ele>783.8</ele>
        <time>2020-07-11T07:50:02Z</time>
      </trkpt>
      <trkpt lat="37.3208620" lon="-4.1378550">
        <ele>785.0</ele>
        <time>2020-07-11T07:50:08Z</time>
      </trkpt>
      <trkpt lat="37.3208960" lon="-4.1377270">
        <ele>785.6</ele>
        <time>2020-07-11T07:50:11Z</time>
      </trkpt>
      <trkpt lat="37.3209210" lon="-4.1376420">
        <ele>786.0</ele>
        <time>2020-07-11T07:50:13Z</time>
      </trkpt>
      <trkpt lat="37.3209720" lon="-4.1374370">
        <ele>787.0</ele>
        <time>2020-07-11T07:50:18Z</time>
      </trkpt>
      <trkpt lat="37.3209920" lon="-4.1373500">
        <ele>787.4</ele>
        <time>2020-07-11T07:50:20Z</time>
      </trkpt>
      <trkpt lat="37.3210320" lon="-4.1372110">
        <ele>788.2</ele>
        <time>2020-07-11T07:50:23Z</time>
      </trkpt>
      <trkpt lat="37.3210870" lon="-4.1370260">
        <ele>788.8</ele>
        <time>2020-07-11T07:50:27Z</time>
      </trkpt>
      <trkpt lat="37.3211020" lon="-4.1369770">
        <ele>789.2</ele>
        <time>2020-07-11T07:50:28Z</time>
      </trkpt>
      <trkpt lat="37.3211550" lon="-4.1367540">
        <ele>790.4</ele>
        <time>2020-07-11T07:50:33Z</time>
      </trkpt>
      <trkpt lat="37.3211860" lon="-4.1366200">
        <ele>791.0</ele>
        <time>2020-07-11T07:50:36Z</time>
      </trkpt>
      <trkpt lat="37.3212070" lon="-4.1365250">
        <ele>791.4</ele>
        <time>2020-07-11T07:50:38Z</time>
      </trkpt>
      <trkpt lat="37.3212710" lon="-4.1362500">
        <ele>792.4</ele>
        <time>2020-07-11T07:50:44Z</time>
      </trkpt>
      <trkpt lat="37.3213110" lon="-4.1360650">
        <ele>793.0</ele>
        <time>2020-07-11T07:50:48Z</time>
      </trkpt>
      <trkpt lat="37.3213500" lon="-4.1359270">
        <ele>793.6</ele>
        <time>2020-07-11T07:50:51Z</time>
      </trkpt>
      <trkpt lat="37.3214210" lon="-4.1357050">
        <ele>794.4</ele>
        <time>2020-07-11T07:50:56Z</time>
      </trkpt>
      <trkpt lat="37.3214530" lon="-4.1356210">
        <ele>794.8</ele>
        <time>2020-07-11T07:50:58Z</time>
      </trkpt>
      <trkpt lat="37.3215540" lon="-4.1353790">
        <ele>795.8</ele>
        <time>2020-07-11T07:51:04Z</time>
      </trkpt>
      <trkpt lat="37.3215860" lon="-4.1353110">
        <ele>796.2</ele>
        <time>2020-07-11T07:51:06Z</time>
      </trkpt>
      <trkpt lat="37.3216400" lon="-4.1352050">
        <ele>796.8</ele>
        <time>2020-07-11T07:51:09Z</time>
      </trkpt>
      <trkpt lat="37.3217050" lon="-4.1350250">
        <ele>798.0</ele>
        <time>2020-07-11T07:51:14Z</time>
      </trkpt>
      <trkpt lat="37.3217030" lon="-4.1349850">
        <ele>798.0</ele>
        <time>2020-07-11T07:51:15Z</time>
      </trkpt>
      <trkpt lat="37.3216860" lon="-4.1349440">
        <ele>798.4</ele>
        <time>2020-07-11T07:51:16Z</time>
      </trkpt>
      <trkpt lat="37.3216250" lon="-4.1348810">
        <ele>798.8</ele>
        <time>2020-07-11T07:51:18Z</time>
      </trkpt>
      <trkpt lat="37.3215820" lon="-4.1348520">
        <ele>799.0</ele>
        <time>2020-07-11T07:51:19Z</time>
      </trkpt>
      <trkpt lat="37.3214590" lon="-4.1348060">
        <ele>799.6</ele>
        <time>2020-07-11T07:51:22Z</time>
      </trkpt>
      <trkpt lat="37.3213360" lon="-4.1348580">
        <ele>799.8</ele>
        <time>2020-07-11T07:51:25Z</time>
      </trkpt>
      <trkpt lat="37.3212760" lon="-4.1349270">
        <ele>800.0</ele>
        <time>2020-07-11T07:51:27Z</time>
      </trkpt>
      <trkpt lat="37.3212230" lon="-4.1350090">
        <ele>800.4</ele>
        <time>2020-07-11T07:51:29Z</time>
      </trkpt>
      <trkpt lat="37.3211980" lon="-4.1350480">
        <ele>800.6</ele>
        <time>2020-07-11T07:51:30Z</time>
      </trkpt>
      <trkpt lat="37.3211310" lon="-4.1351720">
        <ele>801.2</ele>
        <time>2020-07-11T07:51:33Z</time>
      </trkpt>
      <trkpt lat="37.3210440" lon="-4.1353280">
        <ele>802.2</ele>
        <time>2020-07-11T07:51:37Z</time>
      </trkpt>
      <trkpt lat="37.3210240" lon="-4.1353710">
        <ele>802.4</ele>
        <time>2020-07-11T07:51:38Z</time>
      </trkpt>
      <trkpt lat="37.3209240" lon="-4.1355640">
        <ele>803.6</ele>
        <time>2020-07-11T07:51:43Z</time>
      </trkpt>
      <trkpt lat="37.3208310" lon="-4.1357540">
        <ele>804.6</ele>
        <time>2020-07-11T07:51:48Z</time>
      </trkpt>
      <trkpt lat="37.3207200" lon="-4.1359260">
        <ele>805.8</ele>
        <time>2020-07-11T07:51:53Z</time>
      </trkpt>
      <trkpt lat="37.3206320" lon="-4.1360010">
        <ele>806.4</ele>
        <time>2020-07-11T07:51:56Z</time>
      </trkpt>
      <trkpt lat="37.3205620" lon="-4.1360210">
        <ele>806.8</ele>
        <time>2020-07-11T07:51:58Z</time>
      </trkpt>
      <trkpt lat="37.3204650" lon="-4.1360010">
        <ele>807.4</ele>
        <time>2020-07-11T07:52:01Z</time>
      </trkpt>
      <trkpt lat="37.3204050" lon="-4.1359760">
        <ele>808.0</ele>
        <time>2020-07-11T07:52:03Z</time>
      </trkpt>
      <trkpt lat="37.3203200" lon="-4.1359310">
        <ele>809.0</ele>
        <time>2020-07-11T07:52:06Z</time>
      </trkpt>
      <trkpt lat="37.3202160" lon="-4.1358610">
        <ele>810.2</ele>
        <time>2020-07-11T07:52:10Z</time>
      </trkpt>
      <trkpt lat="37.3201080" lon="-4.1357960">
        <ele>811.2</ele>
        <time>2020-07-11T07:52:14Z</time>
      </trkpt>
      <trkpt lat="37.3199780" lon="-4.1356990">
        <ele>812.6</ele>
        <time>2020-07-11T07:52:19Z</time>
      </trkpt>
      <trkpt lat="37.3198450" lon="-4.1355960">
        <ele>813.6</ele>
        <time>2020-07-11T07:52:24Z</time>
      </trkpt>
      <trkpt lat="37.3197620" lon="-4.1355430">
        <ele>814.4</ele>
        <time>2020-07-11T07:52:27Z</time>
      </trkpt>
      <trkpt lat="37.3197050" lon="-4.1355040">
        <ele>815.0</ele>
        <time>2020-07-11T07:52:29Z</time>
      </trkpt>
      <trkpt lat="37.3195670" lon="-4.1354120">
        <ele>816.2</ele>
        <time>2020-07-11T07:52:34Z</time>
      </trkpt>
      <trkpt lat="37.3194570" lon="-4.1353430">
        <ele>817.2</ele>
        <time>2020-07-11T07:52:38Z</time>
      </trkpt>
      <trkpt lat="37.3194280" lon="-4.1353240">
        <ele>817.6</ele>
        <time>2020-07-11T07:52:39Z</time>
      </trkpt>
      <trkpt lat="37.3193450" lon="-4.1352760">
        <ele>818.2</ele>
        <time>2020-07-11T07:52:42Z</time>
      </trkpt>
      <trkpt lat="37.3191970" lon="-4.1351870">
        <ele>819.4</ele>
        <time>2020-07-11T07:52:47Z</time>
      </trkpt>
      <trkpt lat="37.3190790" lon="-4.1351130">
        <ele>820.2</ele>
        <time>2020-07-11T07:52:51Z</time>
      </trkpt>
      <trkpt lat="37.3190520" lon="-4.1350940">
        <ele>820.4</ele>
        <time>2020-07-11T07:52:52Z</time>
      </trkpt>
      <trkpt lat="37.3189230" lon="-4.1349680">
        <ele>821.6</ele>
        <time>2020-07-11T07:52:57Z</time>
      </trkpt>
      <trkpt lat="37.3188900" lon="-4.1349030">
        <ele>821.8</ele>
        <time>2020-07-11T07:52:59Z</time>
      </trkpt>
      <trkpt lat="37.3188460" lon="-4.1348070">
        <ele>822.6</ele>
        <time>2020-07-11T07:53:02Z</time>
      </trkpt>
      <trkpt lat="37.3188120" lon="-4.1346240">
        <ele>823.6</ele>
        <time>2020-07-11T07:53:07Z</time>
      </trkpt>
      <trkpt lat="37.3187930" lon="-4.1344430">
        <ele>824.8</ele>
        <time>2020-07-11T07:53:12Z</time>
      </trkpt>
      <trkpt lat="37.3187970" lon="-4.1342900">
        <ele>825.8</ele>
        <time>2020-07-11T07:53:16Z</time>
      </trkpt>
      <trkpt lat="37.3188120" lon="-4.1340900">
        <ele>827.0</ele>
        <time>2020-07-11T07:53:21Z</time>
      </trkpt>
      <trkpt lat="37.3188210" lon="-4.1339780">
        <ele>827.6</ele>
        <time>2020-07-11T07:53:24Z</time>
      </trkpt>
      <trkpt lat="37.3188310" lon="-4.1339050">
        <ele>828.0</ele>
        <time>2020-07-11T07:53:26Z</time>
      </trkpt>
      <trkpt lat="37.3188460" lon="-4.1337300">
        <ele>829.2</ele>
        <time>2020-07-11T07:53:31Z</time>
      </trkpt>
      <trkpt lat="37.3188590" lon="-4.1336260">
        <ele>830.0</ele>
        <time>2020-07-11T07:53:34Z</time>
      </trkpt>
      <trkpt lat="37.3188660" lon="-4.1335710">
        <ele>830.2</ele>
        <time>2020-07-11T07:53:36Z</time>
      </trkpt>
      <trkpt lat="37.3188850" lon="-4.1333880">
        <ele>831.2</ele>
        <time>2020-07-11T07:53:41Z</time>
      </trkpt>
      <trkpt lat="37.3189100" lon="-4.1332380">
        <ele>832.0</ele>
        <time>2020-07-11T07:53:45Z</time>
      </trkpt>
      <trkpt lat="37.3189170" lon="-4.1331700">
        <ele>832.4</ele>
        <time>2020-07-11T07:53:47Z</time>
      </trkpt>
      <trkpt lat="37.3189430" lon="-4.1329900">
        <ele>833.4</ele>
        <time>2020-07-11T07:53:52Z</time>
      </trkpt>
      <trkpt lat="37.3189480" lon="-4.1329500">
        <ele>833.6</ele>
        <time>2020-07-11T07:53:53Z</time>
      </trkpt>
      <trkpt lat="37.3189900" lon="-4.1327640">
        <ele>834.4</ele>
        <time>2020-07-11T07:53:58Z</time>
      </trkpt>
      <trkpt lat="37.3190090" lon="-4.1326970">
        <ele>834.8</ele>
        <time>2020-07-11T07:54:00Z</time>
      </trkpt>
      <trkpt lat="37.3190530" lon="-4.1325630">
        <ele>835.6</ele>
        <time>2020-07-11T07:54:04Z</time>
      </trkpt>
      <trkpt lat="37.3191030" lon="-4.1324320">
        <ele>836.6</ele>
        <time>2020-07-11T07:54:08Z</time>
      </trkpt>
      <trkpt lat="37.3191130" lon="-4.1324000">
        <ele>837.0</ele>
        <time>2020-07-11T07:54:09Z</time>
      </trkpt>
      <trkpt lat="37.3191410" lon="-4.1323040">
        <ele>837.8</ele>
        <time>2020-07-11T07:54:12Z</time>
      </trkpt>
      <trkpt lat="37.3192170" lon="-4.1320950">
        <ele>838.6</ele>
        <time>2020-07-11T07:54:18Z</time>
      </trkpt>
      <trkpt lat="37.3192360" lon="-4.1320270">
        <ele>838.8</ele>
        <time>2020-07-11T07:54:20Z</time>
      </trkpt>
      <trkpt lat="37.3192830" lon="-4.1318990">
        <ele>840.2</ele>
        <time>2020-07-11T07:54:24Z</time>
      </trkpt>
      <trkpt lat="37.3192940" lon="-4.1318670">
        <ele>840.6</ele>
        <time>2020-07-11T07:54:25Z</time>
      </trkpt>
      <trkpt lat="37.3193170" lon="-4.1318040">
        <ele>841.4</ele>
        <time>2020-07-11T07:54:27Z</time>
      </trkpt>
      <trkpt lat="37.3194030" lon="-4.1315820">
        <ele>842.6</ele>
        <time>2020-07-11T07:54:34Z</time>
      </trkpt>
      <trkpt lat="37.3194140" lon="-4.1315490">
        <ele>843.0</ele>
        <time>2020-07-11T07:54:35Z</time>
      </trkpt>
      <trkpt lat="37.3194500" lon="-4.1314440">
        <ele>843.8</ele>
        <time>2020-07-11T07:54:38Z</time>
      </trkpt>
      <trkpt lat="37.3195080" lon="-4.1312800">
        <ele>845.0</ele>
        <time>2020-07-11T07:54:43Z</time>
      </trkpt>
      <trkpt lat="37.3195300" lon="-4.1312140">
        <ele>845.4</ele>
        <time>2020-07-11T07:54:45Z</time>
      </trkpt>
      <trkpt lat="37.3195580" lon="-4.1311100">
        <ele>846.2</ele>
        <time>2020-07-11T07:54:48Z</time>
      </trkpt>
      <trkpt lat="37.3196030" lon="-4.1309420">
        <ele>847.4</ele>
        <time>2020-07-11T07:54:53Z</time>
      </trkpt>
      <trkpt lat="37.3196300" lon="-4.1308500">
        <ele>848.0</ele>
        <time>2020-07-11T07:54:56Z</time>
      </trkpt>
      <trkpt lat="37.3196420" lon="-4.1307860">
        <ele>848.4</ele>
        <time>2020-07-11T07:54:58Z</time>
      </trkpt>
      <trkpt lat="37.3196690" lon="-4.1306300">
        <ele>849.6</ele>
        <time>2020-07-11T07:55:03Z</time>
      </trkpt>
      <trkpt lat="37.3196750" lon="-4.1305970">
        <ele>849.8</ele>
        <time>2020-07-11T07:55:04Z</time>
      </trkpt>
      <trkpt lat="37.3197010" lon="-4.1304650">
        <ele>850.8</ele>
        <time>2020-07-11T07:55:08Z</time>
      </trkpt>
      <trkpt lat="37.3197330" lon="-4.1303010">
        <ele>852.0</ele>
        <time>2020-07-11T07:55:13Z</time>
      </trkpt>
      <trkpt lat="37.3197390" lon="-4.1302640">
        <ele>852.2</ele>
        <time>2020-07-11T07:55:14Z</time>
      </trkpt>
      <trkpt lat="37.3197470" lon="-4.1300510">
        <ele>853.4</ele>
        <time>2020-07-11T07:55:19Z</time>
      </trkpt>
      <trkpt lat="37.3197390" lon="-4.1300080">
        <ele>853.6</ele>
        <time>2020-07-11T07:55:20Z</time>
      </trkpt>
      <trkpt lat="37.3196750" lon="-4.1297870">
        <ele>854.4</ele>
        <time>2020-07-11T07:55:25Z</time>
      </trkpt>
      <trkpt lat="37.3196230" lon="-4.1296740">
        <ele>854.8</ele>
        <time>2020-07-11T07:55:28Z</time>
      </trkpt>
      <trkpt lat="37.3194970" lon="-4.1293740">
        <ele>855.4</ele>
        <time>2020-07-11T07:55:34Z</time>
      </trkpt>
      <trkpt lat="37.3194680" lon="-4.1292590">
        <ele>855.6</ele>
        <time>2020-07-11T07:55:36Z</time>
      </trkpt>
      <trkpt lat="37.3195090" lon="-4.1290740">
        <ele>855.6</ele>
        <time>2020-07-11T07:55:39Z</time>
      </trkpt>
      <trkpt lat="37.3196810" lon="-4.1289420">
        <ele>855.8</ele>
        <time>2020-07-11T07:55:43Z</time>
      </trkpt>
      <trkpt lat="37.3198070" lon="-4.1288520">
        <ele>856.4</ele>
        <time>2020-07-11T07:55:46Z</time>
      </trkpt>
      <trkpt lat="37.3198790" lon="-4.1287600">
        <ele>856.6</ele>
        <time>2020-07-11T07:55:48Z</time>
      </trkpt>
      <trkpt lat="37.3199510" lon="-4.1286050">
        <ele>856.8</ele>
        <time>2020-07-11T07:55:51Z</time>
      </trkpt>
      <trkpt lat="37.3200140" lon="-4.1284390">
        <ele>857.2</ele>
        <time>2020-07-11T07:55:54Z</time>
      </trkpt>
      <trkpt lat="37.3200710" lon="-4.1282670">
        <ele>857.6</ele>
        <time>2020-07-11T07:55:57Z</time>
      </trkpt>
      <trkpt lat="37.3201400" lon="-4.1280300">
        <ele>858.0</ele>
        <time>2020-07-11T07:56:01Z</time>
      </trkpt>
      <trkpt lat="37.3201480" lon="-4.1279610">
        <ele>858.0</ele>
        <time>2020-07-11T07:56:02Z</time>
      </trkpt>
      <trkpt lat="37.3201080" lon="-4.1277750">
        <ele>858.0</ele>
        <time>2020-07-11T07:56:05Z</time>
      </trkpt>
      <trkpt lat="37.3199930" lon="-4.1276290">
        <ele>858.2</ele>
        <time>2020-07-11T07:56:08Z</time>
      </trkpt>
      <trkpt lat="37.3199500" lon="-4.1275860">
        <ele>858.2</ele>
        <time>2020-07-11T07:56:09Z</time>
      </trkpt>
      <trkpt lat="37.3197840" lon="-4.1274060">
        <ele>858.4</ele>
        <time>2020-07-11T07:56:13Z</time>
      </trkpt>
      <trkpt lat="37.3197370" lon="-4.1272730">
        <ele>858.4</ele>
        <time>2020-07-11T07:56:15Z</time>
      </trkpt>
      <trkpt lat="37.3197690" lon="-4.1270590">
        <ele>858.4</ele>
        <time>2020-07-11T07:56:18Z</time>
      </trkpt>
      <trkpt lat="37.3197990" lon="-4.1269960">
        <ele>858.4</ele>
        <time>2020-07-11T07:56:19Z</time>
      </trkpt>
      <trkpt lat="37.3198850" lon="-4.1268040">
        <ele>858.6</ele>
        <time>2020-07-11T07:56:22Z</time>
      </trkpt>
      <trkpt lat="37.3199540" lon="-4.1265960">
        <ele>859.0</ele>
        <time>2020-07-11T07:56:25Z</time>
      </trkpt>
      <trkpt lat="37.3201810" lon="-4.1259820">
        <ele>859.2</ele>
        <time>2020-07-11T07:56:34Z</time>
      </trkpt>
      <trkpt lat="37.3202060" lon="-4.1259190">
        <ele>859.4</ele>
        <time>2020-07-11T07:56:35Z</time>
      </trkpt>
      <trkpt lat="37.3202430" lon="-4.1257690">
        <ele>859.4</ele>
        <time>2020-07-11T07:56:37Z</time>
      </trkpt>
      <trkpt lat="37.3202250" lon="-4.1256160">
        <ele>859.4</ele>
        <time>2020-07-11T07:56:39Z</time>
      </trkpt>
      <trkpt lat="37.3201630" lon="-4.1254840">
        <ele>859.4</ele>
        <time>2020-07-11T07:56:41Z</time>
      </trkpt>
      <trkpt lat="37.3200860" lon="-4.1253380">
        <ele>859.4</ele>
        <time>2020-07-11T07:56:43Z</time>
      </trkpt>
      <trkpt lat="37.3200570" lon="-4.1252590">
        <ele>859.2</ele>
        <time>2020-07-11T07:56:44Z</time>
      </trkpt>
      <trkpt lat="37.3200420" lon="-4.1250880">
        <ele>859.2</ele>
        <time>2020-07-11T07:56:46Z</time>
      </trkpt>
      <trkpt lat="37.3201200" lon="-4.1248430">
        <ele>858.4</ele>
        <time>2020-07-11T07:56:49Z</time>
      </trkpt>
      <trkpt lat="37.3202730" lon="-4.1246940">
        <ele>858.4</ele>
        <time>2020-07-11T07:56:52Z</time>
      </trkpt>
      <trkpt lat="37.3203230" lon="-4.1246560">
        <ele>858.4</ele>
        <time>2020-07-11T07:56:53Z</time>
      </trkpt>
      <trkpt lat="37.3204270" lon="-4.1245660">
        <ele>859.0</ele>
        <time>2020-07-11T07:56:55Z</time>
      </trkpt>
      <trkpt lat="37.3205120" lon="-4.1244630">
        <ele>859.4</ele>
        <time>2020-07-11T07:56:57Z</time>
      </trkpt>
      <trkpt lat="37.3205490" lon="-4.1244110">
        <ele>859.6</ele>
        <time>2020-07-11T07:56:58Z</time>
      </trkpt>
      <trkpt lat="37.3206770" lon="-4.1241980">
        <ele>860.8</ele>
        <time>2020-07-11T07:57:02Z</time>
      </trkpt>
      <trkpt lat="37.3207250" lon="-4.1240800">
        <ele>861.4</ele>
        <time>2020-07-11T07:57:04Z</time>
      </trkpt>
      <trkpt lat="37.3207580" lon="-4.1239640">
        <ele>862.0</ele>
        <time>2020-07-11T07:57:06Z</time>
      </trkpt>
      <trkpt lat="37.3208190" lon="-4.1236680">
        <ele>863.4</ele>
        <time>2020-07-11T07:57:11Z</time>
      </trkpt>
      <trkpt lat="37.3208330" lon="-4.1235390">
        <ele>863.8</ele>
        <time>2020-07-11T07:57:13Z</time>
      </trkpt>
      <trkpt lat="37.3208170" lon="-4.1233610">
        <ele>864.4</ele>
        <time>2020-07-11T07:57:16Z</time>
      </trkpt>
      <trkpt lat="37.3207870" lon="-4.1232410">
        <ele>864.8</ele>
        <time>2020-07-11T07:57:18Z</time>
      </trkpt>
      <trkpt lat="37.3207740" lon="-4.1231810">
        <ele>865.0</ele>
        <time>2020-07-11T07:57:19Z</time>
      </trkpt>
      <trkpt lat="37.3207660" lon="-4.1230550">
        <ele>865.4</ele>
        <time>2020-07-11T07:57:21Z</time>
      </trkpt>
      <trkpt lat="37.3207720" lon="-4.1229820">
        <ele>865.6</ele>
        <time>2020-07-11T07:57:22Z</time>
      </trkpt>
      <trkpt lat="37.3208140" lon="-4.1227990">
        <ele>866.0</ele>
        <time>2020-07-11T07:57:25Z</time>
      </trkpt>
      <trkpt lat="37.3208340" lon="-4.1227410">
        <ele>866.2</ele>
        <time>2020-07-11T07:57:26Z</time>
      </trkpt>
      <trkpt lat="37.3208750" lon="-4.1226190">
        <ele>866.8</ele>
        <time>2020-07-11T07:57:28Z</time>
      </trkpt>
      <trkpt lat="37.3209680" lon="-4.1222600">
        <ele>868.0</ele>
        <time>2020-07-11T07:57:34Z</time>
      </trkpt>
      <trkpt lat="37.3209740" lon="-4.1222050">
        <ele>868.2</ele>
        <time>2020-07-11T07:57:35Z</time>
      </trkpt>
      <trkpt lat="37.3209800" lon="-4.1218430">
        <ele>869.0</ele>
        <time>2020-07-11T07:57:41Z</time>
      </trkpt>
      <trkpt lat="37.3209700" lon="-4.1217770">
        <ele>869.2</ele>
        <time>2020-07-11T07:57:42Z</time>
      </trkpt>
      <trkpt lat="37.3208710" lon="-4.1214320">
        <ele>870.0</ele>
        <time>2020-07-11T07:57:48Z</time>
      </trkpt>
      <trkpt lat="37.3207550" lon="-4.1210170">
        <ele>871.0</ele>
        <time>2020-07-11T07:57:55Z</time>
      </trkpt>
      <trkpt lat="37.3207510" lon="-4.1209580">
        <ele>871.2</ele>
        <time>2020-07-11T07:57:56Z</time>
      </trkpt>
      <trkpt lat="37.3207560" lon="-4.1206040">
        <ele>872.4</ele>
        <time>2020-07-11T07:58:02Z</time>
      </trkpt>
      <trkpt lat="37.3207670" lon="-4.1204400">
        <ele>873.0</ele>
        <time>2020-07-11T07:58:05Z</time>
      </trkpt>
      <trkpt lat="37.3207770" lon="-4.1202650">
        <ele>873.6</ele>
        <time>2020-07-11T07:58:08Z</time>
      </trkpt>
      <trkpt lat="37.3207920" lon="-4.1199820">
        <ele>874.8</ele>
        <time>2020-07-11T07:58:13Z</time>
      </trkpt>
      <trkpt lat="37.3208000" lon="-4.1198180">
        <ele>875.4</ele>
        <time>2020-07-11T07:58:16Z</time>
      </trkpt>
      <trkpt lat="37.3208050" lon="-4.1197060">
        <ele>875.8</ele>
        <time>2020-07-11T07:58:18Z</time>
      </trkpt>
      <trkpt lat="37.3208190" lon="-4.1193760">
        <ele>877.0</ele>
        <time>2020-07-11T07:58:24Z</time>
      </trkpt>
      <trkpt lat="37.3208240" lon="-4.1192180">
        <ele>877.6</ele>
        <time>2020-07-11T07:58:27Z</time>
      </trkpt>
      <trkpt lat="37.3208240" lon="-4.1191190">
        <ele>878.0</ele>
        <time>2020-07-11T07:58:29Z</time>
      </trkpt>
      <trkpt lat="37.3208170" lon="-4.1189140">
        <ele>879.0</ele>
        <time>2020-07-11T07:58:33Z</time>
      </trkpt>
      <trkpt lat="37.3208030" lon="-4.1187140">
        <ele>879.6</ele>
        <time>2020-07-11T07:58:37Z</time>
      </trkpt>
      <trkpt lat="37.3207930" lon="-4.1185680">
        <ele>880.2</ele>
        <time>2020-07-11T07:58:40Z</time>
      </trkpt>
      <trkpt lat="37.3207890" lon="-4.1183140">
        <ele>881.4</ele>
        <time>2020-07-11T07:58:45Z</time>
      </trkpt>
      <trkpt lat="37.3207970" lon="-4.1181570">
        <ele>881.8</ele>
        <time>2020-07-11T07:58:48Z</time>
      </trkpt>
      <trkpt lat="37.3208120" lon="-4.1180070">
        <ele>882.4</ele>
        <time>2020-07-11T07:58:51Z</time>
      </trkpt>
      <trkpt lat="37.3208670" lon="-4.1177700">
        <ele>883.6</ele>
        <time>2020-07-11T07:58:56Z</time>
      </trkpt>
      <trkpt lat="37.3209870" lon="-4.1174970">
        <ele>884.8</ele>
        <time>2020-07-11T07:59:02Z</time>
      </trkpt>
      <trkpt lat="37.3210280" lon="-4.1174050">
        <ele>885.2</ele>
        <time>2020-07-11T07:59:04Z</time>
      </trkpt>
      <trkpt lat="37.3210430" lon="-4.1173630">
        <ele>885.4</ele>
        <time>2020-07-11T07:59:05Z</time>
      </trkpt>
      <trkpt lat="37.3210760" lon="-4.1171570">
        <ele>885.8</ele>
        <time>2020-07-11T07:59:09Z</time>
      </trkpt>
      <trkpt lat="37.3210730" lon="-4.1171070">
        <ele>886.0</ele>
        <time>2020-07-11T07:59:10Z</time>
      </trkpt>
      <trkpt lat="37.3210670" lon="-4.1170600">
        <ele>886.4</ele>
        <time>2020-07-11T07:59:11Z</time>
      </trkpt>
      <trkpt lat="37.3210260" lon="-4.1168480">
        <ele>887.0</ele>
        <time>2020-07-11T07:59:15Z</time>
      </trkpt>
      <trkpt lat="37.3209860" lon="-4.1166680">
        <ele>887.4</ele>
        <time>2020-07-11T07:59:18Z</time>
      </trkpt>
      <trkpt lat="37.3209310" lon="-4.1162770">
        <ele>887.4</ele>
        <time>2020-07-11T07:59:23Z</time>
      </trkpt>
      <trkpt lat="37.3209170" lon="-4.1156880">
        <ele>886.0</ele>
        <time>2020-07-11T07:59:29Z</time>
      </trkpt>
      <trkpt lat="37.3209000" lon="-4.1153620">
        <ele>885.0</ele>
        <time>2020-07-11T07:59:32Z</time>
      </trkpt>
      <trkpt lat="37.3208820" lon="-4.1152560">
        <ele>884.6</ele>
        <time>2020-07-11T07:59:33Z</time>
      </trkpt>
      <trkpt lat="37.3208570" lon="-4.1151460">
        <ele>884.2</ele>
        <time>2020-07-11T07:59:34Z</time>
      </trkpt>
      <trkpt lat="37.3208000" lon="-4.1149320">
        <ele>883.8</ele>
        <time>2020-07-11T07:59:36Z</time>
      </trkpt>
      <trkpt lat="37.3206780" lon="-4.1145880">
        <ele>882.6</ele>
        <time>2020-07-11T07:59:39Z</time>
      </trkpt>
      <trkpt lat="37.3206290" lon="-4.1144890">
        <ele>882.0</ele>
        <time>2020-07-11T07:59:40Z</time>
      </trkpt>
      <trkpt lat="37.3205140" lon="-4.1142720">
        <ele>880.8</ele>
        <time>2020-07-11T07:59:42Z</time>
      </trkpt>
      <trkpt lat="37.3203970" lon="-4.1140550">
        <ele>879.4</ele>
        <time>2020-07-11T07:59:44Z</time>
      </trkpt>
      <trkpt lat="37.3202790" lon="-4.1138450">
        <ele>878.6</ele>
        <time>2020-07-11T07:59:46Z</time>
      </trkpt>
      <trkpt lat="37.3202170" lon="-4.1137300">
        <ele>878.2</ele>
        <time>2020-07-11T07:59:47Z</time>
      </trkpt>
      <trkpt lat="37.3201530" lon="-4.1136100">
        <ele>877.6</ele>
        <time>2020-07-11T07:59:48Z</time>
      </trkpt>
      <trkpt lat="37.3200920" lon="-4.1134970">
        <ele>877.0</ele>
        <time>2020-07-11T07:59:49Z</time>
      </trkpt>
      <trkpt lat="37.3199750" lon="-4.1132730">
        <ele>875.8</ele>
        <time>2020-07-11T07:59:51Z</time>
      </trkpt>
      <trkpt lat="37.3198630" lon="-4.1130220">
        <ele>874.8</ele>
        <time>2020-07-11T07:59:53Z</time>
      </trkpt>
      <trkpt lat="37.3198280" lon="-4.1128860">
        <ele>874.2</ele>
        <time>2020-07-11T07:59:54Z</time>
      </trkpt>
      <trkpt lat="37.3197910" lon="-4.1127520">
        <ele>873.6</ele>
        <time>2020-07-11T07:59:55Z</time>
      </trkpt>
      <trkpt lat="37.3197300" lon="-4.1124760">
        <ele>872.6</ele>
        <time>2020-07-11T07:59:57Z</time>
      </trkpt>
      <trkpt lat="37.3196860" lon="-4.1121990">
        <ele>871.4</ele>
        <time>2020-07-11T07:59:59Z</time>
      </trkpt>
      <trkpt lat="37.3196720" lon="-4.1120470">
        <ele>870.8</ele>
        <time>2020-07-11T08:00:00Z</time>
      </trkpt>
      <trkpt lat="37.3196600" lon="-4.1119100">
        <ele>870.2</ele>
        <time>2020-07-11T08:00:01Z</time>
      </trkpt>
      <trkpt lat="37.3196370" lon="-4.1116020">
        <ele>869.2</ele>
        <time>2020-07-11T08:00:03Z</time>
      </trkpt>
      <trkpt lat="37.3196120" lon="-4.1113100">
        <ele>868.2</ele>
        <time>2020-07-11T08:00:05Z</time>
      </trkpt>
      <trkpt lat="37.3195900" lon="-4.1111600">
        <ele>867.6</ele>
        <time>2020-07-11T08:00:06Z</time>
      </trkpt>
      <trkpt lat="37.3195530" lon="-4.1110020">
        <ele>866.6</ele>
        <time>2020-07-11T08:00:07Z</time>
      </trkpt>
      <trkpt lat="37.3194630" lon="-4.1107120">
        <ele>865.4</ele>
        <time>2020-07-11T08:00:09Z</time>
      </trkpt>
      <trkpt lat="37.3193690" lon="-4.1104230">
        <ele>864.2</ele>
        <time>2020-07-11T08:00:11Z</time>
      </trkpt>
      <trkpt lat="37.3192740" lon="-4.1101350">
        <ele>862.8</ele>
        <time>2020-07-11T08:00:13Z</time>
      </trkpt>
      <trkpt lat="37.3192250" lon="-4.1099890">
        <ele>862.0</ele>
        <time>2020-07-11T08:00:14Z</time>
      </trkpt>
      <trkpt lat="37.3191720" lon="-4.1098490">
        <ele>861.2</ele>
        <time>2020-07-11T08:00:15Z</time>
      </trkpt>
      <trkpt lat="37.3191130" lon="-4.1097280">
        <ele>860.6</ele>
        <time>2020-07-11T08:00:16Z</time>
      </trkpt>
      <trkpt lat="37.3190370" lon="-4.1096100">
        <ele>859.8</ele>
        <time>2020-07-11T08:00:17Z</time>
      </trkpt>
      <trkpt lat="37.3188680" lon="-4.1094020">
        <ele>858.6</ele>
        <time>2020-07-11T08:00:19Z</time>
      </trkpt>
      <trkpt lat="37.3186280" lon="-4.1091100">
        <ele>857.4</ele>
        <time>2020-07-11T08:00:22Z</time>
      </trkpt>
      <trkpt lat="37.3185710" lon="-4.1089850">
        <ele>857.0</ele>
        <time>2020-07-11T08:00:23Z</time>
      </trkpt>
      <trkpt lat="37.3185210" lon="-4.1088510">
        <ele>856.8</ele>
        <time>2020-07-11T08:00:24Z</time>
      </trkpt>
      <trkpt lat="37.3184580" lon="-4.1085970">
        <ele>856.2</ele>
        <time>2020-07-11T08:00:26Z</time>
      </trkpt>
      <trkpt lat="37.3184070" lon="-4.1083240">
        <ele>855.2</ele>
        <time>2020-07-11T08:00:28Z</time>
      </trkpt>
      <trkpt lat="37.3183930" lon="-4.1081990">
        <ele>854.8</ele>
        <time>2020-07-11T08:00:29Z</time>
      </trkpt>
      <trkpt lat="37.3184010" lon="-4.1079290">
        <ele>854.2</ele>
        <time>2020-07-11T08:00:31Z</time>
      </trkpt>
      <trkpt lat="37.3184690" lon="-4.1078140">
        <ele>853.8</ele>
        <time>2020-07-11T08:00:32Z</time>
      </trkpt>
      <trkpt lat="37.3185290" lon="-4.1077080">
        <ele>853.6</ele>
        <time>2020-07-11T08:00:33Z</time>
      </trkpt>
      <trkpt lat="37.3188700" lon="-4.1072070">
        <ele>852.2</ele>
        <time>2020-07-11T08:00:38Z</time>
      </trkpt>
      <trkpt lat="37.3190290" lon="-4.1070360">
        <ele>851.4</ele>
        <time>2020-07-11T08:00:40Z</time>
      </trkpt>
      <trkpt lat="37.3191200" lon="-4.1069740">
        <ele>851.2</ele>
        <time>2020-07-11T08:00:41Z</time>
      </trkpt>
      <trkpt lat="37.3192310" lon="-4.1070130">
        <ele>850.6</ele>
        <time>2020-07-11T08:00:42Z</time>
      </trkpt>
      <trkpt lat="37.3193310" lon="-4.1070510">
        <ele>850.2</ele>
        <time>2020-07-11T08:00:43Z</time>
      </trkpt>
      <trkpt lat="37.3195260" lon="-4.1071560">
        <ele>849.4</ele>
        <time>2020-07-11T08:00:45Z</time>
      </trkpt>
      <trkpt lat="37.3196190" lon="-4.1072170">
        <ele>849.2</ele>
        <time>2020-07-11T08:00:46Z</time>
      </trkpt>
      <trkpt lat="37.3196960" lon="-4.1073010">
        <ele>848.6</ele>
        <time>2020-07-11T08:00:47Z</time>
      </trkpt>
      <trkpt lat="37.3198300" lon="-4.1075420">
        <ele>847.8</ele>
        <time>2020-07-11T08:00:49Z</time>
      </trkpt>
      <trkpt lat="37.3200360" lon="-4.1078810">
        <ele>846.4</ele>
        <time>2020-07-11T08:00:52Z</time>
      </trkpt>
      <trkpt lat="37.3201250" lon="-4.1079670">
        <ele>846.0</ele>
        <time>2020-07-11T08:00:53Z</time>
      </trkpt>
      <trkpt lat="37.3201650" lon="-4.1079550">
        <ele>845.8</ele>
        <time>2020-07-11T08:00:54Z</time>
      </trkpt>
      <trkpt lat="37.3202930" lon="-4.1079140">
        <ele>845.2</ele>
        <time>2020-07-11T08:00:55Z</time>
      </trkpt>
      <trkpt lat="37.3205490" lon="-4.1078330">
        <ele>844.4</ele>
        <time>2020-07-11T08:00:57Z</time>
      </trkpt>
      <trkpt lat="37.3207290" lon="-4.1077210">
        <ele>844.0</ele>
        <time>2020-07-11T08:00:59Z</time>
      </trkpt>
      <trkpt lat="37.3207510" lon="-4.1076950">
        <ele>844.0</ele>
        <time>2020-07-11T08:01:00Z</time>
      </trkpt>
      <trkpt lat="37.3209010" lon="-4.1074360">
        <ele>844.2</ele>
        <time>2020-07-11T08:01:02Z</time>
      </trkpt>
      <trkpt lat="37.3209040" lon="-4.1070940">
        <ele>844.4</ele>
        <time>2020-07-11T08:01:05Z</time>
      </trkpt>
      <trkpt lat="37.3208670" lon="-4.1066650">
        <ele>844.2</ele>
        <time>2020-07-11T08:01:09Z</time>
      </trkpt>
      <trkpt lat="37.3208340" lon="-4.1063610">
        <ele>844.2</ele>
        <time>2020-07-11T08:01:12Z</time>
      </trkpt>
      <trkpt lat="37.3207910" lon="-4.1058620">
        <ele>844.4</ele>
        <time>2020-07-11T08:01:17Z</time>
      </trkpt>
      <trkpt lat="37.3208000" lon="-4.1057670">
        <ele>844.4</ele>
        <time>2020-07-11T08:01:18Z</time>
      </trkpt>
      <trkpt lat="37.3208080" lon="-4.1056740">
        <ele>844.4</ele>
        <time>2020-07-11T08:01:19Z</time>
      </trkpt>
      <trkpt lat="37.3208240" lon="-4.1055820">
        <ele>844.4</ele>
        <time>2020-07-11T08:01:20Z</time>
      </trkpt>
      <trkpt lat="37.3209040" lon="-4.1053240">
        <ele>845.0</ele>
        <time>2020-07-11T08:01:23Z</time>
      </trkpt>
      <trkpt lat="37.3209890" lon="-4.1050590">
        <ele>845.0</ele>
        <time>2020-07-11T08:01:26Z</time>
      </trkpt>
      <trkpt lat="37.3210250" lon="-4.1048620">
        <ele>845.0</ele>
        <time>2020-07-11T08:01:28Z</time>
      </trkpt>
      <trkpt lat="37.3210380" lon="-4.1047640">
        <ele>845.0</ele>
        <time>2020-07-11T08:01:29Z</time>
      </trkpt>
      <trkpt lat="37.3210190" lon="-4.1046810">
        <ele>845.0</ele>
        <time>2020-07-11T08:01:30Z</time>
      </trkpt>
      <trkpt lat="37.3209950" lon="-4.1045740">
        <ele>845.0</ele>
        <time>2020-07-11T08:01:31Z</time>
      </trkpt>
      <trkpt lat="37.3208930" lon="-4.1042930">
        <ele>845.2</ele>
        <time>2020-07-11T08:01:34Z</time>
      </trkpt>
      <trkpt lat="37.3208130" lon="-4.1041310">
        <ele>845.2</ele>
        <time>2020-07-11T08:01:36Z</time>
      </trkpt>
      <trkpt lat="37.3206260" lon="-4.1037540">
        <ele>845.8</ele>
        <time>2020-07-11T08:01:41Z</time>
      </trkpt>
      <trkpt lat="37.3205510" lon="-4.1036060">
        <ele>846.0</ele>
        <time>2020-07-11T08:01:43Z</time>
      </trkpt>
      <trkpt lat="37.3205160" lon="-4.1035400">
        <ele>846.2</ele>
        <time>2020-07-11T08:01:44Z</time>
      </trkpt>
      <trkpt lat="37.3203620" lon="-4.1033030">
        <ele>847.0</ele>
        <time>2020-07-11T08:01:48Z</time>
      </trkpt>
      <trkpt lat="37.3203160" lon="-4.1032560">
        <ele>847.4</ele>
        <time>2020-07-11T08:01:49Z</time>
      </trkpt>
      <trkpt lat="37.3201590" lon="-4.1031420">
        <ele>848.4</ele>
        <time>2020-07-11T08:01:52Z</time>
      </trkpt>
      <trkpt lat="37.3201020" lon="-4.1031060">
        <ele>848.8</ele>
        <time>2020-07-11T08:01:53Z</time>
      </trkpt>
      <trkpt lat="37.3197380" lon="-4.1029440">
        <ele>848.4</ele>
        <time>2020-07-11T08:01:58Z</time>
      </trkpt>
      <trkpt lat="37.3194000" lon="-4.1028440">
        <ele>847.2</ele>
        <time>2020-07-11T08:02:02Z</time>
      </trkpt>
      <trkpt lat="37.3193180" lon="-4.1028010">
        <ele>847.0</ele>
        <time>2020-07-11T08:02:03Z</time>
      </trkpt>
      <trkpt lat="37.3192490" lon="-4.1027360">
        <ele>846.6</ele>
        <time>2020-07-11T08:02:04Z</time>
      </trkpt>
      <trkpt lat="37.3191610" lon="-4.1025540">
        <ele>846.2</ele>
        <time>2020-07-11T08:02:06Z</time>
      </trkpt>
      <trkpt lat="37.3191740" lon="-4.1022040">
        <ele>845.6</ele>
        <time>2020-07-11T08:02:09Z</time>
      </trkpt>
      <trkpt lat="37.3192220" lon="-4.1020980">
        <ele>845.0</ele>
        <time>2020-07-11T08:02:10Z</time>
      </trkpt>
      <trkpt lat="37.3193430" lon="-4.1019040">
        <ele>844.0</ele>
        <time>2020-07-11T08:02:12Z</time>
      </trkpt>
      <trkpt lat="37.3194800" lon="-4.1017290">
        <ele>843.2</ele>
        <time>2020-07-11T08:02:14Z</time>
      </trkpt>
      <trkpt lat="37.3195540" lon="-4.1016510">
        <ele>842.6</ele>
        <time>2020-07-11T08:02:15Z</time>
      </trkpt>
      <trkpt lat="37.3196310" lon="-4.1015770">
        <ele>842.2</ele>
        <time>2020-07-11T08:02:16Z</time>
      </trkpt>
      <trkpt lat="37.3198040" lon="-4.1014250">
        <ele>841.4</ele>
        <time>2020-07-11T08:02:18Z</time>
      </trkpt>
      <trkpt lat="37.3199620" lon="-4.1012470">
        <ele>840.6</ele>
        <time>2020-07-11T08:02:20Z</time>
      </trkpt>
      <trkpt lat="37.3200190" lon="-4.1011450">
        <ele>840.0</ele>
        <time>2020-07-11T08:02:21Z</time>
      </trkpt>
      <trkpt lat="37.3201490" lon="-4.1007720">
        <ele>839.0</ele>
        <time>2020-07-11T08:02:24Z</time>
      </trkpt>
      <trkpt lat="37.3201720" lon="-4.1006250">
        <ele>838.6</ele>
        <time>2020-07-11T08:02:25Z</time>
      </trkpt>
      <trkpt lat="37.3201530" lon="-4.1003490">
        <ele>838.0</ele>
        <time>2020-07-11T08:02:27Z</time>
      </trkpt>
      <trkpt lat="37.3201240" lon="-4.1002150">
        <ele>837.4</ele>
        <time>2020-07-11T08:02:28Z</time>
      </trkpt>
      <trkpt lat="37.3200860" lon="-4.0998190">
        <ele>836.4</ele>
        <time>2020-07-11T08:02:31Z</time>
      </trkpt>
      <trkpt lat="37.3200920" lon="-4.0996730">
        <ele>836.2</ele>
        <time>2020-07-11T08:02:32Z</time>
      </trkpt>
      <trkpt lat="37.3201010" lon="-4.0995360">
        <ele>835.6</ele>
        <time>2020-07-11T08:02:33Z</time>
      </trkpt>
      <trkpt lat="37.3201140" lon="-4.0994000">
        <ele>835.2</ele>
        <time>2020-07-11T08:02:34Z</time>
      </trkpt>
      <trkpt lat="37.3201560" lon="-4.0988670">
        <ele>834.2</ele>
        <time>2020-07-11T08:02:38Z</time>
      </trkpt>
      <trkpt lat="37.3201450" lon="-4.0981000">
        <ele>833.4</ele>
        <time>2020-07-11T08:02:44Z</time>
      </trkpt>
      <trkpt lat="37.3201370" lon="-4.0978560">
        <ele>833.0</ele>
        <time>2020-07-11T08:02:46Z</time>
      </trkpt>
      <trkpt lat="37.3201150" lon="-4.0972300">
        <ele>831.8</ele>
        <time>2020-07-11T08:02:51Z</time>
      </trkpt>
      <trkpt lat="37.3200930" lon="-4.0971000">
        <ele>831.6</ele>
        <time>2020-07-11T08:02:52Z</time>
      </trkpt>
      <trkpt lat="37.3200690" lon="-4.0969780">
        <ele>831.4</ele>
        <time>2020-07-11T08:02:53Z</time>
      </trkpt>
      <trkpt lat="37.3200110" lon="-4.0969370">
        <ele>831.4</ele>
        <time>2020-07-11T08:02:54Z</time>
      </trkpt>
      <trkpt lat="37.3199690" lon="-4.0968900">
        <ele>831.4</ele>
        <time>2020-07-11T08:02:55Z</time>
      </trkpt>
      <trkpt lat="37.3196340" lon="-4.0965120">
        <ele>830.8</ele>
        <time>2020-07-11T08:02:59Z</time>
      </trkpt>
      <trkpt lat="37.3195560" lon="-4.0964440">
        <ele>830.6</ele>
        <time>2020-07-11T08:03:00Z</time>
      </trkpt>
      <trkpt lat="37.3193400" lon="-4.0962490">
        <ele>830.8</ele>
        <time>2020-07-11T08:03:03Z</time>
      </trkpt>
      <trkpt lat="37.3191210" lon="-4.0960510">
        <ele>830.4</ele>
        <time>2020-07-11T08:03:06Z</time>
      </trkpt>
      <trkpt lat="37.3190380" lon="-4.0959800">
        <ele>830.4</ele>
        <time>2020-07-11T08:03:07Z</time>
      </trkpt>
      <trkpt lat="37.3187370" lon="-4.0957350">
        <ele>829.8</ele>
        <time>2020-07-11T08:03:11Z</time>
      </trkpt>
      <trkpt lat="37.3185810" lon="-4.0955990">
        <ele>829.4</ele>
        <time>2020-07-11T08:03:13Z</time>
      </trkpt>
      <trkpt lat="37.3185220" lon="-4.0955130">
        <ele>829.4</ele>
        <time>2020-07-11T08:03:14Z</time>
      </trkpt>
      <trkpt lat="37.3184690" lon="-4.0953070">
        <ele>829.0</ele>
        <time>2020-07-11T08:03:16Z</time>
      </trkpt>
      <trkpt lat="37.3185060" lon="-4.0951950">
        <ele>828.6</ele>
        <time>2020-07-11T08:03:17Z</time>
      </trkpt>
      <trkpt lat="37.3185680" lon="-4.0951070">
        <ele>828.2</ele>
        <time>2020-07-11T08:03:18Z</time>
      </trkpt>
      <trkpt lat="37.3187350" lon="-4.0950360">
        <ele>827.6</ele>
        <time>2020-07-11T08:03:20Z</time>
      </trkpt>
      <trkpt lat="37.3189180" lon="-4.0951140">
        <ele>826.6</ele>
        <time>2020-07-11T08:03:22Z</time>
      </trkpt>
      <trkpt lat="37.3190080" lon="-4.0951580">
        <ele>826.0</ele>
        <time>2020-07-11T08:03:23Z</time>
      </trkpt>
      <trkpt lat="37.3192160" lon="-4.0951960">
        <ele>824.8</ele>
        <time>2020-07-11T08:03:25Z</time>
      </trkpt>
      <trkpt lat="37.3194410" lon="-4.0951510">
        <ele>823.4</ele>
        <time>2020-07-11T08:03:27Z</time>
      </trkpt>
      <trkpt lat="37.3195440" lon="-4.0950970">
        <ele>823.0</ele>
        <time>2020-07-11T08:03:28Z</time>
      </trkpt>
      <trkpt lat="37.3197340" lon="-4.0949550">
        <ele>822.0</ele>
        <time>2020-07-11T08:03:30Z</time>
      </trkpt>
      <trkpt lat="37.3199250" lon="-4.0947940">
        <ele>821.2</ele>
        <time>2020-07-11T08:03:32Z</time>
      </trkpt>
      <trkpt lat="37.3200100" lon="-4.0946930">
        <ele>820.6</ele>
        <time>2020-07-11T08:03:33Z</time>
      </trkpt>
      <trkpt lat="37.3201420" lon="-4.0944450">
        <ele>819.2</ele>
        <time>2020-07-11T08:03:35Z</time>
      </trkpt>
      <trkpt lat="37.3202820" lon="-4.0941740">
        <ele>817.8</ele>
        <time>2020-07-11T08:03:37Z</time>
      </trkpt>
      <trkpt lat="37.3203630" lon="-4.0940540">
        <ele>816.8</ele>
        <time>2020-07-11T08:03:38Z</time>
      </trkpt>
      <trkpt lat="37.3204520" lon="-4.0939410">
        <ele>815.8</ele>
        <time>2020-07-11T08:03:39Z</time>
      </trkpt>
      <trkpt lat="37.3206240" lon="-4.0937400">
        <ele>814.2</ele>
        <time>2020-07-11T08:03:41Z</time>
      </trkpt>
      <trkpt lat="37.3207180" lon="-4.0936130">
        <ele>813.4</ele>
        <time>2020-07-11T08:03:42Z</time>
      </trkpt>
      <trkpt lat="37.3207730" lon="-4.0934850">
        <ele>812.8</ele>
        <time>2020-07-11T08:03:43Z</time>
      </trkpt>
      <trkpt lat="37.3207920" lon="-4.0931880">
        <ele>810.8</ele>
        <time>2020-07-11T08:03:45Z</time>
      </trkpt>
      <trkpt lat="37.3207260" lon="-4.0928900">
        <ele>809.2</ele>
        <time>2020-07-11T08:03:47Z</time>
      </trkpt>
      <trkpt lat="37.3206770" lon="-4.0927350">
        <ele>808.4</ele>
        <time>2020-07-11T08:03:48Z</time>
      </trkpt>
      <trkpt lat="37.3206180" lon="-4.0925920">
        <ele>807.4</ele>
        <time>2020-07-11T08:03:49Z</time>
      </trkpt>
      <trkpt lat="37.3204870" lon="-4.0923300">
        <ele>806.2</ele>
        <time>2020-07-11T08:03:51Z</time>
      </trkpt>
      <trkpt lat="37.3203620" lon="-4.0920410">
        <ele>804.4</ele>
        <time>2020-07-11T08:03:53Z</time>
      </trkpt>
      <trkpt lat="37.3203210" lon="-4.0918920">
        <ele>803.6</ele>
        <time>2020-07-11T08:03:54Z</time>
      </trkpt>
      <trkpt lat="37.3202990" lon="-4.0917570">
        <ele>803.0</ele>
        <time>2020-07-11T08:03:55Z</time>
      </trkpt>
      <trkpt lat="37.3203380" lon="-4.0914990">
        <ele>802.0</ele>
        <time>2020-07-11T08:03:57Z</time>
      </trkpt>
      <trkpt lat="37.3204090" lon="-4.0914070">
        <ele>801.4</ele>
        <time>2020-07-11T08:03:58Z</time>
      </trkpt>
      <trkpt lat="37.3204970" lon="-4.0913530">
        <ele>800.2</ele>
        <time>2020-07-11T08:03:59Z</time>
      </trkpt>
      <trkpt lat="37.3206070" lon="-4.0913080">
        <ele>799.0</ele>
        <time>2020-07-11T08:04:00Z</time>
      </trkpt>
      <trkpt lat="37.3207060" lon="-4.0912770">
        <ele>797.8</ele>
        <time>2020-07-11T08:04:01Z</time>
      </trkpt>
      <trkpt lat="37.3208310" lon="-4.0912420">
        <ele>796.8</ele>
        <time>2020-07-11T08:04:02Z</time>
      </trkpt>
      <trkpt lat="37.3209430" lon="-4.0912110">
        <ele>795.8</ele>
        <time>2020-07-11T08:04:03Z</time>
      </trkpt>
      <trkpt lat="37.3211630" lon="-4.0911580">
        <ele>794.4</ele>
        <time>2020-07-11T08:04:05Z</time>
      </trkpt>
      <trkpt lat="37.3213890" lon="-4.0910990">
        <ele>793.0</ele>
        <time>2020-07-11T08:04:07Z</time>
      </trkpt>
      <trkpt lat="37.3215800" lon="-4.0910000">
        <ele>791.8</ele>
        <time>2020-07-11T08:04:09Z</time>
      </trkpt>
      <trkpt lat="37.3216790" lon="-4.0908260">
        <ele>790.6</ele>
        <time>2020-07-11T08:04:11Z</time>
      </trkpt>
      <trkpt lat="37.3216730" lon="-4.0905970">
        <ele>790.0</ele>
        <time>2020-07-11T08:04:13Z</time>
      </trkpt>
      <trkpt lat="37.3215710" lon="-4.0904470">
        <ele>790.0</ele>
        <time>2020-07-11T08:04:15Z</time>
      </trkpt>
      <trkpt lat="37.3214290" lon="-4.0903240">
        <ele>790.2</ele>
        <time>2020-07-11T08:04:18Z</time>
      </trkpt>
      <trkpt lat="37.3213200" lon="-4.0902480">
        <ele>790.4</ele>
        <time>2020-07-11T08:04:20Z</time>
      </trkpt>
      <trkpt lat="37.3212240" lon="-4.0901640">
        <ele>791.2</ele>
        <time>2020-07-11T08:04:22Z</time>
      </trkpt>
      <trkpt lat="37.3211720" lon="-4.0901260">
        <ele>791.8</ele>
        <time>2020-07-11T08:04:23Z</time>
      </trkpt>
      <trkpt lat="37.3210760" lon="-4.0900570">
        <ele>793.2</ele>
        <time>2020-07-11T08:04:25Z</time>
      </trkpt>
      <trkpt lat="37.3210330" lon="-4.0900180">
        <ele>793.6</ele>
        <time>2020-07-11T08:04:26Z</time>
      </trkpt>
      <trkpt lat="37.3209510" lon="-4.0899430">
        <ele>794.4</ele>
        <time>2020-07-11T08:04:28Z</time>
      </trkpt>
      <trkpt lat="37.3208740" lon="-4.0898730">
        <ele>795.2</ele>
        <time>2020-07-11T08:04:30Z</time>
      </trkpt>
      <trkpt lat="37.3208340" lon="-4.0898360">
        <ele>795.4</ele>
        <time>2020-07-11T08:04:31Z</time>
      </trkpt>
      <trkpt lat="37.3207260" lon="-4.0897260">
        <ele>796.4</ele>
        <time>2020-07-11T08:04:34Z</time>
      </trkpt>
      <trkpt lat="37.3206570" lon="-4.0896510">
        <ele>797.2</ele>
        <time>2020-07-11T08:04:36Z</time>
      </trkpt>
      <trkpt lat="37.3206270" lon="-4.0896140">
        <ele>797.4</ele>
        <time>2020-07-11T08:04:37Z</time>
      </trkpt>
      <trkpt lat="37.3205650" lon="-4.0895270">
        <ele>798.0</ele>
        <time>2020-07-11T08:04:39Z</time>
      </trkpt>
      <trkpt lat="37.3205320" lon="-4.0894780">
        <ele>798.4</ele>
        <time>2020-07-11T08:04:40Z</time>
      </trkpt>
      <trkpt lat="37.3205000" lon="-4.0894250">
        <ele>798.8</ele>
        <time>2020-07-11T08:04:41Z</time>
      </trkpt>
      <trkpt lat="37.3204770" lon="-4.0893750">
        <ele>799.0</ele>
        <time>2020-07-11T08:04:42Z</time>
      </trkpt>
      <trkpt lat="37.3204180" lon="-4.0892530">
        <ele>799.6</ele>
        <time>2020-07-11T08:04:44Z</time>
      </trkpt>
      <trkpt lat="37.3203880" lon="-4.0891920">
        <ele>800.0</ele>
        <time>2020-07-11T08:04:45Z</time>
      </trkpt>
      <trkpt lat="37.3203610" lon="-4.0891360">
        <ele>800.4</ele>
        <time>2020-07-11T08:04:46Z</time>
      </trkpt>
      <trkpt lat="37.3203080" lon="-4.0890250">
        <ele>801.2</ele>
        <time>2020-07-11T08:04:48Z</time>
      </trkpt>
      <trkpt lat="37.3202350" lon="-4.0888560">
        <ele>801.6</ele>
        <time>2020-07-11T08:04:51Z</time>
      </trkpt>
      <trkpt lat="37.3201910" lon="-4.0887470">
        <ele>802.2</ele>
        <time>2020-07-11T08:04:53Z</time>
      </trkpt>
      <trkpt lat="37.3201690" lon="-4.0886960">
        <ele>802.6</ele>
        <time>2020-07-11T08:04:54Z</time>
      </trkpt>
      <trkpt lat="37.3201230" lon="-4.0885830">
        <ele>803.4</ele>
        <time>2020-07-11T08:04:56Z</time>
      </trkpt>
      <trkpt lat="37.3200330" lon="-4.0883720">
        <ele>804.6</ele>
        <time>2020-07-11T08:05:00Z</time>
      </trkpt>
      <trkpt lat="37.3199400" lon="-4.0881610">
        <ele>805.2</ele>
        <time>2020-07-11T08:05:04Z</time>
      </trkpt>
      <trkpt lat="37.3198950" lon="-4.0880570">
        <ele>805.6</ele>
        <time>2020-07-11T08:05:06Z</time>
      </trkpt>
      <trkpt lat="37.3198250" lon="-4.0878200">
        <ele>806.8</ele>
        <time>2020-07-11T08:05:10Z</time>
      </trkpt>
      <trkpt lat="37.3198210" lon="-4.0877500">
        <ele>807.0</ele>
        <time>2020-07-11T08:05:11Z</time>
      </trkpt>
      <trkpt lat="37.3198840" lon="-4.0875420">
        <ele>807.4</ele>
        <time>2020-07-11T08:05:14Z</time>
      </trkpt>
      <trkpt lat="37.3200560" lon="-4.0874060">
        <ele>807.0</ele>
        <time>2020-07-11T08:05:17Z</time>
      </trkpt>
      <trkpt lat="37.3202840" lon="-4.0873590">
        <ele>806.4</ele>
        <time>2020-07-11T08:05:20Z</time>
      </trkpt>
      <trkpt lat="37.3203630" lon="-4.0873540">
        <ele>806.0</ele>
        <time>2020-07-11T08:05:21Z</time>
      </trkpt>
      <trkpt lat="37.3204380" lon="-4.0873460">
        <ele>805.8</ele>
        <time>2020-07-11T08:05:22Z</time>
      </trkpt>
      <trkpt lat="37.3207760" lon="-4.0872790">
        <ele>804.8</ele>
        <time>2020-07-11T08:05:26Z</time>
      </trkpt>
      <trkpt lat="37.3208550" lon="-4.0872480">
        <ele>804.4</ele>
        <time>2020-07-11T08:05:27Z</time>
      </trkpt>
      <trkpt lat="37.3210750" lon="-4.0871540">
        <ele>803.8</ele>
        <time>2020-07-11T08:05:30Z</time>
      </trkpt>
      <trkpt lat="37.3214110" lon="-4.0870150">
        <ele>803.0</ele>
        <time>2020-07-11T08:05:33Z</time>
      </trkpt>
      <trkpt lat="37.3215080" lon="-4.0870060">
        <ele>802.8</ele>
        <time>2020-07-11T08:05:34Z</time>
      </trkpt>
      <trkpt lat="37.3216960" lon="-4.0870590">
        <ele>802.0</ele>
        <time>2020-07-11T08:05:36Z</time>
      </trkpt>
      <trkpt lat="37.3217910" lon="-4.0871050">
        <ele>801.6</ele>
        <time>2020-07-11T08:05:37Z</time>
      </trkpt>
      <trkpt lat="37.3220710" lon="-4.0873020">
        <ele>800.2</ele>
        <time>2020-07-11T08:05:40Z</time>
      </trkpt>
      <trkpt lat="37.3221670" lon="-4.0873440">
        <ele>799.6</ele>
        <time>2020-07-11T08:05:41Z</time>
      </trkpt>
      <trkpt lat="37.3223380" lon="-4.0872870">
        <ele>798.8</ele>
        <time>2020-07-11T08:05:43Z</time>
      </trkpt>
      <trkpt lat="37.3224120" lon="-4.0870960">
        <ele>798.0</ele>
        <time>2020-07-11T08:05:45Z</time>
      </trkpt>
      <trkpt lat="37.3223940" lon="-4.0869910">
        <ele>797.4</ele>
        <time>2020-07-11T08:05:46Z</time>
      </trkpt>
      <trkpt lat="37.3223520" lon="-4.0869050">
        <ele>796.8</ele>
        <time>2020-07-11T08:05:47Z</time>
      </trkpt>
      <trkpt lat="37.3222130" lon="-4.0867450">
        <ele>796.2</ele>
        <time>2020-07-11T08:05:49Z</time>
      </trkpt>
      <trkpt lat="37.3221340" lon="-4.0866670">
        <ele>796.0</ele>
        <time>2020-07-11T08:05:50Z</time>
      </trkpt>
      <trkpt lat="37.3219830" lon="-4.0865030">
        <ele>795.4</ele>
        <time>2020-07-11T08:05:52Z</time>
      </trkpt>
      <trkpt lat="37.3219010" lon="-4.0864010">
        <ele>794.8</ele>
        <time>2020-07-11T08:05:53Z</time>
      </trkpt>
      <trkpt lat="37.3218380" lon="-4.0863030">
        <ele>794.2</ele>
        <time>2020-07-11T08:05:54Z</time>
      </trkpt>
      <trkpt lat="37.3217820" lon="-4.0861730">
        <ele>793.6</ele>
        <time>2020-07-11T08:05:55Z</time>
      </trkpt>
      <trkpt lat="37.3217020" lon="-4.0859130">
        <ele>792.4</ele>
        <time>2020-07-11T08:05:57Z</time>
      </trkpt>
      <trkpt lat="37.3216480" lon="-4.0857700">
        <ele>791.8</ele>
        <time>2020-07-11T08:05:58Z</time>
      </trkpt>
      <trkpt lat="37.3215820" lon="-4.0856550">
        <ele>791.2</ele>
        <time>2020-07-11T08:05:59Z</time>
      </trkpt>
      <trkpt lat="37.3214080" lon="-4.0854290">
        <ele>789.6</ele>
        <time>2020-07-11T08:06:01Z</time>
      </trkpt>
      <trkpt lat="37.3213310" lon="-4.0853330">
        <ele>788.8</ele>
        <time>2020-07-11T08:06:02Z</time>
      </trkpt>
      <trkpt lat="37.3212370" lon="-4.0852090">
        <ele>788.2</ele>
        <time>2020-07-11T08:06:03Z</time>
      </trkpt>
      <trkpt lat="37.3210810" lon="-4.0849530">
        <ele>786.6</ele>
        <time>2020-07-11T08:06:05Z</time>
      </trkpt>
      <trkpt lat="37.3209930" lon="-4.0848470">
        <ele>786.2</ele>
        <time>2020-07-11T08:06:06Z</time>
      </trkpt>
      <trkpt lat="37.3208910" lon="-4.0847570">
        <ele>785.6</ele>
        <time>2020-07-11T08:06:07Z</time>
      </trkpt>
      <trkpt lat="37.3207290" lon="-4.0845530">
        <ele>784.2</ele>
        <time>2020-07-11T08:06:09Z</time>
      </trkpt>
      <trkpt lat="37.3206870" lon="-4.0842670">
        <ele>782.4</ele>
        <time>2020-07-11T08:06:11Z</time>
      </trkpt>
      <trkpt lat="37.3205670" lon="-4.0840010">
        <ele>780.8</ele>
        <time>2020-07-11T08:06:13Z</time>
      </trkpt>
      <trkpt lat="37.3204840" lon="-4.0838880">
        <ele>779.6</ele>
        <time>2020-07-11T08:06:14Z</time>
      </trkpt>
      <trkpt lat="37.3203960" lon="-4.0837780">
        <ele>778.4</ele>
        <time>2020-07-11T08:06:15Z</time>
      </trkpt>
      <trkpt lat="37.3203100" lon="-4.0836650">
        <ele>777.4</ele>
        <time>2020-07-11T08:06:16Z</time>
      </trkpt>
      <trkpt lat="37.3202380" lon="-4.0835470">
        <ele>776.2</ele>
        <time>2020-07-11T08:06:17Z</time>
      </trkpt>
      <trkpt lat="37.3201730" lon="-4.0834110">
        <ele>775.4</ele>
        <time>2020-07-11T08:06:18Z</time>
      </trkpt>
      <trkpt lat="37.3201280" lon="-4.0832570">
        <ele>774.4</ele>
        <time>2020-07-11T08:06:19Z</time>
      </trkpt>
      <trkpt lat="37.3201510" lon="-4.0829420">
        <ele>772.6</ele>
        <time>2020-07-11T08:06:21Z</time>
      </trkpt>
      <trkpt lat="37.3202730" lon="-4.0826560">
        <ele>771.2</ele>
        <time>2020-07-11T08:06:23Z</time>
      </trkpt>
      <trkpt lat="37.3203910" lon="-4.0825990">
        <ele>770.2</ele>
        <time>2020-07-11T08:06:24Z</time>
      </trkpt>
      <trkpt lat="37.3205260" lon="-4.0825470">
        <ele>769.4</ele>
        <time>2020-07-11T08:06:25Z</time>
      </trkpt>
      <trkpt lat="37.3206520" lon="-4.0825030">
        <ele>768.4</ele>
        <time>2020-07-11T08:06:26Z</time>
      </trkpt>
      <trkpt lat="37.3207620" lon="-4.0824460">
        <ele>767.6</ele>
        <time>2020-07-11T08:06:27Z</time>
      </trkpt>
      <trkpt lat="37.3208950" lon="-4.0823620">
        <ele>766.6</ele>
        <time>2020-07-11T08:06:28Z</time>
      </trkpt>
      <trkpt lat="37.3210120" lon="-4.0822760">
        <ele>765.2</ele>
        <time>2020-07-11T08:06:29Z</time>
      </trkpt>
      <trkpt lat="37.3211220" lon="-4.0821930">
        <ele>764.4</ele>
        <time>2020-07-11T08:06:30Z</time>
      </trkpt>
      <trkpt lat="37.3212420" lon="-4.0820910">
        <ele>763.2</ele>
        <time>2020-07-11T08:06:31Z</time>
      </trkpt>
      <trkpt lat="37.3214470" lon="-4.0818550">
        <ele>761.6</ele>
        <time>2020-07-11T08:06:33Z</time>
      </trkpt>
      <trkpt lat="37.3216560" lon="-4.0816160">
        <ele>759.8</ele>
        <time>2020-07-11T08:06:35Z</time>
      </trkpt>
      <trkpt lat="37.3217530" lon="-4.0815220">
        <ele>758.2</ele>
        <time>2020-07-11T08:06:37Z</time>
      </trkpt>
      <trkpt lat="37.3218490" lon="-4.0814270">
        <ele>757.0</ele>
        <time>2020-07-11T08:06:38Z</time>
      </trkpt>
      <trkpt lat="37.3220420" lon="-4.0812370">
        <ele>755.8</ele>
        <time>2020-07-11T08:06:39Z</time>
      </trkpt>
      <trkpt lat="37.3221310" lon="-4.0810970">
        <ele>754.6</ele>
        <time>2020-07-11T08:06:40Z</time>
      </trkpt>
      <trkpt lat="37.3222230" lon="-4.0809630">
        <ele>753.6</ele>
        <time>2020-07-11T08:06:41Z</time>
      </trkpt>
      <trkpt lat="37.3223740" lon="-4.0807810">
        <ele>752.6</ele>
        <time>2020-07-11T08:06:42Z</time>
      </trkpt>
      <trkpt lat="37.3225070" lon="-4.0806640">
        <ele>751.4</ele>
        <time>2020-07-11T08:06:43Z</time>
      </trkpt>
      <trkpt lat="37.3226340" lon="-4.0805830">
        <ele>750.0</ele>
        <time>2020-07-11T08:06:44Z</time>
      </trkpt>
      <trkpt lat="37.3227630" lon="-4.0805270">
        <ele>748.6</ele>
        <time>2020-07-11T08:06:45Z</time>
      </trkpt>
      <trkpt lat="37.3228930" lon="-4.0804890">
        <ele>747.0</ele>
        <time>2020-07-11T08:06:46Z</time>
      </trkpt>
      <trkpt lat="37.3230050" lon="-4.0804540">
        <ele>746.0</ele>
        <time>2020-07-11T08:06:47Z</time>
      </trkpt>
      <trkpt lat="37.3231160" lon="-4.0803760">
        <ele>744.6</ele>
        <time>2020-07-11T08:06:48Z</time>
      </trkpt>
      <trkpt lat="37.3232020" lon="-4.0802680">
        <ele>743.2</ele>
        <time>2020-07-11T08:06:49Z</time>
      </trkpt>
      <trkpt lat="37.3232510" lon="-4.0801380">
        <ele>742.0</ele>
        <time>2020-07-11T08:06:50Z</time>
      </trkpt>
      <trkpt lat="37.3232720" lon="-4.0799940">
        <ele>740.8</ele>
        <time>2020-07-11T08:06:51Z</time>
      </trkpt>
      <trkpt lat="37.3232050" lon="-4.0797060">
        <ele>738.2</ele>
        <time>2020-07-11T08:06:53Z</time>
      </trkpt>
      <trkpt lat="37.3230410" lon="-4.0795230">
        <ele>736.2</ele>
        <time>2020-07-11T08:06:55Z</time>
      </trkpt>
      <trkpt lat="37.3228470" lon="-4.0794560">
        <ele>734.8</ele>
        <time>2020-07-11T08:06:57Z</time>
      </trkpt>
      <trkpt lat="37.3227440" lon="-4.0794660">
        <ele>734.4</ele>
        <time>2020-07-11T08:06:58Z</time>
      </trkpt>
      <trkpt lat="37.3225600" lon="-4.0795020">
        <ele>734.4</ele>
        <time>2020-07-11T08:07:00Z</time>
      </trkpt>
      <trkpt lat="37.3224620" lon="-4.0794990">
        <ele>734.6</ele>
        <time>2020-07-11T08:07:01Z</time>
      </trkpt>
      <trkpt lat="37.3223770" lon="-4.0794850">
        <ele>734.8</ele>
        <time>2020-07-11T08:07:02Z</time>
      </trkpt>
      <trkpt lat="37.3222790" lon="-4.0794630">
        <ele>735.0</ele>
        <time>2020-07-11T08:07:03Z</time>
      </trkpt>
      <trkpt lat="37.3220980" lon="-4.0794230">
        <ele>735.0</ele>
        <time>2020-07-11T08:07:05Z</time>
      </trkpt>
      <trkpt lat="37.3220090" lon="-4.0794090">
        <ele>735.0</ele>
        <time>2020-07-11T08:07:06Z</time>
      </trkpt>
      <trkpt lat="37.3219220" lon="-4.0793980">
        <ele>734.8</ele>
        <time>2020-07-11T08:07:07Z</time>
      </trkpt>
      <trkpt lat="37.3217220" lon="-4.0793770">
        <ele>734.6</ele>
        <time>2020-07-11T08:07:09Z</time>
      </trkpt>
      <trkpt lat="37.3215310" lon="-4.0793660">
        <ele>734.4</ele>
        <time>2020-07-11T08:07:11Z</time>
      </trkpt>
      <trkpt lat="37.3213380" lon="-4.0793690">
        <ele>734.0</ele>
        <time>2020-07-11T08:07:13Z</time>
      </trkpt>
      <trkpt lat="37.3210490" lon="-4.0793790">
        <ele>733.6</ele>
        <time>2020-07-11T08:07:16Z</time>
      </trkpt>
      <trkpt lat="37.3209560" lon="-4.0793740">
        <ele>733.4</ele>
        <time>2020-07-11T08:07:17Z</time>
      </trkpt>
      <trkpt lat="37.3206270" lon="-4.0793640">
        <ele>732.6</ele>
        <time>2020-07-11T08:07:20Z</time>
      </trkpt>
      <trkpt lat="37.3204140" lon="-4.0793300">
        <ele>731.4</ele>
        <time>2020-07-11T08:07:22Z</time>
      </trkpt>
      <trkpt lat="37.3202000" lon="-4.0792800">
        <ele>729.8</ele>
        <time>2020-07-11T08:07:24Z</time>
      </trkpt>
      <trkpt lat="37.3200920" lon="-4.0792230">
        <ele>729.2</ele>
        <time>2020-07-11T08:07:25Z</time>
      </trkpt>
      <trkpt lat="37.3199990" lon="-4.0791500">
        <ele>728.4</ele>
        <time>2020-07-11T08:07:26Z</time>
      </trkpt>
      <trkpt lat="37.3197870" lon="-4.0790540">
        <ele>727.4</ele>
        <time>2020-07-11T08:07:28Z</time>
      </trkpt>
      <trkpt lat="37.3196690" lon="-4.0790760">
        <ele>726.8</ele>
        <time>2020-07-11T08:07:29Z</time>
      </trkpt>
      <trkpt lat="37.3195600" lon="-4.0791050">
        <ele>726.2</ele>
        <time>2020-07-11T08:07:30Z</time>
      </trkpt>
      <trkpt lat="37.3193280" lon="-4.0791620">
        <ele>724.8</ele>
        <time>2020-07-11T08:07:32Z</time>
      </trkpt>
      <trkpt lat="37.3192020" lon="-4.0791910">
        <ele>724.0</ele>
        <time>2020-07-11T08:07:33Z</time>
      </trkpt>
      <trkpt lat="37.3190840" lon="-4.0792080">
        <ele>723.4</ele>
        <time>2020-07-11T08:07:34Z</time>
      </trkpt>
      <trkpt lat="37.3188490" lon="-4.0792250">
        <ele>722.2</ele>
        <time>2020-07-11T08:07:36Z</time>
      </trkpt>
      <trkpt lat="37.3186010" lon="-4.0792220">
        <ele>720.8</ele>
        <time>2020-07-11T08:07:38Z</time>
      </trkpt>
      <trkpt lat="37.3184830" lon="-4.0791940">
        <ele>720.2</ele>
        <time>2020-07-11T08:07:39Z</time>
      </trkpt>
      <trkpt lat="37.3183670" lon="-4.0791380">
        <ele>719.4</ele>
        <time>2020-07-11T08:07:40Z</time>
      </trkpt>
      <trkpt lat="37.3182520" lon="-4.0790810">
        <ele>718.6</ele>
        <time>2020-07-11T08:07:41Z</time>
      </trkpt>
      <trkpt lat="37.3181400" lon="-4.0790410">
        <ele>717.8</ele>
        <time>2020-07-11T08:07:42Z</time>
      </trkpt>
      <trkpt lat="37.3180000" lon="-4.0790180">
        <ele>716.8</ele>
        <time>2020-07-11T08:07:43Z</time>
      </trkpt>
      <trkpt lat="37.3178730" lon="-4.0790320">
        <ele>716.0</ele>
        <time>2020-07-11T08:07:44Z</time>
      </trkpt>
      <trkpt lat="37.3176160" lon="-4.0790890">
        <ele>714.0</ele>
        <time>2020-07-11T08:07:46Z</time>
      </trkpt>
      <trkpt lat="37.3175040" lon="-4.0790800">
        <ele>713.4</ele>
        <time>2020-07-11T08:07:47Z</time>
      </trkpt>
      <trkpt lat="37.3173690" lon="-4.0790500">
        <ele>712.8</ele>
        <time>2020-07-11T08:07:48Z</time>
      </trkpt>
      <trkpt lat="37.3172370" lon="-4.0790210">
        <ele>712.0</ele>
        <time>2020-07-11T08:07:49Z</time>
      </trkpt>
      <trkpt lat="37.3171090" lon="-4.0790240">
        <ele>711.2</ele>
        <time>2020-07-11T08:07:50Z</time>
      </trkpt>
      <trkpt lat="37.3168700" lon="-4.0790330">
        <ele>709.8</ele>
        <time>2020-07-11T08:07:52Z</time>
      </trkpt>
      <trkpt lat="37.3167350" lon="-4.0790060">
        <ele>709.2</ele>
        <time>2020-07-11T08:07:53Z</time>
      </trkpt>
      <trkpt lat="37.3166230" lon="-4.0789510">
        <ele>708.6</ele>
        <time>2020-07-11T08:07:54Z</time>
      </trkpt>
      <trkpt lat="37.3164060" lon="-4.0787830">
        <ele>707.4</ele>
        <time>2020-07-11T08:07:56Z</time>
      </trkpt>
      <trkpt lat="37.3163170" lon="-4.0787060">
        <ele>706.8</ele>
        <time>2020-07-11T08:07:57Z</time>
      </trkpt>
      <trkpt lat="37.3162170" lon="-4.0785920">
        <ele>706.2</ele>
        <time>2020-07-11T08:07:58Z</time>
      </trkpt>
      <trkpt lat="37.3161170" lon="-4.0783470">
        <ele>705.2</ele>
        <time>2020-07-11T08:08:00Z</time>
      </trkpt>
      <trkpt lat="37.3160770" lon="-4.0782050">
        <ele>705.0</ele>
        <time>2020-07-11T08:08:01Z</time>
      </trkpt>
      <trkpt lat="37.3160500" lon="-4.0780920">
        <ele>704.8</ele>
        <time>2020-07-11T08:08:02Z</time>
      </trkpt>
      <trkpt lat="37.3159770" lon="-4.0778260">
        <ele>704.2</ele>
        <time>2020-07-11T08:08:04Z</time>
      </trkpt>
      <trkpt lat="37.3159400" lon="-4.0777050">
        <ele>704.0</ele>
        <time>2020-07-11T08:08:05Z</time>
      </trkpt>
      <trkpt lat="37.3158450" lon="-4.0772190">
        <ele>703.4</ele>
        <time>2020-07-11T08:08:09Z</time>
      </trkpt>
      <trkpt lat="37.3158450" lon="-4.0770970">
        <ele>703.4</ele>
        <time>2020-07-11T08:08:10Z</time>
      </trkpt>
      <trkpt lat="37.3158350" lon="-4.0767300">
        <ele>703.2</ele>
        <time>2020-07-11T08:08:13Z</time>
      </trkpt>
      <trkpt lat="37.3158220" lon="-4.0764950">
        <ele>703.0</ele>
        <time>2020-07-11T08:08:15Z</time>
      </trkpt>
      <trkpt lat="37.3158140" lon="-4.0763750">
        <ele>702.8</ele>
        <time>2020-07-11T08:08:16Z</time>
      </trkpt>
      <trkpt lat="37.3157970" lon="-4.0761480">
        <ele>702.6</ele>
        <time>2020-07-11T08:08:18Z</time>
      </trkpt>
      <trkpt lat="37.3157500" lon="-4.0759130">
        <ele>702.4</ele>
        <time>2020-07-11T08:08:20Z</time>
      </trkpt>
      <trkpt lat="37.3156780" lon="-4.0757200">
        <ele>702.6</ele>
        <time>2020-07-11T08:08:22Z</time>
      </trkpt>
      <trkpt lat="37.3156020" lon="-4.0755230">
        <ele>702.6</ele>
        <time>2020-07-11T08:08:24Z</time>
      </trkpt>
      <trkpt lat="37.3154210" lon="-4.0750590">
        <ele>703.0</ele>
        <time>2020-07-11T08:08:29Z</time>
      </trkpt>
      <trkpt lat="37.3153210" lon="-4.0748030">
        <ele>703.4</ele>
        <time>2020-07-11T08:08:32Z</time>
      </trkpt>
      <trkpt lat="37.3152560" lon="-4.0746240">
        <ele>703.8</ele>
        <time>2020-07-11T08:08:34Z</time>
      </trkpt>
      <trkpt lat="37.3151740" lon="-4.0743580">
        <ele>704.2</ele>
        <time>2020-07-11T08:08:37Z</time>
      </trkpt>
      <trkpt lat="37.3150860" lon="-4.0740410">
        <ele>704.0</ele>
        <time>2020-07-11T08:08:40Z</time>
      </trkpt>
      <trkpt lat="37.3149980" lon="-4.0737120">
        <ele>703.2</ele>
        <time>2020-07-11T08:08:43Z</time>
      </trkpt>
      <trkpt lat="37.3149390" lon="-4.0734830">
        <ele>702.6</ele>
        <time>2020-07-11T08:08:45Z</time>
      </trkpt>
      <trkpt lat="37.3148400" lon="-4.0730050">
        <ele>701.2</ele>
        <time>2020-07-11T08:08:49Z</time>
      </trkpt>
      <trkpt lat="37.3148200" lon="-4.0728830">
        <ele>700.8</ele>
        <time>2020-07-11T08:08:50Z</time>
      </trkpt>
      <trkpt lat="37.3147830" lon="-4.0726490">
        <ele>700.0</ele>
        <time>2020-07-11T08:08:52Z</time>
      </trkpt>
      <trkpt lat="37.3147200" lon="-4.0721330">
        <ele>698.8</ele>
        <time>2020-07-11T08:08:56Z</time>
      </trkpt>
      <trkpt lat="37.3147030" lon="-4.0718790">
        <ele>698.2</ele>
        <time>2020-07-11T08:08:58Z</time>
      </trkpt>
      <trkpt lat="37.3146930" lon="-4.0717510">
        <ele>697.8</ele>
        <time>2020-07-11T08:08:59Z</time>
      </trkpt>
      <trkpt lat="37.3146700" lon="-4.0713920">
        <ele>697.0</ele>
        <time>2020-07-11T08:09:02Z</time>
      </trkpt>
      <trkpt lat="37.3146590" lon="-4.0711530">
        <ele>696.6</ele>
        <time>2020-07-11T08:09:04Z</time>
      </trkpt>
      <trkpt lat="37.3146590" lon="-4.0709380">
        <ele>696.6</ele>
        <time>2020-07-11T08:09:06Z</time>
      </trkpt>
      <trkpt lat="37.3146540" lon="-4.0706050">
        <ele>696.6</ele>
        <time>2020-07-11T08:09:09Z</time>
      </trkpt>
      <trkpt lat="37.3146490" lon="-4.0700460">
        <ele>696.4</ele>
        <time>2020-07-11T08:09:14Z</time>
      </trkpt>
      <trkpt lat="37.3146440" lon="-4.0698130">
        <ele>695.8</ele>
        <time>2020-07-11T08:09:16Z</time>
      </trkpt>
      <trkpt lat="37.3146450" lon="-4.0697020">
        <ele>695.4</ele>
        <time>2020-07-11T08:09:17Z</time>
      </trkpt>
      <trkpt lat="37.3146400" lon="-4.0691930">
        <ele>694.0</ele>
        <time>2020-07-11T08:09:21Z</time>
      </trkpt>
      <trkpt lat="37.3146200" lon="-4.0689440">
        <ele>693.2</ele>
        <time>2020-07-11T08:09:23Z</time>
      </trkpt>
      <trkpt lat="37.3145810" lon="-4.0688310">
        <ele>693.0</ele>
        <time>2020-07-11T08:09:24Z</time>
      </trkpt>
      <trkpt lat="37.3145080" lon="-4.0687270">
        <ele>692.2</ele>
        <time>2020-07-11T08:09:25Z</time>
      </trkpt>
      <trkpt lat="37.3143250" lon="-4.0686090">
        <ele>691.6</ele>
        <time>2020-07-11T08:09:27Z</time>
      </trkpt>
      <trkpt lat="37.3142180" lon="-4.0685440">
        <ele>691.2</ele>
        <time>2020-07-11T08:09:28Z</time>
      </trkpt>
      <trkpt lat="37.3141220" lon="-4.0684800">
        <ele>690.6</ele>
        <time>2020-07-11T08:09:29Z</time>
      </trkpt>
      <trkpt lat="37.3140400" lon="-4.0683990">
        <ele>690.0</ele>
        <time>2020-07-11T08:09:30Z</time>
      </trkpt>
      <trkpt lat="37.3139630" lon="-4.0682910">
        <ele>689.4</ele>
        <time>2020-07-11T08:09:31Z</time>
      </trkpt>
      <trkpt lat="37.3139230" lon="-4.0680520">
        <ele>687.8</ele>
        <time>2020-07-11T08:09:33Z</time>
      </trkpt>
      <trkpt lat="37.3139800" lon="-4.0678210">
        <ele>686.8</ele>
        <time>2020-07-11T08:09:35Z</time>
      </trkpt>
      <trkpt lat="37.3140550" lon="-4.0677370">
        <ele>686.2</ele>
        <time>2020-07-11T08:09:36Z</time>
      </trkpt>
      <trkpt lat="37.3142560" lon="-4.0675920">
        <ele>685.0</ele>
        <time>2020-07-11T08:09:38Z</time>
      </trkpt>
      <trkpt lat="37.3143560" lon="-4.0675330">
        <ele>684.6</ele>
        <time>2020-07-11T08:09:39Z</time>
      </trkpt>
      <trkpt lat="37.3144590" lon="-4.0674710">
        <ele>683.6</ele>
        <time>2020-07-11T08:09:40Z</time>
      </trkpt>
      <trkpt lat="37.3146490" lon="-4.0673530">
        <ele>682.6</ele>
        <time>2020-07-11T08:09:42Z</time>
      </trkpt>
      <trkpt lat="37.3148400" lon="-4.0671810">
        <ele>681.6</ele>
        <time>2020-07-11T08:09:44Z</time>
      </trkpt>
      <trkpt lat="37.3149020" lon="-4.0670670">
        <ele>681.2</ele>
        <time>2020-07-11T08:09:45Z</time>
      </trkpt>
      <trkpt lat="37.3149760" lon="-4.0668260">
        <ele>680.4</ele>
        <time>2020-07-11T08:09:47Z</time>
      </trkpt>
      <trkpt lat="37.3150150" lon="-4.0666940">
        <ele>680.0</ele>
        <time>2020-07-11T08:09:48Z</time>
      </trkpt>
      <trkpt lat="37.3151350" lon="-4.0663160">
        <ele>679.4</ele>
        <time>2020-07-11T08:09:51Z</time>
      </trkpt>
      <trkpt lat="37.3152080" lon="-4.0660690">
        <ele>678.8</ele>
        <time>2020-07-11T08:09:53Z</time>
      </trkpt>
      <trkpt lat="37.3153180" lon="-4.0657070">
        <ele>678.2</ele>
        <time>2020-07-11T08:09:56Z</time>
      </trkpt>
      <trkpt lat="37.3153960" lon="-4.0654640">
        <ele>677.8</ele>
        <time>2020-07-11T08:09:58Z</time>
      </trkpt>
      <trkpt lat="37.3155090" lon="-4.0651030">
        <ele>677.0</ele>
        <time>2020-07-11T08:10:01Z</time>
      </trkpt>
      <trkpt lat="37.3156610" lon="-4.0646130">
        <ele>675.8</ele>
        <time>2020-07-11T08:10:05Z</time>
      </trkpt>
      <trkpt lat="37.3158120" lon="-4.0641170">
        <ele>674.8</ele>
        <time>2020-07-11T08:10:09Z</time>
      </trkpt>
      <trkpt lat="37.3158450" lon="-4.0639900">
        <ele>674.6</ele>
        <time>2020-07-11T08:10:10Z</time>
      </trkpt>
      <trkpt lat="37.3158820" lon="-4.0637470">
        <ele>674.0</ele>
        <time>2020-07-11T08:10:12Z</time>
      </trkpt>
      <trkpt lat="37.3158860" lon="-4.0635940">
        <ele>673.6</ele>
        <time>2020-07-11T08:10:13Z</time>
      </trkpt>
      <trkpt lat="37.3158460" lon="-4.0632090">
        <ele>672.4</ele>
        <time>2020-07-11T08:10:16Z</time>
      </trkpt>
      <trkpt lat="37.3158300" lon="-4.0630950">
        <ele>672.0</ele>
        <time>2020-07-11T08:10:17Z</time>
      </trkpt>
      <trkpt lat="37.3157880" lon="-4.0623540">
        <ele>671.8</ele>
        <time>2020-07-11T08:10:23Z</time>
      </trkpt>
      <trkpt lat="37.3158030" lon="-4.0618860">
        <ele>671.4</ele>
        <time>2020-07-11T08:10:27Z</time>
      </trkpt>
      <trkpt lat="37.3158030" lon="-4.0612970">
        <ele>670.8</ele>
        <time>2020-07-11T08:10:32Z</time>
      </trkpt>
      <trkpt lat="37.3157430" lon="-4.0609600">
        <ele>670.2</ele>
        <time>2020-07-11T08:10:35Z</time>
      </trkpt>
      <trkpt lat="37.3157100" lon="-4.0608640">
        <ele>670.2</ele>
        <time>2020-07-11T08:10:36Z</time>
      </trkpt>
      <trkpt lat="37.3155350" lon="-4.0605080">
        <ele>670.4</ele>
        <time>2020-07-11T08:10:40Z</time>
      </trkpt>
      <trkpt lat="37.3154550" lon="-4.0603640">
        <ele>670.8</ele>
        <time>2020-07-11T08:10:42Z</time>
      </trkpt>
      <trkpt lat="37.3153350" lon="-4.0601330">
        <ele>671.4</ele>
        <time>2020-07-11T08:10:45Z</time>
      </trkpt>
      <trkpt lat="37.3153000" lon="-4.0600610">
        <ele>671.6</ele>
        <time>2020-07-11T08:10:46Z</time>
      </trkpt>
      <trkpt lat="37.3152240" lon="-4.0598410">
        <ele>672.4</ele>
        <time>2020-07-11T08:10:49Z</time>
      </trkpt>
      <trkpt lat="37.3151930" lon="-4.0596830">
        <ele>673.0</ele>
        <time>2020-07-11T08:10:51Z</time>
      </trkpt>
      <trkpt lat="37.3151800" lon="-4.0595300">
        <ele>673.4</ele>
        <time>2020-07-11T08:10:53Z</time>
      </trkpt>
      <trkpt lat="37.3151860" lon="-4.0592930">
        <ele>674.0</ele>
        <time>2020-07-11T08:10:56Z</time>
      </trkpt>
      <trkpt lat="37.3152130" lon="-4.0590490">
        <ele>674.4</ele>
        <time>2020-07-11T08:10:59Z</time>
      </trkpt>
      <trkpt lat="37.3152650" lon="-4.0588000">
        <ele>675.0</ele>
        <time>2020-07-11T08:11:02Z</time>
      </trkpt>
      <trkpt lat="37.3152930" lon="-4.0587090">
        <ele>675.0</ele>
        <time>2020-07-11T08:11:03Z</time>
      </trkpt>
      <trkpt lat="37.3154780" lon="-4.0582740">
        <ele>674.6</ele>
        <time>2020-07-11T08:11:08Z</time>
      </trkpt>
      <trkpt lat="37.3157590" lon="-4.0576460">
        <ele>673.6</ele>
        <time>2020-07-11T08:11:15Z</time>
      </trkpt>
      <trkpt lat="37.3158350" lon="-4.0574770">
        <ele>673.4</ele>
        <time>2020-07-11T08:11:17Z</time>
      </trkpt>
      <trkpt lat="37.3159540" lon="-4.0572110">
        <ele>673.4</ele>
        <time>2020-07-11T08:11:20Z</time>
      </trkpt>
      <trkpt lat="37.3161720" lon="-4.0567240">
        <ele>673.8</ele>
        <time>2020-07-11T08:11:26Z</time>
      </trkpt>
      <trkpt lat="37.3162720" lon="-4.0564900">
        <ele>674.2</ele>
        <time>2020-07-11T08:11:29Z</time>
      </trkpt>
      <trkpt lat="37.3163670" lon="-4.0562850">
        <ele>674.4</ele>
        <time>2020-07-11T08:11:32Z</time>
      </trkpt>
      <trkpt lat="37.3165480" lon="-4.0559940">
        <ele>675.0</ele>
        <time>2020-07-11T08:11:36Z</time>
      </trkpt>
      <trkpt lat="37.3168370" lon="-4.0556990">
        <ele>675.4</ele>
        <time>2020-07-11T08:11:41Z</time>
      </trkpt>
      <trkpt lat="37.3173410" lon="-4.0552410">
        <ele>675.2</ele>
        <time>2020-07-11T08:11:49Z</time>
      </trkpt>
      <trkpt lat="37.3174020" lon="-4.0551840">
        <ele>675.2</ele>
        <time>2020-07-11T08:11:50Z</time>
      </trkpt>
      <trkpt lat="37.3178220" lon="-4.0547920">
        <ele>675.4</ele>
        <time>2020-07-11T08:11:57Z</time>
      </trkpt>
      <trkpt lat="37.3179470" lon="-4.0546640">
        <ele>675.4</ele>
        <time>2020-07-11T08:11:59Z</time>
      </trkpt>
      <trkpt lat="37.3182550" lon="-4.0542570">
        <ele>675.4</ele>
        <time>2020-07-11T08:12:05Z</time>
      </trkpt>
      <trkpt lat="37.3183030" lon="-4.0541930">
        <ele>675.4</ele>
        <time>2020-07-11T08:12:06Z</time>
      </trkpt>
      <trkpt lat="37.3186090" lon="-4.0536570">
        <ele>676.0</ele>
        <time>2020-07-11T08:12:13Z</time>
      </trkpt>
      <trkpt lat="37.3188450" lon="-4.0530690">
        <ele>676.0</ele>
        <time>2020-07-11T08:12:20Z</time>
      </trkpt>
      <trkpt lat="37.3188980" lon="-4.0529050">
        <ele>676.2</ele>
        <time>2020-07-11T08:12:22Z</time>
      </trkpt>
      <trkpt lat="37.3190040" lon="-4.0523540">
        <ele>676.4</ele>
        <time>2020-07-11T08:12:28Z</time>
      </trkpt>
      <trkpt lat="37.3190260" lon="-4.0521820">
        <ele>676.6</ele>
        <time>2020-07-11T08:12:30Z</time>
      </trkpt>
      <trkpt lat="37.3191150" lon="-4.0514670">
        <ele>677.6</ele>
        <time>2020-07-11T08:12:38Z</time>
      </trkpt>
      <trkpt lat="37.3191840" lon="-4.0509560">
        <ele>678.2</ele>
        <time>2020-07-11T08:12:44Z</time>
      </trkpt>
      <trkpt lat="37.3192050" lon="-4.0507850">
        <ele>678.4</ele>
        <time>2020-07-11T08:12:46Z</time>
      </trkpt>
      <trkpt lat="37.3192370" lon="-4.0505350">
        <ele>678.6</ele>
        <time>2020-07-11T08:12:49Z</time>
      </trkpt>
      <trkpt lat="37.3193130" lon="-4.0499390">
        <ele>679.6</ele>
        <time>2020-07-11T08:12:56Z</time>
      </trkpt>
      <trkpt lat="37.3193440" lon="-4.0496850">
        <ele>680.0</ele>
        <time>2020-07-11T08:12:59Z</time>
      </trkpt>
      <trkpt lat="37.3194120" lon="-4.0491090">
        <ele>680.6</ele>
        <time>2020-07-11T08:13:06Z</time>
      </trkpt>
      <trkpt lat="37.3194770" lon="-4.0486260">
        <ele>681.2</ele>
        <time>2020-07-11T08:13:12Z</time>
      </trkpt>
      <trkpt lat="37.3195110" lon="-4.0483700">
        <ele>681.8</ele>
        <time>2020-07-11T08:13:15Z</time>
      </trkpt>
      <trkpt lat="37.3195810" lon="-4.0478400">
        <ele>682.2</ele>
        <time>2020-07-11T08:13:21Z</time>
      </trkpt>
      <trkpt lat="37.3196320" lon="-4.0474150">
        <ele>682.8</ele>
        <time>2020-07-11T08:13:26Z</time>
      </trkpt>
      <trkpt lat="37.3196550" lon="-4.0472350">
        <ele>683.0</ele>
        <time>2020-07-11T08:13:28Z</time>
      </trkpt>
      <trkpt lat="37.3197330" lon="-4.0464780">
        <ele>683.6</ele>
        <time>2020-07-11T08:13:37Z</time>
      </trkpt>
      <trkpt lat="37.3197410" lon="-4.0463920">
        <ele>683.6</ele>
        <time>2020-07-11T08:13:38Z</time>
      </trkpt>
      <trkpt lat="37.3197490" lon="-4.0463080">
        <ele>683.8</ele>
        <time>2020-07-11T08:13:39Z</time>
      </trkpt>
      <trkpt lat="37.3198110" lon="-4.0455540">
        <ele>684.6</ele>
        <time>2020-07-11T08:13:48Z</time>
      </trkpt>
      <trkpt lat="37.3198440" lon="-4.0451540">
        <ele>684.8</ele>
        <time>2020-07-11T08:13:53Z</time>
      </trkpt>
      <trkpt lat="37.3198890" lon="-4.0445120">
        <ele>685.4</ele>
        <time>2020-07-11T08:14:00Z</time>
      </trkpt>
      <trkpt lat="37.3199090" lon="-4.0440730">
        <ele>686.0</ele>
        <time>2020-07-11T08:14:05Z</time>
      </trkpt>
      <trkpt lat="37.3199290" lon="-4.0435590">
        <ele>686.4</ele>
        <time>2020-07-11T08:14:11Z</time>
      </trkpt>
      <trkpt lat="37.3199400" lon="-4.0431210">
        <ele>687.0</ele>
        <time>2020-07-11T08:14:16Z</time>
      </trkpt>
      <trkpt lat="37.3199470" lon="-4.0427630">
        <ele>687.2</ele>
        <time>2020-07-11T08:14:20Z</time>
      </trkpt>
      <trkpt lat="37.3199710" lon="-4.0420580">
        <ele>687.6</ele>
        <time>2020-07-11T08:14:28Z</time>
      </trkpt>
      <trkpt lat="37.3199920" lon="-4.0417000">
        <ele>688.0</ele>
        <time>2020-07-11T08:14:32Z</time>
      </trkpt>
      <trkpt lat="37.3199980" lon="-4.0416090">
        <ele>688.0</ele>
        <time>2020-07-11T08:14:33Z</time>
      </trkpt>
      <trkpt lat="37.3200490" lon="-4.0409040">
        <ele>688.6</ele>
        <time>2020-07-11T08:14:41Z</time>
      </trkpt>
      <trkpt lat="37.3200770" lon="-4.0405340">
        <ele>689.0</ele>
        <time>2020-07-11T08:14:45Z</time>
      </trkpt>
      <trkpt lat="37.3200890" lon="-4.0403630">
        <ele>689.0</ele>
        <time>2020-07-11T08:14:47Z</time>
      </trkpt>
      <trkpt lat="37.3201220" lon="-4.0396350">
        <ele>689.6</ele>
        <time>2020-07-11T08:14:55Z</time>
      </trkpt>
      <trkpt lat="37.3201230" lon="-4.0395530">
        <ele>689.6</ele>
        <time>2020-07-11T08:14:56Z</time>
      </trkpt>
      <trkpt lat="37.3201200" lon="-4.0392770">
        <ele>690.0</ele>
        <time>2020-07-11T08:14:59Z</time>
      </trkpt>
      <trkpt lat="37.3201130" lon="-4.0385460">
        <ele>690.6</ele>
        <time>2020-07-11T08:15:07Z</time>
      </trkpt>
      <trkpt lat="37.3201090" lon="-4.0382010">
        <ele>691.2</ele>
        <time>2020-07-11T08:15:11Z</time>
      </trkpt>
      <trkpt lat="37.3200950" lon="-4.0375850">
        <ele>691.6</ele>
        <time>2020-07-11T08:15:18Z</time>
      </trkpt>
      <trkpt lat="37.3200920" lon="-4.0373390">
        <ele>692.2</ele>
        <time>2020-07-11T08:15:21Z</time>
      </trkpt>
      <trkpt lat="37.3200930" lon="-4.0370070">
        <ele>693.0</ele>
        <time>2020-07-11T08:15:25Z</time>
      </trkpt>
      <trkpt lat="37.3200940" lon="-4.0369360">
        <ele>693.0</ele>
        <time>2020-07-11T08:15:26Z</time>
      </trkpt>
      <trkpt lat="37.3200970" lon="-4.0368480">
        <ele>693.4</ele>
        <time>2020-07-11T08:15:27Z</time>
      </trkpt>
      <trkpt lat="37.3201160" lon="-4.0365380">
        <ele>694.2</ele>
        <time>2020-07-11T08:15:31Z</time>
      </trkpt>
      <trkpt lat="37.3201240" lon="-4.0364520">
        <ele>694.4</ele>
        <time>2020-07-11T08:15:32Z</time>
      </trkpt>
      <trkpt lat="37.3201460" lon="-4.0362220">
        <ele>695.0</ele>
        <time>2020-07-11T08:15:35Z</time>
      </trkpt>
      <trkpt lat="37.3201680" lon="-4.0359780">
        <ele>695.6</ele>
        <time>2020-07-11T08:15:38Z</time>
      </trkpt>
      <trkpt lat="37.3202170" lon="-4.0354910">
        <ele>696.6</ele>
        <time>2020-07-11T08:15:44Z</time>
      </trkpt>
      <trkpt lat="37.3202750" lon="-4.0349460">
        <ele>697.8</ele>
        <time>2020-07-11T08:15:51Z</time>
      </trkpt>
      <trkpt lat="37.3203120" lon="-4.0345500">
        <ele>698.8</ele>
        <time>2020-07-11T08:15:56Z</time>
      </trkpt>
      <trkpt lat="37.3203650" lon="-4.0340830">
        <ele>699.8</ele>
        <time>2020-07-11T08:16:02Z</time>
      </trkpt>
      <trkpt lat="37.3204340" lon="-4.0336250">
        <ele>701.0</ele>
        <time>2020-07-11T08:16:08Z</time>
      </trkpt>
      <trkpt lat="37.3204480" lon="-4.0335500">
        <ele>701.2</ele>
        <time>2020-07-11T08:16:09Z</time>
      </trkpt>
      <trkpt lat="37.3205260" lon="-4.0331680">
        <ele>702.0</ele>
        <time>2020-07-11T08:16:14Z</time>
      </trkpt>
      <trkpt lat="37.3206700" lon="-4.0326450">
        <ele>703.0</ele>
        <time>2020-07-11T08:16:21Z</time>
      </trkpt>
      <trkpt lat="37.3209320" lon="-4.0320830">
        <ele>703.2</ele>
        <time>2020-07-11T08:16:28Z</time>
      </trkpt>
      <trkpt lat="37.3212290" lon="-4.0314430">
        <ele>703.4</ele>
        <time>2020-07-11T08:16:36Z</time>
      </trkpt>
      <trkpt lat="37.3213430" lon="-4.0311840">
        <ele>703.6</ele>
        <time>2020-07-11T08:16:39Z</time>
      </trkpt>
      <trkpt lat="37.3215510" lon="-4.0306790">
        <ele>703.6</ele>
        <time>2020-07-11T08:16:45Z</time>
      </trkpt>
      <trkpt lat="37.3216560" lon="-4.0304280">
        <ele>703.8</ele>
        <time>2020-07-11T08:16:48Z</time>
      </trkpt>
      <trkpt lat="37.3217270" lon="-4.0302580">
        <ele>703.8</ele>
        <time>2020-07-11T08:16:50Z</time>
      </trkpt>
      <trkpt lat="37.3218750" lon="-4.0299170">
        <ele>703.8</ele>
        <time>2020-07-11T08:16:54Z</time>
      </trkpt>
      <trkpt lat="37.3219810" lon="-4.0296540">
        <ele>703.8</ele>
        <time>2020-07-11T08:16:57Z</time>
      </trkpt>
      <trkpt lat="37.3220700" lon="-4.0293840">
        <ele>703.8</ele>
        <time>2020-07-11T08:17:00Z</time>
      </trkpt>
      <trkpt lat="37.3221220" lon="-4.0290980">
        <ele>703.6</ele>
        <time>2020-07-11T08:17:03Z</time>
      </trkpt>
      <trkpt lat="37.3221400" lon="-4.0289110">
        <ele>703.6</ele>
        <time>2020-07-11T08:17:05Z</time>
      </trkpt>
      <trkpt lat="37.3221840" lon="-4.0284500">
        <ele>704.2</ele>
        <time>2020-07-11T08:17:10Z</time>
      </trkpt>
      <trkpt lat="37.3222130" lon="-4.0282850">
        <ele>704.2</ele>
        <time>2020-07-11T08:17:12Z</time>
      </trkpt>
      <trkpt lat="37.3222560" lon="-4.0281350">
        <ele>704.6</ele>
        <time>2020-07-11T08:17:14Z</time>
      </trkpt>
      <trkpt lat="37.3222850" lon="-4.0280690">
        <ele>704.8</ele>
        <time>2020-07-11T08:17:15Z</time>
      </trkpt>
      <trkpt lat="37.3223480" lon="-4.0279550">
        <ele>705.6</ele>
        <time>2020-07-11T08:17:17Z</time>
      </trkpt>
      <trkpt lat="37.3224210" lon="-4.0278530">
        <ele>706.4</ele>
        <time>2020-07-11T08:17:19Z</time>
      </trkpt>
      <trkpt lat="37.3224590" lon="-4.0278090">
        <ele>707.0</ele>
        <time>2020-07-11T08:17:20Z</time>
      </trkpt>
      <trkpt lat="37.3225770" lon="-4.0276930">
        <ele>708.2</ele>
        <time>2020-07-11T08:17:23Z</time>
      </trkpt>
      <trkpt lat="37.3226960" lon="-4.0275760">
        <ele>709.4</ele>
        <time>2020-07-11T08:17:26Z</time>
      </trkpt>
      <trkpt lat="37.3228380" lon="-4.0274100">
        <ele>710.8</ele>
        <time>2020-07-11T08:17:30Z</time>
      </trkpt>
      <trkpt lat="37.3229120" lon="-4.0272840">
        <ele>711.8</ele>
        <time>2020-07-11T08:17:33Z</time>
      </trkpt>
      <trkpt lat="37.3229710" lon="-4.0271430">
        <ele>712.6</ele>
        <time>2020-07-11T08:17:36Z</time>
      </trkpt>
      <trkpt lat="37.3229880" lon="-4.0270870">
        <ele>713.0</ele>
        <time>2020-07-11T08:17:37Z</time>
      </trkpt>
      <trkpt lat="37.3230210" lon="-4.0269380">
        <ele>714.0</ele>
        <time>2020-07-11T08:17:40Z</time>
      </trkpt>
      <trkpt lat="37.3230390" lon="-4.0268390">
        <ele>714.8</ele>
        <time>2020-07-11T08:17:42Z</time>
      </trkpt>
      <trkpt lat="37.3230460" lon="-4.0267890">
        <ele>715.2</ele>
        <time>2020-07-11T08:17:43Z</time>
      </trkpt>
      <trkpt lat="37.3230680" lon="-4.0266450">
        <ele>716.4</ele>
        <time>2020-07-11T08:17:46Z</time>
      </trkpt>
      <trkpt lat="37.3230800" lon="-4.0265450">
        <ele>717.0</ele>
        <time>2020-07-11T08:17:48Z</time>
      </trkpt>
      <trkpt lat="37.3230840" lon="-4.0264970">
        <ele>717.4</ele>
        <time>2020-07-11T08:17:49Z</time>
      </trkpt>
      <trkpt lat="37.3230900" lon="-4.0264500">
        <ele>717.8</ele>
        <time>2020-07-11T08:17:50Z</time>
      </trkpt>
      <trkpt lat="37.3231040" lon="-4.0263070">
        <ele>718.8</ele>
        <time>2020-07-11T08:17:53Z</time>
      </trkpt>
      <trkpt lat="37.3231230" lon="-4.0261080">
        <ele>719.8</ele>
        <time>2020-07-11T08:17:57Z</time>
      </trkpt>
      <trkpt lat="37.3231360" lon="-4.0259170">
        <ele>721.0</ele>
        <time>2020-07-11T08:18:01Z</time>
      </trkpt>
      <trkpt lat="37.3231390" lon="-4.0257230">
        <ele>722.2</ele>
        <time>2020-07-11T08:18:05Z</time>
      </trkpt>
      <trkpt lat="37.3231330" lon="-4.0255780">
        <ele>723.2</ele>
        <time>2020-07-11T08:18:08Z</time>
      </trkpt>
      <trkpt lat="37.3231290" lon="-4.0255280">
        <ele>723.4</ele>
        <time>2020-07-11T08:18:09Z</time>
      </trkpt>
      <trkpt lat="37.3231000" lon="-4.0252780">
        <ele>724.6</ele>
        <time>2020-07-11T08:18:14Z</time>
      </trkpt>
      <trkpt lat="37.3230670" lon="-4.0250660">
        <ele>725.2</ele>
        <time>2020-07-11T08:18:18Z</time>
      </trkpt>
      <trkpt lat="37.3230380" lon="-4.0249020">
        <ele>725.6</ele>
        <time>2020-07-11T08:18:21Z</time>
      </trkpt>
      <trkpt lat="37.3229520" lon="-4.0245340">
        <ele>726.2</ele>
        <time>2020-07-11T08:18:27Z</time>
      </trkpt>
      <trkpt lat="37.3227810" lon="-4.0240810">
        <ele>726.4</ele>
        <time>2020-07-11T08:18:34Z</time>
      </trkpt>
      <trkpt lat="37.3226400" lon="-4.0237460">
        <ele>726.8</ele>
        <time>2020-07-11T08:18:39Z</time>
      </trkpt>
      <trkpt lat="37.3226090" lon="-4.0236100">
        <ele>727.0</ele>
        <time>2020-07-11T08:18:41Z</time>
      </trkpt>
      <trkpt lat="37.3225900" lon="-4.0232840">
        <ele>727.2</ele>
        <time>2020-07-11T08:18:45Z</time>
      </trkpt>
      <trkpt lat="37.3225900" lon="-4.0232120">
        <ele>727.2</ele>
        <time>2020-07-11T08:18:46Z</time>
      </trkpt>
      <trkpt lat="37.3225990" lon="-4.0227990">
        <ele>727.2</ele>
        <time>2020-07-11T08:18:51Z</time>
      </trkpt>
      <trkpt lat="37.3226060" lon="-4.0225330">
        <ele>727.0</ele>
        <time>2020-07-11T08:18:54Z</time>
      </trkpt>
      <trkpt lat="37.3226120" lon="-4.0223630">
        <ele>727.0</ele>
        <time>2020-07-11T08:18:56Z</time>
      </trkpt>
      <trkpt lat="37.3226320" lon="-4.0220030">
        <ele>727.0</ele>
        <time>2020-07-11T08:19:00Z</time>
      </trkpt>
      <trkpt lat="37.3226660" lon="-4.0215680">
        <ele>727.0</ele>
        <time>2020-07-11T08:19:05Z</time>
      </trkpt>
      <trkpt lat="37.3227230" lon="-4.0212190">
        <ele>727.2</ele>
        <time>2020-07-11T08:19:09Z</time>
      </trkpt>
      <trkpt lat="37.3227700" lon="-4.0210650">
        <ele>727.2</ele>
        <time>2020-07-11T08:19:11Z</time>
      </trkpt>
      <trkpt lat="37.3229270" lon="-4.0206070">
        <ele>727.8</ele>
        <time>2020-07-11T08:19:17Z</time>
      </trkpt>
      <trkpt lat="37.3229790" lon="-4.0204620">
        <ele>728.0</ele>
        <time>2020-07-11T08:19:19Z</time>
      </trkpt>
      <trkpt lat="37.3230590" lon="-4.0201910">
        <ele>728.6</ele>
        <time>2020-07-11T08:19:23Z</time>
      </trkpt>
      <trkpt lat="37.3230670" lon="-4.0201470">
        <ele>728.8</ele>
        <time>2020-07-11T08:19:24Z</time>
      </trkpt>
      <trkpt lat="37.3230740" lon="-4.0201030">
        <ele>729.2</ele>
        <time>2020-07-11T08:19:25Z</time>
      </trkpt>
      <trkpt lat="37.3231040" lon="-4.0199260">
        <ele>729.8</ele>
        <time>2020-07-11T08:19:27Z</time>
      </trkpt>
      <trkpt lat="37.3231050" lon="-4.0198610">
        <ele>730.0</ele>
        <time>2020-07-11T08:19:28Z</time>
      </trkpt>
      <trkpt lat="37.3230830" lon="-4.0196090">
        <ele>731.4</ele>
        <time>2020-07-11T08:19:32Z</time>
      </trkpt>
      <trkpt lat="37.3230400" lon="-4.0193920">
        <ele>732.6</ele>
        <time>2020-07-11T08:19:36Z</time>
      </trkpt>
      <trkpt lat="37.3229770" lon="-4.0192190">
        <ele>733.4</ele>
        <time>2020-07-11T08:19:39Z</time>
      </trkpt>
      <trkpt lat="37.3229530" lon="-4.0191690">
        <ele>733.8</ele>
        <time>2020-07-11T08:19:40Z</time>
      </trkpt>
      <trkpt lat="37.3229280" lon="-4.0191260">
        <ele>734.0</ele>
        <time>2020-07-11T08:19:41Z</time>
      </trkpt>
      <trkpt lat="37.3228650" lon="-4.0190290">
        <ele>734.6</ele>
        <time>2020-07-11T08:19:43Z</time>
      </trkpt>
      <trkpt lat="37.3228330" lon="-4.0189880">
        <ele>734.8</ele>
        <time>2020-07-11T08:19:44Z</time>
      </trkpt>
      <trkpt lat="37.3228010" lon="-4.0189500">
        <ele>735.2</ele>
        <time>2020-07-11T08:19:45Z</time>
      </trkpt>
      <trkpt lat="37.3226960" lon="-4.0188440">
        <ele>736.0</ele>
        <time>2020-07-11T08:19:48Z</time>
      </trkpt>
      <trkpt lat="37.3225160" lon="-4.0186790">
        <ele>737.0</ele>
        <time>2020-07-11T08:19:53Z</time>
      </trkpt>
      <trkpt lat="37.3224410" lon="-4.0186140">
        <ele>737.4</ele>
        <time>2020-07-11T08:19:55Z</time>
      </trkpt>
      <trkpt lat="37.3223340" lon="-4.0185180">
        <ele>738.2</ele>
        <time>2020-07-11T08:19:58Z</time>
      </trkpt>
      <trkpt lat="37.3221120" lon="-4.0183330">
        <ele>739.2</ele>
        <time>2020-07-11T08:20:04Z</time>
      </trkpt>
      <trkpt lat="37.3220340" lon="-4.0182760">
        <ele>739.6</ele>
        <time>2020-07-11T08:20:06Z</time>
      </trkpt>
      <trkpt lat="37.3218470" lon="-4.0180950">
        <ele>740.2</ele>
        <time>2020-07-11T08:20:11Z</time>
      </trkpt>
      <trkpt lat="37.3218120" lon="-4.0180470">
        <ele>740.4</ele>
        <time>2020-07-11T08:20:12Z</time>
      </trkpt>
      <trkpt lat="37.3217830" lon="-4.0179960">
        <ele>740.6</ele>
        <time>2020-07-11T08:20:13Z</time>
      </trkpt>
      <trkpt lat="37.3216910" lon="-4.0177040">
        <ele>741.0</ele>
        <time>2020-07-11T08:20:18Z</time>
      </trkpt>
      <trkpt lat="37.3217280" lon="-4.0175330">
        <ele>741.0</ele>
        <time>2020-07-11T08:20:21Z</time>
      </trkpt>
      <trkpt lat="37.3218300" lon="-4.0174760">
        <ele>741.2</ele>
        <time>2020-07-11T08:20:24Z</time>
      </trkpt>
      <trkpt lat="37.3218650" lon="-4.0174790">
        <ele>741.4</ele>
        <time>2020-07-11T08:20:25Z</time>
      </trkpt>
      <trkpt lat="37.3219710" lon="-4.0175080">
        <ele>742.4</ele>
        <time>2020-07-11T08:20:28Z</time>
      </trkpt>
      <trkpt lat="37.3220050" lon="-4.0175160">
        <ele>742.8</ele>
        <time>2020-07-11T08:20:29Z</time>
      </trkpt>
      <trkpt lat="37.3221080" lon="-4.0175460">
        <ele>743.6</ele>
        <time>2020-07-11T08:20:32Z</time>
      </trkpt>
      <trkpt lat="37.3222120" lon="-4.0175480">
        <ele>744.4</ele>
        <time>2020-07-11T08:20:35Z</time>
      </trkpt>
      <trkpt lat="37.3222460" lon="-4.0175400">
        <ele>744.6</ele>
        <time>2020-07-11T08:20:36Z</time>
      </trkpt>
      <trkpt lat="37.3223930" lon="-4.0174820">
        <ele>745.8</ele>
        <time>2020-07-11T08:20:40Z</time>
      </trkpt>
      <trkpt lat="37.3224240" lon="-4.0174650">
        <ele>746.0</ele>
        <time>2020-07-11T08:20:41Z</time>
      </trkpt>
      <trkpt lat="37.3225690" lon="-4.0173820">
        <ele>746.8</ele>
        <time>2020-07-11T08:20:45Z</time>
      </trkpt>
      <trkpt lat="37.3227780" lon="-4.0172580">
        <ele>747.6</ele>
        <time>2020-07-11T08:20:50Z</time>
      </trkpt>
      <trkpt lat="37.3229030" lon="-4.0171720">
        <ele>747.8</ele>
        <time>2020-07-11T08:20:53Z</time>
      </trkpt>
      <trkpt lat="37.3231060" lon="-4.0169740">
        <ele>748.0</ele>
        <time>2020-07-11T08:20:58Z</time>
      </trkpt>
      <trkpt lat="37.3234130" lon="-4.0165200">
        <ele>748.6</ele>
        <time>2020-07-11T08:21:07Z</time>
      </trkpt>
      <trkpt lat="37.3235840" lon="-4.0162610">
        <ele>748.8</ele>
        <time>2020-07-11T08:21:12Z</time>
      </trkpt>
      <trkpt lat="37.3236210" lon="-4.0162080">
        <ele>748.8</ele>
        <time>2020-07-11T08:21:13Z</time>
      </trkpt>
      <trkpt lat="37.3237830" lon="-4.0160070">
        <ele>749.0</ele>
        <time>2020-07-11T08:21:17Z</time>
      </trkpt>
      <trkpt lat="37.3240040" lon="-4.0157380">
        <ele>749.6</ele>
        <time>2020-07-11T08:21:22Z</time>
      </trkpt>
      <trkpt lat="37.3240920" lon="-4.0156290">
        <ele>749.8</ele>
        <time>2020-07-11T08:21:24Z</time>
      </trkpt>
      <trkpt lat="37.3241390" lon="-4.0155770">
        <ele>750.0</ele>
        <time>2020-07-11T08:21:25Z</time>
      </trkpt>
      <trkpt lat="37.3244580" lon="-4.0152100">
        <ele>750.6</ele>
        <time>2020-07-11T08:21:32Z</time>
      </trkpt>
      <trkpt lat="37.3244930" lon="-4.0151450">
        <ele>750.8</ele>
        <time>2020-07-11T08:21:33Z</time>
      </trkpt>
      <trkpt lat="37.3245740" lon="-4.0149340">
        <ele>751.0</ele>
        <time>2020-07-11T08:21:36Z</time>
      </trkpt>
      <trkpt lat="37.3245980" lon="-4.0148530">
        <ele>751.0</ele>
        <time>2020-07-11T08:21:37Z</time>
      </trkpt>
      <trkpt lat="37.3246720" lon="-4.0143880">
        <ele>751.6</ele>
        <time>2020-07-11T08:21:43Z</time>
      </trkpt>
      <trkpt lat="37.3247320" lon="-4.0139170">
        <ele>752.0</ele>
        <time>2020-07-11T08:21:49Z</time>
      </trkpt>
      <trkpt lat="37.3247700" lon="-4.0136090">
        <ele>752.4</ele>
        <time>2020-07-11T08:21:53Z</time>
      </trkpt>
      <trkpt lat="37.3248320" lon="-4.0130610">
        <ele>753.2</ele>
        <time>2020-07-11T08:22:00Z</time>
      </trkpt>
      <trkpt lat="37.3248370" lon="-4.0129870">
        <ele>753.2</ele>
        <time>2020-07-11T08:22:01Z</time>
      </trkpt>
      <trkpt lat="37.3248170" lon="-4.0125120">
        <ele>753.8</ele>
        <time>2020-07-11T08:22:07Z</time>
      </trkpt>
      <trkpt lat="37.3247920" lon="-4.0124400">
        <ele>753.8</ele>
        <time>2020-07-11T08:22:08Z</time>
      </trkpt>
      <trkpt lat="37.3247010" lon="-4.0122640">
        <ele>754.2</ele>
        <time>2020-07-11T08:22:11Z</time>
      </trkpt>
      <trkpt lat="37.3246290" lon="-4.0121570">
        <ele>754.6</ele>
        <time>2020-07-11T08:22:13Z</time>
      </trkpt>
      <trkpt lat="37.3245620" lon="-4.0120640">
        <ele>755.2</ele>
        <time>2020-07-11T08:22:15Z</time>
      </trkpt>
      <trkpt lat="37.3244250" lon="-4.0119030">
        <ele>756.4</ele>
        <time>2020-07-11T08:22:19Z</time>
      </trkpt>
      <trkpt lat="37.3243900" lon="-4.0118700">
        <ele>756.8</ele>
        <time>2020-07-11T08:22:20Z</time>
      </trkpt>
      <trkpt lat="37.3242870" lon="-4.0117750">
        <ele>757.6</ele>
        <time>2020-07-11T08:22:23Z</time>
      </trkpt>
      <trkpt lat="37.3241150" lon="-4.0116210">
        <ele>758.8</ele>
        <time>2020-07-11T08:22:28Z</time>
      </trkpt>
      <trkpt lat="37.3239820" lon="-4.0114960">
        <ele>759.8</ele>
        <time>2020-07-11T08:22:32Z</time>
      </trkpt>
      <trkpt lat="37.3238120" lon="-4.0113400">
        <ele>761.2</ele>
        <time>2020-07-11T08:22:37Z</time>
      </trkpt>
      <trkpt lat="37.3236830" lon="-4.0112250">
        <ele>762.2</ele>
        <time>2020-07-11T08:22:41Z</time>
      </trkpt>
      <trkpt lat="37.3235520" lon="-4.0111140">
        <ele>763.2</ele>
        <time>2020-07-11T08:22:45Z</time>
      </trkpt>
      <trkpt lat="37.3235190" lon="-4.0110900">
        <ele>763.4</ele>
        <time>2020-07-11T08:22:46Z</time>
      </trkpt>
      <trkpt lat="37.3233870" lon="-4.0110050">
        <ele>764.4</ele>
        <time>2020-07-11T08:22:50Z</time>
      </trkpt>
      <trkpt lat="37.3232880" lon="-4.0109530">
        <ele>765.2</ele>
        <time>2020-07-11T08:22:53Z</time>
      </trkpt>
      <trkpt lat="37.3232200" lon="-4.0109190">
        <ele>765.6</ele>
        <time>2020-07-11T08:22:55Z</time>
      </trkpt>
      <trkpt lat="37.3230620" lon="-4.0108080">
        <ele>766.8</ele>
        <time>2020-07-11T08:23:00Z</time>
      </trkpt>
      <trkpt lat="37.3230350" lon="-4.0107800">
        <ele>767.0</ele>
        <time>2020-07-11T08:23:01Z</time>
      </trkpt>
      <trkpt lat="37.3229580" lon="-4.0106320">
        <ele>768.0</ele>
        <time>2020-07-11T08:23:05Z</time>
      </trkpt>
      <trkpt lat="37.3229460" lon="-4.0105950">
        <ele>768.2</ele>
        <time>2020-07-11T08:23:06Z</time>
      </trkpt>
      <trkpt lat="37.3229140" lon="-4.0104330">
        <ele>769.2</ele>
        <time>2020-07-11T08:23:10Z</time>
      </trkpt>
      <trkpt lat="37.3228890" lon="-4.0102730">
        <ele>770.4</ele>
        <time>2020-07-11T08:23:14Z</time>
      </trkpt>
      <trkpt lat="37.3228400" lon="-4.0101390">
        <ele>771.4</ele>
        <time>2020-07-11T08:23:18Z</time>
      </trkpt>
      <trkpt lat="37.3228270" lon="-4.0101040">
        <ele>771.6</ele>
        <time>2020-07-11T08:23:19Z</time>
      </trkpt>
      <trkpt lat="37.3227850" lon="-4.0100060">
        <ele>772.4</ele>
        <time>2020-07-11T08:23:22Z</time>
      </trkpt>
      <trkpt lat="37.3227310" lon="-4.0098860">
        <ele>773.4</ele>
        <time>2020-07-11T08:23:26Z</time>
      </trkpt>
      <trkpt lat="37.3226810" lon="-4.0097610">
        <ele>774.6</ele>
        <time>2020-07-11T08:23:30Z</time>
      </trkpt>
      <trkpt lat="37.3226620" lon="-4.0096980">
        <ele>775.2</ele>
        <time>2020-07-11T08:23:32Z</time>
      </trkpt>
      <trkpt lat="37.3226440" lon="-4.0096350">
        <ele>775.8</ele>
        <time>2020-07-11T08:23:34Z</time>
      </trkpt>
      <trkpt lat="37.3226180" lon="-4.0095030">
        <ele>777.0</ele>
        <time>2020-07-11T08:23:38Z</time>
      </trkpt>
      <trkpt lat="37.3226140" lon="-4.0094700">
        <ele>777.4</ele>
        <time>2020-07-11T08:23:39Z</time>
      </trkpt>
      <trkpt lat="37.3226090" lon="-4.0093710">
        <ele>778.2</ele>
        <time>2020-07-11T08:23:42Z</time>
      </trkpt>
      <trkpt lat="37.3226230" lon="-4.0092400">
        <ele>779.2</ele>
        <time>2020-07-11T08:23:46Z</time>
      </trkpt>
      <trkpt lat="37.3226280" lon="-4.0092050">
        <ele>779.4</ele>
        <time>2020-07-11T08:23:47Z</time>
      </trkpt>
      <trkpt lat="37.3226670" lon="-4.0090340">
        <ele>780.8</ele>
        <time>2020-07-11T08:23:52Z</time>
      </trkpt>
      <trkpt lat="37.3226880" lon="-4.0089300">
        <ele>781.6</ele>
        <time>2020-07-11T08:23:55Z</time>
      </trkpt>
      <trkpt lat="37.3226930" lon="-4.0088970">
        <ele>781.8</ele>
        <time>2020-07-11T08:23:56Z</time>
      </trkpt>
      <trkpt lat="37.3226790" lon="-4.0087480">
        <ele>782.8</ele>
        <time>2020-07-11T08:24:00Z</time>
      </trkpt>
      <trkpt lat="37.3226660" lon="-4.0087140">
        <ele>783.0</ele>
        <time>2020-07-11T08:24:01Z</time>
      </trkpt>
      <trkpt lat="37.3225930" lon="-4.0085010">
        <ele>783.8</ele>
        <time>2020-07-11T08:24:06Z</time>
      </trkpt>
      <trkpt lat="37.3225900" lon="-4.0084470">
        <ele>784.0</ele>
        <time>2020-07-11T08:24:07Z</time>
      </trkpt>
      <trkpt lat="37.3226250" lon="-4.0080880">
        <ele>784.8</ele>
        <time>2020-07-11T08:24:14Z</time>
      </trkpt>
      <trkpt lat="37.3226390" lon="-4.0079970">
        <ele>785.0</ele>
        <time>2020-07-11T08:24:16Z</time>
      </trkpt>
      <trkpt lat="37.3226850" lon="-4.0077850">
        <ele>786.2</ele>
        <time>2020-07-11T08:24:21Z</time>
      </trkpt>
      <trkpt lat="37.3227180" lon="-4.0076580">
        <ele>787.2</ele>
        <time>2020-07-11T08:24:24Z</time>
      </trkpt>
      <trkpt lat="37.3227280" lon="-4.0076190">
        <ele>787.4</ele>
        <time>2020-07-11T08:24:25Z</time>
      </trkpt>
      <trkpt lat="37.3227700" lon="-4.0074670">
        <ele>788.4</ele>
        <time>2020-07-11T08:24:29Z</time>
      </trkpt>
      <trkpt lat="37.3228220" lon="-4.0073250">
        <ele>789.2</ele>
        <time>2020-07-11T08:24:33Z</time>
      </trkpt>
      <trkpt lat="37.3228340" lon="-4.0072920">
        <ele>789.6</ele>
        <time>2020-07-11T08:24:34Z</time>
      </trkpt>
      <trkpt lat="37.3229120" lon="-4.0070860">
        <ele>790.6</ele>
        <time>2020-07-11T08:24:40Z</time>
      </trkpt>
      <trkpt lat="37.3229430" lon="-4.0070190">
        <ele>791.2</ele>
        <time>2020-07-11T08:24:42Z</time>
      </trkpt>
      <trkpt lat="37.3229690" lon="-4.0069490">
        <ele>791.8</ele>
        <time>2020-07-11T08:24:44Z</time>
      </trkpt>
      <trkpt lat="37.3230220" lon="-4.0068140">
        <ele>793.0</ele>
        <time>2020-07-11T08:24:48Z</time>
      </trkpt>
      <trkpt lat="37.3230880" lon="-4.0066500">
        <ele>794.0</ele>
        <time>2020-07-11T08:24:53Z</time>
      </trkpt>
      <trkpt lat="37.3231280" lon="-4.0065470">
        <ele>794.8</ele>
        <time>2020-07-11T08:24:56Z</time>
      </trkpt>
      <trkpt lat="37.3231550" lon="-4.0064780">
        <ele>795.2</ele>
        <time>2020-07-11T08:24:58Z</time>
      </trkpt>
      <trkpt lat="37.3232450" lon="-4.0062750">
        <ele>796.2</ele>
        <time>2020-07-11T08:25:04Z</time>
      </trkpt>
      <trkpt lat="37.3232630" lon="-4.0062440">
        <ele>796.6</ele>
        <time>2020-07-11T08:25:05Z</time>
      </trkpt>
      <trkpt lat="37.3233090" lon="-4.0061420">
        <ele>797.6</ele>
        <time>2020-07-11T08:25:08Z</time>
      </trkpt>
      <trkpt lat="37.3233620" lon="-4.0060060">
        <ele>798.6</ele>
        <time>2020-07-11T08:25:12Z</time>
      </trkpt>
      <trkpt lat="37.3234510" lon="-4.0058080">
        <ele>799.8</ele>
        <time>2020-07-11T08:25:18Z</time>
      </trkpt>
      <trkpt lat="37.3234800" lon="-4.0057420">
        <ele>800.2</ele>
        <time>2020-07-11T08:25:20Z</time>
      </trkpt>
      <trkpt lat="37.3235280" lon="-4.0056470">
        <ele>800.8</ele>
        <time>2020-07-11T08:25:23Z</time>
      </trkpt>
      <trkpt lat="37.3235660" lon="-4.0055440">
        <ele>801.6</ele>
        <time>2020-07-11T08:25:26Z</time>
      </trkpt>
      <trkpt lat="37.3235880" lon="-4.0054750">
        <ele>802.2</ele>
        <time>2020-07-11T08:25:28Z</time>
      </trkpt>
      <trkpt lat="37.3236160" lon="-4.0053290">
        <ele>803.2</ele>
        <time>2020-07-11T08:25:32Z</time>
      </trkpt>
      <trkpt lat="37.3236280" lon="-4.0052560">
        <ele>803.8</ele>
        <time>2020-07-11T08:25:34Z</time>
      </trkpt>
      <trkpt lat="37.3236410" lon="-4.0051470">
        <ele>804.4</ele>
        <time>2020-07-11T08:25:37Z</time>
      </trkpt>
      <trkpt lat="37.3236490" lon="-4.0049620">
        <ele>805.6</ele>
        <time>2020-07-11T08:25:42Z</time>
      </trkpt>
      <trkpt lat="37.3236480" lon="-4.0047170">
        <ele>806.8</ele>
        <time>2020-07-11T08:25:48Z</time>
      </trkpt>
      <trkpt lat="37.3236420" lon="-4.0046370">
        <ele>807.6</ele>
        <time>2020-07-11T08:25:50Z</time>
      </trkpt>
      <trkpt lat="37.3236390" lon="-4.0045990">
        <ele>807.8</ele>
        <time>2020-07-11T08:25:51Z</time>
      </trkpt>
      <trkpt lat="37.3236200" lon="-4.0043990">
        <ele>808.8</ele>
        <time>2020-07-11T08:25:56Z</time>
      </trkpt>
      <trkpt lat="37.3235960" lon="-4.0042410">
        <ele>809.8</ele>
        <time>2020-07-11T08:26:00Z</time>
      </trkpt>
      <trkpt lat="37.3235810" lon="-4.0041670">
        <ele>810.0</ele>
        <time>2020-07-11T08:26:02Z</time>
      </trkpt>
      <trkpt lat="37.3235190" lon="-4.0039910">
        <ele>811.2</ele>
        <time>2020-07-11T08:26:07Z</time>
      </trkpt>
      <trkpt lat="37.3235060" lon="-4.0039580">
        <ele>811.4</ele>
        <time>2020-07-11T08:26:08Z</time>
      </trkpt>
      <trkpt lat="37.3234700" lon="-4.0038590">
        <ele>812.2</ele>
        <time>2020-07-11T08:26:11Z</time>
      </trkpt>
      <trkpt lat="37.3234300" lon="-4.0037070">
        <ele>813.4</ele>
        <time>2020-07-11T08:26:15Z</time>
      </trkpt>
      <trkpt lat="37.3234170" lon="-4.0036250">
        <ele>813.8</ele>
        <time>2020-07-11T08:26:17Z</time>
      </trkpt>
      <trkpt lat="37.3234200" lon="-4.0034130">
        <ele>814.4</ele>
        <time>2020-07-11T08:26:22Z</time>
      </trkpt>
      <trkpt lat="37.3234070" lon="-4.0033390">
        <ele>814.6</ele>
        <time>2020-07-11T08:26:24Z</time>
      </trkpt>
      <trkpt lat="37.3233470" lon="-4.0033110">
        <ele>815.4</ele>
        <time>2020-07-11T08:26:27Z</time>
      </trkpt>
      <trkpt lat="37.3233300" lon="-4.0033320">
        <ele>815.6</ele>
        <time>2020-07-11T08:26:28Z</time>
      </trkpt>
      <trkpt lat="37.3233000" lon="-4.0034250">
        <ele>816.6</ele>
        <time>2020-07-11T08:26:31Z</time>
      </trkpt>
      <trkpt lat="37.3232770" lon="-4.0035280">
        <ele>817.6</ele>
        <time>2020-07-11T08:26:34Z</time>
      </trkpt>
      <trkpt lat="37.3232620" lon="-4.0036480">
        <ele>818.2</ele>
        <time>2020-07-11T08:26:37Z</time>
      </trkpt>
      <trkpt lat="37.3232500" lon="-4.0037290">
        <ele>818.6</ele>
        <time>2020-07-11T08:26:39Z</time>
      </trkpt>
      <trkpt lat="37.3232160" lon="-4.0039760">
        <ele>819.8</ele>
        <time>2020-07-11T08:26:45Z</time>
      </trkpt>
      <trkpt lat="37.3231900" lon="-4.0041470">
        <ele>820.4</ele>
        <time>2020-07-11T08:26:49Z</time>
      </trkpt>
      <trkpt lat="37.3231530" lon="-4.0043140">
        <ele>821.0</ele>
        <time>2020-07-11T08:26:53Z</time>
      </trkpt>
      <trkpt lat="37.3231100" lon="-4.0044720">
        <ele>822.0</ele>
        <time>2020-07-11T08:26:57Z</time>
      </trkpt>
      <trkpt lat="37.3230960" lon="-4.0045090">
        <ele>822.4</ele>
        <time>2020-07-11T08:26:58Z</time>
      </trkpt>
      <trkpt lat="37.3230400" lon="-4.0046440">
        <ele>823.2</ele>
        <time>2020-07-11T08:27:02Z</time>
      </trkpt>
      <trkpt lat="37.3230020" lon="-4.0047110">
        <ele>823.6</ele>
        <time>2020-07-11T08:27:04Z</time>
      </trkpt>
      <trkpt lat="37.3228960" lon="-4.0048230">
        <ele>824.4</ele>
        <time>2020-07-11T08:27:08Z</time>
      </trkpt>
      <trkpt lat="37.3228650" lon="-4.0048460">
        <ele>824.6</ele>
        <time>2020-07-11T08:27:09Z</time>
      </trkpt>
      <trkpt lat="37.3226240" lon="-4.0049660">
        <ele>825.6</ele>
        <time>2020-07-11T08:27:16Z</time>
      </trkpt>
      <trkpt lat="37.3223790" lon="-4.0051090">
        <ele>826.4</ele>
        <time>2020-07-11T08:27:23Z</time>
      </trkpt>
      <trkpt lat="37.3223480" lon="-4.0051290">
        <ele>826.8</ele>
        <time>2020-07-11T08:27:24Z</time>
      </trkpt>
      <trkpt lat="37.3222480" lon="-4.0052290">
        <ele>827.4</ele>
        <time>2020-07-11T08:27:28Z</time>
      </trkpt>
      <trkpt lat="37.3222250" lon="-4.0052760">
        <ele>827.4</ele>
        <time>2020-07-11T08:27:29Z</time>
      </trkpt>
      <trkpt lat="37.3221000" lon="-4.0055570">
        <ele>826.6</ele>
        <time>2020-07-11T08:27:33Z</time>
      </trkpt>
      <trkpt lat="37.3220170" lon="-4.0057840">
        <ele>825.4</ele>
        <time>2020-07-11T08:27:36Z</time>
      </trkpt>
      <trkpt lat="37.3219470" lon="-4.0059730">
        <ele>824.2</ele>
        <time>2020-07-11T08:27:38Z</time>
      </trkpt>
      <trkpt lat="37.3219020" lon="-4.0061120">
        <ele>822.8</ele>
        <time>2020-07-11T08:27:40Z</time>
      </trkpt>
      <trkpt lat="37.3218620" lon="-4.0062410">
        <ele>821.8</ele>
        <time>2020-07-11T08:27:42Z</time>
      </trkpt>
      <trkpt lat="37.3218540" lon="-4.0063170">
        <ele>820.8</ele>
        <time>2020-07-11T08:27:43Z</time>
      </trkpt>
      <trkpt lat="37.3218450" lon="-4.0063890">
        <ele>820.4</ele>
        <time>2020-07-11T08:27:44Z</time>
      </trkpt>
      <trkpt lat="37.3218330" lon="-4.0064580">
        <ele>820.0</ele>
        <time>2020-07-11T08:27:45Z</time>
      </trkpt>
      <trkpt lat="37.3218200" lon="-4.0065200">
        <ele>819.6</ele>
        <time>2020-07-11T08:27:46Z</time>
      </trkpt>
      <trkpt lat="37.3218080" lon="-4.0065940">
        <ele>819.2</ele>
        <time>2020-07-11T08:27:47Z</time>
      </trkpt>
      <trkpt lat="37.3218000" lon="-4.0066790">
        <ele>818.6</ele>
        <time>2020-07-11T08:27:48Z</time>
      </trkpt>
      <trkpt lat="37.3217800" lon="-4.0068480">
        <ele>818.4</ele>
        <time>2020-07-11T08:27:50Z</time>
      </trkpt>
      <trkpt lat="37.3217610" lon="-4.0070230">
        <ele>818.0</ele>
        <time>2020-07-11T08:27:52Z</time>
      </trkpt>
      <trkpt lat="37.3217220" lon="-4.0072010">
        <ele>818.0</ele>
        <time>2020-07-11T08:27:54Z</time>
      </trkpt>
      <trkpt lat="37.3216960" lon="-4.0072940">
        <ele>817.8</ele>
        <time>2020-07-11T08:27:55Z</time>
      </trkpt>
      <trkpt lat="37.3216490" lon="-4.0074680">
        <ele>817.4</ele>
        <time>2020-07-11T08:27:57Z</time>
      </trkpt>
      <trkpt lat="37.3216280" lon="-4.0075410">
        <ele>817.0</ele>
        <time>2020-07-11T08:27:58Z</time>
      </trkpt>
      <trkpt lat="37.3216040" lon="-4.0076080">
        <ele>816.8</ele>
        <time>2020-07-11T08:27:59Z</time>
      </trkpt>
      <trkpt lat="37.3215210" lon="-4.0078240">
        <ele>817.0</ele>
        <time>2020-07-11T08:28:02Z</time>
      </trkpt>
      <trkpt lat="37.3214700" lon="-4.0079380">
        <ele>817.8</ele>
        <time>2020-07-11T08:28:04Z</time>
      </trkpt>
      <trkpt lat="37.3213810" lon="-4.0080980">
        <ele>818.0</ele>
        <time>2020-07-11T08:28:07Z</time>
      </trkpt>
      <trkpt lat="37.3213570" lon="-4.0081460">
        <ele>818.0</ele>
        <time>2020-07-11T08:28:08Z</time>
      </trkpt>
      <trkpt lat="37.3213300" lon="-4.0081910">
        <ele>818.2</ele>
        <time>2020-07-11T08:28:09Z</time>
      </trkpt>
      <trkpt lat="37.3213030" lon="-4.0082340">
        <ele>818.2</ele>
        <time>2020-07-11T08:28:10Z</time>
      </trkpt>
      <trkpt lat="37.3212150" lon="-4.0083480">
        <ele>818.0</ele>
        <time>2020-07-11T08:28:13Z</time>
      </trkpt>
      <trkpt lat="37.3211840" lon="-4.0083920">
        <ele>817.6</ele>
        <time>2020-07-11T08:28:14Z</time>
      </trkpt>
      <trkpt lat="37.3211240" lon="-4.0084820">
        <ele>817.0</ele>
        <time>2020-07-11T08:28:16Z</time>
      </trkpt>
      <trkpt lat="37.3210690" lon="-4.0086240">
        <ele>816.6</ele>
        <time>2020-07-11T08:28:18Z</time>
      </trkpt>
      <trkpt lat="37.3210150" lon="-4.0087710">
        <ele>816.4</ele>
        <time>2020-07-11T08:28:20Z</time>
      </trkpt>
      <trkpt lat="37.3209690" lon="-4.0089330">
        <ele>815.8</ele>
        <time>2020-07-11T08:28:22Z</time>
      </trkpt>
      <trkpt lat="37.3209080" lon="-4.0091700">
        <ele>814.2</ele>
        <time>2020-07-11T08:28:25Z</time>
      </trkpt>
      <trkpt lat="37.3208490" lon="-4.0093750">
        <ele>812.8</ele>
        <time>2020-07-11T08:28:28Z</time>
      </trkpt>
      <trkpt lat="37.3208300" lon="-4.0094340">
        <ele>812.2</ele>
        <time>2020-07-11T08:28:29Z</time>
      </trkpt>
      <trkpt lat="37.3208000" lon="-4.0095010">
        <ele>811.6</ele>
        <time>2020-07-11T08:28:30Z</time>
      </trkpt>
      <trkpt lat="37.3207660" lon="-4.0095470">
        <ele>811.2</ele>
        <time>2020-07-11T08:28:31Z</time>
      </trkpt>
      <trkpt lat="37.3207390" lon="-4.0095640">
        <ele>810.8</ele>
        <time>2020-07-11T08:28:32Z</time>
      </trkpt>
      <trkpt lat="37.3207080" lon="-4.0095550">
        <ele>810.4</ele>
        <time>2020-07-11T08:28:33Z</time>
      </trkpt>
      <trkpt lat="37.3206800" lon="-4.0095400">
        <ele>810.4</ele>
        <time>2020-07-11T08:28:34Z</time>
      </trkpt>
      <trkpt lat="37.3206520" lon="-4.0095200">
        <ele>810.4</ele>
        <time>2020-07-11T08:28:35Z</time>
      </trkpt>
      <trkpt lat="37.3206210" lon="-4.0094950">
        <ele>810.4</ele>
        <time>2020-07-11T08:28:36Z</time>
      </trkpt>
      <trkpt lat="37.3205870" lon="-4.0094700">
        <ele>810.4</ele>
        <time>2020-07-11T08:28:37Z</time>
      </trkpt>
      <trkpt lat="37.3205500" lon="-4.0094420">
        <ele>810.6</ele>
        <time>2020-07-11T08:28:38Z</time>
      </trkpt>
      <trkpt lat="37.3204690" lon="-4.0094010">
        <ele>810.8</ele>
        <time>2020-07-11T08:28:40Z</time>
      </trkpt>
      <trkpt lat="37.3204290" lon="-4.0093880">
        <ele>811.0</ele>
        <time>2020-07-11T08:28:41Z</time>
      </trkpt>
      <trkpt lat="37.3202010" lon="-4.0092880">
        <ele>811.4</ele>
        <time>2020-07-11T08:28:47Z</time>
      </trkpt>
      <trkpt lat="37.3201650" lon="-4.0092740">
        <ele>811.6</ele>
        <time>2020-07-11T08:28:48Z</time>
      </trkpt>
      <trkpt lat="37.3200980" lon="-4.0092460">
        <ele>811.8</ele>
        <time>2020-07-11T08:28:50Z</time>
      </trkpt>
      <trkpt lat="37.3200170" lon="-4.0092110">
        <ele>812.4</ele>
        <time>2020-07-11T08:28:52Z</time>
      </trkpt>
      <trkpt lat="37.3199810" lon="-4.0091950">
        <ele>812.6</ele>
        <time>2020-07-11T08:28:53Z</time>
      </trkpt>
      <trkpt lat="37.3198780" lon="-4.0091490">
        <ele>813.6</ele>
        <time>2020-07-11T08:28:56Z</time>
      </trkpt>
      <trkpt lat="37.3198420" lon="-4.0091350">
        <ele>813.8</ele>
        <time>2020-07-11T08:28:57Z</time>
      </trkpt>
      <trkpt lat="37.3197420" lon="-4.0090840">
        <ele>814.4</ele>
        <time>2020-07-11T08:29:00Z</time>
      </trkpt>
      <trkpt lat="37.3197100" lon="-4.0090700">
        <ele>814.6</ele>
        <time>2020-07-11T08:29:01Z</time>
      </trkpt>
      <trkpt lat="37.3196380" lon="-4.0090390">
        <ele>815.0</ele>
        <time>2020-07-11T08:29:03Z</time>
      </trkpt>
      <trkpt lat="37.3195080" lon="-4.0089780">
        <ele>815.8</ele>
        <time>2020-07-11T08:29:07Z</time>
      </trkpt>
      <trkpt lat="37.3194750" lon="-4.0089630">
        <ele>816.2</ele>
        <time>2020-07-11T08:29:08Z</time>
      </trkpt>
      <trkpt lat="37.3193440" lon="-4.0089050">
        <ele>817.2</ele>
        <time>2020-07-11T08:29:12Z</time>
      </trkpt>
      <trkpt lat="37.3193100" lon="-4.0088890">
        <ele>817.4</ele>
        <time>2020-07-11T08:29:13Z</time>
      </trkpt>
      <trkpt lat="37.3192430" lon="-4.0088680">
        <ele>817.8</ele>
        <time>2020-07-11T08:29:15Z</time>
      </trkpt>
      <trkpt lat="37.3191430" lon="-4.0088320">
        <ele>818.6</ele>
        <time>2020-07-11T08:29:18Z</time>
      </trkpt>
      <trkpt lat="37.3190450" lon="-4.0087920">
        <ele>819.0</ele>
        <time>2020-07-11T08:29:21Z</time>
      </trkpt>
      <trkpt lat="37.3189100" lon="-4.0087310">
        <ele>819.6</ele>
        <time>2020-07-11T08:29:25Z</time>
      </trkpt>
      <trkpt lat="37.3188240" lon="-4.0086770">
        <ele>820.4</ele>
        <time>2020-07-11T08:29:28Z</time>
      </trkpt>
      <trkpt lat="37.3187720" lon="-4.0086380">
        <ele>820.8</ele>
        <time>2020-07-11T08:29:30Z</time>
      </trkpt>
      <trkpt lat="37.3186740" lon="-4.0085820">
        <ele>821.4</ele>
        <time>2020-07-11T08:29:33Z</time>
      </trkpt>
      <trkpt lat="37.3185820" lon="-4.0085300">
        <ele>822.0</ele>
        <time>2020-07-11T08:29:36Z</time>
      </trkpt>
      <trkpt lat="37.3184800" lon="-4.0084860">
        <ele>822.6</ele>
        <time>2020-07-11T08:29:39Z</time>
      </trkpt>
      <trkpt lat="37.3184160" lon="-4.0084690">
        <ele>823.0</ele>
        <time>2020-07-11T08:29:41Z</time>
      </trkpt>
      <trkpt lat="37.3182710" lon="-4.0084550">
        <ele>824.0</ele>
        <time>2020-07-11T08:29:45Z</time>
      </trkpt>
      <trkpt lat="37.3182380" lon="-4.0084600">
        <ele>824.2</ele>
        <time>2020-07-11T08:29:46Z</time>
      </trkpt>
      <trkpt lat="37.3180600" lon="-4.0084880">
        <ele>825.4</ele>
        <time>2020-07-11T08:29:51Z</time>
      </trkpt>
      <trkpt lat="37.3178990" lon="-4.0084890">
        <ele>826.0</ele>
        <time>2020-07-11T08:29:55Z</time>
      </trkpt>
      <trkpt lat="37.3178150" lon="-4.0084700">
        <ele>826.2</ele>
        <time>2020-07-11T08:29:57Z</time>
      </trkpt>
      <trkpt lat="37.3177260" lon="-4.0084350">
        <ele>826.2</ele>
        <time>2020-07-11T08:29:59Z</time>
      </trkpt>
      <trkpt lat="37.3175980" lon="-4.0083900">
        <ele>826.2</ele>
        <time>2020-07-11T08:30:02Z</time>
      </trkpt>
      <trkpt lat="37.3175460" lon="-4.0083920">
        <ele>826.2</ele>
        <time>2020-07-11T08:30:03Z</time>
      </trkpt>
      <trkpt lat="37.3174280" lon="-4.0084940">
        <ele>826.0</ele>
        <time>2020-07-11T08:30:06Z</time>
      </trkpt>
      <trkpt lat="37.3174000" lon="-4.0086800">
        <ele>825.8</ele>
        <time>2020-07-11T08:30:09Z</time>
      </trkpt>
      <trkpt lat="37.3174040" lon="-4.0087340">
        <ele>825.8</ele>
        <time>2020-07-11T08:30:10Z</time>
      </trkpt>
      <trkpt lat="37.3174140" lon="-4.0087820">
        <ele>825.8</ele>
        <time>2020-07-11T08:30:11Z</time>
      </trkpt>
      <trkpt lat="37.3174520" lon="-4.0088940">
        <ele>825.8</ele>
        <time>2020-07-11T08:30:13Z</time>
      </trkpt>
      <trkpt lat="37.3174980" lon="-4.0089910">
        <ele>826.0</ele>
        <time>2020-07-11T08:30:15Z</time>
      </trkpt>
      <trkpt lat="37.3175340" lon="-4.0090760">
        <ele>826.4</ele>
        <time>2020-07-11T08:30:17Z</time>
      </trkpt>
      <trkpt lat="37.3175520" lon="-4.0091240">
        <ele>826.8</ele>
        <time>2020-07-11T08:30:18Z</time>
      </trkpt>
      <trkpt lat="37.3175980" lon="-4.0092640">
        <ele>827.6</ele>
        <time>2020-07-11T08:30:21Z</time>
      </trkpt>
      <trkpt lat="37.3176320" lon="-4.0094570">
        <ele>828.8</ele>
        <time>2020-07-11T08:30:25Z</time>
      </trkpt>
      <trkpt lat="37.3176350" lon="-4.0096360">
        <ele>829.8</ele>
        <time>2020-07-11T08:30:29Z</time>
      </trkpt>
      <trkpt lat="37.3176180" lon="-4.0097190">
        <ele>830.2</ele>
        <time>2020-07-11T08:30:31Z</time>
      </trkpt>
      <trkpt lat="37.3175910" lon="-4.0098480">
        <ele>831.0</ele>
        <time>2020-07-11T08:30:34Z</time>
      </trkpt>
      <trkpt lat="37.3175520" lon="-4.0099670">
        <ele>832.0</ele>
        <time>2020-07-11T08:30:37Z</time>
      </trkpt>
      <trkpt lat="37.3175350" lon="-4.0100440">
        <ele>832.6</ele>
        <time>2020-07-11T08:30:39Z</time>
      </trkpt>
      <trkpt lat="37.3175200" lon="-4.0101180">
        <ele>833.0</ele>
        <time>2020-07-11T08:30:41Z</time>
      </trkpt>
      <trkpt lat="37.3175180" lon="-4.0103160">
        <ele>834.4</ele>
        <time>2020-07-11T08:30:46Z</time>
      </trkpt>
      <trkpt lat="37.3175750" lon="-4.0104580">
        <ele>835.4</ele>
        <time>2020-07-11T08:30:50Z</time>
      </trkpt>
      <trkpt lat="37.3176770" lon="-4.0106050">
        <ele>836.6</ele>
        <time>2020-07-11T08:30:55Z</time>
      </trkpt>
      <trkpt lat="37.3177440" lon="-4.0106860">
        <ele>837.6</ele>
        <time>2020-07-11T08:30:58Z</time>
      </trkpt>
      <trkpt lat="37.3178220" lon="-4.0108090">
        <ele>838.6</ele>
        <time>2020-07-11T08:31:02Z</time>
      </trkpt>
      <trkpt lat="37.3178440" lon="-4.0108820">
        <ele>839.2</ele>
        <time>2020-07-11T08:31:04Z</time>
      </trkpt>
      <trkpt lat="37.3178520" lon="-4.0109510">
        <ele>839.6</ele>
        <time>2020-07-11T08:31:06Z</time>
      </trkpt>
      <trkpt lat="37.3178470" lon="-4.0110920">
        <ele>840.6</ele>
        <time>2020-07-11T08:31:10Z</time>
      </trkpt>
      <trkpt lat="37.3178430" lon="-4.0111230">
        <ele>840.8</ele>
        <time>2020-07-11T08:31:11Z</time>
      </trkpt>
      <trkpt lat="37.3178280" lon="-4.0112570">
        <ele>842.0</ele>
        <time>2020-07-11T08:31:15Z</time>
      </trkpt>
      <trkpt lat="37.3178340" lon="-4.0112810">
        <ele>842.2</ele>
        <time>2020-07-11T08:31:16Z</time>
      </trkpt>
      <trkpt lat="37.3178490" lon="-4.0113010">
        <ele>842.4</ele>
        <time>2020-07-11T08:31:17Z</time>
      </trkpt>
      <trkpt lat="37.3179020" lon="-4.0112870">
        <ele>842.8</ele>
        <time>2020-07-11T08:31:20Z</time>
      </trkpt>
      <trkpt lat="37.3178990" lon="-4.0112880">
        <ele>843.0</ele>
        <time>2020-07-11T08:31:21Z</time>
      </trkpt>
      <trkpt lat="37.3179050" lon="-4.0112850">
        <ele>843.2</ele>
        <time>2020-07-11T08:31:22Z</time>
      </trkpt>
      <trkpt lat="37.3178460" lon="-4.0112900">
        <ele>842.4</ele>
        <time>2020-07-11T08:36:42Z</time>
      </trkpt>
      <trkpt lat="37.3178330" lon="-4.0112910">
        <ele>842.6</ele>
        <time>2020-07-11T08:36:43Z</time>
      </trkpt>
      <trkpt lat="37.3178010" lon="-4.0112930">
        <ele>842.6</ele>
        <time>2020-07-11T08:36:45Z</time>
      </trkpt>
      <trkpt lat="37.3177540" lon="-4.0113000">
        <ele>842.8</ele>
        <time>2020-07-11T08:36:47Z</time>
      </trkpt>
      <trkpt lat="37.3176990" lon="-4.0113050">
        <ele>843.0</ele>
        <time>2020-07-11T08:36:49Z</time>
      </trkpt>
      <trkpt lat="37.3176140" lon="-4.0113060">
        <ele>843.4</ele>
        <time>2020-07-11T08:36:52Z</time>
      </trkpt>
      <trkpt lat="37.3175130" lon="-4.0112810">
        <ele>843.8</ele>
        <time>2020-07-11T08:36:56Z</time>
      </trkpt>
      <trkpt lat="37.3174860" lon="-4.0112680">
        <ele>844.0</ele>
        <time>2020-07-11T08:36:57Z</time>
      </trkpt>
      <trkpt lat="37.3174350" lon="-4.0112420">
        <ele>844.6</ele>
        <time>2020-07-11T08:36:59Z</time>
      </trkpt>
      <trkpt lat="37.3173590" lon="-4.0111960">
        <ele>845.2</ele>
        <time>2020-07-11T08:37:02Z</time>
      </trkpt>
      <trkpt lat="37.3173110" lon="-4.0111670">
        <ele>845.6</ele>
        <time>2020-07-11T08:37:04Z</time>
      </trkpt>
      <trkpt lat="37.3172260" lon="-4.0110690">
        <ele>846.4</ele>
        <time>2020-07-11T08:37:08Z</time>
      </trkpt>
      <trkpt lat="37.3172090" lon="-4.0110370">
        <ele>846.6</ele>
        <time>2020-07-11T08:37:09Z</time>
      </trkpt>
      <trkpt lat="37.3171860" lon="-4.0109770">
        <ele>847.0</ele>
        <time>2020-07-11T08:37:11Z</time>
      </trkpt>
      <trkpt lat="37.3171630" lon="-4.0108930">
        <ele>847.4</ele>
        <time>2020-07-11T08:37:13Z</time>
      </trkpt>
      <trkpt lat="37.3171350" lon="-4.0107820">
        <ele>848.0</ele>
        <time>2020-07-11T08:37:16Z</time>
      </trkpt>
      <trkpt lat="37.3171020" lon="-4.0106270">
        <ele>848.6</ele>
        <time>2020-07-11T08:37:20Z</time>
      </trkpt>
      <trkpt lat="37.3170780" lon="-4.0104770">
        <ele>849.2</ele>
        <time>2020-07-11T08:37:24Z</time>
      </trkpt>
      <trkpt lat="37.3170680" lon="-4.0103660">
        <ele>849.8</ele>
        <time>2020-07-11T08:37:27Z</time>
      </trkpt>
      <trkpt lat="37.3170710" lon="-4.0102180">
        <ele>850.4</ele>
        <time>2020-07-11T08:37:31Z</time>
      </trkpt>
      <trkpt lat="37.3170760" lon="-4.0101430">
        <ele>851.0</ele>
        <time>2020-07-11T08:37:33Z</time>
      </trkpt>
      <trkpt lat="37.3171130" lon="-4.0099290">
        <ele>852.0</ele>
        <time>2020-07-11T08:37:39Z</time>
      </trkpt>
      <trkpt lat="37.3171280" lon="-4.0098600">
        <ele>852.4</ele>
        <time>2020-07-11T08:37:41Z</time>
      </trkpt>
      <trkpt lat="37.3171590" lon="-4.0097100">
        <ele>853.0</ele>
        <time>2020-07-11T08:37:45Z</time>
      </trkpt>
      <trkpt lat="37.3171880" lon="-4.0094840">
        <ele>854.2</ele>
        <time>2020-07-11T08:37:51Z</time>
      </trkpt>
      <trkpt lat="37.3171530" lon="-4.0092140">
        <ele>855.2</ele>
        <time>2020-07-11T08:37:58Z</time>
      </trkpt>
      <trkpt lat="37.3170680" lon="-4.0090030">
        <ele>856.4</ele>
        <time>2020-07-11T08:38:04Z</time>
      </trkpt>
      <trkpt lat="37.3170480" lon="-4.0089740">
        <ele>856.6</ele>
        <time>2020-07-11T08:38:05Z</time>
      </trkpt>
      <trkpt lat="37.3169420" lon="-4.0088300">
        <ele>857.4</ele>
        <time>2020-07-11T08:38:10Z</time>
      </trkpt>
      <trkpt lat="37.3168290" lon="-4.0087020">
        <ele>858.6</ele>
        <time>2020-07-11T08:38:15Z</time>
      </trkpt>
      <trkpt lat="37.3167090" lon="-4.0085920">
        <ele>859.6</ele>
        <time>2020-07-11T08:38:20Z</time>
      </trkpt>
      <trkpt lat="37.3166100" lon="-4.0085120">
        <ele>860.4</ele>
        <time>2020-07-11T08:38:24Z</time>
      </trkpt>
      <trkpt lat="37.3165860" lon="-4.0084920">
        <ele>860.6</ele>
        <time>2020-07-11T08:38:25Z</time>
      </trkpt>
      <trkpt lat="37.3164390" lon="-4.0083870">
        <ele>861.8</ele>
        <time>2020-07-11T08:38:31Z</time>
      </trkpt>
      <trkpt lat="37.3163050" lon="-4.0083330">
        <ele>862.8</ele>
        <time>2020-07-11T08:38:36Z</time>
      </trkpt>
      <trkpt lat="37.3162480" lon="-4.0083130">
        <ele>863.4</ele>
        <time>2020-07-11T08:38:38Z</time>
      </trkpt>
      <trkpt lat="37.3161640" lon="-4.0082810">
        <ele>864.0</ele>
        <time>2020-07-11T08:38:41Z</time>
      </trkpt>
      <trkpt lat="37.3160860" lon="-4.0082290">
        <ele>864.6</ele>
        <time>2020-07-11T08:38:44Z</time>
      </trkpt>
      <trkpt lat="37.3160110" lon="-4.0081660">
        <ele>865.0</ele>
        <time>2020-07-11T08:38:47Z</time>
      </trkpt>
      <trkpt lat="37.3158830" lon="-4.0080610">
        <ele>866.2</ele>
        <time>2020-07-11T08:38:52Z</time>
      </trkpt>
      <trkpt lat="37.3157550" lon="-4.0079790">
        <ele>867.2</ele>
        <time>2020-07-11T08:38:57Z</time>
      </trkpt>
      <trkpt lat="37.3156750" lon="-4.0079380">
        <ele>867.8</ele>
        <time>2020-07-11T08:39:00Z</time>
      </trkpt>
      <trkpt lat="37.3156210" lon="-4.0079160">
        <ele>868.2</ele>
        <time>2020-07-11T08:39:02Z</time>
      </trkpt>
      <trkpt lat="37.3154810" lon="-4.0078920">
        <ele>869.4</ele>
        <time>2020-07-11T08:39:07Z</time>
      </trkpt>
      <trkpt lat="37.3154230" lon="-4.0078910">
        <ele>869.8</ele>
        <time>2020-07-11T08:39:09Z</time>
      </trkpt>
      <trkpt lat="37.3153060" lon="-4.0078960">
        <ele>870.6</ele>
        <time>2020-07-11T08:39:13Z</time>
      </trkpt>
      <trkpt lat="37.3151260" lon="-4.0079050">
        <ele>871.8</ele>
        <time>2020-07-11T08:39:19Z</time>
      </trkpt>
      <trkpt lat="37.3150400" lon="-4.0079080">
        <ele>872.4</ele>
        <time>2020-07-11T08:39:22Z</time>
      </trkpt>
      <trkpt lat="37.3149790" lon="-4.0079080">
        <ele>872.8</ele>
        <time>2020-07-11T08:39:24Z</time>
      </trkpt>
      <trkpt lat="37.3148330" lon="-4.0079050">
        <ele>873.8</ele>
        <time>2020-07-11T08:39:29Z</time>
      </trkpt>
      <trkpt lat="37.3147170" lon="-4.0078940">
        <ele>874.6</ele>
        <time>2020-07-11T08:39:33Z</time>
      </trkpt>
      <trkpt lat="37.3146890" lon="-4.0078920">
        <ele>874.8</ele>
        <time>2020-07-11T08:39:34Z</time>
      </trkpt>
      <trkpt lat="37.3145490" lon="-4.0078870">
        <ele>875.8</ele>
        <time>2020-07-11T08:39:39Z</time>
      </trkpt>
      <trkpt lat="37.3144390" lon="-4.0078800">
        <ele>876.8</ele>
        <time>2020-07-11T08:39:43Z</time>
      </trkpt>
      <trkpt lat="37.3144120" lon="-4.0078790">
        <ele>877.2</ele>
        <time>2020-07-11T08:39:44Z</time>
      </trkpt>
      <trkpt lat="37.3142780" lon="-4.0078600">
        <ele>878.4</ele>
        <time>2020-07-11T08:39:49Z</time>
      </trkpt>
      <trkpt lat="37.3142260" lon="-4.0078520">
        <ele>878.8</ele>
        <time>2020-07-11T08:39:51Z</time>
      </trkpt>
      <trkpt lat="37.3141400" lon="-4.0078380">
        <ele>879.6</ele>
        <time>2020-07-11T08:39:54Z</time>
      </trkpt>
      <trkpt lat="37.3140300" lon="-4.0078140">
        <ele>880.6</ele>
        <time>2020-07-11T08:39:58Z</time>
      </trkpt>
      <trkpt lat="37.3139760" lon="-4.0078030">
        <ele>881.0</ele>
        <time>2020-07-11T08:40:00Z</time>
      </trkpt>
      <trkpt lat="37.3138950" lon="-4.0077910">
        <ele>881.8</ele>
        <time>2020-07-11T08:40:03Z</time>
      </trkpt>
      <trkpt lat="37.3137880" lon="-4.0077680">
        <ele>883.0</ele>
        <time>2020-07-11T08:40:07Z</time>
      </trkpt>
      <trkpt lat="37.3137290" lon="-4.0077430">
        <ele>883.4</ele>
        <time>2020-07-11T08:40:09Z</time>
      </trkpt>
      <trkpt lat="37.3136490" lon="-4.0076920">
        <ele>884.0</ele>
        <time>2020-07-11T08:40:12Z</time>
      </trkpt>
      <trkpt lat="37.3135490" lon="-4.0076080">
        <ele>885.0</ele>
        <time>2020-07-11T08:40:16Z</time>
      </trkpt>
      <trkpt lat="37.3135230" lon="-4.0075840">
        <ele>885.2</ele>
        <time>2020-07-11T08:40:17Z</time>
      </trkpt>
      <trkpt lat="37.3133750" lon="-4.0075280">
        <ele>886.2</ele>
        <time>2020-07-11T08:40:22Z</time>
      </trkpt>
      <trkpt lat="37.3133430" lon="-4.0075270">
        <ele>886.4</ele>
        <time>2020-07-11T08:40:23Z</time>
      </trkpt>
      <trkpt lat="37.3132270" lon="-4.0075630">
        <ele>887.4</ele>
        <time>2020-07-11T08:40:27Z</time>
      </trkpt>
      <trkpt lat="37.3131960" lon="-4.0075780">
        <ele>887.6</ele>
        <time>2020-07-11T08:40:28Z</time>
      </trkpt>
      <trkpt lat="37.3130800" lon="-4.0076280">
        <ele>888.4</ele>
        <time>2020-07-11T08:40:32Z</time>
      </trkpt>
      <trkpt lat="37.3129970" lon="-4.0076610">
        <ele>889.2</ele>
        <time>2020-07-11T08:40:35Z</time>
      </trkpt>
      <trkpt lat="37.3129350" lon="-4.0076680">
        <ele>889.6</ele>
        <time>2020-07-11T08:40:37Z</time>
      </trkpt>
      <trkpt lat="37.3128070" lon="-4.0076570">
        <ele>890.6</ele>
        <time>2020-07-11T08:40:41Z</time>
      </trkpt>
      <trkpt lat="37.3127740" lon="-4.0076490">
        <ele>890.8</ele>
        <time>2020-07-11T08:40:42Z</time>
      </trkpt>
      <trkpt lat="37.3126510" lon="-4.0075970">
        <ele>892.0</ele>
        <time>2020-07-11T08:40:46Z</time>
      </trkpt>
      <trkpt lat="37.3125570" lon="-4.0075470">
        <ele>892.6</ele>
        <time>2020-07-11T08:40:49Z</time>
      </trkpt>
      <trkpt lat="37.3124740" lon="-4.0074950">
        <ele>893.2</ele>
        <time>2020-07-11T08:40:52Z</time>
      </trkpt>
      <trkpt lat="37.3123580" lon="-4.0074410">
        <ele>894.2</ele>
        <time>2020-07-11T08:40:56Z</time>
      </trkpt>
      <trkpt lat="37.3123260" lon="-4.0074330">
        <ele>894.4</ele>
        <time>2020-07-11T08:40:57Z</time>
      </trkpt>
      <trkpt lat="37.3122070" lon="-4.0074150">
        <ele>895.4</ele>
        <time>2020-07-11T08:41:01Z</time>
      </trkpt>
      <trkpt lat="37.3120890" lon="-4.0073910">
        <ele>896.4</ele>
        <time>2020-07-11T08:41:05Z</time>
      </trkpt>
      <trkpt lat="37.3119640" lon="-4.0073000">
        <ele>897.6</ele>
        <time>2020-07-11T08:41:10Z</time>
      </trkpt>
      <trkpt lat="37.3119470" lon="-4.0072780">
        <ele>897.8</ele>
        <time>2020-07-11T08:41:11Z</time>
      </trkpt>
      <trkpt lat="37.3118900" lon="-4.0072070">
        <ele>898.6</ele>
        <time>2020-07-11T08:41:14Z</time>
      </trkpt>
      <trkpt lat="37.3118360" lon="-4.0071330">
        <ele>899.4</ele>
        <time>2020-07-11T08:41:17Z</time>
      </trkpt>
      <trkpt lat="37.3118160" lon="-4.0071060">
        <ele>899.6</ele>
        <time>2020-07-11T08:41:18Z</time>
      </trkpt>
      <trkpt lat="37.3117010" lon="-4.0070270">
        <ele>900.8</ele>
        <time>2020-07-11T08:41:23Z</time>
      </trkpt>
      <trkpt lat="37.3116730" lon="-4.0070170">
        <ele>901.0</ele>
        <time>2020-07-11T08:41:24Z</time>
      </trkpt>
      <trkpt lat="37.3115340" lon="-4.0069990">
        <ele>902.0</ele>
        <time>2020-07-11T08:41:29Z</time>
      </trkpt>
      <trkpt lat="37.3114700" lon="-4.0069960">
        <ele>902.6</ele>
        <time>2020-07-11T08:41:31Z</time>
      </trkpt>
      <trkpt lat="37.3114040" lon="-4.0069980">
        <ele>903.2</ele>
        <time>2020-07-11T08:41:33Z</time>
      </trkpt>
      <trkpt lat="37.3112490" lon="-4.0069990">
        <ele>904.2</ele>
        <time>2020-07-11T08:41:38Z</time>
      </trkpt>
      <trkpt lat="37.3111630" lon="-4.0069960">
        <ele>904.8</ele>
        <time>2020-07-11T08:41:41Z</time>
      </trkpt>
      <trkpt lat="37.3110720" lon="-4.0069810">
        <ele>905.4</ele>
        <time>2020-07-11T08:41:44Z</time>
      </trkpt>
      <trkpt lat="37.3109300" lon="-4.0069420">
        <ele>906.6</ele>
        <time>2020-07-11T08:41:49Z</time>
      </trkpt>
      <trkpt lat="37.3109030" lon="-4.0069330">
        <ele>906.8</ele>
        <time>2020-07-11T08:41:50Z</time>
      </trkpt>
      <trkpt lat="37.3108200" lon="-4.0069040">
        <ele>907.8</ele>
        <time>2020-07-11T08:41:53Z</time>
      </trkpt>
      <trkpt lat="37.3107070" lon="-4.0068560">
        <ele>908.8</ele>
        <time>2020-07-11T08:41:57Z</time>
      </trkpt>
      <trkpt lat="37.3106520" lon="-4.0068380">
        <ele>909.2</ele>
        <time>2020-07-11T08:41:59Z</time>
      </trkpt>
      <trkpt lat="37.3105370" lon="-4.0068240">
        <ele>910.0</ele>
        <time>2020-07-11T08:42:03Z</time>
      </trkpt>
      <trkpt lat="37.3104520" lon="-4.0068370">
        <ele>910.6</ele>
        <time>2020-07-11T08:42:06Z</time>
      </trkpt>
      <trkpt lat="37.3103940" lon="-4.0068490">
        <ele>911.2</ele>
        <time>2020-07-11T08:42:08Z</time>
      </trkpt>
      <trkpt lat="37.3102540" lon="-4.0068850">
        <ele>912.2</ele>
        <time>2020-07-11T08:42:13Z</time>
      </trkpt>
      <trkpt lat="37.3102260" lon="-4.0068880">
        <ele>912.4</ele>
        <time>2020-07-11T08:42:14Z</time>
      </trkpt>
      <trkpt lat="37.3101710" lon="-4.0068880">
        <ele>913.2</ele>
        <time>2020-07-11T08:42:16Z</time>
      </trkpt>
      <trkpt lat="37.3100210" lon="-4.0068460">
        <ele>914.2</ele>
        <time>2020-07-11T08:42:21Z</time>
      </trkpt>
      <trkpt lat="37.3098550" lon="-4.0067870">
        <ele>915.4</ele>
        <time>2020-07-11T08:42:27Z</time>
      </trkpt>
      <trkpt lat="37.3097720" lon="-4.0067640">
        <ele>916.2</ele>
        <time>2020-07-11T08:42:30Z</time>
      </trkpt>
      <trkpt lat="37.3097450" lon="-4.0067600">
        <ele>916.4</ele>
        <time>2020-07-11T08:42:31Z</time>
      </trkpt>
      <trkpt lat="37.3096280" lon="-4.0067530">
        <ele>917.4</ele>
        <time>2020-07-11T08:42:35Z</time>
      </trkpt>
      <trkpt lat="37.3095410" lon="-4.0067790">
        <ele>918.0</ele>
        <time>2020-07-11T08:42:38Z</time>
      </trkpt>
      <trkpt lat="37.3094690" lon="-4.0068320">
        <ele>918.6</ele>
        <time>2020-07-11T08:42:41Z</time>
      </trkpt>
      <trkpt lat="37.3094120" lon="-4.0069150">
        <ele>919.4</ele>
        <time>2020-07-11T08:42:44Z</time>
      </trkpt>
      <trkpt lat="37.3093970" lon="-4.0069460">
        <ele>919.6</ele>
        <time>2020-07-11T08:42:45Z</time>
      </trkpt>
      <trkpt lat="37.3093500" lon="-4.0070810">
        <ele>920.8</ele>
        <time>2020-07-11T08:42:49Z</time>
      </trkpt>
      <trkpt lat="37.3093260" lon="-4.0071480">
        <ele>921.2</ele>
        <time>2020-07-11T08:42:51Z</time>
      </trkpt>
      <trkpt lat="37.3092900" lon="-4.0072500">
        <ele>922.0</ele>
        <time>2020-07-11T08:42:54Z</time>
      </trkpt>
      <trkpt lat="37.3092360" lon="-4.0073810">
        <ele>923.2</ele>
        <time>2020-07-11T08:42:58Z</time>
      </trkpt>
      <trkpt lat="37.3091980" lon="-4.0074410">
        <ele>923.6</ele>
        <time>2020-07-11T08:43:00Z</time>
      </trkpt>
      <trkpt lat="37.3091300" lon="-4.0075170">
        <ele>924.2</ele>
        <time>2020-07-11T08:43:03Z</time>
      </trkpt>
      <trkpt lat="37.3090030" lon="-4.0076380">
        <ele>925.2</ele>
        <time>2020-07-11T08:43:08Z</time>
      </trkpt>
      <trkpt lat="37.3089770" lon="-4.0076600">
        <ele>925.4</ele>
        <time>2020-07-11T08:43:09Z</time>
      </trkpt>
      <trkpt lat="37.3088480" lon="-4.0077650">
        <ele>926.4</ele>
        <time>2020-07-11T08:43:14Z</time>
      </trkpt>
      <trkpt lat="37.3087670" lon="-4.0078380">
        <ele>927.0</ele>
        <time>2020-07-11T08:43:18Z</time>
      </trkpt>
      <trkpt lat="37.3087020" lon="-4.0079070">
        <ele>927.6</ele>
        <time>2020-07-11T08:43:20Z</time>
      </trkpt>
      <trkpt lat="37.3086120" lon="-4.0080260">
        <ele>928.8</ele>
        <time>2020-07-11T08:43:24Z</time>
      </trkpt>
      <trkpt lat="37.3085720" lon="-4.0080920">
        <ele>929.2</ele>
        <time>2020-07-11T08:43:26Z</time>
      </trkpt>
      <trkpt lat="37.3085010" lon="-4.0082480">
        <ele>930.0</ele>
        <time>2020-07-11T08:43:30Z</time>
      </trkpt>
      <trkpt lat="37.3084240" lon="-4.0084560">
        <ele>930.6</ele>
        <time>2020-07-11T08:43:35Z</time>
      </trkpt>
      <trkpt lat="37.3083670" lon="-4.0085770">
        <ele>931.0</ele>
        <time>2020-07-11T08:43:38Z</time>
      </trkpt>
      <trkpt lat="37.3082420" lon="-4.0087970">
        <ele>932.2</ele>
        <time>2020-07-11T08:43:44Z</time>
      </trkpt>
      <trkpt lat="37.3082200" lon="-4.0088330">
        <ele>932.2</ele>
        <time>2020-07-11T08:43:45Z</time>
      </trkpt>
      <trkpt lat="37.3081150" lon="-4.0090120">
        <ele>933.4</ele>
        <time>2020-07-11T08:43:50Z</time>
      </trkpt>
      <trkpt lat="37.3080100" lon="-4.0091820">
        <ele>934.4</ele>
        <time>2020-07-11T08:43:55Z</time>
      </trkpt>
      <trkpt lat="37.3078900" lon="-4.0094020">
        <ele>935.4</ele>
        <time>2020-07-11T08:44:01Z</time>
      </trkpt>
      <trkpt lat="37.3078690" lon="-4.0094450">
        <ele>935.6</ele>
        <time>2020-07-11T08:44:02Z</time>
      </trkpt>
      <trkpt lat="37.3077110" lon="-4.0098080">
        <ele>936.4</ele>
        <time>2020-07-11T08:44:10Z</time>
      </trkpt>
      <trkpt lat="37.3076890" lon="-4.0098510">
        <ele>936.6</ele>
        <time>2020-07-11T08:44:11Z</time>
      </trkpt>
      <trkpt lat="37.3075280" lon="-4.0101190">
        <ele>937.0</ele>
        <time>2020-07-11T08:44:17Z</time>
      </trkpt>
      <trkpt lat="37.3074870" lon="-4.0101510">
        <ele>937.2</ele>
        <time>2020-07-11T08:44:18Z</time>
      </trkpt>
      <trkpt lat="37.3074010" lon="-4.0101940">
        <ele>937.4</ele>
        <time>2020-07-11T08:44:20Z</time>
      </trkpt>
      <trkpt lat="37.3073170" lon="-4.0101940">
        <ele>937.8</ele>
        <time>2020-07-11T08:44:22Z</time>
      </trkpt>
      <trkpt lat="37.3071710" lon="-4.0101060">
        <ele>938.6</ele>
        <time>2020-07-11T08:44:26Z</time>
      </trkpt>
      <trkpt lat="37.3071020" lon="-4.0099960">
        <ele>939.2</ele>
        <time>2020-07-11T08:44:29Z</time>
      </trkpt>
      <trkpt lat="37.3070660" lon="-4.0099240">
        <ele>939.8</ele>
        <time>2020-07-11T08:44:31Z</time>
      </trkpt>
      <trkpt lat="37.3070470" lon="-4.0098840">
        <ele>940.0</ele>
        <time>2020-07-11T08:44:32Z</time>
      </trkpt>
      <trkpt lat="37.3069600" lon="-4.0097090">
        <ele>941.0</ele>
        <time>2020-07-11T08:44:37Z</time>
      </trkpt>
      <trkpt lat="37.3068890" lon="-4.0095800">
        <ele>942.0</ele>
        <time>2020-07-11T08:44:41Z</time>
      </trkpt>
      <trkpt lat="37.3068500" lon="-4.0095100">
        <ele>942.6</ele>
        <time>2020-07-11T08:44:43Z</time>
      </trkpt>
      <trkpt lat="37.3068150" lon="-4.0094420">
        <ele>943.2</ele>
        <time>2020-07-11T08:44:45Z</time>
      </trkpt>
      <trkpt lat="37.3067270" lon="-4.0092650">
        <ele>944.4</ele>
        <time>2020-07-11T08:44:50Z</time>
      </trkpt>
      <trkpt lat="37.3066830" lon="-4.0091540">
        <ele>945.0</ele>
        <time>2020-07-11T08:44:53Z</time>
      </trkpt>
      <trkpt lat="37.3066580" lon="-4.0090770">
        <ele>945.4</ele>
        <time>2020-07-11T08:44:55Z</time>
      </trkpt>
      <trkpt lat="37.3065820" lon="-4.0088420">
        <ele>946.6</ele>
        <time>2020-07-11T08:45:01Z</time>
      </trkpt>
      <trkpt lat="37.3065180" lon="-4.0086510">
        <ele>947.8</ele>
        <time>2020-07-11T08:45:06Z</time>
      </trkpt>
      <trkpt lat="37.3064570" lon="-4.0084600">
        <ele>949.0</ele>
        <time>2020-07-11T08:45:11Z</time>
      </trkpt>
      <trkpt lat="37.3064430" lon="-4.0084180">
        <ele>949.2</ele>
        <time>2020-07-11T08:45:12Z</time>
      </trkpt>
      <trkpt lat="37.3063950" lon="-4.0082760">
        <ele>950.0</ele>
        <time>2020-07-11T08:45:16Z</time>
      </trkpt>
      <trkpt lat="37.3062950" lon="-4.0080740">
        <ele>951.0</ele>
        <time>2020-07-11T08:45:22Z</time>
      </trkpt>
      <trkpt lat="37.3062040" lon="-4.0079720">
        <ele>952.2</ele>
        <time>2020-07-11T08:45:26Z</time>
      </trkpt>
      <trkpt lat="37.3061290" lon="-4.0079150">
        <ele>953.0</ele>
        <time>2020-07-11T08:45:29Z</time>
      </trkpt>
      <trkpt lat="37.3061030" lon="-4.0078970">
        <ele>953.4</ele>
        <time>2020-07-11T08:45:30Z</time>
      </trkpt>
      <trkpt lat="37.3059680" lon="-4.0077860">
        <ele>954.6</ele>
        <time>2020-07-11T08:45:36Z</time>
      </trkpt>
      <trkpt lat="37.3059000" lon="-4.0077080">
        <ele>955.2</ele>
        <time>2020-07-11T08:45:39Z</time>
      </trkpt>
      <trkpt lat="37.3058710" lon="-4.0076480">
        <ele>955.6</ele>
        <time>2020-07-11T08:45:41Z</time>
      </trkpt>
      <trkpt lat="37.3058440" lon="-4.0075320">
        <ele>956.2</ele>
        <time>2020-07-11T08:45:44Z</time>
      </trkpt>
      <trkpt lat="37.3058430" lon="-4.0074550">
        <ele>956.8</ele>
        <time>2020-07-11T08:45:46Z</time>
      </trkpt>
      <trkpt lat="37.3058540" lon="-4.0072950">
        <ele>957.8</ele>
        <time>2020-07-11T08:45:50Z</time>
      </trkpt>
      <trkpt lat="37.3058570" lon="-4.0072600">
        <ele>958.0</ele>
        <time>2020-07-11T08:45:51Z</time>
      </trkpt>
      <trkpt lat="37.3058760" lon="-4.0070810">
        <ele>959.0</ele>
        <time>2020-07-11T08:45:56Z</time>
      </trkpt>
      <trkpt lat="37.3058900" lon="-4.0069080">
        <ele>960.0</ele>
        <time>2020-07-11T08:46:01Z</time>
      </trkpt>
      <trkpt lat="37.3058900" lon="-4.0068700">
        <ele>960.2</ele>
        <time>2020-07-11T08:46:02Z</time>
      </trkpt>
      <trkpt lat="37.3059000" lon="-4.0066460">
        <ele>961.6</ele>
        <time>2020-07-11T08:46:08Z</time>
      </trkpt>
      <trkpt lat="37.3059040" lon="-4.0065390">
        <ele>962.4</ele>
        <time>2020-07-11T08:46:11Z</time>
      </trkpt>
      <trkpt lat="37.3059030" lon="-4.0064970">
        <ele>962.6</ele>
        <time>2020-07-11T08:46:12Z</time>
      </trkpt>
      <trkpt lat="37.3058900" lon="-4.0063120">
        <ele>963.6</ele>
        <time>2020-07-11T08:46:17Z</time>
      </trkpt>
      <trkpt lat="37.3058560" lon="-4.0061300">
        <ele>964.6</ele>
        <time>2020-07-11T08:46:22Z</time>
      </trkpt>
      <trkpt lat="37.3058120" lon="-4.0058840">
        <ele>965.8</ele>
        <time>2020-07-11T08:46:29Z</time>
      </trkpt>
      <trkpt lat="37.3058090" lon="-4.0058480">
        <ele>966.0</ele>
        <time>2020-07-11T08:46:30Z</time>
      </trkpt>
      <trkpt lat="37.3058060" lon="-4.0057430">
        <ele>966.8</ele>
        <time>2020-07-11T08:46:33Z</time>
      </trkpt>
      <trkpt lat="37.3058130" lon="-4.0055700">
        <ele>968.0</ele>
        <time>2020-07-11T08:46:38Z</time>
      </trkpt>
      <trkpt lat="37.3058270" lon="-4.0054690">
        <ele>968.4</ele>
        <time>2020-07-11T08:46:41Z</time>
      </trkpt>
      <trkpt lat="37.3058420" lon="-4.0053610">
        <ele>969.0</ele>
        <time>2020-07-11T08:46:44Z</time>
      </trkpt>
      <trkpt lat="37.3058580" lon="-4.0051380">
        <ele>970.2</ele>
        <time>2020-07-11T08:46:50Z</time>
      </trkpt>
      <trkpt lat="37.3058670" lon="-4.0049150">
        <ele>971.2</ele>
        <time>2020-07-11T08:46:56Z</time>
      </trkpt>
      <trkpt lat="37.3058490" lon="-4.0048000">
        <ele>972.0</ele>
        <time>2020-07-11T08:46:59Z</time>
      </trkpt>
      <trkpt lat="37.3058360" lon="-4.0047610">
        <ele>972.2</ele>
        <time>2020-07-11T08:47:00Z</time>
      </trkpt>
      <trkpt lat="37.3057570" lon="-4.0046400">
        <ele>973.2</ele>
        <time>2020-07-11T08:47:04Z</time>
      </trkpt>
      <trkpt lat="37.3057320" lon="-4.0046150">
        <ele>973.4</ele>
        <time>2020-07-11T08:47:05Z</time>
      </trkpt>
      <trkpt lat="37.3056210" lon="-4.0045280">
        <ele>974.6</ele>
        <time>2020-07-11T08:47:09Z</time>
      </trkpt>
      <trkpt lat="37.3055120" lon="-4.0044410">
        <ele>975.4</ele>
        <time>2020-07-11T08:47:13Z</time>
      </trkpt>
      <trkpt lat="37.3054660" lon="-4.0043860">
        <ele>975.6</ele>
        <time>2020-07-11T08:47:15Z</time>
      </trkpt>
      <trkpt lat="37.3053990" lon="-4.0042460">
        <ele>976.8</ele>
        <time>2020-07-11T08:47:19Z</time>
      </trkpt>
      <trkpt lat="37.3054050" lon="-4.0040750">
        <ele>977.8</ele>
        <time>2020-07-11T08:47:23Z</time>
      </trkpt>
      <trkpt lat="37.3055040" lon="-4.0038720">
        <ele>979.0</ele>
        <time>2020-07-11T08:47:28Z</time>
      </trkpt>
      <trkpt lat="37.3055290" lon="-4.0038340">
        <ele>979.2</ele>
        <time>2020-07-11T08:47:29Z</time>
      </trkpt>
      <trkpt lat="37.3056670" lon="-4.0036470">
        <ele>980.0</ele>
        <time>2020-07-11T08:47:34Z</time>
      </trkpt>
      <trkpt lat="37.3057110" lon="-4.0035670">
        <ele>980.2</ele>
        <time>2020-07-11T08:47:36Z</time>
      </trkpt>
      <trkpt lat="37.3057580" lon="-4.0034250">
        <ele>980.6</ele>
        <time>2020-07-11T08:47:39Z</time>
      </trkpt>
      <trkpt lat="37.3057690" lon="-4.0033150">
        <ele>980.6</ele>
        <time>2020-07-11T08:47:42Z</time>
      </trkpt>
      <trkpt lat="37.3057550" lon="-4.0032840">
        <ele>980.8</ele>
        <time>2020-07-11T08:47:43Z</time>
      </trkpt>
      <trkpt lat="37.3057370" lon="-4.0032200">
        <ele>981.2</ele>
        <time>2020-07-11T08:47:44Z</time>
      </trkpt>
      <trkpt lat="37.3057180" lon="-4.0031830">
        <ele>981.4</ele>
        <time>2020-07-11T08:47:45Z</time>
      </trkpt>
      <trkpt lat="37.3056760" lon="-4.0031260">
        <ele>982.2</ele>
        <time>2020-07-11T08:47:47Z</time>
      </trkpt>
      <trkpt lat="37.3055880" lon="-4.0030470">
        <ele>983.4</ele>
        <time>2020-07-11T08:47:50Z</time>
      </trkpt>
      <trkpt lat="37.3054060" lon="-4.0028770">
        <ele>984.4</ele>
        <time>2020-07-11T08:47:56Z</time>
      </trkpt>
      <trkpt lat="37.3053810" lon="-4.0028480">
        <ele>984.4</ele>
        <time>2020-07-11T08:47:57Z</time>
      </trkpt>
      <trkpt lat="37.3052810" lon="-4.0026480">
        <ele>985.0</ele>
        <time>2020-07-11T08:48:02Z</time>
      </trkpt>
      <trkpt lat="37.3052710" lon="-4.0025510">
        <ele>985.6</ele>
        <time>2020-07-11T08:48:04Z</time>
      </trkpt>
      <trkpt lat="37.3052810" lon="-4.0024450">
        <ele>986.0</ele>
        <time>2020-07-11T08:48:06Z</time>
      </trkpt>
      <trkpt lat="37.3052940" lon="-4.0023980">
        <ele>986.4</ele>
        <time>2020-07-11T08:48:07Z</time>
      </trkpt>
      <trkpt lat="37.3053500" lon="-4.0022480">
        <ele>986.8</ele>
        <time>2020-07-11T08:48:10Z</time>
      </trkpt>
      <trkpt lat="37.3054300" lon="-4.0020630">
        <ele>987.4</ele>
        <time>2020-07-11T08:48:14Z</time>
      </trkpt>
      <trkpt lat="37.3054690" lon="-4.0019730">
        <ele>987.8</ele>
        <time>2020-07-11T08:48:16Z</time>
      </trkpt>
      <trkpt lat="37.3055690" lon="-4.0016400">
        <ele>989.0</ele>
        <time>2020-07-11T08:48:23Z</time>
      </trkpt>
      <trkpt lat="37.3055750" lon="-4.0013880">
        <ele>990.0</ele>
        <time>2020-07-11T08:48:28Z</time>
      </trkpt>
      <trkpt lat="37.3055640" lon="-4.0013440">
        <ele>990.2</ele>
        <time>2020-07-11T08:48:29Z</time>
      </trkpt>
      <trkpt lat="37.3054920" lon="-4.0011280">
        <ele>991.2</ele>
        <time>2020-07-11T08:48:34Z</time>
      </trkpt>
      <trkpt lat="37.3054620" lon="-4.0010600">
        <ele>991.4</ele>
        <time>2020-07-11T08:48:36Z</time>
      </trkpt>
      <trkpt lat="37.3053650" lon="-4.0009000">
        <ele>992.2</ele>
        <time>2020-07-11T08:48:40Z</time>
      </trkpt>
      <trkpt lat="37.3052690" lon="-4.0007660">
        <ele>993.0</ele>
        <time>2020-07-11T08:48:44Z</time>
      </trkpt>
      <trkpt lat="37.3052440" lon="-4.0007330">
        <ele>993.2</ele>
        <time>2020-07-11T08:48:45Z</time>
      </trkpt>
      <trkpt lat="37.3050820" lon="-4.0005490">
        <ele>994.4</ele>
        <time>2020-07-11T08:48:51Z</time>
      </trkpt>
      <trkpt lat="37.3050580" lon="-4.0005200">
        <ele>994.6</ele>
        <time>2020-07-11T08:48:52Z</time>
      </trkpt>
      <trkpt lat="37.3049460" lon="-4.0003980">
        <ele>995.4</ele>
        <time>2020-07-11T08:48:56Z</time>
      </trkpt>
      <trkpt lat="37.3048450" lon="-4.0002030">
        <ele>996.4</ele>
        <time>2020-07-11T08:49:01Z</time>
      </trkpt>
      <trkpt lat="37.3048320" lon="-3.9999940">
        <ele>997.0</ele>
        <time>2020-07-11T08:49:05Z</time>
      </trkpt>
      <trkpt lat="37.3048400" lon="-3.9999400">
        <ele>997.2</ele>
        <time>2020-07-11T08:49:06Z</time>
      </trkpt>
      <trkpt lat="37.3048630" lon="-3.9998330">
        <ele>997.6</ele>
        <time>2020-07-11T08:49:08Z</time>
      </trkpt>
      <trkpt lat="37.3048740" lon="-3.9998020">
        <ele>997.6</ele>
        <time>2020-07-11T08:49:09Z</time>
      </trkpt>
      <trkpt lat="37.3049280" lon="-3.9996740">
        <ele>998.2</ele>
        <time>2020-07-11T08:49:12Z</time>
      </trkpt>
      <trkpt lat="37.3049760" lon="-3.9996150">
        <ele>998.8</ele>
        <time>2020-07-11T08:49:14Z</time>
      </trkpt>
      <trkpt lat="37.3050860" lon="-3.9995280">
        <ele>999.6</ele>
        <time>2020-07-11T08:49:17Z</time>
      </trkpt>
      <trkpt lat="37.3051180" lon="-3.9995020">
        <ele>999.8</ele>
        <time>2020-07-11T08:49:18Z</time>
      </trkpt>
      <trkpt lat="37.3052850" lon="-3.9992950">
        <ele>1001.0</ele>
        <time>2020-07-11T08:49:24Z</time>
      </trkpt>
      <trkpt lat="37.3053740" lon="-3.9990180">
        <ele>1002.2</ele>
        <time>2020-07-11T08:49:30Z</time>
      </trkpt>
      <trkpt lat="37.3053860" lon="-3.9989690">
        <ele>1002.4</ele>
        <time>2020-07-11T08:49:31Z</time>
      </trkpt>
      <trkpt lat="37.3054210" lon="-3.9988250">
        <ele>1003.2</ele>
        <time>2020-07-11T08:49:34Z</time>
      </trkpt>
      <trkpt lat="37.3054710" lon="-3.9986300">
        <ele>1004.2</ele>
        <time>2020-07-11T08:49:38Z</time>
      </trkpt>
      <trkpt lat="37.3055210" lon="-3.9984980">
        <ele>1005.0</ele>
        <time>2020-07-11T08:49:41Z</time>
      </trkpt>
      <trkpt lat="37.3055570" lon="-3.9984030">
        <ele>1005.2</ele>
        <time>2020-07-11T08:49:43Z</time>
      </trkpt>
      <trkpt lat="37.3056750" lon="-3.9980770">
        <ele>1006.2</ele>
        <time>2020-07-11T08:49:50Z</time>
      </trkpt>
      <trkpt lat="37.3056860" lon="-3.9980300">
        <ele>1006.2</ele>
        <time>2020-07-11T08:49:51Z</time>
      </trkpt>
      <trkpt lat="37.3057180" lon="-3.9978360">
        <ele>1007.2</ele>
        <time>2020-07-11T08:49:55Z</time>
      </trkpt>
      <trkpt lat="37.3057270" lon="-3.9977410">
        <ele>1008.0</ele>
        <time>2020-07-11T08:49:57Z</time>
      </trkpt>
      <trkpt lat="37.3057350" lon="-3.9976400">
        <ele>1008.4</ele>
        <time>2020-07-11T08:49:59Z</time>
      </trkpt>
      <trkpt lat="37.3057490" lon="-3.9973850">
        <ele>1009.6</ele>
        <time>2020-07-11T08:50:04Z</time>
      </trkpt>
      <trkpt lat="37.3057550" lon="-3.9972870">
        <ele>1009.8</ele>
        <time>2020-07-11T08:50:06Z</time>
      </trkpt>
      <trkpt lat="37.3057640" lon="-3.9970330">
        <ele>1010.6</ele>
        <time>2020-07-11T08:50:11Z</time>
      </trkpt>
      <trkpt lat="37.3057680" lon="-3.9969360">
        <ele>1011.0</ele>
        <time>2020-07-11T08:50:13Z</time>
      </trkpt>
      <trkpt lat="37.3057900" lon="-3.9967930">
        <ele>1011.6</ele>
        <time>2020-07-11T08:50:16Z</time>
      </trkpt>
      <trkpt lat="37.3058530" lon="-3.9966150">
        <ele>1012.6</ele>
        <time>2020-07-11T08:50:20Z</time>
      </trkpt>
      <trkpt lat="37.3058790" lon="-3.9965720">
        <ele>1012.8</ele>
        <time>2020-07-11T08:50:21Z</time>
      </trkpt>
      <trkpt lat="37.3059890" lon="-3.9964780">
        <ele>1013.2</ele>
        <time>2020-07-11T08:50:24Z</time>
      </trkpt>
      <trkpt lat="37.3060810" lon="-3.9964390">
        <ele>1013.4</ele>
        <time>2020-07-11T08:50:26Z</time>
      </trkpt>
      <trkpt lat="37.3062300" lon="-3.9963940">
        <ele>1013.4</ele>
        <time>2020-07-11T08:50:29Z</time>
      </trkpt>
      <trkpt lat="37.3062800" lon="-3.9963660">
        <ele>1013.4</ele>
        <time>2020-07-11T08:50:30Z</time>
      </trkpt>
      <trkpt lat="37.3063990" lon="-3.9962240">
        <ele>1013.0</ele>
        <time>2020-07-11T08:50:33Z</time>
      </trkpt>
      <trkpt lat="37.3064410" lon="-3.9960170">
        <ele>1012.8</ele>
        <time>2020-07-11T08:50:36Z</time>
      </trkpt>
      <trkpt lat="37.3064420" lon="-3.9958700">
        <ele>1012.8</ele>
        <time>2020-07-11T08:50:38Z</time>
      </trkpt>
      <trkpt lat="37.3064320" lon="-3.9956450">
        <ele>1013.0</ele>
        <time>2020-07-11T08:50:41Z</time>
      </trkpt>
      <trkpt lat="37.3064310" lon="-3.9955730">
        <ele>1013.0</ele>
        <time>2020-07-11T08:50:42Z</time>
      </trkpt>
      <trkpt lat="37.3064260" lon="-3.9953370">
        <ele>1013.2</ele>
        <time>2020-07-11T08:50:45Z</time>
      </trkpt>
      <trkpt lat="37.3064230" lon="-3.9950860">
        <ele>1013.2</ele>
        <time>2020-07-11T08:50:48Z</time>
      </trkpt>
      <trkpt lat="37.3064230" lon="-3.9949110">
        <ele>1013.2</ele>
        <time>2020-07-11T08:50:50Z</time>
      </trkpt>
      <trkpt lat="37.3064000" lon="-3.9944680">
        <ele>1013.2</ele>
        <time>2020-07-11T08:50:55Z</time>
      </trkpt>
      <trkpt lat="37.3063690" lon="-3.9942020">
        <ele>1013.4</ele>
        <time>2020-07-11T08:50:58Z</time>
      </trkpt>
      <trkpt lat="37.3063480" lon="-3.9941210">
        <ele>1013.4</ele>
        <time>2020-07-11T08:50:59Z</time>
      </trkpt>
      <trkpt lat="37.3062580" lon="-3.9939770">
        <ele>1013.4</ele>
        <time>2020-07-11T08:51:01Z</time>
      </trkpt>
      <trkpt lat="37.3061150" lon="-3.9939450">
        <ele>1013.4</ele>
        <time>2020-07-11T08:51:03Z</time>
      </trkpt>
      <trkpt lat="37.3059190" lon="-3.9940710">
        <ele>1013.4</ele>
        <time>2020-07-11T08:51:06Z</time>
      </trkpt>
      <trkpt lat="37.3057650" lon="-3.9941420">
        <ele>1013.2</ele>
        <time>2020-07-11T08:51:08Z</time>
      </trkpt>
      <trkpt lat="37.3056070" lon="-3.9941620">
        <ele>1013.0</ele>
        <time>2020-07-11T08:51:10Z</time>
      </trkpt>
      <trkpt lat="37.3053750" lon="-3.9941980">
        <ele>1012.8</ele>
        <time>2020-07-11T08:51:13Z</time>
      </trkpt>
      <trkpt lat="37.3052300" lon="-3.9942930">
        <ele>1012.8</ele>
        <time>2020-07-11T08:51:15Z</time>
      </trkpt>
      <trkpt lat="37.3050580" lon="-3.9944870">
        <ele>1012.6</ele>
        <time>2020-07-11T08:51:18Z</time>
      </trkpt>
      <trkpt lat="37.3050000" lon="-3.9945560">
        <ele>1012.6</ele>
        <time>2020-07-11T08:51:19Z</time>
      </trkpt>
      <trkpt lat="37.3046100" lon="-3.9950520">
        <ele>1012.6</ele>
        <time>2020-07-11T08:51:26Z</time>
      </trkpt>
      <trkpt lat="37.3044400" lon="-3.9952520">
        <ele>1013.0</ele>
        <time>2020-07-11T08:51:29Z</time>
      </trkpt>
      <trkpt lat="37.3043130" lon="-3.9953690">
        <ele>1013.0</ele>
        <time>2020-07-11T08:51:31Z</time>
      </trkpt>
      <trkpt lat="37.3041080" lon="-3.9954640">
        <ele>1013.2</ele>
        <time>2020-07-11T08:51:34Z</time>
      </trkpt>
      <trkpt lat="37.3038150" lon="-3.9954540">
        <ele>1012.8</ele>
        <time>2020-07-11T08:51:38Z</time>
      </trkpt>
      <trkpt lat="37.3037420" lon="-3.9954380">
        <ele>1012.6</ele>
        <time>2020-07-11T08:51:39Z</time>
      </trkpt>
      <trkpt lat="37.3033620" lon="-3.9954140">
        <ele>1012.4</ele>
        <time>2020-07-11T08:51:44Z</time>
      </trkpt>
      <trkpt lat="37.3030720" lon="-3.9955620">
        <ele>1012.2</ele>
        <time>2020-07-11T08:51:48Z</time>
      </trkpt>
      <trkpt lat="37.3028420" lon="-3.9956730">
        <ele>1012.0</ele>
        <time>2020-07-11T08:51:51Z</time>
      </trkpt>
      <trkpt lat="37.3026790" lon="-3.9957040">
        <ele>1011.8</ele>
        <time>2020-07-11T08:51:53Z</time>
      </trkpt>
      <trkpt lat="37.3022490" lon="-3.9957920">
        <ele>1011.2</ele>
        <time>2020-07-11T08:51:58Z</time>
      </trkpt>
      <trkpt lat="37.3021720" lon="-3.9958290">
        <ele>1011.0</ele>
        <time>2020-07-11T08:51:59Z</time>
      </trkpt>
      <trkpt lat="37.3020010" lon="-3.9959220">
        <ele>1010.6</ele>
        <time>2020-07-11T08:52:01Z</time>
      </trkpt>
      <trkpt lat="37.3015730" lon="-3.9961500">
        <ele>1009.4</ele>
        <time>2020-07-11T08:52:06Z</time>
      </trkpt>
      <trkpt lat="37.3011180" lon="-3.9962880">
        <ele>1008.4</ele>
        <time>2020-07-11T08:52:11Z</time>
      </trkpt>
      <trkpt lat="37.3010310" lon="-3.9962780">
        <ele>1008.2</ele>
        <time>2020-07-11T08:52:12Z</time>
      </trkpt>
      <trkpt lat="37.3008870" lon="-3.9961190">
        <ele>1007.8</ele>
        <time>2020-07-11T08:52:14Z</time>
      </trkpt>
      <trkpt lat="37.3008800" lon="-3.9958840">
        <ele>1007.2</ele>
        <time>2020-07-11T08:52:16Z</time>
      </trkpt>
      <trkpt lat="37.3009480" lon="-3.9956740">
        <ele>1007.0</ele>
        <time>2020-07-11T08:52:18Z</time>
      </trkpt>
      <trkpt lat="37.3009970" lon="-3.9955820">
        <ele>1007.0</ele>
        <time>2020-07-11T08:52:19Z</time>
      </trkpt>
      <trkpt lat="37.3010540" lon="-3.9954930">
        <ele>1007.0</ele>
        <time>2020-07-11T08:52:20Z</time>
      </trkpt>
      <trkpt lat="37.3011030" lon="-3.9954180">
        <ele>1007.0</ele>
        <time>2020-07-11T08:52:21Z</time>
      </trkpt>
      <trkpt lat="37.3012470" lon="-3.9951360">
        <ele>1007.2</ele>
        <time>2020-07-11T08:52:24Z</time>
      </trkpt>
      <trkpt lat="37.3013390" lon="-3.9947210">
        <ele>1007.0</ele>
        <time>2020-07-11T08:52:28Z</time>
      </trkpt>
      <trkpt lat="37.3014180" lon="-3.9941260">
        <ele>1007.4</ele>
        <time>2020-07-11T08:52:34Z</time>
      </trkpt>
      <trkpt lat="37.3013470" lon="-3.9938500">
        <ele>1007.4</ele>
        <time>2020-07-11T08:52:37Z</time>
      </trkpt>
      <trkpt lat="37.3011460" lon="-3.9935510">
        <ele>1007.2</ele>
        <time>2020-07-11T08:52:41Z</time>
      </trkpt>
      <trkpt lat="37.3009050" lon="-3.9932430">
        <ele>1007.2</ele>
        <time>2020-07-11T08:52:46Z</time>
      </trkpt>
      <trkpt lat="37.3006250" lon="-3.9929410">
        <ele>1007.2</ele>
        <time>2020-07-11T08:52:52Z</time>
      </trkpt>
      <trkpt lat="37.3005590" lon="-3.9929000">
        <ele>1007.2</ele>
        <time>2020-07-11T08:52:53Z</time>
      </trkpt>
      <trkpt lat="37.3003450" lon="-3.9928470">
        <ele>1007.0</ele>
        <time>2020-07-11T08:52:56Z</time>
      </trkpt>
      <trkpt lat="37.3001920" lon="-3.9928530">
        <ele>1006.8</ele>
        <time>2020-07-11T08:52:58Z</time>
      </trkpt>
      <trkpt lat="37.3000380" lon="-3.9928410">
        <ele>1006.4</ele>
        <time>2020-07-11T08:53:00Z</time>
      </trkpt>
      <trkpt lat="37.2999610" lon="-3.9928160">
        <ele>1006.2</ele>
        <time>2020-07-11T08:53:01Z</time>
      </trkpt>
      <trkpt lat="37.2998140" lon="-3.9927380">
        <ele>1006.0</ele>
        <time>2020-07-11T08:53:03Z</time>
      </trkpt>
      <trkpt lat="37.2996760" lon="-3.9926370">
        <ele>1005.4</ele>
        <time>2020-07-11T08:53:05Z</time>
      </trkpt>
      <trkpt lat="37.2994580" lon="-3.9924640">
        <ele>1004.8</ele>
        <time>2020-07-11T08:53:08Z</time>
      </trkpt>
      <trkpt lat="37.2991720" lon="-3.9922410">
        <ele>1003.6</ele>
        <time>2020-07-11T08:53:12Z</time>
      </trkpt>
      <trkpt lat="37.2990170" lon="-3.9921360">
        <ele>1003.0</ele>
        <time>2020-07-11T08:53:14Z</time>
      </trkpt>
      <trkpt lat="37.2988620" lon="-3.9920350">
        <ele>1002.4</ele>
        <time>2020-07-11T08:53:16Z</time>
      </trkpt>
      <trkpt lat="37.2986190" lon="-3.9919080">
        <ele>1001.8</ele>
        <time>2020-07-11T08:53:19Z</time>
      </trkpt>
      <trkpt lat="37.2984450" lon="-3.9918370">
        <ele>1001.2</ele>
        <time>2020-07-11T08:53:21Z</time>
      </trkpt>
      <trkpt lat="37.2982700" lon="-3.9918100">
        <ele>1000.8</ele>
        <time>2020-07-11T08:53:23Z</time>
      </trkpt>
      <trkpt lat="37.2980860" lon="-3.9918320">
        <ele>1000.4</ele>
        <time>2020-07-11T08:53:25Z</time>
      </trkpt>
      <trkpt lat="37.2979970" lon="-3.9918510">
        <ele>1000.2</ele>
        <time>2020-07-11T08:53:26Z</time>
      </trkpt>
      <trkpt lat="37.2978120" lon="-3.9918750">
        <ele>999.6</ele>
        <time>2020-07-11T08:53:28Z</time>
      </trkpt>
      <trkpt lat="37.2976290" lon="-3.9918520">
        <ele>999.0</ele>
        <time>2020-07-11T08:53:30Z</time>
      </trkpt>
      <trkpt lat="37.2974730" lon="-3.9917100">
        <ele>998.2</ele>
        <time>2020-07-11T08:53:32Z</time>
      </trkpt>
      <trkpt lat="37.2974290" lon="-3.9915920">
        <ele>998.0</ele>
        <time>2020-07-11T08:53:33Z</time>
      </trkpt>
      <trkpt lat="37.2974140" lon="-3.9914740">
        <ele>997.6</ele>
        <time>2020-07-11T08:53:34Z</time>
      </trkpt>
      <trkpt lat="37.2974020" lon="-3.9913060">
        <ele>997.2</ele>
        <time>2020-07-11T08:53:36Z</time>
      </trkpt>
      <trkpt lat="37.2973830" lon="-3.9911140">
        <ele>996.8</ele>
        <time>2020-07-11T08:53:37Z</time>
      </trkpt>
      <trkpt lat="37.2973630" lon="-3.9909770">
        <ele>996.6</ele>
        <time>2020-07-11T08:53:38Z</time>
      </trkpt>
      <trkpt lat="37.2973180" lon="-3.9907320">
        <ele>995.8</ele>
        <time>2020-07-11T08:53:40Z</time>
      </trkpt>
      <trkpt lat="37.2972930" lon="-3.9904940">
        <ele>995.2</ele>
        <time>2020-07-11T08:53:42Z</time>
      </trkpt>
      <trkpt lat="37.2973130" lon="-3.9903540">
        <ele>995.0</ele>
        <time>2020-07-11T08:53:43Z</time>
      </trkpt>
      <trkpt lat="37.2974060" lon="-3.9901270">
        <ele>994.6</ele>
        <time>2020-07-11T08:53:45Z</time>
      </trkpt>
      <trkpt lat="37.2974570" lon="-3.9900160">
        <ele>994.4</ele>
        <time>2020-07-11T08:53:46Z</time>
      </trkpt>
      <trkpt lat="37.2975560" lon="-3.9898010">
        <ele>994.0</ele>
        <time>2020-07-11T08:53:48Z</time>
      </trkpt>
      <trkpt lat="37.2976580" lon="-3.9895840">
        <ele>993.4</ele>
        <time>2020-07-11T08:53:50Z</time>
      </trkpt>
      <trkpt lat="37.2977300" lon="-3.9893840">
        <ele>993.0</ele>
        <time>2020-07-11T08:53:52Z</time>
      </trkpt>
      <trkpt lat="37.2977450" lon="-3.9892700">
        <ele>992.6</ele>
        <time>2020-07-11T08:53:53Z</time>
      </trkpt>
      <trkpt lat="37.2977100" lon="-3.9890390">
        <ele>992.2</ele>
        <time>2020-07-11T08:53:55Z</time>
      </trkpt>
      <trkpt lat="37.2976690" lon="-3.9889380">
        <ele>991.8</ele>
        <time>2020-07-11T08:53:56Z</time>
      </trkpt>
      <trkpt lat="37.2975760" lon="-3.9887380">
        <ele>991.2</ele>
        <time>2020-07-11T08:53:58Z</time>
      </trkpt>
      <trkpt lat="37.2975340" lon="-3.9886470">
        <ele>990.8</ele>
        <time>2020-07-11T08:53:59Z</time>
      </trkpt>
      <trkpt lat="37.2973980" lon="-3.9883480">
        <ele>990.2</ele>
        <time>2020-07-11T08:54:02Z</time>
      </trkpt>
      <trkpt lat="37.2972410" lon="-3.9880540">
        <ele>989.6</ele>
        <time>2020-07-11T08:54:05Z</time>
      </trkpt>
      <trkpt lat="37.2971710" lon="-3.9879720">
        <ele>989.4</ele>
        <time>2020-07-11T08:54:06Z</time>
      </trkpt>
      <trkpt lat="37.2970990" lon="-3.9879100">
        <ele>989.2</ele>
        <time>2020-07-11T08:54:07Z</time>
      </trkpt>
      <trkpt lat="37.2969230" lon="-3.9877940">
        <ele>988.4</ele>
        <time>2020-07-11T08:54:09Z</time>
      </trkpt>
      <trkpt lat="37.2967500" lon="-3.9876790">
        <ele>987.6</ele>
        <time>2020-07-11T08:54:11Z</time>
      </trkpt>
      <trkpt lat="37.2966650" lon="-3.9876240">
        <ele>987.0</ele>
        <time>2020-07-11T08:54:12Z</time>
      </trkpt>
      <trkpt lat="37.2963660" lon="-3.9874300">
        <ele>985.6</ele>
        <time>2020-07-11T08:54:15Z</time>
      </trkpt>
      <trkpt lat="37.2961740" lon="-3.9873040">
        <ele>984.4</ele>
        <time>2020-07-11T08:54:17Z</time>
      </trkpt>
      <trkpt lat="37.2959630" lon="-3.9871720">
        <ele>983.0</ele>
        <time>2020-07-11T08:54:19Z</time>
      </trkpt>
      <trkpt lat="37.2957510" lon="-3.9870370">
        <ele>981.8</ele>
        <time>2020-07-11T08:54:21Z</time>
      </trkpt>
      <trkpt lat="37.2955420" lon="-3.9869030">
        <ele>980.6</ele>
        <time>2020-07-11T08:54:23Z</time>
      </trkpt>
      <trkpt lat="37.2953220" lon="-3.9867620">
        <ele>979.2</ele>
        <time>2020-07-11T08:54:25Z</time>
      </trkpt>
      <trkpt lat="37.2952140" lon="-3.9866930">
        <ele>978.6</ele>
        <time>2020-07-11T08:54:26Z</time>
      </trkpt>
      <trkpt lat="37.2951110" lon="-3.9866240">
        <ele>978.0</ele>
        <time>2020-07-11T08:54:27Z</time>
      </trkpt>
      <trkpt lat="37.2948940" lon="-3.9865030">
        <ele>976.8</ele>
        <time>2020-07-11T08:54:29Z</time>
      </trkpt>
      <trkpt lat="37.2947790" lon="-3.9864700">
        <ele>976.0</ele>
        <time>2020-07-11T08:54:30Z</time>
      </trkpt>
      <trkpt lat="37.2946610" lon="-3.9864760">
        <ele>975.2</ele>
        <time>2020-07-11T08:54:31Z</time>
      </trkpt>
      <trkpt lat="37.2944480" lon="-3.9866070">
        <ele>974.2</ele>
        <time>2020-07-11T08:54:33Z</time>
      </trkpt>
      <trkpt lat="37.2942620" lon="-3.9867810">
        <ele>972.2</ele>
        <time>2020-07-11T08:54:35Z</time>
      </trkpt>
      <trkpt lat="37.2941540" lon="-3.9868330">
        <ele>971.2</ele>
        <time>2020-07-11T08:54:36Z</time>
      </trkpt>
      <trkpt lat="37.2940450" lon="-3.9868380">
        <ele>969.8</ele>
        <time>2020-07-11T08:54:37Z</time>
      </trkpt>
      <trkpt lat="37.2939220" lon="-3.9867980">
        <ele>968.6</ele>
        <time>2020-07-11T08:54:38Z</time>
      </trkpt>
      <trkpt lat="37.2938250" lon="-3.9867190">
        <ele>967.6</ele>
        <time>2020-07-11T08:54:39Z</time>
      </trkpt>
      <trkpt lat="37.2937340" lon="-3.9866310">
        <ele>966.8</ele>
        <time>2020-07-11T08:54:40Z</time>
      </trkpt>
      <trkpt lat="37.2936440" lon="-3.9865520">
        <ele>966.0</ele>
        <time>2020-07-11T08:54:41Z</time>
      </trkpt>
      <trkpt lat="37.2934310" lon="-3.9864020">
        <ele>964.4</ele>
        <time>2020-07-11T08:54:43Z</time>
      </trkpt>
      <trkpt lat="37.2932120" lon="-3.9862870">
        <ele>962.8</ele>
        <time>2020-07-11T08:54:45Z</time>
      </trkpt>
      <trkpt lat="37.2930060" lon="-3.9861710">
        <ele>961.4</ele>
        <time>2020-07-11T08:54:47Z</time>
      </trkpt>
      <trkpt lat="37.2927890" lon="-3.9860350">
        <ele>959.6</ele>
        <time>2020-07-11T08:54:49Z</time>
      </trkpt>
      <trkpt lat="37.2926970" lon="-3.9860100">
        <ele>958.8</ele>
        <time>2020-07-11T08:54:50Z</time>
      </trkpt>
      <trkpt lat="37.2925930" lon="-3.9860280">
        <ele>958.0</ele>
        <time>2020-07-11T08:54:51Z</time>
      </trkpt>
      <trkpt lat="37.2925020" lon="-3.9860890">
        <ele>957.4</ele>
        <time>2020-07-11T08:54:52Z</time>
      </trkpt>
      <trkpt lat="37.2924110" lon="-3.9861720">
        <ele>956.6</ele>
        <time>2020-07-11T08:54:53Z</time>
      </trkpt>
      <trkpt lat="37.2923220" lon="-3.9862450">
        <ele>956.0</ele>
        <time>2020-07-11T08:54:54Z</time>
      </trkpt>
      <trkpt lat="37.2922080" lon="-3.9863020">
        <ele>955.2</ele>
        <time>2020-07-11T08:54:55Z</time>
      </trkpt>
      <trkpt lat="37.2919830" lon="-3.9863290">
        <ele>953.8</ele>
        <time>2020-07-11T08:54:57Z</time>
      </trkpt>
      <trkpt lat="37.2918550" lon="-3.9863230">
        <ele>952.6</ele>
        <time>2020-07-11T08:54:58Z</time>
      </trkpt>
      <trkpt lat="37.2917470" lon="-3.9863180">
        <ele>951.8</ele>
        <time>2020-07-11T08:54:59Z</time>
      </trkpt>
      <trkpt lat="37.2916140" lon="-3.9863120">
        <ele>951.0</ele>
        <time>2020-07-11T08:55:00Z</time>
      </trkpt>
      <trkpt lat="37.2913900" lon="-3.9863110">
        <ele>949.4</ele>
        <time>2020-07-11T08:55:02Z</time>
      </trkpt>
      <trkpt lat="37.2912920" lon="-3.9863320">
        <ele>948.4</ele>
        <time>2020-07-11T08:55:03Z</time>
      </trkpt>
      <trkpt lat="37.2912100" lon="-3.9863870">
        <ele>947.6</ele>
        <time>2020-07-11T08:55:04Z</time>
      </trkpt>
      <trkpt lat="37.2911260" lon="-3.9865930">
        <ele>946.2</ele>
        <time>2020-07-11T08:55:06Z</time>
      </trkpt>
      <trkpt lat="37.2911340" lon="-3.9867130">
        <ele>945.2</ele>
        <time>2020-07-11T08:55:07Z</time>
      </trkpt>
      <trkpt lat="37.2911580" lon="-3.9868440">
        <ele>944.2</ele>
        <time>2020-07-11T08:55:08Z</time>
      </trkpt>
      <trkpt lat="37.2912170" lon="-3.9871020">
        <ele>942.6</ele>
        <time>2020-07-11T08:55:10Z</time>
      </trkpt>
      <trkpt lat="37.2912570" lon="-3.9874940">
        <ele>941.0</ele>
        <time>2020-07-11T08:55:13Z</time>
      </trkpt>
      <trkpt lat="37.2911160" lon="-3.9876950">
        <ele>939.4</ele>
        <time>2020-07-11T08:55:15Z</time>
      </trkpt>
      <trkpt lat="37.2909320" lon="-3.9878080">
        <ele>938.0</ele>
        <time>2020-07-11T08:55:17Z</time>
      </trkpt>
      <trkpt lat="37.2908130" lon="-3.9878600">
        <ele>937.4</ele>
        <time>2020-07-11T08:55:18Z</time>
      </trkpt>
      <trkpt lat="37.2907100" lon="-3.9879030">
        <ele>936.8</ele>
        <time>2020-07-11T08:55:19Z</time>
      </trkpt>
      <trkpt lat="37.2904820" lon="-3.9879900">
        <ele>935.6</ele>
        <time>2020-07-11T08:55:21Z</time>
      </trkpt>
      <trkpt lat="37.2902770" lon="-3.9880800">
        <ele>934.0</ele>
        <time>2020-07-11T08:55:23Z</time>
      </trkpt>
      <trkpt lat="37.2902040" lon="-3.9881490">
        <ele>933.0</ele>
        <time>2020-07-11T08:55:24Z</time>
      </trkpt>
      <trkpt lat="37.2901490" lon="-3.9882490">
        <ele>932.2</ele>
        <time>2020-07-11T08:55:25Z</time>
      </trkpt>
      <trkpt lat="37.2901360" lon="-3.9883650">
        <ele>931.4</ele>
        <time>2020-07-11T08:55:26Z</time>
      </trkpt>
      <trkpt lat="37.2901600" lon="-3.9884740">
        <ele>930.4</ele>
        <time>2020-07-11T08:55:27Z</time>
      </trkpt>
      <trkpt lat="37.2902100" lon="-3.9885880">
        <ele>929.6</ele>
        <time>2020-07-11T08:55:28Z</time>
      </trkpt>
      <trkpt lat="37.2902630" lon="-3.9886840">
        <ele>929.0</ele>
        <time>2020-07-11T08:55:29Z</time>
      </trkpt>
      <trkpt lat="37.2903220" lon="-3.9887920">
        <ele>928.0</ele>
        <time>2020-07-11T08:55:30Z</time>
      </trkpt>
      <trkpt lat="37.2903860" lon="-3.9889050">
        <ele>927.2</ele>
        <time>2020-07-11T08:55:31Z</time>
      </trkpt>
      <trkpt lat="37.2904300" lon="-3.9890150">
        <ele>926.6</ele>
        <time>2020-07-11T08:55:32Z</time>
      </trkpt>
      <trkpt lat="37.2904450" lon="-3.9891550">
        <ele>926.0</ele>
        <time>2020-07-11T08:55:33Z</time>
      </trkpt>
      <trkpt lat="37.2904190" lon="-3.9892810">
        <ele>925.4</ele>
        <time>2020-07-11T08:55:34Z</time>
      </trkpt>
      <trkpt lat="37.2902600" lon="-3.9894570">
        <ele>925.0</ele>
        <time>2020-07-11T08:55:36Z</time>
      </trkpt>
      <trkpt lat="37.2900260" lon="-3.9894430">
        <ele>924.2</ele>
        <time>2020-07-11T08:55:38Z</time>
      </trkpt>
      <trkpt lat="37.2899180" lon="-3.9894210">
        <ele>923.8</ele>
        <time>2020-07-11T08:55:39Z</time>
      </trkpt>
      <trkpt lat="37.2898010" lon="-3.9894030">
        <ele>922.8</ele>
        <time>2020-07-11T08:55:40Z</time>
      </trkpt>
      <trkpt lat="37.2896920" lon="-3.9893880">
        <ele>922.0</ele>
        <time>2020-07-11T08:55:41Z</time>
      </trkpt>
      <trkpt lat="37.2895850" lon="-3.9893690">
        <ele>921.0</ele>
        <time>2020-07-11T08:55:42Z</time>
      </trkpt>
      <trkpt lat="37.2893480" lon="-3.9893340">
        <ele>919.4</ele>
        <time>2020-07-11T08:55:44Z</time>
      </trkpt>
      <trkpt lat="37.2891180" lon="-3.9893380">
        <ele>918.0</ele>
        <time>2020-07-11T08:55:46Z</time>
      </trkpt>
      <trkpt lat="37.2890240" lon="-3.9893710">
        <ele>917.4</ele>
        <time>2020-07-11T08:55:47Z</time>
      </trkpt>
      <trkpt lat="37.2889440" lon="-3.9894360">
        <ele>916.6</ele>
        <time>2020-07-11T08:55:48Z</time>
      </trkpt>
      <trkpt lat="37.2888900" lon="-3.9895350">
        <ele>915.8</ele>
        <time>2020-07-11T08:55:49Z</time>
      </trkpt>
      <trkpt lat="37.2888810" lon="-3.9896570">
        <ele>915.0</ele>
        <time>2020-07-11T08:55:50Z</time>
      </trkpt>
      <trkpt lat="37.2889140" lon="-3.9897780">
        <ele>914.2</ele>
        <time>2020-07-11T08:55:51Z</time>
      </trkpt>
      <trkpt lat="37.2889650" lon="-3.9898820">
        <ele>913.4</ele>
        <time>2020-07-11T08:55:52Z</time>
      </trkpt>
      <trkpt lat="37.2890970" lon="-3.9900770">
        <ele>912.0</ele>
        <time>2020-07-11T08:55:54Z</time>
      </trkpt>
      <trkpt lat="37.2891740" lon="-3.9901860">
        <ele>911.4</ele>
        <time>2020-07-11T08:55:55Z</time>
      </trkpt>
      <trkpt lat="37.2892460" lon="-3.9902910">
        <ele>910.8</ele>
        <time>2020-07-11T08:55:56Z</time>
      </trkpt>
      <trkpt lat="37.2893630" lon="-3.9904970">
        <ele>909.8</ele>
        <time>2020-07-11T08:55:58Z</time>
      </trkpt>
      <trkpt lat="37.2893810" lon="-3.9905860">
        <ele>909.4</ele>
        <time>2020-07-11T08:55:59Z</time>
      </trkpt>
      <trkpt lat="37.2893740" lon="-3.9906900">
        <ele>908.6</ele>
        <time>2020-07-11T08:56:00Z</time>
      </trkpt>
      <trkpt lat="37.2892710" lon="-3.9907560">
        <ele>908.0</ele>
        <time>2020-07-11T08:56:01Z</time>
      </trkpt>
      <trkpt lat="37.2891810" lon="-3.9907810">
        <ele>907.4</ele>
        <time>2020-07-11T08:56:02Z</time>
      </trkpt>
      <trkpt lat="37.2890820" lon="-3.9907700">
        <ele>906.6</ele>
        <time>2020-07-11T08:56:03Z</time>
      </trkpt>
      <trkpt lat="37.2889940" lon="-3.9907360">
        <ele>905.8</ele>
        <time>2020-07-11T08:56:04Z</time>
      </trkpt>
      <trkpt lat="37.2889010" lon="-3.9907070">
        <ele>905.2</ele>
        <time>2020-07-11T08:56:05Z</time>
      </trkpt>
      <trkpt lat="37.2888000" lon="-3.9906820">
        <ele>904.8</ele>
        <time>2020-07-11T08:56:06Z</time>
      </trkpt>
      <trkpt lat="37.2887040" lon="-3.9906440">
        <ele>904.2</ele>
        <time>2020-07-11T08:56:07Z</time>
      </trkpt>
      <trkpt lat="37.2885860" lon="-3.9906190">
        <ele>903.6</ele>
        <time>2020-07-11T08:56:08Z</time>
      </trkpt>
      <trkpt lat="37.2883720" lon="-3.9905660">
        <ele>902.4</ele>
        <time>2020-07-11T08:56:10Z</time>
      </trkpt>
      <trkpt lat="37.2881590" lon="-3.9905010">
        <ele>901.0</ele>
        <time>2020-07-11T08:56:12Z</time>
      </trkpt>
      <trkpt lat="37.2879310" lon="-3.9904250">
        <ele>899.8</ele>
        <time>2020-07-11T08:56:14Z</time>
      </trkpt>
      <trkpt lat="37.2877050" lon="-3.9903450">
        <ele>898.8</ele>
        <time>2020-07-11T08:56:16Z</time>
      </trkpt>
      <trkpt lat="37.2876060" lon="-3.9903140">
        <ele>898.2</ele>
        <time>2020-07-11T08:56:17Z</time>
      </trkpt>
      <trkpt lat="37.2873800" lon="-3.9902390">
        <ele>897.6</ele>
        <time>2020-07-11T08:56:19Z</time>
      </trkpt>
      <trkpt lat="37.2870690" lon="-3.9901170">
        <ele>896.4</ele>
        <time>2020-07-11T08:56:22Z</time>
      </trkpt>
      <trkpt lat="37.2869690" lon="-3.9900330">
        <ele>895.8</ele>
        <time>2020-07-11T08:56:23Z</time>
      </trkpt>
      <trkpt lat="37.2868930" lon="-3.9899270">
        <ele>895.4</ele>
        <time>2020-07-11T08:56:24Z</time>
      </trkpt>
      <trkpt lat="37.2868250" lon="-3.9897870">
        <ele>894.4</ele>
        <time>2020-07-11T08:56:25Z</time>
      </trkpt>
      <trkpt lat="37.2867750" lon="-3.9896480">
        <ele>893.6</ele>
        <time>2020-07-11T08:56:26Z</time>
      </trkpt>
      <trkpt lat="37.2867320" lon="-3.9895130">
        <ele>892.6</ele>
        <time>2020-07-11T08:56:27Z</time>
      </trkpt>
      <trkpt lat="37.2866800" lon="-3.9893540">
        <ele>891.6</ele>
        <time>2020-07-11T08:56:28Z</time>
      </trkpt>
      <trkpt lat="37.2865890" lon="-3.9890720">
        <ele>889.6</ele>
        <time>2020-07-11T08:56:30Z</time>
      </trkpt>
      <trkpt lat="37.2864890" lon="-3.9887730">
        <ele>888.2</ele>
        <time>2020-07-11T08:56:32Z</time>
      </trkpt>
      <trkpt lat="37.2863630" lon="-3.9884730">
        <ele>886.4</ele>
        <time>2020-07-11T08:56:34Z</time>
      </trkpt>
      <trkpt lat="37.2862060" lon="-3.9881950">
        <ele>884.6</ele>
        <time>2020-07-11T08:56:36Z</time>
      </trkpt>
      <trkpt lat="37.2861180" lon="-3.9880690">
        <ele>883.8</ele>
        <time>2020-07-11T08:56:37Z</time>
      </trkpt>
      <trkpt lat="37.2860270" lon="-3.9879260">
        <ele>883.0</ele>
        <time>2020-07-11T08:56:38Z</time>
      </trkpt>
      <trkpt lat="37.2858570" lon="-3.9876670">
        <ele>881.6</ele>
        <time>2020-07-11T08:56:40Z</time>
      </trkpt>
      <trkpt lat="37.2856830" lon="-3.9874470">
        <ele>880.6</ele>
        <time>2020-07-11T08:56:42Z</time>
      </trkpt>
      <trkpt lat="37.2855780" lon="-3.9873410">
        <ele>879.6</ele>
        <time>2020-07-11T08:56:43Z</time>
      </trkpt>
      <trkpt lat="37.2854760" lon="-3.9872650">
        <ele>878.8</ele>
        <time>2020-07-11T08:56:44Z</time>
      </trkpt>
      <trkpt lat="37.2852450" lon="-3.9871590">
        <ele>876.6</ele>
        <time>2020-07-11T08:56:46Z</time>
      </trkpt>
      <trkpt lat="37.2850110" lon="-3.9870690">
        <ele>874.6</ele>
        <time>2020-07-11T08:56:48Z</time>
      </trkpt>
      <trkpt lat="37.2847650" lon="-3.9869840">
        <ele>872.6</ele>
        <time>2020-07-11T08:56:50Z</time>
      </trkpt>
      <trkpt lat="37.2846440" lon="-3.9869430">
        <ele>871.8</ele>
        <time>2020-07-11T08:56:51Z</time>
      </trkpt>
      <trkpt lat="37.2845300" lon="-3.9869070">
        <ele>871.0</ele>
        <time>2020-07-11T08:56:52Z</time>
      </trkpt>
      <trkpt lat="37.2842890" lon="-3.9868290">
        <ele>869.4</ele>
        <time>2020-07-11T08:56:54Z</time>
      </trkpt>
      <trkpt lat="37.2840280" lon="-3.9867660">
        <ele>868.0</ele>
        <time>2020-07-11T08:56:56Z</time>
      </trkpt>
      <trkpt lat="37.2839150" lon="-3.9867480">
        <ele>867.2</ele>
        <time>2020-07-11T08:56:57Z</time>
      </trkpt>
      <trkpt lat="37.2837810" lon="-3.9867360">
        <ele>866.6</ele>
        <time>2020-07-11T08:56:58Z</time>
      </trkpt>
      <trkpt lat="37.2835320" lon="-3.9867530">
        <ele>865.0</ele>
        <time>2020-07-11T08:57:00Z</time>
      </trkpt>
      <trkpt lat="37.2834000" lon="-3.9867860">
        <ele>864.0</ele>
        <time>2020-07-11T08:57:01Z</time>
      </trkpt>
      <trkpt lat="37.2832820" lon="-3.9868290">
        <ele>863.6</ele>
        <time>2020-07-11T08:57:02Z</time>
      </trkpt>
      <trkpt lat="37.2830410" lon="-3.9869280">
        <ele>861.6</ele>
        <time>2020-07-11T08:57:04Z</time>
      </trkpt>
      <trkpt lat="37.2829450" lon="-3.9869750">
        <ele>860.4</ele>
        <time>2020-07-11T08:57:05Z</time>
      </trkpt>
      <trkpt lat="37.2828590" lon="-3.9870410">
        <ele>859.8</ele>
        <time>2020-07-11T08:57:06Z</time>
      </trkpt>
      <trkpt lat="37.2827980" lon="-3.9871260">
        <ele>858.8</ele>
        <time>2020-07-11T08:57:07Z</time>
      </trkpt>
      <trkpt lat="37.2827640" lon="-3.9872500">
        <ele>857.8</ele>
        <time>2020-07-11T08:57:08Z</time>
      </trkpt>
      <trkpt lat="37.2827720" lon="-3.9873720">
        <ele>856.8</ele>
        <time>2020-07-11T08:57:09Z</time>
      </trkpt>
      <trkpt lat="37.2828070" lon="-3.9874970">
        <ele>855.8</ele>
        <time>2020-07-11T08:57:10Z</time>
      </trkpt>
      <trkpt lat="37.2828550" lon="-3.9876090">
        <ele>855.0</ele>
        <time>2020-07-11T08:57:11Z</time>
      </trkpt>
      <trkpt lat="37.2829830" lon="-3.9878490">
        <ele>853.4</ele>
        <time>2020-07-11T08:57:13Z</time>
      </trkpt>
      <trkpt lat="37.2830570" lon="-3.9879670">
        <ele>852.6</ele>
        <time>2020-07-11T08:57:14Z</time>
      </trkpt>
      <trkpt lat="37.2831320" lon="-3.9880810">
        <ele>852.2</ele>
        <time>2020-07-11T08:57:15Z</time>
      </trkpt>
      <trkpt lat="37.2832810" lon="-3.9883010">
        <ele>851.0</ele>
        <time>2020-07-11T08:57:17Z</time>
      </trkpt>
      <trkpt lat="37.2833570" lon="-3.9884160">
        <ele>850.2</ele>
        <time>2020-07-11T08:57:18Z</time>
      </trkpt>
      <trkpt lat="37.2834090" lon="-3.9885230">
        <ele>849.0</ele>
        <time>2020-07-11T08:57:19Z</time>
      </trkpt>
      <trkpt lat="37.2833950" lon="-3.9887360">
        <ele>847.0</ele>
        <time>2020-07-11T08:57:21Z</time>
      </trkpt>
      <trkpt lat="37.2832420" lon="-3.9888210">
        <ele>845.2</ele>
        <time>2020-07-11T08:57:23Z</time>
      </trkpt>
      <trkpt lat="37.2830540" lon="-3.9887930">
        <ele>844.0</ele>
        <time>2020-07-11T08:57:25Z</time>
      </trkpt>
      <trkpt lat="37.2829560" lon="-3.9887790">
        <ele>843.4</ele>
        <time>2020-07-11T08:57:26Z</time>
      </trkpt>
      <trkpt lat="37.2828610" lon="-3.9887760">
        <ele>843.0</ele>
        <time>2020-07-11T08:57:27Z</time>
      </trkpt>
      <trkpt lat="37.2827520" lon="-3.9887960">
        <ele>842.4</ele>
        <time>2020-07-11T08:57:28Z</time>
      </trkpt>
      <trkpt lat="37.2826570" lon="-3.9888380">
        <ele>841.8</ele>
        <time>2020-07-11T08:57:29Z</time>
      </trkpt>
      <trkpt lat="37.2825490" lon="-3.9889020">
        <ele>841.0</ele>
        <time>2020-07-11T08:57:30Z</time>
      </trkpt>
      <trkpt lat="37.2824470" lon="-3.9889540">
        <ele>840.2</ele>
        <time>2020-07-11T08:57:31Z</time>
      </trkpt>
      <trkpt lat="37.2823460" lon="-3.9889600">
        <ele>839.4</ele>
        <time>2020-07-11T08:57:32Z</time>
      </trkpt>
      <trkpt lat="37.2822390" lon="-3.9889120">
        <ele>838.6</ele>
        <time>2020-07-11T08:57:33Z</time>
      </trkpt>
      <trkpt lat="37.2821620" lon="-3.9888220">
        <ele>837.8</ele>
        <time>2020-07-11T08:57:34Z</time>
      </trkpt>
      <trkpt lat="37.2820990" lon="-3.9887090">
        <ele>837.2</ele>
        <time>2020-07-11T08:57:35Z</time>
      </trkpt>
      <trkpt lat="37.2820340" lon="-3.9886000">
        <ele>836.6</ele>
        <time>2020-07-11T08:57:36Z</time>
      </trkpt>
      <trkpt lat="37.2819650" lon="-3.9885020">
        <ele>836.0</ele>
        <time>2020-07-11T08:57:37Z</time>
      </trkpt>
      <trkpt lat="37.2818800" lon="-3.9884150">
        <ele>835.4</ele>
        <time>2020-07-11T08:57:38Z</time>
      </trkpt>
      <trkpt lat="37.2817860" lon="-3.9883640">
        <ele>834.6</ele>
        <time>2020-07-11T08:57:39Z</time>
      </trkpt>
      <trkpt lat="37.2816740" lon="-3.9883370">
        <ele>833.8</ele>
        <time>2020-07-11T08:57:40Z</time>
      </trkpt>
      <trkpt lat="37.2815680" lon="-3.9883240">
        <ele>833.2</ele>
        <time>2020-07-11T08:57:41Z</time>
      </trkpt>
      <trkpt lat="37.2814650" lon="-3.9883090">
        <ele>832.4</ele>
        <time>2020-07-11T08:57:42Z</time>
      </trkpt>
      <trkpt lat="37.2813410" lon="-3.9882940">
        <ele>831.6</ele>
        <time>2020-07-11T08:57:43Z</time>
      </trkpt>
      <trkpt lat="37.2812290" lon="-3.9882780">
        <ele>830.8</ele>
        <time>2020-07-11T08:57:44Z</time>
      </trkpt>
      <trkpt lat="37.2811160" lon="-3.9882660">
        <ele>830.2</ele>
        <time>2020-07-11T08:57:45Z</time>
      </trkpt>
      <trkpt lat="37.2808910" lon="-3.9882390">
        <ele>829.2</ele>
        <time>2020-07-11T08:57:47Z</time>
      </trkpt>
      <trkpt lat="37.2806380" lon="-3.9881790">
        <ele>828.0</ele>
        <time>2020-07-11T08:57:49Z</time>
      </trkpt>
      <trkpt lat="37.2805260" lon="-3.9881170">
        <ele>827.4</ele>
        <time>2020-07-11T08:57:50Z</time>
      </trkpt>
      <trkpt lat="37.2804240" lon="-3.9880350">
        <ele>826.6</ele>
        <time>2020-07-11T08:57:51Z</time>
      </trkpt>
      <trkpt lat="37.2803350" lon="-3.9879640">
        <ele>825.8</ele>
        <time>2020-07-11T08:57:52Z</time>
      </trkpt>
      <trkpt lat="37.2802270" lon="-3.9879090">
        <ele>825.0</ele>
        <time>2020-07-11T08:57:53Z</time>
      </trkpt>
      <trkpt lat="37.2800060" lon="-3.9878960">
        <ele>823.2</ele>
        <time>2020-07-11T08:57:55Z</time>
      </trkpt>
      <trkpt lat="37.2798030" lon="-3.9879670">
        <ele>821.4</ele>
        <time>2020-07-11T08:57:57Z</time>
      </trkpt>
      <trkpt lat="37.2796880" lon="-3.9880110">
        <ele>820.4</ele>
        <time>2020-07-11T08:57:58Z</time>
      </trkpt>
      <trkpt lat="37.2795850" lon="-3.9880510">
        <ele>819.2</ele>
        <time>2020-07-11T08:57:59Z</time>
      </trkpt>
      <trkpt lat="37.2793580" lon="-3.9881390">
        <ele>817.6</ele>
        <time>2020-07-11T08:58:01Z</time>
      </trkpt>
      <trkpt lat="37.2791350" lon="-3.9881720">
        <ele>816.0</ele>
        <time>2020-07-11T08:58:03Z</time>
      </trkpt>
      <trkpt lat="37.2790380" lon="-3.9881180">
        <ele>815.4</ele>
        <time>2020-07-11T08:58:04Z</time>
      </trkpt>
      <trkpt lat="37.2789630" lon="-3.9880500">
        <ele>815.0</ele>
        <time>2020-07-11T08:58:05Z</time>
      </trkpt>
      <trkpt lat="37.2788530" lon="-3.9879270">
        <ele>814.2</ele>
        <time>2020-07-11T08:58:06Z</time>
      </trkpt>
      <trkpt lat="37.2787800" lon="-3.9878080">
        <ele>813.8</ele>
        <time>2020-07-11T08:58:07Z</time>
      </trkpt>
      <trkpt lat="37.2786610" lon="-3.9875160">
        <ele>812.2</ele>
        <time>2020-07-11T08:58:09Z</time>
      </trkpt>
      <trkpt lat="37.2785840" lon="-3.9872200">
        <ele>810.2</ele>
        <time>2020-07-11T08:58:11Z</time>
      </trkpt>
      <trkpt lat="37.2785290" lon="-3.9870980">
        <ele>809.6</ele>
        <time>2020-07-11T08:58:12Z</time>
      </trkpt>
      <trkpt lat="37.2784380" lon="-3.9869870">
        <ele>808.6</ele>
        <time>2020-07-11T08:58:13Z</time>
      </trkpt>
      <trkpt lat="37.2783470" lon="-3.9869120">
        <ele>807.6</ele>
        <time>2020-07-11T08:58:14Z</time>
      </trkpt>
      <trkpt lat="37.2782270" lon="-3.9868640">
        <ele>806.6</ele>
        <time>2020-07-11T08:58:15Z</time>
      </trkpt>
      <trkpt lat="37.2781270" lon="-3.9868110">
        <ele>805.8</ele>
        <time>2020-07-11T08:58:16Z</time>
      </trkpt>
      <trkpt lat="37.2780420" lon="-3.9867410">
        <ele>804.8</ele>
        <time>2020-07-11T08:58:17Z</time>
      </trkpt>
      <trkpt lat="37.2778450" lon="-3.9865440">
        <ele>803.0</ele>
        <time>2020-07-11T08:58:19Z</time>
      </trkpt>
      <trkpt lat="37.2777610" lon="-3.9864390">
        <ele>802.0</ele>
        <time>2020-07-11T08:58:20Z</time>
      </trkpt>
      <trkpt lat="37.2776730" lon="-3.9863210">
        <ele>801.2</ele>
        <time>2020-07-11T08:58:21Z</time>
      </trkpt>
      <trkpt lat="37.2775010" lon="-3.9861070">
        <ele>799.6</ele>
        <time>2020-07-11T08:58:23Z</time>
      </trkpt>
      <trkpt lat="37.2772970" lon="-3.9858920">
        <ele>798.0</ele>
        <time>2020-07-11T08:58:25Z</time>
      </trkpt>
      <trkpt lat="37.2770980" lon="-3.9856900">
        <ele>796.2</ele>
        <time>2020-07-11T08:58:27Z</time>
      </trkpt>
      <trkpt lat="37.2769900" lon="-3.9855790">
        <ele>795.2</ele>
        <time>2020-07-11T08:58:28Z</time>
      </trkpt>
      <trkpt lat="37.2768960" lon="-3.9854970">
        <ele>794.2</ele>
        <time>2020-07-11T08:58:29Z</time>
      </trkpt>
      <trkpt lat="37.2767880" lon="-3.9854350">
        <ele>793.2</ele>
        <time>2020-07-11T08:58:30Z</time>
      </trkpt>
      <trkpt lat="37.2766810" lon="-3.9854000">
        <ele>792.2</ele>
        <time>2020-07-11T08:58:31Z</time>
      </trkpt>
      <trkpt lat="37.2764520" lon="-3.9854220">
        <ele>791.0</ele>
        <time>2020-07-11T08:58:33Z</time>
      </trkpt>
      <trkpt lat="37.2763350" lon="-3.9854410">
        <ele>790.2</ele>
        <time>2020-07-11T08:58:34Z</time>
      </trkpt>
      <trkpt lat="37.2762270" lon="-3.9854610">
        <ele>789.2</ele>
        <time>2020-07-11T08:58:35Z</time>
      </trkpt>
      <trkpt lat="37.2761130" lon="-3.9854990">
        <ele>788.0</ele>
        <time>2020-07-11T08:58:36Z</time>
      </trkpt>
      <trkpt lat="37.2760030" lon="-3.9855580">
        <ele>787.0</ele>
        <time>2020-07-11T08:58:37Z</time>
      </trkpt>
      <trkpt lat="37.2758930" lon="-3.9856460">
        <ele>786.2</ele>
        <time>2020-07-11T08:58:38Z</time>
      </trkpt>
      <trkpt lat="37.2757980" lon="-3.9857470">
        <ele>785.2</ele>
        <time>2020-07-11T08:58:39Z</time>
      </trkpt>
      <trkpt lat="37.2757090" lon="-3.9858580">
        <ele>784.2</ele>
        <time>2020-07-11T08:58:40Z</time>
      </trkpt>
      <trkpt lat="37.2756320" lon="-3.9859760">
        <ele>783.6</ele>
        <time>2020-07-11T08:58:41Z</time>
      </trkpt>
      <trkpt lat="37.2754820" lon="-3.9862480">
        <ele>782.0</ele>
        <time>2020-07-11T08:58:43Z</time>
      </trkpt>
      <trkpt lat="37.2753700" lon="-3.9865400">
        <ele>780.4</ele>
        <time>2020-07-11T08:58:45Z</time>
      </trkpt>
      <trkpt lat="37.2753350" lon="-3.9867060">
        <ele>779.6</ele>
        <time>2020-07-11T08:58:46Z</time>
      </trkpt>
      <trkpt lat="37.2753050" lon="-3.9868490">
        <ele>779.0</ele>
        <time>2020-07-11T08:58:47Z</time>
      </trkpt>
      <trkpt lat="37.2752460" lon="-3.9870200">
        <ele>778.2</ele>
        <time>2020-07-11T08:58:48Z</time>
      </trkpt>
      <trkpt lat="37.2751660" lon="-3.9871590">
        <ele>777.2</ele>
        <time>2020-07-11T08:58:49Z</time>
      </trkpt>
      <trkpt lat="37.2749760" lon="-3.9874070">
        <ele>775.2</ele>
        <time>2020-07-11T08:58:51Z</time>
      </trkpt>
      <trkpt lat="37.2748860" lon="-3.9875220">
        <ele>774.6</ele>
        <time>2020-07-11T08:58:52Z</time>
      </trkpt>
      <trkpt lat="37.2747910" lon="-3.9876520">
        <ele>774.0</ele>
        <time>2020-07-11T08:58:53Z</time>
      </trkpt>
      <trkpt lat="37.2746950" lon="-3.9877850">
        <ele>773.0</ele>
        <time>2020-07-11T08:58:54Z</time>
      </trkpt>
      <trkpt lat="37.2745230" lon="-3.9880140">
        <ele>770.8</ele>
        <time>2020-07-11T08:58:56Z</time>
      </trkpt>
      <trkpt lat="37.2744590" lon="-3.9881200">
        <ele>770.2</ele>
        <time>2020-07-11T08:58:57Z</time>
      </trkpt>
      <trkpt lat="37.2744070" lon="-3.9882590">
        <ele>769.2</ele>
        <time>2020-07-11T08:58:58Z</time>
      </trkpt>
      <trkpt lat="37.2743540" lon="-3.9885340">
        <ele>767.6</ele>
        <time>2020-07-11T08:59:00Z</time>
      </trkpt>
      <trkpt lat="37.2743220" lon="-3.9888120">
        <ele>766.2</ele>
        <time>2020-07-11T08:59:02Z</time>
      </trkpt>
      <trkpt lat="37.2743140" lon="-3.9890960">
        <ele>765.4</ele>
        <time>2020-07-11T08:59:04Z</time>
      </trkpt>
      <trkpt lat="37.2743200" lon="-3.9892170">
        <ele>765.0</ele>
        <time>2020-07-11T08:59:05Z</time>
      </trkpt>
      <trkpt lat="37.2743060" lon="-3.9893360">
        <ele>764.8</ele>
        <time>2020-07-11T08:59:06Z</time>
      </trkpt>
      <trkpt lat="37.2742550" lon="-3.9894350">
        <ele>764.4</ele>
        <time>2020-07-11T08:59:07Z</time>
      </trkpt>
      <trkpt lat="37.2741680" lon="-3.9894930">
        <ele>764.2</ele>
        <time>2020-07-11T08:59:08Z</time>
      </trkpt>
      <trkpt lat="37.2740770" lon="-3.9894810">
        <ele>763.8</ele>
        <time>2020-07-11T08:59:09Z</time>
      </trkpt>
      <trkpt lat="37.2739350" lon="-3.9893370">
        <ele>763.6</ele>
        <time>2020-07-11T08:59:11Z</time>
      </trkpt>
      <trkpt lat="37.2738100" lon="-3.9891260">
        <ele>763.2</ele>
        <time>2020-07-11T08:59:13Z</time>
      </trkpt>
      <trkpt lat="37.2737540" lon="-3.9890120">
        <ele>762.8</ele>
        <time>2020-07-11T08:59:14Z</time>
      </trkpt>
      <trkpt lat="37.2736850" lon="-3.9888840">
        <ele>762.2</ele>
        <time>2020-07-11T08:59:15Z</time>
      </trkpt>
      <trkpt lat="37.2736180" lon="-3.9887550">
        <ele>761.2</ele>
        <time>2020-07-11T08:59:16Z</time>
      </trkpt>
      <trkpt lat="37.2734620" lon="-3.9885450">
        <ele>759.4</ele>
        <time>2020-07-11T08:59:18Z</time>
      </trkpt>
      <trkpt lat="37.2732680" lon="-3.9883490">
        <ele>757.6</ele>
        <time>2020-07-11T08:59:20Z</time>
      </trkpt>
      <trkpt lat="37.2730660" lon="-3.9881540">
        <ele>756.0</ele>
        <time>2020-07-11T08:59:22Z</time>
      </trkpt>
      <trkpt lat="37.2728710" lon="-3.9879570">
        <ele>754.2</ele>
        <time>2020-07-11T08:59:24Z</time>
      </trkpt>
      <trkpt lat="37.2726660" lon="-3.9877560">
        <ele>752.4</ele>
        <time>2020-07-11T08:59:26Z</time>
      </trkpt>
      <trkpt lat="37.2724720" lon="-3.9875760">
        <ele>750.8</ele>
        <time>2020-07-11T08:59:28Z</time>
      </trkpt>
      <trkpt lat="37.2722710" lon="-3.9874090">
        <ele>749.0</ele>
        <time>2020-07-11T08:59:30Z</time>
      </trkpt>
      <trkpt lat="37.2721550" lon="-3.9873510">
        <ele>748.0</ele>
        <time>2020-07-11T08:59:31Z</time>
      </trkpt>
      <trkpt lat="37.2720410" lon="-3.9873180">
        <ele>747.2</ele>
        <time>2020-07-11T08:59:32Z</time>
      </trkpt>
      <trkpt lat="37.2718010" lon="-3.9872010">
        <ele>745.4</ele>
        <time>2020-07-11T08:59:34Z</time>
      </trkpt>
      <trkpt lat="37.2717080" lon="-3.9871140">
        <ele>744.4</ele>
        <time>2020-07-11T08:59:35Z</time>
      </trkpt>
      <trkpt lat="37.2716220" lon="-3.9869880">
        <ele>743.4</ele>
        <time>2020-07-11T08:59:36Z</time>
      </trkpt>
      <trkpt lat="37.2715660" lon="-3.9868740">
        <ele>742.8</ele>
        <time>2020-07-11T08:59:37Z</time>
      </trkpt>
      <trkpt lat="37.2715140" lon="-3.9865590">
        <ele>741.6</ele>
        <time>2020-07-11T08:59:39Z</time>
      </trkpt>
      <trkpt lat="37.2714910" lon="-3.9864030">
        <ele>740.8</ele>
        <time>2020-07-11T08:59:40Z</time>
      </trkpt>
      <trkpt lat="37.2714690" lon="-3.9862500">
        <ele>740.2</ele>
        <time>2020-07-11T08:59:41Z</time>
      </trkpt>
      <trkpt lat="37.2713990" lon="-3.9859690">
        <ele>738.4</ele>
        <time>2020-07-11T08:59:43Z</time>
      </trkpt>
      <trkpt lat="37.2713270" lon="-3.9858720">
        <ele>737.6</ele>
        <time>2020-07-11T08:59:44Z</time>
      </trkpt>
      <trkpt lat="37.2712490" lon="-3.9857650">
        <ele>736.6</ele>
        <time>2020-07-11T08:59:45Z</time>
      </trkpt>
      <trkpt lat="37.2711590" lon="-3.9856920">
        <ele>735.6</ele>
        <time>2020-07-11T08:59:46Z</time>
      </trkpt>
      <trkpt lat="37.2710600" lon="-3.9856360">
        <ele>734.6</ele>
        <time>2020-07-11T08:59:47Z</time>
      </trkpt>
      <trkpt lat="37.2709570" lon="-3.9855490">
        <ele>733.8</ele>
        <time>2020-07-11T08:59:48Z</time>
      </trkpt>
      <trkpt lat="37.2708160" lon="-3.9853020">
        <ele>732.0</ele>
        <time>2020-07-11T08:59:50Z</time>
      </trkpt>
      <trkpt lat="37.2708280" lon="-3.9850120">
        <ele>730.8</ele>
        <time>2020-07-11T08:59:52Z</time>
      </trkpt>
      <trkpt lat="37.2708610" lon="-3.9847120">
        <ele>729.4</ele>
        <time>2020-07-11T08:59:54Z</time>
      </trkpt>
      <trkpt lat="37.2708190" lon="-3.9844690">
        <ele>728.0</ele>
        <time>2020-07-11T08:59:56Z</time>
      </trkpt>
      <trkpt lat="37.2707520" lon="-3.9843760">
        <ele>727.4</ele>
        <time>2020-07-11T08:59:57Z</time>
      </trkpt>
      <trkpt lat="37.2706520" lon="-3.9842810">
        <ele>726.4</ele>
        <time>2020-07-11T08:59:58Z</time>
      </trkpt>
      <trkpt lat="37.2704370" lon="-3.9841920">
        <ele>725.2</ele>
        <time>2020-07-11T09:00:00Z</time>
      </trkpt>
      <trkpt lat="37.2702120" lon="-3.9842150">
        <ele>723.8</ele>
        <time>2020-07-11T09:00:02Z</time>
      </trkpt>
      <trkpt lat="37.2700940" lon="-3.9842570">
        <ele>723.0</ele>
        <time>2020-07-11T09:00:03Z</time>
      </trkpt>
      <trkpt lat="37.2699820" lon="-3.9843040">
        <ele>722.2</ele>
        <time>2020-07-11T09:00:04Z</time>
      </trkpt>
      <trkpt lat="37.2698740" lon="-3.9843470">
        <ele>721.0</ele>
        <time>2020-07-11T09:00:05Z</time>
      </trkpt>
      <trkpt lat="37.2696400" lon="-3.9844370">
        <ele>719.2</ele>
        <time>2020-07-11T09:00:07Z</time>
      </trkpt>
      <trkpt lat="37.2693890" lon="-3.9845090">
        <ele>717.6</ele>
        <time>2020-07-11T09:00:09Z</time>
      </trkpt>
      <trkpt lat="37.2691390" lon="-3.9845310">
        <ele>716.0</ele>
        <time>2020-07-11T09:00:11Z</time>
      </trkpt>
      <trkpt lat="37.2688790" lon="-3.9844920">
        <ele>714.6</ele>
        <time>2020-07-11T09:00:13Z</time>
      </trkpt>
      <trkpt lat="37.2686560" lon="-3.9843570">
        <ele>713.0</ele>
        <time>2020-07-11T09:00:15Z</time>
      </trkpt>
      <trkpt lat="37.2685710" lon="-3.9842530">
        <ele>712.2</ele>
        <time>2020-07-11T09:00:16Z</time>
      </trkpt>
      <trkpt lat="37.2685220" lon="-3.9841350">
        <ele>711.8</ele>
        <time>2020-07-11T09:00:17Z</time>
      </trkpt>
      <trkpt lat="37.2684900" lon="-3.9839750">
        <ele>711.0</ele>
        <time>2020-07-11T09:00:18Z</time>
      </trkpt>
      <trkpt lat="37.2684820" lon="-3.9838190">
        <ele>710.4</ele>
        <time>2020-07-11T09:00:19Z</time>
      </trkpt>
      <trkpt lat="37.2684730" lon="-3.9835110">
        <ele>708.6</ele>
        <time>2020-07-11T09:00:21Z</time>
      </trkpt>
      <trkpt lat="37.2684480" lon="-3.9832090">
        <ele>707.2</ele>
        <time>2020-07-11T09:00:23Z</time>
      </trkpt>
      <trkpt lat="37.2683820" lon="-3.9829060">
        <ele>705.8</ele>
        <time>2020-07-11T09:00:25Z</time>
      </trkpt>
      <trkpt lat="37.2682700" lon="-3.9826900">
        <ele>704.2</ele>
        <time>2020-07-11T09:00:27Z</time>
      </trkpt>
      <trkpt lat="37.2681750" lon="-3.9826150">
        <ele>703.4</ele>
        <time>2020-07-11T09:00:28Z</time>
      </trkpt>
      <trkpt lat="37.2680770" lon="-3.9825850">
        <ele>702.4</ele>
        <time>2020-07-11T09:00:29Z</time>
      </trkpt>
      <trkpt lat="37.2679600" lon="-3.9825850">
        <ele>701.6</ele>
        <time>2020-07-11T09:00:30Z</time>
      </trkpt>
      <trkpt lat="37.2678510" lon="-3.9826170">
        <ele>700.6</ele>
        <time>2020-07-11T09:00:31Z</time>
      </trkpt>
      <trkpt lat="37.2676390" lon="-3.9827160">
        <ele>698.8</ele>
        <time>2020-07-11T09:00:33Z</time>
      </trkpt>
      <trkpt lat="37.2674260" lon="-3.9828030">
        <ele>697.2</ele>
        <time>2020-07-11T09:00:35Z</time>
      </trkpt>
      <trkpt lat="37.2672010" lon="-3.9828770">
        <ele>695.8</ele>
        <time>2020-07-11T09:00:37Z</time>
      </trkpt>
      <trkpt lat="37.2669790" lon="-3.9829560">
        <ele>694.2</ele>
        <time>2020-07-11T09:00:39Z</time>
      </trkpt>
      <trkpt lat="37.2667670" lon="-3.9830140">
        <ele>692.8</ele>
        <time>2020-07-11T09:00:41Z</time>
      </trkpt>
      <trkpt lat="37.2665420" lon="-3.9830720">
        <ele>691.6</ele>
        <time>2020-07-11T09:00:43Z</time>
      </trkpt>
      <trkpt lat="37.2663190" lon="-3.9831310">
        <ele>690.4</ele>
        <time>2020-07-11T09:00:45Z</time>
      </trkpt>
      <trkpt lat="37.2661030" lon="-3.9832000">
        <ele>688.8</ele>
        <time>2020-07-11T09:00:47Z</time>
      </trkpt>
      <trkpt lat="37.2658620" lon="-3.9833170">
        <ele>686.8</ele>
        <time>2020-07-11T09:00:49Z</time>
      </trkpt>
      <trkpt lat="37.2657520" lon="-3.9833920">
        <ele>686.0</ele>
        <time>2020-07-11T09:00:50Z</time>
      </trkpt>
      <trkpt lat="37.2656440" lon="-3.9834720">
        <ele>685.2</ele>
        <time>2020-07-11T09:00:51Z</time>
      </trkpt>
      <trkpt lat="37.2654340" lon="-3.9836390">
        <ele>683.6</ele>
        <time>2020-07-11T09:00:53Z</time>
      </trkpt>
      <trkpt lat="37.2652090" lon="-3.9838130">
        <ele>682.2</ele>
        <time>2020-07-11T09:00:55Z</time>
      </trkpt>
      <trkpt lat="37.2649930" lon="-3.9839750">
        <ele>680.8</ele>
        <time>2020-07-11T09:00:57Z</time>
      </trkpt>
      <trkpt lat="37.2647600" lon="-3.9841370">
        <ele>679.2</ele>
        <time>2020-07-11T09:00:59Z</time>
      </trkpt>
      <trkpt lat="37.2645140" lon="-3.9842940">
        <ele>677.6</ele>
        <time>2020-07-11T09:01:01Z</time>
      </trkpt>
      <trkpt lat="37.2644020" lon="-3.9843650">
        <ele>676.8</ele>
        <time>2020-07-11T09:01:02Z</time>
      </trkpt>
      <trkpt lat="37.2642760" lon="-3.9844460">
        <ele>676.0</ele>
        <time>2020-07-11T09:01:03Z</time>
      </trkpt>
      <trkpt lat="37.2640670" lon="-3.9846120">
        <ele>674.6</ele>
        <time>2020-07-11T09:01:05Z</time>
      </trkpt>
      <trkpt lat="37.2639950" lon="-3.9846980">
        <ele>674.0</ele>
        <time>2020-07-11T09:01:06Z</time>
      </trkpt>
      <trkpt lat="37.2638370" lon="-3.9849940">
        <ele>672.6</ele>
        <time>2020-07-11T09:01:08Z</time>
      </trkpt>
      <trkpt lat="37.2637840" lon="-3.9851300">
        <ele>672.0</ele>
        <time>2020-07-11T09:01:09Z</time>
      </trkpt>
      <trkpt lat="37.2637270" lon="-3.9852750">
        <ele>671.4</ele>
        <time>2020-07-11T09:01:10Z</time>
      </trkpt>
      <trkpt lat="37.2636010" lon="-3.9855080">
        <ele>669.4</ele>
        <time>2020-07-11T09:01:12Z</time>
      </trkpt>
      <trkpt lat="37.2634930" lon="-3.9855870">
        <ele>668.6</ele>
        <time>2020-07-11T09:01:13Z</time>
      </trkpt>
      <trkpt lat="37.2633800" lon="-3.9856100">
        <ele>667.8</ele>
        <time>2020-07-11T09:01:14Z</time>
      </trkpt>
      <trkpt lat="37.2632630" lon="-3.9856140">
        <ele>667.2</ele>
        <time>2020-07-11T09:01:15Z</time>
      </trkpt>
      <trkpt lat="37.2631460" lon="-3.9855990">
        <ele>666.4</ele>
        <time>2020-07-11T09:01:16Z</time>
      </trkpt>
      <trkpt lat="37.2630410" lon="-3.9855870">
        <ele>665.8</ele>
        <time>2020-07-11T09:01:17Z</time>
      </trkpt>
      <trkpt lat="37.2629090" lon="-3.9855750">
        <ele>665.2</ele>
        <time>2020-07-11T09:01:18Z</time>
      </trkpt>
      <trkpt lat="37.2627860" lon="-3.9855680">
        <ele>664.6</ele>
        <time>2020-07-11T09:01:19Z</time>
      </trkpt>
      <trkpt lat="37.2626650" lon="-3.9855610">
        <ele>663.8</ele>
        <time>2020-07-11T09:01:20Z</time>
      </trkpt>
      <trkpt lat="37.2624210" lon="-3.9855390">
        <ele>662.4</ele>
        <time>2020-07-11T09:01:22Z</time>
      </trkpt>
      <trkpt lat="37.2621730" lon="-3.9854690">
        <ele>661.0</ele>
        <time>2020-07-11T09:01:24Z</time>
      </trkpt>
      <trkpt lat="37.2620680" lon="-3.9853780">
        <ele>660.2</ele>
        <time>2020-07-11T09:01:25Z</time>
      </trkpt>
      <trkpt lat="37.2619850" lon="-3.9852580">
        <ele>659.4</ele>
        <time>2020-07-11T09:01:26Z</time>
      </trkpt>
      <trkpt lat="37.2619440" lon="-3.9851140">
        <ele>659.0</ele>
        <time>2020-07-11T09:01:27Z</time>
      </trkpt>
      <trkpt lat="37.2619210" lon="-3.9849480">
        <ele>658.2</ele>
        <time>2020-07-11T09:01:28Z</time>
      </trkpt>
      <trkpt lat="37.2619160" lon="-3.9848000">
        <ele>657.4</ele>
        <time>2020-07-11T09:01:29Z</time>
      </trkpt>
      <trkpt lat="37.2619080" lon="-3.9846420">
        <ele>656.8</ele>
        <time>2020-07-11T09:01:30Z</time>
      </trkpt>
      <trkpt lat="37.2618910" lon="-3.9843440">
        <ele>655.4</ele>
        <time>2020-07-11T09:01:32Z</time>
      </trkpt>
      <trkpt lat="37.2618760" lon="-3.9840320">
        <ele>654.0</ele>
        <time>2020-07-11T09:01:34Z</time>
      </trkpt>
      <trkpt lat="37.2618630" lon="-3.9837380">
        <ele>652.6</ele>
        <time>2020-07-11T09:01:36Z</time>
      </trkpt>
      <trkpt lat="37.2618560" lon="-3.9835910">
        <ele>652.0</ele>
        <time>2020-07-11T09:01:37Z</time>
      </trkpt>
      <trkpt lat="37.2618550" lon="-3.9834340">
        <ele>651.4</ele>
        <time>2020-07-11T09:01:38Z</time>
      </trkpt>
      <trkpt lat="37.2618700" lon="-3.9831400">
        <ele>650.2</ele>
        <time>2020-07-11T09:01:40Z</time>
      </trkpt>
      <trkpt lat="37.2619080" lon="-3.9828650">
        <ele>649.2</ele>
        <time>2020-07-11T09:01:42Z</time>
      </trkpt>
      <trkpt lat="37.2619090" lon="-3.9825570">
        <ele>647.8</ele>
        <time>2020-07-11T09:01:44Z</time>
      </trkpt>
      <trkpt lat="37.2618730" lon="-3.9824140">
        <ele>647.2</ele>
        <time>2020-07-11T09:01:45Z</time>
      </trkpt>
      <trkpt lat="37.2618180" lon="-3.9822810">
        <ele>646.6</ele>
        <time>2020-07-11T09:01:46Z</time>
      </trkpt>
      <trkpt lat="37.2617020" lon="-3.9820220">
        <ele>645.6</ele>
        <time>2020-07-11T09:01:48Z</time>
      </trkpt>
      <trkpt lat="37.2616770" lon="-3.9818740">
        <ele>645.2</ele>
        <time>2020-07-11T09:01:49Z</time>
      </trkpt>
      <trkpt lat="37.2616870" lon="-3.9817120">
        <ele>644.8</ele>
        <time>2020-07-11T09:01:50Z</time>
      </trkpt>
      <trkpt lat="37.2617240" lon="-3.9815690">
        <ele>644.2</ele>
        <time>2020-07-11T09:01:51Z</time>
      </trkpt>
      <trkpt lat="37.2617760" lon="-3.9814360">
        <ele>643.2</ele>
        <time>2020-07-11T09:01:52Z</time>
      </trkpt>
      <trkpt lat="37.2618250" lon="-3.9812970">
        <ele>642.2</ele>
        <time>2020-07-11T09:01:53Z</time>
      </trkpt>
      <trkpt lat="37.2618590" lon="-3.9811540">
        <ele>641.2</ele>
        <time>2020-07-11T09:01:54Z</time>
      </trkpt>
      <trkpt lat="37.2618740" lon="-3.9810030">
        <ele>640.0</ele>
        <time>2020-07-11T09:01:55Z</time>
      </trkpt>
      <trkpt lat="37.2618590" lon="-3.9808560">
        <ele>639.2</ele>
        <time>2020-07-11T09:01:56Z</time>
      </trkpt>
      <trkpt lat="37.2618220" lon="-3.9807290">
        <ele>638.4</ele>
        <time>2020-07-11T09:01:57Z</time>
      </trkpt>
      <trkpt lat="37.2617630" lon="-3.9805900">
        <ele>637.8</ele>
        <time>2020-07-11T09:01:58Z</time>
      </trkpt>
      <trkpt lat="37.2617010" lon="-3.9804780">
        <ele>637.0</ele>
        <time>2020-07-11T09:01:59Z</time>
      </trkpt>
      <trkpt lat="37.2615520" lon="-3.9802400">
        <ele>635.8</ele>
        <time>2020-07-11T09:02:01Z</time>
      </trkpt>
      <trkpt lat="37.2614100" lon="-3.9799960">
        <ele>634.2</ele>
        <time>2020-07-11T09:02:03Z</time>
      </trkpt>
      <trkpt lat="37.2613100" lon="-3.9797270">
        <ele>632.8</ele>
        <time>2020-07-11T09:02:05Z</time>
      </trkpt>
      <trkpt lat="37.2612950" lon="-3.9795710">
        <ele>632.0</ele>
        <time>2020-07-11T09:02:06Z</time>
      </trkpt>
      <trkpt lat="37.2612990" lon="-3.9794230">
        <ele>631.4</ele>
        <time>2020-07-11T09:02:07Z</time>
      </trkpt>
      <trkpt lat="37.2613210" lon="-3.9791030">
        <ele>629.8</ele>
        <time>2020-07-11T09:02:09Z</time>
      </trkpt>
      <trkpt lat="37.2613460" lon="-3.9788000">
        <ele>628.4</ele>
        <time>2020-07-11T09:02:11Z</time>
      </trkpt>
      <trkpt lat="37.2613650" lon="-3.9784790">
        <ele>627.4</ele>
        <time>2020-07-11T09:02:13Z</time>
      </trkpt>
      <trkpt lat="37.2613590" lon="-3.9783260">
        <ele>627.0</ele>
        <time>2020-07-11T09:02:14Z</time>
      </trkpt>
      <trkpt lat="37.2613350" lon="-3.9781740">
        <ele>626.2</ele>
        <time>2020-07-11T09:02:15Z</time>
      </trkpt>
      <trkpt lat="37.2612550" lon="-3.9778990">
        <ele>624.6</ele>
        <time>2020-07-11T09:02:17Z</time>
      </trkpt>
      <trkpt lat="37.2612030" lon="-3.9777430">
        <ele>623.8</ele>
        <time>2020-07-11T09:02:18Z</time>
      </trkpt>
      <trkpt lat="37.2611530" lon="-3.9775880">
        <ele>622.8</ele>
        <time>2020-07-11T09:02:19Z</time>
      </trkpt>
      <trkpt lat="37.2610550" lon="-3.9772870">
        <ele>621.4</ele>
        <time>2020-07-11T09:02:21Z</time>
      </trkpt>
      <trkpt lat="37.2609640" lon="-3.9769940">
        <ele>619.8</ele>
        <time>2020-07-11T09:02:23Z</time>
      </trkpt>
      <trkpt lat="37.2608680" lon="-3.9766960">
        <ele>618.6</ele>
        <time>2020-07-11T09:02:25Z</time>
      </trkpt>
      <trkpt lat="37.2608200" lon="-3.9765520">
        <ele>618.2</ele>
        <time>2020-07-11T09:02:26Z</time>
      </trkpt>
      <trkpt lat="37.2607280" lon="-3.9762680">
        <ele>617.4</ele>
        <time>2020-07-11T09:02:28Z</time>
      </trkpt>
      <trkpt lat="37.2605860" lon="-3.9758560">
        <ele>616.4</ele>
        <time>2020-07-11T09:02:31Z</time>
      </trkpt>
      <trkpt lat="37.2604500" lon="-3.9754270">
        <ele>614.8</ele>
        <time>2020-07-11T09:02:34Z</time>
      </trkpt>
      <trkpt lat="37.2603150" lon="-3.9749990">
        <ele>613.2</ele>
        <time>2020-07-11T09:02:37Z</time>
      </trkpt>
      <trkpt lat="37.2602210" lon="-3.9747040">
        <ele>611.6</ele>
        <time>2020-07-11T09:02:39Z</time>
      </trkpt>
      <trkpt lat="37.2601270" lon="-3.9744090">
        <ele>610.2</ele>
        <time>2020-07-11T09:02:41Z</time>
      </trkpt>
      <trkpt lat="37.2600280" lon="-3.9741060">
        <ele>608.6</ele>
        <time>2020-07-11T09:02:43Z</time>
      </trkpt>
      <trkpt lat="37.2599340" lon="-3.9738170">
        <ele>607.6</ele>
        <time>2020-07-11T09:02:45Z</time>
      </trkpt>
      <trkpt lat="37.2597850" lon="-3.9734010">
        <ele>606.0</ele>
        <time>2020-07-11T09:02:48Z</time>
      </trkpt>
      <trkpt lat="37.2596430" lon="-3.9731420">
        <ele>605.0</ele>
        <time>2020-07-11T09:02:50Z</time>
      </trkpt>
      <trkpt lat="37.2594860" lon="-3.9729220">
        <ele>603.6</ele>
        <time>2020-07-11T09:02:52Z</time>
      </trkpt>
      <trkpt lat="37.2593230" lon="-3.9726920">
        <ele>602.2</ele>
        <time>2020-07-11T09:02:54Z</time>
      </trkpt>
      <trkpt lat="37.2592420" lon="-3.9725770">
        <ele>601.4</ele>
        <time>2020-07-11T09:02:55Z</time>
      </trkpt>
      <trkpt lat="37.2591650" lon="-3.9724660">
        <ele>600.6</ele>
        <time>2020-07-11T09:02:56Z</time>
      </trkpt>
      <trkpt lat="37.2590050" lon="-3.9722470">
        <ele>599.4</ele>
        <time>2020-07-11T09:02:58Z</time>
      </trkpt>
      <trkpt lat="37.2588390" lon="-3.9720400">
        <ele>598.0</ele>
        <time>2020-07-11T09:03:00Z</time>
      </trkpt>
      <trkpt lat="37.2586690" lon="-3.9718350">
        <ele>596.8</ele>
        <time>2020-07-11T09:03:02Z</time>
      </trkpt>
      <trkpt lat="37.2585760" lon="-3.9717190">
        <ele>596.2</ele>
        <time>2020-07-11T09:03:03Z</time>
      </trkpt>
      <trkpt lat="37.2584870" lon="-3.9716080">
        <ele>595.4</ele>
        <time>2020-07-11T09:03:04Z</time>
      </trkpt>
      <trkpt lat="37.2583170" lon="-3.9713890">
        <ele>594.2</ele>
        <time>2020-07-11T09:03:06Z</time>
      </trkpt>
      <trkpt lat="37.2581860" lon="-3.9711750">
        <ele>593.0</ele>
        <time>2020-07-11T09:03:08Z</time>
      </trkpt>
      <trkpt lat="37.2581670" lon="-3.9709230">
        <ele>591.8</ele>
        <time>2020-07-11T09:03:10Z</time>
      </trkpt>
      <trkpt lat="37.2582510" lon="-3.9705530">
        <ele>590.2</ele>
        <time>2020-07-11T09:03:13Z</time>
      </trkpt>
      <trkpt lat="37.2583300" lon="-3.9701920">
        <ele>589.0</ele>
        <time>2020-07-11T09:03:16Z</time>
      </trkpt>
      <trkpt lat="37.2584320" lon="-3.9696070">
        <ele>588.0</ele>
        <time>2020-07-11T09:03:21Z</time>
      </trkpt>
      <trkpt lat="37.2584200" lon="-3.9694970">
        <ele>587.8</ele>
        <time>2020-07-11T09:03:22Z</time>
      </trkpt>
      <trkpt lat="37.2583260" lon="-3.9693020">
        <ele>587.2</ele>
        <time>2020-07-11T09:03:24Z</time>
      </trkpt>
      <trkpt lat="37.2581830" lon="-3.9691590">
        <ele>586.6</ele>
        <time>2020-07-11T09:03:26Z</time>
      </trkpt>
      <trkpt lat="37.2581180" lon="-3.9690920">
        <ele>586.4</ele>
        <time>2020-07-11T09:03:27Z</time>
      </trkpt>
      <trkpt lat="37.2577800" lon="-3.9687360">
        <ele>585.6</ele>
        <time>2020-07-11T09:03:32Z</time>
      </trkpt>
      <trkpt lat="37.2575860" lon="-3.9685310">
        <ele>584.8</ele>
        <time>2020-07-11T09:03:35Z</time>
      </trkpt>
      <trkpt lat="37.2574610" lon="-3.9684000">
        <ele>584.4</ele>
        <time>2020-07-11T09:03:37Z</time>
      </trkpt>
      <trkpt lat="37.2572740" lon="-3.9681940">
        <ele>583.6</ele>
        <time>2020-07-11T09:03:40Z</time>
      </trkpt>
      <trkpt lat="37.2571570" lon="-3.9680700">
        <ele>583.2</ele>
        <time>2020-07-11T09:03:42Z</time>
      </trkpt>
      <trkpt lat="37.2570310" lon="-3.9679430">
        <ele>582.8</ele>
        <time>2020-07-11T09:03:44Z</time>
      </trkpt>
      <trkpt lat="37.2568650" lon="-3.9677630">
        <ele>582.2</ele>
        <time>2020-07-11T09:03:47Z</time>
      </trkpt>
      <trkpt lat="37.2567370" lon="-3.9676280">
        <ele>581.8</ele>
        <time>2020-07-11T09:03:49Z</time>
      </trkpt>
      <trkpt lat="37.2566150" lon="-3.9674990">
        <ele>581.6</ele>
        <time>2020-07-11T09:03:51Z</time>
      </trkpt>
      <trkpt lat="37.2565570" lon="-3.9674370">
        <ele>581.6</ele>
        <time>2020-07-11T09:03:52Z</time>
      </trkpt>
      <trkpt lat="37.2564280" lon="-3.9673040">
        <ele>581.2</ele>
        <time>2020-07-11T09:03:54Z</time>
      </trkpt>
      <trkpt lat="37.2562990" lon="-3.9671690">
        <ele>581.0</ele>
        <time>2020-07-11T09:03:56Z</time>
      </trkpt>
      <trkpt lat="37.2559250" lon="-3.9667680">
        <ele>580.2</ele>
        <time>2020-07-11T09:04:02Z</time>
      </trkpt>
      <trkpt lat="37.2557420" lon="-3.9665730">
        <ele>579.8</ele>
        <time>2020-07-11T09:04:05Z</time>
      </trkpt>
      <trkpt lat="37.2555550" lon="-3.9663770">
        <ele>579.6</ele>
        <time>2020-07-11T09:04:08Z</time>
      </trkpt>
      <trkpt lat="37.2554340" lon="-3.9662510">
        <ele>579.6</ele>
        <time>2020-07-11T09:04:10Z</time>
      </trkpt>
      <trkpt lat="37.2553760" lon="-3.9661900">
        <ele>579.6</ele>
        <time>2020-07-11T09:04:11Z</time>
      </trkpt>
      <trkpt lat="37.2551960" lon="-3.9659980">
        <ele>579.2</ele>
        <time>2020-07-11T09:04:14Z</time>
      </trkpt>
      <trkpt lat="37.2548560" lon="-3.9656380">
        <ele>579.2</ele>
        <time>2020-07-11T09:04:20Z</time>
      </trkpt>
      <trkpt lat="37.2547490" lon="-3.9655240">
        <ele>579.4</ele>
        <time>2020-07-11T09:04:22Z</time>
      </trkpt>
      <trkpt lat="37.2543110" lon="-3.9650580">
        <ele>579.4</ele>
        <time>2020-07-11T09:04:30Z</time>
      </trkpt>
      <trkpt lat="37.2541490" lon="-3.9648790">
        <ele>579.2</ele>
        <time>2020-07-11T09:04:33Z</time>
      </trkpt>
      <trkpt lat="37.2536980" lon="-3.9644330">
        <ele>579.4</ele>
        <time>2020-07-11T09:04:41Z</time>
      </trkpt>
      <trkpt lat="37.2533810" lon="-3.9642290">
        <ele>579.2</ele>
        <time>2020-07-11T09:04:46Z</time>
      </trkpt>
      <trkpt lat="37.2533220" lon="-3.9642040">
        <ele>579.2</ele>
        <time>2020-07-11T09:04:47Z</time>
      </trkpt>
      <trkpt lat="37.2529120" lon="-3.9641110">
        <ele>579.2</ele>
        <time>2020-07-11T09:04:53Z</time>
      </trkpt>
      <trkpt lat="37.2524260" lon="-3.9641310">
        <ele>578.8</ele>
        <time>2020-07-11T09:05:00Z</time>
      </trkpt>
      <trkpt lat="37.2522150" lon="-3.9641650">
        <ele>578.8</ele>
        <time>2020-07-11T09:05:03Z</time>
      </trkpt>
      <trkpt lat="37.2519250" lon="-3.9642110">
        <ele>578.6</ele>
        <time>2020-07-11T09:05:07Z</time>
      </trkpt>
      <trkpt lat="37.2516160" lon="-3.9642590">
        <ele>578.2</ele>
        <time>2020-07-11T09:05:11Z</time>
      </trkpt>
      <trkpt lat="37.2513790" lon="-3.9642880">
        <ele>578.0</ele>
        <time>2020-07-11T09:05:14Z</time>
      </trkpt>
      <trkpt lat="37.2512990" lon="-3.9642980">
        <ele>577.8</ele>
        <time>2020-07-11T09:05:15Z</time>
      </trkpt>
      <trkpt lat="37.2507490" lon="-3.9643640">
        <ele>577.8</ele>
        <time>2020-07-11T09:05:22Z</time>
      </trkpt>
      <trkpt lat="37.2505030" lon="-3.9643970">
        <ele>577.6</ele>
        <time>2020-07-11T09:05:25Z</time>
      </trkpt>
      <trkpt lat="37.2500070" lon="-3.9644920">
        <ele>576.6</ele>
        <time>2020-07-11T09:05:31Z</time>
      </trkpt>
      <trkpt lat="37.2498460" lon="-3.9645540">
        <ele>576.4</ele>
        <time>2020-07-11T09:05:33Z</time>
      </trkpt>
      <trkpt lat="37.2497770" lon="-3.9646000">
        <ele>576.4</ele>
        <time>2020-07-11T09:05:34Z</time>
      </trkpt>
      <trkpt lat="37.2495770" lon="-3.9647850">
        <ele>576.2</ele>
        <time>2020-07-11T09:05:37Z</time>
      </trkpt>
      <trkpt lat="37.2495090" lon="-3.9648470">
        <ele>576.2</ele>
        <time>2020-07-11T09:05:38Z</time>
      </trkpt>
      <trkpt lat="37.2491470" lon="-3.9650780">
        <ele>576.0</ele>
        <time>2020-07-11T09:05:43Z</time>
      </trkpt>
      <trkpt lat="37.2488320" lon="-3.9651980">
        <ele>575.6</ele>
        <time>2020-07-11T09:05:47Z</time>
      </trkpt>
      <trkpt lat="37.2486580" lon="-3.9652430">
        <ele>575.4</ele>
        <time>2020-07-11T09:05:49Z</time>
      </trkpt>
      <trkpt lat="37.2480610" lon="-3.9653120">
        <ele>574.8</ele>
        <time>2020-07-11T09:05:56Z</time>
      </trkpt>
      <trkpt lat="37.2478920" lon="-3.9653230">
        <ele>574.4</ele>
        <time>2020-07-11T09:05:58Z</time>
      </trkpt>
      <trkpt lat="37.2473960" lon="-3.9653490">
        <ele>574.2</ele>
        <time>2020-07-11T09:06:04Z</time>
      </trkpt>
      <trkpt lat="37.2468430" lon="-3.9653810">
        <ele>573.6</ele>
        <time>2020-07-11T09:06:11Z</time>
      </trkpt>
      <trkpt lat="37.2466800" lon="-3.9653800">
        <ele>573.6</ele>
        <time>2020-07-11T09:06:13Z</time>
      </trkpt>
      <trkpt lat="37.2463730" lon="-3.9653390">
        <ele>573.4</ele>
        <time>2020-07-11T09:06:17Z</time>
      </trkpt>
      <trkpt lat="37.2462080" lon="-3.9653100">
        <ele>573.2</ele>
        <time>2020-07-11T09:06:19Z</time>
      </trkpt>
      <trkpt lat="37.2456610" lon="-3.9652030">
        <ele>572.6</ele>
        <time>2020-07-11T09:06:26Z</time>
      </trkpt>
      <trkpt lat="37.2454310" lon="-3.9651690">
        <ele>572.4</ele>
        <time>2020-07-11T09:06:29Z</time>
      </trkpt>
      <trkpt lat="37.2453450" lon="-3.9651470">
        <ele>572.4</ele>
        <time>2020-07-11T09:06:30Z</time>
      </trkpt>
      <trkpt lat="37.2452710" lon="-3.9651080">
        <ele>572.2</ele>
        <time>2020-07-11T09:06:31Z</time>
      </trkpt>
      <trkpt lat="37.2451420" lon="-3.9649820">
        <ele>572.2</ele>
        <time>2020-07-11T09:06:33Z</time>
      </trkpt>
      <trkpt lat="37.2450270" lon="-3.9647120">
        <ele>572.0</ele>
        <time>2020-07-11T09:06:36Z</time>
      </trkpt>
      <trkpt lat="37.2449800" lon="-3.9645090">
        <ele>571.8</ele>
        <time>2020-07-11T09:06:38Z</time>
      </trkpt>
      <trkpt lat="37.2449270" lon="-3.9643020">
        <ele>571.2</ele>
        <time>2020-07-11T09:06:40Z</time>
      </trkpt>
      <trkpt lat="37.2448570" lon="-3.9641140">
        <ele>570.8</ele>
        <time>2020-07-11T09:06:42Z</time>
      </trkpt>
      <trkpt lat="37.2447000" lon="-3.9639980">
        <ele>570.0</ele>
        <time>2020-07-11T09:06:44Z</time>
      </trkpt>
      <trkpt lat="37.2445000" lon="-3.9639770">
        <ele>569.0</ele>
        <time>2020-07-11T09:06:46Z</time>
      </trkpt>
      <trkpt lat="37.2444220" lon="-3.9639700">
        <ele>568.6</ele>
        <time>2020-07-11T09:06:47Z</time>
      </trkpt>
      <trkpt lat="37.2442980" lon="-3.9639620">
        <ele>567.8</ele>
        <time>2020-07-11T09:06:48Z</time>
      </trkpt>
      <trkpt lat="37.2440740" lon="-3.9639460">
        <ele>566.6</ele>
        <time>2020-07-11T09:06:50Z</time>
      </trkpt>
      <trkpt lat="37.2438490" lon="-3.9639330">
        <ele>565.4</ele>
        <time>2020-07-11T09:06:52Z</time>
      </trkpt>
      <trkpt lat="37.2437340" lon="-3.9639260">
        <ele>564.6</ele>
        <time>2020-07-11T09:06:53Z</time>
      </trkpt>
      <trkpt lat="37.2436090" lon="-3.9639180">
        <ele>564.0</ele>
        <time>2020-07-11T09:06:54Z</time>
      </trkpt>
      <trkpt lat="37.2434920" lon="-3.9639100">
        <ele>563.6</ele>
        <time>2020-07-11T09:06:55Z</time>
      </trkpt>
      <trkpt lat="37.2433730" lon="-3.9639010">
        <ele>562.8</ele>
        <time>2020-07-11T09:06:56Z</time>
      </trkpt>
      <trkpt lat="37.2431550" lon="-3.9638840">
        <ele>561.4</ele>
        <time>2020-07-11T09:06:58Z</time>
      </trkpt>
      <trkpt lat="37.2429110" lon="-3.9638680">
        <ele>560.2</ele>
        <time>2020-07-11T09:07:00Z</time>
      </trkpt>
      <trkpt lat="37.2428020" lon="-3.9638580">
        <ele>559.2</ele>
        <time>2020-07-11T09:07:01Z</time>
      </trkpt>
      <trkpt lat="37.2427020" lon="-3.9638520">
        <ele>558.4</ele>
        <time>2020-07-11T09:07:02Z</time>
      </trkpt>
      <trkpt lat="37.2425910" lon="-3.9638450">
        <ele>557.8</ele>
        <time>2020-07-11T09:07:03Z</time>
      </trkpt>
      <trkpt lat="37.2424910" lon="-3.9638360">
        <ele>557.2</ele>
        <time>2020-07-11T09:07:04Z</time>
      </trkpt>
      <trkpt lat="37.2422060" lon="-3.9638190">
        <ele>556.6</ele>
        <time>2020-07-11T09:07:07Z</time>
      </trkpt>
      <trkpt lat="37.2419960" lon="-3.9638030">
        <ele>556.6</ele>
        <time>2020-07-11T09:07:09Z</time>
      </trkpt>
      <trkpt lat="37.2418980" lon="-3.9637960">
        <ele>556.6</ele>
        <time>2020-07-11T09:07:10Z</time>
      </trkpt>
      <trkpt lat="37.2416240" lon="-3.9637750">
        <ele>556.2</ele>
        <time>2020-07-11T09:07:13Z</time>
      </trkpt>
      <trkpt lat="37.2414440" lon="-3.9637620">
        <ele>555.8</ele>
        <time>2020-07-11T09:07:15Z</time>
      </trkpt>
      <trkpt lat="37.2413530" lon="-3.9637540">
        <ele>555.6</ele>
        <time>2020-07-11T09:07:16Z</time>
      </trkpt>
      <trkpt lat="37.2410870" lon="-3.9637320">
        <ele>555.2</ele>
        <time>2020-07-11T09:07:19Z</time>
      </trkpt>
      <trkpt lat="37.2406720" lon="-3.9637010">
        <ele>554.6</ele>
        <time>2020-07-11T09:07:23Z</time>
      </trkpt>
      <trkpt lat="37.2403140" lon="-3.9636730">
        <ele>553.8</ele>
        <time>2020-07-11T09:07:27Z</time>
      </trkpt>
      <trkpt lat="37.2402290" lon="-3.9636660">
        <ele>553.6</ele>
        <time>2020-07-11T09:07:28Z</time>
      </trkpt>
      <trkpt lat="37.2401340" lon="-3.9636570">
        <ele>553.4</ele>
        <time>2020-07-11T09:07:29Z</time>
      </trkpt>
      <trkpt lat="37.2395140" lon="-3.9636040">
        <ele>552.4</ele>
        <time>2020-07-11T09:07:36Z</time>
      </trkpt>
      <trkpt lat="37.2393330" lon="-3.9635910">
        <ele>552.2</ele>
        <time>2020-07-11T09:07:38Z</time>
      </trkpt>
      <trkpt lat="37.2388910" lon="-3.9635540">
        <ele>551.2</ele>
        <time>2020-07-11T09:07:43Z</time>
      </trkpt>
      <trkpt lat="37.2385610" lon="-3.9635270">
        <ele>550.8</ele>
        <time>2020-07-11T09:07:47Z</time>
      </trkpt>
      <trkpt lat="37.2382190" lon="-3.9634910">
        <ele>550.2</ele>
        <time>2020-07-11T09:07:52Z</time>
      </trkpt>
      <trkpt lat="37.2381480" lon="-3.9634130">
        <ele>550.2</ele>
        <time>2020-07-11T09:07:54Z</time>
      </trkpt>
      <trkpt lat="37.2381430" lon="-3.9633450">
        <ele>550.0</ele>
        <time>2020-07-11T09:07:55Z</time>
      </trkpt>
      <trkpt lat="37.2381880" lon="-3.9631470">
        <ele>549.6</ele>
        <time>2020-07-11T09:07:58Z</time>
      </trkpt>
      <trkpt lat="37.2382120" lon="-3.9630710">
        <ele>549.6</ele>
        <time>2020-07-11T09:07:59Z</time>
      </trkpt>
      <trkpt lat="37.2382570" lon="-3.9629300">
        <ele>549.2</ele>
        <time>2020-07-11T09:08:01Z</time>
      </trkpt>
      <trkpt lat="37.2382850" lon="-3.9628510">
        <ele>549.2</ele>
        <time>2020-07-11T09:08:02Z</time>
      </trkpt>
      <trkpt lat="37.2383660" lon="-3.9626170">
        <ele>549.2</ele>
        <time>2020-07-11T09:08:05Z</time>
      </trkpt>
      <trkpt lat="37.2385870" lon="-3.9619710">
        <ele>549.0</ele>
        <time>2020-07-11T09:08:13Z</time>
      </trkpt>
      <trkpt lat="37.2386160" lon="-3.9618850">
        <ele>549.0</ele>
        <time>2020-07-11T09:08:14Z</time>
      </trkpt>
      <trkpt lat="37.2388440" lon="-3.9612040">
        <ele>548.4</ele>
        <time>2020-07-11T09:08:22Z</time>
      </trkpt>
      <trkpt lat="37.2388750" lon="-3.9611100">
        <ele>548.2</ele>
        <time>2020-07-11T09:08:23Z</time>
      </trkpt>
      <trkpt lat="37.2389900" lon="-3.9607530">
        <ele>548.0</ele>
        <time>2020-07-11T09:08:27Z</time>
      </trkpt>
      <trkpt lat="37.2392240" lon="-3.9600460">
        <ele>547.6</ele>
        <time>2020-07-11T09:08:35Z</time>
      </trkpt>
      <trkpt lat="37.2392530" lon="-3.9599640">
        <ele>547.6</ele>
        <time>2020-07-11T09:08:36Z</time>
      </trkpt>
      <trkpt lat="37.2394110" lon="-3.9593200">
        <ele>547.6</ele>
        <time>2020-07-11T09:08:43Z</time>
      </trkpt>
      <trkpt lat="37.2395200" lon="-3.9585900">
        <ele>547.6</ele>
        <time>2020-07-11T09:08:51Z</time>
      </trkpt>
      <trkpt lat="37.2395440" lon="-3.9584070">
        <ele>547.6</ele>
        <time>2020-07-11T09:08:53Z</time>
      </trkpt>
      <trkpt lat="37.2396210" lon="-3.9577140">
        <ele>547.8</ele>
        <time>2020-07-11T09:09:01Z</time>
      </trkpt>
      <trkpt lat="37.2396170" lon="-3.9575380">
        <ele>548.0</ele>
        <time>2020-07-11T09:09:03Z</time>
      </trkpt>
      <trkpt lat="37.2395830" lon="-3.9571990">
        <ele>548.4</ele>
        <time>2020-07-11T09:09:07Z</time>
      </trkpt>
      <trkpt lat="37.2395640" lon="-3.9569430">
        <ele>548.8</ele>
        <time>2020-07-11T09:09:10Z</time>
      </trkpt>
      <trkpt lat="37.2395420" lon="-3.9566860">
        <ele>549.0</ele>
        <time>2020-07-11T09:09:13Z</time>
      </trkpt>
      <trkpt lat="37.2395310" lon="-3.9565150">
        <ele>549.0</ele>
        <time>2020-07-11T09:09:15Z</time>
      </trkpt>
      <trkpt lat="37.2395240" lon="-3.9561080">
        <ele>549.4</ele>
        <time>2020-07-11T09:09:20Z</time>
      </trkpt>
      <trkpt lat="37.2395640" lon="-3.9555550">
        <ele>550.2</ele>
        <time>2020-07-11T09:09:27Z</time>
      </trkpt>
      <trkpt lat="37.2395810" lon="-3.9553090">
        <ele>550.4</ele>
        <time>2020-07-11T09:09:30Z</time>
      </trkpt>
      <trkpt lat="37.2396280" lon="-3.9545520">
        <ele>550.6</ele>
        <time>2020-07-11T09:09:39Z</time>
      </trkpt>
      <trkpt lat="37.2396370" lon="-3.9543890">
        <ele>550.4</ele>
        <time>2020-07-11T09:09:41Z</time>
      </trkpt>
      <trkpt lat="37.2396610" lon="-3.9537080">
        <ele>550.4</ele>
        <time>2020-07-11T09:09:49Z</time>
      </trkpt>
      <trkpt lat="37.2396670" lon="-3.9533780">
        <ele>550.6</ele>
        <time>2020-07-11T09:09:53Z</time>
      </trkpt>
      <trkpt lat="37.2396820" lon="-3.9526210">
        <ele>551.0</ele>
        <time>2020-07-11T09:10:02Z</time>
      </trkpt>
      <trkpt lat="37.2396850" lon="-3.9525350">
        <ele>551.0</ele>
        <time>2020-07-11T09:10:03Z</time>
      </trkpt>
      <trkpt lat="37.2396990" lon="-3.9519490">
        <ele>551.2</ele>
        <time>2020-07-11T09:10:10Z</time>
      </trkpt>
      <trkpt lat="37.2397030" lon="-3.9516950">
        <ele>551.6</ele>
        <time>2020-07-11T09:10:13Z</time>
      </trkpt>
      <trkpt lat="37.2397150" lon="-3.9511900">
        <ele>552.2</ele>
        <time>2020-07-11T09:10:19Z</time>
      </trkpt>
      <trkpt lat="37.2397290" lon="-3.9507730">
        <ele>552.6</ele>
        <time>2020-07-11T09:10:24Z</time>
      </trkpt>
      <trkpt lat="37.2397720" lon="-3.9500390">
        <ele>553.2</ele>
        <time>2020-07-11T09:10:33Z</time>
      </trkpt>
      <trkpt lat="37.2397780" lon="-3.9499640">
        <ele>553.4</ele>
        <time>2020-07-11T09:10:34Z</time>
      </trkpt>
      <trkpt lat="37.2398210" lon="-3.9492520">
        <ele>554.4</ele>
        <time>2020-07-11T09:10:43Z</time>
      </trkpt>
      <trkpt lat="37.2398260" lon="-3.9491750">
        <ele>554.4</ele>
        <time>2020-07-11T09:10:44Z</time>
      </trkpt>
      <trkpt lat="37.2398710" lon="-3.9484890">
        <ele>555.4</ele>
        <time>2020-07-11T09:10:53Z</time>
      </trkpt>
      <trkpt lat="37.2398770" lon="-3.9484090">
        <ele>555.4</ele>
        <time>2020-07-11T09:10:54Z</time>
      </trkpt>
      <trkpt lat="37.2399010" lon="-3.9480210">
        <ele>556.0</ele>
        <time>2020-07-11T09:10:59Z</time>
      </trkpt>
      <trkpt lat="37.2399190" lon="-3.9477870">
        <ele>556.4</ele>
        <time>2020-07-11T09:11:02Z</time>
      </trkpt>
      <trkpt lat="37.2399240" lon="-3.9477090">
        <ele>556.6</ele>
        <time>2020-07-11T09:11:03Z</time>
      </trkpt>
      <trkpt lat="37.2399700" lon="-3.9470330">
        <ele>557.2</ele>
        <time>2020-07-11T09:11:12Z</time>
      </trkpt>
      <trkpt lat="37.2399750" lon="-3.9469560">
        <ele>557.4</ele>
        <time>2020-07-11T09:11:13Z</time>
      </trkpt>
      <trkpt lat="37.2399880" lon="-3.9467390">
        <ele>557.6</ele>
        <time>2020-07-11T09:11:16Z</time>
      </trkpt>
      <trkpt lat="37.2400170" lon="-3.9463480">
        <ele>558.0</ele>
        <time>2020-07-11T09:11:21Z</time>
      </trkpt>
      <trkpt lat="37.2400510" lon="-3.9458020">
        <ele>558.6</ele>
        <time>2020-07-11T09:11:28Z</time>
      </trkpt>
      <trkpt lat="37.2400440" lon="-3.9454760">
        <ele>559.0</ele>
        <time>2020-07-11T09:11:32Z</time>
      </trkpt>
      <trkpt lat="37.2399580" lon="-3.9450660">
        <ele>559.2</ele>
        <time>2020-07-11T09:11:37Z</time>
      </trkpt>
      <trkpt lat="37.2397510" lon="-3.9443740">
        <ele>559.0</ele>
        <time>2020-07-11T09:11:46Z</time>
      </trkpt>
      <trkpt lat="37.2397260" lon="-3.9442860">
        <ele>559.0</ele>
        <time>2020-07-11T09:11:47Z</time>
      </trkpt>
      <trkpt lat="37.2396150" lon="-3.9439260">
        <ele>559.2</ele>
        <time>2020-07-11T09:11:52Z</time>
      </trkpt>
      <trkpt lat="37.2395720" lon="-3.9437890">
        <ele>559.6</ele>
        <time>2020-07-11T09:11:54Z</time>
      </trkpt>
      <trkpt lat="37.2395520" lon="-3.9437240">
        <ele>559.8</ele>
        <time>2020-07-11T09:11:55Z</time>
      </trkpt>
      <trkpt lat="37.2394610" lon="-3.9434250">
        <ele>560.8</ele>
        <time>2020-07-11T09:12:00Z</time>
      </trkpt>
      <trkpt lat="37.2394120" lon="-3.9432610">
        <ele>561.6</ele>
        <time>2020-07-11T09:12:03Z</time>
      </trkpt>
      <trkpt lat="37.2393950" lon="-3.9432070">
        <ele>562.0</ele>
        <time>2020-07-11T09:12:04Z</time>
      </trkpt>
      <trkpt lat="37.2393950" lon="-3.9432070">
        <ele>562.2</ele>
        <time>2020-07-11T09:12:05Z</time>
      </trkpt>
      <trkpt lat="37.2393280" lon="-3.9429950">
        <ele>563.6</ele>
        <time>2020-07-11T09:12:08Z</time>
      </trkpt>
      <trkpt lat="37.2392900" lon="-3.9428440">
        <ele>564.8</ele>
        <time>2020-07-11T09:12:11Z</time>
      </trkpt>
      <trkpt lat="37.2392770" lon="-3.9427890">
        <ele>565.2</ele>
        <time>2020-07-11T09:12:12Z</time>
      </trkpt>
      <trkpt lat="37.2392530" lon="-3.9426930">
        <ele>566.0</ele>
        <time>2020-07-11T09:12:14Z</time>
      </trkpt>
      <trkpt lat="37.2392230" lon="-3.9424950">
        <ele>567.4</ele>
        <time>2020-07-11T09:12:18Z</time>
      </trkpt>
      <trkpt lat="37.2392150" lon="-3.9423990">
        <ele>568.0</ele>
        <time>2020-07-11T09:12:20Z</time>
      </trkpt>
      <trkpt lat="37.2392070" lon="-3.9423030">
        <ele>568.4</ele>
        <time>2020-07-11T09:12:22Z</time>
      </trkpt>
      <trkpt lat="37.2392000" lon="-3.9421020">
        <ele>569.8</ele>
        <time>2020-07-11T09:12:26Z</time>
      </trkpt>
      <trkpt lat="37.2391940" lon="-3.9419060">
        <ele>571.0</ele>
        <time>2020-07-11T09:12:30Z</time>
      </trkpt>
      <trkpt lat="37.2391930" lon="-3.9418610">
        <ele>571.4</ele>
        <time>2020-07-11T09:12:31Z</time>
      </trkpt>
      <trkpt lat="37.2391910" lon="-3.9417630">
        <ele>572.2</ele>
        <time>2020-07-11T09:12:33Z</time>
      </trkpt>
      <trkpt lat="37.2391880" lon="-3.9415760">
        <ele>573.4</ele>
        <time>2020-07-11T09:12:37Z</time>
      </trkpt>
      <trkpt lat="37.2391830" lon="-3.9413900">
        <ele>574.8</ele>
        <time>2020-07-11T09:12:41Z</time>
      </trkpt>
      <trkpt lat="37.2391800" lon="-3.9411960">
        <ele>575.8</ele>
        <time>2020-07-11T09:12:45Z</time>
      </trkpt>
      <trkpt lat="37.2391860" lon="-3.9410050">
        <ele>576.6</ele>
        <time>2020-07-11T09:12:49Z</time>
      </trkpt>
      <trkpt lat="37.2391890" lon="-3.9409570">
        <ele>576.8</ele>
        <time>2020-07-11T09:12:50Z</time>
      </trkpt>
      <trkpt lat="37.2392220" lon="-3.9407190">
        <ele>578.0</ele>
        <time>2020-07-11T09:12:55Z</time>
      </trkpt>
      <trkpt lat="37.2392500" lon="-3.9405730">
        <ele>578.8</ele>
        <time>2020-07-11T09:12:58Z</time>
      </trkpt>
      <trkpt lat="37.2392740" lon="-3.9404710">
        <ele>579.0</ele>
        <time>2020-07-11T09:13:00Z</time>
      </trkpt>
      <trkpt lat="37.2393420" lon="-3.9402300">
        <ele>580.2</ele>
        <time>2020-07-11T09:13:05Z</time>
      </trkpt>
      <trkpt lat="37.2393890" lon="-3.9400870">
        <ele>580.6</ele>
        <time>2020-07-11T09:13:08Z</time>
      </trkpt>
      <trkpt lat="37.2394350" lon="-3.9399520">
        <ele>581.4</ele>
        <time>2020-07-11T09:13:11Z</time>
      </trkpt>
      <trkpt lat="37.2395130" lon="-3.9397190">
        <ele>582.6</ele>
        <time>2020-07-11T09:13:16Z</time>
      </trkpt>
      <trkpt lat="37.2395830" lon="-3.9395120">
        <ele>583.4</ele>
        <time>2020-07-11T09:13:20Z</time>
      </trkpt>
      <trkpt lat="37.2396000" lon="-3.9394620">
        <ele>583.6</ele>
        <time>2020-07-11T09:13:21Z</time>
      </trkpt>
      <trkpt lat="37.2397510" lon="-3.9390150">
        <ele>584.6</ele>
        <time>2020-07-11T09:13:29Z</time>
      </trkpt>
      <trkpt lat="37.2397880" lon="-3.9389040">
        <ele>584.8</ele>
        <time>2020-07-11T09:13:31Z</time>
      </trkpt>
      <trkpt lat="37.2398800" lon="-3.9384990">
        <ele>585.8</ele>
        <time>2020-07-11T09:13:38Z</time>
      </trkpt>
      <trkpt lat="37.2398860" lon="-3.9384400">
        <ele>586.0</ele>
        <time>2020-07-11T09:13:39Z</time>
      </trkpt>
      <trkpt lat="37.2398980" lon="-3.9382010">
        <ele>587.0</ele>
        <time>2020-07-11T09:13:43Z</time>
      </trkpt>
      <trkpt lat="37.2399000" lon="-3.9378830">
        <ele>587.8</ele>
        <time>2020-07-11T09:13:48Z</time>
      </trkpt>
      <trkpt lat="37.2398990" lon="-3.9376900">
        <ele>588.0</ele>
        <time>2020-07-11T09:13:51Z</time>
      </trkpt>
      <trkpt lat="37.2399020" lon="-3.9371360">
        <ele>588.2</ele>
        <time>2020-07-11T09:13:59Z</time>
      </trkpt>
      <trkpt lat="37.2399180" lon="-3.9366430">
        <ele>589.0</ele>
        <time>2020-07-11T09:14:06Z</time>
      </trkpt>
      <trkpt lat="37.2399260" lon="-3.9365680">
        <ele>589.0</ele>
        <time>2020-07-11T09:14:07Z</time>
      </trkpt>
      <trkpt lat="37.2399570" lon="-3.9363580">
        <ele>589.4</ele>
        <time>2020-07-11T09:14:10Z</time>
      </trkpt>
      <trkpt lat="37.2400710" lon="-3.9358570">
        <ele>590.0</ele>
        <time>2020-07-11T09:14:17Z</time>
      </trkpt>
      <trkpt lat="37.2401220" lon="-3.9356360">
        <ele>590.0</ele>
        <time>2020-07-11T09:14:20Z</time>
      </trkpt>
      <trkpt lat="37.2401540" lon="-3.9354910">
        <ele>590.0</ele>
        <time>2020-07-11T09:14:22Z</time>
      </trkpt>
      <trkpt lat="37.2402980" lon="-3.9348790">
        <ele>590.6</ele>
        <time>2020-07-11T09:14:30Z</time>
      </trkpt>
      <trkpt lat="37.2403480" lon="-3.9346570">
        <ele>590.8</ele>
        <time>2020-07-11T09:14:33Z</time>
      </trkpt>
      <trkpt lat="37.2404130" lon="-3.9343600">
        <ele>591.2</ele>
        <time>2020-07-11T09:14:37Z</time>
      </trkpt>
      <trkpt lat="37.2405520" lon="-3.9337580">
        <ele>591.8</ele>
        <time>2020-07-11T09:14:45Z</time>
      </trkpt>
      <trkpt lat="37.2405860" lon="-3.9335980">
        <ele>592.2</ele>
        <time>2020-07-11T09:14:47Z</time>
      </trkpt>
      <trkpt lat="37.2406660" lon="-3.9331980">
        <ele>592.8</ele>
        <time>2020-07-11T09:14:52Z</time>
      </trkpt>
      <trkpt lat="37.2407000" lon="-3.9330360">
        <ele>593.2</ele>
        <time>2020-07-11T09:14:54Z</time>
      </trkpt>
      <trkpt lat="37.2407550" lon="-3.9327970">
        <ele>593.8</ele>
        <time>2020-07-11T09:14:57Z</time>
      </trkpt>
      <trkpt lat="37.2407920" lon="-3.9326360">
        <ele>594.2</ele>
        <time>2020-07-11T09:14:59Z</time>
      </trkpt>
      <trkpt lat="37.2408500" lon="-3.9323870">
        <ele>594.6</ele>
        <time>2020-07-11T09:15:02Z</time>
      </trkpt>
      <trkpt lat="37.2408680" lon="-3.9323020">
        <ele>594.6</ele>
        <time>2020-07-11T09:15:03Z</time>
      </trkpt>
      <trkpt lat="37.2409810" lon="-3.9317860">
        <ele>595.2</ele>
        <time>2020-07-11T09:15:09Z</time>
      </trkpt>
      <trkpt lat="37.2409980" lon="-3.9317090">
        <ele>595.4</ele>
        <time>2020-07-11T09:15:10Z</time>
      </trkpt>
      <trkpt lat="37.2410900" lon="-3.9312750">
        <ele>596.0</ele>
        <time>2020-07-11T09:15:15Z</time>
      </trkpt>
      <trkpt lat="37.2411460" lon="-3.9310200">
        <ele>596.4</ele>
        <time>2020-07-11T09:15:18Z</time>
      </trkpt>
      <trkpt lat="37.2412660" lon="-3.9304340">
        <ele>597.4</ele>
        <time>2020-07-11T09:15:25Z</time>
      </trkpt>
      <trkpt lat="37.2412850" lon="-3.9303510">
        <ele>597.6</ele>
        <time>2020-07-11T09:15:26Z</time>
      </trkpt>
      <trkpt lat="37.2414290" lon="-3.9298850">
        <ele>598.6</ele>
        <time>2020-07-11T09:15:32Z</time>
      </trkpt>
      <trkpt lat="37.2414810" lon="-3.9297440">
        <ele>598.8</ele>
        <time>2020-07-11T09:15:34Z</time>
      </trkpt>
      <trkpt lat="37.2416580" lon="-3.9293080">
        <ele>599.6</ele>
        <time>2020-07-11T09:15:40Z</time>
      </trkpt>
      <trkpt lat="37.2417910" lon="-3.9290420">
        <ele>600.0</ele>
        <time>2020-07-11T09:15:44Z</time>
      </trkpt>
      <trkpt lat="37.2419380" lon="-3.9287890">
        <ele>600.6</ele>
        <time>2020-07-11T09:15:48Z</time>
      </trkpt>
      <trkpt lat="37.2421600" lon="-3.9284020">
        <ele>601.4</ele>
        <time>2020-07-11T09:15:54Z</time>
      </trkpt>
      <trkpt lat="37.2424590" lon="-3.9278940">
        <ele>601.4</ele>
        <time>2020-07-11T09:16:01Z</time>
      </trkpt>
      <trkpt lat="37.2424980" lon="-3.9278060">
        <ele>601.2</ele>
        <time>2020-07-11T09:16:02Z</time>
      </trkpt>
      <trkpt lat="37.2425860" lon="-3.9275380">
        <ele>601.2</ele>
        <time>2020-07-11T09:16:05Z</time>
      </trkpt>
      <trkpt lat="37.2427270" lon="-3.9269930">
        <ele>601.0</ele>
        <time>2020-07-11T09:16:11Z</time>
      </trkpt>
      <trkpt lat="37.2428000" lon="-3.9267210">
        <ele>601.0</ele>
        <time>2020-07-11T09:16:14Z</time>
      </trkpt>
      <trkpt lat="37.2429920" lon="-3.9260120">
        <ele>600.8</ele>
        <time>2020-07-11T09:16:22Z</time>
      </trkpt>
      <trkpt lat="37.2430690" lon="-3.9256640">
        <ele>600.8</ele>
        <time>2020-07-11T09:16:26Z</time>
      </trkpt>
      <trkpt lat="37.2431010" lon="-3.9253100">
        <ele>601.0</ele>
        <time>2020-07-11T09:16:30Z</time>
      </trkpt>
      <trkpt lat="37.2431050" lon="-3.9251350">
        <ele>601.2</ele>
        <time>2020-07-11T09:16:32Z</time>
      </trkpt>
      <trkpt lat="37.2431090" lon="-3.9244540">
        <ele>601.6</ele>
        <time>2020-07-11T09:16:40Z</time>
      </trkpt>
      <trkpt lat="37.2431080" lon="-3.9243730">
        <ele>601.8</ele>
        <time>2020-07-11T09:16:41Z</time>
      </trkpt>
      <trkpt lat="37.2431080" lon="-3.9242060">
        <ele>602.0</ele>
        <time>2020-07-11T09:16:43Z</time>
      </trkpt>
      <trkpt lat="37.2431060" lon="-3.9238150">
        <ele>602.8</ele>
        <time>2020-07-11T09:16:48Z</time>
      </trkpt>
      <trkpt lat="37.2431080" lon="-3.9232770">
        <ele>603.6</ele>
        <time>2020-07-11T09:16:55Z</time>
      </trkpt>
      <trkpt lat="37.2431130" lon="-3.9230540">
        <ele>603.8</ele>
        <time>2020-07-11T09:16:58Z</time>
      </trkpt>
      <trkpt lat="37.2431290" lon="-3.9226880">
        <ele>604.4</ele>
        <time>2020-07-11T09:17:03Z</time>
      </trkpt>
      <trkpt lat="37.2431260" lon="-3.9226250">
        <ele>604.6</ele>
        <time>2020-07-11T09:17:04Z</time>
      </trkpt>
      <trkpt lat="37.2431040" lon="-3.9224180">
        <ele>605.2</ele>
        <time>2020-07-11T09:17:07Z</time>
      </trkpt>
      <trkpt lat="37.2430800" lon="-3.9222080">
        <ele>605.6</ele>
        <time>2020-07-11T09:17:10Z</time>
      </trkpt>
      <trkpt lat="37.2430900" lon="-3.9216970">
        <ele>606.0</ele>
        <time>2020-07-11T09:17:17Z</time>
      </trkpt>
      <trkpt lat="37.2430990" lon="-3.9216320">
        <ele>605.8</ele>
        <time>2020-07-11T09:17:18Z</time>
      </trkpt>
      <trkpt lat="37.2431420" lon="-3.9213980">
        <ele>606.0</ele>
        <time>2020-07-11T09:17:22Z</time>
      </trkpt>
      <trkpt lat="37.2431800" lon="-3.9212020">
        <ele>605.8</ele>
        <time>2020-07-11T09:17:25Z</time>
      </trkpt>
      <trkpt lat="37.2432900" lon="-3.9206470">
        <ele>605.2</ele>
        <time>2020-07-11T09:17:33Z</time>
      </trkpt>
      <trkpt lat="37.2433100" lon="-3.9204930">
        <ele>605.2</ele>
        <time>2020-07-11T09:17:35Z</time>
      </trkpt>
      <trkpt lat="37.2433490" lon="-3.9202610">
        <ele>605.0</ele>
        <time>2020-07-11T09:17:38Z</time>
      </trkpt>
      <trkpt lat="37.2433650" lon="-3.9201860">
        <ele>605.2</ele>
        <time>2020-07-11T09:17:39Z</time>
      </trkpt>
      <trkpt lat="37.2434950" lon="-3.9196650">
        <ele>604.2</ele>
        <time>2020-07-11T09:17:46Z</time>
      </trkpt>
      <trkpt lat="37.2435690" lon="-3.9194110">
        <ele>604.0</ele>
        <time>2020-07-11T09:17:49Z</time>
      </trkpt>
      <trkpt lat="37.2436480" lon="-3.9191620">
        <ele>603.4</ele>
        <time>2020-07-11T09:17:52Z</time>
      </trkpt>
      <trkpt lat="37.2437390" lon="-3.9189070">
        <ele>603.2</ele>
        <time>2020-07-11T09:17:55Z</time>
      </trkpt>
      <trkpt lat="37.2438010" lon="-3.9187400">
        <ele>602.8</ele>
        <time>2020-07-11T09:17:57Z</time>
      </trkpt>
      <trkpt lat="37.2440310" lon="-3.9182370">
        <ele>602.2</ele>
        <time>2020-07-11T09:18:03Z</time>
      </trkpt>
      <trkpt lat="37.2441310" lon="-3.9180810">
        <ele>601.8</ele>
        <time>2020-07-11T09:18:05Z</time>
      </trkpt>
      <trkpt lat="37.2443060" lon="-3.9178700">
        <ele>601.4</ele>
        <time>2020-07-11T09:18:08Z</time>
      </trkpt>
      <trkpt lat="37.2443590" lon="-3.9177960">
        <ele>601.2</ele>
        <time>2020-07-11T09:18:09Z</time>
      </trkpt>
      <trkpt lat="37.2445200" lon="-3.9175520">
        <ele>600.6</ele>
        <time>2020-07-11T09:18:12Z</time>
      </trkpt>
      <trkpt lat="37.2445770" lon="-3.9174750">
        <ele>600.4</ele>
        <time>2020-07-11T09:18:13Z</time>
      </trkpt>
      <trkpt lat="37.2446370" lon="-3.9174070">
        <ele>600.2</ele>
        <time>2020-07-11T09:18:14Z</time>
      </trkpt>
      <trkpt lat="37.2447710" lon="-3.9173000">
        <ele>599.4</ele>
        <time>2020-07-11T09:18:16Z</time>
      </trkpt>
      <trkpt lat="37.2448530" lon="-3.9172440">
        <ele>599.4</ele>
        <time>2020-07-11T09:18:17Z</time>
      </trkpt>
      <trkpt lat="37.2450640" lon="-3.9170920">
        <ele>599.0</ele>
        <time>2020-07-11T09:18:20Z</time>
      </trkpt>
      <trkpt lat="37.2452530" lon="-3.9169210">
        <ele>599.0</ele>
        <time>2020-07-11T09:18:23Z</time>
      </trkpt>
      <trkpt lat="37.2453040" lon="-3.9168600">
        <ele>599.0</ele>
        <time>2020-07-11T09:18:24Z</time>
      </trkpt>
      <trkpt lat="37.2453540" lon="-3.9167920">
        <ele>598.8</ele>
        <time>2020-07-11T09:18:25Z</time>
      </trkpt>
      <trkpt lat="37.2455830" lon="-3.9164460">
        <ele>598.6</ele>
        <time>2020-07-11T09:18:30Z</time>
      </trkpt>
      <trkpt lat="37.2457740" lon="-3.9161690">
        <ele>598.6</ele>
        <time>2020-07-11T09:18:34Z</time>
      </trkpt>
      <trkpt lat="37.2459140" lon="-3.9159390">
        <ele>598.4</ele>
        <time>2020-07-11T09:18:37Z</time>
      </trkpt>
      <trkpt lat="37.2461310" lon="-3.9154540">
        <ele>598.0</ele>
        <time>2020-07-11T09:18:43Z</time>
      </trkpt>
      <trkpt lat="37.2465080" lon="-3.9148570">
        <ele>597.6</ele>
        <time>2020-07-11T09:18:51Z</time>
      </trkpt>
      <trkpt lat="37.2465580" lon="-3.9147910">
        <ele>597.4</ele>
        <time>2020-07-11T09:18:52Z</time>
      </trkpt>
      <trkpt lat="37.2466050" lon="-3.9147200">
        <ele>597.2</ele>
        <time>2020-07-11T09:18:53Z</time>
      </trkpt>
      <trkpt lat="37.2466610" lon="-3.9145650">
        <ele>596.4</ele>
        <time>2020-07-11T09:18:55Z</time>
      </trkpt>
      <trkpt lat="37.2466670" lon="-3.9143950">
        <ele>596.2</ele>
        <time>2020-07-11T09:18:57Z</time>
      </trkpt>
      <trkpt lat="37.2466730" lon="-3.9143150">
        <ele>596.0</ele>
        <time>2020-07-11T09:18:58Z</time>
      </trkpt>
      <trkpt lat="37.2466840" lon="-3.9142320">
        <ele>596.0</ele>
        <time>2020-07-11T09:18:59Z</time>
      </trkpt>
      <trkpt lat="37.2467090" lon="-3.9140050">
        <ele>596.0</ele>
        <time>2020-07-11T09:19:02Z</time>
      </trkpt>
      <trkpt lat="37.2467110" lon="-3.9139400">
        <ele>596.0</ele>
        <time>2020-07-11T09:19:03Z</time>
      </trkpt>
      <trkpt lat="37.2467190" lon="-3.9138210">
        <ele>595.6</ele>
        <time>2020-07-11T09:19:05Z</time>
      </trkpt>
      <trkpt lat="37.2467290" lon="-3.9135670">
        <ele>595.8</ele>
        <time>2020-07-11T09:19:09Z</time>
      </trkpt>
      <trkpt lat="37.2467310" lon="-3.9133490">
        <ele>596.0</ele>
        <time>2020-07-11T09:19:12Z</time>
      </trkpt>
      <trkpt lat="37.2467060" lon="-3.9131180">
        <ele>596.2</ele>
        <time>2020-07-11T09:19:15Z</time>
      </trkpt>
      <trkpt lat="37.2465940" lon="-3.9125370">
        <ele>596.2</ele>
        <time>2020-07-11T09:19:22Z</time>
      </trkpt>
      <trkpt lat="37.2465250" lon="-3.9122660">
        <ele>596.4</ele>
        <time>2020-07-11T09:19:25Z</time>
      </trkpt>
      <trkpt lat="37.2464600" lon="-3.9120040">
        <ele>596.0</ele>
        <time>2020-07-11T09:19:28Z</time>
      </trkpt>
      <trkpt lat="37.2464400" lon="-3.9119080">
        <ele>595.8</ele>
        <time>2020-07-11T09:19:29Z</time>
      </trkpt>
      <trkpt lat="37.2464060" lon="-3.9114850">
        <ele>595.2</ele>
        <time>2020-07-11T09:19:34Z</time>
      </trkpt>
      <trkpt lat="37.2464020" lon="-3.9113890">
        <ele>594.8</ele>
        <time>2020-07-11T09:19:35Z</time>
      </trkpt>
      <trkpt lat="37.2463890" lon="-3.9110640">
        <ele>594.6</ele>
        <time>2020-07-11T09:19:39Z</time>
      </trkpt>
      <trkpt lat="37.2463780" lon="-3.9109080">
        <ele>594.4</ele>
        <time>2020-07-11T09:19:41Z</time>
      </trkpt>
      <trkpt lat="37.2463940" lon="-3.9103510">
        <ele>594.8</ele>
        <time>2020-07-11T09:19:48Z</time>
      </trkpt>
      <trkpt lat="37.2463960" lon="-3.9098720">
        <ele>595.0</ele>
        <time>2020-07-11T09:19:54Z</time>
      </trkpt>
      <trkpt lat="37.2463990" lon="-3.9095570">
        <ele>595.4</ele>
        <time>2020-07-11T09:19:58Z</time>
      </trkpt>
      <trkpt lat="37.2463900" lon="-3.9088180">
        <ele>595.4</ele>
        <time>2020-07-11T09:20:07Z</time>
      </trkpt>
      <trkpt lat="37.2463860" lon="-3.9087350">
        <ele>595.6</ele>
        <time>2020-07-11T09:20:08Z</time>
      </trkpt>
      <trkpt lat="37.2463630" lon="-3.9081550">
        <ele>595.4</ele>
        <time>2020-07-11T09:20:15Z</time>
      </trkpt>
      <trkpt lat="37.2463670" lon="-3.9078980">
        <ele>595.8</ele>
        <time>2020-07-11T09:20:18Z</time>
      </trkpt>
      <trkpt lat="37.2463740" lon="-3.9077290">
        <ele>595.4</ele>
        <time>2020-07-11T09:20:20Z</time>
      </trkpt>
      <trkpt lat="37.2463540" lon="-3.9074910">
        <ele>595.2</ele>
        <time>2020-07-11T09:20:23Z</time>
      </trkpt>
      <trkpt lat="37.2463500" lon="-3.9074110">
        <ele>595.4</ele>
        <time>2020-07-11T09:20:24Z</time>
      </trkpt>
      <trkpt lat="37.2463580" lon="-3.9070040">
        <ele>595.6</ele>
        <time>2020-07-11T09:20:29Z</time>
      </trkpt>
      <trkpt lat="37.2463920" lon="-3.9062920">
        <ele>595.6</ele>
        <time>2020-07-11T09:20:38Z</time>
      </trkpt>
      <trkpt lat="37.2464120" lon="-3.9060600">
        <ele>596.0</ele>
        <time>2020-07-11T09:20:41Z</time>
      </trkpt>
      <trkpt lat="37.2464180" lon="-3.9057420">
        <ele>596.4</ele>
        <time>2020-07-11T09:20:45Z</time>
      </trkpt>
      <trkpt lat="37.2464070" lon="-3.9056670">
        <ele>596.4</ele>
        <time>2020-07-11T09:20:46Z</time>
      </trkpt>
      <trkpt lat="37.2464140" lon="-3.9055970">
        <ele>596.2</ele>
        <time>2020-07-11T09:20:47Z</time>
      </trkpt>
      <trkpt lat="37.2464210" lon="-3.9054530">
        <ele>596.4</ele>
        <time>2020-07-11T09:20:49Z</time>
      </trkpt>
      <trkpt lat="37.2464350" lon="-3.9049950">
        <ele>596.6</ele>
        <time>2020-07-11T09:20:55Z</time>
      </trkpt>
      <trkpt lat="37.2464350" lon="-3.9045950">
        <ele>597.0</ele>
        <time>2020-07-11T09:21:00Z</time>
      </trkpt>
      <trkpt lat="37.2464410" lon="-3.9042040">
        <ele>597.4</ele>
        <time>2020-07-11T09:21:05Z</time>
      </trkpt>
      <trkpt lat="37.2464470" lon="-3.9039990">
        <ele>597.4</ele>
        <time>2020-07-11T09:21:08Z</time>
      </trkpt>
      <trkpt lat="37.2464380" lon="-3.9038830">
        <ele>597.6</ele>
        <time>2020-07-11T09:21:10Z</time>
      </trkpt>
      <trkpt lat="37.2464210" lon="-3.9034680">
        <ele>597.8</ele>
        <time>2020-07-11T09:21:16Z</time>
      </trkpt>
      <trkpt lat="37.2464160" lon="-3.9033930">
        <ele>598.0</ele>
        <time>2020-07-11T09:21:17Z</time>
      </trkpt>
      <trkpt lat="37.2464010" lon="-3.9031600">
        <ele>598.4</ele>
        <time>2020-07-11T09:21:20Z</time>
      </trkpt>
      <trkpt lat="37.2463810" lon="-3.9029260">
        <ele>598.8</ele>
        <time>2020-07-11T09:21:23Z</time>
      </trkpt>
      <trkpt lat="37.2463220" lon="-3.9023070">
        <ele>599.2</ele>
        <time>2020-07-11T09:21:31Z</time>
      </trkpt>
      <trkpt lat="37.2463160" lon="-3.9021410">
        <ele>599.2</ele>
        <time>2020-07-11T09:21:33Z</time>
      </trkpt>
      <trkpt lat="37.2463070" lon="-3.9015160">
        <ele>599.4</ele>
        <time>2020-07-11T09:21:41Z</time>
      </trkpt>
      <trkpt lat="37.2463030" lon="-3.9009550">
        <ele>600.2</ele>
        <time>2020-07-11T09:21:48Z</time>
      </trkpt>
      <trkpt lat="37.2463050" lon="-3.9007210">
        <ele>600.2</ele>
        <time>2020-07-11T09:21:51Z</time>
      </trkpt>
      <trkpt lat="37.2463110" lon="-3.9004100">
        <ele>600.4</ele>
        <time>2020-07-11T09:21:55Z</time>
      </trkpt>
      <trkpt lat="37.2463150" lon="-3.9003380">
        <ele>600.4</ele>
        <time>2020-07-11T09:21:56Z</time>
      </trkpt>
      <trkpt lat="37.2463190" lon="-3.9000340">
        <ele>600.2</ele>
        <time>2020-07-11T09:22:00Z</time>
      </trkpt>
      <trkpt lat="37.2463320" lon="-3.8995220">
        <ele>600.8</ele>
        <time>2020-07-11T09:22:07Z</time>
      </trkpt>
      <trkpt lat="37.2463400" lon="-3.8990520">
        <ele>600.6</ele>
        <time>2020-07-11T09:22:13Z</time>
      </trkpt>
      <trkpt lat="37.2463780" lon="-3.8983450">
        <ele>600.8</ele>
        <time>2020-07-11T09:22:22Z</time>
      </trkpt>
      <trkpt lat="37.2463880" lon="-3.8981840">
        <ele>600.6</ele>
        <time>2020-07-11T09:22:24Z</time>
      </trkpt>
      <trkpt lat="37.2463950" lon="-3.8978850">
        <ele>600.6</ele>
        <time>2020-07-11T09:22:28Z</time>
      </trkpt>
      <trkpt lat="37.2464130" lon="-3.8976580">
        <ele>600.8</ele>
        <time>2020-07-11T09:22:31Z</time>
      </trkpt>
      <trkpt lat="37.2464030" lon="-3.8974990">
        <ele>600.8</ele>
        <time>2020-07-11T09:22:33Z</time>
      </trkpt>
      <trkpt lat="37.2464060" lon="-3.8973460">
        <ele>600.8</ele>
        <time>2020-07-11T09:22:35Z</time>
      </trkpt>
      <trkpt lat="37.2464110" lon="-3.8970560">
        <ele>600.4</ele>
        <time>2020-07-11T09:22:39Z</time>
      </trkpt>
      <trkpt lat="37.2464120" lon="-3.8968620">
        <ele>600.2</ele>
        <time>2020-07-11T09:22:42Z</time>
      </trkpt>
      <trkpt lat="37.2464180" lon="-3.8967230">
        <ele>600.6</ele>
        <time>2020-07-11T09:22:44Z</time>
      </trkpt>
      <trkpt lat="37.2464130" lon="-3.8966530">
        <ele>600.6</ele>
        <time>2020-07-11T09:22:45Z</time>
      </trkpt>
      <trkpt lat="37.2464100" lon="-3.8965060">
        <ele>600.8</ele>
        <time>2020-07-11T09:22:47Z</time>
      </trkpt>
      <trkpt lat="37.2464010" lon="-3.8961260">
        <ele>600.4</ele>
        <time>2020-07-11T09:22:52Z</time>
      </trkpt>
      <trkpt lat="37.2463690" lon="-3.8954110">
        <ele>601.0</ele>
        <time>2020-07-11T09:23:01Z</time>
      </trkpt>
      <trkpt lat="37.2463640" lon="-3.8953250">
        <ele>601.0</ele>
        <time>2020-07-11T09:23:02Z</time>
      </trkpt>
      <trkpt lat="37.2463610" lon="-3.8952440">
        <ele>601.2</ele>
        <time>2020-07-11T09:23:03Z</time>
      </trkpt>
      <trkpt lat="37.2463550" lon="-3.8948400">
        <ele>601.2</ele>
        <time>2020-07-11T09:23:08Z</time>
      </trkpt>
      <trkpt lat="37.2463620" lon="-3.8947630">
        <ele>601.2</ele>
        <time>2020-07-11T09:23:09Z</time>
      </trkpt>
      <trkpt lat="37.2463860" lon="-3.8945270">
        <ele>601.4</ele>
        <time>2020-07-11T09:23:12Z</time>
      </trkpt>
      <trkpt lat="37.2464020" lon="-3.8943770">
        <ele>601.6</ele>
        <time>2020-07-11T09:23:14Z</time>
      </trkpt>
      <trkpt lat="37.2464190" lon="-3.8943040">
        <ele>601.4</ele>
        <time>2020-07-11T09:23:15Z</time>
      </trkpt>
      <trkpt lat="37.2464340" lon="-3.8941550">
        <ele>601.4</ele>
        <time>2020-07-11T09:23:17Z</time>
      </trkpt>
      <trkpt lat="37.2464330" lon="-3.8939980">
        <ele>601.6</ele>
        <time>2020-07-11T09:23:19Z</time>
      </trkpt>
      <trkpt lat="37.2464210" lon="-3.8937650">
        <ele>602.2</ele>
        <time>2020-07-11T09:23:22Z</time>
      </trkpt>
      <trkpt lat="37.2463890" lon="-3.8932700">
        <ele>602.4</ele>
        <time>2020-07-11T09:23:28Z</time>
      </trkpt>
      <trkpt lat="37.2463270" lon="-3.8925930">
        <ele>602.4</ele>
        <time>2020-07-11T09:23:36Z</time>
      </trkpt>
      <trkpt lat="37.2463040" lon="-3.8924130">
        <ele>602.4</ele>
        <time>2020-07-11T09:23:38Z</time>
      </trkpt>
      <trkpt lat="37.2462010" lon="-3.8917300">
        <ele>602.6</ele>
        <time>2020-07-11T09:23:46Z</time>
      </trkpt>
      <trkpt lat="37.2461880" lon="-3.8916460">
        <ele>602.6</ele>
        <time>2020-07-11T09:23:47Z</time>
      </trkpt>
      <trkpt lat="37.2460740" lon="-3.8909760">
        <ele>602.8</ele>
        <time>2020-07-11T09:23:55Z</time>
      </trkpt>
      <trkpt lat="37.2460350" lon="-3.8908170">
        <ele>603.0</ele>
        <time>2020-07-11T09:23:57Z</time>
      </trkpt>
      <trkpt lat="37.2459980" lon="-3.8906580">
        <ele>603.2</ele>
        <time>2020-07-11T09:23:59Z</time>
      </trkpt>
      <trkpt lat="37.2458920" lon="-3.8902800">
        <ele>603.4</ele>
        <time>2020-07-11T09:24:04Z</time>
      </trkpt>
      <trkpt lat="37.2457220" lon="-3.8897220">
        <ele>604.2</ele>
        <time>2020-07-11T09:24:12Z</time>
      </trkpt>
      <trkpt lat="37.2457040" lon="-3.8896600">
        <ele>604.4</ele>
        <time>2020-07-11T09:24:13Z</time>
      </trkpt>
      <trkpt lat="37.2456030" lon="-3.8893220">
        <ele>605.6</ele>
        <time>2020-07-11T09:24:19Z</time>
      </trkpt>
      <trkpt lat="37.2455590" lon="-3.8890350">
        <ele>606.6</ele>
        <time>2020-07-11T09:24:24Z</time>
      </trkpt>
      <trkpt lat="37.2455620" lon="-3.8889700">
        <ele>606.6</ele>
        <time>2020-07-11T09:24:25Z</time>
      </trkpt>
      <trkpt lat="37.2455640" lon="-3.8885090">
        <ele>607.6</ele>
        <time>2020-07-11T09:24:32Z</time>
      </trkpt>
      <trkpt lat="37.2455590" lon="-3.8884370">
        <ele>607.8</ele>
        <time>2020-07-11T09:24:33Z</time>
      </trkpt>
      <trkpt lat="37.2454760" lon="-3.8880040">
        <ele>607.8</ele>
        <time>2020-07-11T09:24:39Z</time>
      </trkpt>
      <trkpt lat="37.2452900" lon="-3.8873550">
        <ele>608.6</ele>
        <time>2020-07-11T09:24:48Z</time>
      </trkpt>
      <trkpt lat="37.2452480" lon="-3.8872210">
        <ele>608.8</ele>
        <time>2020-07-11T09:24:50Z</time>
      </trkpt>
      <trkpt lat="37.2452280" lon="-3.8871600">
        <ele>608.8</ele>
        <time>2020-07-11T09:24:51Z</time>
      </trkpt>
      <trkpt lat="37.2452040" lon="-3.8870980">
        <ele>608.8</ele>
        <time>2020-07-11T09:24:52Z</time>
      </trkpt>
      <trkpt lat="37.2451330" lon="-3.8868630">
        <ele>609.0</ele>
        <time>2020-07-11T09:24:56Z</time>
      </trkpt>
      <trkpt lat="37.2450890" lon="-3.8866800">
        <ele>609.0</ele>
        <time>2020-07-11T09:24:59Z</time>
      </trkpt>
      <trkpt lat="37.2450650" lon="-3.8865650">
        <ele>609.4</ele>
        <time>2020-07-11T09:25:01Z</time>
      </trkpt>
      <trkpt lat="37.2450450" lon="-3.8865040">
        <ele>610.0</ele>
        <time>2020-07-11T09:25:02Z</time>
      </trkpt>
      <trkpt lat="37.2449450" lon="-3.8860730">
        <ele>610.8</ele>
        <time>2020-07-11T09:25:09Z</time>
      </trkpt>
      <trkpt lat="37.2449350" lon="-3.8860120">
        <ele>611.2</ele>
        <time>2020-07-11T09:25:10Z</time>
      </trkpt>
      <trkpt lat="37.2449020" lon="-3.8856780">
        <ele>612.2</ele>
        <time>2020-07-11T09:25:15Z</time>
      </trkpt>
      <trkpt lat="37.2448980" lon="-3.8856110">
        <ele>612.2</ele>
        <time>2020-07-11T09:25:16Z</time>
      </trkpt>
      <trkpt lat="37.2448730" lon="-3.8852300">
        <ele>612.6</ele>
        <time>2020-07-11T09:25:22Z</time>
      </trkpt>
      <trkpt lat="37.2448690" lon="-3.8851030">
        <ele>613.0</ele>
        <time>2020-07-11T09:25:24Z</time>
      </trkpt>
      <trkpt lat="37.2448690" lon="-3.8850410">
        <ele>613.2</ele>
        <time>2020-07-11T09:25:25Z</time>
      </trkpt>
      <trkpt lat="37.2448910" lon="-3.8847270">
        <ele>614.4</ele>
        <time>2020-07-11T09:25:30Z</time>
      </trkpt>
      <trkpt lat="37.2449370" lon="-3.8844620">
        <ele>615.0</ele>
        <time>2020-07-11T09:25:34Z</time>
      </trkpt>
      <trkpt lat="37.2449470" lon="-3.8843930">
        <ele>615.0</ele>
        <time>2020-07-11T09:25:35Z</time>
      </trkpt>
      <trkpt lat="37.2449590" lon="-3.8843280">
        <ele>615.2</ele>
        <time>2020-07-11T09:25:36Z</time>
      </trkpt>
      <trkpt lat="37.2449900" lon="-3.8841840">
        <ele>615.4</ele>
        <time>2020-07-11T09:25:38Z</time>
      </trkpt>
      <trkpt lat="37.2450080" lon="-3.8841200">
        <ele>615.4</ele>
        <time>2020-07-11T09:25:39Z</time>
      </trkpt>
      <trkpt lat="37.2450930" lon="-3.8838510">
        <ele>615.4</ele>
        <time>2020-07-11T09:25:43Z</time>
      </trkpt>
      <trkpt lat="37.2452320" lon="-3.8833990">
        <ele>616.0</ele>
        <time>2020-07-11T09:25:50Z</time>
      </trkpt>
      <trkpt lat="37.2452730" lon="-3.8832810">
        <ele>616.6</ele>
        <time>2020-07-11T09:25:52Z</time>
      </trkpt>
      <trkpt lat="37.2453870" lon="-3.8829710">
        <ele>617.6</ele>
        <time>2020-07-11T09:25:57Z</time>
      </trkpt>
      <trkpt lat="37.2454250" lon="-3.8828410">
        <ele>618.0</ele>
        <time>2020-07-11T09:25:59Z</time>
      </trkpt>
      <trkpt lat="37.2455200" lon="-3.8824540">
        <ele>617.6</ele>
        <time>2020-07-11T09:26:05Z</time>
      </trkpt>
      <trkpt lat="37.2455570" lon="-3.8822570">
        <ele>617.8</ele>
        <time>2020-07-11T09:26:08Z</time>
      </trkpt>
      <trkpt lat="37.2455880" lon="-3.8821290">
        <ele>618.0</ele>
        <time>2020-07-11T09:26:10Z</time>
      </trkpt>
      <trkpt lat="37.2457260" lon="-3.8815120">
        <ele>618.6</ele>
        <time>2020-07-11T09:26:19Z</time>
      </trkpt>
      <trkpt lat="37.2457760" lon="-3.8811910">
        <ele>619.0</ele>
        <time>2020-07-11T09:26:24Z</time>
      </trkpt>
      <trkpt lat="37.2457830" lon="-3.8811240">
        <ele>619.2</ele>
        <time>2020-07-11T09:26:25Z</time>
      </trkpt>
      <trkpt lat="37.2457930" lon="-3.8810040">
        <ele>619.6</ele>
        <time>2020-07-11T09:26:27Z</time>
      </trkpt>
      <trkpt lat="37.2458140" lon="-3.8808910">
        <ele>620.0</ele>
        <time>2020-07-11T09:26:29Z</time>
      </trkpt>
      <trkpt lat="37.2458180" lon="-3.8808360">
        <ele>620.2</ele>
        <time>2020-07-11T09:26:30Z</time>
      </trkpt>
      <trkpt lat="37.2458200" lon="-3.8807810">
        <ele>620.2</ele>
        <time>2020-07-11T09:26:31Z</time>
      </trkpt>
      <trkpt lat="37.2458390" lon="-3.8807230">
        <ele>620.4</ele>
        <time>2020-07-11T09:26:32Z</time>
      </trkpt>
      <trkpt lat="37.2458710" lon="-3.8806080">
        <ele>621.2</ele>
        <time>2020-07-11T09:26:34Z</time>
      </trkpt>
      <trkpt lat="37.2458910" lon="-3.8805420">
        <ele>621.2</ele>
        <time>2020-07-11T09:26:35Z</time>
      </trkpt>
      <trkpt lat="37.2460240" lon="-3.8801510">
        <ele>622.0</ele>
        <time>2020-07-11T09:26:41Z</time>
      </trkpt>
      <trkpt lat="37.2460550" lon="-3.8800850">
        <ele>622.2</ele>
        <time>2020-07-11T09:26:42Z</time>
      </trkpt>
      <trkpt lat="37.2461300" lon="-3.8798900">
        <ele>622.6</ele>
        <time>2020-07-11T09:26:45Z</time>
      </trkpt>
      <trkpt lat="37.2461450" lon="-3.8798210">
        <ele>622.6</ele>
        <time>2020-07-11T09:26:46Z</time>
      </trkpt>
      <trkpt lat="37.2461660" lon="-3.8797570">
        <ele>622.4</ele>
        <time>2020-07-11T09:26:47Z</time>
      </trkpt>
      <trkpt lat="37.2462540" lon="-3.8795200">
        <ele>622.6</ele>
        <time>2020-07-11T09:26:51Z</time>
      </trkpt>
      <trkpt lat="37.2463550" lon="-3.8792870">
        <ele>623.4</ele>
        <time>2020-07-11T09:26:55Z</time>
      </trkpt>
      <trkpt lat="37.2464060" lon="-3.8791560">
        <ele>623.6</ele>
        <time>2020-07-11T09:26:57Z</time>
      </trkpt>
      <trkpt lat="37.2466070" lon="-3.8786790">
        <ele>623.4</ele>
        <time>2020-07-11T09:27:04Z</time>
      </trkpt>
      <trkpt lat="37.2467500" lon="-3.8782860">
        <ele>622.2</ele>
        <time>2020-07-11T09:27:10Z</time>
      </trkpt>
      <trkpt lat="37.2467740" lon="-3.8782190">
        <ele>622.4</ele>
        <time>2020-07-11T09:27:11Z</time>
      </trkpt>
      <trkpt lat="37.2468270" lon="-3.8780780">
        <ele>622.4</ele>
        <time>2020-07-11T09:27:13Z</time>
      </trkpt>
      <trkpt lat="37.2468740" lon="-3.8779380">
        <ele>622.2</ele>
        <time>2020-07-11T09:27:15Z</time>
      </trkpt>
      <trkpt lat="37.2469010" lon="-3.8778680">
        <ele>622.2</ele>
        <time>2020-07-11T09:27:16Z</time>
      </trkpt>
      <trkpt lat="37.2469650" lon="-3.8777330">
        <ele>621.6</ele>
        <time>2020-07-11T09:27:18Z</time>
      </trkpt>
      <trkpt lat="37.2470250" lon="-3.8776040">
        <ele>621.2</ele>
        <time>2020-07-11T09:27:20Z</time>
      </trkpt>
      <trkpt lat="37.2470490" lon="-3.8775340">
        <ele>621.2</ele>
        <time>2020-07-11T09:27:21Z</time>
      </trkpt>
      <trkpt lat="37.2470760" lon="-3.8774610">
        <ele>620.8</ele>
        <time>2020-07-11T09:27:22Z</time>
      </trkpt>
      <trkpt lat="37.2471110" lon="-3.8773820">
        <ele>620.6</ele>
        <time>2020-07-11T09:27:23Z</time>
      </trkpt>
      <trkpt lat="37.2471450" lon="-3.8773080">
        <ele>620.2</ele>
        <time>2020-07-11T09:27:24Z</time>
      </trkpt>
      <trkpt lat="37.2471680" lon="-3.8772150">
        <ele>619.8</ele>
        <time>2020-07-11T09:27:25Z</time>
      </trkpt>
      <trkpt lat="37.2471960" lon="-3.8771300">
        <ele>619.2</ele>
        <time>2020-07-11T09:27:26Z</time>
      </trkpt>
      <trkpt lat="37.2472680" lon="-3.8769430">
        <ele>617.8</ele>
        <time>2020-07-11T09:27:28Z</time>
      </trkpt>
      <trkpt lat="37.2473340" lon="-3.8767410">
        <ele>616.8</ele>
        <time>2020-07-11T09:27:30Z</time>
      </trkpt>
      <trkpt lat="37.2474040" lon="-3.8765400">
        <ele>616.4</ele>
        <time>2020-07-11T09:27:32Z</time>
      </trkpt>
      <trkpt lat="37.2474780" lon="-3.8763530">
        <ele>615.4</ele>
        <time>2020-07-11T09:27:34Z</time>
      </trkpt>
      <trkpt lat="37.2476790" lon="-3.8758710">
        <ele>614.4</ele>
        <time>2020-07-11T09:27:39Z</time>
      </trkpt>
      <trkpt lat="37.2477570" lon="-3.8756880">
        <ele>613.4</ele>
        <time>2020-07-11T09:27:41Z</time>
      </trkpt>
      <trkpt lat="37.2478380" lon="-3.8754850">
        <ele>612.8</ele>
        <time>2020-07-11T09:27:43Z</time>
      </trkpt>
      <trkpt lat="37.2479180" lon="-3.8752800">
        <ele>611.8</ele>
        <time>2020-07-11T09:27:45Z</time>
      </trkpt>
      <trkpt lat="37.2479600" lon="-3.8751760">
        <ele>611.4</ele>
        <time>2020-07-11T09:27:46Z</time>
      </trkpt>
      <trkpt lat="37.2480020" lon="-3.8750660">
        <ele>610.6</ele>
        <time>2020-07-11T09:27:47Z</time>
      </trkpt>
      <trkpt lat="37.2480880" lon="-3.8748430">
        <ele>609.6</ele>
        <time>2020-07-11T09:27:49Z</time>
      </trkpt>
      <trkpt lat="37.2481770" lon="-3.8746210">
        <ele>608.4</ele>
        <time>2020-07-11T09:27:51Z</time>
      </trkpt>
      <trkpt lat="37.2482220" lon="-3.8745010">
        <ele>607.6</ele>
        <time>2020-07-11T09:27:52Z</time>
      </trkpt>
      <trkpt lat="37.2482680" lon="-3.8743740">
        <ele>607.0</ele>
        <time>2020-07-11T09:27:53Z</time>
      </trkpt>
      <trkpt lat="37.2483570" lon="-3.8741320">
        <ele>605.6</ele>
        <time>2020-07-11T09:27:55Z</time>
      </trkpt>
      <trkpt lat="37.2484530" lon="-3.8738850">
        <ele>604.6</ele>
        <time>2020-07-11T09:27:57Z</time>
      </trkpt>
      <trkpt lat="37.2486050" lon="-3.8735020">
        <ele>603.4</ele>
        <time>2020-07-11T09:28:00Z</time>
      </trkpt>
      <trkpt lat="37.2487360" lon="-3.8731610">
        <ele>602.2</ele>
        <time>2020-07-11T09:28:03Z</time>
      </trkpt>
      <trkpt lat="37.2487740" lon="-3.8730580">
        <ele>602.0</ele>
        <time>2020-07-11T09:28:04Z</time>
      </trkpt>
      <trkpt lat="37.2488470" lon="-3.8728810">
        <ele>601.0</ele>
        <time>2020-07-11T09:28:06Z</time>
      </trkpt>
      <trkpt lat="37.2489030" lon="-3.8727030">
        <ele>599.8</ele>
        <time>2020-07-11T09:28:08Z</time>
      </trkpt>
      <trkpt lat="37.2489290" lon="-3.8726190">
        <ele>598.6</ele>
        <time>2020-07-11T09:28:09Z</time>
      </trkpt>
      <trkpt lat="37.2489800" lon="-3.8724540">
        <ele>597.4</ele>
        <time>2020-07-11T09:28:11Z</time>
      </trkpt>
      <trkpt lat="37.2490350" lon="-3.8722830">
        <ele>596.0</ele>
        <time>2020-07-11T09:28:13Z</time>
      </trkpt>
      <trkpt lat="37.2490880" lon="-3.8721240">
        <ele>596.0</ele>
        <time>2020-07-11T09:28:15Z</time>
      </trkpt>
      <trkpt lat="37.2491600" lon="-3.8718670">
        <ele>595.4</ele>
        <time>2020-07-11T09:28:18Z</time>
      </trkpt>
      <trkpt lat="37.2492010" lon="-3.8716930">
        <ele>595.0</ele>
        <time>2020-07-11T09:28:20Z</time>
      </trkpt>
      <trkpt lat="37.2492200" lon="-3.8716140">
        <ele>595.0</ele>
        <time>2020-07-11T09:28:21Z</time>
      </trkpt>
      <trkpt lat="37.2492800" lon="-3.8713570">
        <ele>594.6</ele>
        <time>2020-07-11T09:28:24Z</time>
      </trkpt>
      <trkpt lat="37.2493390" lon="-3.8711250">
        <ele>594.2</ele>
        <time>2020-07-11T09:28:27Z</time>
      </trkpt>
      <trkpt lat="37.2493560" lon="-3.8710510">
        <ele>594.0</ele>
        <time>2020-07-11T09:28:28Z</time>
      </trkpt>
      <trkpt lat="37.2493850" lon="-3.8709050">
        <ele>593.6</ele>
        <time>2020-07-11T09:28:30Z</time>
      </trkpt>
      <trkpt lat="37.2494340" lon="-3.8706050">
        <ele>593.6</ele>
        <time>2020-07-11T09:28:34Z</time>
      </trkpt>
      <trkpt lat="37.2494430" lon="-3.8705240">
        <ele>593.4</ele>
        <time>2020-07-11T09:28:35Z</time>
      </trkpt>
      <trkpt lat="37.2494580" lon="-3.8704510">
        <ele>593.0</ele>
        <time>2020-07-11T09:28:36Z</time>
      </trkpt>
      <trkpt lat="37.2495030" lon="-3.8702880">
        <ele>592.2</ele>
        <time>2020-07-11T09:28:38Z</time>
      </trkpt>
      <trkpt lat="37.2495340" lon="-3.8702090">
        <ele>592.0</ele>
        <time>2020-07-11T09:28:39Z</time>
      </trkpt>
      <trkpt lat="37.2495730" lon="-3.8701420">
        <ele>591.8</ele>
        <time>2020-07-11T09:28:40Z</time>
      </trkpt>
      <trkpt lat="37.2497190" lon="-3.8699500">
        <ele>590.4</ele>
        <time>2020-07-11T09:28:43Z</time>
      </trkpt>
      <trkpt lat="37.2499430" lon="-3.8696610">
        <ele>590.0</ele>
        <time>2020-07-11T09:28:48Z</time>
      </trkpt>
      <trkpt lat="37.2500320" lon="-3.8695530">
        <ele>590.0</ele>
        <time>2020-07-11T09:28:50Z</time>
      </trkpt>
      <trkpt lat="37.2501150" lon="-3.8694510">
        <ele>590.0</ele>
        <time>2020-07-11T09:28:52Z</time>
      </trkpt>
      <trkpt lat="37.2502040" lon="-3.8693500">
        <ele>589.6</ele>
        <time>2020-07-11T09:28:54Z</time>
      </trkpt>
      <trkpt lat="37.2503130" lon="-3.8692150">
        <ele>589.4</ele>
        <time>2020-07-11T09:28:57Z</time>
      </trkpt>
      <trkpt lat="37.2503500" lon="-3.8691000">
        <ele>589.0</ele>
        <time>2020-07-11T09:29:00Z</time>
      </trkpt>
      <trkpt lat="37.2503490" lon="-3.8690750">
        <ele>589.2</ele>
        <time>2020-07-11T09:29:01Z</time>
      </trkpt>
      <trkpt lat="37.2503460" lon="-3.8690600">
        <ele>589.0</ele>
        <time>2020-07-11T09:29:04Z</time>
      </trkpt>
      <trkpt lat="37.2503330" lon="-3.8690460">
        <ele>589.2</ele>
        <time>2020-07-11T09:34:07Z</time>
      </trkpt>
      <trkpt lat="37.2503360" lon="-3.8690290">
        <ele>589.2</ele>
        <time>2020-07-11T09:34:08Z</time>
      </trkpt>
      <trkpt lat="37.2503460" lon="-3.8689130">
        <ele>589.4</ele>
        <time>2020-07-11T09:34:12Z</time>
      </trkpt>
      <trkpt lat="37.2504190" lon="-3.8686910">
        <ele>589.4</ele>
        <time>2020-07-11T09:34:17Z</time>
      </trkpt>
      <trkpt lat="37.2505380" lon="-3.8682700">
        <ele>589.6</ele>
        <time>2020-07-11T09:34:24Z</time>
      </trkpt>
      <trkpt lat="37.2505570" lon="-3.8679760">
        <ele>589.4</ele>
        <time>2020-07-11T09:34:28Z</time>
      </trkpt>
      <trkpt lat="37.2505540" lon="-3.8679000">
        <ele>589.4</ele>
        <time>2020-07-11T09:34:29Z</time>
      </trkpt>
      <trkpt lat="37.2505390" lon="-3.8676730">
        <ele>589.4</ele>
        <time>2020-07-11T09:34:32Z</time>
      </trkpt>
      <trkpt lat="37.2505090" lon="-3.8673590">
        <ele>589.4</ele>
        <time>2020-07-11T09:34:36Z</time>
      </trkpt>
      <trkpt lat="37.2504900" lon="-3.8671230">
        <ele>589.4</ele>
        <time>2020-07-11T09:34:39Z</time>
      </trkpt>
      <trkpt lat="37.2504650" lon="-3.8668140">
        <ele>589.4</ele>
        <time>2020-07-11T09:34:43Z</time>
      </trkpt>
      <trkpt lat="37.2504270" lon="-3.8663550">
        <ele>589.6</ele>
        <time>2020-07-11T09:34:49Z</time>
      </trkpt>
      <trkpt lat="37.2503830" lon="-3.8658020">
        <ele>589.8</ele>
        <time>2020-07-11T09:34:56Z</time>
      </trkpt>
      <trkpt lat="37.2503520" lon="-3.8653970">
        <ele>589.6</ele>
        <time>2020-07-11T09:35:01Z</time>
      </trkpt>
      <trkpt lat="37.2503090" lon="-3.8648280">
        <ele>589.6</ele>
        <time>2020-07-11T09:35:08Z</time>
      </trkpt>
      <trkpt lat="37.2503160" lon="-3.8645810">
        <ele>589.6</ele>
        <time>2020-07-11T09:35:11Z</time>
      </trkpt>
      <trkpt lat="37.2503690" lon="-3.8643420">
        <ele>589.4</ele>
        <time>2020-07-11T09:35:14Z</time>
      </trkpt>
      <trkpt lat="37.2504210" lon="-3.8642030">
        <ele>589.6</ele>
        <time>2020-07-11T09:35:16Z</time>
      </trkpt>
      <trkpt lat="37.2505540" lon="-3.8639040">
        <ele>590.4</ele>
        <time>2020-07-11T09:35:21Z</time>
      </trkpt>
      <trkpt lat="37.2505670" lon="-3.8638620">
        <ele>590.4</ele>
        <time>2020-07-11T09:35:22Z</time>
      </trkpt>
      <trkpt lat="37.2506140" lon="-3.8636660">
        <ele>591.2</ele>
        <time>2020-07-11T09:35:25Z</time>
      </trkpt>
      <trkpt lat="37.2506190" lon="-3.8636080">
        <ele>591.6</ele>
        <time>2020-07-11T09:35:26Z</time>
      </trkpt>
      <trkpt lat="37.2506180" lon="-3.8634930">
        <ele>592.4</ele>
        <time>2020-07-11T09:35:28Z</time>
      </trkpt>
      <trkpt lat="37.2506150" lon="-3.8634350">
        <ele>592.8</ele>
        <time>2020-07-11T09:35:29Z</time>
      </trkpt>
      <trkpt lat="37.2505900" lon="-3.8632740">
        <ele>593.6</ele>
        <time>2020-07-11T09:35:32Z</time>
      </trkpt>
      <trkpt lat="37.2505750" lon="-3.8631990">
        <ele>593.8</ele>
        <time>2020-07-11T09:35:33Z</time>
      </trkpt>
      <trkpt lat="37.2505470" lon="-3.8630880">
        <ele>594.2</ele>
        <time>2020-07-11T09:35:35Z</time>
      </trkpt>
      <trkpt lat="37.2504950" lon="-3.8629300">
        <ele>595.0</ele>
        <time>2020-07-11T09:35:38Z</time>
      </trkpt>
      <trkpt lat="37.2503820" lon="-3.8626580">
        <ele>596.2</ele>
        <time>2020-07-11T09:35:43Z</time>
      </trkpt>
      <trkpt lat="37.2501770" lon="-3.8621830">
        <ele>597.4</ele>
        <time>2020-07-11T09:35:52Z</time>
      </trkpt>
      <trkpt lat="37.2500520" lon="-3.8618740">
        <ele>598.4</ele>
        <time>2020-07-11T09:35:58Z</time>
      </trkpt>
      <trkpt lat="37.2500390" lon="-3.8618180">
        <ele>598.6</ele>
        <time>2020-07-11T09:35:59Z</time>
      </trkpt>
      <trkpt lat="37.2500330" lon="-3.8617640">
        <ele>598.8</ele>
        <time>2020-07-11T09:36:00Z</time>
      </trkpt>
      <trkpt lat="37.2500420" lon="-3.8615210">
        <ele>599.4</ele>
        <time>2020-07-11T09:36:04Z</time>
      </trkpt>
      <trkpt lat="37.2500520" lon="-3.8614640">
        <ele>599.6</ele>
        <time>2020-07-11T09:36:05Z</time>
      </trkpt>
      <trkpt lat="37.2501300" lon="-3.8609370">
        <ele>599.8</ele>
        <time>2020-07-11T09:36:13Z</time>
      </trkpt>
      <trkpt lat="37.2502010" lon="-3.8604890">
        <ele>598.2</ele>
        <time>2020-07-11T09:36:18Z</time>
      </trkpt>
      <trkpt lat="37.2502170" lon="-3.8603840">
        <ele>598.0</ele>
        <time>2020-07-11T09:36:19Z</time>
      </trkpt>
      <trkpt lat="37.2502530" lon="-3.8601760">
        <ele>597.4</ele>
        <time>2020-07-11T09:36:21Z</time>
      </trkpt>
      <trkpt lat="37.2502710" lon="-3.8600750">
        <ele>597.0</ele>
        <time>2020-07-11T09:36:22Z</time>
      </trkpt>
      <trkpt lat="37.2502890" lon="-3.8599620">
        <ele>596.6</ele>
        <time>2020-07-11T09:36:23Z</time>
      </trkpt>
      <trkpt lat="37.2503060" lon="-3.8598660">
        <ele>596.4</ele>
        <time>2020-07-11T09:36:24Z</time>
      </trkpt>
      <trkpt lat="37.2503250" lon="-3.8597520">
        <ele>595.8</ele>
        <time>2020-07-11T09:36:25Z</time>
      </trkpt>
      <trkpt lat="37.2503410" lon="-3.8596500">
        <ele>595.6</ele>
        <time>2020-07-11T09:36:26Z</time>
      </trkpt>
      <trkpt lat="37.2503540" lon="-3.8595590">
        <ele>595.4</ele>
        <time>2020-07-11T09:36:27Z</time>
      </trkpt>
      <trkpt lat="37.2503840" lon="-3.8593610">
        <ele>595.2</ele>
        <time>2020-07-11T09:36:29Z</time>
      </trkpt>
      <trkpt lat="37.2504390" lon="-3.8589920">
        <ele>595.0</ele>
        <time>2020-07-11T09:36:33Z</time>
      </trkpt>
      <trkpt lat="37.2504560" lon="-3.8588980">
        <ele>594.8</ele>
        <time>2020-07-11T09:36:34Z</time>
      </trkpt>
      <trkpt lat="37.2504720" lon="-3.8588070">
        <ele>594.8</ele>
        <time>2020-07-11T09:36:35Z</time>
      </trkpt>
      <trkpt lat="37.2505020" lon="-3.8586270">
        <ele>594.4</ele>
        <time>2020-07-11T09:36:37Z</time>
      </trkpt>
      <trkpt lat="37.2505570" lon="-3.8582580">
        <ele>594.2</ele>
        <time>2020-07-11T09:36:41Z</time>
      </trkpt>
      <trkpt lat="37.2506020" lon="-3.8579880">
        <ele>594.0</ele>
        <time>2020-07-11T09:36:44Z</time>
      </trkpt>
      <trkpt lat="37.2506300" lon="-3.8578130">
        <ele>593.8</ele>
        <time>2020-07-11T09:36:46Z</time>
      </trkpt>
      <trkpt lat="37.2506800" lon="-3.8574640">
        <ele>593.8</ele>
        <time>2020-07-11T09:36:50Z</time>
      </trkpt>
      <trkpt lat="37.2507180" lon="-3.8572000">
        <ele>593.8</ele>
        <time>2020-07-11T09:36:53Z</time>
      </trkpt>
      <trkpt lat="37.2507870" lon="-3.8568590">
        <ele>593.6</ele>
        <time>2020-07-11T09:36:57Z</time>
      </trkpt>
      <trkpt lat="37.2508860" lon="-3.8565110">
        <ele>593.2</ele>
        <time>2020-07-11T09:37:01Z</time>
      </trkpt>
      <trkpt lat="37.2510780" lon="-3.8560220">
        <ele>592.8</ele>
        <time>2020-07-11T09:37:07Z</time>
      </trkpt>
      <trkpt lat="37.2511770" lon="-3.8557940">
        <ele>592.8</ele>
        <time>2020-07-11T09:37:10Z</time>
      </trkpt>
      <trkpt lat="37.2512970" lon="-3.8554780">
        <ele>592.8</ele>
        <time>2020-07-11T09:37:14Z</time>
      </trkpt>
      <trkpt lat="37.2513430" lon="-3.8553400">
        <ele>593.0</ele>
        <time>2020-07-11T09:37:16Z</time>
      </trkpt>
      <trkpt lat="37.2513820" lon="-3.8551330">
        <ele>593.8</ele>
        <time>2020-07-11T09:37:19Z</time>
      </trkpt>
      <trkpt lat="37.2513960" lon="-3.8550000">
        <ele>594.8</ele>
        <time>2020-07-11T09:37:21Z</time>
      </trkpt>
      <trkpt lat="37.2513980" lon="-3.8549360">
        <ele>595.2</ele>
        <time>2020-07-11T09:37:22Z</time>
      </trkpt>
      <trkpt lat="37.2514030" lon="-3.8547990">
        <ele>595.8</ele>
        <time>2020-07-11T09:37:24Z</time>
      </trkpt>
      <trkpt lat="37.2514090" lon="-3.8546520">
        <ele>596.2</ele>
        <time>2020-07-11T09:37:26Z</time>
      </trkpt>
      <trkpt lat="37.2514110" lon="-3.8544980">
        <ele>596.6</ele>
        <time>2020-07-11T09:37:28Z</time>
      </trkpt>
      <trkpt lat="37.2514170" lon="-3.8541030">
        <ele>597.0</ele>
        <time>2020-07-11T09:37:33Z</time>
      </trkpt>
      <trkpt lat="37.2514240" lon="-3.8538740">
        <ele>597.0</ele>
        <time>2020-07-11T09:37:36Z</time>
      </trkpt>
      <trkpt lat="37.2514270" lon="-3.8535680">
        <ele>597.4</ele>
        <time>2020-07-11T09:37:40Z</time>
      </trkpt>
      <trkpt lat="37.2514100" lon="-3.8532250">
        <ele>597.4</ele>
        <time>2020-07-11T09:37:45Z</time>
      </trkpt>
      <trkpt lat="37.2513200" lon="-3.8529240">
        <ele>597.4</ele>
        <time>2020-07-11T09:37:50Z</time>
      </trkpt>
      <trkpt lat="37.2511390" lon="-3.8526200">
        <ele>597.2</ele>
        <time>2020-07-11T09:37:55Z</time>
      </trkpt>
      <trkpt lat="37.2508590" lon="-3.8521140">
        <ele>597.8</ele>
        <time>2020-07-11T09:38:03Z</time>
      </trkpt>
      <trkpt lat="37.2507920" lon="-3.8518950">
        <ele>598.4</ele>
        <time>2020-07-11T09:38:06Z</time>
      </trkpt>
      <trkpt lat="37.2507730" lon="-3.8517190">
        <ele>598.6</ele>
        <time>2020-07-11T09:38:08Z</time>
      </trkpt>
      <trkpt lat="37.2507210" lon="-3.8509800">
        <ele>598.2</ele>
        <time>2020-07-11T09:38:16Z</time>
      </trkpt>
      <trkpt lat="37.2506740" lon="-3.8502720">
        <ele>597.4</ele>
        <time>2020-07-11T09:38:23Z</time>
      </trkpt>
      <trkpt lat="37.2506610" lon="-3.8500620">
        <ele>596.8</ele>
        <time>2020-07-11T09:38:25Z</time>
      </trkpt>
      <trkpt lat="37.2506480" lon="-3.8498550">
        <ele>596.4</ele>
        <time>2020-07-11T09:38:27Z</time>
      </trkpt>
      <trkpt lat="37.2506260" lon="-3.8495290">
        <ele>595.8</ele>
        <time>2020-07-11T09:38:30Z</time>
      </trkpt>
      <trkpt lat="37.2505960" lon="-3.8491840">
        <ele>595.4</ele>
        <time>2020-07-11T09:38:33Z</time>
      </trkpt>
      <trkpt lat="37.2505780" lon="-3.8490750">
        <ele>595.2</ele>
        <time>2020-07-11T09:38:34Z</time>
      </trkpt>
      <trkpt lat="37.2505500" lon="-3.8489610">
        <ele>595.2</ele>
        <time>2020-07-11T09:38:35Z</time>
      </trkpt>
      <trkpt lat="37.2505180" lon="-3.8488710">
        <ele>595.0</ele>
        <time>2020-07-11T09:38:36Z</time>
      </trkpt>
      <trkpt lat="37.2503720" lon="-3.8485430">
        <ele>594.2</ele>
        <time>2020-07-11T09:38:39Z</time>
      </trkpt>
      <trkpt lat="37.2502820" lon="-3.8483070">
        <ele>593.4</ele>
        <time>2020-07-11T09:38:41Z</time>
      </trkpt>
      <trkpt lat="37.2502460" lon="-3.8481960">
        <ele>593.2</ele>
        <time>2020-07-11T09:38:42Z</time>
      </trkpt>
      <trkpt lat="37.2501620" lon="-3.8479130">
        <ele>592.4</ele>
        <time>2020-07-11T09:38:44Z</time>
      </trkpt>
      <trkpt lat="37.2501240" lon="-3.8477770">
        <ele>591.8</ele>
        <time>2020-07-11T09:38:45Z</time>
      </trkpt>
      <trkpt lat="37.2500450" lon="-3.8475040">
        <ele>590.4</ele>
        <time>2020-07-11T09:38:47Z</time>
      </trkpt>
      <trkpt lat="37.2499650" lon="-3.8472040">
        <ele>588.6</ele>
        <time>2020-07-11T09:38:49Z</time>
      </trkpt>
      <trkpt lat="37.2499300" lon="-3.8470480">
        <ele>587.6</ele>
        <time>2020-07-11T09:38:50Z</time>
      </trkpt>
      <trkpt lat="37.2499050" lon="-3.8468970">
        <ele>586.6</ele>
        <time>2020-07-11T09:38:51Z</time>
      </trkpt>
      <trkpt lat="37.2498950" lon="-3.8467580">
        <ele>585.8</ele>
        <time>2020-07-11T09:38:52Z</time>
      </trkpt>
      <trkpt lat="37.2498910" lon="-3.8464660">
        <ele>584.6</ele>
        <time>2020-07-11T09:38:54Z</time>
      </trkpt>
      <trkpt lat="37.2498980" lon="-3.8458890">
        <ele>583.6</ele>
        <time>2020-07-11T09:38:58Z</time>
      </trkpt>
      <trkpt lat="37.2499050" lon="-3.8453320">
        <ele>583.0</ele>
        <time>2020-07-11T09:39:02Z</time>
      </trkpt>
      <trkpt lat="37.2499090" lon="-3.8448900">
        <ele>582.4</ele>
        <time>2020-07-11T09:39:05Z</time>
      </trkpt>
      <trkpt lat="37.2499170" lon="-3.8446030">
        <ele>581.4</ele>
        <time>2020-07-11T09:39:07Z</time>
      </trkpt>
      <trkpt lat="37.2499170" lon="-3.8444520">
        <ele>580.8</ele>
        <time>2020-07-11T09:39:08Z</time>
      </trkpt>
      <trkpt lat="37.2499150" lon="-3.8437710">
        <ele>580.0</ele>
        <time>2020-07-11T09:39:13Z</time>
      </trkpt>
      <trkpt lat="37.2499150" lon="-3.8436480">
        <ele>579.8</ele>
        <time>2020-07-11T09:39:14Z</time>
      </trkpt>
      <trkpt lat="37.2499170" lon="-3.8430820">
        <ele>580.6</ele>
        <time>2020-07-11T09:39:19Z</time>
      </trkpt>
      <trkpt lat="37.2499190" lon="-3.8427820">
        <ele>581.4</ele>
        <time>2020-07-11T09:39:22Z</time>
      </trkpt>
      <trkpt lat="37.2499210" lon="-3.8424790">
        <ele>582.0</ele>
        <time>2020-07-11T09:39:25Z</time>
      </trkpt>
      <trkpt lat="37.2499200" lon="-3.8423820">
        <ele>582.2</ele>
        <time>2020-07-11T09:39:26Z</time>
      </trkpt>
      <trkpt lat="37.2499240" lon="-3.8418060">
        <ele>582.6</ele>
        <time>2020-07-11T09:39:32Z</time>
      </trkpt>
      <trkpt lat="37.2499240" lon="-3.8415240">
        <ele>582.6</ele>
        <time>2020-07-11T09:39:35Z</time>
      </trkpt>
      <trkpt lat="37.2499250" lon="-3.8410080">
        <ele>583.0</ele>
        <time>2020-07-11T09:39:41Z</time>
      </trkpt>
      <trkpt lat="37.2499260" lon="-3.8409370">
        <ele>583.2</ele>
        <time>2020-07-11T09:39:42Z</time>
      </trkpt>
      <trkpt lat="37.2499330" lon="-3.8402150">
        <ele>584.0</ele>
        <time>2020-07-11T09:39:51Z</time>
      </trkpt>
      <trkpt lat="37.2499330" lon="-3.8400650">
        <ele>584.2</ele>
        <time>2020-07-11T09:39:53Z</time>
      </trkpt>
      <trkpt lat="37.2499370" lon="-3.8394010">
        <ele>585.2</ele>
        <time>2020-07-11T09:40:02Z</time>
      </trkpt>
      <trkpt lat="37.2499370" lon="-3.8391730">
        <ele>585.6</ele>
        <time>2020-07-11T09:40:05Z</time>
      </trkpt>
      <trkpt lat="37.2499430" lon="-3.8387180">
        <ele>586.2</ele>
        <time>2020-07-11T09:40:11Z</time>
      </trkpt>
      <trkpt lat="37.2499420" lon="-3.8384960">
        <ele>587.0</ele>
        <time>2020-07-11T09:40:14Z</time>
      </trkpt>
      <trkpt lat="37.2499420" lon="-3.8383440">
        <ele>587.4</ele>
        <time>2020-07-11T09:40:16Z</time>
      </trkpt>
      <trkpt lat="37.2499430" lon="-3.8379230">
        <ele>588.4</ele>
        <time>2020-07-11T09:40:22Z</time>
      </trkpt>
      <trkpt lat="37.2499430" lon="-3.8377130">
        <ele>589.2</ele>
        <time>2020-07-11T09:40:25Z</time>
      </trkpt>
      <trkpt lat="37.2499430" lon="-3.8375810">
        <ele>589.6</ele>
        <time>2020-07-11T09:40:27Z</time>
      </trkpt>
      <trkpt lat="37.2499460" lon="-3.8372440">
        <ele>590.8</ele>
        <time>2020-07-11T09:40:32Z</time>
      </trkpt>
      <trkpt lat="37.2499460" lon="-3.8369780">
        <ele>591.6</ele>
        <time>2020-07-11T09:40:36Z</time>
      </trkpt>
      <trkpt lat="37.2499460" lon="-3.8368400">
        <ele>591.8</ele>
        <time>2020-07-11T09:40:38Z</time>
      </trkpt>
      <trkpt lat="37.2499470" lon="-3.8364320">
        <ele>593.0</ele>
        <time>2020-07-11T09:40:44Z</time>
      </trkpt>
      <trkpt lat="37.2499470" lon="-3.8362220">
        <ele>593.4</ele>
        <time>2020-07-11T09:40:47Z</time>
      </trkpt>
      <trkpt lat="37.2499470" lon="-3.8359250">
        <ele>594.0</ele>
        <time>2020-07-11T09:40:51Z</time>
      </trkpt>
      <trkpt lat="37.2499510" lon="-3.8356070">
        <ele>594.4</ele>
        <time>2020-07-11T09:40:55Z</time>
      </trkpt>
      <trkpt lat="37.2499520" lon="-3.8351160">
        <ele>595.0</ele>
        <time>2020-07-11T09:41:01Z</time>
      </trkpt>
      <trkpt lat="37.2499530" lon="-3.8346190">
        <ele>595.6</ele>
        <time>2020-07-11T09:41:07Z</time>
      </trkpt>
      <trkpt lat="37.2499620" lon="-3.8339160">
        <ele>595.4</ele>
        <time>2020-07-11T09:41:15Z</time>
      </trkpt>
      <trkpt lat="37.2499640" lon="-3.8338310">
        <ele>595.4</ele>
        <time>2020-07-11T09:41:16Z</time>
      </trkpt>
      <trkpt lat="37.2500110" lon="-3.8334690">
        <ele>595.2</ele>
        <time>2020-07-11T09:41:20Z</time>
      </trkpt>
      <trkpt lat="37.2500260" lon="-3.8333720">
        <ele>595.0</ele>
        <time>2020-07-11T09:41:21Z</time>
      </trkpt>
      <trkpt lat="37.2500640" lon="-3.8331640">
        <ele>594.6</ele>
        <time>2020-07-11T09:41:23Z</time>
      </trkpt>
      <trkpt lat="37.2500980" lon="-3.8329460">
        <ele>593.6</ele>
        <time>2020-07-11T09:41:25Z</time>
      </trkpt>
      <trkpt lat="37.2501180" lon="-3.8328360">
        <ele>593.0</ele>
        <time>2020-07-11T09:41:26Z</time>
      </trkpt>
      <trkpt lat="37.2501350" lon="-3.8327310">
        <ele>592.4</ele>
        <time>2020-07-11T09:41:27Z</time>
      </trkpt>
      <trkpt lat="37.2501550" lon="-3.8326070">
        <ele>591.8</ele>
        <time>2020-07-11T09:41:28Z</time>
      </trkpt>
      <trkpt lat="37.2501940" lon="-3.8323990">
        <ele>591.0</ele>
        <time>2020-07-11T09:41:30Z</time>
      </trkpt>
      <trkpt lat="37.2502130" lon="-3.8322890">
        <ele>590.8</ele>
        <time>2020-07-11T09:41:31Z</time>
      </trkpt>
      <trkpt lat="37.2502630" lon="-3.8320020">
        <ele>590.2</ele>
        <time>2020-07-11T09:41:34Z</time>
      </trkpt>
      <trkpt lat="37.2503290" lon="-3.8316420">
        <ele>590.0</ele>
        <time>2020-07-11T09:41:38Z</time>
      </trkpt>
      <trkpt lat="37.2504040" lon="-3.8312050">
        <ele>590.0</ele>
        <time>2020-07-11T09:41:43Z</time>
      </trkpt>
      <trkpt lat="37.2504820" lon="-3.8307710">
        <ele>590.0</ele>
        <time>2020-07-11T09:41:48Z</time>
      </trkpt>
      <trkpt lat="37.2505560" lon="-3.8302580">
        <ele>589.6</ele>
        <time>2020-07-11T09:41:54Z</time>
      </trkpt>
      <trkpt lat="37.2505240" lon="-3.8300810">
        <ele>589.4</ele>
        <time>2020-07-11T09:41:56Z</time>
      </trkpt>
      <trkpt lat="37.2504940" lon="-3.8300060">
        <ele>589.2</ele>
        <time>2020-07-11T09:41:57Z</time>
      </trkpt>
      <trkpt lat="37.2504050" lon="-3.8298470">
        <ele>588.8</ele>
        <time>2020-07-11T09:41:59Z</time>
      </trkpt>
      <trkpt lat="37.2502980" lon="-3.8297000">
        <ele>588.4</ele>
        <time>2020-07-11T09:42:01Z</time>
      </trkpt>
      <trkpt lat="37.2501280" lon="-3.8294760">
        <ele>587.8</ele>
        <time>2020-07-11T09:42:04Z</time>
      </trkpt>
      <trkpt lat="37.2500100" lon="-3.8293150">
        <ele>587.4</ele>
        <time>2020-07-11T09:42:06Z</time>
      </trkpt>
      <trkpt lat="37.2499540" lon="-3.8292220">
        <ele>587.0</ele>
        <time>2020-07-11T09:42:07Z</time>
      </trkpt>
      <trkpt lat="37.2499010" lon="-3.8291170">
        <ele>586.6</ele>
        <time>2020-07-11T09:42:08Z</time>
      </trkpt>
      <trkpt lat="37.2498510" lon="-3.8290160">
        <ele>586.4</ele>
        <time>2020-07-11T09:42:09Z</time>
      </trkpt>
      <trkpt lat="37.2497500" lon="-3.8288150">
        <ele>585.6</ele>
        <time>2020-07-11T09:42:11Z</time>
      </trkpt>
      <trkpt lat="37.2497050" lon="-3.8287260">
        <ele>585.4</ele>
        <time>2020-07-11T09:42:12Z</time>
      </trkpt>
      <trkpt lat="37.2495890" lon="-3.8285170">
        <ele>584.6</ele>
        <time>2020-07-11T09:42:14Z</time>
      </trkpt>
      <trkpt lat="37.2494100" lon="-3.8282110">
        <ele>583.2</ele>
        <time>2020-07-11T09:42:17Z</time>
      </trkpt>
      <trkpt lat="37.2493460" lon="-3.8281080">
        <ele>582.6</ele>
        <time>2020-07-11T09:42:18Z</time>
      </trkpt>
      <trkpt lat="37.2492080" lon="-3.8278990">
        <ele>581.6</ele>
        <time>2020-07-11T09:42:20Z</time>
      </trkpt>
      <trkpt lat="37.2491400" lon="-3.8277990">
        <ele>581.2</ele>
        <time>2020-07-11T09:42:21Z</time>
      </trkpt>
      <trkpt lat="37.2489920" lon="-3.8276030">
        <ele>580.6</ele>
        <time>2020-07-11T09:42:23Z</time>
      </trkpt>
      <trkpt lat="37.2489260" lon="-3.8275210">
        <ele>580.2</ele>
        <time>2020-07-11T09:42:24Z</time>
      </trkpt>
      <trkpt lat="37.2488430" lon="-3.8274200">
        <ele>579.8</ele>
        <time>2020-07-11T09:42:25Z</time>
      </trkpt>
      <trkpt lat="37.2487650" lon="-3.8273310">
        <ele>579.4</ele>
        <time>2020-07-11T09:42:26Z</time>
      </trkpt>
      <trkpt lat="37.2485300" lon="-3.8270780">
        <ele>578.2</ele>
        <time>2020-07-11T09:42:29Z</time>
      </trkpt>
      <trkpt lat="37.2483580" lon="-3.8269090">
        <ele>577.2</ele>
        <time>2020-07-11T09:42:31Z</time>
      </trkpt>
      <trkpt lat="37.2482760" lon="-3.8268350">
        <ele>576.6</ele>
        <time>2020-07-11T09:42:32Z</time>
      </trkpt>
      <trkpt lat="37.2481840" lon="-3.8267530">
        <ele>576.0</ele>
        <time>2020-07-11T09:42:33Z</time>
      </trkpt>
      <trkpt lat="37.2480230" lon="-3.8266170">
        <ele>574.8</ele>
        <time>2020-07-11T09:42:35Z</time>
      </trkpt>
      <trkpt lat="37.2478800" lon="-3.8265170">
        <ele>573.6</ele>
        <time>2020-07-11T09:42:37Z</time>
      </trkpt>
      <trkpt lat="37.2477130" lon="-3.8264680">
        <ele>572.6</ele>
        <time>2020-07-11T09:42:39Z</time>
      </trkpt>
      <trkpt lat="37.2476350" lon="-3.8264310">
        <ele>572.0</ele>
        <time>2020-07-11T09:42:40Z</time>
      </trkpt>
      <trkpt lat="37.2475650" lon="-3.8263690">
        <ele>571.6</ele>
        <time>2020-07-11T09:42:41Z</time>
      </trkpt>
      <trkpt lat="37.2475160" lon="-3.8263010">
        <ele>571.4</ele>
        <time>2020-07-11T09:42:42Z</time>
      </trkpt>
      <trkpt lat="37.2474530" lon="-3.8262160">
        <ele>571.2</ele>
        <time>2020-07-11T09:42:43Z</time>
      </trkpt>
      <trkpt lat="37.2473920" lon="-3.8261480">
        <ele>571.0</ele>
        <time>2020-07-11T09:42:44Z</time>
      </trkpt>
      <trkpt lat="37.2473210" lon="-3.8260890">
        <ele>571.2</ele>
        <time>2020-07-11T09:42:45Z</time>
      </trkpt>
      <trkpt lat="37.2471940" lon="-3.8259920">
        <ele>571.2</ele>
        <time>2020-07-11T09:42:47Z</time>
      </trkpt>
      <trkpt lat="37.2470650" lon="-3.8258970">
        <ele>571.6</ele>
        <time>2020-07-11T09:42:49Z</time>
      </trkpt>
      <trkpt lat="37.2469450" lon="-3.8258160">
        <ele>572.4</ele>
        <time>2020-07-11T09:42:51Z</time>
      </trkpt>
      <trkpt lat="37.2468930" lon="-3.8257760">
        <ele>573.0</ele>
        <time>2020-07-11T09:42:52Z</time>
      </trkpt>
      <trkpt lat="37.2468330" lon="-3.8257310">
        <ele>573.4</ele>
        <time>2020-07-11T09:42:53Z</time>
      </trkpt>
      <trkpt lat="37.2467220" lon="-3.8256480">
        <ele>574.0</ele>
        <time>2020-07-11T09:42:55Z</time>
      </trkpt>
      <trkpt lat="37.2466130" lon="-3.8255690">
        <ele>574.4</ele>
        <time>2020-07-11T09:42:57Z</time>
      </trkpt>
      <trkpt lat="37.2464970" lon="-3.8254830">
        <ele>575.0</ele>
        <time>2020-07-11T09:42:59Z</time>
      </trkpt>
      <trkpt lat="37.2464420" lon="-3.8254420">
        <ele>575.2</ele>
        <time>2020-07-11T09:43:00Z</time>
      </trkpt>
      <trkpt lat="37.2463200" lon="-3.8253520">
        <ele>575.4</ele>
        <time>2020-07-11T09:43:02Z</time>
      </trkpt>
      <trkpt lat="37.2461960" lon="-3.8252550">
        <ele>575.4</ele>
        <time>2020-07-11T09:43:04Z</time>
      </trkpt>
      <trkpt lat="37.2458110" lon="-3.8249620">
        <ele>574.8</ele>
        <time>2020-07-11T09:43:10Z</time>
      </trkpt>
      <trkpt lat="37.2456780" lon="-3.8248540">
        <ele>574.4</ele>
        <time>2020-07-11T09:43:12Z</time>
      </trkpt>
      <trkpt lat="37.2455980" lon="-3.8247910">
        <ele>574.0</ele>
        <time>2020-07-11T09:43:13Z</time>
      </trkpt>
      <trkpt lat="37.2453590" lon="-3.8245980">
        <ele>572.8</ele>
        <time>2020-07-11T09:43:16Z</time>
      </trkpt>
      <trkpt lat="37.2451970" lon="-3.8244490">
        <ele>572.0</ele>
        <time>2020-07-11T09:43:18Z</time>
      </trkpt>
      <trkpt lat="37.2451040" lon="-3.8243630">
        <ele>571.4</ele>
        <time>2020-07-11T09:43:19Z</time>
      </trkpt>
      <trkpt lat="37.2449330" lon="-3.8241770">
        <ele>570.0</ele>
        <time>2020-07-11T09:43:21Z</time>
      </trkpt>
      <trkpt lat="37.2447610" lon="-3.8239730">
        <ele>568.6</ele>
        <time>2020-07-11T09:43:23Z</time>
      </trkpt>
      <trkpt lat="37.2446850" lon="-3.8238780">
        <ele>568.0</ele>
        <time>2020-07-11T09:43:24Z</time>
      </trkpt>
      <trkpt lat="37.2445910" lon="-3.8237560">
        <ele>567.2</ele>
        <time>2020-07-11T09:43:25Z</time>
      </trkpt>
      <trkpt lat="37.2445050" lon="-3.8236420">
        <ele>566.4</ele>
        <time>2020-07-11T09:43:26Z</time>
      </trkpt>
      <trkpt lat="37.2444260" lon="-3.8235350">
        <ele>565.8</ele>
        <time>2020-07-11T09:43:27Z</time>
      </trkpt>
      <trkpt lat="37.2443330" lon="-3.8234100">
        <ele>564.8</ele>
        <time>2020-07-11T09:43:28Z</time>
      </trkpt>
      <trkpt lat="37.2442410" lon="-3.8232950">
        <ele>563.4</ele>
        <time>2020-07-11T09:43:29Z</time>
      </trkpt>
      <trkpt lat="37.2440540" lon="-3.8230680">
        <ele>561.8</ele>
        <time>2020-07-11T09:43:31Z</time>
      </trkpt>
      <trkpt lat="37.2439610" lon="-3.8229640">
        <ele>560.6</ele>
        <time>2020-07-11T09:43:32Z</time>
      </trkpt>
      <trkpt lat="37.2438520" lon="-3.8228490">
        <ele>559.6</ele>
        <time>2020-07-11T09:43:33Z</time>
      </trkpt>
      <trkpt lat="37.2437490" lon="-3.8227460">
        <ele>558.4</ele>
        <time>2020-07-11T09:43:34Z</time>
      </trkpt>
      <trkpt lat="37.2436370" lon="-3.8226420">
        <ele>557.2</ele>
        <time>2020-07-11T09:43:35Z</time>
      </trkpt>
      <trkpt lat="37.2435330" lon="-3.8225490">
        <ele>556.2</ele>
        <time>2020-07-11T09:43:36Z</time>
      </trkpt>
      <trkpt lat="37.2434230" lon="-3.8224540">
        <ele>554.8</ele>
        <time>2020-07-11T09:43:37Z</time>
      </trkpt>
      <trkpt lat="37.2433040" lon="-3.8223530">
        <ele>553.6</ele>
        <time>2020-07-11T09:43:38Z</time>
      </trkpt>
      <trkpt lat="37.2431960" lon="-3.8222650">
        <ele>552.6</ele>
        <time>2020-07-11T09:43:39Z</time>
      </trkpt>
      <trkpt lat="37.2430800" lon="-3.8221730">
        <ele>551.8</ele>
        <time>2020-07-11T09:43:40Z</time>
      </trkpt>
      <trkpt lat="37.2428780" lon="-3.8220070">
        <ele>550.4</ele>
        <time>2020-07-11T09:43:42Z</time>
      </trkpt>
      <trkpt lat="37.2425530" lon="-3.8217470">
        <ele>549.2</ele>
        <time>2020-07-11T09:43:45Z</time>
      </trkpt>
      <trkpt lat="37.2423570" lon="-3.8216050">
        <ele>548.2</ele>
        <time>2020-07-11T09:43:47Z</time>
      </trkpt>
      <trkpt lat="37.2422570" lon="-3.8215350">
        <ele>547.8</ele>
        <time>2020-07-11T09:43:48Z</time>
      </trkpt>
      <trkpt lat="37.2420560" lon="-3.8214000">
        <ele>546.6</ele>
        <time>2020-07-11T09:43:50Z</time>
      </trkpt>
      <trkpt lat="37.2417820" lon="-3.8212300">
        <ele>545.4</ele>
        <time>2020-07-11T09:43:53Z</time>
      </trkpt>
      <trkpt lat="37.2416860" lon="-3.8211690">
        <ele>545.2</ele>
        <time>2020-07-11T09:43:54Z</time>
      </trkpt>
      <trkpt lat="37.2413090" lon="-3.8209240">
        <ele>544.2</ele>
        <time>2020-07-11T09:43:58Z</time>
      </trkpt>
      <trkpt lat="37.2411400" lon="-3.8208150">
        <ele>543.8</ele>
        <time>2020-07-11T09:44:00Z</time>
      </trkpt>
      <trkpt lat="37.2409750" lon="-3.8207060">
        <ele>543.8</ele>
        <time>2020-07-11T09:44:02Z</time>
      </trkpt>
      <trkpt lat="37.2405930" lon="-3.8204680">
        <ele>543.2</ele>
        <time>2020-07-11T09:44:07Z</time>
      </trkpt>
      <trkpt lat="37.2405140" lon="-3.8204160">
        <ele>543.2</ele>
        <time>2020-07-11T09:44:08Z</time>
      </trkpt>
      <trkpt lat="37.2404460" lon="-3.8203760">
        <ele>543.0</ele>
        <time>2020-07-11T09:44:09Z</time>
      </trkpt>
      <trkpt lat="37.2403700" lon="-3.8203300">
        <ele>543.0</ele>
        <time>2020-07-11T09:44:10Z</time>
      </trkpt>
      <trkpt lat="37.2398790" lon="-3.8200190">
        <ele>542.4</ele>
        <time>2020-07-11T09:44:17Z</time>
      </trkpt>
      <trkpt lat="37.2398100" lon="-3.8199760">
        <ele>542.2</ele>
        <time>2020-07-11T09:44:18Z</time>
      </trkpt>
      <trkpt lat="37.2396670" lon="-3.8198850">
        <ele>542.2</ele>
        <time>2020-07-11T09:44:20Z</time>
      </trkpt>
      <trkpt lat="37.2391320" lon="-3.8195460">
        <ele>541.4</ele>
        <time>2020-07-11T09:44:28Z</time>
      </trkpt>
      <trkpt lat="37.2390700" lon="-3.8195080">
        <ele>541.4</ele>
        <time>2020-07-11T09:44:29Z</time>
      </trkpt>
      <trkpt lat="37.2388180" lon="-3.8193490">
        <ele>541.2</ele>
        <time>2020-07-11T09:44:33Z</time>
      </trkpt>
      <trkpt lat="37.2385700" lon="-3.8191960">
        <ele>540.8</ele>
        <time>2020-07-11T09:44:37Z</time>
      </trkpt>
      <trkpt lat="37.2384430" lon="-3.8191190">
        <ele>540.8</ele>
        <time>2020-07-11T09:44:39Z</time>
      </trkpt>
      <trkpt lat="37.2383150" lon="-3.8190400">
        <ele>541.0</ele>
        <time>2020-07-11T09:44:41Z</time>
      </trkpt>
      <trkpt lat="37.2382610" lon="-3.8190080">
        <ele>540.8</ele>
        <time>2020-07-11T09:44:42Z</time>
      </trkpt>
      <trkpt lat="37.2379440" lon="-3.8188180">
        <ele>540.6</ele>
        <time>2020-07-11T09:44:47Z</time>
      </trkpt>
      <trkpt lat="37.2377520" lon="-3.8187180">
        <ele>540.4</ele>
        <time>2020-07-11T09:44:50Z</time>
      </trkpt>
      <trkpt lat="37.2372370" lon="-3.8184950">
        <ele>540.4</ele>
        <time>2020-07-11T09:44:58Z</time>
      </trkpt>
      <trkpt lat="37.2371060" lon="-3.8184530">
        <ele>540.4</ele>
        <time>2020-07-11T09:45:00Z</time>
      </trkpt>
      <trkpt lat="37.2369050" lon="-3.8183880">
        <ele>540.0</ele>
        <time>2020-07-11T09:45:03Z</time>
      </trkpt>
      <trkpt lat="37.2367010" lon="-3.8183470">
        <ele>540.0</ele>
        <time>2020-07-11T09:45:06Z</time>
      </trkpt>
      <trkpt lat="37.2362820" lon="-3.8183100">
        <ele>539.8</ele>
        <time>2020-07-11T09:45:12Z</time>
      </trkpt>
      <trkpt lat="37.2362030" lon="-3.8183020">
        <ele>539.8</ele>
        <time>2020-07-11T09:45:13Z</time>
      </trkpt>
      <trkpt lat="37.2356600" lon="-3.8182800">
        <ele>539.2</ele>
        <time>2020-07-11T09:45:21Z</time>
      </trkpt>
      <trkpt lat="37.2356000" lon="-3.8182810">
        <ele>539.2</ele>
        <time>2020-07-11T09:45:22Z</time>
      </trkpt>
      <trkpt lat="37.2354820" lon="-3.8182820">
        <ele>539.0</ele>
        <time>2020-07-11T09:45:24Z</time>
      </trkpt>
      <trkpt lat="37.2353120" lon="-3.8182880">
        <ele>538.8</ele>
        <time>2020-07-11T09:45:27Z</time>
      </trkpt>
      <trkpt lat="37.2351990" lon="-3.8182800">
        <ele>539.0</ele>
        <time>2020-07-11T09:45:29Z</time>
      </trkpt>
      <trkpt lat="37.2350950" lon="-3.8182770">
        <ele>538.8</ele>
        <time>2020-07-11T09:45:31Z</time>
      </trkpt>
      <trkpt lat="37.2349760" lon="-3.8182800">
        <ele>538.8</ele>
        <time>2020-07-11T09:45:33Z</time>
      </trkpt>
      <trkpt lat="37.2348640" lon="-3.8182790">
        <ele>538.8</ele>
        <time>2020-07-11T09:45:35Z</time>
      </trkpt>
      <trkpt lat="37.2347520" lon="-3.8182800">
        <ele>538.8</ele>
        <time>2020-07-11T09:45:37Z</time>
      </trkpt>
      <trkpt lat="37.2346920" lon="-3.8182750">
        <ele>538.6</ele>
        <time>2020-07-11T09:45:38Z</time>
      </trkpt>
      <trkpt lat="37.2345900" lon="-3.8182400">
        <ele>538.4</ele>
        <time>2020-07-11T09:45:40Z</time>
      </trkpt>
      <trkpt lat="37.2345570" lon="-3.8181850">
        <ele>538.4</ele>
        <time>2020-07-11T09:45:41Z</time>
      </trkpt>
      <trkpt lat="37.2345140" lon="-3.8180430">
        <ele>538.4</ele>
        <time>2020-07-11T09:45:43Z</time>
      </trkpt>
      <trkpt lat="37.2344960" lon="-3.8179720">
        <ele>538.4</ele>
        <time>2020-07-11T09:45:44Z</time>
      </trkpt>
      <trkpt lat="37.2344570" lon="-3.8178100">
        <ele>538.2</ele>
        <time>2020-07-11T09:45:46Z</time>
      </trkpt>
      <trkpt lat="37.2343910" lon="-3.8175700">
        <ele>538.0</ele>
        <time>2020-07-11T09:45:49Z</time>
      </trkpt>
      <trkpt lat="37.2343430" lon="-3.8174010">
        <ele>537.8</ele>
        <time>2020-07-11T09:45:51Z</time>
      </trkpt>
      <trkpt lat="37.2343230" lon="-3.8173250">
        <ele>537.6</ele>
        <time>2020-07-11T09:45:52Z</time>
      </trkpt>
      <trkpt lat="37.2342240" lon="-3.8169980">
        <ele>537.4</ele>
        <time>2020-07-11T09:45:56Z</time>
      </trkpt>
      <trkpt lat="37.2341750" lon="-3.8168350">
        <ele>537.2</ele>
        <time>2020-07-11T09:45:58Z</time>
      </trkpt>
      <trkpt lat="37.2341050" lon="-3.8166000">
        <ele>537.2</ele>
        <time>2020-07-11T09:46:01Z</time>
      </trkpt>
      <trkpt lat="37.2340560" lon="-3.8164390">
        <ele>536.8</ele>
        <time>2020-07-11T09:46:03Z</time>
      </trkpt>
      <trkpt lat="37.2339390" lon="-3.8160420">
        <ele>536.4</ele>
        <time>2020-07-11T09:46:08Z</time>
      </trkpt>
      <trkpt lat="37.2338790" lon="-3.8158140">
        <ele>536.0</ele>
        <time>2020-07-11T09:46:11Z</time>
      </trkpt>
      <trkpt lat="37.2338620" lon="-3.8157480">
        <ele>536.0</ele>
        <time>2020-07-11T09:46:12Z</time>
      </trkpt>
      <trkpt lat="37.2338370" lon="-3.8156730">
        <ele>535.8</ele>
        <time>2020-07-11T09:46:13Z</time>
      </trkpt>
      <trkpt lat="37.2338200" lon="-3.8156220">
        <ele>535.8</ele>
        <time>2020-07-11T09:46:14Z</time>
      </trkpt>
      <trkpt lat="37.2338060" lon="-3.8155800">
        <ele>535.8</ele>
        <time>2020-07-11T09:46:15Z</time>
      </trkpt>
      <trkpt lat="37.2338000" lon="-3.8155510">
        <ele>535.8</ele>
        <time>2020-07-11T09:46:16Z</time>
      </trkpt>
      <trkpt lat="37.2338020" lon="-3.8155370">
        <ele>535.6</ele>
        <time>2020-07-11T09:46:18Z</time>
      </trkpt>
      <trkpt lat="37.2337990" lon="-3.8155250">
        <ele>535.4</ele>
        <time>2020-07-11T09:46:19Z</time>
      </trkpt>
      <trkpt lat="37.2337960" lon="-3.8154730">
        <ele>535.4</ele>
        <time>2020-07-11T09:46:21Z</time>
      </trkpt>
      <trkpt lat="37.2338180" lon="-3.8154050">
        <ele>535.2</ele>
        <time>2020-07-11T09:46:23Z</time>
      </trkpt>
      <trkpt lat="37.2338730" lon="-3.8152690">
        <ele>535.2</ele>
        <time>2020-07-11T09:46:26Z</time>
      </trkpt>
      <trkpt lat="37.2338810" lon="-3.8152150">
        <ele>535.2</ele>
        <time>2020-07-11T09:46:27Z</time>
      </trkpt>
      <trkpt lat="37.2338670" lon="-3.8150220">
        <ele>535.2</ele>
        <time>2020-07-11T09:46:30Z</time>
      </trkpt>
      <trkpt lat="37.2338580" lon="-3.8149480">
        <ele>535.2</ele>
        <time>2020-07-11T09:46:31Z</time>
      </trkpt>
      <trkpt lat="37.2338330" lon="-3.8148030">
        <ele>535.2</ele>
        <time>2020-07-11T09:46:33Z</time>
      </trkpt>
      <trkpt lat="37.2337840" lon="-3.8145680">
        <ele>535.4</ele>
        <time>2020-07-11T09:46:36Z</time>
      </trkpt>
      <trkpt lat="37.2337650" lon="-3.8144880">
        <ele>535.4</ele>
        <time>2020-07-11T09:46:37Z</time>
      </trkpt>
      <trkpt lat="37.2337290" lon="-3.8143080">
        <ele>535.6</ele>
        <time>2020-07-11T09:46:39Z</time>
      </trkpt>
      <trkpt lat="37.2336930" lon="-3.8141270">
        <ele>535.6</ele>
        <time>2020-07-11T09:46:41Z</time>
      </trkpt>
      <trkpt lat="37.2336570" lon="-3.8139480">
        <ele>535.4</ele>
        <time>2020-07-11T09:46:43Z</time>
      </trkpt>
      <trkpt lat="37.2336400" lon="-3.8138590">
        <ele>535.4</ele>
        <time>2020-07-11T09:46:44Z</time>
      </trkpt>
      <trkpt lat="37.2336030" lon="-3.8136810">
        <ele>535.0</ele>
        <time>2020-07-11T09:46:46Z</time>
      </trkpt>
      <trkpt lat="37.2335280" lon="-3.8133230">
        <ele>534.8</ele>
        <time>2020-07-11T09:46:50Z</time>
      </trkpt>
      <trkpt lat="37.2333920" lon="-3.8126930">
        <ele>534.4</ele>
        <time>2020-07-11T09:46:57Z</time>
      </trkpt>
      <trkpt lat="37.2332440" lon="-3.8119460">
        <ele>534.2</ele>
        <time>2020-07-11T09:47:05Z</time>
      </trkpt>
      <trkpt lat="37.2331740" lon="-3.8115680">
        <ele>534.0</ele>
        <time>2020-07-11T09:47:09Z</time>
      </trkpt>
      <trkpt lat="37.2331230" lon="-3.8112840">
        <ele>533.8</ele>
        <time>2020-07-11T09:47:12Z</time>
      </trkpt>
      <trkpt lat="37.2329940" lon="-3.8105830">
        <ele>533.4</ele>
        <time>2020-07-11T09:47:19Z</time>
      </trkpt>
      <trkpt lat="37.2329240" lon="-3.8101780">
        <ele>533.2</ele>
        <time>2020-07-11T09:47:23Z</time>
      </trkpt>
      <trkpt lat="37.2328030" lon="-3.8094810">
        <ele>533.0</ele>
        <time>2020-07-11T09:47:30Z</time>
      </trkpt>
      <trkpt lat="37.2327120" lon="-3.8089620">
        <ele>533.0</ele>
        <time>2020-07-11T09:47:35Z</time>
      </trkpt>
      <trkpt lat="37.2326580" lon="-3.8086530">
        <ele>532.6</ele>
        <time>2020-07-11T09:47:38Z</time>
      </trkpt>
      <trkpt lat="37.2325340" lon="-3.8079470">
        <ele>531.8</ele>
        <time>2020-07-11T09:47:45Z</time>
      </trkpt>
      <trkpt lat="37.2325090" lon="-3.8078490">
        <ele>531.8</ele>
        <time>2020-07-11T09:47:46Z</time>
      </trkpt>
      <trkpt lat="37.2323150" lon="-3.8072880">
        <ele>531.6</ele>
        <time>2020-07-11T09:47:52Z</time>
      </trkpt>
      <trkpt lat="37.2319940" lon="-3.8066810">
        <ele>531.0</ele>
        <time>2020-07-11T09:47:59Z</time>
      </trkpt>
      <trkpt lat="37.2316680" lon="-3.8060770">
        <ele>530.8</ele>
        <time>2020-07-11T09:48:06Z</time>
      </trkpt>
      <trkpt lat="37.2314750" lon="-3.8057280">
        <ele>530.6</ele>
        <time>2020-07-11T09:48:10Z</time>
      </trkpt>
      <trkpt lat="37.2311530" lon="-3.8051250">
        <ele>530.6</ele>
        <time>2020-07-11T09:48:17Z</time>
      </trkpt>
      <trkpt lat="37.2309370" lon="-3.8045900">
        <ele>530.6</ele>
        <time>2020-07-11T09:48:23Z</time>
      </trkpt>
      <trkpt lat="37.2308860" lon="-3.8044020">
        <ele>530.8</ele>
        <time>2020-07-11T09:48:25Z</time>
      </trkpt>
      <trkpt lat="37.2308130" lon="-3.8040320">
        <ele>531.0</ele>
        <time>2020-07-11T09:48:29Z</time>
      </trkpt>
      <trkpt lat="37.2307790" lon="-3.8034750">
        <ele>531.2</ele>
        <time>2020-07-11T09:48:35Z</time>
      </trkpt>
      <trkpt lat="37.2308170" lon="-3.8030040">
        <ele>531.4</ele>
        <time>2020-07-11T09:48:40Z</time>
      </trkpt>
      <trkpt lat="37.2309210" lon="-3.8024600">
        <ele>531.8</ele>
        <time>2020-07-11T09:48:46Z</time>
      </trkpt>
      <trkpt lat="37.2311310" lon="-3.8017780">
        <ele>532.4</ele>
        <time>2020-07-11T09:48:54Z</time>
      </trkpt>
      <trkpt lat="37.2313550" lon="-3.8010680">
        <ele>532.4</ele>
        <time>2020-07-11T09:49:02Z</time>
      </trkpt>
      <trkpt lat="37.2313840" lon="-3.8009730">
        <ele>532.4</ele>
        <time>2020-07-11T09:49:03Z</time>
      </trkpt>
      <trkpt lat="37.2314720" lon="-3.8007180">
        <ele>532.6</ele>
        <time>2020-07-11T09:49:06Z</time>
      </trkpt>
      <trkpt lat="37.2316180" lon="-3.8002810">
        <ele>532.8</ele>
        <time>2020-07-11T09:49:11Z</time>
      </trkpt>
      <trkpt lat="37.2318260" lon="-3.7996840">
        <ele>533.4</ele>
        <time>2020-07-11T09:49:18Z</time>
      </trkpt>
      <trkpt lat="37.2318930" lon="-3.7995070">
        <ele>533.4</ele>
        <time>2020-07-11T09:49:20Z</time>
      </trkpt>
      <trkpt lat="37.2320330" lon="-3.7991730">
        <ele>533.6</ele>
        <time>2020-07-11T09:49:24Z</time>
      </trkpt>
      <trkpt lat="37.2321800" lon="-3.7988230">
        <ele>533.8</ele>
        <time>2020-07-11T09:49:28Z</time>
      </trkpt>
      <trkpt lat="37.2323530" lon="-3.7983590">
        <ele>534.8</ele>
        <time>2020-07-11T09:49:34Z</time>
      </trkpt>
      <trkpt lat="37.2323730" lon="-3.7982820">
        <ele>535.0</ele>
        <time>2020-07-11T09:49:35Z</time>
      </trkpt>
      <trkpt lat="37.2323950" lon="-3.7981340">
        <ele>535.4</ele>
        <time>2020-07-11T09:49:37Z</time>
      </trkpt>
      <trkpt lat="37.2324080" lon="-3.7979750">
        <ele>536.0</ele>
        <time>2020-07-11T09:49:39Z</time>
      </trkpt>
      <trkpt lat="37.2324100" lon="-3.7978900">
        <ele>536.2</ele>
        <time>2020-07-11T09:49:40Z</time>
      </trkpt>
      <trkpt lat="37.2324040" lon="-3.7978090">
        <ele>536.4</ele>
        <time>2020-07-11T09:49:41Z</time>
      </trkpt>
      <trkpt lat="37.2323880" lon="-3.7976340">
        <ele>536.8</ele>
        <time>2020-07-11T09:49:43Z</time>
      </trkpt>
      <trkpt lat="37.2323730" lon="-3.7974550">
        <ele>537.0</ele>
        <time>2020-07-11T09:49:45Z</time>
      </trkpt>
      <trkpt lat="37.2323710" lon="-3.7971020">
        <ele>537.4</ele>
        <time>2020-07-11T09:49:49Z</time>
      </trkpt>
      <trkpt lat="37.2324120" lon="-3.7969200">
        <ele>537.6</ele>
        <time>2020-07-11T09:49:51Z</time>
      </trkpt>
      <trkpt lat="37.2324750" lon="-3.7967370">
        <ele>537.6</ele>
        <time>2020-07-11T09:49:53Z</time>
      </trkpt>
      <trkpt lat="37.2325760" lon="-3.7964550">
        <ele>537.2</ele>
        <time>2020-07-11T09:49:56Z</time>
      </trkpt>
      <trkpt lat="37.2326440" lon="-3.7960640">
        <ele>536.2</ele>
        <time>2020-07-11T09:50:00Z</time>
      </trkpt>
      <trkpt lat="37.2326410" lon="-3.7959550">
        <ele>536.0</ele>
        <time>2020-07-11T09:50:01Z</time>
      </trkpt>
      <trkpt lat="37.2326340" lon="-3.7958620">
        <ele>536.0</ele>
        <time>2020-07-11T09:50:02Z</time>
      </trkpt>
      <trkpt lat="37.2325780" lon="-3.7952640">
        <ele>535.8</ele>
        <time>2020-07-11T09:50:08Z</time>
      </trkpt>
      <trkpt lat="37.2325440" lon="-3.7949830">
        <ele>535.8</ele>
        <time>2020-07-11T09:50:11Z</time>
      </trkpt>
      <trkpt lat="37.2325140" lon="-3.7946930">
        <ele>535.6</ele>
        <time>2020-07-11T09:50:14Z</time>
      </trkpt>
      <trkpt lat="37.2324630" lon="-3.7943300">
        <ele>535.8</ele>
        <time>2020-07-11T09:50:18Z</time>
      </trkpt>
      <trkpt lat="37.2324190" lon="-3.7940390">
        <ele>535.8</ele>
        <time>2020-07-11T09:50:21Z</time>
      </trkpt>
      <trkpt lat="37.2324050" lon="-3.7939490">
        <ele>535.8</ele>
        <time>2020-07-11T09:50:22Z</time>
      </trkpt>
      <trkpt lat="37.2323320" lon="-3.7934750">
        <ele>536.0</ele>
        <time>2020-07-11T09:50:27Z</time>
      </trkpt>
      <trkpt lat="37.2322740" lon="-3.7931010">
        <ele>536.2</ele>
        <time>2020-07-11T09:50:31Z</time>
      </trkpt>
      <trkpt lat="37.2321790" lon="-3.7923580">
        <ele>536.2</ele>
        <time>2020-07-11T09:50:39Z</time>
      </trkpt>
      <trkpt lat="37.2321530" lon="-3.7921800">
        <ele>536.2</ele>
        <time>2020-07-11T09:50:41Z</time>
      </trkpt>
      <trkpt lat="37.2320940" lon="-3.7914830">
        <ele>536.4</ele>
        <time>2020-07-11T09:50:49Z</time>
      </trkpt>
      <trkpt lat="37.2320590" lon="-3.7907380">
        <ele>536.8</ele>
        <time>2020-07-11T09:50:57Z</time>
      </trkpt>
      <trkpt lat="37.2320480" lon="-3.7906500">
        <ele>536.8</ele>
        <time>2020-07-11T09:50:58Z</time>
      </trkpt>
      <trkpt lat="37.2320280" lon="-3.7905770">
        <ele>537.0</ele>
        <time>2020-07-11T09:50:59Z</time>
      </trkpt>
      <trkpt lat="37.2319780" lon="-3.7904750">
        <ele>536.8</ele>
        <time>2020-07-11T09:51:01Z</time>
      </trkpt>
      <trkpt lat="37.2319190" lon="-3.7903720">
        <ele>536.8</ele>
        <time>2020-07-11T09:51:03Z</time>
      </trkpt>
      <trkpt lat="37.2317970" lon="-3.7902370">
        <ele>536.6</ele>
        <time>2020-07-11T09:51:06Z</time>
      </trkpt>
      <trkpt lat="37.2317450" lon="-3.7901890">
        <ele>536.6</ele>
        <time>2020-07-11T09:51:07Z</time>
      </trkpt>
      <trkpt lat="37.2316240" lon="-3.7901010">
        <ele>536.8</ele>
        <time>2020-07-11T09:51:09Z</time>
      </trkpt>
      <trkpt lat="37.2314290" lon="-3.7899880">
        <ele>536.8</ele>
        <time>2020-07-11T09:51:12Z</time>
      </trkpt>
      <trkpt lat="37.2309130" lon="-3.7897140">
        <ele>536.8</ele>
        <time>2020-07-11T09:51:19Z</time>
      </trkpt>
      <trkpt lat="37.2304080" lon="-3.7894430">
        <ele>536.8</ele>
        <time>2020-07-11T09:51:26Z</time>
      </trkpt>
      <trkpt lat="37.2302700" lon="-3.7893660">
        <ele>536.8</ele>
        <time>2020-07-11T09:51:28Z</time>
      </trkpt>
      <trkpt lat="37.2298340" lon="-3.7891270">
        <ele>536.8</ele>
        <time>2020-07-11T09:51:34Z</time>
      </trkpt>
      <trkpt lat="37.2296920" lon="-3.7890520">
        <ele>536.8</ele>
        <time>2020-07-11T09:51:36Z</time>
      </trkpt>
      <trkpt lat="37.2291800" lon="-3.7887810">
        <ele>537.0</ele>
        <time>2020-07-11T09:51:43Z</time>
      </trkpt>
      <trkpt lat="37.2286650" lon="-3.7885030">
        <ele>537.0</ele>
        <time>2020-07-11T09:51:50Z</time>
      </trkpt>
      <trkpt lat="37.2285930" lon="-3.7884620">
        <ele>536.8</ele>
        <time>2020-07-11T09:51:51Z</time>
      </trkpt>
      <trkpt lat="37.2280880" lon="-3.7881910">
        <ele>537.0</ele>
        <time>2020-07-11T09:51:58Z</time>
      </trkpt>
      <trkpt lat="37.2278050" lon="-3.7880300">
        <ele>536.8</ele>
        <time>2020-07-11T09:52:02Z</time>
      </trkpt>
      <trkpt lat="37.2272910" lon="-3.7877420">
        <ele>536.8</ele>
        <time>2020-07-11T09:52:09Z</time>
      </trkpt>
      <trkpt lat="37.2272160" lon="-3.7876980">
        <ele>536.8</ele>
        <time>2020-07-11T09:52:10Z</time>
      </trkpt>
      <trkpt lat="37.2267110" lon="-3.7874220">
        <ele>536.8</ele>
        <time>2020-07-11T09:52:17Z</time>
      </trkpt>
      <trkpt lat="37.2265650" lon="-3.7873450">
        <ele>536.8</ele>
        <time>2020-07-11T09:52:19Z</time>
      </trkpt>
      <trkpt lat="37.2260070" lon="-3.7870490">
        <ele>537.0</ele>
        <time>2020-07-11T09:52:27Z</time>
      </trkpt>
      <trkpt lat="37.2257220" lon="-3.7868970">
        <ele>537.0</ele>
        <time>2020-07-11T09:52:31Z</time>
      </trkpt>
      <trkpt lat="37.2254560" lon="-3.7867480">
        <ele>537.2</ele>
        <time>2020-07-11T09:52:35Z</time>
      </trkpt>
      <trkpt lat="37.2253930" lon="-3.7867110">
        <ele>537.2</ele>
        <time>2020-07-11T09:52:36Z</time>
      </trkpt>
      <trkpt lat="37.2248640" lon="-3.7864330">
        <ele>537.4</ele>
        <time>2020-07-11T09:52:44Z</time>
      </trkpt>
      <trkpt lat="37.2245250" lon="-3.7862540">
        <ele>537.6</ele>
        <time>2020-07-11T09:52:49Z</time>
      </trkpt>
      <trkpt lat="37.2244640" lon="-3.7862190">
        <ele>537.8</ele>
        <time>2020-07-11T09:52:50Z</time>
      </trkpt>
      <trkpt lat="37.2242700" lon="-3.7861150">
        <ele>537.8</ele>
        <time>2020-07-11T09:52:53Z</time>
      </trkpt>
      <trkpt lat="37.2239990" lon="-3.7859660">
        <ele>537.8</ele>
        <time>2020-07-11T09:52:57Z</time>
      </trkpt>
      <trkpt lat="37.2239260" lon="-3.7859200">
        <ele>538.0</ele>
        <time>2020-07-11T09:52:58Z</time>
      </trkpt>
      <trkpt lat="37.2238160" lon="-3.7858550">
        <ele>538.0</ele>
        <time>2020-07-11T09:53:00Z</time>
      </trkpt>
      <trkpt lat="37.2234400" lon="-3.7856580">
        <ele>537.8</ele>
        <time>2020-07-11T09:53:05Z</time>
      </trkpt>
      <trkpt lat="37.2229710" lon="-3.7854250">
        <ele>537.8</ele>
        <time>2020-07-11T09:53:12Z</time>
      </trkpt>
      <trkpt lat="37.2224360" lon="-3.7851190">
        <ele>537.8</ele>
        <time>2020-07-11T09:53:20Z</time>
      </trkpt>
      <trkpt lat="37.2223730" lon="-3.7850810">
        <ele>537.6</ele>
        <time>2020-07-11T09:53:21Z</time>
      </trkpt>
      <trkpt lat="37.2219870" lon="-3.7848850">
        <ele>537.8</ele>
        <time>2020-07-11T09:53:27Z</time>
      </trkpt>
      <trkpt lat="37.2219250" lon="-3.7848420">
        <ele>538.0</ele>
        <time>2020-07-11T09:53:28Z</time>
      </trkpt>
      <trkpt lat="37.2216530" lon="-3.7847000">
        <ele>538.4</ele>
        <time>2020-07-11T09:53:32Z</time>
      </trkpt>
      <trkpt lat="37.2211700" lon="-3.7844390">
        <ele>537.8</ele>
        <time>2020-07-11T09:53:39Z</time>
      </trkpt>
      <trkpt lat="37.2207290" lon="-3.7841940">
        <ele>538.0</ele>
        <time>2020-07-11T09:53:46Z</time>
      </trkpt>
      <trkpt lat="37.2205400" lon="-3.7841040">
        <ele>537.8</ele>
        <time>2020-07-11T09:53:49Z</time>
      </trkpt>
      <trkpt lat="37.2203670" lon="-3.7840090">
        <ele>537.8</ele>
        <time>2020-07-11T09:53:52Z</time>
      </trkpt>
      <trkpt lat="37.2202520" lon="-3.7839470">
        <ele>537.6</ele>
        <time>2020-07-11T09:53:54Z</time>
      </trkpt>
      <trkpt lat="37.2201350" lon="-3.7838870">
        <ele>537.2</ele>
        <time>2020-07-11T09:53:57Z</time>
      </trkpt>
      <trkpt lat="37.2199310" lon="-3.7837740">
        <ele>537.2</ele>
        <time>2020-07-11T09:54:02Z</time>
      </trkpt>
      <trkpt lat="37.2197830" lon="-3.7836900">
        <ele>537.4</ele>
        <time>2020-07-11T09:54:05Z</time>
      </trkpt>
      <trkpt lat="37.2196860" lon="-3.7836390">
        <ele>537.4</ele>
        <time>2020-07-11T09:54:07Z</time>
      </trkpt>
      <trkpt lat="37.2195310" lon="-3.7835560">
        <ele>537.4</ele>
        <time>2020-07-11T09:54:10Z</time>
      </trkpt>
      <trkpt lat="37.2192240" lon="-3.7833610">
        <ele>537.4</ele>
        <time>2020-07-11T09:54:17Z</time>
      </trkpt>
      <trkpt lat="37.2190920" lon="-3.7832010">
        <ele>537.2</ele>
        <time>2020-07-11T09:54:21Z</time>
      </trkpt>
      <trkpt lat="37.2190480" lon="-3.7831100">
        <ele>537.2</ele>
        <time>2020-07-11T09:54:23Z</time>
      </trkpt>
      <trkpt lat="37.2190280" lon="-3.7830140">
        <ele>537.2</ele>
        <time>2020-07-11T09:54:25Z</time>
      </trkpt>
      <trkpt lat="37.2190200" lon="-3.7829600">
        <ele>537.2</ele>
        <time>2020-07-11T09:54:26Z</time>
      </trkpt>
      <trkpt lat="37.2190170" lon="-3.7829060">
        <ele>537.2</ele>
        <time>2020-07-11T09:54:27Z</time>
      </trkpt>
      <trkpt lat="37.2190150" lon="-3.7828470">
        <ele>537.2</ele>
        <time>2020-07-11T09:54:28Z</time>
      </trkpt>
      <trkpt lat="37.2190050" lon="-3.7826500">
        <ele>537.4</ele>
        <time>2020-07-11T09:54:32Z</time>
      </trkpt>
      <trkpt lat="37.2190000" lon="-3.7825550">
        <ele>537.4</ele>
        <time>2020-07-11T09:54:34Z</time>
      </trkpt>
      <trkpt lat="37.2190030" lon="-3.7825100">
        <ele>537.2</ele>
        <time>2020-07-11T09:54:35Z</time>
      </trkpt>
      <trkpt lat="37.2190040" lon="-3.7823650">
        <ele>537.2</ele>
        <time>2020-07-11T09:54:38Z</time>
      </trkpt>
      <trkpt lat="37.2190030" lon="-3.7822560">
        <ele>537.2</ele>
        <time>2020-07-11T09:54:40Z</time>
      </trkpt>
      <trkpt lat="37.2189980" lon="-3.7821480">
        <ele>537.2</ele>
        <time>2020-07-11T09:54:42Z</time>
      </trkpt>
      <trkpt lat="37.2189990" lon="-3.7820810">
        <ele>537.4</ele>
        <time>2020-07-11T09:54:43Z</time>
      </trkpt>
      <trkpt lat="37.2189900" lon="-3.7817670">
        <ele>537.4</ele>
        <time>2020-07-11T09:54:48Z</time>
      </trkpt>
      <trkpt lat="37.2189830" lon="-3.7816340">
        <ele>537.6</ele>
        <time>2020-07-11T09:54:50Z</time>
      </trkpt>
      <trkpt lat="37.2189520" lon="-3.7809990">
        <ele>537.8</ele>
        <time>2020-07-11T09:54:59Z</time>
      </trkpt>
      <trkpt lat="37.2189460" lon="-3.7807970">
        <ele>537.8</ele>
        <time>2020-07-11T09:55:02Z</time>
      </trkpt>
      <trkpt lat="37.2189320" lon="-3.7805080">
        <ele>538.2</ele>
        <time>2020-07-11T09:55:06Z</time>
      </trkpt>
      <trkpt lat="37.2189250" lon="-3.7803370">
        <ele>538.2</ele>
        <time>2020-07-11T09:55:08Z</time>
      </trkpt>
      <trkpt lat="37.2188910" lon="-3.7796730">
        <ele>538.6</ele>
        <time>2020-07-11T09:55:16Z</time>
      </trkpt>
      <trkpt lat="37.2188550" lon="-3.7789450">
        <ele>539.0</ele>
        <time>2020-07-11T09:55:25Z</time>
      </trkpt>
      <trkpt lat="37.2188500" lon="-3.7788650">
        <ele>539.0</ele>
        <time>2020-07-11T09:55:26Z</time>
      </trkpt>
      <trkpt lat="37.2188370" lon="-3.7787060">
        <ele>539.0</ele>
        <time>2020-07-11T09:55:28Z</time>
      </trkpt>
      <trkpt lat="37.2187560" lon="-3.7781660">
        <ele>539.2</ele>
        <time>2020-07-11T09:55:35Z</time>
      </trkpt>
      <trkpt lat="37.2186540" lon="-3.7776210">
        <ele>539.6</ele>
        <time>2020-07-11T09:55:42Z</time>
      </trkpt>
      <trkpt lat="37.2185350" lon="-3.7771500">
        <ele>539.8</ele>
        <time>2020-07-11T09:55:48Z</time>
      </trkpt>
      <trkpt lat="37.2184840" lon="-3.7769110">
        <ele>540.2</ele>
        <time>2020-07-11T09:55:51Z</time>
      </trkpt>
      <trkpt lat="37.2184110" lon="-3.7765960">
        <ele>540.4</ele>
        <time>2020-07-11T09:55:55Z</time>
      </trkpt>
      <trkpt lat="37.2183450" lon="-3.7762840">
        <ele>540.4</ele>
        <time>2020-07-11T09:55:59Z</time>
      </trkpt>
      <trkpt lat="37.2182200" lon="-3.7758140">
        <ele>540.4</ele>
        <time>2020-07-11T09:56:05Z</time>
      </trkpt>
      <trkpt lat="37.2181530" lon="-3.7756700">
        <ele>540.4</ele>
        <time>2020-07-11T09:56:07Z</time>
      </trkpt>
      <trkpt lat="37.2180270" lon="-3.7754770">
        <ele>540.6</ele>
        <time>2020-07-11T09:56:10Z</time>
      </trkpt>
      <trkpt lat="37.2179660" lon="-3.7754000">
        <ele>540.6</ele>
        <time>2020-07-11T09:56:11Z</time>
      </trkpt>
      <trkpt lat="37.2176660" lon="-3.7750330">
        <ele>540.8</ele>
        <time>2020-07-11T09:56:17Z</time>
      </trkpt>
      <trkpt lat="37.2172550" lon="-3.7745360">
        <ele>540.8</ele>
        <time>2020-07-11T09:56:25Z</time>
      </trkpt>
      <trkpt lat="37.2170100" lon="-3.7742310">
        <ele>540.8</ele>
        <time>2020-07-11T09:56:30Z</time>
      </trkpt>
      <trkpt lat="37.2167570" lon="-3.7738070">
        <ele>541.0</ele>
        <time>2020-07-11T09:56:36Z</time>
      </trkpt>
      <trkpt lat="37.2167120" lon="-3.7735480">
        <ele>541.2</ele>
        <time>2020-07-11T09:56:39Z</time>
      </trkpt>
      <trkpt lat="37.2167010" lon="-3.7734590">
        <ele>541.0</ele>
        <time>2020-07-11T09:56:40Z</time>
      </trkpt>
      <trkpt lat="37.2165950" lon="-3.7727710">
        <ele>541.2</ele>
        <time>2020-07-11T09:56:48Z</time>
      </trkpt>
      <trkpt lat="37.2165580" lon="-3.7726920">
        <ele>541.2</ele>
        <time>2020-07-11T09:56:49Z</time>
      </trkpt>
      <trkpt lat="37.2163230" lon="-3.7723740">
        <ele>541.4</ele>
        <time>2020-07-11T09:56:54Z</time>
      </trkpt>
      <trkpt lat="37.2159950" lon="-3.7722040">
        <ele>541.4</ele>
        <time>2020-07-11T09:56:59Z</time>
      </trkpt>
      <trkpt lat="37.2158520" lon="-3.7722010">
        <ele>541.4</ele>
        <time>2020-07-11T09:57:01Z</time>
      </trkpt>
      <trkpt lat="37.2156280" lon="-3.7721960">
        <ele>541.6</ele>
        <time>2020-07-11T09:57:04Z</time>
      </trkpt>
      <trkpt lat="37.2151820" lon="-3.7721950">
        <ele>541.6</ele>
        <time>2020-07-11T09:57:10Z</time>
      </trkpt>
      <trkpt lat="37.2146170" lon="-3.7721680">
        <ele>541.6</ele>
        <time>2020-07-11T09:57:17Z</time>
      </trkpt>
      <trkpt lat="37.2144620" lon="-3.7721570">
        <ele>541.6</ele>
        <time>2020-07-11T09:57:19Z</time>
      </trkpt>
      <trkpt lat="37.2142500" lon="-3.7721380">
        <ele>542.0</ele>
        <time>2020-07-11T09:57:22Z</time>
      </trkpt>
      <trkpt lat="37.2140440" lon="-3.7721310">
        <ele>541.8</ele>
        <time>2020-07-11T09:57:25Z</time>
      </trkpt>
      <trkpt lat="37.2139200" lon="-3.7721260">
        <ele>541.8</ele>
        <time>2020-07-11T09:57:27Z</time>
      </trkpt>
      <trkpt lat="37.2134420" lon="-3.7720500">
        <ele>541.8</ele>
        <time>2020-07-11T09:57:34Z</time>
      </trkpt>
      <trkpt lat="37.2132520" lon="-3.7719980">
        <ele>542.0</ele>
        <time>2020-07-11T09:57:37Z</time>
      </trkpt>
      <trkpt lat="37.2131810" lon="-3.7719990">
        <ele>542.4</ele>
        <time>2020-07-11T09:57:38Z</time>
      </trkpt>
      <trkpt lat="37.2131160" lon="-3.7720080">
        <ele>542.4</ele>
        <time>2020-07-11T09:57:39Z</time>
      </trkpt>
      <trkpt lat="37.2129450" lon="-3.7720730">
        <ele>543.0</ele>
        <time>2020-07-11T09:57:42Z</time>
      </trkpt>
      <trkpt lat="37.2128840" lon="-3.7721020">
        <ele>543.2</ele>
        <time>2020-07-11T09:57:43Z</time>
      </trkpt>
      <trkpt lat="37.2128350" lon="-3.7721280">
        <ele>543.4</ele>
        <time>2020-07-11T09:57:44Z</time>
      </trkpt>
      <trkpt lat="37.2127350" lon="-3.7721810">
        <ele>544.0</ele>
        <time>2020-07-11T09:57:46Z</time>
      </trkpt>
      <trkpt lat="37.2126480" lon="-3.7722260">
        <ele>544.6</ele>
        <time>2020-07-11T09:57:48Z</time>
      </trkpt>
      <trkpt lat="37.2125550" lon="-3.7722800">
        <ele>545.0</ele>
        <time>2020-07-11T09:57:50Z</time>
      </trkpt>
      <trkpt lat="37.2124030" lon="-3.7723610">
        <ele>545.8</ele>
        <time>2020-07-11T09:57:53Z</time>
      </trkpt>
      <trkpt lat="37.2122410" lon="-3.7724580">
        <ele>546.4</ele>
        <time>2020-07-11T09:57:56Z</time>
      </trkpt>
      <trkpt lat="37.2117890" lon="-3.7727020">
        <ele>546.6</ele>
        <time>2020-07-11T09:58:04Z</time>
      </trkpt>
      <trkpt lat="37.2116080" lon="-3.7727950">
        <ele>546.6</ele>
        <time>2020-07-11T09:58:08Z</time>
      </trkpt>
      <trkpt lat="37.2115790" lon="-3.7728130">
        <ele>546.6</ele>
        <time>2020-07-11T09:58:09Z</time>
      </trkpt>
      <trkpt lat="37.2113870" lon="-3.7728590">
        <ele>546.0</ele>
        <time>2020-07-11T09:58:15Z</time>
      </trkpt>
      <trkpt lat="37.2113070" lon="-3.7726900">
        <ele>545.8</ele>
        <time>2020-07-11T09:58:18Z</time>
      </trkpt>
      <trkpt lat="37.2112730" lon="-3.7726140">
        <ele>545.8</ele>
        <time>2020-07-11T09:58:19Z</time>
      </trkpt>
      <trkpt lat="37.2111430" lon="-3.7723850">
        <ele>545.2</ele>
        <time>2020-07-11T09:58:22Z</time>
      </trkpt>
      <trkpt lat="37.2110270" lon="-3.7722510">
        <ele>544.4</ele>
        <time>2020-07-11T09:58:24Z</time>
      </trkpt>
      <trkpt lat="37.2109030" lon="-3.7721180">
        <ele>543.8</ele>
        <time>2020-07-11T09:58:26Z</time>
      </trkpt>
      <trkpt lat="37.2108440" lon="-3.7720600">
        <ele>543.8</ele>
        <time>2020-07-11T09:58:27Z</time>
      </trkpt>
      <trkpt lat="37.2107720" lon="-3.7720030">
        <ele>543.6</ele>
        <time>2020-07-11T09:58:28Z</time>
      </trkpt>
      <trkpt lat="37.2106990" lon="-3.7719680">
        <ele>543.6</ele>
        <time>2020-07-11T09:58:29Z</time>
      </trkpt>
      <trkpt lat="37.2105430" lon="-3.7719470">
        <ele>543.4</ele>
        <time>2020-07-11T09:58:31Z</time>
      </trkpt>
      <trkpt lat="37.2104710" lon="-3.7719450">
        <ele>543.4</ele>
        <time>2020-07-11T09:58:32Z</time>
      </trkpt>
      <trkpt lat="37.2103900" lon="-3.7719440">
        <ele>543.4</ele>
        <time>2020-07-11T09:58:33Z</time>
      </trkpt>
      <trkpt lat="37.2103130" lon="-3.7719410">
        <ele>543.2</ele>
        <time>2020-07-11T09:58:34Z</time>
      </trkpt>
      <trkpt lat="37.2100150" lon="-3.7719330">
        <ele>543.0</ele>
        <time>2020-07-11T09:58:38Z</time>
      </trkpt>
      <trkpt lat="37.2096470" lon="-3.7719140">
        <ele>542.8</ele>
        <time>2020-07-11T09:58:43Z</time>
      </trkpt>
      <trkpt lat="37.2092950" lon="-3.7718970">
        <ele>543.2</ele>
        <time>2020-07-11T09:58:48Z</time>
      </trkpt>
      <trkpt lat="37.2087080" lon="-3.7718690">
        <ele>543.0</ele>
        <time>2020-07-11T09:58:56Z</time>
      </trkpt>
      <trkpt lat="37.2085600" lon="-3.7718610">
        <ele>542.8</ele>
        <time>2020-07-11T09:58:58Z</time>
      </trkpt>
      <trkpt lat="37.2082760" lon="-3.7718440">
        <ele>543.0</ele>
        <time>2020-07-11T09:59:02Z</time>
      </trkpt>
      <trkpt lat="37.2077640" lon="-3.7718280">
        <ele>543.2</ele>
        <time>2020-07-11T09:59:09Z</time>
      </trkpt>
      <trkpt lat="37.2074050" lon="-3.7718290">
        <ele>543.0</ele>
        <time>2020-07-11T09:59:14Z</time>
      </trkpt>
      <trkpt lat="37.2072070" lon="-3.7718360">
        <ele>543.0</ele>
        <time>2020-07-11T09:59:17Z</time>
      </trkpt>
      <trkpt lat="37.2067530" lon="-3.7718630">
        <ele>542.8</ele>
        <time>2020-07-11T09:59:24Z</time>
      </trkpt>
      <trkpt lat="37.2066180" lon="-3.7718730">
        <ele>543.0</ele>
        <time>2020-07-11T09:59:26Z</time>
      </trkpt>
      <trkpt lat="37.2063540" lon="-3.7718860">
        <ele>543.0</ele>
        <time>2020-07-11T09:59:30Z</time>
      </trkpt>
      <trkpt lat="37.2060120" lon="-3.7719140">
        <ele>543.2</ele>
        <time>2020-07-11T09:59:35Z</time>
      </trkpt>
      <trkpt lat="37.2055440" lon="-3.7719430">
        <ele>543.4</ele>
        <time>2020-07-11T09:59:42Z</time>
      </trkpt>
      <trkpt lat="37.2050870" lon="-3.7719560">
        <ele>543.6</ele>
        <time>2020-07-11T09:59:49Z</time>
      </trkpt>
      <trkpt lat="37.2048880" lon="-3.7719450">
        <ele>543.8</ele>
        <time>2020-07-11T09:59:52Z</time>
      </trkpt>
      <trkpt lat="37.2047450" lon="-3.7719370">
        <ele>543.8</ele>
        <time>2020-07-11T09:59:54Z</time>
      </trkpt>
      <trkpt lat="37.2045270" lon="-3.7719190">
        <ele>544.0</ele>
        <time>2020-07-11T09:59:57Z</time>
      </trkpt>
      <trkpt lat="37.2040350" lon="-3.7718800">
        <ele>544.0</ele>
        <time>2020-07-11T10:00:04Z</time>
      </trkpt>
      <trkpt lat="37.2038340" lon="-3.7718250">
        <ele>544.0</ele>
        <time>2020-07-11T10:00:07Z</time>
      </trkpt>
      <trkpt lat="37.2037030" lon="-3.7717530">
        <ele>544.2</ele>
        <time>2020-07-11T10:00:09Z</time>
      </trkpt>
      <trkpt lat="37.2035440" lon="-3.7716020">
        <ele>544.4</ele>
        <time>2020-07-11T10:00:12Z</time>
      </trkpt>
      <trkpt lat="37.2034920" lon="-3.7715570">
        <ele>544.4</ele>
        <time>2020-07-11T10:00:13Z</time>
      </trkpt>
      <trkpt lat="37.2032010" lon="-3.7712750">
        <ele>544.4</ele>
        <time>2020-07-11T10:00:19Z</time>
      </trkpt>
      <trkpt lat="37.2029200" lon="-3.7709270">
        <ele>544.8</ele>
        <time>2020-07-11T10:00:25Z</time>
      </trkpt>
      <trkpt lat="37.2028430" lon="-3.7707870">
        <ele>544.8</ele>
        <time>2020-07-11T10:00:27Z</time>
      </trkpt>
      <trkpt lat="37.2028040" lon="-3.7706100">
        <ele>544.8</ele>
        <time>2020-07-11T10:00:29Z</time>
      </trkpt>
      <trkpt lat="37.2027230" lon="-3.7702160">
        <ele>545.0</ele>
        <time>2020-07-11T10:00:35Z</time>
      </trkpt>
      <trkpt lat="37.2026600" lon="-3.7700750">
        <ele>545.2</ele>
        <time>2020-07-11T10:00:38Z</time>
      </trkpt>
      <trkpt lat="37.2026070" lon="-3.7699930">
        <ele>545.0</ele>
        <time>2020-07-11T10:00:40Z</time>
      </trkpt>
      <trkpt lat="37.2025970" lon="-3.7699370">
        <ele>545.0</ele>
        <time>2020-07-11T10:00:41Z</time>
      </trkpt>
      <trkpt lat="37.2025310" lon="-3.7698520">
        <ele>545.2</ele>
        <time>2020-07-11T10:00:43Z</time>
      </trkpt>
      <trkpt lat="37.2024740" lon="-3.7697840">
        <ele>545.2</ele>
        <time>2020-07-11T10:00:45Z</time>
      </trkpt>
      <trkpt lat="37.2023640" lon="-3.7696950">
        <ele>545.2</ele>
        <time>2020-07-11T10:00:49Z</time>
      </trkpt>
      <trkpt lat="37.2023600" lon="-3.7696550">
        <ele>545.2</ele>
        <time>2020-07-11T10:00:50Z</time>
      </trkpt>
      <trkpt lat="37.2023530" lon="-3.7695530">
        <ele>545.2</ele>
        <time>2020-07-11T10:00:52Z</time>
      </trkpt>
      <trkpt lat="37.2023170" lon="-3.7693930">
        <ele>545.4</ele>
        <time>2020-07-11T10:00:55Z</time>
      </trkpt>
      <trkpt lat="37.2022730" lon="-3.7692440">
        <ele>545.4</ele>
        <time>2020-07-11T10:00:58Z</time>
      </trkpt>
      <trkpt lat="37.2021830" lon="-3.7688650">
        <ele>545.2</ele>
        <time>2020-07-11T10:01:04Z</time>
      </trkpt>
      <trkpt lat="37.2021170" lon="-3.7685930">
        <ele>545.2</ele>
        <time>2020-07-11T10:01:08Z</time>
      </trkpt>
      <trkpt lat="37.2020560" lon="-3.7682920">
        <ele>545.4</ele>
        <time>2020-07-11T10:01:12Z</time>
      </trkpt>
      <trkpt lat="37.2020200" lon="-3.7680910">
        <ele>545.4</ele>
        <time>2020-07-11T10:01:15Z</time>
      </trkpt>
      <trkpt lat="37.2019920" lon="-3.7678910">
        <ele>545.6</ele>
        <time>2020-07-11T10:01:18Z</time>
      </trkpt>
      <trkpt lat="37.2019120" lon="-3.7672490">
        <ele>546.0</ele>
        <time>2020-07-11T10:01:27Z</time>
      </trkpt>
      <trkpt lat="37.2018690" lon="-3.7669520">
        <ele>546.2</ele>
        <time>2020-07-11T10:01:31Z</time>
      </trkpt>
      <trkpt lat="37.2018370" lon="-3.7667020">
        <ele>546.2</ele>
        <time>2020-07-11T10:01:34Z</time>
      </trkpt>
      <trkpt lat="37.2018030" lon="-3.7664750">
        <ele>546.2</ele>
        <time>2020-07-11T10:01:37Z</time>
      </trkpt>
      <trkpt lat="37.2017460" lon="-3.7661740">
        <ele>546.6</ele>
        <time>2020-07-11T10:01:41Z</time>
      </trkpt>
      <trkpt lat="37.2016870" lon="-3.7659550">
        <ele>547.0</ele>
        <time>2020-07-11T10:01:44Z</time>
      </trkpt>
      <trkpt lat="37.2016330" lon="-3.7658260">
        <ele>547.4</ele>
        <time>2020-07-11T10:01:46Z</time>
      </trkpt>
      <trkpt lat="37.2015920" lon="-3.7657250">
        <ele>547.8</ele>
        <time>2020-07-11T10:01:48Z</time>
      </trkpt>
      <trkpt lat="37.2015750" lon="-3.7656880">
        <ele>548.0</ele>
        <time>2020-07-11T10:01:49Z</time>
      </trkpt>
      <trkpt lat="37.2015440" lon="-3.7656330">
        <ele>549.0</ele>
        <time>2020-07-11T10:01:52Z</time>
      </trkpt>
      <trkpt lat="37.2015420" lon="-3.7656240">
        <ele>549.4</ele>
        <time>2020-07-11T10:01:53Z</time>
      </trkpt>
      <trkpt lat="37.2015440" lon="-3.7656340">
        <ele>549.8</ele>
        <time>2020-07-11T10:01:54Z</time>
      </trkpt>
      <trkpt lat="37.2015130" lon="-3.7656460">
        <ele>550.4</ele>
        <time>2020-07-11T10:02:59Z</time>
      </trkpt>
      <trkpt lat="37.2015220" lon="-3.7656690">
        <ele>550.4</ele>
        <time>2020-07-11T10:03:00Z</time>
      </trkpt>
      <trkpt lat="37.2015880" lon="-3.7658150">
        <ele>550.4</ele>
        <time>2020-07-11T10:03:04Z</time>
      </trkpt>
      <trkpt lat="37.2016900" lon="-3.7661280">
        <ele>550.2</ele>
        <time>2020-07-11T10:03:08Z</time>
      </trkpt>
      <trkpt lat="37.2017150" lon="-3.7662180">
        <ele>549.6</ele>
        <time>2020-07-11T10:03:09Z</time>
      </trkpt>
      <trkpt lat="37.2017380" lon="-3.7663110">
        <ele>549.0</ele>
        <time>2020-07-11T10:03:10Z</time>
      </trkpt>
      <trkpt lat="37.2017940" lon="-3.7665910">
        <ele>547.6</ele>
        <time>2020-07-11T10:03:13Z</time>
      </trkpt>
      <trkpt lat="37.2018220" lon="-3.7667710">
        <ele>547.2</ele>
        <time>2020-07-11T10:03:15Z</time>
      </trkpt>
      <trkpt lat="37.2018530" lon="-3.7670200">
        <ele>546.8</ele>
        <time>2020-07-11T10:03:18Z</time>
      </trkpt>
      <trkpt lat="37.2018740" lon="-3.7671620">
        <ele>546.6</ele>
        <time>2020-07-11T10:03:20Z</time>
      </trkpt>
      <trkpt lat="37.2019230" lon="-3.7674240">
        <ele>546.2</ele>
        <time>2020-07-11T10:03:24Z</time>
      </trkpt>
      <trkpt lat="37.2019290" lon="-3.7674930">
        <ele>546.0</ele>
        <time>2020-07-11T10:03:25Z</time>
      </trkpt>
      <trkpt lat="37.2019480" lon="-3.7676400">
        <ele>546.0</ele>
        <time>2020-07-11T10:03:27Z</time>
      </trkpt>
      <trkpt lat="37.2019580" lon="-3.7677170">
        <ele>546.0</ele>
        <time>2020-07-11T10:03:28Z</time>
      </trkpt>
      <trkpt lat="37.2019970" lon="-3.7679590">
        <ele>546.0</ele>
        <time>2020-07-11T10:03:31Z</time>
      </trkpt>
      <trkpt lat="37.2021060" lon="-3.7685790">
        <ele>545.8</ele>
        <time>2020-07-11T10:03:38Z</time>
      </trkpt>
      <trkpt lat="37.2022900" lon="-3.7692670">
        <ele>545.8</ele>
        <time>2020-07-11T10:03:46Z</time>
      </trkpt>
      <trkpt lat="37.2023140" lon="-3.7693520">
        <ele>545.6</ele>
        <time>2020-07-11T10:03:47Z</time>
      </trkpt>
      <trkpt lat="37.2023320" lon="-3.7694390">
        <ele>545.6</ele>
        <time>2020-07-11T10:03:48Z</time>
      </trkpt>
      <trkpt lat="37.2023700" lon="-3.7696480">
        <ele>545.6</ele>
        <time>2020-07-11T10:03:51Z</time>
      </trkpt>
      <trkpt lat="37.2023760" lon="-3.7697190">
        <ele>545.6</ele>
        <time>2020-07-11T10:03:52Z</time>
      </trkpt>
      <trkpt lat="37.2023750" lon="-3.7699120">
        <ele>545.6</ele>
        <time>2020-07-11T10:03:55Z</time>
      </trkpt>
      <trkpt lat="37.2023660" lon="-3.7700280">
        <ele>545.6</ele>
        <time>2020-07-11T10:03:57Z</time>
      </trkpt>
      <trkpt lat="37.2023610" lon="-3.7701420">
        <ele>545.6</ele>
        <time>2020-07-11T10:03:59Z</time>
      </trkpt>
      <trkpt lat="37.2023690" lon="-3.7702470">
        <ele>545.6</ele>
        <time>2020-07-11T10:04:01Z</time>
      </trkpt>
      <trkpt lat="37.2023750" lon="-3.7702860">
        <ele>545.6</ele>
        <time>2020-07-11T10:04:02Z</time>
      </trkpt>
      <trkpt lat="37.2023860" lon="-3.7703350">
        <ele>545.4</ele>
        <time>2020-07-11T10:04:04Z</time>
      </trkpt>
      <trkpt lat="37.2023800" lon="-3.7703540">
        <ele>545.4</ele>
        <time>2020-07-11T10:04:05Z</time>
      </trkpt>
      <trkpt lat="37.2023650" lon="-3.7703750">
        <ele>545.4</ele>
        <time>2020-07-11T10:04:06Z</time>
      </trkpt>
      <trkpt lat="37.2022250" lon="-3.7704590">
        <ele>545.4</ele>
        <time>2020-07-11T10:04:10Z</time>
      </trkpt>
      <trkpt lat="37.2021260" lon="-3.7705010">
        <ele>545.2</ele>
        <time>2020-07-11T10:04:12Z</time>
      </trkpt>
      <trkpt lat="37.2020200" lon="-3.7705380">
        <ele>545.2</ele>
        <time>2020-07-11T10:04:14Z</time>
      </trkpt>
      <trkpt lat="37.2019160" lon="-3.7705700">
        <ele>545.0</ele>
        <time>2020-07-11T10:04:16Z</time>
      </trkpt>
      <trkpt lat="37.2018750" lon="-3.7705940">
        <ele>545.2</ele>
        <time>2020-07-11T10:04:17Z</time>
      </trkpt>
      <trkpt lat="37.2018510" lon="-3.7706340">
        <ele>545.2</ele>
        <time>2020-07-11T10:04:18Z</time>
      </trkpt>
      <trkpt lat="37.2018590" lon="-3.7706980">
        <ele>545.2</ele>
        <time>2020-07-11T10:04:19Z</time>
      </trkpt>
      <trkpt lat="37.2018690" lon="-3.7708310">
        <ele>545.6</ele>
        <time>2020-07-11T10:04:21Z</time>
      </trkpt>
      <trkpt lat="37.2018170" lon="-3.7709440">
        <ele>545.8</ele>
        <time>2020-07-11T10:04:23Z</time>
      </trkpt>
      <trkpt lat="37.2016800" lon="-3.7709610">
        <ele>545.6</ele>
        <time>2020-07-11T10:04:26Z</time>
      </trkpt>
      <trkpt lat="37.2015900" lon="-3.7708240">
        <ele>545.6</ele>
        <time>2020-07-11T10:04:29Z</time>
      </trkpt>
      <trkpt lat="37.2015840" lon="-3.7707660">
        <ele>545.6</ele>
        <time>2020-07-11T10:04:30Z</time>
      </trkpt>
      <trkpt lat="37.2015400" lon="-3.7706490">
        <ele>545.6</ele>
        <time>2020-07-11T10:04:32Z</time>
      </trkpt>
      <trkpt lat="37.2014270" lon="-3.7705340">
        <ele>545.8</ele>
        <time>2020-07-11T10:04:35Z</time>
      </trkpt>
      <trkpt lat="37.2013900" lon="-3.7704880">
        <ele>546.0</ele>
        <time>2020-07-11T10:04:36Z</time>
      </trkpt>
      <trkpt lat="37.2013580" lon="-3.7704360">
        <ele>546.0</ele>
        <time>2020-07-11T10:04:37Z</time>
      </trkpt>
      <trkpt lat="37.2012660" lon="-3.7702850">
        <ele>545.8</ele>
        <time>2020-07-11T10:04:40Z</time>
      </trkpt>
      <trkpt lat="37.2012420" lon="-3.7702400">
        <ele>545.8</ele>
        <time>2020-07-11T10:04:41Z</time>
      </trkpt>
      <trkpt lat="37.2011870" lon="-3.7701280">
        <ele>545.8</ele>
        <time>2020-07-11T10:04:43Z</time>
      </trkpt>
      <trkpt lat="37.2011720" lon="-3.7700800">
        <ele>545.8</ele>
        <time>2020-07-11T10:04:44Z</time>
      </trkpt>
      <trkpt lat="37.2012060" lon="-3.7699630">
        <ele>545.8</ele>
        <time>2020-07-11T10:04:47Z</time>
      </trkpt>
      <trkpt lat="37.2012760" lon="-3.7698710">
        <ele>546.0</ele>
        <time>2020-07-11T10:04:50Z</time>
      </trkpt>
      <trkpt lat="37.2012820" lon="-3.7698330">
        <ele>546.0</ele>
        <time>2020-07-11T10:04:51Z</time>
      </trkpt>
      <trkpt lat="37.2012810" lon="-3.7696920">
        <ele>546.4</ele>
        <time>2020-07-11T10:04:54Z</time>
      </trkpt>
      <trkpt lat="37.2012720" lon="-3.7695420">
        <ele>546.6</ele>
        <time>2020-07-11T10:04:57Z</time>
      </trkpt>
      <trkpt lat="37.2012480" lon="-3.7694560">
        <ele>546.8</ele>
        <time>2020-07-11T10:05:01Z</time>
      </trkpt>
      <trkpt lat="37.2012440" lon="-3.7694470">
        <ele>546.8</ele>
        <time>2020-07-11T10:05:27Z</time>
      </trkpt>
      <trkpt lat="37.2012170" lon="-3.7694030">
        <ele>546.8</ele>
        <time>2020-07-11T10:05:30Z</time>
      </trkpt>
      <trkpt lat="37.2012140" lon="-3.7693920">
        <ele>546.8</ele>
        <time>2020-07-11T10:05:31Z</time>
      </trkpt>
      <trkpt lat="37.2012140" lon="-3.7693930">
        <ele>546.8</ele>
        <time>2020-07-11T10:05:32Z</time>
      </trkpt>
      <trkpt lat="37.2012170" lon="-3.7693540">
        <ele>546.8</ele>
        <time>2020-07-11T10:05:41Z</time>
      </trkpt>
      <trkpt lat="37.2012110" lon="-3.7693080">
        <ele>546.8</ele>
        <time>2020-07-11T10:05:43Z</time>
      </trkpt>
      <trkpt lat="37.2011980" lon="-3.7692880">
        <ele>546.8</ele>
        <time>2020-07-11T10:05:44Z</time>
      </trkpt>
      <trkpt lat="37.2011360" lon="-3.7692900">
        <ele>547.0</ele>
        <time>2020-07-11T10:05:46Z</time>
      </trkpt>
      <trkpt lat="37.2010460" lon="-3.7693050">
        <ele>547.0</ele>
        <time>2020-07-11T10:05:48Z</time>
      </trkpt>
      <trkpt lat="37.2009010" lon="-3.7693340">
        <ele>547.0</ele>
        <time>2020-07-11T10:05:51Z</time>
      </trkpt>
      <trkpt lat="37.2006040" lon="-3.7693920">
        <ele>547.0</ele>
        <time>2020-07-11T10:05:56Z</time>
      </trkpt>
      <trkpt lat="37.2003520" lon="-3.7694420">
        <ele>547.0</ele>
        <time>2020-07-11T10:06:00Z</time>
      </trkpt>
      <trkpt lat="37.2002220" lon="-3.7694520">
        <ele>547.2</ele>
        <time>2020-07-11T10:06:02Z</time>
      </trkpt>
      <trkpt lat="37.2000980" lon="-3.7694600">
        <ele>547.4</ele>
        <time>2020-07-11T10:06:04Z</time>
      </trkpt>
      <trkpt lat="37.1999660" lon="-3.7694740">
        <ele>547.6</ele>
        <time>2020-07-11T10:06:06Z</time>
      </trkpt>
      <trkpt lat="37.1998350" lon="-3.7694860">
        <ele>547.6</ele>
        <time>2020-07-11T10:06:08Z</time>
      </trkpt>
      <trkpt lat="37.1997000" lon="-3.7694910">
        <ele>547.6</ele>
        <time>2020-07-11T10:06:10Z</time>
      </trkpt>
      <trkpt lat="37.1995730" lon="-3.7695060">
        <ele>547.6</ele>
        <time>2020-07-11T10:06:12Z</time>
      </trkpt>
      <trkpt lat="37.1993830" lon="-3.7695270">
        <ele>547.8</ele>
        <time>2020-07-11T10:06:15Z</time>
      </trkpt>
      <trkpt lat="37.1990580" lon="-3.7695710">
        <ele>548.0</ele>
        <time>2020-07-11T10:06:20Z</time>
      </trkpt>
      <trkpt lat="37.1989970" lon="-3.7695790">
        <ele>548.0</ele>
        <time>2020-07-11T10:06:21Z</time>
      </trkpt>
      <trkpt lat="37.1985970" lon="-3.7696350">
        <ele>548.6</ele>
        <time>2020-07-11T10:06:28Z</time>
      </trkpt>
      <trkpt lat="37.1985260" lon="-3.7696460">
        <ele>548.6</ele>
        <time>2020-07-11T10:06:30Z</time>
      </trkpt>
      <trkpt lat="37.1984860" lon="-3.7696520">
        <ele>548.6</ele>
        <time>2020-07-11T10:06:31Z</time>
      </trkpt>
      <trkpt lat="37.1983890" lon="-3.7696720">
        <ele>548.6</ele>
        <time>2020-07-11T10:06:33Z</time>
      </trkpt>
      <trkpt lat="37.1980500" lon="-3.7697460">
        <ele>548.8</ele>
        <time>2020-07-11T10:06:39Z</time>
      </trkpt>
      <trkpt lat="37.1975290" lon="-3.7698480">
        <ele>549.0</ele>
        <time>2020-07-11T10:06:47Z</time>
      </trkpt>
      <trkpt lat="37.1971570" lon="-3.7699250">
        <ele>549.2</ele>
        <time>2020-07-11T10:06:53Z</time>
      </trkpt>
      <trkpt lat="37.1971020" lon="-3.7699420">
        <ele>549.2</ele>
        <time>2020-07-11T10:06:54Z</time>
      </trkpt>
      <trkpt lat="37.1970070" lon="-3.7699660">
        <ele>549.4</ele>
        <time>2020-07-11T10:06:56Z</time>
      </trkpt>
      <trkpt lat="37.1969280" lon="-3.7699810">
        <ele>549.4</ele>
        <time>2020-07-11T10:06:58Z</time>
      </trkpt>
      <trkpt lat="37.1966330" lon="-3.7700640">
        <ele>549.2</ele>
        <time>2020-07-11T10:07:06Z</time>
      </trkpt>
      <trkpt lat="37.1966060" lon="-3.7701570">
        <ele>549.2</ele>
        <time>2020-07-11T10:07:08Z</time>
      </trkpt>
      <trkpt lat="37.1966100" lon="-3.7702090">
        <ele>549.4</ele>
        <time>2020-07-11T10:07:09Z</time>
      </trkpt>
      <trkpt lat="37.1966190" lon="-3.7702680">
        <ele>549.4</ele>
        <time>2020-07-11T10:07:10Z</time>
      </trkpt>
      <trkpt lat="37.1966720" lon="-3.7706410">
        <ele>549.4</ele>
        <time>2020-07-11T10:07:16Z</time>
      </trkpt>
      <trkpt lat="37.1966720" lon="-3.7707060">
        <ele>549.4</ele>
        <time>2020-07-11T10:07:17Z</time>
      </trkpt>
      <trkpt lat="37.1966550" lon="-3.7707710">
        <ele>549.4</ele>
        <time>2020-07-11T10:07:18Z</time>
      </trkpt>
      <trkpt lat="37.1966210" lon="-3.7708230">
        <ele>549.2</ele>
        <time>2020-07-11T10:07:19Z</time>
      </trkpt>
      <trkpt lat="37.1964770" lon="-3.7709020">
        <ele>549.2</ele>
        <time>2020-07-11T10:07:22Z</time>
      </trkpt>
      <trkpt lat="37.1963710" lon="-3.7709260">
        <ele>549.2</ele>
        <time>2020-07-11T10:07:24Z</time>
      </trkpt>
      <trkpt lat="37.1962010" lon="-3.7709620">
        <ele>549.0</ele>
        <time>2020-07-11T10:07:27Z</time>
      </trkpt>
      <trkpt lat="37.1959820" lon="-3.7710150">
        <ele>549.2</ele>
        <time>2020-07-11T10:07:31Z</time>
      </trkpt>
      <trkpt lat="37.1958340" lon="-3.7710530">
        <ele>549.2</ele>
        <time>2020-07-11T10:07:34Z</time>
      </trkpt>
      <trkpt lat="37.1958130" lon="-3.7710920">
        <ele>549.2</ele>
        <time>2020-07-11T10:07:35Z</time>
      </trkpt>
      <trkpt lat="37.1958170" lon="-3.7712070">
        <ele>549.2</ele>
        <time>2020-07-11T10:07:37Z</time>
      </trkpt>
      <trkpt lat="37.1958340" lon="-3.7712700">
        <ele>549.2</ele>
        <time>2020-07-11T10:07:38Z</time>
      </trkpt>
      <trkpt lat="37.1958510" lon="-3.7713350">
        <ele>549.2</ele>
        <time>2020-07-11T10:07:39Z</time>
      </trkpt>
      <trkpt lat="37.1959100" lon="-3.7715690">
        <ele>549.2</ele>
        <time>2020-07-11T10:07:43Z</time>
      </trkpt>
      <trkpt lat="37.1959230" lon="-3.7716190">
        <ele>549.2</ele>
        <time>2020-07-11T10:07:44Z</time>
      </trkpt>
      <trkpt lat="37.1959840" lon="-3.7718490">
        <ele>549.0</ele>
        <time>2020-07-11T10:07:48Z</time>
      </trkpt>
      <trkpt lat="37.1960210" lon="-3.7719620">
        <ele>548.8</ele>
        <time>2020-07-11T10:07:50Z</time>
      </trkpt>
      <trkpt lat="37.1960010" lon="-3.7720810">
        <ele>549.0</ele>
        <time>2020-07-11T10:07:52Z</time>
      </trkpt>
      <trkpt lat="37.1959670" lon="-3.7721210">
        <ele>549.0</ele>
        <time>2020-07-11T10:07:53Z</time>
      </trkpt>
      <trkpt lat="37.1958060" lon="-3.7721850">
        <ele>548.8</ele>
        <time>2020-07-11T10:07:56Z</time>
      </trkpt>
      <trkpt lat="37.1956950" lon="-3.7722190">
        <ele>548.8</ele>
        <time>2020-07-11T10:07:58Z</time>
      </trkpt>
      <trkpt lat="37.1955480" lon="-3.7722620">
        <ele>549.0</ele>
        <time>2020-07-11T10:08:01Z</time>
      </trkpt>
      <trkpt lat="37.1954100" lon="-3.7723020">
        <ele>548.8</ele>
        <time>2020-07-11T10:08:04Z</time>
      </trkpt>
      <trkpt lat="37.1953130" lon="-3.7723300">
        <ele>548.8</ele>
        <time>2020-07-11T10:08:06Z</time>
      </trkpt>
      <trkpt lat="37.1952060" lon="-3.7723600">
        <ele>548.8</ele>
        <time>2020-07-11T10:08:08Z</time>
      </trkpt>
      <trkpt lat="37.1950980" lon="-3.7723980">
        <ele>549.0</ele>
        <time>2020-07-11T10:08:10Z</time>
      </trkpt>
      <trkpt lat="37.1947580" lon="-3.7725030">
        <ele>549.2</ele>
        <time>2020-07-11T10:08:16Z</time>
      </trkpt>
      <trkpt lat="37.1945470" lon="-3.7725730">
        <ele>549.2</ele>
        <time>2020-07-11T10:08:21Z</time>
      </trkpt>
      <trkpt lat="37.1945050" lon="-3.7725830">
        <ele>549.2</ele>
        <time>2020-07-11T10:08:22Z</time>
      </trkpt>
      <trkpt lat="37.1944220" lon="-3.7726070">
        <ele>549.4</ele>
        <time>2020-07-11T10:08:24Z</time>
      </trkpt>
      <trkpt lat="37.1943310" lon="-3.7726380">
        <ele>549.4</ele>
        <time>2020-07-11T10:08:26Z</time>
      </trkpt>
      <trkpt lat="37.1942800" lon="-3.7726510">
        <ele>549.4</ele>
        <time>2020-07-11T10:08:27Z</time>
      </trkpt>
      <trkpt lat="37.1940900" lon="-3.7727190">
        <ele>549.4</ele>
        <time>2020-07-11T10:08:31Z</time>
      </trkpt>
      <trkpt lat="37.1938810" lon="-3.7727840">
        <ele>549.6</ele>
        <time>2020-07-11T10:08:35Z</time>
      </trkpt>
      <trkpt lat="37.1936620" lon="-3.7728520">
        <ele>550.0</ele>
        <time>2020-07-11T10:08:39Z</time>
      </trkpt>
      <trkpt lat="37.1934360" lon="-3.7729280">
        <ele>550.2</ele>
        <time>2020-07-11T10:08:43Z</time>
      </trkpt>
      <trkpt lat="37.1932170" lon="-3.7729960">
        <ele>550.4</ele>
        <time>2020-07-11T10:08:47Z</time>
      </trkpt>
      <trkpt lat="37.1930770" lon="-3.7730320">
        <ele>550.6</ele>
        <time>2020-07-11T10:08:51Z</time>
      </trkpt>
      <trkpt lat="37.1930500" lon="-3.7730320">
        <ele>550.6</ele>
        <time>2020-07-11T10:08:53Z</time>
      </trkpt>
      <trkpt lat="37.1930440" lon="-3.7730290">
        <ele>550.8</ele>
        <time>2020-07-11T10:08:55Z</time>
      </trkpt>
      <trkpt lat="37.1930320" lon="-3.7730070">
        <ele>550.8</ele>
        <time>2020-07-11T10:08:59Z</time>
      </trkpt>
      <trkpt lat="37.1929400" lon="-3.7729680">
        <ele>550.8</ele>
        <time>2020-07-11T10:09:03Z</time>
      </trkpt>
      <trkpt lat="37.1927620" lon="-3.7730100">
        <ele>551.0</ele>
        <time>2020-07-11T10:09:07Z</time>
      </trkpt>
      <trkpt lat="37.1924330" lon="-3.7730850">
        <ele>551.4</ele>
        <time>2020-07-11T10:09:13Z</time>
      </trkpt>
      <trkpt lat="37.1920840" lon="-3.7731700">
        <ele>551.4</ele>
        <time>2020-07-11T10:09:19Z</time>
      </trkpt>
      <trkpt lat="37.1920220" lon="-3.7731820">
        <ele>551.6</ele>
        <time>2020-07-11T10:09:20Z</time>
      </trkpt>
      <trkpt lat="37.1919650" lon="-3.7731940">
        <ele>551.8</ele>
        <time>2020-07-11T10:09:21Z</time>
      </trkpt>
      <trkpt lat="37.1917850" lon="-3.7732330">
        <ele>552.0</ele>
        <time>2020-07-11T10:09:24Z</time>
      </trkpt>
      <trkpt lat="37.1915000" lon="-3.7733010">
        <ele>552.6</ele>
        <time>2020-07-11T10:09:29Z</time>
      </trkpt>
      <trkpt lat="37.1914430" lon="-3.7733140">
        <ele>552.6</ele>
        <time>2020-07-11T10:09:33Z</time>
      </trkpt>
      <trkpt lat="37.1913860" lon="-3.7733260">
        <ele>552.6</ele>
        <time>2020-07-11T10:09:34Z</time>
      </trkpt>
      <trkpt lat="37.1910440" lon="-3.7733990">
        <ele>552.8</ele>
        <time>2020-07-11T10:09:37Z</time>
      </trkpt>
      <trkpt lat="37.1908750" lon="-3.7734030">
        <ele>553.2</ele>
        <time>2020-07-11T10:09:41Z</time>
      </trkpt>
      <trkpt lat="37.1908400" lon="-3.7732670">
        <ele>553.6</ele>
        <time>2020-07-11T10:09:44Z</time>
      </trkpt>
      <trkpt lat="37.1908560" lon="-3.7731510">
        <ele>553.6</ele>
        <time>2020-07-11T10:09:46Z</time>
      </trkpt>
      <trkpt lat="37.1908640" lon="-3.7730860">
        <ele>553.8</ele>
        <time>2020-07-11T10:09:47Z</time>
      </trkpt>
      <trkpt lat="37.1908820" lon="-3.7728800">
        <ele>554.0</ele>
        <time>2020-07-11T10:09:50Z</time>
      </trkpt>
      <trkpt lat="37.1909140" lon="-3.7722910">
        <ele>553.8</ele>
        <time>2020-07-11T10:09:58Z</time>
      </trkpt>
      <trkpt lat="37.1909190" lon="-3.7716480">
        <ele>554.4</ele>
        <time>2020-07-11T10:10:07Z</time>
      </trkpt>
      <trkpt lat="37.1909150" lon="-3.7713780">
        <ele>554.8</ele>
        <time>2020-07-11T10:10:11Z</time>
      </trkpt>
      <trkpt lat="37.1908920" lon="-3.7710140">
        <ele>555.4</ele>
        <time>2020-07-11T10:10:16Z</time>
      </trkpt>
      <trkpt lat="37.1908620" lon="-3.7704640">
        <ele>555.6</ele>
        <time>2020-07-11T10:10:23Z</time>
      </trkpt>
      <trkpt lat="37.1908470" lon="-3.7697010">
        <ele>555.4</ele>
        <time>2020-07-11T10:10:32Z</time>
      </trkpt>
      <trkpt lat="37.1908430" lon="-3.7695350">
        <ele>555.4</ele>
        <time>2020-07-11T10:10:34Z</time>
      </trkpt>
      <trkpt lat="37.1908310" lon="-3.7688570">
        <ele>555.4</ele>
        <time>2020-07-11T10:10:42Z</time>
      </trkpt>
      <trkpt lat="37.1908220" lon="-3.7685250">
        <ele>555.6</ele>
        <time>2020-07-11T10:10:46Z</time>
      </trkpt>
      <trkpt lat="37.1908060" lon="-3.7678320">
        <ele>555.8</ele>
        <time>2020-07-11T10:10:54Z</time>
      </trkpt>
      <trkpt lat="37.1908060" lon="-3.7677440">
        <ele>555.8</ele>
        <time>2020-07-11T10:10:55Z</time>
      </trkpt>
      <trkpt lat="37.1908030" lon="-3.7675720">
        <ele>555.8</ele>
        <time>2020-07-11T10:10:57Z</time>
      </trkpt>
      <trkpt lat="37.1908010" lon="-3.7668850">
        <ele>556.0</ele>
        <time>2020-07-11T10:11:05Z</time>
      </trkpt>
      <trkpt lat="37.1908150" lon="-3.7667080">
        <ele>556.0</ele>
        <time>2020-07-11T10:11:07Z</time>
      </trkpt>
      <trkpt lat="37.1909100" lon="-3.7660100">
        <ele>556.2</ele>
        <time>2020-07-11T10:11:15Z</time>
      </trkpt>
      <trkpt lat="37.1910500" lon="-3.7653550">
        <ele>555.8</ele>
        <time>2020-07-11T10:11:23Z</time>
      </trkpt>
      <trkpt lat="37.1910710" lon="-3.7652720">
        <ele>555.8</ele>
        <time>2020-07-11T10:11:24Z</time>
      </trkpt>
      <trkpt lat="37.1912360" lon="-3.7646280">
        <ele>556.0</ele>
        <time>2020-07-11T10:11:32Z</time>
      </trkpt>
      <trkpt lat="37.1912970" lon="-3.7643050">
        <ele>555.8</ele>
        <time>2020-07-11T10:11:36Z</time>
      </trkpt>
      <trkpt lat="37.1913880" lon="-3.7637460">
        <ele>556.4</ele>
        <time>2020-07-11T10:11:43Z</time>
      </trkpt>
      <trkpt lat="37.1914260" lon="-3.7630030">
        <ele>556.2</ele>
        <time>2020-07-11T10:11:52Z</time>
      </trkpt>
      <trkpt lat="37.1914320" lon="-3.7629270">
        <ele>556.2</ele>
        <time>2020-07-11T10:11:53Z</time>
      </trkpt>
      <trkpt lat="37.1914780" lon="-3.7621920">
        <ele>556.8</ele>
        <time>2020-07-11T10:12:02Z</time>
      </trkpt>
      <trkpt lat="37.1914820" lon="-3.7621120">
        <ele>557.0</ele>
        <time>2020-07-11T10:12:03Z</time>
      </trkpt>
      <trkpt lat="37.1915190" lon="-3.7614820">
        <ele>556.8</ele>
        <time>2020-07-11T10:12:11Z</time>
      </trkpt>
      <trkpt lat="37.1915750" lon="-3.7608520">
        <ele>557.2</ele>
        <time>2020-07-11T10:12:19Z</time>
      </trkpt>
      <trkpt lat="37.1916620" lon="-3.7601450">
        <ele>557.6</ele>
        <time>2020-07-11T10:12:28Z</time>
      </trkpt>
      <trkpt lat="37.1916840" lon="-3.7599880">
        <ele>557.8</ele>
        <time>2020-07-11T10:12:30Z</time>
      </trkpt>
      <trkpt lat="37.1917410" lon="-3.7596080">
        <ele>558.0</ele>
        <time>2020-07-11T10:12:35Z</time>
      </trkpt>
      <trkpt lat="37.1917770" lon="-3.7593710">
        <ele>558.2</ele>
        <time>2020-07-11T10:12:38Z</time>
      </trkpt>
      <trkpt lat="37.1918910" lon="-3.7586720">
        <ele>558.6</ele>
        <time>2020-07-11T10:12:47Z</time>
      </trkpt>
      <trkpt lat="37.1919370" lon="-3.7582620">
        <ele>558.6</ele>
        <time>2020-07-11T10:12:52Z</time>
      </trkpt>
      <trkpt lat="37.1919780" lon="-3.7579440">
        <ele>558.6</ele>
        <time>2020-07-11T10:12:56Z</time>
      </trkpt>
      <trkpt lat="37.1920270" lon="-3.7574650">
        <ele>559.0</ele>
        <time>2020-07-11T10:13:02Z</time>
      </trkpt>
      <trkpt lat="37.1920320" lon="-3.7573860">
        <ele>559.2</ele>
        <time>2020-07-11T10:13:03Z</time>
      </trkpt>
      <trkpt lat="37.1920440" lon="-3.7571590">
        <ele>559.6</ele>
        <time>2020-07-11T10:13:06Z</time>
      </trkpt>
      <trkpt lat="37.1920620" lon="-3.7569240">
        <ele>560.2</ele>
        <time>2020-07-11T10:13:09Z</time>
      </trkpt>
      <trkpt lat="37.1920790" lon="-3.7567710">
        <ele>560.4</ele>
        <time>2020-07-11T10:13:11Z</time>
      </trkpt>
      <trkpt lat="37.1921380" lon="-3.7560590">
        <ele>560.2</ele>
        <time>2020-07-11T10:13:19Z</time>
      </trkpt>
      <trkpt lat="37.1921590" lon="-3.7553530">
        <ele>559.0</ele>
        <time>2020-07-11T10:13:27Z</time>
      </trkpt>
      <trkpt lat="37.1921610" lon="-3.7552650">
        <ele>559.2</ele>
        <time>2020-07-11T10:13:28Z</time>
      </trkpt>
      <trkpt lat="37.1921530" lon="-3.7547310">
        <ele>559.2</ele>
        <time>2020-07-11T10:13:34Z</time>
      </trkpt>
      <trkpt lat="37.1921420" lon="-3.7544650">
        <ele>559.2</ele>
        <time>2020-07-11T10:13:37Z</time>
      </trkpt>
      <trkpt lat="37.1921170" lon="-3.7541240">
        <ele>559.2</ele>
        <time>2020-07-11T10:13:41Z</time>
      </trkpt>
      <trkpt lat="37.1920590" lon="-3.7535020">
        <ele>559.4</ele>
        <time>2020-07-11T10:13:48Z</time>
      </trkpt>
      <trkpt lat="37.1919820" lon="-3.7528110">
        <ele>559.4</ele>
        <time>2020-07-11T10:13:56Z</time>
      </trkpt>
      <trkpt lat="37.1919430" lon="-3.7524530">
        <ele>559.4</ele>
        <time>2020-07-11T10:14:00Z</time>
      </trkpt>
      <trkpt lat="37.1918660" lon="-3.7517460">
        <ele>559.8</ele>
        <time>2020-07-11T10:14:08Z</time>
      </trkpt>
      <trkpt lat="37.1918280" lon="-3.7513910">
        <ele>560.0</ele>
        <time>2020-07-11T10:14:12Z</time>
      </trkpt>
      <trkpt lat="37.1917610" lon="-3.7507700">
        <ele>559.6</ele>
        <time>2020-07-11T10:14:19Z</time>
      </trkpt>
      <trkpt lat="37.1917810" lon="-3.7506910">
        <ele>559.8</ele>
        <time>2020-07-11T10:14:20Z</time>
      </trkpt>
      <trkpt lat="37.1918750" lon="-3.7505880">
        <ele>559.8</ele>
        <time>2020-07-11T10:14:22Z</time>
      </trkpt>
      <trkpt lat="37.1920050" lon="-3.7505500">
        <ele>560.0</ele>
        <time>2020-07-11T10:14:24Z</time>
      </trkpt>
      <trkpt lat="37.1920740" lon="-3.7505310">
        <ele>560.2</ele>
        <time>2020-07-11T10:14:25Z</time>
      </trkpt>
      <trkpt lat="37.1925460" lon="-3.7503280">
        <ele>560.2</ele>
        <time>2020-07-11T10:14:32Z</time>
      </trkpt>
      <trkpt lat="37.1928350" lon="-3.7500640">
        <ele>560.0</ele>
        <time>2020-07-11T10:14:37Z</time>
      </trkpt>
      <trkpt lat="37.1930610" lon="-3.7497170">
        <ele>560.2</ele>
        <time>2020-07-11T10:14:42Z</time>
      </trkpt>
      <trkpt lat="37.1930980" lon="-3.7496380">
        <ele>560.4</ele>
        <time>2020-07-11T10:14:43Z</time>
      </trkpt>
      <trkpt lat="37.1931920" lon="-3.7493980">
        <ele>560.2</ele>
        <time>2020-07-11T10:14:46Z</time>
      </trkpt>
      <trkpt lat="37.1932340" lon="-3.7492140">
        <ele>560.0</ele>
        <time>2020-07-11T10:14:48Z</time>
      </trkpt>
      <trkpt lat="37.1932480" lon="-3.7491180">
        <ele>560.0</ele>
        <time>2020-07-11T10:14:49Z</time>
      </trkpt>
      <trkpt lat="37.1932760" lon="-3.7485530">
        <ele>560.2</ele>
        <time>2020-07-11T10:14:55Z</time>
      </trkpt>
      <trkpt lat="37.1932020" lon="-3.7480950">
        <ele>560.0</ele>
        <time>2020-07-11T10:15:00Z</time>
      </trkpt>
      <trkpt lat="37.1930320" lon="-3.7477000">
        <ele>559.8</ele>
        <time>2020-07-11T10:15:05Z</time>
      </trkpt>
      <trkpt lat="37.1928400" lon="-3.7474250">
        <ele>559.6</ele>
        <time>2020-07-11T10:15:09Z</time>
      </trkpt>
      <trkpt lat="37.1927430" lon="-3.7473130">
        <ele>559.4</ele>
        <time>2020-07-11T10:15:11Z</time>
      </trkpt>
      <trkpt lat="37.1924360" lon="-3.7470320">
        <ele>560.2</ele>
        <time>2020-07-11T10:15:17Z</time>
      </trkpt>
      <trkpt lat="37.1923260" lon="-3.7468990">
        <ele>561.4</ele>
        <time>2020-07-11T10:15:20Z</time>
      </trkpt>
      <trkpt lat="37.1922490" lon="-3.7468180">
        <ele>562.0</ele>
        <time>2020-07-11T10:15:22Z</time>
      </trkpt>
      <trkpt lat="37.1922080" lon="-3.7467850">
        <ele>562.4</ele>
        <time>2020-07-11T10:15:23Z</time>
      </trkpt>
      <trkpt lat="37.1920050" lon="-3.7466200">
        <ele>563.2</ele>
        <time>2020-07-11T10:15:27Z</time>
      </trkpt>
      <trkpt lat="37.1917420" lon="-3.7463150">
        <ele>563.0</ele>
        <time>2020-07-11T10:15:32Z</time>
      </trkpt>
      <trkpt lat="37.1915250" lon="-3.7459090">
        <ele>562.6</ele>
        <time>2020-07-11T10:15:37Z</time>
      </trkpt>
      <trkpt lat="37.1913290" lon="-3.7453920">
        <ele>562.0</ele>
        <time>2020-07-11T10:15:43Z</time>
      </trkpt>
      <trkpt lat="37.1911820" lon="-3.7447970">
        <ele>562.4</ele>
        <time>2020-07-11T10:15:50Z</time>
      </trkpt>
      <trkpt lat="37.1911620" lon="-3.7447210">
        <ele>562.4</ele>
        <time>2020-07-11T10:15:51Z</time>
      </trkpt>
      <trkpt lat="37.1910500" lon="-3.7440500">
        <ele>563.0</ele>
        <time>2020-07-11T10:15:59Z</time>
      </trkpt>
      <trkpt lat="37.1909950" lon="-3.7434470">
        <ele>563.0</ele>
        <time>2020-07-11T10:16:06Z</time>
      </trkpt>
      <trkpt lat="37.1909760" lon="-3.7431840">
        <ele>563.0</ele>
        <time>2020-07-11T10:16:09Z</time>
      </trkpt>
      <trkpt lat="37.1909960" lon="-3.7425750">
        <ele>563.0</ele>
        <time>2020-07-11T10:16:16Z</time>
      </trkpt>
      <trkpt lat="37.1911470" lon="-3.7423900">
        <ele>562.8</ele>
        <time>2020-07-11T10:16:19Z</time>
      </trkpt>
      <trkpt lat="37.1914280" lon="-3.7423170">
        <ele>562.8</ele>
        <time>2020-07-11T10:16:23Z</time>
      </trkpt>
      <trkpt lat="37.1920280" lon="-3.7422550">
        <ele>562.0</ele>
        <time>2020-07-11T10:16:31Z</time>
      </trkpt>
      <trkpt lat="37.1922640" lon="-3.7422280">
        <ele>561.6</ele>
        <time>2020-07-11T10:16:34Z</time>
      </trkpt>
      <trkpt lat="37.1924990" lon="-3.7421980">
        <ele>561.4</ele>
        <time>2020-07-11T10:16:37Z</time>
      </trkpt>
      <trkpt lat="37.1928890" lon="-3.7421410">
        <ele>560.8</ele>
        <time>2020-07-11T10:16:42Z</time>
      </trkpt>
      <trkpt lat="37.1931140" lon="-3.7421160">
        <ele>560.4</ele>
        <time>2020-07-11T10:16:45Z</time>
      </trkpt>
      <trkpt lat="37.1931820" lon="-3.7421070">
        <ele>560.2</ele>
        <time>2020-07-11T10:16:46Z</time>
      </trkpt>
      <trkpt lat="37.1934800" lon="-3.7420790">
        <ele>560.0</ele>
        <time>2020-07-11T10:16:50Z</time>
      </trkpt>
      <trkpt lat="37.1937740" lon="-3.7420870">
        <ele>560.0</ele>
        <time>2020-07-11T10:16:54Z</time>
      </trkpt>
      <trkpt lat="37.1939930" lon="-3.7420900">
        <ele>560.0</ele>
        <time>2020-07-11T10:16:57Z</time>
      </trkpt>
      <trkpt lat="37.1944790" lon="-3.7421080">
        <ele>560.0</ele>
        <time>2020-07-11T10:17:04Z</time>
      </trkpt>
      <trkpt lat="37.1949750" lon="-3.7421390">
        <ele>560.6</ele>
        <time>2020-07-11T10:17:12Z</time>
      </trkpt>
      <trkpt lat="37.1952220" lon="-3.7421300">
        <ele>560.6</ele>
        <time>2020-07-11T10:17:17Z</time>
      </trkpt>
      <trkpt lat="37.1952670" lon="-3.7421020">
        <ele>560.4</ele>
        <time>2020-07-11T10:17:19Z</time>
      </trkpt>
      <trkpt lat="37.1952660" lon="-3.7420590">
        <ele>560.4</ele>
        <time>2020-07-11T10:17:21Z</time>
      </trkpt>
      <trkpt lat="37.1952500" lon="-3.7420330">
        <ele>560.2</ele>
        <time>2020-07-11T10:17:25Z</time>
      </trkpt>
      <trkpt lat="37.1952680" lon="-3.7420570">
        <ele>560.2</ele>
        <time>2020-07-11T10:17:34Z</time>
      </trkpt>
      <trkpt lat="37.1953060" lon="-3.7420990">
        <ele>560.2</ele>
        <time>2020-07-11T10:17:37Z</time>
      </trkpt>
      <trkpt lat="37.1953520" lon="-3.7421280">
        <ele>560.4</ele>
        <time>2020-07-11T10:17:39Z</time>
      </trkpt>
      <trkpt lat="37.1954120" lon="-3.7421650">
        <ele>560.2</ele>
        <time>2020-07-11T10:17:41Z</time>
      </trkpt>
      <trkpt lat="37.1954910" lon="-3.7421950">
        <ele>560.2</ele>
        <time>2020-07-11T10:17:43Z</time>
      </trkpt>
      <trkpt lat="37.1955720" lon="-3.7421930">
        <ele>560.2</ele>
        <time>2020-07-11T10:17:45Z</time>
      </trkpt>
      <trkpt lat="37.1956470" lon="-3.7421840">
        <ele>560.2</ele>
        <time>2020-07-11T10:17:47Z</time>
      </trkpt>
      <trkpt lat="37.1958690" lon="-3.7421750">
        <ele>560.2</ele>
        <time>2020-07-11T10:17:53Z</time>
      </trkpt>
      <trkpt lat="37.1959070" lon="-3.7421770">
        <ele>560.2</ele>
        <time>2020-07-11T10:17:54Z</time>
      </trkpt>
      <trkpt lat="37.1961390" lon="-3.7421490">
        <ele>559.8</ele>
        <time>2020-07-11T10:18:01Z</time>
      </trkpt>
      <trkpt lat="37.1963760" lon="-3.7421060">
        <ele>559.6</ele>
        <time>2020-07-11T10:18:08Z</time>
      </trkpt>
      <trkpt lat="37.1966380" lon="-3.7420330">
        <ele>559.8</ele>
        <time>2020-07-11T10:18:15Z</time>
      </trkpt>
      <trkpt lat="37.1967060" lon="-3.7420100">
        <ele>559.6</ele>
        <time>2020-07-11T10:18:17Z</time>
      </trkpt>
      <trkpt lat="37.1968650" lon="-3.7419710">
        <ele>559.4</ele>
        <time>2020-07-11T10:18:21Z</time>
      </trkpt>
      <trkpt lat="37.1969120" lon="-3.7419570">
        <ele>559.4</ele>
        <time>2020-07-11T10:18:22Z</time>
      </trkpt>
      <trkpt lat="37.1970040" lon="-3.7419270">
        <ele>559.4</ele>
        <time>2020-07-11T10:18:24Z</time>
      </trkpt>
      <trkpt lat="37.1971340" lon="-3.7418750">
        <ele>559.4</ele>
        <time>2020-07-11T10:18:27Z</time>
      </trkpt>
      <trkpt lat="37.1971730" lon="-3.7418570">
        <ele>559.4</ele>
        <time>2020-07-11T10:18:28Z</time>
      </trkpt>
      <trkpt lat="37.1972810" lon="-3.7417870">
        <ele>559.4</ele>
        <time>2020-07-11T10:18:31Z</time>
      </trkpt>
      <trkpt lat="37.1973030" lon="-3.7417380">
        <ele>559.2</ele>
        <time>2020-07-11T10:18:32Z</time>
      </trkpt>
      <trkpt lat="37.1973210" lon="-3.7416880">
        <ele>559.2</ele>
        <time>2020-07-11T10:18:33Z</time>
      </trkpt>
      <trkpt lat="37.1973620" lon="-3.7416010">
        <ele>559.0</ele>
        <time>2020-07-11T10:18:35Z</time>
      </trkpt>
      <trkpt lat="37.1974260" lon="-3.7415370">
        <ele>559.0</ele>
        <time>2020-07-11T10:18:37Z</time>
      </trkpt>
      <trkpt lat="37.1974650" lon="-3.7415160">
        <ele>559.0</ele>
        <time>2020-07-11T10:18:38Z</time>
      </trkpt>
      <trkpt lat="37.1975070" lon="-3.7415010">
        <ele>559.0</ele>
        <time>2020-07-11T10:18:39Z</time>
      </trkpt>
      <trkpt lat="37.1975510" lon="-3.7414900">
        <ele>559.0</ele>
        <time>2020-07-11T10:18:40Z</time>
      </trkpt>
      <trkpt lat="37.1976470" lon="-3.7414700">
        <ele>559.0</ele>
        <time>2020-07-11T10:18:42Z</time>
      </trkpt>
      <trkpt lat="37.1980980" lon="-3.7413940">
        <ele>559.6</ele>
        <time>2020-07-11T10:18:50Z</time>
      </trkpt>
      <trkpt lat="37.1983370" lon="-3.7413530">
        <ele>559.4</ele>
        <time>2020-07-11T10:18:54Z</time>
      </trkpt>
      <trkpt lat="37.1984600" lon="-3.7413390">
        <ele>559.6</ele>
        <time>2020-07-11T10:18:56Z</time>
      </trkpt>
      <trkpt lat="37.1987210" lon="-3.7413170">
        <ele>559.6</ele>
        <time>2020-07-11T10:19:00Z</time>
      </trkpt>
      <trkpt lat="37.1989060" lon="-3.7412910">
        <ele>559.6</ele>
        <time>2020-07-11T10:19:03Z</time>
      </trkpt>
      <trkpt lat="37.1993360" lon="-3.7412500">
        <ele>559.2</ele>
        <time>2020-07-11T10:19:10Z</time>
      </trkpt>
      <trkpt lat="37.1996760" lon="-3.7412380">
        <ele>559.2</ele>
        <time>2020-07-11T10:19:15Z</time>
      </trkpt>
      <trkpt lat="37.1998120" lon="-3.7412320">
        <ele>559.2</ele>
        <time>2020-07-11T10:19:17Z</time>
      </trkpt>
      <trkpt lat="37.2003670" lon="-3.7411790">
        <ele>559.0</ele>
        <time>2020-07-11T10:19:25Z</time>
      </trkpt>
      <trkpt lat="37.2008450" lon="-3.7410090">
        <ele>558.6</ele>
        <time>2020-07-11T10:19:32Z</time>
      </trkpt>
      <trkpt lat="37.2009170" lon="-3.7410010">
        <ele>558.4</ele>
        <time>2020-07-11T10:19:33Z</time>
      </trkpt>
      <trkpt lat="37.2011240" lon="-3.7410430">
        <ele>558.4</ele>
        <time>2020-07-11T10:19:36Z</time>
      </trkpt>
      <trkpt lat="37.2012630" lon="-3.7411130">
        <ele>558.2</ele>
        <time>2020-07-11T10:19:38Z</time>
      </trkpt>
      <trkpt lat="37.2015340" lon="-3.7412510">
        <ele>558.0</ele>
        <time>2020-07-11T10:19:42Z</time>
      </trkpt>
      <trkpt lat="37.2018090" lon="-3.7413650">
        <ele>558.0</ele>
        <time>2020-07-11T10:19:46Z</time>
      </trkpt>
      <trkpt lat="37.2020980" lon="-3.7414420">
        <ele>557.8</ele>
        <time>2020-07-11T10:19:50Z</time>
      </trkpt>
      <trkpt lat="37.2024680" lon="-3.7414200">
        <ele>557.6</ele>
        <time>2020-07-11T10:19:55Z</time>
      </trkpt>
      <trkpt lat="37.2030590" lon="-3.7413300">
        <ele>557.4</ele>
        <time>2020-07-11T10:20:03Z</time>
      </trkpt>
      <trkpt lat="37.2031280" lon="-3.7412970">
        <ele>557.2</ele>
        <time>2020-07-11T10:20:04Z</time>
      </trkpt>
      <trkpt lat="37.2032590" lon="-3.7412260">
        <ele>557.0</ele>
        <time>2020-07-11T10:20:06Z</time>
      </trkpt>
      <trkpt lat="37.2034030" lon="-3.7411540">
        <ele>557.2</ele>
        <time>2020-07-11T10:20:08Z</time>
      </trkpt>
      <trkpt lat="37.2039390" lon="-3.7408970">
        <ele>557.8</ele>
        <time>2020-07-11T10:20:16Z</time>
      </trkpt>
      <trkpt lat="37.2043690" lon="-3.7406390">
        <ele>557.4</ele>
        <time>2020-07-11T10:20:23Z</time>
      </trkpt>
      <trkpt lat="37.2045740" lon="-3.7406340">
        <ele>557.8</ele>
        <time>2020-07-11T10:20:26Z</time>
      </trkpt>
      <trkpt lat="37.2047450" lon="-3.7407960">
        <ele>558.0</ele>
        <time>2020-07-11T10:20:29Z</time>
      </trkpt>
      <trkpt lat="37.2047970" lon="-3.7408710">
        <ele>558.0</ele>
        <time>2020-07-11T10:20:30Z</time>
      </trkpt>
      <trkpt lat="37.2049060" lon="-3.7410010">
        <ele>558.2</ele>
        <time>2020-07-11T10:20:32Z</time>
      </trkpt>
      <trkpt lat="37.2050250" lon="-3.7411120">
        <ele>558.2</ele>
        <time>2020-07-11T10:20:34Z</time>
      </trkpt>
      <trkpt lat="37.2055200" lon="-3.7414820">
        <ele>558.2</ele>
        <time>2020-07-11T10:20:42Z</time>
      </trkpt>
      <trkpt lat="37.2055840" lon="-3.7415210">
        <ele>558.2</ele>
        <time>2020-07-11T10:20:43Z</time>
      </trkpt>
      <trkpt lat="37.2060410" lon="-3.7418300">
        <ele>557.4</ele>
        <time>2020-07-11T10:20:50Z</time>
      </trkpt>
      <trkpt lat="37.2065510" lon="-3.7420420">
        <ele>557.2</ele>
        <time>2020-07-11T10:20:57Z</time>
      </trkpt>
      <trkpt lat="37.2066960" lon="-3.7420690">
        <ele>557.0</ele>
        <time>2020-07-11T10:20:59Z</time>
      </trkpt>
      <trkpt lat="37.2069170" lon="-3.7420830">
        <ele>557.0</ele>
        <time>2020-07-11T10:21:02Z</time>
      </trkpt>
      <trkpt lat="37.2073450" lon="-3.7420730">
        <ele>556.8</ele>
        <time>2020-07-11T10:21:08Z</time>
      </trkpt>
      <trkpt lat="37.2079340" lon="-3.7420760">
        <ele>556.8</ele>
        <time>2020-07-11T10:21:16Z</time>
      </trkpt>
      <trkpt lat="37.2081400" lon="-3.7421150">
        <ele>556.6</ele>
        <time>2020-07-11T10:21:19Z</time>
      </trkpt>
      <trkpt lat="37.2082530" lon="-3.7421540">
        <ele>556.6</ele>
        <time>2020-07-11T10:21:21Z</time>
      </trkpt>
      <trkpt lat="37.2083670" lon="-3.7422040">
        <ele>556.6</ele>
        <time>2020-07-11T10:21:23Z</time>
      </trkpt>
      <trkpt lat="37.2085440" lon="-3.7423200">
        <ele>556.2</ele>
        <time>2020-07-11T10:21:26Z</time>
      </trkpt>
      <trkpt lat="37.2086030" lon="-3.7423710">
        <ele>556.2</ele>
        <time>2020-07-11T10:21:27Z</time>
      </trkpt>
      <trkpt lat="37.2086570" lon="-3.7424270">
        <ele>556.0</ele>
        <time>2020-07-11T10:21:28Z</time>
      </trkpt>
      <trkpt lat="37.2088110" lon="-3.7425990">
        <ele>556.0</ele>
        <time>2020-07-11T10:21:31Z</time>
      </trkpt>
      <trkpt lat="37.2091090" lon="-3.7428410">
        <ele>556.0</ele>
        <time>2020-07-11T10:21:36Z</time>
      </trkpt>
      <trkpt lat="37.2094570" lon="-3.7430070">
        <ele>556.0</ele>
        <time>2020-07-11T10:21:41Z</time>
      </trkpt>
      <trkpt lat="37.2098400" lon="-3.7432070">
        <ele>556.0</ele>
        <time>2020-07-11T10:21:47Z</time>
      </trkpt>
      <trkpt lat="37.2099740" lon="-3.7433100">
        <ele>556.2</ele>
        <time>2020-07-11T10:21:51Z</time>
      </trkpt>
      <trkpt lat="37.2101580" lon="-3.7434460">
        <ele>554.8</ele>
        <time>2020-07-11T10:21:57Z</time>
      </trkpt>
      <trkpt lat="37.2101980" lon="-3.7434980">
        <ele>554.0</ele>
        <time>2020-07-11T10:21:59Z</time>
      </trkpt>
      <trkpt lat="37.2102160" lon="-3.7435290">
        <ele>553.6</ele>
        <time>2020-07-11T10:22:00Z</time>
      </trkpt>
      <trkpt lat="37.2102460" lon="-3.7435840">
        <ele>553.2</ele>
        <time>2020-07-11T10:22:02Z</time>
      </trkpt>
      <trkpt lat="37.2102630" lon="-3.7436100">
        <ele>552.8</ele>
        <time>2020-07-11T10:22:03Z</time>
      </trkpt>
      <trkpt lat="37.2102980" lon="-3.7436640">
        <ele>552.4</ele>
        <time>2020-07-11T10:22:05Z</time>
      </trkpt>
      <trkpt lat="37.2103170" lon="-3.7436930">
        <ele>552.4</ele>
        <time>2020-07-11T10:22:06Z</time>
      </trkpt>
      <trkpt lat="37.2104140" lon="-3.7438310">
        <ele>552.4</ele>
        <time>2020-07-11T10:22:12Z</time>
      </trkpt>
      <trkpt lat="37.2104770" lon="-3.7438890">
        <ele>552.6</ele>
        <time>2020-07-11T10:22:14Z</time>
      </trkpt>
      <trkpt lat="37.2105330" lon="-3.7439580">
        <ele>552.8</ele>
        <time>2020-07-11T10:22:16Z</time>
      </trkpt>
      <trkpt lat="37.2105640" lon="-3.7440350">
        <ele>553.0</ele>
        <time>2020-07-11T10:22:18Z</time>
      </trkpt>
      <trkpt lat="37.2105740" lon="-3.7441270">
        <ele>553.6</ele>
        <time>2020-07-11T10:22:20Z</time>
      </trkpt>
      <trkpt lat="37.2105820" lon="-3.7442410">
        <ele>554.4</ele>
        <time>2020-07-11T10:22:22Z</time>
      </trkpt>
      <trkpt lat="37.2105890" lon="-3.7442990">
        <ele>554.8</ele>
        <time>2020-07-11T10:22:23Z</time>
      </trkpt>
      <trkpt lat="37.2106130" lon="-3.7444270">
        <ele>555.6</ele>
        <time>2020-07-11T10:22:25Z</time>
      </trkpt>
      <trkpt lat="37.2106250" lon="-3.7444890">
        <ele>555.6</ele>
        <time>2020-07-11T10:22:26Z</time>
      </trkpt>
      <trkpt lat="37.2107160" lon="-3.7447740">
        <ele>555.6</ele>
        <time>2020-07-11T10:22:30Z</time>
      </trkpt>
      <trkpt lat="37.2107540" lon="-3.7448330">
        <ele>555.6</ele>
        <time>2020-07-11T10:22:31Z</time>
      </trkpt>
      <trkpt lat="37.2109720" lon="-3.7450260">
        <ele>555.6</ele>
        <time>2020-07-11T10:22:35Z</time>
      </trkpt>
      <trkpt lat="37.2110350" lon="-3.7450650">
        <ele>555.4</ele>
        <time>2020-07-11T10:22:36Z</time>
      </trkpt>
      <trkpt lat="37.2114160" lon="-3.7452990">
        <ele>555.2</ele>
        <time>2020-07-11T10:22:42Z</time>
      </trkpt>
      <trkpt lat="37.2117570" lon="-3.7456430">
        <ele>554.8</ele>
        <time>2020-07-11T10:22:48Z</time>
      </trkpt>
      <trkpt lat="37.2121510" lon="-3.7462150">
        <ele>554.0</ele>
        <time>2020-07-11T10:22:56Z</time>
      </trkpt>
      <trkpt lat="37.2123040" lon="-3.7464340">
        <ele>554.0</ele>
        <time>2020-07-11T10:22:59Z</time>
      </trkpt>
      <trkpt lat="37.2125600" lon="-3.7468080">
        <ele>554.2</ele>
        <time>2020-07-11T10:23:04Z</time>
      </trkpt>
      <trkpt lat="37.2126060" lon="-3.7468730">
        <ele>554.2</ele>
        <time>2020-07-11T10:23:05Z</time>
      </trkpt>
      <trkpt lat="37.2129450" lon="-3.7474200">
        <ele>553.8</ele>
        <time>2020-07-11T10:23:12Z</time>
      </trkpt>
      <trkpt lat="37.2129910" lon="-3.7474980">
        <ele>553.8</ele>
        <time>2020-07-11T10:23:13Z</time>
      </trkpt>
      <trkpt lat="37.2132910" lon="-3.7480680">
        <ele>553.6</ele>
        <time>2020-07-11T10:23:20Z</time>
      </trkpt>
      <trkpt lat="37.2133700" lon="-3.7482530">
        <ele>553.4</ele>
        <time>2020-07-11T10:23:22Z</time>
      </trkpt>
      <trkpt lat="37.2136080" lon="-3.7488020">
        <ele>552.8</ele>
        <time>2020-07-11T10:23:28Z</time>
      </trkpt>
      <trkpt lat="37.2137230" lon="-3.7490750">
        <ele>552.6</ele>
        <time>2020-07-11T10:23:31Z</time>
      </trkpt>
      <trkpt lat="37.2140010" lon="-3.7497210">
        <ele>552.2</ele>
        <time>2020-07-11T10:23:38Z</time>
      </trkpt>
      <trkpt lat="37.2140760" lon="-3.7499010">
        <ele>552.0</ele>
        <time>2020-07-11T10:23:40Z</time>
      </trkpt>
      <trkpt lat="37.2142330" lon="-3.7502630">
        <ele>551.8</ele>
        <time>2020-07-11T10:23:44Z</time>
      </trkpt>
      <trkpt lat="37.2143120" lon="-3.7504360">
        <ele>551.6</ele>
        <time>2020-07-11T10:23:46Z</time>
      </trkpt>
      <trkpt lat="37.2144690" lon="-3.7507910">
        <ele>551.4</ele>
        <time>2020-07-11T10:23:50Z</time>
      </trkpt>
      <trkpt lat="37.2145790" lon="-3.7510490">
        <ele>551.4</ele>
        <time>2020-07-11T10:23:53Z</time>
      </trkpt>
      <trkpt lat="37.2146860" lon="-3.7512950">
        <ele>551.0</ele>
        <time>2020-07-11T10:23:56Z</time>
      </trkpt>
      <trkpt lat="37.2147230" lon="-3.7513790">
        <ele>551.0</ele>
        <time>2020-07-11T10:23:57Z</time>
      </trkpt>
      <trkpt lat="37.2148300" lon="-3.7516000">
        <ele>550.8</ele>
        <time>2020-07-11T10:24:00Z</time>
      </trkpt>
      <trkpt lat="37.2149160" lon="-3.7517390">
        <ele>550.8</ele>
        <time>2020-07-11T10:24:02Z</time>
      </trkpt>
      <trkpt lat="37.2150930" lon="-3.7518680">
        <ele>550.6</ele>
        <time>2020-07-11T10:24:05Z</time>
      </trkpt>
      <trkpt lat="37.2152350" lon="-3.7519160">
        <ele>550.6</ele>
        <time>2020-07-11T10:24:07Z</time>
      </trkpt>
      <trkpt lat="37.2153820" lon="-3.7519310">
        <ele>550.4</ele>
        <time>2020-07-11T10:24:09Z</time>
      </trkpt>
      <trkpt lat="37.2155190" lon="-3.7519220">
        <ele>550.4</ele>
        <time>2020-07-11T10:24:11Z</time>
      </trkpt>
      <trkpt lat="37.2157980" lon="-3.7518840">
        <ele>550.4</ele>
        <time>2020-07-11T10:24:15Z</time>
      </trkpt>
      <trkpt lat="37.2159160" lon="-3.7518670">
        <ele>550.6</ele>
        <time>2020-07-11T10:24:17Z</time>
      </trkpt>
      <trkpt lat="37.2160220" lon="-3.7519070">
        <ele>550.6</ele>
        <time>2020-07-11T10:24:19Z</time>
      </trkpt>
      <trkpt lat="37.2161840" lon="-3.7520000">
        <ele>550.4</ele>
        <time>2020-07-11T10:24:23Z</time>
      </trkpt>
      <trkpt lat="37.2162400" lon="-3.7520050">
        <ele>550.4</ele>
        <time>2020-07-11T10:24:24Z</time>
      </trkpt>
      <trkpt lat="37.2163000" lon="-3.7519920">
        <ele>550.4</ele>
        <time>2020-07-11T10:24:25Z</time>
      </trkpt>
      <trkpt lat="37.2164040" lon="-3.7519640">
        <ele>550.2</ele>
        <time>2020-07-11T10:24:27Z</time>
      </trkpt>
      <trkpt lat="37.2165720" lon="-3.7519270">
        <ele>550.2</ele>
        <time>2020-07-11T10:24:30Z</time>
      </trkpt>
      <trkpt lat="37.2166800" lon="-3.7519070">
        <ele>550.4</ele>
        <time>2020-07-11T10:24:32Z</time>
      </trkpt>
      <trkpt lat="37.2168530" lon="-3.7518810">
        <ele>550.6</ele>
        <time>2020-07-11T10:24:36Z</time>
      </trkpt>
      <trkpt lat="37.2169580" lon="-3.7518650">
        <ele>550.8</ele>
        <time>2020-07-11T10:24:38Z</time>
      </trkpt>
      <trkpt lat="37.2170670" lon="-3.7518440">
        <ele>550.8</ele>
        <time>2020-07-11T10:24:40Z</time>
      </trkpt>
      <trkpt lat="37.2172280" lon="-3.7518170">
        <ele>551.0</ele>
        <time>2020-07-11T10:24:43Z</time>
      </trkpt>
      <trkpt lat="37.2176820" lon="-3.7517450">
        <ele>551.2</ele>
        <time>2020-07-11T10:24:51Z</time>
      </trkpt>
      <trkpt lat="37.2179270" lon="-3.7517110">
        <ele>551.2</ele>
        <time>2020-07-11T10:24:55Z</time>
      </trkpt>
      <trkpt lat="37.2180420" lon="-3.7516760">
        <ele>551.2</ele>
        <time>2020-07-11T10:24:57Z</time>
      </trkpt>
      <trkpt lat="37.2182660" lon="-3.7515570">
        <ele>551.4</ele>
        <time>2020-07-11T10:25:01Z</time>
      </trkpt>
      <trkpt lat="37.2185640" lon="-3.7513050">
        <ele>551.2</ele>
        <time>2020-07-11T10:25:07Z</time>
      </trkpt>
      <trkpt lat="37.2187700" lon="-3.7511260">
        <ele>551.2</ele>
        <time>2020-07-11T10:25:11Z</time>
      </trkpt>
      <trkpt lat="37.2190810" lon="-3.7508560">
        <ele>551.2</ele>
        <time>2020-07-11T10:25:17Z</time>
      </trkpt>
      <trkpt lat="37.2193640" lon="-3.7505560">
        <ele>551.2</ele>
        <time>2020-07-11T10:25:23Z</time>
      </trkpt>
      <trkpt lat="37.2194150" lon="-3.7503310">
        <ele>551.2</ele>
        <time>2020-07-11T10:25:26Z</time>
      </trkpt>
      <trkpt lat="37.2195160" lon="-3.7500440">
        <ele>551.4</ele>
        <time>2020-07-11T10:25:30Z</time>
      </trkpt>
      <trkpt lat="37.2195570" lon="-3.7499810">
        <ele>551.4</ele>
        <time>2020-07-11T10:25:31Z</time>
      </trkpt>
      <trkpt lat="37.2197480" lon="-3.7498300">
        <ele>551.6</ele>
        <time>2020-07-11T10:25:35Z</time>
      </trkpt>
      <trkpt lat="37.2199040" lon="-3.7498200">
        <ele>551.6</ele>
        <time>2020-07-11T10:25:39Z</time>
      </trkpt>
      <trkpt lat="37.2199480" lon="-3.7498180">
        <ele>551.8</ele>
        <time>2020-07-11T10:25:40Z</time>
      </trkpt>
      <trkpt lat="37.2201720" lon="-3.7498190">
        <ele>551.6</ele>
        <time>2020-07-11T10:25:46Z</time>
      </trkpt>
      <trkpt lat="37.2202270" lon="-3.7497850">
        <ele>551.8</ele>
        <time>2020-07-11T10:25:48Z</time>
      </trkpt>
      <trkpt lat="37.2202530" lon="-3.7497690">
        <ele>551.6</ele>
        <time>2020-07-11T10:25:50Z</time>
      </trkpt>
      <trkpt lat="37.2202450" lon="-3.7497720">
        <ele>551.6</ele>
        <time>2020-07-11T10:25:51Z</time>
      </trkpt>
      <trkpt lat="37.2202800" lon="-3.7498520">
        <ele>551.6</ele>
        <time>2020-07-11T10:26:49Z</time>
      </trkpt>
      <trkpt lat="37.2202970" lon="-3.7498600">
        <ele>551.6</ele>
        <time>2020-07-11T10:26:50Z</time>
      </trkpt>
      <trkpt lat="37.2203810" lon="-3.7498490">
        <ele>551.4</ele>
        <time>2020-07-11T10:26:53Z</time>
      </trkpt>
      <trkpt lat="37.2204170" lon="-3.7498470">
        <ele>551.4</ele>
        <time>2020-07-11T10:26:54Z</time>
      </trkpt>
      <trkpt lat="37.2206520" lon="-3.7498610">
        <ele>551.6</ele>
        <time>2020-07-11T10:26:59Z</time>
      </trkpt>
      <trkpt lat="37.2209430" lon="-3.7498590">
        <ele>551.6</ele>
        <time>2020-07-11T10:27:04Z</time>
      </trkpt>
      <trkpt lat="37.2210020" lon="-3.7498580">
        <ele>551.6</ele>
        <time>2020-07-11T10:27:05Z</time>
      </trkpt>
      <trkpt lat="37.2212450" lon="-3.7498760">
        <ele>551.4</ele>
        <time>2020-07-11T10:27:09Z</time>
      </trkpt>
      <trkpt lat="37.2214240" lon="-3.7498950">
        <ele>551.4</ele>
        <time>2020-07-11T10:27:12Z</time>
      </trkpt>
      <trkpt lat="37.2215570" lon="-3.7499000">
        <ele>551.6</ele>
        <time>2020-07-11T10:27:14Z</time>
      </trkpt>
      <trkpt lat="37.2217490" lon="-3.7499030">
        <ele>551.6</ele>
        <time>2020-07-11T10:27:17Z</time>
      </trkpt>
      <trkpt lat="37.2218780" lon="-3.7499170">
        <ele>551.6</ele>
        <time>2020-07-11T10:27:19Z</time>
      </trkpt>
      <trkpt lat="37.2223250" lon="-3.7499700">
        <ele>551.6</ele>
        <time>2020-07-11T10:27:27Z</time>
      </trkpt>
      <trkpt lat="37.2224610" lon="-3.7499730">
        <ele>551.6</ele>
        <time>2020-07-11T10:27:31Z</time>
      </trkpt>
      <trkpt lat="37.2225090" lon="-3.7499750">
        <ele>551.6</ele>
        <time>2020-07-11T10:27:33Z</time>
      </trkpt>
      <trkpt lat="37.2225310" lon="-3.7499790">
        <ele>551.6</ele>
        <time>2020-07-11T10:27:35Z</time>
      </trkpt>
      <trkpt lat="37.2225250" lon="-3.7499780">
        <ele>551.6</ele>
        <time>2020-07-11T10:27:36Z</time>
      </trkpt>
      <trkpt lat="37.2225500" lon="-3.7499820">
        <ele>551.8</ele>
        <time>2020-07-11T10:27:38Z</time>
      </trkpt>
      <trkpt lat="37.2225810" lon="-3.7499660">
        <ele>551.8</ele>
        <time>2020-07-11T10:27:40Z</time>
      </trkpt>
      <trkpt lat="37.2225870" lon="-3.7499380">
        <ele>551.8</ele>
        <time>2020-07-11T10:27:41Z</time>
      </trkpt>
      <trkpt lat="37.2225980" lon="-3.7497520">
        <ele>552.0</ele>
        <time>2020-07-11T10:27:45Z</time>
      </trkpt>
      <trkpt lat="37.2226190" lon="-3.7494960">
        <ele>552.2</ele>
        <time>2020-07-11T10:27:49Z</time>
      </trkpt>
      <trkpt lat="37.2226280" lon="-3.7493590">
        <ele>552.4</ele>
        <time>2020-07-11T10:27:51Z</time>
      </trkpt>
      <trkpt lat="37.2226530" lon="-3.7489070">
        <ele>552.6</ele>
        <time>2020-07-11T10:27:57Z</time>
      </trkpt>
      <trkpt lat="37.2226580" lon="-3.7488210">
        <ele>552.6</ele>
        <time>2020-07-11T10:27:58Z</time>
      </trkpt>
      <trkpt lat="37.2226620" lon="-3.7487480">
        <ele>552.8</ele>
        <time>2020-07-11T10:28:01Z</time>
      </trkpt>
      <trkpt lat="37.2226650" lon="-3.7486740">
        <ele>552.8</ele>
        <time>2020-07-11T10:28:02Z</time>
      </trkpt>
      <trkpt lat="37.2226850" lon="-3.7482320">
        <ele>553.0</ele>
        <time>2020-07-11T10:28:05Z</time>
      </trkpt>
      <trkpt lat="37.2226740" lon="-3.7479740">
        <ele>553.0</ele>
        <time>2020-07-11T10:28:08Z</time>
      </trkpt>
      <trkpt lat="37.2226360" lon="-3.7477090">
        <ele>553.0</ele>
        <time>2020-07-11T10:28:11Z</time>
      </trkpt>
      <trkpt lat="37.2225780" lon="-3.7474450">
        <ele>553.2</ele>
        <time>2020-07-11T10:28:14Z</time>
      </trkpt>
      <trkpt lat="37.2224200" lon="-3.7470350">
        <ele>553.4</ele>
        <time>2020-07-11T10:28:19Z</time>
      </trkpt>
      <trkpt lat="37.2222150" lon="-3.7465440">
        <ele>553.4</ele>
        <time>2020-07-11T10:28:25Z</time>
      </trkpt>
      <trkpt lat="37.2221510" lon="-3.7463780">
        <ele>553.4</ele>
        <time>2020-07-11T10:28:27Z</time>
      </trkpt>
      <trkpt lat="37.2219150" lon="-3.7457550">
        <ele>553.4</ele>
        <time>2020-07-11T10:28:34Z</time>
      </trkpt>
      <trkpt lat="37.2218250" lon="-3.7454880">
        <ele>553.6</ele>
        <time>2020-07-11T10:28:37Z</time>
      </trkpt>
      <trkpt lat="37.2217430" lon="-3.7452280">
        <ele>553.8</ele>
        <time>2020-07-11T10:28:40Z</time>
      </trkpt>
      <trkpt lat="37.2216080" lon="-3.7446420">
        <ele>553.8</ele>
        <time>2020-07-11T10:28:46Z</time>
      </trkpt>
      <trkpt lat="37.2215260" lon="-3.7439370">
        <ele>553.8</ele>
        <time>2020-07-11T10:28:53Z</time>
      </trkpt>
      <trkpt lat="37.2215030" lon="-3.7437330">
        <ele>553.8</ele>
        <time>2020-07-11T10:28:55Z</time>
      </trkpt>
      <trkpt lat="37.2214310" lon="-3.7430300">
        <ele>553.8</ele>
        <time>2020-07-11T10:29:02Z</time>
      </trkpt>
      <trkpt lat="37.2213990" lon="-3.7427160">
        <ele>553.8</ele>
        <time>2020-07-11T10:29:05Z</time>
      </trkpt>
      <trkpt lat="37.2213260" lon="-3.7420060">
        <ele>554.2</ele>
        <time>2020-07-11T10:29:12Z</time>
      </trkpt>
      <trkpt lat="37.2212830" lon="-3.7415890">
        <ele>554.6</ele>
        <time>2020-07-11T10:29:16Z</time>
      </trkpt>
      <trkpt lat="37.2212510" lon="-3.7412730">
        <ele>554.8</ele>
        <time>2020-07-11T10:29:19Z</time>
      </trkpt>
      <trkpt lat="37.2211370" lon="-3.7405780">
        <ele>555.4</ele>
        <time>2020-07-11T10:29:26Z</time>
      </trkpt>
      <trkpt lat="37.2209450" lon="-3.7399150">
        <ele>555.8</ele>
        <time>2020-07-11T10:29:33Z</time>
      </trkpt>
      <trkpt lat="37.2209170" lon="-3.7398210">
        <ele>555.8</ele>
        <time>2020-07-11T10:29:34Z</time>
      </trkpt>
      <trkpt lat="37.2208870" lon="-3.7397270">
        <ele>555.8</ele>
        <time>2020-07-11T10:29:35Z</time>
      </trkpt>
      <trkpt lat="37.2206810" lon="-3.7390870">
        <ele>556.2</ele>
        <time>2020-07-11T10:29:42Z</time>
      </trkpt>
      <trkpt lat="37.2205310" lon="-3.7386120">
        <ele>556.2</ele>
        <time>2020-07-11T10:29:47Z</time>
      </trkpt>
      <trkpt lat="37.2203070" lon="-3.7378950">
        <ele>556.0</ele>
        <time>2020-07-11T10:29:55Z</time>
      </trkpt>
      <trkpt lat="37.2202530" lon="-3.7377260">
        <ele>556.2</ele>
        <time>2020-07-11T10:29:57Z</time>
      </trkpt>
      <trkpt lat="37.2201700" lon="-3.7374660">
        <ele>556.2</ele>
        <time>2020-07-11T10:30:00Z</time>
      </trkpt>
      <trkpt lat="37.2200600" lon="-3.7371200">
        <ele>556.4</ele>
        <time>2020-07-11T10:30:04Z</time>
      </trkpt>
      <trkpt lat="37.2199470" lon="-3.7367670">
        <ele>556.6</ele>
        <time>2020-07-11T10:30:08Z</time>
      </trkpt>
      <trkpt lat="37.2199160" lon="-3.7366800">
        <ele>556.6</ele>
        <time>2020-07-11T10:30:09Z</time>
      </trkpt>
      <trkpt lat="37.2198490" lon="-3.7365110">
        <ele>556.8</ele>
        <time>2020-07-11T10:30:11Z</time>
      </trkpt>
      <trkpt lat="37.2196410" lon="-3.7360110">
        <ele>557.0</ele>
        <time>2020-07-11T10:30:17Z</time>
      </trkpt>
      <trkpt lat="37.2193550" lon="-3.7353290">
        <ele>557.0</ele>
        <time>2020-07-11T10:30:25Z</time>
      </trkpt>
      <trkpt lat="37.2192880" lon="-3.7351680">
        <ele>557.4</ele>
        <time>2020-07-11T10:30:27Z</time>
      </trkpt>
      <trkpt lat="37.2190050" lon="-3.7345000">
        <ele>557.6</ele>
        <time>2020-07-11T10:30:35Z</time>
      </trkpt>
      <trkpt lat="37.2189000" lon="-3.7342460">
        <ele>557.8</ele>
        <time>2020-07-11T10:30:38Z</time>
      </trkpt>
      <trkpt lat="37.2187980" lon="-3.7340020">
        <ele>557.8</ele>
        <time>2020-07-11T10:30:41Z</time>
      </trkpt>
      <trkpt lat="37.2185540" lon="-3.7334080">
        <ele>558.0</ele>
        <time>2020-07-11T10:30:48Z</time>
      </trkpt>
      <trkpt lat="37.2182760" lon="-3.7327340">
        <ele>558.2</ele>
        <time>2020-07-11T10:30:56Z</time>
      </trkpt>
      <trkpt lat="37.2182140" lon="-3.7325610">
        <ele>558.4</ele>
        <time>2020-07-11T10:30:58Z</time>
      </trkpt>
      <trkpt lat="37.2179940" lon="-3.7318700">
        <ele>558.8</ele>
        <time>2020-07-11T10:31:06Z</time>
      </trkpt>
      <trkpt lat="37.2179670" lon="-3.7317770">
        <ele>558.8</ele>
        <time>2020-07-11T10:31:07Z</time>
      </trkpt>
      <trkpt lat="37.2178890" lon="-3.7315020">
        <ele>559.0</ele>
        <time>2020-07-11T10:31:10Z</time>
      </trkpt>
      <trkpt lat="37.2176790" lon="-3.7307950">
        <ele>559.8</ele>
        <time>2020-07-11T10:31:18Z</time>
      </trkpt>
      <trkpt lat="37.2176510" lon="-3.7307010">
        <ele>559.8</ele>
        <time>2020-07-11T10:31:19Z</time>
      </trkpt>
      <trkpt lat="37.2175680" lon="-3.7304390">
        <ele>559.8</ele>
        <time>2020-07-11T10:31:22Z</time>
      </trkpt>
      <trkpt lat="37.2174850" lon="-3.7301520">
        <ele>560.4</ele>
        <time>2020-07-11T10:31:25Z</time>
      </trkpt>
      <trkpt lat="37.2174010" lon="-3.7298820">
        <ele>560.6</ele>
        <time>2020-07-11T10:31:28Z</time>
      </trkpt>
      <trkpt lat="37.2173210" lon="-3.7296050">
        <ele>560.8</ele>
        <time>2020-07-11T10:31:31Z</time>
      </trkpt>
      <trkpt lat="37.2171330" lon="-3.7289660">
        <ele>561.2</ele>
        <time>2020-07-11T10:31:38Z</time>
      </trkpt>
      <trkpt lat="37.2170120" lon="-3.7284220">
        <ele>561.4</ele>
        <time>2020-07-11T10:31:44Z</time>
      </trkpt>
      <trkpt lat="37.2170090" lon="-3.7283290">
        <ele>561.6</ele>
        <time>2020-07-11T10:31:45Z</time>
      </trkpt>
      <trkpt lat="37.2170330" lon="-3.7280450">
        <ele>562.0</ele>
        <time>2020-07-11T10:31:48Z</time>
      </trkpt>
      <trkpt lat="37.2170630" lon="-3.7278520">
        <ele>562.2</ele>
        <time>2020-07-11T10:31:50Z</time>
      </trkpt>
      <trkpt lat="37.2171600" lon="-3.7271910">
        <ele>562.4</ele>
        <time>2020-07-11T10:31:57Z</time>
      </trkpt>
      <trkpt lat="37.2171910" lon="-3.7267870">
        <ele>562.8</ele>
        <time>2020-07-11T10:32:01Z</time>
      </trkpt>
      <trkpt lat="37.2171700" lon="-3.7266940">
        <ele>563.0</ele>
        <time>2020-07-11T10:32:02Z</time>
      </trkpt>
      <trkpt lat="37.2171410" lon="-3.7265960">
        <ele>563.0</ele>
        <time>2020-07-11T10:32:03Z</time>
      </trkpt>
      <trkpt lat="37.2169510" lon="-3.7259630">
        <ele>563.2</ele>
        <time>2020-07-11T10:32:10Z</time>
      </trkpt>
      <trkpt lat="37.2169060" lon="-3.7258000">
        <ele>563.4</ele>
        <time>2020-07-11T10:32:12Z</time>
      </trkpt>
      <trkpt lat="37.2167380" lon="-3.7251560">
        <ele>564.0</ele>
        <time>2020-07-11T10:32:19Z</time>
      </trkpt>
      <trkpt lat="37.2166730" lon="-3.7248970">
        <ele>564.2</ele>
        <time>2020-07-11T10:32:22Z</time>
      </trkpt>
      <trkpt lat="37.2165270" lon="-3.7243330">
        <ele>564.2</ele>
        <time>2020-07-11T10:32:29Z</time>
      </trkpt>
      <trkpt lat="37.2165060" lon="-3.7242630">
        <ele>564.4</ele>
        <time>2020-07-11T10:32:30Z</time>
      </trkpt>
      <trkpt lat="37.2163360" lon="-3.7238280">
        <ele>564.6</ele>
        <time>2020-07-11T10:32:36Z</time>
      </trkpt>
      <trkpt lat="37.2161580" lon="-3.7234720">
        <ele>564.8</ele>
        <time>2020-07-11T10:32:41Z</time>
      </trkpt>
      <trkpt lat="37.2160440" lon="-3.7232670">
        <ele>564.8</ele>
        <time>2020-07-11T10:32:44Z</time>
      </trkpt>
      <trkpt lat="37.2159680" lon="-3.7231230">
        <ele>564.8</ele>
        <time>2020-07-11T10:32:46Z</time>
      </trkpt>
      <trkpt lat="37.2158620" lon="-3.7228720">
        <ele>565.0</ele>
        <time>2020-07-11T10:32:49Z</time>
      </trkpt>
      <trkpt lat="37.2158310" lon="-3.7227890">
        <ele>565.0</ele>
        <time>2020-07-11T10:32:50Z</time>
      </trkpt>
      <trkpt lat="37.2158120" lon="-3.7227100">
        <ele>565.2</ele>
        <time>2020-07-11T10:32:51Z</time>
      </trkpt>
      <trkpt lat="37.2156930" lon="-3.7222590">
        <ele>565.8</ele>
        <time>2020-07-11T10:32:56Z</time>
      </trkpt>
      <trkpt lat="37.2155950" lon="-3.7218040">
        <ele>565.4</ele>
        <time>2020-07-11T10:33:01Z</time>
      </trkpt>
      <trkpt lat="37.2155550" lon="-3.7215490">
        <ele>565.8</ele>
        <time>2020-07-11T10:33:04Z</time>
      </trkpt>
      <trkpt lat="37.2154910" lon="-3.7208670">
        <ele>566.0</ele>
        <time>2020-07-11T10:33:12Z</time>
      </trkpt>
      <trkpt lat="37.2154770" lon="-3.7206790">
        <ele>566.0</ele>
        <time>2020-07-11T10:33:14Z</time>
      </trkpt>
      <trkpt lat="37.2154460" lon="-3.7203310">
        <ele>566.0</ele>
        <time>2020-07-11T10:33:18Z</time>
      </trkpt>
      <trkpt lat="37.2153800" lon="-3.7199970">
        <ele>566.2</ele>
        <time>2020-07-11T10:33:22Z</time>
      </trkpt>
      <trkpt lat="37.2151850" lon="-3.7193430">
        <ele>566.8</ele>
        <time>2020-07-11T10:33:30Z</time>
      </trkpt>
      <trkpt lat="37.2151520" lon="-3.7192590">
        <ele>566.8</ele>
        <time>2020-07-11T10:33:31Z</time>
      </trkpt>
      <trkpt lat="37.2148780" lon="-3.7187440">
        <ele>567.0</ele>
        <time>2020-07-11T10:33:38Z</time>
      </trkpt>
      <trkpt lat="37.2146480" lon="-3.7184330">
        <ele>567.2</ele>
        <time>2020-07-11T10:33:43Z</time>
      </trkpt>
      <trkpt lat="37.2145560" lon="-3.7183290">
        <ele>567.6</ele>
        <time>2020-07-11T10:33:45Z</time>
      </trkpt>
      <trkpt lat="37.2144200" lon="-3.7181840">
        <ele>568.6</ele>
        <time>2020-07-11T10:33:48Z</time>
      </trkpt>
      <trkpt lat="37.2142790" lon="-3.7180620">
        <ele>569.6</ele>
        <time>2020-07-11T10:33:51Z</time>
      </trkpt>
      <trkpt lat="37.2141890" lon="-3.7179860">
        <ele>570.4</ele>
        <time>2020-07-11T10:33:53Z</time>
      </trkpt>
      <trkpt lat="37.2140970" lon="-3.7179170">
        <ele>571.0</ele>
        <time>2020-07-11T10:33:55Z</time>
      </trkpt>
      <trkpt lat="37.2139540" lon="-3.7178300">
        <ele>571.8</ele>
        <time>2020-07-11T10:33:58Z</time>
      </trkpt>
      <trkpt lat="37.2139110" lon="-3.7178030">
        <ele>572.0</ele>
        <time>2020-07-11T10:33:59Z</time>
      </trkpt>
      <trkpt lat="37.2138200" lon="-3.7177450">
        <ele>572.4</ele>
        <time>2020-07-11T10:34:01Z</time>
      </trkpt>
      <trkpt lat="37.2137230" lon="-3.7176840">
        <ele>573.2</ele>
        <time>2020-07-11T10:34:03Z</time>
      </trkpt>
      <trkpt lat="37.2135870" lon="-3.7176020">
        <ele>574.6</ele>
        <time>2020-07-11T10:34:06Z</time>
      </trkpt>
      <trkpt lat="37.2134380" lon="-3.7175120">
        <ele>575.6</ele>
        <time>2020-07-11T10:34:09Z</time>
      </trkpt>
      <trkpt lat="37.2133380" lon="-3.7174500">
        <ele>576.2</ele>
        <time>2020-07-11T10:34:11Z</time>
      </trkpt>
      <trkpt lat="37.2131840" lon="-3.7173390">
        <ele>576.8</ele>
        <time>2020-07-11T10:34:14Z</time>
      </trkpt>
      <trkpt lat="37.2129640" lon="-3.7171760">
        <ele>577.0</ele>
        <time>2020-07-11T10:34:18Z</time>
      </trkpt>
      <trkpt lat="37.2125780" lon="-3.7167940">
        <ele>576.8</ele>
        <time>2020-07-11T10:34:25Z</time>
      </trkpt>
      <trkpt lat="37.2123020" lon="-3.7163810">
        <ele>576.2</ele>
        <time>2020-07-11T10:34:31Z</time>
      </trkpt>
      <trkpt lat="37.2121270" lon="-3.7160700">
        <ele>575.8</ele>
        <time>2020-07-11T10:34:35Z</time>
      </trkpt>
      <trkpt lat="37.2120510" lon="-3.7158990">
        <ele>575.4</ele>
        <time>2020-07-11T10:34:37Z</time>
      </trkpt>
      <trkpt lat="37.2118920" lon="-3.7155180">
        <ele>574.6</ele>
        <time>2020-07-11T10:34:41Z</time>
      </trkpt>
      <trkpt lat="37.2118030" lon="-3.7152990">
        <ele>574.0</ele>
        <time>2020-07-11T10:34:43Z</time>
      </trkpt>
      <trkpt lat="37.2117130" lon="-3.7150800">
        <ele>573.4</ele>
        <time>2020-07-11T10:34:45Z</time>
      </trkpt>
      <trkpt lat="37.2115640" lon="-3.7147560">
        <ele>572.4</ele>
        <time>2020-07-11T10:34:48Z</time>
      </trkpt>
      <trkpt lat="37.2115040" lon="-3.7146420">
        <ele>571.8</ele>
        <time>2020-07-11T10:34:49Z</time>
      </trkpt>
      <trkpt lat="37.2114470" lon="-3.7145410">
        <ele>571.6</ele>
        <time>2020-07-11T10:34:50Z</time>
      </trkpt>
      <trkpt lat="37.2113340" lon="-3.7143550">
        <ele>570.6</ele>
        <time>2020-07-11T10:34:52Z</time>
      </trkpt>
      <trkpt lat="37.2112110" lon="-3.7141820">
        <ele>569.6</ele>
        <time>2020-07-11T10:34:54Z</time>
      </trkpt>
      <trkpt lat="37.2111480" lon="-3.7140970">
        <ele>569.4</ele>
        <time>2020-07-11T10:34:55Z</time>
      </trkpt>
      <trkpt lat="37.2110870" lon="-3.7140200">
        <ele>569.2</ele>
        <time>2020-07-11T10:34:56Z</time>
      </trkpt>
      <trkpt lat="37.2109710" lon="-3.7138680">
        <ele>569.4</ele>
        <time>2020-07-11T10:34:58Z</time>
      </trkpt>
      <trkpt lat="37.2108650" lon="-3.7137340">
        <ele>569.6</ele>
        <time>2020-07-11T10:35:00Z</time>
      </trkpt>
      <trkpt lat="37.2107580" lon="-3.7136050">
        <ele>569.8</ele>
        <time>2020-07-11T10:35:02Z</time>
      </trkpt>
      <trkpt lat="37.2105750" lon="-3.7133560">
        <ele>569.8</ele>
        <time>2020-07-11T10:35:06Z</time>
      </trkpt>
      <trkpt lat="37.2105490" lon="-3.7133030">
        <ele>569.6</ele>
        <time>2020-07-11T10:35:07Z</time>
      </trkpt>
      <trkpt lat="37.2105310" lon="-3.7132450">
        <ele>569.6</ele>
        <time>2020-07-11T10:35:08Z</time>
      </trkpt>
      <trkpt lat="37.2105450" lon="-3.7131350">
        <ele>569.8</ele>
        <time>2020-07-11T10:35:10Z</time>
      </trkpt>
      <trkpt lat="37.2106310" lon="-3.7129690">
        <ele>569.8</ele>
        <time>2020-07-11T10:35:13Z</time>
      </trkpt>
      <trkpt lat="37.2106700" lon="-3.7129130">
        <ele>569.8</ele>
        <time>2020-07-11T10:35:14Z</time>
      </trkpt>
      <trkpt lat="37.2107560" lon="-3.7127930">
        <ele>569.8</ele>
        <time>2020-07-11T10:35:16Z</time>
      </trkpt>
      <trkpt lat="37.2107560" lon="-3.7127930">
        <ele>569.6</ele>
        <time>2020-07-11T10:35:18Z</time>
      </trkpt>
      <trkpt lat="37.2107560" lon="-3.7127930">
        <ele>569.6</ele>
        <time>2020-07-11T10:35:19Z</time>
      </trkpt>
      <trkpt lat="37.2110530" lon="-3.7123610">
        <ele>570.4</ele>
        <time>2020-07-11T10:35:23Z</time>
      </trkpt>
      <trkpt lat="37.2112110" lon="-3.7119530">
        <ele>570.4</ele>
        <time>2020-07-11T10:35:28Z</time>
      </trkpt>
      <trkpt lat="37.2112440" lon="-3.7118750">
        <ele>570.4</ele>
        <time>2020-07-11T10:35:29Z</time>
      </trkpt>
      <trkpt lat="37.2115230" lon="-3.7112060">
        <ele>570.0</ele>
        <time>2020-07-11T10:35:37Z</time>
      </trkpt>
      <trkpt lat="37.2115940" lon="-3.7110420">
        <ele>569.8</ele>
        <time>2020-07-11T10:35:39Z</time>
      </trkpt>
      <trkpt lat="37.2118720" lon="-3.7103980">
        <ele>570.0</ele>
        <time>2020-07-11T10:35:47Z</time>
      </trkpt>
      <trkpt lat="37.2119470" lon="-3.7102300">
        <ele>570.0</ele>
        <time>2020-07-11T10:35:49Z</time>
      </trkpt>
      <trkpt lat="37.2122240" lon="-3.7095980">
        <ele>570.0</ele>
        <time>2020-07-11T10:35:57Z</time>
      </trkpt>
      <trkpt lat="37.2123300" lon="-3.7093590">
        <ele>569.8</ele>
        <time>2020-07-11T10:36:00Z</time>
      </trkpt>
      <trkpt lat="37.2124830" lon="-3.7089340">
        <ele>570.2</ele>
        <time>2020-07-11T10:36:05Z</time>
      </trkpt>
      <trkpt lat="37.2127670" lon="-3.7082420">
        <ele>570.2</ele>
        <time>2020-07-11T10:36:13Z</time>
      </trkpt>
      <trkpt lat="37.2129030" lon="-3.7079010">
        <ele>570.2</ele>
        <time>2020-07-11T10:36:17Z</time>
      </trkpt>
      <trkpt lat="37.2131120" lon="-3.7073510">
        <ele>570.4</ele>
        <time>2020-07-11T10:36:23Z</time>
      </trkpt>
      <trkpt lat="37.2132780" lon="-3.7068930">
        <ele>570.8</ele>
        <time>2020-07-11T10:36:28Z</time>
      </trkpt>
      <trkpt lat="37.2134920" lon="-3.7062630">
        <ele>570.8</ele>
        <time>2020-07-11T10:36:35Z</time>
      </trkpt>
      <trkpt lat="37.2136110" lon="-3.7059100">
        <ele>571.2</ele>
        <time>2020-07-11T10:36:39Z</time>
      </trkpt>
      <trkpt lat="37.2137550" lon="-3.7054770">
        <ele>571.4</ele>
        <time>2020-07-11T10:36:44Z</time>
      </trkpt>
      <trkpt lat="37.2139290" lon="-3.7049660">
        <ele>572.0</ele>
        <time>2020-07-11T10:36:50Z</time>
      </trkpt>
      <trkpt lat="37.2141480" lon="-3.7043060">
        <ele>572.4</ele>
        <time>2020-07-11T10:36:58Z</time>
      </trkpt>
      <trkpt lat="37.2141740" lon="-3.7042250">
        <ele>572.4</ele>
        <time>2020-07-11T10:36:59Z</time>
      </trkpt>
      <trkpt lat="37.2142550" lon="-3.7039800">
        <ele>572.4</ele>
        <time>2020-07-11T10:37:02Z</time>
      </trkpt>
      <trkpt lat="37.2144750" lon="-3.7033170">
        <ele>573.0</ele>
        <time>2020-07-11T10:37:10Z</time>
      </trkpt>
      <trkpt lat="37.2145020" lon="-3.7032340">
        <ele>573.0</ele>
        <time>2020-07-11T10:37:11Z</time>
      </trkpt>
      <trkpt lat="37.2147200" lon="-3.7025910">
        <ele>573.2</ele>
        <time>2020-07-11T10:37:19Z</time>
      </trkpt>
      <trkpt lat="37.2147470" lon="-3.7025130">
        <ele>573.2</ele>
        <time>2020-07-11T10:37:20Z</time>
      </trkpt>
      <trkpt lat="37.2149630" lon="-3.7018840">
        <ele>573.6</ele>
        <time>2020-07-11T10:37:28Z</time>
      </trkpt>
      <trkpt lat="37.2150150" lon="-3.7017260">
        <ele>573.6</ele>
        <time>2020-07-11T10:37:30Z</time>
      </trkpt>
      <trkpt lat="37.2152360" lon="-3.7010640">
        <ele>573.8</ele>
        <time>2020-07-11T10:37:38Z</time>
      </trkpt>
      <trkpt lat="37.2153390" lon="-3.7007360">
        <ele>574.0</ele>
        <time>2020-07-11T10:37:42Z</time>
      </trkpt>
      <trkpt lat="37.2153980" lon="-3.7004980">
        <ele>574.2</ele>
        <time>2020-07-11T10:37:45Z</time>
      </trkpt>
      <trkpt lat="37.2154090" lon="-3.7003830">
        <ele>574.2</ele>
        <time>2020-07-11T10:37:47Z</time>
      </trkpt>
      <trkpt lat="37.2153510" lon="-3.7002760">
        <ele>574.4</ele>
        <time>2020-07-11T10:37:50Z</time>
      </trkpt>
      <trkpt lat="37.2153380" lon="-3.7002620">
        <ele>574.6</ele>
        <time>2020-07-11T10:37:51Z</time>
      </trkpt>
      <trkpt lat="37.2153380" lon="-3.7002630">
        <ele>574.8</ele>
        <time>2020-07-11T10:37:53Z</time>
      </trkpt>
      <trkpt lat="37.2153360" lon="-3.7002600">
        <ele>574.8</ele>
        <time>2020-07-11T10:37:54Z</time>
      </trkpt>
      <trkpt lat="37.2156340" lon="-3.7004300">
        <ele>574.8</ele>
        <time>2020-07-11T10:41:01Z</time>
      </trkpt>
      <trkpt lat="37.2156400" lon="-3.7004200">
        <ele>574.8</ele>
        <time>2020-07-11T10:41:02Z</time>
      </trkpt>
      <trkpt lat="37.2156490" lon="-3.7004070">
        <ele>574.8</ele>
        <time>2020-07-11T10:41:03Z</time>
      </trkpt>
      <trkpt lat="37.2156670" lon="-3.7003590">
        <ele>574.8</ele>
        <time>2020-07-11T10:41:05Z</time>
      </trkpt>
      <trkpt lat="37.2156760" lon="-3.7002760">
        <ele>574.8</ele>
        <time>2020-07-11T10:41:07Z</time>
      </trkpt>
      <trkpt lat="37.2156950" lon="-3.7000220">
        <ele>574.6</ele>
        <time>2020-07-11T10:41:12Z</time>
      </trkpt>
      <trkpt lat="37.2157190" lon="-3.6999060">
        <ele>574.8</ele>
        <time>2020-07-11T10:41:14Z</time>
      </trkpt>
      <trkpt lat="37.2158330" lon="-3.6994880">
        <ele>575.2</ele>
        <time>2020-07-11T10:41:21Z</time>
      </trkpt>
      <trkpt lat="37.2158760" lon="-3.6993680">
        <ele>575.2</ele>
        <time>2020-07-11T10:41:23Z</time>
      </trkpt>
      <trkpt lat="37.2159360" lon="-3.6991740">
        <ele>575.4</ele>
        <time>2020-07-11T10:41:26Z</time>
      </trkpt>
      <trkpt lat="37.2160000" lon="-3.6989780">
        <ele>575.4</ele>
        <time>2020-07-11T10:41:29Z</time>
      </trkpt>
      <trkpt lat="37.2160590" lon="-3.6987830">
        <ele>575.6</ele>
        <time>2020-07-11T10:41:32Z</time>
      </trkpt>
      <trkpt lat="37.2161780" lon="-3.6984160">
        <ele>576.2</ele>
        <time>2020-07-11T10:41:38Z</time>
      </trkpt>
      <trkpt lat="37.2163940" lon="-3.6979450">
        <ele>576.0</ele>
        <time>2020-07-11T10:41:45Z</time>
      </trkpt>
      <trkpt lat="37.2164480" lon="-3.6978760">
        <ele>575.8</ele>
        <time>2020-07-11T10:41:46Z</time>
      </trkpt>
      <trkpt lat="37.2166600" lon="-3.6976700">
        <ele>575.2</ele>
        <time>2020-07-11T10:41:49Z</time>
      </trkpt>
      <trkpt lat="37.2168170" lon="-3.6975460">
        <ele>574.0</ele>
        <time>2020-07-11T10:41:51Z</time>
      </trkpt>
      <trkpt lat="37.2168490" lon="-3.6975170">
        <ele>573.2</ele>
        <time>2020-07-11T10:41:52Z</time>
      </trkpt>
      <trkpt lat="37.2168820" lon="-3.6974880">
        <ele>572.4</ele>
        <time>2020-07-11T10:41:53Z</time>
      </trkpt>
      <trkpt lat="37.2169140" lon="-3.6974590">
        <ele>571.6</ele>
        <time>2020-07-11T10:41:54Z</time>
      </trkpt>
      <trkpt lat="37.2169460" lon="-3.6974310">
        <ele>571.0</ele>
        <time>2020-07-11T10:41:55Z</time>
      </trkpt>
      <trkpt lat="37.2169780" lon="-3.6974020">
        <ele>570.2</ele>
        <time>2020-07-11T10:41:56Z</time>
      </trkpt>
      <trkpt lat="37.2170110" lon="-3.6973730">
        <ele>570.4</ele>
        <time>2020-07-11T10:41:57Z</time>
      </trkpt>
      <trkpt lat="37.2170430" lon="-3.6973440">
        <ele>570.6</ele>
        <time>2020-07-11T10:41:58Z</time>
      </trkpt>
      <trkpt lat="37.2174950" lon="-3.6969410">
        <ele>571.0</ele>
        <time>2020-07-11T10:42:00Z</time>
      </trkpt>
      <trkpt lat="37.2177010" lon="-3.6968590">
        <ele>572.2</ele>
        <time>2020-07-11T10:42:03Z</time>
      </trkpt>
      <trkpt lat="37.2177810" lon="-3.6967970">
        <ele>573.2</ele>
        <time>2020-07-11T10:42:05Z</time>
      </trkpt>
      <trkpt lat="37.2178900" lon="-3.6967270">
        <ele>574.6</ele>
        <time>2020-07-11T10:42:08Z</time>
      </trkpt>
      <trkpt lat="37.2179610" lon="-3.6966750">
        <ele>575.6</ele>
        <time>2020-07-11T10:42:10Z</time>
      </trkpt>
      <trkpt lat="37.2180000" lon="-3.6966500">
        <ele>576.0</ele>
        <time>2020-07-11T10:42:11Z</time>
      </trkpt>
      <trkpt lat="37.2181320" lon="-3.6965450">
        <ele>576.8</ele>
        <time>2020-07-11T10:42:14Z</time>
      </trkpt>
      <trkpt lat="37.2181650" lon="-3.6965050">
        <ele>577.0</ele>
        <time>2020-07-11T10:42:15Z</time>
      </trkpt>
      <trkpt lat="37.2181910" lon="-3.6964620">
        <ele>577.4</ele>
        <time>2020-07-11T10:42:16Z</time>
      </trkpt>
      <trkpt lat="37.2182350" lon="-3.6963130">
        <ele>577.6</ele>
        <time>2020-07-11T10:42:19Z</time>
      </trkpt>
      <trkpt lat="37.2182410" lon="-3.6962520">
        <ele>577.6</ele>
        <time>2020-07-11T10:42:20Z</time>
      </trkpt>
      <trkpt lat="37.2181860" lon="-3.6960660">
        <ele>577.4</ele>
        <time>2020-07-11T10:42:23Z</time>
      </trkpt>
      <trkpt lat="37.2180420" lon="-3.6957260">
        <ele>577.8</ele>
        <time>2020-07-11T10:42:28Z</time>
      </trkpt>
      <trkpt lat="37.2179500" lon="-3.6955170">
        <ele>578.2</ele>
        <time>2020-07-11T10:42:31Z</time>
      </trkpt>
      <trkpt lat="37.2176570" lon="-3.6948720">
        <ele>578.6</ele>
        <time>2020-07-11T10:42:40Z</time>
      </trkpt>
      <trkpt lat="37.2173490" lon="-3.6942230">
        <ele>578.6</ele>
        <time>2020-07-11T10:42:49Z</time>
      </trkpt>
      <trkpt lat="37.2172050" lon="-3.6939290">
        <ele>578.8</ele>
        <time>2020-07-11T10:42:53Z</time>
      </trkpt>
      <trkpt lat="37.2169040" lon="-3.6933330">
        <ele>579.2</ele>
        <time>2020-07-11T10:43:01Z</time>
      </trkpt>
      <trkpt lat="37.2168020" lon="-3.6931140">
        <ele>579.4</ele>
        <time>2020-07-11T10:43:04Z</time>
      </trkpt>
      <trkpt lat="37.2166150" lon="-3.6926850">
        <ele>579.4</ele>
        <time>2020-07-11T10:43:10Z</time>
      </trkpt>
      <trkpt lat="37.2164510" lon="-3.6923470">
        <ele>579.4</ele>
        <time>2020-07-11T10:43:15Z</time>
      </trkpt>
      <trkpt lat="37.2161580" lon="-3.6917330">
        <ele>580.0</ele>
        <time>2020-07-11T10:43:24Z</time>
      </trkpt>
      <trkpt lat="37.2160550" lon="-3.6915260">
        <ele>580.4</ele>
        <time>2020-07-11T10:43:27Z</time>
      </trkpt>
      <trkpt lat="37.2157440" lon="-3.6908760">
        <ele>581.0</ele>
        <time>2020-07-11T10:43:36Z</time>
      </trkpt>
      <trkpt lat="37.2154770" lon="-3.6902900">
        <ele>581.6</ele>
        <time>2020-07-11T10:43:44Z</time>
      </trkpt>
      <trkpt lat="37.2153460" lon="-3.6900010">
        <ele>582.0</ele>
        <time>2020-07-11T10:43:48Z</time>
      </trkpt>
      <trkpt lat="37.2151600" lon="-3.6896260">
        <ele>582.4</ele>
        <time>2020-07-11T10:43:53Z</time>
      </trkpt>
      <trkpt lat="37.2150860" lon="-3.6894960">
        <ele>582.4</ele>
        <time>2020-07-11T10:43:55Z</time>
      </trkpt>
      <trkpt lat="37.2148580" lon="-3.6890220">
        <ele>582.6</ele>
        <time>2020-07-11T10:44:01Z</time>
      </trkpt>
      <trkpt lat="37.2145110" lon="-3.6884460">
        <ele>583.2</ele>
        <time>2020-07-11T10:44:09Z</time>
      </trkpt>
      <trkpt lat="37.2144630" lon="-3.6883750">
        <ele>583.2</ele>
        <time>2020-07-11T10:44:10Z</time>
      </trkpt>
      <trkpt lat="37.2141810" lon="-3.6879640">
        <ele>583.6</ele>
        <time>2020-07-11T10:44:16Z</time>
      </trkpt>
      <trkpt lat="37.2138040" lon="-3.6874070">
        <ele>584.2</ele>
        <time>2020-07-11T10:44:24Z</time>
      </trkpt>
      <trkpt lat="37.2134610" lon="-3.6868290">
        <ele>584.6</ele>
        <time>2020-07-11T10:44:32Z</time>
      </trkpt>
      <trkpt lat="37.2133840" lon="-3.6866770">
        <ele>584.6</ele>
        <time>2020-07-11T10:44:34Z</time>
      </trkpt>
      <trkpt lat="37.2130660" lon="-3.6860740">
        <ele>585.2</ele>
        <time>2020-07-11T10:44:42Z</time>
      </trkpt>
      <trkpt lat="37.2128620" lon="-3.6856930">
        <ele>585.4</ele>
        <time>2020-07-11T10:44:47Z</time>
      </trkpt>
      <trkpt lat="37.2125470" lon="-3.6850660">
        <ele>585.6</ele>
        <time>2020-07-11T10:44:55Z</time>
      </trkpt>
      <trkpt lat="37.2124730" lon="-3.6849120">
        <ele>585.8</ele>
        <time>2020-07-11T10:44:57Z</time>
      </trkpt>
      <trkpt lat="37.2123950" lon="-3.6847530">
        <ele>585.8</ele>
        <time>2020-07-11T10:44:59Z</time>
      </trkpt>
      <trkpt lat="37.2121010" lon="-3.6841230">
        <ele>586.2</ele>
        <time>2020-07-11T10:45:07Z</time>
      </trkpt>
      <trkpt lat="37.2120280" lon="-3.6839580">
        <ele>586.4</ele>
        <time>2020-07-11T10:45:09Z</time>
      </trkpt>
      <trkpt lat="37.2118130" lon="-3.6834880">
        <ele>586.8</ele>
        <time>2020-07-11T10:45:15Z</time>
      </trkpt>
      <trkpt lat="37.2117080" lon="-3.6832590">
        <ele>586.8</ele>
        <time>2020-07-11T10:45:18Z</time>
      </trkpt>
      <trkpt lat="37.2114250" lon="-3.6826390">
        <ele>587.4</ele>
        <time>2020-07-11T10:45:26Z</time>
      </trkpt>
      <trkpt lat="37.2112810" lon="-3.6823370">
        <ele>587.6</ele>
        <time>2020-07-11T10:45:30Z</time>
      </trkpt>
      <trkpt lat="37.2112440" lon="-3.6822580">
        <ele>587.8</ele>
        <time>2020-07-11T10:45:31Z</time>
      </trkpt>
      <trkpt lat="37.2109740" lon="-3.6816510">
        <ele>588.2</ele>
        <time>2020-07-11T10:45:39Z</time>
      </trkpt>
      <trkpt lat="37.2108390" lon="-3.6813520">
        <ele>588.4</ele>
        <time>2020-07-11T10:45:43Z</time>
      </trkpt>
      <trkpt lat="37.2106640" lon="-3.6808900">
        <ele>588.8</ele>
        <time>2020-07-11T10:45:49Z</time>
      </trkpt>
      <trkpt lat="37.2105300" lon="-3.6804910">
        <ele>589.2</ele>
        <time>2020-07-11T10:45:54Z</time>
      </trkpt>
      <trkpt lat="37.2103200" lon="-3.6798540">
        <ele>589.8</ele>
        <time>2020-07-11T10:46:02Z</time>
      </trkpt>
      <trkpt lat="37.2102900" lon="-3.6797700">
        <ele>589.8</ele>
        <time>2020-07-11T10:46:03Z</time>
      </trkpt>
      <trkpt lat="37.2102390" lon="-3.6796100">
        <ele>590.0</ele>
        <time>2020-07-11T10:46:05Z</time>
      </trkpt>
      <trkpt lat="37.2101340" lon="-3.6792770">
        <ele>590.4</ele>
        <time>2020-07-11T10:46:09Z</time>
      </trkpt>
      <trkpt lat="37.2100240" lon="-3.6789560">
        <ele>590.6</ele>
        <time>2020-07-11T10:46:13Z</time>
      </trkpt>
      <trkpt lat="37.2099360" lon="-3.6787200">
        <ele>591.0</ele>
        <time>2020-07-11T10:46:16Z</time>
      </trkpt>
      <trkpt lat="37.2097600" lon="-3.6782840">
        <ele>591.4</ele>
        <time>2020-07-11T10:46:22Z</time>
      </trkpt>
      <trkpt lat="37.2095690" lon="-3.6778460">
        <ele>592.0</ele>
        <time>2020-07-11T10:46:28Z</time>
      </trkpt>
      <trkpt lat="37.2094200" lon="-3.6775790">
        <ele>592.0</ele>
        <time>2020-07-11T10:46:32Z</time>
      </trkpt>
      <trkpt lat="37.2091760" lon="-3.6771930">
        <ele>593.0</ele>
        <time>2020-07-11T10:46:38Z</time>
      </trkpt>
      <trkpt lat="37.2090300" lon="-3.6770200">
        <ele>593.0</ele>
        <time>2020-07-11T10:46:41Z</time>
      </trkpt>
      <trkpt lat="37.2089900" lon="-3.6769560">
        <ele>593.0</ele>
        <time>2020-07-11T10:46:42Z</time>
      </trkpt>
      <trkpt lat="37.2088240" lon="-3.6766860">
        <ele>593.4</ele>
        <time>2020-07-11T10:46:46Z</time>
      </trkpt>
      <trkpt lat="37.2086520" lon="-3.6764270">
        <ele>594.0</ele>
        <time>2020-07-11T10:46:50Z</time>
      </trkpt>
      <trkpt lat="37.2084980" lon="-3.6761510">
        <ele>594.6</ele>
        <time>2020-07-11T10:46:54Z</time>
      </trkpt>
      <trkpt lat="37.2084690" lon="-3.6760910">
        <ele>594.8</ele>
        <time>2020-07-11T10:46:55Z</time>
      </trkpt>
      <trkpt lat="37.2083580" lon="-3.6758390">
        <ele>595.0</ele>
        <time>2020-07-11T10:46:58Z</time>
      </trkpt>
      <trkpt lat="37.2082300" lon="-3.6755160">
        <ele>595.2</ele>
        <time>2020-07-11T10:47:02Z</time>
      </trkpt>
      <trkpt lat="37.2080260" lon="-3.6750500">
        <ele>595.8</ele>
        <time>2020-07-11T10:47:08Z</time>
      </trkpt>
      <trkpt lat="37.2079710" lon="-3.6748800">
        <ele>596.0</ele>
        <time>2020-07-11T10:47:11Z</time>
      </trkpt>
      <trkpt lat="37.2079430" lon="-3.6748150">
        <ele>596.2</ele>
        <time>2020-07-11T10:47:12Z</time>
      </trkpt>
      <trkpt lat="37.2078040" lon="-3.6744790">
        <ele>596.4</ele>
        <time>2020-07-11T10:47:16Z</time>
      </trkpt>
      <trkpt lat="37.2075690" lon="-3.6739100">
        <ele>597.2</ele>
        <time>2020-07-11T10:47:23Z</time>
      </trkpt>
      <trkpt lat="37.2073800" lon="-3.6734830">
        <ele>597.4</ele>
        <time>2020-07-11T10:47:28Z</time>
      </trkpt>
      <trkpt lat="37.2071190" lon="-3.6728700">
        <ele>597.6</ele>
        <time>2020-07-11T10:47:35Z</time>
      </trkpt>
      <trkpt lat="37.2069710" lon="-3.6725120">
        <ele>597.2</ele>
        <time>2020-07-11T10:47:39Z</time>
      </trkpt>
      <trkpt lat="37.2066980" lon="-3.6718830">
        <ele>596.8</ele>
        <time>2020-07-11T10:47:46Z</time>
      </trkpt>
      <trkpt lat="37.2064680" lon="-3.6713520">
        <ele>597.0</ele>
        <time>2020-07-11T10:47:52Z</time>
      </trkpt>
      <trkpt lat="37.2063850" lon="-3.6711640">
        <ele>596.8</ele>
        <time>2020-07-11T10:47:54Z</time>
      </trkpt>
      <trkpt lat="37.2061250" lon="-3.6705410">
        <ele>597.0</ele>
        <time>2020-07-11T10:48:01Z</time>
      </trkpt>
      <trkpt lat="37.2059960" lon="-3.6702280">
        <ele>596.8</ele>
        <time>2020-07-11T10:48:05Z</time>
      </trkpt>
      <trkpt lat="37.2057280" lon="-3.6695920">
        <ele>597.4</ele>
        <time>2020-07-11T10:48:12Z</time>
      </trkpt>
      <trkpt lat="37.2056250" lon="-3.6693310">
        <ele>597.8</ele>
        <time>2020-07-11T10:48:15Z</time>
      </trkpt>
      <trkpt lat="37.2054820" lon="-3.6688100">
        <ele>598.2</ele>
        <time>2020-07-11T10:48:21Z</time>
      </trkpt>
      <trkpt lat="37.2053870" lon="-3.6681900">
        <ele>598.2</ele>
        <time>2020-07-11T10:48:28Z</time>
      </trkpt>
      <trkpt lat="37.2053790" lon="-3.6676360">
        <ele>598.2</ele>
        <time>2020-07-11T10:48:34Z</time>
      </trkpt>
      <trkpt lat="37.2053770" lon="-3.6674500">
        <ele>598.2</ele>
        <time>2020-07-11T10:48:36Z</time>
      </trkpt>
      <trkpt lat="37.2053690" lon="-3.6667790">
        <ele>598.6</ele>
        <time>2020-07-11T10:48:43Z</time>
      </trkpt>
      <trkpt lat="37.2053340" lon="-3.6662250">
        <ele>599.0</ele>
        <time>2020-07-11T10:48:49Z</time>
      </trkpt>
      <trkpt lat="37.2053190" lon="-3.6661360">
        <ele>599.0</ele>
        <time>2020-07-11T10:48:50Z</time>
      </trkpt>
      <trkpt lat="37.2053140" lon="-3.6660470">
        <ele>599.2</ele>
        <time>2020-07-11T10:48:51Z</time>
      </trkpt>
      <trkpt lat="37.2053200" lon="-3.6659660">
        <ele>599.2</ele>
        <time>2020-07-11T10:48:52Z</time>
      </trkpt>
      <trkpt lat="37.2053560" lon="-3.6657910">
        <ele>599.4</ele>
        <time>2020-07-11T10:48:54Z</time>
      </trkpt>
      <trkpt lat="37.2053740" lon="-3.6656990">
        <ele>599.6</ele>
        <time>2020-07-11T10:48:55Z</time>
      </trkpt>
      <trkpt lat="37.2053980" lon="-3.6653370">
        <ele>599.8</ele>
        <time>2020-07-11T10:48:59Z</time>
      </trkpt>
      <trkpt lat="37.2053940" lon="-3.6647950">
        <ele>600.2</ele>
        <time>2020-07-11T10:49:05Z</time>
      </trkpt>
      <trkpt lat="37.2054050" lon="-3.6644140">
        <ele>600.8</ele>
        <time>2020-07-11T10:49:09Z</time>
      </trkpt>
      <trkpt lat="37.2054030" lon="-3.6638630">
        <ele>601.4</ele>
        <time>2020-07-11T10:49:15Z</time>
      </trkpt>
      <trkpt lat="37.2053920" lon="-3.6635840">
        <ele>601.6</ele>
        <time>2020-07-11T10:49:18Z</time>
      </trkpt>
      <trkpt lat="37.2053500" lon="-3.6629960">
        <ele>602.0</ele>
        <time>2020-07-11T10:49:24Z</time>
      </trkpt>
      <trkpt lat="37.2053560" lon="-3.6626000">
        <ele>602.2</ele>
        <time>2020-07-11T10:49:28Z</time>
      </trkpt>
      <trkpt lat="37.2053500" lon="-3.6622230">
        <ele>602.4</ele>
        <time>2020-07-11T10:49:32Z</time>
      </trkpt>
      <trkpt lat="37.2053330" lon="-3.6620180">
        <ele>602.4</ele>
        <time>2020-07-11T10:49:34Z</time>
      </trkpt>
      <trkpt lat="37.2052580" lon="-3.6613150">
        <ele>602.8</ele>
        <time>2020-07-11T10:49:41Z</time>
      </trkpt>
      <trkpt lat="37.2052330" lon="-3.6611000">
        <ele>602.8</ele>
        <time>2020-07-11T10:49:43Z</time>
      </trkpt>
      <trkpt lat="37.2051450" lon="-3.6603880">
        <ele>603.2</ele>
        <time>2020-07-11T10:49:50Z</time>
      </trkpt>
      <trkpt lat="37.2051010" lon="-3.6600890">
        <ele>603.2</ele>
        <time>2020-07-11T10:49:53Z</time>
      </trkpt>
      <trkpt lat="37.2050720" lon="-3.6598980">
        <ele>603.4</ele>
        <time>2020-07-11T10:49:55Z</time>
      </trkpt>
      <trkpt lat="37.2049450" lon="-3.6591740">
        <ele>603.8</ele>
        <time>2020-07-11T10:50:02Z</time>
      </trkpt>
      <trkpt lat="37.2049270" lon="-3.6590670">
        <ele>604.0</ele>
        <time>2020-07-11T10:50:03Z</time>
      </trkpt>
      <trkpt lat="37.2047900" lon="-3.6583590">
        <ele>604.4</ele>
        <time>2020-07-11T10:50:10Z</time>
      </trkpt>
      <trkpt lat="37.2047250" lon="-3.6580630">
        <ele>604.4</ele>
        <time>2020-07-11T10:50:13Z</time>
      </trkpt>
      <trkpt lat="37.2046600" lon="-3.6577600">
        <ele>604.8</ele>
        <time>2020-07-11T10:50:16Z</time>
      </trkpt>
      <trkpt lat="37.2045110" lon="-3.6570900">
        <ele>605.4</ele>
        <time>2020-07-11T10:50:23Z</time>
      </trkpt>
      <trkpt lat="37.2044900" lon="-3.6569950">
        <ele>605.6</ele>
        <time>2020-07-11T10:50:24Z</time>
      </trkpt>
      <trkpt lat="37.2044460" lon="-3.6568140">
        <ele>605.8</ele>
        <time>2020-07-11T10:50:26Z</time>
      </trkpt>
      <trkpt lat="37.2043290" lon="-3.6563820">
        <ele>606.4</ele>
        <time>2020-07-11T10:50:31Z</time>
      </trkpt>
      <trkpt lat="37.2042780" lon="-3.6562140">
        <ele>606.6</ele>
        <time>2020-07-11T10:50:33Z</time>
      </trkpt>
      <trkpt lat="37.2042210" lon="-3.6560540">
        <ele>607.0</ele>
        <time>2020-07-11T10:50:35Z</time>
      </trkpt>
      <trkpt lat="37.2040200" lon="-3.6555940">
        <ele>607.0</ele>
        <time>2020-07-11T10:50:41Z</time>
      </trkpt>
      <trkpt lat="37.2039810" lon="-3.6555390">
        <ele>607.2</ele>
        <time>2020-07-11T10:50:42Z</time>
      </trkpt>
      <trkpt lat="37.2039240" lon="-3.6554770">
        <ele>607.2</ele>
        <time>2020-07-11T10:50:43Z</time>
      </trkpt>
      <trkpt lat="37.2037390" lon="-3.6552530">
        <ele>607.4</ele>
        <time>2020-07-11T10:50:47Z</time>
      </trkpt>
      <trkpt lat="37.2036710" lon="-3.6550900">
        <ele>607.6</ele>
        <time>2020-07-11T10:50:49Z</time>
      </trkpt>
      <trkpt lat="37.2036370" lon="-3.6550120">
        <ele>607.8</ele>
        <time>2020-07-11T10:50:50Z</time>
      </trkpt>
      <trkpt lat="37.2035560" lon="-3.6548660">
        <ele>607.8</ele>
        <time>2020-07-11T10:50:52Z</time>
      </trkpt>
      <trkpt lat="37.2033580" lon="-3.6545920">
        <ele>608.0</ele>
        <time>2020-07-11T10:50:56Z</time>
      </trkpt>
      <trkpt lat="37.2032530" lon="-3.6544590">
        <ele>608.2</ele>
        <time>2020-07-11T10:50:58Z</time>
      </trkpt>
      <trkpt lat="37.2030500" lon="-3.6542030">
        <ele>608.4</ele>
        <time>2020-07-11T10:51:02Z</time>
      </trkpt>
      <trkpt lat="37.2028510" lon="-3.6539450">
        <ele>608.8</ele>
        <time>2020-07-11T10:51:06Z</time>
      </trkpt>
      <trkpt lat="37.2028060" lon="-3.6538890">
        <ele>608.8</ele>
        <time>2020-07-11T10:51:07Z</time>
      </trkpt>
      <trkpt lat="37.2026050" lon="-3.6536390">
        <ele>609.0</ele>
        <time>2020-07-11T10:51:11Z</time>
      </trkpt>
      <trkpt lat="37.2022650" lon="-3.6532220">
        <ele>609.4</ele>
        <time>2020-07-11T10:51:18Z</time>
      </trkpt>
      <trkpt lat="37.2018770" lon="-3.6527420">
        <ele>609.8</ele>
        <time>2020-07-11T10:51:26Z</time>
      </trkpt>
      <trkpt lat="37.2017810" lon="-3.6526150">
        <ele>609.8</ele>
        <time>2020-07-11T10:51:28Z</time>
      </trkpt>
      <trkpt lat="37.2017330" lon="-3.6525560">
        <ele>610.0</ele>
        <time>2020-07-11T10:51:29Z</time>
      </trkpt>
      <trkpt lat="37.2015290" lon="-3.6523120">
        <ele>610.0</ele>
        <time>2020-07-11T10:51:33Z</time>
      </trkpt>
      <trkpt lat="37.2013370" lon="-3.6520720">
        <ele>610.2</ele>
        <time>2020-07-11T10:51:37Z</time>
      </trkpt>
      <trkpt lat="37.2009190" lon="-3.6515730">
        <ele>610.8</ele>
        <time>2020-07-11T10:51:45Z</time>
      </trkpt>
      <trkpt lat="37.2007700" lon="-3.6513810">
        <ele>611.0</ele>
        <time>2020-07-11T10:51:48Z</time>
      </trkpt>
      <trkpt lat="37.2005210" lon="-3.6510620">
        <ele>611.4</ele>
        <time>2020-07-11T10:51:53Z</time>
      </trkpt>
      <trkpt lat="37.2002840" lon="-3.6507400">
        <ele>611.8</ele>
        <time>2020-07-11T10:51:58Z</time>
      </trkpt>
      <trkpt lat="37.2001090" lon="-3.6504860">
        <ele>612.0</ele>
        <time>2020-07-11T10:52:02Z</time>
      </trkpt>
      <trkpt lat="37.1999320" lon="-3.6502200">
        <ele>612.0</ele>
        <time>2020-07-11T10:52:06Z</time>
      </trkpt>
      <trkpt lat="37.1998380" lon="-3.6500750">
        <ele>612.2</ele>
        <time>2020-07-11T10:52:08Z</time>
      </trkpt>
      <trkpt lat="37.1995680" lon="-3.6496800">
        <ele>612.6</ele>
        <time>2020-07-11T10:52:14Z</time>
      </trkpt>
      <trkpt lat="37.1995210" lon="-3.6496290">
        <ele>612.8</ele>
        <time>2020-07-11T10:52:15Z</time>
      </trkpt>
      <trkpt lat="37.1994230" lon="-3.6495370">
        <ele>613.0</ele>
        <time>2020-07-11T10:52:17Z</time>
      </trkpt>
      <trkpt lat="37.1993670" lon="-3.6494930">
        <ele>613.0</ele>
        <time>2020-07-11T10:52:18Z</time>
      </trkpt>
      <trkpt lat="37.1992170" lon="-3.6493990">
        <ele>613.4</ele>
        <time>2020-07-11T10:52:21Z</time>
      </trkpt>
      <trkpt lat="37.1991830" lon="-3.6493860">
        <ele>613.6</ele>
        <time>2020-07-11T10:52:22Z</time>
      </trkpt>
      <trkpt lat="37.1990960" lon="-3.6493730">
        <ele>613.8</ele>
        <time>2020-07-11T10:52:24Z</time>
      </trkpt>
      <trkpt lat="37.1989960" lon="-3.6493800">
        <ele>614.0</ele>
        <time>2020-07-11T10:52:26Z</time>
      </trkpt>
      <trkpt lat="37.1987800" lon="-3.6493080">
        <ele>614.0</ele>
        <time>2020-07-11T10:52:30Z</time>
      </trkpt>
      <trkpt lat="37.1986680" lon="-3.6491470">
        <ele>613.8</ele>
        <time>2020-07-11T10:52:33Z</time>
      </trkpt>
      <trkpt lat="37.1984350" lon="-3.6489260">
        <ele>614.2</ele>
        <time>2020-07-11T10:52:38Z</time>
      </trkpt>
      <trkpt lat="37.1980280" lon="-3.6487350">
        <ele>614.6</ele>
        <time>2020-07-11T10:52:45Z</time>
      </trkpt>
      <trkpt lat="37.1975890" lon="-3.6486020">
        <ele>615.0</ele>
        <time>2020-07-11T10:52:52Z</time>
      </trkpt>
      <trkpt lat="37.1974550" lon="-3.6485620">
        <ele>615.2</ele>
        <time>2020-07-11T10:52:54Z</time>
      </trkpt>
      <trkpt lat="37.1973900" lon="-3.6485430">
        <ele>615.2</ele>
        <time>2020-07-11T10:52:55Z</time>
      </trkpt>
      <trkpt lat="37.1971200" lon="-3.6484150">
        <ele>615.0</ele>
        <time>2020-07-11T10:53:00Z</time>
      </trkpt>
      <trkpt lat="37.1970730" lon="-3.6483990">
        <ele>615.0</ele>
        <time>2020-07-11T10:53:01Z</time>
      </trkpt>
      <trkpt lat="37.1970000" lon="-3.6483600">
        <ele>615.0</ele>
        <time>2020-07-11T10:53:03Z</time>
      </trkpt>
      <trkpt lat="37.1969080" lon="-3.6482880">
        <ele>615.0</ele>
        <time>2020-07-11T10:53:05Z</time>
      </trkpt>
      <trkpt lat="37.1968830" lon="-3.6481360">
        <ele>615.0</ele>
        <time>2020-07-11T10:53:07Z</time>
      </trkpt>
      <trkpt lat="37.1969000" lon="-3.6477920">
        <ele>615.4</ele>
        <time>2020-07-11T10:53:11Z</time>
      </trkpt>
      <trkpt lat="37.1969990" lon="-3.6475200">
        <ele>616.0</ele>
        <time>2020-07-11T10:53:15Z</time>
      </trkpt>
      <trkpt lat="37.1970390" lon="-3.6474560">
        <ele>616.2</ele>
        <time>2020-07-11T10:53:16Z</time>
      </trkpt>
      <trkpt lat="37.1970780" lon="-3.6473980">
        <ele>616.4</ele>
        <time>2020-07-11T10:53:17Z</time>
      </trkpt>
      <trkpt lat="37.1971700" lon="-3.6472740">
        <ele>617.2</ele>
        <time>2020-07-11T10:53:19Z</time>
      </trkpt>
      <trkpt lat="37.1972750" lon="-3.6471650">
        <ele>618.0</ele>
        <time>2020-07-11T10:53:21Z</time>
      </trkpt>
      <trkpt lat="37.1973230" lon="-3.6471180">
        <ele>618.4</ele>
        <time>2020-07-11T10:53:22Z</time>
      </trkpt>
      <trkpt lat="37.1974870" lon="-3.6469470">
        <ele>619.0</ele>
        <time>2020-07-11T10:53:25Z</time>
      </trkpt>
      <trkpt lat="37.1976910" lon="-3.6466930">
        <ele>619.4</ele>
        <time>2020-07-11T10:53:29Z</time>
      </trkpt>
      <trkpt lat="37.1978460" lon="-3.6463750">
        <ele>619.6</ele>
        <time>2020-07-11T10:53:33Z</time>
      </trkpt>
      <trkpt lat="37.1978730" lon="-3.6462980">
        <ele>619.6</ele>
        <time>2020-07-11T10:53:34Z</time>
      </trkpt>
      <trkpt lat="37.1979740" lon="-3.6459640">
        <ele>620.2</ele>
        <time>2020-07-11T10:53:38Z</time>
      </trkpt>
      <trkpt lat="37.1980150" lon="-3.6457920">
        <ele>620.4</ele>
        <time>2020-07-11T10:53:40Z</time>
      </trkpt>
      <trkpt lat="37.1980470" lon="-3.6456290">
        <ele>620.8</ele>
        <time>2020-07-11T10:53:42Z</time>
      </trkpt>
      <trkpt lat="37.1981400" lon="-3.6450180">
        <ele>621.6</ele>
        <time>2020-07-11T10:53:49Z</time>
      </trkpt>
      <trkpt lat="37.1981520" lon="-3.6448440">
        <ele>621.6</ele>
        <time>2020-07-11T10:53:51Z</time>
      </trkpt>
      <trkpt lat="37.1981890" lon="-3.6441590">
        <ele>622.6</ele>
        <time>2020-07-11T10:53:59Z</time>
      </trkpt>
      <trkpt lat="37.1981910" lon="-3.6440720">
        <ele>622.6</ele>
        <time>2020-07-11T10:54:00Z</time>
      </trkpt>
      <trkpt lat="37.1981680" lon="-3.6433850">
        <ele>623.6</ele>
        <time>2020-07-11T10:54:08Z</time>
      </trkpt>
      <trkpt lat="37.1981620" lon="-3.6433000">
        <ele>623.8</ele>
        <time>2020-07-11T10:54:09Z</time>
      </trkpt>
      <trkpt lat="37.1981020" lon="-3.6426280">
        <ele>624.4</ele>
        <time>2020-07-11T10:54:17Z</time>
      </trkpt>
      <trkpt lat="37.1980950" lon="-3.6425260">
        <ele>624.4</ele>
        <time>2020-07-11T10:54:18Z</time>
      </trkpt>
      <trkpt lat="37.1980680" lon="-3.6422630">
        <ele>624.8</ele>
        <time>2020-07-11T10:54:21Z</time>
      </trkpt>
      <trkpt lat="37.1980150" lon="-3.6418170">
        <ele>625.4</ele>
        <time>2020-07-11T10:54:26Z</time>
      </trkpt>
      <trkpt lat="37.1979840" lon="-3.6415550">
        <ele>625.8</ele>
        <time>2020-07-11T10:54:29Z</time>
      </trkpt>
      <trkpt lat="37.1978950" lon="-3.6408320">
        <ele>627.0</ele>
        <time>2020-07-11T10:54:37Z</time>
      </trkpt>
      <trkpt lat="37.1978450" lon="-3.6401430">
        <ele>627.8</ele>
        <time>2020-07-11T10:54:44Z</time>
      </trkpt>
      <trkpt lat="37.1978380" lon="-3.6399420">
        <ele>628.0</ele>
        <time>2020-07-11T10:54:46Z</time>
      </trkpt>
      <trkpt lat="37.1978380" lon="-3.6398540">
        <ele>628.0</ele>
        <time>2020-07-11T10:54:47Z</time>
      </trkpt>
      <trkpt lat="37.1978640" lon="-3.6391410">
        <ele>628.6</ele>
        <time>2020-07-11T10:54:54Z</time>
      </trkpt>
      <trkpt lat="37.1978730" lon="-3.6389470">
        <ele>629.0</ele>
        <time>2020-07-11T10:54:56Z</time>
      </trkpt>
      <trkpt lat="37.1979060" lon="-3.6382670">
        <ele>629.4</ele>
        <time>2020-07-11T10:55:03Z</time>
      </trkpt>
      <trkpt lat="37.1979100" lon="-3.6381730">
        <ele>629.6</ele>
        <time>2020-07-11T10:55:04Z</time>
      </trkpt>
      <trkpt lat="37.1979120" lon="-3.6379900">
        <ele>630.0</ele>
        <time>2020-07-11T10:55:06Z</time>
      </trkpt>
      <trkpt lat="37.1979140" lon="-3.6374590">
        <ele>630.8</ele>
        <time>2020-07-11T10:55:12Z</time>
      </trkpt>
      <trkpt lat="37.1978790" lon="-3.6370090">
        <ele>631.2</ele>
        <time>2020-07-11T10:55:17Z</time>
      </trkpt>
      <trkpt lat="37.1978340" lon="-3.6367280">
        <ele>631.2</ele>
        <time>2020-07-11T10:55:20Z</time>
      </trkpt>
      <trkpt lat="37.1978010" lon="-3.6365610">
        <ele>631.4</ele>
        <time>2020-07-11T10:55:22Z</time>
      </trkpt>
      <trkpt lat="37.1977540" lon="-3.6363750">
        <ele>631.6</ele>
        <time>2020-07-11T10:55:24Z</time>
      </trkpt>
      <trkpt lat="37.1975440" lon="-3.6357490">
        <ele>632.0</ele>
        <time>2020-07-11T10:55:31Z</time>
      </trkpt>
      <trkpt lat="37.1975170" lon="-3.6356640">
        <ele>632.0</ele>
        <time>2020-07-11T10:55:32Z</time>
      </trkpt>
      <trkpt lat="37.1973870" lon="-3.6352940">
        <ele>632.2</ele>
        <time>2020-07-11T10:55:36Z</time>
      </trkpt>
      <trkpt lat="37.1972640" lon="-3.6349250">
        <ele>632.4</ele>
        <time>2020-07-11T10:55:40Z</time>
      </trkpt>
      <trkpt lat="37.1971360" lon="-3.6344490">
        <ele>632.8</ele>
        <time>2020-07-11T10:55:45Z</time>
      </trkpt>
      <trkpt lat="37.1970260" lon="-3.6340460">
        <ele>633.2</ele>
        <time>2020-07-11T10:55:49Z</time>
      </trkpt>
      <trkpt lat="37.1969960" lon="-3.6339470">
        <ele>633.2</ele>
        <time>2020-07-11T10:55:50Z</time>
      </trkpt>
      <trkpt lat="37.1969650" lon="-3.6338480">
        <ele>633.4</ele>
        <time>2020-07-11T10:55:51Z</time>
      </trkpt>
      <trkpt lat="37.1967940" lon="-3.6332910">
        <ele>634.2</ele>
        <time>2020-07-11T10:55:57Z</time>
      </trkpt>
      <trkpt lat="37.1966270" lon="-3.6327620">
        <ele>634.6</ele>
        <time>2020-07-11T10:56:02Z</time>
      </trkpt>
      <trkpt lat="37.1964390" lon="-3.6321780">
        <ele>632.8</ele>
        <time>2020-07-11T10:56:07Z</time>
      </trkpt>
      <trkpt lat="37.1963990" lon="-3.6320620">
        <ele>632.2</ele>
        <time>2020-07-11T10:56:08Z</time>
      </trkpt>
      <trkpt lat="37.1963580" lon="-3.6319450">
        <ele>631.6</ele>
        <time>2020-07-11T10:56:09Z</time>
      </trkpt>
      <trkpt lat="37.1962230" lon="-3.6315030">
        <ele>631.0</ele>
        <time>2020-07-11T10:56:13Z</time>
      </trkpt>
      <trkpt lat="37.1961050" lon="-3.6311230">
        <ele>632.0</ele>
        <time>2020-07-11T10:56:17Z</time>
      </trkpt>
      <trkpt lat="37.1960510" lon="-3.6309330">
        <ele>632.8</ele>
        <time>2020-07-11T10:56:19Z</time>
      </trkpt>
      <trkpt lat="37.1959760" lon="-3.6306760">
        <ele>634.2</ele>
        <time>2020-07-11T10:56:22Z</time>
      </trkpt>
      <trkpt lat="37.1959280" lon="-3.6305090">
        <ele>635.0</ele>
        <time>2020-07-11T10:56:24Z</time>
      </trkpt>
      <trkpt lat="37.1959080" lon="-3.6304340">
        <ele>635.4</ele>
        <time>2020-07-11T10:56:25Z</time>
      </trkpt>
      <trkpt lat="37.1958380" lon="-3.6302170">
        <ele>636.8</ele>
        <time>2020-07-11T10:56:28Z</time>
      </trkpt>
      <trkpt lat="37.1957710" lon="-3.6300160">
        <ele>638.0</ele>
        <time>2020-07-11T10:56:31Z</time>
      </trkpt>
      <trkpt lat="37.1956830" lon="-3.6297680">
        <ele>639.2</ele>
        <time>2020-07-11T10:56:35Z</time>
      </trkpt>
      <trkpt lat="37.1956110" lon="-3.6295840">
        <ele>640.0</ele>
        <time>2020-07-11T10:56:38Z</time>
      </trkpt>
      <trkpt lat="37.1955890" lon="-3.6295230">
        <ele>640.4</ele>
        <time>2020-07-11T10:56:39Z</time>
      </trkpt>
      <trkpt lat="37.1955660" lon="-3.6294610">
        <ele>640.8</ele>
        <time>2020-07-11T10:56:40Z</time>
      </trkpt>
      <trkpt lat="37.1955180" lon="-3.6293420">
        <ele>641.6</ele>
        <time>2020-07-11T10:56:42Z</time>
      </trkpt>
      <trkpt lat="37.1953880" lon="-3.6291010">
        <ele>642.4</ele>
        <time>2020-07-11T10:56:46Z</time>
      </trkpt>
      <trkpt lat="37.1953650" lon="-3.6290490">
        <ele>642.6</ele>
        <time>2020-07-11T10:56:47Z</time>
      </trkpt>
      <trkpt lat="37.1953140" lon="-3.6289280">
        <ele>642.8</ele>
        <time>2020-07-11T10:56:49Z</time>
      </trkpt>
      <trkpt lat="37.1952710" lon="-3.6288280">
        <ele>642.8</ele>
        <time>2020-07-11T10:56:51Z</time>
      </trkpt>
      <trkpt lat="37.1951140" lon="-3.6284430">
        <ele>643.8</ele>
        <time>2020-07-11T10:56:59Z</time>
      </trkpt>
      <trkpt lat="37.1950920" lon="-3.6283950">
        <ele>643.8</ele>
        <time>2020-07-11T10:57:00Z</time>
      </trkpt>
      <trkpt lat="37.1949260" lon="-3.6280340">
        <ele>644.8</ele>
        <time>2020-07-11T10:57:08Z</time>
      </trkpt>
      <trkpt lat="37.1948820" lon="-3.6279480">
        <ele>645.0</ele>
        <time>2020-07-11T10:57:10Z</time>
      </trkpt>
      <trkpt lat="37.1948180" lon="-3.6278220">
        <ele>645.2</ele>
        <time>2020-07-11T10:57:13Z</time>
      </trkpt>
      <trkpt lat="37.1947620" lon="-3.6277030">
        <ele>645.4</ele>
        <time>2020-07-11T10:57:16Z</time>
      </trkpt>
      <trkpt lat="37.1947240" lon="-3.6276300">
        <ele>645.6</ele>
        <time>2020-07-11T10:57:18Z</time>
      </trkpt>
      <trkpt lat="37.1946850" lon="-3.6275650">
        <ele>645.6</ele>
        <time>2020-07-11T10:57:20Z</time>
      </trkpt>
      <trkpt lat="37.1946230" lon="-3.6274840">
        <ele>646.0</ele>
        <time>2020-07-11T10:57:24Z</time>
      </trkpt>
      <trkpt lat="37.1946120" lon="-3.6274800">
        <ele>646.0</ele>
        <time>2020-07-11T10:57:25Z</time>
      </trkpt>
      <trkpt lat="37.1945920" lon="-3.6274730">
        <ele>646.0</ele>
        <time>2020-07-11T10:57:29Z</time>
      </trkpt>
      <trkpt lat="37.1945960" lon="-3.6274740">
        <ele>646.0</ele>
        <time>2020-07-11T10:57:30Z</time>
      </trkpt>
      <trkpt lat="37.1945750" lon="-3.6274590">
        <ele>646.0</ele>
        <time>2020-07-11T10:57:34Z</time>
      </trkpt>
      <trkpt lat="37.1945580" lon="-3.6274110">
        <ele>646.0</ele>
        <time>2020-07-11T10:57:36Z</time>
      </trkpt>
      <trkpt lat="37.1945480" lon="-3.6273820">
        <ele>646.0</ele>
        <time>2020-07-11T10:57:37Z</time>
      </trkpt>
      <trkpt lat="37.1945380" lon="-3.6273490">
        <ele>646.2</ele>
        <time>2020-07-11T10:57:38Z</time>
      </trkpt>
      <trkpt lat="37.1945230" lon="-3.6273140">
        <ele>646.2</ele>
        <time>2020-07-11T10:57:39Z</time>
      </trkpt>
      <trkpt lat="37.1944770" lon="-3.6272050">
        <ele>646.4</ele>
        <time>2020-07-11T10:57:42Z</time>
      </trkpt>
      <trkpt lat="37.1944080" lon="-3.6269570">
        <ele>647.0</ele>
        <time>2020-07-11T10:57:48Z</time>
      </trkpt>
      <trkpt lat="37.1943940" lon="-3.6269120">
        <ele>647.0</ele>
        <time>2020-07-11T10:57:49Z</time>
      </trkpt>
      <trkpt lat="37.1943350" lon="-3.6267850">
        <ele>647.4</ele>
        <time>2020-07-11T10:57:52Z</time>
      </trkpt>
      <trkpt lat="37.1943130" lon="-3.6267350">
        <ele>647.4</ele>
        <time>2020-07-11T10:57:53Z</time>
      </trkpt>
      <trkpt lat="37.1942250" lon="-3.6265530">
        <ele>647.6</ele>
        <time>2020-07-11T10:57:57Z</time>
      </trkpt>
      <trkpt lat="37.1941310" lon="-3.6263440">
        <ele>647.8</ele>
        <time>2020-07-11T10:58:01Z</time>
      </trkpt>
      <trkpt lat="37.1940780" lon="-3.6262200">
        <ele>648.2</ele>
        <time>2020-07-11T10:58:03Z</time>
      </trkpt>
      <trkpt lat="37.1939370" lon="-3.6259150">
        <ele>648.4</ele>
        <time>2020-07-11T10:58:08Z</time>
      </trkpt>
      <trkpt lat="37.1939090" lon="-3.6258570">
        <ele>648.6</ele>
        <time>2020-07-11T10:58:09Z</time>
      </trkpt>
      <trkpt lat="37.1937740" lon="-3.6255660">
        <ele>649.2</ele>
        <time>2020-07-11T10:58:14Z</time>
      </trkpt>
      <trkpt lat="37.1936970" lon="-3.6253960">
        <ele>649.6</ele>
        <time>2020-07-11T10:58:17Z</time>
      </trkpt>
      <trkpt lat="37.1935060" lon="-3.6249980">
        <ele>650.2</ele>
        <time>2020-07-11T10:58:24Z</time>
      </trkpt>
      <trkpt lat="37.1934800" lon="-3.6249420">
        <ele>650.4</ele>
        <time>2020-07-11T10:58:25Z</time>
      </trkpt>
      <trkpt lat="37.1934540" lon="-3.6248870">
        <ele>650.6</ele>
        <time>2020-07-11T10:58:26Z</time>
      </trkpt>
      <trkpt lat="37.1933260" lon="-3.6246160">
        <ele>650.6</ele>
        <time>2020-07-11T10:58:31Z</time>
      </trkpt>
      <trkpt lat="37.1932170" lon="-3.6243570">
        <ele>651.2</ele>
        <time>2020-07-11T10:58:36Z</time>
      </trkpt>
      <trkpt lat="37.1931390" lon="-3.6241630">
        <ele>651.2</ele>
        <time>2020-07-11T10:58:41Z</time>
      </trkpt>
      <trkpt lat="37.1931250" lon="-3.6241290">
        <ele>651.4</ele>
        <time>2020-07-11T10:58:42Z</time>
      </trkpt>
      <trkpt lat="37.1930070" lon="-3.6238870">
        <ele>651.8</ele>
        <time>2020-07-11T10:58:48Z</time>
      </trkpt>
      <trkpt lat="37.1928740" lon="-3.6235590">
        <ele>652.0</ele>
        <time>2020-07-11T10:58:54Z</time>
      </trkpt>
      <trkpt lat="37.1927770" lon="-3.6233050">
        <ele>652.4</ele>
        <time>2020-07-11T10:58:58Z</time>
      </trkpt>
      <trkpt lat="37.1927050" lon="-3.6231110">
        <ele>652.6</ele>
        <time>2020-07-11T10:59:01Z</time>
      </trkpt>
      <trkpt lat="37.1925870" lon="-3.6227830">
        <ele>652.8</ele>
        <time>2020-07-11T10:59:06Z</time>
      </trkpt>
      <trkpt lat="37.1924950" lon="-3.6225210">
        <ele>653.2</ele>
        <time>2020-07-11T10:59:10Z</time>
      </trkpt>
      <trkpt lat="37.1924730" lon="-3.6224590">
        <ele>653.4</ele>
        <time>2020-07-11T10:59:11Z</time>
      </trkpt>
      <trkpt lat="37.1924080" lon="-3.6222670">
        <ele>653.8</ele>
        <time>2020-07-11T10:59:14Z</time>
      </trkpt>
      <trkpt lat="37.1922680" lon="-3.6218280">
        <ele>654.4</ele>
        <time>2020-07-11T10:59:21Z</time>
      </trkpt>
      <trkpt lat="37.1922140" lon="-3.6216360">
        <ele>654.4</ele>
        <time>2020-07-11T10:59:24Z</time>
      </trkpt>
      <trkpt lat="37.1921000" lon="-3.6212400">
        <ele>655.0</ele>
        <time>2020-07-11T10:59:31Z</time>
      </trkpt>
      <trkpt lat="37.1919920" lon="-3.6208840">
        <ele>655.4</ele>
        <time>2020-07-11T10:59:37Z</time>
      </trkpt>
      <trkpt lat="37.1919720" lon="-3.6208190">
        <ele>655.6</ele>
        <time>2020-07-11T10:59:38Z</time>
      </trkpt>
      <trkpt lat="37.1918520" lon="-3.6204160">
        <ele>656.4</ele>
        <time>2020-07-11T10:59:45Z</time>
      </trkpt>
      <trkpt lat="37.1917580" lon="-3.6201400">
        <ele>656.6</ele>
        <time>2020-07-11T10:59:50Z</time>
      </trkpt>
      <trkpt lat="37.1916830" lon="-3.6199700">
        <ele>656.8</ele>
        <time>2020-07-11T10:59:53Z</time>
      </trkpt>
      <trkpt lat="37.1915700" lon="-3.6197530">
        <ele>656.8</ele>
        <time>2020-07-11T10:59:57Z</time>
      </trkpt>
      <trkpt lat="37.1915530" lon="-3.6196890">
        <ele>656.8</ele>
        <time>2020-07-11T10:59:58Z</time>
      </trkpt>
      <trkpt lat="37.1915450" lon="-3.6194490">
        <ele>657.4</ele>
        <time>2020-07-11T11:00:02Z</time>
      </trkpt>
      <trkpt lat="37.1914870" lon="-3.6192030">
        <ele>657.4</ele>
        <time>2020-07-11T11:00:06Z</time>
      </trkpt>
      <trkpt lat="37.1914720" lon="-3.6191470">
        <ele>657.4</ele>
        <time>2020-07-11T11:00:07Z</time>
      </trkpt>
      <trkpt lat="37.1914270" lon="-3.6190120">
        <ele>657.6</ele>
        <time>2020-07-11T11:00:09Z</time>
      </trkpt>
      <trkpt lat="37.1913260" lon="-3.6187470">
        <ele>657.6</ele>
        <time>2020-07-11T11:00:13Z</time>
      </trkpt>
      <trkpt lat="37.1913070" lon="-3.6186810">
        <ele>657.6</ele>
        <time>2020-07-11T11:00:14Z</time>
      </trkpt>
      <trkpt lat="37.1912510" lon="-3.6185060">
        <ele>657.4</ele>
        <time>2020-07-11T11:00:17Z</time>
      </trkpt>
      <trkpt lat="37.1911020" lon="-3.6181430">
        <ele>657.4</ele>
        <time>2020-07-11T11:00:22Z</time>
      </trkpt>
      <trkpt lat="37.1908720" lon="-3.6176440">
        <ele>658.4</ele>
        <time>2020-07-11T11:00:29Z</time>
      </trkpt>
      <trkpt lat="37.1908400" lon="-3.6175700">
        <ele>658.6</ele>
        <time>2020-07-11T11:00:30Z</time>
      </trkpt>
      <trkpt lat="37.1907460" lon="-3.6173530">
        <ele>659.0</ele>
        <time>2020-07-11T11:00:33Z</time>
      </trkpt>
      <trkpt lat="37.1905890" lon="-3.6170070">
        <ele>659.6</ele>
        <time>2020-07-11T11:00:38Z</time>
      </trkpt>
      <trkpt lat="37.1903810" lon="-3.6165390">
        <ele>660.2</ele>
        <time>2020-07-11T11:00:45Z</time>
      </trkpt>
      <trkpt lat="37.1903240" lon="-3.6164150">
        <ele>660.6</ele>
        <time>2020-07-11T11:00:47Z</time>
      </trkpt>
      <trkpt lat="37.1902920" lon="-3.6163450">
        <ele>660.8</ele>
        <time>2020-07-11T11:00:48Z</time>
      </trkpt>
      <trkpt lat="37.1900630" lon="-3.6158340">
        <ele>661.4</ele>
        <time>2020-07-11T11:00:56Z</time>
      </trkpt>
      <trkpt lat="37.1898950" lon="-3.6154610">
        <ele>662.0</ele>
        <time>2020-07-11T11:01:02Z</time>
      </trkpt>
      <trkpt lat="37.1897550" lon="-3.6151760">
        <ele>662.4</ele>
        <time>2020-07-11T11:01:07Z</time>
      </trkpt>
      <trkpt lat="37.1896890" lon="-3.6150450">
        <ele>662.6</ele>
        <time>2020-07-11T11:01:10Z</time>
      </trkpt>
      <trkpt lat="37.1896550" lon="-3.6149680">
        <ele>662.6</ele>
        <time>2020-07-11T11:01:12Z</time>
      </trkpt>
      <trkpt lat="37.1896260" lon="-3.6149230">
        <ele>662.6</ele>
        <time>2020-07-11T11:01:13Z</time>
      </trkpt>
      <trkpt lat="37.1895300" lon="-3.6147910">
        <ele>663.0</ele>
        <time>2020-07-11T11:01:16Z</time>
      </trkpt>
      <trkpt lat="37.1895010" lon="-3.6147430">
        <ele>663.0</ele>
        <time>2020-07-11T11:01:17Z</time>
      </trkpt>
      <trkpt lat="37.1894730" lon="-3.6146810">
        <ele>663.2</ele>
        <time>2020-07-11T11:01:18Z</time>
      </trkpt>
      <trkpt lat="37.1894400" lon="-3.6145000">
        <ele>663.6</ele>
        <time>2020-07-11T11:01:21Z</time>
      </trkpt>
      <trkpt lat="37.1893910" lon="-3.6143080">
        <ele>664.0</ele>
        <time>2020-07-11T11:01:24Z</time>
      </trkpt>
      <trkpt lat="37.1893300" lon="-3.6141920">
        <ele>664.0</ele>
        <time>2020-07-11T11:01:26Z</time>
      </trkpt>
      <trkpt lat="37.1891830" lon="-3.6139590">
        <ele>664.0</ele>
        <time>2020-07-11T11:01:31Z</time>
      </trkpt>
      <trkpt lat="37.1891570" lon="-3.6139340">
        <ele>664.2</ele>
        <time>2020-07-11T11:01:32Z</time>
      </trkpt>
      <trkpt lat="37.1890530" lon="-3.6138990">
        <ele>664.4</ele>
        <time>2020-07-11T11:01:36Z</time>
      </trkpt>
      <trkpt lat="37.1890030" lon="-3.6138660">
        <ele>664.6</ele>
        <time>2020-07-11T11:01:40Z</time>
      </trkpt>
      <trkpt lat="37.1889710" lon="-3.6138390">
        <ele>664.6</ele>
        <time>2020-07-11T11:01:44Z</time>
      </trkpt>
      <trkpt lat="37.1889670" lon="-3.6138520">
        <ele>664.6</ele>
        <time>2020-07-11T11:01:45Z</time>
      </trkpt>
      <trkpt lat="37.1889560" lon="-3.6138690">
        <ele>664.8</ele>
        <time>2020-07-11T11:01:47Z</time>
      </trkpt>
      <trkpt lat="37.1889530" lon="-3.6138810">
        <ele>665.0</ele>
        <time>2020-07-11T11:01:49Z</time>
      </trkpt>
      <trkpt lat="37.1889490" lon="-3.6138830">
        <ele>665.0</ele>
        <time>2020-07-11T11:01:50Z</time>
      </trkpt>
      <trkpt lat="37.1889290" lon="-3.6138790">
        <ele>665.0</ele>
        <time>2020-07-11T11:01:52Z</time>
      </trkpt>
      <trkpt lat="37.1889220" lon="-3.6138750">
        <ele>665.0</ele>
        <time>2020-07-11T11:01:54Z</time>
      </trkpt>
      <trkpt lat="37.1884080" lon="-3.6126320">
        <ele>673.0</ele>
        <time>2020-07-12T04:50:22Z</time>
      </trkpt>
      <trkpt lat="37.1884080" lon="-3.6126320">
        <ele>673.0</ele>
        <time>2020-07-12T04:50:23Z</time>
      </trkpt>
      <trkpt lat="37.1884080" lon="-3.6126320">
        <ele>673.0</ele>
        <time>2020-07-12T04:50:24Z</time>
      </trkpt>
      <trkpt lat="37.1884080" lon="-3.6126320">
        <ele>673.2</ele>
        <time>2020-07-12T04:50:26Z</time>
      </trkpt>
      <trkpt lat="37.1884080" lon="-3.6126320">
        <ele>673.2</ele>
        <time>2020-07-12T04:50:27Z</time>
      </trkpt>
      <trkpt lat="37.1884080" lon="-3.6126320">
        <ele>673.2</ele>
        <time>2020-07-12T04:50:28Z</time>
      </trkpt>
      <trkpt lat="37.1884080" lon="-3.6126320">
        <ele>673.2</ele>
        <time>2020-07-12T04:50:29Z</time>
      </trkpt>
      <trkpt lat="37.1884080" lon="-3.6126320">
        <ele>673.2</ele>
        <time>2020-07-12T04:50:30Z</time>
      </trkpt>
      <trkpt lat="37.1884080" lon="-3.6126320">
        <ele>673.2</ele>
        <time>2020-07-12T04:50:33Z</time>
      </trkpt>
      <trkpt lat="37.1884080" lon="-3.6126320">
        <ele>673.2</ele>
        <time>2020-07-12T04:50:37Z</time>
      </trkpt>
      <trkpt lat="37.1884080" lon="-3.6126320">
        <ele>673.4</ele>
        <time>2020-07-12T04:50:38Z</time>
      </trkpt>
      <trkpt lat="37.1884080" lon="-3.6126320">
        <ele>673.4</ele>
        <time>2020-07-12T04:50:43Z</time>
      </trkpt>
      <trkpt lat="37.1884080" lon="-3.6126320">
        <ele>673.4</ele>
        <time>2020-07-12T04:50:44Z</time>
      </trkpt>
      <trkpt lat="37.1884080" lon="-3.6126320">
        <ele>673.2</ele>
        <time>2020-07-12T04:50:49Z</time>
      </trkpt>
      <trkpt lat="37.1884080" lon="-3.6126320">
        <ele>673.4</ele>
        <time>2020-07-12T04:50:50Z</time>
      </trkpt>
      <trkpt lat="37.1884080" lon="-3.6126320">
        <ele>673.4</ele>
        <time>2020-07-12T04:50:54Z</time>
      </trkpt>
      <trkpt lat="37.1884080" lon="-3.6126320">
        <ele>673.4</ele>
        <time>2020-07-12T04:50:55Z</time>
      </trkpt>
      <trkpt lat="37.1884080" lon="-3.6126320">
        <ele>673.4</ele>
        <time>2020-07-12T04:50:56Z</time>
      </trkpt>
      <trkpt lat="37.1884080" lon="-3.6126320">
        <ele>673.4</ele>
        <time>2020-07-12T04:50:57Z</time>
      </trkpt>
      <trkpt lat="37.1884080" lon="-3.6126320">
        <ele>673.4</ele>
        <time>2020-07-12T04:50:58Z</time>
      </trkpt>
      <trkpt lat="37.1884080" lon="-3.6126320">
        <ele>673.4</ele>
        <time>2020-07-12T04:51:00Z</time>
      </trkpt>
      <trkpt lat="37.1884080" lon="-3.6126320">
        <ele>673.4</ele>
        <time>2020-07-12T04:51:01Z</time>
      </trkpt>
      <trkpt lat="37.1884080" lon="-3.6126320">
        <ele>673.4</ele>
        <time>2020-07-12T04:51:03Z</time>
      </trkpt>
      <trkpt lat="37.1884080" lon="-3.6126320">
        <ele>673.4</ele>
        <time>2020-07-12T04:51:05Z</time>
      </trkpt>
      <trkpt lat="37.1884080" lon="-3.6126320">
        <ele>673.6</ele>
        <time>2020-07-12T04:51:11Z</time>
      </trkpt>
      <trkpt lat="37.1884080" lon="-3.6126320">
        <ele>673.6</ele>
        <time>2020-07-12T04:51:15Z</time>
      </trkpt>
      <trkpt lat="37.1884080" lon="-3.6126320">
        <ele>673.6</ele>
        <time>2020-07-12T04:51:19Z</time>
      </trkpt>
      <trkpt lat="37.1884080" lon="-3.6126320">
        <ele>673.6</ele>
        <time>2020-07-12T04:51:21Z</time>
      </trkpt>
      <trkpt lat="37.1884080" lon="-3.6126320">
        <ele>673.6</ele>
        <time>2020-07-12T04:51:22Z</time>
      </trkpt>
      <trkpt lat="37.1884080" lon="-3.6126320">
        <ele>673.6</ele>
        <time>2020-07-12T04:51:25Z</time>
      </trkpt>
      <trkpt lat="37.1884080" lon="-3.6126320">
        <ele>673.6</ele>
        <time>2020-07-12T04:51:27Z</time>
      </trkpt>
      <trkpt lat="37.1884080" lon="-3.6126320">
        <ele>673.6</ele>
        <time>2020-07-12T04:51:29Z</time>
      </trkpt>
      <trkpt lat="37.1884080" lon="-3.6126320">
        <ele>673.6</ele>
        <time>2020-07-12T04:51:30Z</time>
      </trkpt>
      <trkpt lat="37.1884080" lon="-3.6126320">
        <ele>673.6</ele>
        <time>2020-07-12T04:51:31Z</time>
      </trkpt>
      <trkpt lat="37.1884080" lon="-3.6126320">
        <ele>673.6</ele>
        <time>2020-07-12T04:51:32Z</time>
      </trkpt>
      <trkpt lat="37.1884080" lon="-3.6126320">
        <ele>673.6</ele>
        <time>2020-07-12T04:51:33Z</time>
      </trkpt>
      <trkpt lat="37.1884080" lon="-3.6126320">
        <ele>673.6</ele>
        <time>2020-07-12T04:51:34Z</time>
      </trkpt>
      <trkpt lat="37.1884080" lon="-3.6126320">
        <ele>673.8</ele>
        <time>2020-07-12T04:51:35Z</time>
      </trkpt>
      <trkpt lat="37.1884080" lon="-3.6126320">
        <ele>674.0</ele>
        <time>2020-07-12T04:51:37Z</time>
      </trkpt>
      <trkpt lat="37.1884080" lon="-3.6126320">
        <ele>674.0</ele>
        <time>2020-07-12T04:51:38Z</time>
      </trkpt>
      <trkpt lat="37.1884080" lon="-3.6126320">
        <ele>674.0</ele>
        <time>2020-07-12T04:51:39Z</time>
      </trkpt>
      <trkpt lat="37.1884080" lon="-3.6126320">
        <ele>674.2</ele>
        <time>2020-07-12T04:51:41Z</time>
      </trkpt>
      <trkpt lat="37.1884080" lon="-3.6126320">
        <ele>674.2</ele>
        <time>2020-07-12T04:51:43Z</time>
      </trkpt>
      <trkpt lat="37.1884080" lon="-3.6126320">
        <ele>674.2</ele>
        <time>2020-07-12T04:51:45Z</time>
      </trkpt>
      <trkpt lat="37.1884080" lon="-3.6126320">
        <ele>674.2</ele>
        <time>2020-07-12T04:51:47Z</time>
      </trkpt>
      <trkpt lat="37.1884080" lon="-3.6126320">
        <ele>674.2</ele>
        <time>2020-07-12T04:51:49Z</time>
      </trkpt>
      <trkpt lat="37.1884080" lon="-3.6126320">
        <ele>674.2</ele>
        <time>2020-07-12T04:51:51Z</time>
      </trkpt>
      <trkpt lat="37.1884080" lon="-3.6126320">
        <ele>674.2</ele>
        <time>2020-07-12T04:51:52Z</time>
      </trkpt>
      <trkpt lat="37.1884080" lon="-3.6126320">
        <ele>674.2</ele>
        <time>2020-07-12T04:51:54Z</time>
      </trkpt>
      <trkpt lat="37.1884080" lon="-3.6126320">
        <ele>674.2</ele>
        <time>2020-07-12T04:51:57Z</time>
      </trkpt>
      <trkpt lat="37.1884080" lon="-3.6126320">
        <ele>674.2</ele>
        <time>2020-07-12T04:51:58Z</time>
      </trkpt>
      <trkpt lat="37.1884080" lon="-3.6126320">
        <ele>674.2</ele>
        <time>2020-07-12T04:51:59Z</time>
      </trkpt>
      <trkpt lat="37.1884080" lon="-3.6126320">
        <ele>674.4</ele>
        <time>2020-07-12T04:52:00Z</time>
      </trkpt>
      <trkpt lat="37.1884080" lon="-3.6126320">
        <ele>674.4</ele>
        <time>2020-07-12T04:52:01Z</time>
      </trkpt>
      <trkpt lat="37.1884080" lon="-3.6126320">
        <ele>674.4</ele>
        <time>2020-07-12T04:52:02Z</time>
      </trkpt>
      <trkpt lat="37.1884080" lon="-3.6126320">
        <ele>674.6</ele>
        <time>2020-07-12T04:52:03Z</time>
      </trkpt>
      <trkpt lat="37.1884080" lon="-3.6126320">
        <ele>674.8</ele>
        <time>2020-07-12T04:52:08Z</time>
      </trkpt>
      <trkpt lat="37.1884400" lon="-3.6126900">
        <ele>674.8</ele>
        <time>2020-07-12T04:52:10Z</time>
      </trkpt>
      <trkpt lat="37.1884000" lon="-3.6128760">
        <ele>674.6</ele>
        <time>2020-07-12T04:52:14Z</time>
      </trkpt>
      <trkpt lat="37.1884360" lon="-3.6129140">
        <ele>674.4</ele>
        <time>2020-07-12T04:52:15Z</time>
      </trkpt>
      <trkpt lat="37.1884940" lon="-3.6130720">
        <ele>674.2</ele>
        <time>2020-07-12T04:52:18Z</time>
      </trkpt>
      <trkpt lat="37.1885190" lon="-3.6131280">
        <ele>674.0</ele>
        <time>2020-07-12T04:52:19Z</time>
      </trkpt>
      <trkpt lat="37.1885620" lon="-3.6131760">
        <ele>673.8</ele>
        <time>2020-07-12T04:52:20Z</time>
      </trkpt>
      <trkpt lat="37.1886150" lon="-3.6132790">
        <ele>673.6</ele>
        <time>2020-07-12T04:52:22Z</time>
      </trkpt>
      <trkpt lat="37.1887860" lon="-3.6134640">
        <ele>672.8</ele>
        <time>2020-07-12T04:52:25Z</time>
      </trkpt>
      <trkpt lat="37.1888760" lon="-3.6135880">
        <ele>672.4</ele>
        <time>2020-07-12T04:52:27Z</time>
      </trkpt>
      <trkpt lat="37.1889160" lon="-3.6136410">
        <ele>672.2</ele>
        <time>2020-07-12T04:52:28Z</time>
      </trkpt>
      <trkpt lat="37.1890300" lon="-3.6137760">
        <ele>671.8</ele>
        <time>2020-07-12T04:52:31Z</time>
      </trkpt>
      <trkpt lat="37.1890560" lon="-3.6138150">
        <ele>671.6</ele>
        <time>2020-07-12T04:52:32Z</time>
      </trkpt>
      <trkpt lat="37.1891420" lon="-3.6138960">
        <ele>671.4</ele>
        <time>2020-07-12T04:52:35Z</time>
      </trkpt>
      <trkpt lat="37.1892140" lon="-3.6139980">
        <ele>670.8</ele>
        <time>2020-07-12T04:52:38Z</time>
      </trkpt>
      <trkpt lat="37.1892690" lon="-3.6140780">
        <ele>670.6</ele>
        <time>2020-07-12T04:52:40Z</time>
      </trkpt>
      <trkpt lat="37.1893990" lon="-3.6142760">
        <ele>670.4</ele>
        <time>2020-07-12T04:52:44Z</time>
      </trkpt>
      <trkpt lat="37.1895450" lon="-3.6144520">
        <ele>670.0</ele>
        <time>2020-07-12T04:52:49Z</time>
      </trkpt>
      <trkpt lat="37.1896840" lon="-3.6146020">
        <ele>670.2</ele>
        <time>2020-07-12T04:52:53Z</time>
      </trkpt>
      <trkpt lat="37.1897050" lon="-3.6146500">
        <ele>670.2</ele>
        <time>2020-07-12T04:52:54Z</time>
      </trkpt>
      <trkpt lat="37.1896690" lon="-3.6147990">
        <ele>670.4</ele>
        <time>2020-07-12T04:52:57Z</time>
      </trkpt>
      <trkpt lat="37.1895330" lon="-3.6148420">
        <ele>670.4</ele>
        <time>2020-07-12T04:53:00Z</time>
      </trkpt>
      <trkpt lat="37.1893850" lon="-3.6148250">
        <ele>669.8</ele>
        <time>2020-07-12T04:53:03Z</time>
      </trkpt>
      <trkpt lat="37.1892290" lon="-3.6148170">
        <ele>669.8</ele>
        <time>2020-07-12T04:53:06Z</time>
      </trkpt>
      <trkpt lat="37.1887720" lon="-3.6148440">
        <ele>670.0</ele>
        <time>2020-07-12T04:53:14Z</time>
      </trkpt>
      <trkpt lat="37.1883840" lon="-3.6148650">
        <ele>670.0</ele>
        <time>2020-07-12T04:53:21Z</time>
      </trkpt>
      <trkpt lat="37.1882730" lon="-3.6148790">
        <ele>670.0</ele>
        <time>2020-07-12T04:53:23Z</time>
      </trkpt>
      <trkpt lat="37.1882180" lon="-3.6148730">
        <ele>670.0</ele>
        <time>2020-07-12T04:53:24Z</time>
      </trkpt>
      <trkpt lat="37.1880600" lon="-3.6148160">
        <ele>670.0</ele>
        <time>2020-07-12T04:53:27Z</time>
      </trkpt>
      <trkpt lat="37.1877720" lon="-3.6147740">
        <ele>670.0</ele>
        <time>2020-07-12T04:53:32Z</time>
      </trkpt>
      <trkpt lat="37.1875270" lon="-3.6147780">
        <ele>669.6</ele>
        <time>2020-07-12T04:53:36Z</time>
      </trkpt>
      <trkpt lat="37.1872590" lon="-3.6147810">
        <ele>669.6</ele>
        <time>2020-07-12T04:53:40Z</time>
      </trkpt>
      <trkpt lat="37.1867020" lon="-3.6147800">
        <ele>669.0</ele>
        <time>2020-07-12T04:53:48Z</time>
      </trkpt>
      <trkpt lat="37.1866340" lon="-3.6147860">
        <ele>669.2</ele>
        <time>2020-07-12T04:53:49Z</time>
      </trkpt>
      <trkpt lat="37.1860920" lon="-3.6148090">
        <ele>669.0</ele>
        <time>2020-07-12T04:53:57Z</time>
      </trkpt>
      <trkpt lat="37.1855060" lon="-3.6148270">
        <ele>669.2</ele>
        <time>2020-07-12T04:54:06Z</time>
      </trkpt>
      <trkpt lat="37.1854390" lon="-3.6148320">
        <ele>669.4</ele>
        <time>2020-07-12T04:54:07Z</time>
      </trkpt>
      <trkpt lat="37.1851460" lon="-3.6148460">
        <ele>669.6</ele>
        <time>2020-07-12T04:54:12Z</time>
      </trkpt>
      <trkpt lat="37.1847020" lon="-3.6147130">
        <ele>670.4</ele>
        <time>2020-07-12T04:54:20Z</time>
      </trkpt>
      <trkpt lat="37.1844790" lon="-3.6145940">
        <ele>670.2</ele>
        <time>2020-07-12T04:54:24Z</time>
      </trkpt>
      <trkpt lat="37.1843390" lon="-3.6145120">
        <ele>669.4</ele>
        <time>2020-07-12T04:54:27Z</time>
      </trkpt>
      <trkpt lat="37.1842990" lon="-3.6144870">
        <ele>669.4</ele>
        <time>2020-07-12T04:54:28Z</time>
      </trkpt>
      <trkpt lat="37.1841140" lon="-3.6143920">
        <ele>668.8</ele>
        <time>2020-07-12T04:54:32Z</time>
      </trkpt>
      <trkpt lat="37.1840080" lon="-3.6143590">
        <ele>668.6</ele>
        <time>2020-07-12T04:54:34Z</time>
      </trkpt>
      <trkpt lat="37.1839510" lon="-3.6143730">
        <ele>668.4</ele>
        <time>2020-07-12T04:54:35Z</time>
      </trkpt>
      <trkpt lat="37.1837930" lon="-3.6145070">
        <ele>667.8</ele>
        <time>2020-07-12T04:54:38Z</time>
      </trkpt>
      <trkpt lat="37.1837480" lon="-3.6145570">
        <ele>667.6</ele>
        <time>2020-07-12T04:54:39Z</time>
      </trkpt>
      <trkpt lat="37.1836990" lon="-3.6146090">
        <ele>667.4</ele>
        <time>2020-07-12T04:54:40Z</time>
      </trkpt>
      <trkpt lat="37.1836250" lon="-3.6146620">
        <ele>667.2</ele>
        <time>2020-07-12T04:54:41Z</time>
      </trkpt>
      <trkpt lat="37.1835020" lon="-3.6147840">
        <ele>666.4</ele>
        <time>2020-07-12T04:54:43Z</time>
      </trkpt>
      <trkpt lat="37.1834360" lon="-3.6148470">
        <ele>666.0</ele>
        <time>2020-07-12T04:54:44Z</time>
      </trkpt>
      <trkpt lat="37.1833240" lon="-3.6149710">
        <ele>665.4</ele>
        <time>2020-07-12T04:54:46Z</time>
      </trkpt>
      <trkpt lat="37.1832580" lon="-3.6150410">
        <ele>665.0</ele>
        <time>2020-07-12T04:54:47Z</time>
      </trkpt>
      <trkpt lat="37.1831840" lon="-3.6151030">
        <ele>664.8</ele>
        <time>2020-07-12T04:54:48Z</time>
      </trkpt>
      <trkpt lat="37.1829690" lon="-3.6153120">
        <ele>664.0</ele>
        <time>2020-07-12T04:54:51Z</time>
      </trkpt>
      <trkpt lat="37.1828230" lon="-3.6154780">
        <ele>663.0</ele>
        <time>2020-07-12T04:54:53Z</time>
      </trkpt>
      <trkpt lat="37.1827620" lon="-3.6155610">
        <ele>662.4</ele>
        <time>2020-07-12T04:54:54Z</time>
      </trkpt>
      <trkpt lat="37.1826840" lon="-3.6156350">
        <ele>662.0</ele>
        <time>2020-07-12T04:54:55Z</time>
      </trkpt>
      <trkpt lat="37.1825890" lon="-3.6157780">
        <ele>661.4</ele>
        <time>2020-07-12T04:54:57Z</time>
      </trkpt>
      <trkpt lat="37.1825140" lon="-3.6158770">
        <ele>661.2</ele>
        <time>2020-07-12T04:54:59Z</time>
      </trkpt>
      <trkpt lat="37.1824520" lon="-3.6158850">
        <ele>660.8</ele>
        <time>2020-07-12T04:55:00Z</time>
      </trkpt>
      <trkpt lat="37.1823420" lon="-3.6158290">
        <ele>660.2</ele>
        <time>2020-07-12T04:55:02Z</time>
      </trkpt>
      <trkpt lat="37.1822970" lon="-3.6157780">
        <ele>660.0</ele>
        <time>2020-07-12T04:55:03Z</time>
      </trkpt>
      <trkpt lat="37.1821970" lon="-3.6156300">
        <ele>659.8</ele>
        <time>2020-07-12T04:55:05Z</time>
      </trkpt>
      <trkpt lat="37.1820650" lon="-3.6154440">
        <ele>659.4</ele>
        <time>2020-07-12T04:55:08Z</time>
      </trkpt>
      <trkpt lat="37.1819340" lon="-3.6152510">
        <ele>659.2</ele>
        <time>2020-07-12T04:55:11Z</time>
      </trkpt>
      <trkpt lat="37.1818440" lon="-3.6151390">
        <ele>658.8</ele>
        <time>2020-07-12T04:55:13Z</time>
      </trkpt>
      <trkpt lat="37.1817990" lon="-3.6151080">
        <ele>658.6</ele>
        <time>2020-07-12T04:55:14Z</time>
      </trkpt>
      <trkpt lat="37.1816930" lon="-3.6151190">
        <ele>658.0</ele>
        <time>2020-07-12T04:55:16Z</time>
      </trkpt>
      <trkpt lat="37.1816390" lon="-3.6151500">
        <ele>657.8</ele>
        <time>2020-07-12T04:55:17Z</time>
      </trkpt>
      <trkpt lat="37.1815810" lon="-3.6151880">
        <ele>657.6</ele>
        <time>2020-07-12T04:55:18Z</time>
      </trkpt>
      <trkpt lat="37.1814050" lon="-3.6153160">
        <ele>657.2</ele>
        <time>2020-07-12T04:55:21Z</time>
      </trkpt>
      <trkpt lat="37.1812770" lon="-3.6154120">
        <ele>657.0</ele>
        <time>2020-07-12T04:55:23Z</time>
      </trkpt>
      <trkpt lat="37.1811530" lon="-3.6155010">
        <ele>657.0</ele>
        <time>2020-07-12T04:55:25Z</time>
      </trkpt>
      <trkpt lat="37.1807360" lon="-3.6157970">
        <ele>655.8</ele>
        <time>2020-07-12T04:55:31Z</time>
      </trkpt>
      <trkpt lat="37.1804480" lon="-3.6159920">
        <ele>654.6</ele>
        <time>2020-07-12T04:55:35Z</time>
      </trkpt>
      <trkpt lat="37.1801500" lon="-3.6161620">
        <ele>654.0</ele>
        <time>2020-07-12T04:55:39Z</time>
      </trkpt>
      <trkpt lat="37.1800830" lon="-3.6161990">
        <ele>653.6</ele>
        <time>2020-07-12T04:55:40Z</time>
      </trkpt>
      <trkpt lat="37.1799020" lon="-3.6162770">
        <ele>653.2</ele>
        <time>2020-07-12T04:55:43Z</time>
      </trkpt>
      <trkpt lat="37.1797850" lon="-3.6161730">
        <ele>652.8</ele>
        <time>2020-07-12T04:55:46Z</time>
      </trkpt>
      <trkpt lat="37.1797400" lon="-3.6160500">
        <ele>652.4</ele>
        <time>2020-07-12T04:55:48Z</time>
      </trkpt>
      <trkpt lat="37.1797090" lon="-3.6159170">
        <ele>652.4</ele>
        <time>2020-07-12T04:55:50Z</time>
      </trkpt>
      <trkpt lat="37.1796930" lon="-3.6158460">
        <ele>652.4</ele>
        <time>2020-07-12T04:55:51Z</time>
      </trkpt>
      <trkpt lat="37.1796420" lon="-3.6156210">
        <ele>652.4</ele>
        <time>2020-07-12T04:55:54Z</time>
      </trkpt>
      <trkpt lat="37.1795910" lon="-3.6154780">
        <ele>652.4</ele>
        <time>2020-07-12T04:55:56Z</time>
      </trkpt>
      <trkpt lat="37.1795580" lon="-3.6154110">
        <ele>652.4</ele>
        <time>2020-07-12T04:55:57Z</time>
      </trkpt>
      <trkpt lat="37.1795010" lon="-3.6153730">
        <ele>652.2</ele>
        <time>2020-07-12T04:55:58Z</time>
      </trkpt>
      <trkpt lat="37.1794170" lon="-3.6152700">
        <ele>652.0</ele>
        <time>2020-07-12T04:56:00Z</time>
      </trkpt>
      <trkpt lat="37.1793280" lon="-3.6151480">
        <ele>651.8</ele>
        <time>2020-07-12T04:56:02Z</time>
      </trkpt>
      <trkpt lat="37.1792180" lon="-3.6150620">
        <ele>652.0</ele>
        <time>2020-07-12T04:56:04Z</time>
      </trkpt>
      <trkpt lat="37.1790380" lon="-3.6149530">
        <ele>651.8</ele>
        <time>2020-07-12T04:56:07Z</time>
      </trkpt>
      <trkpt lat="37.1786710" lon="-3.6147230">
        <ele>651.4</ele>
        <time>2020-07-12T04:56:13Z</time>
      </trkpt>
      <trkpt lat="37.1786120" lon="-3.6146810">
        <ele>651.2</ele>
        <time>2020-07-12T04:56:14Z</time>
      </trkpt>
      <trkpt lat="37.1780850" lon="-3.6143360">
        <ele>650.6</ele>
        <time>2020-07-12T04:56:23Z</time>
      </trkpt>
      <trkpt lat="37.1779630" lon="-3.6142620">
        <ele>650.4</ele>
        <time>2020-07-12T04:56:25Z</time>
      </trkpt>
      <trkpt lat="37.1774620" lon="-3.6139580">
        <ele>650.0</ele>
        <time>2020-07-12T04:56:33Z</time>
      </trkpt>
      <trkpt lat="37.1773980" lon="-3.6139180">
        <ele>649.8</ele>
        <time>2020-07-12T04:56:34Z</time>
      </trkpt>
      <trkpt lat="37.1772300" lon="-3.6138140">
        <ele>649.6</ele>
        <time>2020-07-12T04:56:37Z</time>
      </trkpt>
      <trkpt lat="37.1771340" lon="-3.6137600">
        <ele>649.2</ele>
        <time>2020-07-12T04:56:39Z</time>
      </trkpt>
      <trkpt lat="37.1770840" lon="-3.6137360">
        <ele>649.0</ele>
        <time>2020-07-12T04:56:40Z</time>
      </trkpt>
      <trkpt lat="37.1769180" lon="-3.6137530">
        <ele>648.8</ele>
        <time>2020-07-12T04:56:43Z</time>
      </trkpt>
      <trkpt lat="37.1767900" lon="-3.6139130">
        <ele>648.6</ele>
        <time>2020-07-12T04:56:46Z</time>
      </trkpt>
      <trkpt lat="37.1767510" lon="-3.6139790">
        <ele>648.6</ele>
        <time>2020-07-12T04:56:47Z</time>
      </trkpt>
      <trkpt lat="37.1766400" lon="-3.6141840">
        <ele>648.2</ele>
        <time>2020-07-12T04:56:50Z</time>
      </trkpt>
      <trkpt lat="37.1766050" lon="-3.6142420">
        <ele>648.0</ele>
        <time>2020-07-12T04:56:51Z</time>
      </trkpt>
      <trkpt lat="37.1764900" lon="-3.6144230">
        <ele>647.2</ele>
        <time>2020-07-12T04:56:54Z</time>
      </trkpt>
      <trkpt lat="37.1764320" lon="-3.6144690">
        <ele>647.0</ele>
        <time>2020-07-12T04:56:55Z</time>
      </trkpt>
      <trkpt lat="37.1762740" lon="-3.6145800">
        <ele>646.4</ele>
        <time>2020-07-12T04:56:58Z</time>
      </trkpt>
      <trkpt lat="37.1762300" lon="-3.6146070">
        <ele>646.6</ele>
        <time>2020-07-12T04:56:59Z</time>
      </trkpt>
      <trkpt lat="37.1760870" lon="-3.6147810">
        <ele>646.8</ele>
        <time>2020-07-12T04:57:03Z</time>
      </trkpt>
      <trkpt lat="37.1760000" lon="-3.6150670">
        <ele>646.4</ele>
        <time>2020-07-12T04:57:07Z</time>
      </trkpt>
      <trkpt lat="37.1759460" lon="-3.6152970">
        <ele>646.4</ele>
        <time>2020-07-12T04:57:10Z</time>
      </trkpt>
      <trkpt lat="37.1758370" lon="-3.6156080">
        <ele>646.2</ele>
        <time>2020-07-12T04:57:14Z</time>
      </trkpt>
      <trkpt lat="37.1756650" lon="-3.6158450">
        <ele>646.2</ele>
        <time>2020-07-12T04:57:18Z</time>
      </trkpt>
      <trkpt lat="37.1755680" lon="-3.6159530">
        <ele>646.0</ele>
        <time>2020-07-12T04:57:20Z</time>
      </trkpt>
      <trkpt lat="37.1752540" lon="-3.6162990">
        <ele>645.6</ele>
        <time>2020-07-12T04:57:26Z</time>
      </trkpt>
      <trkpt lat="37.1748380" lon="-3.6167710">
        <ele>645.2</ele>
        <time>2020-07-12T04:57:34Z</time>
      </trkpt>
      <trkpt lat="37.1747880" lon="-3.6168300">
        <ele>645.2</ele>
        <time>2020-07-12T04:57:35Z</time>
      </trkpt>
      <trkpt lat="37.1745810" lon="-3.6170760">
        <ele>645.0</ele>
        <time>2020-07-12T04:57:39Z</time>
      </trkpt>
      <trkpt lat="37.1741620" lon="-3.6175710">
        <ele>644.4</ele>
        <time>2020-07-12T04:57:47Z</time>
      </trkpt>
      <trkpt lat="37.1738990" lon="-3.6178830">
        <ele>644.0</ele>
        <time>2020-07-12T04:57:52Z</time>
      </trkpt>
      <trkpt lat="37.1734760" lon="-3.6183770">
        <ele>643.6</ele>
        <time>2020-07-12T04:58:00Z</time>
      </trkpt>
      <trkpt lat="37.1730300" lon="-3.6188630">
        <ele>643.0</ele>
        <time>2020-07-12T04:58:08Z</time>
      </trkpt>
      <trkpt lat="37.1729190" lon="-3.6189710">
        <ele>642.8</ele>
        <time>2020-07-12T04:58:10Z</time>
      </trkpt>
      <trkpt lat="37.1725140" lon="-3.6193540">
        <ele>642.4</ele>
        <time>2020-07-12T04:58:17Z</time>
      </trkpt>
      <trkpt lat="37.1722180" lon="-3.6196350">
        <ele>642.0</ele>
        <time>2020-07-12T04:58:22Z</time>
      </trkpt>
      <trkpt lat="37.1719830" lon="-3.6198670">
        <ele>641.2</ele>
        <time>2020-07-12T04:58:26Z</time>
      </trkpt>
      <trkpt lat="37.1717650" lon="-3.6200820">
        <ele>641.0</ele>
        <time>2020-07-12T04:58:30Z</time>
      </trkpt>
      <trkpt lat="37.1717090" lon="-3.6201400">
        <ele>640.8</ele>
        <time>2020-07-12T04:58:31Z</time>
      </trkpt>
      <trkpt lat="37.1714910" lon="-3.6203570">
        <ele>640.4</ele>
        <time>2020-07-12T04:58:35Z</time>
      </trkpt>
      <trkpt lat="37.1710850" lon="-3.6207300">
        <ele>639.8</ele>
        <time>2020-07-12T04:58:42Z</time>
      </trkpt>
      <trkpt lat="37.1710270" lon="-3.6207810">
        <ele>639.8</ele>
        <time>2020-07-12T04:58:43Z</time>
      </trkpt>
      <trkpt lat="37.1709720" lon="-3.6208290">
        <ele>639.6</ele>
        <time>2020-07-12T04:58:44Z</time>
      </trkpt>
      <trkpt lat="37.1705260" lon="-3.6212280">
        <ele>639.2</ele>
        <time>2020-07-12T04:58:52Z</time>
      </trkpt>
      <trkpt lat="37.1704700" lon="-3.6212780">
        <ele>639.2</ele>
        <time>2020-07-12T04:58:53Z</time>
      </trkpt>
      <trkpt lat="37.1700130" lon="-3.6216660">
        <ele>639.2</ele>
        <time>2020-07-12T04:59:01Z</time>
      </trkpt>
      <trkpt lat="37.1698440" lon="-3.6218080">
        <ele>639.0</ele>
        <time>2020-07-12T04:59:04Z</time>
      </trkpt>
      <trkpt lat="37.1697930" lon="-3.6218490">
        <ele>638.8</ele>
        <time>2020-07-12T04:59:05Z</time>
      </trkpt>
      <trkpt lat="37.1696210" lon="-3.6219920">
        <ele>638.8</ele>
        <time>2020-07-12T04:59:08Z</time>
      </trkpt>
      <trkpt lat="37.1695680" lon="-3.6220370">
        <ele>638.8</ele>
        <time>2020-07-12T04:59:09Z</time>
      </trkpt>
      <trkpt lat="37.1692200" lon="-3.6223260">
        <ele>639.0</ele>
        <time>2020-07-12T04:59:15Z</time>
      </trkpt>
      <trkpt lat="37.1688940" lon="-3.6225920">
        <ele>638.6</ele>
        <time>2020-07-12T04:59:21Z</time>
      </trkpt>
      <trkpt lat="37.1687860" lon="-3.6226560">
        <ele>638.6</ele>
        <time>2020-07-12T04:59:23Z</time>
      </trkpt>
      <trkpt lat="37.1685990" lon="-3.6227110">
        <ele>638.6</ele>
        <time>2020-07-12T04:59:26Z</time>
      </trkpt>
      <trkpt lat="37.1682110" lon="-3.6227610">
        <ele>638.2</ele>
        <time>2020-07-12T04:59:33Z</time>
      </trkpt>
      <trkpt lat="37.1680920" lon="-3.6227400">
        <ele>638.2</ele>
        <time>2020-07-12T04:59:36Z</time>
      </trkpt>
      <trkpt lat="37.1680640" lon="-3.6227070">
        <ele>638.2</ele>
        <time>2020-07-12T04:59:37Z</time>
      </trkpt>
      <trkpt lat="37.1679710" lon="-3.6227060">
        <ele>637.8</ele>
        <time>2020-07-12T04:59:40Z</time>
      </trkpt>
      <trkpt lat="37.1679390" lon="-3.6227380">
        <ele>638.0</ele>
        <time>2020-07-12T04:59:41Z</time>
      </trkpt>
      <trkpt lat="37.1678250" lon="-3.6228300">
        <ele>638.0</ele>
        <time>2020-07-12T04:59:44Z</time>
      </trkpt>
      <trkpt lat="37.1677850" lon="-3.6228590">
        <ele>638.0</ele>
        <time>2020-07-12T04:59:45Z</time>
      </trkpt>
      <trkpt lat="37.1676790" lon="-3.6229370">
        <ele>638.0</ele>
        <time>2020-07-12T04:59:47Z</time>
      </trkpt>
      <trkpt lat="37.1675810" lon="-3.6230230">
        <ele>638.0</ele>
        <time>2020-07-12T04:59:49Z</time>
      </trkpt>
      <trkpt lat="37.1674830" lon="-3.6231200">
        <ele>638.2</ele>
        <time>2020-07-12T04:59:51Z</time>
      </trkpt>
      <trkpt lat="37.1670500" lon="-3.6236180">
        <ele>638.2</ele>
        <time>2020-07-12T05:00:00Z</time>
      </trkpt>
      <trkpt lat="37.1669980" lon="-3.6236810">
        <ele>638.2</ele>
        <time>2020-07-12T05:00:01Z</time>
      </trkpt>
      <trkpt lat="37.1668100" lon="-3.6238920">
        <ele>638.2</ele>
        <time>2020-07-12T05:00:05Z</time>
      </trkpt>
      <trkpt lat="37.1667030" lon="-3.6239260">
        <ele>638.2</ele>
        <time>2020-07-12T05:00:07Z</time>
      </trkpt>
      <trkpt lat="37.1665760" lon="-3.6240090">
        <ele>638.2</ele>
        <time>2020-07-12T05:00:10Z</time>
      </trkpt>
      <trkpt lat="37.1664880" lon="-3.6241670">
        <ele>638.4</ele>
        <time>2020-07-12T05:00:13Z</time>
      </trkpt>
      <trkpt lat="37.1663980" lon="-3.6242450">
        <ele>638.6</ele>
        <time>2020-07-12T05:00:15Z</time>
      </trkpt>
      <trkpt lat="37.1661860" lon="-3.6244270">
        <ele>638.4</ele>
        <time>2020-07-12T05:00:19Z</time>
      </trkpt>
      <trkpt lat="37.1661380" lon="-3.6244680">
        <ele>638.4</ele>
        <time>2020-07-12T05:00:20Z</time>
      </trkpt>
      <trkpt lat="37.1656660" lon="-3.6248800">
        <ele>638.4</ele>
        <time>2020-07-12T05:00:29Z</time>
      </trkpt>
      <trkpt lat="37.1652100" lon="-3.6253050">
        <ele>638.4</ele>
        <time>2020-07-12T05:00:38Z</time>
      </trkpt>
      <trkpt lat="37.1650590" lon="-3.6254440">
        <ele>638.4</ele>
        <time>2020-07-12T05:00:41Z</time>
      </trkpt>
      <trkpt lat="37.1646130" lon="-3.6258860">
        <ele>638.2</ele>
        <time>2020-07-12T05:00:50Z</time>
      </trkpt>
      <trkpt lat="37.1642490" lon="-3.6263220">
        <ele>638.2</ele>
        <time>2020-07-12T05:00:58Z</time>
      </trkpt>
      <trkpt lat="37.1641290" lon="-3.6264790">
        <ele>638.2</ele>
        <time>2020-07-12T05:01:01Z</time>
      </trkpt>
      <trkpt lat="37.1639190" lon="-3.6267340">
        <ele>638.0</ele>
        <time>2020-07-12T05:01:06Z</time>
      </trkpt>
      <trkpt lat="37.1636800" lon="-3.6270540">
        <ele>638.0</ele>
        <time>2020-07-12T05:01:12Z</time>
      </trkpt>
      <trkpt lat="37.1636290" lon="-3.6271630">
        <ele>638.2</ele>
        <time>2020-07-12T05:01:14Z</time>
      </trkpt>
      <trkpt lat="37.1635520" lon="-3.6273720">
        <ele>638.8</ele>
        <time>2020-07-12T05:01:18Z</time>
      </trkpt>
      <trkpt lat="37.1635180" lon="-3.6274600">
        <ele>639.4</ele>
        <time>2020-07-12T05:01:20Z</time>
      </trkpt>
      <trkpt lat="37.1634990" lon="-3.6275030">
        <ele>639.8</ele>
        <time>2020-07-12T05:01:21Z</time>
      </trkpt>
      <trkpt lat="37.1634470" lon="-3.6275860">
        <ele>640.6</ele>
        <time>2020-07-12T05:01:23Z</time>
      </trkpt>
      <trkpt lat="37.1634170" lon="-3.6276250">
        <ele>640.8</ele>
        <time>2020-07-12T05:01:24Z</time>
      </trkpt>
      <trkpt lat="37.1633310" lon="-3.6277340">
        <ele>641.4</ele>
        <time>2020-07-12T05:01:27Z</time>
      </trkpt>
      <trkpt lat="37.1631920" lon="-3.6278750">
        <ele>641.4</ele>
        <time>2020-07-12T05:01:32Z</time>
      </trkpt>
      <trkpt lat="37.1631620" lon="-3.6278870">
        <ele>641.4</ele>
        <time>2020-07-12T05:01:33Z</time>
      </trkpt>
      <trkpt lat="37.1631290" lon="-3.6278880">
        <ele>641.4</ele>
        <time>2020-07-12T05:01:34Z</time>
      </trkpt>
      <trkpt lat="37.1631010" lon="-3.6278770">
        <ele>641.2</ele>
        <time>2020-07-12T05:01:35Z</time>
      </trkpt>
      <trkpt lat="37.1630340" lon="-3.6278660">
        <ele>641.2</ele>
        <time>2020-07-12T05:01:37Z</time>
      </trkpt>
      <trkpt lat="37.1629420" lon="-3.6279910">
        <ele>641.0</ele>
        <time>2020-07-12T05:01:41Z</time>
      </trkpt>
      <trkpt lat="37.1628420" lon="-3.6281690">
        <ele>641.0</ele>
        <time>2020-07-12T05:01:45Z</time>
      </trkpt>
      <trkpt lat="37.1627990" lon="-3.6282120">
        <ele>641.0</ele>
        <time>2020-07-12T05:01:46Z</time>
      </trkpt>
      <trkpt lat="37.1626070" lon="-3.6284440">
        <ele>640.6</ele>
        <time>2020-07-12T05:01:51Z</time>
      </trkpt>
      <trkpt lat="37.1624900" lon="-3.6286310">
        <ele>640.2</ele>
        <time>2020-07-12T05:01:54Z</time>
      </trkpt>
      <trkpt lat="37.1623830" lon="-3.6288440">
        <ele>639.8</ele>
        <time>2020-07-12T05:01:57Z</time>
      </trkpt>
      <trkpt lat="37.1622860" lon="-3.6290890">
        <ele>639.0</ele>
        <time>2020-07-12T05:02:00Z</time>
      </trkpt>
      <trkpt lat="37.1622220" lon="-3.6292690">
        <ele>638.4</ele>
        <time>2020-07-12T05:02:02Z</time>
      </trkpt>
      <trkpt lat="37.1621950" lon="-3.6293560">
        <ele>638.0</ele>
        <time>2020-07-12T05:02:03Z</time>
      </trkpt>
      <trkpt lat="37.1621450" lon="-3.6295440">
        <ele>637.2</ele>
        <time>2020-07-12T05:02:05Z</time>
      </trkpt>
      <trkpt lat="37.1620820" lon="-3.6298390">
        <ele>636.4</ele>
        <time>2020-07-12T05:02:08Z</time>
      </trkpt>
      <trkpt lat="37.1620650" lon="-3.6299280">
        <ele>636.2</ele>
        <time>2020-07-12T05:02:09Z</time>
      </trkpt>
      <trkpt lat="37.1620470" lon="-3.6300240">
        <ele>636.0</ele>
        <time>2020-07-12T05:02:10Z</time>
      </trkpt>
      <trkpt lat="37.1619970" lon="-3.6303170">
        <ele>635.2</ele>
        <time>2020-07-12T05:02:13Z</time>
      </trkpt>
      <trkpt lat="37.1619120" lon="-3.6307990">
        <ele>634.6</ele>
        <time>2020-07-12T05:02:18Z</time>
      </trkpt>
      <trkpt lat="37.1618770" lon="-3.6309890">
        <ele>634.4</ele>
        <time>2020-07-12T05:02:20Z</time>
      </trkpt>
      <trkpt lat="37.1618400" lon="-3.6311910">
        <ele>634.2</ele>
        <time>2020-07-12T05:02:22Z</time>
      </trkpt>
      <trkpt lat="37.1617000" lon="-3.6318440">
        <ele>633.4</ele>
        <time>2020-07-12T05:02:29Z</time>
      </trkpt>
      <trkpt lat="37.1616790" lon="-3.6319270">
        <ele>633.2</ele>
        <time>2020-07-12T05:02:30Z</time>
      </trkpt>
      <trkpt lat="37.1614800" lon="-3.6325950">
        <ele>633.2</ele>
        <time>2020-07-12T05:02:38Z</time>
      </trkpt>
      <trkpt lat="37.1614570" lon="-3.6326690">
        <ele>633.2</ele>
        <time>2020-07-12T05:02:39Z</time>
      </trkpt>
      <trkpt lat="37.1614060" lon="-3.6328320">
        <ele>633.2</ele>
        <time>2020-07-12T05:02:41Z</time>
      </trkpt>
      <trkpt lat="37.1612580" lon="-3.6333010">
        <ele>633.0</ele>
        <time>2020-07-12T05:02:47Z</time>
      </trkpt>
      <trkpt lat="37.1612340" lon="-3.6333770">
        <ele>633.0</ele>
        <time>2020-07-12T05:02:48Z</time>
      </trkpt>
      <trkpt lat="37.1610310" lon="-3.6340450">
        <ele>632.4</ele>
        <time>2020-07-12T05:02:57Z</time>
      </trkpt>
      <trkpt lat="37.1609680" lon="-3.6342680">
        <ele>632.4</ele>
        <time>2020-07-12T05:03:00Z</time>
      </trkpt>
      <trkpt lat="37.1607760" lon="-3.6349190">
        <ele>632.4</ele>
        <time>2020-07-12T05:03:09Z</time>
      </trkpt>
      <trkpt lat="37.1607540" lon="-3.6349920">
        <ele>632.4</ele>
        <time>2020-07-12T05:03:10Z</time>
      </trkpt>
      <trkpt lat="37.1605410" lon="-3.6356250">
        <ele>632.6</ele>
        <time>2020-07-12T05:03:19Z</time>
      </trkpt>
      <trkpt lat="37.1605170" lon="-3.6356890">
        <ele>632.6</ele>
        <time>2020-07-12T05:03:20Z</time>
      </trkpt>
      <trkpt lat="37.1602540" lon="-3.6363030">
        <ele>632.6</ele>
        <time>2020-07-12T05:03:29Z</time>
      </trkpt>
      <trkpt lat="37.1600640" lon="-3.6367130">
        <ele>632.2</ele>
        <time>2020-07-12T05:03:35Z</time>
      </trkpt>
      <trkpt lat="37.1598740" lon="-3.6371410">
        <ele>632.0</ele>
        <time>2020-07-12T05:03:41Z</time>
      </trkpt>
      <trkpt lat="37.1597750" lon="-3.6373540">
        <ele>632.0</ele>
        <time>2020-07-12T05:03:44Z</time>
      </trkpt>
      <trkpt lat="37.1595460" lon="-3.6378360">
        <ele>631.6</ele>
        <time>2020-07-12T05:03:51Z</time>
      </trkpt>
      <trkpt lat="37.1594100" lon="-3.6381180">
        <ele>631.4</ele>
        <time>2020-07-12T05:03:55Z</time>
      </trkpt>
      <trkpt lat="37.1592380" lon="-3.6384620">
        <ele>631.0</ele>
        <time>2020-07-12T05:04:00Z</time>
      </trkpt>
      <trkpt lat="37.1590260" lon="-3.6388690">
        <ele>630.6</ele>
        <time>2020-07-12T05:04:06Z</time>
      </trkpt>
      <trkpt lat="37.1587140" lon="-3.6394380">
        <ele>630.2</ele>
        <time>2020-07-12T05:04:15Z</time>
      </trkpt>
      <trkpt lat="37.1586380" lon="-3.6395730">
        <ele>630.2</ele>
        <time>2020-07-12T05:04:17Z</time>
      </trkpt>
      <trkpt lat="37.1583420" lon="-3.6401020">
        <ele>630.8</ele>
        <time>2020-07-12T05:04:26Z</time>
      </trkpt>
      <trkpt lat="37.1583100" lon="-3.6401470">
        <ele>630.8</ele>
        <time>2020-07-12T05:04:27Z</time>
      </trkpt>
      <trkpt lat="37.1581850" lon="-3.6402410">
        <ele>630.8</ele>
        <time>2020-07-12T05:04:30Z</time>
      </trkpt>
      <trkpt lat="37.1580760" lon="-3.6403690">
        <ele>630.8</ele>
        <time>2020-07-12T05:04:34Z</time>
      </trkpt>
      <trkpt lat="37.1580690" lon="-3.6405850">
        <ele>631.0</ele>
        <time>2020-07-12T05:04:38Z</time>
      </trkpt>
      <trkpt lat="37.1580220" lon="-3.6406850">
        <ele>631.0</ele>
        <time>2020-07-12T05:04:40Z</time>
      </trkpt>
      <trkpt lat="37.1579320" lon="-3.6408400">
        <ele>631.0</ele>
        <time>2020-07-12T05:04:43Z</time>
      </trkpt>
      <trkpt lat="37.1578150" lon="-3.6410630">
        <ele>631.2</ele>
        <time>2020-07-12T05:04:47Z</time>
      </trkpt>
      <trkpt lat="37.1576620" lon="-3.6413380">
        <ele>631.4</ele>
        <time>2020-07-12T05:04:52Z</time>
      </trkpt>
      <trkpt lat="37.1574450" lon="-3.6417090">
        <ele>632.2</ele>
        <time>2020-07-12T05:04:59Z</time>
      </trkpt>
      <trkpt lat="37.1573170" lon="-3.6419120">
        <ele>632.4</ele>
        <time>2020-07-12T05:05:03Z</time>
      </trkpt>
      <trkpt lat="37.1569320" lon="-3.6424100">
        <ele>632.8</ele>
        <time>2020-07-12T05:05:13Z</time>
      </trkpt>
      <trkpt lat="37.1567140" lon="-3.6426310">
        <ele>633.2</ele>
        <time>2020-07-12T05:05:18Z</time>
      </trkpt>
      <trkpt lat="37.1566270" lon="-3.6427090">
        <ele>633.4</ele>
        <time>2020-07-12T05:05:20Z</time>
      </trkpt>
      <trkpt lat="37.1562600" lon="-3.6430450">
        <ele>634.2</ele>
        <time>2020-07-12T05:05:28Z</time>
      </trkpt>
      <trkpt lat="37.1561710" lon="-3.6431240">
        <ele>634.4</ele>
        <time>2020-07-12T05:05:30Z</time>
      </trkpt>
      <trkpt lat="37.1557280" lon="-3.6435340">
        <ele>635.4</ele>
        <time>2020-07-12T05:05:40Z</time>
      </trkpt>
      <trkpt lat="37.1553520" lon="-3.6438730">
        <ele>636.4</ele>
        <time>2020-07-12T05:05:49Z</time>
      </trkpt>
      <trkpt lat="37.1552430" lon="-3.6439750">
        <ele>636.8</ele>
        <time>2020-07-12T05:05:52Z</time>
      </trkpt>
      <trkpt lat="37.1552060" lon="-3.6440040">
        <ele>636.8</ele>
        <time>2020-07-12T05:05:53Z</time>
      </trkpt>
      <trkpt lat="37.1550650" lon="-3.6440420">
        <ele>637.0</ele>
        <time>2020-07-12T05:05:56Z</time>
      </trkpt>
      <trkpt lat="37.1550160" lon="-3.6440530">
        <ele>637.2</ele>
        <time>2020-07-12T05:05:57Z</time>
      </trkpt>
      <trkpt lat="37.1549370" lon="-3.6441350">
        <ele>637.2</ele>
        <time>2020-07-12T05:05:59Z</time>
      </trkpt>
      <trkpt lat="37.1548510" lon="-3.6443250">
        <ele>637.4</ele>
        <time>2020-07-12T05:06:02Z</time>
      </trkpt>
      <trkpt lat="37.1548200" lon="-3.6443840">
        <ele>637.6</ele>
        <time>2020-07-12T05:06:03Z</time>
      </trkpt>
      <trkpt lat="37.1547820" lon="-3.6444520">
        <ele>637.8</ele>
        <time>2020-07-12T05:06:04Z</time>
      </trkpt>
      <trkpt lat="37.1546740" lon="-3.6446540">
        <ele>638.2</ele>
        <time>2020-07-12T05:06:07Z</time>
      </trkpt>
      <trkpt lat="37.1545100" lon="-3.6449280">
        <ele>638.4</ele>
        <time>2020-07-12T05:06:11Z</time>
      </trkpt>
      <trkpt lat="37.1543100" lon="-3.6453620">
        <ele>638.6</ele>
        <time>2020-07-12T05:06:17Z</time>
      </trkpt>
      <trkpt lat="37.1542580" lon="-3.6455130">
        <ele>638.6</ele>
        <time>2020-07-12T05:06:19Z</time>
      </trkpt>
      <trkpt lat="37.1540680" lon="-3.6461090">
        <ele>639.0</ele>
        <time>2020-07-12T05:06:27Z</time>
      </trkpt>
      <trkpt lat="37.1538570" lon="-3.6467880">
        <ele>639.6</ele>
        <time>2020-07-12T05:06:36Z</time>
      </trkpt>
      <trkpt lat="37.1537890" lon="-3.6470130">
        <ele>639.8</ele>
        <time>2020-07-12T05:06:39Z</time>
      </trkpt>
      <trkpt lat="37.1536900" lon="-3.6473310">
        <ele>640.2</ele>
        <time>2020-07-12T05:06:43Z</time>
      </trkpt>
      <trkpt lat="37.1536170" lon="-3.6475590">
        <ele>640.6</ele>
        <time>2020-07-12T05:06:46Z</time>
      </trkpt>
      <trkpt lat="37.1535690" lon="-3.6477080">
        <ele>640.4</ele>
        <time>2020-07-12T05:06:48Z</time>
      </trkpt>
      <trkpt lat="37.1533780" lon="-3.6482160">
        <ele>640.6</ele>
        <time>2020-07-12T05:06:55Z</time>
      </trkpt>
      <trkpt lat="37.1532850" lon="-3.6484370">
        <ele>640.8</ele>
        <time>2020-07-12T05:06:58Z</time>
      </trkpt>
      <trkpt lat="37.1529990" lon="-3.6490810">
        <ele>640.8</ele>
        <time>2020-07-12T05:07:07Z</time>
      </trkpt>
      <trkpt lat="37.1529390" lon="-3.6492160">
        <ele>641.2</ele>
        <time>2020-07-12T05:07:09Z</time>
      </trkpt>
      <trkpt lat="37.1528890" lon="-3.6493610">
        <ele>640.8</ele>
        <time>2020-07-12T05:07:11Z</time>
      </trkpt>
      <trkpt lat="37.1528520" lon="-3.6495100">
        <ele>641.0</ele>
        <time>2020-07-12T05:07:13Z</time>
      </trkpt>
      <trkpt lat="37.1528260" lon="-3.6495720">
        <ele>641.0</ele>
        <time>2020-07-12T05:07:14Z</time>
      </trkpt>
      <trkpt lat="37.1525930" lon="-3.6499940">
        <ele>641.8</ele>
        <time>2020-07-12T05:07:21Z</time>
      </trkpt>
      <trkpt lat="37.1523230" lon="-3.6506290">
        <ele>641.8</ele>
        <time>2020-07-12T05:07:31Z</time>
      </trkpt>
      <trkpt lat="37.1520100" lon="-3.6512540">
        <ele>641.8</ele>
        <time>2020-07-12T05:07:41Z</time>
      </trkpt>
      <trkpt lat="37.1516780" lon="-3.6517900">
        <ele>642.2</ele>
        <time>2020-07-12T05:07:50Z</time>
      </trkpt>
      <trkpt lat="37.1516390" lon="-3.6518460">
        <ele>642.2</ele>
        <time>2020-07-12T05:07:51Z</time>
      </trkpt>
      <trkpt lat="37.1513840" lon="-3.6521620">
        <ele>642.8</ele>
        <time>2020-07-12T05:07:57Z</time>
      </trkpt>
      <trkpt lat="37.1512070" lon="-3.6523730">
        <ele>643.0</ele>
        <time>2020-07-12T05:08:01Z</time>
      </trkpt>
      <trkpt lat="37.1508670" lon="-3.6527850">
        <ele>643.2</ele>
        <time>2020-07-12T05:08:09Z</time>
      </trkpt>
      <trkpt lat="37.1508370" lon="-3.6528430">
        <ele>643.2</ele>
        <time>2020-07-12T05:08:10Z</time>
      </trkpt>
      <trkpt lat="37.1508090" lon="-3.6529110">
        <ele>643.4</ele>
        <time>2020-07-12T05:08:11Z</time>
      </trkpt>
      <trkpt lat="37.1507580" lon="-3.6530370">
        <ele>643.4</ele>
        <time>2020-07-12T05:08:13Z</time>
      </trkpt>
      <trkpt lat="37.1506760" lon="-3.6531190">
        <ele>643.6</ele>
        <time>2020-07-12T05:08:15Z</time>
      </trkpt>
      <trkpt lat="37.1504640" lon="-3.6532450">
        <ele>643.8</ele>
        <time>2020-07-12T05:08:19Z</time>
      </trkpt>
      <trkpt lat="37.1503790" lon="-3.6533400">
        <ele>644.0</ele>
        <time>2020-07-12T05:08:21Z</time>
      </trkpt>
      <trkpt lat="37.1501160" lon="-3.6536430">
        <ele>644.2</ele>
        <time>2020-07-12T05:08:27Z</time>
      </trkpt>
      <trkpt lat="37.1498010" lon="-3.6539930">
        <ele>644.6</ele>
        <time>2020-07-12T05:08:34Z</time>
      </trkpt>
      <trkpt lat="37.1495330" lon="-3.6542820">
        <ele>644.6</ele>
        <time>2020-07-12T05:08:40Z</time>
      </trkpt>
      <trkpt lat="37.1493930" lon="-3.6544270">
        <ele>644.8</ele>
        <time>2020-07-12T05:08:43Z</time>
      </trkpt>
      <trkpt lat="37.1490330" lon="-3.6547910">
        <ele>645.0</ele>
        <time>2020-07-12T05:08:51Z</time>
      </trkpt>
      <trkpt lat="37.1485960" lon="-3.6552210">
        <ele>645.6</ele>
        <time>2020-07-12T05:09:01Z</time>
      </trkpt>
      <trkpt lat="37.1485550" lon="-3.6552630">
        <ele>645.6</ele>
        <time>2020-07-12T05:09:02Z</time>
      </trkpt>
      <trkpt lat="37.1484730" lon="-3.6553460">
        <ele>645.8</ele>
        <time>2020-07-12T05:09:04Z</time>
      </trkpt>
      <trkpt lat="37.1482690" lon="-3.6555460">
        <ele>646.8</ele>
        <time>2020-07-12T05:09:09Z</time>
      </trkpt>
      <trkpt lat="37.1481890" lon="-3.6556310">
        <ele>647.0</ele>
        <time>2020-07-12T05:09:11Z</time>
      </trkpt>
      <trkpt lat="37.1481100" lon="-3.6557060">
        <ele>647.0</ele>
        <time>2020-07-12T05:09:13Z</time>
      </trkpt>
      <trkpt lat="37.1479310" lon="-3.6558400">
        <ele>647.2</ele>
        <time>2020-07-12T05:09:17Z</time>
      </trkpt>
      <trkpt lat="37.1475690" lon="-3.6561780">
        <ele>647.8</ele>
        <time>2020-07-12T05:09:25Z</time>
      </trkpt>
      <trkpt lat="37.1471090" lon="-3.6566200">
        <ele>648.8</ele>
        <time>2020-07-12T05:09:35Z</time>
      </trkpt>
      <trkpt lat="37.1470610" lon="-3.6566660">
        <ele>648.8</ele>
        <time>2020-07-12T05:09:36Z</time>
      </trkpt>
      <trkpt lat="37.1470120" lon="-3.6567140">
        <ele>648.8</ele>
        <time>2020-07-12T05:09:37Z</time>
      </trkpt>
      <trkpt lat="37.1466270" lon="-3.6570740">
        <ele>649.8</ele>
        <time>2020-07-12T05:09:45Z</time>
      </trkpt>
      <trkpt lat="37.1464240" lon="-3.6572570">
        <ele>650.6</ele>
        <time>2020-07-12T05:09:49Z</time>
      </trkpt>
      <trkpt lat="37.1463270" lon="-3.6573350">
        <ele>651.0</ele>
        <time>2020-07-12T05:09:51Z</time>
      </trkpt>
      <trkpt lat="37.1460520" lon="-3.6574870">
        <ele>652.2</ele>
        <time>2020-07-12T05:09:56Z</time>
      </trkpt>
      <trkpt lat="37.1456190" lon="-3.6575930">
        <ele>653.2</ele>
        <time>2020-07-12T05:10:03Z</time>
      </trkpt>
      <trkpt lat="37.1450350" lon="-3.6576900">
        <ele>653.8</ele>
        <time>2020-07-12T05:10:12Z</time>
      </trkpt>
      <trkpt lat="37.1448540" lon="-3.6577210">
        <ele>654.0</ele>
        <time>2020-07-12T05:10:15Z</time>
      </trkpt>
      <trkpt lat="37.1446620" lon="-3.6577520">
        <ele>654.2</ele>
        <time>2020-07-12T05:10:18Z</time>
      </trkpt>
      <trkpt lat="37.1441310" lon="-3.6578410">
        <ele>654.8</ele>
        <time>2020-07-12T05:10:27Z</time>
      </trkpt>
      <trkpt lat="37.1436010" lon="-3.6580040">
        <ele>655.0</ele>
        <time>2020-07-12T05:10:36Z</time>
      </trkpt>
      <trkpt lat="37.1434420" lon="-3.6581020">
        <ele>655.2</ele>
        <time>2020-07-12T05:10:39Z</time>
      </trkpt>
      <trkpt lat="37.1432830" lon="-3.6582170">
        <ele>655.4</ele>
        <time>2020-07-12T05:10:42Z</time>
      </trkpt>
      <trkpt lat="37.1428090" lon="-3.6585440">
        <ele>656.2</ele>
        <time>2020-07-12T05:10:51Z</time>
      </trkpt>
      <trkpt lat="37.1427500" lon="-3.6585790">
        <ele>656.2</ele>
        <time>2020-07-12T05:10:52Z</time>
      </trkpt>
      <trkpt lat="37.1422320" lon="-3.6588240">
        <ele>656.6</ele>
        <time>2020-07-12T05:11:01Z</time>
      </trkpt>
      <trkpt lat="37.1416620" lon="-3.6590260">
        <ele>657.0</ele>
        <time>2020-07-12T05:11:11Z</time>
      </trkpt>
      <trkpt lat="37.1416030" lon="-3.6590390">
        <ele>657.0</ele>
        <time>2020-07-12T05:11:12Z</time>
      </trkpt>
      <trkpt lat="37.1413620" lon="-3.6590830">
        <ele>657.4</ele>
        <time>2020-07-12T05:11:16Z</time>
      </trkpt>
      <trkpt lat="37.1411240" lon="-3.6591240">
        <ele>658.0</ele>
        <time>2020-07-12T05:11:20Z</time>
      </trkpt>
      <trkpt lat="37.1409380" lon="-3.6591570">
        <ele>658.4</ele>
        <time>2020-07-12T05:11:23Z</time>
      </trkpt>
      <trkpt lat="37.1407120" lon="-3.6592190">
        <ele>659.2</ele>
        <time>2020-07-12T05:11:27Z</time>
      </trkpt>
      <trkpt lat="37.1405990" lon="-3.6592750">
        <ele>659.6</ele>
        <time>2020-07-12T05:11:29Z</time>
      </trkpt>
      <trkpt lat="37.1404830" lon="-3.6592940">
        <ele>659.8</ele>
        <time>2020-07-12T05:11:31Z</time>
      </trkpt>
      <trkpt lat="37.1404220" lon="-3.6592930">
        <ele>660.0</ele>
        <time>2020-07-12T05:11:32Z</time>
      </trkpt>
      <trkpt lat="37.1401720" lon="-3.6593170">
        <ele>660.6</ele>
        <time>2020-07-12T05:11:36Z</time>
      </trkpt>
      <trkpt lat="37.1401090" lon="-3.6593320">
        <ele>660.6</ele>
        <time>2020-07-12T05:11:37Z</time>
      </trkpt>
      <trkpt lat="37.1395230" lon="-3.6594050">
        <ele>661.4</ele>
        <time>2020-07-12T05:11:46Z</time>
      </trkpt>
      <trkpt lat="37.1393230" lon="-3.6593960">
        <ele>661.6</ele>
        <time>2020-07-12T05:11:49Z</time>
      </trkpt>
      <trkpt lat="37.1390580" lon="-3.6593460">
        <ele>661.8</ele>
        <time>2020-07-12T05:11:53Z</time>
      </trkpt>
      <trkpt lat="37.1386440" lon="-3.6592360">
        <ele>662.8</ele>
        <time>2020-07-12T05:12:00Z</time>
      </trkpt>
      <trkpt lat="37.1384210" lon="-3.6591760">
        <ele>663.8</ele>
        <time>2020-07-12T05:12:04Z</time>
      </trkpt>
      <trkpt lat="37.1382670" lon="-3.6591320">
        <ele>665.0</ele>
        <time>2020-07-12T05:12:07Z</time>
      </trkpt>
      <trkpt lat="37.1382170" lon="-3.6591200">
        <ele>665.2</ele>
        <time>2020-07-12T05:12:08Z</time>
      </trkpt>
      <trkpt lat="37.1380620" lon="-3.6591050">
        <ele>665.8</ele>
        <time>2020-07-12T05:12:11Z</time>
      </trkpt>
      <trkpt lat="37.1380110" lon="-3.6591120">
        <ele>666.0</ele>
        <time>2020-07-12T05:12:12Z</time>
      </trkpt>
      <trkpt lat="37.1379040" lon="-3.6591270">
        <ele>666.4</ele>
        <time>2020-07-12T05:12:14Z</time>
      </trkpt>
      <trkpt lat="37.1377150" lon="-3.6590610">
        <ele>667.0</ele>
        <time>2020-07-12T05:12:18Z</time>
      </trkpt>
      <trkpt lat="37.1376660" lon="-3.6590380">
        <ele>667.0</ele>
        <time>2020-07-12T05:12:19Z</time>
      </trkpt>
      <trkpt lat="37.1376110" lon="-3.6590230">
        <ele>667.2</ele>
        <time>2020-07-12T05:12:20Z</time>
      </trkpt>
      <trkpt lat="37.1374850" lon="-3.6590090">
        <ele>667.0</ele>
        <time>2020-07-12T05:12:22Z</time>
      </trkpt>
      <trkpt lat="37.1370290" lon="-3.6589970">
        <ele>667.6</ele>
        <time>2020-07-12T05:12:29Z</time>
      </trkpt>
      <trkpt lat="37.1369000" lon="-3.6590030">
        <ele>668.2</ele>
        <time>2020-07-12T05:12:31Z</time>
      </trkpt>
      <trkpt lat="37.1364480" lon="-3.6589720">
        <ele>669.0</ele>
        <time>2020-07-12T05:12:38Z</time>
      </trkpt>
      <trkpt lat="37.1363870" lon="-3.6589600">
        <ele>669.2</ele>
        <time>2020-07-12T05:12:39Z</time>
      </trkpt>
      <trkpt lat="37.1360030" lon="-3.6588210">
        <ele>669.8</ele>
        <time>2020-07-12T05:12:45Z</time>
      </trkpt>
      <trkpt lat="37.1358790" lon="-3.6587340">
        <ele>670.2</ele>
        <time>2020-07-12T05:12:47Z</time>
      </trkpt>
      <trkpt lat="37.1357200" lon="-3.6585830">
        <ele>670.8</ele>
        <time>2020-07-12T05:12:50Z</time>
      </trkpt>
      <trkpt lat="37.1355780" lon="-3.6583980">
        <ele>671.4</ele>
        <time>2020-07-12T05:12:53Z</time>
      </trkpt>
      <trkpt lat="37.1354610" lon="-3.6582010">
        <ele>671.6</ele>
        <time>2020-07-12T05:12:56Z</time>
      </trkpt>
      <trkpt lat="37.1351940" lon="-3.6576470">
        <ele>671.4</ele>
        <time>2020-07-12T05:13:04Z</time>
      </trkpt>
      <trkpt lat="37.1349350" lon="-3.6570920">
        <ele>672.0</ele>
        <time>2020-07-12T05:13:12Z</time>
      </trkpt>
      <trkpt lat="37.1348450" lon="-3.6568940">
        <ele>672.0</ele>
        <time>2020-07-12T05:13:15Z</time>
      </trkpt>
      <trkpt lat="37.1347790" lon="-3.6567500">
        <ele>672.4</ele>
        <time>2020-07-12T05:13:17Z</time>
      </trkpt>
      <trkpt lat="37.1345810" lon="-3.6563570">
        <ele>672.6</ele>
        <time>2020-07-12T05:13:23Z</time>
      </trkpt>
      <trkpt lat="37.1345350" lon="-3.6563050">
        <ele>672.6</ele>
        <time>2020-07-12T05:13:24Z</time>
      </trkpt>
      <trkpt lat="37.1343660" lon="-3.6562380">
        <ele>672.6</ele>
        <time>2020-07-12T05:13:27Z</time>
      </trkpt>
      <trkpt lat="37.1341350" lon="-3.6563590">
        <ele>672.6</ele>
        <time>2020-07-12T05:13:31Z</time>
      </trkpt>
      <trkpt lat="37.1340390" lon="-3.6564500">
        <ele>672.8</ele>
        <time>2020-07-12T05:13:33Z</time>
      </trkpt>
      <trkpt lat="37.1339460" lon="-3.6565440">
        <ele>672.8</ele>
        <time>2020-07-12T05:13:35Z</time>
      </trkpt>
      <trkpt lat="37.1338740" lon="-3.6566630">
        <ele>672.6</ele>
        <time>2020-07-12T05:13:37Z</time>
      </trkpt>
      <trkpt lat="37.1338110" lon="-3.6567780">
        <ele>672.6</ele>
        <time>2020-07-12T05:13:39Z</time>
      </trkpt>
      <trkpt lat="37.1337090" lon="-3.6568220">
        <ele>672.6</ele>
        <time>2020-07-12T05:13:41Z</time>
      </trkpt>
      <trkpt lat="37.1336330" lon="-3.6567460">
        <ele>672.4</ele>
        <time>2020-07-12T05:13:43Z</time>
      </trkpt>
      <trkpt lat="37.1336250" lon="-3.6565480">
        <ele>672.0</ele>
        <time>2020-07-12T05:13:46Z</time>
      </trkpt>
      <trkpt lat="37.1336160" lon="-3.6563310">
        <ele>672.0</ele>
        <time>2020-07-12T05:13:49Z</time>
      </trkpt>
      <trkpt lat="37.1335730" lon="-3.6561940">
        <ele>672.2</ele>
        <time>2020-07-12T05:13:51Z</time>
      </trkpt>
      <trkpt lat="37.1335060" lon="-3.6560560">
        <ele>672.4</ele>
        <time>2020-07-12T05:13:53Z</time>
      </trkpt>
      <trkpt lat="37.1333480" lon="-3.6558050">
        <ele>672.2</ele>
        <time>2020-07-12T05:13:57Z</time>
      </trkpt>
      <trkpt lat="37.1331070" lon="-3.6554380">
        <ele>672.0</ele>
        <time>2020-07-12T05:14:03Z</time>
      </trkpt>
      <trkpt lat="37.1329480" lon="-3.6551860">
        <ele>672.4</ele>
        <time>2020-07-12T05:14:07Z</time>
      </trkpt>
      <trkpt lat="37.1327510" lon="-3.6548800">
        <ele>673.0</ele>
        <time>2020-07-12T05:14:12Z</time>
      </trkpt>
      <trkpt lat="37.1326380" lon="-3.6547000">
        <ele>673.4</ele>
        <time>2020-07-12T05:14:15Z</time>
      </trkpt>
      <trkpt lat="37.1325930" lon="-3.6546300">
        <ele>673.6</ele>
        <time>2020-07-12T05:14:16Z</time>
      </trkpt>
      <trkpt lat="37.1325530" lon="-3.6545690">
        <ele>673.8</ele>
        <time>2020-07-12T05:14:17Z</time>
      </trkpt>
      <trkpt lat="37.1324750" lon="-3.6544440">
        <ele>674.2</ele>
        <time>2020-07-12T05:14:19Z</time>
      </trkpt>
      <trkpt lat="37.1323980" lon="-3.6543200">
        <ele>674.4</ele>
        <time>2020-07-12T05:14:21Z</time>
      </trkpt>
      <trkpt lat="37.1323180" lon="-3.6541920">
        <ele>674.6</ele>
        <time>2020-07-12T05:14:23Z</time>
      </trkpt>
      <trkpt lat="37.1322410" lon="-3.6540750">
        <ele>675.0</ele>
        <time>2020-07-12T05:14:25Z</time>
      </trkpt>
      <trkpt lat="37.1319000" lon="-3.6535450">
        <ele>675.6</ele>
        <time>2020-07-12T05:14:34Z</time>
      </trkpt>
      <trkpt lat="37.1318260" lon="-3.6534260">
        <ele>675.8</ele>
        <time>2020-07-12T05:14:36Z</time>
      </trkpt>
      <trkpt lat="37.1317160" lon="-3.6532530">
        <ele>675.8</ele>
        <time>2020-07-12T05:14:39Z</time>
      </trkpt>
      <trkpt lat="37.1313880" lon="-3.6527090">
        <ele>676.8</ele>
        <time>2020-07-12T05:14:48Z</time>
      </trkpt>
      <trkpt lat="37.1312190" lon="-3.6522280">
        <ele>677.6</ele>
        <time>2020-07-12T05:14:55Z</time>
      </trkpt>
      <trkpt lat="37.1311980" lon="-3.6521520">
        <ele>677.8</ele>
        <time>2020-07-12T05:14:56Z</time>
      </trkpt>
      <trkpt lat="37.1310240" lon="-3.6515850">
        <ele>678.8</ele>
        <time>2020-07-12T05:15:04Z</time>
      </trkpt>
      <trkpt lat="37.1309980" lon="-3.6515210">
        <ele>678.8</ele>
        <time>2020-07-12T05:15:05Z</time>
      </trkpt>
      <trkpt lat="37.1307710" lon="-3.6510580">
        <ele>679.6</ele>
        <time>2020-07-12T05:15:12Z</time>
      </trkpt>
      <trkpt lat="37.1307010" lon="-3.6509290">
        <ele>680.0</ele>
        <time>2020-07-12T05:15:14Z</time>
      </trkpt>
      <trkpt lat="37.1304630" lon="-3.6504800">
        <ele>681.2</ele>
        <time>2020-07-12T05:15:21Z</time>
      </trkpt>
      <trkpt lat="37.1304280" lon="-3.6504140">
        <ele>681.2</ele>
        <time>2020-07-12T05:15:22Z</time>
      </trkpt>
      <trkpt lat="37.1301260" lon="-3.6498510">
        <ele>682.0</ele>
        <time>2020-07-12T05:15:31Z</time>
      </trkpt>
      <trkpt lat="37.1300900" lon="-3.6497870">
        <ele>682.2</ele>
        <time>2020-07-12T05:15:32Z</time>
      </trkpt>
      <trkpt lat="37.1299400" lon="-3.6495300">
        <ele>682.6</ele>
        <time>2020-07-12T05:15:36Z</time>
      </trkpt>
      <trkpt lat="37.1297800" lon="-3.6492790">
        <ele>683.4</ele>
        <time>2020-07-12T05:15:40Z</time>
      </trkpt>
      <trkpt lat="37.1297360" lon="-3.6492150">
        <ele>683.4</ele>
        <time>2020-07-12T05:15:41Z</time>
      </trkpt>
      <trkpt lat="37.1294280" lon="-3.6487950">
        <ele>684.4</ele>
        <time>2020-07-12T05:15:48Z</time>
      </trkpt>
      <trkpt lat="37.1292010" lon="-3.6485090">
        <ele>685.2</ele>
        <time>2020-07-12T05:15:53Z</time>
      </trkpt>
      <trkpt lat="37.1290640" lon="-3.6483360">
        <ele>685.4</ele>
        <time>2020-07-12T05:15:56Z</time>
      </trkpt>
      <trkpt lat="37.1287800" lon="-3.6479820">
        <ele>686.6</ele>
        <time>2020-07-12T05:16:02Z</time>
      </trkpt>
      <trkpt lat="37.1286840" lon="-3.6478630">
        <ele>686.8</ele>
        <time>2020-07-12T05:16:04Z</time>
      </trkpt>
      <trkpt lat="37.1282560" lon="-3.6473290">
        <ele>687.6</ele>
        <time>2020-07-12T05:16:13Z</time>
      </trkpt>
      <trkpt lat="37.1282100" lon="-3.6472690">
        <ele>687.6</ele>
        <time>2020-07-12T05:16:14Z</time>
      </trkpt>
      <trkpt lat="37.1280700" lon="-3.6470930">
        <ele>687.8</ele>
        <time>2020-07-12T05:16:17Z</time>
      </trkpt>
      <trkpt lat="37.1276370" lon="-3.6465950">
        <ele>688.6</ele>
        <time>2020-07-12T05:16:26Z</time>
      </trkpt>
      <trkpt lat="37.1271940" lon="-3.6462410">
        <ele>689.0</ele>
        <time>2020-07-12T05:16:34Z</time>
      </trkpt>
      <trkpt lat="37.1269130" lon="-3.6460560">
        <ele>689.8</ele>
        <time>2020-07-12T05:16:39Z</time>
      </trkpt>
      <trkpt lat="37.1266180" lon="-3.6458750">
        <ele>690.2</ele>
        <time>2020-07-12T05:16:44Z</time>
      </trkpt>
      <trkpt lat="37.1263220" lon="-3.6456910">
        <ele>691.0</ele>
        <time>2020-07-12T05:16:49Z</time>
      </trkpt>
      <trkpt lat="37.1258730" lon="-3.6454080">
        <ele>691.8</ele>
        <time>2020-07-12T05:16:57Z</time>
      </trkpt>
      <trkpt lat="37.1256070" lon="-3.6452110">
        <ele>692.2</ele>
        <time>2020-07-12T05:17:02Z</time>
      </trkpt>
      <trkpt lat="37.1254640" lon="-3.6450770">
        <ele>692.6</ele>
        <time>2020-07-12T05:17:05Z</time>
      </trkpt>
      <trkpt lat="37.1253280" lon="-3.6449230">
        <ele>692.8</ele>
        <time>2020-07-12T05:17:08Z</time>
      </trkpt>
      <trkpt lat="37.1251720" lon="-3.6446890">
        <ele>693.2</ele>
        <time>2020-07-12T05:17:12Z</time>
      </trkpt>
      <trkpt lat="37.1251370" lon="-3.6446240">
        <ele>693.4</ele>
        <time>2020-07-12T05:17:13Z</time>
      </trkpt>
      <trkpt lat="37.1248950" lon="-3.6440810">
        <ele>693.8</ele>
        <time>2020-07-12T05:17:21Z</time>
      </trkpt>
      <trkpt lat="37.1247320" lon="-3.6436770">
        <ele>694.2</ele>
        <time>2020-07-12T05:17:27Z</time>
      </trkpt>
      <trkpt lat="37.1245970" lon="-3.6433400">
        <ele>694.8</ele>
        <time>2020-07-12T05:17:32Z</time>
      </trkpt>
      <trkpt lat="37.1244900" lon="-3.6430760">
        <ele>695.2</ele>
        <time>2020-07-12T05:17:36Z</time>
      </trkpt>
      <trkpt lat="37.1243030" lon="-3.6426160">
        <ele>696.0</ele>
        <time>2020-07-12T05:17:43Z</time>
      </trkpt>
      <trkpt lat="37.1241680" lon="-3.6422940">
        <ele>696.4</ele>
        <time>2020-07-12T05:17:48Z</time>
      </trkpt>
      <trkpt lat="37.1240520" lon="-3.6420480">
        <ele>696.8</ele>
        <time>2020-07-12T05:17:52Z</time>
      </trkpt>
      <trkpt lat="37.1238990" lon="-3.6417460">
        <ele>697.4</ele>
        <time>2020-07-12T05:17:57Z</time>
      </trkpt>
      <trkpt lat="37.1237020" lon="-3.6413760">
        <ele>698.0</ele>
        <time>2020-07-12T05:18:03Z</time>
      </trkpt>
      <trkpt lat="37.1233720" lon="-3.6408280">
        <ele>698.4</ele>
        <time>2020-07-12T05:18:12Z</time>
      </trkpt>
      <trkpt lat="37.1233340" lon="-3.6407690">
        <ele>698.4</ele>
        <time>2020-07-12T05:18:13Z</time>
      </trkpt>
      <trkpt lat="37.1230580" lon="-3.6403860">
        <ele>699.2</ele>
        <time>2020-07-12T05:18:20Z</time>
      </trkpt>
      <trkpt lat="37.1228070" lon="-3.6400720">
        <ele>699.6</ele>
        <time>2020-07-12T05:18:26Z</time>
      </trkpt>
      <trkpt lat="37.1225960" lon="-3.6398220">
        <ele>699.8</ele>
        <time>2020-07-12T05:18:31Z</time>
      </trkpt>
      <trkpt lat="37.1221660" lon="-3.6393410">
        <ele>700.6</ele>
        <time>2020-07-12T05:18:41Z</time>
      </trkpt>
      <trkpt lat="37.1220370" lon="-3.6392020">
        <ele>701.0</ele>
        <time>2020-07-12T05:18:44Z</time>
      </trkpt>
      <trkpt lat="37.1216000" lon="-3.6387550">
        <ele>701.6</ele>
        <time>2020-07-12T05:18:54Z</time>
      </trkpt>
      <trkpt lat="37.1215130" lon="-3.6386660">
        <ele>701.6</ele>
        <time>2020-07-12T05:18:56Z</time>
      </trkpt>
      <trkpt lat="37.1214720" lon="-3.6386220">
        <ele>701.8</ele>
        <time>2020-07-12T05:18:57Z</time>
      </trkpt>
      <trkpt lat="37.1210330" lon="-3.6381720">
        <ele>702.4</ele>
        <time>2020-07-12T05:19:07Z</time>
      </trkpt>
      <trkpt lat="37.1209890" lon="-3.6381280">
        <ele>702.6</ele>
        <time>2020-07-12T05:19:08Z</time>
      </trkpt>
      <trkpt lat="37.1208580" lon="-3.6379920">
        <ele>702.8</ele>
        <time>2020-07-12T05:19:11Z</time>
      </trkpt>
      <trkpt lat="37.1204650" lon="-3.6375900">
        <ele>703.8</ele>
        <time>2020-07-12T05:19:20Z</time>
      </trkpt>
      <trkpt lat="37.1204200" lon="-3.6375430">
        <ele>704.0</ele>
        <time>2020-07-12T05:19:21Z</time>
      </trkpt>
      <trkpt lat="37.1200250" lon="-3.6371400">
        <ele>705.0</ele>
        <time>2020-07-12T05:19:30Z</time>
      </trkpt>
      <trkpt lat="37.1196280" lon="-3.6367340">
        <ele>706.0</ele>
        <time>2020-07-12T05:19:39Z</time>
      </trkpt>
      <trkpt lat="37.1195370" lon="-3.6366420">
        <ele>706.4</ele>
        <time>2020-07-12T05:19:41Z</time>
      </trkpt>
      <trkpt lat="37.1193140" lon="-3.6364160">
        <ele>707.0</ele>
        <time>2020-07-12T05:19:46Z</time>
      </trkpt>
      <trkpt lat="37.1190930" lon="-3.6361900">
        <ele>708.2</ele>
        <time>2020-07-12T05:19:51Z</time>
      </trkpt>
      <trkpt lat="37.1188290" lon="-3.6359180">
        <ele>709.0</ele>
        <time>2020-07-12T05:19:57Z</time>
      </trkpt>
      <trkpt lat="37.1187820" lon="-3.6358690">
        <ele>709.2</ele>
        <time>2020-07-12T05:19:58Z</time>
      </trkpt>
      <trkpt lat="37.1184210" lon="-3.6355030">
        <ele>710.4</ele>
        <time>2020-07-12T05:20:06Z</time>
      </trkpt>
      <trkpt lat="37.1183750" lon="-3.6354560">
        <ele>710.6</ele>
        <time>2020-07-12T05:20:07Z</time>
      </trkpt>
      <trkpt lat="37.1181380" lon="-3.6352170">
        <ele>711.6</ele>
        <time>2020-07-12T05:20:12Z</time>
      </trkpt>
      <trkpt lat="37.1179080" lon="-3.6349750">
        <ele>712.6</ele>
        <time>2020-07-12T05:20:17Z</time>
      </trkpt>
      <trkpt lat="37.1178620" lon="-3.6349280">
        <ele>712.8</ele>
        <time>2020-07-12T05:20:18Z</time>
      </trkpt>
      <trkpt lat="37.1176790" lon="-3.6347390">
        <ele>713.2</ele>
        <time>2020-07-12T05:20:22Z</time>
      </trkpt>
      <trkpt lat="37.1175430" lon="-3.6345990">
        <ele>713.8</ele>
        <time>2020-07-12T05:20:25Z</time>
      </trkpt>
      <trkpt lat="37.1173580" lon="-3.6344060">
        <ele>714.4</ele>
        <time>2020-07-12T05:20:29Z</time>
      </trkpt>
      <trkpt lat="37.1172640" lon="-3.6343110">
        <ele>714.8</ele>
        <time>2020-07-12T05:20:31Z</time>
      </trkpt>
      <trkpt lat="37.1169360" lon="-3.6339750">
        <ele>715.6</ele>
        <time>2020-07-12T05:20:38Z</time>
      </trkpt>
      <trkpt lat="37.1168410" lon="-3.6338920">
        <ele>715.8</ele>
        <time>2020-07-12T05:20:40Z</time>
      </trkpt>
      <trkpt lat="37.1167310" lon="-3.6338250">
        <ele>716.0</ele>
        <time>2020-07-12T05:20:42Z</time>
      </trkpt>
      <trkpt lat="37.1166120" lon="-3.6337910">
        <ele>716.0</ele>
        <time>2020-07-12T05:20:44Z</time>
      </trkpt>
      <trkpt lat="37.1163650" lon="-3.6338130">
        <ele>716.2</ele>
        <time>2020-07-12T05:20:48Z</time>
      </trkpt>
      <trkpt lat="37.1161400" lon="-3.6339560">
        <ele>716.4</ele>
        <time>2020-07-12T05:20:52Z</time>
      </trkpt>
      <trkpt lat="37.1157200" lon="-3.6343140">
        <ele>716.4</ele>
        <time>2020-07-12T05:21:00Z</time>
      </trkpt>
      <trkpt lat="37.1155670" lon="-3.6344510">
        <ele>716.6</ele>
        <time>2020-07-12T05:21:03Z</time>
      </trkpt>
      <trkpt lat="37.1151170" lon="-3.6348400">
        <ele>717.2</ele>
        <time>2020-07-12T05:21:12Z</time>
      </trkpt>
      <trkpt lat="37.1150210" lon="-3.6349230">
        <ele>717.2</ele>
        <time>2020-07-12T05:21:14Z</time>
      </trkpt>
      <trkpt lat="37.1146410" lon="-3.6352520">
        <ele>717.6</ele>
        <time>2020-07-12T05:21:22Z</time>
      </trkpt>
      <trkpt lat="37.1142330" lon="-3.6356220">
        <ele>718.2</ele>
        <time>2020-07-12T05:21:31Z</time>
      </trkpt>
      <trkpt lat="37.1141870" lon="-3.6356660">
        <ele>718.2</ele>
        <time>2020-07-12T05:21:32Z</time>
      </trkpt>
      <trkpt lat="37.1139030" lon="-3.6359120">
        <ele>718.4</ele>
        <time>2020-07-12T05:21:38Z</time>
      </trkpt>
      <trkpt lat="37.1134530" lon="-3.6362980">
        <ele>718.6</ele>
        <time>2020-07-12T05:21:47Z</time>
      </trkpt>
      <trkpt lat="37.1129890" lon="-3.6367010">
        <ele>718.8</ele>
        <time>2020-07-12T05:21:56Z</time>
      </trkpt>
      <trkpt lat="37.1128290" lon="-3.6368360">
        <ele>719.0</ele>
        <time>2020-07-12T05:21:59Z</time>
      </trkpt>
      <trkpt lat="37.1124230" lon="-3.6371960">
        <ele>719.2</ele>
        <time>2020-07-12T05:22:07Z</time>
      </trkpt>
      <trkpt lat="37.1123750" lon="-3.6372400">
        <ele>719.4</ele>
        <time>2020-07-12T05:22:08Z</time>
      </trkpt>
      <trkpt lat="37.1121040" lon="-3.6375300">
        <ele>720.0</ele>
        <time>2020-07-12T05:22:14Z</time>
      </trkpt>
      <trkpt lat="37.1120600" lon="-3.6375680">
        <ele>720.0</ele>
        <time>2020-07-12T05:22:15Z</time>
      </trkpt>
      <trkpt lat="37.1119500" lon="-3.6376420">
        <ele>720.2</ele>
        <time>2020-07-12T05:22:17Z</time>
      </trkpt>
      <trkpt lat="37.1118470" lon="-3.6377150">
        <ele>720.4</ele>
        <time>2020-07-12T05:22:19Z</time>
      </trkpt>
      <trkpt lat="37.1115150" lon="-3.6379980">
        <ele>721.0</ele>
        <time>2020-07-12T05:22:26Z</time>
      </trkpt>
      <trkpt lat="37.1113340" lon="-3.6381500">
        <ele>721.2</ele>
        <time>2020-07-12T05:22:30Z</time>
      </trkpt>
      <trkpt lat="37.1110020" lon="-3.6384240">
        <ele>721.8</ele>
        <time>2020-07-12T05:22:37Z</time>
      </trkpt>
      <trkpt lat="37.1108660" lon="-3.6385380">
        <ele>722.2</ele>
        <time>2020-07-12T05:22:40Z</time>
      </trkpt>
      <trkpt lat="37.1106400" lon="-3.6387360">
        <ele>723.0</ele>
        <time>2020-07-12T05:22:45Z</time>
      </trkpt>
      <trkpt lat="37.1103610" lon="-3.6389780">
        <ele>723.4</ele>
        <time>2020-07-12T05:22:51Z</time>
      </trkpt>
      <trkpt lat="37.1101760" lon="-3.6391340">
        <ele>724.0</ele>
        <time>2020-07-12T05:22:55Z</time>
      </trkpt>
      <trkpt lat="37.1099860" lon="-3.6392980">
        <ele>724.4</ele>
        <time>2020-07-12T05:22:59Z</time>
      </trkpt>
      <trkpt lat="37.1097050" lon="-3.6395460">
        <ele>725.0</ele>
        <time>2020-07-12T05:23:05Z</time>
      </trkpt>
      <trkpt lat="37.1094130" lon="-3.6398020">
        <ele>725.4</ele>
        <time>2020-07-12T05:23:11Z</time>
      </trkpt>
      <trkpt lat="37.1092690" lon="-3.6399280">
        <ele>725.8</ele>
        <time>2020-07-12T05:23:14Z</time>
      </trkpt>
      <trkpt lat="37.1088960" lon="-3.6402540">
        <ele>726.6</ele>
        <time>2020-07-12T05:23:22Z</time>
      </trkpt>
      <trkpt lat="37.1087600" lon="-3.6403710">
        <ele>726.6</ele>
        <time>2020-07-12T05:23:25Z</time>
      </trkpt>
      <trkpt lat="37.1084890" lon="-3.6406240">
        <ele>726.8</ele>
        <time>2020-07-12T05:23:31Z</time>
      </trkpt>
      <trkpt lat="37.1084070" lon="-3.6407070">
        <ele>727.0</ele>
        <time>2020-07-12T05:23:33Z</time>
      </trkpt>
      <trkpt lat="37.1083570" lon="-3.6407450">
        <ele>727.2</ele>
        <time>2020-07-12T05:23:34Z</time>
      </trkpt>
      <trkpt lat="37.1080110" lon="-3.6410210">
        <ele>727.4</ele>
        <time>2020-07-12T05:23:41Z</time>
      </trkpt>
      <trkpt lat="37.1079620" lon="-3.6410630">
        <ele>727.6</ele>
        <time>2020-07-12T05:23:42Z</time>
      </trkpt>
      <trkpt lat="37.1076350" lon="-3.6413480">
        <ele>728.6</ele>
        <time>2020-07-12T05:23:49Z</time>
      </trkpt>
      <trkpt lat="37.1075050" lon="-3.6414630">
        <ele>729.2</ele>
        <time>2020-07-12T05:23:52Z</time>
      </trkpt>
      <trkpt lat="37.1073400" lon="-3.6416000">
        <ele>729.8</ele>
        <time>2020-07-12T05:23:56Z</time>
      </trkpt>
      <trkpt lat="37.1072260" lon="-3.6417030">
        <ele>730.4</ele>
        <time>2020-07-12T05:23:59Z</time>
      </trkpt>
      <trkpt lat="37.1071070" lon="-3.6418040">
        <ele>731.0</ele>
        <time>2020-07-12T05:24:02Z</time>
      </trkpt>
      <trkpt lat="37.1070010" lon="-3.6418960">
        <ele>731.4</ele>
        <time>2020-07-12T05:24:05Z</time>
      </trkpt>
      <trkpt lat="37.1068960" lon="-3.6419880">
        <ele>732.2</ele>
        <time>2020-07-12T05:24:08Z</time>
      </trkpt>
      <trkpt lat="37.1067600" lon="-3.6421060">
        <ele>733.2</ele>
        <time>2020-07-12T05:24:12Z</time>
      </trkpt>
      <trkpt lat="37.1066840" lon="-3.6421670">
        <ele>733.4</ele>
        <time>2020-07-12T05:24:14Z</time>
      </trkpt>
      <trkpt lat="37.1065730" lon="-3.6422520">
        <ele>733.8</ele>
        <time>2020-07-12T05:24:17Z</time>
      </trkpt>
      <trkpt lat="37.1064960" lon="-3.6423170">
        <ele>733.8</ele>
        <time>2020-07-12T05:24:19Z</time>
      </trkpt>
      <trkpt lat="37.1063940" lon="-3.6424410">
        <ele>733.6</ele>
        <time>2020-07-12T05:24:22Z</time>
      </trkpt>
      <trkpt lat="37.1063110" lon="-3.6425980">
        <ele>734.0</ele>
        <time>2020-07-12T05:24:25Z</time>
      </trkpt>
      <trkpt lat="37.1062710" lon="-3.6427270">
        <ele>733.8</ele>
        <time>2020-07-12T05:24:27Z</time>
      </trkpt>
      <trkpt lat="37.1062570" lon="-3.6427950">
        <ele>733.8</ele>
        <time>2020-07-12T05:24:28Z</time>
      </trkpt>
      <trkpt lat="37.1061750" lon="-3.6430770">
        <ele>733.2</ele>
        <time>2020-07-12T05:24:32Z</time>
      </trkpt>
      <trkpt lat="37.1060970" lon="-3.6433170">
        <ele>732.2</ele>
        <time>2020-07-12T05:24:35Z</time>
      </trkpt>
      <trkpt lat="37.1059980" lon="-3.6435650">
        <ele>731.6</ele>
        <time>2020-07-12T05:24:38Z</time>
      </trkpt>
      <trkpt lat="37.1057820" lon="-3.6438240">
        <ele>731.2</ele>
        <time>2020-07-12T05:24:42Z</time>
      </trkpt>
      <trkpt lat="37.1057170" lon="-3.6438690">
        <ele>731.2</ele>
        <time>2020-07-12T05:24:43Z</time>
      </trkpt>
      <trkpt lat="37.1056500" lon="-3.6439050">
        <ele>731.2</ele>
        <time>2020-07-12T05:24:44Z</time>
      </trkpt>
      <trkpt lat="37.1055110" lon="-3.6439570">
        <ele>731.2</ele>
        <time>2020-07-12T05:24:46Z</time>
      </trkpt>
      <trkpt lat="37.1054400" lon="-3.6439780">
        <ele>731.2</ele>
        <time>2020-07-12T05:24:47Z</time>
      </trkpt>
      <trkpt lat="37.1051600" lon="-3.6440600">
        <ele>731.0</ele>
        <time>2020-07-12T05:24:51Z</time>
      </trkpt>
      <trkpt lat="37.1048860" lon="-3.6441490">
        <ele>730.8</ele>
        <time>2020-07-12T05:24:55Z</time>
      </trkpt>
      <trkpt lat="37.1047510" lon="-3.6441960">
        <ele>730.8</ele>
        <time>2020-07-12T05:24:57Z</time>
      </trkpt>
      <trkpt lat="37.1045560" lon="-3.6442640">
        <ele>731.0</ele>
        <time>2020-07-12T05:25:00Z</time>
      </trkpt>
      <trkpt lat="37.1044910" lon="-3.6442830">
        <ele>731.0</ele>
        <time>2020-07-12T05:25:01Z</time>
      </trkpt>
      <trkpt lat="37.1042370" lon="-3.6443720">
        <ele>731.0</ele>
        <time>2020-07-12T05:25:05Z</time>
      </trkpt>
      <trkpt lat="37.1037130" lon="-3.6445490">
        <ele>730.8</ele>
        <time>2020-07-12T05:25:13Z</time>
      </trkpt>
      <trkpt lat="37.1032550" lon="-3.6446990">
        <ele>730.8</ele>
        <time>2020-07-12T05:25:20Z</time>
      </trkpt>
      <trkpt lat="37.1027630" lon="-3.6448660">
        <ele>730.2</ele>
        <time>2020-07-12T05:25:27Z</time>
      </trkpt>
      <trkpt lat="37.1025550" lon="-3.6449360">
        <ele>730.2</ele>
        <time>2020-07-12T05:25:30Z</time>
      </trkpt>
      <trkpt lat="37.1019930" lon="-3.6451280">
        <ele>730.2</ele>
        <time>2020-07-12T05:25:38Z</time>
      </trkpt>
      <trkpt lat="37.1018590" lon="-3.6451730">
        <ele>730.0</ele>
        <time>2020-07-12T05:25:40Z</time>
      </trkpt>
      <trkpt lat="37.1015800" lon="-3.6452700">
        <ele>729.8</ele>
        <time>2020-07-12T05:25:44Z</time>
      </trkpt>
      <trkpt lat="37.1012480" lon="-3.6453840">
        <ele>730.2</ele>
        <time>2020-07-12T05:25:49Z</time>
      </trkpt>
      <trkpt lat="37.1007360" lon="-3.6455610">
        <ele>730.6</ele>
        <time>2020-07-12T05:25:57Z</time>
      </trkpt>
      <trkpt lat="37.1005450" lon="-3.6456400">
        <ele>730.8</ele>
        <time>2020-07-12T05:26:00Z</time>
      </trkpt>
      <trkpt lat="37.1003620" lon="-3.6457610">
        <ele>731.0</ele>
        <time>2020-07-12T05:26:03Z</time>
      </trkpt>
      <trkpt lat="37.1002570" lon="-3.6458720">
        <ele>731.0</ele>
        <time>2020-07-12T05:26:05Z</time>
      </trkpt>
      <trkpt lat="37.1001380" lon="-3.6460760">
        <ele>731.2</ele>
        <time>2020-07-12T05:26:08Z</time>
      </trkpt>
      <trkpt lat="37.1001060" lon="-3.6461440">
        <ele>731.4</ele>
        <time>2020-07-12T05:26:09Z</time>
      </trkpt>
      <trkpt lat="37.0998490" lon="-3.6467420">
        <ele>731.6</ele>
        <time>2020-07-12T05:26:17Z</time>
      </trkpt>
      <trkpt lat="37.0997560" lon="-3.6469600">
        <ele>731.6</ele>
        <time>2020-07-12T05:26:20Z</time>
      </trkpt>
      <trkpt lat="37.0995000" lon="-3.6475580">
        <ele>731.8</ele>
        <time>2020-07-12T05:26:28Z</time>
      </trkpt>
      <trkpt lat="37.0992920" lon="-3.6479850">
        <ele>732.2</ele>
        <time>2020-07-12T05:26:34Z</time>
      </trkpt>
      <trkpt lat="37.0992530" lon="-3.6480420">
        <ele>732.2</ele>
        <time>2020-07-12T05:26:35Z</time>
      </trkpt>
      <trkpt lat="37.0990450" lon="-3.6482360">
        <ele>732.6</ele>
        <time>2020-07-12T05:26:39Z</time>
      </trkpt>
      <trkpt lat="37.0988630" lon="-3.6483140">
        <ele>733.4</ele>
        <time>2020-07-12T05:26:42Z</time>
      </trkpt>
      <trkpt lat="37.0988010" lon="-3.6483250">
        <ele>733.4</ele>
        <time>2020-07-12T05:26:43Z</time>
      </trkpt>
      <trkpt lat="37.0986160" lon="-3.6483340">
        <ele>734.0</ele>
        <time>2020-07-12T05:26:46Z</time>
      </trkpt>
      <trkpt lat="37.0984280" lon="-3.6483270">
        <ele>734.2</ele>
        <time>2020-07-12T05:26:49Z</time>
      </trkpt>
      <trkpt lat="37.0983690" lon="-3.6483230">
        <ele>734.4</ele>
        <time>2020-07-12T05:26:50Z</time>
      </trkpt>
      <trkpt lat="37.0980590" lon="-3.6483010">
        <ele>735.0</ele>
        <time>2020-07-12T05:26:55Z</time>
      </trkpt>
      <trkpt lat="37.0978640" lon="-3.6482900">
        <ele>735.4</ele>
        <time>2020-07-12T05:26:58Z</time>
      </trkpt>
      <trkpt lat="37.0975030" lon="-3.6482630">
        <ele>736.2</ele>
        <time>2020-07-12T05:27:04Z</time>
      </trkpt>
      <trkpt lat="37.0974480" lon="-3.6482610">
        <ele>736.4</ele>
        <time>2020-07-12T05:27:05Z</time>
      </trkpt>
      <trkpt lat="37.0969530" lon="-3.6482290">
        <ele>737.4</ele>
        <time>2020-07-12T05:27:13Z</time>
      </trkpt>
      <trkpt lat="37.0968910" lon="-3.6482250">
        <ele>737.4</ele>
        <time>2020-07-12T05:27:14Z</time>
      </trkpt>
      <trkpt lat="37.0963970" lon="-3.6481880">
        <ele>738.0</ele>
        <time>2020-07-12T05:27:22Z</time>
      </trkpt>
      <trkpt lat="37.0959550" lon="-3.6481620">
        <ele>738.2</ele>
        <time>2020-07-12T05:27:29Z</time>
      </trkpt>
      <trkpt lat="37.0958990" lon="-3.6481570">
        <ele>738.4</ele>
        <time>2020-07-12T05:27:30Z</time>
      </trkpt>
      <trkpt lat="37.0957110" lon="-3.6481470">
        <ele>738.6</ele>
        <time>2020-07-12T05:27:33Z</time>
      </trkpt>
      <trkpt lat="37.0952130" lon="-3.6481120">
        <ele>739.0</ele>
        <time>2020-07-12T05:27:41Z</time>
      </trkpt>
      <trkpt lat="37.0948990" lon="-3.6480880">
        <ele>739.2</ele>
        <time>2020-07-12T05:27:46Z</time>
      </trkpt>
      <trkpt lat="37.0944020" lon="-3.6480460">
        <ele>739.8</ele>
        <time>2020-07-12T05:27:54Z</time>
      </trkpt>
      <trkpt lat="37.0938540" lon="-3.6479820">
        <ele>740.4</ele>
        <time>2020-07-12T05:28:03Z</time>
      </trkpt>
      <trkpt lat="37.0938040" lon="-3.6479590">
        <ele>740.4</ele>
        <time>2020-07-12T05:28:04Z</time>
      </trkpt>
      <trkpt lat="37.0936580" lon="-3.6478250">
        <ele>740.8</ele>
        <time>2020-07-12T05:28:07Z</time>
      </trkpt>
      <trkpt lat="37.0936240" lon="-3.6477700">
        <ele>740.8</ele>
        <time>2020-07-12T05:28:08Z</time>
      </trkpt>
      <trkpt lat="37.0935930" lon="-3.6477170">
        <ele>741.0</ele>
        <time>2020-07-12T05:28:09Z</time>
      </trkpt>
      <trkpt lat="37.0935670" lon="-3.6476580">
        <ele>741.0</ele>
        <time>2020-07-12T05:28:10Z</time>
      </trkpt>
      <trkpt lat="37.0934930" lon="-3.6474960">
        <ele>741.4</ele>
        <time>2020-07-12T05:28:13Z</time>
      </trkpt>
      <trkpt lat="37.0933950" lon="-3.6474380">
        <ele>741.6</ele>
        <time>2020-07-12T05:28:15Z</time>
      </trkpt>
      <trkpt lat="37.0932220" lon="-3.6474750">
        <ele>741.8</ele>
        <time>2020-07-12T05:28:18Z</time>
      </trkpt>
      <trkpt lat="37.0929390" lon="-3.6475730">
        <ele>742.4</ele>
        <time>2020-07-12T05:28:23Z</time>
      </trkpt>
      <trkpt lat="37.0928320" lon="-3.6475930">
        <ele>742.8</ele>
        <time>2020-07-12T05:28:25Z</time>
      </trkpt>
      <trkpt lat="37.0926650" lon="-3.6476090">
        <ele>743.2</ele>
        <time>2020-07-12T05:28:28Z</time>
      </trkpt>
      <trkpt lat="37.0924450" lon="-3.6476160">
        <ele>744.0</ele>
        <time>2020-07-12T05:28:32Z</time>
      </trkpt>
      <trkpt lat="37.0923920" lon="-3.6476170">
        <ele>744.2</ele>
        <time>2020-07-12T05:28:33Z</time>
      </trkpt>
      <trkpt lat="37.0920650" lon="-3.6476320">
        <ele>745.0</ele>
        <time>2020-07-12T05:28:39Z</time>
      </trkpt>
      <trkpt lat="37.0918940" lon="-3.6476390">
        <ele>745.6</ele>
        <time>2020-07-12T05:28:42Z</time>
      </trkpt>
      <trkpt lat="37.0917300" lon="-3.6476500">
        <ele>746.2</ele>
        <time>2020-07-12T05:28:45Z</time>
      </trkpt>
      <trkpt lat="37.0914480" lon="-3.6476630">
        <ele>747.0</ele>
        <time>2020-07-12T05:28:50Z</time>
      </trkpt>
      <trkpt lat="37.0913860" lon="-3.6476660">
        <ele>747.2</ele>
        <time>2020-07-12T05:28:51Z</time>
      </trkpt>
      <trkpt lat="37.0909510" lon="-3.6476940">
        <ele>748.0</ele>
        <time>2020-07-12T05:28:59Z</time>
      </trkpt>
      <trkpt lat="37.0909020" lon="-3.6476970">
        <ele>748.2</ele>
        <time>2020-07-12T05:29:00Z</time>
      </trkpt>
      <trkpt lat="37.0905680" lon="-3.6477070">
        <ele>749.4</ele>
        <time>2020-07-12T05:29:06Z</time>
      </trkpt>
      <trkpt lat="37.0904570" lon="-3.6477130">
        <ele>749.6</ele>
        <time>2020-07-12T05:29:08Z</time>
      </trkpt>
      <trkpt lat="37.0901810" lon="-3.6477360">
        <ele>750.4</ele>
        <time>2020-07-12T05:29:13Z</time>
      </trkpt>
      <trkpt lat="37.0898600" lon="-3.6477930">
        <ele>751.4</ele>
        <time>2020-07-12T05:29:19Z</time>
      </trkpt>
      <trkpt lat="37.0898160" lon="-3.6478040">
        <ele>751.4</ele>
        <time>2020-07-12T05:29:20Z</time>
      </trkpt>
      <trkpt lat="37.0895030" lon="-3.6479060">
        <ele>752.4</ele>
        <time>2020-07-12T05:29:26Z</time>
      </trkpt>
      <trkpt lat="37.0894540" lon="-3.6479280">
        <ele>752.6</ele>
        <time>2020-07-12T05:29:27Z</time>
      </trkpt>
      <trkpt lat="37.0891400" lon="-3.6480650">
        <ele>753.6</ele>
        <time>2020-07-12T05:29:33Z</time>
      </trkpt>
      <trkpt lat="37.0889190" lon="-3.6481550">
        <ele>754.2</ele>
        <time>2020-07-12T05:29:37Z</time>
      </trkpt>
      <trkpt lat="37.0885360" lon="-3.6482110">
        <ele>754.6</ele>
        <time>2020-07-12T05:29:43Z</time>
      </trkpt>
      <trkpt lat="37.0879840" lon="-3.6481780">
        <ele>753.8</ele>
        <time>2020-07-12T05:29:51Z</time>
      </trkpt>
      <trkpt lat="37.0879210" lon="-3.6481730">
        <ele>753.6</ele>
        <time>2020-07-12T05:29:52Z</time>
      </trkpt>
      <trkpt lat="37.0876330" lon="-3.6481540">
        <ele>753.6</ele>
        <time>2020-07-12T05:29:56Z</time>
      </trkpt>
      <trkpt lat="37.0872880" lon="-3.6481270">
        <ele>753.6</ele>
        <time>2020-07-12T05:30:01Z</time>
      </trkpt>
      <trkpt lat="37.0872220" lon="-3.6481240">
        <ele>753.8</ele>
        <time>2020-07-12T05:30:02Z</time>
      </trkpt>
      <trkpt lat="37.0867700" lon="-3.6480800">
        <ele>754.4</ele>
        <time>2020-07-12T05:30:09Z</time>
      </trkpt>
      <trkpt lat="37.0866410" lon="-3.6480600">
        <ele>754.8</ele>
        <time>2020-07-12T05:30:11Z</time>
      </trkpt>
      <trkpt lat="37.0865760" lon="-3.6480490">
        <ele>755.0</ele>
        <time>2020-07-12T05:30:12Z</time>
      </trkpt>
      <trkpt lat="37.0861980" lon="-3.6479720">
        <ele>755.8</ele>
        <time>2020-07-12T05:30:18Z</time>
      </trkpt>
      <trkpt lat="37.0858210" lon="-3.6478880">
        <ele>756.2</ele>
        <time>2020-07-12T05:30:24Z</time>
      </trkpt>
      <trkpt lat="37.0854240" lon="-3.6477150">
        <ele>756.8</ele>
        <time>2020-07-12T05:30:31Z</time>
      </trkpt>
      <trkpt lat="37.0853750" lon="-3.6476830">
        <ele>757.0</ele>
        <time>2020-07-12T05:30:32Z</time>
      </trkpt>
      <trkpt lat="37.0852450" lon="-3.6475770">
        <ele>757.4</ele>
        <time>2020-07-12T05:30:35Z</time>
      </trkpt>
      <trkpt lat="37.0851570" lon="-3.6474890">
        <ele>757.8</ele>
        <time>2020-07-12T05:30:37Z</time>
      </trkpt>
      <trkpt lat="37.0851170" lon="-3.6474500">
        <ele>758.0</ele>
        <time>2020-07-12T05:30:38Z</time>
      </trkpt>
      <trkpt lat="37.0850750" lon="-3.6474180">
        <ele>758.4</ele>
        <time>2020-07-12T05:30:39Z</time>
      </trkpt>
      <trkpt lat="37.0849360" lon="-3.6473810">
        <ele>758.8</ele>
        <time>2020-07-12T05:30:42Z</time>
      </trkpt>
      <trkpt lat="37.0848380" lon="-3.6474230">
        <ele>759.0</ele>
        <time>2020-07-12T05:30:44Z</time>
      </trkpt>
      <trkpt lat="37.0847930" lon="-3.6474500">
        <ele>759.0</ele>
        <time>2020-07-12T05:30:45Z</time>
      </trkpt>
      <trkpt lat="37.0847450" lon="-3.6474800">
        <ele>759.0</ele>
        <time>2020-07-12T05:30:46Z</time>
      </trkpt>
      <trkpt lat="37.0846960" lon="-3.6475200">
        <ele>759.0</ele>
        <time>2020-07-12T05:30:47Z</time>
      </trkpt>
      <trkpt lat="37.0846440" lon="-3.6476350">
        <ele>758.8</ele>
        <time>2020-07-12T05:30:49Z</time>
      </trkpt>
      <trkpt lat="37.0846580" lon="-3.6478470">
        <ele>758.8</ele>
        <time>2020-07-12T05:30:52Z</time>
      </trkpt>
      <trkpt lat="37.0846370" lon="-3.6482550">
        <ele>758.2</ele>
        <time>2020-07-12T05:30:57Z</time>
      </trkpt>
      <trkpt lat="37.0846050" lon="-3.6484090">
        <ele>758.0</ele>
        <time>2020-07-12T05:30:59Z</time>
      </trkpt>
      <trkpt lat="37.0845390" lon="-3.6485370">
        <ele>758.0</ele>
        <time>2020-07-12T05:31:01Z</time>
      </trkpt>
      <trkpt lat="37.0844490" lon="-3.6486250">
        <ele>758.4</ele>
        <time>2020-07-12T05:31:03Z</time>
      </trkpt>
      <trkpt lat="37.0843640" lon="-3.6486890">
        <ele>758.8</ele>
        <time>2020-07-12T05:31:05Z</time>
      </trkpt>
      <trkpt lat="37.0843180" lon="-3.6487290">
        <ele>759.2</ele>
        <time>2020-07-12T05:31:06Z</time>
      </trkpt>
      <trkpt lat="37.0841750" lon="-3.6488860">
        <ele>760.2</ele>
        <time>2020-07-12T05:31:10Z</time>
      </trkpt>
      <trkpt lat="37.0840610" lon="-3.6489980">
        <ele>761.0</ele>
        <time>2020-07-12T05:31:13Z</time>
      </trkpt>
      <trkpt lat="37.0839730" lon="-3.6490100">
        <ele>761.2</ele>
        <time>2020-07-12T05:31:15Z</time>
      </trkpt>
      <trkpt lat="37.0838310" lon="-3.6489330">
        <ele>762.0</ele>
        <time>2020-07-12T05:31:18Z</time>
      </trkpt>
      <trkpt lat="37.0837810" lon="-3.6489020">
        <ele>762.2</ele>
        <time>2020-07-12T05:31:19Z</time>
      </trkpt>
      <trkpt lat="37.0833880" lon="-3.6486350">
        <ele>762.4</ele>
        <time>2020-07-12T05:31:27Z</time>
      </trkpt>
      <trkpt lat="37.0833490" lon="-3.6486070">
        <ele>762.4</ele>
        <time>2020-07-12T05:31:28Z</time>
      </trkpt>
      <trkpt lat="37.0831320" lon="-3.6484820">
        <ele>763.4</ele>
        <time>2020-07-12T05:31:33Z</time>
      </trkpt>
      <trkpt lat="37.0830960" lon="-3.6484690">
        <ele>764.0</ele>
        <time>2020-07-12T05:31:34Z</time>
      </trkpt>
      <trkpt lat="37.0830170" lon="-3.6484510">
        <ele>764.8</ele>
        <time>2020-07-12T05:31:36Z</time>
      </trkpt>
      <trkpt lat="37.0828810" lon="-3.6484360">
        <ele>765.6</ele>
        <time>2020-07-12T05:31:40Z</time>
      </trkpt>
      <trkpt lat="37.0828440" lon="-3.6484330">
        <ele>766.0</ele>
        <time>2020-07-12T05:31:41Z</time>
      </trkpt>
      <trkpt lat="37.0827200" lon="-3.6484270">
        <ele>767.0</ele>
        <time>2020-07-12T05:31:45Z</time>
      </trkpt>
      <trkpt lat="37.0825300" lon="-3.6484230">
        <ele>768.0</ele>
        <time>2020-07-12T05:31:51Z</time>
      </trkpt>
      <trkpt lat="37.0825020" lon="-3.6484230">
        <ele>768.0</ele>
        <time>2020-07-12T05:31:52Z</time>
      </trkpt>
      <trkpt lat="37.0823480" lon="-3.6484190">
        <ele>769.2</ele>
        <time>2020-07-12T05:31:57Z</time>
      </trkpt>
      <trkpt lat="37.0822280" lon="-3.6484180">
        <ele>769.8</ele>
        <time>2020-07-12T05:32:01Z</time>
      </trkpt>
      <trkpt lat="37.0821660" lon="-3.6484170">
        <ele>770.2</ele>
        <time>2020-07-12T05:32:03Z</time>
      </trkpt>
      <trkpt lat="37.0820430" lon="-3.6484100">
        <ele>771.2</ele>
        <time>2020-07-12T05:32:07Z</time>
      </trkpt>
      <trkpt lat="37.0818610" lon="-3.6484050">
        <ele>772.4</ele>
        <time>2020-07-12T05:32:13Z</time>
      </trkpt>
      <trkpt lat="37.0818320" lon="-3.6484030">
        <ele>772.6</ele>
        <time>2020-07-12T05:32:14Z</time>
      </trkpt>
      <trkpt lat="37.0817090" lon="-3.6483980">
        <ele>773.4</ele>
        <time>2020-07-12T05:32:18Z</time>
      </trkpt>
      <trkpt lat="37.0815380" lon="-3.6483940">
        <ele>774.4</ele>
        <time>2020-07-12T05:32:23Z</time>
      </trkpt>
      <trkpt lat="37.0815030" lon="-3.6483930">
        <ele>774.6</ele>
        <time>2020-07-12T05:32:24Z</time>
      </trkpt>
      <trkpt lat="37.0812880" lon="-3.6483950">
        <ele>775.8</ele>
        <time>2020-07-12T05:32:30Z</time>
      </trkpt>
      <trkpt lat="37.0810950" lon="-3.6484050">
        <ele>775.8</ele>
        <time>2020-07-12T05:32:35Z</time>
      </trkpt>
      <trkpt lat="37.0807370" lon="-3.6484480">
        <ele>776.8</ele>
        <time>2020-07-12T05:32:44Z</time>
      </trkpt>
      <trkpt lat="37.0806610" lon="-3.6484570">
        <ele>777.2</ele>
        <time>2020-07-12T05:32:46Z</time>
      </trkpt>
      <trkpt lat="37.0804190" lon="-3.6484950">
        <ele>777.2</ele>
        <time>2020-07-12T05:32:52Z</time>
      </trkpt>
      <trkpt lat="37.0802970" lon="-3.6485120">
        <ele>777.6</ele>
        <time>2020-07-12T05:32:55Z</time>
      </trkpt>
      <trkpt lat="37.0800120" lon="-3.6485570">
        <ele>778.0</ele>
        <time>2020-07-12T05:33:02Z</time>
      </trkpt>
      <trkpt lat="37.0798940" lon="-3.6485760">
        <ele>778.2</ele>
        <time>2020-07-12T05:33:05Z</time>
      </trkpt>
      <trkpt lat="37.0795360" lon="-3.6486350">
        <ele>779.0</ele>
        <time>2020-07-12T05:33:14Z</time>
      </trkpt>
      <trkpt lat="37.0794590" lon="-3.6486480">
        <ele>779.4</ele>
        <time>2020-07-12T05:33:16Z</time>
      </trkpt>
      <trkpt lat="37.0791810" lon="-3.6487000">
        <ele>780.2</ele>
        <time>2020-07-12T05:33:23Z</time>
      </trkpt>
      <trkpt lat="37.0790650" lon="-3.6487210">
        <ele>781.0</ele>
        <time>2020-07-12T05:33:26Z</time>
      </trkpt>
      <trkpt lat="37.0789170" lon="-3.6487510">
        <ele>781.4</ele>
        <time>2020-07-12T05:33:30Z</time>
      </trkpt>
      <trkpt lat="37.0787310" lon="-3.6487830">
        <ele>782.4</ele>
        <time>2020-07-12T05:33:35Z</time>
      </trkpt>
      <trkpt lat="37.0786930" lon="-3.6487910">
        <ele>782.4</ele>
        <time>2020-07-12T05:33:36Z</time>
      </trkpt>
      <trkpt lat="37.0784250" lon="-3.6488390">
        <ele>783.4</ele>
        <time>2020-07-12T05:33:43Z</time>
      </trkpt>
      <trkpt lat="37.0783860" lon="-3.6488450">
        <ele>783.8</ele>
        <time>2020-07-12T05:33:44Z</time>
      </trkpt>
      <trkpt lat="37.0783490" lon="-3.6488520">
        <ele>784.0</ele>
        <time>2020-07-12T05:33:45Z</time>
      </trkpt>
      <trkpt lat="37.0782720" lon="-3.6488660">
        <ele>784.6</ele>
        <time>2020-07-12T05:33:47Z</time>
      </trkpt>
      <trkpt lat="37.0780860" lon="-3.6488980">
        <ele>785.6</ele>
        <time>2020-07-12T05:33:52Z</time>
      </trkpt>
      <trkpt lat="37.0780480" lon="-3.6489050">
        <ele>785.8</ele>
        <time>2020-07-12T05:33:53Z</time>
      </trkpt>
      <trkpt lat="37.0779380" lon="-3.6489240">
        <ele>786.8</ele>
        <time>2020-07-12T05:33:56Z</time>
      </trkpt>
      <trkpt lat="37.0779010" lon="-3.6489300">
        <ele>787.0</ele>
        <time>2020-07-12T05:33:57Z</time>
      </trkpt>
      <trkpt lat="37.0777550" lon="-3.6489560">
        <ele>788.0</ele>
        <time>2020-07-12T05:34:01Z</time>
      </trkpt>
      <trkpt lat="37.0775730" lon="-3.6489850">
        <ele>788.8</ele>
        <time>2020-07-12T05:34:06Z</time>
      </trkpt>
      <trkpt lat="37.0775370" lon="-3.6489920">
        <ele>789.0</ele>
        <time>2020-07-12T05:34:07Z</time>
      </trkpt>
      <trkpt lat="37.0773210" lon="-3.6490300">
        <ele>789.8</ele>
        <time>2020-07-12T05:34:13Z</time>
      </trkpt>
      <trkpt lat="37.0772530" lon="-3.6490430">
        <ele>790.4</ele>
        <time>2020-07-12T05:34:15Z</time>
      </trkpt>
      <trkpt lat="37.0771820" lon="-3.6490560">
        <ele>790.8</ele>
        <time>2020-07-12T05:34:17Z</time>
      </trkpt>
      <trkpt lat="37.0771480" lon="-3.6490620">
        <ele>791.4</ele>
        <time>2020-07-12T05:34:18Z</time>
      </trkpt>
      <trkpt lat="37.0769090" lon="-3.6491040">
        <ele>792.0</ele>
        <time>2020-07-12T05:34:25Z</time>
      </trkpt>
      <trkpt lat="37.0768730" lon="-3.6491120">
        <ele>792.2</ele>
        <time>2020-07-12T05:34:26Z</time>
      </trkpt>
      <trkpt lat="37.0768060" lon="-3.6491240">
        <ele>792.4</ele>
        <time>2020-07-12T05:34:28Z</time>
      </trkpt>
      <trkpt lat="37.0767030" lon="-3.6491430">
        <ele>793.6</ele>
        <time>2020-07-12T05:34:31Z</time>
      </trkpt>
      <trkpt lat="37.0765650" lon="-3.6491680">
        <ele>794.8</ele>
        <time>2020-07-12T05:34:35Z</time>
      </trkpt>
      <trkpt lat="37.0765290" lon="-3.6491740">
        <ele>795.0</ele>
        <time>2020-07-12T05:34:36Z</time>
      </trkpt>
      <trkpt lat="37.0764270" lon="-3.6491940">
        <ele>795.8</ele>
        <time>2020-07-12T05:34:39Z</time>
      </trkpt>
      <trkpt lat="37.0761950" lon="-3.6492380">
        <ele>796.8</ele>
        <time>2020-07-12T05:34:46Z</time>
      </trkpt>
      <trkpt lat="37.0761610" lon="-3.6492440">
        <ele>797.4</ele>
        <time>2020-07-12T05:34:47Z</time>
      </trkpt>
      <trkpt lat="37.0760970" lon="-3.6492560">
        <ele>798.0</ele>
        <time>2020-07-12T05:34:49Z</time>
      </trkpt>
      <trkpt lat="37.0759090" lon="-3.6492880">
        <ele>799.0</ele>
        <time>2020-07-12T05:34:55Z</time>
      </trkpt>
      <trkpt lat="37.0757510" lon="-3.6493170">
        <ele>799.6</ele>
        <time>2020-07-12T05:35:00Z</time>
      </trkpt>
      <trkpt lat="37.0756520" lon="-3.6493350">
        <ele>800.0</ele>
        <time>2020-07-12T05:35:03Z</time>
      </trkpt>
      <trkpt lat="37.0754360" lon="-3.6493730">
        <ele>801.2</ele>
        <time>2020-07-12T05:35:10Z</time>
      </trkpt>
      <trkpt lat="37.0753310" lon="-3.6493880">
        <ele>801.6</ele>
        <time>2020-07-12T05:35:13Z</time>
      </trkpt>
      <trkpt lat="37.0751680" lon="-3.6494200">
        <ele>802.2</ele>
        <time>2020-07-12T05:35:18Z</time>
      </trkpt>
      <trkpt lat="37.0749740" lon="-3.6494540">
        <ele>803.2</ele>
        <time>2020-07-12T05:35:24Z</time>
      </trkpt>
      <trkpt lat="37.0749430" lon="-3.6494600">
        <ele>803.4</ele>
        <time>2020-07-12T05:35:25Z</time>
      </trkpt>
      <trkpt lat="37.0747130" lon="-3.6495010">
        <ele>804.6</ele>
        <time>2020-07-12T05:35:32Z</time>
      </trkpt>
      <trkpt lat="37.0746800" lon="-3.6495070">
        <ele>804.8</ele>
        <time>2020-07-12T05:35:33Z</time>
      </trkpt>
      <trkpt lat="37.0745070" lon="-3.6495340">
        <ele>805.6</ele>
        <time>2020-07-12T05:35:38Z</time>
      </trkpt>
      <trkpt lat="37.0743450" lon="-3.6495670">
        <ele>806.8</ele>
        <time>2020-07-12T05:35:43Z</time>
      </trkpt>
      <trkpt lat="37.0743130" lon="-3.6495730">
        <ele>807.0</ele>
        <time>2020-07-12T05:35:44Z</time>
      </trkpt>
      <trkpt lat="37.0741200" lon="-3.6496090">
        <ele>807.6</ele>
        <time>2020-07-12T05:35:50Z</time>
      </trkpt>
      <trkpt lat="37.0740540" lon="-3.6496200">
        <ele>808.0</ele>
        <time>2020-07-12T05:35:52Z</time>
      </trkpt>
      <trkpt lat="37.0740190" lon="-3.6496260">
        <ele>808.2</ele>
        <time>2020-07-12T05:35:53Z</time>
      </trkpt>
      <trkpt lat="37.0739180" lon="-3.6496410">
        <ele>809.0</ele>
        <time>2020-07-12T05:35:56Z</time>
      </trkpt>
      <trkpt lat="37.0737180" lon="-3.6496800">
        <ele>810.2</ele>
        <time>2020-07-12T05:36:02Z</time>
      </trkpt>
      <trkpt lat="37.0736200" lon="-3.6496990">
        <ele>810.8</ele>
        <time>2020-07-12T05:36:05Z</time>
      </trkpt>
      <trkpt lat="37.0735510" lon="-3.6497130">
        <ele>811.2</ele>
        <time>2020-07-12T05:36:07Z</time>
      </trkpt>
      <trkpt lat="37.0732460" lon="-3.6497800">
        <ele>812.4</ele>
        <time>2020-07-12T05:36:16Z</time>
      </trkpt>
      <trkpt lat="37.0730740" lon="-3.6498310">
        <ele>813.6</ele>
        <time>2020-07-12T05:36:21Z</time>
      </trkpt>
      <trkpt lat="37.0729070" lon="-3.6498910">
        <ele>814.6</ele>
        <time>2020-07-12T05:36:26Z</time>
      </trkpt>
      <trkpt lat="37.0728740" lon="-3.6499070">
        <ele>814.8</ele>
        <time>2020-07-12T05:36:27Z</time>
      </trkpt>
      <trkpt lat="37.0726870" lon="-3.6499980">
        <ele>815.8</ele>
        <time>2020-07-12T05:36:33Z</time>
      </trkpt>
      <trkpt lat="37.0725650" lon="-3.6500670">
        <ele>816.2</ele>
        <time>2020-07-12T05:36:37Z</time>
      </trkpt>
      <trkpt lat="37.0724810" lon="-3.6501200">
        <ele>817.0</ele>
        <time>2020-07-12T05:36:40Z</time>
      </trkpt>
      <trkpt lat="37.0722650" lon="-3.6502550">
        <ele>818.0</ele>
        <time>2020-07-12T05:36:47Z</time>
      </trkpt>
      <trkpt lat="37.0722330" lon="-3.6502750">
        <ele>818.2</ele>
        <time>2020-07-12T05:36:48Z</time>
      </trkpt>
      <trkpt lat="37.0720150" lon="-3.6504200">
        <ele>819.2</ele>
        <time>2020-07-12T05:36:55Z</time>
      </trkpt>
      <trkpt lat="37.0717250" lon="-3.6506210">
        <ele>820.4</ele>
        <time>2020-07-12T05:37:04Z</time>
      </trkpt>
      <trkpt lat="37.0716570" lon="-3.6506680">
        <ele>820.8</ele>
        <time>2020-07-12T05:37:06Z</time>
      </trkpt>
      <trkpt lat="37.0714000" lon="-3.6508420">
        <ele>821.4</ele>
        <time>2020-07-12T05:37:14Z</time>
      </trkpt>
      <trkpt lat="37.0713200" lon="-3.6508960">
        <ele>821.8</ele>
        <time>2020-07-12T05:37:16Z</time>
      </trkpt>
      <trkpt lat="37.0711070" lon="-3.6510320">
        <ele>822.6</ele>
        <time>2020-07-12T05:37:22Z</time>
      </trkpt>
      <trkpt lat="37.0709200" lon="-3.6511510">
        <ele>823.8</ele>
        <time>2020-07-12T05:37:27Z</time>
      </trkpt>
      <trkpt lat="37.0708860" lon="-3.6511730">
        <ele>824.0</ele>
        <time>2020-07-12T05:37:28Z</time>
      </trkpt>
      <trkpt lat="37.0706910" lon="-3.6512880">
        <ele>824.8</ele>
        <time>2020-07-12T05:37:34Z</time>
      </trkpt>
      <trkpt lat="37.0706070" lon="-3.6513310">
        <ele>824.6</ele>
        <time>2020-07-12T05:37:36Z</time>
      </trkpt>
      <trkpt lat="37.0702800" lon="-3.6514680">
        <ele>825.6</ele>
        <time>2020-07-12T05:37:45Z</time>
      </trkpt>
      <trkpt lat="37.0702430" lon="-3.6514810">
        <ele>825.8</ele>
        <time>2020-07-12T05:37:46Z</time>
      </trkpt>
      <trkpt lat="37.0699330" lon="-3.6515480">
        <ele>826.2</ele>
        <time>2020-07-12T05:37:54Z</time>
      </trkpt>
      <trkpt lat="37.0698170" lon="-3.6515540">
        <ele>827.0</ele>
        <time>2020-07-12T05:37:57Z</time>
      </trkpt>
      <trkpt lat="37.0695770" lon="-3.6515300">
        <ele>827.6</ele>
        <time>2020-07-12T05:38:03Z</time>
      </trkpt>
      <trkpt lat="37.0695000" lon="-3.6515160">
        <ele>828.2</ele>
        <time>2020-07-12T05:38:05Z</time>
      </trkpt>
      <trkpt lat="37.0692320" lon="-3.6514190">
        <ele>828.8</ele>
        <time>2020-07-12T05:38:12Z</time>
      </trkpt>
      <trkpt lat="37.0688540" lon="-3.6512310">
        <ele>829.2</ele>
        <time>2020-07-12T05:38:22Z</time>
      </trkpt>
      <trkpt lat="37.0687390" lon="-3.6511740">
        <ele>829.4</ele>
        <time>2020-07-12T05:38:25Z</time>
      </trkpt>
      <trkpt lat="37.0683700" lon="-3.6509880">
        <ele>830.0</ele>
        <time>2020-07-12T05:38:34Z</time>
      </trkpt>
      <trkpt lat="37.0683270" lon="-3.6509660">
        <ele>830.4</ele>
        <time>2020-07-12T05:38:35Z</time>
      </trkpt>
      <trkpt lat="37.0680850" lon="-3.6508420">
        <ele>831.6</ele>
        <time>2020-07-12T05:38:41Z</time>
      </trkpt>
      <trkpt lat="37.0679640" lon="-3.6507810">
        <ele>831.6</ele>
        <time>2020-07-12T05:38:44Z</time>
      </trkpt>
      <trkpt lat="37.0677620" lon="-3.6506730">
        <ele>831.4</ele>
        <time>2020-07-12T05:38:49Z</time>
      </trkpt>
      <trkpt lat="37.0675250" lon="-3.6505480">
        <ele>831.6</ele>
        <time>2020-07-12T05:38:55Z</time>
      </trkpt>
      <trkpt lat="37.0674390" lon="-3.6505070">
        <ele>831.6</ele>
        <time>2020-07-12T05:38:57Z</time>
      </trkpt>
      <trkpt lat="37.0671390" lon="-3.6503540">
        <ele>831.2</ele>
        <time>2020-07-12T05:39:04Z</time>
      </trkpt>
      <trkpt lat="37.0669610" lon="-3.6502600">
        <ele>830.8</ele>
        <time>2020-07-12T05:39:08Z</time>
      </trkpt>
      <trkpt lat="37.0664620" lon="-3.6500030">
        <ele>831.4</ele>
        <time>2020-07-12T05:39:20Z</time>
      </trkpt>
      <trkpt lat="37.0661080" lon="-3.6498350">
        <ele>831.6</ele>
        <time>2020-07-12T05:39:29Z</time>
      </trkpt>
      <trkpt lat="37.0659120" lon="-3.6497530">
        <ele>832.2</ele>
        <time>2020-07-12T05:39:34Z</time>
      </trkpt>
      <trkpt lat="37.0657880" lon="-3.6497090">
        <ele>832.8</ele>
        <time>2020-07-12T05:39:37Z</time>
      </trkpt>
      <trkpt lat="37.0657080" lon="-3.6496840">
        <ele>832.8</ele>
        <time>2020-07-12T05:39:39Z</time>
      </trkpt>
      <trkpt lat="37.0654330" lon="-3.6496200">
        <ele>833.8</ele>
        <time>2020-07-12T05:39:46Z</time>
      </trkpt>
      <trkpt lat="37.0653890" lon="-3.6496100">
        <ele>833.8</ele>
        <time>2020-07-12T05:39:47Z</time>
      </trkpt>
      <trkpt lat="37.0651380" lon="-3.6495730">
        <ele>834.2</ele>
        <time>2020-07-12T05:39:53Z</time>
      </trkpt>
      <trkpt lat="37.0650960" lon="-3.6495690">
        <ele>834.2</ele>
        <time>2020-07-12T05:39:54Z</time>
      </trkpt>
      <trkpt lat="37.0649710" lon="-3.6495620">
        <ele>834.8</ele>
        <time>2020-07-12T05:39:57Z</time>
      </trkpt>
      <trkpt lat="37.0645630" lon="-3.6495650">
        <ele>835.2</ele>
        <time>2020-07-12T05:40:07Z</time>
      </trkpt>
      <trkpt lat="37.0642050" lon="-3.6495910">
        <ele>835.4</ele>
        <time>2020-07-12T05:40:16Z</time>
      </trkpt>
      <trkpt lat="37.0640750" lon="-3.6496040">
        <ele>835.8</ele>
        <time>2020-07-12T05:40:19Z</time>
      </trkpt>
      <trkpt lat="37.0638150" lon="-3.6496350">
        <ele>835.2</ele>
        <time>2020-07-12T05:40:25Z</time>
      </trkpt>
      <trkpt lat="37.0635460" lon="-3.6496680">
        <ele>835.4</ele>
        <time>2020-07-12T05:40:31Z</time>
      </trkpt>
      <trkpt lat="37.0633070" lon="-3.6496960">
        <ele>835.4</ele>
        <time>2020-07-12T05:40:36Z</time>
      </trkpt>
      <trkpt lat="37.0629930" lon="-3.6497280">
        <ele>835.8</ele>
        <time>2020-07-12T05:40:42Z</time>
      </trkpt>
      <trkpt lat="37.0627800" lon="-3.6497480">
        <ele>836.6</ele>
        <time>2020-07-12T05:40:46Z</time>
      </trkpt>
      <trkpt lat="37.0626630" lon="-3.6497530">
        <ele>837.0</ele>
        <time>2020-07-12T05:40:48Z</time>
      </trkpt>
      <trkpt lat="37.0622070" lon="-3.6497870">
        <ele>836.2</ele>
        <time>2020-07-12T05:40:56Z</time>
      </trkpt>
      <trkpt lat="37.0620300" lon="-3.6498070">
        <ele>836.0</ele>
        <time>2020-07-12T05:40:59Z</time>
      </trkpt>
      <trkpt lat="37.0616970" lon="-3.6498370">
        <ele>836.4</ele>
        <time>2020-07-12T05:41:05Z</time>
      </trkpt>
      <trkpt lat="37.0612280" lon="-3.6498150">
        <ele>835.4</ele>
        <time>2020-07-12T05:41:13Z</time>
      </trkpt>
      <trkpt lat="37.0609750" lon="-3.6497490">
        <ele>834.8</ele>
        <time>2020-07-12T05:41:17Z</time>
      </trkpt>
      <trkpt lat="37.0607790" lon="-3.6496860">
        <ele>834.6</ele>
        <time>2020-07-12T05:41:20Z</time>
      </trkpt>
      <trkpt lat="37.0605050" lon="-3.6495960">
        <ele>834.2</ele>
        <time>2020-07-12T05:41:24Z</time>
      </trkpt>
      <trkpt lat="37.0604400" lon="-3.6495730">
        <ele>833.8</ele>
        <time>2020-07-12T05:41:25Z</time>
      </trkpt>
      <trkpt lat="37.0601640" lon="-3.6494780">
        <ele>832.6</ele>
        <time>2020-07-12T05:41:29Z</time>
      </trkpt>
      <trkpt lat="37.0600850" lon="-3.6494520">
        <ele>832.8</ele>
        <time>2020-07-12T05:41:30Z</time>
      </trkpt>
      <trkpt lat="37.0599400" lon="-3.6494070">
        <ele>832.4</ele>
        <time>2020-07-12T05:41:32Z</time>
      </trkpt>
      <trkpt lat="37.0597290" lon="-3.6493470">
        <ele>831.8</ele>
        <time>2020-07-12T05:41:35Z</time>
      </trkpt>
      <trkpt lat="37.0595020" lon="-3.6492880">
        <ele>831.6</ele>
        <time>2020-07-12T05:41:38Z</time>
      </trkpt>
      <trkpt lat="37.0594260" lon="-3.6492700">
        <ele>831.4</ele>
        <time>2020-07-12T05:41:39Z</time>
      </trkpt>
      <trkpt lat="37.0592730" lon="-3.6492410">
        <ele>830.6</ele>
        <time>2020-07-12T05:41:41Z</time>
      </trkpt>
      <trkpt lat="37.0589570" lon="-3.6492030">
        <ele>829.4</ele>
        <time>2020-07-12T05:41:45Z</time>
      </trkpt>
      <trkpt lat="37.0587920" lon="-3.6491900">
        <ele>828.6</ele>
        <time>2020-07-12T05:41:47Z</time>
      </trkpt>
      <trkpt lat="37.0587120" lon="-3.6491850">
        <ele>828.4</ele>
        <time>2020-07-12T05:41:48Z</time>
      </trkpt>
      <trkpt lat="37.0584770" lon="-3.6491820">
        <ele>827.8</ele>
        <time>2020-07-12T05:41:51Z</time>
      </trkpt>
      <trkpt lat="37.0581680" lon="-3.6492010">
        <ele>827.2</ele>
        <time>2020-07-12T05:41:55Z</time>
      </trkpt>
      <trkpt lat="37.0579400" lon="-3.6492310">
        <ele>826.6</ele>
        <time>2020-07-12T05:41:58Z</time>
      </trkpt>
      <trkpt lat="37.0577950" lon="-3.6492570">
        <ele>826.2</ele>
        <time>2020-07-12T05:42:00Z</time>
      </trkpt>
      <trkpt lat="37.0575740" lon="-3.6493050">
        <ele>825.8</ele>
        <time>2020-07-12T05:42:03Z</time>
      </trkpt>
      <trkpt lat="37.0572850" lon="-3.6493700">
        <ele>825.4</ele>
        <time>2020-07-12T05:42:07Z</time>
      </trkpt>
      <trkpt lat="37.0567910" lon="-3.6494870">
        <ele>825.2</ele>
        <time>2020-07-12T05:42:14Z</time>
      </trkpt>
      <trkpt lat="37.0567250" lon="-3.6495040">
        <ele>825.0</ele>
        <time>2020-07-12T05:42:15Z</time>
      </trkpt>
      <trkpt lat="37.0563900" lon="-3.6495870">
        <ele>825.8</ele>
        <time>2020-07-12T05:42:20Z</time>
      </trkpt>
      <trkpt lat="37.0562820" lon="-3.6496130">
        <ele>826.0</ele>
        <time>2020-07-12T05:42:22Z</time>
      </trkpt>
      <trkpt lat="37.0561300" lon="-3.6496490">
        <ele>826.0</ele>
        <time>2020-07-12T05:42:24Z</time>
      </trkpt>
      <trkpt lat="37.0558970" lon="-3.6496990">
        <ele>826.4</ele>
        <time>2020-07-12T05:42:28Z</time>
      </trkpt>
      <trkpt lat="37.0556050" lon="-3.6497520">
        <ele>826.4</ele>
        <time>2020-07-12T05:42:33Z</time>
      </trkpt>
      <trkpt lat="37.0552290" lon="-3.6497950">
        <ele>826.6</ele>
        <time>2020-07-12T05:42:40Z</time>
      </trkpt>
      <trkpt lat="37.0550640" lon="-3.6498020">
        <ele>827.2</ele>
        <time>2020-07-12T05:42:43Z</time>
      </trkpt>
      <trkpt lat="37.0550140" lon="-3.6498040">
        <ele>827.2</ele>
        <time>2020-07-12T05:42:44Z</time>
      </trkpt>
      <trkpt lat="37.0546170" lon="-3.6497860">
        <ele>828.0</ele>
        <time>2020-07-12T05:42:52Z</time>
      </trkpt>
      <trkpt lat="37.0545610" lon="-3.6497810">
        <ele>828.2</ele>
        <time>2020-07-12T05:42:53Z</time>
      </trkpt>
      <trkpt lat="37.0542120" lon="-3.6497220">
        <ele>829.0</ele>
        <time>2020-07-12T05:43:00Z</time>
      </trkpt>
      <trkpt lat="37.0541090" lon="-3.6497000">
        <ele>829.2</ele>
        <time>2020-07-12T05:43:02Z</time>
      </trkpt>
      <trkpt lat="37.0540600" lon="-3.6496880">
        <ele>829.2</ele>
        <time>2020-07-12T05:43:03Z</time>
      </trkpt>
      <trkpt lat="37.0537200" lon="-3.6495970">
        <ele>830.0</ele>
        <time>2020-07-12T05:43:10Z</time>
      </trkpt>
      <trkpt lat="37.0535690" lon="-3.6495550">
        <ele>830.2</ele>
        <time>2020-07-12T05:43:13Z</time>
      </trkpt>
      <trkpt lat="37.0532360" lon="-3.6494580">
        <ele>830.8</ele>
        <time>2020-07-12T05:43:20Z</time>
      </trkpt>
      <trkpt lat="37.0530430" lon="-3.6493970">
        <ele>831.4</ele>
        <time>2020-07-12T05:43:24Z</time>
      </trkpt>
      <trkpt lat="37.0526690" lon="-3.6492810">
        <ele>832.0</ele>
        <time>2020-07-12T05:43:32Z</time>
      </trkpt>
      <trkpt lat="37.0523320" lon="-3.6491800">
        <ele>832.4</ele>
        <time>2020-07-12T05:43:39Z</time>
      </trkpt>
      <trkpt lat="37.0520990" lon="-3.6491060">
        <ele>833.2</ele>
        <time>2020-07-12T05:43:44Z</time>
      </trkpt>
      <trkpt lat="37.0520570" lon="-3.6490930">
        <ele>833.4</ele>
        <time>2020-07-12T05:43:45Z</time>
      </trkpt>
      <trkpt lat="37.0516480" lon="-3.6489730">
        <ele>834.4</ele>
        <time>2020-07-12T05:43:54Z</time>
      </trkpt>
      <trkpt lat="37.0516080" lon="-3.6489610">
        <ele>834.4</ele>
        <time>2020-07-12T05:43:55Z</time>
      </trkpt>
      <trkpt lat="37.0511870" lon="-3.6488260">
        <ele>835.2</ele>
        <time>2020-07-12T05:44:04Z</time>
      </trkpt>
      <trkpt lat="37.0510310" lon="-3.6487780">
        <ele>835.4</ele>
        <time>2020-07-12T05:44:07Z</time>
      </trkpt>
      <trkpt lat="37.0506740" lon="-3.6486710">
        <ele>836.0</ele>
        <time>2020-07-12T05:44:14Z</time>
      </trkpt>
      <trkpt lat="37.0503780" lon="-3.6485790">
        <ele>836.6</ele>
        <time>2020-07-12T05:44:20Z</time>
      </trkpt>
      <trkpt lat="37.0500280" lon="-3.6484750">
        <ele>837.6</ele>
        <time>2020-07-12T05:44:27Z</time>
      </trkpt>
      <trkpt lat="37.0495810" lon="-3.6483510">
        <ele>838.2</ele>
        <time>2020-07-12T05:44:36Z</time>
      </trkpt>
      <trkpt lat="37.0494220" lon="-3.6483520">
        <ele>838.2</ele>
        <time>2020-07-12T05:44:39Z</time>
      </trkpt>
      <trkpt lat="37.0491180" lon="-3.6484100">
        <ele>837.6</ele>
        <time>2020-07-12T05:44:44Z</time>
      </trkpt>
      <trkpt lat="37.0489430" lon="-3.6483260">
        <ele>837.6</ele>
        <time>2020-07-12T05:44:47Z</time>
      </trkpt>
      <trkpt lat="37.0488420" lon="-3.6482330">
        <ele>838.0</ele>
        <time>2020-07-12T05:44:49Z</time>
      </trkpt>
      <trkpt lat="37.0486320" lon="-3.6480730">
        <ele>838.0</ele>
        <time>2020-07-12T05:44:53Z</time>
      </trkpt>
      <trkpt lat="37.0482710" lon="-3.6479310">
        <ele>837.4</ele>
        <time>2020-07-12T05:44:59Z</time>
      </trkpt>
      <trkpt lat="37.0480200" lon="-3.6478410">
        <ele>837.0</ele>
        <time>2020-07-12T05:45:03Z</time>
      </trkpt>
      <trkpt lat="37.0479000" lon="-3.6477970">
        <ele>836.6</ele>
        <time>2020-07-12T05:45:05Z</time>
      </trkpt>
      <trkpt lat="37.0478390" lon="-3.6477740">
        <ele>836.6</ele>
        <time>2020-07-12T05:45:06Z</time>
      </trkpt>
      <trkpt lat="37.0475970" lon="-3.6476680">
        <ele>836.0</ele>
        <time>2020-07-12T05:45:10Z</time>
      </trkpt>
      <trkpt lat="37.0472760" lon="-3.6475060">
        <ele>835.4</ele>
        <time>2020-07-12T05:45:15Z</time>
      </trkpt>
      <trkpt lat="37.0470030" lon="-3.6473570">
        <ele>835.0</ele>
        <time>2020-07-12T05:45:19Z</time>
      </trkpt>
      <trkpt lat="37.0468790" lon="-3.6472840">
        <ele>834.4</ele>
        <time>2020-07-12T05:45:21Z</time>
      </trkpt>
      <trkpt lat="37.0464140" lon="-3.6470150">
        <ele>833.2</ele>
        <time>2020-07-12T05:45:28Z</time>
      </trkpt>
      <trkpt lat="37.0463410" lon="-3.6469710">
        <ele>832.8</ele>
        <time>2020-07-12T05:45:29Z</time>
      </trkpt>
      <trkpt lat="37.0461140" lon="-3.6468380">
        <ele>832.2</ele>
        <time>2020-07-12T05:45:33Z</time>
      </trkpt>
      <trkpt lat="37.0457390" lon="-3.6466230">
        <ele>831.0</ele>
        <time>2020-07-12T05:45:38Z</time>
      </trkpt>
      <trkpt lat="37.0456610" lon="-3.6465780">
        <ele>830.8</ele>
        <time>2020-07-12T05:45:39Z</time>
      </trkpt>
      <trkpt lat="37.0454260" lon="-3.6464370">
        <ele>829.6</ele>
        <time>2020-07-12T05:45:42Z</time>
      </trkpt>
      <trkpt lat="37.0451950" lon="-3.6462920">
        <ele>828.6</ele>
        <time>2020-07-12T05:45:45Z</time>
      </trkpt>
      <trkpt lat="37.0449700" lon="-3.6461250">
        <ele>827.8</ele>
        <time>2020-07-12T05:45:48Z</time>
      </trkpt>
      <trkpt lat="37.0448640" lon="-3.6460380">
        <ele>827.4</ele>
        <time>2020-07-12T05:45:50Z</time>
      </trkpt>
      <trkpt lat="37.0446110" lon="-3.6458130">
        <ele>826.2</ele>
        <time>2020-07-12T05:45:53Z</time>
      </trkpt>
      <trkpt lat="37.0443970" lon="-3.6456180">
        <ele>824.8</ele>
        <time>2020-07-12T05:45:56Z</time>
      </trkpt>
      <trkpt lat="37.0441820" lon="-3.6454240">
        <ele>823.6</ele>
        <time>2020-07-12T05:45:59Z</time>
      </trkpt>
      <trkpt lat="37.0439660" lon="-3.6452310">
        <ele>822.4</ele>
        <time>2020-07-12T05:46:02Z</time>
      </trkpt>
      <trkpt lat="37.0436890" lon="-3.6449770">
        <ele>821.4</ele>
        <time>2020-07-12T05:46:06Z</time>
      </trkpt>
      <trkpt lat="37.0435480" lon="-3.6448500">
        <ele>821.0</ele>
        <time>2020-07-12T05:46:08Z</time>
      </trkpt>
      <trkpt lat="37.0432180" lon="-3.6445470">
        <ele>820.2</ele>
        <time>2020-07-12T05:46:13Z</time>
      </trkpt>
      <trkpt lat="37.0429730" lon="-3.6443230">
        <ele>819.6</ele>
        <time>2020-07-12T05:46:17Z</time>
      </trkpt>
      <trkpt lat="37.0429020" lon="-3.6442570">
        <ele>819.2</ele>
        <time>2020-07-12T05:46:18Z</time>
      </trkpt>
      <trkpt lat="37.0426080" lon="-3.6439910">
        <ele>818.0</ele>
        <time>2020-07-12T05:46:23Z</time>
      </trkpt>
      <trkpt lat="37.0423730" lon="-3.6437870">
        <ele>817.4</ele>
        <time>2020-07-12T05:46:27Z</time>
      </trkpt>
      <trkpt lat="37.0420250" lon="-3.6435250">
        <ele>816.8</ele>
        <time>2020-07-12T05:46:33Z</time>
      </trkpt>
      <trkpt lat="37.0417890" lon="-3.6433470">
        <ele>816.4</ele>
        <time>2020-07-12T05:46:37Z</time>
      </trkpt>
      <trkpt lat="37.0416040" lon="-3.6432100">
        <ele>815.8</ele>
        <time>2020-07-12T05:46:40Z</time>
      </trkpt>
      <trkpt lat="37.0411020" lon="-3.6428370">
        <ele>814.6</ele>
        <time>2020-07-12T05:46:48Z</time>
      </trkpt>
      <trkpt lat="37.0410390" lon="-3.6427930">
        <ele>814.4</ele>
        <time>2020-07-12T05:46:49Z</time>
      </trkpt>
      <trkpt lat="37.0405960" lon="-3.6424630">
        <ele>813.6</ele>
        <time>2020-07-12T05:46:56Z</time>
      </trkpt>
      <trkpt lat="37.0402760" lon="-3.6422230">
        <ele>812.8</ele>
        <time>2020-07-12T05:47:01Z</time>
      </trkpt>
      <trkpt lat="37.0401430" lon="-3.6421260">
        <ele>812.4</ele>
        <time>2020-07-12T05:47:03Z</time>
      </trkpt>
      <trkpt lat="37.0396540" lon="-3.6417630">
        <ele>812.0</ele>
        <time>2020-07-12T05:47:11Z</time>
      </trkpt>
      <trkpt lat="37.0395220" lon="-3.6416650">
        <ele>811.8</ele>
        <time>2020-07-12T05:47:13Z</time>
      </trkpt>
      <trkpt lat="37.0390960" lon="-3.6413560">
        <ele>811.2</ele>
        <time>2020-07-12T05:47:20Z</time>
      </trkpt>
      <trkpt lat="37.0388480" lon="-3.6411750">
        <ele>811.0</ele>
        <time>2020-07-12T05:47:24Z</time>
      </trkpt>
      <trkpt lat="37.0383580" lon="-3.6408230">
        <ele>810.6</ele>
        <time>2020-07-12T05:47:32Z</time>
      </trkpt>
      <trkpt lat="37.0381770" lon="-3.6407020">
        <ele>810.6</ele>
        <time>2020-07-12T05:47:35Z</time>
      </trkpt>
      <trkpt lat="37.0377470" lon="-3.6404430">
        <ele>810.2</ele>
        <time>2020-07-12T05:47:42Z</time>
      </trkpt>
      <trkpt lat="37.0376240" lon="-3.6403720">
        <ele>810.0</ele>
        <time>2020-07-12T05:47:44Z</time>
      </trkpt>
      <trkpt lat="37.0371300" lon="-3.6400930">
        <ele>809.4</ele>
        <time>2020-07-12T05:47:52Z</time>
      </trkpt>
      <trkpt lat="37.0369450" lon="-3.6399870">
        <ele>809.8</ele>
        <time>2020-07-12T05:47:55Z</time>
      </trkpt>
      <trkpt lat="37.0364090" lon="-3.6396840">
        <ele>809.6</ele>
        <time>2020-07-12T05:48:04Z</time>
      </trkpt>
      <trkpt lat="37.0362880" lon="-3.6396390">
        <ele>809.6</ele>
        <time>2020-07-12T05:48:06Z</time>
      </trkpt>
      <trkpt lat="37.0362220" lon="-3.6396290">
        <ele>809.6</ele>
        <time>2020-07-12T05:48:07Z</time>
      </trkpt>
      <trkpt lat="37.0360040" lon="-3.6395330">
        <ele>809.2</ele>
        <time>2020-07-12T05:48:11Z</time>
      </trkpt>
      <trkpt lat="37.0359200" lon="-3.6394000">
        <ele>809.2</ele>
        <time>2020-07-12T05:48:13Z</time>
      </trkpt>
      <trkpt lat="37.0358200" lon="-3.6392930">
        <ele>809.2</ele>
        <time>2020-07-12T05:48:15Z</time>
      </trkpt>
      <trkpt lat="37.0355270" lon="-3.6390830">
        <ele>809.2</ele>
        <time>2020-07-12T05:48:20Z</time>
      </trkpt>
      <trkpt lat="37.0354070" lon="-3.6389960">
        <ele>809.0</ele>
        <time>2020-07-12T05:48:22Z</time>
      </trkpt>
      <trkpt lat="37.0350990" lon="-3.6387680">
        <ele>808.8</ele>
        <time>2020-07-12T05:48:27Z</time>
      </trkpt>
      <trkpt lat="37.0349760" lon="-3.6386780">
        <ele>809.0</ele>
        <time>2020-07-12T05:48:29Z</time>
      </trkpt>
      <trkpt lat="37.0344810" lon="-3.6383140">
        <ele>808.2</ele>
        <time>2020-07-12T05:48:37Z</time>
      </trkpt>
      <trkpt lat="37.0343050" lon="-3.6381790">
        <ele>808.4</ele>
        <time>2020-07-12T05:48:40Z</time>
      </trkpt>
      <trkpt lat="37.0341860" lon="-3.6380900">
        <ele>807.8</ele>
        <time>2020-07-12T05:48:42Z</time>
      </trkpt>
      <trkpt lat="37.0337710" lon="-3.6377760">
        <ele>806.8</ele>
        <time>2020-07-12T05:48:49Z</time>
      </trkpt>
      <trkpt lat="37.0336520" lon="-3.6376870">
        <ele>806.6</ele>
        <time>2020-07-12T05:48:51Z</time>
      </trkpt>
      <trkpt lat="37.0331780" lon="-3.6373260">
        <ele>806.0</ele>
        <time>2020-07-12T05:48:59Z</time>
      </trkpt>
      <trkpt lat="37.0327580" lon="-3.6370050">
        <ele>806.0</ele>
        <time>2020-07-12T05:49:06Z</time>
      </trkpt>
      <trkpt lat="37.0326330" lon="-3.6369140">
        <ele>805.6</ele>
        <time>2020-07-12T05:49:08Z</time>
      </trkpt>
      <trkpt lat="37.0322080" lon="-3.6365910">
        <ele>804.6</ele>
        <time>2020-07-12T05:49:15Z</time>
      </trkpt>
      <trkpt lat="37.0320880" lon="-3.6365000">
        <ele>804.4</ele>
        <time>2020-07-12T05:49:17Z</time>
      </trkpt>
      <trkpt lat="37.0315930" lon="-3.6361240">
        <ele>803.6</ele>
        <time>2020-07-12T05:49:25Z</time>
      </trkpt>
      <trkpt lat="37.0314140" lon="-3.6359880">
        <ele>804.0</ele>
        <time>2020-07-12T05:49:28Z</time>
      </trkpt>
      <trkpt lat="37.0312370" lon="-3.6358580">
        <ele>803.6</ele>
        <time>2020-07-12T05:49:31Z</time>
      </trkpt>
      <trkpt lat="37.0307560" lon="-3.6354980">
        <ele>802.6</ele>
        <time>2020-07-12T05:49:39Z</time>
      </trkpt>
      <trkpt lat="37.0306440" lon="-3.6354150">
        <ele>802.4</ele>
        <time>2020-07-12T05:49:41Z</time>
      </trkpt>
      <trkpt lat="37.0301580" lon="-3.6350490">
        <ele>801.6</ele>
        <time>2020-07-12T05:49:49Z</time>
      </trkpt>
      <trkpt lat="37.0299850" lon="-3.6349200">
        <ele>801.4</ele>
        <time>2020-07-12T05:49:52Z</time>
      </trkpt>
      <trkpt lat="37.0298120" lon="-3.6347930">
        <ele>801.4</ele>
        <time>2020-07-12T05:49:55Z</time>
      </trkpt>
      <trkpt lat="37.0293990" lon="-3.6344810">
        <ele>800.2</ele>
        <time>2020-07-12T05:50:02Z</time>
      </trkpt>
      <trkpt lat="37.0293410" lon="-3.6344340">
        <ele>800.2</ele>
        <time>2020-07-12T05:50:03Z</time>
      </trkpt>
      <trkpt lat="37.0288910" lon="-3.6340220">
        <ele>799.8</ele>
        <time>2020-07-12T05:50:11Z</time>
      </trkpt>
      <trkpt lat="37.0285580" lon="-3.6335620">
        <ele>800.2</ele>
        <time>2020-07-12T05:50:18Z</time>
      </trkpt>
      <trkpt lat="37.0283410" lon="-3.6330980">
        <ele>799.2</ele>
        <time>2020-07-12T05:50:24Z</time>
      </trkpt>
      <trkpt lat="37.0283120" lon="-3.6330170">
        <ele>799.0</ele>
        <time>2020-07-12T05:50:25Z</time>
      </trkpt>
      <trkpt lat="37.0281510" lon="-3.6324020">
        <ele>798.4</ele>
        <time>2020-07-12T05:50:32Z</time>
      </trkpt>
      <trkpt lat="37.0281110" lon="-3.6322180">
        <ele>798.0</ele>
        <time>2020-07-12T05:50:34Z</time>
      </trkpt>
      <trkpt lat="37.0279670" lon="-3.6315410">
        <ele>798.0</ele>
        <time>2020-07-12T05:50:42Z</time>
      </trkpt>
      <trkpt lat="37.0278800" lon="-3.6311420">
        <ele>796.8</ele>
        <time>2020-07-12T05:50:47Z</time>
      </trkpt>
      <trkpt lat="37.0278100" lon="-3.6308140">
        <ele>796.4</ele>
        <time>2020-07-12T05:50:51Z</time>
      </trkpt>
      <trkpt lat="37.0276590" lon="-3.6300850">
        <ele>796.2</ele>
        <time>2020-07-12T05:51:00Z</time>
      </trkpt>
      <trkpt lat="37.0276230" lon="-3.6299250">
        <ele>796.0</ele>
        <time>2020-07-12T05:51:02Z</time>
      </trkpt>
      <trkpt lat="37.0275880" lon="-3.6297660">
        <ele>795.8</ele>
        <time>2020-07-12T05:51:04Z</time>
      </trkpt>
      <trkpt lat="37.0274390" lon="-3.6290520">
        <ele>795.4</ele>
        <time>2020-07-12T05:51:13Z</time>
      </trkpt>
      <trkpt lat="37.0274050" lon="-3.6288990">
        <ele>795.6</ele>
        <time>2020-07-12T05:51:15Z</time>
      </trkpt>
      <trkpt lat="37.0272920" lon="-3.6283570">
        <ele>795.6</ele>
        <time>2020-07-12T05:51:22Z</time>
      </trkpt>
      <trkpt lat="37.0272770" lon="-3.6282860">
        <ele>795.6</ele>
        <time>2020-07-12T05:51:23Z</time>
      </trkpt>
      <trkpt lat="37.0272350" lon="-3.6280490">
        <ele>796.0</ele>
        <time>2020-07-12T05:51:26Z</time>
      </trkpt>
      <trkpt lat="37.0271970" lon="-3.6276390">
        <ele>796.0</ele>
        <time>2020-07-12T05:51:31Z</time>
      </trkpt>
      <trkpt lat="37.0272450" lon="-3.6270440">
        <ele>795.6</ele>
        <time>2020-07-12T05:51:38Z</time>
      </trkpt>
      <trkpt lat="37.0273690" lon="-3.6265660">
        <ele>795.4</ele>
        <time>2020-07-12T05:51:44Z</time>
      </trkpt>
      <trkpt lat="37.0273960" lon="-3.6264910">
        <ele>795.4</ele>
        <time>2020-07-12T05:51:45Z</time>
      </trkpt>
      <trkpt lat="37.0275680" lon="-3.6260330">
        <ele>794.6</ele>
        <time>2020-07-12T05:51:51Z</time>
      </trkpt>
      <trkpt lat="37.0276800" lon="-3.6257060">
        <ele>794.0</ele>
        <time>2020-07-12T05:51:55Z</time>
      </trkpt>
      <trkpt lat="37.0277490" lon="-3.6254540">
        <ele>793.6</ele>
        <time>2020-07-12T05:51:58Z</time>
      </trkpt>
      <trkpt lat="37.0277950" lon="-3.6251000">
        <ele>793.2</ele>
        <time>2020-07-12T05:52:02Z</time>
      </trkpt>
      <trkpt lat="37.0277830" lon="-3.6245470">
        <ele>792.6</ele>
        <time>2020-07-12T05:52:08Z</time>
      </trkpt>
      <trkpt lat="37.0277520" lon="-3.6243690">
        <ele>792.4</ele>
        <time>2020-07-12T05:52:10Z</time>
      </trkpt>
      <trkpt lat="37.0276700" lon="-3.6240280">
        <ele>792.4</ele>
        <time>2020-07-12T05:52:14Z</time>
      </trkpt>
      <trkpt lat="37.0275200" lon="-3.6235190">
        <ele>791.4</ele>
        <time>2020-07-12T05:52:20Z</time>
      </trkpt>
      <trkpt lat="37.0274230" lon="-3.6231610">
        <ele>790.6</ele>
        <time>2020-07-12T05:52:24Z</time>
      </trkpt>
      <trkpt lat="37.0274030" lon="-3.6230700">
        <ele>790.4</ele>
        <time>2020-07-12T05:52:25Z</time>
      </trkpt>
      <trkpt lat="37.0273320" lon="-3.6225960">
        <ele>789.4</ele>
        <time>2020-07-12T05:52:30Z</time>
      </trkpt>
      <trkpt lat="37.0273260" lon="-3.6225070">
        <ele>789.0</ele>
        <time>2020-07-12T05:52:31Z</time>
      </trkpt>
      <trkpt lat="37.0273500" lon="-3.6219500">
        <ele>788.2</ele>
        <time>2020-07-12T05:52:37Z</time>
      </trkpt>
      <trkpt lat="37.0273980" lon="-3.6216780">
        <ele>787.0</ele>
        <time>2020-07-12T05:52:40Z</time>
      </trkpt>
      <trkpt lat="37.0274730" lon="-3.6214090">
        <ele>786.2</ele>
        <time>2020-07-12T05:52:43Z</time>
      </trkpt>
      <trkpt lat="37.0275020" lon="-3.6213210">
        <ele>786.0</ele>
        <time>2020-07-12T05:52:44Z</time>
      </trkpt>
      <trkpt lat="37.0276040" lon="-3.6210600">
        <ele>784.8</ele>
        <time>2020-07-12T05:52:47Z</time>
      </trkpt>
      <trkpt lat="37.0277180" lon="-3.6207850">
        <ele>783.6</ele>
        <time>2020-07-12T05:52:50Z</time>
      </trkpt>
      <trkpt lat="37.0278320" lon="-3.6205410">
        <ele>782.4</ele>
        <time>2020-07-12T05:52:53Z</time>
      </trkpt>
      <trkpt lat="37.0279750" lon="-3.6202210">
        <ele>781.2</ele>
        <time>2020-07-12T05:52:56Z</time>
      </trkpt>
      <trkpt lat="37.0280220" lon="-3.6201160">
        <ele>780.6</ele>
        <time>2020-07-12T05:52:57Z</time>
      </trkpt>
      <trkpt lat="37.0281100" lon="-3.6199180">
        <ele>780.0</ele>
        <time>2020-07-12T05:52:59Z</time>
      </trkpt>
      <trkpt lat="37.0282690" lon="-3.6194750">
        <ele>778.8</ele>
        <time>2020-07-12T05:53:03Z</time>
      </trkpt>
      <trkpt lat="37.0282950" lon="-3.6193570">
        <ele>778.2</ele>
        <time>2020-07-12T05:53:04Z</time>
      </trkpt>
      <trkpt lat="37.0283150" lon="-3.6192450">
        <ele>777.6</ele>
        <time>2020-07-12T05:53:05Z</time>
      </trkpt>
      <trkpt lat="37.0283340" lon="-3.6189940">
        <ele>776.6</ele>
        <time>2020-07-12T05:53:07Z</time>
      </trkpt>
      <trkpt lat="37.0283320" lon="-3.6188720">
        <ele>776.2</ele>
        <time>2020-07-12T05:53:08Z</time>
      </trkpt>
      <trkpt lat="37.0283200" lon="-3.6187470">
        <ele>775.8</ele>
        <time>2020-07-12T05:53:09Z</time>
      </trkpt>
      <trkpt lat="37.0283030" lon="-3.6186260">
        <ele>775.4</ele>
        <time>2020-07-12T05:53:10Z</time>
      </trkpt>
      <trkpt lat="37.0282510" lon="-3.6183880">
        <ele>775.0</ele>
        <time>2020-07-12T05:53:12Z</time>
      </trkpt>
      <trkpt lat="37.0281700" lon="-3.6181670">
        <ele>774.2</ele>
        <time>2020-07-12T05:53:14Z</time>
      </trkpt>
      <trkpt lat="37.0280670" lon="-3.6179700">
        <ele>773.6</ele>
        <time>2020-07-12T05:53:16Z</time>
      </trkpt>
      <trkpt lat="37.0280030" lon="-3.6178740">
        <ele>773.0</ele>
        <time>2020-07-12T05:53:17Z</time>
      </trkpt>
      <trkpt lat="37.0277780" lon="-3.6176140">
        <ele>772.0</ele>
        <time>2020-07-12T05:53:20Z</time>
      </trkpt>
      <trkpt lat="37.0275280" lon="-3.6174210">
        <ele>770.6</ele>
        <time>2020-07-12T05:53:23Z</time>
      </trkpt>
      <trkpt lat="37.0274320" lon="-3.6173580">
        <ele>770.2</ele>
        <time>2020-07-12T05:53:24Z</time>
      </trkpt>
      <trkpt lat="37.0272570" lon="-3.6172470">
        <ele>769.6</ele>
        <time>2020-07-12T05:53:26Z</time>
      </trkpt>
      <trkpt lat="37.0268020" lon="-3.6169560">
        <ele>768.4</ele>
        <time>2020-07-12T05:53:31Z</time>
      </trkpt>
      <trkpt lat="37.0265320" lon="-3.6167680">
        <ele>767.4</ele>
        <time>2020-07-12T05:53:34Z</time>
      </trkpt>
      <trkpt lat="37.0261020" lon="-3.6164580">
        <ele>766.0</ele>
        <time>2020-07-12T05:53:39Z</time>
      </trkpt>
      <trkpt lat="37.0259590" lon="-3.6163440">
        <ele>765.0</ele>
        <time>2020-07-12T05:53:41Z</time>
      </trkpt>
      <trkpt lat="37.0257880" lon="-3.6161960">
        <ele>764.0</ele>
        <time>2020-07-12T05:53:43Z</time>
      </trkpt>
      <trkpt lat="37.0257120" lon="-3.6161310">
        <ele>763.6</ele>
        <time>2020-07-12T05:53:44Z</time>
      </trkpt>
      <trkpt lat="37.0252710" lon="-3.6157400">
        <ele>762.8</ele>
        <time>2020-07-12T05:53:50Z</time>
      </trkpt>
      <trkpt lat="37.0252090" lon="-3.6156800">
        <ele>762.6</ele>
        <time>2020-07-12T05:53:51Z</time>
      </trkpt>
      <trkpt lat="37.0251360" lon="-3.6156090">
        <ele>762.6</ele>
        <time>2020-07-12T05:53:52Z</time>
      </trkpt>
      <trkpt lat="37.0247160" lon="-3.6151630">
        <ele>761.4</ele>
        <time>2020-07-12T05:53:59Z</time>
      </trkpt>
      <trkpt lat="37.0244330" lon="-3.6148200">
        <ele>760.8</ele>
        <time>2020-07-12T05:54:04Z</time>
      </trkpt>
      <trkpt lat="37.0242660" lon="-3.6146070">
        <ele>760.2</ele>
        <time>2020-07-12T05:54:07Z</time>
      </trkpt>
      <trkpt lat="37.0241540" lon="-3.6144630">
        <ele>759.6</ele>
        <time>2020-07-12T05:54:09Z</time>
      </trkpt>
      <trkpt lat="37.0240990" lon="-3.6143880">
        <ele>759.2</ele>
        <time>2020-07-12T05:54:10Z</time>
      </trkpt>
      <trkpt lat="37.0237230" lon="-3.6138340">
        <ele>758.2</ele>
        <time>2020-07-12T05:54:17Z</time>
      </trkpt>
      <trkpt lat="37.0234600" lon="-3.6133930">
        <ele>757.2</ele>
        <time>2020-07-12T05:54:22Z</time>
      </trkpt>
      <trkpt lat="37.0232600" lon="-3.6130230">
        <ele>755.8</ele>
        <time>2020-07-12T05:54:26Z</time>
      </trkpt>
      <trkpt lat="37.0231100" lon="-3.6127320">
        <ele>754.8</ele>
        <time>2020-07-12T05:54:29Z</time>
      </trkpt>
      <trkpt lat="37.0229630" lon="-3.6124220">
        <ele>753.4</ele>
        <time>2020-07-12T05:54:32Z</time>
      </trkpt>
      <trkpt lat="37.0228660" lon="-3.6122160">
        <ele>752.6</ele>
        <time>2020-07-12T05:54:34Z</time>
      </trkpt>
      <trkpt lat="37.0228210" lon="-3.6121140">
        <ele>752.2</ele>
        <time>2020-07-12T05:54:35Z</time>
      </trkpt>
      <trkpt lat="37.0226410" lon="-3.6116780">
        <ele>751.0</ele>
        <time>2020-07-12T05:54:39Z</time>
      </trkpt>
      <trkpt lat="37.0225560" lon="-3.6114710">
        <ele>750.0</ele>
        <time>2020-07-12T05:54:41Z</time>
      </trkpt>
      <trkpt lat="37.0224600" lon="-3.6112350">
        <ele>748.6</ele>
        <time>2020-07-12T05:54:43Z</time>
      </trkpt>
      <trkpt lat="37.0223280" lon="-3.6109050">
        <ele>747.2</ele>
        <time>2020-07-12T05:54:46Z</time>
      </trkpt>
      <trkpt lat="37.0222330" lon="-3.6106640">
        <ele>745.8</ele>
        <time>2020-07-12T05:54:48Z</time>
      </trkpt>
      <trkpt lat="37.0221370" lon="-3.6104290">
        <ele>743.8</ele>
        <time>2020-07-12T05:54:50Z</time>
      </trkpt>
      <trkpt lat="37.0220410" lon="-3.6101900">
        <ele>742.8</ele>
        <time>2020-07-12T05:54:52Z</time>
      </trkpt>
      <trkpt lat="37.0220230" lon="-3.6101440">
        <ele>742.6</ele>
        <time>2020-07-12T05:54:53Z</time>
      </trkpt>
      <trkpt lat="37.0218930" lon="-3.6098230">
        <ele>741.6</ele>
        <time>2020-07-12T05:54:55Z</time>
      </trkpt>
      <trkpt lat="37.0217920" lon="-3.6095710">
        <ele>740.0</ele>
        <time>2020-07-12T05:54:57Z</time>
      </trkpt>
      <trkpt lat="37.0216950" lon="-3.6093290">
        <ele>738.6</ele>
        <time>2020-07-12T05:54:59Z</time>
      </trkpt>
      <trkpt lat="37.0215910" lon="-3.6090750">
        <ele>737.4</ele>
        <time>2020-07-12T05:55:01Z</time>
      </trkpt>
      <trkpt lat="37.0214880" lon="-3.6088210">
        <ele>736.2</ele>
        <time>2020-07-12T05:55:03Z</time>
      </trkpt>
      <trkpt lat="37.0213910" lon="-3.6085780">
        <ele>734.8</ele>
        <time>2020-07-12T05:55:05Z</time>
      </trkpt>
      <trkpt lat="37.0212860" lon="-3.6083170">
        <ele>733.6</ele>
        <time>2020-07-12T05:55:07Z</time>
      </trkpt>
      <trkpt lat="37.0211850" lon="-3.6080660">
        <ele>732.6</ele>
        <time>2020-07-12T05:55:09Z</time>
      </trkpt>
      <trkpt lat="37.0210900" lon="-3.6078310">
        <ele>731.6</ele>
        <time>2020-07-12T05:55:11Z</time>
      </trkpt>
      <trkpt lat="37.0209330" lon="-3.6074480">
        <ele>730.2</ele>
        <time>2020-07-12T05:55:14Z</time>
      </trkpt>
      <trkpt lat="37.0208310" lon="-3.6072110">
        <ele>729.6</ele>
        <time>2020-07-12T05:55:16Z</time>
      </trkpt>
      <trkpt lat="37.0207800" lon="-3.6070880">
        <ele>729.2</ele>
        <time>2020-07-12T05:55:17Z</time>
      </trkpt>
      <trkpt lat="37.0206270" lon="-3.6067230">
        <ele>727.8</ele>
        <time>2020-07-12T05:55:20Z</time>
      </trkpt>
      <trkpt lat="37.0204400" lon="-3.6062690">
        <ele>726.6</ele>
        <time>2020-07-12T05:55:24Z</time>
      </trkpt>
      <trkpt lat="37.0203950" lon="-3.6061590">
        <ele>726.4</ele>
        <time>2020-07-12T05:55:25Z</time>
      </trkpt>
      <trkpt lat="37.0201450" lon="-3.6055440">
        <ele>725.6</ele>
        <time>2020-07-12T05:55:31Z</time>
      </trkpt>
      <trkpt lat="37.0201050" lon="-3.6054460">
        <ele>725.6</ele>
        <time>2020-07-12T05:55:32Z</time>
      </trkpt>
      <trkpt lat="37.0199900" lon="-3.6051530">
        <ele>725.2</ele>
        <time>2020-07-12T05:55:35Z</time>
      </trkpt>
      <trkpt lat="37.0199080" lon="-3.6049520">
        <ele>725.2</ele>
        <time>2020-07-12T05:55:37Z</time>
      </trkpt>
      <trkpt lat="37.0197940" lon="-3.6046540">
        <ele>725.2</ele>
        <time>2020-07-12T05:55:40Z</time>
      </trkpt>
      <trkpt lat="37.0196460" lon="-3.6042730">
        <ele>725.0</ele>
        <time>2020-07-12T05:55:44Z</time>
      </trkpt>
      <trkpt lat="37.0195360" lon="-3.6040040">
        <ele>724.6</ele>
        <time>2020-07-12T05:55:47Z</time>
      </trkpt>
      <trkpt lat="37.0193570" lon="-3.6035670">
        <ele>724.4</ele>
        <time>2020-07-12T05:55:52Z</time>
      </trkpt>
      <trkpt lat="37.0191480" lon="-3.6030670">
        <ele>724.2</ele>
        <time>2020-07-12T05:55:58Z</time>
      </trkpt>
      <trkpt lat="37.0188990" lon="-3.6024540">
        <ele>724.6</ele>
        <time>2020-07-12T05:56:06Z</time>
      </trkpt>
      <trkpt lat="37.0188370" lon="-3.6022980">
        <ele>724.2</ele>
        <time>2020-07-12T05:56:08Z</time>
      </trkpt>
      <trkpt lat="37.0185700" lon="-3.6016410">
        <ele>724.4</ele>
        <time>2020-07-12T05:56:17Z</time>
      </trkpt>
      <trkpt lat="37.0185140" lon="-3.6014930">
        <ele>724.4</ele>
        <time>2020-07-12T05:56:19Z</time>
      </trkpt>
      <trkpt lat="37.0184100" lon="-3.6012060">
        <ele>724.0</ele>
        <time>2020-07-12T05:56:23Z</time>
      </trkpt>
      <trkpt lat="37.0182740" lon="-3.6007510">
        <ele>723.4</ele>
        <time>2020-07-12T05:56:29Z</time>
      </trkpt>
      <trkpt lat="37.0182510" lon="-3.6006640">
        <ele>723.6</ele>
        <time>2020-07-12T05:56:30Z</time>
      </trkpt>
      <trkpt lat="37.0181320" lon="-3.6000060">
        <ele>724.0</ele>
        <time>2020-07-12T05:56:38Z</time>
      </trkpt>
      <trkpt lat="37.0180580" lon="-3.5992640">
        <ele>724.4</ele>
        <time>2020-07-12T05:56:47Z</time>
      </trkpt>
      <trkpt lat="37.0180440" lon="-3.5990960">
        <ele>724.4</ele>
        <time>2020-07-12T05:56:49Z</time>
      </trkpt>
      <trkpt lat="37.0180370" lon="-3.5990130">
        <ele>724.4</ele>
        <time>2020-07-12T05:56:50Z</time>
      </trkpt>
      <trkpt lat="37.0179530" lon="-3.5983060">
        <ele>725.4</ele>
        <time>2020-07-12T05:56:59Z</time>
      </trkpt>
      <trkpt lat="37.0179370" lon="-3.5982250">
        <ele>725.4</ele>
        <time>2020-07-12T05:57:00Z</time>
      </trkpt>
      <trkpt lat="37.0179210" lon="-3.5981550">
        <ele>725.6</ele>
        <time>2020-07-12T05:57:01Z</time>
      </trkpt>
      <trkpt lat="37.0177800" lon="-3.5976590">
        <ele>726.0</ele>
        <time>2020-07-12T05:57:08Z</time>
      </trkpt>
      <trkpt lat="37.0175880" lon="-3.5972280">
        <ele>726.6</ele>
        <time>2020-07-12T05:57:15Z</time>
      </trkpt>
      <trkpt lat="37.0172770" lon="-3.5967350">
        <ele>727.6</ele>
        <time>2020-07-12T05:57:24Z</time>
      </trkpt>
      <trkpt lat="37.0169810" lon="-3.5963360">
        <ele>728.8</ele>
        <time>2020-07-12T05:57:32Z</time>
      </trkpt>
      <trkpt lat="37.0167620" lon="-3.5960430">
        <ele>729.4</ele>
        <time>2020-07-12T05:57:38Z</time>
      </trkpt>
      <trkpt lat="37.0166900" lon="-3.5959480">
        <ele>730.0</ele>
        <time>2020-07-12T05:57:40Z</time>
      </trkpt>
      <trkpt lat="37.0164440" lon="-3.5956210">
        <ele>730.8</ele>
        <time>2020-07-12T05:57:47Z</time>
      </trkpt>
      <trkpt lat="37.0164080" lon="-3.5955730">
        <ele>731.0</ele>
        <time>2020-07-12T05:57:48Z</time>
      </trkpt>
      <trkpt lat="37.0163730" lon="-3.5955270">
        <ele>731.2</ele>
        <time>2020-07-12T05:57:49Z</time>
      </trkpt>
      <trkpt lat="37.0162480" lon="-3.5953590">
        <ele>732.0</ele>
        <time>2020-07-12T05:57:53Z</time>
      </trkpt>
      <trkpt lat="37.0162040" lon="-3.5953000">
        <ele>732.2</ele>
        <time>2020-07-12T05:57:54Z</time>
      </trkpt>
      <trkpt lat="37.0159670" lon="-3.5949810">
        <ele>733.0</ele>
        <time>2020-07-12T05:58:01Z</time>
      </trkpt>
      <trkpt lat="37.0159290" lon="-3.5949310">
        <ele>733.2</ele>
        <time>2020-07-12T05:58:02Z</time>
      </trkpt>
      <trkpt lat="37.0156810" lon="-3.5946020">
        <ele>734.4</ele>
        <time>2020-07-12T05:58:09Z</time>
      </trkpt>
      <trkpt lat="37.0155730" lon="-3.5944550">
        <ele>735.0</ele>
        <time>2020-07-12T05:58:12Z</time>
      </trkpt>
      <trkpt lat="37.0154630" lon="-3.5943080">
        <ele>735.6</ele>
        <time>2020-07-12T05:58:15Z</time>
      </trkpt>
      <trkpt lat="37.0151790" lon="-3.5939290">
        <ele>736.4</ele>
        <time>2020-07-12T05:58:23Z</time>
      </trkpt>
      <trkpt lat="37.0151430" lon="-3.5938790">
        <ele>736.6</ele>
        <time>2020-07-12T05:58:24Z</time>
      </trkpt>
      <trkpt lat="37.0149050" lon="-3.5935580">
        <ele>737.6</ele>
        <time>2020-07-12T05:58:31Z</time>
      </trkpt>
      <trkpt lat="37.0147680" lon="-3.5933740">
        <ele>738.2</ele>
        <time>2020-07-12T05:58:35Z</time>
      </trkpt>
      <trkpt lat="37.0145280" lon="-3.5930560">
        <ele>738.8</ele>
        <time>2020-07-12T05:58:42Z</time>
      </trkpt>
      <trkpt lat="37.0142510" lon="-3.5926820">
        <ele>739.6</ele>
        <time>2020-07-12T05:58:50Z</time>
      </trkpt>
      <trkpt lat="37.0141780" lon="-3.5925860">
        <ele>740.0</ele>
        <time>2020-07-12T05:58:52Z</time>
      </trkpt>
      <trkpt lat="37.0138770" lon="-3.5921860">
        <ele>740.8</ele>
        <time>2020-07-12T05:59:00Z</time>
      </trkpt>
      <trkpt lat="37.0138000" lon="-3.5920870">
        <ele>741.0</ele>
        <time>2020-07-12T05:59:02Z</time>
      </trkpt>
      <trkpt lat="37.0134610" lon="-3.5916550">
        <ele>741.8</ele>
        <time>2020-07-12T05:59:11Z</time>
      </trkpt>
      <trkpt lat="37.0134170" lon="-3.5916020">
        <ele>742.0</ele>
        <time>2020-07-12T05:59:12Z</time>
      </trkpt>
      <trkpt lat="37.0130740" lon="-3.5911700">
        <ele>743.2</ele>
        <time>2020-07-12T05:59:21Z</time>
      </trkpt>
      <trkpt lat="37.0126750" lon="-3.5906920">
        <ele>743.4</ele>
        <time>2020-07-12T05:59:31Z</time>
      </trkpt>
      <trkpt lat="37.0124210" lon="-3.5903890">
        <ele>743.6</ele>
        <time>2020-07-12T05:59:37Z</time>
      </trkpt>
      <trkpt lat="37.0122030" lon="-3.5901260">
        <ele>743.8</ele>
        <time>2020-07-12T05:59:42Z</time>
      </trkpt>
      <trkpt lat="37.0117940" lon="-3.5896610">
        <ele>744.2</ele>
        <time>2020-07-12T05:59:51Z</time>
      </trkpt>
      <trkpt lat="37.0117440" lon="-3.5896050">
        <ele>744.4</ele>
        <time>2020-07-12T05:59:52Z</time>
      </trkpt>
      <trkpt lat="37.0113330" lon="-3.5891390">
        <ele>744.4</ele>
        <time>2020-07-12T06:00:01Z</time>
      </trkpt>
      <trkpt lat="37.0112840" lon="-3.5890840">
        <ele>744.4</ele>
        <time>2020-07-12T06:00:02Z</time>
      </trkpt>
      <trkpt lat="37.0108810" lon="-3.5886220">
        <ele>745.0</ele>
        <time>2020-07-12T06:00:11Z</time>
      </trkpt>
      <trkpt lat="37.0107850" lon="-3.5885150">
        <ele>745.4</ele>
        <time>2020-07-12T06:00:13Z</time>
      </trkpt>
      <trkpt lat="37.0103730" lon="-3.5880380">
        <ele>745.6</ele>
        <time>2020-07-12T06:00:22Z</time>
      </trkpt>
      <trkpt lat="37.0102360" lon="-3.5878840">
        <ele>745.8</ele>
        <time>2020-07-12T06:00:25Z</time>
      </trkpt>
      <trkpt lat="37.0100050" lon="-3.5876230">
        <ele>746.4</ele>
        <time>2020-07-12T06:00:30Z</time>
      </trkpt>
      <trkpt lat="37.0098270" lon="-3.5874240">
        <ele>746.4</ele>
        <time>2020-07-12T06:00:34Z</time>
      </trkpt>
      <trkpt lat="37.0096920" lon="-3.5872730">
        <ele>746.4</ele>
        <time>2020-07-12T06:00:38Z</time>
      </trkpt>
      <trkpt lat="37.0094970" lon="-3.5870520">
        <ele>746.8</ele>
        <time>2020-07-12T06:00:41Z</time>
      </trkpt>
      <trkpt lat="37.0090840" lon="-3.5865820">
        <ele>746.8</ele>
        <time>2020-07-12T06:00:50Z</time>
      </trkpt>
      <trkpt lat="37.0089500" lon="-3.5864330">
        <ele>746.8</ele>
        <time>2020-07-12T06:00:53Z</time>
      </trkpt>
      <trkpt lat="37.0085540" lon="-3.5860510">
        <ele>747.4</ele>
        <time>2020-07-12T06:01:01Z</time>
      </trkpt>
      <trkpt lat="37.0084940" lon="-3.5860130">
        <ele>747.4</ele>
        <time>2020-07-12T06:01:02Z</time>
      </trkpt>
      <trkpt lat="37.0083640" lon="-3.5859240">
        <ele>747.6</ele>
        <time>2020-07-12T06:01:05Z</time>
      </trkpt>
      <trkpt lat="37.0082510" lon="-3.5857730">
        <ele>747.6</ele>
        <time>2020-07-12T06:01:07Z</time>
      </trkpt>
      <trkpt lat="37.0081910" lon="-3.5856390">
        <ele>747.4</ele>
        <time>2020-07-12T06:01:09Z</time>
      </trkpt>
      <trkpt lat="37.0080850" lon="-3.5854520">
        <ele>747.4</ele>
        <time>2020-07-12T06:01:12Z</time>
      </trkpt>
      <trkpt lat="37.0078240" lon="-3.5851360">
        <ele>747.8</ele>
        <time>2020-07-12T06:01:18Z</time>
      </trkpt>
      <trkpt lat="37.0076350" lon="-3.5849200">
        <ele>748.6</ele>
        <time>2020-07-12T06:01:23Z</time>
      </trkpt>
      <trkpt lat="37.0074420" lon="-3.5847090">
        <ele>749.0</ele>
        <time>2020-07-12T06:01:27Z</time>
      </trkpt>
      <trkpt lat="37.0072790" lon="-3.5845300">
        <ele>749.6</ele>
        <time>2020-07-12T06:01:31Z</time>
      </trkpt>
      <trkpt lat="37.0071200" lon="-3.5843410">
        <ele>750.0</ele>
        <time>2020-07-12T06:01:35Z</time>
      </trkpt>
      <trkpt lat="37.0070370" lon="-3.5842490">
        <ele>750.4</ele>
        <time>2020-07-12T06:01:37Z</time>
      </trkpt>
      <trkpt lat="37.0069140" lon="-3.5841160">
        <ele>750.8</ele>
        <time>2020-07-12T06:01:40Z</time>
      </trkpt>
      <trkpt lat="37.0067420" lon="-3.5839360">
        <ele>751.2</ele>
        <time>2020-07-12T06:01:44Z</time>
      </trkpt>
      <trkpt lat="37.0066220" lon="-3.5838040">
        <ele>751.8</ele>
        <time>2020-07-12T06:01:47Z</time>
      </trkpt>
      <trkpt lat="37.0063830" lon="-3.5835420">
        <ele>752.8</ele>
        <time>2020-07-12T06:01:53Z</time>
      </trkpt>
      <trkpt lat="37.0063390" lon="-3.5834950">
        <ele>753.0</ele>
        <time>2020-07-12T06:01:54Z</time>
      </trkpt>
      <trkpt lat="37.0061070" lon="-3.5832360">
        <ele>754.0</ele>
        <time>2020-07-12T06:02:00Z</time>
      </trkpt>
      <trkpt lat="37.0059930" lon="-3.5831110">
        <ele>754.6</ele>
        <time>2020-07-12T06:02:03Z</time>
      </trkpt>
      <trkpt lat="37.0058780" lon="-3.5829870">
        <ele>755.0</ele>
        <time>2020-07-12T06:02:06Z</time>
      </trkpt>
      <trkpt lat="37.0055280" lon="-3.5826170">
        <ele>756.2</ele>
        <time>2020-07-12T06:02:15Z</time>
      </trkpt>
      <trkpt lat="37.0054910" lon="-3.5825790">
        <ele>756.2</ele>
        <time>2020-07-12T06:02:16Z</time>
      </trkpt>
      <trkpt lat="37.0052560" lon="-3.5823420">
        <ele>757.2</ele>
        <time>2020-07-12T06:02:22Z</time>
      </trkpt>
      <trkpt lat="37.0050210" lon="-3.5821160">
        <ele>758.2</ele>
        <time>2020-07-12T06:02:28Z</time>
      </trkpt>
      <trkpt lat="37.0049840" lon="-3.5820800">
        <ele>758.4</ele>
        <time>2020-07-12T06:02:29Z</time>
      </trkpt>
      <trkpt lat="37.0046530" lon="-3.5817640">
        <ele>759.4</ele>
        <time>2020-07-12T06:02:37Z</time>
      </trkpt>
      <trkpt lat="37.0045250" lon="-3.5816460">
        <ele>759.6</ele>
        <time>2020-07-12T06:02:40Z</time>
      </trkpt>
      <trkpt lat="37.0041180" lon="-3.5812760">
        <ele>759.8</ele>
        <time>2020-07-12T06:02:49Z</time>
      </trkpt>
      <trkpt lat="37.0040270" lon="-3.5811890">
        <ele>760.0</ele>
        <time>2020-07-12T06:02:51Z</time>
      </trkpt>
      <trkpt lat="37.0035900" lon="-3.5807790">
        <ele>760.4</ele>
        <time>2020-07-12T06:03:00Z</time>
      </trkpt>
      <trkpt lat="37.0035440" lon="-3.5807360">
        <ele>760.6</ele>
        <time>2020-07-12T06:03:01Z</time>
      </trkpt>
      <trkpt lat="37.0033900" lon="-3.5805900">
        <ele>760.6</ele>
        <time>2020-07-12T06:03:04Z</time>
      </trkpt>
      <trkpt lat="37.0030720" lon="-3.5802950">
        <ele>760.6</ele>
        <time>2020-07-12T06:03:10Z</time>
      </trkpt>
      <trkpt lat="37.0028520" lon="-3.5800910">
        <ele>760.4</ele>
        <time>2020-07-12T06:03:14Z</time>
      </trkpt>
      <trkpt lat="37.0024660" lon="-3.5797220">
        <ele>760.2</ele>
        <time>2020-07-12T06:03:21Z</time>
      </trkpt>
      <trkpt lat="37.0021830" lon="-3.5794580">
        <ele>760.0</ele>
        <time>2020-07-12T06:03:26Z</time>
      </trkpt>
      <trkpt lat="37.0019460" lon="-3.5792360">
        <ele>760.0</ele>
        <time>2020-07-12T06:03:30Z</time>
      </trkpt>
      <trkpt lat="37.0014940" lon="-3.5787970">
        <ele>760.0</ele>
        <time>2020-07-12T06:03:38Z</time>
      </trkpt>
      <trkpt lat="37.0012210" lon="-3.5785130">
        <ele>759.8</ele>
        <time>2020-07-12T06:03:43Z</time>
      </trkpt>
      <trkpt lat="37.0011110" lon="-3.5783870">
        <ele>759.4</ele>
        <time>2020-07-12T06:03:45Z</time>
      </trkpt>
      <trkpt lat="37.0009500" lon="-3.5781840">
        <ele>759.2</ele>
        <time>2020-07-12T06:03:48Z</time>
      </trkpt>
      <trkpt lat="37.0005830" lon="-3.5776290">
        <ele>758.8</ele>
        <time>2020-07-12T06:03:55Z</time>
      </trkpt>
      <trkpt lat="37.0005330" lon="-3.5775470">
        <ele>758.4</ele>
        <time>2020-07-12T06:03:56Z</time>
      </trkpt>
      <trkpt lat="37.0003230" lon="-3.5771810">
        <ele>757.4</ele>
        <time>2020-07-12T06:04:00Z</time>
      </trkpt>
      <trkpt lat="37.0001650" lon="-3.5768950">
        <ele>756.6</ele>
        <time>2020-07-12T06:04:03Z</time>
      </trkpt>
      <trkpt lat="37.0000630" lon="-3.5767060">
        <ele>756.0</ele>
        <time>2020-07-12T06:04:05Z</time>
      </trkpt>
      <trkpt lat="36.9998960" lon="-3.5764050">
        <ele>755.0</ele>
        <time>2020-07-12T06:04:08Z</time>
      </trkpt>
      <trkpt lat="36.9997770" lon="-3.5762100">
        <ele>754.2</ele>
        <time>2020-07-12T06:04:10Z</time>
      </trkpt>
      <trkpt lat="36.9997210" lon="-3.5761220">
        <ele>754.0</ele>
        <time>2020-07-12T06:04:11Z</time>
      </trkpt>
      <trkpt lat="36.9995170" lon="-3.5758230">
        <ele>753.4</ele>
        <time>2020-07-12T06:04:14Z</time>
      </trkpt>
      <trkpt lat="36.9994520" lon="-3.5757250">
        <ele>753.0</ele>
        <time>2020-07-12T06:04:15Z</time>
      </trkpt>
      <trkpt lat="36.9993200" lon="-3.5755380">
        <ele>752.0</ele>
        <time>2020-07-12T06:04:17Z</time>
      </trkpt>
      <trkpt lat="36.9992470" lon="-3.5754380">
        <ele>751.6</ele>
        <time>2020-07-12T06:04:18Z</time>
      </trkpt>
      <trkpt lat="36.9988980" lon="-3.5749740">
        <ele>750.6</ele>
        <time>2020-07-12T06:04:23Z</time>
      </trkpt>
      <trkpt lat="36.9986000" lon="-3.5746110">
        <ele>749.6</ele>
        <time>2020-07-12T06:04:27Z</time>
      </trkpt>
      <trkpt lat="36.9985320" lon="-3.5745260">
        <ele>749.4</ele>
        <time>2020-07-12T06:04:28Z</time>
      </trkpt>
      <trkpt lat="36.9981020" lon="-3.5740110">
        <ele>748.2</ele>
        <time>2020-07-12T06:04:34Z</time>
      </trkpt>
      <trkpt lat="36.9979610" lon="-3.5738440">
        <ele>747.2</ele>
        <time>2020-07-12T06:04:36Z</time>
      </trkpt>
      <trkpt lat="36.9978840" lon="-3.5737520">
        <ele>746.8</ele>
        <time>2020-07-12T06:04:37Z</time>
      </trkpt>
      <trkpt lat="36.9976750" lon="-3.5734880">
        <ele>746.2</ele>
        <time>2020-07-12T06:04:40Z</time>
      </trkpt>
      <trkpt lat="36.9973860" lon="-3.5731590">
        <ele>745.0</ele>
        <time>2020-07-12T06:04:44Z</time>
      </trkpt>
      <trkpt lat="36.9971000" lon="-3.5728180">
        <ele>744.0</ele>
        <time>2020-07-12T06:04:48Z</time>
      </trkpt>
      <trkpt lat="36.9968050" lon="-3.5724660">
        <ele>743.0</ele>
        <time>2020-07-12T06:04:52Z</time>
      </trkpt>
      <trkpt lat="36.9967410" lon="-3.5723900">
        <ele>742.8</ele>
        <time>2020-07-12T06:04:53Z</time>
      </trkpt>
      <trkpt lat="36.9963290" lon="-3.5718980">
        <ele>742.8</ele>
        <time>2020-07-12T06:04:59Z</time>
      </trkpt>
      <trkpt lat="36.9962620" lon="-3.5718150">
        <ele>742.8</ele>
        <time>2020-07-12T06:05:00Z</time>
      </trkpt>
      <trkpt lat="36.9960840" lon="-3.5715930">
        <ele>743.2</ele>
        <time>2020-07-12T06:05:03Z</time>
      </trkpt>
      <trkpt lat="36.9959140" lon="-3.5713820">
        <ele>743.6</ele>
        <time>2020-07-12T06:05:06Z</time>
      </trkpt>
      <trkpt lat="36.9958580" lon="-3.5713080">
        <ele>743.8</ele>
        <time>2020-07-12T06:05:07Z</time>
      </trkpt>
      <trkpt lat="36.9957060" lon="-3.5711130">
        <ele>744.0</ele>
        <time>2020-07-12T06:05:10Z</time>
      </trkpt>
      <trkpt lat="36.9955720" lon="-3.5709390">
        <ele>744.4</ele>
        <time>2020-07-12T06:05:13Z</time>
      </trkpt>
      <trkpt lat="36.9954490" lon="-3.5707760">
        <ele>745.2</ele>
        <time>2020-07-12T06:05:16Z</time>
      </trkpt>
      <trkpt lat="36.9952900" lon="-3.5705650">
        <ele>745.6</ele>
        <time>2020-07-12T06:05:20Z</time>
      </trkpt>
      <trkpt lat="36.9951460" lon="-3.5703680">
        <ele>746.4</ele>
        <time>2020-07-12T06:05:24Z</time>
      </trkpt>
      <trkpt lat="36.9950770" lon="-3.5702770">
        <ele>746.8</ele>
        <time>2020-07-12T06:05:26Z</time>
      </trkpt>
      <trkpt lat="36.9949920" lon="-3.5701620">
        <ele>747.2</ele>
        <time>2020-07-12T06:05:29Z</time>
      </trkpt>
      <trkpt lat="36.9949370" lon="-3.5700860">
        <ele>747.4</ele>
        <time>2020-07-12T06:05:30Z</time>
      </trkpt>
      <trkpt lat="36.9948000" lon="-3.5698950">
        <ele>748.6</ele>
        <time>2020-07-12T06:05:34Z</time>
      </trkpt>
      <trkpt lat="36.9946730" lon="-3.5697040">
        <ele>749.4</ele>
        <time>2020-07-12T06:05:38Z</time>
      </trkpt>
      <trkpt lat="36.9946080" lon="-3.5696100">
        <ele>749.6</ele>
        <time>2020-07-12T06:05:40Z</time>
      </trkpt>
      <trkpt lat="36.9944230" lon="-3.5693320">
        <ele>750.8</ele>
        <time>2020-07-12T06:05:46Z</time>
      </trkpt>
      <trkpt lat="36.9943920" lon="-3.5692870">
        <ele>750.8</ele>
        <time>2020-07-12T06:05:47Z</time>
      </trkpt>
      <trkpt lat="36.9942470" lon="-3.5690650">
        <ele>752.0</ele>
        <time>2020-07-12T06:05:52Z</time>
      </trkpt>
      <trkpt lat="36.9941380" lon="-3.5688960">
        <ele>752.6</ele>
        <time>2020-07-12T06:05:56Z</time>
      </trkpt>
      <trkpt lat="36.9940290" lon="-3.5687270">
        <ele>753.0</ele>
        <time>2020-07-12T06:06:00Z</time>
      </trkpt>
      <trkpt lat="36.9938720" lon="-3.5684800">
        <ele>754.2</ele>
        <time>2020-07-12T06:06:06Z</time>
      </trkpt>
      <trkpt lat="36.9938430" lon="-3.5684350">
        <ele>754.4</ele>
        <time>2020-07-12T06:06:07Z</time>
      </trkpt>
      <trkpt lat="36.9936100" lon="-3.5680530">
        <ele>755.2</ele>
        <time>2020-07-12T06:06:16Z</time>
      </trkpt>
      <trkpt lat="36.9935320" lon="-3.5679230">
        <ele>755.4</ele>
        <time>2020-07-12T06:06:19Z</time>
      </trkpt>
      <trkpt lat="36.9933510" lon="-3.5676250">
        <ele>756.4</ele>
        <time>2020-07-12T06:06:26Z</time>
      </trkpt>
      <trkpt lat="36.9932750" lon="-3.5674950">
        <ele>757.4</ele>
        <time>2020-07-12T06:06:29Z</time>
      </trkpt>
      <trkpt lat="36.9932260" lon="-3.5674110">
        <ele>758.0</ele>
        <time>2020-07-12T06:06:31Z</time>
      </trkpt>
      <trkpt lat="36.9931260" lon="-3.5672450">
        <ele>758.4</ele>
        <time>2020-07-12T06:06:35Z</time>
      </trkpt>
      <trkpt lat="36.9929970" lon="-3.5670280">
        <ele>759.6</ele>
        <time>2020-07-12T06:06:40Z</time>
      </trkpt>
      <trkpt lat="36.9928490" lon="-3.5667780">
        <ele>760.4</ele>
        <time>2020-07-12T06:06:46Z</time>
      </trkpt>
      <trkpt lat="36.9928000" lon="-3.5666930">
        <ele>760.8</ele>
        <time>2020-07-12T06:06:48Z</time>
      </trkpt>
      <trkpt lat="36.9926760" lon="-3.5664830">
        <ele>761.8</ele>
        <time>2020-07-12T06:06:53Z</time>
      </trkpt>
      <trkpt lat="36.9925470" lon="-3.5662690">
        <ele>763.0</ele>
        <time>2020-07-12T06:06:58Z</time>
      </trkpt>
      <trkpt lat="36.9925230" lon="-3.5662270">
        <ele>763.2</ele>
        <time>2020-07-12T06:06:59Z</time>
      </trkpt>
      <trkpt lat="36.9924250" lon="-3.5660570">
        <ele>764.0</ele>
        <time>2020-07-12T06:07:03Z</time>
      </trkpt>
      <trkpt lat="36.9922760" lon="-3.5658090">
        <ele>765.4</ele>
        <time>2020-07-12T06:07:09Z</time>
      </trkpt>
      <trkpt lat="36.9922520" lon="-3.5657680">
        <ele>765.6</ele>
        <time>2020-07-12T06:07:10Z</time>
      </trkpt>
      <trkpt lat="36.9920840" lon="-3.5654880">
        <ele>766.4</ele>
        <time>2020-07-12T06:07:17Z</time>
      </trkpt>
      <trkpt lat="36.9919870" lon="-3.5653250">
        <ele>767.2</ele>
        <time>2020-07-12T06:07:21Z</time>
      </trkpt>
      <trkpt lat="36.9919110" lon="-3.5651990">
        <ele>767.4</ele>
        <time>2020-07-12T06:07:24Z</time>
      </trkpt>
      <trkpt lat="36.9917400" lon="-3.5649060">
        <ele>768.0</ele>
        <time>2020-07-12T06:07:31Z</time>
      </trkpt>
      <trkpt lat="36.9916630" lon="-3.5647790">
        <ele>768.6</ele>
        <time>2020-07-12T06:07:34Z</time>
      </trkpt>
      <trkpt lat="36.9915610" lon="-3.5646130">
        <ele>769.8</ele>
        <time>2020-07-12T06:07:38Z</time>
      </trkpt>
      <trkpt lat="36.9914370" lon="-3.5644000">
        <ele>770.4</ele>
        <time>2020-07-12T06:07:43Z</time>
      </trkpt>
      <trkpt lat="36.9913390" lon="-3.5642410">
        <ele>771.0</ele>
        <time>2020-07-12T06:07:47Z</time>
      </trkpt>
      <trkpt lat="36.9912430" lon="-3.5640760">
        <ele>772.2</ele>
        <time>2020-07-12T06:07:51Z</time>
      </trkpt>
      <trkpt lat="36.9911960" lon="-3.5639950">
        <ele>772.6</ele>
        <time>2020-07-12T06:07:53Z</time>
      </trkpt>
      <trkpt lat="36.9910250" lon="-3.5637100">
        <ele>773.2</ele>
        <time>2020-07-12T06:08:00Z</time>
      </trkpt>
      <trkpt lat="36.9909280" lon="-3.5635470">
        <ele>774.0</ele>
        <time>2020-07-12T06:08:04Z</time>
      </trkpt>
      <trkpt lat="36.9908790" lon="-3.5634690">
        <ele>774.4</ele>
        <time>2020-07-12T06:08:06Z</time>
      </trkpt>
      <trkpt lat="36.9907070" lon="-3.5631770">
        <ele>775.4</ele>
        <time>2020-07-12T06:08:13Z</time>
      </trkpt>
      <trkpt lat="36.9906560" lon="-3.5630950">
        <ele>775.8</ele>
        <time>2020-07-12T06:08:15Z</time>
      </trkpt>
      <trkpt lat="36.9905570" lon="-3.5629290">
        <ele>776.6</ele>
        <time>2020-07-12T06:08:19Z</time>
      </trkpt>
      <trkpt lat="36.9904020" lon="-3.5626660">
        <ele>776.8</ele>
        <time>2020-07-12T06:08:25Z</time>
      </trkpt>
      <trkpt lat="36.9902990" lon="-3.5624910">
        <ele>777.6</ele>
        <time>2020-07-12T06:08:29Z</time>
      </trkpt>
      <trkpt lat="36.9901970" lon="-3.5623220">
        <ele>778.8</ele>
        <time>2020-07-12T06:08:33Z</time>
      </trkpt>
      <trkpt lat="36.9901730" lon="-3.5622820">
        <ele>779.2</ele>
        <time>2020-07-12T06:08:34Z</time>
      </trkpt>
      <trkpt lat="36.9900800" lon="-3.5621220">
        <ele>780.0</ele>
        <time>2020-07-12T06:08:38Z</time>
      </trkpt>
      <trkpt lat="36.9899540" lon="-3.5619160">
        <ele>780.2</ele>
        <time>2020-07-12T06:08:43Z</time>
      </trkpt>
      <trkpt lat="36.9898540" lon="-3.5617510">
        <ele>781.2</ele>
        <time>2020-07-12T06:08:47Z</time>
      </trkpt>
      <trkpt lat="36.9896410" lon="-3.5614260">
        <ele>782.2</ele>
        <time>2020-07-12T06:08:55Z</time>
      </trkpt>
      <trkpt lat="36.9896150" lon="-3.5613890">
        <ele>782.4</ele>
        <time>2020-07-12T06:08:56Z</time>
      </trkpt>
      <trkpt lat="36.9893250" lon="-3.5609970">
        <ele>783.4</ele>
        <time>2020-07-12T06:09:06Z</time>
      </trkpt>
      <trkpt lat="36.9891990" lon="-3.5608430">
        <ele>784.6</ele>
        <time>2020-07-12T06:09:10Z</time>
      </trkpt>
      <trkpt lat="36.9889820" lon="-3.5605940">
        <ele>785.8</ele>
        <time>2020-07-12T06:09:17Z</time>
      </trkpt>
      <trkpt lat="36.9886750" lon="-3.5602730">
        <ele>786.8</ele>
        <time>2020-07-12T06:09:26Z</time>
      </trkpt>
      <trkpt lat="36.9885990" lon="-3.5602010">
        <ele>787.0</ele>
        <time>2020-07-12T06:09:28Z</time>
      </trkpt>
      <trkpt lat="36.9883660" lon="-3.5599940">
        <ele>787.8</ele>
        <time>2020-07-12T06:09:34Z</time>
      </trkpt>
      <trkpt lat="36.9882060" lon="-3.5598670">
        <ele>788.2</ele>
        <time>2020-07-12T06:09:38Z</time>
      </trkpt>
      <trkpt lat="36.9880030" lon="-3.5597150">
        <ele>788.8</ele>
        <time>2020-07-12T06:09:43Z</time>
      </trkpt>
      <trkpt lat="36.9877590" lon="-3.5595410">
        <ele>790.0</ele>
        <time>2020-07-12T06:09:49Z</time>
      </trkpt>
      <trkpt lat="36.9873490" lon="-3.5592950">
        <ele>791.0</ele>
        <time>2020-07-12T06:09:59Z</time>
      </trkpt>
      <trkpt lat="36.9872610" lon="-3.5592460">
        <ele>791.2</ele>
        <time>2020-07-12T06:10:01Z</time>
      </trkpt>
      <trkpt lat="36.9868600" lon="-3.5590520">
        <ele>792.0</ele>
        <time>2020-07-12T06:10:10Z</time>
      </trkpt>
      <trkpt lat="36.9867280" lon="-3.5589940">
        <ele>792.4</ele>
        <time>2020-07-12T06:10:13Z</time>
      </trkpt>
      <trkpt lat="36.9864030" lon="-3.5588700">
        <ele>793.0</ele>
        <time>2020-07-12T06:10:20Z</time>
      </trkpt>
      <trkpt lat="36.9862120" lon="-3.5588100">
        <ele>793.2</ele>
        <time>2020-07-12T06:10:24Z</time>
      </trkpt>
      <trkpt lat="36.9857680" lon="-3.5586980">
        <ele>793.2</ele>
        <time>2020-07-12T06:10:33Z</time>
      </trkpt>
      <trkpt lat="36.9856210" lon="-3.5586690">
        <ele>793.2</ele>
        <time>2020-07-12T06:10:36Z</time>
      </trkpt>
      <trkpt lat="36.9850680" lon="-3.5586030">
        <ele>793.8</ele>
        <time>2020-07-12T06:10:47Z</time>
      </trkpt>
      <trkpt lat="36.9845560" lon="-3.5585940">
        <ele>794.0</ele>
        <time>2020-07-12T06:10:57Z</time>
      </trkpt>
      <trkpt lat="36.9845040" lon="-3.5585940">
        <ele>794.0</ele>
        <time>2020-07-12T06:10:58Z</time>
      </trkpt>
      <trkpt lat="36.9839950" lon="-3.5586150">
        <ele>794.6</ele>
        <time>2020-07-12T06:11:08Z</time>
      </trkpt>
      <trkpt lat="36.9839440" lon="-3.5586160">
        <ele>794.6</ele>
        <time>2020-07-12T06:11:09Z</time>
      </trkpt>
      <trkpt lat="36.9837020" lon="-3.5586200">
        <ele>795.2</ele>
        <time>2020-07-12T06:11:14Z</time>
      </trkpt>
      <trkpt lat="36.9834620" lon="-3.5586400">
        <ele>795.6</ele>
        <time>2020-07-12T06:11:19Z</time>
      </trkpt>
      <trkpt lat="36.9832110" lon="-3.5586470">
        <ele>795.6</ele>
        <time>2020-07-12T06:11:24Z</time>
      </trkpt>
      <trkpt lat="36.9830620" lon="-3.5586530">
        <ele>796.0</ele>
        <time>2020-07-12T06:11:27Z</time>
      </trkpt>
      <trkpt lat="36.9827660" lon="-3.5586550">
        <ele>795.4</ele>
        <time>2020-07-12T06:11:33Z</time>
      </trkpt>
      <trkpt lat="36.9825650" lon="-3.5586570">
        <ele>795.8</ele>
        <time>2020-07-12T06:11:37Z</time>
      </trkpt>
      <trkpt lat="36.9823110" lon="-3.5586590">
        <ele>796.2</ele>
        <time>2020-07-12T06:11:42Z</time>
      </trkpt>
      <trkpt lat="36.9820130" lon="-3.5586670">
        <ele>796.6</ele>
        <time>2020-07-12T06:11:48Z</time>
      </trkpt>
      <trkpt lat="36.9814110" lon="-3.5586820">
        <ele>797.0</ele>
        <time>2020-07-12T06:12:00Z</time>
      </trkpt>
      <trkpt lat="36.9810190" lon="-3.5586870">
        <ele>797.2</ele>
        <time>2020-07-12T06:12:08Z</time>
      </trkpt>
      <trkpt lat="36.9809230" lon="-3.5586850">
        <ele>797.8</ele>
        <time>2020-07-12T06:12:10Z</time>
      </trkpt>
      <trkpt lat="36.9807850" lon="-3.5586950">
        <ele>798.4</ele>
        <time>2020-07-12T06:12:13Z</time>
      </trkpt>
      <trkpt lat="36.9805050" lon="-3.5587000">
        <ele>798.8</ele>
        <time>2020-07-12T06:12:19Z</time>
      </trkpt>
      <trkpt lat="36.9802380" lon="-3.5587000">
        <ele>799.6</ele>
        <time>2020-07-12T06:12:25Z</time>
      </trkpt>
      <trkpt lat="36.9801500" lon="-3.5587000">
        <ele>800.0</ele>
        <time>2020-07-12T06:12:27Z</time>
      </trkpt>
      <trkpt lat="36.9799670" lon="-3.5587000">
        <ele>799.4</ele>
        <time>2020-07-12T06:12:31Z</time>
      </trkpt>
      <trkpt lat="36.9797320" lon="-3.5586940">
        <ele>799.6</ele>
        <time>2020-07-12T06:12:36Z</time>
      </trkpt>
      <trkpt lat="36.9793450" lon="-3.5586980">
        <ele>799.6</ele>
        <time>2020-07-12T06:12:44Z</time>
      </trkpt>
      <trkpt lat="36.9789300" lon="-3.5587130">
        <ele>800.4</ele>
        <time>2020-07-12T06:12:53Z</time>
      </trkpt>
      <trkpt lat="36.9787950" lon="-3.5587160">
        <ele>800.6</ele>
        <time>2020-07-12T06:12:56Z</time>
      </trkpt>
      <trkpt lat="36.9785230" lon="-3.5587230">
        <ele>801.0</ele>
        <time>2020-07-12T06:13:02Z</time>
      </trkpt>
      <trkpt lat="36.9779840" lon="-3.5587420">
        <ele>801.2</ele>
        <time>2020-07-12T06:13:14Z</time>
      </trkpt>
      <trkpt lat="36.9774350" lon="-3.5587580">
        <ele>801.4</ele>
        <time>2020-07-12T06:13:26Z</time>
      </trkpt>
      <trkpt lat="36.9773410" lon="-3.5587610">
        <ele>801.8</ele>
        <time>2020-07-12T06:13:28Z</time>
      </trkpt>
      <trkpt lat="36.9769800" lon="-3.5587670">
        <ele>802.2</ele>
        <time>2020-07-12T06:13:36Z</time>
      </trkpt>
      <trkpt lat="36.9765590" lon="-3.5587900">
        <ele>802.8</ele>
        <time>2020-07-12T06:13:46Z</time>
      </trkpt>
      <trkpt lat="36.9765180" lon="-3.5587930">
        <ele>803.0</ele>
        <time>2020-07-12T06:13:47Z</time>
      </trkpt>
      <trkpt lat="36.9760430" lon="-3.5588040">
        <ele>804.0</ele>
        <time>2020-07-12T06:13:58Z</time>
      </trkpt>
      <trkpt lat="36.9760020" lon="-3.5588060">
        <ele>804.2</ele>
        <time>2020-07-12T06:13:59Z</time>
      </trkpt>
      <trkpt lat="36.9757430" lon="-3.5588160">
        <ele>805.2</ele>
        <time>2020-07-12T06:14:05Z</time>
      </trkpt>
      <trkpt lat="36.9754850" lon="-3.5588250">
        <ele>805.8</ele>
        <time>2020-07-12T06:14:11Z</time>
      </trkpt>
      <trkpt lat="36.9753460" lon="-3.5588290">
        <ele>806.2</ele>
        <time>2020-07-12T06:14:14Z</time>
      </trkpt>
      <trkpt lat="36.9750040" lon="-3.5588350">
        <ele>807.2</ele>
        <time>2020-07-12T06:14:22Z</time>
      </trkpt>
      <trkpt lat="36.9749650" lon="-3.5588350">
        <ele>807.4</ele>
        <time>2020-07-12T06:14:23Z</time>
      </trkpt>
      <trkpt lat="36.9745440" lon="-3.5588460">
        <ele>808.4</ele>
        <time>2020-07-12T06:14:33Z</time>
      </trkpt>
      <trkpt lat="36.9744280" lon="-3.5588470">
        <ele>808.8</ele>
        <time>2020-07-12T06:14:36Z</time>
      </trkpt>
      <trkpt lat="36.9742450" lon="-3.5588590">
        <ele>809.4</ele>
        <time>2020-07-12T06:14:41Z</time>
      </trkpt>
      <trkpt lat="36.9740930" lon="-3.5588860">
        <ele>810.2</ele>
        <time>2020-07-12T06:14:45Z</time>
      </trkpt>
      <trkpt lat="36.9739500" lon="-3.5589530">
        <ele>810.6</ele>
        <time>2020-07-12T06:14:49Z</time>
      </trkpt>
      <trkpt lat="36.9738400" lon="-3.5589760">
        <ele>811.2</ele>
        <time>2020-07-12T06:14:52Z</time>
      </trkpt>
      <trkpt lat="36.9736920" lon="-3.5589380">
        <ele>811.2</ele>
        <time>2020-07-12T06:14:56Z</time>
      </trkpt>
      <trkpt lat="36.9736580" lon="-3.5589020">
        <ele>811.4</ele>
        <time>2020-07-12T06:14:57Z</time>
      </trkpt>
      <trkpt lat="36.9736280" lon="-3.5588590">
        <ele>811.8</ele>
        <time>2020-07-12T06:14:58Z</time>
      </trkpt>
      <trkpt lat="36.9736020" lon="-3.5586860">
        <ele>811.8</ele>
        <time>2020-07-12T06:15:01Z</time>
      </trkpt>
      <trkpt lat="36.9736860" lon="-3.5584880">
        <ele>811.6</ele>
        <time>2020-07-12T06:15:04Z</time>
      </trkpt>
      <trkpt lat="36.9737770" lon="-3.5583850">
        <ele>811.2</ele>
        <time>2020-07-12T06:15:06Z</time>
      </trkpt>
      <trkpt lat="36.9738770" lon="-3.5582710">
        <ele>810.2</ele>
        <time>2020-07-12T06:15:08Z</time>
      </trkpt>
      <trkpt lat="36.9739220" lon="-3.5582060">
        <ele>810.0</ele>
        <time>2020-07-12T06:15:09Z</time>
      </trkpt>
      <trkpt lat="36.9740900" lon="-3.5578510">
        <ele>809.6</ele>
        <time>2020-07-12T06:15:14Z</time>
      </trkpt>
      <trkpt lat="36.9741050" lon="-3.5577760">
        <ele>809.8</ele>
        <time>2020-07-12T06:15:15Z</time>
      </trkpt>
      <trkpt lat="36.9740910" lon="-3.5575610">
        <ele>810.4</ele>
        <time>2020-07-12T06:15:18Z</time>
      </trkpt>
      <trkpt lat="36.9739650" lon="-3.5574130">
        <ele>811.4</ele>
        <time>2020-07-12T06:15:21Z</time>
      </trkpt>
      <trkpt lat="36.9739140" lon="-3.5573700">
        <ele>811.6</ele>
        <time>2020-07-12T06:15:22Z</time>
      </trkpt>
      <trkpt lat="36.9736280" lon="-3.5571430">
        <ele>812.4</ele>
        <time>2020-07-12T06:15:28Z</time>
      </trkpt>
      <trkpt lat="36.9735820" lon="-3.5571080">
        <ele>812.6</ele>
        <time>2020-07-12T06:15:29Z</time>
      </trkpt>
      <trkpt lat="36.9732460" lon="-3.5568540">
        <ele>812.2</ele>
        <time>2020-07-12T06:15:36Z</time>
      </trkpt>
      <trkpt lat="36.9728230" lon="-3.5565430">
        <ele>813.6</ele>
        <time>2020-07-12T06:15:45Z</time>
      </trkpt>
      <trkpt lat="36.9723370" lon="-3.5561820">
        <ele>814.2</ele>
        <time>2020-07-12T06:15:56Z</time>
      </trkpt>
      <trkpt lat="36.9718350" lon="-3.5558030">
        <ele>814.2</ele>
        <time>2020-07-12T06:16:07Z</time>
      </trkpt>
      <trkpt lat="36.9715650" lon="-3.5556060">
        <ele>814.8</ele>
        <time>2020-07-12T06:16:13Z</time>
      </trkpt>
      <trkpt lat="36.9713460" lon="-3.5554450">
        <ele>815.6</ele>
        <time>2020-07-12T06:16:18Z</time>
      </trkpt>
      <trkpt lat="36.9713050" lon="-3.5554150">
        <ele>816.0</ele>
        <time>2020-07-12T06:16:19Z</time>
      </trkpt>
      <trkpt lat="36.9710530" lon="-3.5552310">
        <ele>817.0</ele>
        <time>2020-07-12T06:16:25Z</time>
      </trkpt>
      <trkpt lat="36.9709690" lon="-3.5551690">
        <ele>817.0</ele>
        <time>2020-07-12T06:16:27Z</time>
      </trkpt>
      <trkpt lat="36.9708080" lon="-3.5550510">
        <ele>817.8</ele>
        <time>2020-07-12T06:16:31Z</time>
      </trkpt>
      <trkpt lat="36.9706900" lon="-3.5549610">
        <ele>818.2</ele>
        <time>2020-07-12T06:16:34Z</time>
      </trkpt>
      <trkpt lat="36.9705720" lon="-3.5548720">
        <ele>818.4</ele>
        <time>2020-07-12T06:16:37Z</time>
      </trkpt>
      <trkpt lat="36.9703260" lon="-3.5546890">
        <ele>819.2</ele>
        <time>2020-07-12T06:16:43Z</time>
      </trkpt>
      <trkpt lat="36.9701200" lon="-3.5545360">
        <ele>820.2</ele>
        <time>2020-07-12T06:16:48Z</time>
      </trkpt>
      <trkpt lat="36.9698030" lon="-3.5542910">
        <ele>821.4</ele>
        <time>2020-07-12T06:16:56Z</time>
      </trkpt>
      <trkpt lat="36.9696850" lon="-3.5542000">
        <ele>822.2</ele>
        <time>2020-07-12T06:16:59Z</time>
      </trkpt>
      <trkpt lat="36.9696410" lon="-3.5541690">
        <ele>822.6</ele>
        <time>2020-07-12T06:17:00Z</time>
      </trkpt>
      <trkpt lat="36.9693120" lon="-3.5539280">
        <ele>823.6</ele>
        <time>2020-07-12T06:17:08Z</time>
      </trkpt>
      <trkpt lat="36.9692700" lon="-3.5538970">
        <ele>824.0</ele>
        <time>2020-07-12T06:17:09Z</time>
      </trkpt>
      <trkpt lat="36.9690620" lon="-3.5537450">
        <ele>824.8</ele>
        <time>2020-07-12T06:17:14Z</time>
      </trkpt>
      <trkpt lat="36.9688140" lon="-3.5535570">
        <ele>825.4</ele>
        <time>2020-07-12T06:17:20Z</time>
      </trkpt>
      <trkpt lat="36.9686900" lon="-3.5534630">
        <ele>825.8</ele>
        <time>2020-07-12T06:17:23Z</time>
      </trkpt>
      <trkpt lat="36.9684720" lon="-3.5533070">
        <ele>826.8</ele>
        <time>2020-07-12T06:17:28Z</time>
      </trkpt>
      <trkpt lat="36.9683880" lon="-3.5532430">
        <ele>827.0</ele>
        <time>2020-07-12T06:17:30Z</time>
      </trkpt>
      <trkpt lat="36.9680540" lon="-3.5529940">
        <ele>827.8</ele>
        <time>2020-07-12T06:17:38Z</time>
      </trkpt>
      <trkpt lat="36.9678000" lon="-3.5527960">
        <ele>828.0</ele>
        <time>2020-07-12T06:17:44Z</time>
      </trkpt>
      <trkpt lat="36.9675360" lon="-3.5525920">
        <ele>828.4</ele>
        <time>2020-07-12T06:17:50Z</time>
      </trkpt>
      <trkpt lat="36.9671180" lon="-3.5522820">
        <ele>828.6</ele>
        <time>2020-07-12T06:17:59Z</time>
      </trkpt>
      <trkpt lat="36.9668780" lon="-3.5521000">
        <ele>829.0</ele>
        <time>2020-07-12T06:18:04Z</time>
      </trkpt>
      <trkpt lat="36.9666410" lon="-3.5519240">
        <ele>829.0</ele>
        <time>2020-07-12T06:18:09Z</time>
      </trkpt>
      <trkpt lat="36.9663520" lon="-3.5517050">
        <ele>829.2</ele>
        <time>2020-07-12T06:18:15Z</time>
      </trkpt>
      <trkpt lat="36.9660500" lon="-3.5514820">
        <ele>829.4</ele>
        <time>2020-07-12T06:18:21Z</time>
      </trkpt>
      <trkpt lat="36.9657380" lon="-3.5512380">
        <ele>829.0</ele>
        <time>2020-07-12T06:18:27Z</time>
      </trkpt>
      <trkpt lat="36.9655270" lon="-3.5510690">
        <ele>829.0</ele>
        <time>2020-07-12T06:18:31Z</time>
      </trkpt>
      <trkpt lat="36.9653580" lon="-3.5509230">
        <ele>829.0</ele>
        <time>2020-07-12T06:18:34Z</time>
      </trkpt>
      <trkpt lat="36.9651140" lon="-3.5507510">
        <ele>828.0</ele>
        <time>2020-07-12T06:18:38Z</time>
      </trkpt>
      <trkpt lat="36.9647870" lon="-3.5505160">
        <ele>826.8</ele>
        <time>2020-07-12T06:18:43Z</time>
      </trkpt>
      <trkpt lat="36.9645250" lon="-3.5503240">
        <ele>825.2</ele>
        <time>2020-07-12T06:18:47Z</time>
      </trkpt>
      <trkpt lat="36.9643420" lon="-3.5501380">
        <ele>824.0</ele>
        <time>2020-07-12T06:18:50Z</time>
      </trkpt>
      <trkpt lat="36.9643040" lon="-3.5500580">
        <ele>823.6</ele>
        <time>2020-07-12T06:18:51Z</time>
      </trkpt>
      <trkpt lat="36.9642650" lon="-3.5498670">
        <ele>822.8</ele>
        <time>2020-07-12T06:18:53Z</time>
      </trkpt>
      <trkpt lat="36.9642520" lon="-3.5497600">
        <ele>822.6</ele>
        <time>2020-07-12T06:18:54Z</time>
      </trkpt>
      <trkpt lat="36.9642230" lon="-3.5494310">
        <ele>821.2</ele>
        <time>2020-07-12T06:18:57Z</time>
      </trkpt>
      <trkpt lat="36.9641930" lon="-3.5492020">
        <ele>820.2</ele>
        <time>2020-07-12T06:18:59Z</time>
      </trkpt>
      <trkpt lat="36.9641700" lon="-3.5490730">
        <ele>819.8</ele>
        <time>2020-07-12T06:19:00Z</time>
      </trkpt>
      <trkpt lat="36.9641430" lon="-3.5489580">
        <ele>819.0</ele>
        <time>2020-07-12T06:19:01Z</time>
      </trkpt>
      <trkpt lat="36.9640660" lon="-3.5487020">
        <ele>818.0</ele>
        <time>2020-07-12T06:19:03Z</time>
      </trkpt>
      <trkpt lat="36.9640260" lon="-3.5485820">
        <ele>817.2</ele>
        <time>2020-07-12T06:19:04Z</time>
      </trkpt>
      <trkpt lat="36.9639820" lon="-3.5484630">
        <ele>817.0</ele>
        <time>2020-07-12T06:19:05Z</time>
      </trkpt>
      <trkpt lat="36.9638840" lon="-3.5482120">
        <ele>815.8</ele>
        <time>2020-07-12T06:19:07Z</time>
      </trkpt>
      <trkpt lat="36.9637450" lon="-3.5478750">
        <ele>814.2</ele>
        <time>2020-07-12T06:19:10Z</time>
      </trkpt>
      <trkpt lat="36.9636930" lon="-3.5476690">
        <ele>812.8</ele>
        <time>2020-07-12T06:19:12Z</time>
      </trkpt>
      <trkpt lat="36.9636890" lon="-3.5475790">
        <ele>812.6</ele>
        <time>2020-07-12T06:19:13Z</time>
      </trkpt>
      <trkpt lat="36.9637200" lon="-3.5473770">
        <ele>811.6</ele>
        <time>2020-07-12T06:19:15Z</time>
      </trkpt>
      <trkpt lat="36.9637580" lon="-3.5472850">
        <ele>810.8</ele>
        <time>2020-07-12T06:19:16Z</time>
      </trkpt>
      <trkpt lat="36.9638770" lon="-3.5471000">
        <ele>810.0</ele>
        <time>2020-07-12T06:19:18Z</time>
      </trkpt>
      <trkpt lat="36.9639460" lon="-3.5470320">
        <ele>809.6</ele>
        <time>2020-07-12T06:19:19Z</time>
      </trkpt>
      <trkpt lat="36.9641980" lon="-3.5468670">
        <ele>808.6</ele>
        <time>2020-07-12T06:19:22Z</time>
      </trkpt>
      <trkpt lat="36.9643730" lon="-3.5467490">
        <ele>807.4</ele>
        <time>2020-07-12T06:19:24Z</time>
      </trkpt>
      <trkpt lat="36.9645600" lon="-3.5466090">
        <ele>805.6</ele>
        <time>2020-07-12T06:19:26Z</time>
      </trkpt>
      <trkpt lat="36.9646600" lon="-3.5465310">
        <ele>804.8</ele>
        <time>2020-07-12T06:19:27Z</time>
      </trkpt>
      <trkpt lat="36.9647540" lon="-3.5464550">
        <ele>803.8</ele>
        <time>2020-07-12T06:19:28Z</time>
      </trkpt>
      <trkpt lat="36.9652480" lon="-3.5460500">
        <ele>802.8</ele>
        <time>2020-07-12T06:19:33Z</time>
      </trkpt>
      <trkpt lat="36.9653470" lon="-3.5459640">
        <ele>802.2</ele>
        <time>2020-07-12T06:19:34Z</time>
      </trkpt>
      <trkpt lat="36.9654400" lon="-3.5458820">
        <ele>801.6</ele>
        <time>2020-07-12T06:19:35Z</time>
      </trkpt>
      <trkpt lat="36.9656550" lon="-3.5457180">
        <ele>800.6</ele>
        <time>2020-07-12T06:19:37Z</time>
      </trkpt>
      <trkpt lat="36.9657910" lon="-3.5456150">
        <ele>799.8</ele>
        <time>2020-07-12T06:19:41Z</time>
      </trkpt>
      <trkpt lat="36.9659270" lon="-3.5455120">
        <ele>799.4</ele>
        <time>2020-07-12T06:19:42Z</time>
      </trkpt>
      <trkpt lat="36.9664700" lon="-3.5451010">
        <ele>797.4</ele>
        <time>2020-07-12T06:19:44Z</time>
      </trkpt>
      <trkpt lat="36.9666840" lon="-3.5449710">
        <ele>795.6</ele>
        <time>2020-07-12T06:19:46Z</time>
      </trkpt>
      <trkpt lat="36.9667980" lon="-3.5448980">
        <ele>794.4</ele>
        <time>2020-07-12T06:19:47Z</time>
      </trkpt>
      <trkpt lat="36.9669070" lon="-3.5448290">
        <ele>793.0</ele>
        <time>2020-07-12T06:19:48Z</time>
      </trkpt>
      <trkpt lat="36.9670820" lon="-3.5447100">
        <ele>791.8</ele>
        <time>2020-07-12T06:19:50Z</time>
      </trkpt>
      <trkpt lat="36.9672400" lon="-3.5445540">
        <ele>790.4</ele>
        <time>2020-07-12T06:19:52Z</time>
      </trkpt>
      <trkpt lat="36.9673350" lon="-3.5443330">
        <ele>789.2</ele>
        <time>2020-07-12T06:19:54Z</time>
      </trkpt>
      <trkpt lat="36.9673470" lon="-3.5442110">
        <ele>788.8</ele>
        <time>2020-07-12T06:19:55Z</time>
      </trkpt>
      <trkpt lat="36.9673020" lon="-3.5439610">
        <ele>787.8</ele>
        <time>2020-07-12T06:19:57Z</time>
      </trkpt>
      <trkpt lat="36.9671580" lon="-3.5436690">
        <ele>787.4</ele>
        <time>2020-07-12T06:20:00Z</time>
      </trkpt>
      <trkpt lat="36.9670060" lon="-3.5433970">
        <ele>788.0</ele>
        <time>2020-07-12T06:20:03Z</time>
      </trkpt>
      <trkpt lat="36.9668660" lon="-3.5431430">
        <ele>788.6</ele>
        <time>2020-07-12T06:20:06Z</time>
      </trkpt>
      <trkpt lat="36.9668180" lon="-3.5430560">
        <ele>788.6</ele>
        <time>2020-07-12T06:20:07Z</time>
      </trkpt>
      <trkpt lat="36.9667720" lon="-3.5429770">
        <ele>789.0</ele>
        <time>2020-07-12T06:20:08Z</time>
      </trkpt>
      <trkpt lat="36.9666640" lon="-3.5428300">
        <ele>789.0</ele>
        <time>2020-07-12T06:20:10Z</time>
      </trkpt>
      <trkpt lat="36.9665050" lon="-3.5427310">
        <ele>788.4</ele>
        <time>2020-07-12T06:20:12Z</time>
      </trkpt>
      <trkpt lat="36.9663410" lon="-3.5427720">
        <ele>787.6</ele>
        <time>2020-07-12T06:20:14Z</time>
      </trkpt>
      <trkpt lat="36.9661220" lon="-3.5429690">
        <ele>786.4</ele>
        <time>2020-07-12T06:20:17Z</time>
      </trkpt>
      <trkpt lat="36.9659640" lon="-3.5431020">
        <ele>785.2</ele>
        <time>2020-07-12T06:20:19Z</time>
      </trkpt>
      <trkpt lat="36.9657940" lon="-3.5432330">
        <ele>784.2</ele>
        <time>2020-07-12T06:20:21Z</time>
      </trkpt>
      <trkpt lat="36.9656150" lon="-3.5433550">
        <ele>783.0</ele>
        <time>2020-07-12T06:20:23Z</time>
      </trkpt>
      <trkpt lat="36.9654290" lon="-3.5434540">
        <ele>781.8</ele>
        <time>2020-07-12T06:20:25Z</time>
      </trkpt>
      <trkpt lat="36.9652290" lon="-3.5435510">
        <ele>780.2</ele>
        <time>2020-07-12T06:20:27Z</time>
      </trkpt>
      <trkpt lat="36.9650310" lon="-3.5436480">
        <ele>778.8</ele>
        <time>2020-07-12T06:20:29Z</time>
      </trkpt>
      <trkpt lat="36.9648390" lon="-3.5437610">
        <ele>777.6</ele>
        <time>2020-07-12T06:20:31Z</time>
      </trkpt>
      <trkpt lat="36.9646490" lon="-3.5438940">
        <ele>776.2</ele>
        <time>2020-07-12T06:20:33Z</time>
      </trkpt>
      <trkpt lat="36.9645660" lon="-3.5439510">
        <ele>775.4</ele>
        <time>2020-07-12T06:20:34Z</time>
      </trkpt>
      <trkpt lat="36.9644750" lon="-3.5440160">
        <ele>774.8</ele>
        <time>2020-07-12T06:20:35Z</time>
      </trkpt>
      <trkpt lat="36.9642770" lon="-3.5441540">
        <ele>773.4</ele>
        <time>2020-07-12T06:20:37Z</time>
      </trkpt>
      <trkpt lat="36.9640870" lon="-3.5442750">
        <ele>772.2</ele>
        <time>2020-07-12T06:20:39Z</time>
      </trkpt>
      <trkpt lat="36.9638940" lon="-3.5443730">
        <ele>771.4</ele>
        <time>2020-07-12T06:20:41Z</time>
      </trkpt>
      <trkpt lat="36.9637960" lon="-3.5444160">
        <ele>771.0</ele>
        <time>2020-07-12T06:20:42Z</time>
      </trkpt>
      <trkpt lat="36.9635250" lon="-3.5445270">
        <ele>769.6</ele>
        <time>2020-07-12T06:20:45Z</time>
      </trkpt>
      <trkpt lat="36.9632450" lon="-3.5446340">
        <ele>768.4</ele>
        <time>2020-07-12T06:20:48Z</time>
      </trkpt>
      <trkpt lat="36.9631500" lon="-3.5446650">
        <ele>768.2</ele>
        <time>2020-07-12T06:20:49Z</time>
      </trkpt>
      <trkpt lat="36.9629540" lon="-3.5447260">
        <ele>767.2</ele>
        <time>2020-07-12T06:20:51Z</time>
      </trkpt>
      <trkpt lat="36.9626630" lon="-3.5448110">
        <ele>765.6</ele>
        <time>2020-07-12T06:20:54Z</time>
      </trkpt>
      <trkpt lat="36.9624650" lon="-3.5448680">
        <ele>764.4</ele>
        <time>2020-07-12T06:20:56Z</time>
      </trkpt>
      <trkpt lat="36.9622780" lon="-3.5449230">
        <ele>762.8</ele>
        <time>2020-07-12T06:20:58Z</time>
      </trkpt>
      <trkpt lat="36.9621650" lon="-3.5449520">
        <ele>762.2</ele>
        <time>2020-07-12T06:20:59Z</time>
      </trkpt>
      <trkpt lat="36.9620870" lon="-3.5449690">
        <ele>761.4</ele>
        <time>2020-07-12T06:21:00Z</time>
      </trkpt>
      <trkpt lat="36.9618720" lon="-3.5450050">
        <ele>760.0</ele>
        <time>2020-07-12T06:21:02Z</time>
      </trkpt>
      <trkpt lat="36.9616720" lon="-3.5450220">
        <ele>758.8</ele>
        <time>2020-07-12T06:21:04Z</time>
      </trkpt>
      <trkpt lat="36.9615690" lon="-3.5450280">
        <ele>758.2</ele>
        <time>2020-07-12T06:21:05Z</time>
      </trkpt>
      <trkpt lat="36.9614610" lon="-3.5450340">
        <ele>757.4</ele>
        <time>2020-07-12T06:21:06Z</time>
      </trkpt>
      <trkpt lat="36.9612620" lon="-3.5450440">
        <ele>756.0</ele>
        <time>2020-07-12T06:21:08Z</time>
      </trkpt>
      <trkpt lat="36.9611640" lon="-3.5450510">
        <ele>755.0</ele>
        <time>2020-07-12T06:21:09Z</time>
      </trkpt>
      <trkpt lat="36.9609670" lon="-3.5450550">
        <ele>754.0</ele>
        <time>2020-07-12T06:21:11Z</time>
      </trkpt>
      <trkpt lat="36.9607700" lon="-3.5450600">
        <ele>752.6</ele>
        <time>2020-07-12T06:21:13Z</time>
      </trkpt>
      <trkpt lat="36.9605870" lon="-3.5450640">
        <ele>751.6</ele>
        <time>2020-07-12T06:21:15Z</time>
      </trkpt>
      <trkpt lat="36.9604040" lon="-3.5450590">
        <ele>749.8</ele>
        <time>2020-07-12T06:21:17Z</time>
      </trkpt>
      <trkpt lat="36.9601600" lon="-3.5450270">
        <ele>749.0</ele>
        <time>2020-07-12T06:21:20Z</time>
      </trkpt>
      <trkpt lat="36.9599290" lon="-3.5449840">
        <ele>748.8</ele>
        <time>2020-07-12T06:21:23Z</time>
      </trkpt>
      <trkpt lat="36.9597070" lon="-3.5449350">
        <ele>747.6</ele>
        <time>2020-07-12T06:21:26Z</time>
      </trkpt>
      <trkpt lat="36.9594870" lon="-3.5448910">
        <ele>748.0</ele>
        <time>2020-07-12T06:21:29Z</time>
      </trkpt>
      <trkpt lat="36.9594190" lon="-3.5448830">
        <ele>748.2</ele>
        <time>2020-07-12T06:21:30Z</time>
      </trkpt>
      <trkpt lat="36.9591780" lon="-3.5449040">
        <ele>747.8</ele>
        <time>2020-07-12T06:21:33Z</time>
      </trkpt>
      <trkpt lat="36.9590990" lon="-3.5449270">
        <ele>747.6</ele>
        <time>2020-07-12T06:21:34Z</time>
      </trkpt>
      <trkpt lat="36.9586510" lon="-3.5451270">
        <ele>746.4</ele>
        <time>2020-07-12T06:21:39Z</time>
      </trkpt>
      <trkpt lat="36.9584620" lon="-3.5454040">
        <ele>745.4</ele>
        <time>2020-07-12T06:21:42Z</time>
      </trkpt>
      <trkpt lat="36.9583810" lon="-3.5456370">
        <ele>743.6</ele>
        <time>2020-07-12T06:21:44Z</time>
      </trkpt>
      <trkpt lat="36.9582970" lon="-3.5458630">
        <ele>742.2</ele>
        <time>2020-07-12T06:21:46Z</time>
      </trkpt>
      <trkpt lat="36.9582440" lon="-3.5459850">
        <ele>741.2</ele>
        <time>2020-07-12T06:21:47Z</time>
      </trkpt>
      <trkpt lat="36.9582050" lon="-3.5460770">
        <ele>740.6</ele>
        <time>2020-07-12T06:21:48Z</time>
      </trkpt>
      <trkpt lat="36.9580920" lon="-3.5462650">
        <ele>739.6</ele>
        <time>2020-07-12T06:21:50Z</time>
      </trkpt>
      <trkpt lat="36.9580220" lon="-3.5463440">
        <ele>739.2</ele>
        <time>2020-07-12T06:21:51Z</time>
      </trkpt>
      <trkpt lat="36.9577730" lon="-3.5464940">
        <ele>738.2</ele>
        <time>2020-07-12T06:21:54Z</time>
      </trkpt>
      <trkpt lat="36.9576990" lon="-3.5465220">
        <ele>738.0</ele>
        <time>2020-07-12T06:21:55Z</time>
      </trkpt>
      <trkpt lat="36.9574570" lon="-3.5466020">
        <ele>737.6</ele>
        <time>2020-07-12T06:21:58Z</time>
      </trkpt>
      <trkpt lat="36.9572930" lon="-3.5466540">
        <ele>737.4</ele>
        <time>2020-07-12T06:22:00Z</time>
      </trkpt>
      <trkpt lat="36.9570540" lon="-3.5467420">
        <ele>737.0</ele>
        <time>2020-07-12T06:22:03Z</time>
      </trkpt>
      <trkpt lat="36.9569190" lon="-3.5468040">
        <ele>736.8</ele>
        <time>2020-07-12T06:22:05Z</time>
      </trkpt>
      <trkpt lat="36.9567730" lon="-3.5468910">
        <ele>736.6</ele>
        <time>2020-07-12T06:22:07Z</time>
      </trkpt>
      <trkpt lat="36.9565220" lon="-3.5471000">
        <ele>736.0</ele>
        <time>2020-07-12T06:22:11Z</time>
      </trkpt>
      <trkpt lat="36.9564000" lon="-3.5472060">
        <ele>735.6</ele>
        <time>2020-07-12T06:22:13Z</time>
      </trkpt>
      <trkpt lat="36.9562210" lon="-3.5473520">
        <ele>734.2</ele>
        <time>2020-07-12T06:22:16Z</time>
      </trkpt>
      <trkpt lat="36.9559170" lon="-3.5476060">
        <ele>733.4</ele>
        <time>2020-07-12T06:22:21Z</time>
      </trkpt>
      <trkpt lat="36.9558580" lon="-3.5476520">
        <ele>733.2</ele>
        <time>2020-07-12T06:22:22Z</time>
      </trkpt>
      <trkpt lat="36.9555220" lon="-3.5478630">
        <ele>732.0</ele>
        <time>2020-07-12T06:22:27Z</time>
      </trkpt>
      <trkpt lat="36.9554580" lon="-3.5479030">
        <ele>731.8</ele>
        <time>2020-07-12T06:22:28Z</time>
      </trkpt>
      <trkpt lat="36.9551660" lon="-3.5480740">
        <ele>730.8</ele>
        <time>2020-07-12T06:22:32Z</time>
      </trkpt>
      <trkpt lat="36.9549400" lon="-3.5481980">
        <ele>729.8</ele>
        <time>2020-07-12T06:22:35Z</time>
      </trkpt>
      <trkpt lat="36.9548560" lon="-3.5482430">
        <ele>729.4</ele>
        <time>2020-07-12T06:22:36Z</time>
      </trkpt>
      <trkpt lat="36.9546950" lon="-3.5483340">
        <ele>728.6</ele>
        <time>2020-07-12T06:22:38Z</time>
      </trkpt>
      <trkpt lat="36.9546190" lon="-3.5483760">
        <ele>728.2</ele>
        <time>2020-07-12T06:22:39Z</time>
      </trkpt>
      <trkpt lat="36.9544640" lon="-3.5484630">
        <ele>727.4</ele>
        <time>2020-07-12T06:22:41Z</time>
      </trkpt>
      <trkpt lat="36.9543130" lon="-3.5485500">
        <ele>727.0</ele>
        <time>2020-07-12T06:22:43Z</time>
      </trkpt>
      <trkpt lat="36.9542330" lon="-3.5485900">
        <ele>726.6</ele>
        <time>2020-07-12T06:22:44Z</time>
      </trkpt>
      <trkpt lat="36.9540040" lon="-3.5487190">
        <ele>725.8</ele>
        <time>2020-07-12T06:22:47Z</time>
      </trkpt>
      <trkpt lat="36.9537540" lon="-3.5488460">
        <ele>724.4</ele>
        <time>2020-07-12T06:22:51Z</time>
      </trkpt>
      <trkpt lat="36.9536660" lon="-3.5488890">
        <ele>724.2</ele>
        <time>2020-07-12T06:22:52Z</time>
      </trkpt>
      <trkpt lat="36.9535280" lon="-3.5489720">
        <ele>722.8</ele>
        <time>2020-07-12T06:22:54Z</time>
      </trkpt>
      <trkpt lat="36.9533870" lon="-3.5490710">
        <ele>721.8</ele>
        <time>2020-07-12T06:22:56Z</time>
      </trkpt>
      <trkpt lat="36.9532330" lon="-3.5491790">
        <ele>721.0</ele>
        <time>2020-07-12T06:22:58Z</time>
      </trkpt>
      <trkpt lat="36.9531570" lon="-3.5492340">
        <ele>720.2</ele>
        <time>2020-07-12T06:22:59Z</time>
      </trkpt>
      <trkpt lat="36.9530020" lon="-3.5493540">
        <ele>719.2</ele>
        <time>2020-07-12T06:23:01Z</time>
      </trkpt>
      <trkpt lat="36.9527570" lon="-3.5495430">
        <ele>717.8</ele>
        <time>2020-07-12T06:23:04Z</time>
      </trkpt>
      <trkpt lat="36.9525010" lon="-3.5497420">
        <ele>716.2</ele>
        <time>2020-07-12T06:23:07Z</time>
      </trkpt>
      <trkpt lat="36.9523260" lon="-3.5498720">
        <ele>715.0</ele>
        <time>2020-07-12T06:23:09Z</time>
      </trkpt>
      <trkpt lat="36.9520540" lon="-3.5500700">
        <ele>713.6</ele>
        <time>2020-07-12T06:23:12Z</time>
      </trkpt>
      <trkpt lat="36.9517830" lon="-3.5502620">
        <ele>712.0</ele>
        <time>2020-07-12T06:23:15Z</time>
      </trkpt>
      <trkpt lat="36.9516150" lon="-3.5503790">
        <ele>710.2</ele>
        <time>2020-07-12T06:23:17Z</time>
      </trkpt>
      <trkpt lat="36.9514470" lon="-3.5504950">
        <ele>708.4</ele>
        <time>2020-07-12T06:23:19Z</time>
      </trkpt>
      <trkpt lat="36.9512900" lon="-3.5506110">
        <ele>707.2</ele>
        <time>2020-07-12T06:23:21Z</time>
      </trkpt>
      <trkpt lat="36.9510210" lon="-3.5508010">
        <ele>705.8</ele>
        <time>2020-07-12T06:23:24Z</time>
      </trkpt>
      <trkpt lat="36.9508540" lon="-3.5509240">
        <ele>705.0</ele>
        <time>2020-07-12T06:23:26Z</time>
      </trkpt>
      <trkpt lat="36.9506730" lon="-3.5510520">
        <ele>704.4</ele>
        <time>2020-07-12T06:23:28Z</time>
      </trkpt>
      <trkpt lat="36.9504960" lon="-3.5511800">
        <ele>702.8</ele>
        <time>2020-07-12T06:23:30Z</time>
      </trkpt>
      <trkpt lat="36.9503130" lon="-3.5513070">
        <ele>701.0</ele>
        <time>2020-07-12T06:23:32Z</time>
      </trkpt>
      <trkpt lat="36.9501260" lon="-3.5514370">
        <ele>699.6</ele>
        <time>2020-07-12T06:23:34Z</time>
      </trkpt>
      <trkpt lat="36.9499430" lon="-3.5515670">
        <ele>698.6</ele>
        <time>2020-07-12T06:23:36Z</time>
      </trkpt>
      <trkpt lat="36.9497480" lon="-3.5517020">
        <ele>697.2</ele>
        <time>2020-07-12T06:23:38Z</time>
      </trkpt>
      <trkpt lat="36.9495600" lon="-3.5518090">
        <ele>695.6</ele>
        <time>2020-07-12T06:23:40Z</time>
      </trkpt>
      <trkpt lat="36.9494640" lon="-3.5518620">
        <ele>695.6</ele>
        <time>2020-07-12T06:23:41Z</time>
      </trkpt>
      <trkpt lat="36.9493990" lon="-3.5518580">
        <ele>695.0</ele>
        <time>2020-07-12T06:23:42Z</time>
      </trkpt>
      <trkpt lat="36.9492560" lon="-3.5518720">
        <ele>694.4</ele>
        <time>2020-07-12T06:23:43Z</time>
      </trkpt>
      <trkpt lat="36.9491530" lon="-3.5518610">
        <ele>693.6</ele>
        <time>2020-07-12T06:23:44Z</time>
      </trkpt>
      <trkpt lat="36.9490490" lon="-3.5518380">
        <ele>692.8</ele>
        <time>2020-07-12T06:23:45Z</time>
      </trkpt>
      <trkpt lat="36.9488550" lon="-3.5517570">
        <ele>691.6</ele>
        <time>2020-07-12T06:23:47Z</time>
      </trkpt>
      <trkpt lat="36.9486790" lon="-3.5516420">
        <ele>690.2</ele>
        <time>2020-07-12T06:23:49Z</time>
      </trkpt>
      <trkpt lat="36.9485220" lon="-3.5515030">
        <ele>688.8</ele>
        <time>2020-07-12T06:23:51Z</time>
      </trkpt>
      <trkpt lat="36.9484490" lon="-3.5514190">
        <ele>688.4</ele>
        <time>2020-07-12T06:23:52Z</time>
      </trkpt>
      <trkpt lat="36.9483820" lon="-3.5513380">
        <ele>687.8</ele>
        <time>2020-07-12T06:23:53Z</time>
      </trkpt>
      <trkpt lat="36.9482490" lon="-3.5511760">
        <ele>687.2</ele>
        <time>2020-07-12T06:23:55Z</time>
      </trkpt>
      <trkpt lat="36.9481870" lon="-3.5511020">
        <ele>686.8</ele>
        <time>2020-07-12T06:23:56Z</time>
      </trkpt>
      <trkpt lat="36.9479970" lon="-3.5508720">
        <ele>685.6</ele>
        <time>2020-07-12T06:23:59Z</time>
      </trkpt>
      <trkpt lat="36.9478010" lon="-3.5506270">
        <ele>684.2</ele>
        <time>2020-07-12T06:24:02Z</time>
      </trkpt>
      <trkpt lat="36.9476790" lon="-3.5504720">
        <ele>683.0</ele>
        <time>2020-07-12T06:24:04Z</time>
      </trkpt>
      <trkpt lat="36.9474950" lon="-3.5502250">
        <ele>681.8</ele>
        <time>2020-07-12T06:24:07Z</time>
      </trkpt>
      <trkpt lat="36.9473080" lon="-3.5500150">
        <ele>681.2</ele>
        <time>2020-07-12T06:24:10Z</time>
      </trkpt>
      <trkpt lat="36.9472840" lon="-3.5500030">
        <ele>681.0</ele>
        <time>2020-07-12T06:24:11Z</time>
      </trkpt>
      <trkpt lat="36.9471910" lon="-3.5499570">
        <ele>680.8</ele>
        <time>2020-07-12T06:24:12Z</time>
      </trkpt>
      <trkpt lat="36.9470060" lon="-3.5498650">
        <ele>680.4</ele>
        <time>2020-07-12T06:24:14Z</time>
      </trkpt>
      <trkpt lat="36.9468920" lon="-3.5497310">
        <ele>679.8</ele>
        <time>2020-07-12T06:24:16Z</time>
      </trkpt>
      <trkpt lat="36.9468390" lon="-3.5496730">
        <ele>679.4</ele>
        <time>2020-07-12T06:24:17Z</time>
      </trkpt>
      <trkpt lat="36.9467820" lon="-3.5495840">
        <ele>679.0</ele>
        <time>2020-07-12T06:24:18Z</time>
      </trkpt>
      <trkpt lat="36.9466710" lon="-3.5494380">
        <ele>678.6</ele>
        <time>2020-07-12T06:24:20Z</time>
      </trkpt>
      <trkpt lat="36.9466110" lon="-3.5493610">
        <ele>678.2</ele>
        <time>2020-07-12T06:24:21Z</time>
      </trkpt>
      <trkpt lat="36.9465060" lon="-3.5492170">
        <ele>677.6</ele>
        <time>2020-07-12T06:24:23Z</time>
      </trkpt>
      <trkpt lat="36.9463640" lon="-3.5489760">
        <ele>677.4</ele>
        <time>2020-07-12T06:24:26Z</time>
      </trkpt>
      <trkpt lat="36.9462720" lon="-3.5488010">
        <ele>677.0</ele>
        <time>2020-07-12T06:24:28Z</time>
      </trkpt>
      <trkpt lat="36.9461860" lon="-3.5486420">
        <ele>676.4</ele>
        <time>2020-07-12T06:24:30Z</time>
      </trkpt>
      <trkpt lat="36.9460130" lon="-3.5484370">
        <ele>675.4</ele>
        <time>2020-07-12T06:24:33Z</time>
      </trkpt>
      <trkpt lat="36.9459360" lon="-3.5484050">
        <ele>675.2</ele>
        <time>2020-07-12T06:24:34Z</time>
      </trkpt>
      <trkpt lat="36.9456680" lon="-3.5483960">
        <ele>674.6</ele>
        <time>2020-07-12T06:24:37Z</time>
      </trkpt>
      <trkpt lat="36.9455780" lon="-3.5484050">
        <ele>674.2</ele>
        <time>2020-07-12T06:24:38Z</time>
      </trkpt>
      <trkpt lat="36.9453000" lon="-3.5484420">
        <ele>672.8</ele>
        <time>2020-07-12T06:24:41Z</time>
      </trkpt>
      <trkpt lat="36.9451930" lon="-3.5484640">
        <ele>672.4</ele>
        <time>2020-07-12T06:24:42Z</time>
      </trkpt>
      <trkpt lat="36.9449960" lon="-3.5484890">
        <ele>671.4</ele>
        <time>2020-07-12T06:24:44Z</time>
      </trkpt>
      <trkpt lat="36.9447020" lon="-3.5485150">
        <ele>669.8</ele>
        <time>2020-07-12T06:24:47Z</time>
      </trkpt>
      <trkpt lat="36.9445030" lon="-3.5485180">
        <ele>669.0</ele>
        <time>2020-07-12T06:24:49Z</time>
      </trkpt>
      <trkpt lat="36.9443990" lon="-3.5485110">
        <ele>668.4</ele>
        <time>2020-07-12T06:24:50Z</time>
      </trkpt>
      <trkpt lat="36.9441080" lon="-3.5484870">
        <ele>667.2</ele>
        <time>2020-07-12T06:24:53Z</time>
      </trkpt>
      <trkpt lat="36.9439010" lon="-3.5484660">
        <ele>666.0</ele>
        <time>2020-07-12T06:24:55Z</time>
      </trkpt>
      <trkpt lat="36.9437990" lon="-3.5484540">
        <ele>665.4</ele>
        <time>2020-07-12T06:24:56Z</time>
      </trkpt>
      <trkpt lat="36.9436910" lon="-3.5484410">
        <ele>665.0</ele>
        <time>2020-07-12T06:24:57Z</time>
      </trkpt>
      <trkpt lat="36.9434800" lon="-3.5484150">
        <ele>663.2</ele>
        <time>2020-07-12T06:24:59Z</time>
      </trkpt>
      <trkpt lat="36.9432590" lon="-3.5483910">
        <ele>662.2</ele>
        <time>2020-07-12T06:25:01Z</time>
      </trkpt>
      <trkpt lat="36.9429170" lon="-3.5483550">
        <ele>660.8</ele>
        <time>2020-07-12T06:25:04Z</time>
      </trkpt>
      <trkpt lat="36.9425570" lon="-3.5483380">
        <ele>659.4</ele>
        <time>2020-07-12T06:25:07Z</time>
      </trkpt>
      <trkpt lat="36.9423190" lon="-3.5483720">
        <ele>658.0</ele>
        <time>2020-07-12T06:25:09Z</time>
      </trkpt>
      <trkpt lat="36.9420920" lon="-3.5484560">
        <ele>656.4</ele>
        <time>2020-07-12T06:25:11Z</time>
      </trkpt>
      <trkpt lat="36.9419680" lon="-3.5485230">
        <ele>655.8</ele>
        <time>2020-07-12T06:25:12Z</time>
      </trkpt>
      <trkpt lat="36.9418580" lon="-3.5485880">
        <ele>655.4</ele>
        <time>2020-07-12T06:25:13Z</time>
      </trkpt>
      <trkpt lat="36.9416340" lon="-3.5487210">
        <ele>654.0</ele>
        <time>2020-07-12T06:25:15Z</time>
      </trkpt>
      <trkpt lat="36.9414130" lon="-3.5488540">
        <ele>652.2</ele>
        <time>2020-07-12T06:25:17Z</time>
      </trkpt>
      <trkpt lat="36.9412940" lon="-3.5489260">
        <ele>651.2</ele>
        <time>2020-07-12T06:25:18Z</time>
      </trkpt>
      <trkpt lat="36.9410630" lon="-3.5490690">
        <ele>649.0</ele>
        <time>2020-07-12T06:25:20Z</time>
      </trkpt>
      <trkpt lat="36.9409540" lon="-3.5491360">
        <ele>648.0</ele>
        <time>2020-07-12T06:25:21Z</time>
      </trkpt>
      <trkpt lat="36.9407460" lon="-3.5492760">
        <ele>646.6</ele>
        <time>2020-07-12T06:25:23Z</time>
      </trkpt>
      <trkpt lat="36.9406480" lon="-3.5493640">
        <ele>646.4</ele>
        <time>2020-07-12T06:25:24Z</time>
      </trkpt>
      <trkpt lat="36.9405570" lon="-3.5494630">
        <ele>645.8</ele>
        <time>2020-07-12T06:25:25Z</time>
      </trkpt>
      <trkpt lat="36.9404830" lon="-3.5495760">
        <ele>645.0</ele>
        <time>2020-07-12T06:25:26Z</time>
      </trkpt>
      <trkpt lat="36.9404100" lon="-3.5497120">
        <ele>643.8</ele>
        <time>2020-07-12T06:25:27Z</time>
      </trkpt>
      <trkpt lat="36.9403570" lon="-3.5498390">
        <ele>642.6</ele>
        <time>2020-07-12T06:25:28Z</time>
      </trkpt>
      <trkpt lat="36.9403140" lon="-3.5499610">
        <ele>641.2</ele>
        <time>2020-07-12T06:25:29Z</time>
      </trkpt>
      <trkpt lat="36.9402620" lon="-3.5501010">
        <ele>640.0</ele>
        <time>2020-07-12T06:25:30Z</time>
      </trkpt>
      <trkpt lat="36.9401500" lon="-3.5503350">
        <ele>638.4</ele>
        <time>2020-07-12T06:25:32Z</time>
      </trkpt>
      <trkpt lat="36.9399820" lon="-3.5504930">
        <ele>637.0</ele>
        <time>2020-07-12T06:25:34Z</time>
      </trkpt>
      <trkpt lat="36.9397740" lon="-3.5505620">
        <ele>635.6</ele>
        <time>2020-07-12T06:25:36Z</time>
      </trkpt>
      <trkpt lat="36.9396570" lon="-3.5505780">
        <ele>635.2</ele>
        <time>2020-07-12T06:25:37Z</time>
      </trkpt>
      <trkpt lat="36.9395420" lon="-3.5505890">
        <ele>634.2</ele>
        <time>2020-07-12T06:25:38Z</time>
      </trkpt>
      <trkpt lat="36.9393070" lon="-3.5506150">
        <ele>632.6</ele>
        <time>2020-07-12T06:25:40Z</time>
      </trkpt>
      <trkpt lat="36.9390710" lon="-3.5506450">
        <ele>630.8</ele>
        <time>2020-07-12T06:25:42Z</time>
      </trkpt>
      <trkpt lat="36.9389520" lon="-3.5506600">
        <ele>629.8</ele>
        <time>2020-07-12T06:25:43Z</time>
      </trkpt>
      <trkpt lat="36.9388380" lon="-3.5506690">
        <ele>628.8</ele>
        <time>2020-07-12T06:25:44Z</time>
      </trkpt>
      <trkpt lat="36.9387280" lon="-3.5506550">
        <ele>628.4</ele>
        <time>2020-07-12T06:25:45Z</time>
      </trkpt>
      <trkpt lat="36.9386350" lon="-3.5506160">
        <ele>627.4</ele>
        <time>2020-07-12T06:25:46Z</time>
      </trkpt>
      <trkpt lat="36.9384490" lon="-3.5504580">
        <ele>625.8</ele>
        <time>2020-07-12T06:25:48Z</time>
      </trkpt>
      <trkpt lat="36.9383730" lon="-3.5503720">
        <ele>625.2</ele>
        <time>2020-07-12T06:25:49Z</time>
      </trkpt>
      <trkpt lat="36.9382850" lon="-3.5502910">
        <ele>624.2</ele>
        <time>2020-07-12T06:25:50Z</time>
      </trkpt>
      <trkpt lat="36.9380870" lon="-3.5501960">
        <ele>622.8</ele>
        <time>2020-07-12T06:25:52Z</time>
      </trkpt>
      <trkpt lat="36.9378740" lon="-3.5501440">
        <ele>621.2</ele>
        <time>2020-07-12T06:25:54Z</time>
      </trkpt>
      <trkpt lat="36.9376500" lon="-3.5500950">
        <ele>619.8</ele>
        <time>2020-07-12T06:25:56Z</time>
      </trkpt>
      <trkpt lat="36.9374040" lon="-3.5500430">
        <ele>618.6</ele>
        <time>2020-07-12T06:25:58Z</time>
      </trkpt>
      <trkpt lat="36.9371600" lon="-3.5499910">
        <ele>617.2</ele>
        <time>2020-07-12T06:26:00Z</time>
      </trkpt>
      <trkpt lat="36.9369110" lon="-3.5499340">
        <ele>615.8</ele>
        <time>2020-07-12T06:26:02Z</time>
      </trkpt>
      <trkpt lat="36.9367870" lon="-3.5499070">
        <ele>614.8</ele>
        <time>2020-07-12T06:26:03Z</time>
      </trkpt>
      <trkpt lat="36.9366620" lon="-3.5498790">
        <ele>613.6</ele>
        <time>2020-07-12T06:26:04Z</time>
      </trkpt>
      <trkpt lat="36.9365370" lon="-3.5498500">
        <ele>612.0</ele>
        <time>2020-07-12T06:26:05Z</time>
      </trkpt>
      <trkpt lat="36.9364070" lon="-3.5498200">
        <ele>610.6</ele>
        <time>2020-07-12T06:26:06Z</time>
      </trkpt>
      <trkpt lat="36.9362690" lon="-3.5497890">
        <ele>609.2</ele>
        <time>2020-07-12T06:26:07Z</time>
      </trkpt>
      <trkpt lat="36.9361370" lon="-3.5497580">
        <ele>607.8</ele>
        <time>2020-07-12T06:26:08Z</time>
      </trkpt>
      <trkpt lat="36.9360040" lon="-3.5497280">
        <ele>606.2</ele>
        <time>2020-07-12T06:26:09Z</time>
      </trkpt>
      <trkpt lat="36.9358700" lon="-3.5496970">
        <ele>605.2</ele>
        <time>2020-07-12T06:26:10Z</time>
      </trkpt>
      <trkpt lat="36.9357480" lon="-3.5496710">
        <ele>604.2</ele>
        <time>2020-07-12T06:26:11Z</time>
      </trkpt>
      <trkpt lat="36.9355930" lon="-3.5496360">
        <ele>603.0</ele>
        <time>2020-07-12T06:26:12Z</time>
      </trkpt>
      <trkpt lat="36.9354590" lon="-3.5496060">
        <ele>602.0</ele>
        <time>2020-07-12T06:26:13Z</time>
      </trkpt>
      <trkpt lat="36.9353290" lon="-3.5495770">
        <ele>600.8</ele>
        <time>2020-07-12T06:26:14Z</time>
      </trkpt>
      <trkpt lat="36.9350580" lon="-3.5495170">
        <ele>598.8</ele>
        <time>2020-07-12T06:26:16Z</time>
      </trkpt>
      <trkpt lat="36.9347820" lon="-3.5494560">
        <ele>597.0</ele>
        <time>2020-07-12T06:26:18Z</time>
      </trkpt>
      <trkpt lat="36.9346530" lon="-3.5494260">
        <ele>596.4</ele>
        <time>2020-07-12T06:26:19Z</time>
      </trkpt>
      <trkpt lat="36.9342760" lon="-3.5493440">
        <ele>595.6</ele>
        <time>2020-07-12T06:26:22Z</time>
      </trkpt>
      <trkpt lat="36.9340330" lon="-3.5492890">
        <ele>593.6</ele>
        <time>2020-07-12T06:26:24Z</time>
      </trkpt>
      <trkpt lat="36.9339060" lon="-3.5492600">
        <ele>592.4</ele>
        <time>2020-07-12T06:26:25Z</time>
      </trkpt>
      <trkpt lat="36.9336590" lon="-3.5492020">
        <ele>589.6</ele>
        <time>2020-07-12T06:26:27Z</time>
      </trkpt>
      <trkpt lat="36.9334160" lon="-3.5491480">
        <ele>587.6</ele>
        <time>2020-07-12T06:26:29Z</time>
      </trkpt>
      <trkpt lat="36.9332800" lon="-3.5491180">
        <ele>586.6</ele>
        <time>2020-07-12T06:26:30Z</time>
      </trkpt>
      <trkpt lat="36.9331590" lon="-3.5490920">
        <ele>585.4</ele>
        <time>2020-07-12T06:26:31Z</time>
      </trkpt>
      <trkpt lat="36.9328880" lon="-3.5490310">
        <ele>583.4</ele>
        <time>2020-07-12T06:26:33Z</time>
      </trkpt>
      <trkpt lat="36.9327590" lon="-3.5490010">
        <ele>582.4</ele>
        <time>2020-07-12T06:26:34Z</time>
      </trkpt>
      <trkpt lat="36.9326320" lon="-3.5489730">
        <ele>581.4</ele>
        <time>2020-07-12T06:26:35Z</time>
      </trkpt>
      <trkpt lat="36.9324960" lon="-3.5489430">
        <ele>580.4</ele>
        <time>2020-07-12T06:26:36Z</time>
      </trkpt>
      <trkpt lat="36.9323570" lon="-3.5489130">
        <ele>579.4</ele>
        <time>2020-07-12T06:26:37Z</time>
      </trkpt>
      <trkpt lat="36.9322230" lon="-3.5488830">
        <ele>578.2</ele>
        <time>2020-07-12T06:26:38Z</time>
      </trkpt>
      <trkpt lat="36.9320910" lon="-3.5488530">
        <ele>577.0</ele>
        <time>2020-07-12T06:26:39Z</time>
      </trkpt>
      <trkpt lat="36.9319520" lon="-3.5488240">
        <ele>576.0</ele>
        <time>2020-07-12T06:26:40Z</time>
      </trkpt>
      <trkpt lat="36.9316750" lon="-3.5487650">
        <ele>574.4</ele>
        <time>2020-07-12T06:26:42Z</time>
      </trkpt>
      <trkpt lat="36.9314060" lon="-3.5487040">
        <ele>572.8</ele>
        <time>2020-07-12T06:26:44Z</time>
      </trkpt>
      <trkpt lat="36.9311310" lon="-3.5486420">
        <ele>571.0</ele>
        <time>2020-07-12T06:26:46Z</time>
      </trkpt>
      <trkpt lat="36.9308480" lon="-3.5485790">
        <ele>569.2</ele>
        <time>2020-07-12T06:26:48Z</time>
      </trkpt>
      <trkpt lat="36.9305760" lon="-3.5485210">
        <ele>567.4</ele>
        <time>2020-07-12T06:26:50Z</time>
      </trkpt>
      <trkpt lat="36.9303100" lon="-3.5484630">
        <ele>565.0</ele>
        <time>2020-07-12T06:26:52Z</time>
      </trkpt>
      <trkpt lat="36.9300540" lon="-3.5484100">
        <ele>563.6</ele>
        <time>2020-07-12T06:26:54Z</time>
      </trkpt>
      <trkpt lat="36.9299220" lon="-3.5483830">
        <ele>562.8</ele>
        <time>2020-07-12T06:26:55Z</time>
      </trkpt>
      <trkpt lat="36.9298040" lon="-3.5483590">
        <ele>562.0</ele>
        <time>2020-07-12T06:26:56Z</time>
      </trkpt>
      <trkpt lat="36.9295760" lon="-3.5483080">
        <ele>560.4</ele>
        <time>2020-07-12T06:26:58Z</time>
      </trkpt>
      <trkpt lat="36.9294830" lon="-3.5482850">
        <ele>560.2</ele>
        <time>2020-07-12T06:26:59Z</time>
      </trkpt>
      <trkpt lat="36.9293740" lon="-3.5482570">
        <ele>559.2</ele>
        <time>2020-07-12T06:27:00Z</time>
      </trkpt>
      <trkpt lat="36.9291910" lon="-3.5481600">
        <ele>557.8</ele>
        <time>2020-07-12T06:27:02Z</time>
      </trkpt>
      <trkpt lat="36.9291140" lon="-3.5480790">
        <ele>557.4</ele>
        <time>2020-07-12T06:27:03Z</time>
      </trkpt>
      <trkpt lat="36.9290150" lon="-3.5478700">
        <ele>556.2</ele>
        <time>2020-07-12T06:27:05Z</time>
      </trkpt>
      <trkpt lat="36.9289880" lon="-3.5477480">
        <ele>556.0</ele>
        <time>2020-07-12T06:27:06Z</time>
      </trkpt>
      <trkpt lat="36.9289670" lon="-3.5475100">
        <ele>554.8</ele>
        <time>2020-07-12T06:27:08Z</time>
      </trkpt>
      <trkpt lat="36.9289660" lon="-3.5473980">
        <ele>554.0</ele>
        <time>2020-07-12T06:27:09Z</time>
      </trkpt>
      <trkpt lat="36.9289620" lon="-3.5472910">
        <ele>553.4</ele>
        <time>2020-07-12T06:27:10Z</time>
      </trkpt>
      <trkpt lat="36.9289540" lon="-3.5470710">
        <ele>551.8</ele>
        <time>2020-07-12T06:27:12Z</time>
      </trkpt>
      <trkpt lat="36.9289880" lon="-3.5469790">
        <ele>551.4</ele>
        <time>2020-07-12T06:27:13Z</time>
      </trkpt>
      <trkpt lat="36.9290390" lon="-3.5468850">
        <ele>551.0</ele>
        <time>2020-07-12T06:27:14Z</time>
      </trkpt>
      <trkpt lat="36.9292650" lon="-3.5467260">
        <ele>551.0</ele>
        <time>2020-07-12T06:27:17Z</time>
      </trkpt>
      <trkpt lat="36.9294540" lon="-3.5466800">
        <ele>551.0</ele>
        <time>2020-07-12T06:27:19Z</time>
      </trkpt>
      <trkpt lat="36.9295480" lon="-3.5466570">
        <ele>550.6</ele>
        <time>2020-07-12T06:27:20Z</time>
      </trkpt>
      <trkpt lat="36.9296400" lon="-3.5466340">
        <ele>550.0</ele>
        <time>2020-07-12T06:27:21Z</time>
      </trkpt>
      <trkpt lat="36.9298440" lon="-3.5465840">
        <ele>549.0</ele>
        <time>2020-07-12T06:27:23Z</time>
      </trkpt>
      <trkpt lat="36.9303710" lon="-3.5464450">
        <ele>547.4</ele>
        <time>2020-07-12T06:27:28Z</time>
      </trkpt>
      <trkpt lat="36.9304630" lon="-3.5464080">
        <ele>547.0</ele>
        <time>2020-07-12T06:27:29Z</time>
      </trkpt>
      <trkpt lat="36.9306440" lon="-3.5462870">
        <ele>546.2</ele>
        <time>2020-07-12T06:27:31Z</time>
      </trkpt>
      <trkpt lat="36.9307170" lon="-3.5461950">
        <ele>545.6</ele>
        <time>2020-07-12T06:27:32Z</time>
      </trkpt>
      <trkpt lat="36.9307720" lon="-3.5460870">
        <ele>544.8</ele>
        <time>2020-07-12T06:27:33Z</time>
      </trkpt>
      <trkpt lat="36.9308060" lon="-3.5459720">
        <ele>543.6</ele>
        <time>2020-07-12T06:27:34Z</time>
      </trkpt>
      <trkpt lat="36.9308160" lon="-3.5458600">
        <ele>543.0</ele>
        <time>2020-07-12T06:27:35Z</time>
      </trkpt>
      <trkpt lat="36.9308070" lon="-3.5457400">
        <ele>542.2</ele>
        <time>2020-07-12T06:27:36Z</time>
      </trkpt>
      <trkpt lat="36.9307250" lon="-3.5455130">
        <ele>541.0</ele>
        <time>2020-07-12T06:27:38Z</time>
      </trkpt>
      <trkpt lat="36.9305680" lon="-3.5453860">
        <ele>539.8</ele>
        <time>2020-07-12T06:27:40Z</time>
      </trkpt>
      <trkpt lat="36.9302740" lon="-3.5453770">
        <ele>538.2</ele>
        <time>2020-07-12T06:27:43Z</time>
      </trkpt>
      <trkpt lat="36.9301760" lon="-3.5453900">
        <ele>537.6</ele>
        <time>2020-07-12T06:27:44Z</time>
      </trkpt>
      <trkpt lat="36.9300710" lon="-3.5454030">
        <ele>537.2</ele>
        <time>2020-07-12T06:27:45Z</time>
      </trkpt>
      <trkpt lat="36.9297590" lon="-3.5454530">
        <ele>535.8</ele>
        <time>2020-07-12T06:27:48Z</time>
      </trkpt>
      <trkpt lat="36.9295390" lon="-3.5454850">
        <ele>534.6</ele>
        <time>2020-07-12T06:27:50Z</time>
      </trkpt>
      <trkpt lat="36.9293190" lon="-3.5455130">
        <ele>533.2</ele>
        <time>2020-07-12T06:27:52Z</time>
      </trkpt>
      <trkpt lat="36.9292120" lon="-3.5455280">
        <ele>532.2</ele>
        <time>2020-07-12T06:27:53Z</time>
      </trkpt>
      <trkpt lat="36.9290910" lon="-3.5455460">
        <ele>531.0</ele>
        <time>2020-07-12T06:27:54Z</time>
      </trkpt>
      <trkpt lat="36.9288760" lon="-3.5455780">
        <ele>529.0</ele>
        <time>2020-07-12T06:27:56Z</time>
      </trkpt>
      <trkpt lat="36.9286570" lon="-3.5456090">
        <ele>527.2</ele>
        <time>2020-07-12T06:27:58Z</time>
      </trkpt>
      <trkpt lat="36.9285610" lon="-3.5456250">
        <ele>526.0</ele>
        <time>2020-07-12T06:27:59Z</time>
      </trkpt>
      <trkpt lat="36.9283380" lon="-3.5456550">
        <ele>524.2</ele>
        <time>2020-07-12T06:28:01Z</time>
      </trkpt>
      <trkpt lat="36.9280970" lon="-3.5456710">
        <ele>522.4</ele>
        <time>2020-07-12T06:28:03Z</time>
      </trkpt>
      <trkpt lat="36.9278830" lon="-3.5456520">
        <ele>520.8</ele>
        <time>2020-07-12T06:28:05Z</time>
      </trkpt>
      <trkpt lat="36.9276470" lon="-3.5455940">
        <ele>519.2</ele>
        <time>2020-07-12T06:28:07Z</time>
      </trkpt>
      <trkpt lat="36.9274320" lon="-3.5455010">
        <ele>517.4</ele>
        <time>2020-07-12T06:28:09Z</time>
      </trkpt>
      <trkpt lat="36.9273310" lon="-3.5454240">
        <ele>516.0</ele>
        <time>2020-07-12T06:28:10Z</time>
      </trkpt>
      <trkpt lat="36.9271860" lon="-3.5452030">
        <ele>514.4</ele>
        <time>2020-07-12T06:28:12Z</time>
      </trkpt>
      <trkpt lat="36.9271430" lon="-3.5450670">
        <ele>513.2</ele>
        <time>2020-07-12T06:28:13Z</time>
      </trkpt>
      <trkpt lat="36.9271240" lon="-3.5449310">
        <ele>512.2</ele>
        <time>2020-07-12T06:28:14Z</time>
      </trkpt>
      <trkpt lat="36.9271220" lon="-3.5447870">
        <ele>511.6</ele>
        <time>2020-07-12T06:28:15Z</time>
      </trkpt>
      <trkpt lat="36.9271450" lon="-3.5445220">
        <ele>510.0</ele>
        <time>2020-07-12T06:28:17Z</time>
      </trkpt>
      <trkpt lat="36.9271610" lon="-3.5443680">
        <ele>509.2</ele>
        <time>2020-07-12T06:28:18Z</time>
      </trkpt>
      <trkpt lat="36.9271780" lon="-3.5442350">
        <ele>508.6</ele>
        <time>2020-07-12T06:28:19Z</time>
      </trkpt>
      <trkpt lat="36.9272040" lon="-3.5439880">
        <ele>507.2</ele>
        <time>2020-07-12T06:28:21Z</time>
      </trkpt>
      <trkpt lat="36.9272250" lon="-3.5437270">
        <ele>505.8</ele>
        <time>2020-07-12T06:28:23Z</time>
      </trkpt>
      <trkpt lat="36.9272460" lon="-3.5434830">
        <ele>504.6</ele>
        <time>2020-07-12T06:28:25Z</time>
      </trkpt>
      <trkpt lat="36.9272620" lon="-3.5432600">
        <ele>504.2</ele>
        <time>2020-07-12T06:28:27Z</time>
      </trkpt>
      <trkpt lat="36.9272760" lon="-3.5431560">
        <ele>504.2</ele>
        <time>2020-07-12T06:28:28Z</time>
      </trkpt>
      <trkpt lat="36.9272840" lon="-3.5430720">
        <ele>504.4</ele>
        <time>2020-07-12T06:28:29Z</time>
      </trkpt>
      <trkpt lat="36.9273030" lon="-3.5428910">
        <ele>504.4</ele>
        <time>2020-07-12T06:28:31Z</time>
      </trkpt>
      <trkpt lat="36.9272960" lon="-3.5427400">
        <ele>504.6</ele>
        <time>2020-07-12T06:28:32Z</time>
      </trkpt>
      <trkpt lat="36.9273070" lon="-3.5426520">
        <ele>504.8</ele>
        <time>2020-07-12T06:28:33Z</time>
      </trkpt>
      <trkpt lat="36.9273060" lon="-3.5424770">
        <ele>505.0</ele>
        <time>2020-07-12T06:28:35Z</time>
      </trkpt>
      <trkpt lat="36.9273030" lon="-3.5422780">
        <ele>505.2</ele>
        <time>2020-07-12T06:28:37Z</time>
      </trkpt>
      <trkpt lat="36.9272930" lon="-3.5421890">
        <ele>505.4</ele>
        <time>2020-07-12T06:28:38Z</time>
      </trkpt>
      <trkpt lat="36.9272870" lon="-3.5420920">
        <ele>505.6</ele>
        <time>2020-07-12T06:28:39Z</time>
      </trkpt>
      <trkpt lat="36.9272810" lon="-3.5419130">
        <ele>505.8</ele>
        <time>2020-07-12T06:28:41Z</time>
      </trkpt>
      <trkpt lat="36.9272800" lon="-3.5418190">
        <ele>505.8</ele>
        <time>2020-07-12T06:28:42Z</time>
      </trkpt>
      <trkpt lat="36.9272660" lon="-3.5415420">
        <ele>505.6</ele>
        <time>2020-07-12T06:28:45Z</time>
      </trkpt>
      <trkpt lat="36.9272490" lon="-3.5413560">
        <ele>505.4</ele>
        <time>2020-07-12T06:28:47Z</time>
      </trkpt>
      <trkpt lat="36.9272400" lon="-3.5412680">
        <ele>505.4</ele>
        <time>2020-07-12T06:28:48Z</time>
      </trkpt>
      <trkpt lat="36.9272030" lon="-3.5410230">
        <ele>505.2</ele>
        <time>2020-07-12T06:28:51Z</time>
      </trkpt>
      <trkpt lat="36.9271600" lon="-3.5408100">
        <ele>505.2</ele>
        <time>2020-07-12T06:28:54Z</time>
      </trkpt>
      <trkpt lat="36.9271200" lon="-3.5403710">
        <ele>506.6</ele>
        <time>2020-07-12T06:29:01Z</time>
      </trkpt>
      <trkpt lat="36.9271300" lon="-3.5402000">
        <ele>506.6</ele>
        <time>2020-07-12T06:29:04Z</time>
      </trkpt>
      <trkpt lat="36.9271460" lon="-3.5398570">
        <ele>507.0</ele>
        <time>2020-07-12T06:29:10Z</time>
      </trkpt>
      <trkpt lat="36.9271400" lon="-3.5392820">
        <ele>507.6</ele>
        <time>2020-07-12T06:29:20Z</time>
      </trkpt>
      <trkpt lat="36.9271350" lon="-3.5388930">
        <ele>508.6</ele>
        <time>2020-07-12T06:29:28Z</time>
      </trkpt>
      <trkpt lat="36.9271370" lon="-3.5388520">
        <ele>508.8</ele>
        <time>2020-07-12T06:29:29Z</time>
      </trkpt>
      <trkpt lat="36.9271390" lon="-3.5386150">
        <ele>509.8</ele>
        <time>2020-07-12T06:29:34Z</time>
      </trkpt>
      <trkpt lat="36.9271400" lon="-3.5384720">
        <ele>509.8</ele>
        <time>2020-07-12T06:29:37Z</time>
      </trkpt>
      <trkpt lat="36.9271420" lon="-3.5382280">
        <ele>510.4</ele>
        <time>2020-07-12T06:29:42Z</time>
      </trkpt>
      <trkpt lat="36.9271450" lon="-3.5381910">
        <ele>510.6</ele>
        <time>2020-07-12T06:29:43Z</time>
      </trkpt>
      <trkpt lat="36.9271570" lon="-3.5380750">
        <ele>510.8</ele>
        <time>2020-07-12T06:29:45Z</time>
      </trkpt>
      <trkpt lat="36.9271710" lon="-3.5379890">
        <ele>510.8</ele>
        <time>2020-07-12T06:29:47Z</time>
      </trkpt>
      <trkpt lat="36.9271840" lon="-3.5379290">
        <ele>511.0</ele>
        <time>2020-07-12T06:29:48Z</time>
      </trkpt>
      <trkpt lat="36.9272900" lon="-3.5376540">
        <ele>511.8</ele>
        <time>2020-07-12T06:29:54Z</time>
      </trkpt>
      <trkpt lat="36.9273120" lon="-3.5376100">
        <ele>512.0</ele>
        <time>2020-07-12T06:29:55Z</time>
      </trkpt>
      <trkpt lat="36.9274480" lon="-3.5373090">
        <ele>512.6</ele>
        <time>2020-07-12T06:30:02Z</time>
      </trkpt>
      <trkpt lat="36.9274780" lon="-3.5372220">
        <ele>513.0</ele>
        <time>2020-07-12T06:30:04Z</time>
      </trkpt>
      <trkpt lat="36.9274960" lon="-3.5370670">
        <ele>513.6</ele>
        <time>2020-07-12T06:30:07Z</time>
      </trkpt>
      <trkpt lat="36.9274870" lon="-3.5370160">
        <ele>513.8</ele>
        <time>2020-07-12T06:30:08Z</time>
      </trkpt>
      <trkpt lat="36.9274650" lon="-3.5369690">
        <ele>514.0</ele>
        <time>2020-07-12T06:30:09Z</time>
      </trkpt>
      <trkpt lat="36.9274020" lon="-3.5368950">
        <ele>514.6</ele>
        <time>2020-07-12T06:30:11Z</time>
      </trkpt>
      <trkpt lat="36.9273240" lon="-3.5368180">
        <ele>515.0</ele>
        <time>2020-07-12T06:30:13Z</time>
      </trkpt>
      <trkpt lat="36.9271830" lon="-3.5367590">
        <ele>515.2</ele>
        <time>2020-07-12T06:30:16Z</time>
      </trkpt>
      <trkpt lat="36.9270530" lon="-3.5368190">
        <ele>515.2</ele>
        <time>2020-07-12T06:30:19Z</time>
      </trkpt>
      <trkpt lat="36.9270140" lon="-3.5368460">
        <ele>515.4</ele>
        <time>2020-07-12T06:30:20Z</time>
      </trkpt>
      <trkpt lat="36.9268810" lon="-3.5369370">
        <ele>516.0</ele>
        <time>2020-07-12T06:30:24Z</time>
      </trkpt>
      <trkpt lat="36.9268020" lon="-3.5369760">
        <ele>516.6</ele>
        <time>2020-07-12T06:30:26Z</time>
      </trkpt>
      <trkpt lat="36.9267190" lon="-3.5369950">
        <ele>517.0</ele>
        <time>2020-07-12T06:30:28Z</time>
      </trkpt>
      <trkpt lat="36.9266080" lon="-3.5369500">
        <ele>517.8</ele>
        <time>2020-07-12T06:30:31Z</time>
      </trkpt>
      <trkpt lat="36.9265720" lon="-3.5369230">
        <ele>518.0</ele>
        <time>2020-07-12T06:30:32Z</time>
      </trkpt>
      <trkpt lat="36.9264760" lon="-3.5367910">
        <ele>519.4</ele>
        <time>2020-07-12T06:30:36Z</time>
      </trkpt>
      <trkpt lat="36.9264540" lon="-3.5367530">
        <ele>519.6</ele>
        <time>2020-07-12T06:30:37Z</time>
      </trkpt>
      <trkpt lat="36.9263330" lon="-3.5364730">
        <ele>520.4</ele>
        <time>2020-07-12T06:30:44Z</time>
      </trkpt>
      <trkpt lat="36.9262180" lon="-3.5362470">
        <ele>521.6</ele>
        <time>2020-07-12T06:30:50Z</time>
      </trkpt>
      <trkpt lat="36.9262030" lon="-3.5362090">
        <ele>521.6</ele>
        <time>2020-07-12T06:30:51Z</time>
      </trkpt>
      <trkpt lat="36.9261100" lon="-3.5360220">
        <ele>522.8</ele>
        <time>2020-07-12T06:30:56Z</time>
      </trkpt>
      <trkpt lat="36.9260470" lon="-3.5358700">
        <ele>523.4</ele>
        <time>2020-07-12T06:31:00Z</time>
      </trkpt>
      <trkpt lat="36.9259760" lon="-3.5357210">
        <ele>523.8</ele>
        <time>2020-07-12T06:31:04Z</time>
      </trkpt>
      <trkpt lat="36.9258820" lon="-3.5355410">
        <ele>524.6</ele>
        <time>2020-07-12T06:31:09Z</time>
      </trkpt>
      <trkpt lat="36.9258620" lon="-3.5355050">
        <ele>525.0</ele>
        <time>2020-07-12T06:31:10Z</time>
      </trkpt>
      <trkpt lat="36.9257820" lon="-3.5353650">
        <ele>526.2</ele>
        <time>2020-07-12T06:31:14Z</time>
      </trkpt>
      <trkpt lat="36.9256910" lon="-3.5352300">
        <ele>527.4</ele>
        <time>2020-07-12T06:31:18Z</time>
      </trkpt>
      <trkpt lat="36.9255300" lon="-3.5351440">
        <ele>528.2</ele>
        <time>2020-07-12T06:31:23Z</time>
      </trkpt>
      <trkpt lat="36.9254910" lon="-3.5351390">
        <ele>528.4</ele>
        <time>2020-07-12T06:31:24Z</time>
      </trkpt>
      <trkpt lat="36.9252320" lon="-3.5351350">
        <ele>529.6</ele>
        <time>2020-07-12T06:31:31Z</time>
      </trkpt>
      <trkpt lat="36.9250050" lon="-3.5351440">
        <ele>530.6</ele>
        <time>2020-07-12T06:31:37Z</time>
      </trkpt>
      <trkpt lat="36.9248650" lon="-3.5351460">
        <ele>531.4</ele>
        <time>2020-07-12T06:31:41Z</time>
      </trkpt>
      <trkpt lat="36.9247930" lon="-3.5351510">
        <ele>531.8</ele>
        <time>2020-07-12T06:31:43Z</time>
      </trkpt>
      <trkpt lat="36.9246750" lon="-3.5351340">
        <ele>533.0</ele>
        <time>2020-07-12T06:31:47Z</time>
      </trkpt>
      <trkpt lat="36.9246160" lon="-3.5351180">
        <ele>533.2</ele>
        <time>2020-07-12T06:31:49Z</time>
      </trkpt>
      <trkpt lat="36.9245160" lon="-3.5350390">
        <ele>534.2</ele>
        <time>2020-07-12T06:31:53Z</time>
      </trkpt>
      <trkpt lat="36.9244700" lon="-3.5349840">
        <ele>534.8</ele>
        <time>2020-07-12T06:31:55Z</time>
      </trkpt>
      <trkpt lat="36.9244280" lon="-3.5349360">
        <ele>535.4</ele>
        <time>2020-07-12T06:31:57Z</time>
      </trkpt>
      <trkpt lat="36.9243280" lon="-3.5347910">
        <ele>535.8</ele>
        <time>2020-07-12T06:32:02Z</time>
      </trkpt>
      <trkpt lat="36.9242280" lon="-3.5346150">
        <ele>536.4</ele>
        <time>2020-07-12T06:32:07Z</time>
      </trkpt>
      <trkpt lat="36.9241520" lon="-3.5344770">
        <ele>537.4</ele>
        <time>2020-07-12T06:32:11Z</time>
      </trkpt>
      <trkpt lat="36.9241290" lon="-3.5344370">
        <ele>537.6</ele>
        <time>2020-07-12T06:32:12Z</time>
      </trkpt>
      <trkpt lat="36.9240230" lon="-3.5342180">
        <ele>538.8</ele>
        <time>2020-07-12T06:32:18Z</time>
      </trkpt>
      <trkpt lat="36.9239790" lon="-3.5341450">
        <ele>539.0</ele>
        <time>2020-07-12T06:32:20Z</time>
      </trkpt>
      <trkpt lat="36.9238120" lon="-3.5339290">
        <ele>539.0</ele>
        <time>2020-07-12T06:32:26Z</time>
      </trkpt>
      <trkpt lat="36.9237690" lon="-3.5336930">
        <ele>539.8</ele>
        <time>2020-07-12T06:32:31Z</time>
      </trkpt>
      <trkpt lat="36.9237830" lon="-3.5336440">
        <ele>540.0</ele>
        <time>2020-07-12T06:32:32Z</time>
      </trkpt>
      <trkpt lat="36.9238580" lon="-3.5334680">
        <ele>540.2</ele>
        <time>2020-07-12T06:32:36Z</time>
      </trkpt>
      <trkpt lat="36.9239730" lon="-3.5331250">
        <ele>540.2</ele>
        <time>2020-07-12T06:32:43Z</time>
      </trkpt>
      <trkpt lat="36.9240100" lon="-3.5328640">
        <ele>541.2</ele>
        <time>2020-07-12T06:32:49Z</time>
      </trkpt>
      <trkpt lat="36.9240220" lon="-3.5327860">
        <ele>541.8</ele>
        <time>2020-07-12T06:32:51Z</time>
      </trkpt>
      <trkpt lat="36.9240370" lon="-3.5326600">
        <ele>542.4</ele>
        <time>2020-07-12T06:32:54Z</time>
      </trkpt>
      <trkpt lat="36.9240570" lon="-3.5324680">
        <ele>543.6</ele>
        <time>2020-07-12T06:32:59Z</time>
      </trkpt>
      <trkpt lat="36.9240610" lon="-3.5324260">
        <ele>543.8</ele>
        <time>2020-07-12T06:33:00Z</time>
      </trkpt>
      <trkpt lat="36.9240770" lon="-3.5322720">
        <ele>544.6</ele>
        <time>2020-07-12T06:33:04Z</time>
      </trkpt>
      <trkpt lat="36.9240700" lon="-3.5320640">
        <ele>545.6</ele>
        <time>2020-07-12T06:33:09Z</time>
      </trkpt>
      <trkpt lat="36.9240610" lon="-3.5320190">
        <ele>545.8</ele>
        <time>2020-07-12T06:33:10Z</time>
      </trkpt>
      <trkpt lat="36.9239740" lon="-3.5317980">
        <ele>546.6</ele>
        <time>2020-07-12T06:33:15Z</time>
      </trkpt>
      <trkpt lat="36.9239190" lon="-3.5315620">
        <ele>546.8</ele>
        <time>2020-07-12T06:33:20Z</time>
      </trkpt>
      <trkpt lat="36.9239090" lon="-3.5314680">
        <ele>546.8</ele>
        <time>2020-07-12T06:33:22Z</time>
      </trkpt>
      <trkpt lat="36.9238210" lon="-3.5311580">
        <ele>547.6</ele>
        <time>2020-07-12T06:33:29Z</time>
      </trkpt>
      <trkpt lat="36.9237630" lon="-3.5310170">
        <ele>547.8</ele>
        <time>2020-07-12T06:33:32Z</time>
      </trkpt>
      <trkpt lat="36.9236600" lon="-3.5308090">
        <ele>548.4</ele>
        <time>2020-07-12T06:33:37Z</time>
      </trkpt>
      <trkpt lat="36.9235650" lon="-3.5305900">
        <ele>548.4</ele>
        <time>2020-07-12T06:33:42Z</time>
      </trkpt>
      <trkpt lat="36.9235310" lon="-3.5305240">
        <ele>548.4</ele>
        <time>2020-07-12T06:33:43Z</time>
      </trkpt>
      <trkpt lat="36.9234160" lon="-3.5302880">
        <ele>549.0</ele>
        <time>2020-07-12T06:33:48Z</time>
      </trkpt>
      <trkpt lat="36.9232870" lon="-3.5300040">
        <ele>549.2</ele>
        <time>2020-07-12T06:33:54Z</time>
      </trkpt>
      <trkpt lat="36.9231960" lon="-3.5298110">
        <ele>549.2</ele>
        <time>2020-07-12T06:33:58Z</time>
      </trkpt>
      <trkpt lat="36.9230670" lon="-3.5295180">
        <ele>549.4</ele>
        <time>2020-07-12T06:34:04Z</time>
      </trkpt>
      <trkpt lat="36.9229590" lon="-3.5292720">
        <ele>549.4</ele>
        <time>2020-07-12T06:34:09Z</time>
      </trkpt>
      <trkpt lat="36.9228870" lon="-3.5290770">
        <ele>549.4</ele>
        <time>2020-07-12T06:34:13Z</time>
      </trkpt>
      <trkpt lat="36.9227350" lon="-3.5285410">
        <ele>549.2</ele>
        <time>2020-07-12T06:34:23Z</time>
      </trkpt>
      <trkpt lat="36.9226210" lon="-3.5280960">
        <ele>549.2</ele>
        <time>2020-07-12T06:34:31Z</time>
      </trkpt>
      <trkpt lat="36.9225170" lon="-3.5276280">
        <ele>549.4</ele>
        <time>2020-07-12T06:34:39Z</time>
      </trkpt>
      <trkpt lat="36.9224120" lon="-3.5271710">
        <ele>549.4</ele>
        <time>2020-07-12T06:34:47Z</time>
      </trkpt>
      <trkpt lat="36.9223040" lon="-3.5267450">
        <ele>548.6</ele>
        <time>2020-07-12T06:34:54Z</time>
      </trkpt>
      <trkpt lat="36.9222900" lon="-3.5266850">
        <ele>548.6</ele>
        <time>2020-07-12T06:34:55Z</time>
      </trkpt>
      <trkpt lat="36.9221860" lon="-3.5262740">
        <ele>549.6</ele>
        <time>2020-07-12T06:35:02Z</time>
      </trkpt>
      <trkpt lat="36.9221270" lon="-3.5260310">
        <ele>550.0</ele>
        <time>2020-07-12T06:35:06Z</time>
      </trkpt>
      <trkpt lat="36.9220600" lon="-3.5257320">
        <ele>549.8</ele>
        <time>2020-07-12T06:35:11Z</time>
      </trkpt>
      <trkpt lat="36.9218990" lon="-3.5251460">
        <ele>550.2</ele>
        <time>2020-07-12T06:35:21Z</time>
      </trkpt>
      <trkpt lat="36.9217940" lon="-3.5248010">
        <ele>550.2</ele>
        <time>2020-07-12T06:35:27Z</time>
      </trkpt>
      <trkpt lat="36.9217080" lon="-3.5246050">
        <ele>550.6</ele>
        <time>2020-07-12T06:35:31Z</time>
      </trkpt>
      <trkpt lat="36.9216250" lon="-3.5244680">
        <ele>550.8</ele>
        <time>2020-07-12T06:35:34Z</time>
      </trkpt>
      <trkpt lat="36.9216000" lon="-3.5244300">
        <ele>551.2</ele>
        <time>2020-07-12T06:35:35Z</time>
      </trkpt>
      <trkpt lat="36.9215350" lon="-3.5243480">
        <ele>551.4</ele>
        <time>2020-07-12T06:35:37Z</time>
      </trkpt>
      <trkpt lat="36.9214710" lon="-3.5242880">
        <ele>551.8</ele>
        <time>2020-07-12T06:35:39Z</time>
      </trkpt>
      <trkpt lat="36.9214380" lon="-3.5242570">
        <ele>552.0</ele>
        <time>2020-07-12T06:35:40Z</time>
      </trkpt>
      <trkpt lat="36.9214080" lon="-3.5242300">
        <ele>552.2</ele>
        <time>2020-07-12T06:35:41Z</time>
      </trkpt>
      <trkpt lat="36.9213070" lon="-3.5241420">
        <ele>552.8</ele>
        <time>2020-07-12T06:35:44Z</time>
      </trkpt>
      <trkpt lat="36.9211640" lon="-3.5240260">
        <ele>553.4</ele>
        <time>2020-07-12T06:35:48Z</time>
      </trkpt>
      <trkpt lat="36.9209580" lon="-3.5238610">
        <ele>554.4</ele>
        <time>2020-07-12T06:35:54Z</time>
      </trkpt>
      <trkpt lat="36.9209230" lon="-3.5238340">
        <ele>554.4</ele>
        <time>2020-07-12T06:35:55Z</time>
      </trkpt>
      <trkpt lat="36.9208940" lon="-3.5238060">
        <ele>554.6</ele>
        <time>2020-07-12T06:35:56Z</time>
      </trkpt>
      <trkpt lat="36.9207720" lon="-3.5236660">
        <ele>555.6</ele>
        <time>2020-07-12T06:36:00Z</time>
      </trkpt>
      <trkpt lat="36.9206570" lon="-3.5235030">
        <ele>556.4</ele>
        <time>2020-07-12T06:36:04Z</time>
      </trkpt>
      <trkpt lat="36.9205770" lon="-3.5233600">
        <ele>556.6</ele>
        <time>2020-07-12T06:36:07Z</time>
      </trkpt>
      <trkpt lat="36.9204490" lon="-3.5230500">
        <ele>557.0</ele>
        <time>2020-07-12T06:36:13Z</time>
      </trkpt>
      <trkpt lat="36.9204210" lon="-3.5229330">
        <ele>557.0</ele>
        <time>2020-07-12T06:36:15Z</time>
      </trkpt>
      <trkpt lat="36.9203950" lon="-3.5226790">
        <ele>557.2</ele>
        <time>2020-07-12T06:36:19Z</time>
      </trkpt>
      <trkpt lat="36.9203570" lon="-3.5222810">
        <ele>557.2</ele>
        <time>2020-07-12T06:36:25Z</time>
      </trkpt>
      <trkpt lat="36.9203180" lon="-3.5220810">
        <ele>557.4</ele>
        <time>2020-07-12T06:36:28Z</time>
      </trkpt>
      <trkpt lat="36.9202650" lon="-3.5219520">
        <ele>557.4</ele>
        <time>2020-07-12T06:36:30Z</time>
      </trkpt>
      <trkpt lat="36.9201900" lon="-3.5218410">
        <ele>557.4</ele>
        <time>2020-07-12T06:36:32Z</time>
      </trkpt>
      <trkpt lat="36.9201050" lon="-3.5217460">
        <ele>557.4</ele>
        <time>2020-07-12T06:36:34Z</time>
      </trkpt>
      <trkpt lat="36.9200180" lon="-3.5216630">
        <ele>557.2</ele>
        <time>2020-07-12T06:36:36Z</time>
      </trkpt>
      <trkpt lat="36.9199690" lon="-3.5216170">
        <ele>557.2</ele>
        <time>2020-07-12T06:36:37Z</time>
      </trkpt>
      <trkpt lat="36.9198790" lon="-3.5215290">
        <ele>557.2</ele>
        <time>2020-07-12T06:36:39Z</time>
      </trkpt>
      <trkpt lat="36.9197400" lon="-3.5214020">
        <ele>557.6</ele>
        <time>2020-07-12T06:36:42Z</time>
      </trkpt>
      <trkpt lat="36.9196060" lon="-3.5212720">
        <ele>557.8</ele>
        <time>2020-07-12T06:36:45Z</time>
      </trkpt>
      <trkpt lat="36.9195640" lon="-3.5212290">
        <ele>558.0</ele>
        <time>2020-07-12T06:36:46Z</time>
      </trkpt>
      <trkpt lat="36.9191610" lon="-3.5207750">
        <ele>558.4</ele>
        <time>2020-07-12T06:36:56Z</time>
      </trkpt>
      <trkpt lat="36.9189300" lon="-3.5204000">
        <ele>558.6</ele>
        <time>2020-07-12T06:37:03Z</time>
      </trkpt>
      <trkpt lat="36.9189060" lon="-3.5203420">
        <ele>558.8</ele>
        <time>2020-07-12T06:37:04Z</time>
      </trkpt>
      <trkpt lat="36.9188770" lon="-3.5202210">
        <ele>559.0</ele>
        <time>2020-07-12T06:37:06Z</time>
      </trkpt>
      <trkpt lat="36.9188690" lon="-3.5200190">
        <ele>559.0</ele>
        <time>2020-07-12T06:37:09Z</time>
      </trkpt>
      <trkpt lat="36.9188710" lon="-3.5199540">
        <ele>559.0</ele>
        <time>2020-07-12T06:37:10Z</time>
      </trkpt>
      <trkpt lat="36.9189250" lon="-3.5194990">
        <ele>559.0</ele>
        <time>2020-07-12T06:37:17Z</time>
      </trkpt>
      <trkpt lat="36.9190870" lon="-3.5189360">
        <ele>558.8</ele>
        <time>2020-07-12T06:37:26Z</time>
      </trkpt>
      <trkpt lat="36.9191000" lon="-3.5188670">
        <ele>558.8</ele>
        <time>2020-07-12T06:37:27Z</time>
      </trkpt>
      <trkpt lat="36.9190640" lon="-3.5186670">
        <ele>559.0</ele>
        <time>2020-07-12T06:37:30Z</time>
      </trkpt>
      <trkpt lat="36.9189020" lon="-3.5186010">
        <ele>559.2</ele>
        <time>2020-07-12T06:37:33Z</time>
      </trkpt>
      <trkpt lat="36.9187550" lon="-3.5187120">
        <ele>559.4</ele>
        <time>2020-07-12T06:37:36Z</time>
      </trkpt>
      <trkpt lat="36.9187050" lon="-3.5187590">
        <ele>559.4</ele>
        <time>2020-07-12T06:37:37Z</time>
      </trkpt>
      <trkpt lat="36.9185600" lon="-3.5189010">
        <ele>559.6</ele>
        <time>2020-07-12T06:37:40Z</time>
      </trkpt>
      <trkpt lat="36.9183610" lon="-3.5190840">
        <ele>559.6</ele>
        <time>2020-07-12T06:37:44Z</time>
      </trkpt>
      <trkpt lat="36.9182070" lon="-3.5192050">
        <ele>559.4</ele>
        <time>2020-07-12T06:37:47Z</time>
      </trkpt>
      <trkpt lat="36.9180220" lon="-3.5192150">
        <ele>559.4</ele>
        <time>2020-07-12T06:37:50Z</time>
      </trkpt>
      <trkpt lat="36.9178800" lon="-3.5190730">
        <ele>559.6</ele>
        <time>2020-07-12T06:37:53Z</time>
      </trkpt>
      <trkpt lat="36.9177730" lon="-3.5188770">
        <ele>560.0</ele>
        <time>2020-07-12T06:37:56Z</time>
      </trkpt>
      <trkpt lat="36.9177040" lon="-3.5187440">
        <ele>560.2</ele>
        <time>2020-07-12T06:37:58Z</time>
      </trkpt>
      <trkpt lat="36.9175110" lon="-3.5182990">
        <ele>560.0</ele>
        <time>2020-07-12T06:38:05Z</time>
      </trkpt>
      <trkpt lat="36.9174960" lon="-3.5180100">
        <ele>560.2</ele>
        <time>2020-07-12T06:38:09Z</time>
      </trkpt>
      <trkpt lat="36.9175480" lon="-3.5176630">
        <ele>560.4</ele>
        <time>2020-07-12T06:38:14Z</time>
      </trkpt>
      <trkpt lat="36.9175740" lon="-3.5176020">
        <ele>560.4</ele>
        <time>2020-07-12T06:38:15Z</time>
      </trkpt>
      <trkpt lat="36.9177510" lon="-3.5174180">
        <ele>560.6</ele>
        <time>2020-07-12T06:38:19Z</time>
      </trkpt>
      <trkpt lat="36.9178560" lon="-3.5173440">
        <ele>560.4</ele>
        <time>2020-07-12T06:38:21Z</time>
      </trkpt>
      <trkpt lat="36.9181230" lon="-3.5171380">
        <ele>559.8</ele>
        <time>2020-07-12T06:38:26Z</time>
      </trkpt>
      <trkpt lat="36.9183640" lon="-3.5168210">
        <ele>560.0</ele>
        <time>2020-07-12T06:38:32Z</time>
      </trkpt>
      <trkpt lat="36.9184100" lon="-3.5165850">
        <ele>560.6</ele>
        <time>2020-07-12T06:38:36Z</time>
      </trkpt>
      <trkpt lat="36.9184090" lon="-3.5165240">
        <ele>560.8</ele>
        <time>2020-07-12T06:38:37Z</time>
      </trkpt>
      <trkpt lat="36.9184090" lon="-3.5164640">
        <ele>561.2</ele>
        <time>2020-07-12T06:38:38Z</time>
      </trkpt>
      <trkpt lat="36.9184020" lon="-3.5163490">
        <ele>561.8</ele>
        <time>2020-07-12T06:38:40Z</time>
      </trkpt>
      <trkpt lat="36.9183910" lon="-3.5162300">
        <ele>562.4</ele>
        <time>2020-07-12T06:38:42Z</time>
      </trkpt>
      <trkpt lat="36.9183580" lon="-3.5160600">
        <ele>563.0</ele>
        <time>2020-07-12T06:38:45Z</time>
      </trkpt>
      <trkpt lat="36.9183390" lon="-3.5160080">
        <ele>563.2</ele>
        <time>2020-07-12T06:38:46Z</time>
      </trkpt>
      <trkpt lat="36.9183050" lon="-3.5159120">
        <ele>563.6</ele>
        <time>2020-07-12T06:38:48Z</time>
      </trkpt>
      <trkpt lat="36.9182680" lon="-3.5158310">
        <ele>564.0</ele>
        <time>2020-07-12T06:38:50Z</time>
      </trkpt>
      <trkpt lat="36.9181880" lon="-3.5156790">
        <ele>565.2</ele>
        <time>2020-07-12T06:38:54Z</time>
      </trkpt>
      <trkpt lat="36.9181630" lon="-3.5156490">
        <ele>565.4</ele>
        <time>2020-07-12T06:38:55Z</time>
      </trkpt>
      <trkpt lat="36.9180650" lon="-3.5154710">
        <ele>566.2</ele>
        <time>2020-07-12T06:39:00Z</time>
      </trkpt>
      <trkpt lat="36.9180060" lon="-3.5153650">
        <ele>567.0</ele>
        <time>2020-07-12T06:39:03Z</time>
      </trkpt>
      <trkpt lat="36.9179850" lon="-3.5153300">
        <ele>567.2</ele>
        <time>2020-07-12T06:39:04Z</time>
      </trkpt>
      <trkpt lat="36.9179060" lon="-3.5151940">
        <ele>568.4</ele>
        <time>2020-07-12T06:39:08Z</time>
      </trkpt>
      <trkpt lat="36.9178170" lon="-3.5150720">
        <ele>569.4</ele>
        <time>2020-07-12T06:39:12Z</time>
      </trkpt>
      <trkpt lat="36.9176680" lon="-3.5149790">
        <ele>570.2</ele>
        <time>2020-07-12T06:39:17Z</time>
      </trkpt>
      <trkpt lat="36.9176310" lon="-3.5149730">
        <ele>570.4</ele>
        <time>2020-07-12T06:39:18Z</time>
      </trkpt>
      <trkpt lat="36.9175940" lon="-3.5149760">
        <ele>570.8</ele>
        <time>2020-07-12T06:39:19Z</time>
      </trkpt>
      <trkpt lat="36.9175240" lon="-3.5149990">
        <ele>571.2</ele>
        <time>2020-07-12T06:39:21Z</time>
      </trkpt>
      <trkpt lat="36.9174910" lon="-3.5150190">
        <ele>571.4</ele>
        <time>2020-07-12T06:39:22Z</time>
      </trkpt>
      <trkpt lat="36.9174690" lon="-3.5150550">
        <ele>571.6</ele>
        <time>2020-07-12T06:39:23Z</time>
      </trkpt>
      <trkpt lat="36.9174490" lon="-3.5150910">
        <ele>571.8</ele>
        <time>2020-07-12T06:39:24Z</time>
      </trkpt>
      <trkpt lat="36.9174320" lon="-3.5151280">
        <ele>572.0</ele>
        <time>2020-07-12T06:39:25Z</time>
      </trkpt>
      <trkpt lat="36.9174080" lon="-3.5153370">
        <ele>573.0</ele>
        <time>2020-07-12T06:39:30Z</time>
      </trkpt>
      <trkpt lat="36.9173730" lon="-3.5156230">
        <ele>574.4</ele>
        <time>2020-07-12T06:39:37Z</time>
      </trkpt>
      <trkpt lat="36.9173510" lon="-3.5157010">
        <ele>574.8</ele>
        <time>2020-07-12T06:39:39Z</time>
      </trkpt>
      <trkpt lat="36.9173160" lon="-3.5157710">
        <ele>575.4</ele>
        <time>2020-07-12T06:39:41Z</time>
      </trkpt>
      <trkpt lat="36.9172560" lon="-3.5158590">
        <ele>576.4</ele>
        <time>2020-07-12T06:39:44Z</time>
      </trkpt>
      <trkpt lat="36.9172280" lon="-3.5158840">
        <ele>576.6</ele>
        <time>2020-07-12T06:39:45Z</time>
      </trkpt>
      <trkpt lat="36.9171380" lon="-3.5159330">
        <ele>577.6</ele>
        <time>2020-07-12T06:39:48Z</time>
      </trkpt>
      <trkpt lat="36.9170720" lon="-3.5159380">
        <ele>578.0</ele>
        <time>2020-07-12T06:39:50Z</time>
      </trkpt>
      <trkpt lat="36.9170080" lon="-3.5159240">
        <ele>578.6</ele>
        <time>2020-07-12T06:39:52Z</time>
      </trkpt>
      <trkpt lat="36.9169280" lon="-3.5158650">
        <ele>579.6</ele>
        <time>2020-07-12T06:39:55Z</time>
      </trkpt>
      <trkpt lat="36.9169070" lon="-3.5158350">
        <ele>579.8</ele>
        <time>2020-07-12T06:39:56Z</time>
      </trkpt>
      <trkpt lat="36.9168370" lon="-3.5156580">
        <ele>580.8</ele>
        <time>2020-07-12T06:40:01Z</time>
      </trkpt>
      <trkpt lat="36.9168280" lon="-3.5156180">
        <ele>581.0</ele>
        <time>2020-07-12T06:40:02Z</time>
      </trkpt>
      <trkpt lat="36.9168050" lon="-3.5154560">
        <ele>582.0</ele>
        <time>2020-07-12T06:40:06Z</time>
      </trkpt>
      <trkpt lat="36.9167810" lon="-3.5152970">
        <ele>582.8</ele>
        <time>2020-07-12T06:40:10Z</time>
      </trkpt>
      <trkpt lat="36.9167630" lon="-3.5152160">
        <ele>583.2</ele>
        <time>2020-07-12T06:40:12Z</time>
      </trkpt>
      <trkpt lat="36.9167040" lon="-3.5151150">
        <ele>583.6</ele>
        <time>2020-07-12T06:40:15Z</time>
      </trkpt>
      <trkpt lat="36.9166330" lon="-3.5150900">
        <ele>584.2</ele>
        <time>2020-07-12T06:40:17Z</time>
      </trkpt>
      <trkpt lat="36.9165970" lon="-3.5150850">
        <ele>584.4</ele>
        <time>2020-07-12T06:40:18Z</time>
      </trkpt>
      <trkpt lat="36.9164190" lon="-3.5151680">
        <ele>585.0</ele>
        <time>2020-07-12T06:40:23Z</time>
      </trkpt>
      <trkpt lat="36.9163140" lon="-3.5153790">
        <ele>585.2</ele>
        <time>2020-07-12T06:40:28Z</time>
      </trkpt>
      <trkpt lat="36.9162870" lon="-3.5154650">
        <ele>585.6</ele>
        <time>2020-07-12T06:40:30Z</time>
      </trkpt>
      <trkpt lat="36.9162250" lon="-3.5157230">
        <ele>586.6</ele>
        <time>2020-07-12T06:40:36Z</time>
      </trkpt>
      <trkpt lat="36.9161710" lon="-3.5159440">
        <ele>587.6</ele>
        <time>2020-07-12T06:40:41Z</time>
      </trkpt>
      <trkpt lat="36.9161260" lon="-3.5161030">
        <ele>588.4</ele>
        <time>2020-07-12T06:40:45Z</time>
      </trkpt>
      <trkpt lat="36.9161120" lon="-3.5161370">
        <ele>588.6</ele>
        <time>2020-07-12T06:40:46Z</time>
      </trkpt>
      <trkpt lat="36.9160110" lon="-3.5162660">
        <ele>589.8</ele>
        <time>2020-07-12T06:40:50Z</time>
      </trkpt>
      <trkpt lat="36.9158580" lon="-3.5163070">
        <ele>590.8</ele>
        <time>2020-07-12T06:40:55Z</time>
      </trkpt>
      <trkpt lat="36.9158290" lon="-3.5162960">
        <ele>591.0</ele>
        <time>2020-07-12T06:40:56Z</time>
      </trkpt>
      <trkpt lat="36.9157210" lon="-3.5162100">
        <ele>592.0</ele>
        <time>2020-07-12T06:41:00Z</time>
      </trkpt>
      <trkpt lat="36.9156990" lon="-3.5161890">
        <ele>592.2</ele>
        <time>2020-07-12T06:41:01Z</time>
      </trkpt>
      <trkpt lat="36.9156110" lon="-3.5160240">
        <ele>593.2</ele>
        <time>2020-07-12T06:41:06Z</time>
      </trkpt>
      <trkpt lat="36.9156060" lon="-3.5159050">
        <ele>593.4</ele>
        <time>2020-07-12T06:41:09Z</time>
      </trkpt>
      <trkpt lat="36.9156180" lon="-3.5158310">
        <ele>593.8</ele>
        <time>2020-07-12T06:41:11Z</time>
      </trkpt>
      <trkpt lat="36.9156410" lon="-3.5157510">
        <ele>594.4</ele>
        <time>2020-07-12T06:41:13Z</time>
      </trkpt>
      <trkpt lat="36.9157090" lon="-3.5156080">
        <ele>595.4</ele>
        <time>2020-07-12T06:41:17Z</time>
      </trkpt>
      <trkpt lat="36.9157750" lon="-3.5154650">
        <ele>596.4</ele>
        <time>2020-07-12T06:41:21Z</time>
      </trkpt>
      <trkpt lat="36.9158560" lon="-3.5152300">
        <ele>597.2</ele>
        <time>2020-07-12T06:41:27Z</time>
      </trkpt>
      <trkpt lat="36.9158660" lon="-3.5149870">
        <ele>597.6</ele>
        <time>2020-07-12T06:41:33Z</time>
      </trkpt>
      <trkpt lat="36.9158530" lon="-3.5148230">
        <ele>598.6</ele>
        <time>2020-07-12T06:41:37Z</time>
      </trkpt>
      <trkpt lat="36.9158210" lon="-3.5146750">
        <ele>600.0</ele>
        <time>2020-07-12T06:41:41Z</time>
      </trkpt>
      <trkpt lat="36.9157750" lon="-3.5145570">
        <ele>601.2</ele>
        <time>2020-07-12T06:41:44Z</time>
      </trkpt>
      <trkpt lat="36.9157170" lon="-3.5144560">
        <ele>601.8</ele>
        <time>2020-07-12T06:41:47Z</time>
      </trkpt>
      <trkpt lat="36.9156290" lon="-3.5143740">
        <ele>602.2</ele>
        <time>2020-07-12T06:41:50Z</time>
      </trkpt>
      <trkpt lat="36.9155910" lon="-3.5143540">
        <ele>602.4</ele>
        <time>2020-07-12T06:41:51Z</time>
      </trkpt>
      <trkpt lat="36.9155010" lon="-3.5143220">
        <ele>602.6</ele>
        <time>2020-07-12T06:41:53Z</time>
      </trkpt>
      <trkpt lat="36.9154150" lon="-3.5143270">
        <ele>602.8</ele>
        <time>2020-07-12T06:41:55Z</time>
      </trkpt>
      <trkpt lat="36.9152390" lon="-3.5143720">
        <ele>603.2</ele>
        <time>2020-07-12T06:41:59Z</time>
      </trkpt>
      <trkpt lat="36.9151500" lon="-3.5143990">
        <ele>603.4</ele>
        <time>2020-07-12T06:42:01Z</time>
      </trkpt>
      <trkpt lat="36.9149060" lon="-3.5144600">
        <ele>604.4</ele>
        <time>2020-07-12T06:42:07Z</time>
      </trkpt>
      <trkpt lat="36.9148680" lon="-3.5144710">
        <ele>604.6</ele>
        <time>2020-07-12T06:42:08Z</time>
      </trkpt>
      <trkpt lat="36.9147960" lon="-3.5144910">
        <ele>604.8</ele>
        <time>2020-07-12T06:42:10Z</time>
      </trkpt>
      <trkpt lat="36.9146030" lon="-3.5145410">
        <ele>605.6</ele>
        <time>2020-07-12T06:42:15Z</time>
      </trkpt>
      <trkpt lat="36.9143890" lon="-3.5145950">
        <ele>606.6</ele>
        <time>2020-07-12T06:42:21Z</time>
      </trkpt>
      <trkpt lat="36.9143500" lon="-3.5146010">
        <ele>606.8</ele>
        <time>2020-07-12T06:42:22Z</time>
      </trkpt>
      <trkpt lat="36.9142000" lon="-3.5145950">
        <ele>607.8</ele>
        <time>2020-07-12T06:42:26Z</time>
      </trkpt>
      <trkpt lat="36.9140850" lon="-3.5145620">
        <ele>608.0</ele>
        <time>2020-07-12T06:42:29Z</time>
      </trkpt>
      <trkpt lat="36.9138450" lon="-3.5144600">
        <ele>608.8</ele>
        <time>2020-07-12T06:42:36Z</time>
      </trkpt>
      <trkpt lat="36.9137370" lon="-3.5143770">
        <ele>610.0</ele>
        <time>2020-07-12T06:42:40Z</time>
      </trkpt>
      <trkpt lat="36.9136850" lon="-3.5143160">
        <ele>610.6</ele>
        <time>2020-07-12T06:42:42Z</time>
      </trkpt>
      <trkpt lat="36.9136390" lon="-3.5142530">
        <ele>611.2</ele>
        <time>2020-07-12T06:42:44Z</time>
      </trkpt>
      <trkpt lat="36.9134960" lon="-3.5140160">
        <ele>612.2</ele>
        <time>2020-07-12T06:42:51Z</time>
      </trkpt>
      <trkpt lat="36.9133960" lon="-3.5137640">
        <ele>613.2</ele>
        <time>2020-07-12T06:42:58Z</time>
      </trkpt>
      <trkpt lat="36.9133970" lon="-3.5137260">
        <ele>613.4</ele>
        <time>2020-07-12T06:42:59Z</time>
      </trkpt>
      <trkpt lat="36.9134260" lon="-3.5136030">
        <ele>614.6</ele>
        <time>2020-07-12T06:43:02Z</time>
      </trkpt>
      <trkpt lat="36.9134670" lon="-3.5135340">
        <ele>615.2</ele>
        <time>2020-07-12T06:43:04Z</time>
      </trkpt>
      <trkpt lat="36.9135150" lon="-3.5134780">
        <ele>615.8</ele>
        <time>2020-07-12T06:43:06Z</time>
      </trkpt>
      <trkpt lat="36.9136470" lon="-3.5133950">
        <ele>616.6</ele>
        <time>2020-07-12T06:43:10Z</time>
      </trkpt>
      <trkpt lat="36.9137140" lon="-3.5133570">
        <ele>616.8</ele>
        <time>2020-07-12T06:43:12Z</time>
      </trkpt>
      <trkpt lat="36.9138960" lon="-3.5132560">
        <ele>617.8</ele>
        <time>2020-07-12T06:43:18Z</time>
      </trkpt>
      <trkpt lat="36.9139530" lon="-3.5132210">
        <ele>618.4</ele>
        <time>2020-07-12T06:43:20Z</time>
      </trkpt>
      <trkpt lat="36.9140340" lon="-3.5131570">
        <ele>619.0</ele>
        <time>2020-07-12T06:43:23Z</time>
      </trkpt>
      <trkpt lat="36.9142010" lon="-3.5129710">
        <ele>619.8</ele>
        <time>2020-07-12T06:43:30Z</time>
      </trkpt>
      <trkpt lat="36.9142160" lon="-3.5128930">
        <ele>620.2</ele>
        <time>2020-07-12T06:43:32Z</time>
      </trkpt>
      <trkpt lat="36.9142110" lon="-3.5128100">
        <ele>620.6</ele>
        <time>2020-07-12T06:43:34Z</time>
      </trkpt>
      <trkpt lat="36.9141520" lon="-3.5127100">
        <ele>621.2</ele>
        <time>2020-07-12T06:43:37Z</time>
      </trkpt>
      <trkpt lat="36.9141260" lon="-3.5126810">
        <ele>621.2</ele>
        <time>2020-07-12T06:43:38Z</time>
      </trkpt>
      <trkpt lat="36.9140080" lon="-3.5125960">
        <ele>622.4</ele>
        <time>2020-07-12T06:43:42Z</time>
      </trkpt>
      <trkpt lat="36.9139450" lon="-3.5125600">
        <ele>623.2</ele>
        <time>2020-07-12T06:43:44Z</time>
      </trkpt>
      <trkpt lat="36.9139140" lon="-3.5125420">
        <ele>623.4</ele>
        <time>2020-07-12T06:43:45Z</time>
      </trkpt>
      <trkpt lat="36.9137660" lon="-3.5124440">
        <ele>624.6</ele>
        <time>2020-07-12T06:43:50Z</time>
      </trkpt>
      <trkpt lat="36.9136720" lon="-3.5123310">
        <ele>625.4</ele>
        <time>2020-07-12T06:43:54Z</time>
      </trkpt>
      <trkpt lat="36.9136500" lon="-3.5122070">
        <ele>625.8</ele>
        <time>2020-07-12T06:43:57Z</time>
      </trkpt>
      <trkpt lat="36.9136570" lon="-3.5121600">
        <ele>625.8</ele>
        <time>2020-07-12T06:43:58Z</time>
      </trkpt>
      <trkpt lat="36.9137500" lon="-3.5120070">
        <ele>626.4</ele>
        <time>2020-07-12T06:44:02Z</time>
      </trkpt>
      <trkpt lat="36.9138170" lon="-3.5119580">
        <ele>626.8</ele>
        <time>2020-07-12T06:44:04Z</time>
      </trkpt>
      <trkpt lat="36.9139880" lon="-3.5118370">
        <ele>627.8</ele>
        <time>2020-07-12T06:44:09Z</time>
      </trkpt>
      <trkpt lat="36.9141550" lon="-3.5116930">
        <ele>628.0</ele>
        <time>2020-07-12T06:44:14Z</time>
      </trkpt>
      <trkpt lat="36.9142720" lon="-3.5115660">
        <ele>628.0</ele>
        <time>2020-07-12T06:44:18Z</time>
      </trkpt>
      <trkpt lat="36.9143020" lon="-3.5115360">
        <ele>628.2</ele>
        <time>2020-07-12T06:44:19Z</time>
      </trkpt>
      <trkpt lat="36.9144840" lon="-3.5114120">
        <ele>628.2</ele>
        <time>2020-07-12T06:44:24Z</time>
      </trkpt>
      <trkpt lat="36.9145770" lon="-3.5113960">
        <ele>628.0</ele>
        <time>2020-07-12T06:44:26Z</time>
      </trkpt>
      <trkpt lat="36.9147320" lon="-3.5113890">
        <ele>627.8</ele>
        <time>2020-07-12T06:44:29Z</time>
      </trkpt>
      <trkpt lat="36.9149000" lon="-3.5114010">
        <ele>627.8</ele>
        <time>2020-07-12T06:44:32Z</time>
      </trkpt>
      <trkpt lat="36.9151210" lon="-3.5114080">
        <ele>627.6</ele>
        <time>2020-07-12T06:44:36Z</time>
      </trkpt>
      <trkpt lat="36.9153060" lon="-3.5114270">
        <ele>627.6</ele>
        <time>2020-07-12T06:44:39Z</time>
      </trkpt>
      <trkpt lat="36.9154300" lon="-3.5114530">
        <ele>627.2</ele>
        <time>2020-07-12T06:44:41Z</time>
      </trkpt>
      <trkpt lat="36.9156520" lon="-3.5115190">
        <ele>626.8</ele>
        <time>2020-07-12T06:44:44Z</time>
      </trkpt>
      <trkpt lat="36.9158800" lon="-3.5115750">
        <ele>626.4</ele>
        <time>2020-07-12T06:44:47Z</time>
      </trkpt>
      <trkpt lat="36.9159680" lon="-3.5115760">
        <ele>626.2</ele>
        <time>2020-07-12T06:44:48Z</time>
      </trkpt>
      <trkpt lat="36.9161340" lon="-3.5115320">
        <ele>626.0</ele>
        <time>2020-07-12T06:44:50Z</time>
      </trkpt>
      <trkpt lat="36.9162100" lon="-3.5115000">
        <ele>625.8</ele>
        <time>2020-07-12T06:44:51Z</time>
      </trkpt>
      <trkpt lat="36.9163660" lon="-3.5114120">
        <ele>625.0</ele>
        <time>2020-07-12T06:44:53Z</time>
      </trkpt>
      <trkpt lat="36.9164520" lon="-3.5113670">
        <ele>624.6</ele>
        <time>2020-07-12T06:44:54Z</time>
      </trkpt>
      <trkpt lat="36.9165300" lon="-3.5113250">
        <ele>624.2</ele>
        <time>2020-07-12T06:44:55Z</time>
      </trkpt>
      <trkpt lat="36.9167660" lon="-3.5111860">
        <ele>623.6</ele>
        <time>2020-07-12T06:44:58Z</time>
      </trkpt>
      <trkpt lat="36.9168970" lon="-3.5110480">
        <ele>623.0</ele>
        <time>2020-07-12T06:45:00Z</time>
      </trkpt>
      <trkpt lat="36.9169300" lon="-3.5109530">
        <ele>623.0</ele>
        <time>2020-07-12T06:45:01Z</time>
      </trkpt>
      <trkpt lat="36.9169090" lon="-3.5107390">
        <ele>622.8</ele>
        <time>2020-07-12T06:45:03Z</time>
      </trkpt>
      <trkpt lat="36.9167900" lon="-3.5105090">
        <ele>622.8</ele>
        <time>2020-07-12T06:45:06Z</time>
      </trkpt>
      <trkpt lat="36.9167180" lon="-3.5103630">
        <ele>622.8</ele>
        <time>2020-07-12T06:45:08Z</time>
      </trkpt>
      <trkpt lat="36.9166880" lon="-3.5103010">
        <ele>623.0</ele>
        <time>2020-07-12T06:45:09Z</time>
      </trkpt>
      <trkpt lat="36.9166330" lon="-3.5101830">
        <ele>623.4</ele>
        <time>2020-07-12T06:45:11Z</time>
      </trkpt>
      <trkpt lat="36.9165800" lon="-3.5100610">
        <ele>624.0</ele>
        <time>2020-07-12T06:45:13Z</time>
      </trkpt>
      <trkpt lat="36.9165420" lon="-3.5099500">
        <ele>624.8</ele>
        <time>2020-07-12T06:45:15Z</time>
      </trkpt>
      <trkpt lat="36.9165100" lon="-3.5098470">
        <ele>625.6</ele>
        <time>2020-07-12T06:45:17Z</time>
      </trkpt>
      <trkpt lat="36.9165020" lon="-3.5097940">
        <ele>626.0</ele>
        <time>2020-07-12T06:45:18Z</time>
      </trkpt>
      <trkpt lat="36.9164910" lon="-3.5096450">
        <ele>627.2</ele>
        <time>2020-07-12T06:45:21Z</time>
      </trkpt>
      <trkpt lat="36.9164930" lon="-3.5095930">
        <ele>627.4</ele>
        <time>2020-07-12T06:45:22Z</time>
      </trkpt>
      <trkpt lat="36.9165050" lon="-3.5094460">
        <ele>628.0</ele>
        <time>2020-07-12T06:45:25Z</time>
      </trkpt>
      <trkpt lat="36.9165100" lon="-3.5093990">
        <ele>628.2</ele>
        <time>2020-07-12T06:45:26Z</time>
      </trkpt>
      <trkpt lat="36.9165260" lon="-3.5092620">
        <ele>628.8</ele>
        <time>2020-07-12T06:45:29Z</time>
      </trkpt>
      <trkpt lat="36.9165300" lon="-3.5092140">
        <ele>629.0</ele>
        <time>2020-07-12T06:45:30Z</time>
      </trkpt>
      <trkpt lat="36.9165400" lon="-3.5091290">
        <ele>629.4</ele>
        <time>2020-07-12T06:45:32Z</time>
      </trkpt>
      <trkpt lat="36.9165610" lon="-3.5089680">
        <ele>630.8</ele>
        <time>2020-07-12T06:45:36Z</time>
      </trkpt>
      <trkpt lat="36.9165690" lon="-3.5088860">
        <ele>631.4</ele>
        <time>2020-07-12T06:45:38Z</time>
      </trkpt>
      <trkpt lat="36.9165730" lon="-3.5088470">
        <ele>631.8</ele>
        <time>2020-07-12T06:45:39Z</time>
      </trkpt>
      <trkpt lat="36.9165940" lon="-3.5086880">
        <ele>632.6</ele>
        <time>2020-07-12T06:45:43Z</time>
      </trkpt>
      <trkpt lat="36.9166030" lon="-3.5086030">
        <ele>633.0</ele>
        <time>2020-07-12T06:45:45Z</time>
      </trkpt>
      <trkpt lat="36.9166180" lon="-3.5084800">
        <ele>633.4</ele>
        <time>2020-07-12T06:45:48Z</time>
      </trkpt>
      <trkpt lat="36.9166400" lon="-3.5083230">
        <ele>634.2</ele>
        <time>2020-07-12T06:45:52Z</time>
      </trkpt>
      <trkpt lat="36.9166590" lon="-3.5081700">
        <ele>635.2</ele>
        <time>2020-07-12T06:45:56Z</time>
      </trkpt>
      <trkpt lat="36.9166800" lon="-3.5080180">
        <ele>636.4</ele>
        <time>2020-07-12T06:46:00Z</time>
      </trkpt>
      <trkpt lat="36.9166850" lon="-3.5079800">
        <ele>636.8</ele>
        <time>2020-07-12T06:46:01Z</time>
      </trkpt>
      <trkpt lat="36.9167040" lon="-3.5077870">
        <ele>637.6</ele>
        <time>2020-07-12T06:46:06Z</time>
      </trkpt>
      <trkpt lat="36.9167260" lon="-3.5076330">
        <ele>638.0</ele>
        <time>2020-07-12T06:46:10Z</time>
      </trkpt>
      <trkpt lat="36.9167460" lon="-3.5075220">
        <ele>638.6</ele>
        <time>2020-07-12T06:46:13Z</time>
      </trkpt>
      <trkpt lat="36.9167790" lon="-3.5072850">
        <ele>639.6</ele>
        <time>2020-07-12T06:46:19Z</time>
      </trkpt>
      <trkpt lat="36.9168220" lon="-3.5068870">
        <ele>640.2</ele>
        <time>2020-07-12T06:46:27Z</time>
      </trkpt>
      <trkpt lat="36.9168350" lon="-3.5065890">
        <ele>639.8</ele>
        <time>2020-07-12T06:46:32Z</time>
      </trkpt>
      <trkpt lat="36.9168310" lon="-3.5064640">
        <ele>639.6</ele>
        <time>2020-07-12T06:46:34Z</time>
      </trkpt>
      <trkpt lat="36.9168260" lon="-3.5064100">
        <ele>639.6</ele>
        <time>2020-07-12T06:46:35Z</time>
      </trkpt>
      <trkpt lat="36.9168050" lon="-3.5062840">
        <ele>639.6</ele>
        <time>2020-07-12T06:46:37Z</time>
      </trkpt>
      <trkpt lat="36.9167760" lon="-3.5061660">
        <ele>639.6</ele>
        <time>2020-07-12T06:46:39Z</time>
      </trkpt>
      <trkpt lat="36.9167410" lon="-3.5060610">
        <ele>639.6</ele>
        <time>2020-07-12T06:46:41Z</time>
      </trkpt>
      <trkpt lat="36.9166720" lon="-3.5058970">
        <ele>639.8</ele>
        <time>2020-07-12T06:46:44Z</time>
      </trkpt>
      <trkpt lat="36.9165980" lon="-3.5057420">
        <ele>640.0</ele>
        <time>2020-07-12T06:46:47Z</time>
      </trkpt>
      <trkpt lat="36.9165170" lon="-3.5055810">
        <ele>640.0</ele>
        <time>2020-07-12T06:46:50Z</time>
      </trkpt>
      <trkpt lat="36.9164380" lon="-3.5054180">
        <ele>640.4</ele>
        <time>2020-07-12T06:46:53Z</time>
      </trkpt>
      <trkpt lat="36.9162550" lon="-3.5050260">
        <ele>640.4</ele>
        <time>2020-07-12T06:47:00Z</time>
      </trkpt>
      <trkpt lat="36.9162350" lon="-3.5049710">
        <ele>640.4</ele>
        <time>2020-07-12T06:47:01Z</time>
      </trkpt>
      <trkpt lat="36.9160890" lon="-3.5044590">
        <ele>640.6</ele>
        <time>2020-07-12T06:47:09Z</time>
      </trkpt>
      <trkpt lat="36.9159050" lon="-3.5038150">
        <ele>640.4</ele>
        <time>2020-07-12T06:47:19Z</time>
      </trkpt>
      <trkpt lat="36.9158860" lon="-3.5037520">
        <ele>640.4</ele>
        <time>2020-07-12T06:47:20Z</time>
      </trkpt>
      <trkpt lat="36.9158340" lon="-3.5035490">
        <ele>640.2</ele>
        <time>2020-07-12T06:47:23Z</time>
      </trkpt>
      <trkpt lat="36.9157650" lon="-3.5032680">
        <ele>640.0</ele>
        <time>2020-07-12T06:47:27Z</time>
      </trkpt>
      <trkpt lat="36.9156120" lon="-3.5028010">
        <ele>639.6</ele>
        <time>2020-07-12T06:47:34Z</time>
      </trkpt>
      <trkpt lat="36.9154250" lon="-3.5021770">
        <ele>639.8</ele>
        <time>2020-07-12T06:47:43Z</time>
      </trkpt>
      <trkpt lat="36.9153500" lon="-3.5017560">
        <ele>640.0</ele>
        <time>2020-07-12T06:47:49Z</time>
      </trkpt>
      <trkpt lat="36.9153220" lon="-3.5016930">
        <ele>640.0</ele>
        <time>2020-07-12T06:47:50Z</time>
      </trkpt>
      <trkpt lat="36.9151680" lon="-3.5015790">
        <ele>640.0</ele>
        <time>2020-07-12T06:47:53Z</time>
      </trkpt>
      <trkpt lat="36.9150450" lon="-3.5015550">
        <ele>639.8</ele>
        <time>2020-07-12T06:47:55Z</time>
      </trkpt>
      <trkpt lat="36.9148480" lon="-3.5015220">
        <ele>639.8</ele>
        <time>2020-07-12T06:47:58Z</time>
      </trkpt>
      <trkpt lat="36.9145350" lon="-3.5013780">
        <ele>639.6</ele>
        <time>2020-07-12T06:48:03Z</time>
      </trkpt>
      <trkpt lat="36.9143850" lon="-3.5012210">
        <ele>639.8</ele>
        <time>2020-07-12T06:48:06Z</time>
      </trkpt>
      <trkpt lat="36.9142970" lon="-3.5011070">
        <ele>639.8</ele>
        <time>2020-07-12T06:48:08Z</time>
      </trkpt>
      <trkpt lat="36.9141570" lon="-3.5008560">
        <ele>640.0</ele>
        <time>2020-07-12T06:48:12Z</time>
      </trkpt>
      <trkpt lat="36.9141350" lon="-3.5007880">
        <ele>640.0</ele>
        <time>2020-07-12T06:48:13Z</time>
      </trkpt>
      <trkpt lat="36.9140460" lon="-3.5004950">
        <ele>640.2</ele>
        <time>2020-07-12T06:48:17Z</time>
      </trkpt>
      <trkpt lat="36.9140080" lon="-3.5004260">
        <ele>640.2</ele>
        <time>2020-07-12T06:48:18Z</time>
      </trkpt>
      <trkpt lat="36.9138000" lon="-3.5001160">
        <ele>639.8</ele>
        <time>2020-07-12T06:48:23Z</time>
      </trkpt>
      <trkpt lat="36.9137650" lon="-3.4998980">
        <ele>640.2</ele>
        <time>2020-07-12T06:48:26Z</time>
      </trkpt>
      <trkpt lat="36.9137730" lon="-3.4998230">
        <ele>640.2</ele>
        <time>2020-07-12T06:48:27Z</time>
      </trkpt>
      <trkpt lat="36.9138190" lon="-3.4997680">
        <ele>640.6</ele>
        <time>2020-07-12T06:48:28Z</time>
      </trkpt>
      <trkpt lat="36.9138700" lon="-3.4997150">
        <ele>640.6</ele>
        <time>2020-07-12T06:48:29Z</time>
      </trkpt>
      <trkpt lat="36.9140500" lon="-3.4996500">
        <ele>640.6</ele>
        <time>2020-07-12T06:48:32Z</time>
      </trkpt>
      <trkpt lat="36.9146260" lon="-3.4995800">
        <ele>639.4</ele>
        <time>2020-07-12T06:48:41Z</time>
      </trkpt>
      <trkpt lat="36.9150830" lon="-3.4994620">
        <ele>639.4</ele>
        <time>2020-07-12T06:48:48Z</time>
      </trkpt>
      <trkpt lat="36.9153800" lon="-3.4992710">
        <ele>639.4</ele>
        <time>2020-07-12T06:48:53Z</time>
      </trkpt>
      <trkpt lat="36.9157290" lon="-3.4989000">
        <ele>639.0</ele>
        <time>2020-07-12T06:49:00Z</time>
      </trkpt>
      <trkpt lat="36.9160750" lon="-3.4984480">
        <ele>639.4</ele>
        <time>2020-07-12T06:49:08Z</time>
      </trkpt>
      <trkpt lat="36.9161030" lon="-3.4983780">
        <ele>639.4</ele>
        <time>2020-07-12T06:49:09Z</time>
      </trkpt>
      <trkpt lat="36.9160980" lon="-3.4981340">
        <ele>638.8</ele>
        <time>2020-07-12T06:49:12Z</time>
      </trkpt>
      <trkpt lat="36.9160660" lon="-3.4980630">
        <ele>638.6</ele>
        <time>2020-07-12T06:49:13Z</time>
      </trkpt>
      <trkpt lat="36.9159690" lon="-3.4979600">
        <ele>638.4</ele>
        <time>2020-07-12T06:49:15Z</time>
      </trkpt>
      <trkpt lat="36.9157820" lon="-3.4979110">
        <ele>638.4</ele>
        <time>2020-07-12T06:49:18Z</time>
      </trkpt>
      <trkpt lat="36.9157220" lon="-3.4979120">
        <ele>638.6</ele>
        <time>2020-07-12T06:49:19Z</time>
      </trkpt>
      <trkpt lat="36.9153670" lon="-3.4979400">
        <ele>639.0</ele>
        <time>2020-07-12T06:49:25Z</time>
      </trkpt>
      <trkpt lat="36.9150160" lon="-3.4978900">
        <ele>639.2</ele>
        <time>2020-07-12T06:49:31Z</time>
      </trkpt>
      <trkpt lat="36.9149140" lon="-3.4977300">
        <ele>639.4</ele>
        <time>2020-07-12T06:49:34Z</time>
      </trkpt>
      <trkpt lat="36.9148990" lon="-3.4976540">
        <ele>639.6</ele>
        <time>2020-07-12T06:49:35Z</time>
      </trkpt>
      <trkpt lat="36.9149080" lon="-3.4974940">
        <ele>639.8</ele>
        <time>2020-07-12T06:49:37Z</time>
      </trkpt>
      <trkpt lat="36.9149570" lon="-3.4973500">
        <ele>640.2</ele>
        <time>2020-07-12T06:49:39Z</time>
      </trkpt>
      <trkpt lat="36.9149930" lon="-3.4972900">
        <ele>640.0</ele>
        <time>2020-07-12T06:49:40Z</time>
      </trkpt>
      <trkpt lat="36.9152040" lon="-3.4971110">
        <ele>640.0</ele>
        <time>2020-07-12T06:49:44Z</time>
      </trkpt>
      <trkpt lat="36.9152610" lon="-3.4970860">
        <ele>640.0</ele>
        <time>2020-07-12T06:49:45Z</time>
      </trkpt>
      <trkpt lat="36.9155660" lon="-3.4970240">
        <ele>640.0</ele>
        <time>2020-07-12T06:49:50Z</time>
      </trkpt>
      <trkpt lat="36.9161500" lon="-3.4969500">
        <ele>640.2</ele>
        <time>2020-07-12T06:50:00Z</time>
      </trkpt>
      <trkpt lat="36.9163120" lon="-3.4968740">
        <ele>640.6</ele>
        <time>2020-07-12T06:50:03Z</time>
      </trkpt>
      <trkpt lat="36.9164030" lon="-3.4968040">
        <ele>640.6</ele>
        <time>2020-07-12T06:50:05Z</time>
      </trkpt>
      <trkpt lat="36.9164450" lon="-3.4967620">
        <ele>640.8</ele>
        <time>2020-07-12T06:50:06Z</time>
      </trkpt>
      <trkpt lat="36.9165510" lon="-3.4966440">
        <ele>641.6</ele>
        <time>2020-07-12T06:50:09Z</time>
      </trkpt>
      <trkpt lat="36.9166210" lon="-3.4965720">
        <ele>642.0</ele>
        <time>2020-07-12T06:50:11Z</time>
      </trkpt>
      <trkpt lat="36.9167270" lon="-3.4964740">
        <ele>643.2</ele>
        <time>2020-07-12T06:50:14Z</time>
      </trkpt>
      <trkpt lat="36.9168380" lon="-3.4963860">
        <ele>644.0</ele>
        <time>2020-07-12T06:50:17Z</time>
      </trkpt>
      <trkpt lat="36.9169190" lon="-3.4963360">
        <ele>644.4</ele>
        <time>2020-07-12T06:50:19Z</time>
      </trkpt>
      <trkpt lat="36.9169610" lon="-3.4963170">
        <ele>644.4</ele>
        <time>2020-07-12T06:50:20Z</time>
      </trkpt>
      <trkpt lat="36.9171800" lon="-3.4962100">
        <ele>645.4</ele>
        <time>2020-07-12T06:50:25Z</time>
      </trkpt>
      <trkpt lat="36.9172640" lon="-3.4961690">
        <ele>645.8</ele>
        <time>2020-07-12T06:50:27Z</time>
      </trkpt>
      <trkpt lat="36.9174200" lon="-3.4960970">
        <ele>646.6</ele>
        <time>2020-07-12T06:50:31Z</time>
      </trkpt>
      <trkpt lat="36.9175310" lon="-3.4960570">
        <ele>647.0</ele>
        <time>2020-07-12T06:50:34Z</time>
      </trkpt>
      <trkpt lat="36.9176500" lon="-3.4960320">
        <ele>647.6</ele>
        <time>2020-07-12T06:50:37Z</time>
      </trkpt>
      <trkpt lat="36.9177640" lon="-3.4960410">
        <ele>648.2</ele>
        <time>2020-07-12T06:50:40Z</time>
      </trkpt>
      <trkpt lat="36.9178460" lon="-3.4960670">
        <ele>648.6</ele>
        <time>2020-07-12T06:50:42Z</time>
      </trkpt>
      <trkpt lat="36.9180380" lon="-3.4961480">
        <ele>649.4</ele>
        <time>2020-07-12T06:50:47Z</time>
      </trkpt>
      <trkpt lat="36.9181500" lon="-3.4961900">
        <ele>649.8</ele>
        <time>2020-07-12T06:50:50Z</time>
      </trkpt>
      <trkpt lat="36.9183360" lon="-3.4962610">
        <ele>650.6</ele>
        <time>2020-07-12T06:50:55Z</time>
      </trkpt>
      <trkpt lat="36.9183730" lon="-3.4962710">
        <ele>650.8</ele>
        <time>2020-07-12T06:50:56Z</time>
      </trkpt>
      <trkpt lat="36.9185900" lon="-3.4962840">
        <ele>652.0</ele>
        <time>2020-07-12T06:51:02Z</time>
      </trkpt>
      <trkpt lat="36.9187120" lon="-3.4962320">
        <ele>652.8</ele>
        <time>2020-07-12T06:51:05Z</time>
      </trkpt>
      <trkpt lat="36.9187540" lon="-3.4961960">
        <ele>653.0</ele>
        <time>2020-07-12T06:51:06Z</time>
      </trkpt>
      <trkpt lat="36.9187900" lon="-3.4961560">
        <ele>653.2</ele>
        <time>2020-07-12T06:51:07Z</time>
      </trkpt>
      <trkpt lat="36.9188660" lon="-3.4960140">
        <ele>653.4</ele>
        <time>2020-07-12T06:51:10Z</time>
      </trkpt>
      <trkpt lat="36.9189020" lon="-3.4958950">
        <ele>653.6</ele>
        <time>2020-07-12T06:51:12Z</time>
      </trkpt>
      <trkpt lat="36.9189690" lon="-3.4956010">
        <ele>653.8</ele>
        <time>2020-07-12T06:51:17Z</time>
      </trkpt>
      <trkpt lat="36.9189950" lon="-3.4954850">
        <ele>653.8</ele>
        <time>2020-07-12T06:51:19Z</time>
      </trkpt>
      <trkpt lat="36.9190310" lon="-3.4953100">
        <ele>654.2</ele>
        <time>2020-07-12T06:51:22Z</time>
      </trkpt>
      <trkpt lat="36.9190800" lon="-3.4950700">
        <ele>654.6</ele>
        <time>2020-07-12T06:51:26Z</time>
      </trkpt>
      <trkpt lat="36.9191230" lon="-3.4948270">
        <ele>654.8</ele>
        <time>2020-07-12T06:51:30Z</time>
      </trkpt>
      <trkpt lat="36.9191940" lon="-3.4944560">
        <ele>655.0</ele>
        <time>2020-07-12T06:51:36Z</time>
      </trkpt>
      <trkpt lat="36.9192730" lon="-3.4940800">
        <ele>655.2</ele>
        <time>2020-07-12T06:51:42Z</time>
      </trkpt>
      <trkpt lat="36.9193100" lon="-3.4938920">
        <ele>655.4</ele>
        <time>2020-07-12T06:51:45Z</time>
      </trkpt>
      <trkpt lat="36.9193690" lon="-3.4935750">
        <ele>655.6</ele>
        <time>2020-07-12T06:51:50Z</time>
      </trkpt>
      <trkpt lat="36.9193840" lon="-3.4935090">
        <ele>655.6</ele>
        <time>2020-07-12T06:51:51Z</time>
      </trkpt>
      <trkpt lat="36.9194020" lon="-3.4934490">
        <ele>655.6</ele>
        <time>2020-07-12T06:51:52Z</time>
      </trkpt>
      <trkpt lat="36.9194760" lon="-3.4932600">
        <ele>655.6</ele>
        <time>2020-07-12T06:51:55Z</time>
      </trkpt>
      <trkpt lat="36.9195620" lon="-3.4931500">
        <ele>655.6</ele>
        <time>2020-07-12T06:51:57Z</time>
      </trkpt>
      <trkpt lat="36.9197410" lon="-3.4930760">
        <ele>655.4</ele>
        <time>2020-07-12T06:52:00Z</time>
      </trkpt>
      <trkpt lat="36.9198190" lon="-3.4930790">
        <ele>655.2</ele>
        <time>2020-07-12T06:52:01Z</time>
      </trkpt>
      <trkpt lat="36.9200430" lon="-3.4931410">
        <ele>654.4</ele>
        <time>2020-07-12T06:52:04Z</time>
      </trkpt>
      <trkpt lat="36.9201190" lon="-3.4931630">
        <ele>654.0</ele>
        <time>2020-07-12T06:52:05Z</time>
      </trkpt>
      <trkpt lat="36.9204060" lon="-3.4931910">
        <ele>652.6</ele>
        <time>2020-07-12T06:52:08Z</time>
      </trkpt>
      <trkpt lat="36.9205820" lon="-3.4931770">
        <ele>651.6</ele>
        <time>2020-07-12T06:52:10Z</time>
      </trkpt>
      <trkpt lat="36.9208730" lon="-3.4931280">
        <ele>650.2</ele>
        <time>2020-07-12T06:52:13Z</time>
      </trkpt>
      <trkpt lat="36.9210210" lon="-3.4930210">
        <ele>649.6</ele>
        <time>2020-07-12T06:52:15Z</time>
      </trkpt>
      <trkpt lat="36.9210850" lon="-3.4928330">
        <ele>649.0</ele>
        <time>2020-07-12T06:52:17Z</time>
      </trkpt>
      <trkpt lat="36.9210100" lon="-3.4925430">
        <ele>648.6</ele>
        <time>2020-07-12T06:52:20Z</time>
      </trkpt>
      <trkpt lat="36.9208920" lon="-3.4923710">
        <ele>648.2</ele>
        <time>2020-07-12T06:52:22Z</time>
      </trkpt>
      <trkpt lat="36.9208170" lon="-3.4922840">
        <ele>648.0</ele>
        <time>2020-07-12T06:52:23Z</time>
      </trkpt>
      <trkpt lat="36.9207390" lon="-3.4921960">
        <ele>647.6</ele>
        <time>2020-07-12T06:52:24Z</time>
      </trkpt>
      <trkpt lat="36.9205760" lon="-3.4920220">
        <ele>646.4</ele>
        <time>2020-07-12T06:52:26Z</time>
      </trkpt>
      <trkpt lat="36.9204290" lon="-3.4918700">
        <ele>645.0</ele>
        <time>2020-07-12T06:52:28Z</time>
      </trkpt>
      <trkpt lat="36.9203670" lon="-3.4917960">
        <ele>644.2</ele>
        <time>2020-07-12T06:52:29Z</time>
      </trkpt>
      <trkpt lat="36.9203130" lon="-3.4917260">
        <ele>643.6</ele>
        <time>2020-07-12T06:52:30Z</time>
      </trkpt>
      <trkpt lat="36.9202610" lon="-3.4916450">
        <ele>642.8</ele>
        <time>2020-07-12T06:52:31Z</time>
      </trkpt>
      <trkpt lat="36.9202120" lon="-3.4915590">
        <ele>641.8</ele>
        <time>2020-07-12T06:52:32Z</time>
      </trkpt>
      <trkpt lat="36.9201640" lon="-3.4914680">
        <ele>641.0</ele>
        <time>2020-07-12T06:52:33Z</time>
      </trkpt>
      <trkpt lat="36.9201230" lon="-3.4913860">
        <ele>640.4</ele>
        <time>2020-07-12T06:52:34Z</time>
      </trkpt>
      <trkpt lat="36.9199670" lon="-3.4910530">
        <ele>639.4</ele>
        <time>2020-07-12T06:52:38Z</time>
      </trkpt>
      <trkpt lat="36.9198930" lon="-3.4908900">
        <ele>639.2</ele>
        <time>2020-07-12T06:52:40Z</time>
      </trkpt>
      <trkpt lat="36.9197610" lon="-3.4906180">
        <ele>638.4</ele>
        <time>2020-07-12T06:52:43Z</time>
      </trkpt>
      <trkpt lat="36.9197150" lon="-3.4905390">
        <ele>638.2</ele>
        <time>2020-07-12T06:52:44Z</time>
      </trkpt>
      <trkpt lat="36.9195490" lon="-3.4903400">
        <ele>637.8</ele>
        <time>2020-07-12T06:52:47Z</time>
      </trkpt>
      <trkpt lat="36.9192220" lon="-3.4899660">
        <ele>637.0</ele>
        <time>2020-07-12T06:52:53Z</time>
      </trkpt>
      <trkpt lat="36.9191190" lon="-3.4898420">
        <ele>636.8</ele>
        <time>2020-07-12T06:52:55Z</time>
      </trkpt>
      <trkpt lat="36.9190680" lon="-3.4897730">
        <ele>636.6</ele>
        <time>2020-07-12T06:52:56Z</time>
      </trkpt>
      <trkpt lat="36.9190190" lon="-3.4897080">
        <ele>636.4</ele>
        <time>2020-07-12T06:52:57Z</time>
      </trkpt>
      <trkpt lat="36.9189310" lon="-3.4895900">
        <ele>636.2</ele>
        <time>2020-07-12T06:52:59Z</time>
      </trkpt>
      <trkpt lat="36.9188560" lon="-3.4894620">
        <ele>636.0</ele>
        <time>2020-07-12T06:53:01Z</time>
      </trkpt>
      <trkpt lat="36.9187600" lon="-3.4892800">
        <ele>636.0</ele>
        <time>2020-07-12T06:53:04Z</time>
      </trkpt>
      <trkpt lat="36.9187050" lon="-3.4891400">
        <ele>635.8</ele>
        <time>2020-07-12T06:53:06Z</time>
      </trkpt>
      <trkpt lat="36.9186890" lon="-3.4889980">
        <ele>635.4</ele>
        <time>2020-07-12T06:53:08Z</time>
      </trkpt>
      <trkpt lat="36.9186760" lon="-3.4889210">
        <ele>635.0</ele>
        <time>2020-07-12T06:53:09Z</time>
      </trkpt>
      <trkpt lat="36.9186610" lon="-3.4887690">
        <ele>634.6</ele>
        <time>2020-07-12T06:53:11Z</time>
      </trkpt>
      <trkpt lat="36.9186370" lon="-3.4886060">
        <ele>633.8</ele>
        <time>2020-07-12T06:53:13Z</time>
      </trkpt>
      <trkpt lat="36.9186210" lon="-3.4885350">
        <ele>633.4</ele>
        <time>2020-07-12T06:53:14Z</time>
      </trkpt>
      <trkpt lat="36.9185850" lon="-3.4884080">
        <ele>632.6</ele>
        <time>2020-07-12T06:53:16Z</time>
      </trkpt>
      <trkpt lat="36.9185670" lon="-3.4883500">
        <ele>632.2</ele>
        <time>2020-07-12T06:53:17Z</time>
      </trkpt>
      <trkpt lat="36.9184890" lon="-3.4882560">
        <ele>631.4</ele>
        <time>2020-07-12T06:53:19Z</time>
      </trkpt>
      <trkpt lat="36.9184350" lon="-3.4882350">
        <ele>631.2</ele>
        <time>2020-07-12T06:53:20Z</time>
      </trkpt>
      <trkpt lat="36.9183200" lon="-3.4882690">
        <ele>630.2</ele>
        <time>2020-07-12T06:53:22Z</time>
      </trkpt>
      <trkpt lat="36.9182090" lon="-3.4884590">
        <ele>629.2</ele>
        <time>2020-07-12T06:53:25Z</time>
      </trkpt>
      <trkpt lat="36.9181710" lon="-3.4885500">
        <ele>629.0</ele>
        <time>2020-07-12T06:53:26Z</time>
      </trkpt>
      <trkpt lat="36.9181310" lon="-3.4886440">
        <ele>628.4</ele>
        <time>2020-07-12T06:53:27Z</time>
      </trkpt>
      <trkpt lat="36.9180810" lon="-3.4887260">
        <ele>627.8</ele>
        <time>2020-07-12T06:53:28Z</time>
      </trkpt>
      <trkpt lat="36.9179360" lon="-3.4888580">
        <ele>626.8</ele>
        <time>2020-07-12T06:53:30Z</time>
      </trkpt>
      <trkpt lat="36.9178440" lon="-3.4888950">
        <ele>626.0</ele>
        <time>2020-07-12T06:53:31Z</time>
      </trkpt>
      <trkpt lat="36.9177490" lon="-3.4889030">
        <ele>625.2</ele>
        <time>2020-07-12T06:53:32Z</time>
      </trkpt>
      <trkpt lat="36.9175620" lon="-3.4888540">
        <ele>623.4</ele>
        <time>2020-07-12T06:53:34Z</time>
      </trkpt>
      <trkpt lat="36.9173500" lon="-3.4887380">
        <ele>621.4</ele>
        <time>2020-07-12T06:53:36Z</time>
      </trkpt>
      <trkpt lat="36.9171520" lon="-3.4885720">
        <ele>619.6</ele>
        <time>2020-07-12T06:53:38Z</time>
      </trkpt>
      <trkpt lat="36.9170620" lon="-3.4884640">
        <ele>618.4</ele>
        <time>2020-07-12T06:53:39Z</time>
      </trkpt>
      <trkpt lat="36.9169150" lon="-3.4882090">
        <ele>616.4</ele>
        <time>2020-07-12T06:53:41Z</time>
      </trkpt>
      <trkpt lat="36.9168550" lon="-3.4880660">
        <ele>615.2</ele>
        <time>2020-07-12T06:53:42Z</time>
      </trkpt>
      <trkpt lat="36.9168050" lon="-3.4879190">
        <ele>614.0</ele>
        <time>2020-07-12T06:53:43Z</time>
      </trkpt>
      <trkpt lat="36.9167610" lon="-3.4877730">
        <ele>613.0</ele>
        <time>2020-07-12T06:53:44Z</time>
      </trkpt>
      <trkpt lat="36.9167210" lon="-3.4876240">
        <ele>611.2</ele>
        <time>2020-07-12T06:53:45Z</time>
      </trkpt>
      <trkpt lat="36.9166830" lon="-3.4874730">
        <ele>610.0</ele>
        <time>2020-07-12T06:53:46Z</time>
      </trkpt>
      <trkpt lat="36.9166410" lon="-3.4873000">
        <ele>608.8</ele>
        <time>2020-07-12T06:53:47Z</time>
      </trkpt>
      <trkpt lat="36.9166000" lon="-3.4871310">
        <ele>607.6</ele>
        <time>2020-07-12T06:53:48Z</time>
      </trkpt>
      <trkpt lat="36.9165600" lon="-3.4869610">
        <ele>606.4</ele>
        <time>2020-07-12T06:53:49Z</time>
      </trkpt>
      <trkpt lat="36.9165200" lon="-3.4868010">
        <ele>605.0</ele>
        <time>2020-07-12T06:53:50Z</time>
      </trkpt>
      <trkpt lat="36.9164770" lon="-3.4866230">
        <ele>603.6</ele>
        <time>2020-07-12T06:53:51Z</time>
      </trkpt>
      <trkpt lat="36.9164410" lon="-3.4864670">
        <ele>602.2</ele>
        <time>2020-07-12T06:53:52Z</time>
      </trkpt>
      <trkpt lat="36.9164110" lon="-3.4863040">
        <ele>601.2</ele>
        <time>2020-07-12T06:53:53Z</time>
      </trkpt>
      <trkpt lat="36.9163890" lon="-3.4861520">
        <ele>600.2</ele>
        <time>2020-07-12T06:53:54Z</time>
      </trkpt>
      <trkpt lat="36.9163550" lon="-3.4856560">
        <ele>599.6</ele>
        <time>2020-07-12T06:53:58Z</time>
      </trkpt>
      <trkpt lat="36.9163580" lon="-3.4854490">
        <ele>600.6</ele>
        <time>2020-07-12T06:54:00Z</time>
      </trkpt>
      <trkpt lat="36.9163630" lon="-3.4853500">
        <ele>601.2</ele>
        <time>2020-07-12T06:54:01Z</time>
      </trkpt>
      <trkpt lat="36.9163750" lon="-3.4851700">
        <ele>602.2</ele>
        <time>2020-07-12T06:54:03Z</time>
      </trkpt>
      <trkpt lat="36.9163830" lon="-3.4850950">
        <ele>602.6</ele>
        <time>2020-07-12T06:54:04Z</time>
      </trkpt>
      <trkpt lat="36.9163970" lon="-3.4849410">
        <ele>603.4</ele>
        <time>2020-07-12T06:54:06Z</time>
      </trkpt>
      <trkpt lat="36.9164020" lon="-3.4848740">
        <ele>603.6</ele>
        <time>2020-07-12T06:54:07Z</time>
      </trkpt>
      <trkpt lat="36.9164080" lon="-3.4848090">
        <ele>604.0</ele>
        <time>2020-07-12T06:54:08Z</time>
      </trkpt>
      <trkpt lat="36.9164170" lon="-3.4847470">
        <ele>604.2</ele>
        <time>2020-07-12T06:54:09Z</time>
      </trkpt>
      <trkpt lat="36.9164450" lon="-3.4846330">
        <ele>605.0</ele>
        <time>2020-07-12T06:54:11Z</time>
      </trkpt>
      <trkpt lat="36.9164790" lon="-3.4845290">
        <ele>605.4</ele>
        <time>2020-07-12T06:54:13Z</time>
      </trkpt>
      <trkpt lat="36.9165050" lon="-3.4844320">
        <ele>606.0</ele>
        <time>2020-07-12T06:54:15Z</time>
      </trkpt>
      <trkpt lat="36.9165260" lon="-3.4843350">
        <ele>606.6</ele>
        <time>2020-07-12T06:54:17Z</time>
      </trkpt>
      <trkpt lat="36.9165380" lon="-3.4842870">
        <ele>607.0</ele>
        <time>2020-07-12T06:54:18Z</time>
      </trkpt>
      <trkpt lat="36.9165510" lon="-3.4842410">
        <ele>607.2</ele>
        <time>2020-07-12T06:54:19Z</time>
      </trkpt>
      <trkpt lat="36.9165770" lon="-3.4841470">
        <ele>607.8</ele>
        <time>2020-07-12T06:54:21Z</time>
      </trkpt>
      <trkpt lat="36.9165900" lon="-3.4841050">
        <ele>608.0</ele>
        <time>2020-07-12T06:54:22Z</time>
      </trkpt>
      <trkpt lat="36.9166150" lon="-3.4840130">
        <ele>608.4</ele>
        <time>2020-07-12T06:54:24Z</time>
      </trkpt>
      <trkpt lat="36.9166330" lon="-3.4838750">
        <ele>609.2</ele>
        <time>2020-07-12T06:54:27Z</time>
      </trkpt>
      <trkpt lat="36.9166440" lon="-3.4837850">
        <ele>609.8</ele>
        <time>2020-07-12T06:54:29Z</time>
      </trkpt>
      <trkpt lat="36.9166550" lon="-3.4836860">
        <ele>610.2</ele>
        <time>2020-07-12T06:54:31Z</time>
      </trkpt>
      <trkpt lat="36.9166610" lon="-3.4836360">
        <ele>610.4</ele>
        <time>2020-07-12T06:54:32Z</time>
      </trkpt>
      <trkpt lat="36.9166830" lon="-3.4834860">
        <ele>611.0</ele>
        <time>2020-07-12T06:54:35Z</time>
      </trkpt>
      <trkpt lat="36.9166950" lon="-3.4833750">
        <ele>611.4</ele>
        <time>2020-07-12T06:54:37Z</time>
      </trkpt>
      <trkpt lat="36.9167100" lon="-3.4832010">
        <ele>611.6</ele>
        <time>2020-07-12T06:54:40Z</time>
      </trkpt>
      <trkpt lat="36.9167150" lon="-3.4827390">
        <ele>611.0</ele>
        <time>2020-07-12T06:54:46Z</time>
      </trkpt>
      <trkpt lat="36.9167100" lon="-3.4823870">
        <ele>610.2</ele>
        <time>2020-07-12T06:54:50Z</time>
      </trkpt>
      <trkpt lat="36.9167260" lon="-3.4820490">
        <ele>609.8</ele>
        <time>2020-07-12T06:54:54Z</time>
      </trkpt>
      <trkpt lat="36.9167920" lon="-3.4816090">
        <ele>609.8</ele>
        <time>2020-07-12T06:55:00Z</time>
      </trkpt>
      <trkpt lat="36.9168050" lon="-3.4815380">
        <ele>610.0</ele>
        <time>2020-07-12T06:55:01Z</time>
      </trkpt>
      <trkpt lat="36.9168560" lon="-3.4813360">
        <ele>610.0</ele>
        <time>2020-07-12T06:55:04Z</time>
      </trkpt>
      <trkpt lat="36.9168980" lon="-3.4811990">
        <ele>610.2</ele>
        <time>2020-07-12T06:55:06Z</time>
      </trkpt>
      <trkpt lat="36.9169390" lon="-3.4810640">
        <ele>610.4</ele>
        <time>2020-07-12T06:55:08Z</time>
      </trkpt>
      <trkpt lat="36.9169530" lon="-3.4809970">
        <ele>610.4</ele>
        <time>2020-07-12T06:55:09Z</time>
      </trkpt>
      <trkpt lat="36.9169930" lon="-3.4807960">
        <ele>610.6</ele>
        <time>2020-07-12T06:55:12Z</time>
      </trkpt>
      <trkpt lat="36.9170660" lon="-3.4805260">
        <ele>611.0</ele>
        <time>2020-07-12T06:55:16Z</time>
      </trkpt>
      <trkpt lat="36.9170870" lon="-3.4804560">
        <ele>611.2</ele>
        <time>2020-07-12T06:55:17Z</time>
      </trkpt>
      <trkpt lat="36.9171980" lon="-3.4800500">
        <ele>611.6</ele>
        <time>2020-07-12T06:55:23Z</time>
      </trkpt>
      <trkpt lat="36.9173130" lon="-3.4796640">
        <ele>612.0</ele>
        <time>2020-07-12T06:55:29Z</time>
      </trkpt>
      <trkpt lat="36.9173630" lon="-3.4795360">
        <ele>612.2</ele>
        <time>2020-07-12T06:55:31Z</time>
      </trkpt>
      <trkpt lat="36.9174160" lon="-3.4794090">
        <ele>612.4</ele>
        <time>2020-07-12T06:55:33Z</time>
      </trkpt>
      <trkpt lat="36.9175340" lon="-3.4791650">
        <ele>613.0</ele>
        <time>2020-07-12T06:55:37Z</time>
      </trkpt>
      <trkpt lat="36.9176540" lon="-3.4789420">
        <ele>613.4</ele>
        <time>2020-07-12T06:55:41Z</time>
      </trkpt>
      <trkpt lat="36.9177410" lon="-3.4787960">
        <ele>614.0</ele>
        <time>2020-07-12T06:55:44Z</time>
      </trkpt>
      <trkpt lat="36.9177930" lon="-3.4787070">
        <ele>614.4</ele>
        <time>2020-07-12T06:55:46Z</time>
      </trkpt>
      <trkpt lat="36.9178830" lon="-3.4785530">
        <ele>615.6</ele>
        <time>2020-07-12T06:55:50Z</time>
      </trkpt>
      <trkpt lat="36.9179450" lon="-3.4784510">
        <ele>616.8</ele>
        <time>2020-07-12T06:55:53Z</time>
      </trkpt>
      <trkpt lat="36.9180040" lon="-3.4783540">
        <ele>617.8</ele>
        <time>2020-07-12T06:55:56Z</time>
      </trkpt>
      <trkpt lat="36.9180650" lon="-3.4782560">
        <ele>618.6</ele>
        <time>2020-07-12T06:55:59Z</time>
      </trkpt>
      <trkpt lat="36.9180890" lon="-3.4782230">
        <ele>618.8</ele>
        <time>2020-07-12T06:56:00Z</time>
      </trkpt>
      <trkpt lat="36.9181740" lon="-3.4780720">
        <ele>619.6</ele>
        <time>2020-07-12T06:56:04Z</time>
      </trkpt>
      <trkpt lat="36.9182240" lon="-3.4779960">
        <ele>620.0</ele>
        <time>2020-07-12T06:56:06Z</time>
      </trkpt>
      <trkpt lat="36.9183440" lon="-3.4778130">
        <ele>620.6</ele>
        <time>2020-07-12T06:56:11Z</time>
      </trkpt>
      <trkpt lat="36.9183900" lon="-3.4777640">
        <ele>621.0</ele>
        <time>2020-07-12T06:56:13Z</time>
      </trkpt>
      <trkpt lat="36.9185570" lon="-3.4776190">
        <ele>621.8</ele>
        <time>2020-07-12T06:56:18Z</time>
      </trkpt>
      <trkpt lat="36.9185820" lon="-3.4775910">
        <ele>622.2</ele>
        <time>2020-07-12T06:56:19Z</time>
      </trkpt>
      <trkpt lat="36.9186650" lon="-3.4775000">
        <ele>623.4</ele>
        <time>2020-07-12T06:56:22Z</time>
      </trkpt>
      <trkpt lat="36.9186850" lon="-3.4774560">
        <ele>623.8</ele>
        <time>2020-07-12T06:56:23Z</time>
      </trkpt>
      <trkpt lat="36.9187200" lon="-3.4772920">
        <ele>624.4</ele>
        <time>2020-07-12T06:56:26Z</time>
      </trkpt>
      <trkpt lat="36.9187390" lon="-3.4771670">
        <ele>624.6</ele>
        <time>2020-07-12T06:56:28Z</time>
      </trkpt>
      <trkpt lat="36.9188280" lon="-3.4767260">
        <ele>623.6</ele>
        <time>2020-07-12T06:56:34Z</time>
      </trkpt>
      <trkpt lat="36.9188470" lon="-3.4766510">
        <ele>623.2</ele>
        <time>2020-07-12T06:56:35Z</time>
      </trkpt>
      <trkpt lat="36.9188850" lon="-3.4764830">
        <ele>622.6</ele>
        <time>2020-07-12T06:56:37Z</time>
      </trkpt>
      <trkpt lat="36.9189080" lon="-3.4763980">
        <ele>622.2</ele>
        <time>2020-07-12T06:56:38Z</time>
      </trkpt>
      <trkpt lat="36.9189380" lon="-3.4763130">
        <ele>622.0</ele>
        <time>2020-07-12T06:56:39Z</time>
      </trkpt>
      <trkpt lat="36.9190160" lon="-3.4761510">
        <ele>621.2</ele>
        <time>2020-07-12T06:56:41Z</time>
      </trkpt>
      <trkpt lat="36.9190700" lon="-3.4760660">
        <ele>621.0</ele>
        <time>2020-07-12T06:56:42Z</time>
      </trkpt>
      <trkpt lat="36.9191240" lon="-3.4759810">
        <ele>620.4</ele>
        <time>2020-07-12T06:56:43Z</time>
      </trkpt>
      <trkpt lat="36.9192370" lon="-3.4758060">
        <ele>619.4</ele>
        <time>2020-07-12T06:56:45Z</time>
      </trkpt>
      <trkpt lat="36.9192960" lon="-3.4757130">
        <ele>618.8</ele>
        <time>2020-07-12T06:56:46Z</time>
      </trkpt>
      <trkpt lat="36.9193610" lon="-3.4756170">
        <ele>618.2</ele>
        <time>2020-07-12T06:56:47Z</time>
      </trkpt>
      <trkpt lat="36.9194240" lon="-3.4755190">
        <ele>617.8</ele>
        <time>2020-07-12T06:56:48Z</time>
      </trkpt>
      <trkpt lat="36.9194780" lon="-3.4754280">
        <ele>617.4</ele>
        <time>2020-07-12T06:56:49Z</time>
      </trkpt>
      <trkpt lat="36.9195300" lon="-3.4753390">
        <ele>617.0</ele>
        <time>2020-07-12T06:56:50Z</time>
      </trkpt>
      <trkpt lat="36.9195870" lon="-3.4752430">
        <ele>616.6</ele>
        <time>2020-07-12T06:56:51Z</time>
      </trkpt>
      <trkpt lat="36.9196820" lon="-3.4750690">
        <ele>616.0</ele>
        <time>2020-07-12T06:56:53Z</time>
      </trkpt>
      <trkpt lat="36.9197270" lon="-3.4749810">
        <ele>616.0</ele>
        <time>2020-07-12T06:56:54Z</time>
      </trkpt>
      <trkpt lat="36.9197680" lon="-3.4748990">
        <ele>616.0</ele>
        <time>2020-07-12T06:56:55Z</time>
      </trkpt>
      <trkpt lat="36.9199340" lon="-3.4744780">
        <ele>616.2</ele>
        <time>2020-07-12T06:57:00Z</time>
      </trkpt>
      <trkpt lat="36.9201060" lon="-3.4740040">
        <ele>616.4</ele>
        <time>2020-07-12T06:57:06Z</time>
      </trkpt>
      <trkpt lat="36.9201970" lon="-3.4737730">
        <ele>616.6</ele>
        <time>2020-07-12T06:57:09Z</time>
      </trkpt>
      <trkpt lat="36.9202750" lon="-3.4735470">
        <ele>616.8</ele>
        <time>2020-07-12T06:57:12Z</time>
      </trkpt>
      <trkpt lat="36.9203300" lon="-3.4733980">
        <ele>617.0</ele>
        <time>2020-07-12T06:57:14Z</time>
      </trkpt>
      <trkpt lat="36.9204400" lon="-3.4731000">
        <ele>616.6</ele>
        <time>2020-07-12T06:57:18Z</time>
      </trkpt>
      <trkpt lat="36.9206840" lon="-3.4726470">
        <ele>616.4</ele>
        <time>2020-07-12T06:57:24Z</time>
      </trkpt>
      <trkpt lat="36.9208510" lon="-3.4724170">
        <ele>616.0</ele>
        <time>2020-07-12T06:57:27Z</time>
      </trkpt>
      <trkpt lat="36.9210070" lon="-3.4722080">
        <ele>615.4</ele>
        <time>2020-07-12T06:57:30Z</time>
      </trkpt>
      <trkpt lat="36.9212230" lon="-3.4718380">
        <ele>615.0</ele>
        <time>2020-07-12T06:57:35Z</time>
      </trkpt>
      <trkpt lat="36.9212540" lon="-3.4717620">
        <ele>615.0</ele>
        <time>2020-07-12T06:57:36Z</time>
      </trkpt>
      <trkpt lat="36.9213350" lon="-3.4714610">
        <ele>615.0</ele>
        <time>2020-07-12T06:57:40Z</time>
      </trkpt>
      <trkpt lat="36.9213330" lon="-3.4713870">
        <ele>615.0</ele>
        <time>2020-07-12T06:57:41Z</time>
      </trkpt>
      <trkpt lat="36.9213090" lon="-3.4711490">
        <ele>614.8</ele>
        <time>2020-07-12T06:57:44Z</time>
      </trkpt>
      <trkpt lat="36.9211580" lon="-3.4709320">
        <ele>614.2</ele>
        <time>2020-07-12T06:57:48Z</time>
      </trkpt>
      <trkpt lat="36.9210560" lon="-3.4708430">
        <ele>613.8</ele>
        <time>2020-07-12T06:57:50Z</time>
      </trkpt>
      <trkpt lat="36.9208860" lon="-3.4707170">
        <ele>613.4</ele>
        <time>2020-07-12T06:57:53Z</time>
      </trkpt>
      <trkpt lat="36.9206160" lon="-3.4706280">
        <ele>613.2</ele>
        <time>2020-07-12T06:57:57Z</time>
      </trkpt>
      <trkpt lat="36.9201580" lon="-3.4704150">
        <ele>613.2</ele>
        <time>2020-07-12T06:58:04Z</time>
      </trkpt>
      <trkpt lat="36.9200870" lon="-3.4703930">
        <ele>613.2</ele>
        <time>2020-07-12T06:58:05Z</time>
      </trkpt>
      <trkpt lat="36.9200210" lon="-3.4703850">
        <ele>613.2</ele>
        <time>2020-07-12T06:58:06Z</time>
      </trkpt>
      <trkpt lat="36.9197910" lon="-3.4703810">
        <ele>613.2</ele>
        <time>2020-07-12T06:58:09Z</time>
      </trkpt>
      <trkpt lat="36.9196590" lon="-3.4703950">
        <ele>613.4</ele>
        <time>2020-07-12T06:58:11Z</time>
      </trkpt>
      <trkpt lat="36.9195190" lon="-3.4704090">
        <ele>613.8</ele>
        <time>2020-07-12T06:58:13Z</time>
      </trkpt>
      <trkpt lat="36.9193850" lon="-3.4704350">
        <ele>614.4</ele>
        <time>2020-07-12T06:58:15Z</time>
      </trkpt>
      <trkpt lat="36.9191940" lon="-3.4704530">
        <ele>615.0</ele>
        <time>2020-07-12T06:58:18Z</time>
      </trkpt>
      <trkpt lat="36.9190190" lon="-3.4704520">
        <ele>615.6</ele>
        <time>2020-07-12T06:58:21Z</time>
      </trkpt>
      <trkpt lat="36.9189600" lon="-3.4704410">
        <ele>615.8</ele>
        <time>2020-07-12T06:58:22Z</time>
      </trkpt>
      <trkpt lat="36.9189070" lon="-3.4704270">
        <ele>616.2</ele>
        <time>2020-07-12T06:58:23Z</time>
      </trkpt>
      <trkpt lat="36.9187320" lon="-3.4703840">
        <ele>617.2</ele>
        <time>2020-07-12T06:58:26Z</time>
      </trkpt>
      <trkpt lat="36.9186630" lon="-3.4703790">
        <ele>617.4</ele>
        <time>2020-07-12T06:58:27Z</time>
      </trkpt>
      <trkpt lat="36.9184760" lon="-3.4704550">
        <ele>617.6</ele>
        <time>2020-07-12T06:58:30Z</time>
      </trkpt>
      <trkpt lat="36.9184240" lon="-3.4704890">
        <ele>617.8</ele>
        <time>2020-07-12T06:58:31Z</time>
      </trkpt>
      <trkpt lat="36.9182450" lon="-3.4705720">
        <ele>618.2</ele>
        <time>2020-07-12T06:58:34Z</time>
      </trkpt>
      <trkpt lat="36.9181220" lon="-3.4705790">
        <ele>618.4</ele>
        <time>2020-07-12T06:58:36Z</time>
      </trkpt>
      <trkpt lat="36.9180550" lon="-3.4705780">
        <ele>618.4</ele>
        <time>2020-07-12T06:58:37Z</time>
      </trkpt>
      <trkpt lat="36.9176140" lon="-3.4705890">
        <ele>618.8</ele>
        <time>2020-07-12T06:58:44Z</time>
      </trkpt>
      <trkpt lat="36.9174260" lon="-3.4707680">
        <ele>619.0</ele>
        <time>2020-07-12T06:58:48Z</time>
      </trkpt>
      <trkpt lat="36.9173850" lon="-3.4709090">
        <ele>619.2</ele>
        <time>2020-07-12T06:58:50Z</time>
      </trkpt>
      <trkpt lat="36.9173200" lon="-3.4711230">
        <ele>619.4</ele>
        <time>2020-07-12T06:58:53Z</time>
      </trkpt>
      <trkpt lat="36.9172870" lon="-3.4711970">
        <ele>619.6</ele>
        <time>2020-07-12T06:58:54Z</time>
      </trkpt>
      <trkpt lat="36.9171500" lon="-3.4713830">
        <ele>619.4</ele>
        <time>2020-07-12T06:58:57Z</time>
      </trkpt>
      <trkpt lat="36.9169650" lon="-3.4714970">
        <ele>619.4</ele>
        <time>2020-07-12T06:59:00Z</time>
      </trkpt>
      <trkpt lat="36.9169050" lon="-3.4715310">
        <ele>619.4</ele>
        <time>2020-07-12T06:59:01Z</time>
      </trkpt>
      <trkpt lat="36.9165350" lon="-3.4717960">
        <ele>619.2</ele>
        <time>2020-07-12T06:59:07Z</time>
      </trkpt>
      <trkpt lat="36.9163360" lon="-3.4720340">
        <ele>619.4</ele>
        <time>2020-07-12T06:59:11Z</time>
      </trkpt>
      <trkpt lat="36.9162860" lon="-3.4721110">
        <ele>619.4</ele>
        <time>2020-07-12T06:59:12Z</time>
      </trkpt>
      <trkpt lat="36.9159470" lon="-3.4725830">
        <ele>619.6</ele>
        <time>2020-07-12T06:59:19Z</time>
      </trkpt>
      <trkpt lat="36.9156820" lon="-3.4727870">
        <ele>618.8</ele>
        <time>2020-07-12T06:59:23Z</time>
      </trkpt>
      <trkpt lat="36.9155450" lon="-3.4729020">
        <ele>618.6</ele>
        <time>2020-07-12T06:59:25Z</time>
      </trkpt>
      <trkpt lat="36.9154930" lon="-3.4729600">
        <ele>618.6</ele>
        <time>2020-07-12T06:59:26Z</time>
      </trkpt>
      <trkpt lat="36.9153400" lon="-3.4731710">
        <ele>618.4</ele>
        <time>2020-07-12T06:59:29Z</time>
      </trkpt>
      <trkpt lat="36.9153030" lon="-3.4732530">
        <ele>618.4</ele>
        <time>2020-07-12T06:59:30Z</time>
      </trkpt>
      <trkpt lat="36.9151490" lon="-3.4735700">
        <ele>618.8</ele>
        <time>2020-07-12T06:59:34Z</time>
      </trkpt>
      <trkpt lat="36.9148950" lon="-3.4738880">
        <ele>619.6</ele>
        <time>2020-07-12T06:59:39Z</time>
      </trkpt>
      <trkpt lat="36.9144450" lon="-3.4743250">
        <ele>620.2</ele>
        <time>2020-07-12T06:59:47Z</time>
      </trkpt>
      <trkpt lat="36.9143230" lon="-3.4744190">
        <ele>620.4</ele>
        <time>2020-07-12T06:59:49Z</time>
      </trkpt>
      <trkpt lat="36.9140790" lon="-3.4745860">
        <ele>620.6</ele>
        <time>2020-07-12T06:59:53Z</time>
      </trkpt>
      <trkpt lat="36.9137630" lon="-3.4747790">
        <ele>620.8</ele>
        <time>2020-07-12T06:59:58Z</time>
      </trkpt>
      <trkpt lat="36.9132460" lon="-3.4750800">
        <ele>621.0</ele>
        <time>2020-07-12T07:00:06Z</time>
      </trkpt>
      <trkpt lat="36.9131170" lon="-3.4751510">
        <ele>621.2</ele>
        <time>2020-07-12T07:00:08Z</time>
      </trkpt>
      <trkpt lat="36.9127500" lon="-3.4754340">
        <ele>621.2</ele>
        <time>2020-07-12T07:00:14Z</time>
      </trkpt>
      <trkpt lat="36.9126330" lon="-3.4756760">
        <ele>620.8</ele>
        <time>2020-07-12T07:00:17Z</time>
      </trkpt>
      <trkpt lat="36.9126190" lon="-3.4758870">
        <ele>620.4</ele>
        <time>2020-07-12T07:00:19Z</time>
      </trkpt>
      <trkpt lat="36.9126290" lon="-3.4759890">
        <ele>620.0</ele>
        <time>2020-07-12T07:00:20Z</time>
      </trkpt>
      <trkpt lat="36.9126360" lon="-3.4760910">
        <ele>619.6</ele>
        <time>2020-07-12T07:00:21Z</time>
      </trkpt>
      <trkpt lat="36.9126250" lon="-3.4762040">
        <ele>619.2</ele>
        <time>2020-07-12T07:00:22Z</time>
      </trkpt>
      <trkpt lat="36.9125310" lon="-3.4763760">
        <ele>618.0</ele>
        <time>2020-07-12T07:00:24Z</time>
      </trkpt>
      <trkpt lat="36.9123910" lon="-3.4764570">
        <ele>617.2</ele>
        <time>2020-07-12T07:00:26Z</time>
      </trkpt>
      <trkpt lat="36.9123010" lon="-3.4764780">
        <ele>617.0</ele>
        <time>2020-07-12T07:00:27Z</time>
      </trkpt>
      <trkpt lat="36.9120480" lon="-3.4764010">
        <ele>616.0</ele>
        <time>2020-07-12T07:00:30Z</time>
      </trkpt>
      <trkpt lat="36.9119700" lon="-3.4763530">
        <ele>615.8</ele>
        <time>2020-07-12T07:00:31Z</time>
      </trkpt>
      <trkpt lat="36.9118830" lon="-3.4762990">
        <ele>615.4</ele>
        <time>2020-07-12T07:00:32Z</time>
      </trkpt>
      <trkpt lat="36.9116360" lon="-3.4761470">
        <ele>614.4</ele>
        <time>2020-07-12T07:00:35Z</time>
      </trkpt>
      <trkpt lat="36.9114760" lon="-3.4760400">
        <ele>613.8</ele>
        <time>2020-07-12T07:00:37Z</time>
      </trkpt>
      <trkpt lat="36.9114120" lon="-3.4759640">
        <ele>613.6</ele>
        <time>2020-07-12T07:00:38Z</time>
      </trkpt>
      <trkpt lat="36.9113730" lon="-3.4758630">
        <ele>613.0</ele>
        <time>2020-07-12T07:00:39Z</time>
      </trkpt>
      <trkpt lat="36.9113630" lon="-3.4757500">
        <ele>612.6</ele>
        <time>2020-07-12T07:00:40Z</time>
      </trkpt>
      <trkpt lat="36.9113670" lon="-3.4756490">
        <ele>612.4</ele>
        <time>2020-07-12T07:00:41Z</time>
      </trkpt>
      <trkpt lat="36.9113930" lon="-3.4753950">
        <ele>612.0</ele>
        <time>2020-07-12T07:00:43Z</time>
      </trkpt>
      <trkpt lat="36.9114100" lon="-3.4751630">
        <ele>611.4</ele>
        <time>2020-07-12T07:00:45Z</time>
      </trkpt>
      <trkpt lat="36.9114170" lon="-3.4750580">
        <ele>611.0</ele>
        <time>2020-07-12T07:00:46Z</time>
      </trkpt>
      <trkpt lat="36.9114300" lon="-3.4748300">
        <ele>609.6</ele>
        <time>2020-07-12T07:00:48Z</time>
      </trkpt>
      <trkpt lat="36.9114180" lon="-3.4747180">
        <ele>609.0</ele>
        <time>2020-07-12T07:00:49Z</time>
      </trkpt>
      <trkpt lat="36.9113780" lon="-3.4746120">
        <ele>608.4</ele>
        <time>2020-07-12T07:00:50Z</time>
      </trkpt>
      <trkpt lat="36.9112100" lon="-3.4743250">
        <ele>607.2</ele>
        <time>2020-07-12T07:00:53Z</time>
      </trkpt>
      <trkpt lat="36.9111790" lon="-3.4740790">
        <ele>606.8</ele>
        <time>2020-07-12T07:00:55Z</time>
      </trkpt>
      <trkpt lat="36.9111680" lon="-3.4739700">
        <ele>606.4</ele>
        <time>2020-07-12T07:00:56Z</time>
      </trkpt>
      <trkpt lat="36.9111420" lon="-3.4738380">
        <ele>606.0</ele>
        <time>2020-07-12T07:00:57Z</time>
      </trkpt>
      <trkpt lat="36.9110330" lon="-3.4736370">
        <ele>604.6</ele>
        <time>2020-07-12T07:00:59Z</time>
      </trkpt>
      <trkpt lat="36.9109470" lon="-3.4734110">
        <ele>603.8</ele>
        <time>2020-07-12T07:01:01Z</time>
      </trkpt>
      <trkpt lat="36.9109080" lon="-3.4732890">
        <ele>603.4</ele>
        <time>2020-07-12T07:01:02Z</time>
      </trkpt>
      <trkpt lat="36.9108550" lon="-3.4731790">
        <ele>603.0</ele>
        <time>2020-07-12T07:01:03Z</time>
      </trkpt>
      <trkpt lat="36.9106890" lon="-3.4730350">
        <ele>602.4</ele>
        <time>2020-07-12T07:01:05Z</time>
      </trkpt>
      <trkpt lat="36.9104910" lon="-3.4729650">
        <ele>601.0</ele>
        <time>2020-07-12T07:01:07Z</time>
      </trkpt>
      <trkpt lat="36.9103740" lon="-3.4728930">
        <ele>600.6</ele>
        <time>2020-07-12T07:01:08Z</time>
      </trkpt>
      <trkpt lat="36.9102920" lon="-3.4728030">
        <ele>599.8</ele>
        <time>2020-07-12T07:01:09Z</time>
      </trkpt>
      <trkpt lat="36.9102290" lon="-3.4727000">
        <ele>599.4</ele>
        <time>2020-07-12T07:01:10Z</time>
      </trkpt>
      <trkpt lat="36.9101650" lon="-3.4724340">
        <ele>598.6</ele>
        <time>2020-07-12T07:01:12Z</time>
      </trkpt>
      <trkpt lat="36.9101970" lon="-3.4720330">
        <ele>597.0</ele>
        <time>2020-07-12T07:01:15Z</time>
      </trkpt>
      <trkpt lat="36.9103480" lon="-3.4717050">
        <ele>596.2</ele>
        <time>2020-07-12T07:01:18Z</time>
      </trkpt>
      <trkpt lat="36.9104060" lon="-3.4716080">
        <ele>596.0</ele>
        <time>2020-07-12T07:01:19Z</time>
      </trkpt>
      <trkpt lat="36.9106020" lon="-3.4712420">
        <ele>595.4</ele>
        <time>2020-07-12T07:01:23Z</time>
      </trkpt>
      <trkpt lat="36.9106220" lon="-3.4711310">
        <ele>595.2</ele>
        <time>2020-07-12T07:01:24Z</time>
      </trkpt>
      <trkpt lat="36.9106140" lon="-3.4710250">
        <ele>595.0</ele>
        <time>2020-07-12T07:01:25Z</time>
      </trkpt>
      <trkpt lat="36.9105300" lon="-3.4708450">
        <ele>594.6</ele>
        <time>2020-07-12T07:01:27Z</time>
      </trkpt>
      <trkpt lat="36.9103790" lon="-3.4707660">
        <ele>594.0</ele>
        <time>2020-07-12T07:01:29Z</time>
      </trkpt>
      <trkpt lat="36.9102880" lon="-3.4707510">
        <ele>593.8</ele>
        <time>2020-07-12T07:01:30Z</time>
      </trkpt>
      <trkpt lat="36.9101120" lon="-3.4707920">
        <ele>593.8</ele>
        <time>2020-07-12T07:01:32Z</time>
      </trkpt>
      <trkpt lat="36.9099550" lon="-3.4708880">
        <ele>593.6</ele>
        <time>2020-07-12T07:01:34Z</time>
      </trkpt>
      <trkpt lat="36.9098780" lon="-3.4709350">
        <ele>593.6</ele>
        <time>2020-07-12T07:01:35Z</time>
      </trkpt>
      <trkpt lat="36.9097980" lon="-3.4709810">
        <ele>593.4</ele>
        <time>2020-07-12T07:01:36Z</time>
      </trkpt>
      <trkpt lat="36.9095460" lon="-3.4711040">
        <ele>593.0</ele>
        <time>2020-07-12T07:01:39Z</time>
      </trkpt>
      <trkpt lat="36.9094590" lon="-3.4710920">
        <ele>592.8</ele>
        <time>2020-07-12T07:01:40Z</time>
      </trkpt>
      <trkpt lat="36.9093930" lon="-3.4710370">
        <ele>592.8</ele>
        <time>2020-07-12T07:01:41Z</time>
      </trkpt>
      <trkpt lat="36.9093340" lon="-3.4708340">
        <ele>592.8</ele>
        <time>2020-07-12T07:01:43Z</time>
      </trkpt>
      <trkpt lat="36.9093800" lon="-3.4705210">
        <ele>592.4</ele>
        <time>2020-07-12T07:01:46Z</time>
      </trkpt>
      <trkpt lat="36.9094220" lon="-3.4702960">
        <ele>592.2</ele>
        <time>2020-07-12T07:01:48Z</time>
      </trkpt>
      <trkpt lat="36.9094650" lon="-3.4700750">
        <ele>591.8</ele>
        <time>2020-07-12T07:01:50Z</time>
      </trkpt>
      <trkpt lat="36.9094890" lon="-3.4697450">
        <ele>591.2</ele>
        <time>2020-07-12T07:01:53Z</time>
      </trkpt>
      <trkpt lat="36.9094200" lon="-3.4695340">
        <ele>590.8</ele>
        <time>2020-07-12T07:01:55Z</time>
      </trkpt>
      <trkpt lat="36.9093770" lon="-3.4694410">
        <ele>590.6</ele>
        <time>2020-07-12T07:01:56Z</time>
      </trkpt>
      <trkpt lat="36.9091850" lon="-3.4692050">
        <ele>590.0</ele>
        <time>2020-07-12T07:01:59Z</time>
      </trkpt>
      <trkpt lat="36.9090330" lon="-3.4690830">
        <ele>589.8</ele>
        <time>2020-07-12T07:02:01Z</time>
      </trkpt>
      <trkpt lat="36.9088800" lon="-3.4689510">
        <ele>589.8</ele>
        <time>2020-07-12T07:02:03Z</time>
      </trkpt>
      <trkpt lat="36.9088220" lon="-3.4688690">
        <ele>589.8</ele>
        <time>2020-07-12T07:02:04Z</time>
      </trkpt>
      <trkpt lat="36.9087220" lon="-3.4685560">
        <ele>589.8</ele>
        <time>2020-07-12T07:02:07Z</time>
      </trkpt>
      <trkpt lat="36.9087010" lon="-3.4684450">
        <ele>589.8</ele>
        <time>2020-07-12T07:02:08Z</time>
      </trkpt>
      <trkpt lat="36.9086060" lon="-3.4678690">
        <ele>589.0</ele>
        <time>2020-07-12T07:02:13Z</time>
      </trkpt>
      <trkpt lat="36.9086000" lon="-3.4677530">
        <ele>588.8</ele>
        <time>2020-07-12T07:02:14Z</time>
      </trkpt>
      <trkpt lat="36.9085780" lon="-3.4675400">
        <ele>588.4</ele>
        <time>2020-07-12T07:02:16Z</time>
      </trkpt>
      <trkpt lat="36.9085110" lon="-3.4673260">
        <ele>588.4</ele>
        <time>2020-07-12T07:02:18Z</time>
      </trkpt>
      <trkpt lat="36.9083120" lon="-3.4671410">
        <ele>588.2</ele>
        <time>2020-07-12T07:02:21Z</time>
      </trkpt>
      <trkpt lat="36.9081470" lon="-3.4671680">
        <ele>588.0</ele>
        <time>2020-07-12T07:02:23Z</time>
      </trkpt>
      <trkpt lat="36.9079910" lon="-3.4672380">
        <ele>588.2</ele>
        <time>2020-07-12T07:02:25Z</time>
      </trkpt>
      <trkpt lat="36.9078150" lon="-3.4673070">
        <ele>588.4</ele>
        <time>2020-07-12T07:02:27Z</time>
      </trkpt>
      <trkpt lat="36.9077410" lon="-3.4673350">
        <ele>588.6</ele>
        <time>2020-07-12T07:02:28Z</time>
      </trkpt>
      <trkpt lat="36.9076650" lon="-3.4673590">
        <ele>588.8</ele>
        <time>2020-07-12T07:02:29Z</time>
      </trkpt>
      <trkpt lat="36.9075190" lon="-3.4673760">
        <ele>589.2</ele>
        <time>2020-07-12T07:02:31Z</time>
      </trkpt>
      <trkpt lat="36.9074500" lon="-3.4673650">
        <ele>589.4</ele>
        <time>2020-07-12T07:02:32Z</time>
      </trkpt>
      <trkpt lat="36.9073270" lon="-3.4672980">
        <ele>589.8</ele>
        <time>2020-07-12T07:02:34Z</time>
      </trkpt>
      <trkpt lat="36.9072390" lon="-3.4671710">
        <ele>590.0</ele>
        <time>2020-07-12T07:02:36Z</time>
      </trkpt>
      <trkpt lat="36.9069660" lon="-3.4667550">
        <ele>590.8</ele>
        <time>2020-07-12T07:02:43Z</time>
      </trkpt>
      <trkpt lat="36.9068440" lon="-3.4665690">
        <ele>592.0</ele>
        <time>2020-07-12T07:02:47Z</time>
      </trkpt>
      <trkpt lat="36.9067470" lon="-3.4664260">
        <ele>592.6</ele>
        <time>2020-07-12T07:02:50Z</time>
      </trkpt>
      <trkpt lat="36.9066940" lon="-3.4663320">
        <ele>593.0</ele>
        <time>2020-07-12T07:02:52Z</time>
      </trkpt>
      <trkpt lat="36.9065920" lon="-3.4661490">
        <ele>594.0</ele>
        <time>2020-07-12T07:02:56Z</time>
      </trkpt>
      <trkpt lat="36.9065700" lon="-3.4660970">
        <ele>594.2</ele>
        <time>2020-07-12T07:02:57Z</time>
      </trkpt>
      <trkpt lat="36.9065580" lon="-3.4660440">
        <ele>594.6</ele>
        <time>2020-07-12T07:02:58Z</time>
      </trkpt>
      <trkpt lat="36.9065580" lon="-3.4659340">
        <ele>595.0</ele>
        <time>2020-07-12T07:03:00Z</time>
      </trkpt>
      <trkpt lat="36.9065910" lon="-3.4658320">
        <ele>595.6</ele>
        <time>2020-07-12T07:03:02Z</time>
      </trkpt>
      <trkpt lat="36.9066840" lon="-3.4657040">
        <ele>596.4</ele>
        <time>2020-07-12T07:03:05Z</time>
      </trkpt>
      <trkpt lat="36.9067140" lon="-3.4656600">
        <ele>596.4</ele>
        <time>2020-07-12T07:03:06Z</time>
      </trkpt>
      <trkpt lat="36.9068420" lon="-3.4654680">
        <ele>597.4</ele>
        <time>2020-07-12T07:03:10Z</time>
      </trkpt>
      <trkpt lat="36.9068870" lon="-3.4653540">
        <ele>597.6</ele>
        <time>2020-07-12T07:03:12Z</time>
      </trkpt>
      <trkpt lat="36.9069010" lon="-3.4652930">
        <ele>597.8</ele>
        <time>2020-07-12T07:03:13Z</time>
      </trkpt>
      <trkpt lat="36.9068860" lon="-3.4650550">
        <ele>597.8</ele>
        <time>2020-07-12T07:03:17Z</time>
      </trkpt>
      <trkpt lat="36.9068500" lon="-3.4649450">
        <ele>598.2</ele>
        <time>2020-07-12T07:03:19Z</time>
      </trkpt>
      <trkpt lat="36.9068210" lon="-3.4648410">
        <ele>598.4</ele>
        <time>2020-07-12T07:03:21Z</time>
      </trkpt>
      <trkpt lat="36.9068060" lon="-3.4647250">
        <ele>598.8</ele>
        <time>2020-07-12T07:03:23Z</time>
      </trkpt>
      <trkpt lat="36.9068240" lon="-3.4644800">
        <ele>599.6</ele>
        <time>2020-07-12T07:03:27Z</time>
      </trkpt>
      <trkpt lat="36.9068430" lon="-3.4643600">
        <ele>599.8</ele>
        <time>2020-07-12T07:03:29Z</time>
      </trkpt>
      <trkpt lat="36.9068970" lon="-3.4638740">
        <ele>600.6</ele>
        <time>2020-07-12T07:03:37Z</time>
      </trkpt>
      <trkpt lat="36.9069210" lon="-3.4636970">
        <ele>601.0</ele>
        <time>2020-07-12T07:03:40Z</time>
      </trkpt>
      <trkpt lat="36.9069830" lon="-3.4633010">
        <ele>601.8</ele>
        <time>2020-07-12T07:03:47Z</time>
      </trkpt>
      <trkpt lat="36.9070130" lon="-3.4631490">
        <ele>602.4</ele>
        <time>2020-07-12T07:03:50Z</time>
      </trkpt>
      <trkpt lat="36.9070320" lon="-3.4630530">
        <ele>602.8</ele>
        <time>2020-07-12T07:03:52Z</time>
      </trkpt>
      <trkpt lat="36.9070750" lon="-3.4628160">
        <ele>604.0</ele>
        <time>2020-07-12T07:03:57Z</time>
      </trkpt>
      <trkpt lat="36.9070380" lon="-3.4625820">
        <ele>605.2</ele>
        <time>2020-07-12T07:04:02Z</time>
      </trkpt>
      <trkpt lat="36.9069540" lon="-3.4623810">
        <ele>606.4</ele>
        <time>2020-07-12T07:04:07Z</time>
      </trkpt>
      <trkpt lat="36.9069370" lon="-3.4623280">
        <ele>606.6</ele>
        <time>2020-07-12T07:04:08Z</time>
      </trkpt>
      <trkpt lat="36.9069410" lon="-3.4621350">
        <ele>607.4</ele>
        <time>2020-07-12T07:04:12Z</time>
      </trkpt>
      <trkpt lat="36.9069650" lon="-3.4620930">
        <ele>607.8</ele>
        <time>2020-07-12T07:04:13Z</time>
      </trkpt>
      <trkpt lat="36.9070340" lon="-3.4620360">
        <ele>608.2</ele>
        <time>2020-07-12T07:04:15Z</time>
      </trkpt>
      <trkpt lat="36.9070700" lon="-3.4620220">
        <ele>608.6</ele>
        <time>2020-07-12T07:04:16Z</time>
      </trkpt>
      <trkpt lat="36.9071090" lon="-3.4620110">
        <ele>608.8</ele>
        <time>2020-07-12T07:04:17Z</time>
      </trkpt>
      <trkpt lat="36.9071940" lon="-3.4619930">
        <ele>609.4</ele>
        <time>2020-07-12T07:04:19Z</time>
      </trkpt>
      <trkpt lat="36.9072320" lon="-3.4619880">
        <ele>609.6</ele>
        <time>2020-07-12T07:04:20Z</time>
      </trkpt>
      <trkpt lat="36.9074120" lon="-3.4619730">
        <ele>610.4</ele>
        <time>2020-07-12T07:04:24Z</time>
      </trkpt>
      <trkpt lat="36.9074550" lon="-3.4619700">
        <ele>610.6</ele>
        <time>2020-07-12T07:04:25Z</time>
      </trkpt>
      <trkpt lat="36.9076620" lon="-3.4619320">
        <ele>611.8</ele>
        <time>2020-07-12T07:04:30Z</time>
      </trkpt>
      <trkpt lat="36.9076980" lon="-3.4619110">
        <ele>612.0</ele>
        <time>2020-07-12T07:04:31Z</time>
      </trkpt>
      <trkpt lat="36.9077680" lon="-3.4618490">
        <ele>612.4</ele>
        <time>2020-07-12T07:04:33Z</time>
      </trkpt>
      <trkpt lat="36.9078280" lon="-3.4617130">
        <ele>612.8</ele>
        <time>2020-07-12T07:04:36Z</time>
      </trkpt>
      <trkpt lat="36.9078380" lon="-3.4616590">
        <ele>613.2</ele>
        <time>2020-07-12T07:04:37Z</time>
      </trkpt>
      <trkpt lat="36.9078510" lon="-3.4615480">
        <ele>613.6</ele>
        <time>2020-07-12T07:04:39Z</time>
      </trkpt>
      <trkpt lat="36.9078550" lon="-3.4614430">
        <ele>614.0</ele>
        <time>2020-07-12T07:04:41Z</time>
      </trkpt>
      <trkpt lat="36.9078620" lon="-3.4613150">
        <ele>614.4</ele>
        <time>2020-07-12T07:04:43Z</time>
      </trkpt>
      <trkpt lat="36.9078920" lon="-3.4608790">
        <ele>615.0</ele>
        <time>2020-07-12T07:04:50Z</time>
      </trkpt>
      <trkpt lat="36.9079130" lon="-3.4607040">
        <ele>615.4</ele>
        <time>2020-07-12T07:04:53Z</time>
      </trkpt>
      <trkpt lat="36.9079760" lon="-3.4602490">
        <ele>616.0</ele>
        <time>2020-07-12T07:05:00Z</time>
      </trkpt>
      <trkpt lat="36.9079820" lon="-3.4601080">
        <ele>616.2</ele>
        <time>2020-07-12T07:05:02Z</time>
      </trkpt>
      <trkpt lat="36.9080120" lon="-3.4597360">
        <ele>616.0</ele>
        <time>2020-07-12T07:05:07Z</time>
      </trkpt>
      <trkpt lat="36.9080180" lon="-3.4596580">
        <ele>616.0</ele>
        <time>2020-07-12T07:05:08Z</time>
      </trkpt>
      <trkpt lat="36.9080340" lon="-3.4594310">
        <ele>615.8</ele>
        <time>2020-07-12T07:05:11Z</time>
      </trkpt>
      <trkpt lat="36.9080770" lon="-3.4591600">
        <ele>615.6</ele>
        <time>2020-07-12T07:05:14Z</time>
      </trkpt>
      <trkpt lat="36.9080960" lon="-3.4590680">
        <ele>615.6</ele>
        <time>2020-07-12T07:05:15Z</time>
      </trkpt>
      <trkpt lat="36.9081570" lon="-3.4588790">
        <ele>615.2</ele>
        <time>2020-07-12T07:05:17Z</time>
      </trkpt>
      <trkpt lat="36.9082040" lon="-3.4587770">
        <ele>615.0</ele>
        <time>2020-07-12T07:05:18Z</time>
      </trkpt>
      <trkpt lat="36.9082620" lon="-3.4586830">
        <ele>614.6</ele>
        <time>2020-07-12T07:05:19Z</time>
      </trkpt>
      <trkpt lat="36.9084150" lon="-3.4585450">
        <ele>613.4</ele>
        <time>2020-07-12T07:05:21Z</time>
      </trkpt>
      <trkpt lat="36.9085180" lon="-3.4584910">
        <ele>612.8</ele>
        <time>2020-07-12T07:05:22Z</time>
      </trkpt>
      <trkpt lat="36.9085910" lon="-3.4584210">
        <ele>612.2</ele>
        <time>2020-07-12T07:05:23Z</time>
      </trkpt>
      <trkpt lat="36.9086460" lon="-3.4583200">
        <ele>611.6</ele>
        <time>2020-07-12T07:05:24Z</time>
      </trkpt>
      <trkpt lat="36.9086630" lon="-3.4582010">
        <ele>610.8</ele>
        <time>2020-07-12T07:05:25Z</time>
      </trkpt>
      <trkpt lat="36.9085890" lon="-3.4579760">
        <ele>609.4</ele>
        <time>2020-07-12T07:05:27Z</time>
      </trkpt>
      <trkpt lat="36.9084660" lon="-3.4577950">
        <ele>608.0</ele>
        <time>2020-07-12T07:05:29Z</time>
      </trkpt>
      <trkpt lat="36.9084060" lon="-3.4576890">
        <ele>607.4</ele>
        <time>2020-07-12T07:05:30Z</time>
      </trkpt>
      <trkpt lat="36.9083640" lon="-3.4575840">
        <ele>606.8</ele>
        <time>2020-07-12T07:05:31Z</time>
      </trkpt>
      <trkpt lat="36.9083720" lon="-3.4573330">
        <ele>606.0</ele>
        <time>2020-07-12T07:05:33Z</time>
      </trkpt>
      <trkpt lat="36.9083910" lon="-3.4572190">
        <ele>605.6</ele>
        <time>2020-07-12T07:05:34Z</time>
      </trkpt>
      <trkpt lat="36.9084430" lon="-3.4571140">
        <ele>605.4</ele>
        <time>2020-07-12T07:05:35Z</time>
      </trkpt>
      <trkpt lat="36.9084620" lon="-3.4569890">
        <ele>605.2</ele>
        <time>2020-07-12T07:05:36Z</time>
      </trkpt>
      <trkpt lat="36.9084110" lon="-3.4567720">
        <ele>604.6</ele>
        <time>2020-07-12T07:05:38Z</time>
      </trkpt>
      <trkpt lat="36.9083120" lon="-3.4567230">
        <ele>604.2</ele>
        <time>2020-07-12T07:05:39Z</time>
      </trkpt>
      <trkpt lat="36.9082250" lon="-3.4566790">
        <ele>604.0</ele>
        <time>2020-07-12T07:05:40Z</time>
      </trkpt>
      <trkpt lat="36.9081220" lon="-3.4566590">
        <ele>603.6</ele>
        <time>2020-07-12T07:05:41Z</time>
      </trkpt>
      <trkpt lat="36.9080230" lon="-3.4566170">
        <ele>603.0</ele>
        <time>2020-07-12T07:05:42Z</time>
      </trkpt>
      <trkpt lat="36.9079290" lon="-3.4565570">
        <ele>602.6</ele>
        <time>2020-07-12T07:05:43Z</time>
      </trkpt>
      <trkpt lat="36.9077500" lon="-3.4564040">
        <ele>601.8</ele>
        <time>2020-07-12T07:05:45Z</time>
      </trkpt>
      <trkpt lat="36.9075690" lon="-3.4562250">
        <ele>600.6</ele>
        <time>2020-07-12T07:05:47Z</time>
      </trkpt>
      <trkpt lat="36.9073840" lon="-3.4560420">
        <ele>599.2</ele>
        <time>2020-07-12T07:05:49Z</time>
      </trkpt>
      <trkpt lat="36.9072080" lon="-3.4558590">
        <ele>598.2</ele>
        <time>2020-07-12T07:05:51Z</time>
      </trkpt>
      <trkpt lat="36.9069420" lon="-3.4555490">
        <ele>596.6</ele>
        <time>2020-07-12T07:05:54Z</time>
      </trkpt>
      <trkpt lat="36.9068770" lon="-3.4554400">
        <ele>596.2</ele>
        <time>2020-07-12T07:05:55Z</time>
      </trkpt>
      <trkpt lat="36.9068460" lon="-3.4553220">
        <ele>595.6</ele>
        <time>2020-07-12T07:05:56Z</time>
      </trkpt>
      <trkpt lat="36.9068450" lon="-3.4551740">
        <ele>594.8</ele>
        <time>2020-07-12T07:05:57Z</time>
      </trkpt>
      <trkpt lat="36.9068520" lon="-3.4550500">
        <ele>594.0</ele>
        <time>2020-07-12T07:05:58Z</time>
      </trkpt>
      <trkpt lat="36.9067630" lon="-3.4548280">
        <ele>592.6</ele>
        <time>2020-07-12T07:06:00Z</time>
      </trkpt>
      <trkpt lat="36.9065620" lon="-3.4547290">
        <ele>591.4</ele>
        <time>2020-07-12T07:06:02Z</time>
      </trkpt>
      <trkpt lat="36.9063460" lon="-3.4547160">
        <ele>589.8</ele>
        <time>2020-07-12T07:06:04Z</time>
      </trkpt>
      <trkpt lat="36.9062500" lon="-3.4546510">
        <ele>589.0</ele>
        <time>2020-07-12T07:06:05Z</time>
      </trkpt>
      <trkpt lat="36.9061640" lon="-3.4545600">
        <ele>588.6</ele>
        <time>2020-07-12T07:06:06Z</time>
      </trkpt>
      <trkpt lat="36.9059890" lon="-3.4543510">
        <ele>587.4</ele>
        <time>2020-07-12T07:06:08Z</time>
      </trkpt>
      <trkpt lat="36.9058520" lon="-3.4541140">
        <ele>585.8</ele>
        <time>2020-07-12T07:06:10Z</time>
      </trkpt>
      <trkpt lat="36.9058230" lon="-3.4539930">
        <ele>585.2</ele>
        <time>2020-07-12T07:06:11Z</time>
      </trkpt>
      <trkpt lat="36.9058110" lon="-3.4538220">
        <ele>584.4</ele>
        <time>2020-07-12T07:06:12Z</time>
      </trkpt>
      <trkpt lat="36.9058340" lon="-3.4536770">
        <ele>583.6</ele>
        <time>2020-07-12T07:06:13Z</time>
      </trkpt>
      <trkpt lat="36.9058740" lon="-3.4535330">
        <ele>582.8</ele>
        <time>2020-07-12T07:06:14Z</time>
      </trkpt>
      <trkpt lat="36.9059060" lon="-3.4533830">
        <ele>582.0</ele>
        <time>2020-07-12T07:06:15Z</time>
      </trkpt>
      <trkpt lat="36.9059110" lon="-3.4532390">
        <ele>581.4</ele>
        <time>2020-07-12T07:06:16Z</time>
      </trkpt>
      <trkpt lat="36.9058710" lon="-3.4529060">
        <ele>580.0</ele>
        <time>2020-07-12T07:06:18Z</time>
      </trkpt>
      <trkpt lat="36.9058440" lon="-3.4527580">
        <ele>579.4</ele>
        <time>2020-07-12T07:06:19Z</time>
      </trkpt>
      <trkpt lat="36.9058320" lon="-3.4526010">
        <ele>578.8</ele>
        <time>2020-07-12T07:06:20Z</time>
      </trkpt>
      <trkpt lat="36.9058610" lon="-3.4524580">
        <ele>578.2</ele>
        <time>2020-07-12T07:06:21Z</time>
      </trkpt>
      <trkpt lat="36.9059300" lon="-3.4523200">
        <ele>577.6</ele>
        <time>2020-07-12T07:06:22Z</time>
      </trkpt>
      <trkpt lat="36.9061200" lon="-3.4521340">
        <ele>576.6</ele>
        <time>2020-07-12T07:06:24Z</time>
      </trkpt>
      <trkpt lat="36.9062140" lon="-3.4520430">
        <ele>576.0</ele>
        <time>2020-07-12T07:06:25Z</time>
      </trkpt>
      <trkpt lat="36.9063940" lon="-3.4518570">
        <ele>575.6</ele>
        <time>2020-07-12T07:06:27Z</time>
      </trkpt>
      <trkpt lat="36.9066630" lon="-3.4515960">
        <ele>575.2</ele>
        <time>2020-07-12T07:06:30Z</time>
      </trkpt>
      <trkpt lat="36.9067420" lon="-3.4515200">
        <ele>575.0</ele>
        <time>2020-07-12T07:06:31Z</time>
      </trkpt>
      <trkpt lat="36.9069100" lon="-3.4513350">
        <ele>574.6</ele>
        <time>2020-07-12T07:06:33Z</time>
      </trkpt>
      <trkpt lat="36.9069700" lon="-3.4510890">
        <ele>574.4</ele>
        <time>2020-07-12T07:06:35Z</time>
      </trkpt>
      <trkpt lat="36.9069890" lon="-3.4508220">
        <ele>574.0</ele>
        <time>2020-07-12T07:06:37Z</time>
      </trkpt>
      <trkpt lat="36.9070370" lon="-3.4505540">
        <ele>573.6</ele>
        <time>2020-07-12T07:06:39Z</time>
      </trkpt>
      <trkpt lat="36.9070530" lon="-3.4502890">
        <ele>572.6</ele>
        <time>2020-07-12T07:06:41Z</time>
      </trkpt>
      <trkpt lat="36.9070170" lon="-3.4501390">
        <ele>572.0</ele>
        <time>2020-07-12T07:06:42Z</time>
      </trkpt>
      <trkpt lat="36.9069500" lon="-3.4500230">
        <ele>571.4</ele>
        <time>2020-07-12T07:06:43Z</time>
      </trkpt>
      <trkpt lat="36.9068700" lon="-3.4499190">
        <ele>570.8</ele>
        <time>2020-07-12T07:06:44Z</time>
      </trkpt>
      <trkpt lat="36.9067930" lon="-3.4498150">
        <ele>570.2</ele>
        <time>2020-07-12T07:06:45Z</time>
      </trkpt>
      <trkpt lat="36.9066390" lon="-3.4496200">
        <ele>569.4</ele>
        <time>2020-07-12T07:06:47Z</time>
      </trkpt>
      <trkpt lat="36.9065280" lon="-3.4495600">
        <ele>568.6</ele>
        <time>2020-07-12T07:06:48Z</time>
      </trkpt>
      <trkpt lat="36.9062970" lon="-3.4495440">
        <ele>567.4</ele>
        <time>2020-07-12T07:06:50Z</time>
      </trkpt>
      <trkpt lat="36.9061910" lon="-3.4495450">
        <ele>566.6</ele>
        <time>2020-07-12T07:06:51Z</time>
      </trkpt>
      <trkpt lat="36.9060810" lon="-3.4495210">
        <ele>566.0</ele>
        <time>2020-07-12T07:06:52Z</time>
      </trkpt>
      <trkpt lat="36.9060100" lon="-3.4494250">
        <ele>565.0</ele>
        <time>2020-07-12T07:06:53Z</time>
      </trkpt>
      <trkpt lat="36.9059290" lon="-3.4491890">
        <ele>563.4</ele>
        <time>2020-07-12T07:06:55Z</time>
      </trkpt>
      <trkpt lat="36.9059270" lon="-3.4490480">
        <ele>562.2</ele>
        <time>2020-07-12T07:06:56Z</time>
      </trkpt>
      <trkpt lat="36.9059080" lon="-3.4487670">
        <ele>560.8</ele>
        <time>2020-07-12T07:06:58Z</time>
      </trkpt>
      <trkpt lat="36.9058860" lon="-3.4484770">
        <ele>559.4</ele>
        <time>2020-07-12T07:07:00Z</time>
      </trkpt>
      <trkpt lat="36.9058810" lon="-3.4481680">
        <ele>558.2</ele>
        <time>2020-07-12T07:07:02Z</time>
      </trkpt>
      <trkpt lat="36.9058950" lon="-3.4480190">
        <ele>557.6</ele>
        <time>2020-07-12T07:07:03Z</time>
      </trkpt>
      <trkpt lat="36.9059220" lon="-3.4478540">
        <ele>557.0</ele>
        <time>2020-07-12T07:07:04Z</time>
      </trkpt>
      <trkpt lat="36.9060070" lon="-3.4475630">
        <ele>556.2</ele>
        <time>2020-07-12T07:07:06Z</time>
      </trkpt>
      <trkpt lat="36.9060550" lon="-3.4474290">
        <ele>555.6</ele>
        <time>2020-07-12T07:07:07Z</time>
      </trkpt>
      <trkpt lat="36.9061190" lon="-3.4472630">
        <ele>554.8</ele>
        <time>2020-07-12T07:07:08Z</time>
      </trkpt>
      <trkpt lat="36.9061650" lon="-3.4471350">
        <ele>554.0</ele>
        <time>2020-07-12T07:07:09Z</time>
      </trkpt>
      <trkpt lat="36.9062020" lon="-3.4470110">
        <ele>553.0</ele>
        <time>2020-07-12T07:07:10Z</time>
      </trkpt>
      <trkpt lat="36.9062060" lon="-3.4469190">
        <ele>552.4</ele>
        <time>2020-07-12T07:07:11Z</time>
      </trkpt>
      <trkpt lat="36.9061820" lon="-3.4468150">
        <ele>551.8</ele>
        <time>2020-07-12T07:07:12Z</time>
      </trkpt>
      <trkpt lat="36.9061220" lon="-3.4467530">
        <ele>551.0</ele>
        <time>2020-07-12T07:07:13Z</time>
      </trkpt>
      <trkpt lat="36.9060330" lon="-3.4467230">
        <ele>550.6</ele>
        <time>2020-07-12T07:07:14Z</time>
      </trkpt>
      <trkpt lat="36.9059420" lon="-3.4467480">
        <ele>549.8</ele>
        <time>2020-07-12T07:07:15Z</time>
      </trkpt>
      <trkpt lat="36.9058660" lon="-3.4468020">
        <ele>549.0</ele>
        <time>2020-07-12T07:07:16Z</time>
      </trkpt>
      <trkpt lat="36.9057840" lon="-3.4468660">
        <ele>548.4</ele>
        <time>2020-07-12T07:07:17Z</time>
      </trkpt>
      <trkpt lat="36.9056960" lon="-3.4469370">
        <ele>547.6</ele>
        <time>2020-07-12T07:07:18Z</time>
      </trkpt>
      <trkpt lat="36.9056080" lon="-3.4470010">
        <ele>547.0</ele>
        <time>2020-07-12T07:07:19Z</time>
      </trkpt>
      <trkpt lat="36.9055160" lon="-3.4470610">
        <ele>546.2</ele>
        <time>2020-07-12T07:07:20Z</time>
      </trkpt>
      <trkpt lat="36.9054300" lon="-3.4471190">
        <ele>545.8</ele>
        <time>2020-07-12T07:07:21Z</time>
      </trkpt>
      <trkpt lat="36.9052340" lon="-3.4472570">
        <ele>544.4</ele>
        <time>2020-07-12T07:07:23Z</time>
      </trkpt>
      <trkpt lat="36.9050260" lon="-3.4473930">
        <ele>543.0</ele>
        <time>2020-07-12T07:07:25Z</time>
      </trkpt>
      <trkpt lat="36.9049350" lon="-3.4474460">
        <ele>542.2</ele>
        <time>2020-07-12T07:07:26Z</time>
      </trkpt>
      <trkpt lat="36.9048200" lon="-3.4474860">
        <ele>541.6</ele>
        <time>2020-07-12T07:07:27Z</time>
      </trkpt>
      <trkpt lat="36.9047060" lon="-3.4474740">
        <ele>540.4</ele>
        <time>2020-07-12T07:07:28Z</time>
      </trkpt>
      <trkpt lat="36.9046080" lon="-3.4474150">
        <ele>539.8</ele>
        <time>2020-07-12T07:07:29Z</time>
      </trkpt>
      <trkpt lat="36.9045110" lon="-3.4473140">
        <ele>538.4</ele>
        <time>2020-07-12T07:07:30Z</time>
      </trkpt>
      <trkpt lat="36.9044470" lon="-3.4471940">
        <ele>537.4</ele>
        <time>2020-07-12T07:07:31Z</time>
      </trkpt>
      <trkpt lat="36.9044020" lon="-3.4470340">
        <ele>536.4</ele>
        <time>2020-07-12T07:07:32Z</time>
      </trkpt>
      <trkpt lat="36.9043930" lon="-3.4468730">
        <ele>535.4</ele>
        <time>2020-07-12T07:07:33Z</time>
      </trkpt>
      <trkpt lat="36.9044130" lon="-3.4467070">
        <ele>534.4</ele>
        <time>2020-07-12T07:07:34Z</time>
      </trkpt>
      <trkpt lat="36.9044600" lon="-3.4465580">
        <ele>533.0</ele>
        <time>2020-07-12T07:07:35Z</time>
      </trkpt>
      <trkpt lat="36.9045210" lon="-3.4464150">
        <ele>532.0</ele>
        <time>2020-07-12T07:07:36Z</time>
      </trkpt>
      <trkpt lat="36.9045920" lon="-3.4462720">
        <ele>530.8</ele>
        <time>2020-07-12T07:07:37Z</time>
      </trkpt>
      <trkpt lat="36.9046650" lon="-3.4461610">
        <ele>529.8</ele>
        <time>2020-07-12T07:07:38Z</time>
      </trkpt>
      <trkpt lat="36.9047590" lon="-3.4460790">
        <ele>528.8</ele>
        <time>2020-07-12T07:07:39Z</time>
      </trkpt>
      <trkpt lat="36.9048640" lon="-3.4460310">
        <ele>527.8</ele>
        <time>2020-07-12T07:07:40Z</time>
      </trkpt>
      <trkpt lat="36.9049490" lon="-3.4460030">
        <ele>526.8</ele>
        <time>2020-07-12T07:07:41Z</time>
      </trkpt>
      <trkpt lat="36.9050430" lon="-3.4459550">
        <ele>525.8</ele>
        <time>2020-07-12T07:07:42Z</time>
      </trkpt>
      <trkpt lat="36.9051050" lon="-3.4458820">
        <ele>524.8</ele>
        <time>2020-07-12T07:07:43Z</time>
      </trkpt>
      <trkpt lat="36.9051360" lon="-3.4456620">
        <ele>522.8</ele>
        <time>2020-07-12T07:07:45Z</time>
      </trkpt>
      <trkpt lat="36.9050900" lon="-3.4454460">
        <ele>521.6</ele>
        <time>2020-07-12T07:07:47Z</time>
      </trkpt>
      <trkpt lat="36.9050510" lon="-3.4453310">
        <ele>521.0</ele>
        <time>2020-07-12T07:07:48Z</time>
      </trkpt>
      <trkpt lat="36.9049210" lon="-3.4451520">
        <ele>520.2</ele>
        <time>2020-07-12T07:07:50Z</time>
      </trkpt>
      <trkpt lat="36.9048330" lon="-3.4451030">
        <ele>519.8</ele>
        <time>2020-07-12T07:07:51Z</time>
      </trkpt>
      <trkpt lat="36.9046400" lon="-3.4450500">
        <ele>519.0</ele>
        <time>2020-07-12T07:07:53Z</time>
      </trkpt>
      <trkpt lat="36.9045420" lon="-3.4450060">
        <ele>518.8</ele>
        <time>2020-07-12T07:07:54Z</time>
      </trkpt>
      <trkpt lat="36.9043410" lon="-3.4447380">
        <ele>518.0</ele>
        <time>2020-07-12T07:07:57Z</time>
      </trkpt>
      <trkpt lat="36.9041260" lon="-3.4444930">
        <ele>517.4</ele>
        <time>2020-07-12T07:08:00Z</time>
      </trkpt>
      <trkpt lat="36.9039270" lon="-3.4444360">
        <ele>516.8</ele>
        <time>2020-07-12T07:08:02Z</time>
      </trkpt>
      <trkpt lat="36.9038260" lon="-3.4444180">
        <ele>516.4</ele>
        <time>2020-07-12T07:08:03Z</time>
      </trkpt>
      <trkpt lat="36.9036330" lon="-3.4444120">
        <ele>515.6</ele>
        <time>2020-07-12T07:08:05Z</time>
      </trkpt>
      <trkpt lat="36.9034270" lon="-3.4444440">
        <ele>514.8</ele>
        <time>2020-07-12T07:08:07Z</time>
      </trkpt>
      <trkpt lat="36.9033300" lon="-3.4444660">
        <ele>514.6</ele>
        <time>2020-07-12T07:08:08Z</time>
      </trkpt>
      <trkpt lat="36.9032300" lon="-3.4444910">
        <ele>514.2</ele>
        <time>2020-07-12T07:08:09Z</time>
      </trkpt>
      <trkpt lat="36.9030380" lon="-3.4445380">
        <ele>513.8</ele>
        <time>2020-07-12T07:08:11Z</time>
      </trkpt>
      <trkpt lat="36.9029080" lon="-3.4445560">
        <ele>513.6</ele>
        <time>2020-07-12T07:08:12Z</time>
      </trkpt>
      <trkpt lat="36.9027940" lon="-3.4445540">
        <ele>513.6</ele>
        <time>2020-07-12T07:08:13Z</time>
      </trkpt>
      <trkpt lat="36.9025040" lon="-3.4444390">
        <ele>512.4</ele>
        <time>2020-07-12T07:08:16Z</time>
      </trkpt>
      <trkpt lat="36.9023350" lon="-3.4442520">
        <ele>511.2</ele>
        <time>2020-07-12T07:08:18Z</time>
      </trkpt>
      <trkpt lat="36.9022840" lon="-3.4441330">
        <ele>510.4</ele>
        <time>2020-07-12T07:08:19Z</time>
      </trkpt>
      <trkpt lat="36.9022560" lon="-3.4440200">
        <ele>510.0</ele>
        <time>2020-07-12T07:08:20Z</time>
      </trkpt>
      <trkpt lat="36.9022250" lon="-3.4437440">
        <ele>508.8</ele>
        <time>2020-07-12T07:08:22Z</time>
      </trkpt>
      <trkpt lat="36.9022190" lon="-3.4435900">
        <ele>508.4</ele>
        <time>2020-07-12T07:08:23Z</time>
      </trkpt>
      <trkpt lat="36.9022140" lon="-3.4434520">
        <ele>507.8</ele>
        <time>2020-07-12T07:08:24Z</time>
      </trkpt>
      <trkpt lat="36.9021930" lon="-3.4428000">
        <ele>506.8</ele>
        <time>2020-07-12T07:08:29Z</time>
      </trkpt>
      <trkpt lat="36.9021900" lon="-3.4426800">
        <ele>506.6</ele>
        <time>2020-07-12T07:08:30Z</time>
      </trkpt>
      <trkpt lat="36.9021740" lon="-3.4420580">
        <ele>506.8</ele>
        <time>2020-07-12T07:08:35Z</time>
      </trkpt>
      <trkpt lat="36.9021700" lon="-3.4415490">
        <ele>506.4</ele>
        <time>2020-07-12T07:08:39Z</time>
      </trkpt>
      <trkpt lat="36.9022210" lon="-3.4413030">
        <ele>506.0</ele>
        <time>2020-07-12T07:08:41Z</time>
      </trkpt>
      <trkpt lat="36.9022770" lon="-3.4411970">
        <ele>505.8</ele>
        <time>2020-07-12T07:08:42Z</time>
      </trkpt>
      <trkpt lat="36.9023490" lon="-3.4411040">
        <ele>505.6</ele>
        <time>2020-07-12T07:08:43Z</time>
      </trkpt>
      <trkpt lat="36.9025030" lon="-3.4409450">
        <ele>505.2</ele>
        <time>2020-07-12T07:08:45Z</time>
      </trkpt>
      <trkpt lat="36.9026840" lon="-3.4407650">
        <ele>504.4</ele>
        <time>2020-07-12T07:08:47Z</time>
      </trkpt>
      <trkpt lat="36.9029370" lon="-3.4405160">
        <ele>503.4</ele>
        <time>2020-07-12T07:08:50Z</time>
      </trkpt>
      <trkpt lat="36.9032780" lon="-3.4401810">
        <ele>502.4</ele>
        <time>2020-07-12T07:08:54Z</time>
      </trkpt>
      <trkpt lat="36.9033570" lon="-3.4401100">
        <ele>502.2</ele>
        <time>2020-07-12T07:08:55Z</time>
      </trkpt>
      <trkpt lat="36.9035260" lon="-3.4399670">
        <ele>502.0</ele>
        <time>2020-07-12T07:08:57Z</time>
      </trkpt>
      <trkpt lat="36.9037490" lon="-3.4397580">
        <ele>502.0</ele>
        <time>2020-07-12T07:09:00Z</time>
      </trkpt>
      <trkpt lat="36.9040560" lon="-3.4393380">
        <ele>501.2</ele>
        <time>2020-07-12T07:09:05Z</time>
      </trkpt>
      <trkpt lat="36.9041050" lon="-3.4392430">
        <ele>501.2</ele>
        <time>2020-07-12T07:09:06Z</time>
      </trkpt>
      <trkpt lat="36.9042280" lon="-3.4389630">
        <ele>501.0</ele>
        <time>2020-07-12T07:09:09Z</time>
      </trkpt>
      <trkpt lat="36.9042490" lon="-3.4388760">
        <ele>501.0</ele>
        <time>2020-07-12T07:09:10Z</time>
      </trkpt>
      <trkpt lat="36.9043030" lon="-3.4383640">
        <ele>500.2</ele>
        <time>2020-07-12T07:09:15Z</time>
      </trkpt>
      <trkpt lat="36.9044240" lon="-3.4380980">
        <ele>500.0</ele>
        <time>2020-07-12T07:09:18Z</time>
      </trkpt>
      <trkpt lat="36.9044700" lon="-3.4380150">
        <ele>500.0</ele>
        <time>2020-07-12T07:09:19Z</time>
      </trkpt>
      <trkpt lat="36.9046450" lon="-3.4376750">
        <ele>499.2</ele>
        <time>2020-07-12T07:09:23Z</time>
      </trkpt>
      <trkpt lat="36.9046720" lon="-3.4375790">
        <ele>499.2</ele>
        <time>2020-07-12T07:09:24Z</time>
      </trkpt>
      <trkpt lat="36.9046830" lon="-3.4374860">
        <ele>499.0</ele>
        <time>2020-07-12T07:09:25Z</time>
      </trkpt>
      <trkpt lat="36.9046530" lon="-3.4372780">
        <ele>498.8</ele>
        <time>2020-07-12T07:09:27Z</time>
      </trkpt>
      <trkpt lat="36.9045030" lon="-3.4370560">
        <ele>498.4</ele>
        <time>2020-07-12T07:09:30Z</time>
      </trkpt>
      <trkpt lat="36.9043650" lon="-3.4369550">
        <ele>497.8</ele>
        <time>2020-07-12T07:09:32Z</time>
      </trkpt>
      <trkpt lat="36.9042590" lon="-3.4368240">
        <ele>497.8</ele>
        <time>2020-07-12T07:09:34Z</time>
      </trkpt>
      <trkpt lat="36.9042250" lon="-3.4365360">
        <ele>497.4</ele>
        <time>2020-07-12T07:09:37Z</time>
      </trkpt>
      <trkpt lat="36.9042340" lon="-3.4364400">
        <ele>497.2</ele>
        <time>2020-07-12T07:09:38Z</time>
      </trkpt>
      <trkpt lat="36.9042570" lon="-3.4362630">
        <ele>496.8</ele>
        <time>2020-07-12T07:09:40Z</time>
      </trkpt>
      <trkpt lat="36.9042940" lon="-3.4359790">
        <ele>496.6</ele>
        <time>2020-07-12T07:09:43Z</time>
      </trkpt>
      <trkpt lat="36.9043140" lon="-3.4358880">
        <ele>496.6</ele>
        <time>2020-07-12T07:09:44Z</time>
      </trkpt>
      <trkpt lat="36.9043640" lon="-3.4357150">
        <ele>496.6</ele>
        <time>2020-07-12T07:09:46Z</time>
      </trkpt>
      <trkpt lat="36.9044740" lon="-3.4355720">
        <ele>496.4</ele>
        <time>2020-07-12T07:09:48Z</time>
      </trkpt>
      <trkpt lat="36.9046330" lon="-3.4355370">
        <ele>495.8</ele>
        <time>2020-07-12T07:09:50Z</time>
      </trkpt>
      <trkpt lat="36.9047340" lon="-3.4355490">
        <ele>495.6</ele>
        <time>2020-07-12T07:09:51Z</time>
      </trkpt>
      <trkpt lat="36.9049170" lon="-3.4355330">
        <ele>494.6</ele>
        <time>2020-07-12T07:09:53Z</time>
      </trkpt>
      <trkpt lat="36.9050400" lon="-3.4354190">
        <ele>493.4</ele>
        <time>2020-07-12T07:09:55Z</time>
      </trkpt>
      <trkpt lat="36.9050700" lon="-3.4352230">
        <ele>492.2</ele>
        <time>2020-07-12T07:09:57Z</time>
      </trkpt>
      <trkpt lat="36.9050670" lon="-3.4351290">
        <ele>491.6</ele>
        <time>2020-07-12T07:09:58Z</time>
      </trkpt>
      <trkpt lat="36.9050630" lon="-3.4350220">
        <ele>491.0</ele>
        <time>2020-07-12T07:09:59Z</time>
      </trkpt>
      <trkpt lat="36.9050510" lon="-3.4347300">
        <ele>489.8</ele>
        <time>2020-07-12T07:10:02Z</time>
      </trkpt>
      <trkpt lat="36.9050420" lon="-3.4344610">
        <ele>489.4</ele>
        <time>2020-07-12T07:10:05Z</time>
      </trkpt>
      <trkpt lat="36.9050250" lon="-3.4340880">
        <ele>489.0</ele>
        <time>2020-07-12T07:10:09Z</time>
      </trkpt>
      <trkpt lat="36.9050080" lon="-3.4337170">
        <ele>489.0</ele>
        <time>2020-07-12T07:10:13Z</time>
      </trkpt>
      <trkpt lat="36.9049980" lon="-3.4335350">
        <ele>488.8</ele>
        <time>2020-07-12T07:10:15Z</time>
      </trkpt>
      <trkpt lat="36.9049530" lon="-3.4329480">
        <ele>488.0</ele>
        <time>2020-07-12T07:10:21Z</time>
      </trkpt>
      <trkpt lat="36.9048170" lon="-3.4327130">
        <ele>488.0</ele>
        <time>2020-07-12T07:10:24Z</time>
      </trkpt>
      <trkpt lat="36.9046840" lon="-3.4326080">
        <ele>487.6</ele>
        <time>2020-07-12T07:10:26Z</time>
      </trkpt>
      <trkpt lat="36.9046090" lon="-3.4325690">
        <ele>487.4</ele>
        <time>2020-07-12T07:10:27Z</time>
      </trkpt>
      <trkpt lat="36.9045340" lon="-3.4325340">
        <ele>487.2</ele>
        <time>2020-07-12T07:10:28Z</time>
      </trkpt>
      <trkpt lat="36.9041770" lon="-3.4323710">
        <ele>486.2</ele>
        <time>2020-07-12T07:10:32Z</time>
      </trkpt>
      <trkpt lat="36.9040760" lon="-3.4323400">
        <ele>485.8</ele>
        <time>2020-07-12T07:10:33Z</time>
      </trkpt>
      <trkpt lat="36.9039770" lon="-3.4323250">
        <ele>484.8</ele>
        <time>2020-07-12T07:10:34Z</time>
      </trkpt>
      <trkpt lat="36.9038750" lon="-3.4323240">
        <ele>484.0</ele>
        <time>2020-07-12T07:10:35Z</time>
      </trkpt>
      <trkpt lat="36.9037720" lon="-3.4323340">
        <ele>483.4</ele>
        <time>2020-07-12T07:10:36Z</time>
      </trkpt>
      <trkpt lat="36.9035900" lon="-3.4323950">
        <ele>481.8</ele>
        <time>2020-07-12T07:10:38Z</time>
      </trkpt>
      <trkpt lat="36.9034410" lon="-3.4325090">
        <ele>480.6</ele>
        <time>2020-07-12T07:10:40Z</time>
      </trkpt>
      <trkpt lat="36.9033430" lon="-3.4325980">
        <ele>480.0</ele>
        <time>2020-07-12T07:10:41Z</time>
      </trkpt>
      <trkpt lat="36.9032600" lon="-3.4326750">
        <ele>479.2</ele>
        <time>2020-07-12T07:10:42Z</time>
      </trkpt>
      <trkpt lat="36.9030990" lon="-3.4328030">
        <ele>477.6</ele>
        <time>2020-07-12T07:10:44Z</time>
      </trkpt>
      <trkpt lat="36.9030180" lon="-3.4328410">
        <ele>477.0</ele>
        <time>2020-07-12T07:10:45Z</time>
      </trkpt>
      <trkpt lat="36.9029250" lon="-3.4328670">
        <ele>476.4</ele>
        <time>2020-07-12T07:10:46Z</time>
      </trkpt>
      <trkpt lat="36.9027250" lon="-3.4328890">
        <ele>475.0</ele>
        <time>2020-07-12T07:10:48Z</time>
      </trkpt>
      <trkpt lat="36.9025290" lon="-3.4328750">
        <ele>473.6</ele>
        <time>2020-07-12T07:10:50Z</time>
      </trkpt>
      <trkpt lat="36.9024190" lon="-3.4328550">
        <ele>473.0</ele>
        <time>2020-07-12T07:10:51Z</time>
      </trkpt>
      <trkpt lat="36.9023270" lon="-3.4328320">
        <ele>472.4</ele>
        <time>2020-07-12T07:10:52Z</time>
      </trkpt>
      <trkpt lat="36.9021390" lon="-3.4327770">
        <ele>471.0</ele>
        <time>2020-07-12T07:10:54Z</time>
      </trkpt>
      <trkpt lat="36.9019740" lon="-3.4327240">
        <ele>469.4</ele>
        <time>2020-07-12T07:10:56Z</time>
      </trkpt>
      <trkpt lat="36.9019060" lon="-3.4326880">
        <ele>468.8</ele>
        <time>2020-07-12T07:10:57Z</time>
      </trkpt>
      <trkpt lat="36.9018560" lon="-3.4326320">
        <ele>467.8</ele>
        <time>2020-07-12T07:10:58Z</time>
      </trkpt>
      <trkpt lat="36.9018190" lon="-3.4325470">
        <ele>467.4</ele>
        <time>2020-07-12T07:10:59Z</time>
      </trkpt>
      <trkpt lat="36.9018120" lon="-3.4324630">
        <ele>466.8</ele>
        <time>2020-07-12T07:11:00Z</time>
      </trkpt>
      <trkpt lat="36.9018290" lon="-3.4323600">
        <ele>466.2</ele>
        <time>2020-07-12T07:11:01Z</time>
      </trkpt>
      <trkpt lat="36.9018600" lon="-3.4322650">
        <ele>465.4</ele>
        <time>2020-07-12T07:11:02Z</time>
      </trkpt>
      <trkpt lat="36.9018920" lon="-3.4321670">
        <ele>464.8</ele>
        <time>2020-07-12T07:11:03Z</time>
      </trkpt>
      <trkpt lat="36.9019180" lon="-3.4320720">
        <ele>464.2</ele>
        <time>2020-07-12T07:11:04Z</time>
      </trkpt>
      <trkpt lat="36.9019320" lon="-3.4319710">
        <ele>463.8</ele>
        <time>2020-07-12T07:11:05Z</time>
      </trkpt>
      <trkpt lat="36.9019260" lon="-3.4318640">
        <ele>463.2</ele>
        <time>2020-07-12T07:11:06Z</time>
      </trkpt>
      <trkpt lat="36.9018460" lon="-3.4316700">
        <ele>462.0</ele>
        <time>2020-07-12T07:11:08Z</time>
      </trkpt>
      <trkpt lat="36.9017950" lon="-3.4315740">
        <ele>461.4</ele>
        <time>2020-07-12T07:11:09Z</time>
      </trkpt>
      <trkpt lat="36.9017530" lon="-3.4314990">
        <ele>461.0</ele>
        <time>2020-07-12T07:11:10Z</time>
      </trkpt>
      <trkpt lat="36.9016680" lon="-3.4312840">
        <ele>460.0</ele>
        <time>2020-07-12T07:11:12Z</time>
      </trkpt>
      <trkpt lat="36.9016580" lon="-3.4311280">
        <ele>459.8</ele>
        <time>2020-07-12T07:11:13Z</time>
      </trkpt>
      <trkpt lat="36.9016830" lon="-3.4308010">
        <ele>458.4</ele>
        <time>2020-07-12T07:11:16Z</time>
      </trkpt>
      <trkpt lat="36.9016370" lon="-3.4305570">
        <ele>457.2</ele>
        <time>2020-07-12T07:11:18Z</time>
      </trkpt>
      <trkpt lat="36.9015920" lon="-3.4304480">
        <ele>456.4</ele>
        <time>2020-07-12T07:11:19Z</time>
      </trkpt>
      <trkpt lat="36.9015470" lon="-3.4303530">
        <ele>455.6</ele>
        <time>2020-07-12T07:11:20Z</time>
      </trkpt>
      <trkpt lat="36.9014520" lon="-3.4301570">
        <ele>454.4</ele>
        <time>2020-07-12T07:11:22Z</time>
      </trkpt>
      <trkpt lat="36.9013600" lon="-3.4299710">
        <ele>453.6</ele>
        <time>2020-07-12T07:11:24Z</time>
      </trkpt>
      <trkpt lat="36.9013200" lon="-3.4298910">
        <ele>453.2</ele>
        <time>2020-07-12T07:11:25Z</time>
      </trkpt>
      <trkpt lat="36.9012050" lon="-3.4296650">
        <ele>451.8</ele>
        <time>2020-07-12T07:11:28Z</time>
      </trkpt>
      <trkpt lat="36.9011260" lon="-3.4295110">
        <ele>451.0</ele>
        <time>2020-07-12T07:11:30Z</time>
      </trkpt>
      <trkpt lat="36.9010920" lon="-3.4294340">
        <ele>450.6</ele>
        <time>2020-07-12T07:11:31Z</time>
      </trkpt>
      <trkpt lat="36.9010490" lon="-3.4293000">
        <ele>449.8</ele>
        <time>2020-07-12T07:11:33Z</time>
      </trkpt>
      <trkpt lat="36.9010350" lon="-3.4292360">
        <ele>449.4</ele>
        <time>2020-07-12T07:11:34Z</time>
      </trkpt>
      <trkpt lat="36.9010160" lon="-3.4291140">
        <ele>448.6</ele>
        <time>2020-07-12T07:11:36Z</time>
      </trkpt>
      <trkpt lat="36.9010360" lon="-3.4290310">
        <ele>448.0</ele>
        <time>2020-07-12T07:11:38Z</time>
      </trkpt>
      <trkpt lat="36.9010840" lon="-3.4290530">
        <ele>447.2</ele>
        <time>2020-07-12T07:11:41Z</time>
      </trkpt>
      <trkpt lat="36.9010820" lon="-3.4290640">
        <ele>447.0</ele>
        <time>2020-07-12T07:11:42Z</time>
      </trkpt>
      <trkpt lat="36.9010820" lon="-3.4290660">
        <ele>446.8</ele>
        <time>2020-07-12T07:11:44Z</time>
      </trkpt>
      <trkpt lat="36.9010840" lon="-3.4291980">
        <ele>451.0</ele>
        <time>2020-07-12T07:41:29Z</time>
      </trkpt>
      <trkpt lat="36.9010180" lon="-3.4292120">
        <ele>450.6</ele>
        <time>2020-07-12T07:41:33Z</time>
      </trkpt>
      <trkpt lat="36.9010210" lon="-3.4292140">
        <ele>450.6</ele>
        <time>2020-07-12T07:41:34Z</time>
      </trkpt>
      <trkpt lat="36.9010740" lon="-3.4291360">
        <ele>450.0</ele>
        <time>2020-07-12T07:43:45Z</time>
      </trkpt>
      <trkpt lat="36.9010650" lon="-3.4290920">
        <ele>450.0</ele>
        <time>2020-07-12T07:43:47Z</time>
      </trkpt>
      <trkpt lat="36.9010530" lon="-3.4288790">
        <ele>449.8</ele>
        <time>2020-07-12T07:43:52Z</time>
      </trkpt>
      <trkpt lat="36.9010650" lon="-3.4287580">
        <ele>449.4</ele>
        <time>2020-07-12T07:43:54Z</time>
      </trkpt>
      <trkpt lat="36.9010900" lon="-3.4286240">
        <ele>449.0</ele>
        <time>2020-07-12T07:43:56Z</time>
      </trkpt>
      <trkpt lat="36.9011190" lon="-3.4285650">
        <ele>448.8</ele>
        <time>2020-07-12T07:43:57Z</time>
      </trkpt>
      <trkpt lat="36.9012570" lon="-3.4284340">
        <ele>448.4</ele>
        <time>2020-07-12T07:44:00Z</time>
      </trkpt>
      <trkpt lat="36.9013350" lon="-3.4283550">
        <ele>448.2</ele>
        <time>2020-07-12T07:44:02Z</time>
      </trkpt>
      <trkpt lat="36.9013680" lon="-3.4283290">
        <ele>448.2</ele>
        <time>2020-07-12T07:44:03Z</time>
      </trkpt>
      <trkpt lat="36.9014350" lon="-3.4282860">
        <ele>448.4</ele>
        <time>2020-07-12T07:44:05Z</time>
      </trkpt>
      <trkpt lat="36.9015230" lon="-3.4282270">
        <ele>449.2</ele>
        <time>2020-07-12T07:44:08Z</time>
      </trkpt>
      <trkpt lat="36.9015800" lon="-3.4281970">
        <ele>449.8</ele>
        <time>2020-07-12T07:44:10Z</time>
      </trkpt>
      <trkpt lat="36.9016130" lon="-3.4281850">
        <ele>450.0</ele>
        <time>2020-07-12T07:44:11Z</time>
      </trkpt>
      <trkpt lat="36.9016430" lon="-3.4281710">
        <ele>450.2</ele>
        <time>2020-07-12T07:44:12Z</time>
      </trkpt>
      <trkpt lat="36.9017070" lon="-3.4281560">
        <ele>450.8</ele>
        <time>2020-07-12T07:44:14Z</time>
      </trkpt>
      <trkpt lat="36.9017660" lon="-3.4281470">
        <ele>451.2</ele>
        <time>2020-07-12T07:44:16Z</time>
      </trkpt>
      <trkpt lat="36.9017980" lon="-3.4281410">
        <ele>451.4</ele>
        <time>2020-07-12T07:44:17Z</time>
      </trkpt>
      <trkpt lat="36.9018910" lon="-3.4281290">
        <ele>452.0</ele>
        <time>2020-07-12T07:44:20Z</time>
      </trkpt>
      <trkpt lat="36.9019220" lon="-3.4281240">
        <ele>452.2</ele>
        <time>2020-07-12T07:44:21Z</time>
      </trkpt>
      <trkpt lat="36.9020220" lon="-3.4281180">
        <ele>453.0</ele>
        <time>2020-07-12T07:44:24Z</time>
      </trkpt>
      <trkpt lat="36.9021240" lon="-3.4281160">
        <ele>453.4</ele>
        <time>2020-07-12T07:44:27Z</time>
      </trkpt>
      <trkpt lat="36.9022500" lon="-3.4281090">
        <ele>454.2</ele>
        <time>2020-07-12T07:44:31Z</time>
      </trkpt>
      <trkpt lat="36.9022810" lon="-3.4281070">
        <ele>454.4</ele>
        <time>2020-07-12T07:44:32Z</time>
      </trkpt>
      <trkpt lat="36.9024710" lon="-3.4280940">
        <ele>455.6</ele>
        <time>2020-07-12T07:44:38Z</time>
      </trkpt>
      <trkpt lat="36.9025910" lon="-3.4280880">
        <ele>456.4</ele>
        <time>2020-07-12T07:44:42Z</time>
      </trkpt>
      <trkpt lat="36.9026520" lon="-3.4280820">
        <ele>456.8</ele>
        <time>2020-07-12T07:44:44Z</time>
      </trkpt>
      <trkpt lat="36.9028270" lon="-3.4280670">
        <ele>457.8</ele>
        <time>2020-07-12T07:44:50Z</time>
      </trkpt>
      <trkpt lat="36.9028510" lon="-3.4280670">
        <ele>458.0</ele>
        <time>2020-07-12T07:44:51Z</time>
      </trkpt>
      <trkpt lat="36.9030390" lon="-3.4280730">
        <ele>459.0</ele>
        <time>2020-07-12T07:44:57Z</time>
      </trkpt>
      <trkpt lat="36.9031040" lon="-3.4280710">
        <ele>459.4</ele>
        <time>2020-07-12T07:44:59Z</time>
      </trkpt>
      <trkpt lat="36.9031990" lon="-3.4280690">
        <ele>460.0</ele>
        <time>2020-07-12T07:45:02Z</time>
      </trkpt>
      <trkpt lat="36.9033870" lon="-3.4280670">
        <ele>461.2</ele>
        <time>2020-07-12T07:45:08Z</time>
      </trkpt>
      <trkpt lat="36.9035660" lon="-3.4280610">
        <ele>462.4</ele>
        <time>2020-07-12T07:45:14Z</time>
      </trkpt>
      <trkpt lat="36.9036230" lon="-3.4280600">
        <ele>462.8</ele>
        <time>2020-07-12T07:45:16Z</time>
      </trkpt>
      <trkpt lat="36.9037390" lon="-3.4280540">
        <ele>463.4</ele>
        <time>2020-07-12T07:45:20Z</time>
      </trkpt>
      <trkpt lat="36.9038840" lon="-3.4280340">
        <ele>464.4</ele>
        <time>2020-07-12T07:45:25Z</time>
      </trkpt>
      <trkpt lat="36.9039140" lon="-3.4280300">
        <ele>464.6</ele>
        <time>2020-07-12T07:45:26Z</time>
      </trkpt>
      <trkpt lat="36.9040630" lon="-3.4280000">
        <ele>465.6</ele>
        <time>2020-07-12T07:45:31Z</time>
      </trkpt>
      <trkpt lat="36.9041780" lon="-3.4279770">
        <ele>466.4</ele>
        <time>2020-07-12T07:45:35Z</time>
      </trkpt>
      <trkpt lat="36.9042110" lon="-3.4279710">
        <ele>466.6</ele>
        <time>2020-07-12T07:45:36Z</time>
      </trkpt>
      <trkpt lat="36.9043590" lon="-3.4279440">
        <ele>467.6</ele>
        <time>2020-07-12T07:45:41Z</time>
      </trkpt>
      <trkpt lat="36.9044480" lon="-3.4279280">
        <ele>468.2</ele>
        <time>2020-07-12T07:45:44Z</time>
      </trkpt>
      <trkpt lat="36.9045060" lon="-3.4279140">
        <ele>468.6</ele>
        <time>2020-07-12T07:45:46Z</time>
      </trkpt>
      <trkpt lat="36.9046880" lon="-3.4278820">
        <ele>469.6</ele>
        <time>2020-07-12T07:45:52Z</time>
      </trkpt>
      <trkpt lat="36.9048110" lon="-3.4278560">
        <ele>470.4</ele>
        <time>2020-07-12T07:45:56Z</time>
      </trkpt>
      <trkpt lat="36.9048680" lon="-3.4278430">
        <ele>470.8</ele>
        <time>2020-07-12T07:45:58Z</time>
      </trkpt>
      <trkpt lat="36.9050110" lon="-3.4278170">
        <ele>471.8</ele>
        <time>2020-07-12T07:46:03Z</time>
      </trkpt>
      <trkpt lat="36.9050970" lon="-3.4277990">
        <ele>472.4</ele>
        <time>2020-07-12T07:46:06Z</time>
      </trkpt>
      <trkpt lat="36.9051880" lon="-3.4277780">
        <ele>473.0</ele>
        <time>2020-07-12T07:46:09Z</time>
      </trkpt>
      <trkpt lat="36.9053350" lon="-3.4277620">
        <ele>474.2</ele>
        <time>2020-07-12T07:46:14Z</time>
      </trkpt>
      <trkpt lat="36.9054920" lon="-3.4277580">
        <ele>475.2</ele>
        <time>2020-07-12T07:46:19Z</time>
      </trkpt>
      <trkpt lat="36.9055570" lon="-3.4277600">
        <ele>475.6</ele>
        <time>2020-07-12T07:46:21Z</time>
      </trkpt>
      <trkpt lat="36.9056860" lon="-3.4277660">
        <ele>476.2</ele>
        <time>2020-07-12T07:46:25Z</time>
      </trkpt>
      <trkpt lat="36.9058730" lon="-3.4277790">
        <ele>477.4</ele>
        <time>2020-07-12T07:46:31Z</time>
      </trkpt>
      <trkpt lat="36.9059020" lon="-3.4277810">
        <ele>477.6</ele>
        <time>2020-07-12T07:46:32Z</time>
      </trkpt>
      <trkpt lat="36.9060150" lon="-3.4277880">
        <ele>478.4</ele>
        <time>2020-07-12T07:46:36Z</time>
      </trkpt>
      <trkpt lat="36.9061020" lon="-3.4277980">
        <ele>479.0</ele>
        <time>2020-07-12T07:46:39Z</time>
      </trkpt>
      <trkpt lat="36.9061610" lon="-3.4278020">
        <ele>479.6</ele>
        <time>2020-07-12T07:46:41Z</time>
      </trkpt>
      <trkpt lat="36.9063110" lon="-3.4278090">
        <ele>480.6</ele>
        <time>2020-07-12T07:46:46Z</time>
      </trkpt>
      <trkpt lat="36.9064020" lon="-3.4277990">
        <ele>481.0</ele>
        <time>2020-07-12T07:46:49Z</time>
      </trkpt>
      <trkpt lat="36.9065190" lon="-3.4277550">
        <ele>481.6</ele>
        <time>2020-07-12T07:46:53Z</time>
      </trkpt>
      <trkpt lat="36.9066070" lon="-3.4277200">
        <ele>482.2</ele>
        <time>2020-07-12T07:46:56Z</time>
      </trkpt>
      <trkpt lat="36.9066660" lon="-3.4277120">
        <ele>482.6</ele>
        <time>2020-07-12T07:46:58Z</time>
      </trkpt>
      <trkpt lat="36.9068270" lon="-3.4277490">
        <ele>483.8</ele>
        <time>2020-07-12T07:47:03Z</time>
      </trkpt>
      <trkpt lat="36.9069390" lon="-3.4279050">
        <ele>484.6</ele>
        <time>2020-07-12T07:47:08Z</time>
      </trkpt>
      <trkpt lat="36.9069560" lon="-3.4279750">
        <ele>484.8</ele>
        <time>2020-07-12T07:47:10Z</time>
      </trkpt>
      <trkpt lat="36.9069650" lon="-3.4281310">
        <ele>485.8</ele>
        <time>2020-07-12T07:47:14Z</time>
      </trkpt>
      <trkpt lat="36.9069610" lon="-3.4281650">
        <ele>485.8</ele>
        <time>2020-07-12T07:47:15Z</time>
      </trkpt>
      <trkpt lat="36.9069100" lon="-3.4282730">
        <ele>486.4</ele>
        <time>2020-07-12T07:47:18Z</time>
      </trkpt>
      <trkpt lat="36.9068080" lon="-3.4283820">
        <ele>487.0</ele>
        <time>2020-07-12T07:47:22Z</time>
      </trkpt>
      <trkpt lat="36.9067430" lon="-3.4284160">
        <ele>487.4</ele>
        <time>2020-07-12T07:47:24Z</time>
      </trkpt>
      <trkpt lat="36.9065740" lon="-3.4284680">
        <ele>488.0</ele>
        <time>2020-07-12T07:47:29Z</time>
      </trkpt>
      <trkpt lat="36.9065080" lon="-3.4284650">
        <ele>488.4</ele>
        <time>2020-07-12T07:47:31Z</time>
      </trkpt>
      <trkpt lat="36.9062690" lon="-3.4283640">
        <ele>489.2</ele>
        <time>2020-07-12T07:47:38Z</time>
      </trkpt>
      <trkpt lat="36.9061440" lon="-3.4283000">
        <ele>489.8</ele>
        <time>2020-07-12T07:47:42Z</time>
      </trkpt>
      <trkpt lat="36.9060200" lon="-3.4282450">
        <ele>490.4</ele>
        <time>2020-07-12T07:47:46Z</time>
      </trkpt>
      <trkpt lat="36.9059840" lon="-3.4282350">
        <ele>490.4</ele>
        <time>2020-07-12T07:47:47Z</time>
      </trkpt>
      <trkpt lat="36.9058180" lon="-3.4282570">
        <ele>491.0</ele>
        <time>2020-07-12T07:47:52Z</time>
      </trkpt>
      <trkpt lat="36.9057420" lon="-3.4283270">
        <ele>491.6</ele>
        <time>2020-07-12T07:47:55Z</time>
      </trkpt>
      <trkpt lat="36.9057070" lon="-3.4283910">
        <ele>492.0</ele>
        <time>2020-07-12T07:47:57Z</time>
      </trkpt>
      <trkpt lat="36.9056890" lon="-3.4285000">
        <ele>492.8</ele>
        <time>2020-07-12T07:48:00Z</time>
      </trkpt>
      <trkpt lat="36.9057040" lon="-3.4285780">
        <ele>493.2</ele>
        <time>2020-07-12T07:48:02Z</time>
      </trkpt>
      <trkpt lat="36.9057270" lon="-3.4286490">
        <ele>493.8</ele>
        <time>2020-07-12T07:48:04Z</time>
      </trkpt>
      <trkpt lat="36.9058150" lon="-3.4287640">
        <ele>494.6</ele>
        <time>2020-07-12T07:48:08Z</time>
      </trkpt>
      <trkpt lat="36.9058370" lon="-3.4287870">
        <ele>494.8</ele>
        <time>2020-07-12T07:48:09Z</time>
      </trkpt>
      <trkpt lat="36.9059990" lon="-3.4288990">
        <ele>495.8</ele>
        <time>2020-07-12T07:48:15Z</time>
      </trkpt>
      <trkpt lat="36.9060310" lon="-3.4289140">
        <ele>496.0</ele>
        <time>2020-07-12T07:48:16Z</time>
      </trkpt>
      <trkpt lat="36.9062010" lon="-3.4289880">
        <ele>497.2</ele>
        <time>2020-07-12T07:48:22Z</time>
      </trkpt>
      <trkpt lat="36.9062690" lon="-3.4290130">
        <ele>497.6</ele>
        <time>2020-07-12T07:48:24Z</time>
      </trkpt>
      <trkpt lat="36.9063840" lon="-3.4290550">
        <ele>498.4</ele>
        <time>2020-07-12T07:48:28Z</time>
      </trkpt>
      <trkpt lat="36.9065220" lon="-3.4291080">
        <ele>499.4</ele>
        <time>2020-07-12T07:48:33Z</time>
      </trkpt>
      <trkpt lat="36.9065500" lon="-3.4291190">
        <ele>499.6</ele>
        <time>2020-07-12T07:48:34Z</time>
      </trkpt>
      <trkpt lat="36.9066890" lon="-3.4291650">
        <ele>500.4</ele>
        <time>2020-07-12T07:48:39Z</time>
      </trkpt>
      <trkpt lat="36.9067970" lon="-3.4292120">
        <ele>501.2</ele>
        <time>2020-07-12T07:48:43Z</time>
      </trkpt>
      <trkpt lat="36.9068300" lon="-3.4292240">
        <ele>501.6</ele>
        <time>2020-07-12T07:48:44Z</time>
      </trkpt>
      <trkpt lat="36.9069720" lon="-3.4293060">
        <ele>502.4</ele>
        <time>2020-07-12T07:48:49Z</time>
      </trkpt>
      <trkpt lat="36.9069970" lon="-3.4293240">
        <ele>502.6</ele>
        <time>2020-07-12T07:48:50Z</time>
      </trkpt>
      <trkpt lat="36.9071730" lon="-3.4294790">
        <ele>503.8</ele>
        <time>2020-07-12T07:48:57Z</time>
      </trkpt>
      <trkpt lat="36.9073140" lon="-3.4296020">
        <ele>504.8</ele>
        <time>2020-07-12T07:49:03Z</time>
      </trkpt>
      <trkpt lat="36.9074310" lon="-3.4297100">
        <ele>506.0</ele>
        <time>2020-07-12T07:49:08Z</time>
      </trkpt>
      <trkpt lat="36.9075750" lon="-3.4298310">
        <ele>507.0</ele>
        <time>2020-07-12T07:49:14Z</time>
      </trkpt>
      <trkpt lat="36.9076680" lon="-3.4298930">
        <ele>507.6</ele>
        <time>2020-07-12T07:49:18Z</time>
      </trkpt>
      <trkpt lat="36.9077160" lon="-3.4299220">
        <ele>508.0</ele>
        <time>2020-07-12T07:49:20Z</time>
      </trkpt>
      <trkpt lat="36.9078340" lon="-3.4299930">
        <ele>509.2</ele>
        <time>2020-07-12T07:49:25Z</time>
      </trkpt>
      <trkpt lat="36.9079100" lon="-3.4300360">
        <ele>509.8</ele>
        <time>2020-07-12T07:49:28Z</time>
      </trkpt>
      <trkpt lat="36.9079930" lon="-3.4300800">
        <ele>510.4</ele>
        <time>2020-07-12T07:49:31Z</time>
      </trkpt>
      <trkpt lat="36.9081240" lon="-3.4301600">
        <ele>511.4</ele>
        <time>2020-07-12T07:49:36Z</time>
      </trkpt>
      <trkpt lat="36.9082480" lon="-3.4303070">
        <ele>512.6</ele>
        <time>2020-07-12T07:49:42Z</time>
      </trkpt>
      <trkpt lat="36.9082620" lon="-3.4303390">
        <ele>512.8</ele>
        <time>2020-07-12T07:49:43Z</time>
      </trkpt>
      <trkpt lat="36.9083370" lon="-3.4305380">
        <ele>513.6</ele>
        <time>2020-07-12T07:49:49Z</time>
      </trkpt>
      <trkpt lat="36.9083770" lon="-3.4306360">
        <ele>514.2</ele>
        <time>2020-07-12T07:49:52Z</time>
      </trkpt>
      <trkpt lat="36.9084310" lon="-3.4307250">
        <ele>514.8</ele>
        <time>2020-07-12T07:49:55Z</time>
      </trkpt>
      <trkpt lat="36.9085160" lon="-3.4308180">
        <ele>515.4</ele>
        <time>2020-07-12T07:49:59Z</time>
      </trkpt>
      <trkpt lat="36.9085910" lon="-3.4308740">
        <ele>516.0</ele>
        <time>2020-07-12T07:50:02Z</time>
      </trkpt>
      <trkpt lat="36.9087160" lon="-3.4309570">
        <ele>517.0</ele>
        <time>2020-07-12T07:50:07Z</time>
      </trkpt>
      <trkpt lat="36.9087400" lon="-3.4309730">
        <ele>517.2</ele>
        <time>2020-07-12T07:50:08Z</time>
      </trkpt>
      <trkpt lat="36.9088510" lon="-3.4310230">
        <ele>518.0</ele>
        <time>2020-07-12T07:50:12Z</time>
      </trkpt>
      <trkpt lat="36.9089390" lon="-3.4310340">
        <ele>518.6</ele>
        <time>2020-07-12T07:50:15Z</time>
      </trkpt>
      <trkpt lat="36.9090270" lon="-3.4310230">
        <ele>519.0</ele>
        <time>2020-07-12T07:50:18Z</time>
      </trkpt>
      <trkpt lat="36.9091460" lon="-3.4309840">
        <ele>520.2</ele>
        <time>2020-07-12T07:50:22Z</time>
      </trkpt>
      <trkpt lat="36.9092640" lon="-3.4309380">
        <ele>521.2</ele>
        <time>2020-07-12T07:50:26Z</time>
      </trkpt>
      <trkpt lat="36.9094380" lon="-3.4308730">
        <ele>522.4</ele>
        <time>2020-07-12T07:50:32Z</time>
      </trkpt>
      <trkpt lat="36.9096030" lon="-3.4308050">
        <ele>523.6</ele>
        <time>2020-07-12T07:50:38Z</time>
      </trkpt>
      <trkpt lat="36.9096880" lon="-3.4307730">
        <ele>524.2</ele>
        <time>2020-07-12T07:50:41Z</time>
      </trkpt>
      <trkpt lat="36.9097740" lon="-3.4307420">
        <ele>524.6</ele>
        <time>2020-07-12T07:50:44Z</time>
      </trkpt>
      <trkpt lat="36.9099450" lon="-3.4306750">
        <ele>525.8</ele>
        <time>2020-07-12T07:50:50Z</time>
      </trkpt>
      <trkpt lat="36.9100020" lon="-3.4306490">
        <ele>526.2</ele>
        <time>2020-07-12T07:50:52Z</time>
      </trkpt>
      <trkpt lat="36.9101410" lon="-3.4305660">
        <ele>526.8</ele>
        <time>2020-07-12T07:50:57Z</time>
      </trkpt>
      <trkpt lat="36.9102420" lon="-3.4304840">
        <ele>527.8</ele>
        <time>2020-07-12T07:51:01Z</time>
      </trkpt>
      <trkpt lat="36.9102670" lon="-3.4304620">
        <ele>528.0</ele>
        <time>2020-07-12T07:51:02Z</time>
      </trkpt>
      <trkpt lat="36.9103880" lon="-3.4303500">
        <ele>529.0</ele>
        <time>2020-07-12T07:51:07Z</time>
      </trkpt>
      <trkpt lat="36.9104830" lon="-3.4302490">
        <ele>529.8</ele>
        <time>2020-07-12T07:51:11Z</time>
      </trkpt>
      <trkpt lat="36.9105260" lon="-3.4301980">
        <ele>530.2</ele>
        <time>2020-07-12T07:51:13Z</time>
      </trkpt>
      <trkpt lat="36.9106310" lon="-3.4300620">
        <ele>531.2</ele>
        <time>2020-07-12T07:51:18Z</time>
      </trkpt>
      <trkpt lat="36.9106890" lon="-3.4299830">
        <ele>532.0</ele>
        <time>2020-07-12T07:51:21Z</time>
      </trkpt>
      <trkpt lat="36.9107090" lon="-3.4299570">
        <ele>532.2</ele>
        <time>2020-07-12T07:51:22Z</time>
      </trkpt>
      <trkpt lat="36.9108290" lon="-3.4297940">
        <ele>533.4</ele>
        <time>2020-07-12T07:51:28Z</time>
      </trkpt>
      <trkpt lat="36.9108740" lon="-3.4297380">
        <ele>533.8</ele>
        <time>2020-07-12T07:51:30Z</time>
      </trkpt>
      <trkpt lat="36.9109400" lon="-3.4296500">
        <ele>534.6</ele>
        <time>2020-07-12T07:51:33Z</time>
      </trkpt>
      <trkpt lat="36.9110420" lon="-3.4295030">
        <ele>535.8</ele>
        <time>2020-07-12T07:51:38Z</time>
      </trkpt>
      <trkpt lat="36.9110620" lon="-3.4294740">
        <ele>536.0</ele>
        <time>2020-07-12T07:51:39Z</time>
      </trkpt>
      <trkpt lat="36.9111450" lon="-3.4293590">
        <ele>536.8</ele>
        <time>2020-07-12T07:51:43Z</time>
      </trkpt>
      <trkpt lat="36.9112750" lon="-3.4291900">
        <ele>537.8</ele>
        <time>2020-07-12T07:51:49Z</time>
      </trkpt>
      <trkpt lat="36.9112950" lon="-3.4291640">
        <ele>538.0</ele>
        <time>2020-07-12T07:51:50Z</time>
      </trkpt>
      <trkpt lat="36.9113790" lon="-3.4290490">
        <ele>538.8</ele>
        <time>2020-07-12T07:51:54Z</time>
      </trkpt>
      <trkpt lat="36.9114830" lon="-3.4289060">
        <ele>540.0</ele>
        <time>2020-07-12T07:51:59Z</time>
      </trkpt>
      <trkpt lat="36.9115250" lon="-3.4288510">
        <ele>540.6</ele>
        <time>2020-07-12T07:52:01Z</time>
      </trkpt>
      <trkpt lat="36.9115860" lon="-3.4287690">
        <ele>541.0</ele>
        <time>2020-07-12T07:52:04Z</time>
      </trkpt>
      <trkpt lat="36.9116840" lon="-3.4286290">
        <ele>542.2</ele>
        <time>2020-07-12T07:52:09Z</time>
      </trkpt>
      <trkpt lat="36.9117250" lon="-3.4285750">
        <ele>542.6</ele>
        <time>2020-07-12T07:52:11Z</time>
      </trkpt>
      <trkpt lat="36.9117950" lon="-3.4284750">
        <ele>543.4</ele>
        <time>2020-07-12T07:52:15Z</time>
      </trkpt>
      <trkpt lat="36.9118700" lon="-3.4283740">
        <ele>544.2</ele>
        <time>2020-07-12T07:52:19Z</time>
      </trkpt>
      <trkpt lat="36.9119080" lon="-3.4283190">
        <ele>544.6</ele>
        <time>2020-07-12T07:52:21Z</time>
      </trkpt>
      <trkpt lat="36.9120310" lon="-3.4281570">
        <ele>545.6</ele>
        <time>2020-07-12T07:52:27Z</time>
      </trkpt>
      <trkpt lat="36.9120520" lon="-3.4281310">
        <ele>545.8</ele>
        <time>2020-07-12T07:52:28Z</time>
      </trkpt>
      <trkpt lat="36.9121130" lon="-3.4280500">
        <ele>546.4</ele>
        <time>2020-07-12T07:52:31Z</time>
      </trkpt>
      <trkpt lat="36.9121330" lon="-3.4280210">
        <ele>546.6</ele>
        <time>2020-07-12T07:52:32Z</time>
      </trkpt>
      <trkpt lat="36.9122240" lon="-3.4278800">
        <ele>547.6</ele>
        <time>2020-07-12T07:52:37Z</time>
      </trkpt>
      <trkpt lat="36.9123010" lon="-3.4277220">
        <ele>548.8</ele>
        <time>2020-07-12T07:52:42Z</time>
      </trkpt>
      <trkpt lat="36.9123370" lon="-3.4276220">
        <ele>549.6</ele>
        <time>2020-07-12T07:52:45Z</time>
      </trkpt>
      <trkpt lat="36.9123600" lon="-3.4275480">
        <ele>550.0</ele>
        <time>2020-07-12T07:52:47Z</time>
      </trkpt>
      <trkpt lat="36.9124150" lon="-3.4273840">
        <ele>551.0</ele>
        <time>2020-07-12T07:52:52Z</time>
      </trkpt>
      <trkpt lat="36.9124360" lon="-3.4272820">
        <ele>551.6</ele>
        <time>2020-07-12T07:52:55Z</time>
      </trkpt>
      <trkpt lat="36.9124470" lon="-3.4272120">
        <ele>552.0</ele>
        <time>2020-07-12T07:52:57Z</time>
      </trkpt>
      <trkpt lat="36.9124910" lon="-3.4270150">
        <ele>553.2</ele>
        <time>2020-07-12T07:53:03Z</time>
      </trkpt>
      <trkpt lat="36.9124950" lon="-3.4269790">
        <ele>553.4</ele>
        <time>2020-07-12T07:53:04Z</time>
      </trkpt>
      <trkpt lat="36.9125440" lon="-3.4268150">
        <ele>554.4</ele>
        <time>2020-07-12T07:53:09Z</time>
      </trkpt>
      <trkpt lat="36.9125820" lon="-3.4267570">
        <ele>554.8</ele>
        <time>2020-07-12T07:53:11Z</time>
      </trkpt>
      <trkpt lat="36.9126510" lon="-3.4266920">
        <ele>555.4</ele>
        <time>2020-07-12T07:53:14Z</time>
      </trkpt>
      <trkpt lat="36.9127390" lon="-3.4266800">
        <ele>555.8</ele>
        <time>2020-07-12T07:53:17Z</time>
      </trkpt>
      <trkpt lat="36.9128200" lon="-3.4267170">
        <ele>556.6</ele>
        <time>2020-07-12T07:53:20Z</time>
      </trkpt>
      <trkpt lat="36.9128650" lon="-3.4267710">
        <ele>557.0</ele>
        <time>2020-07-12T07:53:22Z</time>
      </trkpt>
      <trkpt lat="36.9129040" lon="-3.4268730">
        <ele>557.8</ele>
        <time>2020-07-12T07:53:25Z</time>
      </trkpt>
      <trkpt lat="36.9129140" lon="-3.4269450">
        <ele>558.2</ele>
        <time>2020-07-12T07:53:27Z</time>
      </trkpt>
      <trkpt lat="36.9129040" lon="-3.4270640">
        <ele>559.0</ele>
        <time>2020-07-12T07:53:30Z</time>
      </trkpt>
      <trkpt lat="36.9128710" lon="-3.4272230">
        <ele>559.8</ele>
        <time>2020-07-12T07:53:34Z</time>
      </trkpt>
      <trkpt lat="36.9128630" lon="-3.4272610">
        <ele>560.0</ele>
        <time>2020-07-12T07:53:35Z</time>
      </trkpt>
      <trkpt lat="36.9128270" lon="-3.4274560">
        <ele>561.0</ele>
        <time>2020-07-12T07:53:40Z</time>
      </trkpt>
      <trkpt lat="36.9128150" lon="-3.4275820">
        <ele>561.8</ele>
        <time>2020-07-12T07:53:43Z</time>
      </trkpt>
      <trkpt lat="36.9128100" lon="-3.4276590">
        <ele>562.2</ele>
        <time>2020-07-12T07:53:45Z</time>
      </trkpt>
      <trkpt lat="36.9127920" lon="-3.4278920">
        <ele>563.2</ele>
        <time>2020-07-12T07:53:51Z</time>
      </trkpt>
      <trkpt lat="36.9127910" lon="-3.4279310">
        <ele>563.4</ele>
        <time>2020-07-12T07:53:52Z</time>
      </trkpt>
      <trkpt lat="36.9127920" lon="-3.4280890">
        <ele>564.4</ele>
        <time>2020-07-12T07:53:56Z</time>
      </trkpt>
      <trkpt lat="36.9127650" lon="-3.4282440">
        <ele>565.2</ele>
        <time>2020-07-12T07:54:00Z</time>
      </trkpt>
      <trkpt lat="36.9127520" lon="-3.4282850">
        <ele>565.4</ele>
        <time>2020-07-12T07:54:01Z</time>
      </trkpt>
      <trkpt lat="36.9126570" lon="-3.4284480">
        <ele>566.4</ele>
        <time>2020-07-12T07:54:06Z</time>
      </trkpt>
      <trkpt lat="36.9126340" lon="-3.4284750">
        <ele>566.6</ele>
        <time>2020-07-12T07:54:07Z</time>
      </trkpt>
      <trkpt lat="36.9124820" lon="-3.4286570">
        <ele>567.8</ele>
        <time>2020-07-12T07:54:14Z</time>
      </trkpt>
      <trkpt lat="36.9123990" lon="-3.4287600">
        <ele>568.8</ele>
        <time>2020-07-12T07:54:18Z</time>
      </trkpt>
      <trkpt lat="36.9123800" lon="-3.4287850">
        <ele>569.0</ele>
        <time>2020-07-12T07:54:19Z</time>
      </trkpt>
      <trkpt lat="36.9122880" lon="-3.4289140">
        <ele>570.0</ele>
        <time>2020-07-12T07:54:24Z</time>
      </trkpt>
      <trkpt lat="36.9122310" lon="-3.4289820">
        <ele>570.6</ele>
        <time>2020-07-12T07:54:27Z</time>
      </trkpt>
      <trkpt lat="36.9122130" lon="-3.4290050">
        <ele>570.8</ele>
        <time>2020-07-12T07:54:28Z</time>
      </trkpt>
      <trkpt lat="36.9121920" lon="-3.4290290">
        <ele>571.2</ele>
        <time>2020-07-12T07:54:29Z</time>
      </trkpt>
      <trkpt lat="36.9120990" lon="-3.4291480">
        <ele>572.2</ele>
        <time>2020-07-12T07:54:34Z</time>
      </trkpt>
      <trkpt lat="36.9120250" lon="-3.4292610">
        <ele>573.2</ele>
        <time>2020-07-12T07:54:38Z</time>
      </trkpt>
      <trkpt lat="36.9120070" lon="-3.4292890">
        <ele>573.4</ele>
        <time>2020-07-12T07:54:39Z</time>
      </trkpt>
      <trkpt lat="36.9118980" lon="-3.4294950">
        <ele>574.2</ele>
        <time>2020-07-12T07:54:45Z</time>
      </trkpt>
      <trkpt lat="36.9118870" lon="-3.4295350">
        <ele>574.6</ele>
        <time>2020-07-12T07:54:46Z</time>
      </trkpt>
      <trkpt lat="36.9118760" lon="-3.4296880">
        <ele>575.6</ele>
        <time>2020-07-12T07:54:50Z</time>
      </trkpt>
      <trkpt lat="36.9119110" lon="-3.4298400">
        <ele>576.8</ele>
        <time>2020-07-12T07:54:54Z</time>
      </trkpt>
      <trkpt lat="36.9119310" lon="-3.4299130">
        <ele>577.2</ele>
        <time>2020-07-12T07:54:56Z</time>
      </trkpt>
      <trkpt lat="36.9119540" lon="-3.4300230">
        <ele>577.8</ele>
        <time>2020-07-12T07:54:59Z</time>
      </trkpt>
      <trkpt lat="36.9119460" lon="-3.4301770">
        <ele>578.8</ele>
        <time>2020-07-12T07:55:03Z</time>
      </trkpt>
      <trkpt lat="36.9119360" lon="-3.4302210">
        <ele>579.0</ele>
        <time>2020-07-12T07:55:04Z</time>
      </trkpt>
      <trkpt lat="36.9118490" lon="-3.4303930">
        <ele>579.6</ele>
        <time>2020-07-12T07:55:09Z</time>
      </trkpt>
      <trkpt lat="36.9118100" lon="-3.4304560">
        <ele>580.0</ele>
        <time>2020-07-12T07:55:11Z</time>
      </trkpt>
      <trkpt lat="36.9116920" lon="-3.4306320">
        <ele>580.8</ele>
        <time>2020-07-12T07:55:17Z</time>
      </trkpt>
      <trkpt lat="36.9116560" lon="-3.4306920">
        <ele>581.2</ele>
        <time>2020-07-12T07:55:19Z</time>
      </trkpt>
      <trkpt lat="36.9115660" lon="-3.4308370">
        <ele>582.2</ele>
        <time>2020-07-12T07:55:24Z</time>
      </trkpt>
      <trkpt lat="36.9115320" lon="-3.4308940">
        <ele>582.6</ele>
        <time>2020-07-12T07:55:26Z</time>
      </trkpt>
      <trkpt lat="36.9115020" lon="-3.4309530">
        <ele>583.0</ele>
        <time>2020-07-12T07:55:28Z</time>
      </trkpt>
      <trkpt lat="36.9114900" lon="-3.4309900">
        <ele>583.2</ele>
        <time>2020-07-12T07:55:29Z</time>
      </trkpt>
      <trkpt lat="36.9114790" lon="-3.4310210">
        <ele>583.4</ele>
        <time>2020-07-12T07:55:30Z</time>
      </trkpt>
      <trkpt lat="36.9114350" lon="-3.4311920">
        <ele>584.6</ele>
        <time>2020-07-12T07:55:35Z</time>
      </trkpt>
      <trkpt lat="36.9114300" lon="-3.4312300">
        <ele>584.8</ele>
        <time>2020-07-12T07:55:36Z</time>
      </trkpt>
      <trkpt lat="36.9114140" lon="-3.4314140">
        <ele>585.6</ele>
        <time>2020-07-12T07:55:41Z</time>
      </trkpt>
      <trkpt lat="36.9114170" lon="-3.4316140">
        <ele>586.6</ele>
        <time>2020-07-12T07:55:46Z</time>
      </trkpt>
      <trkpt lat="36.9114210" lon="-3.4316540">
        <ele>586.8</ele>
        <time>2020-07-12T07:55:47Z</time>
      </trkpt>
      <trkpt lat="36.9114720" lon="-3.4319150">
        <ele>588.2</ele>
        <time>2020-07-12T07:55:54Z</time>
      </trkpt>
      <trkpt lat="36.9114810" lon="-3.4319480">
        <ele>588.2</ele>
        <time>2020-07-12T07:55:55Z</time>
      </trkpt>
      <trkpt lat="36.9115070" lon="-3.4321040">
        <ele>589.2</ele>
        <time>2020-07-12T07:55:59Z</time>
      </trkpt>
      <trkpt lat="36.9114970" lon="-3.4322190">
        <ele>590.0</ele>
        <time>2020-07-12T07:56:02Z</time>
      </trkpt>
      <trkpt lat="36.9114880" lon="-3.4322510">
        <ele>590.2</ele>
        <time>2020-07-12T07:56:03Z</time>
      </trkpt>
      <trkpt lat="36.9114060" lon="-3.4324280">
        <ele>591.4</ele>
        <time>2020-07-12T07:56:08Z</time>
      </trkpt>
      <trkpt lat="36.9113190" lon="-3.4326680">
        <ele>592.4</ele>
        <time>2020-07-12T07:56:14Z</time>
      </trkpt>
      <trkpt lat="36.9113160" lon="-3.4327520">
        <ele>592.6</ele>
        <time>2020-07-12T07:56:16Z</time>
      </trkpt>
      <trkpt lat="36.9113730" lon="-3.4329060">
        <ele>593.4</ele>
        <time>2020-07-12T07:56:20Z</time>
      </trkpt>
      <trkpt lat="36.9114250" lon="-3.4329580">
        <ele>593.6</ele>
        <time>2020-07-12T07:56:22Z</time>
      </trkpt>
      <trkpt lat="36.9115150" lon="-3.4329970">
        <ele>594.4</ele>
        <time>2020-07-12T07:56:25Z</time>
      </trkpt>
      <trkpt lat="36.9115500" lon="-3.4329980">
        <ele>594.6</ele>
        <time>2020-07-12T07:56:26Z</time>
      </trkpt>
      <trkpt lat="36.9116640" lon="-3.4329500">
        <ele>595.6</ele>
        <time>2020-07-12T07:56:30Z</time>
      </trkpt>
      <trkpt lat="36.9116900" lon="-3.4329190">
        <ele>595.8</ele>
        <time>2020-07-12T07:56:31Z</time>
      </trkpt>
      <trkpt lat="36.9117440" lon="-3.4327770">
        <ele>597.0</ele>
        <time>2020-07-12T07:56:35Z</time>
      </trkpt>
      <trkpt lat="36.9117470" lon="-3.4325770">
        <ele>598.0</ele>
        <time>2020-07-12T07:56:40Z</time>
      </trkpt>
      <trkpt lat="36.9117430" lon="-3.4324900">
        <ele>598.4</ele>
        <time>2020-07-12T07:56:42Z</time>
      </trkpt>
      <trkpt lat="36.9117490" lon="-3.4323250">
        <ele>599.2</ele>
        <time>2020-07-12T07:56:46Z</time>
      </trkpt>
      <trkpt lat="36.9117730" lon="-3.4321560">
        <ele>599.8</ele>
        <time>2020-07-12T07:56:50Z</time>
      </trkpt>
      <trkpt lat="36.9118020" lon="-3.4319930">
        <ele>600.4</ele>
        <time>2020-07-12T07:56:54Z</time>
      </trkpt>
      <trkpt lat="36.9118340" lon="-3.4318010">
        <ele>601.4</ele>
        <time>2020-07-12T07:56:59Z</time>
      </trkpt>
      <trkpt lat="36.9118390" lon="-3.4317670">
        <ele>601.6</ele>
        <time>2020-07-12T07:57:00Z</time>
      </trkpt>
      <trkpt lat="36.9118670" lon="-3.4316140">
        <ele>602.4</ele>
        <time>2020-07-12T07:57:04Z</time>
      </trkpt>
      <trkpt lat="36.9118970" lon="-3.4314630">
        <ele>603.4</ele>
        <time>2020-07-12T07:57:08Z</time>
      </trkpt>
      <trkpt lat="36.9119280" lon="-3.4313160">
        <ele>604.4</ele>
        <time>2020-07-12T07:57:12Z</time>
      </trkpt>
      <trkpt lat="36.9119660" lon="-3.4310900">
        <ele>605.6</ele>
        <time>2020-07-12T07:57:18Z</time>
      </trkpt>
      <trkpt lat="36.9119800" lon="-3.4310220">
        <ele>606.0</ele>
        <time>2020-07-12T07:57:20Z</time>
      </trkpt>
      <trkpt lat="36.9120140" lon="-3.4309210">
        <ele>606.8</ele>
        <time>2020-07-12T07:57:23Z</time>
      </trkpt>
      <trkpt lat="36.9120830" lon="-3.4308020">
        <ele>607.8</ele>
        <time>2020-07-12T07:57:27Z</time>
      </trkpt>
      <trkpt lat="36.9122050" lon="-3.4306280">
        <ele>609.0</ele>
        <time>2020-07-12T07:57:33Z</time>
      </trkpt>
      <trkpt lat="36.9122670" lon="-3.4305340">
        <ele>609.6</ele>
        <time>2020-07-12T07:57:36Z</time>
      </trkpt>
      <trkpt lat="36.9123080" lon="-3.4304780">
        <ele>610.0</ele>
        <time>2020-07-12T07:57:38Z</time>
      </trkpt>
      <trkpt lat="36.9124090" lon="-3.4303380">
        <ele>611.2</ele>
        <time>2020-07-12T07:57:43Z</time>
      </trkpt>
      <trkpt lat="36.9124510" lon="-3.4302430">
        <ele>611.8</ele>
        <time>2020-07-12T07:57:46Z</time>
      </trkpt>
      <trkpt lat="36.9124650" lon="-3.4301660">
        <ele>612.2</ele>
        <time>2020-07-12T07:57:48Z</time>
      </trkpt>
      <trkpt lat="36.9124530" lon="-3.4300280">
        <ele>612.8</ele>
        <time>2020-07-12T07:57:52Z</time>
      </trkpt>
      <trkpt lat="36.9124400" lon="-3.4299250">
        <ele>613.4</ele>
        <time>2020-07-12T07:57:55Z</time>
      </trkpt>
      <trkpt lat="36.9124400" lon="-3.4297740">
        <ele>614.6</ele>
        <time>2020-07-12T07:57:59Z</time>
      </trkpt>
      <trkpt lat="36.9124660" lon="-3.4296370">
        <ele>615.6</ele>
        <time>2020-07-12T07:58:03Z</time>
      </trkpt>
      <trkpt lat="36.9125020" lon="-3.4295690">
        <ele>616.2</ele>
        <time>2020-07-12T07:58:05Z</time>
      </trkpt>
      <trkpt lat="36.9125750" lon="-3.4294770">
        <ele>616.8</ele>
        <time>2020-07-12T07:58:08Z</time>
      </trkpt>
      <trkpt lat="36.9126570" lon="-3.4294180">
        <ele>617.4</ele>
        <time>2020-07-12T07:58:11Z</time>
      </trkpt>
      <trkpt lat="36.9127140" lon="-3.4293840">
        <ele>617.8</ele>
        <time>2020-07-12T07:58:13Z</time>
      </trkpt>
      <trkpt lat="36.9128350" lon="-3.4293230">
        <ele>618.8</ele>
        <time>2020-07-12T07:58:17Z</time>
      </trkpt>
      <trkpt lat="36.9129460" lon="-3.4292650">
        <ele>620.0</ele>
        <time>2020-07-12T07:58:21Z</time>
      </trkpt>
      <trkpt lat="36.9129720" lon="-3.4292470">
        <ele>620.2</ele>
        <time>2020-07-12T07:58:22Z</time>
      </trkpt>
      <trkpt lat="36.9130670" lon="-3.4291600">
        <ele>621.0</ele>
        <time>2020-07-12T07:58:26Z</time>
      </trkpt>
      <trkpt lat="36.9131290" lon="-3.4290830">
        <ele>621.8</ele>
        <time>2020-07-12T07:58:29Z</time>
      </trkpt>
      <trkpt lat="36.9131910" lon="-3.4290080">
        <ele>622.2</ele>
        <time>2020-07-12T07:58:32Z</time>
      </trkpt>
      <trkpt lat="36.9133290" lon="-3.4288710">
        <ele>623.4</ele>
        <time>2020-07-12T07:58:38Z</time>
      </trkpt>
      <trkpt lat="36.9134030" lon="-3.4288130">
        <ele>624.2</ele>
        <time>2020-07-12T07:58:41Z</time>
      </trkpt>
      <trkpt lat="36.9134300" lon="-3.4287960">
        <ele>624.4</ele>
        <time>2020-07-12T07:58:42Z</time>
      </trkpt>
      <trkpt lat="36.9135950" lon="-3.4287280">
        <ele>625.6</ele>
        <time>2020-07-12T07:58:48Z</time>
      </trkpt>
      <trkpt lat="36.9136240" lon="-3.4287230">
        <ele>625.8</ele>
        <time>2020-07-12T07:58:49Z</time>
      </trkpt>
      <trkpt lat="36.9137400" lon="-3.4287040">
        <ele>626.8</ele>
        <time>2020-07-12T07:58:53Z</time>
      </trkpt>
      <trkpt lat="36.9139020" lon="-3.4286890">
        <ele>627.8</ele>
        <time>2020-07-12T07:58:58Z</time>
      </trkpt>
      <trkpt lat="36.9140630" lon="-3.4286800">
        <ele>629.0</ele>
        <time>2020-07-12T07:59:03Z</time>
      </trkpt>
      <trkpt lat="36.9141900" lon="-3.4286750">
        <ele>629.8</ele>
        <time>2020-07-12T07:59:07Z</time>
      </trkpt>
      <trkpt lat="36.9142180" lon="-3.4286730">
        <ele>630.0</ele>
        <time>2020-07-12T07:59:08Z</time>
      </trkpt>
      <trkpt lat="36.9143710" lon="-3.4286620">
        <ele>631.2</ele>
        <time>2020-07-12T07:59:13Z</time>
      </trkpt>
      <trkpt lat="36.9144920" lon="-3.4286520">
        <ele>632.0</ele>
        <time>2020-07-12T07:59:17Z</time>
      </trkpt>
      <trkpt lat="36.9145530" lon="-3.4286440">
        <ele>632.4</ele>
        <time>2020-07-12T07:59:19Z</time>
      </trkpt>
      <trkpt lat="36.9146940" lon="-3.4285810">
        <ele>633.6</ele>
        <time>2020-07-12T07:59:24Z</time>
      </trkpt>
      <trkpt lat="36.9147140" lon="-3.4285580">
        <ele>634.0</ele>
        <time>2020-07-12T07:59:25Z</time>
      </trkpt>
      <trkpt lat="36.9147700" lon="-3.4284710">
        <ele>634.8</ele>
        <time>2020-07-12T07:59:28Z</time>
      </trkpt>
      <trkpt lat="36.9148300" lon="-3.4283430">
        <ele>635.6</ele>
        <time>2020-07-12T07:59:32Z</time>
      </trkpt>
      <trkpt lat="36.9148410" lon="-3.4283160">
        <ele>635.8</ele>
        <time>2020-07-12T07:59:33Z</time>
      </trkpt>
      <trkpt lat="36.9149100" lon="-3.4281560">
        <ele>637.0</ele>
        <time>2020-07-12T07:59:38Z</time>
      </trkpt>
      <trkpt lat="36.9149590" lon="-3.4280720">
        <ele>637.6</ele>
        <time>2020-07-12T07:59:41Z</time>
      </trkpt>
      <trkpt lat="36.9149960" lon="-3.4280220">
        <ele>638.0</ele>
        <time>2020-07-12T07:59:43Z</time>
      </trkpt>
      <trkpt lat="36.9150850" lon="-3.4279340">
        <ele>639.2</ele>
        <time>2020-07-12T07:59:47Z</time>
      </trkpt>
      <trkpt lat="36.9151080" lon="-3.4279140">
        <ele>639.4</ele>
        <time>2020-07-12T07:59:48Z</time>
      </trkpt>
      <trkpt lat="36.9152010" lon="-3.4278370">
        <ele>640.2</ele>
        <time>2020-07-12T07:59:52Z</time>
      </trkpt>
      <trkpt lat="36.9153200" lon="-3.4277520">
        <ele>641.2</ele>
        <time>2020-07-12T07:59:57Z</time>
      </trkpt>
      <trkpt lat="36.9153420" lon="-3.4277320">
        <ele>641.4</ele>
        <time>2020-07-12T07:59:58Z</time>
      </trkpt>
      <trkpt lat="36.9154390" lon="-3.4276560">
        <ele>642.2</ele>
        <time>2020-07-12T08:00:02Z</time>
      </trkpt>
      <trkpt lat="36.9155740" lon="-3.4275950">
        <ele>643.4</ele>
        <time>2020-07-12T08:00:07Z</time>
      </trkpt>
      <trkpt lat="36.9157840" lon="-3.4276060">
        <ele>644.6</ele>
        <time>2020-07-12T08:00:14Z</time>
      </trkpt>
      <trkpt lat="36.9158730" lon="-3.4276150">
        <ele>645.0</ele>
        <time>2020-07-12T08:00:17Z</time>
      </trkpt>
      <trkpt lat="36.9159310" lon="-3.4276230">
        <ele>645.6</ele>
        <time>2020-07-12T08:00:19Z</time>
      </trkpt>
      <trkpt lat="36.9160760" lon="-3.4276420">
        <ele>646.6</ele>
        <time>2020-07-12T08:00:24Z</time>
      </trkpt>
      <trkpt lat="36.9162200" lon="-3.4276660">
        <ele>647.6</ele>
        <time>2020-07-12T08:00:29Z</time>
      </trkpt>
      <trkpt lat="36.9162460" lon="-3.4276680">
        <ele>647.8</ele>
        <time>2020-07-12T08:00:30Z</time>
      </trkpt>
      <trkpt lat="36.9164230" lon="-3.4276720">
        <ele>649.0</ele>
        <time>2020-07-12T08:00:36Z</time>
      </trkpt>
      <trkpt lat="36.9164820" lon="-3.4276570">
        <ele>649.4</ele>
        <time>2020-07-12T08:00:38Z</time>
      </trkpt>
      <trkpt lat="36.9165700" lon="-3.4276250">
        <ele>650.0</ele>
        <time>2020-07-12T08:00:41Z</time>
      </trkpt>
      <trkpt lat="36.9166950" lon="-3.4275200">
        <ele>651.0</ele>
        <time>2020-07-12T08:00:46Z</time>
      </trkpt>
      <trkpt lat="36.9167160" lon="-3.4274870">
        <ele>651.2</ele>
        <time>2020-07-12T08:00:47Z</time>
      </trkpt>
      <trkpt lat="36.9168430" lon="-3.4272670">
        <ele>652.0</ele>
        <time>2020-07-12T08:00:53Z</time>
      </trkpt>
      <trkpt lat="36.9168850" lon="-3.4271980">
        <ele>652.2</ele>
        <time>2020-07-12T08:00:55Z</time>
      </trkpt>
      <trkpt lat="36.9170710" lon="-3.4269310">
        <ele>653.2</ele>
        <time>2020-07-12T08:01:03Z</time>
      </trkpt>
      <trkpt lat="36.9171830" lon="-3.4267610">
        <ele>654.4</ele>
        <time>2020-07-12T08:01:09Z</time>
      </trkpt>
      <trkpt lat="36.9172260" lon="-3.4266940">
        <ele>655.0</ele>
        <time>2020-07-12T08:01:11Z</time>
      </trkpt>
      <trkpt lat="36.9172620" lon="-3.4266260">
        <ele>655.6</ele>
        <time>2020-07-12T08:01:13Z</time>
      </trkpt>
      <trkpt lat="36.9173210" lon="-3.4264630">
        <ele>656.2</ele>
        <time>2020-07-12T08:01:17Z</time>
      </trkpt>
      <trkpt lat="36.9173510" lon="-3.4263510">
        <ele>656.8</ele>
        <time>2020-07-12T08:01:20Z</time>
      </trkpt>
      <trkpt lat="36.9173980" lon="-3.4261540">
        <ele>657.8</ele>
        <time>2020-07-12T08:01:25Z</time>
      </trkpt>
      <trkpt lat="36.9174670" lon="-3.4259100">
        <ele>659.0</ele>
        <time>2020-07-12T08:01:31Z</time>
      </trkpt>
      <trkpt lat="36.9174830" lon="-3.4258660">
        <ele>659.2</ele>
        <time>2020-07-12T08:01:32Z</time>
      </trkpt>
      <trkpt lat="36.9176250" lon="-3.4255250">
        <ele>659.8</ele>
        <time>2020-07-12T08:01:39Z</time>
      </trkpt>
      <trkpt lat="36.9177860" lon="-3.4252060">
        <ele>659.8</ele>
        <time>2020-07-12T08:01:46Z</time>
      </trkpt>
      <trkpt lat="36.9178630" lon="-3.4251010">
        <ele>659.8</ele>
        <time>2020-07-12T08:01:48Z</time>
      </trkpt>
      <trkpt lat="36.9180130" lon="-3.4249240">
        <ele>659.8</ele>
        <time>2020-07-12T08:01:52Z</time>
      </trkpt>
      <trkpt lat="36.9180530" lon="-3.4248840">
        <ele>660.0</ele>
        <time>2020-07-12T08:01:53Z</time>
      </trkpt>
      <trkpt lat="36.9181260" lon="-3.4248060">
        <ele>660.2</ele>
        <time>2020-07-12T08:01:55Z</time>
      </trkpt>
      <trkpt lat="36.9182950" lon="-3.4246160">
        <ele>661.2</ele>
        <time>2020-07-12T08:02:00Z</time>
      </trkpt>
      <trkpt lat="36.9183250" lon="-3.4245830">
        <ele>661.4</ele>
        <time>2020-07-12T08:02:01Z</time>
      </trkpt>
      <trkpt lat="36.9184860" lon="-3.4243890">
        <ele>662.2</ele>
        <time>2020-07-12T08:02:06Z</time>
      </trkpt>
      <trkpt lat="36.9185780" lon="-3.4242780">
        <ele>662.8</ele>
        <time>2020-07-12T08:02:09Z</time>
      </trkpt>
      <trkpt lat="36.9186690" lon="-3.4241680">
        <ele>663.4</ele>
        <time>2020-07-12T08:02:12Z</time>
      </trkpt>
      <trkpt lat="36.9188190" lon="-3.4239860">
        <ele>664.2</ele>
        <time>2020-07-12T08:02:17Z</time>
      </trkpt>
      <trkpt lat="36.9188500" lon="-3.4239510">
        <ele>664.4</ele>
        <time>2020-07-12T08:02:18Z</time>
      </trkpt>
      <trkpt lat="36.9190530" lon="-3.4237350">
        <ele>665.6</ele>
        <time>2020-07-12T08:02:24Z</time>
      </trkpt>
      <trkpt lat="36.9193530" lon="-3.4233930">
        <ele>666.6</ele>
        <time>2020-07-12T08:02:33Z</time>
      </trkpt>
      <trkpt lat="36.9194730" lon="-3.4232360">
        <ele>667.6</ele>
        <time>2020-07-12T08:02:37Z</time>
      </trkpt>
      <trkpt lat="36.9194930" lon="-3.4231870">
        <ele>667.8</ele>
        <time>2020-07-12T08:02:38Z</time>
      </trkpt>
      <trkpt lat="36.9195000" lon="-3.4231300">
        <ele>668.0</ele>
        <time>2020-07-12T08:02:39Z</time>
      </trkpt>
      <trkpt lat="36.9194270" lon="-3.4229030">
        <ele>668.4</ele>
        <time>2020-07-12T08:02:43Z</time>
      </trkpt>
      <trkpt lat="36.9193470" lon="-3.4228080">
        <ele>668.4</ele>
        <time>2020-07-12T08:02:45Z</time>
      </trkpt>
      <trkpt lat="36.9191870" lon="-3.4226280">
        <ele>668.4</ele>
        <time>2020-07-12T08:02:49Z</time>
      </trkpt>
      <trkpt lat="36.9191160" lon="-3.4225490">
        <ele>668.6</ele>
        <time>2020-07-12T08:02:51Z</time>
      </trkpt>
      <trkpt lat="36.9189960" lon="-3.4223860">
        <ele>669.6</ele>
        <time>2020-07-12T08:02:55Z</time>
      </trkpt>
      <trkpt lat="36.9189770" lon="-3.4223430">
        <ele>669.8</ele>
        <time>2020-07-12T08:02:56Z</time>
      </trkpt>
      <trkpt lat="36.9189450" lon="-3.4221900">
        <ele>670.6</ele>
        <time>2020-07-12T08:02:59Z</time>
      </trkpt>
      <trkpt lat="36.9189390" lon="-3.4221380">
        <ele>671.0</ele>
        <time>2020-07-12T08:03:00Z</time>
      </trkpt>
      <trkpt lat="36.9188960" lon="-3.4218290">
        <ele>672.0</ele>
        <time>2020-07-12T08:03:06Z</time>
      </trkpt>
      <trkpt lat="36.9188820" lon="-3.4216720">
        <ele>672.4</ele>
        <time>2020-07-12T08:03:09Z</time>
      </trkpt>
      <trkpt lat="36.9188710" lon="-3.4214790">
        <ele>673.2</ele>
        <time>2020-07-12T08:03:13Z</time>
      </trkpt>
      <trkpt lat="36.9188550" lon="-3.4212900">
        <ele>674.2</ele>
        <time>2020-07-12T08:03:17Z</time>
      </trkpt>
      <trkpt lat="36.9188540" lon="-3.4212440">
        <ele>674.4</ele>
        <time>2020-07-12T08:03:18Z</time>
      </trkpt>
      <trkpt lat="36.9188790" lon="-3.4210830">
        <ele>675.4</ele>
        <time>2020-07-12T08:03:22Z</time>
      </trkpt>
      <trkpt lat="36.9189090" lon="-3.4210020">
        <ele>676.0</ele>
        <time>2020-07-12T08:03:24Z</time>
      </trkpt>
      <trkpt lat="36.9189700" lon="-3.4208870">
        <ele>676.6</ele>
        <time>2020-07-12T08:03:27Z</time>
      </trkpt>
      <trkpt lat="36.9190560" lon="-3.4207890">
        <ele>677.2</ele>
        <time>2020-07-12T08:03:30Z</time>
      </trkpt>
      <trkpt lat="36.9191440" lon="-3.4206960">
        <ele>677.6</ele>
        <time>2020-07-12T08:03:33Z</time>
      </trkpt>
      <trkpt lat="36.9192950" lon="-3.4205410">
        <ele>678.4</ele>
        <time>2020-07-12T08:03:38Z</time>
      </trkpt>
      <trkpt lat="36.9193830" lon="-3.4204400">
        <ele>678.8</ele>
        <time>2020-07-12T08:03:41Z</time>
      </trkpt>
      <trkpt lat="36.9194110" lon="-3.4203950">
        <ele>678.8</ele>
        <time>2020-07-12T08:03:42Z</time>
      </trkpt>
      <trkpt lat="36.9194760" lon="-3.4202540">
        <ele>679.2</ele>
        <time>2020-07-12T08:03:45Z</time>
      </trkpt>
      <trkpt lat="36.9195430" lon="-3.4199230">
        <ele>679.6</ele>
        <time>2020-07-12T08:03:51Z</time>
      </trkpt>
      <trkpt lat="36.9195760" lon="-3.4198080">
        <ele>679.6</ele>
        <time>2020-07-12T08:03:53Z</time>
      </trkpt>
      <trkpt lat="36.9196960" lon="-3.4196150">
        <ele>679.8</ele>
        <time>2020-07-12T08:03:57Z</time>
      </trkpt>
      <trkpt lat="36.9198890" lon="-3.4195610">
        <ele>680.0</ele>
        <time>2020-07-12T08:04:01Z</time>
      </trkpt>
      <trkpt lat="36.9201310" lon="-3.4196490">
        <ele>680.4</ele>
        <time>2020-07-12T08:04:06Z</time>
      </trkpt>
      <trkpt lat="36.9202200" lon="-3.4196970">
        <ele>680.8</ele>
        <time>2020-07-12T08:04:08Z</time>
      </trkpt>
      <trkpt lat="36.9204600" lon="-3.4198280">
        <ele>682.0</ele>
        <time>2020-07-12T08:04:14Z</time>
      </trkpt>
      <trkpt lat="36.9206450" lon="-3.4199340">
        <ele>683.0</ele>
        <time>2020-07-12T08:04:19Z</time>
      </trkpt>
      <trkpt lat="36.9207860" lon="-3.4200180">
        <ele>684.0</ele>
        <time>2020-07-12T08:04:23Z</time>
      </trkpt>
      <trkpt lat="36.9208220" lon="-3.4200400">
        <ele>684.2</ele>
        <time>2020-07-12T08:04:24Z</time>
      </trkpt>
      <trkpt lat="36.9209910" lon="-3.4201440">
        <ele>685.2</ele>
        <time>2020-07-12T08:04:29Z</time>
      </trkpt>
      <trkpt lat="36.9210930" lon="-3.4202000">
        <ele>685.8</ele>
        <time>2020-07-12T08:04:32Z</time>
      </trkpt>
      <trkpt lat="36.9211580" lon="-3.4202400">
        <ele>686.2</ele>
        <time>2020-07-12T08:04:34Z</time>
      </trkpt>
      <trkpt lat="36.9213570" lon="-3.4203590">
        <ele>687.4</ele>
        <time>2020-07-12T08:04:40Z</time>
      </trkpt>
      <trkpt lat="36.9213890" lon="-3.4203770">
        <ele>687.6</ele>
        <time>2020-07-12T08:04:41Z</time>
      </trkpt>
      <trkpt lat="36.9215690" lon="-3.4204500">
        <ele>688.6</ele>
        <time>2020-07-12T08:04:46Z</time>
      </trkpt>
      <trkpt lat="36.9216110" lon="-3.4204570">
        <ele>688.8</ele>
        <time>2020-07-12T08:04:47Z</time>
      </trkpt>
      <trkpt lat="36.9216950" lon="-3.4204580">
        <ele>689.2</ele>
        <time>2020-07-12T08:04:49Z</time>
      </trkpt>
      <trkpt lat="36.9218330" lon="-3.4204010">
        <ele>689.6</ele>
        <time>2020-07-12T08:04:52Z</time>
      </trkpt>
      <trkpt lat="36.9219560" lon="-3.4202710">
        <ele>690.0</ele>
        <time>2020-07-12T08:04:55Z</time>
      </trkpt>
      <trkpt lat="36.9219880" lon="-3.4202260">
        <ele>689.8</ele>
        <time>2020-07-12T08:04:56Z</time>
      </trkpt>
      <trkpt lat="36.9220170" lon="-3.4201640">
        <ele>690.0</ele>
        <time>2020-07-12T08:04:57Z</time>
      </trkpt>
      <trkpt lat="36.9220350" lon="-3.4199210">
        <ele>690.2</ele>
        <time>2020-07-12T08:05:01Z</time>
      </trkpt>
      <trkpt lat="36.9220280" lon="-3.4198610">
        <ele>690.4</ele>
        <time>2020-07-12T08:05:02Z</time>
      </trkpt>
      <trkpt lat="36.9220120" lon="-3.4197560">
        <ele>690.8</ele>
        <time>2020-07-12T08:05:04Z</time>
      </trkpt>
      <trkpt lat="36.9219790" lon="-3.4195610">
        <ele>692.0</ele>
        <time>2020-07-12T08:05:08Z</time>
      </trkpt>
      <trkpt lat="36.9219350" lon="-3.4193390">
        <ele>693.2</ele>
        <time>2020-07-12T08:05:13Z</time>
      </trkpt>
      <trkpt lat="36.9219190" lon="-3.4192520">
        <ele>693.6</ele>
        <time>2020-07-12T08:05:15Z</time>
      </trkpt>
      <trkpt lat="36.9218970" lon="-3.4191290">
        <ele>694.4</ele>
        <time>2020-07-12T08:05:18Z</time>
      </trkpt>
      <trkpt lat="36.9218740" lon="-3.4190120">
        <ele>695.0</ele>
        <time>2020-07-12T08:05:21Z</time>
      </trkpt>
      <trkpt lat="36.9218510" lon="-3.4188750">
        <ele>695.6</ele>
        <time>2020-07-12T08:05:24Z</time>
      </trkpt>
      <trkpt lat="36.9218100" lon="-3.4186170">
        <ele>696.4</ele>
        <time>2020-07-12T08:05:29Z</time>
      </trkpt>
      <trkpt lat="36.9218080" lon="-3.4185610">
        <ele>696.6</ele>
        <time>2020-07-12T08:05:30Z</time>
      </trkpt>
      <trkpt lat="36.9218160" lon="-3.4184490">
        <ele>697.0</ele>
        <time>2020-07-12T08:05:32Z</time>
      </trkpt>
      <trkpt lat="36.9218360" lon="-3.4183410">
        <ele>697.0</ele>
        <time>2020-07-12T08:05:34Z</time>
      </trkpt>
      <trkpt lat="36.9219100" lon="-3.4180620">
        <ele>697.8</ele>
        <time>2020-07-12T08:05:39Z</time>
      </trkpt>
      <trkpt lat="36.9219910" lon="-3.4177930">
        <ele>698.0</ele>
        <time>2020-07-12T08:05:44Z</time>
      </trkpt>
      <trkpt lat="36.9220890" lon="-3.4174700">
        <ele>698.8</ele>
        <time>2020-07-12T08:05:50Z</time>
      </trkpt>
      <trkpt lat="36.9221660" lon="-3.4171990">
        <ele>699.4</ele>
        <time>2020-07-12T08:05:55Z</time>
      </trkpt>
      <trkpt lat="36.9222290" lon="-3.4170010">
        <ele>700.0</ele>
        <time>2020-07-12T08:05:59Z</time>
      </trkpt>
      <trkpt lat="36.9222950" lon="-3.4167700">
        <ele>701.0</ele>
        <time>2020-07-12T08:06:04Z</time>
      </trkpt>
      <trkpt lat="36.9223600" lon="-3.4165500">
        <ele>702.2</ele>
        <time>2020-07-12T08:06:09Z</time>
      </trkpt>
      <trkpt lat="36.9224020" lon="-3.4164160">
        <ele>702.8</ele>
        <time>2020-07-12T08:06:12Z</time>
      </trkpt>
      <trkpt lat="36.9224420" lon="-3.4162860">
        <ele>703.4</ele>
        <time>2020-07-12T08:06:15Z</time>
      </trkpt>
      <trkpt lat="36.9225260" lon="-3.4160720">
        <ele>704.4</ele>
        <time>2020-07-12T08:06:20Z</time>
      </trkpt>
      <trkpt lat="36.9225440" lon="-3.4160300">
        <ele>704.6</ele>
        <time>2020-07-12T08:06:21Z</time>
      </trkpt>
      <trkpt lat="36.9225680" lon="-3.4159860">
        <ele>704.8</ele>
        <time>2020-07-12T08:06:22Z</time>
      </trkpt>
      <trkpt lat="36.9226900" lon="-3.4158340">
        <ele>705.6</ele>
        <time>2020-07-12T08:06:26Z</time>
      </trkpt>
      <trkpt lat="36.9229580" lon="-3.4156060">
        <ele>706.6</ele>
        <time>2020-07-12T08:06:33Z</time>
      </trkpt>
      <trkpt lat="36.9229950" lon="-3.4155740">
        <ele>706.8</ele>
        <time>2020-07-12T08:06:34Z</time>
      </trkpt>
      <trkpt lat="36.9231880" lon="-3.4154240">
        <ele>707.2</ele>
        <time>2020-07-12T08:06:39Z</time>
      </trkpt>
      <trkpt lat="36.9233010" lon="-3.4153300">
        <ele>707.6</ele>
        <time>2020-07-12T08:06:42Z</time>
      </trkpt>
      <trkpt lat="36.9236030" lon="-3.4151060">
        <ele>708.6</ele>
        <time>2020-07-12T08:06:50Z</time>
      </trkpt>
      <trkpt lat="36.9236420" lon="-3.4150830">
        <ele>708.8</ele>
        <time>2020-07-12T08:06:51Z</time>
      </trkpt>
      <trkpt lat="36.9236850" lon="-3.4150660">
        <ele>709.0</ele>
        <time>2020-07-12T08:06:52Z</time>
      </trkpt>
      <trkpt lat="36.9238350" lon="-3.4150570">
        <ele>709.4</ele>
        <time>2020-07-12T08:06:55Z</time>
      </trkpt>
      <trkpt lat="36.9239410" lon="-3.4150600">
        <ele>709.8</ele>
        <time>2020-07-12T08:06:57Z</time>
      </trkpt>
      <trkpt lat="36.9242660" lon="-3.4151240">
        <ele>710.6</ele>
        <time>2020-07-12T08:07:03Z</time>
      </trkpt>
      <trkpt lat="36.9243160" lon="-3.4151410">
        <ele>710.8</ele>
        <time>2020-07-12T08:07:04Z</time>
      </trkpt>
      <trkpt lat="36.9246650" lon="-3.4152670">
        <ele>711.8</ele>
        <time>2020-07-12T08:07:11Z</time>
      </trkpt>
      <trkpt lat="36.9247700" lon="-3.4153030">
        <ele>712.2</ele>
        <time>2020-07-12T08:07:13Z</time>
      </trkpt>
      <trkpt lat="36.9250640" lon="-3.4154150">
        <ele>713.0</ele>
        <time>2020-07-12T08:07:19Z</time>
      </trkpt>
      <trkpt lat="36.9252420" lon="-3.4155220">
        <ele>713.4</ele>
        <time>2020-07-12T08:07:23Z</time>
      </trkpt>
      <trkpt lat="36.9254160" lon="-3.4156310">
        <ele>714.0</ele>
        <time>2020-07-12T08:07:27Z</time>
      </trkpt>
      <trkpt lat="36.9255070" lon="-3.4156680">
        <ele>714.2</ele>
        <time>2020-07-12T08:07:29Z</time>
      </trkpt>
      <trkpt lat="36.9255990" lon="-3.4156810">
        <ele>714.6</ele>
        <time>2020-07-12T08:07:31Z</time>
      </trkpt>
      <trkpt lat="36.9257930" lon="-3.4156950">
        <ele>715.0</ele>
        <time>2020-07-12T08:07:35Z</time>
      </trkpt>
      <trkpt lat="36.9259750" lon="-3.4157020">
        <ele>715.6</ele>
        <time>2020-07-12T08:07:39Z</time>
      </trkpt>
      <trkpt lat="36.9261120" lon="-3.4157000">
        <ele>716.2</ele>
        <time>2020-07-12T08:07:42Z</time>
      </trkpt>
      <trkpt lat="36.9262890" lon="-3.4156480">
        <ele>716.6</ele>
        <time>2020-07-12T08:07:46Z</time>
      </trkpt>
      <trkpt lat="36.9264900" lon="-3.4154720">
        <ele>717.2</ele>
        <time>2020-07-12T08:07:51Z</time>
      </trkpt>
      <trkpt lat="36.9265230" lon="-3.4154260">
        <ele>717.2</ele>
        <time>2020-07-12T08:07:52Z</time>
      </trkpt>
      <trkpt lat="36.9266490" lon="-3.4151770">
        <ele>718.0</ele>
        <time>2020-07-12T08:07:57Z</time>
      </trkpt>
      <trkpt lat="36.9266670" lon="-3.4151240">
        <ele>718.2</ele>
        <time>2020-07-12T08:07:58Z</time>
      </trkpt>
      <trkpt lat="36.9267250" lon="-3.4148290">
        <ele>719.2</ele>
        <time>2020-07-12T08:08:03Z</time>
      </trkpt>
      <trkpt lat="36.9267290" lon="-3.4147720">
        <ele>719.2</ele>
        <time>2020-07-12T08:08:04Z</time>
      </trkpt>
      <trkpt lat="36.9267220" lon="-3.4145460">
        <ele>720.0</ele>
        <time>2020-07-12T08:08:08Z</time>
      </trkpt>
      <trkpt lat="36.9267030" lon="-3.4144450">
        <ele>720.4</ele>
        <time>2020-07-12T08:08:10Z</time>
      </trkpt>
      <trkpt lat="36.9266360" lon="-3.4142780">
        <ele>721.6</ele>
        <time>2020-07-12T08:08:14Z</time>
      </trkpt>
      <trkpt lat="36.9266150" lon="-3.4142440">
        <ele>721.8</ele>
        <time>2020-07-12T08:08:15Z</time>
      </trkpt>
      <trkpt lat="36.9265490" lon="-3.4141560">
        <ele>722.8</ele>
        <time>2020-07-12T08:08:18Z</time>
      </trkpt>
      <trkpt lat="36.9264630" lon="-3.4140530">
        <ele>723.8</ele>
        <time>2020-07-12T08:08:22Z</time>
      </trkpt>
      <trkpt lat="36.9264050" lon="-3.4139170">
        <ele>725.0</ele>
        <time>2020-07-12T08:08:26Z</time>
      </trkpt>
      <trkpt lat="36.9263950" lon="-3.4138430">
        <ele>725.4</ele>
        <time>2020-07-12T08:08:28Z</time>
      </trkpt>
      <trkpt lat="36.9264090" lon="-3.4137270">
        <ele>726.0</ele>
        <time>2020-07-12T08:08:31Z</time>
      </trkpt>
      <trkpt lat="36.9264360" lon="-3.4136510">
        <ele>726.4</ele>
        <time>2020-07-12T08:08:33Z</time>
      </trkpt>
      <trkpt lat="36.9264890" lon="-3.4135060">
        <ele>727.2</ele>
        <time>2020-07-12T08:08:37Z</time>
      </trkpt>
      <trkpt lat="36.9265150" lon="-3.4133790">
        <ele>727.8</ele>
        <time>2020-07-12T08:08:41Z</time>
      </trkpt>
      <trkpt lat="36.9265070" lon="-3.4133210">
        <ele>728.4</ele>
        <time>2020-07-12T08:08:43Z</time>
      </trkpt>
      <trkpt lat="36.9264850" lon="-3.4132690">
        <ele>729.0</ele>
        <time>2020-07-12T08:08:45Z</time>
      </trkpt>
      <trkpt lat="36.9264540" lon="-3.4132260">
        <ele>729.6</ele>
        <time>2020-07-12T08:08:47Z</time>
      </trkpt>
      <trkpt lat="36.9263720" lon="-3.4131750">
        <ele>730.8</ele>
        <time>2020-07-12T08:08:51Z</time>
      </trkpt>
      <trkpt lat="36.9262620" lon="-3.4131430">
        <ele>732.0</ele>
        <time>2020-07-12T08:08:55Z</time>
      </trkpt>
      <trkpt lat="36.9261480" lon="-3.4131090">
        <ele>732.6</ele>
        <time>2020-07-12T08:08:59Z</time>
      </trkpt>
      <trkpt lat="36.9260640" lon="-3.4130710">
        <ele>733.0</ele>
        <time>2020-07-12T08:09:02Z</time>
      </trkpt>
      <trkpt lat="36.9259450" lon="-3.4129670">
        <ele>733.8</ele>
        <time>2020-07-12T08:09:07Z</time>
      </trkpt>
      <trkpt lat="36.9259030" lon="-3.4129170">
        <ele>734.2</ele>
        <time>2020-07-12T08:09:09Z</time>
      </trkpt>
      <trkpt lat="36.9258220" lon="-3.4127750">
        <ele>735.2</ele>
        <time>2020-07-12T08:09:14Z</time>
      </trkpt>
      <trkpt lat="36.9257850" lon="-3.4125640">
        <ele>736.4</ele>
        <time>2020-07-12T08:09:20Z</time>
      </trkpt>
      <trkpt lat="36.9257850" lon="-3.4125290">
        <ele>736.6</ele>
        <time>2020-07-12T08:09:21Z</time>
      </trkpt>
      <trkpt lat="36.9257950" lon="-3.4123860">
        <ele>737.4</ele>
        <time>2020-07-12T08:09:25Z</time>
      </trkpt>
      <trkpt lat="36.9258190" lon="-3.4122200">
        <ele>738.4</ele>
        <time>2020-07-12T08:09:30Z</time>
      </trkpt>
      <trkpt lat="36.9258230" lon="-3.4121890">
        <ele>738.6</ele>
        <time>2020-07-12T08:09:31Z</time>
      </trkpt>
      <trkpt lat="36.9258360" lon="-3.4120280">
        <ele>739.8</ele>
        <time>2020-07-12T08:09:36Z</time>
      </trkpt>
      <trkpt lat="36.9258490" lon="-3.4118950">
        <ele>740.6</ele>
        <time>2020-07-12T08:09:40Z</time>
      </trkpt>
      <trkpt lat="36.9258570" lon="-3.4118230">
        <ele>741.0</ele>
        <time>2020-07-12T08:09:42Z</time>
      </trkpt>
      <trkpt lat="36.9258820" lon="-3.4116200">
        <ele>742.0</ele>
        <time>2020-07-12T08:09:48Z</time>
      </trkpt>
      <trkpt lat="36.9258940" lon="-3.4115210">
        <ele>742.8</ele>
        <time>2020-07-12T08:09:51Z</time>
      </trkpt>
      <trkpt lat="36.9259010" lon="-3.4114500">
        <ele>743.2</ele>
        <time>2020-07-12T08:09:53Z</time>
      </trkpt>
      <trkpt lat="36.9259230" lon="-3.4112910">
        <ele>744.2</ele>
        <time>2020-07-12T08:09:58Z</time>
      </trkpt>
      <trkpt lat="36.9259260" lon="-3.4112230">
        <ele>744.6</ele>
        <time>2020-07-12T08:10:00Z</time>
      </trkpt>
      <trkpt lat="36.9259110" lon="-3.4110840">
        <ele>745.4</ele>
        <time>2020-07-12T08:10:04Z</time>
      </trkpt>
      <trkpt lat="36.9258730" lon="-3.4109930">
        <ele>745.8</ele>
        <time>2020-07-12T08:10:07Z</time>
      </trkpt>
      <trkpt lat="36.9258350" lon="-3.4109500">
        <ele>746.4</ele>
        <time>2020-07-12T08:10:09Z</time>
      </trkpt>
      <trkpt lat="36.9257620" lon="-3.4109100">
        <ele>746.8</ele>
        <time>2020-07-12T08:10:12Z</time>
      </trkpt>
      <trkpt lat="36.9257100" lon="-3.4109140">
        <ele>747.4</ele>
        <time>2020-07-12T08:10:14Z</time>
      </trkpt>
      <trkpt lat="36.9256300" lon="-3.4109400">
        <ele>748.0</ele>
        <time>2020-07-12T08:10:17Z</time>
      </trkpt>
      <trkpt lat="36.9255790" lon="-3.4109710">
        <ele>748.6</ele>
        <time>2020-07-12T08:10:19Z</time>
      </trkpt>
      <trkpt lat="36.9254640" lon="-3.4110540">
        <ele>749.6</ele>
        <time>2020-07-12T08:10:24Z</time>
      </trkpt>
      <trkpt lat="36.9254420" lon="-3.4110640">
        <ele>749.8</ele>
        <time>2020-07-12T08:10:25Z</time>
      </trkpt>
      <trkpt lat="36.9253660" lon="-3.4110970">
        <ele>750.6</ele>
        <time>2020-07-12T08:10:28Z</time>
      </trkpt>
      <trkpt lat="36.9252860" lon="-3.4111080">
        <ele>751.4</ele>
        <time>2020-07-12T08:10:31Z</time>
      </trkpt>
      <trkpt lat="36.9252300" lon="-3.4111040">
        <ele>751.8</ele>
        <time>2020-07-12T08:10:33Z</time>
      </trkpt>
      <trkpt lat="36.9251300" lon="-3.4110510">
        <ele>752.6</ele>
        <time>2020-07-12T08:10:37Z</time>
      </trkpt>
      <trkpt lat="36.9251040" lon="-3.4110280">
        <ele>752.8</ele>
        <time>2020-07-12T08:10:38Z</time>
      </trkpt>
      <trkpt lat="36.9250040" lon="-3.4108850">
        <ele>753.8</ele>
        <time>2020-07-12T08:10:43Z</time>
      </trkpt>
      <trkpt lat="36.9249090" lon="-3.4106940">
        <ele>755.0</ele>
        <time>2020-07-12T08:10:49Z</time>
      </trkpt>
      <trkpt lat="36.9248610" lon="-3.4106030">
        <ele>755.6</ele>
        <time>2020-07-12T08:10:52Z</time>
      </trkpt>
      <trkpt lat="36.9248310" lon="-3.4105400">
        <ele>756.2</ele>
        <time>2020-07-12T08:10:54Z</time>
      </trkpt>
      <trkpt lat="36.9247450" lon="-3.4103900">
        <ele>757.4</ele>
        <time>2020-07-12T08:10:59Z</time>
      </trkpt>
      <trkpt lat="36.9246960" lon="-3.4102990">
        <ele>758.0</ele>
        <time>2020-07-12T08:11:02Z</time>
      </trkpt>
      <trkpt lat="36.9246660" lon="-3.4102390">
        <ele>758.4</ele>
        <time>2020-07-12T08:11:04Z</time>
      </trkpt>
      <trkpt lat="36.9245710" lon="-3.4100630">
        <ele>759.4</ele>
        <time>2020-07-12T08:11:10Z</time>
      </trkpt>
      <trkpt lat="36.9244730" lon="-3.4098760">
        <ele>760.6</ele>
        <time>2020-07-12T08:11:16Z</time>
      </trkpt>
      <trkpt lat="36.9244210" lon="-3.4097790">
        <ele>761.2</ele>
        <time>2020-07-12T08:11:19Z</time>
      </trkpt>
      <trkpt lat="36.9243690" lon="-3.4096850">
        <ele>761.6</ele>
        <time>2020-07-12T08:11:22Z</time>
      </trkpt>
      <trkpt lat="36.9242680" lon="-3.4094930">
        <ele>762.8</ele>
        <time>2020-07-12T08:11:28Z</time>
      </trkpt>
      <trkpt lat="36.9242540" lon="-3.4094580">
        <ele>763.0</ele>
        <time>2020-07-12T08:11:29Z</time>
      </trkpt>
      <trkpt lat="36.9242100" lon="-3.4092630">
        <ele>763.8</ele>
        <time>2020-07-12T08:11:34Z</time>
      </trkpt>
      <trkpt lat="36.9242050" lon="-3.4091810">
        <ele>764.2</ele>
        <time>2020-07-12T08:11:36Z</time>
      </trkpt>
      <trkpt lat="36.9241950" lon="-3.4089810">
        <ele>765.0</ele>
        <time>2020-07-12T08:11:41Z</time>
      </trkpt>
      <trkpt lat="36.9242150" lon="-3.4088230">
        <ele>766.0</ele>
        <time>2020-07-12T08:11:45Z</time>
      </trkpt>
      <trkpt lat="36.9242210" lon="-3.4087860">
        <ele>766.2</ele>
        <time>2020-07-12T08:11:46Z</time>
      </trkpt>
      <trkpt lat="36.9242850" lon="-3.4085660">
        <ele>767.2</ele>
        <time>2020-07-12T08:11:52Z</time>
      </trkpt>
      <trkpt lat="36.9243100" lon="-3.4084940">
        <ele>767.6</ele>
        <time>2020-07-12T08:11:54Z</time>
      </trkpt>
      <trkpt lat="36.9243670" lon="-3.4083320">
        <ele>768.4</ele>
        <time>2020-07-12T08:11:59Z</time>
      </trkpt>
      <trkpt lat="36.9244340" lon="-3.4081590">
        <ele>769.6</ele>
        <time>2020-07-12T08:12:04Z</time>
      </trkpt>
      <trkpt lat="36.9244490" lon="-3.4081280">
        <ele>769.8</ele>
        <time>2020-07-12T08:12:05Z</time>
      </trkpt>
      <trkpt lat="36.9245190" lon="-3.4080210">
        <ele>770.6</ele>
        <time>2020-07-12T08:12:09Z</time>
      </trkpt>
      <trkpt lat="36.9246170" lon="-3.4079300">
        <ele>771.4</ele>
        <time>2020-07-12T08:12:13Z</time>
      </trkpt>
      <trkpt lat="36.9246700" lon="-3.4078810">
        <ele>771.8</ele>
        <time>2020-07-12T08:12:15Z</time>
      </trkpt>
      <trkpt lat="36.9248000" lon="-3.4077240">
        <ele>772.4</ele>
        <time>2020-07-12T08:12:20Z</time>
      </trkpt>
      <trkpt lat="36.9248820" lon="-3.4075540">
        <ele>773.0</ele>
        <time>2020-07-12T08:12:25Z</time>
      </trkpt>
      <trkpt lat="36.9249110" lon="-3.4074880">
        <ele>773.6</ele>
        <time>2020-07-12T08:12:27Z</time>
      </trkpt>
      <trkpt lat="36.9249380" lon="-3.4074270">
        <ele>774.2</ele>
        <time>2020-07-12T08:12:29Z</time>
      </trkpt>
      <trkpt lat="36.9249800" lon="-3.4072590">
        <ele>775.4</ele>
        <time>2020-07-12T08:12:34Z</time>
      </trkpt>
      <trkpt lat="36.9249870" lon="-3.4071910">
        <ele>776.0</ele>
        <time>2020-07-12T08:12:36Z</time>
      </trkpt>
      <trkpt lat="36.9249900" lon="-3.4071160">
        <ele>776.4</ele>
        <time>2020-07-12T08:12:38Z</time>
      </trkpt>
      <trkpt lat="36.9249820" lon="-3.4068640">
        <ele>777.6</ele>
        <time>2020-07-12T08:12:45Z</time>
      </trkpt>
      <trkpt lat="36.9250010" lon="-3.4067320">
        <ele>778.6</ele>
        <time>2020-07-12T08:12:49Z</time>
      </trkpt>
      <trkpt lat="36.9250300" lon="-3.4066350">
        <ele>779.2</ele>
        <time>2020-07-12T08:12:52Z</time>
      </trkpt>
      <trkpt lat="36.9250490" lon="-3.4065740">
        <ele>779.6</ele>
        <time>2020-07-12T08:12:54Z</time>
      </trkpt>
      <trkpt lat="36.9251120" lon="-3.4064440">
        <ele>780.6</ele>
        <time>2020-07-12T08:12:59Z</time>
      </trkpt>
      <trkpt lat="36.9251280" lon="-3.4064200">
        <ele>780.8</ele>
        <time>2020-07-12T08:13:00Z</time>
      </trkpt>
      <trkpt lat="36.9251850" lon="-3.4063230">
        <ele>781.8</ele>
        <time>2020-07-12T08:13:04Z</time>
      </trkpt>
      <trkpt lat="36.9252390" lon="-3.4062520">
        <ele>782.6</ele>
        <time>2020-07-12T08:13:07Z</time>
      </trkpt>
      <trkpt lat="36.9252710" lon="-3.4062110">
        <ele>783.0</ele>
        <time>2020-07-12T08:13:09Z</time>
      </trkpt>
      <trkpt lat="36.9253470" lon="-3.4060940">
        <ele>784.2</ele>
        <time>2020-07-12T08:13:14Z</time>
      </trkpt>
      <trkpt lat="36.9254150" lon="-3.4059620">
        <ele>785.2</ele>
        <time>2020-07-12T08:13:19Z</time>
      </trkpt>
      <trkpt lat="36.9254400" lon="-3.4059060">
        <ele>785.6</ele>
        <time>2020-07-12T08:13:21Z</time>
      </trkpt>
      <trkpt lat="36.9254720" lon="-3.4058180">
        <ele>786.2</ele>
        <time>2020-07-12T08:13:24Z</time>
      </trkpt>
      <trkpt lat="36.9254920" lon="-3.4057240">
        <ele>786.8</ele>
        <time>2020-07-12T08:13:27Z</time>
      </trkpt>
      <trkpt lat="36.9255010" lon="-3.4056570">
        <ele>787.2</ele>
        <time>2020-07-12T08:13:29Z</time>
      </trkpt>
      <trkpt lat="36.9255090" lon="-3.4054510">
        <ele>788.4</ele>
        <time>2020-07-12T08:13:35Z</time>
      </trkpt>
      <trkpt lat="36.9255050" lon="-3.4052750">
        <ele>789.6</ele>
        <time>2020-07-12T08:13:40Z</time>
      </trkpt>
      <trkpt lat="36.9254950" lon="-3.4051730">
        <ele>790.2</ele>
        <time>2020-07-12T08:13:43Z</time>
      </trkpt>
      <trkpt lat="36.9254850" lon="-3.4050770">
        <ele>790.6</ele>
        <time>2020-07-12T08:13:46Z</time>
      </trkpt>
      <trkpt lat="36.9254900" lon="-3.4049180">
        <ele>791.8</ele>
        <time>2020-07-12T08:13:51Z</time>
      </trkpt>
      <trkpt lat="36.9255200" lon="-3.4047950">
        <ele>792.8</ele>
        <time>2020-07-12T08:13:55Z</time>
      </trkpt>
      <trkpt lat="36.9255280" lon="-3.4047610">
        <ele>793.2</ele>
        <time>2020-07-12T08:13:56Z</time>
      </trkpt>
      <trkpt lat="36.9255790" lon="-3.4046160">
        <ele>794.0</ele>
        <time>2020-07-12T08:14:00Z</time>
      </trkpt>
      <trkpt lat="36.9256150" lon="-3.4045560">
        <ele>794.4</ele>
        <time>2020-07-12T08:14:02Z</time>
      </trkpt>
      <trkpt lat="36.9256740" lon="-3.4044810">
        <ele>795.0</ele>
        <time>2020-07-12T08:14:05Z</time>
      </trkpt>
      <trkpt lat="36.9257650" lon="-3.4043570">
        <ele>796.2</ele>
        <time>2020-07-12T08:14:10Z</time>
      </trkpt>
      <trkpt lat="36.9257830" lon="-3.4043290">
        <ele>796.4</ele>
        <time>2020-07-12T08:14:11Z</time>
      </trkpt>
      <trkpt lat="36.9258350" lon="-3.4041680">
        <ele>797.4</ele>
        <time>2020-07-12T08:14:16Z</time>
      </trkpt>
      <trkpt lat="36.9258370" lon="-3.4041310">
        <ele>797.6</ele>
        <time>2020-07-12T08:14:17Z</time>
      </trkpt>
      <trkpt lat="36.9258260" lon="-3.4039940">
        <ele>798.6</ele>
        <time>2020-07-12T08:14:21Z</time>
      </trkpt>
      <trkpt lat="36.9257930" lon="-3.4038630">
        <ele>799.4</ele>
        <time>2020-07-12T08:14:25Z</time>
      </trkpt>
      <trkpt lat="36.9257850" lon="-3.4038330">
        <ele>799.6</ele>
        <time>2020-07-12T08:14:26Z</time>
      </trkpt>
      <trkpt lat="36.9257420" lon="-3.4037120">
        <ele>800.6</ele>
        <time>2020-07-12T08:14:30Z</time>
      </trkpt>
      <trkpt lat="36.9256940" lon="-3.4035650">
        <ele>801.6</ele>
        <time>2020-07-12T08:14:35Z</time>
      </trkpt>
      <trkpt lat="36.9256850" lon="-3.4035370">
        <ele>801.8</ele>
        <time>2020-07-12T08:14:36Z</time>
      </trkpt>
      <trkpt lat="36.9256380" lon="-3.4033790">
        <ele>802.8</ele>
        <time>2020-07-12T08:14:41Z</time>
      </trkpt>
      <trkpt lat="36.9255950" lon="-3.4032840">
        <ele>803.2</ele>
        <time>2020-07-12T08:14:44Z</time>
      </trkpt>
      <trkpt lat="36.9255190" lon="-3.4031850">
        <ele>804.0</ele>
        <time>2020-07-12T08:14:48Z</time>
      </trkpt>
      <trkpt lat="36.9254510" lon="-3.4031230">
        <ele>804.4</ele>
        <time>2020-07-12T08:14:51Z</time>
      </trkpt>
      <trkpt lat="36.9253800" lon="-3.4030590">
        <ele>805.0</ele>
        <time>2020-07-12T08:14:54Z</time>
      </trkpt>
      <trkpt lat="36.9252700" lon="-3.4029590">
        <ele>806.2</ele>
        <time>2020-07-12T08:14:59Z</time>
      </trkpt>
      <trkpt lat="36.9252530" lon="-3.4029430">
        <ele>806.4</ele>
        <time>2020-07-12T08:15:00Z</time>
      </trkpt>
      <trkpt lat="36.9251730" lon="-3.4028370">
        <ele>807.4</ele>
        <time>2020-07-12T08:15:04Z</time>
      </trkpt>
      <trkpt lat="36.9251390" lon="-3.4027360">
        <ele>808.2</ele>
        <time>2020-07-12T08:15:07Z</time>
      </trkpt>
      <trkpt lat="36.9251330" lon="-3.4026570">
        <ele>808.6</ele>
        <time>2020-07-12T08:15:09Z</time>
      </trkpt>
      <trkpt lat="36.9251280" lon="-3.4025320">
        <ele>809.2</ele>
        <time>2020-07-12T08:15:12Z</time>
      </trkpt>
      <trkpt lat="36.9251290" lon="-3.4024070">
        <ele>809.8</ele>
        <time>2020-07-12T08:15:15Z</time>
      </trkpt>
      <trkpt lat="36.9251320" lon="-3.4021950">
        <ele>810.6</ele>
        <time>2020-07-12T08:15:20Z</time>
      </trkpt>
      <trkpt lat="36.9251320" lon="-3.4021560">
        <ele>810.8</ele>
        <time>2020-07-12T08:15:21Z</time>
      </trkpt>
      <trkpt lat="36.9251280" lon="-3.4019450">
        <ele>812.0</ele>
        <time>2020-07-12T08:15:26Z</time>
      </trkpt>
      <trkpt lat="36.9251230" lon="-3.4017320">
        <ele>813.2</ele>
        <time>2020-07-12T08:15:31Z</time>
      </trkpt>
      <trkpt lat="36.9251300" lon="-3.4015140">
        <ele>814.4</ele>
        <time>2020-07-12T08:15:36Z</time>
      </trkpt>
      <trkpt lat="36.9251320" lon="-3.4011930">
        <ele>815.4</ele>
        <time>2020-07-12T08:15:43Z</time>
      </trkpt>
      <trkpt lat="36.9250530" lon="-3.4009340">
        <ele>816.0</ele>
        <time>2020-07-12T08:15:49Z</time>
      </trkpt>
      <trkpt lat="36.9250070" lon="-3.4008150">
        <ele>816.4</ele>
        <time>2020-07-12T08:15:52Z</time>
      </trkpt>
      <trkpt lat="36.9249420" lon="-3.4005640">
        <ele>817.4</ele>
        <time>2020-07-12T08:15:58Z</time>
      </trkpt>
      <trkpt lat="36.9248960" lon="-3.4003160">
        <ele>818.6</ele>
        <time>2020-07-12T08:16:04Z</time>
      </trkpt>
      <trkpt lat="36.9248580" lon="-3.4001210">
        <ele>819.8</ele>
        <time>2020-07-12T08:16:09Z</time>
      </trkpt>
      <trkpt lat="36.9248520" lon="-3.4000830">
        <ele>820.0</ele>
        <time>2020-07-12T08:16:10Z</time>
      </trkpt>
      <trkpt lat="36.9248230" lon="-3.3999050">
        <ele>821.0</ele>
        <time>2020-07-12T08:16:15Z</time>
      </trkpt>
      <trkpt lat="36.9248030" lon="-3.3997700">
        <ele>822.0</ele>
        <time>2020-07-12T08:16:19Z</time>
      </trkpt>
      <trkpt lat="36.9247970" lon="-3.3997360">
        <ele>822.0</ele>
        <time>2020-07-12T08:16:20Z</time>
      </trkpt>
      <trkpt lat="36.9247710" lon="-3.3995710">
        <ele>823.2</ele>
        <time>2020-07-12T08:16:25Z</time>
      </trkpt>
      <trkpt lat="36.9247470" lon="-3.3994070">
        <ele>824.2</ele>
        <time>2020-07-12T08:16:30Z</time>
      </trkpt>
      <trkpt lat="36.9247270" lon="-3.3992540">
        <ele>825.2</ele>
        <time>2020-07-12T08:16:35Z</time>
      </trkpt>
      <trkpt lat="36.9247070" lon="-3.3991370">
        <ele>826.0</ele>
        <time>2020-07-12T08:16:39Z</time>
      </trkpt>
      <trkpt lat="36.9247060" lon="-3.3991080">
        <ele>826.4</ele>
        <time>2020-07-12T08:16:40Z</time>
      </trkpt>
      <trkpt lat="36.9246870" lon="-3.3989490">
        <ele>827.4</ele>
        <time>2020-07-12T08:16:45Z</time>
      </trkpt>
      <trkpt lat="36.9246820" lon="-3.3989200">
        <ele>827.6</ele>
        <time>2020-07-12T08:16:46Z</time>
      </trkpt>
      <trkpt lat="36.9246540" lon="-3.3987850">
        <ele>828.6</ele>
        <time>2020-07-12T08:16:50Z</time>
      </trkpt>
      <trkpt lat="36.9245870" lon="-3.3986560">
        <ele>829.4</ele>
        <time>2020-07-12T08:16:54Z</time>
      </trkpt>
      <trkpt lat="36.9245280" lon="-3.3986070">
        <ele>829.8</ele>
        <time>2020-07-12T08:16:56Z</time>
      </trkpt>
      <trkpt lat="36.9243850" lon="-3.3984970">
        <ele>830.2</ele>
        <time>2020-07-12T08:17:00Z</time>
      </trkpt>
      <trkpt lat="36.9241670" lon="-3.3983050">
        <ele>831.0</ele>
        <time>2020-07-12T08:17:07Z</time>
      </trkpt>
      <trkpt lat="36.9240830" lon="-3.3982220">
        <ele>831.4</ele>
        <time>2020-07-12T08:17:10Z</time>
      </trkpt>
      <trkpt lat="36.9239980" lon="-3.3981420">
        <ele>832.0</ele>
        <time>2020-07-12T08:17:13Z</time>
      </trkpt>
      <trkpt lat="36.9238600" lon="-3.3980310">
        <ele>833.0</ele>
        <time>2020-07-12T08:17:18Z</time>
      </trkpt>
      <trkpt lat="36.9237170" lon="-3.3979930">
        <ele>834.2</ele>
        <time>2020-07-12T08:17:23Z</time>
      </trkpt>
      <trkpt lat="36.9236880" lon="-3.3979940">
        <ele>834.4</ele>
        <time>2020-07-12T08:17:24Z</time>
      </trkpt>
      <trkpt lat="36.9235790" lon="-3.3979990">
        <ele>835.2</ele>
        <time>2020-07-12T08:17:28Z</time>
      </trkpt>
      <trkpt lat="36.9234670" lon="-3.3979840">
        <ele>836.2</ele>
        <time>2020-07-12T08:17:32Z</time>
      </trkpt>
      <trkpt lat="36.9234410" lon="-3.3979790">
        <ele>836.6</ele>
        <time>2020-07-12T08:17:33Z</time>
      </trkpt>
      <trkpt lat="36.9233040" lon="-3.3979150">
        <ele>837.6</ele>
        <time>2020-07-12T08:17:38Z</time>
      </trkpt>
      <trkpt lat="36.9232790" lon="-3.3978940">
        <ele>837.8</ele>
        <time>2020-07-12T08:17:39Z</time>
      </trkpt>
      <trkpt lat="36.9232110" lon="-3.3977840">
        <ele>838.6</ele>
        <time>2020-07-12T08:17:43Z</time>
      </trkpt>
      <trkpt lat="36.9232030" lon="-3.3977510">
        <ele>838.8</ele>
        <time>2020-07-12T08:17:44Z</time>
      </trkpt>
      <trkpt lat="36.9231850" lon="-3.3976170">
        <ele>839.8</ele>
        <time>2020-07-12T08:17:48Z</time>
      </trkpt>
      <trkpt lat="36.9231970" lon="-3.3974840">
        <ele>840.4</ele>
        <time>2020-07-12T08:17:52Z</time>
      </trkpt>
      <trkpt lat="36.9232210" lon="-3.3974220">
        <ele>841.0</ele>
        <time>2020-07-12T08:17:54Z</time>
      </trkpt>
      <trkpt lat="36.9232870" lon="-3.3973450">
        <ele>842.0</ele>
        <time>2020-07-12T08:17:57Z</time>
      </trkpt>
      <trkpt lat="36.9233150" lon="-3.3973250">
        <ele>842.2</ele>
        <time>2020-07-12T08:17:58Z</time>
      </trkpt>
      <trkpt lat="36.9234670" lon="-3.3972900">
        <ele>842.8</ele>
        <time>2020-07-12T08:18:02Z</time>
      </trkpt>
      <trkpt lat="36.9237770" lon="-3.3973260">
        <ele>843.2</ele>
        <time>2020-07-12T08:18:09Z</time>
      </trkpt>
      <trkpt lat="36.9238200" lon="-3.3973350">
        <ele>843.2</ele>
        <time>2020-07-12T08:18:10Z</time>
      </trkpt>
      <trkpt lat="36.9240400" lon="-3.3974260">
        <ele>843.8</ele>
        <time>2020-07-12T08:18:15Z</time>
      </trkpt>
      <trkpt lat="36.9240750" lon="-3.3974540">
        <ele>843.8</ele>
        <time>2020-07-12T08:18:16Z</time>
      </trkpt>
      <trkpt lat="36.9241860" lon="-3.3975700">
        <ele>844.0</ele>
        <time>2020-07-12T08:18:19Z</time>
      </trkpt>
      <trkpt lat="36.9242510" lon="-3.3976410">
        <ele>844.2</ele>
        <time>2020-07-12T08:18:21Z</time>
      </trkpt>
      <trkpt lat="36.9242870" lon="-3.3976740">
        <ele>844.2</ele>
        <time>2020-07-12T08:18:22Z</time>
      </trkpt>
      <trkpt lat="36.9243270" lon="-3.3977000">
        <ele>844.4</ele>
        <time>2020-07-12T08:18:23Z</time>
      </trkpt>
      <trkpt lat="36.9244400" lon="-3.3977190">
        <ele>845.0</ele>
        <time>2020-07-12T08:18:26Z</time>
      </trkpt>
      <trkpt lat="36.9245030" lon="-3.3976940">
        <ele>845.4</ele>
        <time>2020-07-12T08:18:28Z</time>
      </trkpt>
      <trkpt lat="36.9245520" lon="-3.3976440">
        <ele>846.0</ele>
        <time>2020-07-12T08:18:30Z</time>
      </trkpt>
      <trkpt lat="36.9245840" lon="-3.3975780">
        <ele>846.6</ele>
        <time>2020-07-12T08:18:32Z</time>
      </trkpt>
      <trkpt lat="36.9245960" lon="-3.3974710">
        <ele>847.6</ele>
        <time>2020-07-12T08:18:35Z</time>
      </trkpt>
      <trkpt lat="36.9245650" lon="-3.3973740">
        <ele>848.8</ele>
        <time>2020-07-12T08:18:38Z</time>
      </trkpt>
      <trkpt lat="36.9245250" lon="-3.3973240">
        <ele>849.4</ele>
        <time>2020-07-12T08:18:40Z</time>
      </trkpt>
      <trkpt lat="36.9245000" lon="-3.3973040">
        <ele>849.8</ele>
        <time>2020-07-12T08:18:41Z</time>
      </trkpt>
      <trkpt lat="36.9244400" lon="-3.3972690">
        <ele>850.4</ele>
        <time>2020-07-12T08:18:43Z</time>
      </trkpt>
      <trkpt lat="36.9243580" lon="-3.3972190">
        <ele>851.0</ele>
        <time>2020-07-12T08:18:46Z</time>
      </trkpt>
      <trkpt lat="36.9243280" lon="-3.3972000">
        <ele>851.2</ele>
        <time>2020-07-12T08:18:47Z</time>
      </trkpt>
      <trkpt lat="36.9242020" lon="-3.3970750">
        <ele>852.2</ele>
        <time>2020-07-12T08:18:52Z</time>
      </trkpt>
      <trkpt lat="36.9241820" lon="-3.3970420">
        <ele>852.4</ele>
        <time>2020-07-12T08:18:53Z</time>
      </trkpt>
      <trkpt lat="36.9241260" lon="-3.3969150">
        <ele>853.4</ele>
        <time>2020-07-12T08:18:57Z</time>
      </trkpt>
      <trkpt lat="36.9241040" lon="-3.3968080">
        <ele>853.8</ele>
        <time>2020-07-12T08:19:00Z</time>
      </trkpt>
      <trkpt lat="36.9240990" lon="-3.3967340">
        <ele>854.4</ele>
        <time>2020-07-12T08:19:02Z</time>
      </trkpt>
      <trkpt lat="36.9240960" lon="-3.3965100">
        <ele>855.6</ele>
        <time>2020-07-12T08:19:08Z</time>
      </trkpt>
      <trkpt lat="36.9240930" lon="-3.3964710">
        <ele>855.8</ele>
        <time>2020-07-12T08:19:09Z</time>
      </trkpt>
      <trkpt lat="36.9240740" lon="-3.3962770">
        <ele>856.6</ele>
        <time>2020-07-12T08:19:14Z</time>
      </trkpt>
      <trkpt lat="36.9240420" lon="-3.3961310">
        <ele>857.2</ele>
        <time>2020-07-12T08:19:18Z</time>
      </trkpt>
      <trkpt lat="36.9240270" lon="-3.3960610">
        <ele>857.8</ele>
        <time>2020-07-12T08:19:20Z</time>
      </trkpt>
      <trkpt lat="36.9240020" lon="-3.3959270">
        <ele>859.0</ele>
        <time>2020-07-12T08:19:24Z</time>
      </trkpt>
      <trkpt lat="36.9239960" lon="-3.3958950">
        <ele>859.4</ele>
        <time>2020-07-12T08:19:25Z</time>
      </trkpt>
      <trkpt lat="36.9239700" lon="-3.3957610">
        <ele>860.2</ele>
        <time>2020-07-12T08:19:29Z</time>
      </trkpt>
      <trkpt lat="36.9239500" lon="-3.3956220">
        <ele>861.0</ele>
        <time>2020-07-12T08:19:33Z</time>
      </trkpt>
      <trkpt lat="36.9239450" lon="-3.3955900">
        <ele>861.2</ele>
        <time>2020-07-12T08:19:34Z</time>
      </trkpt>
      <trkpt lat="36.9239050" lon="-3.3954260">
        <ele>862.2</ele>
        <time>2020-07-12T08:19:39Z</time>
      </trkpt>
      <trkpt lat="36.9238580" lon="-3.3952990">
        <ele>863.4</ele>
        <time>2020-07-12T08:19:43Z</time>
      </trkpt>
      <trkpt lat="36.9237950" lon="-3.3951460">
        <ele>864.6</ele>
        <time>2020-07-12T08:19:48Z</time>
      </trkpt>
      <trkpt lat="36.9237320" lon="-3.3949900">
        <ele>865.6</ele>
        <time>2020-07-12T08:19:53Z</time>
      </trkpt>
      <trkpt lat="36.9237070" lon="-3.3949250">
        <ele>866.2</ele>
        <time>2020-07-12T08:19:55Z</time>
      </trkpt>
      <trkpt lat="36.9236690" lon="-3.3948280">
        <ele>866.8</ele>
        <time>2020-07-12T08:19:58Z</time>
      </trkpt>
      <trkpt lat="36.9235830" lon="-3.3946050">
        <ele>868.0</ele>
        <time>2020-07-12T08:20:05Z</time>
      </trkpt>
      <trkpt lat="36.9235380" lon="-3.3944800">
        <ele>869.0</ele>
        <time>2020-07-12T08:20:09Z</time>
      </trkpt>
      <trkpt lat="36.9234950" lon="-3.3943500">
        <ele>870.2</ele>
        <time>2020-07-12T08:20:13Z</time>
      </trkpt>
      <trkpt lat="36.9234780" lon="-3.3942830">
        <ele>870.6</ele>
        <time>2020-07-12T08:20:15Z</time>
      </trkpt>
      <trkpt lat="36.9234530" lon="-3.3941800">
        <ele>871.2</ele>
        <time>2020-07-12T08:20:18Z</time>
      </trkpt>
      <trkpt lat="36.9234120" lon="-3.3940050">
        <ele>872.4</ele>
        <time>2020-07-12T08:20:23Z</time>
      </trkpt>
      <trkpt lat="36.9234060" lon="-3.3939690">
        <ele>872.4</ele>
        <time>2020-07-12T08:20:24Z</time>
      </trkpt>
      <trkpt lat="36.9233800" lon="-3.3937440">
        <ele>873.4</ele>
        <time>2020-07-12T08:20:30Z</time>
      </trkpt>
      <trkpt lat="36.9233780" lon="-3.3937060">
        <ele>873.6</ele>
        <time>2020-07-12T08:20:31Z</time>
      </trkpt>
      <trkpt lat="36.9233860" lon="-3.3934330">
        <ele>874.4</ele>
        <time>2020-07-12T08:20:37Z</time>
      </trkpt>
      <trkpt lat="36.9233920" lon="-3.3933880">
        <ele>874.6</ele>
        <time>2020-07-12T08:20:38Z</time>
      </trkpt>
      <trkpt lat="36.9234190" lon="-3.3931710">
        <ele>875.6</ele>
        <time>2020-07-12T08:20:43Z</time>
      </trkpt>
      <trkpt lat="36.9234730" lon="-3.3930110">
        <ele>876.6</ele>
        <time>2020-07-12T08:20:47Z</time>
      </trkpt>
      <trkpt lat="36.9236250" lon="-3.3926550">
        <ele>877.6</ele>
        <time>2020-07-12T08:20:56Z</time>
      </trkpt>
      <trkpt lat="36.9236350" lon="-3.3926050">
        <ele>877.8</ele>
        <time>2020-07-12T08:20:57Z</time>
      </trkpt>
      <trkpt lat="36.9236350" lon="-3.3923670">
        <ele>878.6</ele>
        <time>2020-07-12T08:21:02Z</time>
      </trkpt>
      <trkpt lat="36.9236280" lon="-3.3923210">
        <ele>878.8</ele>
        <time>2020-07-12T08:21:03Z</time>
      </trkpt>
      <trkpt lat="36.9235580" lon="-3.3920080">
        <ele>879.8</ele>
        <time>2020-07-12T08:21:10Z</time>
      </trkpt>
      <trkpt lat="36.9235020" lon="-3.3918300">
        <ele>880.4</ele>
        <time>2020-07-12T08:21:14Z</time>
      </trkpt>
      <trkpt lat="36.9234010" lon="-3.3915490">
        <ele>880.8</ele>
        <time>2020-07-12T08:21:20Z</time>
      </trkpt>
      <trkpt lat="36.9233600" lon="-3.3914650">
        <ele>881.0</ele>
        <time>2020-07-12T08:21:22Z</time>
      </trkpt>
      <trkpt lat="36.9232290" lon="-3.3912190">
        <ele>882.0</ele>
        <time>2020-07-12T08:21:28Z</time>
      </trkpt>
      <trkpt lat="36.9231930" lon="-3.3911350">
        <ele>882.2</ele>
        <time>2020-07-12T08:21:30Z</time>
      </trkpt>
      <trkpt lat="36.9231370" lon="-3.3909710">
        <ele>883.0</ele>
        <time>2020-07-12T08:21:34Z</time>
      </trkpt>
      <trkpt lat="36.9231170" lon="-3.3907870">
        <ele>884.0</ele>
        <time>2020-07-12T08:21:38Z</time>
      </trkpt>
      <trkpt lat="36.9231190" lon="-3.3907410">
        <ele>884.2</ele>
        <time>2020-07-12T08:21:39Z</time>
      </trkpt>
      <trkpt lat="36.9231390" lon="-3.3904670">
        <ele>885.2</ele>
        <time>2020-07-12T08:21:45Z</time>
      </trkpt>
      <trkpt lat="36.9231520" lon="-3.3903740">
        <ele>885.8</ele>
        <time>2020-07-12T08:21:47Z</time>
      </trkpt>
      <trkpt lat="36.9231690" lon="-3.3902280">
        <ele>886.2</ele>
        <time>2020-07-12T08:21:50Z</time>
      </trkpt>
      <trkpt lat="36.9231990" lon="-3.3899710">
        <ele>887.0</ele>
        <time>2020-07-12T08:21:55Z</time>
      </trkpt>
      <trkpt lat="36.9232150" lon="-3.3897670">
        <ele>887.2</ele>
        <time>2020-07-12T08:21:59Z</time>
      </trkpt>
      <trkpt lat="36.9232030" lon="-3.3895240">
        <ele>887.8</ele>
        <time>2020-07-12T08:22:04Z</time>
      </trkpt>
      <trkpt lat="36.9231450" lon="-3.3893950">
        <ele>888.4</ele>
        <time>2020-07-12T08:22:07Z</time>
      </trkpt>
      <trkpt lat="36.9230930" lon="-3.3893250">
        <ele>888.8</ele>
        <time>2020-07-12T08:22:09Z</time>
      </trkpt>
      <trkpt lat="36.9229990" lon="-3.3892430">
        <ele>889.4</ele>
        <time>2020-07-12T08:22:12Z</time>
      </trkpt>
      <trkpt lat="36.9228760" lon="-3.3891580">
        <ele>890.2</ele>
        <time>2020-07-12T08:22:16Z</time>
      </trkpt>
      <trkpt lat="36.9228060" lon="-3.3891210">
        <ele>890.6</ele>
        <time>2020-07-12T08:22:18Z</time>
      </trkpt>
      <trkpt lat="36.9225950" lon="-3.3890120">
        <ele>891.6</ele>
        <time>2020-07-12T08:22:25Z</time>
      </trkpt>
      <trkpt lat="36.9224530" lon="-3.3889360">
        <ele>892.8</ele>
        <time>2020-07-12T08:22:30Z</time>
      </trkpt>
      <trkpt lat="36.9222820" lon="-3.3888390">
        <ele>894.0</ele>
        <time>2020-07-12T08:22:36Z</time>
      </trkpt>
      <trkpt lat="36.9221160" lon="-3.3887490">
        <ele>895.0</ele>
        <time>2020-07-12T08:22:42Z</time>
      </trkpt>
      <trkpt lat="36.9220090" lon="-3.3886990">
        <ele>895.8</ele>
        <time>2020-07-12T08:22:46Z</time>
      </trkpt>
      <trkpt lat="36.9219780" lon="-3.3886860">
        <ele>896.0</ele>
        <time>2020-07-12T08:22:47Z</time>
      </trkpt>
      <trkpt lat="36.9218450" lon="-3.3886270">
        <ele>897.2</ele>
        <time>2020-07-12T08:22:52Z</time>
      </trkpt>
      <trkpt lat="36.9217880" lon="-3.3886050">
        <ele>897.6</ele>
        <time>2020-07-12T08:22:54Z</time>
      </trkpt>
      <trkpt lat="36.9217070" lon="-3.3885670">
        <ele>898.2</ele>
        <time>2020-07-12T08:22:57Z</time>
      </trkpt>
      <trkpt lat="36.9215330" lon="-3.3885050">
        <ele>899.4</ele>
        <time>2020-07-12T08:23:03Z</time>
      </trkpt>
      <trkpt lat="36.9214780" lon="-3.3884720">
        <ele>899.6</ele>
        <time>2020-07-12T08:23:05Z</time>
      </trkpt>
      <trkpt lat="36.9213660" lon="-3.3883460">
        <ele>900.4</ele>
        <time>2020-07-12T08:23:10Z</time>
      </trkpt>
      <trkpt lat="36.9213540" lon="-3.3883100">
        <ele>900.8</ele>
        <time>2020-07-12T08:23:11Z</time>
      </trkpt>
      <trkpt lat="36.9213300" lon="-3.3881880">
        <ele>901.4</ele>
        <time>2020-07-12T08:23:14Z</time>
      </trkpt>
      <trkpt lat="36.9213540" lon="-3.3880640">
        <ele>902.2</ele>
        <time>2020-07-12T08:23:17Z</time>
      </trkpt>
      <trkpt lat="36.9213960" lon="-3.3879790">
        <ele>902.6</ele>
        <time>2020-07-12T08:23:19Z</time>
      </trkpt>
      <trkpt lat="36.9214710" lon="-3.3878530">
        <ele>903.2</ele>
        <time>2020-07-12T08:23:22Z</time>
      </trkpt>
      <trkpt lat="36.9216300" lon="-3.3874970">
        <ele>903.6</ele>
        <time>2020-07-12T08:23:29Z</time>
      </trkpt>
      <trkpt lat="36.9217200" lon="-3.3872130">
        <ele>904.0</ele>
        <time>2020-07-12T08:23:34Z</time>
      </trkpt>
      <trkpt lat="36.9217780" lon="-3.3871150">
        <ele>904.2</ele>
        <time>2020-07-12T08:23:36Z</time>
      </trkpt>
      <trkpt lat="36.9218630" lon="-3.3870190">
        <ele>904.4</ele>
        <time>2020-07-12T08:23:38Z</time>
      </trkpt>
      <trkpt lat="36.9220010" lon="-3.3868860">
        <ele>904.4</ele>
        <time>2020-07-12T08:23:41Z</time>
      </trkpt>
      <trkpt lat="36.9223110" lon="-3.3865810">
        <ele>903.6</ele>
        <time>2020-07-12T08:23:47Z</time>
      </trkpt>
      <trkpt lat="36.9224140" lon="-3.3865050">
        <ele>903.4</ele>
        <time>2020-07-12T08:23:49Z</time>
      </trkpt>
      <trkpt lat="36.9225190" lon="-3.3864610">
        <ele>903.6</ele>
        <time>2020-07-12T08:23:51Z</time>
      </trkpt>
      <trkpt lat="36.9226380" lon="-3.3864300">
        <ele>904.0</ele>
        <time>2020-07-12T08:23:53Z</time>
      </trkpt>
      <trkpt lat="36.9228060" lon="-3.3863930">
        <ele>904.2</ele>
        <time>2020-07-12T08:23:56Z</time>
      </trkpt>
      <trkpt lat="36.9229830" lon="-3.3863590">
        <ele>904.6</ele>
        <time>2020-07-12T08:23:59Z</time>
      </trkpt>
      <trkpt lat="36.9232080" lon="-3.3862940">
        <ele>904.4</ele>
        <time>2020-07-12T08:24:03Z</time>
      </trkpt>
      <trkpt lat="36.9232980" lon="-3.3862150">
        <ele>904.6</ele>
        <time>2020-07-12T08:24:05Z</time>
      </trkpt>
      <trkpt lat="36.9233240" lon="-3.3861760">
        <ele>904.8</ele>
        <time>2020-07-12T08:24:06Z</time>
      </trkpt>
      <trkpt lat="36.9233990" lon="-3.3859830">
        <ele>905.4</ele>
        <time>2020-07-12T08:24:09Z</time>
      </trkpt>
      <trkpt lat="36.9234530" lon="-3.3858710">
        <ele>905.6</ele>
        <time>2020-07-12T08:24:11Z</time>
      </trkpt>
      <trkpt lat="36.9234950" lon="-3.3858100">
        <ele>905.8</ele>
        <time>2020-07-12T08:24:12Z</time>
      </trkpt>
      <trkpt lat="36.9235400" lon="-3.3857600">
        <ele>906.0</ele>
        <time>2020-07-12T08:24:13Z</time>
      </trkpt>
      <trkpt lat="36.9236760" lon="-3.3855950">
        <ele>905.8</ele>
        <time>2020-07-12T08:24:16Z</time>
      </trkpt>
      <trkpt lat="36.9237070" lon="-3.3855010">
        <ele>905.6</ele>
        <time>2020-07-12T08:24:17Z</time>
      </trkpt>
      <trkpt lat="36.9236900" lon="-3.3853130">
        <ele>905.2</ele>
        <time>2020-07-12T08:24:19Z</time>
      </trkpt>
      <trkpt lat="36.9236110" lon="-3.3851500">
        <ele>904.6</ele>
        <time>2020-07-12T08:24:21Z</time>
      </trkpt>
      <trkpt lat="36.9235650" lon="-3.3850690">
        <ele>904.4</ele>
        <time>2020-07-12T08:24:22Z</time>
      </trkpt>
      <trkpt lat="36.9234830" lon="-3.3848730">
        <ele>903.8</ele>
        <time>2020-07-12T08:24:24Z</time>
      </trkpt>
      <trkpt lat="36.9234590" lon="-3.3847760">
        <ele>903.6</ele>
        <time>2020-07-12T08:24:25Z</time>
      </trkpt>
      <trkpt lat="36.9234460" lon="-3.3846700">
        <ele>903.4</ele>
        <time>2020-07-12T08:24:26Z</time>
      </trkpt>
      <trkpt lat="36.9234470" lon="-3.3844440">
        <ele>902.8</ele>
        <time>2020-07-12T08:24:28Z</time>
      </trkpt>
      <trkpt lat="36.9234360" lon="-3.3843230">
        <ele>902.6</ele>
        <time>2020-07-12T08:24:29Z</time>
      </trkpt>
      <trkpt lat="36.9234010" lon="-3.3842180">
        <ele>902.4</ele>
        <time>2020-07-12T08:24:30Z</time>
      </trkpt>
      <trkpt lat="36.9233480" lon="-3.3841350">
        <ele>902.0</ele>
        <time>2020-07-12T08:24:31Z</time>
      </trkpt>
      <trkpt lat="36.9231950" lon="-3.3839770">
        <ele>901.6</ele>
        <time>2020-07-12T08:24:33Z</time>
      </trkpt>
      <trkpt lat="36.9231220" lon="-3.3839030">
        <ele>901.2</ele>
        <time>2020-07-12T08:24:34Z</time>
      </trkpt>
      <trkpt lat="36.9230740" lon="-3.3838110">
        <ele>901.0</ele>
        <time>2020-07-12T08:24:35Z</time>
      </trkpt>
      <trkpt lat="36.9229770" lon="-3.3835850">
        <ele>900.2</ele>
        <time>2020-07-12T08:24:37Z</time>
      </trkpt>
      <trkpt lat="36.9229070" lon="-3.3833630">
        <ele>899.6</ele>
        <time>2020-07-12T08:24:39Z</time>
      </trkpt>
      <trkpt lat="36.9228680" lon="-3.3831370">
        <ele>899.0</ele>
        <time>2020-07-12T08:24:41Z</time>
      </trkpt>
      <trkpt lat="36.9228470" lon="-3.3828910">
        <ele>898.6</ele>
        <time>2020-07-12T08:24:43Z</time>
      </trkpt>
      <trkpt lat="36.9227970" lon="-3.3826560">
        <ele>898.0</ele>
        <time>2020-07-12T08:24:45Z</time>
      </trkpt>
      <trkpt lat="36.9227210" lon="-3.3824330">
        <ele>897.4</ele>
        <time>2020-07-12T08:24:47Z</time>
      </trkpt>
      <trkpt lat="36.9226530" lon="-3.3822100">
        <ele>896.8</ele>
        <time>2020-07-12T08:24:49Z</time>
      </trkpt>
      <trkpt lat="36.9226290" lon="-3.3820940">
        <ele>896.4</ele>
        <time>2020-07-12T08:24:50Z</time>
      </trkpt>
      <trkpt lat="36.9225930" lon="-3.3818610">
        <ele>896.0</ele>
        <time>2020-07-12T08:24:52Z</time>
      </trkpt>
      <trkpt lat="36.9225590" lon="-3.3816110">
        <ele>895.8</ele>
        <time>2020-07-12T08:24:54Z</time>
      </trkpt>
      <trkpt lat="36.9224940" lon="-3.3811340">
        <ele>894.6</ele>
        <time>2020-07-12T08:24:58Z</time>
      </trkpt>
      <trkpt lat="36.9224300" lon="-3.3807800">
        <ele>893.4</ele>
        <time>2020-07-12T08:25:01Z</time>
      </trkpt>
      <trkpt lat="36.9223290" lon="-3.3802900">
        <ele>892.2</ele>
        <time>2020-07-12T08:25:05Z</time>
      </trkpt>
      <trkpt lat="36.9223060" lon="-3.3801870">
        <ele>892.0</ele>
        <time>2020-07-12T08:25:06Z</time>
      </trkpt>
      <trkpt lat="36.9222200" lon="-3.3798170">
        <ele>891.2</ele>
        <time>2020-07-12T08:25:09Z</time>
      </trkpt>
      <trkpt lat="36.9222050" lon="-3.3796980">
        <ele>890.8</ele>
        <time>2020-07-12T08:25:10Z</time>
      </trkpt>
      <trkpt lat="36.9222410" lon="-3.3794660">
        <ele>890.6</ele>
        <time>2020-07-12T08:25:12Z</time>
      </trkpt>
      <trkpt lat="36.9223670" lon="-3.3792910">
        <ele>890.2</ele>
        <time>2020-07-12T08:25:14Z</time>
      </trkpt>
      <trkpt lat="36.9224610" lon="-3.3792590">
        <ele>890.0</ele>
        <time>2020-07-12T08:25:15Z</time>
      </trkpt>
      <trkpt lat="36.9225480" lon="-3.3792690">
        <ele>889.6</ele>
        <time>2020-07-12T08:25:16Z</time>
      </trkpt>
      <trkpt lat="36.9227600" lon="-3.3792980">
        <ele>889.0</ele>
        <time>2020-07-12T08:25:18Z</time>
      </trkpt>
      <trkpt lat="36.9230480" lon="-3.3793160">
        <ele>888.0</ele>
        <time>2020-07-12T08:25:21Z</time>
      </trkpt>
      <trkpt lat="36.9234300" lon="-3.3792660">
        <ele>887.0</ele>
        <time>2020-07-12T08:25:25Z</time>
      </trkpt>
      <trkpt lat="36.9235050" lon="-3.3792500">
        <ele>886.8</ele>
        <time>2020-07-12T08:25:26Z</time>
      </trkpt>
      <trkpt lat="36.9237980" lon="-3.3791930">
        <ele>887.2</ele>
        <time>2020-07-12T08:25:30Z</time>
      </trkpt>
      <trkpt lat="36.9238940" lon="-3.3791830">
        <ele>887.8</ele>
        <time>2020-07-12T08:25:32Z</time>
      </trkpt>
      <trkpt lat="36.9239360" lon="-3.3791880">
        <ele>888.0</ele>
        <time>2020-07-12T08:25:33Z</time>
      </trkpt>
      <trkpt lat="36.9239760" lon="-3.3791940">
        <ele>888.4</ele>
        <time>2020-07-12T08:25:34Z</time>
      </trkpt>
      <trkpt lat="36.9240530" lon="-3.3792050">
        <ele>889.0</ele>
        <time>2020-07-12T08:25:36Z</time>
      </trkpt>
      <trkpt lat="36.9241920" lon="-3.3792240">
        <ele>889.8</ele>
        <time>2020-07-12T08:25:40Z</time>
      </trkpt>
      <trkpt lat="36.9242650" lon="-3.3792200">
        <ele>890.0</ele>
        <time>2020-07-12T08:25:42Z</time>
      </trkpt>
      <trkpt lat="36.9243400" lon="-3.3792080">
        <ele>890.6</ele>
        <time>2020-07-12T08:25:44Z</time>
      </trkpt>
      <trkpt lat="36.9244070" lon="-3.3791950">
        <ele>891.2</ele>
        <time>2020-07-12T08:25:46Z</time>
      </trkpt>
      <trkpt lat="36.9244470" lon="-3.3791830">
        <ele>891.6</ele>
        <time>2020-07-12T08:25:47Z</time>
      </trkpt>
      <trkpt lat="36.9245590" lon="-3.3791390">
        <ele>892.2</ele>
        <time>2020-07-12T08:25:50Z</time>
      </trkpt>
      <trkpt lat="36.9245930" lon="-3.3791220">
        <ele>892.4</ele>
        <time>2020-07-12T08:25:51Z</time>
      </trkpt>
      <trkpt lat="36.9247020" lon="-3.3790480">
        <ele>893.0</ele>
        <time>2020-07-12T08:25:54Z</time>
      </trkpt>
      <trkpt lat="36.9247690" lon="-3.3789990">
        <ele>893.4</ele>
        <time>2020-07-12T08:25:56Z</time>
      </trkpt>
      <trkpt lat="36.9248740" lon="-3.3789170">
        <ele>894.0</ele>
        <time>2020-07-12T08:25:59Z</time>
      </trkpt>
      <trkpt lat="36.9249430" lon="-3.3788870">
        <ele>894.6</ele>
        <time>2020-07-12T08:26:01Z</time>
      </trkpt>
      <trkpt lat="36.9251700" lon="-3.3788310">
        <ele>895.4</ele>
        <time>2020-07-12T08:26:06Z</time>
      </trkpt>
      <trkpt lat="36.9252240" lon="-3.3788190">
        <ele>895.6</ele>
        <time>2020-07-12T08:26:07Z</time>
      </trkpt>
      <trkpt lat="36.9255200" lon="-3.3787240">
        <ele>895.4</ele>
        <time>2020-07-12T08:26:12Z</time>
      </trkpt>
      <trkpt lat="36.9258310" lon="-3.3785000">
        <ele>895.4</ele>
        <time>2020-07-12T08:26:18Z</time>
      </trkpt>
      <trkpt lat="36.9261110" lon="-3.3782590">
        <ele>895.8</ele>
        <time>2020-07-12T08:26:25Z</time>
      </trkpt>
      <trkpt lat="36.9263250" lon="-3.3780690">
        <ele>896.6</ele>
        <time>2020-07-12T08:26:31Z</time>
      </trkpt>
      <trkpt lat="36.9264040" lon="-3.3780020">
        <ele>896.8</ele>
        <time>2020-07-12T08:26:33Z</time>
      </trkpt>
      <trkpt lat="36.9265540" lon="-3.3778590">
        <ele>897.2</ele>
        <time>2020-07-12T08:26:37Z</time>
      </trkpt>
      <trkpt lat="36.9266560" lon="-3.3777540">
        <ele>897.4</ele>
        <time>2020-07-12T08:26:40Z</time>
      </trkpt>
      <trkpt lat="36.9267830" lon="-3.3776160">
        <ele>897.6</ele>
        <time>2020-07-12T08:26:44Z</time>
      </trkpt>
      <trkpt lat="36.9268140" lon="-3.3775800">
        <ele>897.6</ele>
        <time>2020-07-12T08:26:45Z</time>
      </trkpt>
      <trkpt lat="36.9269120" lon="-3.3774640">
        <ele>897.8</ele>
        <time>2020-07-12T08:26:48Z</time>
      </trkpt>
      <trkpt lat="36.9270210" lon="-3.3773380">
        <ele>898.0</ele>
        <time>2020-07-12T08:26:51Z</time>
      </trkpt>
      <trkpt lat="36.9271920" lon="-3.3771650">
        <ele>897.8</ele>
        <time>2020-07-12T08:26:55Z</time>
      </trkpt>
      <trkpt lat="36.9273640" lon="-3.3770160">
        <ele>898.0</ele>
        <time>2020-07-12T08:26:59Z</time>
      </trkpt>
      <trkpt lat="36.9274550" lon="-3.3769680">
        <ele>898.0</ele>
        <time>2020-07-12T08:27:01Z</time>
      </trkpt>
      <trkpt lat="36.9276330" lon="-3.3768890">
        <ele>898.8</ele>
        <time>2020-07-12T08:27:05Z</time>
      </trkpt>
      <trkpt lat="36.9278220" lon="-3.3768360">
        <ele>899.2</ele>
        <time>2020-07-12T08:27:09Z</time>
      </trkpt>
      <trkpt lat="36.9280510" lon="-3.3767880">
        <ele>899.6</ele>
        <time>2020-07-12T08:27:14Z</time>
      </trkpt>
      <trkpt lat="36.9281290" lon="-3.3767760">
        <ele>899.8</ele>
        <time>2020-07-12T08:27:16Z</time>
      </trkpt>
      <trkpt lat="36.9282180" lon="-3.3767690">
        <ele>900.2</ele>
        <time>2020-07-12T08:27:18Z</time>
      </trkpt>
      <trkpt lat="36.9283450" lon="-3.3767730">
        <ele>901.0</ele>
        <time>2020-07-12T08:27:21Z</time>
      </trkpt>
      <trkpt lat="36.9284380" lon="-3.3767630">
        <ele>901.4</ele>
        <time>2020-07-12T08:27:23Z</time>
      </trkpt>
      <trkpt lat="36.9284790" lon="-3.3767430">
        <ele>901.4</ele>
        <time>2020-07-12T08:27:24Z</time>
      </trkpt>
      <trkpt lat="36.9285960" lon="-3.3765860">
        <ele>901.8</ele>
        <time>2020-07-12T08:27:28Z</time>
      </trkpt>
      <trkpt lat="36.9286220" lon="-3.3765310">
        <ele>902.0</ele>
        <time>2020-07-12T08:27:29Z</time>
      </trkpt>
      <trkpt lat="36.9286840" lon="-3.3764310">
        <ele>902.4</ele>
        <time>2020-07-12T08:27:31Z</time>
      </trkpt>
      <trkpt lat="36.9287860" lon="-3.3763500">
        <ele>902.4</ele>
        <time>2020-07-12T08:27:33Z</time>
      </trkpt>
      <trkpt lat="36.9289470" lon="-3.3762420">
        <ele>902.0</ele>
        <time>2020-07-12T08:27:36Z</time>
      </trkpt>
      <trkpt lat="36.9289990" lon="-3.3761750">
        <ele>901.8</ele>
        <time>2020-07-12T08:27:37Z</time>
      </trkpt>
      <trkpt lat="36.9290980" lon="-3.3759440">
        <ele>901.2</ele>
        <time>2020-07-12T08:27:40Z</time>
      </trkpt>
      <trkpt lat="36.9291300" lon="-3.3758700">
        <ele>901.0</ele>
        <time>2020-07-12T08:27:41Z</time>
      </trkpt>
      <trkpt lat="36.9291760" lon="-3.3757840">
        <ele>900.8</ele>
        <time>2020-07-12T08:27:42Z</time>
      </trkpt>
      <trkpt lat="36.9293520" lon="-3.3755880">
        <ele>900.2</ele>
        <time>2020-07-12T08:27:45Z</time>
      </trkpt>
      <trkpt lat="36.9294130" lon="-3.3755440">
        <ele>899.8</ele>
        <time>2020-07-12T08:27:46Z</time>
      </trkpt>
      <trkpt lat="36.9294950" lon="-3.3754870">
        <ele>899.6</ele>
        <time>2020-07-12T08:27:47Z</time>
      </trkpt>
      <trkpt lat="36.9297070" lon="-3.3753710">
        <ele>898.8</ele>
        <time>2020-07-12T08:27:50Z</time>
      </trkpt>
      <trkpt lat="36.9297740" lon="-3.3753480">
        <ele>898.4</ele>
        <time>2020-07-12T08:27:51Z</time>
      </trkpt>
      <trkpt lat="36.9299180" lon="-3.3753290">
        <ele>897.6</ele>
        <time>2020-07-12T08:27:53Z</time>
      </trkpt>
      <trkpt lat="36.9299830" lon="-3.3753270">
        <ele>897.2</ele>
        <time>2020-07-12T08:27:54Z</time>
      </trkpt>
      <trkpt lat="36.9303600" lon="-3.3752920">
        <ele>897.0</ele>
        <time>2020-07-12T08:28:00Z</time>
      </trkpt>
      <trkpt lat="36.9304140" lon="-3.3752820">
        <ele>897.0</ele>
        <time>2020-07-12T08:28:01Z</time>
      </trkpt>
      <trkpt lat="36.9305800" lon="-3.3751830">
        <ele>897.0</ele>
        <time>2020-07-12T08:28:04Z</time>
      </trkpt>
      <trkpt lat="36.9306980" lon="-3.3749950">
        <ele>897.0</ele>
        <time>2020-07-12T08:28:07Z</time>
      </trkpt>
      <trkpt lat="36.9307350" lon="-3.3749220">
        <ele>896.8</ele>
        <time>2020-07-12T08:28:08Z</time>
      </trkpt>
      <trkpt lat="36.9308400" lon="-3.3747080">
        <ele>896.6</ele>
        <time>2020-07-12T08:28:11Z</time>
      </trkpt>
      <trkpt lat="36.9309740" lon="-3.3744320">
        <ele>896.4</ele>
        <time>2020-07-12T08:28:15Z</time>
      </trkpt>
      <trkpt lat="36.9310930" lon="-3.3740900">
        <ele>896.6</ele>
        <time>2020-07-12T08:28:20Z</time>
      </trkpt>
      <trkpt lat="36.9311930" lon="-3.3737520">
        <ele>897.2</ele>
        <time>2020-07-12T08:28:25Z</time>
      </trkpt>
      <trkpt lat="36.9312090" lon="-3.3736990">
        <ele>897.4</ele>
        <time>2020-07-12T08:28:26Z</time>
      </trkpt>
      <trkpt lat="36.9312260" lon="-3.3736340">
        <ele>897.6</ele>
        <time>2020-07-12T08:28:27Z</time>
      </trkpt>
      <trkpt lat="36.9312350" lon="-3.3735740">
        <ele>898.0</ele>
        <time>2020-07-12T08:28:28Z</time>
      </trkpt>
      <trkpt lat="36.9312560" lon="-3.3733960">
        <ele>899.0</ele>
        <time>2020-07-12T08:28:31Z</time>
      </trkpt>
      <trkpt lat="36.9312680" lon="-3.3733400">
        <ele>899.2</ele>
        <time>2020-07-12T08:28:32Z</time>
      </trkpt>
      <trkpt lat="36.9313010" lon="-3.3732410">
        <ele>899.8</ele>
        <time>2020-07-12T08:28:34Z</time>
      </trkpt>
      <trkpt lat="36.9313290" lon="-3.3731920">
        <ele>900.2</ele>
        <time>2020-07-12T08:28:35Z</time>
      </trkpt>
      <trkpt lat="36.9313580" lon="-3.3731510">
        <ele>900.4</ele>
        <time>2020-07-12T08:28:36Z</time>
      </trkpt>
      <trkpt lat="36.9314900" lon="-3.3730240">
        <ele>900.8</ele>
        <time>2020-07-12T08:28:39Z</time>
      </trkpt>
      <trkpt lat="36.9315860" lon="-3.3729560">
        <ele>901.0</ele>
        <time>2020-07-12T08:28:41Z</time>
      </trkpt>
      <trkpt lat="36.9318490" lon="-3.3727840">
        <ele>901.2</ele>
        <time>2020-07-12T08:28:46Z</time>
      </trkpt>
      <trkpt lat="36.9319150" lon="-3.3727370">
        <ele>901.2</ele>
        <time>2020-07-12T08:28:47Z</time>
      </trkpt>
      <trkpt lat="36.9319740" lon="-3.3726960">
        <ele>901.2</ele>
        <time>2020-07-12T08:28:48Z</time>
      </trkpt>
      <trkpt lat="36.9324290" lon="-3.3723970">
        <ele>901.0</ele>
        <time>2020-07-12T08:28:56Z</time>
      </trkpt>
      <trkpt lat="36.9326940" lon="-3.3722320">
        <ele>901.2</ele>
        <time>2020-07-12T08:29:01Z</time>
      </trkpt>
      <trkpt lat="36.9327480" lon="-3.3721980">
        <ele>901.4</ele>
        <time>2020-07-12T08:29:02Z</time>
      </trkpt>
      <trkpt lat="36.9329150" lon="-3.3720880">
        <ele>902.4</ele>
        <time>2020-07-12T08:29:06Z</time>
      </trkpt>
      <trkpt lat="36.9330020" lon="-3.3720300">
        <ele>902.8</ele>
        <time>2020-07-12T08:29:08Z</time>
      </trkpt>
      <trkpt lat="36.9331830" lon="-3.3718760">
        <ele>903.4</ele>
        <time>2020-07-12T08:29:13Z</time>
      </trkpt>
      <trkpt lat="36.9332400" lon="-3.3718080">
        <ele>903.8</ele>
        <time>2020-07-12T08:29:15Z</time>
      </trkpt>
      <trkpt lat="36.9333330" lon="-3.3716430">
        <ele>904.8</ele>
        <time>2020-07-12T08:29:19Z</time>
      </trkpt>
      <trkpt lat="36.9333530" lon="-3.3715980">
        <ele>905.0</ele>
        <time>2020-07-12T08:29:20Z</time>
      </trkpt>
      <trkpt lat="36.9333740" lon="-3.3715570">
        <ele>905.2</ele>
        <time>2020-07-12T08:29:21Z</time>
      </trkpt>
      <trkpt lat="36.9334420" lon="-3.3714430">
        <ele>905.8</ele>
        <time>2020-07-12T08:29:24Z</time>
      </trkpt>
      <trkpt lat="36.9334870" lon="-3.3713690">
        <ele>906.0</ele>
        <time>2020-07-12T08:29:26Z</time>
      </trkpt>
      <trkpt lat="36.9336230" lon="-3.3711810">
        <ele>906.8</ele>
        <time>2020-07-12T08:29:31Z</time>
      </trkpt>
      <trkpt lat="36.9336880" lon="-3.3711120">
        <ele>907.0</ele>
        <time>2020-07-12T08:29:33Z</time>
      </trkpt>
      <trkpt lat="36.9338330" lon="-3.3709360">
        <ele>907.6</ele>
        <time>2020-07-12T08:29:38Z</time>
      </trkpt>
      <trkpt lat="36.9338790" lon="-3.3708610">
        <ele>908.0</ele>
        <time>2020-07-12T08:29:40Z</time>
      </trkpt>
      <trkpt lat="36.9339900" lon="-3.3706500">
        <ele>909.0</ele>
        <time>2020-07-12T08:29:45Z</time>
      </trkpt>
      <trkpt lat="36.9340090" lon="-3.3706140">
        <ele>909.2</ele>
        <time>2020-07-12T08:29:46Z</time>
      </trkpt>
      <trkpt lat="36.9340990" lon="-3.3704500">
        <ele>910.0</ele>
        <time>2020-07-12T08:29:50Z</time>
      </trkpt>
      <trkpt lat="36.9341600" lon="-3.3703860">
        <ele>910.4</ele>
        <time>2020-07-12T08:29:52Z</time>
      </trkpt>
      <trkpt lat="36.9342670" lon="-3.3703150">
        <ele>911.0</ele>
        <time>2020-07-12T08:29:55Z</time>
      </trkpt>
      <trkpt lat="36.9343300" lon="-3.3702850">
        <ele>911.4</ele>
        <time>2020-07-12T08:29:57Z</time>
      </trkpt>
      <trkpt lat="36.9344230" lon="-3.3702120">
        <ele>912.2</ele>
        <time>2020-07-12T08:30:00Z</time>
      </trkpt>
      <trkpt lat="36.9344650" lon="-3.3701420">
        <ele>912.8</ele>
        <time>2020-07-12T08:30:02Z</time>
      </trkpt>
      <trkpt lat="36.9345170" lon="-3.3700370">
        <ele>913.4</ele>
        <time>2020-07-12T08:30:05Z</time>
      </trkpt>
      <trkpt lat="36.9345400" lon="-3.3699490">
        <ele>913.8</ele>
        <time>2020-07-12T08:30:07Z</time>
      </trkpt>
      <trkpt lat="36.9345740" lon="-3.3698330">
        <ele>914.6</ele>
        <time>2020-07-12T08:30:10Z</time>
      </trkpt>
      <trkpt lat="36.9346320" lon="-3.3697050">
        <ele>915.6</ele>
        <time>2020-07-12T08:30:14Z</time>
      </trkpt>
      <trkpt lat="36.9347320" lon="-3.3695740">
        <ele>916.8</ele>
        <time>2020-07-12T08:30:19Z</time>
      </trkpt>
      <trkpt lat="36.9347700" lon="-3.3695260">
        <ele>917.2</ele>
        <time>2020-07-12T08:30:21Z</time>
      </trkpt>
      <trkpt lat="36.9348510" lon="-3.3694190">
        <ele>918.0</ele>
        <time>2020-07-12T08:30:25Z</time>
      </trkpt>
      <trkpt lat="36.9349460" lon="-3.3692830">
        <ele>919.0</ele>
        <time>2020-07-12T08:30:30Z</time>
      </trkpt>
      <trkpt lat="36.9349640" lon="-3.3692600">
        <ele>919.2</ele>
        <time>2020-07-12T08:30:31Z</time>
      </trkpt>
      <trkpt lat="36.9350400" lon="-3.3691570">
        <ele>920.2</ele>
        <time>2020-07-12T08:30:35Z</time>
      </trkpt>
      <trkpt lat="36.9351680" lon="-3.3690480">
        <ele>921.2</ele>
        <time>2020-07-12T08:30:40Z</time>
      </trkpt>
      <trkpt lat="36.9353150" lon="-3.3689440">
        <ele>922.4</ele>
        <time>2020-07-12T08:30:46Z</time>
      </trkpt>
      <trkpt lat="36.9354290" lon="-3.3688530">
        <ele>923.0</ele>
        <time>2020-07-12T08:30:50Z</time>
      </trkpt>
      <trkpt lat="36.9355150" lon="-3.3687590">
        <ele>923.4</ele>
        <time>2020-07-12T08:30:53Z</time>
      </trkpt>
      <trkpt lat="36.9355980" lon="-3.3686390">
        <ele>923.8</ele>
        <time>2020-07-12T08:30:56Z</time>
      </trkpt>
      <trkpt lat="36.9357690" lon="-3.3684130">
        <ele>923.6</ele>
        <time>2020-07-12T08:31:01Z</time>
      </trkpt>
      <trkpt lat="36.9358580" lon="-3.3683270">
        <ele>923.6</ele>
        <time>2020-07-12T08:31:03Z</time>
      </trkpt>
      <trkpt lat="36.9360630" lon="-3.3681670">
        <ele>923.2</ele>
        <time>2020-07-12T08:31:07Z</time>
      </trkpt>
      <trkpt lat="36.9361650" lon="-3.3680550">
        <ele>923.0</ele>
        <time>2020-07-12T08:31:09Z</time>
      </trkpt>
      <trkpt lat="36.9362130" lon="-3.3679950">
        <ele>922.8</ele>
        <time>2020-07-12T08:31:10Z</time>
      </trkpt>
      <trkpt lat="36.9362620" lon="-3.3679330">
        <ele>922.4</ele>
        <time>2020-07-12T08:31:11Z</time>
      </trkpt>
      <trkpt lat="36.9363220" lon="-3.3678650">
        <ele>922.2</ele>
        <time>2020-07-12T08:31:12Z</time>
      </trkpt>
      <trkpt lat="36.9363820" lon="-3.3678050">
        <ele>922.0</ele>
        <time>2020-07-12T08:31:13Z</time>
      </trkpt>
      <trkpt lat="36.9364440" lon="-3.3677450">
        <ele>921.6</ele>
        <time>2020-07-12T08:31:14Z</time>
      </trkpt>
      <trkpt lat="36.9366370" lon="-3.3675430">
        <ele>921.0</ele>
        <time>2020-07-12T08:31:17Z</time>
      </trkpt>
      <trkpt lat="36.9367740" lon="-3.3673770">
        <ele>920.4</ele>
        <time>2020-07-12T08:31:19Z</time>
      </trkpt>
      <trkpt lat="36.9368450" lon="-3.3672830">
        <ele>919.8</ele>
        <time>2020-07-12T08:31:20Z</time>
      </trkpt>
      <trkpt lat="36.9369940" lon="-3.3670890">
        <ele>918.2</ele>
        <time>2020-07-12T08:31:22Z</time>
      </trkpt>
      <trkpt lat="36.9371560" lon="-3.3669020">
        <ele>916.8</ele>
        <time>2020-07-12T08:31:24Z</time>
      </trkpt>
      <trkpt lat="36.9372420" lon="-3.3668200">
        <ele>916.2</ele>
        <time>2020-07-12T08:31:25Z</time>
      </trkpt>
      <trkpt lat="36.9373270" lon="-3.3667480">
        <ele>915.6</ele>
        <time>2020-07-12T08:31:26Z</time>
      </trkpt>
      <trkpt lat="36.9374270" lon="-3.3666800">
        <ele>915.2</ele>
        <time>2020-07-12T08:31:27Z</time>
      </trkpt>
      <trkpt lat="36.9375230" lon="-3.3666250">
        <ele>914.8</ele>
        <time>2020-07-12T08:31:28Z</time>
      </trkpt>
      <trkpt lat="36.9376220" lon="-3.3665720">
        <ele>914.4</ele>
        <time>2020-07-12T08:31:29Z</time>
      </trkpt>
      <trkpt lat="36.9380680" lon="-3.3663200">
        <ele>913.4</ele>
        <time>2020-07-12T08:31:34Z</time>
      </trkpt>
      <trkpt lat="36.9381560" lon="-3.3662690">
        <ele>913.2</ele>
        <time>2020-07-12T08:31:35Z</time>
      </trkpt>
      <trkpt lat="36.9386230" lon="-3.3659990">
        <ele>913.6</ele>
        <time>2020-07-12T08:31:41Z</time>
      </trkpt>
      <trkpt lat="36.9387450" lon="-3.3659140">
        <ele>913.8</ele>
        <time>2020-07-12T08:31:43Z</time>
      </trkpt>
      <trkpt lat="36.9388570" lon="-3.3658380">
        <ele>914.2</ele>
        <time>2020-07-12T08:31:45Z</time>
      </trkpt>
      <trkpt lat="36.9389060" lon="-3.3658060">
        <ele>914.4</ele>
        <time>2020-07-12T08:31:46Z</time>
      </trkpt>
      <trkpt lat="36.9389620" lon="-3.3657680">
        <ele>914.8</ele>
        <time>2020-07-12T08:31:47Z</time>
      </trkpt>
      <trkpt lat="36.9390520" lon="-3.3656940">
        <ele>915.4</ele>
        <time>2020-07-12T08:31:49Z</time>
      </trkpt>
      <trkpt lat="36.9390890" lon="-3.3656510">
        <ele>915.8</ele>
        <time>2020-07-12T08:31:50Z</time>
      </trkpt>
      <trkpt lat="36.9391210" lon="-3.3656090">
        <ele>916.0</ele>
        <time>2020-07-12T08:31:51Z</time>
      </trkpt>
      <trkpt lat="36.9392360" lon="-3.3654840">
        <ele>916.8</ele>
        <time>2020-07-12T08:31:54Z</time>
      </trkpt>
      <trkpt lat="36.9393160" lon="-3.3654210">
        <ele>917.2</ele>
        <time>2020-07-12T08:31:56Z</time>
      </trkpt>
      <trkpt lat="36.9394710" lon="-3.3653190">
        <ele>917.8</ele>
        <time>2020-07-12T08:31:59Z</time>
      </trkpt>
      <trkpt lat="36.9396360" lon="-3.3652210">
        <ele>918.2</ele>
        <time>2020-07-12T08:32:02Z</time>
      </trkpt>
      <trkpt lat="36.9398510" lon="-3.3651440">
        <ele>918.2</ele>
        <time>2020-07-12T08:32:06Z</time>
      </trkpt>
      <trkpt lat="36.9399140" lon="-3.3651310">
        <ele>918.2</ele>
        <time>2020-07-12T08:32:07Z</time>
      </trkpt>
      <trkpt lat="36.9403210" lon="-3.3650320">
        <ele>918.6</ele>
        <time>2020-07-12T08:32:14Z</time>
      </trkpt>
      <trkpt lat="36.9403800" lon="-3.3650270">
        <ele>918.8</ele>
        <time>2020-07-12T08:32:15Z</time>
      </trkpt>
      <trkpt lat="36.9404330" lon="-3.3650200">
        <ele>918.8</ele>
        <time>2020-07-12T08:32:16Z</time>
      </trkpt>
      <trkpt lat="36.9405640" lon="-3.3649940">
        <ele>918.8</ele>
        <time>2020-07-12T08:32:18Z</time>
      </trkpt>
      <trkpt lat="36.9406290" lon="-3.3649690">
        <ele>918.8</ele>
        <time>2020-07-12T08:32:19Z</time>
      </trkpt>
      <trkpt lat="36.9407370" lon="-3.3648970">
        <ele>918.8</ele>
        <time>2020-07-12T08:32:21Z</time>
      </trkpt>
      <trkpt lat="36.9409370" lon="-3.3647670">
        <ele>918.2</ele>
        <time>2020-07-12T08:32:24Z</time>
      </trkpt>
      <trkpt lat="36.9410090" lon="-3.3647460">
        <ele>918.2</ele>
        <time>2020-07-12T08:32:25Z</time>
      </trkpt>
      <trkpt lat="36.9412410" lon="-3.3647440">
        <ele>917.8</ele>
        <time>2020-07-12T08:32:28Z</time>
      </trkpt>
      <trkpt lat="36.9413210" lon="-3.3647480">
        <ele>917.6</ele>
        <time>2020-07-12T08:32:29Z</time>
      </trkpt>
      <trkpt lat="36.9414040" lon="-3.3647420">
        <ele>917.4</ele>
        <time>2020-07-12T08:32:30Z</time>
      </trkpt>
      <trkpt lat="36.9415680" lon="-3.3647020">
        <ele>916.8</ele>
        <time>2020-07-12T08:32:32Z</time>
      </trkpt>
      <trkpt lat="36.9416480" lon="-3.3646750">
        <ele>916.4</ele>
        <time>2020-07-12T08:32:33Z</time>
      </trkpt>
      <trkpt lat="36.9418000" lon="-3.3646250">
        <ele>916.0</ele>
        <time>2020-07-12T08:32:35Z</time>
      </trkpt>
      <trkpt lat="36.9420380" lon="-3.3645120">
        <ele>915.8</ele>
        <time>2020-07-12T08:32:38Z</time>
      </trkpt>
      <trkpt lat="36.9421030" lon="-3.3644640">
        <ele>915.8</ele>
        <time>2020-07-12T08:32:39Z</time>
      </trkpt>
      <trkpt lat="36.9422980" lon="-3.3643240">
        <ele>915.2</ele>
        <time>2020-07-12T08:32:42Z</time>
      </trkpt>
      <trkpt lat="36.9424060" lon="-3.3642330">
        <ele>915.0</ele>
        <time>2020-07-12T08:32:44Z</time>
      </trkpt>
      <trkpt lat="36.9424760" lon="-3.3641080">
        <ele>914.8</ele>
        <time>2020-07-12T08:32:46Z</time>
      </trkpt>
      <trkpt lat="36.9424750" lon="-3.3639550">
        <ele>914.8</ele>
        <time>2020-07-12T08:32:48Z</time>
      </trkpt>
      <trkpt lat="36.9423880" lon="-3.3638470">
        <ele>914.8</ele>
        <time>2020-07-12T08:32:50Z</time>
      </trkpt>
      <trkpt lat="36.9423430" lon="-3.3638040">
        <ele>915.0</ele>
        <time>2020-07-12T08:32:51Z</time>
      </trkpt>
      <trkpt lat="36.9422410" lon="-3.3637240">
        <ele>915.2</ele>
        <time>2020-07-12T08:32:53Z</time>
      </trkpt>
      <trkpt lat="36.9421400" lon="-3.3637130">
        <ele>915.4</ele>
        <time>2020-07-12T08:32:55Z</time>
      </trkpt>
      <trkpt lat="36.9419050" lon="-3.3636920">
        <ele>916.2</ele>
        <time>2020-07-12T08:33:00Z</time>
      </trkpt>
      <trkpt lat="36.9418670" lon="-3.3636820">
        <ele>916.4</ele>
        <time>2020-07-12T08:33:01Z</time>
      </trkpt>
      <trkpt lat="36.9417840" lon="-3.3636600">
        <ele>917.0</ele>
        <time>2020-07-12T08:33:03Z</time>
      </trkpt>
      <trkpt lat="36.9417070" lon="-3.3636360">
        <ele>917.6</ele>
        <time>2020-07-12T08:33:05Z</time>
      </trkpt>
      <trkpt lat="36.9416340" lon="-3.3636180">
        <ele>918.0</ele>
        <time>2020-07-12T08:33:07Z</time>
      </trkpt>
      <trkpt lat="36.9415590" lon="-3.3635930">
        <ele>918.6</ele>
        <time>2020-07-12T08:33:09Z</time>
      </trkpt>
      <trkpt lat="36.9414560" lon="-3.3635440">
        <ele>919.4</ele>
        <time>2020-07-12T08:33:12Z</time>
      </trkpt>
      <trkpt lat="36.9413930" lon="-3.3635050">
        <ele>919.8</ele>
        <time>2020-07-12T08:33:14Z</time>
      </trkpt>
      <trkpt lat="36.9413300" lon="-3.3634620">
        <ele>920.4</ele>
        <time>2020-07-12T08:33:16Z</time>
      </trkpt>
      <trkpt lat="36.9412130" lon="-3.3633660">
        <ele>921.2</ele>
        <time>2020-07-12T08:33:20Z</time>
      </trkpt>
      <trkpt lat="36.9411820" lon="-3.3633440">
        <ele>921.4</ele>
        <time>2020-07-12T08:33:21Z</time>
      </trkpt>
      <trkpt lat="36.9410470" lon="-3.3632960">
        <ele>922.4</ele>
        <time>2020-07-12T08:33:25Z</time>
      </trkpt>
      <trkpt lat="36.9410100" lon="-3.3632890">
        <ele>922.6</ele>
        <time>2020-07-12T08:33:26Z</time>
      </trkpt>
      <trkpt lat="36.9408640" lon="-3.3632880">
        <ele>923.4</ele>
        <time>2020-07-12T08:33:30Z</time>
      </trkpt>
      <trkpt lat="36.9408350" lon="-3.3632830">
        <ele>923.6</ele>
        <time>2020-07-12T08:33:31Z</time>
      </trkpt>
      <trkpt lat="36.9406580" lon="-3.3632700">
        <ele>925.0</ele>
        <time>2020-07-12T08:33:36Z</time>
      </trkpt>
      <trkpt lat="36.9404840" lon="-3.3632600">
        <ele>926.0</ele>
        <time>2020-07-12T08:33:41Z</time>
      </trkpt>
      <trkpt lat="36.9403940" lon="-3.3632410">
        <ele>926.6</ele>
        <time>2020-07-12T08:33:44Z</time>
      </trkpt>
      <trkpt lat="36.9402990" lon="-3.3632280">
        <ele>927.2</ele>
        <time>2020-07-12T08:33:47Z</time>
      </trkpt>
      <trkpt lat="36.9401650" lon="-3.3632130">
        <ele>928.2</ele>
        <time>2020-07-12T08:33:51Z</time>
      </trkpt>
      <trkpt lat="36.9401310" lon="-3.3632140">
        <ele>928.4</ele>
        <time>2020-07-12T08:33:52Z</time>
      </trkpt>
      <trkpt lat="36.9399680" lon="-3.3632180">
        <ele>929.4</ele>
        <time>2020-07-12T08:33:57Z</time>
      </trkpt>
      <trkpt lat="36.9397780" lon="-3.3632190">
        <ele>930.6</ele>
        <time>2020-07-12T08:34:03Z</time>
      </trkpt>
      <trkpt lat="36.9397150" lon="-3.3632310">
        <ele>931.2</ele>
        <time>2020-07-12T08:34:05Z</time>
      </trkpt>
      <trkpt lat="36.9396240" lon="-3.3632390">
        <ele>931.8</ele>
        <time>2020-07-12T08:34:08Z</time>
      </trkpt>
      <trkpt lat="36.9394450" lon="-3.3632380">
        <ele>933.0</ele>
        <time>2020-07-12T08:34:14Z</time>
      </trkpt>
      <trkpt lat="36.9392930" lon="-3.3632270">
        <ele>934.0</ele>
        <time>2020-07-12T08:34:19Z</time>
      </trkpt>
      <trkpt lat="36.9391450" lon="-3.3632270">
        <ele>935.0</ele>
        <time>2020-07-12T08:34:24Z</time>
      </trkpt>
      <trkpt lat="36.9391200" lon="-3.3632300">
        <ele>935.2</ele>
        <time>2020-07-12T08:34:25Z</time>
      </trkpt>
      <trkpt lat="36.9389660" lon="-3.3632490">
        <ele>936.2</ele>
        <time>2020-07-12T08:34:30Z</time>
      </trkpt>
      <trkpt lat="36.9388450" lon="-3.3632640">
        <ele>937.2</ele>
        <time>2020-07-12T08:34:34Z</time>
      </trkpt>
      <trkpt lat="36.9387210" lon="-3.3632870">
        <ele>938.0</ele>
        <time>2020-07-12T08:34:38Z</time>
      </trkpt>
      <trkpt lat="36.9386910" lon="-3.3632920">
        <ele>938.2</ele>
        <time>2020-07-12T08:34:39Z</time>
      </trkpt>
      <trkpt lat="36.9385450" lon="-3.3633200">
        <ele>939.4</ele>
        <time>2020-07-12T08:34:44Z</time>
      </trkpt>
      <trkpt lat="36.9384910" lon="-3.3633430">
        <ele>939.6</ele>
        <time>2020-07-12T08:34:46Z</time>
      </trkpt>
      <trkpt lat="36.9384100" lon="-3.3633880">
        <ele>940.4</ele>
        <time>2020-07-12T08:34:49Z</time>
      </trkpt>
      <trkpt lat="36.9383720" lon="-3.3634420">
        <ele>940.8</ele>
        <time>2020-07-12T08:34:51Z</time>
      </trkpt>
      <trkpt lat="36.9383200" lon="-3.3635430">
        <ele>941.4</ele>
        <time>2020-07-12T08:34:54Z</time>
      </trkpt>
      <trkpt lat="36.9382460" lon="-3.3636200">
        <ele>942.0</ele>
        <time>2020-07-12T08:34:57Z</time>
      </trkpt>
      <trkpt lat="36.9381860" lon="-3.3636440">
        <ele>942.6</ele>
        <time>2020-07-12T08:34:59Z</time>
      </trkpt>
      <trkpt lat="36.9380950" lon="-3.3636300">
        <ele>943.2</ele>
        <time>2020-07-12T08:35:02Z</time>
      </trkpt>
      <trkpt lat="36.9380420" lon="-3.3635960">
        <ele>943.6</ele>
        <time>2020-07-12T08:35:04Z</time>
      </trkpt>
      <trkpt lat="36.9379800" lon="-3.3635150">
        <ele>944.4</ele>
        <time>2020-07-12T08:35:07Z</time>
      </trkpt>
      <trkpt lat="36.9379680" lon="-3.3634410">
        <ele>944.8</ele>
        <time>2020-07-12T08:35:09Z</time>
      </trkpt>
      <trkpt lat="36.9379980" lon="-3.3633370">
        <ele>945.6</ele>
        <time>2020-07-12T08:35:12Z</time>
      </trkpt>
      <trkpt lat="36.9380160" lon="-3.3633100">
        <ele>946.0</ele>
        <time>2020-07-12T08:35:13Z</time>
      </trkpt>
      <trkpt lat="36.9381110" lon="-3.3632490">
        <ele>947.0</ele>
        <time>2020-07-12T08:35:17Z</time>
      </trkpt>
      <trkpt lat="36.9382200" lon="-3.3632160">
        <ele>948.2</ele>
        <time>2020-07-12T08:35:21Z</time>
      </trkpt>
      <trkpt lat="36.9383150" lon="-3.3631910">
        <ele>948.8</ele>
        <time>2020-07-12T08:35:24Z</time>
      </trkpt>
      <trkpt lat="36.9384020" lon="-3.3631480">
        <ele>949.4</ele>
        <time>2020-07-12T08:35:27Z</time>
      </trkpt>
      <trkpt lat="36.9384880" lon="-3.3630900">
        <ele>950.0</ele>
        <time>2020-07-12T08:35:30Z</time>
      </trkpt>
      <trkpt lat="36.9385690" lon="-3.3630240">
        <ele>950.4</ele>
        <time>2020-07-12T08:35:33Z</time>
      </trkpt>
      <trkpt lat="36.9386820" lon="-3.3629610">
        <ele>951.4</ele>
        <time>2020-07-12T08:35:37Z</time>
      </trkpt>
      <trkpt lat="36.9387110" lon="-3.3629450">
        <ele>951.6</ele>
        <time>2020-07-12T08:35:38Z</time>
      </trkpt>
      <trkpt lat="36.9388530" lon="-3.3628700">
        <ele>952.8</ele>
        <time>2020-07-12T08:35:43Z</time>
      </trkpt>
      <trkpt lat="36.9389370" lon="-3.3628360">
        <ele>953.6</ele>
        <time>2020-07-12T08:35:46Z</time>
      </trkpt>
      <trkpt lat="36.9389710" lon="-3.3628260">
        <ele>954.0</ele>
        <time>2020-07-12T08:35:47Z</time>
      </trkpt>
      <trkpt lat="36.9391180" lon="-3.3628010">
        <ele>955.0</ele>
        <time>2020-07-12T08:35:52Z</time>
      </trkpt>
      <trkpt lat="36.9391530" lon="-3.3628000">
        <ele>955.2</ele>
        <time>2020-07-12T08:35:53Z</time>
      </trkpt>
      <trkpt lat="36.9392900" lon="-3.3627720">
        <ele>956.2</ele>
        <time>2020-07-12T08:35:58Z</time>
      </trkpt>
      <trkpt lat="36.9393420" lon="-3.3627600">
        <ele>956.6</ele>
        <time>2020-07-12T08:36:00Z</time>
      </trkpt>
      <trkpt lat="36.9394260" lon="-3.3627330">
        <ele>957.4</ele>
        <time>2020-07-12T08:36:03Z</time>
      </trkpt>
      <trkpt lat="36.9395630" lon="-3.3626960">
        <ele>958.4</ele>
        <time>2020-07-12T08:36:08Z</time>
      </trkpt>
      <trkpt lat="36.9395900" lon="-3.3626860">
        <ele>958.8</ele>
        <time>2020-07-12T08:36:09Z</time>
      </trkpt>
      <trkpt lat="36.9396730" lon="-3.3626570">
        <ele>959.6</ele>
        <time>2020-07-12T08:36:12Z</time>
      </trkpt>
      <trkpt lat="36.9398140" lon="-3.3626400">
        <ele>960.6</ele>
        <time>2020-07-12T08:36:17Z</time>
      </trkpt>
      <trkpt lat="36.9399530" lon="-3.3626200">
        <ele>961.6</ele>
        <time>2020-07-12T08:36:22Z</time>
      </trkpt>
      <trkpt lat="36.9400410" lon="-3.3626000">
        <ele>962.4</ele>
        <time>2020-07-12T08:36:25Z</time>
      </trkpt>
      <trkpt lat="36.9401010" lon="-3.3625900">
        <ele>962.8</ele>
        <time>2020-07-12T08:36:27Z</time>
      </trkpt>
      <trkpt lat="36.9402510" lon="-3.3625810">
        <ele>963.8</ele>
        <time>2020-07-12T08:36:32Z</time>
      </trkpt>
      <trkpt lat="36.9402810" lon="-3.3625790">
        <ele>964.0</ele>
        <time>2020-07-12T08:36:33Z</time>
      </trkpt>
      <trkpt lat="36.9404070" lon="-3.3625820">
        <ele>964.8</ele>
        <time>2020-07-12T08:36:37Z</time>
      </trkpt>
      <trkpt lat="36.9405000" lon="-3.3625880">
        <ele>965.4</ele>
        <time>2020-07-12T08:36:40Z</time>
      </trkpt>
      <trkpt lat="36.9406180" lon="-3.3625850">
        <ele>966.0</ele>
        <time>2020-07-12T08:36:44Z</time>
      </trkpt>
      <trkpt lat="36.9406990" lon="-3.3625640">
        <ele>966.8</ele>
        <time>2020-07-12T08:36:47Z</time>
      </trkpt>
      <trkpt lat="36.9407290" lon="-3.3625510">
        <ele>967.0</ele>
        <time>2020-07-12T08:36:48Z</time>
      </trkpt>
      <trkpt lat="36.9408520" lon="-3.3624730">
        <ele>968.0</ele>
        <time>2020-07-12T08:36:53Z</time>
      </trkpt>
      <trkpt lat="36.9408760" lon="-3.3624520">
        <ele>968.4</ele>
        <time>2020-07-12T08:36:54Z</time>
      </trkpt>
      <trkpt lat="36.9409570" lon="-3.3623660">
        <ele>969.2</ele>
        <time>2020-07-12T08:36:58Z</time>
      </trkpt>
      <trkpt lat="36.9410160" lon="-3.3623020">
        <ele>969.6</ele>
        <time>2020-07-12T08:37:01Z</time>
      </trkpt>
      <trkpt lat="36.9410770" lon="-3.3622320">
        <ele>970.2</ele>
        <time>2020-07-12T08:37:04Z</time>
      </trkpt>
      <trkpt lat="36.9411940" lon="-3.3621230">
        <ele>971.4</ele>
        <time>2020-07-12T08:37:09Z</time>
      </trkpt>
      <trkpt lat="36.9412400" lon="-3.3620890">
        <ele>971.8</ele>
        <time>2020-07-12T08:37:11Z</time>
      </trkpt>
      <trkpt lat="36.9413180" lon="-3.3620450">
        <ele>972.4</ele>
        <time>2020-07-12T08:37:14Z</time>
      </trkpt>
      <trkpt lat="36.9413900" lon="-3.3620050">
        <ele>973.0</ele>
        <time>2020-07-12T08:37:17Z</time>
      </trkpt>
      <trkpt lat="36.9414410" lon="-3.3619870">
        <ele>973.6</ele>
        <time>2020-07-12T08:37:19Z</time>
      </trkpt>
      <trkpt lat="36.9415880" lon="-3.3619570">
        <ele>974.6</ele>
        <time>2020-07-12T08:37:24Z</time>
      </trkpt>
      <trkpt lat="36.9416180" lon="-3.3619540">
        <ele>974.8</ele>
        <time>2020-07-12T08:37:25Z</time>
      </trkpt>
      <trkpt lat="36.9417660" lon="-3.3619160">
        <ele>975.6</ele>
        <time>2020-07-12T08:37:30Z</time>
      </trkpt>
      <trkpt lat="36.9418400" lon="-3.3618620">
        <ele>976.2</ele>
        <time>2020-07-12T08:37:33Z</time>
      </trkpt>
      <trkpt lat="36.9418650" lon="-3.3618060">
        <ele>976.6</ele>
        <time>2020-07-12T08:37:35Z</time>
      </trkpt>
      <trkpt lat="36.9418610" lon="-3.3617420">
        <ele>977.4</ele>
        <time>2020-07-12T08:37:37Z</time>
      </trkpt>
      <trkpt lat="36.9418520" lon="-3.3617110">
        <ele>977.6</ele>
        <time>2020-07-12T08:37:38Z</time>
      </trkpt>
      <trkpt lat="36.9417760" lon="-3.3616360">
        <ele>979.0</ele>
        <time>2020-07-12T08:37:42Z</time>
      </trkpt>
      <trkpt lat="36.9416710" lon="-3.3616100">
        <ele>980.2</ele>
        <time>2020-07-12T08:37:46Z</time>
      </trkpt>
      <trkpt lat="36.9416070" lon="-3.3616090">
        <ele>980.6</ele>
        <time>2020-07-12T08:37:48Z</time>
      </trkpt>
      <trkpt lat="36.9415250" lon="-3.3616150">
        <ele>981.4</ele>
        <time>2020-07-12T08:37:51Z</time>
      </trkpt>
      <trkpt lat="36.9413830" lon="-3.3616480">
        <ele>982.2</ele>
        <time>2020-07-12T08:37:56Z</time>
      </trkpt>
      <trkpt lat="36.9413550" lon="-3.3616570">
        <ele>982.6</ele>
        <time>2020-07-12T08:37:57Z</time>
      </trkpt>
      <trkpt lat="36.9411860" lon="-3.3617120">
        <ele>983.6</ele>
        <time>2020-07-12T08:38:03Z</time>
      </trkpt>
      <trkpt lat="36.9411080" lon="-3.3617510">
        <ele>984.2</ele>
        <time>2020-07-12T08:38:06Z</time>
      </trkpt>
      <trkpt lat="36.9410580" lon="-3.3617840">
        <ele>984.6</ele>
        <time>2020-07-12T08:38:08Z</time>
      </trkpt>
      <trkpt lat="36.9409830" lon="-3.3618760">
        <ele>985.4</ele>
        <time>2020-07-12T08:38:12Z</time>
      </trkpt>
      <trkpt lat="36.9409650" lon="-3.3619050">
        <ele>985.8</ele>
        <time>2020-07-12T08:38:13Z</time>
      </trkpt>
      <trkpt lat="36.9408880" lon="-3.3620450">
        <ele>986.8</ele>
        <time>2020-07-12T08:38:18Z</time>
      </trkpt>
      <trkpt lat="36.9408110" lon="-3.3621500">
        <ele>987.6</ele>
        <time>2020-07-12T08:38:22Z</time>
      </trkpt>
      <trkpt lat="36.9407840" lon="-3.3621740">
        <ele>987.8</ele>
        <time>2020-07-12T08:38:23Z</time>
      </trkpt>
      <trkpt lat="36.9406590" lon="-3.3622240">
        <ele>989.0</ele>
        <time>2020-07-12T08:38:28Z</time>
      </trkpt>
      <trkpt lat="36.9405420" lon="-3.3622070">
        <ele>990.0</ele>
        <time>2020-07-12T08:38:32Z</time>
      </trkpt>
      <trkpt lat="36.9404590" lon="-3.3621840">
        <ele>990.4</ele>
        <time>2020-07-12T08:38:35Z</time>
      </trkpt>
      <trkpt lat="36.9403520" lon="-3.3621510">
        <ele>991.2</ele>
        <time>2020-07-12T08:38:39Z</time>
      </trkpt>
      <trkpt lat="36.9402410" lon="-3.3621350">
        <ele>992.2</ele>
        <time>2020-07-12T08:38:43Z</time>
      </trkpt>
      <trkpt lat="36.9400760" lon="-3.3621250">
        <ele>993.4</ele>
        <time>2020-07-12T08:38:49Z</time>
      </trkpt>
      <trkpt lat="36.9399070" lon="-3.3621260">
        <ele>994.6</ele>
        <time>2020-07-12T08:38:55Z</time>
      </trkpt>
      <trkpt lat="36.9397700" lon="-3.3621260">
        <ele>995.6</ele>
        <time>2020-07-12T08:39:00Z</time>
      </trkpt>
      <trkpt lat="36.9396650" lon="-3.3621230">
        <ele>996.6</ele>
        <time>2020-07-12T08:39:04Z</time>
      </trkpt>
      <trkpt lat="36.9396370" lon="-3.3621250">
        <ele>996.8</ele>
        <time>2020-07-12T08:39:05Z</time>
      </trkpt>
      <trkpt lat="36.9395020" lon="-3.3621210">
        <ele>997.8</ele>
        <time>2020-07-12T08:39:10Z</time>
      </trkpt>
      <trkpt lat="36.9394140" lon="-3.3621130">
        <ele>998.4</ele>
        <time>2020-07-12T08:39:13Z</time>
      </trkpt>
      <trkpt lat="36.9393370" lon="-3.3620800">
        <ele>998.8</ele>
        <time>2020-07-12T08:39:16Z</time>
      </trkpt>
      <trkpt lat="36.9392630" lon="-3.3620110">
        <ele>999.6</ele>
        <time>2020-07-12T08:39:19Z</time>
      </trkpt>
      <trkpt lat="36.9392270" lon="-3.3619580">
        <ele>1000.0</ele>
        <time>2020-07-12T08:39:21Z</time>
      </trkpt>
      <trkpt lat="36.9391960" lon="-3.3618600">
        <ele>1000.6</ele>
        <time>2020-07-12T08:39:24Z</time>
      </trkpt>
      <trkpt lat="36.9391920" lon="-3.3617650">
        <ele>1001.4</ele>
        <time>2020-07-12T08:39:27Z</time>
      </trkpt>
      <trkpt lat="36.9392200" lon="-3.3616750">
        <ele>1002.2</ele>
        <time>2020-07-12T08:39:30Z</time>
      </trkpt>
      <trkpt lat="36.9392320" lon="-3.3616500">
        <ele>1002.4</ele>
        <time>2020-07-12T08:39:31Z</time>
      </trkpt>
      <trkpt lat="36.9393120" lon="-3.3615280">
        <ele>1003.4</ele>
        <time>2020-07-12T08:39:36Z</time>
      </trkpt>
      <trkpt lat="36.9393670" lon="-3.3614620">
        <ele>1004.0</ele>
        <time>2020-07-12T08:39:39Z</time>
      </trkpt>
      <trkpt lat="36.9394210" lon="-3.3613950">
        <ele>1004.6</ele>
        <time>2020-07-12T08:39:42Z</time>
      </trkpt>
      <trkpt lat="36.9395090" lon="-3.3612950">
        <ele>1005.8</ele>
        <time>2020-07-12T08:39:47Z</time>
      </trkpt>
      <trkpt lat="36.9396020" lon="-3.3611990">
        <ele>1006.8</ele>
        <time>2020-07-12T08:39:52Z</time>
      </trkpt>
      <trkpt lat="36.9396670" lon="-3.3611300">
        <ele>1007.4</ele>
        <time>2020-07-12T08:39:55Z</time>
      </trkpt>
      <trkpt lat="36.9397080" lon="-3.3610870">
        <ele>1007.8</ele>
        <time>2020-07-12T08:39:57Z</time>
      </trkpt>
      <trkpt lat="36.9398100" lon="-3.3609950">
        <ele>1008.8</ele>
        <time>2020-07-12T08:40:02Z</time>
      </trkpt>
      <trkpt lat="36.9398280" lon="-3.3609730">
        <ele>1009.2</ele>
        <time>2020-07-12T08:40:03Z</time>
      </trkpt>
      <trkpt lat="36.9399040" lon="-3.3609240">
        <ele>1010.2</ele>
        <time>2020-07-12T08:40:07Z</time>
      </trkpt>
      <trkpt lat="36.9399210" lon="-3.3609220">
        <ele>1010.6</ele>
        <time>2020-07-12T08:40:08Z</time>
      </trkpt>
      <trkpt lat="36.9399350" lon="-3.3609130">
        <ele>1010.8</ele>
        <time>2020-07-12T08:40:09Z</time>
      </trkpt>
      <trkpt lat="36.9399300" lon="-3.3609170">
        <ele>1011.0</ele>
        <time>2020-07-12T08:40:10Z</time>
      </trkpt>
      <trkpt lat="36.9399170" lon="-3.3609730">
        <ele>1011.6</ele>
        <time>2020-07-12T08:41:40Z</time>
      </trkpt>
      <trkpt lat="36.9399170" lon="-3.3609780">
        <ele>1011.6</ele>
        <time>2020-07-12T08:41:41Z</time>
      </trkpt>
      <trkpt lat="36.9399200" lon="-3.3609800">
        <ele>1011.6</ele>
        <time>2020-07-12T08:41:43Z</time>
      </trkpt>
      <trkpt lat="36.9399450" lon="-3.3609240">
        <ele>1011.0</ele>
        <time>2020-07-12T08:44:51Z</time>
      </trkpt>
      <trkpt lat="36.9399280" lon="-3.3609260">
        <ele>1011.0</ele>
        <time>2020-07-12T08:44:52Z</time>
      </trkpt>
      <trkpt lat="36.9398200" lon="-3.3608950">
        <ele>1010.6</ele>
        <time>2020-07-12T08:44:57Z</time>
      </trkpt>
      <trkpt lat="36.9398200" lon="-3.3608950">
        <ele>1010.8</ele>
        <time>2020-07-12T08:44:59Z</time>
      </trkpt>
      <trkpt lat="36.9397080" lon="-3.3607920">
        <ele>1011.0</ele>
        <time>2020-07-12T08:45:03Z</time>
      </trkpt>
      <trkpt lat="36.9396570" lon="-3.3607710">
        <ele>1011.6</ele>
        <time>2020-07-12T08:45:06Z</time>
      </trkpt>
      <trkpt lat="36.9395550" lon="-3.3607690">
        <ele>1012.8</ele>
        <time>2020-07-12T08:45:10Z</time>
      </trkpt>
      <trkpt lat="36.9395020" lon="-3.3607790">
        <ele>1013.4</ele>
        <time>2020-07-12T08:45:12Z</time>
      </trkpt>
      <trkpt lat="36.9394320" lon="-3.3608210">
        <ele>1013.8</ele>
        <time>2020-07-12T08:45:15Z</time>
      </trkpt>
      <trkpt lat="36.9393850" lon="-3.3608530">
        <ele>1014.2</ele>
        <time>2020-07-12T08:45:17Z</time>
      </trkpt>
      <trkpt lat="36.9393670" lon="-3.3608750">
        <ele>1014.4</ele>
        <time>2020-07-12T08:45:18Z</time>
      </trkpt>
      <trkpt lat="36.9393260" lon="-3.3609190">
        <ele>1014.8</ele>
        <time>2020-07-12T08:45:20Z</time>
      </trkpt>
      <trkpt lat="36.9393080" lon="-3.3609370">
        <ele>1015.0</ele>
        <time>2020-07-12T08:45:21Z</time>
      </trkpt>
      <trkpt lat="36.9392710" lon="-3.3609830">
        <ele>1015.2</ele>
        <time>2020-07-12T08:45:23Z</time>
      </trkpt>
      <trkpt lat="36.9392180" lon="-3.3610430">
        <ele>1016.0</ele>
        <time>2020-07-12T08:45:26Z</time>
      </trkpt>
      <trkpt lat="36.9391260" lon="-3.3611510">
        <ele>1016.8</ele>
        <time>2020-07-12T08:45:31Z</time>
      </trkpt>
      <trkpt lat="36.9390850" lon="-3.3611900">
        <ele>1017.2</ele>
        <time>2020-07-12T08:45:33Z</time>
      </trkpt>
      <trkpt lat="36.9389970" lon="-3.3612930">
        <ele>1018.0</ele>
        <time>2020-07-12T08:45:38Z</time>
      </trkpt>
      <trkpt lat="36.9389790" lon="-3.3613120">
        <ele>1018.4</ele>
        <time>2020-07-12T08:45:39Z</time>
      </trkpt>
      <trkpt lat="36.9388710" lon="-3.3614340">
        <ele>1019.6</ele>
        <time>2020-07-12T08:45:45Z</time>
      </trkpt>
      <trkpt lat="36.9388580" lon="-3.3614520">
        <ele>1019.6</ele>
        <time>2020-07-12T08:45:46Z</time>
      </trkpt>
      <trkpt lat="36.9387580" lon="-3.3615460">
        <ele>1020.6</ele>
        <time>2020-07-12T08:45:51Z</time>
      </trkpt>
      <trkpt lat="36.9386690" lon="-3.3616190">
        <ele>1021.4</ele>
        <time>2020-07-12T08:45:55Z</time>
      </trkpt>
      <trkpt lat="36.9386500" lon="-3.3616370">
        <ele>1021.6</ele>
        <time>2020-07-12T08:45:56Z</time>
      </trkpt>
      <trkpt lat="36.9384980" lon="-3.3617020">
        <ele>1022.6</ele>
        <time>2020-07-12T08:46:02Z</time>
      </trkpt>
      <trkpt lat="36.9383840" lon="-3.3616500">
        <ele>1023.6</ele>
        <time>2020-07-12T08:46:07Z</time>
      </trkpt>
      <trkpt lat="36.9383680" lon="-3.3616250">
        <ele>1023.8</ele>
        <time>2020-07-12T08:46:08Z</time>
      </trkpt>
      <trkpt lat="36.9383450" lon="-3.3615110">
        <ele>1025.0</ele>
        <time>2020-07-12T08:46:12Z</time>
      </trkpt>
      <trkpt lat="36.9383460" lon="-3.3614820">
        <ele>1025.2</ele>
        <time>2020-07-12T08:46:13Z</time>
      </trkpt>
      <trkpt lat="36.9383700" lon="-3.3614060">
        <ele>1026.0</ele>
        <time>2020-07-12T08:46:16Z</time>
      </trkpt>
      <trkpt lat="36.9384070" lon="-3.3613600">
        <ele>1026.6</ele>
        <time>2020-07-12T08:46:18Z</time>
      </trkpt>
      <trkpt lat="36.9384540" lon="-3.3612950">
        <ele>1027.2</ele>
        <time>2020-07-12T08:46:21Z</time>
      </trkpt>
      <trkpt lat="36.9385470" lon="-3.3612050">
        <ele>1028.2</ele>
        <time>2020-07-12T08:46:26Z</time>
      </trkpt>
      <trkpt lat="36.9385690" lon="-3.3611820">
        <ele>1028.4</ele>
        <time>2020-07-12T08:46:27Z</time>
      </trkpt>
      <trkpt lat="36.9386680" lon="-3.3610950">
        <ele>1029.4</ele>
        <time>2020-07-12T08:46:32Z</time>
      </trkpt>
      <trkpt lat="36.9387380" lon="-3.3610170">
        <ele>1030.2</ele>
        <time>2020-07-12T08:46:36Z</time>
      </trkpt>
      <trkpt lat="36.9387740" lon="-3.3609710">
        <ele>1030.6</ele>
        <time>2020-07-12T08:46:38Z</time>
      </trkpt>
      <trkpt lat="36.9388590" lon="-3.3608580">
        <ele>1031.6</ele>
        <time>2020-07-12T08:46:43Z</time>
      </trkpt>
      <trkpt lat="36.9389390" lon="-3.3607460">
        <ele>1032.4</ele>
        <time>2020-07-12T08:46:48Z</time>
      </trkpt>
      <trkpt lat="36.9389730" lon="-3.3607010">
        <ele>1032.8</ele>
        <time>2020-07-12T08:46:50Z</time>
      </trkpt>
      <trkpt lat="36.9390750" lon="-3.3605660">
        <ele>1033.8</ele>
        <time>2020-07-12T08:46:56Z</time>
      </trkpt>
      <trkpt lat="36.9390930" lon="-3.3605430">
        <ele>1034.0</ele>
        <time>2020-07-12T08:46:57Z</time>
      </trkpt>
      <trkpt lat="36.9391950" lon="-3.3604080">
        <ele>1035.0</ele>
        <time>2020-07-12T08:47:03Z</time>
      </trkpt>
      <trkpt lat="36.9392790" lon="-3.3602990">
        <ele>1036.0</ele>
        <time>2020-07-12T08:47:08Z</time>
      </trkpt>
      <trkpt lat="36.9393710" lon="-3.3601930">
        <ele>1037.0</ele>
        <time>2020-07-12T08:47:13Z</time>
      </trkpt>
      <trkpt lat="36.9394460" lon="-3.3601290">
        <ele>1037.8</ele>
        <time>2020-07-12T08:47:17Z</time>
      </trkpt>
      <trkpt lat="36.9394950" lon="-3.3600920">
        <ele>1038.0</ele>
        <time>2020-07-12T08:47:19Z</time>
      </trkpt>
      <trkpt lat="36.9396280" lon="-3.3600350">
        <ele>1038.8</ele>
        <time>2020-07-12T08:47:24Z</time>
      </trkpt>
      <trkpt lat="36.9397070" lon="-3.3600030">
        <ele>1039.2</ele>
        <time>2020-07-12T08:47:27Z</time>
      </trkpt>
      <trkpt lat="36.9398420" lon="-3.3598990">
        <ele>1040.2</ele>
        <time>2020-07-12T08:47:33Z</time>
      </trkpt>
      <trkpt lat="36.9398550" lon="-3.3598750">
        <ele>1040.4</ele>
        <time>2020-07-12T08:47:34Z</time>
      </trkpt>
      <trkpt lat="36.9398670" lon="-3.3597850">
        <ele>1040.8</ele>
        <time>2020-07-12T08:47:37Z</time>
      </trkpt>
      <trkpt lat="36.9398480" lon="-3.3597280">
        <ele>1041.2</ele>
        <time>2020-07-12T08:47:39Z</time>
      </trkpt>
      <trkpt lat="36.9397620" lon="-3.3596620">
        <ele>1042.4</ele>
        <time>2020-07-12T08:47:43Z</time>
      </trkpt>
      <trkpt lat="36.9397410" lon="-3.3596660">
        <ele>1042.6</ele>
        <time>2020-07-12T08:47:44Z</time>
      </trkpt>
      <trkpt lat="36.9396740" lon="-3.3596980">
        <ele>1043.6</ele>
        <time>2020-07-12T08:47:47Z</time>
      </trkpt>
      <trkpt lat="36.9396540" lon="-3.3597130">
        <ele>1044.2</ele>
        <time>2020-07-12T08:47:48Z</time>
      </trkpt>
      <trkpt lat="36.9396340" lon="-3.3597290">
        <ele>1044.4</ele>
        <time>2020-07-12T08:47:49Z</time>
      </trkpt>
      <trkpt lat="36.9396160" lon="-3.3597480">
        <ele>1044.8</ele>
        <time>2020-07-12T08:47:50Z</time>
      </trkpt>
      <trkpt lat="36.9395400" lon="-3.3598240">
        <ele>1046.0</ele>
        <time>2020-07-12T08:47:54Z</time>
      </trkpt>
      <trkpt lat="36.9394780" lon="-3.3598880">
        <ele>1046.6</ele>
        <time>2020-07-12T08:47:57Z</time>
      </trkpt>
      <trkpt lat="36.9394140" lon="-3.3599450">
        <ele>1047.2</ele>
        <time>2020-07-12T08:48:00Z</time>
      </trkpt>
      <trkpt lat="36.9393070" lon="-3.3600350">
        <ele>1048.0</ele>
        <time>2020-07-12T08:48:05Z</time>
      </trkpt>
      <trkpt lat="36.9392840" lon="-3.3600520">
        <ele>1048.2</ele>
        <time>2020-07-12T08:48:06Z</time>
      </trkpt>
      <trkpt lat="36.9391390" lon="-3.3601650">
        <ele>1049.2</ele>
        <time>2020-07-12T08:48:12Z</time>
      </trkpt>
      <trkpt lat="36.9390320" lon="-3.3602500">
        <ele>1049.8</ele>
        <time>2020-07-12T08:48:17Z</time>
      </trkpt>
      <trkpt lat="36.9389330" lon="-3.3603360">
        <ele>1050.4</ele>
        <time>2020-07-12T08:48:21Z</time>
      </trkpt>
      <trkpt lat="36.9388430" lon="-3.3604180">
        <ele>1051.6</ele>
        <time>2020-07-12T08:48:25Z</time>
      </trkpt>
      <trkpt lat="36.9387530" lon="-3.3605030">
        <ele>1052.4</ele>
        <time>2020-07-12T08:48:29Z</time>
      </trkpt>
      <trkpt lat="36.9387210" lon="-3.3605330">
        <ele>1052.6</ele>
        <time>2020-07-12T08:48:31Z</time>
      </trkpt>
      <trkpt lat="36.9385920" lon="-3.3606590">
        <ele>1053.6</ele>
        <time>2020-07-12T08:48:36Z</time>
      </trkpt>
      <trkpt lat="36.9385420" lon="-3.3607040">
        <ele>1054.2</ele>
        <time>2020-07-12T08:48:38Z</time>
      </trkpt>
      <trkpt lat="36.9384970" lon="-3.3607460">
        <ele>1054.6</ele>
        <time>2020-07-12T08:48:40Z</time>
      </trkpt>
      <trkpt lat="36.9383750" lon="-3.3608540">
        <ele>1056.0</ele>
        <time>2020-07-12T08:48:45Z</time>
      </trkpt>
      <trkpt lat="36.9382990" lon="-3.3609120">
        <ele>1056.8</ele>
        <time>2020-07-12T08:48:48Z</time>
      </trkpt>
      <trkpt lat="36.9382720" lon="-3.3609290">
        <ele>1057.0</ele>
        <time>2020-07-12T08:48:49Z</time>
      </trkpt>
      <trkpt lat="36.9381310" lon="-3.3610030">
        <ele>1058.2</ele>
        <time>2020-07-12T08:48:54Z</time>
      </trkpt>
      <trkpt lat="36.9380820" lon="-3.3610410">
        <ele>1058.6</ele>
        <time>2020-07-12T08:48:56Z</time>
      </trkpt>
      <trkpt lat="36.9380090" lon="-3.3611040">
        <ele>1059.2</ele>
        <time>2020-07-12T08:48:59Z</time>
      </trkpt>
      <trkpt lat="36.9379330" lon="-3.3612170">
        <ele>1060.0</ele>
        <time>2020-07-12T08:49:03Z</time>
      </trkpt>
      <trkpt lat="36.9378980" lon="-3.3612780">
        <ele>1060.2</ele>
        <time>2020-07-12T08:49:05Z</time>
      </trkpt>
      <trkpt lat="36.9377830" lon="-3.3615090">
        <ele>1061.4</ele>
        <time>2020-07-12T08:49:12Z</time>
      </trkpt>
      <trkpt lat="36.9377640" lon="-3.3615400">
        <ele>1061.6</ele>
        <time>2020-07-12T08:49:13Z</time>
      </trkpt>
      <trkpt lat="36.9376370" lon="-3.3617250">
        <ele>1062.6</ele>
        <time>2020-07-12T08:49:19Z</time>
      </trkpt>
      <trkpt lat="36.9376120" lon="-3.3617470">
        <ele>1062.8</ele>
        <time>2020-07-12T08:49:20Z</time>
      </trkpt>
      <trkpt lat="36.9374940" lon="-3.3618570">
        <ele>1063.8</ele>
        <time>2020-07-12T08:49:25Z</time>
      </trkpt>
      <trkpt lat="36.9374460" lon="-3.3618920">
        <ele>1064.2</ele>
        <time>2020-07-12T08:49:27Z</time>
      </trkpt>
      <trkpt lat="36.9373760" lon="-3.3619390">
        <ele>1064.8</ele>
        <time>2020-07-12T08:49:30Z</time>
      </trkpt>
      <trkpt lat="36.9372780" lon="-3.3619830">
        <ele>1065.8</ele>
        <time>2020-07-12T08:49:34Z</time>
      </trkpt>
      <trkpt lat="36.9372520" lon="-3.3619890">
        <ele>1066.0</ele>
        <time>2020-07-12T08:49:35Z</time>
      </trkpt>
      <trkpt lat="36.9372280" lon="-3.3619920">
        <ele>1066.2</ele>
        <time>2020-07-12T08:49:36Z</time>
      </trkpt>
      <trkpt lat="36.9371470" lon="-3.3620000">
        <ele>1067.0</ele>
        <time>2020-07-12T08:49:39Z</time>
      </trkpt>
      <trkpt lat="36.9370180" lon="-3.3620100">
        <ele>1068.2</ele>
        <time>2020-07-12T08:49:44Z</time>
      </trkpt>
      <trkpt lat="36.9369910" lon="-3.3620090">
        <ele>1068.6</ele>
        <time>2020-07-12T08:49:45Z</time>
      </trkpt>
      <trkpt lat="36.9368840" lon="-3.3620060">
        <ele>1069.4</ele>
        <time>2020-07-12T08:49:49Z</time>
      </trkpt>
      <trkpt lat="36.9367770" lon="-3.3620030">
        <ele>1070.4</ele>
        <time>2020-07-12T08:49:53Z</time>
      </trkpt>
      <trkpt lat="36.9367030" lon="-3.3620010">
        <ele>1071.2</ele>
        <time>2020-07-12T08:49:56Z</time>
      </trkpt>
      <trkpt lat="36.9366740" lon="-3.3620080">
        <ele>1071.6</ele>
        <time>2020-07-12T08:49:57Z</time>
      </trkpt>
      <trkpt lat="36.9365490" lon="-3.3620160">
        <ele>1072.6</ele>
        <time>2020-07-12T08:50:02Z</time>
      </trkpt>
      <trkpt lat="36.9365230" lon="-3.3620190">
        <ele>1072.8</ele>
        <time>2020-07-12T08:50:03Z</time>
      </trkpt>
      <trkpt lat="36.9364220" lon="-3.3620310">
        <ele>1073.8</ele>
        <time>2020-07-12T08:50:07Z</time>
      </trkpt>
      <trkpt lat="36.9363200" lon="-3.3620430">
        <ele>1074.8</ele>
        <time>2020-07-12T08:50:11Z</time>
      </trkpt>
      <trkpt lat="36.9361960" lon="-3.3620890">
        <ele>1075.8</ele>
        <time>2020-07-12T08:50:16Z</time>
      </trkpt>
      <trkpt lat="36.9361640" lon="-3.3620980">
        <ele>1076.2</ele>
        <time>2020-07-12T08:50:17Z</time>
      </trkpt>
      <trkpt lat="36.9360590" lon="-3.3621290">
        <ele>1077.0</ele>
        <time>2020-07-12T08:50:21Z</time>
      </trkpt>
      <trkpt lat="36.9358770" lon="-3.3621890">
        <ele>1078.0</ele>
        <time>2020-07-12T08:50:27Z</time>
      </trkpt>
      <trkpt lat="36.9357360" lon="-3.3622320">
        <ele>1079.2</ele>
        <time>2020-07-12T08:50:32Z</time>
      </trkpt>
      <trkpt lat="36.9356260" lon="-3.3622520">
        <ele>1080.2</ele>
        <time>2020-07-12T08:50:36Z</time>
      </trkpt>
      <trkpt lat="36.9355660" lon="-3.3622640">
        <ele>1080.6</ele>
        <time>2020-07-12T08:50:38Z</time>
      </trkpt>
      <trkpt lat="36.9354480" lon="-3.3622850">
        <ele>1081.4</ele>
        <time>2020-07-12T08:50:42Z</time>
      </trkpt>
      <trkpt lat="36.9353030" lon="-3.3623040">
        <ele>1082.2</ele>
        <time>2020-07-12T08:50:47Z</time>
      </trkpt>
      <trkpt lat="36.9352490" lon="-3.3623080">
        <ele>1082.6</ele>
        <time>2020-07-12T08:50:49Z</time>
      </trkpt>
      <trkpt lat="36.9351420" lon="-3.3623180">
        <ele>1083.2</ele>
        <time>2020-07-12T08:50:53Z</time>
      </trkpt>
      <trkpt lat="36.9350900" lon="-3.3623290">
        <ele>1083.8</ele>
        <time>2020-07-12T08:50:55Z</time>
      </trkpt>
      <trkpt lat="36.9349690" lon="-3.3623880">
        <ele>1084.8</ele>
        <time>2020-07-12T08:51:00Z</time>
      </trkpt>
      <trkpt lat="36.9349500" lon="-3.3624050">
        <ele>1085.0</ele>
        <time>2020-07-12T08:51:01Z</time>
      </trkpt>
      <trkpt lat="36.9348460" lon="-3.3625210">
        <ele>1086.0</ele>
        <time>2020-07-12T08:51:06Z</time>
      </trkpt>
      <trkpt lat="36.9348100" lon="-3.3625790">
        <ele>1086.4</ele>
        <time>2020-07-12T08:51:08Z</time>
      </trkpt>
      <trkpt lat="36.9347610" lon="-3.3626600">
        <ele>1087.0</ele>
        <time>2020-07-12T08:51:11Z</time>
      </trkpt>
      <trkpt lat="36.9346760" lon="-3.3627970">
        <ele>1088.2</ele>
        <time>2020-07-12T08:51:16Z</time>
      </trkpt>
      <trkpt lat="36.9345790" lon="-3.3629180">
        <ele>1089.2</ele>
        <time>2020-07-12T08:51:21Z</time>
      </trkpt>
      <trkpt lat="36.9345240" lon="-3.3629650">
        <ele>1089.6</ele>
        <time>2020-07-12T08:51:23Z</time>
      </trkpt>
      <trkpt lat="36.9344450" lon="-3.3630280">
        <ele>1090.2</ele>
        <time>2020-07-12T08:51:26Z</time>
      </trkpt>
      <trkpt lat="36.9343170" lon="-3.3631380">
        <ele>1091.2</ele>
        <time>2020-07-12T08:51:31Z</time>
      </trkpt>
      <trkpt lat="36.9342890" lon="-3.3631590">
        <ele>1091.6</ele>
        <time>2020-07-12T08:51:32Z</time>
      </trkpt>
      <trkpt lat="36.9342120" lon="-3.3632160">
        <ele>1092.4</ele>
        <time>2020-07-12T08:51:35Z</time>
      </trkpt>
      <trkpt lat="36.9340820" lon="-3.3633030">
        <ele>1093.4</ele>
        <time>2020-07-12T08:51:40Z</time>
      </trkpt>
      <trkpt lat="36.9340280" lon="-3.3633390">
        <ele>1094.0</ele>
        <time>2020-07-12T08:51:42Z</time>
      </trkpt>
      <trkpt lat="36.9339490" lon="-3.3633890">
        <ele>1094.6</ele>
        <time>2020-07-12T08:51:45Z</time>
      </trkpt>
      <trkpt lat="36.9337510" lon="-3.3634770">
        <ele>1095.8</ele>
        <time>2020-07-12T08:51:52Z</time>
      </trkpt>
      <trkpt lat="36.9335550" lon="-3.3635490">
        <ele>1097.0</ele>
        <time>2020-07-12T08:51:59Z</time>
      </trkpt>
      <trkpt lat="36.9335280" lon="-3.3635580">
        <ele>1097.4</ele>
        <time>2020-07-12T08:52:00Z</time>
      </trkpt>
      <trkpt lat="36.9334180" lon="-3.3635940">
        <ele>1098.2</ele>
        <time>2020-07-12T08:52:04Z</time>
      </trkpt>
      <trkpt lat="36.9332730" lon="-3.3636290">
        <ele>1099.2</ele>
        <time>2020-07-12T08:52:09Z</time>
      </trkpt>
      <trkpt lat="36.9332450" lon="-3.3636360">
        <ele>1099.4</ele>
        <time>2020-07-12T08:52:10Z</time>
      </trkpt>
      <trkpt lat="36.9330930" lon="-3.3636640">
        <ele>1100.2</ele>
        <time>2020-07-12T08:52:15Z</time>
      </trkpt>
      <trkpt lat="36.9330170" lon="-3.3636810">
        <ele>1100.8</ele>
        <time>2020-07-12T08:52:18Z</time>
      </trkpt>
      <trkpt lat="36.9329230" lon="-3.3637080">
        <ele>1101.4</ele>
        <time>2020-07-12T08:52:21Z</time>
      </trkpt>
      <trkpt lat="36.9327790" lon="-3.3637410">
        <ele>1102.6</ele>
        <time>2020-07-12T08:52:26Z</time>
      </trkpt>
      <trkpt lat="36.9327210" lon="-3.3637540">
        <ele>1103.0</ele>
        <time>2020-07-12T08:52:28Z</time>
      </trkpt>
      <trkpt lat="36.9326350" lon="-3.3637760">
        <ele>1103.6</ele>
        <time>2020-07-12T08:52:31Z</time>
      </trkpt>
      <trkpt lat="36.9324900" lon="-3.3638060">
        <ele>1104.8</ele>
        <time>2020-07-12T08:52:36Z</time>
      </trkpt>
      <trkpt lat="36.9324590" lon="-3.3638140">
        <ele>1105.0</ele>
        <time>2020-07-12T08:52:37Z</time>
      </trkpt>
      <trkpt lat="36.9323130" lon="-3.3638560">
        <ele>1105.8</ele>
        <time>2020-07-12T08:52:42Z</time>
      </trkpt>
      <trkpt lat="36.9321670" lon="-3.3639110">
        <ele>1107.0</ele>
        <time>2020-07-12T08:52:47Z</time>
      </trkpt>
      <trkpt lat="36.9320230" lon="-3.3639720">
        <ele>1108.0</ele>
        <time>2020-07-12T08:52:52Z</time>
      </trkpt>
      <trkpt lat="36.9318700" lon="-3.3640430">
        <ele>1109.0</ele>
        <time>2020-07-12T08:52:57Z</time>
      </trkpt>
      <trkpt lat="36.9318430" lon="-3.3640580">
        <ele>1109.0</ele>
        <time>2020-07-12T08:52:58Z</time>
      </trkpt>
      <trkpt lat="36.9316720" lon="-3.3641590">
        <ele>1110.2</ele>
        <time>2020-07-12T08:53:04Z</time>
      </trkpt>
      <trkpt lat="36.9315550" lon="-3.3642210">
        <ele>1111.2</ele>
        <time>2020-07-12T08:53:08Z</time>
      </trkpt>
      <trkpt lat="36.9315250" lon="-3.3642360">
        <ele>1111.4</ele>
        <time>2020-07-12T08:53:09Z</time>
      </trkpt>
      <trkpt lat="36.9313120" lon="-3.3643000">
        <ele>1112.4</ele>
        <time>2020-07-12T08:53:15Z</time>
      </trkpt>
      <trkpt lat="36.9312730" lon="-3.3643000">
        <ele>1112.4</ele>
        <time>2020-07-12T08:53:16Z</time>
      </trkpt>
      <trkpt lat="36.9310280" lon="-3.3643260">
        <ele>1112.6</ele>
        <time>2020-07-12T08:53:21Z</time>
      </trkpt>
      <trkpt lat="36.9309150" lon="-3.3643490">
        <ele>1112.6</ele>
        <time>2020-07-12T08:53:23Z</time>
      </trkpt>
      <trkpt lat="36.9306500" lon="-3.3644420">
        <ele>1112.6</ele>
        <time>2020-07-12T08:53:28Z</time>
      </trkpt>
      <trkpt lat="36.9305340" lon="-3.3644620">
        <ele>1112.8</ele>
        <time>2020-07-12T08:53:30Z</time>
      </trkpt>
      <trkpt lat="36.9303550" lon="-3.3644530">
        <ele>1113.0</ele>
        <time>2020-07-12T08:53:33Z</time>
      </trkpt>
      <trkpt lat="36.9302250" lon="-3.3644430">
        <ele>1113.0</ele>
        <time>2020-07-12T08:53:35Z</time>
      </trkpt>
      <trkpt lat="36.9299500" lon="-3.3644230">
        <ele>1112.6</ele>
        <time>2020-07-12T08:53:39Z</time>
      </trkpt>
      <trkpt lat="36.9296750" lon="-3.3644410">
        <ele>1112.6</ele>
        <time>2020-07-12T08:53:43Z</time>
      </trkpt>
      <trkpt lat="36.9293380" lon="-3.3645060">
        <ele>1112.8</ele>
        <time>2020-07-12T08:53:48Z</time>
      </trkpt>
      <trkpt lat="36.9291480" lon="-3.3645750">
        <ele>1112.8</ele>
        <time>2020-07-12T08:53:51Z</time>
      </trkpt>
      <trkpt lat="36.9288760" lon="-3.3647730">
        <ele>1113.2</ele>
        <time>2020-07-12T08:53:56Z</time>
      </trkpt>
      <trkpt lat="36.9287830" lon="-3.3648580">
        <ele>1113.4</ele>
        <time>2020-07-12T08:53:58Z</time>
      </trkpt>
      <trkpt lat="36.9286180" lon="-3.3650190">
        <ele>1114.4</ele>
        <time>2020-07-12T08:54:02Z</time>
      </trkpt>
      <trkpt lat="36.9285770" lon="-3.3650600">
        <ele>1114.6</ele>
        <time>2020-07-12T08:54:03Z</time>
      </trkpt>
      <trkpt lat="36.9283700" lon="-3.3652300">
        <ele>1115.6</ele>
        <time>2020-07-12T08:54:08Z</time>
      </trkpt>
      <trkpt lat="36.9282900" lon="-3.3652900">
        <ele>1116.2</ele>
        <time>2020-07-12T08:54:10Z</time>
      </trkpt>
      <trkpt lat="36.9281720" lon="-3.3653950">
        <ele>1116.8</ele>
        <time>2020-07-12T08:54:13Z</time>
      </trkpt>
      <trkpt lat="36.9279700" lon="-3.3655440">
        <ele>1118.0</ele>
        <time>2020-07-12T08:54:18Z</time>
      </trkpt>
      <trkpt lat="36.9277420" lon="-3.3657360">
        <ele>1119.0</ele>
        <time>2020-07-12T08:54:24Z</time>
      </trkpt>
      <trkpt lat="36.9276770" lon="-3.3657930">
        <ele>1119.4</ele>
        <time>2020-07-12T08:54:26Z</time>
      </trkpt>
      <trkpt lat="36.9275410" lon="-3.3659150">
        <ele>1120.2</ele>
        <time>2020-07-12T08:54:30Z</time>
      </trkpt>
      <trkpt lat="36.9273420" lon="-3.3660820">
        <ele>1121.4</ele>
        <time>2020-07-12T08:54:36Z</time>
      </trkpt>
      <trkpt lat="36.9272230" lon="-3.3661240">
        <ele>1122.0</ele>
        <time>2020-07-12T08:54:39Z</time>
      </trkpt>
      <trkpt lat="36.9271470" lon="-3.3661190">
        <ele>1122.2</ele>
        <time>2020-07-12T08:54:41Z</time>
      </trkpt>
      <trkpt lat="36.9270670" lon="-3.3660760">
        <ele>1122.6</ele>
        <time>2020-07-12T08:54:43Z</time>
      </trkpt>
      <trkpt lat="36.9270070" lon="-3.3660010">
        <ele>1122.8</ele>
        <time>2020-07-12T08:54:45Z</time>
      </trkpt>
      <trkpt lat="36.9269340" lon="-3.3657870">
        <ele>1123.2</ele>
        <time>2020-07-12T08:54:49Z</time>
      </trkpt>
      <trkpt lat="36.9268360" lon="-3.3653800">
        <ele>1123.6</ele>
        <time>2020-07-12T08:54:56Z</time>
      </trkpt>
      <trkpt lat="36.9268240" lon="-3.3653180">
        <ele>1123.8</ele>
        <time>2020-07-12T08:54:57Z</time>
      </trkpt>
      <trkpt lat="36.9267550" lon="-3.3650890">
        <ele>1124.2</ele>
        <time>2020-07-12T08:55:01Z</time>
      </trkpt>
      <trkpt lat="36.9266970" lon="-3.3649800">
        <ele>1124.4</ele>
        <time>2020-07-12T08:55:03Z</time>
      </trkpt>
      <trkpt lat="36.9266070" lon="-3.3647550">
        <ele>1124.6</ele>
        <time>2020-07-12T08:55:07Z</time>
      </trkpt>
      <trkpt lat="36.9265980" lon="-3.3646200">
        <ele>1124.8</ele>
        <time>2020-07-12T08:55:09Z</time>
      </trkpt>
      <trkpt lat="36.9266130" lon="-3.3642320">
        <ele>1125.4</ele>
        <time>2020-07-12T08:55:15Z</time>
      </trkpt>
      <trkpt lat="36.9266220" lon="-3.3641730">
        <ele>1125.4</ele>
        <time>2020-07-12T08:55:16Z</time>
      </trkpt>
      <trkpt lat="36.9266520" lon="-3.3640350">
        <ele>1125.6</ele>
        <time>2020-07-12T08:55:18Z</time>
      </trkpt>
      <trkpt lat="36.9266770" lon="-3.3637360">
        <ele>1125.4</ele>
        <time>2020-07-12T08:55:22Z</time>
      </trkpt>
      <trkpt lat="36.9266020" lon="-3.3634250">
        <ele>1125.0</ele>
        <time>2020-07-12T08:55:26Z</time>
      </trkpt>
      <trkpt lat="36.9264910" lon="-3.3630050">
        <ele>1124.8</ele>
        <time>2020-07-12T08:55:31Z</time>
      </trkpt>
      <trkpt lat="36.9264810" lon="-3.3629020">
        <ele>1124.8</ele>
        <time>2020-07-12T08:55:32Z</time>
      </trkpt>
      <trkpt lat="36.9264880" lon="-3.3626160">
        <ele>1124.6</ele>
        <time>2020-07-12T08:55:35Z</time>
      </trkpt>
      <trkpt lat="36.9265060" lon="-3.3625340">
        <ele>1124.4</ele>
        <time>2020-07-12T08:55:36Z</time>
      </trkpt>
      <trkpt lat="36.9266330" lon="-3.3622850">
        <ele>1123.6</ele>
        <time>2020-07-12T08:55:39Z</time>
      </trkpt>
      <trkpt lat="36.9266810" lon="-3.3622160">
        <ele>1123.4</ele>
        <time>2020-07-12T08:55:40Z</time>
      </trkpt>
      <trkpt lat="36.9267290" lon="-3.3621440">
        <ele>1123.2</ele>
        <time>2020-07-12T08:55:41Z</time>
      </trkpt>
      <trkpt lat="36.9268260" lon="-3.3619860">
        <ele>1122.8</ele>
        <time>2020-07-12T08:55:43Z</time>
      </trkpt>
      <trkpt lat="36.9268630" lon="-3.3619000">
        <ele>1122.6</ele>
        <time>2020-07-12T08:55:44Z</time>
      </trkpt>
      <trkpt lat="36.9268770" lon="-3.3618020">
        <ele>1122.2</ele>
        <time>2020-07-12T08:55:45Z</time>
      </trkpt>
      <trkpt lat="36.9268020" lon="-3.3615310">
        <ele>1121.6</ele>
        <time>2020-07-12T08:55:48Z</time>
      </trkpt>
      <trkpt lat="36.9267120" lon="-3.3613620">
        <ele>1121.2</ele>
        <time>2020-07-12T08:55:50Z</time>
      </trkpt>
      <trkpt lat="36.9266790" lon="-3.3612930">
        <ele>1121.2</ele>
        <time>2020-07-12T08:55:51Z</time>
      </trkpt>
      <trkpt lat="36.9266100" lon="-3.3611110">
        <ele>1121.2</ele>
        <time>2020-07-12T08:55:53Z</time>
      </trkpt>
      <trkpt lat="36.9265610" lon="-3.3609330">
        <ele>1121.2</ele>
        <time>2020-07-12T08:55:55Z</time>
      </trkpt>
      <trkpt lat="36.9265360" lon="-3.3607360">
        <ele>1121.0</ele>
        <time>2020-07-12T08:55:57Z</time>
      </trkpt>
      <trkpt lat="36.9265370" lon="-3.3606550">
        <ele>1121.0</ele>
        <time>2020-07-12T08:55:58Z</time>
      </trkpt>
      <trkpt lat="36.9265510" lon="-3.3601390">
        <ele>1120.6</ele>
        <time>2020-07-12T08:56:03Z</time>
      </trkpt>
      <trkpt lat="36.9265170" lon="-3.3598350">
        <ele>1120.2</ele>
        <time>2020-07-12T08:56:06Z</time>
      </trkpt>
      <trkpt lat="36.9264860" lon="-3.3596220">
        <ele>1119.8</ele>
        <time>2020-07-12T08:56:08Z</time>
      </trkpt>
      <trkpt lat="36.9264720" lon="-3.3591930">
        <ele>1119.2</ele>
        <time>2020-07-12T08:56:12Z</time>
      </trkpt>
      <trkpt lat="36.9264760" lon="-3.3590850">
        <ele>1119.0</ele>
        <time>2020-07-12T08:56:13Z</time>
      </trkpt>
      <trkpt lat="36.9264920" lon="-3.3586580">
        <ele>1118.0</ele>
        <time>2020-07-12T08:56:17Z</time>
      </trkpt>
      <trkpt lat="36.9264690" lon="-3.3582310">
        <ele>1117.4</ele>
        <time>2020-07-12T08:56:21Z</time>
      </trkpt>
      <trkpt lat="36.9264330" lon="-3.3580210">
        <ele>1117.4</ele>
        <time>2020-07-12T08:56:23Z</time>
      </trkpt>
      <trkpt lat="36.9263290" lon="-3.3574920">
        <ele>1117.6</ele>
        <time>2020-07-12T08:56:28Z</time>
      </trkpt>
      <trkpt lat="36.9262530" lon="-3.3570300">
        <ele>1117.0</ele>
        <time>2020-07-12T08:56:32Z</time>
      </trkpt>
      <trkpt lat="36.9262760" lon="-3.3569040">
        <ele>1116.6</ele>
        <time>2020-07-12T08:56:33Z</time>
      </trkpt>
      <trkpt lat="36.9263720" lon="-3.3566700">
        <ele>1115.8</ele>
        <time>2020-07-12T08:56:35Z</time>
      </trkpt>
      <trkpt lat="36.9264220" lon="-3.3565470">
        <ele>1115.2</ele>
        <time>2020-07-12T08:56:36Z</time>
      </trkpt>
      <trkpt lat="36.9264640" lon="-3.3564050">
        <ele>1114.6</ele>
        <time>2020-07-12T08:56:37Z</time>
      </trkpt>
      <trkpt lat="36.9265010" lon="-3.3561190">
        <ele>1113.2</ele>
        <time>2020-07-12T08:56:39Z</time>
      </trkpt>
      <trkpt lat="36.9265840" lon="-3.3558620">
        <ele>1112.0</ele>
        <time>2020-07-12T08:56:41Z</time>
      </trkpt>
      <trkpt lat="36.9266600" lon="-3.3557240">
        <ele>1111.4</ele>
        <time>2020-07-12T08:56:42Z</time>
      </trkpt>
      <trkpt lat="36.9267330" lon="-3.3556020">
        <ele>1111.0</ele>
        <time>2020-07-12T08:56:43Z</time>
      </trkpt>
      <trkpt lat="36.9268800" lon="-3.3553550">
        <ele>1109.8</ele>
        <time>2020-07-12T08:56:45Z</time>
      </trkpt>
      <trkpt lat="36.9270990" lon="-3.3549870">
        <ele>1108.2</ele>
        <time>2020-07-12T08:56:48Z</time>
      </trkpt>
      <trkpt lat="36.9271500" lon="-3.3548670">
        <ele>1107.6</ele>
        <time>2020-07-12T08:56:49Z</time>
      </trkpt>
      <trkpt lat="36.9271660" lon="-3.3547390">
        <ele>1107.2</ele>
        <time>2020-07-12T08:56:50Z</time>
      </trkpt>
      <trkpt lat="36.9271410" lon="-3.3546150">
        <ele>1106.6</ele>
        <time>2020-07-12T08:56:51Z</time>
      </trkpt>
      <trkpt lat="36.9270820" lon="-3.3544970">
        <ele>1105.8</ele>
        <time>2020-07-12T08:56:52Z</time>
      </trkpt>
      <trkpt lat="36.9270000" lon="-3.3544180">
        <ele>1105.0</ele>
        <time>2020-07-12T08:56:53Z</time>
      </trkpt>
      <trkpt lat="36.9269010" lon="-3.3543880">
        <ele>1104.2</ele>
        <time>2020-07-12T08:56:54Z</time>
      </trkpt>
      <trkpt lat="36.9268120" lon="-3.3543840">
        <ele>1103.6</ele>
        <time>2020-07-12T08:56:55Z</time>
      </trkpt>
      <trkpt lat="36.9266500" lon="-3.3543760">
        <ele>1103.0</ele>
        <time>2020-07-12T08:56:57Z</time>
      </trkpt>
      <trkpt lat="36.9265720" lon="-3.3543650">
        <ele>1103.2</ele>
        <time>2020-07-12T08:56:58Z</time>
      </trkpt>
      <trkpt lat="36.9265100" lon="-3.3543540">
        <ele>1103.6</ele>
        <time>2020-07-12T08:56:59Z</time>
      </trkpt>
      <trkpt lat="36.9264370" lon="-3.3543380">
        <ele>1104.0</ele>
        <time>2020-07-12T08:57:00Z</time>
      </trkpt>
      <trkpt lat="36.9263770" lon="-3.3543260">
        <ele>1104.4</ele>
        <time>2020-07-12T08:57:01Z</time>
      </trkpt>
      <trkpt lat="36.9262530" lon="-3.3542930">
        <ele>1105.2</ele>
        <time>2020-07-12T08:57:03Z</time>
      </trkpt>
      <trkpt lat="36.9261490" lon="-3.3542590">
        <ele>1105.8</ele>
        <time>2020-07-12T08:57:05Z</time>
      </trkpt>
      <trkpt lat="36.9260940" lon="-3.3542400">
        <ele>1106.4</ele>
        <time>2020-07-12T08:57:06Z</time>
      </trkpt>
      <trkpt lat="36.9259540" lon="-3.3541750">
        <ele>1107.4</ele>
        <time>2020-07-12T08:57:09Z</time>
      </trkpt>
      <trkpt lat="36.9258750" lon="-3.3541200">
        <ele>1107.8</ele>
        <time>2020-07-12T08:57:11Z</time>
      </trkpt>
      <trkpt lat="36.9257960" lon="-3.3540550">
        <ele>1108.2</ele>
        <time>2020-07-12T08:57:13Z</time>
      </trkpt>
      <trkpt lat="36.9257590" lon="-3.3540270">
        <ele>1108.4</ele>
        <time>2020-07-12T08:57:14Z</time>
      </trkpt>
      <trkpt lat="36.9256860" lon="-3.3539690">
        <ele>1109.0</ele>
        <time>2020-07-12T08:57:16Z</time>
      </trkpt>
      <trkpt lat="36.9256470" lon="-3.3539370">
        <ele>1109.4</ele>
        <time>2020-07-12T08:57:17Z</time>
      </trkpt>
      <trkpt lat="36.9255650" lon="-3.3538820">
        <ele>1110.0</ele>
        <time>2020-07-12T08:57:19Z</time>
      </trkpt>
      <trkpt lat="36.9255260" lon="-3.3538600">
        <ele>1110.4</ele>
        <time>2020-07-12T08:57:20Z</time>
      </trkpt>
      <trkpt lat="36.9254490" lon="-3.3538150">
        <ele>1111.0</ele>
        <time>2020-07-12T08:57:22Z</time>
      </trkpt>
      <trkpt lat="36.9253720" lon="-3.3537720">
        <ele>1111.6</ele>
        <time>2020-07-12T08:57:24Z</time>
      </trkpt>
      <trkpt lat="36.9252990" lon="-3.3537250">
        <ele>1112.2</ele>
        <time>2020-07-12T08:57:26Z</time>
      </trkpt>
      <trkpt lat="36.9252240" lon="-3.3536910">
        <ele>1112.8</ele>
        <time>2020-07-12T08:57:28Z</time>
      </trkpt>
      <trkpt lat="36.9251330" lon="-3.3536540">
        <ele>1113.2</ele>
        <time>2020-07-12T08:57:30Z</time>
      </trkpt>
      <trkpt lat="36.9250170" lon="-3.3535970">
        <ele>1114.0</ele>
        <time>2020-07-12T08:57:33Z</time>
      </trkpt>
      <trkpt lat="36.9248700" lon="-3.3535150">
        <ele>1115.0</ele>
        <time>2020-07-12T08:57:37Z</time>
      </trkpt>
      <trkpt lat="36.9247850" lon="-3.3534370">
        <ele>1116.0</ele>
        <time>2020-07-12T08:57:40Z</time>
      </trkpt>
      <trkpt lat="36.9247590" lon="-3.3534140">
        <ele>1116.2</ele>
        <time>2020-07-12T08:57:41Z</time>
      </trkpt>
      <trkpt lat="36.9246410" lon="-3.3532510">
        <ele>1117.4</ele>
        <time>2020-07-12T08:57:46Z</time>
      </trkpt>
      <trkpt lat="36.9246200" lon="-3.3532150">
        <ele>1117.6</ele>
        <time>2020-07-12T08:57:47Z</time>
      </trkpt>
      <trkpt lat="36.9245200" lon="-3.3530310">
        <ele>1118.4</ele>
        <time>2020-07-12T08:57:52Z</time>
      </trkpt>
      <trkpt lat="36.9244350" lon="-3.3528580">
        <ele>1119.4</ele>
        <time>2020-07-12T08:57:57Z</time>
      </trkpt>
      <trkpt lat="36.9244190" lon="-3.3528190">
        <ele>1119.8</ele>
        <time>2020-07-12T08:57:58Z</time>
      </trkpt>
      <trkpt lat="36.9243340" lon="-3.3525630">
        <ele>1121.0</ele>
        <time>2020-07-12T08:58:04Z</time>
      </trkpt>
      <trkpt lat="36.9242640" lon="-3.3524020">
        <ele>1122.0</ele>
        <time>2020-07-12T08:58:08Z</time>
      </trkpt>
      <trkpt lat="36.9241690" lon="-3.3522630">
        <ele>1122.8</ele>
        <time>2020-07-12T08:58:12Z</time>
      </trkpt>
      <trkpt lat="36.9241140" lon="-3.3522020">
        <ele>1123.2</ele>
        <time>2020-07-12T08:58:14Z</time>
      </trkpt>
      <trkpt lat="36.9239660" lon="-3.3520920">
        <ele>1124.0</ele>
        <time>2020-07-12T08:58:19Z</time>
      </trkpt>
      <trkpt lat="36.9239380" lon="-3.3520700">
        <ele>1124.2</ele>
        <time>2020-07-12T08:58:20Z</time>
      </trkpt>
      <trkpt lat="36.9238090" lon="-3.3518930">
        <ele>1125.4</ele>
        <time>2020-07-12T08:58:26Z</time>
      </trkpt>
      <trkpt lat="36.9238080" lon="-3.3516840">
        <ele>1126.4</ele>
        <time>2020-07-12T08:58:31Z</time>
      </trkpt>
      <trkpt lat="36.9238830" lon="-3.3515370">
        <ele>1127.6</ele>
        <time>2020-07-12T08:58:35Z</time>
      </trkpt>
      <trkpt lat="36.9239080" lon="-3.3515060">
        <ele>1128.0</ele>
        <time>2020-07-12T08:58:36Z</time>
      </trkpt>
      <trkpt lat="36.9240420" lon="-3.3514000">
        <ele>1128.8</ele>
        <time>2020-07-12T08:58:40Z</time>
      </trkpt>
      <trkpt lat="36.9240750" lon="-3.3513800">
        <ele>1128.8</ele>
        <time>2020-07-12T08:58:41Z</time>
      </trkpt>
      <trkpt lat="36.9244500" lon="-3.3511220">
        <ele>1129.4</ele>
        <time>2020-07-12T08:58:52Z</time>
      </trkpt>
      <trkpt lat="36.9245070" lon="-3.3510680">
        <ele>1129.8</ele>
        <time>2020-07-12T08:58:54Z</time>
      </trkpt>
      <trkpt lat="36.9246220" lon="-3.3509520">
        <ele>1130.8</ele>
        <time>2020-07-12T08:58:58Z</time>
      </trkpt>
      <trkpt lat="36.9246470" lon="-3.3509210">
        <ele>1131.0</ele>
        <time>2020-07-12T08:58:59Z</time>
      </trkpt>
      <trkpt lat="36.9247290" lon="-3.3508280">
        <ele>1131.4</ele>
        <time>2020-07-12T08:59:02Z</time>
      </trkpt>
      <trkpt lat="36.9248050" lon="-3.3507330">
        <ele>1132.0</ele>
        <time>2020-07-12T08:59:05Z</time>
      </trkpt>
      <trkpt lat="36.9249380" lon="-3.3506030">
        <ele>1133.0</ele>
        <time>2020-07-12T08:59:10Z</time>
      </trkpt>
      <trkpt lat="36.9250530" lon="-3.3504920">
        <ele>1134.0</ele>
        <time>2020-07-12T08:59:15Z</time>
      </trkpt>
      <trkpt lat="36.9250750" lon="-3.3504740">
        <ele>1134.4</ele>
        <time>2020-07-12T08:59:16Z</time>
      </trkpt>
      <trkpt lat="36.9251780" lon="-3.3503950">
        <ele>1135.2</ele>
        <time>2020-07-12T08:59:20Z</time>
      </trkpt>
      <trkpt lat="36.9253110" lon="-3.3502940">
        <ele>1136.0</ele>
        <time>2020-07-12T08:59:25Z</time>
      </trkpt>
      <trkpt lat="36.9253360" lon="-3.3502770">
        <ele>1136.2</ele>
        <time>2020-07-12T08:59:26Z</time>
      </trkpt>
      <trkpt lat="36.9254760" lon="-3.3501280">
        <ele>1137.4</ele>
        <time>2020-07-12T08:59:32Z</time>
      </trkpt>
      <trkpt lat="36.9254950" lon="-3.3500950">
        <ele>1137.6</ele>
        <time>2020-07-12T08:59:33Z</time>
      </trkpt>
      <trkpt lat="36.9255520" lon="-3.3500080">
        <ele>1138.4</ele>
        <time>2020-07-12T08:59:36Z</time>
      </trkpt>
      <trkpt lat="36.9256490" lon="-3.3498530">
        <ele>1139.4</ele>
        <time>2020-07-12T08:59:41Z</time>
      </trkpt>
      <trkpt lat="36.9256710" lon="-3.3498220">
        <ele>1139.6</ele>
        <time>2020-07-12T08:59:42Z</time>
      </trkpt>
      <trkpt lat="36.9257560" lon="-3.3496780">
        <ele>1140.6</ele>
        <time>2020-07-12T08:59:46Z</time>
      </trkpt>
      <trkpt lat="36.9258470" lon="-3.3494620">
        <ele>1141.8</ele>
        <time>2020-07-12T08:59:52Z</time>
      </trkpt>
      <trkpt lat="36.9258560" lon="-3.3494260">
        <ele>1141.8</ele>
        <time>2020-07-12T08:59:53Z</time>
      </trkpt>
      <trkpt lat="36.9259040" lon="-3.3492260">
        <ele>1143.0</ele>
        <time>2020-07-12T08:59:58Z</time>
      </trkpt>
      <trkpt lat="36.9259580" lon="-3.3490660">
        <ele>1144.4</ele>
        <time>2020-07-12T09:00:02Z</time>
      </trkpt>
      <trkpt lat="36.9259760" lon="-3.3490300">
        <ele>1144.6</ele>
        <time>2020-07-12T09:00:03Z</time>
      </trkpt>
      <trkpt lat="36.9260600" lon="-3.3489030">
        <ele>1145.4</ele>
        <time>2020-07-12T09:00:07Z</time>
      </trkpt>
      <trkpt lat="36.9261500" lon="-3.3487850">
        <ele>1145.8</ele>
        <time>2020-07-12T09:00:11Z</time>
      </trkpt>
      <trkpt lat="36.9262630" lon="-3.3486180">
        <ele>1146.6</ele>
        <time>2020-07-12T09:00:16Z</time>
      </trkpt>
      <trkpt lat="36.9263260" lon="-3.3485130">
        <ele>1147.2</ele>
        <time>2020-07-12T09:00:19Z</time>
      </trkpt>
      <trkpt lat="36.9263630" lon="-3.3484480">
        <ele>1147.6</ele>
        <time>2020-07-12T09:00:21Z</time>
      </trkpt>
      <trkpt lat="36.9264850" lon="-3.3482970">
        <ele>1148.8</ele>
        <time>2020-07-12T09:00:26Z</time>
      </trkpt>
      <trkpt lat="36.9265150" lon="-3.3482700">
        <ele>1149.0</ele>
        <time>2020-07-12T09:00:27Z</time>
      </trkpt>
      <trkpt lat="36.9267250" lon="-3.3481320">
        <ele>1150.0</ele>
        <time>2020-07-12T09:00:34Z</time>
      </trkpt>
      <trkpt lat="36.9267480" lon="-3.3481170">
        <ele>1150.0</ele>
        <time>2020-07-12T09:00:35Z</time>
      </trkpt>
      <trkpt lat="36.9268970" lon="-3.3480320">
        <ele>1151.0</ele>
        <time>2020-07-12T09:00:40Z</time>
      </trkpt>
      <trkpt lat="36.9269520" lon="-3.3479970">
        <ele>1151.4</ele>
        <time>2020-07-12T09:00:42Z</time>
      </trkpt>
      <trkpt lat="36.9270610" lon="-3.3479200">
        <ele>1152.2</ele>
        <time>2020-07-12T09:00:46Z</time>
      </trkpt>
      <trkpt lat="36.9271870" lon="-3.3478350">
        <ele>1153.0</ele>
        <time>2020-07-12T09:00:50Z</time>
      </trkpt>
      <trkpt lat="36.9272420" lon="-3.3477830">
        <ele>1153.4</ele>
        <time>2020-07-12T09:00:52Z</time>
      </trkpt>
      <trkpt lat="36.9274090" lon="-3.3476430">
        <ele>1154.2</ele>
        <time>2020-07-12T09:00:58Z</time>
      </trkpt>
      <trkpt lat="36.9274610" lon="-3.3475970">
        <ele>1154.6</ele>
        <time>2020-07-12T09:01:00Z</time>
      </trkpt>
      <trkpt lat="36.9275960" lon="-3.3475040">
        <ele>1155.8</ele>
        <time>2020-07-12T09:01:05Z</time>
      </trkpt>
      <trkpt lat="36.9276230" lon="-3.3474860">
        <ele>1156.0</ele>
        <time>2020-07-12T09:01:06Z</time>
      </trkpt>
      <trkpt lat="36.9277390" lon="-3.3474060">
        <ele>1157.0</ele>
        <time>2020-07-12T09:01:10Z</time>
      </trkpt>
      <trkpt lat="36.9278650" lon="-3.3472940">
        <ele>1157.8</ele>
        <time>2020-07-12T09:01:15Z</time>
      </trkpt>
      <trkpt lat="36.9279110" lon="-3.3472480">
        <ele>1158.0</ele>
        <time>2020-07-12T09:01:17Z</time>
      </trkpt>
      <trkpt lat="36.9280800" lon="-3.3470620">
        <ele>1159.2</ele>
        <time>2020-07-12T09:01:24Z</time>
      </trkpt>
      <trkpt lat="36.9282000" lon="-3.3469400">
        <ele>1160.4</ele>
        <time>2020-07-12T09:01:29Z</time>
      </trkpt>
      <trkpt lat="36.9283030" lon="-3.3468390">
        <ele>1161.2</ele>
        <time>2020-07-12T09:01:33Z</time>
      </trkpt>
      <trkpt lat="36.9283290" lon="-3.3468110">
        <ele>1161.4</ele>
        <time>2020-07-12T09:01:34Z</time>
      </trkpt>
      <trkpt lat="36.9285040" lon="-3.3466190">
        <ele>1162.6</ele>
        <time>2020-07-12T09:01:41Z</time>
      </trkpt>
      <trkpt lat="36.9285620" lon="-3.3465620">
        <ele>1162.8</ele>
        <time>2020-07-12T09:01:43Z</time>
      </trkpt>
      <trkpt lat="36.9286630" lon="-3.3464580">
        <ele>1163.6</ele>
        <time>2020-07-12T09:01:47Z</time>
      </trkpt>
      <trkpt lat="36.9287900" lon="-3.3463110">
        <ele>1164.6</ele>
        <time>2020-07-12T09:01:52Z</time>
      </trkpt>
      <trkpt lat="36.9288110" lon="-3.3462830">
        <ele>1164.8</ele>
        <time>2020-07-12T09:01:53Z</time>
      </trkpt>
      <trkpt lat="36.9289070" lon="-3.3461130">
        <ele>1165.8</ele>
        <time>2020-07-12T09:01:58Z</time>
      </trkpt>
      <trkpt lat="36.9289490" lon="-3.3460070">
        <ele>1166.2</ele>
        <time>2020-07-12T09:02:01Z</time>
      </trkpt>
      <trkpt lat="36.9290200" lon="-3.3458710">
        <ele>1166.8</ele>
        <time>2020-07-12T09:02:05Z</time>
      </trkpt>
      <trkpt lat="36.9290850" lon="-3.3457720">
        <ele>1167.4</ele>
        <time>2020-07-12T09:02:08Z</time>
      </trkpt>
      <trkpt lat="36.9291280" lon="-3.3457090">
        <ele>1167.8</ele>
        <time>2020-07-12T09:02:10Z</time>
      </trkpt>
      <trkpt lat="36.9292110" lon="-3.3456010">
        <ele>1169.0</ele>
        <time>2020-07-12T09:02:14Z</time>
      </trkpt>
      <trkpt lat="36.9292530" lon="-3.3455530">
        <ele>1169.4</ele>
        <time>2020-07-12T09:02:16Z</time>
      </trkpt>
      <trkpt lat="36.9293230" lon="-3.3454750">
        <ele>1170.0</ele>
        <time>2020-07-12T09:02:19Z</time>
      </trkpt>
      <trkpt lat="36.9294690" lon="-3.3453320">
        <ele>1171.2</ele>
        <time>2020-07-12T09:02:25Z</time>
      </trkpt>
      <trkpt lat="36.9295230" lon="-3.3452850">
        <ele>1171.6</ele>
        <time>2020-07-12T09:02:27Z</time>
      </trkpt>
      <trkpt lat="36.9296040" lon="-3.3452120">
        <ele>1172.2</ele>
        <time>2020-07-12T09:02:30Z</time>
      </trkpt>
      <trkpt lat="36.9297240" lon="-3.3450910">
        <ele>1173.4</ele>
        <time>2020-07-12T09:02:35Z</time>
      </trkpt>
      <trkpt lat="36.9297670" lon="-3.3450340">
        <ele>1173.8</ele>
        <time>2020-07-12T09:02:37Z</time>
      </trkpt>
      <trkpt lat="36.9298430" lon="-3.3449150">
        <ele>1174.4</ele>
        <time>2020-07-12T09:02:41Z</time>
      </trkpt>
      <trkpt lat="36.9299470" lon="-3.3447370">
        <ele>1175.6</ele>
        <time>2020-07-12T09:02:47Z</time>
      </trkpt>
      <trkpt lat="36.9300390" lon="-3.3445770">
        <ele>1176.8</ele>
        <time>2020-07-12T09:02:52Z</time>
      </trkpt>
      <trkpt lat="36.9300940" lon="-3.3444820">
        <ele>1177.6</ele>
        <time>2020-07-12T09:02:55Z</time>
      </trkpt>
      <trkpt lat="36.9301320" lon="-3.3444200">
        <ele>1178.0</ele>
        <time>2020-07-12T09:02:57Z</time>
      </trkpt>
      <trkpt lat="36.9302050" lon="-3.3442910">
        <ele>1179.0</ele>
        <time>2020-07-12T09:03:01Z</time>
      </trkpt>
      <trkpt lat="36.9302780" lon="-3.3441570">
        <ele>1179.8</ele>
        <time>2020-07-12T09:03:05Z</time>
      </trkpt>
      <trkpt lat="36.9302940" lon="-3.3441220">
        <ele>1180.0</ele>
        <time>2020-07-12T09:03:06Z</time>
      </trkpt>
      <trkpt lat="36.9303750" lon="-3.3438970">
        <ele>1181.2</ele>
        <time>2020-07-12T09:03:12Z</time>
      </trkpt>
      <trkpt lat="36.9303870" lon="-3.3438560">
        <ele>1181.4</ele>
        <time>2020-07-12T09:03:13Z</time>
      </trkpt>
      <trkpt lat="36.9304170" lon="-3.3436630">
        <ele>1182.2</ele>
        <time>2020-07-12T09:03:18Z</time>
      </trkpt>
      <trkpt lat="36.9304250" lon="-3.3435600">
        <ele>1182.6</ele>
        <time>2020-07-12T09:03:21Z</time>
      </trkpt>
      <trkpt lat="36.9304270" lon="-3.3434870">
        <ele>1183.2</ele>
        <time>2020-07-12T09:03:23Z</time>
      </trkpt>
      <trkpt lat="36.9304350" lon="-3.3433030">
        <ele>1184.4</ele>
        <time>2020-07-12T09:03:28Z</time>
      </trkpt>
      <trkpt lat="36.9304500" lon="-3.3431480">
        <ele>1185.2</ele>
        <time>2020-07-12T09:03:32Z</time>
      </trkpt>
      <trkpt lat="36.9304570" lon="-3.3431070">
        <ele>1185.4</ele>
        <time>2020-07-12T09:03:33Z</time>
      </trkpt>
      <trkpt lat="36.9305140" lon="-3.3429110">
        <ele>1186.6</ele>
        <time>2020-07-12T09:03:38Z</time>
      </trkpt>
      <trkpt lat="36.9305420" lon="-3.3428390">
        <ele>1187.0</ele>
        <time>2020-07-12T09:03:40Z</time>
      </trkpt>
      <trkpt lat="36.9305880" lon="-3.3427340">
        <ele>1187.8</ele>
        <time>2020-07-12T09:03:43Z</time>
      </trkpt>
      <trkpt lat="36.9306480" lon="-3.3426090">
        <ele>1188.6</ele>
        <time>2020-07-12T09:03:47Z</time>
      </trkpt>
      <trkpt lat="36.9306610" lon="-3.3425730">
        <ele>1188.8</ele>
        <time>2020-07-12T09:03:48Z</time>
      </trkpt>
      <trkpt lat="36.9307330" lon="-3.3424250">
        <ele>1190.0</ele>
        <time>2020-07-12T09:03:53Z</time>
      </trkpt>
      <trkpt lat="36.9307500" lon="-3.3423940">
        <ele>1190.2</ele>
        <time>2020-07-12T09:03:54Z</time>
      </trkpt>
      <trkpt lat="36.9308100" lon="-3.3422690">
        <ele>1191.2</ele>
        <time>2020-07-12T09:03:58Z</time>
      </trkpt>
      <trkpt lat="36.9308660" lon="-3.3421130">
        <ele>1192.0</ele>
        <time>2020-07-12T09:04:02Z</time>
      </trkpt>
      <trkpt lat="36.9308890" lon="-3.3420010">
        <ele>1192.2</ele>
        <time>2020-07-12T09:04:05Z</time>
      </trkpt>
      <trkpt lat="36.9308910" lon="-3.3418150">
        <ele>1193.0</ele>
        <time>2020-07-12T09:04:09Z</time>
      </trkpt>
      <trkpt lat="36.9308840" lon="-3.3417380">
        <ele>1193.6</ele>
        <time>2020-07-12T09:04:11Z</time>
      </trkpt>
      <trkpt lat="36.9308660" lon="-3.3415640">
        <ele>1194.8</ele>
        <time>2020-07-12T09:04:15Z</time>
      </trkpt>
      <trkpt lat="36.9308600" lon="-3.3414190">
        <ele>1195.2</ele>
        <time>2020-07-12T09:04:18Z</time>
      </trkpt>
      <trkpt lat="36.9308680" lon="-3.3411150">
        <ele>1195.8</ele>
        <time>2020-07-12T09:04:24Z</time>
      </trkpt>
      <trkpt lat="36.9308910" lon="-3.3408980">
        <ele>1196.2</ele>
        <time>2020-07-12T09:04:28Z</time>
      </trkpt>
      <trkpt lat="36.9308960" lon="-3.3408450">
        <ele>1196.2</ele>
        <time>2020-07-12T09:04:29Z</time>
      </trkpt>
      <trkpt lat="36.9309600" lon="-3.3404970">
        <ele>1196.2</ele>
        <time>2020-07-12T09:04:35Z</time>
      </trkpt>
      <trkpt lat="36.9309880" lon="-3.3403720">
        <ele>1196.4</ele>
        <time>2020-07-12T09:04:37Z</time>
      </trkpt>
      <trkpt lat="36.9310070" lon="-3.3402520">
        <ele>1196.6</ele>
        <time>2020-07-12T09:04:39Z</time>
      </trkpt>
      <trkpt lat="36.9310470" lon="-3.3401320">
        <ele>1196.6</ele>
        <time>2020-07-12T09:04:41Z</time>
      </trkpt>
      <trkpt lat="36.9311460" lon="-3.3398510">
        <ele>1196.4</ele>
        <time>2020-07-12T09:04:45Z</time>
      </trkpt>
      <trkpt lat="36.9312290" lon="-3.3396350">
        <ele>1196.0</ele>
        <time>2020-07-12T09:04:48Z</time>
      </trkpt>
      <trkpt lat="36.9313260" lon="-3.3394290">
        <ele>1195.8</ele>
        <time>2020-07-12T09:04:51Z</time>
      </trkpt>
      <trkpt lat="36.9314150" lon="-3.3393100">
        <ele>1195.6</ele>
        <time>2020-07-12T09:04:53Z</time>
      </trkpt>
      <trkpt lat="36.9314660" lon="-3.3392480">
        <ele>1195.6</ele>
        <time>2020-07-12T09:04:54Z</time>
      </trkpt>
      <trkpt lat="36.9316360" lon="-3.3389940">
        <ele>1195.4</ele>
        <time>2020-07-12T09:04:58Z</time>
      </trkpt>
      <trkpt lat="36.9316790" lon="-3.3388330">
        <ele>1195.2</ele>
        <time>2020-07-12T09:05:00Z</time>
      </trkpt>
      <trkpt lat="36.9316290" lon="-3.3386710">
        <ele>1195.0</ele>
        <time>2020-07-12T09:05:02Z</time>
      </trkpt>
      <trkpt lat="36.9315510" lon="-3.3385070">
        <ele>1195.0</ele>
        <time>2020-07-12T09:05:04Z</time>
      </trkpt>
      <trkpt lat="36.9314550" lon="-3.3382390">
        <ele>1194.8</ele>
        <time>2020-07-12T09:05:07Z</time>
      </trkpt>
      <trkpt lat="36.9314770" lon="-3.3379230">
        <ele>1194.0</ele>
        <time>2020-07-12T09:05:10Z</time>
      </trkpt>
      <trkpt lat="36.9315780" lon="-3.3377370">
        <ele>1193.4</ele>
        <time>2020-07-12T09:05:12Z</time>
      </trkpt>
      <trkpt lat="36.9316380" lon="-3.3376490">
        <ele>1193.2</ele>
        <time>2020-07-12T09:05:13Z</time>
      </trkpt>
      <trkpt lat="36.9318040" lon="-3.3373680">
        <ele>1192.2</ele>
        <time>2020-07-12T09:05:16Z</time>
      </trkpt>
      <trkpt lat="36.9318870" lon="-3.3371610">
        <ele>1191.0</ele>
        <time>2020-07-12T09:05:18Z</time>
      </trkpt>
      <trkpt lat="36.9318510" lon="-3.3369650">
        <ele>1190.0</ele>
        <time>2020-07-12T09:05:20Z</time>
      </trkpt>
      <trkpt lat="36.9317140" lon="-3.3368690">
        <ele>1189.2</ele>
        <time>2020-07-12T09:05:22Z</time>
      </trkpt>
      <trkpt lat="36.9316500" lon="-3.3368300">
        <ele>1189.0</ele>
        <time>2020-07-12T09:05:23Z</time>
      </trkpt>
      <trkpt lat="36.9315950" lon="-3.3367800">
        <ele>1188.8</ele>
        <time>2020-07-12T09:05:24Z</time>
      </trkpt>
      <trkpt lat="36.9315180" lon="-3.3366490">
        <ele>1189.2</ele>
        <time>2020-07-12T09:05:26Z</time>
      </trkpt>
      <trkpt lat="36.9314770" lon="-3.3364890">
        <ele>1189.8</ele>
        <time>2020-07-12T09:05:28Z</time>
      </trkpt>
      <trkpt lat="36.9314760" lon="-3.3364090">
        <ele>1190.2</ele>
        <time>2020-07-12T09:05:29Z</time>
      </trkpt>
      <trkpt lat="36.9315310" lon="-3.3360730">
        <ele>1191.0</ele>
        <time>2020-07-12T09:05:33Z</time>
      </trkpt>
      <trkpt lat="36.9316050" lon="-3.3359300">
        <ele>1191.0</ele>
        <time>2020-07-12T09:05:35Z</time>
      </trkpt>
      <trkpt lat="36.9316910" lon="-3.3357850">
        <ele>1191.0</ele>
        <time>2020-07-12T09:05:37Z</time>
      </trkpt>
      <trkpt lat="36.9318600" lon="-3.3354830">
        <ele>1191.0</ele>
        <time>2020-07-12T09:05:41Z</time>
      </trkpt>
      <trkpt lat="36.9318800" lon="-3.3352790">
        <ele>1190.6</ele>
        <time>2020-07-12T09:05:43Z</time>
      </trkpt>
      <trkpt lat="36.9317860" lon="-3.3349870">
        <ele>1190.4</ele>
        <time>2020-07-12T09:05:46Z</time>
      </trkpt>
      <trkpt lat="36.9316630" lon="-3.3345620">
        <ele>1189.4</ele>
        <time>2020-07-12T09:05:50Z</time>
      </trkpt>
      <trkpt lat="36.9316600" lon="-3.3344540">
        <ele>1189.2</ele>
        <time>2020-07-12T09:05:51Z</time>
      </trkpt>
      <trkpt lat="36.9316590" lon="-3.3343350">
        <ele>1189.0</ele>
        <time>2020-07-12T09:05:52Z</time>
      </trkpt>
      <trkpt lat="36.9316400" lon="-3.3342140">
        <ele>1188.8</ele>
        <time>2020-07-12T09:05:53Z</time>
      </trkpt>
      <trkpt lat="36.9315420" lon="-3.3339960">
        <ele>1188.0</ele>
        <time>2020-07-12T09:05:55Z</time>
      </trkpt>
      <trkpt lat="36.9314820" lon="-3.3339070">
        <ele>1187.8</ele>
        <time>2020-07-12T09:05:56Z</time>
      </trkpt>
      <trkpt lat="36.9314160" lon="-3.3338040">
        <ele>1187.4</ele>
        <time>2020-07-12T09:05:57Z</time>
      </trkpt>
      <trkpt lat="36.9313230" lon="-3.3335970">
        <ele>1186.6</ele>
        <time>2020-07-12T09:05:59Z</time>
      </trkpt>
      <trkpt lat="36.9313310" lon="-3.3332350">
        <ele>1185.8</ele>
        <time>2020-07-12T09:06:02Z</time>
      </trkpt>
      <trkpt lat="36.9314520" lon="-3.3330510">
        <ele>1185.8</ele>
        <time>2020-07-12T09:06:04Z</time>
      </trkpt>
      <trkpt lat="36.9315190" lon="-3.3329760">
        <ele>1185.4</ele>
        <time>2020-07-12T09:06:05Z</time>
      </trkpt>
      <trkpt lat="36.9315900" lon="-3.3328970">
        <ele>1185.2</ele>
        <time>2020-07-12T09:06:06Z</time>
      </trkpt>
      <trkpt lat="36.9317180" lon="-3.3327120">
        <ele>1184.2</ele>
        <time>2020-07-12T09:06:08Z</time>
      </trkpt>
      <trkpt lat="36.9317630" lon="-3.3326120">
        <ele>1183.8</ele>
        <time>2020-07-12T09:06:09Z</time>
      </trkpt>
      <trkpt lat="36.9318600" lon="-3.3323270">
        <ele>1183.4</ele>
        <time>2020-07-12T09:06:12Z</time>
      </trkpt>
      <trkpt lat="36.9318840" lon="-3.3322600">
        <ele>1183.2</ele>
        <time>2020-07-12T09:06:13Z</time>
      </trkpt>
      <trkpt lat="36.9319400" lon="-3.3321050">
        <ele>1183.0</ele>
        <time>2020-07-12T09:06:14Z</time>
      </trkpt>
      <trkpt lat="36.9321210" lon="-3.3317330">
        <ele>1182.6</ele>
        <time>2020-07-12T09:06:18Z</time>
      </trkpt>
      <trkpt lat="36.9321850" lon="-3.3316600">
        <ele>1182.4</ele>
        <time>2020-07-12T09:06:19Z</time>
      </trkpt>
      <trkpt lat="36.9323820" lon="-3.3314520">
        <ele>1182.0</ele>
        <time>2020-07-12T09:06:22Z</time>
      </trkpt>
      <trkpt lat="36.9326480" lon="-3.3311850">
        <ele>1181.4</ele>
        <time>2020-07-12T09:06:26Z</time>
      </trkpt>
      <trkpt lat="36.9327900" lon="-3.3310520">
        <ele>1181.0</ele>
        <time>2020-07-12T09:06:28Z</time>
      </trkpt>
      <trkpt lat="36.9329180" lon="-3.3309040">
        <ele>1180.6</ele>
        <time>2020-07-12T09:06:30Z</time>
      </trkpt>
      <trkpt lat="36.9330190" lon="-3.3307390">
        <ele>1180.2</ele>
        <time>2020-07-12T09:06:32Z</time>
      </trkpt>
      <trkpt lat="36.9330810" lon="-3.3306650">
        <ele>1180.2</ele>
        <time>2020-07-12T09:06:33Z</time>
      </trkpt>
      <trkpt lat="36.9332240" lon="-3.3305780">
        <ele>1180.2</ele>
        <time>2020-07-12T09:06:35Z</time>
      </trkpt>
      <trkpt lat="36.9334910" lon="-3.3303680">
        <ele>1180.0</ele>
        <time>2020-07-12T09:06:39Z</time>
      </trkpt>
      <trkpt lat="36.9335320" lon="-3.3301830">
        <ele>1179.8</ele>
        <time>2020-07-12T09:06:41Z</time>
      </trkpt>
      <trkpt lat="36.9335360" lon="-3.3300800">
        <ele>1179.6</ele>
        <time>2020-07-12T09:06:42Z</time>
      </trkpt>
      <trkpt lat="36.9335400" lon="-3.3299860">
        <ele>1179.6</ele>
        <time>2020-07-12T09:06:43Z</time>
      </trkpt>
      <trkpt lat="36.9335520" lon="-3.3298980">
        <ele>1179.6</ele>
        <time>2020-07-12T09:06:44Z</time>
      </trkpt>
      <trkpt lat="36.9336070" lon="-3.3297450">
        <ele>1180.2</ele>
        <time>2020-07-12T09:06:46Z</time>
      </trkpt>
      <trkpt lat="36.9337380" lon="-3.3295280">
        <ele>1180.2</ele>
        <time>2020-07-12T09:06:49Z</time>
      </trkpt>
      <trkpt lat="36.9338350" lon="-3.3293910">
        <ele>1180.0</ele>
        <time>2020-07-12T09:06:51Z</time>
      </trkpt>
      <trkpt lat="36.9340160" lon="-3.3290670">
        <ele>1179.0</ele>
        <time>2020-07-12T09:06:55Z</time>
      </trkpt>
      <trkpt lat="36.9340320" lon="-3.3289700">
        <ele>1178.8</ele>
        <time>2020-07-12T09:06:56Z</time>
      </trkpt>
      <trkpt lat="36.9340310" lon="-3.3288600">
        <ele>1178.6</ele>
        <time>2020-07-12T09:06:57Z</time>
      </trkpt>
      <trkpt lat="36.9340100" lon="-3.3286470">
        <ele>1178.4</ele>
        <time>2020-07-12T09:06:59Z</time>
      </trkpt>
      <trkpt lat="36.9339950" lon="-3.3284350">
        <ele>1178.0</ele>
        <time>2020-07-12T09:07:01Z</time>
      </trkpt>
      <trkpt lat="36.9340320" lon="-3.3282190">
        <ele>1177.6</ele>
        <time>2020-07-12T09:07:03Z</time>
      </trkpt>
      <trkpt lat="36.9341010" lon="-3.3280170">
        <ele>1177.2</ele>
        <time>2020-07-12T09:07:05Z</time>
      </trkpt>
      <trkpt lat="36.9342080" lon="-3.3276940">
        <ele>1176.2</ele>
        <time>2020-07-12T09:07:08Z</time>
      </trkpt>
      <trkpt lat="36.9343060" lon="-3.3273730">
        <ele>1175.0</ele>
        <time>2020-07-12T09:07:11Z</time>
      </trkpt>
      <trkpt lat="36.9343530" lon="-3.3272630">
        <ele>1174.4</ele>
        <time>2020-07-12T09:07:12Z</time>
      </trkpt>
      <trkpt lat="36.9344050" lon="-3.3271700">
        <ele>1174.0</ele>
        <time>2020-07-12T09:07:13Z</time>
      </trkpt>
      <trkpt lat="36.9344660" lon="-3.3270810">
        <ele>1173.6</ele>
        <time>2020-07-12T09:07:14Z</time>
      </trkpt>
      <trkpt lat="36.9346070" lon="-3.3269270">
        <ele>1172.8</ele>
        <time>2020-07-12T09:07:16Z</time>
      </trkpt>
      <trkpt lat="36.9346770" lon="-3.3268910">
        <ele>1172.6</ele>
        <time>2020-07-12T09:07:17Z</time>
      </trkpt>
      <trkpt lat="36.9347920" lon="-3.3267070">
        <ele>1172.0</ele>
        <time>2020-07-12T09:07:19Z</time>
      </trkpt>
      <trkpt lat="36.9348110" lon="-3.3264980">
        <ele>1171.4</ele>
        <time>2020-07-12T09:07:21Z</time>
      </trkpt>
      <trkpt lat="36.9348060" lon="-3.3263880">
        <ele>1171.0</ele>
        <time>2020-07-12T09:07:22Z</time>
      </trkpt>
      <trkpt lat="36.9348000" lon="-3.3262940">
        <ele>1170.8</ele>
        <time>2020-07-12T09:07:23Z</time>
      </trkpt>
      <trkpt lat="36.9348160" lon="-3.3259950">
        <ele>1170.4</ele>
        <time>2020-07-12T09:07:26Z</time>
      </trkpt>
      <trkpt lat="36.9348430" lon="-3.3258890">
        <ele>1170.4</ele>
        <time>2020-07-12T09:07:27Z</time>
      </trkpt>
      <trkpt lat="36.9349470" lon="-3.3256120">
        <ele>1169.8</ele>
        <time>2020-07-12T09:07:30Z</time>
      </trkpt>
      <trkpt lat="36.9350290" lon="-3.3254360">
        <ele>1169.8</ele>
        <time>2020-07-12T09:07:32Z</time>
      </trkpt>
      <trkpt lat="36.9352120" lon="-3.3251020">
        <ele>1169.2</ele>
        <time>2020-07-12T09:07:36Z</time>
      </trkpt>
      <trkpt lat="36.9353210" lon="-3.3249410">
        <ele>1169.0</ele>
        <time>2020-07-12T09:07:38Z</time>
      </trkpt>
      <trkpt lat="36.9353810" lon="-3.3248800">
        <ele>1169.0</ele>
        <time>2020-07-12T09:07:39Z</time>
      </trkpt>
      <trkpt lat="36.9355770" lon="-3.3247330">
        <ele>1168.8</ele>
        <time>2020-07-12T09:07:42Z</time>
      </trkpt>
      <trkpt lat="36.9359710" lon="-3.3244890">
        <ele>1169.0</ele>
        <time>2020-07-12T09:07:48Z</time>
      </trkpt>
      <trkpt lat="36.9360840" lon="-3.3244050">
        <ele>1169.4</ele>
        <time>2020-07-12T09:07:50Z</time>
      </trkpt>
      <trkpt lat="36.9361790" lon="-3.3243060">
        <ele>1169.8</ele>
        <time>2020-07-12T09:07:52Z</time>
      </trkpt>
      <trkpt lat="36.9362230" lon="-3.3242520">
        <ele>1169.8</ele>
        <time>2020-07-12T09:07:53Z</time>
      </trkpt>
      <trkpt lat="36.9362950" lon="-3.3241430">
        <ele>1170.2</ele>
        <time>2020-07-12T09:07:55Z</time>
      </trkpt>
      <trkpt lat="36.9363200" lon="-3.3240950">
        <ele>1170.4</ele>
        <time>2020-07-12T09:07:56Z</time>
      </trkpt>
      <trkpt lat="36.9363450" lon="-3.3240470">
        <ele>1170.8</ele>
        <time>2020-07-12T09:07:57Z</time>
      </trkpt>
      <trkpt lat="36.9364140" lon="-3.3239100">
        <ele>1171.8</ele>
        <time>2020-07-12T09:08:00Z</time>
      </trkpt>
      <trkpt lat="36.9364620" lon="-3.3238350">
        <ele>1172.2</ele>
        <time>2020-07-12T09:08:02Z</time>
      </trkpt>
      <trkpt lat="36.9364910" lon="-3.3238010">
        <ele>1172.6</ele>
        <time>2020-07-12T09:08:03Z</time>
      </trkpt>
      <trkpt lat="36.9365200" lon="-3.3237700">
        <ele>1172.8</ele>
        <time>2020-07-12T09:08:04Z</time>
      </trkpt>
      <trkpt lat="36.9365800" lon="-3.3237200">
        <ele>1173.2</ele>
        <time>2020-07-12T09:08:06Z</time>
      </trkpt>
      <trkpt lat="36.9366470" lon="-3.3236800">
        <ele>1173.8</ele>
        <time>2020-07-12T09:08:08Z</time>
      </trkpt>
      <trkpt lat="36.9366820" lon="-3.3236670">
        <ele>1174.2</ele>
        <time>2020-07-12T09:08:09Z</time>
      </trkpt>
      <trkpt lat="36.9367840" lon="-3.3236410">
        <ele>1175.0</ele>
        <time>2020-07-12T09:08:12Z</time>
      </trkpt>
      <trkpt lat="36.9368860" lon="-3.3236010">
        <ele>1175.8</ele>
        <time>2020-07-12T09:08:15Z</time>
      </trkpt>
      <trkpt lat="36.9369470" lon="-3.3235670">
        <ele>1176.2</ele>
        <time>2020-07-12T09:08:17Z</time>
      </trkpt>
      <trkpt lat="36.9370370" lon="-3.3234930">
        <ele>1177.0</ele>
        <time>2020-07-12T09:08:20Z</time>
      </trkpt>
      <trkpt lat="36.9370850" lon="-3.3234370">
        <ele>1177.4</ele>
        <time>2020-07-12T09:08:22Z</time>
      </trkpt>
      <trkpt lat="36.9371470" lon="-3.3233100">
        <ele>1178.4</ele>
        <time>2020-07-12T09:08:26Z</time>
      </trkpt>
      <trkpt lat="36.9372150" lon="-3.3231240">
        <ele>1179.6</ele>
        <time>2020-07-12T09:08:32Z</time>
      </trkpt>
      <trkpt lat="36.9372400" lon="-3.3230600">
        <ele>1179.8</ele>
        <time>2020-07-12T09:08:34Z</time>
      </trkpt>
      <trkpt lat="36.9372710" lon="-3.3229680">
        <ele>1180.8</ele>
        <time>2020-07-12T09:08:37Z</time>
      </trkpt>
      <trkpt lat="36.9373000" lon="-3.3228430">
        <ele>1181.8</ele>
        <time>2020-07-12T09:08:41Z</time>
      </trkpt>
      <trkpt lat="36.9373100" lon="-3.3227500">
        <ele>1182.6</ele>
        <time>2020-07-12T09:08:44Z</time>
      </trkpt>
      <trkpt lat="36.9373120" lon="-3.3227190">
        <ele>1182.8</ele>
        <time>2020-07-12T09:08:45Z</time>
      </trkpt>
      <trkpt lat="36.9373320" lon="-3.3225370">
        <ele>1183.8</ele>
        <time>2020-07-12T09:08:51Z</time>
      </trkpt>
      <trkpt lat="36.9373480" lon="-3.3224800">
        <ele>1184.4</ele>
        <time>2020-07-12T09:08:53Z</time>
      </trkpt>
      <trkpt lat="36.9373870" lon="-3.3223970">
        <ele>1185.2</ele>
        <time>2020-07-12T09:08:56Z</time>
      </trkpt>
      <trkpt lat="36.9374310" lon="-3.3222970">
        <ele>1185.8</ele>
        <time>2020-07-12T09:08:59Z</time>
      </trkpt>
      <trkpt lat="36.9374700" lon="-3.3222410">
        <ele>1186.2</ele>
        <time>2020-07-12T09:09:01Z</time>
      </trkpt>
      <trkpt lat="36.9375500" lon="-3.3221890">
        <ele>1187.0</ele>
        <time>2020-07-12T09:09:04Z</time>
      </trkpt>
      <trkpt lat="36.9376290" lon="-3.3221540">
        <ele>1187.4</ele>
        <time>2020-07-12T09:09:07Z</time>
      </trkpt>
      <trkpt lat="36.9377440" lon="-3.3221590">
        <ele>1188.0</ele>
        <time>2020-07-12T09:09:11Z</time>
      </trkpt>
      <trkpt lat="36.9378500" lon="-3.3222160">
        <ele>1188.4</ele>
        <time>2020-07-12T09:09:15Z</time>
      </trkpt>
      <trkpt lat="36.9379200" lon="-3.3222670">
        <ele>1189.2</ele>
        <time>2020-07-12T09:09:18Z</time>
      </trkpt>
      <trkpt lat="36.9379430" lon="-3.3222850">
        <ele>1189.4</ele>
        <time>2020-07-12T09:09:19Z</time>
      </trkpt>
      <trkpt lat="36.9380760" lon="-3.3223920">
        <ele>1190.4</ele>
        <time>2020-07-12T09:09:25Z</time>
      </trkpt>
      <trkpt lat="36.9381410" lon="-3.3224420">
        <ele>1191.0</ele>
        <time>2020-07-12T09:09:28Z</time>
      </trkpt>
      <trkpt lat="36.9382070" lon="-3.3224830">
        <ele>1191.6</ele>
        <time>2020-07-12T09:09:31Z</time>
      </trkpt>
      <trkpt lat="36.9383740" lon="-3.3225760">
        <ele>1192.8</ele>
        <time>2020-07-12T09:09:38Z</time>
      </trkpt>
      <trkpt lat="36.9384690" lon="-3.3226180">
        <ele>1193.8</ele>
        <time>2020-07-12T09:09:42Z</time>
      </trkpt>
      <trkpt lat="36.9385420" lon="-3.3226420">
        <ele>1194.6</ele>
        <time>2020-07-12T09:09:45Z</time>
      </trkpt>
      <trkpt lat="36.9385870" lon="-3.3226600">
        <ele>1195.0</ele>
        <time>2020-07-12T09:09:47Z</time>
      </trkpt>
      <trkpt lat="36.9387670" lon="-3.3227020">
        <ele>1195.6</ele>
        <time>2020-07-12T09:09:54Z</time>
      </trkpt>
      <trkpt lat="36.9388610" lon="-3.3226920">
        <ele>1196.0</ele>
        <time>2020-07-12T09:09:57Z</time>
      </trkpt>
      <trkpt lat="36.9389140" lon="-3.3226610">
        <ele>1196.2</ele>
        <time>2020-07-12T09:09:59Z</time>
      </trkpt>
      <trkpt lat="36.9389940" lon="-3.3225920">
        <ele>1197.2</ele>
        <time>2020-07-12T09:10:02Z</time>
      </trkpt>
      <trkpt lat="36.9390960" lon="-3.3224810">
        <ele>1197.8</ele>
        <time>2020-07-12T09:10:06Z</time>
      </trkpt>
      <trkpt lat="36.9391540" lon="-3.3224130">
        <ele>1198.2</ele>
        <time>2020-07-12T09:10:08Z</time>
      </trkpt>
      <trkpt lat="36.9393460" lon="-3.3222280">
        <ele>1198.6</ele>
        <time>2020-07-12T09:10:14Z</time>
      </trkpt>
      <trkpt lat="36.9395540" lon="-3.3221190">
        <ele>1199.2</ele>
        <time>2020-07-12T09:10:20Z</time>
      </trkpt>
      <trkpt lat="36.9395870" lon="-3.3221120">
        <ele>1199.2</ele>
        <time>2020-07-12T09:10:21Z</time>
      </trkpt>
      <trkpt lat="36.9397590" lon="-3.3221000">
        <ele>1200.4</ele>
        <time>2020-07-12T09:10:26Z</time>
      </trkpt>
      <trkpt lat="36.9398320" lon="-3.3220880">
        <ele>1200.8</ele>
        <time>2020-07-12T09:10:28Z</time>
      </trkpt>
      <trkpt lat="36.9399670" lon="-3.3220360">
        <ele>1201.4</ele>
        <time>2020-07-12T09:10:32Z</time>
      </trkpt>
      <trkpt lat="36.9400540" lon="-3.3219680">
        <ele>1201.8</ele>
        <time>2020-07-12T09:10:35Z</time>
      </trkpt>
      <trkpt lat="36.9401220" lon="-3.3218860">
        <ele>1202.6</ele>
        <time>2020-07-12T09:10:38Z</time>
      </trkpt>
      <trkpt lat="36.9401800" lon="-3.3218090">
        <ele>1203.4</ele>
        <time>2020-07-12T09:10:41Z</time>
      </trkpt>
      <trkpt lat="36.9402220" lon="-3.3217480">
        <ele>1203.6</ele>
        <time>2020-07-12T09:10:43Z</time>
      </trkpt>
      <trkpt lat="36.9403230" lon="-3.3216030">
        <ele>1204.6</ele>
        <time>2020-07-12T09:10:48Z</time>
      </trkpt>
      <trkpt lat="36.9403850" lon="-3.3215240">
        <ele>1205.2</ele>
        <time>2020-07-12T09:10:51Z</time>
      </trkpt>
      <trkpt lat="36.9404380" lon="-3.3214320">
        <ele>1205.8</ele>
        <time>2020-07-12T09:10:54Z</time>
      </trkpt>
      <trkpt lat="36.9405020" lon="-3.3212620">
        <ele>1206.6</ele>
        <time>2020-07-12T09:10:59Z</time>
      </trkpt>
      <trkpt lat="36.9405140" lon="-3.3212240">
        <ele>1206.8</ele>
        <time>2020-07-12T09:11:00Z</time>
      </trkpt>
      <trkpt lat="36.9406370" lon="-3.3209950">
        <ele>1207.8</ele>
        <time>2020-07-12T09:11:07Z</time>
      </trkpt>
      <trkpt lat="36.9407290" lon="-3.3208950">
        <ele>1208.8</ele>
        <time>2020-07-12T09:11:11Z</time>
      </trkpt>
      <trkpt lat="36.9408160" lon="-3.3208350">
        <ele>1209.4</ele>
        <time>2020-07-12T09:11:14Z</time>
      </trkpt>
      <trkpt lat="36.9409030" lon="-3.3207910">
        <ele>1210.0</ele>
        <time>2020-07-12T09:11:17Z</time>
      </trkpt>
      <trkpt lat="36.9410720" lon="-3.3207480">
        <ele>1211.0</ele>
        <time>2020-07-12T09:11:22Z</time>
      </trkpt>
      <trkpt lat="36.9411020" lon="-3.3207380">
        <ele>1211.0</ele>
        <time>2020-07-12T09:11:23Z</time>
      </trkpt>
      <trkpt lat="36.9412360" lon="-3.3206090">
        <ele>1211.8</ele>
        <time>2020-07-12T09:11:28Z</time>
      </trkpt>
      <trkpt lat="36.9412740" lon="-3.3205400">
        <ele>1212.2</ele>
        <time>2020-07-12T09:11:30Z</time>
      </trkpt>
      <trkpt lat="36.9412930" lon="-3.3204040">
        <ele>1212.6</ele>
        <time>2020-07-12T09:11:33Z</time>
      </trkpt>
      <trkpt lat="36.9412310" lon="-3.3202240">
        <ele>1213.2</ele>
        <time>2020-07-12T09:11:37Z</time>
      </trkpt>
      <trkpt lat="36.9411320" lon="-3.3201260">
        <ele>1213.6</ele>
        <time>2020-07-12T09:11:41Z</time>
      </trkpt>
      <trkpt lat="36.9410260" lon="-3.3200470">
        <ele>1214.4</ele>
        <time>2020-07-12T09:11:45Z</time>
      </trkpt>
      <trkpt lat="36.9409690" lon="-3.3200170">
        <ele>1214.8</ele>
        <time>2020-07-12T09:11:47Z</time>
      </trkpt>
      <trkpt lat="36.9408460" lon="-3.3199910">
        <ele>1215.4</ele>
        <time>2020-07-12T09:11:51Z</time>
      </trkpt>
      <trkpt lat="36.9407570" lon="-3.3199960">
        <ele>1216.2</ele>
        <time>2020-07-12T09:11:54Z</time>
      </trkpt>
      <trkpt lat="36.9407300" lon="-3.3200020">
        <ele>1216.4</ele>
        <time>2020-07-12T09:11:55Z</time>
      </trkpt>
      <trkpt lat="36.9405990" lon="-3.3200330">
        <ele>1217.6</ele>
        <time>2020-07-12T09:12:00Z</time>
      </trkpt>
      <trkpt lat="36.9405710" lon="-3.3200360">
        <ele>1218.0</ele>
        <time>2020-07-12T09:12:01Z</time>
      </trkpt>
      <trkpt lat="36.9404620" lon="-3.3200500">
        <ele>1218.8</ele>
        <time>2020-07-12T09:12:04Z</time>
      </trkpt>
      <trkpt lat="36.9403900" lon="-3.3200140">
        <ele>1219.0</ele>
        <time>2020-07-12T09:12:06Z</time>
      </trkpt>
      <trkpt lat="36.9402940" lon="-3.3199190">
        <ele>1220.0</ele>
        <time>2020-07-12T09:12:09Z</time>
      </trkpt>
      <trkpt lat="36.9402570" lon="-3.3198340">
        <ele>1220.8</ele>
        <time>2020-07-12T09:12:11Z</time>
      </trkpt>
      <trkpt lat="36.9402320" lon="-3.3197310">
        <ele>1221.2</ele>
        <time>2020-07-12T09:12:13Z</time>
      </trkpt>
      <trkpt lat="36.9402150" lon="-3.3196240">
        <ele>1221.4</ele>
        <time>2020-07-12T09:12:15Z</time>
      </trkpt>
      <trkpt lat="36.9402140" lon="-3.3195220">
        <ele>1221.6</ele>
        <time>2020-07-12T09:12:17Z</time>
      </trkpt>
      <trkpt lat="36.9402970" lon="-3.3192370">
        <ele>1222.2</ele>
        <time>2020-07-12T09:12:22Z</time>
      </trkpt>
      <trkpt lat="36.9403180" lon="-3.3191790">
        <ele>1222.2</ele>
        <time>2020-07-12T09:12:23Z</time>
      </trkpt>
      <trkpt lat="36.9403940" lon="-3.3188690">
        <ele>1221.8</ele>
        <time>2020-07-12T09:12:27Z</time>
      </trkpt>
      <trkpt lat="36.9403990" lon="-3.3186890">
        <ele>1221.2</ele>
        <time>2020-07-12T09:12:29Z</time>
      </trkpt>
      <trkpt lat="36.9403910" lon="-3.3185020">
        <ele>1220.8</ele>
        <time>2020-07-12T09:12:31Z</time>
      </trkpt>
      <trkpt lat="36.9403850" lon="-3.3183950">
        <ele>1220.4</ele>
        <time>2020-07-12T09:12:32Z</time>
      </trkpt>
      <trkpt lat="36.9403710" lon="-3.3181870">
        <ele>1220.0</ele>
        <time>2020-07-12T09:12:34Z</time>
      </trkpt>
      <trkpt lat="36.9403580" lon="-3.3179770">
        <ele>1219.4</ele>
        <time>2020-07-12T09:12:36Z</time>
      </trkpt>
      <trkpt lat="36.9403400" lon="-3.3177500">
        <ele>1219.2</ele>
        <time>2020-07-12T09:12:38Z</time>
      </trkpt>
      <trkpt lat="36.9403320" lon="-3.3176370">
        <ele>1218.8</ele>
        <time>2020-07-12T09:12:39Z</time>
      </trkpt>
      <trkpt lat="36.9403180" lon="-3.3174200">
        <ele>1217.8</ele>
        <time>2020-07-12T09:12:41Z</time>
      </trkpt>
      <trkpt lat="36.9403080" lon="-3.3172890">
        <ele>1217.4</ele>
        <time>2020-07-12T09:12:42Z</time>
      </trkpt>
      <trkpt lat="36.9403000" lon="-3.3171760">
        <ele>1216.8</ele>
        <time>2020-07-12T09:12:43Z</time>
      </trkpt>
      <trkpt lat="36.9402850" lon="-3.3169370">
        <ele>1216.4</ele>
        <time>2020-07-12T09:12:45Z</time>
      </trkpt>
      <trkpt lat="36.9402730" lon="-3.3167020">
        <ele>1215.6</ele>
        <time>2020-07-12T09:12:47Z</time>
      </trkpt>
      <trkpt lat="36.9402640" lon="-3.3165780">
        <ele>1215.4</ele>
        <time>2020-07-12T09:12:48Z</time>
      </trkpt>
      <trkpt lat="36.9402490" lon="-3.3163370">
        <ele>1214.6</ele>
        <time>2020-07-12T09:12:50Z</time>
      </trkpt>
      <trkpt lat="36.9402410" lon="-3.3162240">
        <ele>1214.4</ele>
        <time>2020-07-12T09:12:51Z</time>
      </trkpt>
      <trkpt lat="36.9402340" lon="-3.3160980">
        <ele>1214.2</ele>
        <time>2020-07-12T09:12:52Z</time>
      </trkpt>
      <trkpt lat="36.9402100" lon="-3.3157540">
        <ele>1213.2</ele>
        <time>2020-07-12T09:12:55Z</time>
      </trkpt>
      <trkpt lat="36.9402010" lon="-3.3156550">
        <ele>1212.8</ele>
        <time>2020-07-12T09:12:56Z</time>
      </trkpt>
      <trkpt lat="36.9401880" lon="-3.3154580">
        <ele>1212.0</ele>
        <time>2020-07-12T09:12:58Z</time>
      </trkpt>
      <trkpt lat="36.9401720" lon="-3.3152870">
        <ele>1212.4</ele>
        <time>2020-07-12T09:13:00Z</time>
      </trkpt>
      <trkpt lat="36.9401650" lon="-3.3152130">
        <ele>1212.8</ele>
        <time>2020-07-12T09:13:01Z</time>
      </trkpt>
      <trkpt lat="36.9401600" lon="-3.3151350">
        <ele>1213.0</ele>
        <time>2020-07-12T09:13:02Z</time>
      </trkpt>
      <trkpt lat="36.9401530" lon="-3.3150610">
        <ele>1213.2</ele>
        <time>2020-07-12T09:13:03Z</time>
      </trkpt>
      <trkpt lat="36.9401440" lon="-3.3149330">
        <ele>1213.8</ele>
        <time>2020-07-12T09:13:05Z</time>
      </trkpt>
      <trkpt lat="36.9401390" lon="-3.3148700">
        <ele>1214.0</ele>
        <time>2020-07-12T09:13:06Z</time>
      </trkpt>
      <trkpt lat="36.9401330" lon="-3.3148050">
        <ele>1214.2</ele>
        <time>2020-07-12T09:13:07Z</time>
      </trkpt>
      <trkpt lat="36.9401190" lon="-3.3146310">
        <ele>1215.2</ele>
        <time>2020-07-12T09:13:10Z</time>
      </trkpt>
      <trkpt lat="36.9401130" lon="-3.3144690">
        <ele>1216.0</ele>
        <time>2020-07-12T09:13:13Z</time>
      </trkpt>
      <trkpt lat="36.9401070" lon="-3.3143690">
        <ele>1216.4</ele>
        <time>2020-07-12T09:13:15Z</time>
      </trkpt>
      <trkpt lat="36.9400910" lon="-3.3141740">
        <ele>1217.8</ele>
        <time>2020-07-12T09:13:19Z</time>
      </trkpt>
      <trkpt lat="36.9400800" lon="-3.3141290">
        <ele>1218.0</ele>
        <time>2020-07-12T09:13:20Z</time>
      </trkpt>
      <trkpt lat="36.9400620" lon="-3.3139930">
        <ele>1218.8</ele>
        <time>2020-07-12T09:13:23Z</time>
      </trkpt>
      <trkpt lat="36.9400420" lon="-3.3138690">
        <ele>1219.2</ele>
        <time>2020-07-12T09:13:26Z</time>
      </trkpt>
      <trkpt lat="36.9400410" lon="-3.3137430">
        <ele>1220.0</ele>
        <time>2020-07-12T09:13:29Z</time>
      </trkpt>
      <trkpt lat="36.9400510" lon="-3.3136190">
        <ele>1220.6</ele>
        <time>2020-07-12T09:13:32Z</time>
      </trkpt>
      <trkpt lat="36.9400590" lon="-3.3135800">
        <ele>1221.0</ele>
        <time>2020-07-12T09:13:33Z</time>
      </trkpt>
      <trkpt lat="36.9400940" lon="-3.3134670">
        <ele>1221.8</ele>
        <time>2020-07-12T09:13:36Z</time>
      </trkpt>
      <trkpt lat="36.9401130" lon="-3.3134230">
        <ele>1222.2</ele>
        <time>2020-07-12T09:13:37Z</time>
      </trkpt>
      <trkpt lat="36.9401530" lon="-3.3133460">
        <ele>1222.4</ele>
        <time>2020-07-12T09:13:39Z</time>
      </trkpt>
      <trkpt lat="36.9402570" lon="-3.3131940">
        <ele>1223.2</ele>
        <time>2020-07-12T09:13:43Z</time>
      </trkpt>
      <trkpt lat="36.9403410" lon="-3.3130850">
        <ele>1223.8</ele>
        <time>2020-07-12T09:13:46Z</time>
      </trkpt>
      <trkpt lat="36.9403710" lon="-3.3130450">
        <ele>1224.0</ele>
        <time>2020-07-12T09:13:47Z</time>
      </trkpt>
      <trkpt lat="36.9405430" lon="-3.3128530">
        <ele>1224.2</ele>
        <time>2020-07-12T09:13:52Z</time>
      </trkpt>
      <trkpt lat="36.9406370" lon="-3.3127850">
        <ele>1224.0</ele>
        <time>2020-07-12T09:13:54Z</time>
      </trkpt>
      <trkpt lat="36.9409410" lon="-3.3126210">
        <ele>1223.6</ele>
        <time>2020-07-12T09:13:59Z</time>
      </trkpt>
      <trkpt lat="36.9412570" lon="-3.3125420">
        <ele>1222.4</ele>
        <time>2020-07-12T09:14:03Z</time>
      </trkpt>
      <trkpt lat="36.9413360" lon="-3.3125040">
        <ele>1222.2</ele>
        <time>2020-07-12T09:14:04Z</time>
      </trkpt>
      <trkpt lat="36.9414630" lon="-3.3123950">
        <ele>1221.6</ele>
        <time>2020-07-12T09:14:06Z</time>
      </trkpt>
      <trkpt lat="36.9415240" lon="-3.3122860">
        <ele>1221.6</ele>
        <time>2020-07-12T09:14:07Z</time>
      </trkpt>
      <trkpt lat="36.9415230" lon="-3.3120620">
        <ele>1221.0</ele>
        <time>2020-07-12T09:14:09Z</time>
      </trkpt>
      <trkpt lat="36.9414810" lon="-3.3119780">
        <ele>1220.4</ele>
        <time>2020-07-12T09:14:10Z</time>
      </trkpt>
      <trkpt lat="36.9414320" lon="-3.3119140">
        <ele>1220.2</ele>
        <time>2020-07-12T09:14:11Z</time>
      </trkpt>
      <trkpt lat="36.9413680" lon="-3.3118470">
        <ele>1219.8</ele>
        <time>2020-07-12T09:14:12Z</time>
      </trkpt>
      <trkpt lat="36.9413110" lon="-3.3117950">
        <ele>1219.8</ele>
        <time>2020-07-12T09:14:13Z</time>
      </trkpt>
      <trkpt lat="36.9412020" lon="-3.3117000">
        <ele>1220.2</ele>
        <time>2020-07-12T09:14:15Z</time>
      </trkpt>
      <trkpt lat="36.9411100" lon="-3.3116080">
        <ele>1221.2</ele>
        <time>2020-07-12T09:14:17Z</time>
      </trkpt>
      <trkpt lat="36.9410020" lon="-3.3114570">
        <ele>1222.4</ele>
        <time>2020-07-12T09:14:20Z</time>
      </trkpt>
      <trkpt lat="36.9408970" lon="-3.3112510">
        <ele>1223.4</ele>
        <time>2020-07-12T09:14:24Z</time>
      </trkpt>
      <trkpt lat="36.9408250" lon="-3.3111000">
        <ele>1224.4</ele>
        <time>2020-07-12T09:14:27Z</time>
      </trkpt>
      <trkpt lat="36.9408010" lon="-3.3110520">
        <ele>1224.8</ele>
        <time>2020-07-12T09:14:28Z</time>
      </trkpt>
      <trkpt lat="36.9407130" lon="-3.3108170">
        <ele>1225.2</ele>
        <time>2020-07-12T09:14:32Z</time>
      </trkpt>
      <trkpt lat="36.9406990" lon="-3.3107540">
        <ele>1225.4</ele>
        <time>2020-07-12T09:14:33Z</time>
      </trkpt>
      <trkpt lat="36.9406850" lon="-3.3106200">
        <ele>1225.4</ele>
        <time>2020-07-12T09:14:35Z</time>
      </trkpt>
      <trkpt lat="36.9406710" lon="-3.3104180">
        <ele>1225.2</ele>
        <time>2020-07-12T09:14:38Z</time>
      </trkpt>
      <trkpt lat="36.9406690" lon="-3.3103460">
        <ele>1224.8</ele>
        <time>2020-07-12T09:14:39Z</time>
      </trkpt>
      <trkpt lat="36.9406600" lon="-3.3101110">
        <ele>1224.0</ele>
        <time>2020-07-12T09:14:42Z</time>
      </trkpt>
      <trkpt lat="36.9406430" lon="-3.3100290">
        <ele>1223.6</ele>
        <time>2020-07-12T09:14:43Z</time>
      </trkpt>
      <trkpt lat="36.9406130" lon="-3.3099520">
        <ele>1223.0</ele>
        <time>2020-07-12T09:14:44Z</time>
      </trkpt>
      <trkpt lat="36.9405230" lon="-3.3098210">
        <ele>1222.0</ele>
        <time>2020-07-12T09:14:46Z</time>
      </trkpt>
      <trkpt lat="36.9404680" lon="-3.3097600">
        <ele>1221.6</ele>
        <time>2020-07-12T09:14:47Z</time>
      </trkpt>
      <trkpt lat="36.9404080" lon="-3.3096920">
        <ele>1221.0</ele>
        <time>2020-07-12T09:14:48Z</time>
      </trkpt>
      <trkpt lat="36.9403540" lon="-3.3096230">
        <ele>1220.4</ele>
        <time>2020-07-12T09:14:49Z</time>
      </trkpt>
      <trkpt lat="36.9402620" lon="-3.3094760">
        <ele>1219.6</ele>
        <time>2020-07-12T09:14:51Z</time>
      </trkpt>
      <trkpt lat="36.9402260" lon="-3.3093930">
        <ele>1219.4</ele>
        <time>2020-07-12T09:14:52Z</time>
      </trkpt>
      <trkpt lat="36.9402130" lon="-3.3091290">
        <ele>1218.2</ele>
        <time>2020-07-12T09:14:55Z</time>
      </trkpt>
      <trkpt lat="36.9402810" lon="-3.3088750">
        <ele>1216.4</ele>
        <time>2020-07-12T09:14:58Z</time>
      </trkpt>
      <trkpt lat="36.9403080" lon="-3.3087900">
        <ele>1215.8</ele>
        <time>2020-07-12T09:14:59Z</time>
      </trkpt>
      <trkpt lat="36.9403390" lon="-3.3086950">
        <ele>1215.0</ele>
        <time>2020-07-12T09:15:00Z</time>
      </trkpt>
      <trkpt lat="36.9404070" lon="-3.3085070">
        <ele>1213.4</ele>
        <time>2020-07-12T09:15:02Z</time>
      </trkpt>
      <trkpt lat="36.9404830" lon="-3.3083180">
        <ele>1212.4</ele>
        <time>2020-07-12T09:15:04Z</time>
      </trkpt>
      <trkpt lat="36.9405230" lon="-3.3082300">
        <ele>1211.8</ele>
        <time>2020-07-12T09:15:05Z</time>
      </trkpt>
      <trkpt lat="36.9405690" lon="-3.3081300">
        <ele>1211.0</ele>
        <time>2020-07-12T09:15:06Z</time>
      </trkpt>
      <trkpt lat="36.9406750" lon="-3.3079400">
        <ele>1209.6</ele>
        <time>2020-07-12T09:15:08Z</time>
      </trkpt>
      <trkpt lat="36.9407950" lon="-3.3077540">
        <ele>1208.6</ele>
        <time>2020-07-12T09:15:10Z</time>
      </trkpt>
      <trkpt lat="36.9409020" lon="-3.3075770">
        <ele>1207.4</ele>
        <time>2020-07-12T09:15:12Z</time>
      </trkpt>
      <trkpt lat="36.9409870" lon="-3.3073970">
        <ele>1206.2</ele>
        <time>2020-07-12T09:15:14Z</time>
      </trkpt>
      <trkpt lat="36.9410160" lon="-3.3073110">
        <ele>1205.6</ele>
        <time>2020-07-12T09:15:15Z</time>
      </trkpt>
      <trkpt lat="36.9410370" lon="-3.3072370">
        <ele>1205.0</ele>
        <time>2020-07-12T09:15:16Z</time>
      </trkpt>
      <trkpt lat="36.9410540" lon="-3.3071040">
        <ele>1203.6</ele>
        <time>2020-07-12T09:15:18Z</time>
      </trkpt>
      <trkpt lat="36.9410450" lon="-3.3069940">
        <ele>1202.0</ele>
        <time>2020-07-12T09:15:20Z</time>
      </trkpt>
      <trkpt lat="36.9410130" lon="-3.3068880">
        <ele>1200.8</ele>
        <time>2020-07-12T09:15:22Z</time>
      </trkpt>
      <trkpt lat="36.9409180" lon="-3.3067160">
        <ele>1199.6</ele>
        <time>2020-07-12T09:15:25Z</time>
      </trkpt>
      <trkpt lat="36.9408960" lon="-3.3066730">
        <ele>1199.2</ele>
        <time>2020-07-12T09:15:26Z</time>
      </trkpt>
      <trkpt lat="36.9409110" lon="-3.3066070">
        <ele>1198.2</ele>
        <time>2020-07-12T09:15:28Z</time>
      </trkpt>
      <trkpt lat="36.9409320" lon="-3.3066040">
        <ele>1197.8</ele>
        <time>2020-07-12T09:15:29Z</time>
      </trkpt>
      <trkpt lat="36.9409630" lon="-3.3066210">
        <ele>1197.2</ele>
        <time>2020-07-12T09:15:31Z</time>
      </trkpt>
      <trkpt lat="36.9409690" lon="-3.3066490">
        <ele>1197.2</ele>
        <time>2020-07-12T09:15:33Z</time>
      </trkpt>
      <trkpt lat="36.9409750" lon="-3.3066720">
        <ele>1197.2</ele>
        <time>2020-07-12T09:15:35Z</time>
      </trkpt>
      <trkpt lat="36.9409760" lon="-3.3066690">
        <ele>1197.2</ele>
        <time>2020-07-12T09:15:37Z</time>
      </trkpt>
      <trkpt lat="36.9409740" lon="-3.3066670">
        <ele>1197.2</ele>
        <time>2020-07-12T09:15:38Z</time>
      </trkpt>
      <trkpt lat="36.9409490" lon="-3.3066370">
        <ele>1196.2</ele>
        <time>2020-07-12T09:24:21Z</time>
      </trkpt>
      <trkpt lat="36.9409370" lon="-3.3066230">
        <ele>1196.2</ele>
        <time>2020-07-12T09:24:22Z</time>
      </trkpt>
      <trkpt lat="36.9408830" lon="-3.3065940">
        <ele>1196.0</ele>
        <time>2020-07-12T09:24:25Z</time>
      </trkpt>
      <trkpt lat="36.9408630" lon="-3.3065810">
        <ele>1195.8</ele>
        <time>2020-07-12T09:24:26Z</time>
      </trkpt>
      <trkpt lat="36.9408410" lon="-3.3065680">
        <ele>1195.8</ele>
        <time>2020-07-12T09:24:27Z</time>
      </trkpt>
      <trkpt lat="36.9408200" lon="-3.3065560">
        <ele>1195.8</ele>
        <time>2020-07-12T09:24:28Z</time>
      </trkpt>
      <trkpt lat="36.9407900" lon="-3.3065390">
        <ele>1195.8</ele>
        <time>2020-07-12T09:24:29Z</time>
      </trkpt>
      <trkpt lat="36.9406690" lon="-3.3064790">
        <ele>1195.4</ele>
        <time>2020-07-12T09:24:33Z</time>
      </trkpt>
      <trkpt lat="36.9405680" lon="-3.3064290">
        <ele>1195.0</ele>
        <time>2020-07-12T09:24:36Z</time>
      </trkpt>
      <trkpt lat="36.9405010" lon="-3.3063920">
        <ele>1194.4</ele>
        <time>2020-07-12T09:24:39Z</time>
      </trkpt>
      <trkpt lat="36.9404870" lon="-3.3063710">
        <ele>1193.8</ele>
        <time>2020-07-12T09:24:41Z</time>
      </trkpt>
      <trkpt lat="36.9404870" lon="-3.3063720">
        <ele>1193.6</ele>
        <time>2020-07-12T09:24:42Z</time>
      </trkpt>
      <trkpt lat="36.9404610" lon="-3.3063100">
        <ele>1192.8</ele>
        <time>2020-07-12T09:25:59Z</time>
      </trkpt>
      <trkpt lat="36.9404510" lon="-3.3062900">
        <ele>1192.8</ele>
        <time>2020-07-12T09:26:00Z</time>
      </trkpt>
      <trkpt lat="36.9404130" lon="-3.3061900">
        <ele>1192.6</ele>
        <time>2020-07-12T09:26:03Z</time>
      </trkpt>
      <trkpt lat="36.9404040" lon="-3.3061520">
        <ele>1192.6</ele>
        <time>2020-07-12T09:26:04Z</time>
      </trkpt>
      <trkpt lat="36.9403900" lon="-3.3060410">
        <ele>1192.6</ele>
        <time>2020-07-12T09:26:06Z</time>
      </trkpt>
      <trkpt lat="36.9403790" lon="-3.3059070">
        <ele>1192.4</ele>
        <time>2020-07-12T09:26:08Z</time>
      </trkpt>
      <trkpt lat="36.9403550" lon="-3.3055850">
        <ele>1191.6</ele>
        <time>2020-07-12T09:26:12Z</time>
      </trkpt>
      <trkpt lat="36.9403420" lon="-3.3054030">
        <ele>1190.6</ele>
        <time>2020-07-12T09:26:14Z</time>
      </trkpt>
      <trkpt lat="36.9403230" lon="-3.3051030">
        <ele>1189.2</ele>
        <time>2020-07-12T09:26:17Z</time>
      </trkpt>
      <trkpt lat="36.9403030" lon="-3.3047910">
        <ele>1188.4</ele>
        <time>2020-07-12T09:26:20Z</time>
      </trkpt>
      <trkpt lat="36.9402900" lon="-3.3046620">
        <ele>1187.8</ele>
        <time>2020-07-12T09:26:21Z</time>
      </trkpt>
      <trkpt lat="36.9402410" lon="-3.3044240">
        <ele>1187.0</ele>
        <time>2020-07-12T09:26:23Z</time>
      </trkpt>
      <trkpt lat="36.9402000" lon="-3.3043070">
        <ele>1186.2</ele>
        <time>2020-07-12T09:26:24Z</time>
      </trkpt>
      <trkpt lat="36.9401540" lon="-3.3042020">
        <ele>1185.8</ele>
        <time>2020-07-12T09:26:25Z</time>
      </trkpt>
      <trkpt lat="36.9400960" lon="-3.3040870">
        <ele>1185.0</ele>
        <time>2020-07-12T09:26:26Z</time>
      </trkpt>
      <trkpt lat="36.9399860" lon="-3.3038850">
        <ele>1183.8</ele>
        <time>2020-07-12T09:26:28Z</time>
      </trkpt>
      <trkpt lat="36.9399200" lon="-3.3037910">
        <ele>1183.0</ele>
        <time>2020-07-12T09:26:29Z</time>
      </trkpt>
      <trkpt lat="36.9398490" lon="-3.3037240">
        <ele>1182.4</ele>
        <time>2020-07-12T09:26:30Z</time>
      </trkpt>
      <trkpt lat="36.9396640" lon="-3.3036300">
        <ele>1181.2</ele>
        <time>2020-07-12T09:26:32Z</time>
      </trkpt>
      <trkpt lat="36.9395750" lon="-3.3036050">
        <ele>1180.8</ele>
        <time>2020-07-12T09:26:33Z</time>
      </trkpt>
      <trkpt lat="36.9394880" lon="-3.3035830">
        <ele>1180.4</ele>
        <time>2020-07-12T09:26:34Z</time>
      </trkpt>
      <trkpt lat="36.9393940" lon="-3.3035560">
        <ele>1180.2</ele>
        <time>2020-07-12T09:26:35Z</time>
      </trkpt>
      <trkpt lat="36.9393000" lon="-3.3035200">
        <ele>1179.6</ele>
        <time>2020-07-12T09:26:36Z</time>
      </trkpt>
      <trkpt lat="36.9391260" lon="-3.3034360">
        <ele>1178.8</ele>
        <time>2020-07-12T09:26:38Z</time>
      </trkpt>
      <trkpt lat="36.9386600" lon="-3.3032080">
        <ele>1177.2</ele>
        <time>2020-07-12T09:26:43Z</time>
      </trkpt>
      <trkpt lat="36.9383790" lon="-3.3030680">
        <ele>1176.0</ele>
        <time>2020-07-12T09:26:46Z</time>
      </trkpt>
      <trkpt lat="36.9380750" lon="-3.3029200">
        <ele>1174.8</ele>
        <time>2020-07-12T09:26:49Z</time>
      </trkpt>
      <trkpt lat="36.9378700" lon="-3.3028180">
        <ele>1173.4</ele>
        <time>2020-07-12T09:26:51Z</time>
      </trkpt>
      <trkpt lat="36.9376580" lon="-3.3027130">
        <ele>1172.4</ele>
        <time>2020-07-12T09:26:53Z</time>
      </trkpt>
      <trkpt lat="36.9375490" lon="-3.3026600">
        <ele>1172.0</ele>
        <time>2020-07-12T09:26:54Z</time>
      </trkpt>
      <trkpt lat="36.9372400" lon="-3.3025000">
        <ele>1170.8</ele>
        <time>2020-07-12T09:26:57Z</time>
      </trkpt>
      <trkpt lat="36.9370670" lon="-3.3023310">
        <ele>1169.6</ele>
        <time>2020-07-12T09:26:59Z</time>
      </trkpt>
      <trkpt lat="36.9369100" lon="-3.3021080">
        <ele>1168.2</ele>
        <time>2020-07-12T09:27:01Z</time>
      </trkpt>
      <trkpt lat="36.9367390" lon="-3.3019090">
        <ele>1167.0</ele>
        <time>2020-07-12T09:27:03Z</time>
      </trkpt>
      <trkpt lat="36.9366490" lon="-3.3018320">
        <ele>1166.4</ele>
        <time>2020-07-12T09:27:04Z</time>
      </trkpt>
      <trkpt lat="36.9365550" lon="-3.3017560">
        <ele>1166.0</ele>
        <time>2020-07-12T09:27:05Z</time>
      </trkpt>
      <trkpt lat="36.9364690" lon="-3.3016630">
        <ele>1165.0</ele>
        <time>2020-07-12T09:27:06Z</time>
      </trkpt>
      <trkpt lat="36.9364060" lon="-3.3015540">
        <ele>1164.6</ele>
        <time>2020-07-12T09:27:07Z</time>
      </trkpt>
      <trkpt lat="36.9363480" lon="-3.3012970">
        <ele>1163.0</ele>
        <time>2020-07-12T09:27:09Z</time>
      </trkpt>
      <trkpt lat="36.9363410" lon="-3.3011610">
        <ele>1162.4</ele>
        <time>2020-07-12T09:27:10Z</time>
      </trkpt>
      <trkpt lat="36.9363820" lon="-3.3010230">
        <ele>1161.6</ele>
        <time>2020-07-12T09:27:11Z</time>
      </trkpt>
      <trkpt lat="36.9364190" lon="-3.3008870">
        <ele>1161.0</ele>
        <time>2020-07-12T09:27:12Z</time>
      </trkpt>
      <trkpt lat="36.9364610" lon="-3.3007510">
        <ele>1160.6</ele>
        <time>2020-07-12T09:27:13Z</time>
      </trkpt>
      <trkpt lat="36.9365390" lon="-3.3004820">
        <ele>1159.2</ele>
        <time>2020-07-12T09:27:15Z</time>
      </trkpt>
      <trkpt lat="36.9366160" lon="-3.3002020">
        <ele>1157.8</ele>
        <time>2020-07-12T09:27:17Z</time>
      </trkpt>
      <trkpt lat="36.9367050" lon="-3.2999240">
        <ele>1156.0</ele>
        <time>2020-07-12T09:27:19Z</time>
      </trkpt>
      <trkpt lat="36.9368420" lon="-3.2996810">
        <ele>1154.0</ele>
        <time>2020-07-12T09:27:21Z</time>
      </trkpt>
      <trkpt lat="36.9369260" lon="-3.2995790">
        <ele>1154.2</ele>
        <time>2020-07-12T09:27:22Z</time>
      </trkpt>
      <trkpt lat="36.9371140" lon="-3.2993830">
        <ele>1153.2</ele>
        <time>2020-07-12T09:27:24Z</time>
      </trkpt>
      <trkpt lat="36.9372020" lon="-3.2992990">
        <ele>1152.6</ele>
        <time>2020-07-12T09:27:25Z</time>
      </trkpt>
      <trkpt lat="36.9373820" lon="-3.2991250">
        <ele>1151.6</ele>
        <time>2020-07-12T09:27:27Z</time>
      </trkpt>
      <trkpt lat="36.9374510" lon="-3.2990320">
        <ele>1151.0</ele>
        <time>2020-07-12T09:27:28Z</time>
      </trkpt>
      <trkpt lat="36.9375100" lon="-3.2989120">
        <ele>1150.4</ele>
        <time>2020-07-12T09:27:29Z</time>
      </trkpt>
      <trkpt lat="36.9375600" lon="-3.2987910">
        <ele>1149.6</ele>
        <time>2020-07-12T09:27:30Z</time>
      </trkpt>
      <trkpt lat="36.9376040" lon="-3.2986600">
        <ele>1148.8</ele>
        <time>2020-07-12T09:27:31Z</time>
      </trkpt>
      <trkpt lat="36.9376550" lon="-3.2985460">
        <ele>1148.0</ele>
        <time>2020-07-12T09:27:32Z</time>
      </trkpt>
      <trkpt lat="36.9377210" lon="-3.2984290">
        <ele>1147.0</ele>
        <time>2020-07-12T09:27:33Z</time>
      </trkpt>
      <trkpt lat="36.9377890" lon="-3.2983190">
        <ele>1146.8</ele>
        <time>2020-07-12T09:27:34Z</time>
      </trkpt>
      <trkpt lat="36.9378830" lon="-3.2982430">
        <ele>1146.2</ele>
        <time>2020-07-12T09:27:35Z</time>
      </trkpt>
      <trkpt lat="36.9379750" lon="-3.2981650">
        <ele>1145.8</ele>
        <time>2020-07-12T09:27:36Z</time>
      </trkpt>
      <trkpt lat="36.9380820" lon="-3.2981040">
        <ele>1145.4</ele>
        <time>2020-07-12T09:27:37Z</time>
      </trkpt>
      <trkpt lat="36.9381940" lon="-3.2980330">
        <ele>1144.4</ele>
        <time>2020-07-12T09:27:38Z</time>
      </trkpt>
      <trkpt lat="36.9383010" lon="-3.2979560">
        <ele>1143.4</ele>
        <time>2020-07-12T09:27:39Z</time>
      </trkpt>
      <trkpt lat="36.9384050" lon="-3.2978740">
        <ele>1142.6</ele>
        <time>2020-07-12T09:27:40Z</time>
      </trkpt>
      <trkpt lat="36.9385090" lon="-3.2977850">
        <ele>1141.2</ele>
        <time>2020-07-12T09:27:41Z</time>
      </trkpt>
      <trkpt lat="36.9386070" lon="-3.2976920">
        <ele>1140.2</ele>
        <time>2020-07-12T09:27:42Z</time>
      </trkpt>
      <trkpt lat="36.9386900" lon="-3.2975810">
        <ele>1139.6</ele>
        <time>2020-07-12T09:27:43Z</time>
      </trkpt>
      <trkpt lat="36.9387610" lon="-3.2974570">
        <ele>1138.6</ele>
        <time>2020-07-12T09:27:44Z</time>
      </trkpt>
      <trkpt lat="36.9388250" lon="-3.2973280">
        <ele>1138.0</ele>
        <time>2020-07-12T09:27:45Z</time>
      </trkpt>
      <trkpt lat="36.9389060" lon="-3.2972200">
        <ele>1137.4</ele>
        <time>2020-07-12T09:27:46Z</time>
      </trkpt>
      <trkpt lat="36.9390070" lon="-3.2971110">
        <ele>1136.6</ele>
        <time>2020-07-12T09:27:47Z</time>
      </trkpt>
      <trkpt lat="36.9391860" lon="-3.2969320">
        <ele>1135.2</ele>
        <time>2020-07-12T09:27:49Z</time>
      </trkpt>
      <trkpt lat="36.9392430" lon="-3.2968390">
        <ele>1134.4</ele>
        <time>2020-07-12T09:27:50Z</time>
      </trkpt>
      <trkpt lat="36.9392790" lon="-3.2967230">
        <ele>1133.8</ele>
        <time>2020-07-12T09:27:51Z</time>
      </trkpt>
      <trkpt lat="36.9392790" lon="-3.2966150">
        <ele>1133.6</ele>
        <time>2020-07-12T09:27:52Z</time>
      </trkpt>
      <trkpt lat="36.9392130" lon="-3.2963900">
        <ele>1133.2</ele>
        <time>2020-07-12T09:27:54Z</time>
      </trkpt>
      <trkpt lat="36.9391840" lon="-3.2962920">
        <ele>1133.0</ele>
        <time>2020-07-12T09:27:55Z</time>
      </trkpt>
      <trkpt lat="36.9391380" lon="-3.2959440">
        <ele>1132.8</ele>
        <time>2020-07-12T09:27:58Z</time>
      </trkpt>
      <trkpt lat="36.9391250" lon="-3.2958280">
        <ele>1132.4</ele>
        <time>2020-07-12T09:27:59Z</time>
      </trkpt>
      <trkpt lat="36.9391050" lon="-3.2957200">
        <ele>1132.0</ele>
        <time>2020-07-12T09:28:00Z</time>
      </trkpt>
      <trkpt lat="36.9390220" lon="-3.2955140">
        <ele>1131.8</ele>
        <time>2020-07-12T09:28:02Z</time>
      </trkpt>
      <trkpt lat="36.9388310" lon="-3.2952940">
        <ele>1131.2</ele>
        <time>2020-07-12T09:28:05Z</time>
      </trkpt>
      <trkpt lat="36.9387060" lon="-3.2951460">
        <ele>1131.0</ele>
        <time>2020-07-12T09:28:07Z</time>
      </trkpt>
      <trkpt lat="36.9386420" lon="-3.2949810">
        <ele>1130.8</ele>
        <time>2020-07-12T09:28:09Z</time>
      </trkpt>
      <trkpt lat="36.9386260" lon="-3.2948900">
        <ele>1130.6</ele>
        <time>2020-07-12T09:28:10Z</time>
      </trkpt>
      <trkpt lat="36.9386510" lon="-3.2947990">
        <ele>1130.6</ele>
        <time>2020-07-12T09:28:11Z</time>
      </trkpt>
      <trkpt lat="36.9386700" lon="-3.2947130">
        <ele>1130.4</ele>
        <time>2020-07-12T09:28:12Z</time>
      </trkpt>
      <trkpt lat="36.9387020" lon="-3.2945560">
        <ele>1130.4</ele>
        <time>2020-07-12T09:28:14Z</time>
      </trkpt>
      <trkpt lat="36.9387200" lon="-3.2944010">
        <ele>1130.0</ele>
        <time>2020-07-12T09:28:16Z</time>
      </trkpt>
      <trkpt lat="36.9387190" lon="-3.2943230">
        <ele>1130.0</ele>
        <time>2020-07-12T09:28:17Z</time>
      </trkpt>
      <trkpt lat="36.9387170" lon="-3.2941870">
        <ele>1129.8</ele>
        <time>2020-07-12T09:28:19Z</time>
      </trkpt>
      <trkpt lat="36.9387010" lon="-3.2940010">
        <ele>1130.0</ele>
        <time>2020-07-12T09:28:22Z</time>
      </trkpt>
      <trkpt lat="36.9386870" lon="-3.2938350">
        <ele>1130.6</ele>
        <time>2020-07-12T09:28:25Z</time>
      </trkpt>
      <trkpt lat="36.9386760" lon="-3.2937800">
        <ele>1131.2</ele>
        <time>2020-07-12T09:28:26Z</time>
      </trkpt>
      <trkpt lat="36.9386610" lon="-3.2936860">
        <ele>1132.0</ele>
        <time>2020-07-12T09:28:28Z</time>
      </trkpt>
      <trkpt lat="36.9386320" lon="-3.2935640">
        <ele>1132.6</ele>
        <time>2020-07-12T09:28:31Z</time>
      </trkpt>
      <trkpt lat="36.9386080" lon="-3.2934890">
        <ele>1133.0</ele>
        <time>2020-07-12T09:28:33Z</time>
      </trkpt>
      <trkpt lat="36.9385830" lon="-3.2934160">
        <ele>1133.6</ele>
        <time>2020-07-12T09:28:35Z</time>
      </trkpt>
      <trkpt lat="36.9385570" lon="-3.2933390">
        <ele>1134.2</ele>
        <time>2020-07-12T09:28:37Z</time>
      </trkpt>
      <trkpt lat="36.9385110" lon="-3.2931950">
        <ele>1135.4</ele>
        <time>2020-07-12T09:28:41Z</time>
      </trkpt>
      <trkpt lat="36.9384750" lon="-3.2930930">
        <ele>1136.0</ele>
        <time>2020-07-12T09:28:44Z</time>
      </trkpt>
      <trkpt lat="36.9384510" lon="-3.2930250">
        <ele>1136.4</ele>
        <time>2020-07-12T09:28:46Z</time>
      </trkpt>
      <trkpt lat="36.9383850" lon="-3.2928290">
        <ele>1137.8</ele>
        <time>2020-07-12T09:28:52Z</time>
      </trkpt>
      <trkpt lat="36.9383760" lon="-3.2927970">
        <ele>1138.0</ele>
        <time>2020-07-12T09:28:53Z</time>
      </trkpt>
      <trkpt lat="36.9383480" lon="-3.2926620">
        <ele>1138.8</ele>
        <time>2020-07-12T09:28:57Z</time>
      </trkpt>
      <trkpt lat="36.9383400" lon="-3.2925880">
        <ele>1139.4</ele>
        <time>2020-07-12T09:28:59Z</time>
      </trkpt>
      <trkpt lat="36.9383400" lon="-3.2924460">
        <ele>1140.0</ele>
        <time>2020-07-12T09:29:03Z</time>
      </trkpt>
      <trkpt lat="36.9383540" lon="-3.2922760">
        <ele>1141.0</ele>
        <time>2020-07-12T09:29:08Z</time>
      </trkpt>
      <trkpt lat="36.9383710" lon="-3.2920470">
        <ele>1142.0</ele>
        <time>2020-07-12T09:29:15Z</time>
      </trkpt>
      <trkpt lat="36.9383600" lon="-3.2919190">
        <ele>1143.0</ele>
        <time>2020-07-12T09:29:19Z</time>
      </trkpt>
      <trkpt lat="36.9383560" lon="-3.2918870">
        <ele>1143.2</ele>
        <time>2020-07-12T09:29:20Z</time>
      </trkpt>
      <trkpt lat="36.9382990" lon="-3.2917500">
        <ele>1144.0</ele>
        <time>2020-07-12T09:29:25Z</time>
      </trkpt>
      <trkpt lat="36.9382870" lon="-3.2917210">
        <ele>1144.2</ele>
        <time>2020-07-12T09:29:26Z</time>
      </trkpt>
      <trkpt lat="36.9382040" lon="-3.2915650">
        <ele>1145.6</ele>
        <time>2020-07-12T09:29:32Z</time>
      </trkpt>
      <trkpt lat="36.9381910" lon="-3.2915400">
        <ele>1145.8</ele>
        <time>2020-07-12T09:29:33Z</time>
      </trkpt>
      <trkpt lat="36.9380770" lon="-3.2913740">
        <ele>1146.6</ele>
        <time>2020-07-12T09:29:40Z</time>
      </trkpt>
      <trkpt lat="36.9380170" lon="-3.2912690">
        <ele>1148.0</ele>
        <time>2020-07-12T09:29:44Z</time>
      </trkpt>
      <trkpt lat="36.9379520" lon="-3.2911010">
        <ele>1149.0</ele>
        <time>2020-07-12T09:29:50Z</time>
      </trkpt>
      <trkpt lat="36.9379350" lon="-3.2910430">
        <ele>1149.6</ele>
        <time>2020-07-12T09:29:52Z</time>
      </trkpt>
      <trkpt lat="36.9379310" lon="-3.2910090">
        <ele>1150.0</ele>
        <time>2020-07-12T09:29:53Z</time>
      </trkpt>
      <trkpt lat="36.9379070" lon="-3.2908000">
        <ele>1151.2</ele>
        <time>2020-07-12T09:29:59Z</time>
      </trkpt>
      <trkpt lat="36.9378900" lon="-3.2905480">
        <ele>1152.4</ele>
        <time>2020-07-12T09:30:07Z</time>
      </trkpt>
      <trkpt lat="36.9378820" lon="-3.2903820">
        <ele>1153.4</ele>
        <time>2020-07-12T09:30:12Z</time>
      </trkpt>
      <trkpt lat="36.9378970" lon="-3.2903170">
        <ele>1154.0</ele>
        <time>2020-07-12T09:30:14Z</time>
      </trkpt>
      <trkpt lat="36.9379230" lon="-3.2902580">
        <ele>1154.6</ele>
        <time>2020-07-12T09:30:16Z</time>
      </trkpt>
      <trkpt lat="36.9380340" lon="-3.2901470">
        <ele>1155.6</ele>
        <time>2020-07-12T09:30:21Z</time>
      </trkpt>
      <trkpt lat="36.9380640" lon="-3.2901360">
        <ele>1155.6</ele>
        <time>2020-07-12T09:30:22Z</time>
      </trkpt>
      <trkpt lat="36.9382300" lon="-3.2901560">
        <ele>1156.2</ele>
        <time>2020-07-12T09:30:27Z</time>
      </trkpt>
      <trkpt lat="36.9383310" lon="-3.2901930">
        <ele>1156.6</ele>
        <time>2020-07-12T09:30:30Z</time>
      </trkpt>
      <trkpt lat="36.9383640" lon="-3.2902090">
        <ele>1156.8</ele>
        <time>2020-07-12T09:30:31Z</time>
      </trkpt>
      <trkpt lat="36.9386220" lon="-3.2903120">
        <ele>1157.6</ele>
        <time>2020-07-12T09:30:39Z</time>
      </trkpt>
      <trkpt lat="36.9386850" lon="-3.2903350">
        <ele>1157.8</ele>
        <time>2020-07-12T09:30:41Z</time>
      </trkpt>
      <trkpt lat="36.9388900" lon="-3.2903970">
        <ele>1158.8</ele>
        <time>2020-07-12T09:30:47Z</time>
      </trkpt>
      <trkpt lat="36.9391360" lon="-3.2904050">
        <ele>1159.8</ele>
        <time>2020-07-12T09:30:54Z</time>
      </trkpt>
      <trkpt lat="36.9393160" lon="-3.2903150">
        <ele>1160.8</ele>
        <time>2020-07-12T09:30:59Z</time>
      </trkpt>
      <trkpt lat="36.9393830" lon="-3.2902660">
        <ele>1161.0</ele>
        <time>2020-07-12T09:31:01Z</time>
      </trkpt>
      <trkpt lat="36.9395400" lon="-3.2901440">
        <ele>1161.8</ele>
        <time>2020-07-12T09:31:06Z</time>
      </trkpt>
      <trkpt lat="36.9396950" lon="-3.2900140">
        <ele>1163.0</ele>
        <time>2020-07-12T09:31:11Z</time>
      </trkpt>
      <trkpt lat="36.9398180" lon="-3.2898300">
        <ele>1163.8</ele>
        <time>2020-07-12T09:31:16Z</time>
      </trkpt>
      <trkpt lat="36.9398360" lon="-3.2897780">
        <ele>1164.0</ele>
        <time>2020-07-12T09:31:17Z</time>
      </trkpt>
      <trkpt lat="36.9398520" lon="-3.2896780">
        <ele>1164.6</ele>
        <time>2020-07-12T09:31:19Z</time>
      </trkpt>
      <trkpt lat="36.9398560" lon="-3.2896280">
        <ele>1164.6</ele>
        <time>2020-07-12T09:31:20Z</time>
      </trkpt>
      <trkpt lat="36.9398530" lon="-3.2895800">
        <ele>1165.2</ele>
        <time>2020-07-12T09:31:21Z</time>
      </trkpt>
      <trkpt lat="36.9398520" lon="-3.2895350">
        <ele>1165.2</ele>
        <time>2020-07-12T09:31:22Z</time>
      </trkpt>
      <trkpt lat="36.9398740" lon="-3.2893010">
        <ele>1166.4</ele>
        <time>2020-07-12T09:31:27Z</time>
      </trkpt>
      <trkpt lat="36.9398990" lon="-3.2892100">
        <ele>1166.6</ele>
        <time>2020-07-12T09:31:29Z</time>
      </trkpt>
      <trkpt lat="36.9399120" lon="-3.2891640">
        <ele>1166.6</ele>
        <time>2020-07-12T09:31:30Z</time>
      </trkpt>
      <trkpt lat="36.9399380" lon="-3.2890710">
        <ele>1167.0</ele>
        <time>2020-07-12T09:31:32Z</time>
      </trkpt>
      <trkpt lat="36.9400150" lon="-3.2889150">
        <ele>1167.4</ele>
        <time>2020-07-12T09:31:36Z</time>
      </trkpt>
      <trkpt lat="36.9400380" lon="-3.2888810">
        <ele>1167.6</ele>
        <time>2020-07-12T09:31:37Z</time>
      </trkpt>
      <trkpt lat="36.9401470" lon="-3.2887650">
        <ele>1168.6</ele>
        <time>2020-07-12T09:31:41Z</time>
      </trkpt>
      <trkpt lat="36.9402640" lon="-3.2886550">
        <ele>1169.0</ele>
        <time>2020-07-12T09:31:45Z</time>
      </trkpt>
      <trkpt lat="36.9403580" lon="-3.2885290">
        <ele>1169.6</ele>
        <time>2020-07-12T09:31:49Z</time>
      </trkpt>
      <trkpt lat="36.9403940" lon="-3.2884610">
        <ele>1169.8</ele>
        <time>2020-07-12T09:31:51Z</time>
      </trkpt>
      <trkpt lat="36.9405000" lon="-3.2882400">
        <ele>1170.6</ele>
        <time>2020-07-12T09:31:57Z</time>
      </trkpt>
      <trkpt lat="36.9405340" lon="-3.2881610">
        <ele>1171.2</ele>
        <time>2020-07-12T09:31:59Z</time>
      </trkpt>
      <trkpt lat="36.9405700" lon="-3.2880800">
        <ele>1172.0</ele>
        <time>2020-07-12T09:32:01Z</time>
      </trkpt>
      <trkpt lat="36.9406570" lon="-3.2878910">
        <ele>1173.2</ele>
        <time>2020-07-12T09:32:06Z</time>
      </trkpt>
      <trkpt lat="36.9406980" lon="-3.2878270">
        <ele>1173.6</ele>
        <time>2020-07-12T09:32:08Z</time>
      </trkpt>
      <trkpt lat="36.9407690" lon="-3.2877490">
        <ele>1174.2</ele>
        <time>2020-07-12T09:32:11Z</time>
      </trkpt>
      <trkpt lat="36.9408730" lon="-3.2876610">
        <ele>1174.8</ele>
        <time>2020-07-12T09:32:15Z</time>
      </trkpt>
      <trkpt lat="36.9409250" lon="-3.2876170">
        <ele>1175.2</ele>
        <time>2020-07-12T09:32:17Z</time>
      </trkpt>
      <trkpt lat="36.9410420" lon="-3.2874910">
        <ele>1176.4</ele>
        <time>2020-07-12T09:32:22Z</time>
      </trkpt>
      <trkpt lat="36.9410790" lon="-3.2874290">
        <ele>1176.8</ele>
        <time>2020-07-12T09:32:24Z</time>
      </trkpt>
      <trkpt lat="36.9411120" lon="-3.2873620">
        <ele>1177.4</ele>
        <time>2020-07-12T09:32:26Z</time>
      </trkpt>
      <trkpt lat="36.9412210" lon="-3.2871740">
        <ele>1178.6</ele>
        <time>2020-07-12T09:32:32Z</time>
      </trkpt>
      <trkpt lat="36.9412690" lon="-3.2871260">
        <ele>1179.0</ele>
        <time>2020-07-12T09:32:34Z</time>
      </trkpt>
      <trkpt lat="36.9413720" lon="-3.2870540">
        <ele>1179.6</ele>
        <time>2020-07-12T09:32:38Z</time>
      </trkpt>
      <trkpt lat="36.9414240" lon="-3.2870230">
        <ele>1180.0</ele>
        <time>2020-07-12T09:32:40Z</time>
      </trkpt>
      <trkpt lat="36.9414810" lon="-3.2869910">
        <ele>1180.4</ele>
        <time>2020-07-12T09:32:42Z</time>
      </trkpt>
      <trkpt lat="36.9415090" lon="-3.2869790">
        <ele>1180.8</ele>
        <time>2020-07-12T09:32:43Z</time>
      </trkpt>
      <trkpt lat="36.9416430" lon="-3.2869170">
        <ele>1181.8</ele>
        <time>2020-07-12T09:32:48Z</time>
      </trkpt>
      <trkpt lat="36.9417490" lon="-3.2868670">
        <ele>1182.4</ele>
        <time>2020-07-12T09:32:52Z</time>
      </trkpt>
      <trkpt lat="36.9418010" lon="-3.2868440">
        <ele>1182.8</ele>
        <time>2020-07-12T09:32:54Z</time>
      </trkpt>
      <trkpt lat="36.9419560" lon="-3.2867740">
        <ele>1183.8</ele>
        <time>2020-07-12T09:33:00Z</time>
      </trkpt>
      <trkpt lat="36.9420370" lon="-3.2867340">
        <ele>1184.6</ele>
        <time>2020-07-12T09:33:03Z</time>
      </trkpt>
      <trkpt lat="36.9421170" lon="-3.2866930">
        <ele>1185.0</ele>
        <time>2020-07-12T09:33:06Z</time>
      </trkpt>
      <trkpt lat="36.9422370" lon="-3.2865990">
        <ele>1185.8</ele>
        <time>2020-07-12T09:33:11Z</time>
      </trkpt>
      <trkpt lat="36.9422580" lon="-3.2865730">
        <ele>1186.2</ele>
        <time>2020-07-12T09:33:12Z</time>
      </trkpt>
      <trkpt lat="36.9423300" lon="-3.2864610">
        <ele>1187.4</ele>
        <time>2020-07-12T09:33:16Z</time>
      </trkpt>
      <trkpt lat="36.9424130" lon="-3.2863570">
        <ele>1188.4</ele>
        <time>2020-07-12T09:33:20Z</time>
      </trkpt>
      <trkpt lat="36.9425060" lon="-3.2862690">
        <ele>1189.6</ele>
        <time>2020-07-12T09:33:24Z</time>
      </trkpt>
      <trkpt lat="36.9426030" lon="-3.2862070">
        <ele>1190.4</ele>
        <time>2020-07-12T09:33:28Z</time>
      </trkpt>
      <trkpt lat="36.9426250" lon="-3.2861950">
        <ele>1190.6</ele>
        <time>2020-07-12T09:33:29Z</time>
      </trkpt>
      <trkpt lat="36.9427440" lon="-3.2861130">
        <ele>1191.6</ele>
        <time>2020-07-12T09:33:34Z</time>
      </trkpt>
      <trkpt lat="36.9427970" lon="-3.2860950">
        <ele>1192.2</ele>
        <time>2020-07-12T09:33:36Z</time>
      </trkpt>
      <trkpt lat="36.9428700" lon="-3.2860440">
        <ele>1192.6</ele>
        <time>2020-07-12T09:33:39Z</time>
      </trkpt>
      <trkpt lat="36.9429660" lon="-3.2859710">
        <ele>1193.4</ele>
        <time>2020-07-12T09:33:43Z</time>
      </trkpt>
      <trkpt lat="36.9430180" lon="-3.2859450">
        <ele>1194.0</ele>
        <time>2020-07-12T09:33:45Z</time>
      </trkpt>
      <trkpt lat="36.9431270" lon="-3.2859190">
        <ele>1195.2</ele>
        <time>2020-07-12T09:33:49Z</time>
      </trkpt>
      <trkpt lat="36.9431550" lon="-3.2859180">
        <ele>1195.4</ele>
        <time>2020-07-12T09:33:50Z</time>
      </trkpt>
      <trkpt lat="36.9432400" lon="-3.2859300">
        <ele>1196.4</ele>
        <time>2020-07-12T09:33:53Z</time>
      </trkpt>
      <trkpt lat="36.9433580" lon="-3.2859560">
        <ele>1197.6</ele>
        <time>2020-07-12T09:33:57Z</time>
      </trkpt>
      <trkpt lat="36.9434170" lon="-3.2859650">
        <ele>1197.8</ele>
        <time>2020-07-12T09:33:59Z</time>
      </trkpt>
      <trkpt lat="36.9435590" lon="-3.2859670">
        <ele>1198.6</ele>
        <time>2020-07-12T09:34:04Z</time>
      </trkpt>
      <trkpt lat="36.9436440" lon="-3.2859350">
        <ele>1199.4</ele>
        <time>2020-07-12T09:34:07Z</time>
      </trkpt>
      <trkpt lat="36.9436710" lon="-3.2859190">
        <ele>1199.6</ele>
        <time>2020-07-12T09:34:08Z</time>
      </trkpt>
      <trkpt lat="36.9438150" lon="-3.2857770">
        <ele>1200.6</ele>
        <time>2020-07-12T09:34:14Z</time>
      </trkpt>
      <trkpt lat="36.9438370" lon="-3.2857550">
        <ele>1200.8</ele>
        <time>2020-07-12T09:34:15Z</time>
      </trkpt>
      <trkpt lat="36.9439310" lon="-3.2856640">
        <ele>1202.0</ele>
        <time>2020-07-12T09:34:19Z</time>
      </trkpt>
      <trkpt lat="36.9440020" lon="-3.2856040">
        <ele>1202.8</ele>
        <time>2020-07-12T09:34:22Z</time>
      </trkpt>
      <trkpt lat="36.9440300" lon="-3.2855860">
        <ele>1203.2</ele>
        <time>2020-07-12T09:34:23Z</time>
      </trkpt>
      <trkpt lat="36.9441440" lon="-3.2855270">
        <ele>1204.2</ele>
        <time>2020-07-12T09:34:27Z</time>
      </trkpt>
      <trkpt lat="36.9442020" lon="-3.2855030">
        <ele>1204.8</ele>
        <time>2020-07-12T09:34:29Z</time>
      </trkpt>
      <trkpt lat="36.9443150" lon="-3.2854630">
        <ele>1205.4</ele>
        <time>2020-07-12T09:34:33Z</time>
      </trkpt>
      <trkpt lat="36.9444540" lon="-3.2854400">
        <ele>1206.4</ele>
        <time>2020-07-12T09:34:38Z</time>
      </trkpt>
      <trkpt lat="36.9445600" lon="-3.2854700">
        <ele>1207.6</ele>
        <time>2020-07-12T09:34:42Z</time>
      </trkpt>
      <trkpt lat="36.9446340" lon="-3.2855070">
        <ele>1208.2</ele>
        <time>2020-07-12T09:34:45Z</time>
      </trkpt>
      <trkpt lat="36.9446800" lon="-3.2855500">
        <ele>1208.6</ele>
        <time>2020-07-12T09:34:47Z</time>
      </trkpt>
      <trkpt lat="36.9448090" lon="-3.2856770">
        <ele>1209.6</ele>
        <time>2020-07-12T09:34:53Z</time>
      </trkpt>
      <trkpt lat="36.9448530" lon="-3.2857170">
        <ele>1210.0</ele>
        <time>2020-07-12T09:34:55Z</time>
      </trkpt>
      <trkpt lat="36.9449540" lon="-3.2857610">
        <ele>1210.4</ele>
        <time>2020-07-12T09:34:59Z</time>
      </trkpt>
      <trkpt lat="36.9450050" lon="-3.2857520">
        <ele>1210.8</ele>
        <time>2020-07-12T09:35:01Z</time>
      </trkpt>
      <trkpt lat="36.9450690" lon="-3.2857020">
        <ele>1211.2</ele>
        <time>2020-07-12T09:35:04Z</time>
      </trkpt>
      <trkpt lat="36.9450990" lon="-3.2856470">
        <ele>1211.8</ele>
        <time>2020-07-12T09:35:06Z</time>
      </trkpt>
      <trkpt lat="36.9451090" lon="-3.2856160">
        <ele>1212.0</ele>
        <time>2020-07-12T09:35:07Z</time>
      </trkpt>
      <trkpt lat="36.9451460" lon="-3.2854500">
        <ele>1213.2</ele>
        <time>2020-07-12T09:35:12Z</time>
      </trkpt>
      <trkpt lat="36.9451520" lon="-3.2854170">
        <ele>1213.4</ele>
        <time>2020-07-12T09:35:13Z</time>
      </trkpt>
      <trkpt lat="36.9451910" lon="-3.2852920">
        <ele>1214.4</ele>
        <time>2020-07-12T09:35:17Z</time>
      </trkpt>
      <trkpt lat="36.9452070" lon="-3.2852650">
        <ele>1214.6</ele>
        <time>2020-07-12T09:35:18Z</time>
      </trkpt>
      <trkpt lat="36.9452240" lon="-3.2852390">
        <ele>1214.8</ele>
        <time>2020-07-12T09:35:19Z</time>
      </trkpt>
      <trkpt lat="36.9452940" lon="-3.2851760">
        <ele>1215.4</ele>
        <time>2020-07-12T09:35:22Z</time>
      </trkpt>
      <trkpt lat="36.9453540" lon="-3.2851550">
        <ele>1216.0</ele>
        <time>2020-07-12T09:35:24Z</time>
      </trkpt>
      <trkpt lat="36.9454150" lon="-3.2851450">
        <ele>1216.6</ele>
        <time>2020-07-12T09:35:26Z</time>
      </trkpt>
      <trkpt lat="36.9455580" lon="-3.2851440">
        <ele>1217.6</ele>
        <time>2020-07-12T09:35:31Z</time>
      </trkpt>
      <trkpt lat="36.9455870" lon="-3.2851510">
        <ele>1217.8</ele>
        <time>2020-07-12T09:35:32Z</time>
      </trkpt>
      <trkpt lat="36.9457270" lon="-3.2851760">
        <ele>1218.8</ele>
        <time>2020-07-12T09:35:37Z</time>
      </trkpt>
      <trkpt lat="36.9458640" lon="-3.2851980">
        <ele>1219.6</ele>
        <time>2020-07-12T09:35:42Z</time>
      </trkpt>
      <trkpt lat="36.9458920" lon="-3.2852020">
        <ele>1219.8</ele>
        <time>2020-07-12T09:35:43Z</time>
      </trkpt>
      <trkpt lat="36.9460560" lon="-3.2852310">
        <ele>1221.0</ele>
        <time>2020-07-12T09:35:49Z</time>
      </trkpt>
      <trkpt lat="36.9461110" lon="-3.2852400">
        <ele>1221.2</ele>
        <time>2020-07-12T09:35:51Z</time>
      </trkpt>
      <trkpt lat="36.9462430" lon="-3.2852430">
        <ele>1222.0</ele>
        <time>2020-07-12T09:35:56Z</time>
      </trkpt>
      <trkpt lat="36.9462720" lon="-3.2852400">
        <ele>1222.2</ele>
        <time>2020-07-12T09:35:57Z</time>
      </trkpt>
      <trkpt lat="36.9463850" lon="-3.2852080">
        <ele>1223.2</ele>
        <time>2020-07-12T09:36:01Z</time>
      </trkpt>
      <trkpt lat="36.9465190" lon="-3.2851540">
        <ele>1224.2</ele>
        <time>2020-07-12T09:36:06Z</time>
      </trkpt>
      <trkpt lat="36.9466590" lon="-3.2851130">
        <ele>1225.4</ele>
        <time>2020-07-12T09:36:11Z</time>
      </trkpt>
      <trkpt lat="36.9467480" lon="-3.2851050">
        <ele>1226.2</ele>
        <time>2020-07-12T09:36:14Z</time>
      </trkpt>
      <trkpt lat="36.9467760" lon="-3.2851070">
        <ele>1226.4</ele>
        <time>2020-07-12T09:36:15Z</time>
      </trkpt>
      <trkpt lat="36.9469220" lon="-3.2851220">
        <ele>1227.6</ele>
        <time>2020-07-12T09:36:20Z</time>
      </trkpt>
      <trkpt lat="36.9470410" lon="-3.2851470">
        <ele>1228.4</ele>
        <time>2020-07-12T09:36:24Z</time>
      </trkpt>
      <trkpt lat="36.9470680" lon="-3.2851530">
        <ele>1228.6</ele>
        <time>2020-07-12T09:36:25Z</time>
      </trkpt>
      <trkpt lat="36.9472050" lon="-3.2851980">
        <ele>1229.8</ele>
        <time>2020-07-12T09:36:30Z</time>
      </trkpt>
      <trkpt lat="36.9472320" lon="-3.2852080">
        <ele>1230.0</ele>
        <time>2020-07-12T09:36:31Z</time>
      </trkpt>
      <trkpt lat="36.9473560" lon="-3.2852740">
        <ele>1231.0</ele>
        <time>2020-07-12T09:36:36Z</time>
      </trkpt>
      <trkpt lat="36.9474250" lon="-3.2853270">
        <ele>1231.6</ele>
        <time>2020-07-12T09:36:39Z</time>
      </trkpt>
      <trkpt lat="36.9474740" lon="-3.2853620">
        <ele>1232.2</ele>
        <time>2020-07-12T09:36:41Z</time>
      </trkpt>
      <trkpt lat="36.9475970" lon="-3.2854410">
        <ele>1233.2</ele>
        <time>2020-07-12T09:36:46Z</time>
      </trkpt>
      <trkpt lat="36.9476520" lon="-3.2854670">
        <ele>1233.6</ele>
        <time>2020-07-12T09:36:48Z</time>
      </trkpt>
      <trkpt lat="36.9477660" lon="-3.2854760">
        <ele>1234.2</ele>
        <time>2020-07-12T09:36:52Z</time>
      </trkpt>
      <trkpt lat="36.9478250" lon="-3.2854600">
        <ele>1234.6</ele>
        <time>2020-07-12T09:36:54Z</time>
      </trkpt>
      <trkpt lat="36.9479240" lon="-3.2854170">
        <ele>1235.2</ele>
        <time>2020-07-12T09:36:58Z</time>
      </trkpt>
      <trkpt lat="36.9479480" lon="-3.2854030">
        <ele>1235.6</ele>
        <time>2020-07-12T09:36:59Z</time>
      </trkpt>
      <trkpt lat="36.9479950" lon="-3.2853750">
        <ele>1236.0</ele>
        <time>2020-07-12T09:37:01Z</time>
      </trkpt>
      <trkpt lat="36.9480400" lon="-3.2853530">
        <ele>1236.6</ele>
        <time>2020-07-12T09:37:03Z</time>
      </trkpt>
      <trkpt lat="36.9480810" lon="-3.2853370">
        <ele>1237.2</ele>
        <time>2020-07-12T09:37:05Z</time>
      </trkpt>
      <trkpt lat="36.9481290" lon="-3.2853220">
        <ele>1237.8</ele>
        <time>2020-07-12T09:37:07Z</time>
      </trkpt>
      <trkpt lat="36.9482650" lon="-3.2853020">
        <ele>1239.0</ele>
        <time>2020-07-12T09:37:12Z</time>
      </trkpt>
      <trkpt lat="36.9484480" lon="-3.2853640">
        <ele>1240.0</ele>
        <time>2020-07-12T09:37:18Z</time>
      </trkpt>
      <trkpt lat="36.9486080" lon="-3.2854820">
        <ele>1241.0</ele>
        <time>2020-07-12T09:37:24Z</time>
      </trkpt>
      <trkpt lat="36.9487090" lon="-3.2855550">
        <ele>1242.2</ele>
        <time>2020-07-12T09:37:28Z</time>
      </trkpt>
      <trkpt lat="36.9488120" lon="-3.2856330">
        <ele>1243.0</ele>
        <time>2020-07-12T09:37:32Z</time>
      </trkpt>
      <trkpt lat="36.9488380" lon="-3.2856490">
        <ele>1243.2</ele>
        <time>2020-07-12T09:37:33Z</time>
      </trkpt>
      <trkpt lat="36.9489890" lon="-3.2856730">
        <ele>1244.2</ele>
        <time>2020-07-12T09:37:38Z</time>
      </trkpt>
      <trkpt lat="36.9490170" lon="-3.2856570">
        <ele>1244.4</ele>
        <time>2020-07-12T09:37:39Z</time>
      </trkpt>
      <trkpt lat="36.9491010" lon="-3.2855390">
        <ele>1244.8</ele>
        <time>2020-07-12T09:37:43Z</time>
      </trkpt>
      <trkpt lat="36.9491260" lon="-3.2854680">
        <ele>1245.4</ele>
        <time>2020-07-12T09:37:45Z</time>
      </trkpt>
      <trkpt lat="36.9491730" lon="-3.2853180">
        <ele>1246.6</ele>
        <time>2020-07-12T09:37:49Z</time>
      </trkpt>
      <trkpt lat="36.9492290" lon="-3.2851770">
        <ele>1247.6</ele>
        <time>2020-07-12T09:37:53Z</time>
      </trkpt>
      <trkpt lat="36.9492610" lon="-3.2851110">
        <ele>1248.0</ele>
        <time>2020-07-12T09:37:55Z</time>
      </trkpt>
      <trkpt lat="36.9493270" lon="-3.2850210">
        <ele>1248.6</ele>
        <time>2020-07-12T09:37:58Z</time>
      </trkpt>
      <trkpt lat="36.9494120" lon="-3.2849640">
        <ele>1249.4</ele>
        <time>2020-07-12T09:38:01Z</time>
      </trkpt>
      <trkpt lat="36.9494710" lon="-3.2849380">
        <ele>1249.8</ele>
        <time>2020-07-12T09:38:03Z</time>
      </trkpt>
      <trkpt lat="36.9495920" lon="-3.2849180">
        <ele>1250.8</ele>
        <time>2020-07-12T09:38:07Z</time>
      </trkpt>
      <trkpt lat="36.9497480" lon="-3.2848980">
        <ele>1252.0</ele>
        <time>2020-07-12T09:38:12Z</time>
      </trkpt>
      <trkpt lat="36.9498990" lon="-3.2848630">
        <ele>1252.8</ele>
        <time>2020-07-12T09:38:17Z</time>
      </trkpt>
      <trkpt lat="36.9499250" lon="-3.2848480">
        <ele>1253.0</ele>
        <time>2020-07-12T09:38:18Z</time>
      </trkpt>
      <trkpt lat="36.9500140" lon="-3.2847590">
        <ele>1253.8</ele>
        <time>2020-07-12T09:38:22Z</time>
      </trkpt>
      <trkpt lat="36.9500320" lon="-3.2847310">
        <ele>1254.0</ele>
        <time>2020-07-12T09:38:23Z</time>
      </trkpt>
      <trkpt lat="36.9501000" lon="-3.2845900">
        <ele>1255.2</ele>
        <time>2020-07-12T09:38:28Z</time>
      </trkpt>
      <trkpt lat="36.9501310" lon="-3.2845370">
        <ele>1256.0</ele>
        <time>2020-07-12T09:38:30Z</time>
      </trkpt>
      <trkpt lat="36.9501510" lon="-3.2845100">
        <ele>1256.2</ele>
        <time>2020-07-12T09:38:31Z</time>
      </trkpt>
      <trkpt lat="36.9502430" lon="-3.2844130">
        <ele>1257.4</ele>
        <time>2020-07-12T09:38:35Z</time>
      </trkpt>
      <trkpt lat="36.9503000" lon="-3.2843750">
        <ele>1257.8</ele>
        <time>2020-07-12T09:38:37Z</time>
      </trkpt>
      <trkpt lat="36.9504130" lon="-3.2843130">
        <ele>1258.4</ele>
        <time>2020-07-12T09:38:41Z</time>
      </trkpt>
      <trkpt lat="36.9505510" lon="-3.2842660">
        <ele>1259.2</ele>
        <time>2020-07-12T09:38:46Z</time>
      </trkpt>
      <trkpt lat="36.9506120" lon="-3.2842670">
        <ele>1259.6</ele>
        <time>2020-07-12T09:38:48Z</time>
      </trkpt>
      <trkpt lat="36.9507860" lon="-3.2842750">
        <ele>1260.8</ele>
        <time>2020-07-12T09:38:54Z</time>
      </trkpt>
      <trkpt lat="36.9509270" lon="-3.2842290">
        <ele>1262.0</ele>
        <time>2020-07-12T09:38:59Z</time>
      </trkpt>
      <trkpt lat="36.9509480" lon="-3.2842090">
        <ele>1262.2</ele>
        <time>2020-07-12T09:39:00Z</time>
      </trkpt>
      <trkpt lat="36.9510170" lon="-3.2840860">
        <ele>1263.0</ele>
        <time>2020-07-12T09:39:04Z</time>
      </trkpt>
      <trkpt lat="36.9510430" lon="-3.2840170">
        <ele>1263.4</ele>
        <time>2020-07-12T09:39:06Z</time>
      </trkpt>
      <trkpt lat="36.9510810" lon="-3.2839170">
        <ele>1264.0</ele>
        <time>2020-07-12T09:39:09Z</time>
      </trkpt>
      <trkpt lat="36.9511470" lon="-3.2837430">
        <ele>1265.0</ele>
        <time>2020-07-12T09:39:14Z</time>
      </trkpt>
      <trkpt lat="36.9511740" lon="-3.2836780">
        <ele>1265.4</ele>
        <time>2020-07-12T09:39:16Z</time>
      </trkpt>
      <trkpt lat="36.9512170" lon="-3.2835770">
        <ele>1266.2</ele>
        <time>2020-07-12T09:39:19Z</time>
      </trkpt>
      <trkpt lat="36.9512950" lon="-3.2834080">
        <ele>1267.2</ele>
        <time>2020-07-12T09:39:24Z</time>
      </trkpt>
      <trkpt lat="36.9513120" lon="-3.2833760">
        <ele>1267.4</ele>
        <time>2020-07-12T09:39:25Z</time>
      </trkpt>
      <trkpt lat="36.9514400" lon="-3.2831940">
        <ele>1268.2</ele>
        <time>2020-07-12T09:39:31Z</time>
      </trkpt>
      <trkpt lat="36.9515090" lon="-3.2831160">
        <ele>1268.8</ele>
        <time>2020-07-12T09:39:34Z</time>
      </trkpt>
      <trkpt lat="36.9515830" lon="-3.2830360">
        <ele>1269.4</ele>
        <time>2020-07-12T09:39:37Z</time>
      </trkpt>
      <trkpt lat="36.9518140" lon="-3.2828320">
        <ele>1270.4</ele>
        <time>2020-07-12T09:39:45Z</time>
      </trkpt>
      <trkpt lat="36.9519870" lon="-3.2827340">
        <ele>1271.0</ele>
        <time>2020-07-12T09:39:50Z</time>
      </trkpt>
      <trkpt lat="36.9521030" lon="-3.2826970">
        <ele>1271.4</ele>
        <time>2020-07-12T09:39:53Z</time>
      </trkpt>
      <trkpt lat="36.9521450" lon="-3.2826900">
        <ele>1271.6</ele>
        <time>2020-07-12T09:39:54Z</time>
      </trkpt>
      <trkpt lat="36.9522360" lon="-3.2826870">
        <ele>1272.0</ele>
        <time>2020-07-12T09:39:56Z</time>
      </trkpt>
      <trkpt lat="36.9523860" lon="-3.2826930">
        <ele>1272.2</ele>
        <time>2020-07-12T09:39:59Z</time>
      </trkpt>
      <trkpt lat="36.9526070" lon="-3.2826700">
        <ele>1272.2</ele>
        <time>2020-07-12T09:40:03Z</time>
      </trkpt>
      <trkpt lat="36.9527020" lon="-3.2825950">
        <ele>1272.2</ele>
        <time>2020-07-12T09:40:05Z</time>
      </trkpt>
      <trkpt lat="36.9528170" lon="-3.2824010">
        <ele>1272.4</ele>
        <time>2020-07-12T09:40:08Z</time>
      </trkpt>
      <trkpt lat="36.9529210" lon="-3.2822130">
        <ele>1272.6</ele>
        <time>2020-07-12T09:40:11Z</time>
      </trkpt>
      <trkpt lat="36.9531140" lon="-3.2819410">
        <ele>1272.8</ele>
        <time>2020-07-12T09:40:16Z</time>
      </trkpt>
      <trkpt lat="36.9531710" lon="-3.2818990">
        <ele>1273.0</ele>
        <time>2020-07-12T09:40:17Z</time>
      </trkpt>
      <trkpt lat="36.9534640" lon="-3.2817280">
        <ele>1273.8</ele>
        <time>2020-07-12T09:40:23Z</time>
      </trkpt>
      <trkpt lat="36.9535130" lon="-3.2817050">
        <ele>1274.0</ele>
        <time>2020-07-12T09:40:24Z</time>
      </trkpt>
      <trkpt lat="36.9536540" lon="-3.2816350">
        <ele>1274.4</ele>
        <time>2020-07-12T09:40:27Z</time>
      </trkpt>
      <trkpt lat="36.9536990" lon="-3.2816170">
        <ele>1274.6</ele>
        <time>2020-07-12T09:40:28Z</time>
      </trkpt>
      <trkpt lat="36.9537520" lon="-3.2816020">
        <ele>1274.8</ele>
        <time>2020-07-12T09:40:29Z</time>
      </trkpt>
      <trkpt lat="36.9538000" lon="-3.2815900">
        <ele>1275.0</ele>
        <time>2020-07-12T09:40:30Z</time>
      </trkpt>
      <trkpt lat="36.9540010" lon="-3.2815620">
        <ele>1275.8</ele>
        <time>2020-07-12T09:40:34Z</time>
      </trkpt>
      <trkpt lat="36.9540480" lon="-3.2815500">
        <ele>1276.0</ele>
        <time>2020-07-12T09:40:35Z</time>
      </trkpt>
      <trkpt lat="36.9541450" lon="-3.2815170">
        <ele>1276.4</ele>
        <time>2020-07-12T09:40:37Z</time>
      </trkpt>
      <trkpt lat="36.9542560" lon="-3.2814170">
        <ele>1276.8</ele>
        <time>2020-07-12T09:40:40Z</time>
      </trkpt>
      <trkpt lat="36.9542740" lon="-3.2813500">
        <ele>1277.0</ele>
        <time>2020-07-12T09:40:41Z</time>
      </trkpt>
      <trkpt lat="36.9542850" lon="-3.2812850">
        <ele>1277.0</ele>
        <time>2020-07-12T09:40:42Z</time>
      </trkpt>
      <trkpt lat="36.9542560" lon="-3.2811610">
        <ele>1277.4</ele>
        <time>2020-07-12T09:40:44Z</time>
      </trkpt>
      <trkpt lat="36.9541320" lon="-3.2810320">
        <ele>1278.0</ele>
        <time>2020-07-12T09:40:47Z</time>
      </trkpt>
      <trkpt lat="36.9540830" lon="-3.2810060">
        <ele>1278.2</ele>
        <time>2020-07-12T09:40:48Z</time>
      </trkpt>
      <trkpt lat="36.9539860" lon="-3.2809680">
        <ele>1278.4</ele>
        <time>2020-07-12T09:40:50Z</time>
      </trkpt>
      <trkpt lat="36.9538810" lon="-3.2809420">
        <ele>1278.8</ele>
        <time>2020-07-12T09:40:52Z</time>
      </trkpt>
      <trkpt lat="36.9537700" lon="-3.2809230">
        <ele>1279.2</ele>
        <time>2020-07-12T09:40:54Z</time>
      </trkpt>
      <trkpt lat="36.9534260" lon="-3.2808430">
        <ele>1279.4</ele>
        <time>2020-07-12T09:41:00Z</time>
      </trkpt>
      <trkpt lat="36.9532240" lon="-3.2806610">
        <ele>1279.6</ele>
        <time>2020-07-12T09:41:04Z</time>
      </trkpt>
      <trkpt lat="36.9530690" lon="-3.2803980">
        <ele>1279.6</ele>
        <time>2020-07-12T09:41:08Z</time>
      </trkpt>
      <trkpt lat="36.9530370" lon="-3.2803280">
        <ele>1279.6</ele>
        <time>2020-07-12T09:41:09Z</time>
      </trkpt>
      <trkpt lat="36.9529810" lon="-3.2801860">
        <ele>1279.6</ele>
        <time>2020-07-12T09:41:11Z</time>
      </trkpt>
      <trkpt lat="36.9529460" lon="-3.2799470">
        <ele>1279.6</ele>
        <time>2020-07-12T09:41:14Z</time>
      </trkpt>
      <trkpt lat="36.9529450" lon="-3.2798680">
        <ele>1279.6</ele>
        <time>2020-07-12T09:41:15Z</time>
      </trkpt>
      <trkpt lat="36.9529590" lon="-3.2797970">
        <ele>1279.6</ele>
        <time>2020-07-12T09:41:16Z</time>
      </trkpt>
      <trkpt lat="36.9530280" lon="-3.2795730">
        <ele>1279.8</ele>
        <time>2020-07-12T09:41:19Z</time>
      </trkpt>
      <trkpt lat="36.9530570" lon="-3.2795120">
        <ele>1279.8</ele>
        <time>2020-07-12T09:41:20Z</time>
      </trkpt>
      <trkpt lat="36.9530950" lon="-3.2794620">
        <ele>1280.0</ele>
        <time>2020-07-12T09:41:21Z</time>
      </trkpt>
      <trkpt lat="36.9531300" lon="-3.2794120">
        <ele>1280.2</ele>
        <time>2020-07-12T09:41:22Z</time>
      </trkpt>
      <trkpt lat="36.9532000" lon="-3.2793320">
        <ele>1280.8</ele>
        <time>2020-07-12T09:41:24Z</time>
      </trkpt>
      <trkpt lat="36.9532730" lon="-3.2792560">
        <ele>1281.4</ele>
        <time>2020-07-12T09:41:26Z</time>
      </trkpt>
      <trkpt lat="36.9533400" lon="-3.2791820">
        <ele>1281.8</ele>
        <time>2020-07-12T09:41:28Z</time>
      </trkpt>
      <trkpt lat="36.9533750" lon="-3.2791480">
        <ele>1282.4</ele>
        <time>2020-07-12T09:41:29Z</time>
      </trkpt>
      <trkpt lat="36.9534720" lon="-3.2790510">
        <ele>1283.2</ele>
        <time>2020-07-12T09:41:32Z</time>
      </trkpt>
      <trkpt lat="36.9535060" lon="-3.2790240">
        <ele>1283.6</ele>
        <time>2020-07-12T09:41:33Z</time>
      </trkpt>
      <trkpt lat="36.9536050" lon="-3.2789530">
        <ele>1284.8</ele>
        <time>2020-07-12T09:41:36Z</time>
      </trkpt>
      <trkpt lat="36.9537040" lon="-3.2788950">
        <ele>1286.0</ele>
        <time>2020-07-12T09:41:39Z</time>
      </trkpt>
      <trkpt lat="36.9538010" lon="-3.2788410">
        <ele>1287.0</ele>
        <time>2020-07-12T09:41:42Z</time>
      </trkpt>
      <trkpt lat="36.9538330" lon="-3.2788260">
        <ele>1287.2</ele>
        <time>2020-07-12T09:41:43Z</time>
      </trkpt>
      <trkpt lat="36.9539830" lon="-3.2787640">
        <ele>1288.4</ele>
        <time>2020-07-12T09:41:48Z</time>
      </trkpt>
      <trkpt lat="36.9540100" lon="-3.2787530">
        <ele>1288.6</ele>
        <time>2020-07-12T09:41:49Z</time>
      </trkpt>
      <trkpt lat="36.9540940" lon="-3.2787180">
        <ele>1289.4</ele>
        <time>2020-07-12T09:41:52Z</time>
      </trkpt>
      <trkpt lat="36.9542010" lon="-3.2786700">
        <ele>1290.4</ele>
        <time>2020-07-12T09:41:56Z</time>
      </trkpt>
      <trkpt lat="36.9542820" lon="-3.2786440">
        <ele>1291.2</ele>
        <time>2020-07-12T09:41:59Z</time>
      </trkpt>
      <trkpt lat="36.9543350" lon="-3.2786270">
        <ele>1291.8</ele>
        <time>2020-07-12T09:42:01Z</time>
      </trkpt>
      <trkpt lat="36.9544470" lon="-3.2785900">
        <ele>1292.6</ele>
        <time>2020-07-12T09:42:05Z</time>
      </trkpt>
      <trkpt lat="36.9544790" lon="-3.2785820">
        <ele>1293.0</ele>
        <time>2020-07-12T09:42:06Z</time>
      </trkpt>
      <trkpt lat="36.9546160" lon="-3.2785440">
        <ele>1294.0</ele>
        <time>2020-07-12T09:42:11Z</time>
      </trkpt>
      <trkpt lat="36.9547820" lon="-3.2785050">
        <ele>1295.2</ele>
        <time>2020-07-12T09:42:17Z</time>
      </trkpt>
      <trkpt lat="36.9548680" lon="-3.2784900">
        <ele>1296.0</ele>
        <time>2020-07-12T09:42:20Z</time>
      </trkpt>
      <trkpt lat="36.9549270" lon="-3.2784840">
        <ele>1296.4</ele>
        <time>2020-07-12T09:42:22Z</time>
      </trkpt>
      <trkpt lat="36.9550690" lon="-3.2784680">
        <ele>1297.4</ele>
        <time>2020-07-12T09:42:27Z</time>
      </trkpt>
      <trkpt lat="36.9551260" lon="-3.2784590">
        <ele>1297.8</ele>
        <time>2020-07-12T09:42:29Z</time>
      </trkpt>
      <trkpt lat="36.9552400" lon="-3.2784430">
        <ele>1298.6</ele>
        <time>2020-07-12T09:42:33Z</time>
      </trkpt>
      <trkpt lat="36.9553760" lon="-3.2784250">
        <ele>1299.6</ele>
        <time>2020-07-12T09:42:38Z</time>
      </trkpt>
      <trkpt lat="36.9554580" lon="-3.2784120">
        <ele>1300.4</ele>
        <time>2020-07-12T09:42:41Z</time>
      </trkpt>
      <trkpt lat="36.9555130" lon="-3.2784000">
        <ele>1300.8</ele>
        <time>2020-07-12T09:42:43Z</time>
      </trkpt>
      <trkpt lat="36.9556490" lon="-3.2783840">
        <ele>1301.8</ele>
        <time>2020-07-12T09:42:48Z</time>
      </trkpt>
      <trkpt lat="36.9557280" lon="-3.2783720">
        <ele>1302.6</ele>
        <time>2020-07-12T09:42:51Z</time>
      </trkpt>
      <trkpt lat="36.9557790" lon="-3.2783660">
        <ele>1303.0</ele>
        <time>2020-07-12T09:42:53Z</time>
      </trkpt>
      <trkpt lat="36.9559380" lon="-3.2783550">
        <ele>1304.2</ele>
        <time>2020-07-12T09:42:59Z</time>
      </trkpt>
      <trkpt lat="36.9560160" lon="-3.2783560">
        <ele>1304.8</ele>
        <time>2020-07-12T09:43:02Z</time>
      </trkpt>
      <trkpt lat="36.9560690" lon="-3.2783580">
        <ele>1305.2</ele>
        <time>2020-07-12T09:43:04Z</time>
      </trkpt>
      <trkpt lat="36.9562020" lon="-3.2783560">
        <ele>1306.4</ele>
        <time>2020-07-12T09:43:09Z</time>
      </trkpt>
      <trkpt lat="36.9562810" lon="-3.2783530">
        <ele>1307.0</ele>
        <time>2020-07-12T09:43:12Z</time>
      </trkpt>
      <trkpt lat="36.9563340" lon="-3.2783550">
        <ele>1307.4</ele>
        <time>2020-07-12T09:43:14Z</time>
      </trkpt>
      <trkpt lat="36.9564830" lon="-3.2783580">
        <ele>1308.4</ele>
        <time>2020-07-12T09:43:20Z</time>
      </trkpt>
      <trkpt lat="36.9566070" lon="-3.2783530">
        <ele>1309.4</ele>
        <time>2020-07-12T09:43:25Z</time>
      </trkpt>
      <trkpt lat="36.9567480" lon="-3.2783510">
        <ele>1310.4</ele>
        <time>2020-07-12T09:43:30Z</time>
      </trkpt>
      <trkpt lat="36.9568290" lon="-3.2783530">
        <ele>1311.2</ele>
        <time>2020-07-12T09:43:33Z</time>
      </trkpt>
      <trkpt lat="36.9568790" lon="-3.2783510">
        <ele>1311.6</ele>
        <time>2020-07-12T09:43:35Z</time>
      </trkpt>
      <trkpt lat="36.9569620" lon="-3.2783510">
        <ele>1312.6</ele>
        <time>2020-07-12T09:43:38Z</time>
      </trkpt>
      <trkpt lat="36.9569880" lon="-3.2783520">
        <ele>1312.8</ele>
        <time>2020-07-12T09:43:39Z</time>
      </trkpt>
      <trkpt lat="36.9571430" lon="-3.2783570">
        <ele>1314.0</ele>
        <time>2020-07-12T09:43:45Z</time>
      </trkpt>
      <trkpt lat="36.9571950" lon="-3.2783620">
        <ele>1314.2</ele>
        <time>2020-07-12T09:43:47Z</time>
      </trkpt>
      <trkpt lat="36.9573010" lon="-3.2783550">
        <ele>1315.2</ele>
        <time>2020-07-12T09:43:51Z</time>
      </trkpt>
      <trkpt lat="36.9574300" lon="-3.2783550">
        <ele>1316.2</ele>
        <time>2020-07-12T09:43:56Z</time>
      </trkpt>
      <trkpt lat="36.9574570" lon="-3.2783580">
        <ele>1316.6</ele>
        <time>2020-07-12T09:43:57Z</time>
      </trkpt>
      <trkpt lat="36.9575390" lon="-3.2783700">
        <ele>1317.2</ele>
        <time>2020-07-12T09:44:00Z</time>
      </trkpt>
      <trkpt lat="36.9576640" lon="-3.2784420">
        <ele>1318.2</ele>
        <time>2020-07-12T09:44:05Z</time>
      </trkpt>
      <trkpt lat="36.9576920" lon="-3.2784640">
        <ele>1318.4</ele>
        <time>2020-07-12T09:44:06Z</time>
      </trkpt>
      <trkpt lat="36.9578120" lon="-3.2785610">
        <ele>1319.4</ele>
        <time>2020-07-12T09:44:11Z</time>
      </trkpt>
      <trkpt lat="36.9579180" lon="-3.2786570">
        <ele>1320.4</ele>
        <time>2020-07-12T09:44:16Z</time>
      </trkpt>
      <trkpt lat="36.9579450" lon="-3.2786780">
        <ele>1320.6</ele>
        <time>2020-07-12T09:44:17Z</time>
      </trkpt>
      <trkpt lat="36.9580660" lon="-3.2787640">
        <ele>1321.8</ele>
        <time>2020-07-12T09:44:22Z</time>
      </trkpt>
      <trkpt lat="36.9581460" lon="-3.2788030">
        <ele>1322.4</ele>
        <time>2020-07-12T09:44:25Z</time>
      </trkpt>
      <trkpt lat="36.9582260" lon="-3.2788310">
        <ele>1323.0</ele>
        <time>2020-07-12T09:44:28Z</time>
      </trkpt>
      <trkpt lat="36.9583640" lon="-3.2788280">
        <ele>1324.0</ele>
        <time>2020-07-12T09:44:33Z</time>
      </trkpt>
      <trkpt lat="36.9583890" lon="-3.2788240">
        <ele>1324.2</ele>
        <time>2020-07-12T09:44:34Z</time>
      </trkpt>
      <trkpt lat="36.9584160" lon="-3.2788180">
        <ele>1324.2</ele>
        <time>2020-07-12T09:44:35Z</time>
      </trkpt>
      <trkpt lat="36.9584700" lon="-3.2788040">
        <ele>1324.6</ele>
        <time>2020-07-12T09:44:37Z</time>
      </trkpt>
      <trkpt lat="36.9584960" lon="-3.2787970">
        <ele>1324.8</ele>
        <time>2020-07-12T09:44:38Z</time>
      </trkpt>
      <trkpt lat="36.9585210" lon="-3.2787900">
        <ele>1325.0</ele>
        <time>2020-07-12T09:44:39Z</time>
      </trkpt>
      <trkpt lat="36.9585460" lon="-3.2787840">
        <ele>1325.2</ele>
        <time>2020-07-12T09:44:40Z</time>
      </trkpt>
      <trkpt lat="36.9585760" lon="-3.2787760">
        <ele>1325.6</ele>
        <time>2020-07-12T09:44:41Z</time>
      </trkpt>
      <trkpt lat="36.9586050" lon="-3.2787680">
        <ele>1325.8</ele>
        <time>2020-07-12T09:44:42Z</time>
      </trkpt>
      <trkpt lat="36.9586640" lon="-3.2787480">
        <ele>1326.2</ele>
        <time>2020-07-12T09:44:44Z</time>
      </trkpt>
      <trkpt lat="36.9588050" lon="-3.2787210">
        <ele>1327.2</ele>
        <time>2020-07-12T09:44:49Z</time>
      </trkpt>
      <trkpt lat="36.9588300" lon="-3.2787160">
        <ele>1327.4</ele>
        <time>2020-07-12T09:44:50Z</time>
      </trkpt>
      <trkpt lat="36.9588580" lon="-3.2787100">
        <ele>1327.6</ele>
        <time>2020-07-12T09:44:51Z</time>
      </trkpt>
      <trkpt lat="36.9588860" lon="-3.2787030">
        <ele>1327.8</ele>
        <time>2020-07-12T09:44:52Z</time>
      </trkpt>
      <trkpt lat="36.9589420" lon="-3.2786930">
        <ele>1328.6</ele>
        <time>2020-07-12T09:44:54Z</time>
      </trkpt>
      <trkpt lat="36.9591130" lon="-3.2786580">
        <ele>1329.4</ele>
        <time>2020-07-12T09:45:00Z</time>
      </trkpt>
      <trkpt lat="36.9591430" lon="-3.2786540">
        <ele>1329.6</ele>
        <time>2020-07-12T09:45:01Z</time>
      </trkpt>
      <trkpt lat="36.9592820" lon="-3.2786210">
        <ele>1330.8</ele>
        <time>2020-07-12T09:45:06Z</time>
      </trkpt>
      <trkpt lat="36.9593380" lon="-3.2786070">
        <ele>1331.0</ele>
        <time>2020-07-12T09:45:08Z</time>
      </trkpt>
      <trkpt lat="36.9594530" lon="-3.2785830">
        <ele>1331.8</ele>
        <time>2020-07-12T09:45:12Z</time>
      </trkpt>
      <trkpt lat="36.9595920" lon="-3.2785500">
        <ele>1332.8</ele>
        <time>2020-07-12T09:45:17Z</time>
      </trkpt>
      <trkpt lat="36.9596210" lon="-3.2785430">
        <ele>1333.0</ele>
        <time>2020-07-12T09:45:18Z</time>
      </trkpt>
      <trkpt lat="36.9597290" lon="-3.2785170">
        <ele>1333.8</ele>
        <time>2020-07-12T09:45:22Z</time>
      </trkpt>
      <trkpt lat="36.9598630" lon="-3.2784860">
        <ele>1335.0</ele>
        <time>2020-07-12T09:45:27Z</time>
      </trkpt>
      <trkpt lat="36.9599450" lon="-3.2784680">
        <ele>1335.4</ele>
        <time>2020-07-12T09:45:30Z</time>
      </trkpt>
      <trkpt lat="36.9600310" lon="-3.2784510">
        <ele>1336.0</ele>
        <time>2020-07-12T09:45:33Z</time>
      </trkpt>
      <trkpt lat="36.9601470" lon="-3.2784360">
        <ele>1337.2</ele>
        <time>2020-07-12T09:45:37Z</time>
      </trkpt>
      <trkpt lat="36.9602090" lon="-3.2784320">
        <ele>1337.8</ele>
        <time>2020-07-12T09:45:39Z</time>
      </trkpt>
      <trkpt lat="36.9602990" lon="-3.2784350">
        <ele>1338.2</ele>
        <time>2020-07-12T09:45:42Z</time>
      </trkpt>
      <trkpt lat="36.9604400" lon="-3.2784990">
        <ele>1339.2</ele>
        <time>2020-07-12T09:45:47Z</time>
      </trkpt>
      <trkpt lat="36.9604650" lon="-3.2785180">
        <ele>1339.4</ele>
        <time>2020-07-12T09:45:48Z</time>
      </trkpt>
      <trkpt lat="36.9605570" lon="-3.2786120">
        <ele>1340.4</ele>
        <time>2020-07-12T09:45:52Z</time>
      </trkpt>
      <trkpt lat="36.9606180" lon="-3.2786930">
        <ele>1341.0</ele>
        <time>2020-07-12T09:45:55Z</time>
      </trkpt>
      <trkpt lat="36.9606520" lon="-3.2787530">
        <ele>1341.6</ele>
        <time>2020-07-12T09:45:57Z</time>
      </trkpt>
      <trkpt lat="36.9607450" lon="-3.2788890">
        <ele>1342.6</ele>
        <time>2020-07-12T09:46:02Z</time>
      </trkpt>
      <trkpt lat="36.9607630" lon="-3.2789150">
        <ele>1342.8</ele>
        <time>2020-07-12T09:46:03Z</time>
      </trkpt>
      <trkpt lat="36.9608640" lon="-3.2790310">
        <ele>1343.8</ele>
        <time>2020-07-12T09:46:08Z</time>
      </trkpt>
      <trkpt lat="36.9609330" lon="-3.2790810">
        <ele>1344.2</ele>
        <time>2020-07-12T09:46:11Z</time>
      </trkpt>
      <trkpt lat="36.9610050" lon="-3.2791210">
        <ele>1344.8</ele>
        <time>2020-07-12T09:46:14Z</time>
      </trkpt>
      <trkpt lat="36.9611250" lon="-3.2791780">
        <ele>1345.8</ele>
        <time>2020-07-12T09:46:19Z</time>
      </trkpt>
      <trkpt lat="36.9611900" lon="-3.2792150">
        <ele>1346.4</ele>
        <time>2020-07-12T09:46:22Z</time>
      </trkpt>
      <trkpt lat="36.9612340" lon="-3.2792440">
        <ele>1347.0</ele>
        <time>2020-07-12T09:46:24Z</time>
      </trkpt>
      <trkpt lat="36.9613270" lon="-3.2793460">
        <ele>1348.2</ele>
        <time>2020-07-12T09:46:29Z</time>
      </trkpt>
      <trkpt lat="36.9613430" lon="-3.2793680">
        <ele>1348.2</ele>
        <time>2020-07-12T09:46:30Z</time>
      </trkpt>
      <trkpt lat="36.9614280" lon="-3.2795370">
        <ele>1349.4</ele>
        <time>2020-07-12T09:46:36Z</time>
      </trkpt>
      <trkpt lat="36.9614980" lon="-3.2796880">
        <ele>1350.6</ele>
        <time>2020-07-12T09:46:41Z</time>
      </trkpt>
      <trkpt lat="36.9615330" lon="-3.2797420">
        <ele>1351.0</ele>
        <time>2020-07-12T09:46:43Z</time>
      </trkpt>
      <trkpt lat="36.9616410" lon="-3.2798550">
        <ele>1351.8</ele>
        <time>2020-07-12T09:46:48Z</time>
      </trkpt>
      <trkpt lat="36.9616870" lon="-3.2798890">
        <ele>1352.2</ele>
        <time>2020-07-12T09:46:50Z</time>
      </trkpt>
      <trkpt lat="36.9617670" lon="-3.2799150">
        <ele>1352.8</ele>
        <time>2020-07-12T09:46:53Z</time>
      </trkpt>
      <trkpt lat="36.9618470" lon="-3.2799270">
        <ele>1353.4</ele>
        <time>2020-07-12T09:46:56Z</time>
      </trkpt>
      <trkpt lat="36.9618990" lon="-3.2799320">
        <ele>1354.0</ele>
        <time>2020-07-12T09:46:58Z</time>
      </trkpt>
      <trkpt lat="36.9620110" lon="-3.2799400">
        <ele>1355.0</ele>
        <time>2020-07-12T09:47:02Z</time>
      </trkpt>
      <trkpt lat="36.9620950" lon="-3.2799460">
        <ele>1355.8</ele>
        <time>2020-07-12T09:47:05Z</time>
      </trkpt>
      <trkpt lat="36.9621530" lon="-3.2799500">
        <ele>1356.2</ele>
        <time>2020-07-12T09:47:07Z</time>
      </trkpt>
      <trkpt lat="36.9623240" lon="-3.2799640">
        <ele>1357.4</ele>
        <time>2020-07-12T09:47:13Z</time>
      </trkpt>
      <trkpt lat="36.9623780" lon="-3.2799680">
        <ele>1357.6</ele>
        <time>2020-07-12T09:47:15Z</time>
      </trkpt>
      <trkpt lat="36.9624660" lon="-3.2799740">
        <ele>1358.4</ele>
        <time>2020-07-12T09:47:18Z</time>
      </trkpt>
      <trkpt lat="36.9626100" lon="-3.2799770">
        <ele>1359.4</ele>
        <time>2020-07-12T09:47:23Z</time>
      </trkpt>
      <trkpt lat="36.9626390" lon="-3.2799780">
        <ele>1359.6</ele>
        <time>2020-07-12T09:47:24Z</time>
      </trkpt>
      <trkpt lat="36.9627850" lon="-3.2799980">
        <ele>1360.8</ele>
        <time>2020-07-12T09:47:29Z</time>
      </trkpt>
      <trkpt lat="36.9628670" lon="-3.2800190">
        <ele>1361.6</ele>
        <time>2020-07-12T09:47:32Z</time>
      </trkpt>
      <trkpt lat="36.9629200" lon="-3.2800420">
        <ele>1362.0</ele>
        <time>2020-07-12T09:47:34Z</time>
      </trkpt>
      <trkpt lat="36.9630480" lon="-3.2801420">
        <ele>1363.2</ele>
        <time>2020-07-12T09:47:39Z</time>
      </trkpt>
      <trkpt lat="36.9631720" lon="-3.2802480">
        <ele>1364.2</ele>
        <time>2020-07-12T09:47:44Z</time>
      </trkpt>
      <trkpt lat="36.9632900" lon="-3.2803500">
        <ele>1365.2</ele>
        <time>2020-07-12T09:47:49Z</time>
      </trkpt>
      <trkpt lat="36.9633130" lon="-3.2803700">
        <ele>1365.4</ele>
        <time>2020-07-12T09:47:50Z</time>
      </trkpt>
      <trkpt lat="36.9634090" lon="-3.2804520">
        <ele>1366.4</ele>
        <time>2020-07-12T09:47:54Z</time>
      </trkpt>
      <trkpt lat="36.9635200" lon="-3.2805510">
        <ele>1367.6</ele>
        <time>2020-07-12T09:47:59Z</time>
      </trkpt>
      <trkpt lat="36.9635630" lon="-3.2805930">
        <ele>1368.0</ele>
        <time>2020-07-12T09:48:01Z</time>
      </trkpt>
      <trkpt lat="36.9636240" lon="-3.2806590">
        <ele>1368.8</ele>
        <time>2020-07-12T09:48:04Z</time>
      </trkpt>
      <trkpt lat="36.9637560" lon="-3.2808120">
        <ele>1369.6</ele>
        <time>2020-07-12T09:48:10Z</time>
      </trkpt>
      <trkpt lat="36.9637750" lon="-3.2808400">
        <ele>1369.8</ele>
        <time>2020-07-12T09:48:11Z</time>
      </trkpt>
      <trkpt lat="36.9638980" lon="-3.2810000">
        <ele>1371.0</ele>
        <time>2020-07-12T09:48:17Z</time>
      </trkpt>
      <trkpt lat="36.9639200" lon="-3.2810250">
        <ele>1371.2</ele>
        <time>2020-07-12T09:48:18Z</time>
      </trkpt>
      <trkpt lat="36.9640510" lon="-3.2811520">
        <ele>1372.0</ele>
        <time>2020-07-12T09:48:23Z</time>
      </trkpt>
      <trkpt lat="36.9641600" lon="-3.2812560">
        <ele>1372.4</ele>
        <time>2020-07-12T09:48:27Z</time>
      </trkpt>
      <trkpt lat="36.9642780" lon="-3.2813450">
        <ele>1373.0</ele>
        <time>2020-07-12T09:48:31Z</time>
      </trkpt>
      <trkpt lat="36.9644360" lon="-3.2814580">
        <ele>1373.6</ele>
        <time>2020-07-12T09:48:36Z</time>
      </trkpt>
      <trkpt lat="36.9644710" lon="-3.2814760">
        <ele>1373.6</ele>
        <time>2020-07-12T09:48:37Z</time>
      </trkpt>
      <trkpt lat="36.9646910" lon="-3.2815550">
        <ele>1374.0</ele>
        <time>2020-07-12T09:48:43Z</time>
      </trkpt>
      <trkpt lat="36.9647710" lon="-3.2815740">
        <ele>1374.4</ele>
        <time>2020-07-12T09:48:45Z</time>
      </trkpt>
      <trkpt lat="36.9648890" lon="-3.2815800">
        <ele>1375.2</ele>
        <time>2020-07-12T09:48:48Z</time>
      </trkpt>
      <trkpt lat="36.9649710" lon="-3.2815600">
        <ele>1375.4</ele>
        <time>2020-07-12T09:48:50Z</time>
      </trkpt>
      <trkpt lat="36.9651250" lon="-3.2814340">
        <ele>1375.6</ele>
        <time>2020-07-12T09:48:54Z</time>
      </trkpt>
      <trkpt lat="36.9651550" lon="-3.2813980">
        <ele>1375.8</ele>
        <time>2020-07-12T09:48:55Z</time>
      </trkpt>
      <trkpt lat="36.9652200" lon="-3.2813090">
        <ele>1376.2</ele>
        <time>2020-07-12T09:48:57Z</time>
      </trkpt>
      <trkpt lat="36.9654030" lon="-3.2810320">
        <ele>1376.8</ele>
        <time>2020-07-12T09:49:03Z</time>
      </trkpt>
      <trkpt lat="36.9655620" lon="-3.2807960">
        <ele>1377.2</ele>
        <time>2020-07-12T09:49:08Z</time>
      </trkpt>
      <trkpt lat="36.9656490" lon="-3.2806610">
        <ele>1377.6</ele>
        <time>2020-07-12T09:49:11Z</time>
      </trkpt>
      <trkpt lat="36.9657100" lon="-3.2805790">
        <ele>1377.8</ele>
        <time>2020-07-12T09:49:13Z</time>
      </trkpt>
      <trkpt lat="36.9658110" lon="-3.2804800">
        <ele>1378.4</ele>
        <time>2020-07-12T09:49:16Z</time>
      </trkpt>
      <trkpt lat="36.9658510" lon="-3.2804540">
        <ele>1378.6</ele>
        <time>2020-07-12T09:49:17Z</time>
      </trkpt>
      <trkpt lat="36.9660120" lon="-3.2804050">
        <ele>1379.6</ele>
        <time>2020-07-12T09:49:21Z</time>
      </trkpt>
      <trkpt lat="36.9660500" lon="-3.2804010">
        <ele>1379.8</ele>
        <time>2020-07-12T09:49:22Z</time>
      </trkpt>
      <trkpt lat="36.9662480" lon="-3.2804000">
        <ele>1380.8</ele>
        <time>2020-07-12T09:49:27Z</time>
      </trkpt>
      <trkpt lat="36.9663990" lon="-3.2804090">
        <ele>1381.8</ele>
        <time>2020-07-12T09:49:31Z</time>
      </trkpt>
      <trkpt lat="36.9664360" lon="-3.2804100">
        <ele>1382.2</ele>
        <time>2020-07-12T09:49:32Z</time>
      </trkpt>
      <trkpt lat="36.9665410" lon="-3.2804150">
        <ele>1383.0</ele>
        <time>2020-07-12T09:49:35Z</time>
      </trkpt>
      <trkpt lat="36.9666880" lon="-3.2804200">
        <ele>1384.0</ele>
        <time>2020-07-12T09:49:39Z</time>
      </trkpt>
      <trkpt lat="36.9668310" lon="-3.2804200">
        <ele>1385.2</ele>
        <time>2020-07-12T09:49:43Z</time>
      </trkpt>
      <trkpt lat="36.9668660" lon="-3.2804200">
        <ele>1385.4</ele>
        <time>2020-07-12T09:49:44Z</time>
      </trkpt>
      <trkpt lat="36.9670000" lon="-3.2804190">
        <ele>1386.4</ele>
        <time>2020-07-12T09:49:48Z</time>
      </trkpt>
      <trkpt lat="36.9671640" lon="-3.2804250">
        <ele>1387.4</ele>
        <time>2020-07-12T09:49:53Z</time>
      </trkpt>
      <trkpt lat="36.9671970" lon="-3.2804270">
        <ele>1387.6</ele>
        <time>2020-07-12T09:49:54Z</time>
      </trkpt>
      <trkpt lat="36.9673950" lon="-3.2804360">
        <ele>1388.6</ele>
        <time>2020-07-12T09:50:00Z</time>
      </trkpt>
      <trkpt lat="36.9675080" lon="-3.2804390">
        <ele>1389.0</ele>
        <time>2020-07-12T09:50:03Z</time>
      </trkpt>
      <trkpt lat="36.9676340" lon="-3.2804390">
        <ele>1389.4</ele>
        <time>2020-07-12T09:50:06Z</time>
      </trkpt>
      <trkpt lat="36.9677650" lon="-3.2803870">
        <ele>1389.6</ele>
        <time>2020-07-12T09:50:09Z</time>
      </trkpt>
      <trkpt lat="36.9678080" lon="-3.2803550">
        <ele>1389.6</ele>
        <time>2020-07-12T09:50:10Z</time>
      </trkpt>
      <trkpt lat="36.9678460" lon="-3.2803080">
        <ele>1389.6</ele>
        <time>2020-07-12T09:50:11Z</time>
      </trkpt>
      <trkpt lat="36.9680020" lon="-3.2801340">
        <ele>1389.4</ele>
        <time>2020-07-12T09:50:15Z</time>
      </trkpt>
      <trkpt lat="36.9680490" lon="-3.2800930">
        <ele>1389.6</ele>
        <time>2020-07-12T09:50:16Z</time>
      </trkpt>
      <trkpt lat="36.9682170" lon="-3.2800290">
        <ele>1389.6</ele>
        <time>2020-07-12T09:50:19Z</time>
      </trkpt>
      <trkpt lat="36.9683880" lon="-3.2800750">
        <ele>1389.6</ele>
        <time>2020-07-12T09:50:22Z</time>
      </trkpt>
      <trkpt lat="36.9685320" lon="-3.2802260">
        <ele>1389.4</ele>
        <time>2020-07-12T09:50:25Z</time>
      </trkpt>
      <trkpt lat="36.9685780" lon="-3.2802950">
        <ele>1389.2</ele>
        <time>2020-07-12T09:50:26Z</time>
      </trkpt>
      <trkpt lat="36.9686170" lon="-3.2803650">
        <ele>1389.2</ele>
        <time>2020-07-12T09:50:27Z</time>
      </trkpt>
      <trkpt lat="36.9686540" lon="-3.2804340">
        <ele>1389.2</ele>
        <time>2020-07-12T09:50:28Z</time>
      </trkpt>
      <trkpt lat="36.9688520" lon="-3.2807150">
        <ele>1388.8</ele>
        <time>2020-07-12T09:50:32Z</time>
      </trkpt>
      <trkpt lat="36.9689850" lon="-3.2808080">
        <ele>1388.6</ele>
        <time>2020-07-12T09:50:34Z</time>
      </trkpt>
      <trkpt lat="36.9690580" lon="-3.2808420">
        <ele>1388.4</ele>
        <time>2020-07-12T09:50:35Z</time>
      </trkpt>
      <trkpt lat="36.9690690" lon="-3.2808390">
        <ele>1388.4</ele>
        <time>2020-07-12T09:50:36Z</time>
      </trkpt>
      <trkpt lat="36.9694340" lon="-3.2809340">
        <ele>1388.2</ele>
        <time>2020-07-12T09:50:40Z</time>
      </trkpt>
      <trkpt lat="36.9698180" lon="-3.2810370">
        <ele>1387.8</ele>
        <time>2020-07-12T09:50:45Z</time>
      </trkpt>
      <trkpt lat="36.9699740" lon="-3.2811050">
        <ele>1387.4</ele>
        <time>2020-07-12T09:50:47Z</time>
      </trkpt>
      <trkpt lat="36.9701790" lon="-3.2812250">
        <ele>1386.8</ele>
        <time>2020-07-12T09:50:50Z</time>
      </trkpt>
      <trkpt lat="36.9703230" lon="-3.2812930">
        <ele>1386.6</ele>
        <time>2020-07-12T09:50:52Z</time>
      </trkpt>
      <trkpt lat="36.9704010" lon="-3.2812880">
        <ele>1386.6</ele>
        <time>2020-07-12T09:50:53Z</time>
      </trkpt>
      <trkpt lat="36.9705180" lon="-3.2811870">
        <ele>1386.6</ele>
        <time>2020-07-12T09:50:55Z</time>
      </trkpt>
      <trkpt lat="36.9706340" lon="-3.2809300">
        <ele>1386.6</ele>
        <time>2020-07-12T09:50:58Z</time>
      </trkpt>
      <trkpt lat="36.9706710" lon="-3.2808360">
        <ele>1386.4</ele>
        <time>2020-07-12T09:50:59Z</time>
      </trkpt>
      <trkpt lat="36.9707040" lon="-3.2807550">
        <ele>1386.4</ele>
        <time>2020-07-12T09:51:00Z</time>
      </trkpt>
      <trkpt lat="36.9708770" lon="-3.2803880">
        <ele>1385.4</ele>
        <time>2020-07-12T09:51:04Z</time>
      </trkpt>
      <trkpt lat="36.9709410" lon="-3.2803130">
        <ele>1385.2</ele>
        <time>2020-07-12T09:51:05Z</time>
      </trkpt>
      <trkpt lat="36.9712740" lon="-3.2800810">
        <ele>1384.4</ele>
        <time>2020-07-12T09:51:09Z</time>
      </trkpt>
      <trkpt lat="36.9714450" lon="-3.2799760">
        <ele>1384.0</ele>
        <time>2020-07-12T09:51:11Z</time>
      </trkpt>
      <trkpt lat="36.9716080" lon="-3.2798510">
        <ele>1383.6</ele>
        <time>2020-07-12T09:51:13Z</time>
      </trkpt>
      <trkpt lat="36.9717460" lon="-3.2797030">
        <ele>1382.8</ele>
        <time>2020-07-12T09:51:15Z</time>
      </trkpt>
      <trkpt lat="36.9718840" lon="-3.2795300">
        <ele>1382.0</ele>
        <time>2020-07-12T09:51:17Z</time>
      </trkpt>
      <trkpt lat="36.9720130" lon="-3.2793670">
        <ele>1381.6</ele>
        <time>2020-07-12T09:51:19Z</time>
      </trkpt>
      <trkpt lat="36.9721970" lon="-3.2791320">
        <ele>1381.2</ele>
        <time>2020-07-12T09:51:22Z</time>
      </trkpt>
      <trkpt lat="36.9725750" lon="-3.2787080">
        <ele>1381.0</ele>
        <time>2020-07-12T09:51:28Z</time>
      </trkpt>
      <trkpt lat="36.9726530" lon="-3.2786580">
        <ele>1381.0</ele>
        <time>2020-07-12T09:51:29Z</time>
      </trkpt>
      <trkpt lat="36.9730310" lon="-3.2784950">
        <ele>1380.8</ele>
        <time>2020-07-12T09:51:34Z</time>
      </trkpt>
      <trkpt lat="36.9731890" lon="-3.2784600">
        <ele>1381.0</ele>
        <time>2020-07-12T09:51:36Z</time>
      </trkpt>
      <trkpt lat="36.9733440" lon="-3.2784640">
        <ele>1381.0</ele>
        <time>2020-07-12T09:51:38Z</time>
      </trkpt>
      <trkpt lat="36.9738940" lon="-3.2785430">
        <ele>1380.6</ele>
        <time>2020-07-12T09:51:45Z</time>
      </trkpt>
      <trkpt lat="36.9739700" lon="-3.2785560">
        <ele>1380.6</ele>
        <time>2020-07-12T09:51:46Z</time>
      </trkpt>
      <trkpt lat="36.9741300" lon="-3.2785770">
        <ele>1380.6</ele>
        <time>2020-07-12T09:51:48Z</time>
      </trkpt>
      <trkpt lat="36.9745770" lon="-3.2785870">
        <ele>1380.2</ele>
        <time>2020-07-12T09:51:54Z</time>
      </trkpt>
      <trkpt lat="36.9747500" lon="-3.2784790">
        <ele>1380.4</ele>
        <time>2020-07-12T09:51:57Z</time>
      </trkpt>
      <trkpt lat="36.9748400" lon="-3.2783920">
        <ele>1381.0</ele>
        <time>2020-07-12T09:51:59Z</time>
      </trkpt>
      <trkpt lat="36.9749120" lon="-3.2783070">
        <ele>1381.6</ele>
        <time>2020-07-12T09:52:01Z</time>
      </trkpt>
      <trkpt lat="36.9749500" lon="-3.2782740">
        <ele>1381.6</ele>
        <time>2020-07-12T09:52:02Z</time>
      </trkpt>
      <trkpt lat="36.9750740" lon="-3.2782170">
        <ele>1382.6</ele>
        <time>2020-07-12T09:52:05Z</time>
      </trkpt>
      <trkpt lat="36.9751210" lon="-3.2782020">
        <ele>1383.0</ele>
        <time>2020-07-12T09:52:06Z</time>
      </trkpt>
      <trkpt lat="36.9752530" lon="-3.2781890">
        <ele>1383.6</ele>
        <time>2020-07-12T09:52:09Z</time>
      </trkpt>
      <trkpt lat="36.9752910" lon="-3.2781890">
        <ele>1384.0</ele>
        <time>2020-07-12T09:52:10Z</time>
      </trkpt>
      <trkpt lat="36.9754650" lon="-3.2781870">
        <ele>1384.8</ele>
        <time>2020-07-12T09:52:14Z</time>
      </trkpt>
      <trkpt lat="36.9755540" lon="-3.2781840">
        <ele>1385.2</ele>
        <time>2020-07-12T09:52:16Z</time>
      </trkpt>
      <trkpt lat="36.9757580" lon="-3.2781690">
        <ele>1385.8</ele>
        <time>2020-07-12T09:52:20Z</time>
      </trkpt>
      <trkpt lat="36.9758750" lon="-3.2781390">
        <ele>1385.8</ele>
        <time>2020-07-12T09:52:22Z</time>
      </trkpt>
      <trkpt lat="36.9762610" lon="-3.2779870">
        <ele>1384.8</ele>
        <time>2020-07-12T09:52:28Z</time>
      </trkpt>
      <trkpt lat="36.9764840" lon="-3.2780050">
        <ele>1384.2</ele>
        <time>2020-07-12T09:52:31Z</time>
      </trkpt>
      <trkpt lat="36.9766200" lon="-3.2780940">
        <ele>1383.4</ele>
        <time>2020-07-12T09:52:33Z</time>
      </trkpt>
      <trkpt lat="36.9766860" lon="-3.2781440">
        <ele>1383.2</ele>
        <time>2020-07-12T09:52:34Z</time>
      </trkpt>
      <trkpt lat="36.9767480" lon="-3.2782010">
        <ele>1383.0</ele>
        <time>2020-07-12T09:52:35Z</time>
      </trkpt>
      <trkpt lat="36.9768870" lon="-3.2783210">
        <ele>1382.6</ele>
        <time>2020-07-12T09:52:37Z</time>
      </trkpt>
      <trkpt lat="36.9769590" lon="-3.2783760">
        <ele>1382.4</ele>
        <time>2020-07-12T09:52:38Z</time>
      </trkpt>
      <trkpt lat="36.9770360" lon="-3.2784180">
        <ele>1382.2</ele>
        <time>2020-07-12T09:52:39Z</time>
      </trkpt>
      <trkpt lat="36.9771160" lon="-3.2784530">
        <ele>1382.0</ele>
        <time>2020-07-12T09:52:40Z</time>
      </trkpt>
      <trkpt lat="36.9772060" lon="-3.2784460">
        <ele>1381.4</ele>
        <time>2020-07-12T09:52:41Z</time>
      </trkpt>
      <trkpt lat="36.9772900" lon="-3.2784310">
        <ele>1381.2</ele>
        <time>2020-07-12T09:52:42Z</time>
      </trkpt>
      <trkpt lat="36.9774480" lon="-3.2783700">
        <ele>1380.2</ele>
        <time>2020-07-12T09:52:44Z</time>
      </trkpt>
      <trkpt lat="36.9775170" lon="-3.2783370">
        <ele>1380.0</ele>
        <time>2020-07-12T09:52:45Z</time>
      </trkpt>
      <trkpt lat="36.9775870" lon="-3.2783030">
        <ele>1380.0</ele>
        <time>2020-07-12T09:52:46Z</time>
      </trkpt>
      <trkpt lat="36.9779500" lon="-3.2780980">
        <ele>1380.6</ele>
        <time>2020-07-12T09:52:52Z</time>
      </trkpt>
      <trkpt lat="36.9780900" lon="-3.2779640">
        <ele>1381.2</ele>
        <time>2020-07-12T09:52:55Z</time>
      </trkpt>
      <trkpt lat="36.9781660" lon="-3.2778640">
        <ele>1381.6</ele>
        <time>2020-07-12T09:52:57Z</time>
      </trkpt>
      <trkpt lat="36.9782630" lon="-3.2777250">
        <ele>1382.4</ele>
        <time>2020-07-12T09:53:00Z</time>
      </trkpt>
      <trkpt lat="36.9783800" lon="-3.2775520">
        <ele>1383.2</ele>
        <time>2020-07-12T09:53:04Z</time>
      </trkpt>
      <trkpt lat="36.9784410" lon="-3.2774720">
        <ele>1383.6</ele>
        <time>2020-07-12T09:53:06Z</time>
      </trkpt>
      <trkpt lat="36.9785760" lon="-3.2773460">
        <ele>1384.4</ele>
        <time>2020-07-12T09:53:10Z</time>
      </trkpt>
      <trkpt lat="36.9786200" lon="-3.2773300">
        <ele>1384.6</ele>
        <time>2020-07-12T09:53:11Z</time>
      </trkpt>
      <trkpt lat="36.9787460" lon="-3.2772920">
        <ele>1385.2</ele>
        <time>2020-07-12T09:53:14Z</time>
      </trkpt>
      <trkpt lat="36.9788760" lon="-3.2772940">
        <ele>1385.8</ele>
        <time>2020-07-12T09:53:17Z</time>
      </trkpt>
      <trkpt lat="36.9789180" lon="-3.2772990">
        <ele>1385.8</ele>
        <time>2020-07-12T09:53:18Z</time>
      </trkpt>
      <trkpt lat="36.9790460" lon="-3.2773200">
        <ele>1386.2</ele>
        <time>2020-07-12T09:53:21Z</time>
      </trkpt>
      <trkpt lat="36.9790850" lon="-3.2773320">
        <ele>1386.2</ele>
        <time>2020-07-12T09:53:22Z</time>
      </trkpt>
      <trkpt lat="36.9792480" lon="-3.2774040">
        <ele>1386.8</ele>
        <time>2020-07-12T09:53:26Z</time>
      </trkpt>
      <trkpt lat="36.9792860" lon="-3.2774280">
        <ele>1386.8</ele>
        <time>2020-07-12T09:53:27Z</time>
      </trkpt>
      <trkpt lat="36.9793210" lon="-3.2774550">
        <ele>1386.8</ele>
        <time>2020-07-12T09:53:28Z</time>
      </trkpt>
      <trkpt lat="36.9796240" lon="-3.2776960">
        <ele>1387.6</ele>
        <time>2020-07-12T09:53:36Z</time>
      </trkpt>
      <trkpt lat="36.9796960" lon="-3.2777530">
        <ele>1387.8</ele>
        <time>2020-07-12T09:53:38Z</time>
      </trkpt>
      <trkpt lat="36.9800080" lon="-3.2780280">
        <ele>1388.8</ele>
        <time>2020-07-12T09:53:47Z</time>
      </trkpt>
      <trkpt lat="36.9800410" lon="-3.2780610">
        <ele>1389.0</ele>
        <time>2020-07-12T09:53:48Z</time>
      </trkpt>
      <trkpt lat="36.9801350" lon="-3.2781710">
        <ele>1389.4</ele>
        <time>2020-07-12T09:53:51Z</time>
      </trkpt>
      <trkpt lat="36.9802090" lon="-3.2783090">
        <ele>1389.6</ele>
        <time>2020-07-12T09:53:54Z</time>
      </trkpt>
      <trkpt lat="36.9802840" lon="-3.2785260">
        <ele>1389.6</ele>
        <time>2020-07-12T09:53:58Z</time>
      </trkpt>
      <trkpt lat="36.9803000" lon="-3.2785920">
        <ele>1389.6</ele>
        <time>2020-07-12T09:53:59Z</time>
      </trkpt>
      <trkpt lat="36.9804250" lon="-3.2790420">
        <ele>1389.2</ele>
        <time>2020-07-12T09:54:06Z</time>
      </trkpt>
      <trkpt lat="36.9804770" lon="-3.2791660">
        <ele>1389.2</ele>
        <time>2020-07-12T09:54:08Z</time>
      </trkpt>
      <trkpt lat="36.9805090" lon="-3.2792220">
        <ele>1389.2</ele>
        <time>2020-07-12T09:54:09Z</time>
      </trkpt>
      <trkpt lat="36.9806880" lon="-3.2795090">
        <ele>1389.2</ele>
        <time>2020-07-12T09:54:14Z</time>
      </trkpt>
      <trkpt lat="36.9808660" lon="-3.2797130">
        <ele>1389.0</ele>
        <time>2020-07-12T09:54:18Z</time>
      </trkpt>
      <trkpt lat="36.9809190" lon="-3.2797400">
        <ele>1389.0</ele>
        <time>2020-07-12T09:54:19Z</time>
      </trkpt>
      <trkpt lat="36.9811590" lon="-3.2797650">
        <ele>1389.0</ele>
        <time>2020-07-12T09:54:23Z</time>
      </trkpt>
      <trkpt lat="36.9812730" lon="-3.2797410">
        <ele>1389.2</ele>
        <time>2020-07-12T09:54:25Z</time>
      </trkpt>
      <trkpt lat="36.9814540" lon="-3.2796860">
        <ele>1389.2</ele>
        <time>2020-07-12T09:54:28Z</time>
      </trkpt>
      <trkpt lat="36.9818700" lon="-3.2796210">
        <ele>1389.2</ele>
        <time>2020-07-12T09:54:35Z</time>
      </trkpt>
      <trkpt lat="36.9821150" lon="-3.2797110">
        <ele>1389.4</ele>
        <time>2020-07-12T09:54:39Z</time>
      </trkpt>
      <trkpt lat="36.9824530" lon="-3.2798950">
        <ele>1388.4</ele>
        <time>2020-07-12T09:54:44Z</time>
      </trkpt>
      <trkpt lat="36.9825230" lon="-3.2799420">
        <ele>1388.0</ele>
        <time>2020-07-12T09:54:45Z</time>
      </trkpt>
      <trkpt lat="36.9825970" lon="-3.2799940">
        <ele>1387.6</ele>
        <time>2020-07-12T09:54:46Z</time>
      </trkpt>
      <trkpt lat="36.9828400" lon="-3.2801670">
        <ele>1386.2</ele>
        <time>2020-07-12T09:54:49Z</time>
      </trkpt>
      <trkpt lat="36.9829220" lon="-3.2802040">
        <ele>1385.8</ele>
        <time>2020-07-12T09:54:50Z</time>
      </trkpt>
      <trkpt lat="36.9831280" lon="-3.2802460">
        <ele>1385.0</ele>
        <time>2020-07-12T09:54:52Z</time>
      </trkpt>
      <trkpt lat="36.9832410" lon="-3.2802610">
        <ele>1384.6</ele>
        <time>2020-07-12T09:54:53Z</time>
      </trkpt>
      <trkpt lat="36.9834460" lon="-3.2802600">
        <ele>1383.4</ele>
        <time>2020-07-12T09:54:55Z</time>
      </trkpt>
      <trkpt lat="36.9835480" lon="-3.2802170">
        <ele>1383.0</ele>
        <time>2020-07-12T09:54:56Z</time>
      </trkpt>
      <trkpt lat="36.9836220" lon="-3.2801430">
        <ele>1382.2</ele>
        <time>2020-07-12T09:54:57Z</time>
      </trkpt>
      <trkpt lat="36.9836620" lon="-3.2800570">
        <ele>1381.4</ele>
        <time>2020-07-12T09:54:58Z</time>
      </trkpt>
      <trkpt lat="36.9836890" lon="-3.2799410">
        <ele>1380.8</ele>
        <time>2020-07-12T09:54:59Z</time>
      </trkpt>
      <trkpt lat="36.9836870" lon="-3.2797290">
        <ele>1379.8</ele>
        <time>2020-07-12T09:55:01Z</time>
      </trkpt>
      <trkpt lat="36.9836520" lon="-3.2796480">
        <ele>1379.4</ele>
        <time>2020-07-12T09:55:02Z</time>
      </trkpt>
      <trkpt lat="36.9836000" lon="-3.2795880">
        <ele>1379.0</ele>
        <time>2020-07-12T09:55:03Z</time>
      </trkpt>
      <trkpt lat="36.9834370" lon="-3.2794820">
        <ele>1379.2</ele>
        <time>2020-07-12T09:55:06Z</time>
      </trkpt>
      <trkpt lat="36.9833900" lon="-3.2794480">
        <ele>1379.6</ele>
        <time>2020-07-12T09:55:07Z</time>
      </trkpt>
      <trkpt lat="36.9833480" lon="-3.2794090">
        <ele>1379.8</ele>
        <time>2020-07-12T09:55:08Z</time>
      </trkpt>
      <trkpt lat="36.9832810" lon="-3.2793180">
        <ele>1380.4</ele>
        <time>2020-07-12T09:55:10Z</time>
      </trkpt>
      <trkpt lat="36.9832630" lon="-3.2792680">
        <ele>1380.6</ele>
        <time>2020-07-12T09:55:11Z</time>
      </trkpt>
      <trkpt lat="36.9831990" lon="-3.2790820">
        <ele>1381.0</ele>
        <time>2020-07-12T09:55:15Z</time>
      </trkpt>
      <trkpt lat="36.9831750" lon="-3.2789900">
        <ele>1381.6</ele>
        <time>2020-07-12T09:55:17Z</time>
      </trkpt>
      <trkpt lat="36.9831670" lon="-3.2789450">
        <ele>1381.8</ele>
        <time>2020-07-12T09:55:18Z</time>
      </trkpt>
      <trkpt lat="36.9831480" lon="-3.2788210">
        <ele>1382.4</ele>
        <time>2020-07-12T09:55:21Z</time>
      </trkpt>
      <trkpt lat="36.9831370" lon="-3.2787440">
        <ele>1382.8</ele>
        <time>2020-07-12T09:55:23Z</time>
      </trkpt>
      <trkpt lat="36.9831270" lon="-3.2786650">
        <ele>1383.2</ele>
        <time>2020-07-12T09:55:25Z</time>
      </trkpt>
      <trkpt lat="36.9831110" lon="-3.2785500">
        <ele>1383.8</ele>
        <time>2020-07-12T09:55:28Z</time>
      </trkpt>
      <trkpt lat="36.9831070" lon="-3.2784340">
        <ele>1384.4</ele>
        <time>2020-07-12T09:55:31Z</time>
      </trkpt>
      <trkpt lat="36.9831140" lon="-3.2783560">
        <ele>1384.8</ele>
        <time>2020-07-12T09:55:33Z</time>
      </trkpt>
      <trkpt lat="36.9831190" lon="-3.2783200">
        <ele>1384.8</ele>
        <time>2020-07-12T09:55:34Z</time>
      </trkpt>
      <trkpt lat="36.9831830" lon="-3.2781730">
        <ele>1385.4</ele>
        <time>2020-07-12T09:55:38Z</time>
      </trkpt>
      <trkpt lat="36.9832090" lon="-3.2781360">
        <ele>1385.6</ele>
        <time>2020-07-12T09:55:39Z</time>
      </trkpt>
      <trkpt lat="36.9832650" lon="-3.2780670">
        <ele>1386.0</ele>
        <time>2020-07-12T09:55:41Z</time>
      </trkpt>
      <trkpt lat="36.9834110" lon="-3.2779360">
        <ele>1386.4</ele>
        <time>2020-07-12T09:55:46Z</time>
      </trkpt>
      <trkpt lat="36.9835240" lon="-3.2778410">
        <ele>1387.2</ele>
        <time>2020-07-12T09:55:50Z</time>
      </trkpt>
      <trkpt lat="36.9836670" lon="-3.2777310">
        <ele>1388.0</ele>
        <time>2020-07-12T09:55:55Z</time>
      </trkpt>
      <trkpt lat="36.9837280" lon="-3.2776880">
        <ele>1388.2</ele>
        <time>2020-07-12T09:55:57Z</time>
      </trkpt>
      <trkpt lat="36.9838730" lon="-3.2775330">
        <ele>1389.4</ele>
        <time>2020-07-12T09:56:03Z</time>
      </trkpt>
      <trkpt lat="36.9839490" lon="-3.2773220">
        <ele>1390.6</ele>
        <time>2020-07-12T09:56:09Z</time>
      </trkpt>
      <trkpt lat="36.9839160" lon="-3.2771300">
        <ele>1391.6</ele>
        <time>2020-07-12T09:56:14Z</time>
      </trkpt>
      <trkpt lat="36.9839050" lon="-3.2770960">
        <ele>1391.6</ele>
        <time>2020-07-12T09:56:15Z</time>
      </trkpt>
      <trkpt lat="36.9838290" lon="-3.2769210">
        <ele>1392.8</ele>
        <time>2020-07-12T09:56:20Z</time>
      </trkpt>
      <trkpt lat="36.9838010" lon="-3.2768550">
        <ele>1393.0</ele>
        <time>2020-07-12T09:56:22Z</time>
      </trkpt>
      <trkpt lat="36.9837550" lon="-3.2767200">
        <ele>1393.8</ele>
        <time>2020-07-12T09:56:26Z</time>
      </trkpt>
      <trkpt lat="36.9837240" lon="-3.2766120">
        <ele>1394.4</ele>
        <time>2020-07-12T09:56:29Z</time>
      </trkpt>
      <trkpt lat="36.9837020" lon="-3.2765390">
        <ele>1394.8</ele>
        <time>2020-07-12T09:56:31Z</time>
      </trkpt>
      <trkpt lat="36.9836510" lon="-3.2763290">
        <ele>1395.8</ele>
        <time>2020-07-12T09:56:37Z</time>
      </trkpt>
      <trkpt lat="36.9836180" lon="-3.2761910">
        <ele>1396.6</ele>
        <time>2020-07-12T09:56:41Z</time>
      </trkpt>
      <trkpt lat="36.9836100" lon="-3.2761560">
        <ele>1396.8</ele>
        <time>2020-07-12T09:56:42Z</time>
      </trkpt>
      <trkpt lat="36.9835730" lon="-3.2759550">
        <ele>1397.8</ele>
        <time>2020-07-12T09:56:48Z</time>
      </trkpt>
      <trkpt lat="36.9835690" lon="-3.2759230">
        <ele>1398.0</ele>
        <time>2020-07-12T09:56:49Z</time>
      </trkpt>
      <trkpt lat="36.9835480" lon="-3.2757540">
        <ele>1399.2</ele>
        <time>2020-07-12T09:56:54Z</time>
      </trkpt>
      <trkpt lat="36.9835350" lon="-3.2755820">
        <ele>1400.2</ele>
        <time>2020-07-12T09:56:59Z</time>
      </trkpt>
      <trkpt lat="36.9835340" lon="-3.2755490">
        <ele>1400.2</ele>
        <time>2020-07-12T09:57:00Z</time>
      </trkpt>
      <trkpt lat="36.9835180" lon="-3.2753860">
        <ele>1401.4</ele>
        <time>2020-07-12T09:57:05Z</time>
      </trkpt>
      <trkpt lat="36.9835160" lon="-3.2753510">
        <ele>1401.6</ele>
        <time>2020-07-12T09:57:06Z</time>
      </trkpt>
      <trkpt lat="36.9835070" lon="-3.2752270">
        <ele>1402.4</ele>
        <time>2020-07-12T09:57:10Z</time>
      </trkpt>
      <trkpt lat="36.9834960" lon="-3.2750960">
        <ele>1403.4</ele>
        <time>2020-07-12T09:57:14Z</time>
      </trkpt>
      <trkpt lat="36.9834940" lon="-3.2750670">
        <ele>1403.6</ele>
        <time>2020-07-12T09:57:15Z</time>
      </trkpt>
      <trkpt lat="36.9834940" lon="-3.2749100">
        <ele>1404.8</ele>
        <time>2020-07-12T09:57:20Z</time>
      </trkpt>
      <trkpt lat="36.9834940" lon="-3.2748760">
        <ele>1405.0</ele>
        <time>2020-07-12T09:57:21Z</time>
      </trkpt>
      <trkpt lat="36.9834990" lon="-3.2747150">
        <ele>1405.8</ele>
        <time>2020-07-12T09:57:26Z</time>
      </trkpt>
      <trkpt lat="36.9834990" lon="-3.2746810">
        <ele>1406.0</ele>
        <time>2020-07-12T09:57:27Z</time>
      </trkpt>
      <trkpt lat="36.9835050" lon="-3.2745140">
        <ele>1407.0</ele>
        <time>2020-07-12T09:57:32Z</time>
      </trkpt>
      <trkpt lat="36.9835020" lon="-3.2744420">
        <ele>1407.4</ele>
        <time>2020-07-12T09:57:34Z</time>
      </trkpt>
      <trkpt lat="36.9834780" lon="-3.2742560">
        <ele>1408.0</ele>
        <time>2020-07-12T09:57:39Z</time>
      </trkpt>
      <trkpt lat="36.9834510" lon="-3.2741540">
        <ele>1408.8</ele>
        <time>2020-07-12T09:57:42Z</time>
      </trkpt>
      <trkpt lat="36.9834340" lon="-3.2740880">
        <ele>1409.2</ele>
        <time>2020-07-12T09:57:44Z</time>
      </trkpt>
      <trkpt lat="36.9834070" lon="-3.2738820">
        <ele>1410.4</ele>
        <time>2020-07-12T09:57:50Z</time>
      </trkpt>
      <trkpt lat="36.9834100" lon="-3.2738440">
        <ele>1410.6</ele>
        <time>2020-07-12T09:57:51Z</time>
      </trkpt>
      <trkpt lat="36.9834600" lon="-3.2736750">
        <ele>1411.6</ele>
        <time>2020-07-12T09:57:56Z</time>
      </trkpt>
      <trkpt lat="36.9834780" lon="-3.2736460">
        <ele>1411.8</ele>
        <time>2020-07-12T09:57:57Z</time>
      </trkpt>
      <trkpt lat="36.9835770" lon="-3.2734960">
        <ele>1412.8</ele>
        <time>2020-07-12T09:58:02Z</time>
      </trkpt>
      <trkpt lat="36.9836260" lon="-3.2734460">
        <ele>1413.0</ele>
        <time>2020-07-12T09:58:04Z</time>
      </trkpt>
      <trkpt lat="36.9837270" lon="-3.2733600">
        <ele>1413.6</ele>
        <time>2020-07-12T09:58:07Z</time>
      </trkpt>
      <trkpt lat="36.9838030" lon="-3.2733200">
        <ele>1413.8</ele>
        <time>2020-07-12T09:58:09Z</time>
      </trkpt>
      <trkpt lat="36.9838410" lon="-3.2733030">
        <ele>1414.0</ele>
        <time>2020-07-12T09:58:10Z</time>
      </trkpt>
      <trkpt lat="36.9839860" lon="-3.2732670">
        <ele>1414.8</ele>
        <time>2020-07-12T09:58:14Z</time>
      </trkpt>
      <trkpt lat="36.9840520" lon="-3.2732460">
        <ele>1415.2</ele>
        <time>2020-07-12T09:58:16Z</time>
      </trkpt>
      <trkpt lat="36.9841860" lon="-3.2732070">
        <ele>1415.8</ele>
        <time>2020-07-12T09:58:20Z</time>
      </trkpt>
      <trkpt lat="36.9843480" lon="-3.2731740">
        <ele>1416.8</ele>
        <time>2020-07-12T09:58:25Z</time>
      </trkpt>
      <trkpt lat="36.9843800" lon="-3.2731650">
        <ele>1417.0</ele>
        <time>2020-07-12T09:58:26Z</time>
      </trkpt>
      <trkpt lat="36.9845640" lon="-3.2731300">
        <ele>1417.8</ele>
        <time>2020-07-12T09:58:32Z</time>
      </trkpt>
      <trkpt lat="36.9846330" lon="-3.2731070">
        <ele>1418.2</ele>
        <time>2020-07-12T09:58:34Z</time>
      </trkpt>
      <trkpt lat="36.9848350" lon="-3.2730560">
        <ele>1419.0</ele>
        <time>2020-07-12T09:58:40Z</time>
      </trkpt>
      <trkpt lat="36.9848690" lon="-3.2730470">
        <ele>1419.2</ele>
        <time>2020-07-12T09:58:41Z</time>
      </trkpt>
      <trkpt lat="36.9850400" lon="-3.2730080">
        <ele>1420.2</ele>
        <time>2020-07-12T09:58:46Z</time>
      </trkpt>
      <trkpt lat="36.9851830" lon="-3.2729900">
        <ele>1420.8</ele>
        <time>2020-07-12T09:58:50Z</time>
      </trkpt>
      <trkpt lat="36.9853300" lon="-3.2729710">
        <ele>1421.4</ele>
        <time>2020-07-12T09:58:54Z</time>
      </trkpt>
      <trkpt lat="36.9854410" lon="-3.2729350">
        <ele>1421.8</ele>
        <time>2020-07-12T09:58:57Z</time>
      </trkpt>
      <trkpt lat="36.9855110" lon="-3.2728950">
        <ele>1421.8</ele>
        <time>2020-07-12T09:58:59Z</time>
      </trkpt>
      <trkpt lat="36.9855820" lon="-3.2728400">
        <ele>1422.2</ele>
        <time>2020-07-12T09:59:01Z</time>
      </trkpt>
      <trkpt lat="36.9856440" lon="-3.2727840">
        <ele>1422.4</ele>
        <time>2020-07-12T09:59:03Z</time>
      </trkpt>
      <trkpt lat="36.9857320" lon="-3.2727030">
        <ele>1423.0</ele>
        <time>2020-07-12T09:59:06Z</time>
      </trkpt>
      <trkpt lat="36.9858800" lon="-3.2725650">
        <ele>1423.6</ele>
        <time>2020-07-12T09:59:11Z</time>
      </trkpt>
      <trkpt lat="36.9860390" lon="-3.2724580">
        <ele>1424.2</ele>
        <time>2020-07-12T09:59:16Z</time>
      </trkpt>
      <trkpt lat="36.9861120" lon="-3.2724290">
        <ele>1424.6</ele>
        <time>2020-07-12T09:59:18Z</time>
      </trkpt>
      <trkpt lat="36.9863640" lon="-3.2723460">
        <ele>1425.4</ele>
        <time>2020-07-12T09:59:25Z</time>
      </trkpt>
      <trkpt lat="36.9863990" lon="-3.2723280">
        <ele>1425.6</ele>
        <time>2020-07-12T09:59:26Z</time>
      </trkpt>
      <trkpt lat="36.9865970" lon="-3.2722050">
        <ele>1426.6</ele>
        <time>2020-07-12T09:59:32Z</time>
      </trkpt>
      <trkpt lat="36.9866560" lon="-3.2721530">
        <ele>1426.8</ele>
        <time>2020-07-12T09:59:34Z</time>
      </trkpt>
      <trkpt lat="36.9869030" lon="-3.2719110">
        <ele>1427.8</ele>
        <time>2020-07-12T09:59:42Z</time>
      </trkpt>
      <trkpt lat="36.9869690" lon="-3.2718430">
        <ele>1428.0</ele>
        <time>2020-07-12T09:59:44Z</time>
      </trkpt>
      <trkpt lat="36.9871720" lon="-3.2716380">
        <ele>1428.4</ele>
        <time>2020-07-12T09:59:50Z</time>
      </trkpt>
      <trkpt lat="36.9873410" lon="-3.2715760">
        <ele>1429.0</ele>
        <time>2020-07-12T09:59:54Z</time>
      </trkpt>
      <trkpt lat="36.9873830" lon="-3.2715770">
        <ele>1429.0</ele>
        <time>2020-07-12T09:59:55Z</time>
      </trkpt>
      <trkpt lat="36.9874300" lon="-3.2715800">
        <ele>1429.0</ele>
        <time>2020-07-12T09:59:56Z</time>
      </trkpt>
      <trkpt lat="36.9877050" lon="-3.2716220">
        <ele>1429.4</ele>
        <time>2020-07-12T10:00:02Z</time>
      </trkpt>
      <trkpt lat="36.9878370" lon="-3.2716400">
        <ele>1429.6</ele>
        <time>2020-07-12T10:00:05Z</time>
      </trkpt>
      <trkpt lat="36.9880620" lon="-3.2716800">
        <ele>1430.0</ele>
        <time>2020-07-12T10:00:10Z</time>
      </trkpt>
      <trkpt lat="36.9882390" lon="-3.2717090">
        <ele>1430.6</ele>
        <time>2020-07-12T10:00:14Z</time>
      </trkpt>
      <trkpt lat="36.9883310" lon="-3.2717220">
        <ele>1430.8</ele>
        <time>2020-07-12T10:00:16Z</time>
      </trkpt>
      <trkpt lat="36.9884280" lon="-3.2717270">
        <ele>1431.0</ele>
        <time>2020-07-12T10:00:18Z</time>
      </trkpt>
      <trkpt lat="36.9885650" lon="-3.2717100">
        <ele>1431.4</ele>
        <time>2020-07-12T10:00:21Z</time>
      </trkpt>
      <trkpt lat="36.9886050" lon="-3.2717000">
        <ele>1431.6</ele>
        <time>2020-07-12T10:00:22Z</time>
      </trkpt>
      <trkpt lat="36.9886470" lon="-3.2716860">
        <ele>1431.6</ele>
        <time>2020-07-12T10:00:23Z</time>
      </trkpt>
      <trkpt lat="36.9888060" lon="-3.2716130">
        <ele>1432.0</ele>
        <time>2020-07-12T10:00:27Z</time>
      </trkpt>
      <trkpt lat="36.9888390" lon="-3.2715940">
        <ele>1432.2</ele>
        <time>2020-07-12T10:00:28Z</time>
      </trkpt>
      <trkpt lat="36.9889980" lon="-3.2714450">
        <ele>1433.2</ele>
        <time>2020-07-12T10:00:33Z</time>
      </trkpt>
      <trkpt lat="36.9890910" lon="-3.2712550">
        <ele>1433.6</ele>
        <time>2020-07-12T10:00:38Z</time>
      </trkpt>
      <trkpt lat="36.9891240" lon="-3.2711860">
        <ele>1434.2</ele>
        <time>2020-07-12T10:00:40Z</time>
      </trkpt>
      <trkpt lat="36.9891680" lon="-3.2710790">
        <ele>1435.6</ele>
        <time>2020-07-12T10:00:43Z</time>
      </trkpt>
      <trkpt lat="36.9892600" lon="-3.2709090">
        <ele>1436.6</ele>
        <time>2020-07-12T10:00:48Z</time>
      </trkpt>
      <trkpt lat="36.9893870" lon="-3.2707720">
        <ele>1437.8</ele>
        <time>2020-07-12T10:00:53Z</time>
      </trkpt>
      <trkpt lat="36.9894190" lon="-3.2707580">
        <ele>1438.0</ele>
        <time>2020-07-12T10:00:54Z</time>
      </trkpt>
      <trkpt lat="36.9895860" lon="-3.2707060">
        <ele>1438.8</ele>
        <time>2020-07-12T10:00:59Z</time>
      </trkpt>
      <trkpt lat="36.9896160" lon="-3.2707000">
        <ele>1439.0</ele>
        <time>2020-07-12T10:01:00Z</time>
      </trkpt>
      <trkpt lat="36.9898050" lon="-3.2706720">
        <ele>1440.0</ele>
        <time>2020-07-12T10:01:06Z</time>
      </trkpt>
      <trkpt lat="36.9899000" lon="-3.2706500">
        <ele>1440.6</ele>
        <time>2020-07-12T10:01:09Z</time>
      </trkpt>
      <trkpt lat="36.9900250" lon="-3.2706260">
        <ele>1441.2</ele>
        <time>2020-07-12T10:01:13Z</time>
      </trkpt>
      <trkpt lat="36.9901780" lon="-3.2706030">
        <ele>1442.2</ele>
        <time>2020-07-12T10:01:18Z</time>
      </trkpt>
      <trkpt lat="36.9903040" lon="-3.2705960">
        <ele>1443.2</ele>
        <time>2020-07-12T10:01:22Z</time>
      </trkpt>
      <trkpt lat="36.9904670" lon="-3.2706140">
        <ele>1444.2</ele>
        <time>2020-07-12T10:01:27Z</time>
      </trkpt>
      <trkpt lat="36.9906300" lon="-3.2706460">
        <ele>1445.2</ele>
        <time>2020-07-12T10:01:32Z</time>
      </trkpt>
      <trkpt lat="36.9907950" lon="-3.2706990">
        <ele>1445.8</ele>
        <time>2020-07-12T10:01:37Z</time>
      </trkpt>
      <trkpt lat="36.9909490" lon="-3.2707580">
        <ele>1446.4</ele>
        <time>2020-07-12T10:01:42Z</time>
      </trkpt>
      <trkpt lat="36.9910450" lon="-3.2707910">
        <ele>1446.6</ele>
        <time>2020-07-12T10:01:44Z</time>
      </trkpt>
      <trkpt lat="36.9911690" lon="-3.2708160">
        <ele>1446.8</ele>
        <time>2020-07-12T10:01:47Z</time>
      </trkpt>
      <trkpt lat="36.9912710" lon="-3.2707990">
        <ele>1447.0</ele>
        <time>2020-07-12T10:01:49Z</time>
      </trkpt>
      <trkpt lat="36.9913750" lon="-3.2707530">
        <ele>1446.8</ele>
        <time>2020-07-12T10:01:51Z</time>
      </trkpt>
      <trkpt lat="36.9915640" lon="-3.2706550">
        <ele>1446.4</ele>
        <time>2020-07-12T10:01:54Z</time>
      </trkpt>
      <trkpt lat="36.9917900" lon="-3.2705330">
        <ele>1445.8</ele>
        <time>2020-07-12T10:01:57Z</time>
      </trkpt>
      <trkpt lat="36.9918660" lon="-3.2704850">
        <ele>1445.4</ele>
        <time>2020-07-12T10:01:58Z</time>
      </trkpt>
      <trkpt lat="36.9919520" lon="-3.2704210">
        <ele>1445.0</ele>
        <time>2020-07-12T10:01:59Z</time>
      </trkpt>
      <trkpt lat="36.9921120" lon="-3.2702770">
        <ele>1443.8</ele>
        <time>2020-07-12T10:02:01Z</time>
      </trkpt>
      <trkpt lat="36.9922710" lon="-3.2701060">
        <ele>1442.4</ele>
        <time>2020-07-12T10:02:03Z</time>
      </trkpt>
      <trkpt lat="36.9923480" lon="-3.2700230">
        <ele>1442.0</ele>
        <time>2020-07-12T10:02:04Z</time>
      </trkpt>
      <trkpt lat="36.9925210" lon="-3.2698390">
        <ele>1441.2</ele>
        <time>2020-07-12T10:02:06Z</time>
      </trkpt>
      <trkpt lat="36.9926130" lon="-3.2697570">
        <ele>1440.6</ele>
        <time>2020-07-12T10:02:07Z</time>
      </trkpt>
      <trkpt lat="36.9928090" lon="-3.2696230">
        <ele>1439.4</ele>
        <time>2020-07-12T10:02:09Z</time>
      </trkpt>
      <trkpt lat="36.9928990" lon="-3.2695780">
        <ele>1438.8</ele>
        <time>2020-07-12T10:02:10Z</time>
      </trkpt>
      <trkpt lat="36.9930140" lon="-3.2695410">
        <ele>1437.8</ele>
        <time>2020-07-12T10:02:11Z</time>
      </trkpt>
      <trkpt lat="36.9931260" lon="-3.2695240">
        <ele>1437.2</ele>
        <time>2020-07-12T10:02:12Z</time>
      </trkpt>
      <trkpt lat="36.9932420" lon="-3.2695210">
        <ele>1436.4</ele>
        <time>2020-07-12T10:02:13Z</time>
      </trkpt>
      <trkpt lat="36.9934650" lon="-3.2695700">
        <ele>1434.8</ele>
        <time>2020-07-12T10:02:15Z</time>
      </trkpt>
      <trkpt lat="36.9936900" lon="-3.2696750">
        <ele>1433.2</ele>
        <time>2020-07-12T10:02:17Z</time>
      </trkpt>
      <trkpt lat="36.9937860" lon="-3.2697470">
        <ele>1432.4</ele>
        <time>2020-07-12T10:02:18Z</time>
      </trkpt>
      <trkpt lat="36.9938620" lon="-3.2698330">
        <ele>1431.8</ele>
        <time>2020-07-12T10:02:19Z</time>
      </trkpt>
      <trkpt lat="36.9940100" lon="-3.2700680">
        <ele>1430.0</ele>
        <time>2020-07-12T10:02:21Z</time>
      </trkpt>
      <trkpt lat="36.9940680" lon="-3.2701710">
        <ele>1429.8</ele>
        <time>2020-07-12T10:02:22Z</time>
      </trkpt>
      <trkpt lat="36.9941600" lon="-3.2702180">
        <ele>1429.0</ele>
        <time>2020-07-12T10:02:23Z</time>
      </trkpt>
      <trkpt lat="36.9942620" lon="-3.2702460">
        <ele>1429.0</ele>
        <time>2020-07-12T10:02:24Z</time>
      </trkpt>
      <trkpt lat="36.9944460" lon="-3.2701730">
        <ele>1428.2</ele>
        <time>2020-07-12T10:02:26Z</time>
      </trkpt>
      <trkpt lat="36.9945410" lon="-3.2701200">
        <ele>1427.8</ele>
        <time>2020-07-12T10:02:27Z</time>
      </trkpt>
      <trkpt lat="36.9947380" lon="-3.2700140">
        <ele>1426.8</ele>
        <time>2020-07-12T10:02:29Z</time>
      </trkpt>
      <trkpt lat="36.9948420" lon="-3.2699720">
        <ele>1426.2</ele>
        <time>2020-07-12T10:02:30Z</time>
      </trkpt>
      <trkpt lat="36.9949600" lon="-3.2699480">
        <ele>1425.4</ele>
        <time>2020-07-12T10:02:31Z</time>
      </trkpt>
      <trkpt lat="36.9950880" lon="-3.2699490">
        <ele>1424.4</ele>
        <time>2020-07-12T10:02:32Z</time>
      </trkpt>
      <trkpt lat="36.9953080" lon="-3.2699500">
        <ele>1423.2</ele>
        <time>2020-07-12T10:02:34Z</time>
      </trkpt>
      <trkpt lat="36.9955260" lon="-3.2698640">
        <ele>1421.6</ele>
        <time>2020-07-12T10:02:36Z</time>
      </trkpt>
      <trkpt lat="36.9956310" lon="-3.2697900">
        <ele>1420.4</ele>
        <time>2020-07-12T10:02:37Z</time>
      </trkpt>
      <trkpt lat="36.9957310" lon="-3.2697020">
        <ele>1419.2</ele>
        <time>2020-07-12T10:02:38Z</time>
      </trkpt>
      <trkpt lat="36.9958320" lon="-3.2696080">
        <ele>1418.6</ele>
        <time>2020-07-12T10:02:39Z</time>
      </trkpt>
      <trkpt lat="36.9959220" lon="-3.2695220">
        <ele>1417.4</ele>
        <time>2020-07-12T10:02:40Z</time>
      </trkpt>
      <trkpt lat="36.9960400" lon="-3.2694070">
        <ele>1416.0</ele>
        <time>2020-07-12T10:02:41Z</time>
      </trkpt>
      <trkpt lat="36.9961480" lon="-3.2692960">
        <ele>1414.4</ele>
        <time>2020-07-12T10:02:42Z</time>
      </trkpt>
      <trkpt lat="36.9962460" lon="-3.2691670">
        <ele>1413.0</ele>
        <time>2020-07-12T10:02:43Z</time>
      </trkpt>
      <trkpt lat="36.9963320" lon="-3.2690270">
        <ele>1410.8</ele>
        <time>2020-07-12T10:02:44Z</time>
      </trkpt>
      <trkpt lat="36.9964060" lon="-3.2689010">
        <ele>1409.4</ele>
        <time>2020-07-12T10:02:45Z</time>
      </trkpt>
      <trkpt lat="36.9965870" lon="-3.2686500">
        <ele>1408.4</ele>
        <time>2020-07-12T10:02:47Z</time>
      </trkpt>
      <trkpt lat="36.9966910" lon="-3.2685460">
        <ele>1408.2</ele>
        <time>2020-07-12T10:02:48Z</time>
      </trkpt>
      <trkpt lat="36.9968980" lon="-3.2683410">
        <ele>1406.8</ele>
        <time>2020-07-12T10:02:50Z</time>
      </trkpt>
      <trkpt lat="36.9971020" lon="-3.2681240">
        <ele>1405.2</ele>
        <time>2020-07-12T10:02:52Z</time>
      </trkpt>
      <trkpt lat="36.9972860" lon="-3.2678930">
        <ele>1403.4</ele>
        <time>2020-07-12T10:02:54Z</time>
      </trkpt>
      <trkpt lat="36.9973690" lon="-3.2677950">
        <ele>1402.4</ele>
        <time>2020-07-12T10:02:55Z</time>
      </trkpt>
      <trkpt lat="36.9974790" lon="-3.2677010">
        <ele>1401.8</ele>
        <time>2020-07-12T10:02:56Z</time>
      </trkpt>
      <trkpt lat="36.9975810" lon="-3.2676540">
        <ele>1401.2</ele>
        <time>2020-07-12T10:02:57Z</time>
      </trkpt>
      <trkpt lat="36.9977950" lon="-3.2675810">
        <ele>1399.8</ele>
        <time>2020-07-12T10:02:59Z</time>
      </trkpt>
      <trkpt lat="36.9978800" lon="-3.2675190">
        <ele>1399.6</ele>
        <time>2020-07-12T10:03:00Z</time>
      </trkpt>
      <trkpt lat="36.9980010" lon="-3.2672920">
        <ele>1397.6</ele>
        <time>2020-07-12T10:03:02Z</time>
      </trkpt>
      <trkpt lat="36.9980230" lon="-3.2671530">
        <ele>1396.4</ele>
        <time>2020-07-12T10:03:03Z</time>
      </trkpt>
      <trkpt lat="36.9980330" lon="-3.2670140">
        <ele>1395.2</ele>
        <time>2020-07-12T10:03:04Z</time>
      </trkpt>
      <trkpt lat="36.9980340" lon="-3.2668660">
        <ele>1394.4</ele>
        <time>2020-07-12T10:03:05Z</time>
      </trkpt>
      <trkpt lat="36.9980230" lon="-3.2667150">
        <ele>1393.4</ele>
        <time>2020-07-12T10:03:06Z</time>
      </trkpt>
      <trkpt lat="36.9979860" lon="-3.2664410">
        <ele>1391.4</ele>
        <time>2020-07-12T10:03:08Z</time>
      </trkpt>
      <trkpt lat="36.9979830" lon="-3.2663160">
        <ele>1390.6</ele>
        <time>2020-07-12T10:03:09Z</time>
      </trkpt>
      <trkpt lat="36.9979960" lon="-3.2662110">
        <ele>1389.6</ele>
        <time>2020-07-12T10:03:10Z</time>
      </trkpt>
      <trkpt lat="36.9980350" lon="-3.2660820">
        <ele>1389.0</ele>
        <time>2020-07-12T10:03:11Z</time>
      </trkpt>
      <trkpt lat="36.9980930" lon="-3.2659860">
        <ele>1388.4</ele>
        <time>2020-07-12T10:03:12Z</time>
      </trkpt>
      <trkpt lat="36.9981680" lon="-3.2659080">
        <ele>1387.6</ele>
        <time>2020-07-12T10:03:13Z</time>
      </trkpt>
      <trkpt lat="36.9982370" lon="-3.2658490">
        <ele>1387.0</ele>
        <time>2020-07-12T10:03:14Z</time>
      </trkpt>
      <trkpt lat="36.9983820" lon="-3.2657540">
        <ele>1385.8</ele>
        <time>2020-07-12T10:03:16Z</time>
      </trkpt>
      <trkpt lat="36.9984770" lon="-3.2657280">
        <ele>1385.2</ele>
        <time>2020-07-12T10:03:17Z</time>
      </trkpt>
      <trkpt lat="36.9985650" lon="-3.2657180">
        <ele>1384.6</ele>
        <time>2020-07-12T10:03:18Z</time>
      </trkpt>
      <trkpt lat="36.9987350" lon="-3.2657170">
        <ele>1383.2</ele>
        <time>2020-07-12T10:03:20Z</time>
      </trkpt>
      <trkpt lat="36.9988240" lon="-3.2657160">
        <ele>1382.4</ele>
        <time>2020-07-12T10:03:21Z</time>
      </trkpt>
      <trkpt lat="36.9988990" lon="-3.2657080">
        <ele>1381.6</ele>
        <time>2020-07-12T10:03:22Z</time>
      </trkpt>
      <trkpt lat="36.9990450" lon="-3.2656360">
        <ele>1380.2</ele>
        <time>2020-07-12T10:03:24Z</time>
      </trkpt>
      <trkpt lat="36.9991660" lon="-3.2654170">
        <ele>1379.0</ele>
        <time>2020-07-12T10:03:27Z</time>
      </trkpt>
      <trkpt lat="36.9991530" lon="-3.2651750">
        <ele>1378.8</ele>
        <time>2020-07-12T10:03:30Z</time>
      </trkpt>
      <trkpt lat="36.9990380" lon="-3.2649380">
        <ele>1378.8</ele>
        <time>2020-07-12T10:03:34Z</time>
      </trkpt>
      <trkpt lat="36.9990070" lon="-3.2648940">
        <ele>1379.0</ele>
        <time>2020-07-12T10:03:35Z</time>
      </trkpt>
      <trkpt lat="36.9989560" lon="-3.2648090">
        <ele>1379.0</ele>
        <time>2020-07-12T10:03:37Z</time>
      </trkpt>
      <trkpt lat="36.9989020" lon="-3.2647010">
        <ele>1378.6</ele>
        <time>2020-07-12T10:03:40Z</time>
      </trkpt>
      <trkpt lat="36.9988500" lon="-3.2646480">
        <ele>1378.6</ele>
        <time>2020-07-12T10:03:42Z</time>
      </trkpt>
      <trkpt lat="36.9988250" lon="-3.2646570">
        <ele>1378.6</ele>
        <time>2020-07-12T10:03:43Z</time>
      </trkpt>
      <trkpt lat="36.9987920" lon="-3.2646850">
        <ele>1378.6</ele>
        <time>2020-07-12T10:03:46Z</time>
      </trkpt>
      <trkpt lat="36.9988980" lon="-3.2645540">
        <ele>1375.0</ele>
        <time>2020-07-12T10:25:37Z</time>
      </trkpt>
      <trkpt lat="36.9988910" lon="-3.2645350">
        <ele>1375.0</ele>
        <time>2020-07-12T10:25:38Z</time>
      </trkpt>
      <trkpt lat="36.9988660" lon="-3.2644660">
        <ele>1375.0</ele>
        <time>2020-07-12T10:25:41Z</time>
      </trkpt>
      <trkpt lat="36.9988280" lon="-3.2643500">
        <ele>1374.8</ele>
        <time>2020-07-12T10:25:44Z</time>
      </trkpt>
      <trkpt lat="36.9988110" lon="-3.2641940">
        <ele>1374.6</ele>
        <time>2020-07-12T10:25:47Z</time>
      </trkpt>
      <trkpt lat="36.9988350" lon="-3.2640730">
        <ele>1374.2</ele>
        <time>2020-07-12T10:25:49Z</time>
      </trkpt>
      <trkpt lat="36.9989030" lon="-3.2639710">
        <ele>1373.8</ele>
        <time>2020-07-12T10:25:51Z</time>
      </trkpt>
      <trkpt lat="36.9990140" lon="-3.2639060">
        <ele>1373.4</ele>
        <time>2020-07-12T10:25:53Z</time>
      </trkpt>
      <trkpt lat="36.9991290" lon="-3.2638770">
        <ele>1373.2</ele>
        <time>2020-07-12T10:25:55Z</time>
      </trkpt>
      <trkpt lat="36.9992860" lon="-3.2638720">
        <ele>1372.6</ele>
        <time>2020-07-12T10:25:57Z</time>
      </trkpt>
      <trkpt lat="36.9993540" lon="-3.2638700">
        <ele>1372.4</ele>
        <time>2020-07-12T10:25:58Z</time>
      </trkpt>
      <trkpt lat="36.9994200" lon="-3.2638840">
        <ele>1372.4</ele>
        <time>2020-07-12T10:25:59Z</time>
      </trkpt>
      <trkpt lat="36.9997160" lon="-3.2639210">
        <ele>1371.4</ele>
        <time>2020-07-12T10:26:03Z</time>
      </trkpt>
      <trkpt lat="36.9999640" lon="-3.2638960">
        <ele>1370.8</ele>
        <time>2020-07-12T10:26:06Z</time>
      </trkpt>
      <trkpt lat="37.0000450" lon="-3.2638660">
        <ele>1370.2</ele>
        <time>2020-07-12T10:26:07Z</time>
      </trkpt>
      <trkpt lat="37.0002040" lon="-3.2637750">
        <ele>1369.0</ele>
        <time>2020-07-12T10:26:09Z</time>
      </trkpt>
      <trkpt lat="37.0002850" lon="-3.2637190">
        <ele>1368.6</ele>
        <time>2020-07-12T10:26:10Z</time>
      </trkpt>
      <trkpt lat="37.0003680" lon="-3.2636590">
        <ele>1368.0</ele>
        <time>2020-07-12T10:26:11Z</time>
      </trkpt>
      <trkpt lat="37.0005350" lon="-3.2635380">
        <ele>1366.6</ele>
        <time>2020-07-12T10:26:13Z</time>
      </trkpt>
      <trkpt lat="37.0007540" lon="-3.2633250">
        <ele>1364.6</ele>
        <time>2020-07-12T10:26:16Z</time>
      </trkpt>
      <trkpt lat="37.0008010" lon="-3.2632170">
        <ele>1363.4</ele>
        <time>2020-07-12T10:26:17Z</time>
      </trkpt>
      <trkpt lat="37.0008740" lon="-3.2629990">
        <ele>1361.8</ele>
        <time>2020-07-12T10:26:19Z</time>
      </trkpt>
      <trkpt lat="37.0009270" lon="-3.2627750">
        <ele>1360.4</ele>
        <time>2020-07-12T10:26:21Z</time>
      </trkpt>
      <trkpt lat="37.0009490" lon="-3.2626620">
        <ele>1360.0</ele>
        <time>2020-07-12T10:26:22Z</time>
      </trkpt>
      <trkpt lat="37.0009520" lon="-3.2625550">
        <ele>1359.4</ele>
        <time>2020-07-12T10:26:23Z</time>
      </trkpt>
      <trkpt lat="37.0009200" lon="-3.2623410">
        <ele>1358.4</ele>
        <time>2020-07-12T10:26:25Z</time>
      </trkpt>
      <trkpt lat="37.0008580" lon="-3.2622600">
        <ele>1357.8</ele>
        <time>2020-07-12T10:26:26Z</time>
      </trkpt>
      <trkpt lat="37.0007980" lon="-3.2621880">
        <ele>1357.4</ele>
        <time>2020-07-12T10:26:27Z</time>
      </trkpt>
      <trkpt lat="37.0006660" lon="-3.2620720">
        <ele>1357.2</ele>
        <time>2020-07-12T10:26:29Z</time>
      </trkpt>
      <trkpt lat="37.0005340" lon="-3.2619940">
        <ele>1356.8</ele>
        <time>2020-07-12T10:26:31Z</time>
      </trkpt>
      <trkpt lat="37.0004660" lon="-3.2619900">
        <ele>1356.6</ele>
        <time>2020-07-12T10:26:32Z</time>
      </trkpt>
      <trkpt lat="37.0002920" lon="-3.2620780">
        <ele>1356.2</ele>
        <time>2020-07-12T10:26:35Z</time>
      </trkpt>
      <trkpt lat="37.0001880" lon="-3.2621740">
        <ele>1356.2</ele>
        <time>2020-07-12T10:26:37Z</time>
      </trkpt>
      <trkpt lat="37.0001420" lon="-3.2622250">
        <ele>1356.2</ele>
        <time>2020-07-12T10:26:38Z</time>
      </trkpt>
      <trkpt lat="37.0000500" lon="-3.2623250">
        <ele>1356.0</ele>
        <time>2020-07-12T10:26:40Z</time>
      </trkpt>
      <trkpt lat="36.9999920" lon="-3.2623800">
        <ele>1356.0</ele>
        <time>2020-07-12T10:26:41Z</time>
      </trkpt>
      <trkpt lat="36.9997150" lon="-3.2625630">
        <ele>1355.8</ele>
        <time>2020-07-12T10:26:46Z</time>
      </trkpt>
      <trkpt lat="36.9996460" lon="-3.2625870">
        <ele>1355.8</ele>
        <time>2020-07-12T10:26:47Z</time>
      </trkpt>
      <trkpt lat="36.9995840" lon="-3.2626030">
        <ele>1355.8</ele>
        <time>2020-07-12T10:26:48Z</time>
      </trkpt>
      <trkpt lat="36.9994600" lon="-3.2626030">
        <ele>1355.8</ele>
        <time>2020-07-12T10:26:50Z</time>
      </trkpt>
      <trkpt lat="36.9993960" lon="-3.2625870">
        <ele>1355.8</ele>
        <time>2020-07-12T10:26:51Z</time>
      </trkpt>
      <trkpt lat="36.9992060" lon="-3.2625410">
        <ele>1355.6</ele>
        <time>2020-07-12T10:26:54Z</time>
      </trkpt>
      <trkpt lat="36.9990190" lon="-3.2624890">
        <ele>1355.6</ele>
        <time>2020-07-12T10:26:57Z</time>
      </trkpt>
      <trkpt lat="36.9988920" lon="-3.2624770">
        <ele>1355.4</ele>
        <time>2020-07-12T10:26:59Z</time>
      </trkpt>
      <trkpt lat="36.9988300" lon="-3.2624810">
        <ele>1355.4</ele>
        <time>2020-07-12T10:27:00Z</time>
      </trkpt>
      <trkpt lat="36.9987640" lon="-3.2624950">
        <ele>1355.4</ele>
        <time>2020-07-12T10:27:01Z</time>
      </trkpt>
      <trkpt lat="36.9984550" lon="-3.2625660">
        <ele>1355.2</ele>
        <time>2020-07-12T10:27:06Z</time>
      </trkpt>
      <trkpt lat="36.9979650" lon="-3.2626240">
        <ele>1355.4</ele>
        <time>2020-07-12T10:27:14Z</time>
      </trkpt>
      <trkpt lat="36.9975990" lon="-3.2626050">
        <ele>1355.4</ele>
        <time>2020-07-12T10:27:20Z</time>
      </trkpt>
      <trkpt lat="36.9974790" lon="-3.2625930">
        <ele>1355.2</ele>
        <time>2020-07-12T10:27:22Z</time>
      </trkpt>
      <trkpt lat="36.9972310" lon="-3.2625760">
        <ele>1354.8</ele>
        <time>2020-07-12T10:27:26Z</time>
      </trkpt>
      <trkpt lat="36.9971040" lon="-3.2625740">
        <ele>1354.8</ele>
        <time>2020-07-12T10:27:28Z</time>
      </trkpt>
      <trkpt lat="36.9970410" lon="-3.2625790">
        <ele>1354.6</ele>
        <time>2020-07-12T10:27:29Z</time>
      </trkpt>
      <trkpt lat="36.9967990" lon="-3.2626090">
        <ele>1354.6</ele>
        <time>2020-07-12T10:27:33Z</time>
      </trkpt>
      <trkpt lat="36.9966900" lon="-3.2626700">
        <ele>1354.8</ele>
        <time>2020-07-12T10:27:35Z</time>
      </trkpt>
      <trkpt lat="36.9966050" lon="-3.2628330">
        <ele>1355.2</ele>
        <time>2020-07-12T10:27:38Z</time>
      </trkpt>
      <trkpt lat="36.9965910" lon="-3.2628880">
        <ele>1355.4</ele>
        <time>2020-07-12T10:27:39Z</time>
      </trkpt>
      <trkpt lat="36.9965650" lon="-3.2629970">
        <ele>1355.8</ele>
        <time>2020-07-12T10:27:41Z</time>
      </trkpt>
      <trkpt lat="36.9965250" lon="-3.2631410">
        <ele>1356.6</ele>
        <time>2020-07-12T10:27:44Z</time>
      </trkpt>
      <trkpt lat="36.9965050" lon="-3.2632190">
        <ele>1357.2</ele>
        <time>2020-07-12T10:27:46Z</time>
      </trkpt>
      <trkpt lat="36.9964710" lon="-3.2633420">
        <ele>1358.2</ele>
        <time>2020-07-12T10:27:49Z</time>
      </trkpt>
      <trkpt lat="36.9964580" lon="-3.2633810">
        <ele>1358.2</ele>
        <time>2020-07-12T10:27:50Z</time>
      </trkpt>
      <trkpt lat="36.9964200" lon="-3.2634990">
        <ele>1359.0</ele>
        <time>2020-07-12T10:27:53Z</time>
      </trkpt>
      <trkpt lat="36.9964080" lon="-3.2635350">
        <ele>1359.4</ele>
        <time>2020-07-12T10:27:54Z</time>
      </trkpt>
      <trkpt lat="36.9963640" lon="-3.2636820">
        <ele>1360.2</ele>
        <time>2020-07-12T10:27:58Z</time>
      </trkpt>
      <trkpt lat="36.9963520" lon="-3.2637230">
        <ele>1360.4</ele>
        <time>2020-07-12T10:27:59Z</time>
      </trkpt>
      <trkpt lat="36.9963030" lon="-3.2638760">
        <ele>1361.2</ele>
        <time>2020-07-12T10:28:03Z</time>
      </trkpt>
      <trkpt lat="36.9962900" lon="-3.2639110">
        <ele>1361.4</ele>
        <time>2020-07-12T10:28:04Z</time>
      </trkpt>
      <trkpt lat="36.9962350" lon="-3.2640870">
        <ele>1362.6</ele>
        <time>2020-07-12T10:28:09Z</time>
      </trkpt>
      <trkpt lat="36.9961800" lon="-3.2642780">
        <ele>1363.8</ele>
        <time>2020-07-12T10:28:15Z</time>
      </trkpt>
      <trkpt lat="36.9961730" lon="-3.2643100">
        <ele>1364.0</ele>
        <time>2020-07-12T10:28:16Z</time>
      </trkpt>
      <trkpt lat="36.9961290" lon="-3.2644340">
        <ele>1364.8</ele>
        <time>2020-07-12T10:28:20Z</time>
      </trkpt>
      <trkpt lat="36.9961010" lon="-3.2644850">
        <ele>1365.4</ele>
        <time>2020-07-12T10:28:22Z</time>
      </trkpt>
      <trkpt lat="36.9960400" lon="-3.2645570">
        <ele>1366.0</ele>
        <time>2020-07-12T10:28:25Z</time>
      </trkpt>
      <trkpt lat="36.9959880" lon="-3.2646030">
        <ele>1366.2</ele>
        <time>2020-07-12T10:28:28Z</time>
      </trkpt>
      <trkpt lat="36.9959790" lon="-3.2645880">
        <ele>1366.4</ele>
        <time>2020-07-12T10:28:29Z</time>
      </trkpt>
      <trkpt lat="36.9960010" lon="-3.2645650">
        <ele>1366.4</ele>
        <time>2020-07-12T10:28:31Z</time>
      </trkpt>
      <trkpt lat="36.9961170" lon="-3.2645780">
        <ele>1366.4</ele>
        <time>2020-07-12T10:28:37Z</time>
      </trkpt>
      <trkpt lat="36.9961750" lon="-3.2645680">
        <ele>1366.4</ele>
        <time>2020-07-12T10:28:42Z</time>
      </trkpt>
      <trkpt lat="36.9962060" lon="-3.2645570">
        <ele>1366.2</ele>
        <time>2020-07-12T10:28:46Z</time>
      </trkpt>
      <trkpt lat="36.9961080" lon="-3.2645320">
        <ele>1366.0</ele>
        <time>2020-07-12T10:30:47Z</time>
      </trkpt>
      <trkpt lat="36.9960980" lon="-3.2645410">
        <ele>1366.0</ele>
        <time>2020-07-12T10:30:48Z</time>
      </trkpt>
      <trkpt lat="36.9960540" lon="-3.2645710">
        <ele>1366.0</ele>
        <time>2020-07-12T10:30:51Z</time>
      </trkpt>
      <trkpt lat="36.9960100" lon="-3.2646170">
        <ele>1366.0</ele>
        <time>2020-07-12T10:30:53Z</time>
      </trkpt>
      <trkpt lat="36.9959820" lon="-3.2646380">
        <ele>1366.0</ele>
        <time>2020-07-12T10:30:54Z</time>
      </trkpt>
      <trkpt lat="36.9959180" lon="-3.2646760">
        <ele>1366.0</ele>
        <time>2020-07-12T10:30:56Z</time>
      </trkpt>
      <trkpt lat="36.9958140" lon="-3.2647330">
        <ele>1366.2</ele>
        <time>2020-07-12T10:30:59Z</time>
      </trkpt>
      <trkpt lat="36.9957780" lon="-3.2647570">
        <ele>1366.2</ele>
        <time>2020-07-12T10:31:00Z</time>
      </trkpt>
      <trkpt lat="36.9957370" lon="-3.2647840">
        <ele>1366.2</ele>
        <time>2020-07-12T10:31:01Z</time>
      </trkpt>
      <trkpt lat="36.9956580" lon="-3.2648350">
        <ele>1366.2</ele>
        <time>2020-07-12T10:31:03Z</time>
      </trkpt>
      <trkpt lat="36.9955260" lon="-3.2649180">
        <ele>1365.6</ele>
        <time>2020-07-12T10:31:06Z</time>
      </trkpt>
      <trkpt lat="36.9954830" lon="-3.2649530">
        <ele>1365.4</ele>
        <time>2020-07-12T10:31:07Z</time>
      </trkpt>
      <trkpt lat="36.9953510" lon="-3.2650620">
        <ele>1365.2</ele>
        <time>2020-07-12T10:31:10Z</time>
      </trkpt>
      <trkpt lat="36.9953000" lon="-3.2650980">
        <ele>1365.0</ele>
        <time>2020-07-12T10:31:11Z</time>
      </trkpt>
      <trkpt lat="36.9952480" lon="-3.2651310">
        <ele>1364.8</ele>
        <time>2020-07-12T10:31:12Z</time>
      </trkpt>
      <trkpt lat="36.9951950" lon="-3.2651600">
        <ele>1364.6</ele>
        <time>2020-07-12T10:31:13Z</time>
      </trkpt>
      <trkpt lat="36.9951380" lon="-3.2651850">
        <ele>1364.4</ele>
        <time>2020-07-12T10:31:14Z</time>
      </trkpt>
      <trkpt lat="36.9949540" lon="-3.2652300">
        <ele>1364.0</ele>
        <time>2020-07-12T10:31:17Z</time>
      </trkpt>
      <trkpt lat="36.9948210" lon="-3.2652430">
        <ele>1363.6</ele>
        <time>2020-07-12T10:31:19Z</time>
      </trkpt>
      <trkpt lat="36.9947550" lon="-3.2652470">
        <ele>1363.4</ele>
        <time>2020-07-12T10:31:20Z</time>
      </trkpt>
      <trkpt lat="36.9946120" lon="-3.2652450">
        <ele>1362.8</ele>
        <time>2020-07-12T10:31:22Z</time>
      </trkpt>
      <trkpt lat="36.9945390" lon="-3.2652370">
        <ele>1362.6</ele>
        <time>2020-07-12T10:31:23Z</time>
      </trkpt>
      <trkpt lat="36.9944020" lon="-3.2652120">
        <ele>1362.2</ele>
        <time>2020-07-12T10:31:25Z</time>
      </trkpt>
      <trkpt lat="36.9943290" lon="-3.2651870">
        <ele>1361.8</ele>
        <time>2020-07-12T10:31:26Z</time>
      </trkpt>
      <trkpt lat="36.9941920" lon="-3.2651300">
        <ele>1361.4</ele>
        <time>2020-07-12T10:31:28Z</time>
      </trkpt>
      <trkpt lat="36.9941220" lon="-3.2650930">
        <ele>1361.2</ele>
        <time>2020-07-12T10:31:29Z</time>
      </trkpt>
      <trkpt lat="36.9939230" lon="-3.2649500">
        <ele>1360.8</ele>
        <time>2020-07-12T10:31:32Z</time>
      </trkpt>
      <trkpt lat="36.9937950" lon="-3.2648350">
        <ele>1360.2</ele>
        <time>2020-07-12T10:31:34Z</time>
      </trkpt>
      <trkpt lat="36.9937270" lon="-3.2647840">
        <ele>1360.0</ele>
        <time>2020-07-12T10:31:35Z</time>
      </trkpt>
      <trkpt lat="36.9935570" lon="-3.2647430">
        <ele>1359.4</ele>
        <time>2020-07-12T10:31:37Z</time>
      </trkpt>
      <trkpt lat="36.9934780" lon="-3.2647670">
        <ele>1359.0</ele>
        <time>2020-07-12T10:31:38Z</time>
      </trkpt>
      <trkpt lat="36.9934020" lon="-3.2648020">
        <ele>1358.8</ele>
        <time>2020-07-12T10:31:39Z</time>
      </trkpt>
      <trkpt lat="36.9933470" lon="-3.2648550">
        <ele>1358.6</ele>
        <time>2020-07-12T10:31:40Z</time>
      </trkpt>
      <trkpt lat="36.9932310" lon="-3.2649330">
        <ele>1358.2</ele>
        <time>2020-07-12T10:31:42Z</time>
      </trkpt>
      <trkpt lat="36.9931130" lon="-3.2649670">
        <ele>1358.6</ele>
        <time>2020-07-12T10:31:44Z</time>
      </trkpt>
      <trkpt lat="36.9930050" lon="-3.2649710">
        <ele>1359.0</ele>
        <time>2020-07-12T10:31:46Z</time>
      </trkpt>
      <trkpt lat="36.9928630" lon="-3.2649620">
        <ele>1359.8</ele>
        <time>2020-07-12T10:31:49Z</time>
      </trkpt>
      <trkpt lat="36.9927820" lon="-3.2649590">
        <ele>1360.2</ele>
        <time>2020-07-12T10:31:51Z</time>
      </trkpt>
      <trkpt lat="36.9927060" lon="-3.2649650">
        <ele>1360.8</ele>
        <time>2020-07-12T10:31:53Z</time>
      </trkpt>
      <trkpt lat="36.9926410" lon="-3.2649740">
        <ele>1361.4</ele>
        <time>2020-07-12T10:31:55Z</time>
      </trkpt>
      <trkpt lat="36.9926070" lon="-3.2649850">
        <ele>1361.6</ele>
        <time>2020-07-12T10:31:56Z</time>
      </trkpt>
      <trkpt lat="36.9925740" lon="-3.2649990">
        <ele>1362.0</ele>
        <time>2020-07-12T10:31:57Z</time>
      </trkpt>
      <trkpt lat="36.9925440" lon="-3.2650110">
        <ele>1362.4</ele>
        <time>2020-07-12T10:31:58Z</time>
      </trkpt>
      <trkpt lat="36.9925100" lon="-3.2650260">
        <ele>1362.6</ele>
        <time>2020-07-12T10:31:59Z</time>
      </trkpt>
      <trkpt lat="36.9924490" lon="-3.2650570">
        <ele>1363.2</ele>
        <time>2020-07-12T10:32:01Z</time>
      </trkpt>
      <trkpt lat="36.9924200" lon="-3.2650710">
        <ele>1363.6</ele>
        <time>2020-07-12T10:32:02Z</time>
      </trkpt>
      <trkpt lat="36.9923910" lon="-3.2650870">
        <ele>1364.0</ele>
        <time>2020-07-12T10:32:03Z</time>
      </trkpt>
      <trkpt lat="36.9923380" lon="-3.2651230">
        <ele>1364.4</ele>
        <time>2020-07-12T10:32:05Z</time>
      </trkpt>
      <trkpt lat="36.9923080" lon="-3.2651400">
        <ele>1364.6</ele>
        <time>2020-07-12T10:32:06Z</time>
      </trkpt>
      <trkpt lat="36.9922270" lon="-3.2651850">
        <ele>1365.6</ele>
        <time>2020-07-12T10:32:09Z</time>
      </trkpt>
      <trkpt lat="36.9922020" lon="-3.2651960">
        <ele>1365.8</ele>
        <time>2020-07-12T10:32:10Z</time>
      </trkpt>
      <trkpt lat="36.9921310" lon="-3.2652610">
        <ele>1366.6</ele>
        <time>2020-07-12T10:32:13Z</time>
      </trkpt>
      <trkpt lat="36.9921110" lon="-3.2652750">
        <ele>1366.8</ele>
        <time>2020-07-12T10:32:14Z</time>
      </trkpt>
      <trkpt lat="36.9920870" lon="-3.2652890">
        <ele>1367.0</ele>
        <time>2020-07-12T10:32:15Z</time>
      </trkpt>
      <trkpt lat="36.9920120" lon="-3.2653330">
        <ele>1368.0</ele>
        <time>2020-07-12T10:32:18Z</time>
      </trkpt>
      <trkpt lat="36.9919860" lon="-3.2653440">
        <ele>1368.4</ele>
        <time>2020-07-12T10:32:19Z</time>
      </trkpt>
      <trkpt lat="36.9919610" lon="-3.2653570">
        <ele>1368.6</ele>
        <time>2020-07-12T10:32:20Z</time>
      </trkpt>
      <trkpt lat="36.9918530" lon="-3.2653950">
        <ele>1369.4</ele>
        <time>2020-07-12T10:32:24Z</time>
      </trkpt>
      <trkpt lat="36.9917380" lon="-3.2654250">
        <ele>1370.4</ele>
        <time>2020-07-12T10:32:28Z</time>
      </trkpt>
      <trkpt lat="36.9917070" lon="-3.2654320">
        <ele>1370.6</ele>
        <time>2020-07-12T10:32:29Z</time>
      </trkpt>
      <trkpt lat="36.9915170" lon="-3.2654570">
        <ele>1371.6</ele>
        <time>2020-07-12T10:32:35Z</time>
      </trkpt>
      <trkpt lat="36.9914780" lon="-3.2654630">
        <ele>1371.6</ele>
        <time>2020-07-12T10:32:36Z</time>
      </trkpt>
      <trkpt lat="36.9912700" lon="-3.2655210">
        <ele>1371.8</ele>
        <time>2020-07-12T10:32:41Z</time>
      </trkpt>
      <trkpt lat="36.9911860" lon="-3.2655830">
        <ele>1371.6</ele>
        <time>2020-07-12T10:32:43Z</time>
      </trkpt>
      <trkpt lat="36.9911040" lon="-3.2656630">
        <ele>1371.6</ele>
        <time>2020-07-12T10:32:45Z</time>
      </trkpt>
      <trkpt lat="36.9910560" lon="-3.2657050">
        <ele>1371.4</ele>
        <time>2020-07-12T10:32:46Z</time>
      </trkpt>
      <trkpt lat="36.9909440" lon="-3.2657770">
        <ele>1371.2</ele>
        <time>2020-07-12T10:32:48Z</time>
      </trkpt>
      <trkpt lat="36.9907320" lon="-3.2658390">
        <ele>1370.8</ele>
        <time>2020-07-12T10:32:51Z</time>
      </trkpt>
      <trkpt lat="36.9906490" lon="-3.2658580">
        <ele>1370.4</ele>
        <time>2020-07-12T10:32:52Z</time>
      </trkpt>
      <trkpt lat="36.9902870" lon="-3.2659290">
        <ele>1369.0</ele>
        <time>2020-07-12T10:32:56Z</time>
      </trkpt>
      <trkpt lat="36.9901950" lon="-3.2659350">
        <ele>1368.6</ele>
        <time>2020-07-12T10:32:57Z</time>
      </trkpt>
      <trkpt lat="36.9901000" lon="-3.2659350">
        <ele>1368.2</ele>
        <time>2020-07-12T10:32:58Z</time>
      </trkpt>
      <trkpt lat="36.9899960" lon="-3.2659190">
        <ele>1367.6</ele>
        <time>2020-07-12T10:32:59Z</time>
      </trkpt>
      <trkpt lat="36.9897910" lon="-3.2659160">
        <ele>1366.4</ele>
        <time>2020-07-12T10:33:01Z</time>
      </trkpt>
      <trkpt lat="36.9896860" lon="-3.2659360">
        <ele>1365.8</ele>
        <time>2020-07-12T10:33:02Z</time>
      </trkpt>
      <trkpt lat="36.9895810" lon="-3.2659660">
        <ele>1365.2</ele>
        <time>2020-07-12T10:33:03Z</time>
      </trkpt>
      <trkpt lat="36.9893500" lon="-3.2660310">
        <ele>1363.6</ele>
        <time>2020-07-12T10:33:05Z</time>
      </trkpt>
      <trkpt lat="36.9892200" lon="-3.2660520">
        <ele>1363.0</ele>
        <time>2020-07-12T10:33:06Z</time>
      </trkpt>
      <trkpt lat="36.9890920" lon="-3.2660560">
        <ele>1362.0</ele>
        <time>2020-07-12T10:33:07Z</time>
      </trkpt>
      <trkpt lat="36.9888420" lon="-3.2660400">
        <ele>1360.2</ele>
        <time>2020-07-12T10:33:09Z</time>
      </trkpt>
      <trkpt lat="36.9887270" lon="-3.2660360">
        <ele>1359.2</ele>
        <time>2020-07-12T10:33:10Z</time>
      </trkpt>
      <trkpt lat="36.9885990" lon="-3.2660530">
        <ele>1358.2</ele>
        <time>2020-07-12T10:33:11Z</time>
      </trkpt>
      <trkpt lat="36.9884870" lon="-3.2661000">
        <ele>1357.0</ele>
        <time>2020-07-12T10:33:12Z</time>
      </trkpt>
      <trkpt lat="36.9883910" lon="-3.2661680">
        <ele>1356.2</ele>
        <time>2020-07-12T10:33:13Z</time>
      </trkpt>
      <trkpt lat="36.9882930" lon="-3.2662550">
        <ele>1355.2</ele>
        <time>2020-07-12T10:33:14Z</time>
      </trkpt>
      <trkpt lat="36.9881070" lon="-3.2664310">
        <ele>1353.4</ele>
        <time>2020-07-12T10:33:16Z</time>
      </trkpt>
      <trkpt lat="36.9879780" lon="-3.2665300">
        <ele>1352.0</ele>
        <time>2020-07-12T10:33:17Z</time>
      </trkpt>
      <trkpt lat="36.9878560" lon="-3.2665970">
        <ele>1351.0</ele>
        <time>2020-07-12T10:33:18Z</time>
      </trkpt>
      <trkpt lat="36.9877340" lon="-3.2666460">
        <ele>1350.2</ele>
        <time>2020-07-12T10:33:19Z</time>
      </trkpt>
      <trkpt lat="36.9874690" lon="-3.2667320">
        <ele>1348.6</ele>
        <time>2020-07-12T10:33:21Z</time>
      </trkpt>
      <trkpt lat="36.9873410" lon="-3.2667770">
        <ele>1347.6</ele>
        <time>2020-07-12T10:33:22Z</time>
      </trkpt>
      <trkpt lat="36.9872050" lon="-3.2668300">
        <ele>1346.6</ele>
        <time>2020-07-12T10:33:23Z</time>
      </trkpt>
      <trkpt lat="36.9870730" lon="-3.2668900">
        <ele>1345.4</ele>
        <time>2020-07-12T10:33:24Z</time>
      </trkpt>
      <trkpt lat="36.9868220" lon="-3.2670190">
        <ele>1343.4</ele>
        <time>2020-07-12T10:33:26Z</time>
      </trkpt>
      <trkpt lat="36.9867070" lon="-3.2670700">
        <ele>1342.4</ele>
        <time>2020-07-12T10:33:27Z</time>
      </trkpt>
      <trkpt lat="36.9865840" lon="-3.2670980">
        <ele>1341.4</ele>
        <time>2020-07-12T10:33:28Z</time>
      </trkpt>
      <trkpt lat="36.9864600" lon="-3.2670990">
        <ele>1340.4</ele>
        <time>2020-07-12T10:33:29Z</time>
      </trkpt>
      <trkpt lat="36.9863360" lon="-3.2670910">
        <ele>1340.0</ele>
        <time>2020-07-12T10:33:30Z</time>
      </trkpt>
      <trkpt lat="36.9862340" lon="-3.2670420">
        <ele>1339.0</ele>
        <time>2020-07-12T10:33:31Z</time>
      </trkpt>
      <trkpt lat="36.9861450" lon="-3.2669720">
        <ele>1338.4</ele>
        <time>2020-07-12T10:33:32Z</time>
      </trkpt>
      <trkpt lat="36.9860850" lon="-3.2668730">
        <ele>1337.2</ele>
        <time>2020-07-12T10:33:33Z</time>
      </trkpt>
      <trkpt lat="36.9860330" lon="-3.2667570">
        <ele>1336.6</ele>
        <time>2020-07-12T10:33:34Z</time>
      </trkpt>
      <trkpt lat="36.9860070" lon="-3.2666080">
        <ele>1335.0</ele>
        <time>2020-07-12T10:33:35Z</time>
      </trkpt>
      <trkpt lat="36.9859630" lon="-3.2664610">
        <ele>1333.8</ele>
        <time>2020-07-12T10:33:36Z</time>
      </trkpt>
      <trkpt lat="36.9859110" lon="-3.2663200">
        <ele>1332.6</ele>
        <time>2020-07-12T10:33:37Z</time>
      </trkpt>
      <trkpt lat="36.9858450" lon="-3.2661940">
        <ele>1331.6</ele>
        <time>2020-07-12T10:33:38Z</time>
      </trkpt>
      <trkpt lat="36.9857590" lon="-3.2660900">
        <ele>1330.4</ele>
        <time>2020-07-12T10:33:39Z</time>
      </trkpt>
      <trkpt lat="36.9856630" lon="-3.2659980">
        <ele>1329.8</ele>
        <time>2020-07-12T10:33:40Z</time>
      </trkpt>
      <trkpt lat="36.9855510" lon="-3.2659640">
        <ele>1328.8</ele>
        <time>2020-07-12T10:33:41Z</time>
      </trkpt>
      <trkpt lat="36.9854500" lon="-3.2659570">
        <ele>1328.2</ele>
        <time>2020-07-12T10:33:42Z</time>
      </trkpt>
      <trkpt lat="36.9853580" lon="-3.2660000">
        <ele>1327.4</ele>
        <time>2020-07-12T10:33:43Z</time>
      </trkpt>
      <trkpt lat="36.9852910" lon="-3.2660710">
        <ele>1327.0</ele>
        <time>2020-07-12T10:33:44Z</time>
      </trkpt>
      <trkpt lat="36.9852000" lon="-3.2662330">
        <ele>1326.6</ele>
        <time>2020-07-12T10:33:46Z</time>
      </trkpt>
      <trkpt lat="36.9851720" lon="-3.2663260">
        <ele>1326.6</ele>
        <time>2020-07-12T10:33:47Z</time>
      </trkpt>
      <trkpt lat="36.9851460" lon="-3.2664090">
        <ele>1326.8</ele>
        <time>2020-07-12T10:33:48Z</time>
      </trkpt>
      <trkpt lat="36.9851260" lon="-3.2665440">
        <ele>1327.0</ele>
        <time>2020-07-12T10:33:50Z</time>
      </trkpt>
      <trkpt lat="36.9850910" lon="-3.2666670">
        <ele>1327.8</ele>
        <time>2020-07-12T10:33:52Z</time>
      </trkpt>
      <trkpt lat="36.9850570" lon="-3.2667680">
        <ele>1328.6</ele>
        <time>2020-07-12T10:33:54Z</time>
      </trkpt>
      <trkpt lat="36.9850190" lon="-3.2668530">
        <ele>1329.4</ele>
        <time>2020-07-12T10:33:56Z</time>
      </trkpt>
      <trkpt lat="36.9850010" lon="-3.2668910">
        <ele>1329.8</ele>
        <time>2020-07-12T10:33:57Z</time>
      </trkpt>
      <trkpt lat="36.9849840" lon="-3.2669270">
        <ele>1330.2</ele>
        <time>2020-07-12T10:33:58Z</time>
      </trkpt>
      <trkpt lat="36.9849540" lon="-3.2669990">
        <ele>1330.6</ele>
        <time>2020-07-12T10:34:00Z</time>
      </trkpt>
      <trkpt lat="36.9849340" lon="-3.2670350">
        <ele>1330.8</ele>
        <time>2020-07-12T10:34:01Z</time>
      </trkpt>
      <trkpt lat="36.9848960" lon="-3.2670970">
        <ele>1331.4</ele>
        <time>2020-07-12T10:34:03Z</time>
      </trkpt>
      <trkpt lat="36.9848810" lon="-3.2671270">
        <ele>1331.6</ele>
        <time>2020-07-12T10:34:04Z</time>
      </trkpt>
      <trkpt lat="36.9848480" lon="-3.2671930">
        <ele>1332.0</ele>
        <time>2020-07-12T10:34:06Z</time>
      </trkpt>
      <trkpt lat="36.9847950" lon="-3.2673190">
        <ele>1332.8</ele>
        <time>2020-07-12T10:34:10Z</time>
      </trkpt>
      <trkpt lat="36.9847870" lon="-3.2673570">
        <ele>1333.0</ele>
        <time>2020-07-12T10:34:11Z</time>
      </trkpt>
      <trkpt lat="36.9847630" lon="-3.2674650">
        <ele>1334.0</ele>
        <time>2020-07-12T10:34:14Z</time>
      </trkpt>
      <trkpt lat="36.9847580" lon="-3.2674990">
        <ele>1334.2</ele>
        <time>2020-07-12T10:34:15Z</time>
      </trkpt>
      <trkpt lat="36.9847470" lon="-3.2675720">
        <ele>1334.6</ele>
        <time>2020-07-12T10:34:17Z</time>
      </trkpt>
      <trkpt lat="36.9847340" lon="-3.2676730">
        <ele>1335.2</ele>
        <time>2020-07-12T10:34:20Z</time>
      </trkpt>
      <trkpt lat="36.9847150" lon="-3.2677900">
        <ele>1336.0</ele>
        <time>2020-07-12T10:34:23Z</time>
      </trkpt>
      <trkpt lat="36.9847060" lon="-3.2678640">
        <ele>1336.4</ele>
        <time>2020-07-12T10:34:25Z</time>
      </trkpt>
      <trkpt lat="36.9847000" lon="-3.2679030">
        <ele>1336.6</ele>
        <time>2020-07-12T10:34:26Z</time>
      </trkpt>
      <trkpt lat="36.9846860" lon="-3.2680520">
        <ele>1337.6</ele>
        <time>2020-07-12T10:34:30Z</time>
      </trkpt>
      <trkpt lat="36.9846730" lon="-3.2681600">
        <ele>1338.2</ele>
        <time>2020-07-12T10:34:33Z</time>
      </trkpt>
      <trkpt lat="36.9846630" lon="-3.2682260">
        <ele>1338.8</ele>
        <time>2020-07-12T10:34:35Z</time>
      </trkpt>
      <trkpt lat="36.9846240" lon="-3.2683490">
        <ele>1339.8</ele>
        <time>2020-07-12T10:34:39Z</time>
      </trkpt>
      <trkpt lat="36.9846110" lon="-3.2683770">
        <ele>1339.8</ele>
        <time>2020-07-12T10:34:40Z</time>
      </trkpt>
      <trkpt lat="36.9845940" lon="-3.2683980">
        <ele>1340.2</ele>
        <time>2020-07-12T10:34:41Z</time>
      </trkpt>
      <trkpt lat="36.9845390" lon="-3.2684690">
        <ele>1340.8</ele>
        <time>2020-07-12T10:34:44Z</time>
      </trkpt>
      <trkpt lat="36.9845230" lon="-3.2684890">
        <ele>1341.0</ele>
        <time>2020-07-12T10:34:45Z</time>
      </trkpt>
      <trkpt lat="36.9844980" lon="-3.2685000">
        <ele>1341.2</ele>
        <time>2020-07-12T10:34:46Z</time>
      </trkpt>
      <trkpt lat="36.9844480" lon="-3.2685200">
        <ele>1341.8</ele>
        <time>2020-07-12T10:34:48Z</time>
      </trkpt>
      <trkpt lat="36.9843990" lon="-3.2685310">
        <ele>1342.0</ele>
        <time>2020-07-12T10:34:50Z</time>
      </trkpt>
      <trkpt lat="36.9842630" lon="-3.2685090">
        <ele>1343.0</ele>
        <time>2020-07-12T10:34:55Z</time>
      </trkpt>
      <trkpt lat="36.9842390" lon="-3.2684940">
        <ele>1343.2</ele>
        <time>2020-07-12T10:34:56Z</time>
      </trkpt>
      <trkpt lat="36.9841260" lon="-3.2683900">
        <ele>1344.0</ele>
        <time>2020-07-12T10:35:01Z</time>
      </trkpt>
      <trkpt lat="36.9840640" lon="-3.2683190">
        <ele>1344.6</ele>
        <time>2020-07-12T10:35:04Z</time>
      </trkpt>
      <trkpt lat="36.9839450" lon="-3.2681920">
        <ele>1345.2</ele>
        <time>2020-07-12T10:35:10Z</time>
      </trkpt>
      <trkpt lat="36.9838530" lon="-3.2681220">
        <ele>1346.0</ele>
        <time>2020-07-12T10:35:14Z</time>
      </trkpt>
      <trkpt lat="36.9838110" lon="-3.2680910">
        <ele>1346.4</ele>
        <time>2020-07-12T10:35:16Z</time>
      </trkpt>
      <trkpt lat="36.9836740" lon="-3.2680340">
        <ele>1347.4</ele>
        <time>2020-07-12T10:35:21Z</time>
      </trkpt>
      <trkpt lat="36.9836440" lon="-3.2680270">
        <ele>1347.6</ele>
        <time>2020-07-12T10:35:22Z</time>
      </trkpt>
      <trkpt lat="36.9835060" lon="-3.2680060">
        <ele>1348.2</ele>
        <time>2020-07-12T10:35:27Z</time>
      </trkpt>
      <trkpt lat="36.9834740" lon="-3.2680110">
        <ele>1348.4</ele>
        <time>2020-07-12T10:35:28Z</time>
      </trkpt>
      <trkpt lat="36.9834410" lon="-3.2680180">
        <ele>1348.8</ele>
        <time>2020-07-12T10:35:29Z</time>
      </trkpt>
      <trkpt lat="36.9833080" lon="-3.2680440">
        <ele>1349.2</ele>
        <time>2020-07-12T10:35:34Z</time>
      </trkpt>
      <trkpt lat="36.9832200" lon="-3.2680700">
        <ele>1350.0</ele>
        <time>2020-07-12T10:35:37Z</time>
      </trkpt>
      <trkpt lat="36.9831160" lon="-3.2680760">
        <ele>1351.0</ele>
        <time>2020-07-12T10:35:41Z</time>
      </trkpt>
      <trkpt lat="36.9830860" lon="-3.2680710">
        <ele>1351.2</ele>
        <time>2020-07-12T10:35:42Z</time>
      </trkpt>
      <trkpt lat="36.9829550" lon="-3.2680350">
        <ele>1352.0</ele>
        <time>2020-07-12T10:35:47Z</time>
      </trkpt>
      <trkpt lat="36.9828800" lon="-3.2679960">
        <ele>1352.6</ele>
        <time>2020-07-12T10:35:50Z</time>
      </trkpt>
      <trkpt lat="36.9828100" lon="-3.2679420">
        <ele>1353.2</ele>
        <time>2020-07-12T10:35:53Z</time>
      </trkpt>
      <trkpt lat="36.9827080" lon="-3.2678170">
        <ele>1354.4</ele>
        <time>2020-07-12T10:35:58Z</time>
      </trkpt>
      <trkpt lat="36.9826580" lon="-3.2676860">
        <ele>1355.4</ele>
        <time>2020-07-12T10:36:02Z</time>
      </trkpt>
      <trkpt lat="36.9826570" lon="-3.2676470">
        <ele>1355.4</ele>
        <time>2020-07-12T10:36:03Z</time>
      </trkpt>
      <trkpt lat="36.9825880" lon="-3.2674930">
        <ele>1356.4</ele>
        <time>2020-07-12T10:36:08Z</time>
      </trkpt>
      <trkpt lat="36.9824210" lon="-3.2673640">
        <ele>1357.0</ele>
        <time>2020-07-12T10:36:15Z</time>
      </trkpt>
      <trkpt lat="36.9823400" lon="-3.2673690">
        <ele>1357.6</ele>
        <time>2020-07-12T10:36:18Z</time>
      </trkpt>
      <trkpt lat="36.9822700" lon="-3.2673940">
        <ele>1358.4</ele>
        <time>2020-07-12T10:36:21Z</time>
      </trkpt>
      <trkpt lat="36.9822440" lon="-3.2674040">
        <ele>1358.8</ele>
        <time>2020-07-12T10:36:22Z</time>
      </trkpt>
      <trkpt lat="36.9821210" lon="-3.2674600">
        <ele>1359.8</ele>
        <time>2020-07-12T10:36:27Z</time>
      </trkpt>
      <trkpt lat="36.9820720" lon="-3.2674810">
        <ele>1360.2</ele>
        <time>2020-07-12T10:36:29Z</time>
      </trkpt>
      <trkpt lat="36.9819750" lon="-3.2675230">
        <ele>1361.0</ele>
        <time>2020-07-12T10:36:33Z</time>
      </trkpt>
      <trkpt lat="36.9818680" lon="-3.2675480">
        <ele>1361.8</ele>
        <time>2020-07-12T10:36:37Z</time>
      </trkpt>
      <trkpt lat="36.9818160" lon="-3.2675500">
        <ele>1362.2</ele>
        <time>2020-07-12T10:36:39Z</time>
      </trkpt>
      <trkpt lat="36.9817040" lon="-3.2675160">
        <ele>1363.2</ele>
        <time>2020-07-12T10:36:43Z</time>
      </trkpt>
      <trkpt lat="36.9815980" lon="-3.2674510">
        <ele>1364.4</ele>
        <time>2020-07-12T10:36:47Z</time>
      </trkpt>
      <trkpt lat="36.9815230" lon="-3.2673910">
        <ele>1365.0</ele>
        <time>2020-07-12T10:36:50Z</time>
      </trkpt>
      <trkpt lat="36.9814700" lon="-3.2673520">
        <ele>1365.4</ele>
        <time>2020-07-12T10:36:52Z</time>
      </trkpt>
      <trkpt lat="36.9813150" lon="-3.2673090">
        <ele>1366.0</ele>
        <time>2020-07-12T10:36:57Z</time>
      </trkpt>
      <trkpt lat="36.9812300" lon="-3.2673610">
        <ele>1366.6</ele>
        <time>2020-07-12T10:37:00Z</time>
      </trkpt>
      <trkpt lat="36.9812060" lon="-3.2673820">
        <ele>1366.8</ele>
        <time>2020-07-12T10:37:01Z</time>
      </trkpt>
      <trkpt lat="36.9811220" lon="-3.2674830">
        <ele>1367.6</ele>
        <time>2020-07-12T10:37:05Z</time>
      </trkpt>
      <trkpt lat="36.9810680" lon="-3.2675690">
        <ele>1368.4</ele>
        <time>2020-07-12T10:37:08Z</time>
      </trkpt>
      <trkpt lat="36.9810500" lon="-3.2675960">
        <ele>1368.6</ele>
        <time>2020-07-12T10:37:09Z</time>
      </trkpt>
      <trkpt lat="36.9809630" lon="-3.2677390">
        <ele>1369.8</ele>
        <time>2020-07-12T10:37:14Z</time>
      </trkpt>
      <trkpt lat="36.9808770" lon="-3.2678810">
        <ele>1371.0</ele>
        <time>2020-07-12T10:37:19Z</time>
      </trkpt>
      <trkpt lat="36.9808490" lon="-3.2679370">
        <ele>1371.4</ele>
        <time>2020-07-12T10:37:21Z</time>
      </trkpt>
      <trkpt lat="36.9807890" lon="-3.2680240">
        <ele>1372.0</ele>
        <time>2020-07-12T10:37:24Z</time>
      </trkpt>
      <trkpt lat="36.9807100" lon="-3.2681260">
        <ele>1372.8</ele>
        <time>2020-07-12T10:37:28Z</time>
      </trkpt>
      <trkpt lat="36.9806830" lon="-3.2681460">
        <ele>1373.0</ele>
        <time>2020-07-12T10:37:29Z</time>
      </trkpt>
      <trkpt lat="36.9805690" lon="-3.2682270">
        <ele>1374.2</ele>
        <time>2020-07-12T10:37:34Z</time>
      </trkpt>
      <trkpt lat="36.9805420" lon="-3.2682440">
        <ele>1374.6</ele>
        <time>2020-07-12T10:37:35Z</time>
      </trkpt>
      <trkpt lat="36.9804180" lon="-3.2683100">
        <ele>1375.4</ele>
        <time>2020-07-12T10:37:40Z</time>
      </trkpt>
      <trkpt lat="36.9803660" lon="-3.2683340">
        <ele>1375.6</ele>
        <time>2020-07-12T10:37:42Z</time>
      </trkpt>
      <trkpt lat="36.9802770" lon="-3.2683850">
        <ele>1376.4</ele>
        <time>2020-07-12T10:37:46Z</time>
      </trkpt>
      <trkpt lat="36.9801780" lon="-3.2684430">
        <ele>1377.0</ele>
        <time>2020-07-12T10:37:50Z</time>
      </trkpt>
      <trkpt lat="36.9801270" lon="-3.2684710">
        <ele>1377.4</ele>
        <time>2020-07-12T10:37:52Z</time>
      </trkpt>
      <trkpt lat="36.9799940" lon="-3.2685310">
        <ele>1378.6</ele>
        <time>2020-07-12T10:37:57Z</time>
      </trkpt>
      <trkpt lat="36.9799390" lon="-3.2685530">
        <ele>1379.0</ele>
        <time>2020-07-12T10:37:59Z</time>
      </trkpt>
      <trkpt lat="36.9798320" lon="-3.2686000">
        <ele>1379.8</ele>
        <time>2020-07-12T10:38:03Z</time>
      </trkpt>
      <trkpt lat="36.9796800" lon="-3.2686740">
        <ele>1380.8</ele>
        <time>2020-07-12T10:38:09Z</time>
      </trkpt>
      <trkpt lat="36.9796560" lon="-3.2686860">
        <ele>1381.0</ele>
        <time>2020-07-12T10:38:10Z</time>
      </trkpt>
      <trkpt lat="36.9795860" lon="-3.2687370">
        <ele>1381.6</ele>
        <time>2020-07-12T10:38:13Z</time>
      </trkpt>
      <trkpt lat="36.9795610" lon="-3.2687490">
        <ele>1382.0</ele>
        <time>2020-07-12T10:38:14Z</time>
      </trkpt>
      <trkpt lat="36.9794880" lon="-3.2687970">
        <ele>1382.8</ele>
        <time>2020-07-12T10:38:17Z</time>
      </trkpt>
      <trkpt lat="36.9794310" lon="-3.2688280">
        <ele>1383.0</ele>
        <time>2020-07-12T10:38:19Z</time>
      </trkpt>
      <trkpt lat="36.9793180" lon="-3.2688700">
        <ele>1384.0</ele>
        <time>2020-07-12T10:38:23Z</time>
      </trkpt>
      <trkpt lat="36.9792850" lon="-3.2688700">
        <ele>1384.4</ele>
        <time>2020-07-12T10:38:24Z</time>
      </trkpt>
      <trkpt lat="36.9790990" lon="-3.2688310">
        <ele>1385.4</ele>
        <time>2020-07-12T10:38:30Z</time>
      </trkpt>
      <trkpt lat="36.9789490" lon="-3.2687730">
        <ele>1386.6</ele>
        <time>2020-07-12T10:38:35Z</time>
      </trkpt>
      <trkpt lat="36.9787950" lon="-3.2687410">
        <ele>1387.4</ele>
        <time>2020-07-12T10:38:39Z</time>
      </trkpt>
      <trkpt lat="36.9787100" lon="-3.2687380">
        <ele>1387.6</ele>
        <time>2020-07-12T10:38:41Z</time>
      </trkpt>
      <trkpt lat="36.9785290" lon="-3.2687880">
        <ele>1387.6</ele>
        <time>2020-07-12T10:38:45Z</time>
      </trkpt>
      <trkpt lat="36.9782760" lon="-3.2688720">
        <ele>1387.8</ele>
        <time>2020-07-12T10:38:50Z</time>
      </trkpt>
      <trkpt lat="36.9782180" lon="-3.2688700">
        <ele>1387.8</ele>
        <time>2020-07-12T10:38:51Z</time>
      </trkpt>
      <trkpt lat="36.9779630" lon="-3.2687590">
        <ele>1387.6</ele>
        <time>2020-07-12T10:38:55Z</time>
      </trkpt>
      <trkpt lat="36.9778400" lon="-3.2686670">
        <ele>1387.2</ele>
        <time>2020-07-12T10:38:57Z</time>
      </trkpt>
      <trkpt lat="36.9777130" lon="-3.2685630">
        <ele>1386.6</ele>
        <time>2020-07-12T10:38:59Z</time>
      </trkpt>
      <trkpt lat="36.9776450" lon="-3.2685050">
        <ele>1386.4</ele>
        <time>2020-07-12T10:39:00Z</time>
      </trkpt>
      <trkpt lat="36.9774350" lon="-3.2683370">
        <ele>1385.2</ele>
        <time>2020-07-12T10:39:03Z</time>
      </trkpt>
      <trkpt lat="36.9772750" lon="-3.2682530">
        <ele>1384.8</ele>
        <time>2020-07-12T10:39:05Z</time>
      </trkpt>
      <trkpt lat="36.9771830" lon="-3.2682270">
        <ele>1384.6</ele>
        <time>2020-07-12T10:39:06Z</time>
      </trkpt>
      <trkpt lat="36.9770860" lon="-3.2682120">
        <ele>1384.2</ele>
        <time>2020-07-12T10:39:07Z</time>
      </trkpt>
      <trkpt lat="36.9769920" lon="-3.2682080">
        <ele>1384.0</ele>
        <time>2020-07-12T10:39:08Z</time>
      </trkpt>
      <trkpt lat="36.9767130" lon="-3.2681990">
        <ele>1383.2</ele>
        <time>2020-07-12T10:39:11Z</time>
      </trkpt>
      <trkpt lat="36.9764180" lon="-3.2681820">
        <ele>1382.6</ele>
        <time>2020-07-12T10:39:14Z</time>
      </trkpt>
      <trkpt lat="36.9762350" lon="-3.2681770">
        <ele>1382.0</ele>
        <time>2020-07-12T10:39:16Z</time>
      </trkpt>
      <trkpt lat="36.9759310" lon="-3.2681290">
        <ele>1381.2</ele>
        <time>2020-07-12T10:39:19Z</time>
      </trkpt>
      <trkpt lat="36.9757450" lon="-3.2680900">
        <ele>1380.6</ele>
        <time>2020-07-12T10:39:21Z</time>
      </trkpt>
      <trkpt lat="36.9754480" lon="-3.2680590">
        <ele>1379.4</ele>
        <time>2020-07-12T10:39:24Z</time>
      </trkpt>
      <trkpt lat="36.9751570" lon="-3.2680610">
        <ele>1379.0</ele>
        <time>2020-07-12T10:39:27Z</time>
      </trkpt>
      <trkpt lat="36.9747780" lon="-3.2681020">
        <ele>1378.4</ele>
        <time>2020-07-12T10:39:31Z</time>
      </trkpt>
      <trkpt lat="36.9745790" lon="-3.2681330">
        <ele>1378.0</ele>
        <time>2020-07-12T10:39:33Z</time>
      </trkpt>
      <trkpt lat="36.9744860" lon="-3.2681510">
        <ele>1377.8</ele>
        <time>2020-07-12T10:39:34Z</time>
      </trkpt>
      <trkpt lat="36.9742980" lon="-3.2682210">
        <ele>1377.4</ele>
        <time>2020-07-12T10:39:36Z</time>
      </trkpt>
      <trkpt lat="36.9741130" lon="-3.2683180">
        <ele>1377.0</ele>
        <time>2020-07-12T10:39:38Z</time>
      </trkpt>
      <trkpt lat="36.9738530" lon="-3.2684330">
        <ele>1376.2</ele>
        <time>2020-07-12T10:39:41Z</time>
      </trkpt>
      <trkpt lat="36.9737480" lon="-3.2684520">
        <ele>1376.0</ele>
        <time>2020-07-12T10:39:42Z</time>
      </trkpt>
      <trkpt lat="36.9736520" lon="-3.2684370">
        <ele>1375.6</ele>
        <time>2020-07-12T10:39:43Z</time>
      </trkpt>
      <trkpt lat="36.9733960" lon="-3.2682840">
        <ele>1375.2</ele>
        <time>2020-07-12T10:39:46Z</time>
      </trkpt>
      <trkpt lat="36.9733080" lon="-3.2682200">
        <ele>1375.0</ele>
        <time>2020-07-12T10:39:47Z</time>
      </trkpt>
      <trkpt lat="36.9729650" lon="-3.2679840">
        <ele>1373.8</ele>
        <time>2020-07-12T10:39:51Z</time>
      </trkpt>
      <trkpt lat="36.9726980" lon="-3.2678060">
        <ele>1373.2</ele>
        <time>2020-07-12T10:39:54Z</time>
      </trkpt>
      <trkpt lat="36.9726140" lon="-3.2677510">
        <ele>1373.2</ele>
        <time>2020-07-12T10:39:55Z</time>
      </trkpt>
      <trkpt lat="36.9723770" lon="-3.2675430">
        <ele>1372.8</ele>
        <time>2020-07-12T10:39:58Z</time>
      </trkpt>
      <trkpt lat="36.9723120" lon="-3.2674530">
        <ele>1372.6</ele>
        <time>2020-07-12T10:39:59Z</time>
      </trkpt>
      <trkpt lat="36.9722480" lon="-3.2673610">
        <ele>1372.2</ele>
        <time>2020-07-12T10:40:00Z</time>
      </trkpt>
      <trkpt lat="36.9721140" lon="-3.2671720">
        <ele>1371.6</ele>
        <time>2020-07-12T10:40:02Z</time>
      </trkpt>
      <trkpt lat="36.9720520" lon="-3.2670800">
        <ele>1371.4</ele>
        <time>2020-07-12T10:40:03Z</time>
      </trkpt>
      <trkpt lat="36.9717810" lon="-3.2667330">
        <ele>1370.4</ele>
        <time>2020-07-12T10:40:07Z</time>
      </trkpt>
      <trkpt lat="36.9716890" lon="-3.2666900">
        <ele>1370.2</ele>
        <time>2020-07-12T10:40:08Z</time>
      </trkpt>
      <trkpt lat="36.9714980" lon="-3.2667270">
        <ele>1370.0</ele>
        <time>2020-07-12T10:40:10Z</time>
      </trkpt>
      <trkpt lat="36.9712200" lon="-3.2668690">
        <ele>1369.2</ele>
        <time>2020-07-12T10:40:13Z</time>
      </trkpt>
      <trkpt lat="36.9708140" lon="-3.2670780">
        <ele>1368.2</ele>
        <time>2020-07-12T10:40:17Z</time>
      </trkpt>
      <trkpt lat="36.9707060" lon="-3.2671290">
        <ele>1367.8</ele>
        <time>2020-07-12T10:40:18Z</time>
      </trkpt>
      <trkpt lat="36.9704930" lon="-3.2672050">
        <ele>1367.2</ele>
        <time>2020-07-12T10:40:20Z</time>
      </trkpt>
      <trkpt lat="36.9703830" lon="-3.2672090">
        <ele>1366.6</ele>
        <time>2020-07-12T10:40:21Z</time>
      </trkpt>
      <trkpt lat="36.9702650" lon="-3.2671850">
        <ele>1365.6</ele>
        <time>2020-07-12T10:40:22Z</time>
      </trkpt>
      <trkpt lat="36.9700420" lon="-3.2670590">
        <ele>1363.8</ele>
        <time>2020-07-12T10:40:24Z</time>
      </trkpt>
      <trkpt lat="36.9699460" lon="-3.2669670">
        <ele>1363.0</ele>
        <time>2020-07-12T10:40:25Z</time>
      </trkpt>
      <trkpt lat="36.9698530" lon="-3.2668690">
        <ele>1362.0</ele>
        <time>2020-07-12T10:40:26Z</time>
      </trkpt>
      <trkpt lat="36.9697480" lon="-3.2667660">
        <ele>1361.4</ele>
        <time>2020-07-12T10:40:27Z</time>
      </trkpt>
      <trkpt lat="36.9696540" lon="-3.2667050">
        <ele>1360.6</ele>
        <time>2020-07-12T10:40:28Z</time>
      </trkpt>
      <trkpt lat="36.9695330" lon="-3.2666720">
        <ele>1359.8</ele>
        <time>2020-07-12T10:40:29Z</time>
      </trkpt>
      <trkpt lat="36.9694070" lon="-3.2666750">
        <ele>1359.0</ele>
        <time>2020-07-12T10:40:30Z</time>
      </trkpt>
      <trkpt lat="36.9692960" lon="-3.2667060">
        <ele>1358.0</ele>
        <time>2020-07-12T10:40:31Z</time>
      </trkpt>
      <trkpt lat="36.9691700" lon="-3.2667460">
        <ele>1357.4</ele>
        <time>2020-07-12T10:40:32Z</time>
      </trkpt>
      <trkpt lat="36.9690600" lon="-3.2667740">
        <ele>1356.6</ele>
        <time>2020-07-12T10:40:33Z</time>
      </trkpt>
      <trkpt lat="36.9689520" lon="-3.2668010">
        <ele>1356.2</ele>
        <time>2020-07-12T10:40:34Z</time>
      </trkpt>
      <trkpt lat="36.9687430" lon="-3.2668540">
        <ele>1356.0</ele>
        <time>2020-07-12T10:40:36Z</time>
      </trkpt>
      <trkpt lat="36.9685360" lon="-3.2668800">
        <ele>1355.8</ele>
        <time>2020-07-12T10:40:38Z</time>
      </trkpt>
      <trkpt lat="36.9683590" lon="-3.2668250">
        <ele>1356.4</ele>
        <time>2020-07-12T10:40:40Z</time>
      </trkpt>
      <trkpt lat="36.9679990" lon="-3.2667240">
        <ele>1357.2</ele>
        <time>2020-07-12T10:40:44Z</time>
      </trkpt>
      <trkpt lat="36.9679170" lon="-3.2667060">
        <ele>1357.2</ele>
        <time>2020-07-12T10:40:45Z</time>
      </trkpt>
      <trkpt lat="36.9677520" lon="-3.2666830">
        <ele>1357.6</ele>
        <time>2020-07-12T10:40:47Z</time>
      </trkpt>
      <trkpt lat="36.9675130" lon="-3.2666810">
        <ele>1358.4</ele>
        <time>2020-07-12T10:40:50Z</time>
      </trkpt>
      <trkpt lat="36.9674470" lon="-3.2666890">
        <ele>1358.6</ele>
        <time>2020-07-12T10:40:51Z</time>
      </trkpt>
      <trkpt lat="36.9673740" lon="-3.2667120">
        <ele>1358.8</ele>
        <time>2020-07-12T10:40:52Z</time>
      </trkpt>
      <trkpt lat="36.9672450" lon="-3.2667500">
        <ele>1358.8</ele>
        <time>2020-07-12T10:40:54Z</time>
      </trkpt>
      <trkpt lat="36.9670910" lon="-3.2667990">
        <ele>1359.0</ele>
        <time>2020-07-12T10:40:56Z</time>
      </trkpt>
      <trkpt lat="36.9669510" lon="-3.2668530">
        <ele>1359.4</ele>
        <time>2020-07-12T10:40:58Z</time>
      </trkpt>
      <trkpt lat="36.9668830" lon="-3.2668750">
        <ele>1359.4</ele>
        <time>2020-07-12T10:40:59Z</time>
      </trkpt>
      <trkpt lat="36.9666700" lon="-3.2669210">
        <ele>1359.8</ele>
        <time>2020-07-12T10:41:02Z</time>
      </trkpt>
      <trkpt lat="36.9666040" lon="-3.2669350">
        <ele>1360.0</ele>
        <time>2020-07-12T10:41:03Z</time>
      </trkpt>
      <trkpt lat="36.9665360" lon="-3.2669500">
        <ele>1360.4</ele>
        <time>2020-07-12T10:41:04Z</time>
      </trkpt>
      <trkpt lat="36.9664050" lon="-3.2669560">
        <ele>1361.0</ele>
        <time>2020-07-12T10:41:06Z</time>
      </trkpt>
      <trkpt lat="36.9663040" lon="-3.2669770">
        <ele>1361.6</ele>
        <time>2020-07-12T10:41:08Z</time>
      </trkpt>
      <trkpt lat="36.9661750" lon="-3.2669420">
        <ele>1362.2</ele>
        <time>2020-07-12T10:41:10Z</time>
      </trkpt>
      <trkpt lat="36.9661150" lon="-3.2669280">
        <ele>1362.2</ele>
        <time>2020-07-12T10:41:11Z</time>
      </trkpt>
      <trkpt lat="36.9660510" lon="-3.2669020">
        <ele>1362.4</ele>
        <time>2020-07-12T10:41:12Z</time>
      </trkpt>
      <trkpt lat="36.9659290" lon="-3.2668620">
        <ele>1362.8</ele>
        <time>2020-07-12T10:41:14Z</time>
      </trkpt>
      <trkpt lat="36.9657540" lon="-3.2668180">
        <ele>1363.0</ele>
        <time>2020-07-12T10:41:17Z</time>
      </trkpt>
      <trkpt lat="36.9656400" lon="-3.2668250">
        <ele>1363.2</ele>
        <time>2020-07-12T10:41:19Z</time>
      </trkpt>
      <trkpt lat="36.9655480" lon="-3.2668680">
        <ele>1363.4</ele>
        <time>2020-07-12T10:41:21Z</time>
      </trkpt>
      <trkpt lat="36.9653930" lon="-3.2669630">
        <ele>1364.0</ele>
        <time>2020-07-12T10:41:24Z</time>
      </trkpt>
      <trkpt lat="36.9652210" lon="-3.2670920">
        <ele>1364.6</ele>
        <time>2020-07-12T10:41:28Z</time>
      </trkpt>
      <trkpt lat="36.9651280" lon="-3.2671370">
        <ele>1365.0</ele>
        <time>2020-07-12T10:41:30Z</time>
      </trkpt>
      <trkpt lat="36.9650780" lon="-3.2671530">
        <ele>1365.2</ele>
        <time>2020-07-12T10:41:31Z</time>
      </trkpt>
      <trkpt lat="36.9649690" lon="-3.2671800">
        <ele>1365.4</ele>
        <time>2020-07-12T10:41:33Z</time>
      </trkpt>
      <trkpt lat="36.9646200" lon="-3.2671980">
        <ele>1365.8</ele>
        <time>2020-07-12T10:41:39Z</time>
      </trkpt>
      <trkpt lat="36.9643000" lon="-3.2671860">
        <ele>1366.2</ele>
        <time>2020-07-12T10:41:44Z</time>
      </trkpt>
      <trkpt lat="36.9641610" lon="-3.2671370">
        <ele>1366.2</ele>
        <time>2020-07-12T10:41:46Z</time>
      </trkpt>
      <trkpt lat="36.9639360" lon="-3.2669420">
        <ele>1366.0</ele>
        <time>2020-07-12T10:41:49Z</time>
      </trkpt>
      <trkpt lat="36.9637100" lon="-3.2667110">
        <ele>1365.0</ele>
        <time>2020-07-12T10:41:52Z</time>
      </trkpt>
      <trkpt lat="36.9636140" lon="-3.2666580">
        <ele>1364.4</ele>
        <time>2020-07-12T10:41:53Z</time>
      </trkpt>
      <trkpt lat="36.9635040" lon="-3.2666240">
        <ele>1363.8</ele>
        <time>2020-07-12T10:41:54Z</time>
      </trkpt>
      <trkpt lat="36.9633000" lon="-3.2665870">
        <ele>1362.4</ele>
        <time>2020-07-12T10:41:56Z</time>
      </trkpt>
      <trkpt lat="36.9631850" lon="-3.2665720">
        <ele>1361.8</ele>
        <time>2020-07-12T10:41:57Z</time>
      </trkpt>
      <trkpt lat="36.9630820" lon="-3.2665580">
        <ele>1361.2</ele>
        <time>2020-07-12T10:41:58Z</time>
      </trkpt>
      <trkpt lat="36.9629710" lon="-3.2665410">
        <ele>1360.6</ele>
        <time>2020-07-12T10:41:59Z</time>
      </trkpt>
      <trkpt lat="36.9627530" lon="-3.2665120">
        <ele>1360.0</ele>
        <time>2020-07-12T10:42:01Z</time>
      </trkpt>
      <trkpt lat="36.9625320" lon="-3.2664760">
        <ele>1359.4</ele>
        <time>2020-07-12T10:42:03Z</time>
      </trkpt>
      <trkpt lat="36.9624300" lon="-3.2664490">
        <ele>1359.0</ele>
        <time>2020-07-12T10:42:04Z</time>
      </trkpt>
      <trkpt lat="36.9623320" lon="-3.2664040">
        <ele>1358.6</ele>
        <time>2020-07-12T10:42:05Z</time>
      </trkpt>
      <trkpt lat="36.9622330" lon="-3.2663430">
        <ele>1358.2</ele>
        <time>2020-07-12T10:42:06Z</time>
      </trkpt>
      <trkpt lat="36.9621330" lon="-3.2662690">
        <ele>1357.8</ele>
        <time>2020-07-12T10:42:07Z</time>
      </trkpt>
      <trkpt lat="36.9619370" lon="-3.2661530">
        <ele>1356.8</ele>
        <time>2020-07-12T10:42:09Z</time>
      </trkpt>
      <trkpt lat="36.9617320" lon="-3.2661790">
        <ele>1355.6</ele>
        <time>2020-07-12T10:42:11Z</time>
      </trkpt>
      <trkpt lat="36.9616200" lon="-3.2662280">
        <ele>1355.2</ele>
        <time>2020-07-12T10:42:12Z</time>
      </trkpt>
      <trkpt lat="36.9615200" lon="-3.2662800">
        <ele>1354.6</ele>
        <time>2020-07-12T10:42:13Z</time>
      </trkpt>
      <trkpt lat="36.9614160" lon="-3.2663330">
        <ele>1353.6</ele>
        <time>2020-07-12T10:42:14Z</time>
      </trkpt>
      <trkpt lat="36.9613160" lon="-3.2663720">
        <ele>1352.8</ele>
        <time>2020-07-12T10:42:15Z</time>
      </trkpt>
      <trkpt lat="36.9612090" lon="-3.2663950">
        <ele>1352.2</ele>
        <time>2020-07-12T10:42:16Z</time>
      </trkpt>
      <trkpt lat="36.9610870" lon="-3.2664170">
        <ele>1351.4</ele>
        <time>2020-07-12T10:42:17Z</time>
      </trkpt>
      <trkpt lat="36.9609650" lon="-3.2664350">
        <ele>1351.0</ele>
        <time>2020-07-12T10:42:18Z</time>
      </trkpt>
      <trkpt lat="36.9606440" lon="-3.2664510">
        <ele>1350.0</ele>
        <time>2020-07-12T10:42:21Z</time>
      </trkpt>
      <trkpt lat="36.9605300" lon="-3.2664270">
        <ele>1349.4</ele>
        <time>2020-07-12T10:42:22Z</time>
      </trkpt>
      <trkpt lat="36.9604270" lon="-3.2663570">
        <ele>1348.8</ele>
        <time>2020-07-12T10:42:23Z</time>
      </trkpt>
      <trkpt lat="36.9603340" lon="-3.2662890">
        <ele>1348.4</ele>
        <time>2020-07-12T10:42:24Z</time>
      </trkpt>
      <trkpt lat="36.9602460" lon="-3.2662030">
        <ele>1348.0</ele>
        <time>2020-07-12T10:42:25Z</time>
      </trkpt>
      <trkpt lat="36.9601600" lon="-3.2661270">
        <ele>1347.4</ele>
        <time>2020-07-12T10:42:26Z</time>
      </trkpt>
      <trkpt lat="36.9598730" lon="-3.2658760">
        <ele>1346.0</ele>
        <time>2020-07-12T10:42:29Z</time>
      </trkpt>
      <trkpt lat="36.9596670" lon="-3.2657430">
        <ele>1345.0</ele>
        <time>2020-07-12T10:42:31Z</time>
      </trkpt>
      <trkpt lat="36.9595390" lon="-3.2657560">
        <ele>1344.4</ele>
        <time>2020-07-12T10:42:32Z</time>
      </trkpt>
      <trkpt lat="36.9594250" lon="-3.2657710">
        <ele>1343.8</ele>
        <time>2020-07-12T10:42:33Z</time>
      </trkpt>
      <trkpt lat="36.9593280" lon="-3.2658190">
        <ele>1343.2</ele>
        <time>2020-07-12T10:42:34Z</time>
      </trkpt>
      <trkpt lat="36.9591280" lon="-3.2659210">
        <ele>1342.8</ele>
        <time>2020-07-12T10:42:36Z</time>
      </trkpt>
      <trkpt lat="36.9589340" lon="-3.2660180">
        <ele>1343.0</ele>
        <time>2020-07-12T10:42:38Z</time>
      </trkpt>
      <trkpt lat="36.9587530" lon="-3.2660610">
        <ele>1342.8</ele>
        <time>2020-07-12T10:42:40Z</time>
      </trkpt>
      <trkpt lat="36.9584520" lon="-3.2660440">
        <ele>1342.2</ele>
        <time>2020-07-12T10:42:43Z</time>
      </trkpt>
      <trkpt lat="36.9583560" lon="-3.2660430">
        <ele>1341.8</ele>
        <time>2020-07-12T10:42:44Z</time>
      </trkpt>
      <trkpt lat="36.9581890" lon="-3.2660750">
        <ele>1341.4</ele>
        <time>2020-07-12T10:42:46Z</time>
      </trkpt>
      <trkpt lat="36.9579990" lon="-3.2661280">
        <ele>1341.2</ele>
        <time>2020-07-12T10:42:48Z</time>
      </trkpt>
      <trkpt lat="36.9579100" lon="-3.2661580">
        <ele>1341.2</ele>
        <time>2020-07-12T10:42:49Z</time>
      </trkpt>
      <trkpt lat="36.9578210" lon="-3.2661820">
        <ele>1341.0</ele>
        <time>2020-07-12T10:42:50Z</time>
      </trkpt>
      <trkpt lat="36.9577370" lon="-3.2662030">
        <ele>1341.0</ele>
        <time>2020-07-12T10:42:51Z</time>
      </trkpt>
      <trkpt lat="36.9575490" lon="-3.2662420">
        <ele>1340.8</ele>
        <time>2020-07-12T10:42:53Z</time>
      </trkpt>
      <trkpt lat="36.9574480" lon="-3.2662630">
        <ele>1340.6</ele>
        <time>2020-07-12T10:42:54Z</time>
      </trkpt>
      <trkpt lat="36.9570670" lon="-3.2662960">
        <ele>1340.4</ele>
        <time>2020-07-12T10:42:58Z</time>
      </trkpt>
      <trkpt lat="36.9569700" lon="-3.2662690">
        <ele>1340.2</ele>
        <time>2020-07-12T10:42:59Z</time>
      </trkpt>
      <trkpt lat="36.9567840" lon="-3.2661820">
        <ele>1339.8</ele>
        <time>2020-07-12T10:43:01Z</time>
      </trkpt>
      <trkpt lat="36.9565880" lon="-3.2660720">
        <ele>1339.0</ele>
        <time>2020-07-12T10:43:03Z</time>
      </trkpt>
      <trkpt lat="36.9564970" lon="-3.2660220">
        <ele>1338.4</ele>
        <time>2020-07-12T10:43:04Z</time>
      </trkpt>
      <trkpt lat="36.9563850" lon="-3.2659830">
        <ele>1337.8</ele>
        <time>2020-07-12T10:43:05Z</time>
      </trkpt>
      <trkpt lat="36.9562720" lon="-3.2659710">
        <ele>1337.4</ele>
        <time>2020-07-12T10:43:06Z</time>
      </trkpt>
      <trkpt lat="36.9561370" lon="-3.2659760">
        <ele>1336.8</ele>
        <time>2020-07-12T10:43:07Z</time>
      </trkpt>
      <trkpt lat="36.9560130" lon="-3.2659790">
        <ele>1336.2</ele>
        <time>2020-07-12T10:43:08Z</time>
      </trkpt>
      <trkpt lat="36.9556570" lon="-3.2659930">
        <ele>1335.0</ele>
        <time>2020-07-12T10:43:11Z</time>
      </trkpt>
      <trkpt lat="36.9555190" lon="-3.2660200">
        <ele>1334.4</ele>
        <time>2020-07-12T10:43:12Z</time>
      </trkpt>
      <trkpt lat="36.9554010" lon="-3.2660660">
        <ele>1333.6</ele>
        <time>2020-07-12T10:43:13Z</time>
      </trkpt>
      <trkpt lat="36.9551820" lon="-3.2662120">
        <ele>1332.6</ele>
        <time>2020-07-12T10:43:15Z</time>
      </trkpt>
      <trkpt lat="36.9549300" lon="-3.2663440">
        <ele>1330.8</ele>
        <time>2020-07-12T10:43:17Z</time>
      </trkpt>
      <trkpt lat="36.9546840" lon="-3.2664150">
        <ele>1329.0</ele>
        <time>2020-07-12T10:43:19Z</time>
      </trkpt>
      <trkpt lat="36.9545590" lon="-3.2664370">
        <ele>1328.0</ele>
        <time>2020-07-12T10:43:20Z</time>
      </trkpt>
      <trkpt lat="36.9543090" lon="-3.2664660">
        <ele>1326.8</ele>
        <time>2020-07-12T10:43:22Z</time>
      </trkpt>
      <trkpt lat="36.9540750" lon="-3.2664790">
        <ele>1325.8</ele>
        <time>2020-07-12T10:43:24Z</time>
      </trkpt>
      <trkpt lat="36.9538620" lon="-3.2665110">
        <ele>1324.8</ele>
        <time>2020-07-12T10:43:26Z</time>
      </trkpt>
      <trkpt lat="36.9537460" lon="-3.2665460">
        <ele>1324.4</ele>
        <time>2020-07-12T10:43:27Z</time>
      </trkpt>
      <trkpt lat="36.9534310" lon="-3.2666250">
        <ele>1324.2</ele>
        <time>2020-07-12T10:43:30Z</time>
      </trkpt>
      <trkpt lat="36.9532320" lon="-3.2665390">
        <ele>1324.2</ele>
        <time>2020-07-12T10:43:32Z</time>
      </trkpt>
      <trkpt lat="36.9531020" lon="-3.2663490">
        <ele>1324.0</ele>
        <time>2020-07-12T10:43:34Z</time>
      </trkpt>
      <trkpt lat="36.9530780" lon="-3.2661060">
        <ele>1323.8</ele>
        <time>2020-07-12T10:43:36Z</time>
      </trkpt>
      <trkpt lat="36.9530900" lon="-3.2659750">
        <ele>1323.6</ele>
        <time>2020-07-12T10:43:37Z</time>
      </trkpt>
      <trkpt lat="36.9531050" lon="-3.2657390">
        <ele>1323.4</ele>
        <time>2020-07-12T10:43:39Z</time>
      </trkpt>
      <trkpt lat="36.9530250" lon="-3.2655290">
        <ele>1323.2</ele>
        <time>2020-07-12T10:43:41Z</time>
      </trkpt>
      <trkpt lat="36.9528410" lon="-3.2654140">
        <ele>1322.8</ele>
        <time>2020-07-12T10:43:43Z</time>
      </trkpt>
      <trkpt lat="36.9526480" lon="-3.2654340">
        <ele>1322.4</ele>
        <time>2020-07-12T10:43:45Z</time>
      </trkpt>
      <trkpt lat="36.9524410" lon="-3.2654740">
        <ele>1321.8</ele>
        <time>2020-07-12T10:43:47Z</time>
      </trkpt>
      <trkpt lat="36.9523350" lon="-3.2654680">
        <ele>1321.6</ele>
        <time>2020-07-12T10:43:48Z</time>
      </trkpt>
      <trkpt lat="36.9522430" lon="-3.2654330">
        <ele>1321.2</ele>
        <time>2020-07-12T10:43:49Z</time>
      </trkpt>
      <trkpt lat="36.9520480" lon="-3.2653530">
        <ele>1320.2</ele>
        <time>2020-07-12T10:43:51Z</time>
      </trkpt>
      <trkpt lat="36.9519370" lon="-3.2653320">
        <ele>1319.6</ele>
        <time>2020-07-12T10:43:52Z</time>
      </trkpt>
      <trkpt lat="36.9517070" lon="-3.2653690">
        <ele>1318.4</ele>
        <time>2020-07-12T10:43:54Z</time>
      </trkpt>
      <trkpt lat="36.9514950" lon="-3.2654270">
        <ele>1317.2</ele>
        <time>2020-07-12T10:43:56Z</time>
      </trkpt>
      <trkpt lat="36.9512850" lon="-3.2654780">
        <ele>1316.4</ele>
        <time>2020-07-12T10:43:58Z</time>
      </trkpt>
      <trkpt lat="36.9511770" lon="-3.2655050">
        <ele>1315.8</ele>
        <time>2020-07-12T10:43:59Z</time>
      </trkpt>
      <trkpt lat="36.9510750" lon="-3.2655320">
        <ele>1315.6</ele>
        <time>2020-07-12T10:44:00Z</time>
      </trkpt>
      <trkpt lat="36.9508780" lon="-3.2655870">
        <ele>1315.0</ele>
        <time>2020-07-12T10:44:02Z</time>
      </trkpt>
      <trkpt lat="36.9505990" lon="-3.2656690">
        <ele>1314.8</ele>
        <time>2020-07-12T10:44:05Z</time>
      </trkpt>
      <trkpt lat="36.9504040" lon="-3.2657350">
        <ele>1314.8</ele>
        <time>2020-07-12T10:44:07Z</time>
      </trkpt>
      <trkpt lat="36.9503100" lon="-3.2657670">
        <ele>1314.8</ele>
        <time>2020-07-12T10:44:08Z</time>
      </trkpt>
      <trkpt lat="36.9501330" lon="-3.2658220">
        <ele>1314.6</ele>
        <time>2020-07-12T10:44:10Z</time>
      </trkpt>
      <trkpt lat="36.9500400" lon="-3.2658560">
        <ele>1314.8</ele>
        <time>2020-07-12T10:44:11Z</time>
      </trkpt>
      <trkpt lat="36.9498620" lon="-3.2659190">
        <ele>1314.8</ele>
        <time>2020-07-12T10:44:13Z</time>
      </trkpt>
      <trkpt lat="36.9496170" lon="-3.2660350">
        <ele>1314.6</ele>
        <time>2020-07-12T10:44:16Z</time>
      </trkpt>
      <trkpt lat="36.9495260" lon="-3.2660920">
        <ele>1314.6</ele>
        <time>2020-07-12T10:44:17Z</time>
      </trkpt>
      <trkpt lat="36.9493040" lon="-3.2662660">
        <ele>1314.4</ele>
        <time>2020-07-12T10:44:20Z</time>
      </trkpt>
      <trkpt lat="36.9491620" lon="-3.2663910">
        <ele>1314.0</ele>
        <time>2020-07-12T10:44:22Z</time>
      </trkpt>
      <trkpt lat="36.9488720" lon="-3.2666420">
        <ele>1313.8</ele>
        <time>2020-07-12T10:44:26Z</time>
      </trkpt>
      <trkpt lat="36.9485080" lon="-3.2669100">
        <ele>1313.4</ele>
        <time>2020-07-12T10:44:31Z</time>
      </trkpt>
      <trkpt lat="36.9480970" lon="-3.2672860">
        <ele>1312.8</ele>
        <time>2020-07-12T10:44:37Z</time>
      </trkpt>
      <trkpt lat="36.9475710" lon="-3.2676790">
        <ele>1312.6</ele>
        <time>2020-07-12T10:44:44Z</time>
      </trkpt>
      <trkpt lat="36.9474970" lon="-3.2677330">
        <ele>1312.6</ele>
        <time>2020-07-12T10:44:45Z</time>
      </trkpt>
      <trkpt lat="36.9471010" lon="-3.2680690">
        <ele>1312.6</ele>
        <time>2020-07-12T10:44:51Z</time>
      </trkpt>
      <trkpt lat="36.9468120" lon="-3.2684060">
        <ele>1314.0</ele>
        <time>2020-07-12T10:44:57Z</time>
      </trkpt>
      <trkpt lat="36.9466810" lon="-3.2686320">
        <ele>1315.2</ele>
        <time>2020-07-12T10:45:01Z</time>
      </trkpt>
      <trkpt lat="36.9466280" lon="-3.2687390">
        <ele>1315.6</ele>
        <time>2020-07-12T10:45:03Z</time>
      </trkpt>
      <trkpt lat="36.9465730" lon="-3.2688380">
        <ele>1316.2</ele>
        <time>2020-07-12T10:45:05Z</time>
      </trkpt>
      <trkpt lat="36.9465380" lon="-3.2688860">
        <ele>1316.4</ele>
        <time>2020-07-12T10:45:06Z</time>
      </trkpt>
      <trkpt lat="36.9464300" lon="-3.2690040">
        <ele>1317.2</ele>
        <time>2020-07-12T10:45:09Z</time>
      </trkpt>
      <trkpt lat="36.9463950" lon="-3.2690360">
        <ele>1317.4</ele>
        <time>2020-07-12T10:45:10Z</time>
      </trkpt>
      <trkpt lat="36.9462000" lon="-3.2691930">
        <ele>1318.6</ele>
        <time>2020-07-12T10:45:15Z</time>
      </trkpt>
      <trkpt lat="36.9461650" lon="-3.2692210">
        <ele>1318.8</ele>
        <time>2020-07-12T10:45:16Z</time>
      </trkpt>
      <trkpt lat="36.9460070" lon="-3.2693180">
        <ele>1319.6</ele>
        <time>2020-07-12T10:45:20Z</time>
      </trkpt>
      <trkpt lat="36.9458170" lon="-3.2694230">
        <ele>1320.4</ele>
        <time>2020-07-12T10:45:25Z</time>
      </trkpt>
      <trkpt lat="36.9457360" lon="-3.2694610">
        <ele>1320.8</ele>
        <time>2020-07-12T10:45:27Z</time>
      </trkpt>
      <trkpt lat="36.9454900" lon="-3.2695500">
        <ele>1322.0</ele>
        <time>2020-07-12T10:45:33Z</time>
      </trkpt>
      <trkpt lat="36.9454490" lon="-3.2695550">
        <ele>1322.2</ele>
        <time>2020-07-12T10:45:34Z</time>
      </trkpt>
      <trkpt lat="36.9452720" lon="-3.2695570">
        <ele>1323.2</ele>
        <time>2020-07-12T10:45:38Z</time>
      </trkpt>
      <trkpt lat="36.9451900" lon="-3.2695380">
        <ele>1323.6</ele>
        <time>2020-07-12T10:45:40Z</time>
      </trkpt>
      <trkpt lat="36.9451440" lon="-3.2695250">
        <ele>1323.8</ele>
        <time>2020-07-12T10:45:41Z</time>
      </trkpt>
      <trkpt lat="36.9450080" lon="-3.2694590">
        <ele>1324.2</ele>
        <time>2020-07-12T10:45:44Z</time>
      </trkpt>
      <trkpt lat="36.9449690" lon="-3.2694260">
        <ele>1324.4</ele>
        <time>2020-07-12T10:45:45Z</time>
      </trkpt>
      <trkpt lat="36.9449050" lon="-3.2693420">
        <ele>1324.4</ele>
        <time>2020-07-12T10:45:47Z</time>
      </trkpt>
      <trkpt lat="36.9448170" lon="-3.2690750">
        <ele>1324.6</ele>
        <time>2020-07-12T10:45:51Z</time>
      </trkpt>
      <trkpt lat="36.9448630" lon="-3.2687690">
        <ele>1324.6</ele>
        <time>2020-07-12T10:45:55Z</time>
      </trkpt>
      <trkpt lat="36.9450100" lon="-3.2682450">
        <ele>1324.2</ele>
        <time>2020-07-12T10:46:02Z</time>
      </trkpt>
      <trkpt lat="36.9450230" lon="-3.2681710">
        <ele>1324.2</ele>
        <time>2020-07-12T10:46:03Z</time>
      </trkpt>
      <trkpt lat="36.9450370" lon="-3.2680320">
        <ele>1324.2</ele>
        <time>2020-07-12T10:46:05Z</time>
      </trkpt>
      <trkpt lat="36.9450540" lon="-3.2676890">
        <ele>1324.2</ele>
        <time>2020-07-12T10:46:10Z</time>
      </trkpt>
      <trkpt lat="36.9450670" lon="-3.2674330">
        <ele>1324.2</ele>
        <time>2020-07-12T10:46:13Z</time>
      </trkpt>
      <trkpt lat="36.9451120" lon="-3.2672030">
        <ele>1324.6</ele>
        <time>2020-07-12T10:46:16Z</time>
      </trkpt>
      <trkpt lat="36.9451250" lon="-3.2671210">
        <ele>1324.6</ele>
        <time>2020-07-12T10:46:17Z</time>
      </trkpt>
      <trkpt lat="36.9451330" lon="-3.2667170">
        <ele>1325.2</ele>
        <time>2020-07-12T10:46:22Z</time>
      </trkpt>
      <trkpt lat="36.9451310" lon="-3.2666340">
        <ele>1325.4</ele>
        <time>2020-07-12T10:46:23Z</time>
      </trkpt>
      <trkpt lat="36.9451580" lon="-3.2663920">
        <ele>1325.6</ele>
        <time>2020-07-12T10:46:26Z</time>
      </trkpt>
      <trkpt lat="36.9451800" lon="-3.2663090">
        <ele>1325.6</ele>
        <time>2020-07-12T10:46:27Z</time>
      </trkpt>
      <trkpt lat="36.9452580" lon="-3.2660870">
        <ele>1326.0</ele>
        <time>2020-07-12T10:46:30Z</time>
      </trkpt>
      <trkpt lat="36.9453500" lon="-3.2658760">
        <ele>1326.0</ele>
        <time>2020-07-12T10:46:33Z</time>
      </trkpt>
      <trkpt lat="36.9455330" lon="-3.2654810">
        <ele>1326.4</ele>
        <time>2020-07-12T10:46:39Z</time>
      </trkpt>
      <trkpt lat="36.9456460" lon="-3.2653110">
        <ele>1326.4</ele>
        <time>2020-07-12T10:46:42Z</time>
      </trkpt>
      <trkpt lat="36.9458690" lon="-3.2649420">
        <ele>1326.6</ele>
        <time>2020-07-12T10:46:48Z</time>
      </trkpt>
      <trkpt lat="36.9458810" lon="-3.2648640">
        <ele>1326.6</ele>
        <time>2020-07-12T10:46:49Z</time>
      </trkpt>
      <trkpt lat="36.9458870" lon="-3.2645510">
        <ele>1326.4</ele>
        <time>2020-07-12T10:46:53Z</time>
      </trkpt>
      <trkpt lat="36.9459090" lon="-3.2643340">
        <ele>1326.6</ele>
        <time>2020-07-12T10:46:56Z</time>
      </trkpt>
      <trkpt lat="36.9459490" lon="-3.2640470">
        <ele>1326.6</ele>
        <time>2020-07-12T10:46:59Z</time>
      </trkpt>
      <trkpt lat="36.9459720" lon="-3.2638730">
        <ele>1326.6</ele>
        <time>2020-07-12T10:47:01Z</time>
      </trkpt>
      <trkpt lat="36.9460710" lon="-3.2632080">
        <ele>1326.0</ele>
        <time>2020-07-12T10:47:08Z</time>
      </trkpt>
      <trkpt lat="36.9461590" lon="-3.2628420">
        <ele>1325.4</ele>
        <time>2020-07-12T10:47:12Z</time>
      </trkpt>
      <trkpt lat="36.9462330" lon="-3.2625770">
        <ele>1325.2</ele>
        <time>2020-07-12T10:47:15Z</time>
      </trkpt>
      <trkpt lat="36.9463430" lon="-3.2622170">
        <ele>1325.0</ele>
        <time>2020-07-12T10:47:19Z</time>
      </trkpt>
      <trkpt lat="36.9464990" lon="-3.2619070">
        <ele>1324.8</ele>
        <time>2020-07-12T10:47:23Z</time>
      </trkpt>
      <trkpt lat="36.9465980" lon="-3.2616530">
        <ele>1324.6</ele>
        <time>2020-07-12T10:47:26Z</time>
      </trkpt>
      <trkpt lat="36.9465940" lon="-3.2615580">
        <ele>1324.6</ele>
        <time>2020-07-12T10:47:27Z</time>
      </trkpt>
      <trkpt lat="36.9465350" lon="-3.2613280">
        <ele>1324.6</ele>
        <time>2020-07-12T10:47:30Z</time>
      </trkpt>
      <trkpt lat="36.9465160" lon="-3.2611790">
        <ele>1325.4</ele>
        <time>2020-07-12T10:47:32Z</time>
      </trkpt>
      <trkpt lat="36.9465310" lon="-3.2610460">
        <ele>1325.8</ele>
        <time>2020-07-12T10:47:34Z</time>
      </trkpt>
      <trkpt lat="36.9466140" lon="-3.2607840">
        <ele>1326.4</ele>
        <time>2020-07-12T10:47:38Z</time>
      </trkpt>
      <trkpt lat="36.9466390" lon="-3.2607210">
        <ele>1326.8</ele>
        <time>2020-07-12T10:47:39Z</time>
      </trkpt>
      <trkpt lat="36.9467140" lon="-3.2605300">
        <ele>1327.4</ele>
        <time>2020-07-12T10:47:42Z</time>
      </trkpt>
      <trkpt lat="36.9467620" lon="-3.2603900">
        <ele>1327.6</ele>
        <time>2020-07-12T10:47:44Z</time>
      </trkpt>
      <trkpt lat="36.9468120" lon="-3.2602580">
        <ele>1327.8</ele>
        <time>2020-07-12T10:47:46Z</time>
      </trkpt>
      <trkpt lat="36.9468420" lon="-3.2601840">
        <ele>1328.0</ele>
        <time>2020-07-12T10:47:47Z</time>
      </trkpt>
      <trkpt lat="36.9470700" lon="-3.2595730">
        <ele>1328.6</ele>
        <time>2020-07-12T10:47:56Z</time>
      </trkpt>
      <trkpt lat="36.9471200" lon="-3.2594400">
        <ele>1328.8</ele>
        <time>2020-07-12T10:47:58Z</time>
      </trkpt>
      <trkpt lat="36.9472970" lon="-3.2590660">
        <ele>1329.4</ele>
        <time>2020-07-12T10:48:04Z</time>
      </trkpt>
      <trkpt lat="36.9473420" lon="-3.2590200">
        <ele>1329.4</ele>
        <time>2020-07-12T10:48:05Z</time>
      </trkpt>
      <trkpt lat="36.9475060" lon="-3.2589230">
        <ele>1329.8</ele>
        <time>2020-07-12T10:48:08Z</time>
      </trkpt>
      <trkpt lat="36.9475610" lon="-3.2588990">
        <ele>1329.8</ele>
        <time>2020-07-12T10:48:09Z</time>
      </trkpt>
      <trkpt lat="36.9477890" lon="-3.2587850">
        <ele>1330.4</ele>
        <time>2020-07-12T10:48:13Z</time>
      </trkpt>
      <trkpt lat="36.9478350" lon="-3.2587290">
        <ele>1330.4</ele>
        <time>2020-07-12T10:48:14Z</time>
      </trkpt>
      <trkpt lat="36.9478930" lon="-3.2585930">
        <ele>1330.6</ele>
        <time>2020-07-12T10:48:16Z</time>
      </trkpt>
      <trkpt lat="36.9479160" lon="-3.2584400">
        <ele>1330.6</ele>
        <time>2020-07-12T10:48:18Z</time>
      </trkpt>
      <trkpt lat="36.9479460" lon="-3.2582360">
        <ele>1330.8</ele>
        <time>2020-07-12T10:48:21Z</time>
      </trkpt>
      <trkpt lat="36.9480210" lon="-3.2579540">
        <ele>1331.6</ele>
        <time>2020-07-12T10:48:25Z</time>
      </trkpt>
      <trkpt lat="36.9480610" lon="-3.2578300">
        <ele>1332.0</ele>
        <time>2020-07-12T10:48:27Z</time>
      </trkpt>
      <trkpt lat="36.9481090" lon="-3.2575710">
        <ele>1332.6</ele>
        <time>2020-07-12T10:48:31Z</time>
      </trkpt>
      <trkpt lat="36.9480910" lon="-3.2574950">
        <ele>1332.8</ele>
        <time>2020-07-12T10:48:32Z</time>
      </trkpt>
      <trkpt lat="36.9480300" lon="-3.2573740">
        <ele>1333.2</ele>
        <time>2020-07-12T10:48:34Z</time>
      </trkpt>
      <trkpt lat="36.9479750" lon="-3.2573180">
        <ele>1333.2</ele>
        <time>2020-07-12T10:48:35Z</time>
      </trkpt>
      <trkpt lat="36.9477770" lon="-3.2572640">
        <ele>1333.2</ele>
        <time>2020-07-12T10:48:38Z</time>
      </trkpt>
      <trkpt lat="36.9475910" lon="-3.2571440">
        <ele>1333.0</ele>
        <time>2020-07-12T10:48:41Z</time>
      </trkpt>
      <trkpt lat="36.9475390" lon="-3.2570540">
        <ele>1332.8</ele>
        <time>2020-07-12T10:48:42Z</time>
      </trkpt>
      <trkpt lat="36.9475420" lon="-3.2568620">
        <ele>1332.4</ele>
        <time>2020-07-12T10:48:44Z</time>
      </trkpt>
      <trkpt lat="36.9475690" lon="-3.2567720">
        <ele>1332.0</ele>
        <time>2020-07-12T10:48:45Z</time>
      </trkpt>
      <trkpt lat="36.9475870" lon="-3.2566940">
        <ele>1332.0</ele>
        <time>2020-07-12T10:48:46Z</time>
      </trkpt>
      <trkpt lat="36.9476290" lon="-3.2564820">
        <ele>1331.6</ele>
        <time>2020-07-12T10:48:48Z</time>
      </trkpt>
      <trkpt lat="36.9476810" lon="-3.2560970">
        <ele>1330.8</ele>
        <time>2020-07-12T10:48:52Z</time>
      </trkpt>
      <trkpt lat="36.9476950" lon="-3.2558890">
        <ele>1330.4</ele>
        <time>2020-07-12T10:48:54Z</time>
      </trkpt>
      <trkpt lat="36.9476900" lon="-3.2557980">
        <ele>1330.4</ele>
        <time>2020-07-12T10:48:55Z</time>
      </trkpt>
      <trkpt lat="36.9476380" lon="-3.2555080">
        <ele>1330.2</ele>
        <time>2020-07-12T10:48:58Z</time>
      </trkpt>
      <trkpt lat="36.9476240" lon="-3.2554140">
        <ele>1330.2</ele>
        <time>2020-07-12T10:48:59Z</time>
      </trkpt>
      <trkpt lat="36.9476160" lon="-3.2551160">
        <ele>1330.4</ele>
        <time>2020-07-12T10:49:02Z</time>
      </trkpt>
      <trkpt lat="36.9476410" lon="-3.2549400">
        <ele>1330.4</ele>
        <time>2020-07-12T10:49:04Z</time>
      </trkpt>
      <trkpt lat="36.9477840" lon="-3.2542200">
        <ele>1330.8</ele>
        <time>2020-07-12T10:49:12Z</time>
      </trkpt>
      <trkpt lat="36.9478200" lon="-3.2541400">
        <ele>1330.8</ele>
        <time>2020-07-12T10:49:13Z</time>
      </trkpt>
      <trkpt lat="36.9480140" lon="-3.2538700">
        <ele>1331.0</ele>
        <time>2020-07-12T10:49:17Z</time>
      </trkpt>
      <trkpt lat="36.9481270" lon="-3.2537640">
        <ele>1331.2</ele>
        <time>2020-07-12T10:49:19Z</time>
      </trkpt>
      <trkpt lat="36.9482190" lon="-3.2536430">
        <ele>1331.2</ele>
        <time>2020-07-12T10:49:21Z</time>
      </trkpt>
      <trkpt lat="36.9482580" lon="-3.2535660">
        <ele>1331.2</ele>
        <time>2020-07-12T10:49:22Z</time>
      </trkpt>
      <trkpt lat="36.9483190" lon="-3.2532340">
        <ele>1331.2</ele>
        <time>2020-07-12T10:49:26Z</time>
      </trkpt>
      <trkpt lat="36.9483240" lon="-3.2531420">
        <ele>1331.2</ele>
        <time>2020-07-12T10:49:27Z</time>
      </trkpt>
      <trkpt lat="36.9483130" lon="-3.2530630">
        <ele>1331.2</ele>
        <time>2020-07-12T10:49:28Z</time>
      </trkpt>
      <trkpt lat="36.9482850" lon="-3.2529080">
        <ele>1331.4</ele>
        <time>2020-07-12T10:49:30Z</time>
      </trkpt>
      <trkpt lat="36.9482580" lon="-3.2528320">
        <ele>1331.4</ele>
        <time>2020-07-12T10:49:31Z</time>
      </trkpt>
      <trkpt lat="36.9482290" lon="-3.2527600">
        <ele>1331.6</ele>
        <time>2020-07-12T10:49:32Z</time>
      </trkpt>
      <trkpt lat="36.9481760" lon="-3.2526190">
        <ele>1332.0</ele>
        <time>2020-07-12T10:49:34Z</time>
      </trkpt>
      <trkpt lat="36.9481650" lon="-3.2525590">
        <ele>1332.0</ele>
        <time>2020-07-12T10:49:35Z</time>
      </trkpt>
      <trkpt lat="36.9481650" lon="-3.2523660">
        <ele>1332.4</ele>
        <time>2020-07-12T10:49:37Z</time>
      </trkpt>
      <trkpt lat="36.9482040" lon="-3.2522020">
        <ele>1332.6</ele>
        <time>2020-07-12T10:49:39Z</time>
      </trkpt>
      <trkpt lat="36.9482460" lon="-3.2520540">
        <ele>1332.8</ele>
        <time>2020-07-12T10:49:41Z</time>
      </trkpt>
      <trkpt lat="36.9483520" lon="-3.2517960">
        <ele>1333.0</ele>
        <time>2020-07-12T10:49:44Z</time>
      </trkpt>
      <trkpt lat="36.9484540" lon="-3.2516160">
        <ele>1333.2</ele>
        <time>2020-07-12T10:49:46Z</time>
      </trkpt>
      <trkpt lat="36.9484850" lon="-3.2515200">
        <ele>1333.0</ele>
        <time>2020-07-12T10:49:47Z</time>
      </trkpt>
      <trkpt lat="36.9484940" lon="-3.2512760">
        <ele>1332.6</ele>
        <time>2020-07-12T10:49:49Z</time>
      </trkpt>
      <trkpt lat="36.9484420" lon="-3.2510470">
        <ele>1331.8</ele>
        <time>2020-07-12T10:49:51Z</time>
      </trkpt>
      <trkpt lat="36.9484140" lon="-3.2509220">
        <ele>1331.4</ele>
        <time>2020-07-12T10:49:52Z</time>
      </trkpt>
      <trkpt lat="36.9483580" lon="-3.2506480">
        <ele>1330.6</ele>
        <time>2020-07-12T10:49:54Z</time>
      </trkpt>
      <trkpt lat="36.9482390" lon="-3.2502630">
        <ele>1328.8</ele>
        <time>2020-07-12T10:49:57Z</time>
      </trkpt>
      <trkpt lat="36.9481890" lon="-3.2501780">
        <ele>1327.8</ele>
        <time>2020-07-12T10:49:58Z</time>
      </trkpt>
      <trkpt lat="36.9481160" lon="-3.2501090">
        <ele>1327.0</ele>
        <time>2020-07-12T10:49:59Z</time>
      </trkpt>
      <trkpt lat="36.9480100" lon="-3.2500830">
        <ele>1325.6</ele>
        <time>2020-07-12T10:50:00Z</time>
      </trkpt>
      <trkpt lat="36.9479180" lon="-3.2500950">
        <ele>1324.6</ele>
        <time>2020-07-12T10:50:01Z</time>
      </trkpt>
      <trkpt lat="36.9478020" lon="-3.2500900">
        <ele>1323.6</ele>
        <time>2020-07-12T10:50:02Z</time>
      </trkpt>
      <trkpt lat="36.9476960" lon="-3.2500630">
        <ele>1322.6</ele>
        <time>2020-07-12T10:50:03Z</time>
      </trkpt>
      <trkpt lat="36.9476010" lon="-3.2500220">
        <ele>1321.8</ele>
        <time>2020-07-12T10:50:04Z</time>
      </trkpt>
      <trkpt lat="36.9474420" lon="-3.2498490">
        <ele>1320.8</ele>
        <time>2020-07-12T10:50:06Z</time>
      </trkpt>
      <trkpt lat="36.9473900" lon="-3.2495670">
        <ele>1319.6</ele>
        <time>2020-07-12T10:50:08Z</time>
      </trkpt>
      <trkpt lat="36.9474640" lon="-3.2493100">
        <ele>1318.8</ele>
        <time>2020-07-12T10:50:10Z</time>
      </trkpt>
      <trkpt lat="36.9475200" lon="-3.2491840">
        <ele>1318.4</ele>
        <time>2020-07-12T10:50:11Z</time>
      </trkpt>
      <trkpt lat="36.9476720" lon="-3.2489280">
        <ele>1317.0</ele>
        <time>2020-07-12T10:50:13Z</time>
      </trkpt>
      <trkpt lat="36.9477570" lon="-3.2488200">
        <ele>1316.0</ele>
        <time>2020-07-12T10:50:14Z</time>
      </trkpt>
      <trkpt lat="36.9478460" lon="-3.2487190">
        <ele>1315.2</ele>
        <time>2020-07-12T10:50:15Z</time>
      </trkpt>
      <trkpt lat="36.9479170" lon="-3.2486400">
        <ele>1314.6</ele>
        <time>2020-07-12T10:50:16Z</time>
      </trkpt>
      <trkpt lat="36.9479910" lon="-3.2485140">
        <ele>1314.0</ele>
        <time>2020-07-12T10:50:17Z</time>
      </trkpt>
      <trkpt lat="36.9479960" lon="-3.2482420">
        <ele>1312.6</ele>
        <time>2020-07-12T10:50:19Z</time>
      </trkpt>
      <trkpt lat="36.9479680" lon="-3.2481150">
        <ele>1311.4</ele>
        <time>2020-07-12T10:50:20Z</time>
      </trkpt>
      <trkpt lat="36.9479640" lon="-3.2479940">
        <ele>1310.4</ele>
        <time>2020-07-12T10:50:21Z</time>
      </trkpt>
      <trkpt lat="36.9479740" lon="-3.2478500">
        <ele>1309.6</ele>
        <time>2020-07-12T10:50:22Z</time>
      </trkpt>
      <trkpt lat="36.9479850" lon="-3.2477060">
        <ele>1308.6</ele>
        <time>2020-07-12T10:50:23Z</time>
      </trkpt>
      <trkpt lat="36.9479710" lon="-3.2475600">
        <ele>1307.8</ele>
        <time>2020-07-12T10:50:24Z</time>
      </trkpt>
      <trkpt lat="36.9479170" lon="-3.2474560">
        <ele>1307.0</ele>
        <time>2020-07-12T10:50:25Z</time>
      </trkpt>
      <trkpt lat="36.9477240" lon="-3.2473680">
        <ele>1305.2</ele>
        <time>2020-07-12T10:50:27Z</time>
      </trkpt>
      <trkpt lat="36.9475180" lon="-3.2474230">
        <ele>1303.4</ele>
        <time>2020-07-12T10:50:29Z</time>
      </trkpt>
      <trkpt lat="36.9473130" lon="-3.2475070">
        <ele>1302.0</ele>
        <time>2020-07-12T10:50:31Z</time>
      </trkpt>
      <trkpt lat="36.9472010" lon="-3.2474880">
        <ele>1301.6</ele>
        <time>2020-07-12T10:50:32Z</time>
      </trkpt>
      <trkpt lat="36.9470980" lon="-3.2472870">
        <ele>1300.6</ele>
        <time>2020-07-12T10:50:34Z</time>
      </trkpt>
      <trkpt lat="36.9471990" lon="-3.2470720">
        <ele>1299.4</ele>
        <time>2020-07-12T10:50:36Z</time>
      </trkpt>
      <trkpt lat="36.9474190" lon="-3.2469850">
        <ele>1298.2</ele>
        <time>2020-07-12T10:50:38Z</time>
      </trkpt>
      <trkpt lat="36.9475240" lon="-3.2469280">
        <ele>1297.2</ele>
        <time>2020-07-12T10:50:39Z</time>
      </trkpt>
      <trkpt lat="36.9476230" lon="-3.2468670">
        <ele>1296.0</ele>
        <time>2020-07-12T10:50:40Z</time>
      </trkpt>
      <trkpt lat="36.9477190" lon="-3.2468280">
        <ele>1295.0</ele>
        <time>2020-07-12T10:50:41Z</time>
      </trkpt>
      <trkpt lat="36.9478590" lon="-3.2468040">
        <ele>1293.6</ele>
        <time>2020-07-12T10:50:42Z</time>
      </trkpt>
      <trkpt lat="36.9480920" lon="-3.2467140">
        <ele>1291.8</ele>
        <time>2020-07-12T10:50:44Z</time>
      </trkpt>
      <trkpt lat="36.9482030" lon="-3.2466430">
        <ele>1291.2</ele>
        <time>2020-07-12T10:50:45Z</time>
      </trkpt>
      <trkpt lat="36.9482880" lon="-3.2465710">
        <ele>1290.6</ele>
        <time>2020-07-12T10:50:46Z</time>
      </trkpt>
      <trkpt lat="36.9484270" lon="-3.2464750">
        <ele>1289.6</ele>
        <time>2020-07-12T10:50:47Z</time>
      </trkpt>
      <trkpt lat="36.9486350" lon="-3.2463210">
        <ele>1287.8</ele>
        <time>2020-07-12T10:50:49Z</time>
      </trkpt>
      <trkpt lat="36.9487740" lon="-3.2461210">
        <ele>1286.6</ele>
        <time>2020-07-12T10:50:51Z</time>
      </trkpt>
      <trkpt lat="36.9488170" lon="-3.2459630">
        <ele>1285.6</ele>
        <time>2020-07-12T10:50:52Z</time>
      </trkpt>
      <trkpt lat="36.9488530" lon="-3.2458070">
        <ele>1284.4</ele>
        <time>2020-07-12T10:50:53Z</time>
      </trkpt>
      <trkpt lat="36.9488930" lon="-3.2456590">
        <ele>1283.2</ele>
        <time>2020-07-12T10:50:54Z</time>
      </trkpt>
      <trkpt lat="36.9489660" lon="-3.2453740">
        <ele>1281.8</ele>
        <time>2020-07-12T10:50:56Z</time>
      </trkpt>
      <trkpt lat="36.9489990" lon="-3.2451180">
        <ele>1280.8</ele>
        <time>2020-07-12T10:50:58Z</time>
      </trkpt>
      <trkpt lat="36.9489330" lon="-3.2449940">
        <ele>1280.0</ele>
        <time>2020-07-12T10:50:59Z</time>
      </trkpt>
      <trkpt lat="36.9488740" lon="-3.2448880">
        <ele>1279.2</ele>
        <time>2020-07-12T10:51:00Z</time>
      </trkpt>
      <trkpt lat="36.9488070" lon="-3.2448380">
        <ele>1278.6</ele>
        <time>2020-07-12T10:51:01Z</time>
      </trkpt>
      <trkpt lat="36.9487180" lon="-3.2447790">
        <ele>1277.6</ele>
        <time>2020-07-12T10:51:02Z</time>
      </trkpt>
      <trkpt lat="36.9486240" lon="-3.2447300">
        <ele>1276.8</ele>
        <time>2020-07-12T10:51:03Z</time>
      </trkpt>
      <trkpt lat="36.9485440" lon="-3.2446910">
        <ele>1276.0</ele>
        <time>2020-07-12T10:51:04Z</time>
      </trkpt>
      <trkpt lat="36.9483830" lon="-3.2445830">
        <ele>1275.8</ele>
        <time>2020-07-12T10:51:06Z</time>
      </trkpt>
      <trkpt lat="36.9482940" lon="-3.2445130">
        <ele>1276.0</ele>
        <time>2020-07-12T10:51:07Z</time>
      </trkpt>
      <trkpt lat="36.9479310" lon="-3.2441800">
        <ele>1276.2</ele>
        <time>2020-07-12T10:51:12Z</time>
      </trkpt>
      <trkpt lat="36.9476490" lon="-3.2437890">
        <ele>1276.2</ele>
        <time>2020-07-12T10:51:17Z</time>
      </trkpt>
      <trkpt lat="36.9475930" lon="-3.2436950">
        <ele>1276.2</ele>
        <time>2020-07-12T10:51:18Z</time>
      </trkpt>
      <trkpt lat="36.9473190" lon="-3.2432760">
        <ele>1276.0</ele>
        <time>2020-07-12T10:51:23Z</time>
      </trkpt>
      <trkpt lat="36.9470360" lon="-3.2430010">
        <ele>1275.0</ele>
        <time>2020-07-12T10:51:27Z</time>
      </trkpt>
      <trkpt lat="36.9469590" lon="-3.2429680">
        <ele>1275.0</ele>
        <time>2020-07-12T10:51:28Z</time>
      </trkpt>
      <trkpt lat="36.9467860" lon="-3.2428580">
        <ele>1274.8</ele>
        <time>2020-07-12T10:51:30Z</time>
      </trkpt>
      <trkpt lat="36.9466650" lon="-3.2426830">
        <ele>1274.4</ele>
        <time>2020-07-12T10:51:32Z</time>
      </trkpt>
      <trkpt lat="36.9466070" lon="-3.2424720">
        <ele>1273.8</ele>
        <time>2020-07-12T10:51:34Z</time>
      </trkpt>
      <trkpt lat="36.9465830" lon="-3.2423570">
        <ele>1273.6</ele>
        <time>2020-07-12T10:51:35Z</time>
      </trkpt>
      <trkpt lat="36.9465610" lon="-3.2422460">
        <ele>1273.4</ele>
        <time>2020-07-12T10:51:36Z</time>
      </trkpt>
      <trkpt lat="36.9464690" lon="-3.2417770">
        <ele>1272.8</ele>
        <time>2020-07-12T10:51:40Z</time>
      </trkpt>
      <trkpt lat="36.9464180" lon="-3.2415370">
        <ele>1272.6</ele>
        <time>2020-07-12T10:51:42Z</time>
      </trkpt>
      <trkpt lat="36.9463590" lon="-3.2413190">
        <ele>1272.2</ele>
        <time>2020-07-12T10:51:44Z</time>
      </trkpt>
      <trkpt lat="36.9463180" lon="-3.2412220">
        <ele>1272.0</ele>
        <time>2020-07-12T10:51:45Z</time>
      </trkpt>
      <trkpt lat="36.9462330" lon="-3.2410360">
        <ele>1271.6</ele>
        <time>2020-07-12T10:51:47Z</time>
      </trkpt>
      <trkpt lat="36.9461940" lon="-3.2409210">
        <ele>1271.6</ele>
        <time>2020-07-12T10:51:48Z</time>
      </trkpt>
      <trkpt lat="36.9461760" lon="-3.2408100">
        <ele>1271.6</ele>
        <time>2020-07-12T10:51:49Z</time>
      </trkpt>
      <trkpt lat="36.9461790" lon="-3.2405970">
        <ele>1271.6</ele>
        <time>2020-07-12T10:51:51Z</time>
      </trkpt>
      <trkpt lat="36.9461970" lon="-3.2403720">
        <ele>1271.6</ele>
        <time>2020-07-12T10:51:53Z</time>
      </trkpt>
      <trkpt lat="36.9462430" lon="-3.2398210">
        <ele>1271.6</ele>
        <time>2020-07-12T10:51:58Z</time>
      </trkpt>
      <trkpt lat="36.9463220" lon="-3.2392610">
        <ele>1271.6</ele>
        <time>2020-07-12T10:52:03Z</time>
      </trkpt>
      <trkpt lat="36.9463250" lon="-3.2391580">
        <ele>1271.6</ele>
        <time>2020-07-12T10:52:04Z</time>
      </trkpt>
      <trkpt lat="36.9463190" lon="-3.2390400">
        <ele>1271.4</ele>
        <time>2020-07-12T10:52:05Z</time>
      </trkpt>
      <trkpt lat="36.9463050" lon="-3.2385740">
        <ele>1270.6</ele>
        <time>2020-07-12T10:52:09Z</time>
      </trkpt>
      <trkpt lat="36.9463410" lon="-3.2384810">
        <ele>1270.4</ele>
        <time>2020-07-12T10:52:10Z</time>
      </trkpt>
      <trkpt lat="36.9464330" lon="-3.2382640">
        <ele>1270.2</ele>
        <time>2020-07-12T10:52:12Z</time>
      </trkpt>
      <trkpt lat="36.9465070" lon="-3.2380370">
        <ele>1269.4</ele>
        <time>2020-07-12T10:52:14Z</time>
      </trkpt>
      <trkpt lat="36.9465180" lon="-3.2379130">
        <ele>1269.0</ele>
        <time>2020-07-12T10:52:15Z</time>
      </trkpt>
      <trkpt lat="36.9465080" lon="-3.2378090">
        <ele>1268.8</ele>
        <time>2020-07-12T10:52:16Z</time>
      </trkpt>
      <trkpt lat="36.9464800" lon="-3.2375520">
        <ele>1268.2</ele>
        <time>2020-07-12T10:52:18Z</time>
      </trkpt>
      <trkpt lat="36.9464700" lon="-3.2374350">
        <ele>1268.0</ele>
        <time>2020-07-12T10:52:19Z</time>
      </trkpt>
      <trkpt lat="36.9464180" lon="-3.2372240">
        <ele>1267.6</ele>
        <time>2020-07-12T10:52:21Z</time>
      </trkpt>
      <trkpt lat="36.9462750" lon="-3.2370660">
        <ele>1267.6</ele>
        <time>2020-07-12T10:52:23Z</time>
      </trkpt>
      <trkpt lat="36.9461630" lon="-3.2369140">
        <ele>1267.4</ele>
        <time>2020-07-12T10:52:25Z</time>
      </trkpt>
      <trkpt lat="36.9461090" lon="-3.2367090">
        <ele>1267.4</ele>
        <time>2020-07-12T10:52:27Z</time>
      </trkpt>
      <trkpt lat="36.9461590" lon="-3.2364870">
        <ele>1267.6</ele>
        <time>2020-07-12T10:52:29Z</time>
      </trkpt>
      <trkpt lat="36.9463190" lon="-3.2363100">
        <ele>1267.2</ele>
        <time>2020-07-12T10:52:31Z</time>
      </trkpt>
      <trkpt lat="36.9463930" lon="-3.2362140">
        <ele>1266.6</ele>
        <time>2020-07-12T10:52:32Z</time>
      </trkpt>
      <trkpt lat="36.9464590" lon="-3.2361050">
        <ele>1266.2</ele>
        <time>2020-07-12T10:52:33Z</time>
      </trkpt>
      <trkpt lat="36.9465000" lon="-3.2359660">
        <ele>1265.0</ele>
        <time>2020-07-12T10:52:34Z</time>
      </trkpt>
      <trkpt lat="36.9465990" lon="-3.2357040">
        <ele>1263.4</ele>
        <time>2020-07-12T10:52:36Z</time>
      </trkpt>
      <trkpt lat="36.9466970" lon="-3.2354410">
        <ele>1262.2</ele>
        <time>2020-07-12T10:52:38Z</time>
      </trkpt>
      <trkpt lat="36.9467930" lon="-3.2351600">
        <ele>1260.4</ele>
        <time>2020-07-12T10:52:40Z</time>
      </trkpt>
      <trkpt lat="36.9468190" lon="-3.2350060">
        <ele>1259.6</ele>
        <time>2020-07-12T10:52:41Z</time>
      </trkpt>
      <trkpt lat="36.9468470" lon="-3.2348620">
        <ele>1259.2</ele>
        <time>2020-07-12T10:52:42Z</time>
      </trkpt>
      <trkpt lat="36.9468940" lon="-3.2347320">
        <ele>1258.2</ele>
        <time>2020-07-12T10:52:43Z</time>
      </trkpt>
      <trkpt lat="36.9469580" lon="-3.2346210">
        <ele>1257.4</ele>
        <time>2020-07-12T10:52:44Z</time>
      </trkpt>
      <trkpt lat="36.9470270" lon="-3.2345240">
        <ele>1256.6</ele>
        <time>2020-07-12T10:52:45Z</time>
      </trkpt>
      <trkpt lat="36.9470800" lon="-3.2344480">
        <ele>1256.0</ele>
        <time>2020-07-12T10:52:46Z</time>
      </trkpt>
      <trkpt lat="36.9471240" lon="-3.2343250">
        <ele>1255.2</ele>
        <time>2020-07-12T10:52:47Z</time>
      </trkpt>
      <trkpt lat="36.9470970" lon="-3.2341900">
        <ele>1254.0</ele>
        <time>2020-07-12T10:52:48Z</time>
      </trkpt>
      <trkpt lat="36.9469920" lon="-3.2339650">
        <ele>1252.8</ele>
        <time>2020-07-12T10:52:50Z</time>
      </trkpt>
      <trkpt lat="36.9469300" lon="-3.2338790">
        <ele>1251.8</ele>
        <time>2020-07-12T10:52:51Z</time>
      </trkpt>
      <trkpt lat="36.9468560" lon="-3.2337650">
        <ele>1251.0</ele>
        <time>2020-07-12T10:52:52Z</time>
      </trkpt>
      <trkpt lat="36.9466560" lon="-3.2335860">
        <ele>1249.0</ele>
        <time>2020-07-12T10:52:54Z</time>
      </trkpt>
      <trkpt lat="36.9465550" lon="-3.2335210">
        <ele>1248.4</ele>
        <time>2020-07-12T10:52:55Z</time>
      </trkpt>
      <trkpt lat="36.9464780" lon="-3.2334260">
        <ele>1247.6</ele>
        <time>2020-07-12T10:52:56Z</time>
      </trkpt>
      <trkpt lat="36.9464080" lon="-3.2333180">
        <ele>1247.0</ele>
        <time>2020-07-12T10:52:57Z</time>
      </trkpt>
      <trkpt lat="36.9463820" lon="-3.2331960">
        <ele>1246.2</ele>
        <time>2020-07-12T10:52:58Z</time>
      </trkpt>
      <trkpt lat="36.9463480" lon="-3.2330450">
        <ele>1245.6</ele>
        <time>2020-07-12T10:52:59Z</time>
      </trkpt>
      <trkpt lat="36.9463160" lon="-3.2328970">
        <ele>1245.0</ele>
        <time>2020-07-12T10:53:00Z</time>
      </trkpt>
      <trkpt lat="36.9462670" lon="-3.2325970">
        <ele>1243.4</ele>
        <time>2020-07-12T10:53:02Z</time>
      </trkpt>
      <trkpt lat="36.9462430" lon="-3.2322990">
        <ele>1241.8</ele>
        <time>2020-07-12T10:53:04Z</time>
      </trkpt>
      <trkpt lat="36.9462090" lon="-3.2321360">
        <ele>1240.8</ele>
        <time>2020-07-12T10:53:05Z</time>
      </trkpt>
      <trkpt lat="36.9461540" lon="-3.2320080">
        <ele>1240.4</ele>
        <time>2020-07-12T10:53:06Z</time>
      </trkpt>
      <trkpt lat="36.9461010" lon="-3.2318470">
        <ele>1239.6</ele>
        <time>2020-07-12T10:53:07Z</time>
      </trkpt>
      <trkpt lat="36.9460840" lon="-3.2316910">
        <ele>1238.8</ele>
        <time>2020-07-12T10:53:08Z</time>
      </trkpt>
      <trkpt lat="36.9460580" lon="-3.2313970">
        <ele>1237.4</ele>
        <time>2020-07-12T10:53:10Z</time>
      </trkpt>
      <trkpt lat="36.9460340" lon="-3.2310640">
        <ele>1236.2</ele>
        <time>2020-07-12T10:53:12Z</time>
      </trkpt>
      <trkpt lat="36.9460130" lon="-3.2307410">
        <ele>1236.2</ele>
        <time>2020-07-12T10:53:14Z</time>
      </trkpt>
      <trkpt lat="36.9459770" lon="-3.2304570">
        <ele>1235.0</ele>
        <time>2020-07-12T10:53:16Z</time>
      </trkpt>
      <trkpt lat="36.9459140" lon="-3.2303030">
        <ele>1233.4</ele>
        <time>2020-07-12T10:53:17Z</time>
      </trkpt>
      <trkpt lat="36.9457540" lon="-3.2300630">
        <ele>1231.8</ele>
        <time>2020-07-12T10:53:19Z</time>
      </trkpt>
      <trkpt lat="36.9457160" lon="-3.2299350">
        <ele>1231.2</ele>
        <time>2020-07-12T10:53:20Z</time>
      </trkpt>
      <trkpt lat="36.9457220" lon="-3.2298110">
        <ele>1230.4</ele>
        <time>2020-07-12T10:53:21Z</time>
      </trkpt>
      <trkpt lat="36.9457680" lon="-3.2295170">
        <ele>1229.0</ele>
        <time>2020-07-12T10:53:23Z</time>
      </trkpt>
      <trkpt lat="36.9457710" lon="-3.2293670">
        <ele>1228.4</ele>
        <time>2020-07-12T10:53:24Z</time>
      </trkpt>
      <trkpt lat="36.9457550" lon="-3.2292200">
        <ele>1227.6</ele>
        <time>2020-07-12T10:53:25Z</time>
      </trkpt>
      <trkpt lat="36.9457250" lon="-3.2289310">
        <ele>1226.4</ele>
        <time>2020-07-12T10:53:27Z</time>
      </trkpt>
      <trkpt lat="36.9456670" lon="-3.2286780">
        <ele>1226.0</ele>
        <time>2020-07-12T10:53:29Z</time>
      </trkpt>
      <trkpt lat="36.9455990" lon="-3.2285480">
        <ele>1225.6</ele>
        <time>2020-07-12T10:53:30Z</time>
      </trkpt>
      <trkpt lat="36.9455250" lon="-3.2284600">
        <ele>1225.2</ele>
        <time>2020-07-12T10:53:31Z</time>
      </trkpt>
      <trkpt lat="36.9453250" lon="-3.2282590">
        <ele>1223.8</ele>
        <time>2020-07-12T10:53:33Z</time>
      </trkpt>
      <trkpt lat="36.9452400" lon="-3.2281710">
        <ele>1222.6</ele>
        <time>2020-07-12T10:53:34Z</time>
      </trkpt>
      <trkpt lat="36.9449830" lon="-3.2278970">
        <ele>1220.6</ele>
        <time>2020-07-12T10:53:37Z</time>
      </trkpt>
      <trkpt lat="36.9449360" lon="-3.2277750">
        <ele>1219.6</ele>
        <time>2020-07-12T10:53:38Z</time>
      </trkpt>
      <trkpt lat="36.9449350" lon="-3.2275180">
        <ele>1218.2</ele>
        <time>2020-07-12T10:53:40Z</time>
      </trkpt>
      <trkpt lat="36.9450450" lon="-3.2272910">
        <ele>1216.4</ele>
        <time>2020-07-12T10:53:42Z</time>
      </trkpt>
      <trkpt lat="36.9452450" lon="-3.2272160">
        <ele>1214.6</ele>
        <time>2020-07-12T10:53:44Z</time>
      </trkpt>
      <trkpt lat="36.9454450" lon="-3.2272890">
        <ele>1213.2</ele>
        <time>2020-07-12T10:53:46Z</time>
      </trkpt>
      <trkpt lat="36.9456740" lon="-3.2273890">
        <ele>1211.6</ele>
        <time>2020-07-12T10:53:48Z</time>
      </trkpt>
      <trkpt lat="36.9457820" lon="-3.2274140">
        <ele>1211.2</ele>
        <time>2020-07-12T10:53:49Z</time>
      </trkpt>
      <trkpt lat="36.9458910" lon="-3.2274250">
        <ele>1210.2</ele>
        <time>2020-07-12T10:53:50Z</time>
      </trkpt>
      <trkpt lat="36.9460000" lon="-3.2273870">
        <ele>1209.8</ele>
        <time>2020-07-12T10:53:51Z</time>
      </trkpt>
      <trkpt lat="36.9461140" lon="-3.2273320">
        <ele>1209.2</ele>
        <time>2020-07-12T10:53:52Z</time>
      </trkpt>
      <trkpt lat="36.9462390" lon="-3.2272870">
        <ele>1207.8</ele>
        <time>2020-07-12T10:53:53Z</time>
      </trkpt>
      <trkpt lat="36.9463620" lon="-3.2272520">
        <ele>1206.8</ele>
        <time>2020-07-12T10:53:54Z</time>
      </trkpt>
      <trkpt lat="36.9466140" lon="-3.2272050">
        <ele>1205.4</ele>
        <time>2020-07-12T10:53:56Z</time>
      </trkpt>
      <trkpt lat="36.9468630" lon="-3.2271910">
        <ele>1204.4</ele>
        <time>2020-07-12T10:53:58Z</time>
      </trkpt>
      <trkpt lat="36.9471270" lon="-3.2271830">
        <ele>1203.0</ele>
        <time>2020-07-12T10:54:00Z</time>
      </trkpt>
      <trkpt lat="36.9472540" lon="-3.2271560">
        <ele>1202.0</ele>
        <time>2020-07-12T10:54:01Z</time>
      </trkpt>
      <trkpt lat="36.9473780" lon="-3.2271260">
        <ele>1201.0</ele>
        <time>2020-07-12T10:54:02Z</time>
      </trkpt>
      <trkpt lat="36.9474980" lon="-3.2270930">
        <ele>1200.2</ele>
        <time>2020-07-12T10:54:03Z</time>
      </trkpt>
      <trkpt lat="36.9476020" lon="-3.2270350">
        <ele>1199.4</ele>
        <time>2020-07-12T10:54:04Z</time>
      </trkpt>
      <trkpt lat="36.9476990" lon="-3.2269370">
        <ele>1198.6</ele>
        <time>2020-07-12T10:54:05Z</time>
      </trkpt>
      <trkpt lat="36.9477640" lon="-3.2268130">
        <ele>1197.6</ele>
        <time>2020-07-12T10:54:06Z</time>
      </trkpt>
      <trkpt lat="36.9478260" lon="-3.2267000">
        <ele>1197.0</ele>
        <time>2020-07-12T10:54:07Z</time>
      </trkpt>
      <trkpt lat="36.9478860" lon="-3.2265920">
        <ele>1197.0</ele>
        <time>2020-07-12T10:54:08Z</time>
      </trkpt>
      <trkpt lat="36.9480040" lon="-3.2263880">
        <ele>1197.4</ele>
        <time>2020-07-12T10:54:10Z</time>
      </trkpt>
      <trkpt lat="36.9480610" lon="-3.2262860">
        <ele>1197.6</ele>
        <time>2020-07-12T10:54:11Z</time>
      </trkpt>
      <trkpt lat="36.9481140" lon="-3.2261890">
        <ele>1197.8</ele>
        <time>2020-07-12T10:54:12Z</time>
      </trkpt>
      <trkpt lat="36.9482160" lon="-3.2260070">
        <ele>1197.8</ele>
        <time>2020-07-12T10:54:14Z</time>
      </trkpt>
      <trkpt lat="36.9483090" lon="-3.2258380">
        <ele>1198.0</ele>
        <time>2020-07-12T10:54:16Z</time>
      </trkpt>
      <trkpt lat="36.9484080" lon="-3.2256510">
        <ele>1197.8</ele>
        <time>2020-07-12T10:54:18Z</time>
      </trkpt>
      <trkpt lat="36.9485420" lon="-3.2254070">
        <ele>1197.4</ele>
        <time>2020-07-12T10:54:21Z</time>
      </trkpt>
      <trkpt lat="36.9486340" lon="-3.2252430">
        <ele>1197.6</ele>
        <time>2020-07-12T10:54:23Z</time>
      </trkpt>
      <trkpt lat="36.9487590" lon="-3.2250250">
        <ele>1197.6</ele>
        <time>2020-07-12T10:54:26Z</time>
      </trkpt>
      <trkpt lat="36.9488400" lon="-3.2248840">
        <ele>1197.2</ele>
        <time>2020-07-12T10:54:28Z</time>
      </trkpt>
      <trkpt lat="36.9489480" lon="-3.2247030">
        <ele>1197.2</ele>
        <time>2020-07-12T10:54:31Z</time>
      </trkpt>
      <trkpt lat="36.9489840" lon="-3.2246450">
        <ele>1197.2</ele>
        <time>2020-07-12T10:54:32Z</time>
      </trkpt>
      <trkpt lat="36.9490820" lon="-3.2244650">
        <ele>1197.4</ele>
        <time>2020-07-12T10:54:35Z</time>
      </trkpt>
      <trkpt lat="36.9492370" lon="-3.2241530">
        <ele>1196.8</ele>
        <time>2020-07-12T10:54:40Z</time>
      </trkpt>
      <trkpt lat="36.9492740" lon="-3.2241010">
        <ele>1196.8</ele>
        <time>2020-07-12T10:54:41Z</time>
      </trkpt>
      <trkpt lat="36.9493210" lon="-3.2240460">
        <ele>1196.6</ele>
        <time>2020-07-12T10:54:42Z</time>
      </trkpt>
      <trkpt lat="36.9494680" lon="-3.2239340">
        <ele>1196.4</ele>
        <time>2020-07-12T10:54:45Z</time>
      </trkpt>
      <trkpt lat="36.9496970" lon="-3.2239000">
        <ele>1196.2</ele>
        <time>2020-07-12T10:54:49Z</time>
      </trkpt>
      <trkpt lat="36.9497530" lon="-3.2239020">
        <ele>1196.2</ele>
        <time>2020-07-12T10:54:50Z</time>
      </trkpt>
      <trkpt lat="36.9500240" lon="-3.2239790">
        <ele>1196.4</ele>
        <time>2020-07-12T10:54:55Z</time>
      </trkpt>
      <trkpt lat="36.9504610" lon="-3.2240840">
        <ele>1197.8</ele>
        <time>2020-07-12T10:55:03Z</time>
      </trkpt>
      <trkpt lat="36.9505100" lon="-3.2240830">
        <ele>1197.8</ele>
        <time>2020-07-12T10:55:04Z</time>
      </trkpt>
      <trkpt lat="36.9506070" lon="-3.2240630">
        <ele>1198.2</ele>
        <time>2020-07-12T10:55:06Z</time>
      </trkpt>
      <trkpt lat="36.9507050" lon="-3.2240390">
        <ele>1198.8</ele>
        <time>2020-07-12T10:55:08Z</time>
      </trkpt>
      <trkpt lat="36.9508450" lon="-3.2240060">
        <ele>1199.4</ele>
        <time>2020-07-12T10:55:11Z</time>
      </trkpt>
      <trkpt lat="36.9510110" lon="-3.2239630">
        <ele>1200.4</ele>
        <time>2020-07-12T10:55:15Z</time>
      </trkpt>
      <trkpt lat="36.9511870" lon="-3.2239410">
        <ele>1201.0</ele>
        <time>2020-07-12T10:55:19Z</time>
      </trkpt>
      <trkpt lat="36.9512670" lon="-3.2239540">
        <ele>1201.4</ele>
        <time>2020-07-12T10:55:21Z</time>
      </trkpt>
      <trkpt lat="36.9513080" lon="-3.2239720">
        <ele>1201.6</ele>
        <time>2020-07-12T10:55:22Z</time>
      </trkpt>
      <trkpt lat="36.9516030" lon="-3.2241030">
        <ele>1202.6</ele>
        <time>2020-07-12T10:55:29Z</time>
      </trkpt>
      <trkpt lat="36.9516860" lon="-3.2240780">
        <ele>1202.8</ele>
        <time>2020-07-12T10:55:31Z</time>
      </trkpt>
      <trkpt lat="36.9517950" lon="-3.2240140">
        <ele>1203.4</ele>
        <time>2020-07-12T10:55:34Z</time>
      </trkpt>
      <trkpt lat="36.9518670" lon="-3.2239750">
        <ele>1203.8</ele>
        <time>2020-07-12T10:55:36Z</time>
      </trkpt>
      <trkpt lat="36.9519160" lon="-3.2239600">
        <ele>1204.0</ele>
        <time>2020-07-12T10:55:37Z</time>
      </trkpt>
      <trkpt lat="36.9519970" lon="-3.2239510">
        <ele>1204.8</ele>
        <time>2020-07-12T10:55:39Z</time>
      </trkpt>
      <trkpt lat="36.9520310" lon="-3.2239590">
        <ele>1205.2</ele>
        <time>2020-07-12T10:55:40Z</time>
      </trkpt>
      <trkpt lat="36.9520800" lon="-3.2239740">
        <ele>1205.6</ele>
        <time>2020-07-12T10:55:41Z</time>
      </trkpt>
      <trkpt lat="36.9521250" lon="-3.2239910">
        <ele>1206.0</ele>
        <time>2020-07-12T10:55:42Z</time>
      </trkpt>
      <trkpt lat="36.9522240" lon="-3.2240390">
        <ele>1206.2</ele>
        <time>2020-07-12T10:55:44Z</time>
      </trkpt>
      <trkpt lat="36.9525430" lon="-3.2241610">
        <ele>1205.4</ele>
        <time>2020-07-12T10:55:49Z</time>
      </trkpt>
      <trkpt lat="36.9526760" lon="-3.2242250">
        <ele>1205.0</ele>
        <time>2020-07-12T10:55:51Z</time>
      </trkpt>
      <trkpt lat="36.9527550" lon="-3.2242860">
        <ele>1204.6</ele>
        <time>2020-07-12T10:55:52Z</time>
      </trkpt>
      <trkpt lat="36.9529060" lon="-3.2243800">
        <ele>1203.8</ele>
        <time>2020-07-12T10:55:54Z</time>
      </trkpt>
      <trkpt lat="36.9530630" lon="-3.2243330">
        <ele>1203.2</ele>
        <time>2020-07-12T10:55:56Z</time>
      </trkpt>
      <trkpt lat="36.9531300" lon="-3.2242680">
        <ele>1203.0</ele>
        <time>2020-07-12T10:55:57Z</time>
      </trkpt>
      <trkpt lat="36.9531230" lon="-3.2241520">
        <ele>1202.6</ele>
        <time>2020-07-12T10:55:58Z</time>
      </trkpt>
      <trkpt lat="36.9530990" lon="-3.2240640">
        <ele>1202.2</ele>
        <time>2020-07-12T10:55:59Z</time>
      </trkpt>
      <trkpt lat="36.9530100" lon="-3.2239350">
        <ele>1201.6</ele>
        <time>2020-07-12T10:56:01Z</time>
      </trkpt>
      <trkpt lat="36.9529320" lon="-3.2238170">
        <ele>1201.6</ele>
        <time>2020-07-12T10:56:03Z</time>
      </trkpt>
      <trkpt lat="36.9528410" lon="-3.2236510">
        <ele>1202.4</ele>
        <time>2020-07-12T10:56:06Z</time>
      </trkpt>
      <trkpt lat="36.9527970" lon="-3.2235460">
        <ele>1203.0</ele>
        <time>2020-07-12T10:56:08Z</time>
      </trkpt>
      <trkpt lat="36.9527810" lon="-3.2234930">
        <ele>1203.4</ele>
        <time>2020-07-12T10:56:09Z</time>
      </trkpt>
      <trkpt lat="36.9527740" lon="-3.2234460">
        <ele>1203.6</ele>
        <time>2020-07-12T10:56:10Z</time>
      </trkpt>
      <trkpt lat="36.9528050" lon="-3.2232950">
        <ele>1204.6</ele>
        <time>2020-07-12T10:56:13Z</time>
      </trkpt>
      <trkpt lat="36.9528230" lon="-3.2232510">
        <ele>1204.8</ele>
        <time>2020-07-12T10:56:14Z</time>
      </trkpt>
      <trkpt lat="36.9528730" lon="-3.2231210">
        <ele>1205.6</ele>
        <time>2020-07-12T10:56:17Z</time>
      </trkpt>
      <trkpt lat="36.9529110" lon="-3.2229780">
        <ele>1206.2</ele>
        <time>2020-07-12T10:56:20Z</time>
      </trkpt>
      <trkpt lat="36.9529110" lon="-3.2228720">
        <ele>1206.6</ele>
        <time>2020-07-12T10:56:22Z</time>
      </trkpt>
      <trkpt lat="36.9529040" lon="-3.2227680">
        <ele>1207.0</ele>
        <time>2020-07-12T10:56:24Z</time>
      </trkpt>
      <trkpt lat="36.9528920" lon="-3.2226270">
        <ele>1207.8</ele>
        <time>2020-07-12T10:56:27Z</time>
      </trkpt>
      <trkpt lat="36.9528830" lon="-3.2225400">
        <ele>1208.4</ele>
        <time>2020-07-12T10:56:29Z</time>
      </trkpt>
      <trkpt lat="36.9528780" lon="-3.2224950">
        <ele>1208.8</ele>
        <time>2020-07-12T10:56:30Z</time>
      </trkpt>
      <trkpt lat="36.9528740" lon="-3.2223230">
        <ele>1210.2</ele>
        <time>2020-07-12T10:56:34Z</time>
      </trkpt>
      <trkpt lat="36.9528760" lon="-3.2222000">
        <ele>1211.0</ele>
        <time>2020-07-12T10:56:37Z</time>
      </trkpt>
      <trkpt lat="36.9528770" lon="-3.2221590">
        <ele>1211.2</ele>
        <time>2020-07-12T10:56:38Z</time>
      </trkpt>
      <trkpt lat="36.9528260" lon="-3.2219630">
        <ele>1212.2</ele>
        <time>2020-07-12T10:56:43Z</time>
      </trkpt>
      <trkpt lat="36.9527650" lon="-3.2218650">
        <ele>1213.4</ele>
        <time>2020-07-12T10:56:46Z</time>
      </trkpt>
      <trkpt lat="36.9527090" lon="-3.2217310">
        <ele>1214.2</ele>
        <time>2020-07-12T10:56:50Z</time>
      </trkpt>
      <trkpt lat="36.9526990" lon="-3.2216970">
        <ele>1214.6</ele>
        <time>2020-07-12T10:56:51Z</time>
      </trkpt>
      <trkpt lat="36.9526590" lon="-3.2215780">
        <ele>1215.6</ele>
        <time>2020-07-12T10:56:54Z</time>
      </trkpt>
      <trkpt lat="36.9526320" lon="-3.2214560">
        <ele>1216.6</ele>
        <time>2020-07-12T10:56:57Z</time>
      </trkpt>
      <trkpt lat="36.9526250" lon="-3.2212510">
        <ele>1217.8</ele>
        <time>2020-07-12T10:57:02Z</time>
      </trkpt>
      <trkpt lat="36.9526370" lon="-3.2211700">
        <ele>1218.4</ele>
        <time>2020-07-12T10:57:04Z</time>
      </trkpt>
      <trkpt lat="36.9526670" lon="-3.2210840">
        <ele>1219.0</ele>
        <time>2020-07-12T10:57:06Z</time>
      </trkpt>
      <trkpt lat="36.9527170" lon="-3.2209760">
        <ele>1219.8</ele>
        <time>2020-07-12T10:57:09Z</time>
      </trkpt>
      <trkpt lat="36.9527560" lon="-3.2209150">
        <ele>1220.2</ele>
        <time>2020-07-12T10:57:11Z</time>
      </trkpt>
      <trkpt lat="36.9528640" lon="-3.2207810">
        <ele>1221.4</ele>
        <time>2020-07-12T10:57:16Z</time>
      </trkpt>
      <trkpt lat="36.9529730" lon="-3.2206390">
        <ele>1222.4</ele>
        <time>2020-07-12T10:57:20Z</time>
      </trkpt>
      <trkpt lat="36.9530410" lon="-3.2205080">
        <ele>1223.4</ele>
        <time>2020-07-12T10:57:24Z</time>
      </trkpt>
      <trkpt lat="36.9531150" lon="-3.2203350">
        <ele>1224.6</ele>
        <time>2020-07-12T10:57:29Z</time>
      </trkpt>
      <trkpt lat="36.9531780" lon="-3.2201900">
        <ele>1225.2</ele>
        <time>2020-07-12T10:57:33Z</time>
      </trkpt>
      <trkpt lat="36.9532260" lon="-3.2200880">
        <ele>1225.6</ele>
        <time>2020-07-12T10:57:36Z</time>
      </trkpt>
      <trkpt lat="36.9533250" lon="-3.2199450">
        <ele>1226.8</ele>
        <time>2020-07-12T10:57:41Z</time>
      </trkpt>
      <trkpt lat="36.9533480" lon="-3.2199150">
        <ele>1227.2</ele>
        <time>2020-07-12T10:57:42Z</time>
      </trkpt>
      <trkpt lat="36.9533920" lon="-3.2198660">
        <ele>1227.8</ele>
        <time>2020-07-12T10:57:44Z</time>
      </trkpt>
      <trkpt lat="36.9534790" lon="-3.2197710">
        <ele>1229.0</ele>
        <time>2020-07-12T10:57:48Z</time>
      </trkpt>
      <trkpt lat="36.9535090" lon="-3.2197090">
        <ele>1229.4</ele>
        <time>2020-07-12T10:57:50Z</time>
      </trkpt>
      <trkpt lat="36.9535370" lon="-3.2196050">
        <ele>1230.0</ele>
        <time>2020-07-12T10:57:53Z</time>
      </trkpt>
      <trkpt lat="36.9535620" lon="-3.2194570">
        <ele>1231.0</ele>
        <time>2020-07-12T10:57:57Z</time>
      </trkpt>
      <trkpt lat="36.9535650" lon="-3.2194210">
        <ele>1231.0</ele>
        <time>2020-07-12T10:57:58Z</time>
      </trkpt>
      <trkpt lat="36.9535710" lon="-3.2191930">
        <ele>1232.2</ele>
        <time>2020-07-12T10:58:04Z</time>
      </trkpt>
      <trkpt lat="36.9535530" lon="-3.2189960">
        <ele>1233.2</ele>
        <time>2020-07-12T10:58:09Z</time>
      </trkpt>
      <trkpt lat="36.9535200" lon="-3.2188670">
        <ele>1234.0</ele>
        <time>2020-07-12T10:58:12Z</time>
      </trkpt>
      <trkpt lat="36.9535030" lon="-3.2188300">
        <ele>1234.2</ele>
        <time>2020-07-12T10:58:13Z</time>
      </trkpt>
      <trkpt lat="36.9533960" lon="-3.2186730">
        <ele>1235.4</ele>
        <time>2020-07-12T10:58:18Z</time>
      </trkpt>
      <trkpt lat="36.9532680" lon="-3.2185580">
        <ele>1236.6</ele>
        <time>2020-07-12T10:58:23Z</time>
      </trkpt>
      <trkpt lat="36.9531270" lon="-3.2184650">
        <ele>1237.4</ele>
        <time>2020-07-12T10:58:28Z</time>
      </trkpt>
      <trkpt lat="36.9530990" lon="-3.2184460">
        <ele>1237.6</ele>
        <time>2020-07-12T10:58:29Z</time>
      </trkpt>
      <trkpt lat="36.9529910" lon="-3.2183560">
        <ele>1238.8</ele>
        <time>2020-07-12T10:58:33Z</time>
      </trkpt>
      <trkpt lat="36.9529300" lon="-3.2182600">
        <ele>1239.8</ele>
        <time>2020-07-12T10:58:36Z</time>
      </trkpt>
      <trkpt lat="36.9529120" lon="-3.2182160">
        <ele>1240.0</ele>
        <time>2020-07-12T10:58:37Z</time>
      </trkpt>
      <trkpt lat="36.9529110" lon="-3.2181370">
        <ele>1240.4</ele>
        <time>2020-07-12T10:58:41Z</time>
      </trkpt>
      <trkpt lat="36.9529100" lon="-3.2180580">
        <ele>1240.6</ele>
        <time>2020-07-12T10:58:42Z</time>
      </trkpt>
      <trkpt lat="36.9529070" lon="-3.2179010">
        <ele>1240.6</ele>
        <time>2020-07-12T10:58:43Z</time>
      </trkpt>
      <trkpt lat="36.9529250" lon="-3.2177790">
        <ele>1240.8</ele>
        <time>2020-07-12T10:58:45Z</time>
      </trkpt>
      <trkpt lat="36.9529330" lon="-3.2177250">
        <ele>1241.0</ele>
        <time>2020-07-12T10:58:46Z</time>
      </trkpt>
      <trkpt lat="36.9530070" lon="-3.2174330">
        <ele>1241.0</ele>
        <time>2020-07-12T10:58:51Z</time>
      </trkpt>
      <trkpt lat="36.9531900" lon="-3.2169810">
        <ele>1241.4</ele>
        <time>2020-07-12T10:58:59Z</time>
      </trkpt>
      <trkpt lat="36.9532160" lon="-3.2169240">
        <ele>1241.4</ele>
        <time>2020-07-12T10:59:00Z</time>
      </trkpt>
      <trkpt lat="36.9533260" lon="-3.2167050">
        <ele>1241.6</ele>
        <time>2020-07-12T10:59:04Z</time>
      </trkpt>
      <trkpt lat="36.9534580" lon="-3.2164850">
        <ele>1241.8</ele>
        <time>2020-07-12T10:59:08Z</time>
      </trkpt>
      <trkpt lat="36.9534950" lon="-3.2164340">
        <ele>1241.8</ele>
        <time>2020-07-12T10:59:09Z</time>
      </trkpt>
      <trkpt lat="36.9535320" lon="-3.2163900">
        <ele>1241.8</ele>
        <time>2020-07-12T10:59:10Z</time>
      </trkpt>
      <trkpt lat="36.9536200" lon="-3.2163030">
        <ele>1242.0</ele>
        <time>2020-07-12T10:59:12Z</time>
      </trkpt>
      <trkpt lat="36.9537190" lon="-3.2162350">
        <ele>1242.0</ele>
        <time>2020-07-12T10:59:14Z</time>
      </trkpt>
      <trkpt lat="36.9539310" lon="-3.2161540">
        <ele>1242.2</ele>
        <time>2020-07-12T10:59:18Z</time>
      </trkpt>
      <trkpt lat="36.9539830" lon="-3.2161530">
        <ele>1242.2</ele>
        <time>2020-07-12T10:59:19Z</time>
      </trkpt>
      <trkpt lat="36.9541760" lon="-3.2162140">
        <ele>1242.6</ele>
        <time>2020-07-12T10:59:23Z</time>
      </trkpt>
      <trkpt lat="36.9542220" lon="-3.2162380">
        <ele>1243.0</ele>
        <time>2020-07-12T10:59:24Z</time>
      </trkpt>
      <trkpt lat="36.9544170" lon="-3.2163580">
        <ele>1244.0</ele>
        <time>2020-07-12T10:59:29Z</time>
      </trkpt>
      <trkpt lat="36.9544550" lon="-3.2163810">
        <ele>1244.4</ele>
        <time>2020-07-12T10:59:30Z</time>
      </trkpt>
      <trkpt lat="36.9545900" lon="-3.2164580">
        <ele>1245.2</ele>
        <time>2020-07-12T10:59:34Z</time>
      </trkpt>
      <trkpt lat="36.9547360" lon="-3.2165170">
        <ele>1246.0</ele>
        <time>2020-07-12T10:59:38Z</time>
      </trkpt>
      <trkpt lat="36.9547660" lon="-3.2165310">
        <ele>1246.4</ele>
        <time>2020-07-12T10:59:39Z</time>
      </trkpt>
      <trkpt lat="36.9548740" lon="-3.2165510">
        <ele>1247.4</ele>
        <time>2020-07-12T10:59:42Z</time>
      </trkpt>
      <trkpt lat="36.9549450" lon="-3.2165600">
        <ele>1248.2</ele>
        <time>2020-07-12T10:59:44Z</time>
      </trkpt>
      <trkpt lat="36.9549820" lon="-3.2165650">
        <ele>1248.4</ele>
        <time>2020-07-12T10:59:45Z</time>
      </trkpt>
      <trkpt lat="36.9551300" lon="-3.2165800">
        <ele>1249.6</ele>
        <time>2020-07-12T10:59:49Z</time>
      </trkpt>
      <trkpt lat="36.9553000" lon="-3.2165810">
        <ele>1250.4</ele>
        <time>2020-07-12T10:59:54Z</time>
      </trkpt>
      <trkpt lat="36.9553350" lon="-3.2165760">
        <ele>1250.8</ele>
        <time>2020-07-12T10:59:55Z</time>
      </trkpt>
      <trkpt lat="36.9555060" lon="-3.2165580">
        <ele>1251.8</ele>
        <time>2020-07-12T11:00:00Z</time>
      </trkpt>
      <trkpt lat="36.9556060" lon="-3.2165500">
        <ele>1252.6</ele>
        <time>2020-07-12T11:00:03Z</time>
      </trkpt>
      <trkpt lat="36.9556380" lon="-3.2165390">
        <ele>1252.8</ele>
        <time>2020-07-12T11:00:04Z</time>
      </trkpt>
      <trkpt lat="36.9557600" lon="-3.2164530">
        <ele>1254.0</ele>
        <time>2020-07-12T11:00:08Z</time>
      </trkpt>
      <trkpt lat="36.9559080" lon="-3.2162910">
        <ele>1255.0</ele>
        <time>2020-07-12T11:00:14Z</time>
      </trkpt>
      <trkpt lat="36.9559920" lon="-3.2162360">
        <ele>1255.8</ele>
        <time>2020-07-12T11:00:17Z</time>
      </trkpt>
      <trkpt lat="36.9560480" lon="-3.2162150">
        <ele>1256.4</ele>
        <time>2020-07-12T11:00:19Z</time>
      </trkpt>
      <trkpt lat="36.9561480" lon="-3.2161480">
        <ele>1257.0</ele>
        <time>2020-07-12T11:00:23Z</time>
      </trkpt>
      <trkpt lat="36.9562350" lon="-3.2161310">
        <ele>1257.4</ele>
        <time>2020-07-12T11:00:26Z</time>
      </trkpt>
      <trkpt lat="36.9562950" lon="-3.2161260">
        <ele>1258.0</ele>
        <time>2020-07-12T11:00:28Z</time>
      </trkpt>
      <trkpt lat="36.9563540" lon="-3.2161340">
        <ele>1258.6</ele>
        <time>2020-07-12T11:00:30Z</time>
      </trkpt>
      <trkpt lat="36.9564780" lon="-3.2161640">
        <ele>1259.4</ele>
        <time>2020-07-12T11:00:35Z</time>
      </trkpt>
      <trkpt lat="36.9565000" lon="-3.2161750">
        <ele>1259.6</ele>
        <time>2020-07-12T11:00:36Z</time>
      </trkpt>
      <trkpt lat="36.9566470" lon="-3.2162520">
        <ele>1260.6</ele>
        <time>2020-07-12T11:00:43Z</time>
      </trkpt>
      <trkpt lat="36.9567590" lon="-3.2163280">
        <ele>1261.2</ele>
        <time>2020-07-12T11:00:48Z</time>
      </trkpt>
      <trkpt lat="36.9567860" lon="-3.2163470">
        <ele>1261.4</ele>
        <time>2020-07-12T11:00:49Z</time>
      </trkpt>
      <trkpt lat="36.9568600" lon="-3.2163930">
        <ele>1261.6</ele>
        <time>2020-07-12T11:00:52Z</time>
      </trkpt>
      <trkpt lat="36.9568820" lon="-3.2164060">
        <ele>1261.8</ele>
        <time>2020-07-12T11:00:53Z</time>
      </trkpt>
      <trkpt lat="36.9569470" lon="-3.2164600">
        <ele>1261.6</ele>
        <time>2020-07-12T11:00:56Z</time>
      </trkpt>
      <trkpt lat="36.9570970" lon="-3.2165150">
        <ele>1261.6</ele>
        <time>2020-07-12T11:01:00Z</time>
      </trkpt>
      <trkpt lat="36.9571400" lon="-3.2165200">
        <ele>1261.4</ele>
        <time>2020-07-12T11:01:01Z</time>
      </trkpt>
      <trkpt lat="36.9572440" lon="-3.2165000">
        <ele>1261.4</ele>
        <time>2020-07-12T11:01:03Z</time>
      </trkpt>
      <trkpt lat="36.9573400" lon="-3.2164680">
        <ele>1261.4</ele>
        <time>2020-07-12T11:01:05Z</time>
      </trkpt>
      <trkpt lat="36.9574550" lon="-3.2164510">
        <ele>1261.0</ele>
        <time>2020-07-12T11:01:07Z</time>
      </trkpt>
      <trkpt lat="36.9575860" lon="-3.2164420">
        <ele>1260.8</ele>
        <time>2020-07-12T11:01:09Z</time>
      </trkpt>
      <trkpt lat="36.9576550" lon="-3.2164080">
        <ele>1260.4</ele>
        <time>2020-07-12T11:01:10Z</time>
      </trkpt>
      <trkpt lat="36.9577520" lon="-3.2162260">
        <ele>1259.6</ele>
        <time>2020-07-12T11:01:12Z</time>
      </trkpt>
      <trkpt lat="36.9577820" lon="-3.2161300">
        <ele>1259.2</ele>
        <time>2020-07-12T11:01:13Z</time>
      </trkpt>
      <trkpt lat="36.9578100" lon="-3.2160360">
        <ele>1258.6</ele>
        <time>2020-07-12T11:01:14Z</time>
      </trkpt>
      <trkpt lat="36.9578140" lon="-3.2159450">
        <ele>1258.2</ele>
        <time>2020-07-12T11:01:15Z</time>
      </trkpt>
      <trkpt lat="36.9577880" lon="-3.2158800">
        <ele>1257.8</ele>
        <time>2020-07-12T11:01:16Z</time>
      </trkpt>
      <trkpt lat="36.9576760" lon="-3.2157550">
        <ele>1258.2</ele>
        <time>2020-07-12T11:01:19Z</time>
      </trkpt>
      <trkpt lat="36.9576410" lon="-3.2157310">
        <ele>1258.4</ele>
        <time>2020-07-12T11:01:20Z</time>
      </trkpt>
      <trkpt lat="36.9576130" lon="-3.2157160">
        <ele>1258.8</ele>
        <time>2020-07-12T11:01:21Z</time>
      </trkpt>
      <trkpt lat="36.9575120" lon="-3.2156660">
        <ele>1259.8</ele>
        <time>2020-07-12T11:01:24Z</time>
      </trkpt>
      <trkpt lat="36.9574830" lon="-3.2156500">
        <ele>1260.0</ele>
        <time>2020-07-12T11:01:25Z</time>
      </trkpt>
      <trkpt lat="36.9574280" lon="-3.2156140">
        <ele>1260.4</ele>
        <time>2020-07-12T11:01:27Z</time>
      </trkpt>
      <trkpt lat="36.9573180" lon="-3.2154890">
        <ele>1261.2</ele>
        <time>2020-07-12T11:01:32Z</time>
      </trkpt>
      <trkpt lat="36.9572820" lon="-3.2154360">
        <ele>1261.8</ele>
        <time>2020-07-12T11:01:34Z</time>
      </trkpt>
      <trkpt lat="36.9572470" lon="-3.2153830">
        <ele>1262.4</ele>
        <time>2020-07-12T11:01:36Z</time>
      </trkpt>
      <trkpt lat="36.9571940" lon="-3.2152630">
        <ele>1263.2</ele>
        <time>2020-07-12T11:01:40Z</time>
      </trkpt>
      <trkpt lat="36.9571850" lon="-3.2152320">
        <ele>1263.4</ele>
        <time>2020-07-12T11:01:41Z</time>
      </trkpt>
      <trkpt lat="36.9571770" lon="-3.2151960">
        <ele>1263.6</ele>
        <time>2020-07-12T11:01:42Z</time>
      </trkpt>
      <trkpt lat="36.9571490" lon="-3.2150630">
        <ele>1264.4</ele>
        <time>2020-07-12T11:01:46Z</time>
      </trkpt>
      <trkpt lat="36.9570650" lon="-3.2148700">
        <ele>1265.2</ele>
        <time>2020-07-12T11:01:52Z</time>
      </trkpt>
      <trkpt lat="36.9570470" lon="-3.2148420">
        <ele>1265.4</ele>
        <time>2020-07-12T11:01:53Z</time>
      </trkpt>
      <trkpt lat="36.9569620" lon="-3.2147520">
        <ele>1266.4</ele>
        <time>2020-07-12T11:01:57Z</time>
      </trkpt>
      <trkpt lat="36.9568950" lon="-3.2147030">
        <ele>1267.4</ele>
        <time>2020-07-12T11:02:00Z</time>
      </trkpt>
      <trkpt lat="36.9568720" lon="-3.2146890">
        <ele>1267.6</ele>
        <time>2020-07-12T11:02:01Z</time>
      </trkpt>
      <trkpt lat="36.9567620" lon="-3.2146080">
        <ele>1268.6</ele>
        <time>2020-07-12T11:02:06Z</time>
      </trkpt>
      <trkpt lat="36.9566900" lon="-3.2145620">
        <ele>1269.4</ele>
        <time>2020-07-12T11:02:09Z</time>
      </trkpt>
      <trkpt lat="36.9566430" lon="-3.2145270">
        <ele>1269.8</ele>
        <time>2020-07-12T11:02:11Z</time>
      </trkpt>
      <trkpt lat="36.9566170" lon="-3.2145070">
        <ele>1270.0</ele>
        <time>2020-07-12T11:02:12Z</time>
      </trkpt>
      <trkpt lat="36.9565450" lon="-3.2144450">
        <ele>1270.4</ele>
        <time>2020-07-12T11:02:15Z</time>
      </trkpt>
      <trkpt lat="36.9565030" lon="-3.2143980">
        <ele>1270.8</ele>
        <time>2020-07-12T11:02:17Z</time>
      </trkpt>
      <trkpt lat="36.9564230" lon="-3.2143010">
        <ele>1272.0</ele>
        <time>2020-07-12T11:02:21Z</time>
      </trkpt>
      <trkpt lat="36.9563370" lon="-3.2141520">
        <ele>1273.0</ele>
        <time>2020-07-12T11:02:26Z</time>
      </trkpt>
      <trkpt lat="36.9562350" lon="-3.2139770">
        <ele>1274.0</ele>
        <time>2020-07-12T11:02:32Z</time>
      </trkpt>
      <trkpt lat="36.9561790" lon="-3.2138170">
        <ele>1275.2</ele>
        <time>2020-07-12T11:02:37Z</time>
      </trkpt>
      <trkpt lat="36.9561500" lon="-3.2136860">
        <ele>1276.6</ele>
        <time>2020-07-12T11:02:41Z</time>
      </trkpt>
      <trkpt lat="36.9561370" lon="-3.2135440">
        <ele>1277.2</ele>
        <time>2020-07-12T11:02:45Z</time>
      </trkpt>
      <trkpt lat="36.9561250" lon="-3.2134790">
        <ele>1277.6</ele>
        <time>2020-07-12T11:02:47Z</time>
      </trkpt>
      <trkpt lat="36.9561040" lon="-3.2132890">
        <ele>1278.6</ele>
        <time>2020-07-12T11:02:53Z</time>
      </trkpt>
      <trkpt lat="36.9560970" lon="-3.2132440">
        <ele>1278.8</ele>
        <time>2020-07-12T11:02:54Z</time>
      </trkpt>
      <trkpt lat="36.9560820" lon="-3.2131040">
        <ele>1279.8</ele>
        <time>2020-07-12T11:02:58Z</time>
      </trkpt>
      <trkpt lat="36.9560690" lon="-3.2129610">
        <ele>1280.8</ele>
        <time>2020-07-12T11:03:02Z</time>
      </trkpt>
      <trkpt lat="36.9560660" lon="-3.2129270">
        <ele>1281.0</ele>
        <time>2020-07-12T11:03:03Z</time>
      </trkpt>
      <trkpt lat="36.9560560" lon="-3.2128310">
        <ele>1281.6</ele>
        <time>2020-07-12T11:03:06Z</time>
      </trkpt>
      <trkpt lat="36.9560510" lon="-3.2127590">
        <ele>1282.0</ele>
        <time>2020-07-12T11:03:08Z</time>
      </trkpt>
      <trkpt lat="36.9560580" lon="-3.2126100">
        <ele>1282.6</ele>
        <time>2020-07-12T11:03:12Z</time>
      </trkpt>
      <trkpt lat="36.9560600" lon="-3.2125720">
        <ele>1282.8</ele>
        <time>2020-07-12T11:03:13Z</time>
      </trkpt>
      <trkpt lat="36.9560620" lon="-3.2125350">
        <ele>1283.0</ele>
        <time>2020-07-12T11:03:14Z</time>
      </trkpt>
      <trkpt lat="36.9560960" lon="-3.2123200">
        <ele>1284.2</ele>
        <time>2020-07-12T11:03:20Z</time>
      </trkpt>
      <trkpt lat="36.9561100" lon="-3.2122540">
        <ele>1284.6</ele>
        <time>2020-07-12T11:03:22Z</time>
      </trkpt>
      <trkpt lat="36.9561340" lon="-3.2121150">
        <ele>1285.2</ele>
        <time>2020-07-12T11:03:26Z</time>
      </trkpt>
      <trkpt lat="36.9561860" lon="-3.2119480">
        <ele>1286.4</ele>
        <time>2020-07-12T11:03:31Z</time>
      </trkpt>
      <trkpt lat="36.9562060" lon="-3.2119170">
        <ele>1286.6</ele>
        <time>2020-07-12T11:03:32Z</time>
      </trkpt>
      <trkpt lat="36.9563060" lon="-3.2117860">
        <ele>1287.6</ele>
        <time>2020-07-12T11:03:37Z</time>
      </trkpt>
      <trkpt lat="36.9563980" lon="-3.2117010">
        <ele>1288.2</ele>
        <time>2020-07-12T11:03:41Z</time>
      </trkpt>
      <trkpt lat="36.9564490" lon="-3.2116490">
        <ele>1288.6</ele>
        <time>2020-07-12T11:03:43Z</time>
      </trkpt>
      <trkpt lat="36.9565010" lon="-3.2114770">
        <ele>1289.2</ele>
        <time>2020-07-12T11:03:48Z</time>
      </trkpt>
      <trkpt lat="36.9564960" lon="-3.2113770">
        <ele>1289.8</ele>
        <time>2020-07-12T11:03:51Z</time>
      </trkpt>
      <trkpt lat="36.9565120" lon="-3.2112440">
        <ele>1290.8</ele>
        <time>2020-07-12T11:03:55Z</time>
      </trkpt>
      <trkpt lat="36.9565750" lon="-3.2110970">
        <ele>1291.8</ele>
        <time>2020-07-12T11:04:00Z</time>
      </trkpt>
      <trkpt lat="36.9566010" lon="-3.2110310">
        <ele>1292.2</ele>
        <time>2020-07-12T11:04:02Z</time>
      </trkpt>
      <trkpt lat="36.9566320" lon="-3.2108700">
        <ele>1292.8</ele>
        <time>2020-07-12T11:04:07Z</time>
      </trkpt>
      <trkpt lat="36.9566370" lon="-3.2108140">
        <ele>1293.0</ele>
        <time>2020-07-12T11:04:08Z</time>
      </trkpt>
      <trkpt lat="36.9566270" lon="-3.2106760">
        <ele>1293.8</ele>
        <time>2020-07-12T11:04:12Z</time>
      </trkpt>
      <trkpt lat="36.9566260" lon="-3.2105680">
        <ele>1295.2</ele>
        <time>2020-07-12T11:04:15Z</time>
      </trkpt>
      <trkpt lat="36.9566270" lon="-3.2105370">
        <ele>1295.4</ele>
        <time>2020-07-12T11:04:16Z</time>
      </trkpt>
      <trkpt lat="36.9566740" lon="-3.2103300">
        <ele>1296.2</ele>
        <time>2020-07-12T11:04:22Z</time>
      </trkpt>
      <trkpt lat="36.9567020" lon="-3.2102660">
        <ele>1296.8</ele>
        <time>2020-07-12T11:04:24Z</time>
      </trkpt>
      <trkpt lat="36.9567690" lon="-3.2101520">
        <ele>1297.4</ele>
        <time>2020-07-12T11:04:28Z</time>
      </trkpt>
      <trkpt lat="36.9568670" lon="-3.2100310">
        <ele>1298.4</ele>
        <time>2020-07-12T11:04:33Z</time>
      </trkpt>
      <trkpt lat="36.9568860" lon="-3.2100080">
        <ele>1298.6</ele>
        <time>2020-07-12T11:04:34Z</time>
      </trkpt>
      <trkpt lat="36.9569560" lon="-3.2098200">
        <ele>1299.4</ele>
        <time>2020-07-12T11:04:40Z</time>
      </trkpt>
      <trkpt lat="36.9569560" lon="-3.2097880">
        <ele>1299.6</ele>
        <time>2020-07-12T11:04:41Z</time>
      </trkpt>
      <trkpt lat="36.9569250" lon="-3.2096510">
        <ele>1300.6</ele>
        <time>2020-07-12T11:04:45Z</time>
      </trkpt>
      <trkpt lat="36.9569170" lon="-3.2096230">
        <ele>1301.0</ele>
        <time>2020-07-12T11:04:46Z</time>
      </trkpt>
      <trkpt lat="36.9568900" lon="-3.2095150">
        <ele>1301.8</ele>
        <time>2020-07-12T11:04:49Z</time>
      </trkpt>
      <trkpt lat="36.9568890" lon="-3.2093600">
        <ele>1302.4</ele>
        <time>2020-07-12T11:04:53Z</time>
      </trkpt>
      <trkpt lat="36.9568960" lon="-3.2092840">
        <ele>1302.8</ele>
        <time>2020-07-12T11:04:55Z</time>
      </trkpt>
      <trkpt lat="36.9569420" lon="-3.2090830">
        <ele>1304.0</ele>
        <time>2020-07-12T11:05:01Z</time>
      </trkpt>
      <trkpt lat="36.9570220" lon="-3.2089300">
        <ele>1305.0</ele>
        <time>2020-07-12T11:05:06Z</time>
      </trkpt>
      <trkpt lat="36.9570830" lon="-3.2088420">
        <ele>1305.4</ele>
        <time>2020-07-12T11:05:09Z</time>
      </trkpt>
      <trkpt lat="36.9571730" lon="-3.2087010">
        <ele>1306.2</ele>
        <time>2020-07-12T11:05:14Z</time>
      </trkpt>
      <trkpt lat="36.9572620" lon="-3.2085650">
        <ele>1307.0</ele>
        <time>2020-07-12T11:05:19Z</time>
      </trkpt>
      <trkpt lat="36.9572980" lon="-3.2085100">
        <ele>1307.4</ele>
        <time>2020-07-12T11:05:21Z</time>
      </trkpt>
      <trkpt lat="36.9573730" lon="-3.2083990">
        <ele>1308.4</ele>
        <time>2020-07-12T11:05:25Z</time>
      </trkpt>
      <trkpt lat="36.9574580" lon="-3.2082550">
        <ele>1309.4</ele>
        <time>2020-07-12T11:05:30Z</time>
      </trkpt>
      <trkpt lat="36.9574900" lon="-3.2080520">
        <ele>1310.0</ele>
        <time>2020-07-12T11:05:36Z</time>
      </trkpt>
      <trkpt lat="36.9574740" lon="-3.2079460">
        <ele>1310.6</ele>
        <time>2020-07-12T11:05:39Z</time>
      </trkpt>
      <trkpt lat="36.9574420" lon="-3.2078160">
        <ele>1311.6</ele>
        <time>2020-07-12T11:05:43Z</time>
      </trkpt>
      <trkpt lat="36.9574370" lon="-3.2077830">
        <ele>1311.8</ele>
        <time>2020-07-12T11:05:44Z</time>
      </trkpt>
      <trkpt lat="36.9574300" lon="-3.2077520">
        <ele>1312.2</ele>
        <time>2020-07-12T11:05:45Z</time>
      </trkpt>
      <trkpt lat="36.9574140" lon="-3.2076560">
        <ele>1313.0</ele>
        <time>2020-07-12T11:05:48Z</time>
      </trkpt>
      <trkpt lat="36.9574270" lon="-3.2074770">
        <ele>1314.0</ele>
        <time>2020-07-12T11:05:53Z</time>
      </trkpt>
      <trkpt lat="36.9575150" lon="-3.2072240">
        <ele>1315.0</ele>
        <time>2020-07-12T11:06:00Z</time>
      </trkpt>
      <trkpt lat="36.9575320" lon="-3.2071900">
        <ele>1315.2</ele>
        <time>2020-07-12T11:06:01Z</time>
      </trkpt>
      <trkpt lat="36.9577090" lon="-3.2069580">
        <ele>1316.0</ele>
        <time>2020-07-12T11:06:07Z</time>
      </trkpt>
      <trkpt lat="36.9577500" lon="-3.2069150">
        <ele>1316.0</ele>
        <time>2020-07-12T11:06:08Z</time>
      </trkpt>
      <trkpt lat="36.9579720" lon="-3.2066950">
        <ele>1315.4</ele>
        <time>2020-07-12T11:06:13Z</time>
      </trkpt>
      <trkpt lat="36.9581780" lon="-3.2065070">
        <ele>1315.0</ele>
        <time>2020-07-12T11:06:17Z</time>
      </trkpt>
      <trkpt lat="36.9583040" lon="-3.2064480">
        <ele>1315.0</ele>
        <time>2020-07-12T11:06:19Z</time>
      </trkpt>
      <trkpt lat="36.9585110" lon="-3.2064450">
        <ele>1314.6</ele>
        <time>2020-07-12T11:06:22Z</time>
      </trkpt>
      <trkpt lat="36.9585840" lon="-3.2064480">
        <ele>1314.6</ele>
        <time>2020-07-12T11:06:23Z</time>
      </trkpt>
      <trkpt lat="36.9588160" lon="-3.2064180">
        <ele>1314.2</ele>
        <time>2020-07-12T11:06:26Z</time>
      </trkpt>
      <trkpt lat="36.9589750" lon="-3.2063200">
        <ele>1314.0</ele>
        <time>2020-07-12T11:06:28Z</time>
      </trkpt>
      <trkpt lat="36.9591570" lon="-3.2062300">
        <ele>1313.4</ele>
        <time>2020-07-12T11:06:30Z</time>
      </trkpt>
      <trkpt lat="36.9592530" lon="-3.2062250">
        <ele>1313.2</ele>
        <time>2020-07-12T11:06:31Z</time>
      </trkpt>
      <trkpt lat="36.9593630" lon="-3.2062280">
        <ele>1312.8</ele>
        <time>2020-07-12T11:06:32Z</time>
      </trkpt>
      <trkpt lat="36.9595650" lon="-3.2062210">
        <ele>1311.6</ele>
        <time>2020-07-12T11:06:34Z</time>
      </trkpt>
      <trkpt lat="36.9596610" lon="-3.2061820">
        <ele>1310.8</ele>
        <time>2020-07-12T11:06:35Z</time>
      </trkpt>
      <trkpt lat="36.9597320" lon="-3.2061050">
        <ele>1309.8</ele>
        <time>2020-07-12T11:06:36Z</time>
      </trkpt>
      <trkpt lat="36.9597780" lon="-3.2059870">
        <ele>1308.8</ele>
        <time>2020-07-12T11:06:37Z</time>
      </trkpt>
      <trkpt lat="36.9597690" lon="-3.2058630">
        <ele>1307.8</ele>
        <time>2020-07-12T11:06:38Z</time>
      </trkpt>
      <trkpt lat="36.9597220" lon="-3.2057490">
        <ele>1306.8</ele>
        <time>2020-07-12T11:06:39Z</time>
      </trkpt>
      <trkpt lat="36.9596600" lon="-3.2056530">
        <ele>1306.0</ele>
        <time>2020-07-12T11:06:40Z</time>
      </trkpt>
      <trkpt lat="36.9596120" lon="-3.2055430">
        <ele>1305.2</ele>
        <time>2020-07-12T11:06:41Z</time>
      </trkpt>
      <trkpt lat="36.9595910" lon="-3.2054010">
        <ele>1304.6</ele>
        <time>2020-07-12T11:06:42Z</time>
      </trkpt>
      <trkpt lat="36.9596150" lon="-3.2052620">
        <ele>1303.8</ele>
        <time>2020-07-12T11:06:43Z</time>
      </trkpt>
      <trkpt lat="36.9597330" lon="-3.2050200">
        <ele>1302.6</ele>
        <time>2020-07-12T11:06:45Z</time>
      </trkpt>
      <trkpt lat="36.9598090" lon="-3.2049340">
        <ele>1302.2</ele>
        <time>2020-07-12T11:06:46Z</time>
      </trkpt>
      <trkpt lat="36.9599060" lon="-3.2048330">
        <ele>1301.2</ele>
        <time>2020-07-12T11:06:47Z</time>
      </trkpt>
      <trkpt lat="36.9600040" lon="-3.2047390">
        <ele>1300.2</ele>
        <time>2020-07-12T11:06:48Z</time>
      </trkpt>
      <trkpt lat="36.9600900" lon="-3.2046430">
        <ele>1299.0</ele>
        <time>2020-07-12T11:06:49Z</time>
      </trkpt>
      <trkpt lat="36.9601400" lon="-3.2045130">
        <ele>1298.6</ele>
        <time>2020-07-12T11:06:50Z</time>
      </trkpt>
      <trkpt lat="36.9601480" lon="-3.2043800">
        <ele>1297.6</ele>
        <time>2020-07-12T11:06:51Z</time>
      </trkpt>
      <trkpt lat="36.9601940" lon="-3.2041040">
        <ele>1296.2</ele>
        <time>2020-07-12T11:06:53Z</time>
      </trkpt>
      <trkpt lat="36.9602740" lon="-3.2039960">
        <ele>1295.6</ele>
        <time>2020-07-12T11:06:54Z</time>
      </trkpt>
      <trkpt lat="36.9603700" lon="-3.2039220">
        <ele>1294.6</ele>
        <time>2020-07-12T11:06:55Z</time>
      </trkpt>
      <trkpt lat="36.9604550" lon="-3.2038610">
        <ele>1294.2</ele>
        <time>2020-07-12T11:06:56Z</time>
      </trkpt>
      <trkpt lat="36.9605470" lon="-3.2037700">
        <ele>1293.4</ele>
        <time>2020-07-12T11:06:57Z</time>
      </trkpt>
      <trkpt lat="36.9606830" lon="-3.2035730">
        <ele>1292.4</ele>
        <time>2020-07-12T11:06:59Z</time>
      </trkpt>
      <trkpt lat="36.9607690" lon="-3.2034920">
        <ele>1291.8</ele>
        <time>2020-07-12T11:07:00Z</time>
      </trkpt>
      <trkpt lat="36.9608520" lon="-3.2034260">
        <ele>1291.2</ele>
        <time>2020-07-12T11:07:01Z</time>
      </trkpt>
      <trkpt lat="36.9609480" lon="-3.2033580">
        <ele>1291.0</ele>
        <time>2020-07-12T11:07:02Z</time>
      </trkpt>
      <trkpt lat="36.9611250" lon="-3.2032770">
        <ele>1290.2</ele>
        <time>2020-07-12T11:07:04Z</time>
      </trkpt>
      <trkpt lat="36.9612090" lon="-3.2032650">
        <ele>1289.8</ele>
        <time>2020-07-12T11:07:05Z</time>
      </trkpt>
      <trkpt lat="36.9613830" lon="-3.2032100">
        <ele>1289.2</ele>
        <time>2020-07-12T11:07:07Z</time>
      </trkpt>
      <trkpt lat="36.9614510" lon="-3.2031280">
        <ele>1288.6</ele>
        <time>2020-07-12T11:07:08Z</time>
      </trkpt>
      <trkpt lat="36.9614970" lon="-3.2030210">
        <ele>1288.2</ele>
        <time>2020-07-12T11:07:09Z</time>
      </trkpt>
      <trkpt lat="36.9615210" lon="-3.2029110">
        <ele>1287.8</ele>
        <time>2020-07-12T11:07:10Z</time>
      </trkpt>
      <trkpt lat="36.9615500" lon="-3.2028090">
        <ele>1287.6</ele>
        <time>2020-07-12T11:07:11Z</time>
      </trkpt>
      <trkpt lat="36.9616990" lon="-3.2023420">
        <ele>1286.8</ele>
        <time>2020-07-12T11:07:15Z</time>
      </trkpt>
      <trkpt lat="36.9617040" lon="-3.2022280">
        <ele>1286.6</ele>
        <time>2020-07-12T11:07:16Z</time>
      </trkpt>
      <trkpt lat="36.9616400" lon="-3.2019810">
        <ele>1285.8</ele>
        <time>2020-07-12T11:07:18Z</time>
      </trkpt>
      <trkpt lat="36.9615330" lon="-3.2016400">
        <ele>1284.4</ele>
        <time>2020-07-12T11:07:21Z</time>
      </trkpt>
      <trkpt lat="36.9614810" lon="-3.2015330">
        <ele>1284.0</ele>
        <time>2020-07-12T11:07:22Z</time>
      </trkpt>
      <trkpt lat="36.9614180" lon="-3.2014310">
        <ele>1283.8</ele>
        <time>2020-07-12T11:07:23Z</time>
      </trkpt>
      <trkpt lat="36.9613450" lon="-3.2013380">
        <ele>1283.4</ele>
        <time>2020-07-12T11:07:24Z</time>
      </trkpt>
      <trkpt lat="36.9612050" lon="-3.2011720">
        <ele>1282.8</ele>
        <time>2020-07-12T11:07:26Z</time>
      </trkpt>
      <trkpt lat="36.9611200" lon="-3.2010700">
        <ele>1282.4</ele>
        <time>2020-07-12T11:07:27Z</time>
      </trkpt>
      <trkpt lat="36.9610510" lon="-3.2009770">
        <ele>1282.0</ele>
        <time>2020-07-12T11:07:28Z</time>
      </trkpt>
      <trkpt lat="36.9609890" lon="-3.2008690">
        <ele>1281.8</ele>
        <time>2020-07-12T11:07:29Z</time>
      </trkpt>
      <trkpt lat="36.9608930" lon="-3.2006400">
        <ele>1281.2</ele>
        <time>2020-07-12T11:07:31Z</time>
      </trkpt>
      <trkpt lat="36.9608680" lon="-3.2005180">
        <ele>1280.8</ele>
        <time>2020-07-12T11:07:32Z</time>
      </trkpt>
      <trkpt lat="36.9609300" lon="-3.2002810">
        <ele>1280.0</ele>
        <time>2020-07-12T11:07:34Z</time>
      </trkpt>
      <trkpt lat="36.9610060" lon="-3.2001840">
        <ele>1279.6</ele>
        <time>2020-07-12T11:07:35Z</time>
      </trkpt>
      <trkpt lat="36.9610920" lon="-3.2001070">
        <ele>1279.2</ele>
        <time>2020-07-12T11:07:36Z</time>
      </trkpt>
      <trkpt lat="36.9612970" lon="-3.1999590">
        <ele>1278.4</ele>
        <time>2020-07-12T11:07:38Z</time>
      </trkpt>
      <trkpt lat="36.9613780" lon="-3.1999050">
        <ele>1277.4</ele>
        <time>2020-07-12T11:07:39Z</time>
      </trkpt>
      <trkpt lat="36.9615030" lon="-3.1998160">
        <ele>1276.6</ele>
        <time>2020-07-12T11:07:40Z</time>
      </trkpt>
      <trkpt lat="36.9616010" lon="-3.1997440">
        <ele>1275.6</ele>
        <time>2020-07-12T11:07:41Z</time>
      </trkpt>
      <trkpt lat="36.9617230" lon="-3.1996570">
        <ele>1274.6</ele>
        <time>2020-07-12T11:07:42Z</time>
      </trkpt>
      <trkpt lat="36.9618380" lon="-3.1995770">
        <ele>1273.4</ele>
        <time>2020-07-12T11:07:43Z</time>
      </trkpt>
      <trkpt lat="36.9620820" lon="-3.1994560">
        <ele>1271.4</ele>
        <time>2020-07-12T11:07:45Z</time>
      </trkpt>
      <trkpt lat="36.9623600" lon="-3.1994290">
        <ele>1269.6</ele>
        <time>2020-07-12T11:07:47Z</time>
      </trkpt>
      <trkpt lat="36.9625000" lon="-3.1993900">
        <ele>1268.6</ele>
        <time>2020-07-12T11:07:48Z</time>
      </trkpt>
      <trkpt lat="36.9626300" lon="-3.1993170">
        <ele>1267.6</ele>
        <time>2020-07-12T11:07:49Z</time>
      </trkpt>
      <trkpt lat="36.9627460" lon="-3.1992240">
        <ele>1266.6</ele>
        <time>2020-07-12T11:07:50Z</time>
      </trkpt>
      <trkpt lat="36.9628390" lon="-3.1991190">
        <ele>1265.6</ele>
        <time>2020-07-12T11:07:51Z</time>
      </trkpt>
      <trkpt lat="36.9629260" lon="-3.1989900">
        <ele>1264.6</ele>
        <time>2020-07-12T11:07:52Z</time>
      </trkpt>
      <trkpt lat="36.9629970" lon="-3.1988420">
        <ele>1263.8</ele>
        <time>2020-07-12T11:07:53Z</time>
      </trkpt>
      <trkpt lat="36.9630600" lon="-3.1987040">
        <ele>1262.6</ele>
        <time>2020-07-12T11:07:54Z</time>
      </trkpt>
      <trkpt lat="36.9632580" lon="-3.1985200">
        <ele>1261.4</ele>
        <time>2020-07-12T11:07:56Z</time>
      </trkpt>
      <trkpt lat="36.9633940" lon="-3.1984680">
        <ele>1260.2</ele>
        <time>2020-07-12T11:07:57Z</time>
      </trkpt>
      <trkpt lat="36.9636530" lon="-3.1983650">
        <ele>1259.0</ele>
        <time>2020-07-12T11:07:59Z</time>
      </trkpt>
      <trkpt lat="36.9637890" lon="-3.1983140">
        <ele>1258.0</ele>
        <time>2020-07-12T11:08:00Z</time>
      </trkpt>
      <trkpt lat="36.9640380" lon="-3.1981890">
        <ele>1256.0</ele>
        <time>2020-07-12T11:08:02Z</time>
      </trkpt>
      <trkpt lat="36.9641310" lon="-3.1980790">
        <ele>1254.6</ele>
        <time>2020-07-12T11:08:03Z</time>
      </trkpt>
      <trkpt lat="36.9642000" lon="-3.1979640">
        <ele>1253.4</ele>
        <time>2020-07-12T11:08:04Z</time>
      </trkpt>
      <trkpt lat="36.9642970" lon="-3.1978720">
        <ele>1252.2</ele>
        <time>2020-07-12T11:08:05Z</time>
      </trkpt>
      <trkpt lat="36.9644120" lon="-3.1978430">
        <ele>1251.0</ele>
        <time>2020-07-12T11:08:06Z</time>
      </trkpt>
      <trkpt lat="36.9645430" lon="-3.1978310">
        <ele>1250.0</ele>
        <time>2020-07-12T11:08:07Z</time>
      </trkpt>
      <trkpt lat="36.9647560" lon="-3.1976760">
        <ele>1248.0</ele>
        <time>2020-07-12T11:08:09Z</time>
      </trkpt>
      <trkpt lat="36.9648980" lon="-3.1974300">
        <ele>1246.2</ele>
        <time>2020-07-12T11:08:11Z</time>
      </trkpt>
      <trkpt lat="36.9650020" lon="-3.1973090">
        <ele>1245.2</ele>
        <time>2020-07-12T11:08:12Z</time>
      </trkpt>
      <trkpt lat="36.9652120" lon="-3.1971900">
        <ele>1243.2</ele>
        <time>2020-07-12T11:08:14Z</time>
      </trkpt>
      <trkpt lat="36.9654040" lon="-3.1972660">
        <ele>1241.8</ele>
        <time>2020-07-12T11:08:16Z</time>
      </trkpt>
      <trkpt lat="36.9654920" lon="-3.1973780">
        <ele>1240.8</ele>
        <time>2020-07-12T11:08:17Z</time>
      </trkpt>
      <trkpt lat="36.9655410" lon="-3.1974930">
        <ele>1240.2</ele>
        <time>2020-07-12T11:08:18Z</time>
      </trkpt>
      <trkpt lat="36.9655860" lon="-3.1976240">
        <ele>1239.0</ele>
        <time>2020-07-12T11:08:19Z</time>
      </trkpt>
      <trkpt lat="36.9656380" lon="-3.1977320">
        <ele>1238.6</ele>
        <time>2020-07-12T11:08:20Z</time>
      </trkpt>
      <trkpt lat="36.9657140" lon="-3.1977930">
        <ele>1237.6</ele>
        <time>2020-07-12T11:08:21Z</time>
      </trkpt>
      <trkpt lat="36.9658900" lon="-3.1977620">
        <ele>1236.0</ele>
        <time>2020-07-12T11:08:23Z</time>
      </trkpt>
      <trkpt lat="36.9659890" lon="-3.1975980">
        <ele>1235.0</ele>
        <time>2020-07-12T11:08:25Z</time>
      </trkpt>
      <trkpt lat="36.9660370" lon="-3.1974220">
        <ele>1234.8</ele>
        <time>2020-07-12T11:08:27Z</time>
      </trkpt>
      <trkpt lat="36.9660640" lon="-3.1973410">
        <ele>1235.0</ele>
        <time>2020-07-12T11:08:28Z</time>
      </trkpt>
      <trkpt lat="36.9661360" lon="-3.1971750">
        <ele>1235.4</ele>
        <time>2020-07-12T11:08:30Z</time>
      </trkpt>
      <trkpt lat="36.9661690" lon="-3.1971080">
        <ele>1235.8</ele>
        <time>2020-07-12T11:08:31Z</time>
      </trkpt>
      <trkpt lat="36.9662390" lon="-3.1969490">
        <ele>1236.0</ele>
        <time>2020-07-12T11:08:33Z</time>
      </trkpt>
      <trkpt lat="36.9662700" lon="-3.1968780">
        <ele>1236.4</ele>
        <time>2020-07-12T11:08:34Z</time>
      </trkpt>
      <trkpt lat="36.9663520" lon="-3.1965490">
        <ele>1237.0</ele>
        <time>2020-07-12T11:08:38Z</time>
      </trkpt>
      <trkpt lat="36.9663520" lon="-3.1964580">
        <ele>1237.2</ele>
        <time>2020-07-12T11:08:39Z</time>
      </trkpt>
      <trkpt lat="36.9663500" lon="-3.1961970">
        <ele>1237.6</ele>
        <time>2020-07-12T11:08:42Z</time>
      </trkpt>
      <trkpt lat="36.9663770" lon="-3.1959420">
        <ele>1237.8</ele>
        <time>2020-07-12T11:08:45Z</time>
      </trkpt>
      <trkpt lat="36.9664230" lon="-3.1956910">
        <ele>1238.2</ele>
        <time>2020-07-12T11:08:48Z</time>
      </trkpt>
      <trkpt lat="36.9665120" lon="-3.1953940">
        <ele>1238.2</ele>
        <time>2020-07-12T11:08:52Z</time>
      </trkpt>
      <trkpt lat="36.9666320" lon="-3.1951760">
        <ele>1238.2</ele>
        <time>2020-07-12T11:08:55Z</time>
      </trkpt>
      <trkpt lat="36.9666890" lon="-3.1951190">
        <ele>1238.2</ele>
        <time>2020-07-12T11:08:56Z</time>
      </trkpt>
      <trkpt lat="36.9669250" lon="-3.1949550">
        <ele>1238.0</ele>
        <time>2020-07-12T11:08:59Z</time>
      </trkpt>
      <trkpt lat="36.9670080" lon="-3.1948970">
        <ele>1237.8</ele>
        <time>2020-07-12T11:09:00Z</time>
      </trkpt>
      <trkpt lat="36.9671630" lon="-3.1947470">
        <ele>1237.4</ele>
        <time>2020-07-12T11:09:02Z</time>
      </trkpt>
      <trkpt lat="36.9672300" lon="-3.1946530">
        <ele>1237.0</ele>
        <time>2020-07-12T11:09:03Z</time>
      </trkpt>
      <trkpt lat="36.9672920" lon="-3.1945610">
        <ele>1236.6</ele>
        <time>2020-07-12T11:09:04Z</time>
      </trkpt>
      <trkpt lat="36.9674110" lon="-3.1943790">
        <ele>1235.4</ele>
        <time>2020-07-12T11:09:06Z</time>
      </trkpt>
      <trkpt lat="36.9675540" lon="-3.1941630">
        <ele>1234.4</ele>
        <time>2020-07-12T11:09:08Z</time>
      </trkpt>
      <trkpt lat="36.9677690" lon="-3.1938940">
        <ele>1233.2</ele>
        <time>2020-07-12T11:09:11Z</time>
      </trkpt>
      <trkpt lat="36.9679350" lon="-3.1937140">
        <ele>1232.0</ele>
        <time>2020-07-12T11:09:13Z</time>
      </trkpt>
      <trkpt lat="36.9680960" lon="-3.1935330">
        <ele>1230.8</ele>
        <time>2020-07-12T11:09:15Z</time>
      </trkpt>
      <trkpt lat="36.9682510" lon="-3.1933470">
        <ele>1229.6</ele>
        <time>2020-07-12T11:09:17Z</time>
      </trkpt>
      <trkpt lat="36.9684040" lon="-3.1931560">
        <ele>1228.6</ele>
        <time>2020-07-12T11:09:19Z</time>
      </trkpt>
      <trkpt lat="36.9685370" lon="-3.1930120">
        <ele>1228.0</ele>
        <time>2020-07-12T11:09:21Z</time>
      </trkpt>
      <trkpt lat="36.9686200" lon="-3.1929650">
        <ele>1227.2</ele>
        <time>2020-07-12T11:09:22Z</time>
      </trkpt>
      <trkpt lat="36.9687530" lon="-3.1928980">
        <ele>1226.4</ele>
        <time>2020-07-12T11:09:24Z</time>
      </trkpt>
      <trkpt lat="36.9688090" lon="-3.1928710">
        <ele>1226.0</ele>
        <time>2020-07-12T11:09:25Z</time>
      </trkpt>
      <trkpt lat="36.9688250" lon="-3.1928630">
        <ele>1225.6</ele>
        <time>2020-07-12T11:09:26Z</time>
      </trkpt>
      <trkpt lat="36.9688390" lon="-3.1928590">
        <ele>1224.6</ele>
        <time>2020-07-12T11:09:28Z</time>
      </trkpt>
      <trkpt lat="36.9688450" lon="-3.1928590">
        <ele>1224.4</ele>
        <time>2020-07-12T11:09:29Z</time>
      </trkpt>
      <trkpt lat="36.9688900" lon="-3.1928350">
        <ele>1224.6</ele>
        <time>2020-07-12T11:27:40Z</time>
      </trkpt>
      <trkpt lat="36.9689060" lon="-3.1928310">
        <ele>1224.6</ele>
        <time>2020-07-12T11:27:41Z</time>
      </trkpt>
      <trkpt lat="36.9690450" lon="-3.1927910">
        <ele>1224.6</ele>
        <time>2020-07-12T11:27:47Z</time>
      </trkpt>
      <trkpt lat="36.9692680" lon="-3.1927310">
        <ele>1224.8</ele>
        <time>2020-07-12T11:27:53Z</time>
      </trkpt>
      <trkpt lat="36.9696360" lon="-3.1926530">
        <ele>1224.8</ele>
        <time>2020-07-12T11:28:01Z</time>
      </trkpt>
      <trkpt lat="36.9697350" lon="-3.1926660">
        <ele>1224.8</ele>
        <time>2020-07-12T11:28:03Z</time>
      </trkpt>
      <trkpt lat="36.9698790" lon="-3.1927020">
        <ele>1224.8</ele>
        <time>2020-07-12T11:28:06Z</time>
      </trkpt>
      <trkpt lat="36.9700910" lon="-3.1926510">
        <ele>1224.8</ele>
        <time>2020-07-12T11:28:10Z</time>
      </trkpt>
      <trkpt lat="36.9702010" lon="-3.1924960">
        <ele>1224.8</ele>
        <time>2020-07-12T11:28:13Z</time>
      </trkpt>
      <trkpt lat="36.9702400" lon="-3.1924400">
        <ele>1224.8</ele>
        <time>2020-07-12T11:28:14Z</time>
      </trkpt>
      <trkpt lat="36.9703820" lon="-3.1923280">
        <ele>1224.6</ele>
        <time>2020-07-12T11:28:17Z</time>
      </trkpt>
      <trkpt lat="36.9705140" lon="-3.1922570">
        <ele>1224.4</ele>
        <time>2020-07-12T11:28:19Z</time>
      </trkpt>
      <trkpt lat="36.9707170" lon="-3.1921710">
        <ele>1223.8</ele>
        <time>2020-07-12T11:28:22Z</time>
      </trkpt>
      <trkpt lat="36.9707930" lon="-3.1921680">
        <ele>1223.6</ele>
        <time>2020-07-12T11:28:23Z</time>
      </trkpt>
      <trkpt lat="36.9709400" lon="-3.1921930">
        <ele>1223.0</ele>
        <time>2020-07-12T11:28:25Z</time>
      </trkpt>
      <trkpt lat="36.9710870" lon="-3.1921920">
        <ele>1222.2</ele>
        <time>2020-07-12T11:28:27Z</time>
      </trkpt>
      <trkpt lat="36.9712150" lon="-3.1921530">
        <ele>1221.4</ele>
        <time>2020-07-12T11:28:29Z</time>
      </trkpt>
      <trkpt lat="36.9712660" lon="-3.1921260">
        <ele>1221.0</ele>
        <time>2020-07-12T11:28:30Z</time>
      </trkpt>
      <trkpt lat="36.9713430" lon="-3.1920620">
        <ele>1220.0</ele>
        <time>2020-07-12T11:28:32Z</time>
      </trkpt>
      <trkpt lat="36.9713680" lon="-3.1920320">
        <ele>1219.6</ele>
        <time>2020-07-12T11:28:33Z</time>
      </trkpt>
      <trkpt lat="36.9713990" lon="-3.1919900">
        <ele>1219.0</ele>
        <time>2020-07-12T11:28:35Z</time>
      </trkpt>
      <trkpt lat="36.9714260" lon="-3.1919520">
        <ele>1218.4</ele>
        <time>2020-07-12T11:28:37Z</time>
      </trkpt>
      <trkpt lat="36.9715000" lon="-3.1919230">
        <ele>1217.8</ele>
        <time>2020-07-12T11:28:41Z</time>
      </trkpt>
      <trkpt lat="36.9714970" lon="-3.1919220">
        <ele>1217.8</ele>
        <time>2020-07-12T11:28:42Z</time>
      </trkpt>
      <trkpt lat="36.9714580" lon="-3.1919230">
        <ele>1218.0</ele>
        <time>2020-07-12T11:30:03Z</time>
      </trkpt>
      <trkpt lat="36.9714440" lon="-3.1919080">
        <ele>1218.2</ele>
        <time>2020-07-12T11:30:04Z</time>
      </trkpt>
      <trkpt lat="36.9714190" lon="-3.1918880">
        <ele>1218.2</ele>
        <time>2020-07-12T11:30:05Z</time>
      </trkpt>
      <trkpt lat="36.9713110" lon="-3.1918030">
        <ele>1218.0</ele>
        <time>2020-07-12T11:30:08Z</time>
      </trkpt>
      <trkpt lat="36.9712570" lon="-3.1917790">
        <ele>1217.8</ele>
        <time>2020-07-12T11:30:09Z</time>
      </trkpt>
      <trkpt lat="36.9711210" lon="-3.1918060">
        <ele>1217.4</ele>
        <time>2020-07-12T11:30:11Z</time>
      </trkpt>
      <trkpt lat="36.9709690" lon="-3.1918810">
        <ele>1216.6</ele>
        <time>2020-07-12T11:30:13Z</time>
      </trkpt>
      <trkpt lat="36.9708820" lon="-3.1919060">
        <ele>1216.0</ele>
        <time>2020-07-12T11:30:14Z</time>
      </trkpt>
      <trkpt lat="36.9707890" lon="-3.1919160">
        <ele>1215.8</ele>
        <time>2020-07-12T11:30:15Z</time>
      </trkpt>
      <trkpt lat="36.9705950" lon="-3.1919200">
        <ele>1214.8</ele>
        <time>2020-07-12T11:30:17Z</time>
      </trkpt>
      <trkpt lat="36.9703870" lon="-3.1919440">
        <ele>1213.2</ele>
        <time>2020-07-12T11:30:19Z</time>
      </trkpt>
      <trkpt lat="36.9701780" lon="-3.1919790">
        <ele>1211.6</ele>
        <time>2020-07-12T11:30:21Z</time>
      </trkpt>
      <trkpt lat="36.9699590" lon="-3.1920230">
        <ele>1210.2</ele>
        <time>2020-07-12T11:30:23Z</time>
      </trkpt>
      <trkpt lat="36.9697690" lon="-3.1920930">
        <ele>1208.6</ele>
        <time>2020-07-12T11:30:25Z</time>
      </trkpt>
      <trkpt lat="36.9695890" lon="-3.1921800">
        <ele>1207.0</ele>
        <time>2020-07-12T11:30:27Z</time>
      </trkpt>
      <trkpt lat="36.9693850" lon="-3.1921910">
        <ele>1205.8</ele>
        <time>2020-07-12T11:30:29Z</time>
      </trkpt>
      <trkpt lat="36.9691880" lon="-3.1921170">
        <ele>1204.6</ele>
        <time>2020-07-12T11:30:31Z</time>
      </trkpt>
      <trkpt lat="36.9690760" lon="-3.1920730">
        <ele>1203.8</ele>
        <time>2020-07-12T11:30:32Z</time>
      </trkpt>
      <trkpt lat="36.9689690" lon="-3.1920540">
        <ele>1203.0</ele>
        <time>2020-07-12T11:30:33Z</time>
      </trkpt>
      <trkpt lat="36.9687260" lon="-3.1920620">
        <ele>1201.4</ele>
        <time>2020-07-12T11:30:35Z</time>
      </trkpt>
      <trkpt lat="36.9683670" lon="-3.1921010">
        <ele>1200.0</ele>
        <time>2020-07-12T11:30:38Z</time>
      </trkpt>
      <trkpt lat="36.9681210" lon="-3.1921180">
        <ele>1198.6</ele>
        <time>2020-07-12T11:30:40Z</time>
      </trkpt>
      <trkpt lat="36.9680080" lon="-3.1921250">
        <ele>1197.8</ele>
        <time>2020-07-12T11:30:41Z</time>
      </trkpt>
      <trkpt lat="36.9678890" lon="-3.1921400">
        <ele>1196.8</ele>
        <time>2020-07-12T11:30:42Z</time>
      </trkpt>
      <trkpt lat="36.9677920" lon="-3.1921600">
        <ele>1195.8</ele>
        <time>2020-07-12T11:30:43Z</time>
      </trkpt>
      <trkpt lat="36.9676120" lon="-3.1921750">
        <ele>1194.0</ele>
        <time>2020-07-12T11:30:45Z</time>
      </trkpt>
      <trkpt lat="36.9674990" lon="-3.1920740">
        <ele>1192.6</ele>
        <time>2020-07-12T11:30:47Z</time>
      </trkpt>
      <trkpt lat="36.9675450" lon="-3.1920240">
        <ele>1192.0</ele>
        <time>2020-07-12T11:30:49Z</time>
      </trkpt>
      <trkpt lat="36.9675910" lon="-3.1919740">
        <ele>1191.2</ele>
        <time>2020-07-12T11:30:50Z</time>
      </trkpt>
      <trkpt lat="36.9677740" lon="-3.1917740">
        <ele>1190.2</ele>
        <time>2020-07-12T11:30:52Z</time>
      </trkpt>
      <trkpt lat="36.9679670" lon="-3.1918200">
        <ele>1188.6</ele>
        <time>2020-07-12T11:30:54Z</time>
      </trkpt>
      <trkpt lat="36.9680660" lon="-3.1918340">
        <ele>1187.8</ele>
        <time>2020-07-12T11:30:55Z</time>
      </trkpt>
      <trkpt lat="36.9681630" lon="-3.1918210">
        <ele>1187.4</ele>
        <time>2020-07-12T11:30:56Z</time>
      </trkpt>
      <trkpt lat="36.9683620" lon="-3.1917160">
        <ele>1186.2</ele>
        <time>2020-07-12T11:30:58Z</time>
      </trkpt>
      <trkpt lat="36.9686330" lon="-3.1914710">
        <ele>1184.8</ele>
        <time>2020-07-12T11:31:01Z</time>
      </trkpt>
      <trkpt lat="36.9687240" lon="-3.1914270">
        <ele>1184.0</ele>
        <time>2020-07-12T11:31:02Z</time>
      </trkpt>
      <trkpt lat="36.9688130" lon="-3.1914390">
        <ele>1183.2</ele>
        <time>2020-07-12T11:31:03Z</time>
      </trkpt>
      <trkpt lat="36.9689820" lon="-3.1915530">
        <ele>1181.6</ele>
        <time>2020-07-12T11:31:05Z</time>
      </trkpt>
      <trkpt lat="36.9691490" lon="-3.1915220">
        <ele>1180.0</ele>
        <time>2020-07-12T11:31:07Z</time>
      </trkpt>
      <trkpt lat="36.9692240" lon="-3.1913040">
        <ele>1178.4</ele>
        <time>2020-07-12T11:31:09Z</time>
      </trkpt>
      <trkpt lat="36.9692080" lon="-3.1910620">
        <ele>1176.8</ele>
        <time>2020-07-12T11:31:11Z</time>
      </trkpt>
      <trkpt lat="36.9693310" lon="-3.1908360">
        <ele>1175.6</ele>
        <time>2020-07-12T11:31:13Z</time>
      </trkpt>
      <trkpt lat="36.9694060" lon="-3.1907410">
        <ele>1175.2</ele>
        <time>2020-07-12T11:31:14Z</time>
      </trkpt>
      <trkpt lat="36.9695750" lon="-3.1905770">
        <ele>1174.4</ele>
        <time>2020-07-12T11:31:16Z</time>
      </trkpt>
      <trkpt lat="36.9697930" lon="-3.1904680">
        <ele>1173.4</ele>
        <time>2020-07-12T11:31:18Z</time>
      </trkpt>
      <trkpt lat="36.9700350" lon="-3.1905110">
        <ele>1171.4</ele>
        <time>2020-07-12T11:31:20Z</time>
      </trkpt>
      <trkpt lat="36.9701430" lon="-3.1905490">
        <ele>1170.4</ele>
        <time>2020-07-12T11:31:21Z</time>
      </trkpt>
      <trkpt lat="36.9702580" lon="-3.1905850">
        <ele>1169.0</ele>
        <time>2020-07-12T11:31:22Z</time>
      </trkpt>
      <trkpt lat="36.9704600" lon="-3.1906280">
        <ele>1167.4</ele>
        <time>2020-07-12T11:31:24Z</time>
      </trkpt>
      <trkpt lat="36.9704960" lon="-3.1906120">
        <ele>1167.0</ele>
        <time>2020-07-12T11:31:25Z</time>
      </trkpt>
      <trkpt lat="36.9705640" lon="-3.1905060">
        <ele>1165.8</ele>
        <time>2020-07-12T11:31:26Z</time>
      </trkpt>
      <trkpt lat="36.9707000" lon="-3.1902950">
        <ele>1164.4</ele>
        <time>2020-07-12T11:31:28Z</time>
      </trkpt>
      <trkpt lat="36.9707420" lon="-3.1901580">
        <ele>1163.4</ele>
        <time>2020-07-12T11:31:29Z</time>
      </trkpt>
      <trkpt lat="36.9708050" lon="-3.1900330">
        <ele>1162.4</ele>
        <time>2020-07-12T11:31:30Z</time>
      </trkpt>
      <trkpt lat="36.9709010" lon="-3.1899230">
        <ele>1161.4</ele>
        <time>2020-07-12T11:31:31Z</time>
      </trkpt>
      <trkpt lat="36.9709960" lon="-3.1898150">
        <ele>1160.4</ele>
        <time>2020-07-12T11:31:32Z</time>
      </trkpt>
      <trkpt lat="36.9711900" lon="-3.1896130">
        <ele>1158.4</ele>
        <time>2020-07-12T11:31:34Z</time>
      </trkpt>
      <trkpt lat="36.9713910" lon="-3.1893860">
        <ele>1156.0</ele>
        <time>2020-07-12T11:31:36Z</time>
      </trkpt>
      <trkpt lat="36.9714930" lon="-3.1892610">
        <ele>1155.0</ele>
        <time>2020-07-12T11:31:37Z</time>
      </trkpt>
      <trkpt lat="36.9715660" lon="-3.1891420">
        <ele>1153.4</ele>
        <time>2020-07-12T11:31:38Z</time>
      </trkpt>
      <trkpt lat="36.9716360" lon="-3.1890250">
        <ele>1152.8</ele>
        <time>2020-07-12T11:31:39Z</time>
      </trkpt>
      <trkpt lat="36.9717090" lon="-3.1889430">
        <ele>1151.8</ele>
        <time>2020-07-12T11:31:40Z</time>
      </trkpt>
      <trkpt lat="36.9719190" lon="-3.1888240">
        <ele>1150.8</ele>
        <time>2020-07-12T11:31:42Z</time>
      </trkpt>
      <trkpt lat="36.9721300" lon="-3.1886980">
        <ele>1149.4</ele>
        <time>2020-07-12T11:31:44Z</time>
      </trkpt>
      <trkpt lat="36.9722380" lon="-3.1886300">
        <ele>1148.2</ele>
        <time>2020-07-12T11:31:45Z</time>
      </trkpt>
      <trkpt lat="36.9723400" lon="-3.1885610">
        <ele>1147.2</ele>
        <time>2020-07-12T11:31:46Z</time>
      </trkpt>
      <trkpt lat="36.9724360" lon="-3.1884830">
        <ele>1146.2</ele>
        <time>2020-07-12T11:31:47Z</time>
      </trkpt>
      <trkpt lat="36.9725260" lon="-3.1883970">
        <ele>1145.4</ele>
        <time>2020-07-12T11:31:48Z</time>
      </trkpt>
      <trkpt lat="36.9725920" lon="-3.1882710">
        <ele>1144.6</ele>
        <time>2020-07-12T11:31:49Z</time>
      </trkpt>
      <trkpt lat="36.9726410" lon="-3.1881320">
        <ele>1143.8</ele>
        <time>2020-07-12T11:31:50Z</time>
      </trkpt>
      <trkpt lat="36.9727960" lon="-3.1879080">
        <ele>1142.2</ele>
        <time>2020-07-12T11:31:52Z</time>
      </trkpt>
      <trkpt lat="36.9729300" lon="-3.1878160">
        <ele>1141.0</ele>
        <time>2020-07-12T11:31:53Z</time>
      </trkpt>
      <trkpt lat="36.9730470" lon="-3.1877370">
        <ele>1140.0</ele>
        <time>2020-07-12T11:31:54Z</time>
      </trkpt>
      <trkpt lat="36.9731610" lon="-3.1876580">
        <ele>1139.4</ele>
        <time>2020-07-12T11:31:55Z</time>
      </trkpt>
      <trkpt lat="36.9732810" lon="-3.1875910">
        <ele>1138.2</ele>
        <time>2020-07-12T11:31:56Z</time>
      </trkpt>
      <trkpt lat="36.9735160" lon="-3.1874550">
        <ele>1136.6</ele>
        <time>2020-07-12T11:31:58Z</time>
      </trkpt>
      <trkpt lat="36.9736370" lon="-3.1873950">
        <ele>1136.2</ele>
        <time>2020-07-12T11:31:59Z</time>
      </trkpt>
      <trkpt lat="36.9738750" lon="-3.1872860">
        <ele>1135.0</ele>
        <time>2020-07-12T11:32:01Z</time>
      </trkpt>
      <trkpt lat="36.9743140" lon="-3.1870330">
        <ele>1133.8</ele>
        <time>2020-07-12T11:32:05Z</time>
      </trkpt>
      <trkpt lat="36.9744060" lon="-3.1869570">
        <ele>1133.6</ele>
        <time>2020-07-12T11:32:06Z</time>
      </trkpt>
      <trkpt lat="36.9745620" lon="-3.1868000">
        <ele>1132.8</ele>
        <time>2020-07-12T11:32:08Z</time>
      </trkpt>
      <trkpt lat="36.9746310" lon="-3.1866230">
        <ele>1132.2</ele>
        <time>2020-07-12T11:32:10Z</time>
      </trkpt>
      <trkpt lat="36.9746040" lon="-3.1865450">
        <ele>1131.4</ele>
        <time>2020-07-12T11:32:11Z</time>
      </trkpt>
      <trkpt lat="36.9745390" lon="-3.1865070">
        <ele>1130.8</ele>
        <time>2020-07-12T11:32:12Z</time>
      </trkpt>
      <trkpt lat="36.9744610" lon="-3.1865460">
        <ele>1129.8</ele>
        <time>2020-07-12T11:32:13Z</time>
      </trkpt>
      <trkpt lat="36.9744060" lon="-3.1865960">
        <ele>1128.8</ele>
        <time>2020-07-12T11:32:14Z</time>
      </trkpt>
      <trkpt lat="36.9743550" lon="-3.1866580">
        <ele>1128.4</ele>
        <time>2020-07-12T11:32:15Z</time>
      </trkpt>
      <trkpt lat="36.9743240" lon="-3.1867580">
        <ele>1127.4</ele>
        <time>2020-07-12T11:32:16Z</time>
      </trkpt>
      <trkpt lat="36.9742160" lon="-3.1869160">
        <ele>1126.4</ele>
        <time>2020-07-12T11:32:18Z</time>
      </trkpt>
      <trkpt lat="36.9740640" lon="-3.1870260">
        <ele>1125.4</ele>
        <time>2020-07-12T11:32:20Z</time>
      </trkpt>
      <trkpt lat="36.9739780" lon="-3.1870630">
        <ele>1125.0</ele>
        <time>2020-07-12T11:32:21Z</time>
      </trkpt>
      <trkpt lat="36.9738620" lon="-3.1870930">
        <ele>1124.6</ele>
        <time>2020-07-12T11:32:22Z</time>
      </trkpt>
      <trkpt lat="36.9736410" lon="-3.1871130">
        <ele>1123.8</ele>
        <time>2020-07-12T11:32:24Z</time>
      </trkpt>
      <trkpt lat="36.9734090" lon="-3.1871320">
        <ele>1122.8</ele>
        <time>2020-07-12T11:32:26Z</time>
      </trkpt>
      <trkpt lat="36.9731710" lon="-3.1871970">
        <ele>1120.6</ele>
        <time>2020-07-12T11:32:28Z</time>
      </trkpt>
      <trkpt lat="36.9729280" lon="-3.1872880">
        <ele>1119.0</ele>
        <time>2020-07-12T11:32:30Z</time>
      </trkpt>
      <trkpt lat="36.9727980" lon="-3.1873120">
        <ele>1118.0</ele>
        <time>2020-07-12T11:32:31Z</time>
      </trkpt>
      <trkpt lat="36.9726740" lon="-3.1873210">
        <ele>1117.4</ele>
        <time>2020-07-12T11:32:32Z</time>
      </trkpt>
      <trkpt lat="36.9725460" lon="-3.1873220">
        <ele>1116.6</ele>
        <time>2020-07-12T11:32:33Z</time>
      </trkpt>
      <trkpt lat="36.9724250" lon="-3.1873160">
        <ele>1115.2</ele>
        <time>2020-07-12T11:32:34Z</time>
      </trkpt>
      <trkpt lat="36.9722080" lon="-3.1873290">
        <ele>1113.0</ele>
        <time>2020-07-12T11:32:36Z</time>
      </trkpt>
      <trkpt lat="36.9721110" lon="-3.1873660">
        <ele>1112.0</ele>
        <time>2020-07-12T11:32:37Z</time>
      </trkpt>
      <trkpt lat="36.9719530" lon="-3.1875120">
        <ele>1110.2</ele>
        <time>2020-07-12T11:32:39Z</time>
      </trkpt>
      <trkpt lat="36.9718940" lon="-3.1876130">
        <ele>1109.4</ele>
        <time>2020-07-12T11:32:40Z</time>
      </trkpt>
      <trkpt lat="36.9718090" lon="-3.1877090">
        <ele>1108.2</ele>
        <time>2020-07-12T11:32:41Z</time>
      </trkpt>
      <trkpt lat="36.9716230" lon="-3.1878500">
        <ele>1106.4</ele>
        <time>2020-07-12T11:32:43Z</time>
      </trkpt>
      <trkpt lat="36.9714200" lon="-3.1879290">
        <ele>1104.8</ele>
        <time>2020-07-12T11:32:45Z</time>
      </trkpt>
      <trkpt lat="36.9713100" lon="-3.1878720">
        <ele>1104.0</ele>
        <time>2020-07-12T11:32:46Z</time>
      </trkpt>
      <trkpt lat="36.9712090" lon="-3.1878250">
        <ele>1103.4</ele>
        <time>2020-07-12T11:32:47Z</time>
      </trkpt>
      <trkpt lat="36.9711280" lon="-3.1877150">
        <ele>1102.4</ele>
        <time>2020-07-12T11:32:48Z</time>
      </trkpt>
      <trkpt lat="36.9710420" lon="-3.1876540">
        <ele>1101.6</ele>
        <time>2020-07-12T11:32:49Z</time>
      </trkpt>
      <trkpt lat="36.9709570" lon="-3.1876060">
        <ele>1101.0</ele>
        <time>2020-07-12T11:32:50Z</time>
      </trkpt>
      <trkpt lat="36.9708620" lon="-3.1876420">
        <ele>1099.8</ele>
        <time>2020-07-12T11:32:51Z</time>
      </trkpt>
      <trkpt lat="36.9707700" lon="-3.1876830">
        <ele>1099.0</ele>
        <time>2020-07-12T11:32:52Z</time>
      </trkpt>
      <trkpt lat="36.9706720" lon="-3.1877190">
        <ele>1098.2</ele>
        <time>2020-07-12T11:32:53Z</time>
      </trkpt>
      <trkpt lat="36.9705780" lon="-3.1877160">
        <ele>1097.6</ele>
        <time>2020-07-12T11:32:54Z</time>
      </trkpt>
      <trkpt lat="36.9704880" lon="-3.1876890">
        <ele>1097.2</ele>
        <time>2020-07-12T11:32:55Z</time>
      </trkpt>
      <trkpt lat="36.9704410" lon="-3.1875960">
        <ele>1096.4</ele>
        <time>2020-07-12T11:32:56Z</time>
      </trkpt>
      <trkpt lat="36.9704330" lon="-3.1874770">
        <ele>1095.8</ele>
        <time>2020-07-12T11:32:57Z</time>
      </trkpt>
      <trkpt lat="36.9704740" lon="-3.1873720">
        <ele>1095.0</ele>
        <time>2020-07-12T11:32:58Z</time>
      </trkpt>
      <trkpt lat="36.9705620" lon="-3.1872990">
        <ele>1094.0</ele>
        <time>2020-07-12T11:32:59Z</time>
      </trkpt>
      <trkpt lat="36.9706630" lon="-3.1872750">
        <ele>1093.0</ele>
        <time>2020-07-12T11:33:00Z</time>
      </trkpt>
      <trkpt lat="36.9707600" lon="-3.1872670">
        <ele>1092.2</ele>
        <time>2020-07-12T11:33:01Z</time>
      </trkpt>
      <trkpt lat="36.9708750" lon="-3.1872830">
        <ele>1091.4</ele>
        <time>2020-07-12T11:33:02Z</time>
      </trkpt>
      <trkpt lat="36.9710950" lon="-3.1873830">
        <ele>1089.4</ele>
        <time>2020-07-12T11:33:04Z</time>
      </trkpt>
      <trkpt lat="36.9713090" lon="-3.1873710">
        <ele>1088.2</ele>
        <time>2020-07-12T11:33:06Z</time>
      </trkpt>
      <trkpt lat="36.9714110" lon="-3.1873230">
        <ele>1087.6</ele>
        <time>2020-07-12T11:33:07Z</time>
      </trkpt>
      <trkpt lat="36.9714730" lon="-3.1872050">
        <ele>1086.6</ele>
        <time>2020-07-12T11:33:08Z</time>
      </trkpt>
      <trkpt lat="36.9715290" lon="-3.1870990">
        <ele>1085.8</ele>
        <time>2020-07-12T11:33:09Z</time>
      </trkpt>
      <trkpt lat="36.9715260" lon="-3.1869680">
        <ele>1085.2</ele>
        <time>2020-07-12T11:33:10Z</time>
      </trkpt>
      <trkpt lat="36.9714910" lon="-3.1868220">
        <ele>1084.4</ele>
        <time>2020-07-12T11:33:11Z</time>
      </trkpt>
      <trkpt lat="36.9714690" lon="-3.1866910">
        <ele>1083.4</ele>
        <time>2020-07-12T11:33:12Z</time>
      </trkpt>
      <trkpt lat="36.9714290" lon="-3.1864230">
        <ele>1081.8</ele>
        <time>2020-07-12T11:33:14Z</time>
      </trkpt>
      <trkpt lat="36.9713820" lon="-3.1861460">
        <ele>1080.4</ele>
        <time>2020-07-12T11:33:16Z</time>
      </trkpt>
      <trkpt lat="36.9713560" lon="-3.1859710">
        <ele>1079.6</ele>
        <time>2020-07-12T11:33:17Z</time>
      </trkpt>
      <trkpt lat="36.9713340" lon="-3.1858230">
        <ele>1078.6</ele>
        <time>2020-07-12T11:33:18Z</time>
      </trkpt>
      <trkpt lat="36.9712850" lon="-3.1855120">
        <ele>1077.2</ele>
        <time>2020-07-12T11:33:20Z</time>
      </trkpt>
      <trkpt lat="36.9712440" lon="-3.1852270">
        <ele>1075.8</ele>
        <time>2020-07-12T11:33:22Z</time>
      </trkpt>
      <trkpt lat="36.9711980" lon="-3.1849460">
        <ele>1075.0</ele>
        <time>2020-07-12T11:33:24Z</time>
      </trkpt>
      <trkpt lat="36.9711720" lon="-3.1848200">
        <ele>1074.8</ele>
        <time>2020-07-12T11:33:25Z</time>
      </trkpt>
      <trkpt lat="36.9711310" lon="-3.1847100">
        <ele>1074.6</ele>
        <time>2020-07-12T11:33:26Z</time>
      </trkpt>
      <trkpt lat="36.9710890" lon="-3.1846000">
        <ele>1074.4</ele>
        <time>2020-07-12T11:33:27Z</time>
      </trkpt>
      <trkpt lat="36.9710310" lon="-3.1845300">
        <ele>1074.6</ele>
        <time>2020-07-12T11:33:28Z</time>
      </trkpt>
      <trkpt lat="36.9708810" lon="-3.1844190">
        <ele>1074.8</ele>
        <time>2020-07-12T11:33:30Z</time>
      </trkpt>
      <trkpt lat="36.9708120" lon="-3.1843970">
        <ele>1075.0</ele>
        <time>2020-07-12T11:33:31Z</time>
      </trkpt>
      <trkpt lat="36.9706710" lon="-3.1843990">
        <ele>1075.8</ele>
        <time>2020-07-12T11:33:33Z</time>
      </trkpt>
      <trkpt lat="36.9705500" lon="-3.1844200">
        <ele>1077.0</ele>
        <time>2020-07-12T11:33:35Z</time>
      </trkpt>
      <trkpt lat="36.9704980" lon="-3.1844270">
        <ele>1077.4</ele>
        <time>2020-07-12T11:33:36Z</time>
      </trkpt>
      <trkpt lat="36.9704420" lon="-3.1844400">
        <ele>1077.8</ele>
        <time>2020-07-12T11:33:37Z</time>
      </trkpt>
      <trkpt lat="36.9703990" lon="-3.1844530">
        <ele>1078.4</ele>
        <time>2020-07-12T11:33:38Z</time>
      </trkpt>
      <trkpt lat="36.9702810" lon="-3.1844940">
        <ele>1079.6</ele>
        <time>2020-07-12T11:33:41Z</time>
      </trkpt>
      <trkpt lat="36.9702380" lon="-3.1845080">
        <ele>1079.8</ele>
        <time>2020-07-12T11:33:42Z</time>
      </trkpt>
      <trkpt lat="36.9701100" lon="-3.1845320">
        <ele>1080.6</ele>
        <time>2020-07-12T11:33:45Z</time>
      </trkpt>
      <trkpt lat="36.9700310" lon="-3.1845320">
        <ele>1081.0</ele>
        <time>2020-07-12T11:33:47Z</time>
      </trkpt>
      <trkpt lat="36.9699930" lon="-3.1845270">
        <ele>1081.4</ele>
        <time>2020-07-12T11:33:48Z</time>
      </trkpt>
      <trkpt lat="36.9699150" lon="-3.1845090">
        <ele>1081.8</ele>
        <time>2020-07-12T11:33:50Z</time>
      </trkpt>
      <trkpt lat="36.9698170" lon="-3.1844450">
        <ele>1082.4</ele>
        <time>2020-07-12T11:33:53Z</time>
      </trkpt>
      <trkpt lat="36.9697910" lon="-3.1844200">
        <ele>1082.6</ele>
        <time>2020-07-12T11:33:54Z</time>
      </trkpt>
      <trkpt lat="36.9697640" lon="-3.1843960">
        <ele>1082.8</ele>
        <time>2020-07-12T11:33:55Z</time>
      </trkpt>
      <trkpt lat="36.9696650" lon="-3.1843160">
        <ele>1083.6</ele>
        <time>2020-07-12T11:33:59Z</time>
      </trkpt>
      <trkpt lat="36.9696300" lon="-3.1842760">
        <ele>1084.0</ele>
        <time>2020-07-12T11:34:01Z</time>
      </trkpt>
      <trkpt lat="36.9696110" lon="-3.1842540">
        <ele>1084.2</ele>
        <time>2020-07-12T11:34:02Z</time>
      </trkpt>
      <trkpt lat="36.9695460" lon="-3.1841390">
        <ele>1085.2</ele>
        <time>2020-07-12T11:34:07Z</time>
      </trkpt>
      <trkpt lat="36.9695180" lon="-3.1840490">
        <ele>1085.8</ele>
        <time>2020-07-12T11:34:10Z</time>
      </trkpt>
      <trkpt lat="36.9695000" lon="-3.1839880">
        <ele>1086.2</ele>
        <time>2020-07-12T11:34:12Z</time>
      </trkpt>
      <trkpt lat="36.9694450" lon="-3.1838270">
        <ele>1087.2</ele>
        <time>2020-07-12T11:34:18Z</time>
      </trkpt>
      <trkpt lat="36.9694370" lon="-3.1838010">
        <ele>1087.6</ele>
        <time>2020-07-12T11:34:19Z</time>
      </trkpt>
      <trkpt lat="36.9694050" lon="-3.1837210">
        <ele>1088.4</ele>
        <time>2020-07-12T11:34:22Z</time>
      </trkpt>
      <trkpt lat="36.9693290" lon="-3.1836050">
        <ele>1089.4</ele>
        <time>2020-07-12T11:34:27Z</time>
      </trkpt>
      <trkpt lat="36.9693100" lon="-3.1835900">
        <ele>1089.6</ele>
        <time>2020-07-12T11:34:28Z</time>
      </trkpt>
      <trkpt lat="36.9692190" lon="-3.1835590">
        <ele>1090.4</ele>
        <time>2020-07-12T11:34:32Z</time>
      </trkpt>
      <trkpt lat="36.9691760" lon="-3.1835620">
        <ele>1090.8</ele>
        <time>2020-07-12T11:34:34Z</time>
      </trkpt>
      <trkpt lat="36.9690760" lon="-3.1835860">
        <ele>1091.6</ele>
        <time>2020-07-12T11:34:38Z</time>
      </trkpt>
      <trkpt lat="36.9689790" lon="-3.1836190">
        <ele>1092.6</ele>
        <time>2020-07-12T11:34:42Z</time>
      </trkpt>
      <trkpt lat="36.9688590" lon="-3.1836870">
        <ele>1093.8</ele>
        <time>2020-07-12T11:34:47Z</time>
      </trkpt>
      <trkpt lat="36.9687880" lon="-3.1837340">
        <ele>1094.4</ele>
        <time>2020-07-12T11:34:50Z</time>
      </trkpt>
      <trkpt lat="36.9687170" lon="-3.1837790">
        <ele>1094.8</ele>
        <time>2020-07-12T11:34:53Z</time>
      </trkpt>
      <trkpt lat="36.9685580" lon="-3.1838540">
        <ele>1096.0</ele>
        <time>2020-07-12T11:34:59Z</time>
      </trkpt>
      <trkpt lat="36.9685300" lon="-3.1838600">
        <ele>1096.0</ele>
        <time>2020-07-12T11:35:00Z</time>
      </trkpt>
      <trkpt lat="36.9683880" lon="-3.1839220">
        <ele>1097.0</ele>
        <time>2020-07-12T11:35:05Z</time>
      </trkpt>
      <trkpt lat="36.9682620" lon="-3.1839760">
        <ele>1097.6</ele>
        <time>2020-07-12T11:35:09Z</time>
      </trkpt>
      <trkpt lat="36.9680550" lon="-3.1840510">
        <ele>1098.2</ele>
        <time>2020-07-12T11:35:15Z</time>
      </trkpt>
      <trkpt lat="36.9678950" lon="-3.1840700">
        <ele>1098.4</ele>
        <time>2020-07-12T11:35:19Z</time>
      </trkpt>
      <trkpt lat="36.9677210" lon="-3.1840530">
        <ele>1098.8</ele>
        <time>2020-07-12T11:35:23Z</time>
      </trkpt>
      <trkpt lat="36.9675530" lon="-3.1840130">
        <ele>1099.0</ele>
        <time>2020-07-12T11:35:27Z</time>
      </trkpt>
      <trkpt lat="36.9674740" lon="-3.1839790">
        <ele>1099.2</ele>
        <time>2020-07-12T11:35:29Z</time>
      </trkpt>
      <trkpt lat="36.9673530" lon="-3.1839260">
        <ele>1099.6</ele>
        <time>2020-07-12T11:35:32Z</time>
      </trkpt>
      <trkpt lat="36.9672710" lon="-3.1839090">
        <ele>1099.8</ele>
        <time>2020-07-12T11:35:34Z</time>
      </trkpt>
      <trkpt lat="36.9670590" lon="-3.1838990">
        <ele>1100.2</ele>
        <time>2020-07-12T11:35:39Z</time>
      </trkpt>
      <trkpt lat="36.9670160" lon="-3.1838920">
        <ele>1100.4</ele>
        <time>2020-07-12T11:35:40Z</time>
      </trkpt>
      <trkpt lat="36.9667320" lon="-3.1837700">
        <ele>1101.0</ele>
        <time>2020-07-12T11:35:46Z</time>
      </trkpt>
      <trkpt lat="36.9666430" lon="-3.1836800">
        <ele>1101.2</ele>
        <time>2020-07-12T11:35:48Z</time>
      </trkpt>
      <trkpt lat="36.9665190" lon="-3.1835560">
        <ele>1101.8</ele>
        <time>2020-07-12T11:35:51Z</time>
      </trkpt>
      <trkpt lat="36.9664740" lon="-3.1835310">
        <ele>1101.8</ele>
        <time>2020-07-12T11:35:52Z</time>
      </trkpt>
      <trkpt lat="36.9663660" lon="-3.1835230">
        <ele>1102.0</ele>
        <time>2020-07-12T11:35:54Z</time>
      </trkpt>
      <trkpt lat="36.9662560" lon="-3.1835360">
        <ele>1102.0</ele>
        <time>2020-07-12T11:35:56Z</time>
      </trkpt>
      <trkpt lat="36.9660810" lon="-3.1835600">
        <ele>1101.8</ele>
        <time>2020-07-12T11:35:59Z</time>
      </trkpt>
      <trkpt lat="36.9660390" lon="-3.1835530">
        <ele>1101.6</ele>
        <time>2020-07-12T11:36:00Z</time>
      </trkpt>
      <trkpt lat="36.9659570" lon="-3.1835090">
        <ele>1101.6</ele>
        <time>2020-07-12T11:36:02Z</time>
      </trkpt>
      <trkpt lat="36.9658120" lon="-3.1832860">
        <ele>1101.6</ele>
        <time>2020-07-12T11:36:06Z</time>
      </trkpt>
      <trkpt lat="36.9657510" lon="-3.1830200">
        <ele>1101.4</ele>
        <time>2020-07-12T11:36:09Z</time>
      </trkpt>
      <trkpt lat="36.9657310" lon="-3.1829300">
        <ele>1101.4</ele>
        <time>2020-07-12T11:36:10Z</time>
      </trkpt>
      <trkpt lat="36.9656250" lon="-3.1826620">
        <ele>1100.8</ele>
        <time>2020-07-12T11:36:13Z</time>
      </trkpt>
      <trkpt lat="36.9655700" lon="-3.1825760">
        <ele>1100.6</ele>
        <time>2020-07-12T11:36:14Z</time>
      </trkpt>
      <trkpt lat="36.9655080" lon="-3.1825070">
        <ele>1100.2</ele>
        <time>2020-07-12T11:36:15Z</time>
      </trkpt>
      <trkpt lat="36.9653200" lon="-3.1822920">
        <ele>1099.4</ele>
        <time>2020-07-12T11:36:18Z</time>
      </trkpt>
      <trkpt lat="36.9652080" lon="-3.1821220">
        <ele>1099.0</ele>
        <time>2020-07-12T11:36:20Z</time>
      </trkpt>
      <trkpt lat="36.9650610" lon="-3.1818670">
        <ele>1099.0</ele>
        <time>2020-07-12T11:36:23Z</time>
      </trkpt>
      <trkpt lat="36.9647970" lon="-3.1814790">
        <ele>1098.6</ele>
        <time>2020-07-12T11:36:28Z</time>
      </trkpt>
      <trkpt lat="36.9647240" lon="-3.1814170">
        <ele>1098.4</ele>
        <time>2020-07-12T11:36:29Z</time>
      </trkpt>
      <trkpt lat="36.9644970" lon="-3.1813420">
        <ele>1098.2</ele>
        <time>2020-07-12T11:36:32Z</time>
      </trkpt>
      <trkpt lat="36.9644250" lon="-3.1813310">
        <ele>1098.2</ele>
        <time>2020-07-12T11:36:33Z</time>
      </trkpt>
      <trkpt lat="36.9642660" lon="-3.1813070">
        <ele>1098.4</ele>
        <time>2020-07-12T11:36:35Z</time>
      </trkpt>
      <trkpt lat="36.9641140" lon="-3.1812850">
        <ele>1098.4</ele>
        <time>2020-07-12T11:36:37Z</time>
      </trkpt>
      <trkpt lat="36.9639630" lon="-3.1812570">
        <ele>1098.4</ele>
        <time>2020-07-12T11:36:39Z</time>
      </trkpt>
      <trkpt lat="36.9636750" lon="-3.1811710">
        <ele>1099.2</ele>
        <time>2020-07-12T11:36:43Z</time>
      </trkpt>
      <trkpt lat="36.9636170" lon="-3.1811120">
        <ele>1099.2</ele>
        <time>2020-07-12T11:36:44Z</time>
      </trkpt>
      <trkpt lat="36.9635230" lon="-3.1808920">
        <ele>1099.2</ele>
        <time>2020-07-12T11:36:47Z</time>
      </trkpt>
      <trkpt lat="36.9634980" lon="-3.1808250">
        <ele>1099.4</ele>
        <time>2020-07-12T11:36:48Z</time>
      </trkpt>
      <trkpt lat="36.9633500" lon="-3.1804540">
        <ele>1100.0</ele>
        <time>2020-07-12T11:36:54Z</time>
      </trkpt>
      <trkpt lat="36.9633250" lon="-3.1803950">
        <ele>1100.2</ele>
        <time>2020-07-12T11:36:55Z</time>
      </trkpt>
      <trkpt lat="36.9631900" lon="-3.1802010">
        <ele>1100.4</ele>
        <time>2020-07-12T11:36:59Z</time>
      </trkpt>
      <trkpt lat="36.9631530" lon="-3.1801610">
        <ele>1100.6</ele>
        <time>2020-07-12T11:37:00Z</time>
      </trkpt>
      <trkpt lat="36.9630660" lon="-3.1800300">
        <ele>1101.0</ele>
        <time>2020-07-12T11:37:03Z</time>
      </trkpt>
      <trkpt lat="36.9630440" lon="-3.1799680">
        <ele>1101.2</ele>
        <time>2020-07-12T11:37:04Z</time>
      </trkpt>
      <trkpt lat="36.9630280" lon="-3.1799260">
        <ele>1101.4</ele>
        <time>2020-07-12T11:37:05Z</time>
      </trkpt>
      <trkpt lat="36.9629970" lon="-3.1798010">
        <ele>1101.8</ele>
        <time>2020-07-12T11:37:07Z</time>
      </trkpt>
      <trkpt lat="36.9629590" lon="-3.1796250">
        <ele>1102.4</ele>
        <time>2020-07-12T11:37:10Z</time>
      </trkpt>
      <trkpt lat="36.9629160" lon="-3.1794420">
        <ele>1103.0</ele>
        <time>2020-07-12T11:37:13Z</time>
      </trkpt>
      <trkpt lat="36.9629060" lon="-3.1793120">
        <ele>1103.4</ele>
        <time>2020-07-12T11:37:15Z</time>
      </trkpt>
      <trkpt lat="36.9629260" lon="-3.1791220">
        <ele>1104.2</ele>
        <time>2020-07-12T11:37:18Z</time>
      </trkpt>
      <trkpt lat="36.9629530" lon="-3.1789940">
        <ele>1104.6</ele>
        <time>2020-07-12T11:37:20Z</time>
      </trkpt>
      <trkpt lat="36.9630230" lon="-3.1787150">
        <ele>1105.0</ele>
        <time>2020-07-12T11:37:25Z</time>
      </trkpt>
      <trkpt lat="36.9631130" lon="-3.1784680">
        <ele>1105.6</ele>
        <time>2020-07-12T11:37:30Z</time>
      </trkpt>
      <trkpt lat="36.9631780" lon="-3.1783180">
        <ele>1106.0</ele>
        <time>2020-07-12T11:37:33Z</time>
      </trkpt>
      <trkpt lat="36.9632150" lon="-3.1781470">
        <ele>1106.4</ele>
        <time>2020-07-12T11:37:36Z</time>
      </trkpt>
      <trkpt lat="36.9631990" lon="-3.1780290">
        <ele>1106.6</ele>
        <time>2020-07-12T11:37:38Z</time>
      </trkpt>
      <trkpt lat="36.9631820" lon="-3.1779700">
        <ele>1106.6</ele>
        <time>2020-07-12T11:37:39Z</time>
      </trkpt>
      <trkpt lat="36.9630640" lon="-3.1777620">
        <ele>1107.0</ele>
        <time>2020-07-12T11:37:43Z</time>
      </trkpt>
      <trkpt lat="36.9629900" lon="-3.1776730">
        <ele>1107.0</ele>
        <time>2020-07-12T11:37:45Z</time>
      </trkpt>
      <trkpt lat="36.9628760" lon="-3.1774540">
        <ele>1107.4</ele>
        <time>2020-07-12T11:37:49Z</time>
      </trkpt>
      <trkpt lat="36.9628210" lon="-3.1773400">
        <ele>1107.6</ele>
        <time>2020-07-12T11:37:51Z</time>
      </trkpt>
      <trkpt lat="36.9626600" lon="-3.1770800">
        <ele>1108.0</ele>
        <time>2020-07-12T11:37:56Z</time>
      </trkpt>
      <trkpt lat="36.9626170" lon="-3.1770370">
        <ele>1108.0</ele>
        <time>2020-07-12T11:37:57Z</time>
      </trkpt>
      <trkpt lat="36.9624530" lon="-3.1768850">
        <ele>1108.6</ele>
        <time>2020-07-12T11:38:01Z</time>
      </trkpt>
      <trkpt lat="36.9623020" lon="-3.1767990">
        <ele>1109.0</ele>
        <time>2020-07-12T11:38:04Z</time>
      </trkpt>
      <trkpt lat="36.9619800" lon="-3.1767110">
        <ele>1109.0</ele>
        <time>2020-07-12T11:38:10Z</time>
      </trkpt>
      <trkpt lat="36.9618390" lon="-3.1766310">
        <ele>1109.2</ele>
        <time>2020-07-12T11:38:13Z</time>
      </trkpt>
      <trkpt lat="36.9617770" lon="-3.1765110">
        <ele>1109.2</ele>
        <time>2020-07-12T11:38:15Z</time>
      </trkpt>
      <trkpt lat="36.9617710" lon="-3.1763060">
        <ele>1109.4</ele>
        <time>2020-07-12T11:38:18Z</time>
      </trkpt>
      <trkpt lat="36.9617580" lon="-3.1762410">
        <ele>1109.4</ele>
        <time>2020-07-12T11:38:19Z</time>
      </trkpt>
      <trkpt lat="36.9616840" lon="-3.1760980">
        <ele>1109.8</ele>
        <time>2020-07-12T11:38:22Z</time>
      </trkpt>
      <trkpt lat="36.9616260" lon="-3.1760180">
        <ele>1110.2</ele>
        <time>2020-07-12T11:38:24Z</time>
      </trkpt>
      <trkpt lat="36.9615740" lon="-3.1759450">
        <ele>1110.8</ele>
        <time>2020-07-12T11:38:26Z</time>
      </trkpt>
      <trkpt lat="36.9615040" lon="-3.1758230">
        <ele>1111.6</ele>
        <time>2020-07-12T11:38:29Z</time>
      </trkpt>
      <trkpt lat="36.9614910" lon="-3.1757800">
        <ele>1111.8</ele>
        <time>2020-07-12T11:38:30Z</time>
      </trkpt>
      <trkpt lat="36.9614170" lon="-3.1755670">
        <ele>1112.8</ele>
        <time>2020-07-12T11:38:35Z</time>
      </trkpt>
      <trkpt lat="36.9614070" lon="-3.1755320">
        <ele>1113.0</ele>
        <time>2020-07-12T11:38:36Z</time>
      </trkpt>
      <trkpt lat="36.9613760" lon="-3.1753560">
        <ele>1114.2</ele>
        <time>2020-07-12T11:38:40Z</time>
      </trkpt>
      <trkpt lat="36.9613550" lon="-3.1752730">
        <ele>1114.8</ele>
        <time>2020-07-12T11:38:42Z</time>
      </trkpt>
      <trkpt lat="36.9613460" lon="-3.1752330">
        <ele>1115.2</ele>
        <time>2020-07-12T11:38:43Z</time>
      </trkpt>
      <trkpt lat="36.9612980" lon="-3.1750060">
        <ele>1115.8</ele>
        <time>2020-07-12T11:38:49Z</time>
      </trkpt>
      <trkpt lat="36.9612680" lon="-3.1749310">
        <ele>1116.2</ele>
        <time>2020-07-12T11:38:51Z</time>
      </trkpt>
      <trkpt lat="36.9612350" lon="-3.1747970">
        <ele>1117.4</ele>
        <time>2020-07-12T11:38:55Z</time>
      </trkpt>
      <trkpt lat="36.9612330" lon="-3.1746840">
        <ele>1118.2</ele>
        <time>2020-07-12T11:38:58Z</time>
      </trkpt>
      <trkpt lat="36.9612480" lon="-3.1746140">
        <ele>1118.4</ele>
        <time>2020-07-12T11:39:00Z</time>
      </trkpt>
      <trkpt lat="36.9613170" lon="-3.1745000">
        <ele>1119.4</ele>
        <time>2020-07-12T11:39:04Z</time>
      </trkpt>
      <trkpt lat="36.9613340" lon="-3.1744750">
        <ele>1119.6</ele>
        <time>2020-07-12T11:39:05Z</time>
      </trkpt>
      <trkpt lat="36.9614400" lon="-3.1743310">
        <ele>1120.6</ele>
        <time>2020-07-12T11:39:10Z</time>
      </trkpt>
      <trkpt lat="36.9614830" lon="-3.1742670">
        <ele>1120.8</ele>
        <time>2020-07-12T11:39:12Z</time>
      </trkpt>
      <trkpt lat="36.9615650" lon="-3.1741510">
        <ele>1121.8</ele>
        <time>2020-07-12T11:39:16Z</time>
      </trkpt>
      <trkpt lat="36.9616690" lon="-3.1740280">
        <ele>1122.8</ele>
        <time>2020-07-12T11:39:21Z</time>
      </trkpt>
      <trkpt lat="36.9617400" lon="-3.1739560">
        <ele>1123.4</ele>
        <time>2020-07-12T11:39:24Z</time>
      </trkpt>
      <trkpt lat="36.9618310" lon="-3.1738720">
        <ele>1124.0</ele>
        <time>2020-07-12T11:39:28Z</time>
      </trkpt>
      <trkpt lat="36.9619640" lon="-3.1737420">
        <ele>1125.0</ele>
        <time>2020-07-12T11:39:34Z</time>
      </trkpt>
      <trkpt lat="36.9620900" lon="-3.1736020">
        <ele>1126.2</ele>
        <time>2020-07-12T11:39:40Z</time>
      </trkpt>
      <trkpt lat="36.9621650" lon="-3.1734820">
        <ele>1127.0</ele>
        <time>2020-07-12T11:39:44Z</time>
      </trkpt>
      <trkpt lat="36.9621830" lon="-3.1734510">
        <ele>1127.2</ele>
        <time>2020-07-12T11:39:45Z</time>
      </trkpt>
      <trkpt lat="36.9622660" lon="-3.1733150">
        <ele>1128.4</ele>
        <time>2020-07-12T11:39:50Z</time>
      </trkpt>
      <trkpt lat="36.9623600" lon="-3.1731800">
        <ele>1129.0</ele>
        <time>2020-07-12T11:39:55Z</time>
      </trkpt>
      <trkpt lat="36.9624110" lon="-3.1730840">
        <ele>1129.6</ele>
        <time>2020-07-12T11:39:58Z</time>
      </trkpt>
      <trkpt lat="36.9624460" lon="-3.1729320">
        <ele>1130.0</ele>
        <time>2020-07-12T11:40:02Z</time>
      </trkpt>
      <trkpt lat="36.9624230" lon="-3.1726620">
        <ele>1130.4</ele>
        <time>2020-07-12T11:40:08Z</time>
      </trkpt>
      <trkpt lat="36.9624200" lon="-3.1725780">
        <ele>1130.6</ele>
        <time>2020-07-12T11:40:10Z</time>
      </trkpt>
      <trkpt lat="36.9624610" lon="-3.1724100">
        <ele>1131.4</ele>
        <time>2020-07-12T11:40:14Z</time>
      </trkpt>
      <trkpt lat="36.9625020" lon="-3.1723470">
        <ele>1132.0</ele>
        <time>2020-07-12T11:40:16Z</time>
      </trkpt>
      <trkpt lat="36.9626010" lon="-3.1722500">
        <ele>1132.8</ele>
        <time>2020-07-12T11:40:20Z</time>
      </trkpt>
      <trkpt lat="36.9626600" lon="-3.1722030">
        <ele>1133.0</ele>
        <time>2020-07-12T11:40:22Z</time>
      </trkpt>
      <trkpt lat="36.9628510" lon="-3.1720710">
        <ele>1134.0</ele>
        <time>2020-07-12T11:40:29Z</time>
      </trkpt>
      <trkpt lat="36.9631070" lon="-3.1719650">
        <ele>1134.8</ele>
        <time>2020-07-12T11:40:37Z</time>
      </trkpt>
      <trkpt lat="36.9633070" lon="-3.1718370">
        <ele>1135.0</ele>
        <time>2020-07-12T11:40:43Z</time>
      </trkpt>
      <trkpt lat="36.9633400" lon="-3.1718150">
        <ele>1135.0</ele>
        <time>2020-07-12T11:40:44Z</time>
      </trkpt>
      <trkpt lat="36.9633730" lon="-3.1717920">
        <ele>1135.0</ele>
        <time>2020-07-12T11:40:45Z</time>
      </trkpt>
      <trkpt lat="36.9634800" lon="-3.1717390">
        <ele>1135.2</ele>
        <time>2020-07-12T11:40:48Z</time>
      </trkpt>
      <trkpt lat="36.9635510" lon="-3.1716980">
        <ele>1135.2</ele>
        <time>2020-07-12T11:40:50Z</time>
      </trkpt>
      <trkpt lat="36.9636200" lon="-3.1716230">
        <ele>1135.2</ele>
        <time>2020-07-12T11:40:52Z</time>
      </trkpt>
      <trkpt lat="36.9636480" lon="-3.1714730">
        <ele>1135.2</ele>
        <time>2020-07-12T11:40:55Z</time>
      </trkpt>
      <trkpt lat="36.9635950" lon="-3.1713420">
        <ele>1135.4</ele>
        <time>2020-07-12T11:40:58Z</time>
      </trkpt>
      <trkpt lat="36.9635690" lon="-3.1713110">
        <ele>1135.6</ele>
        <time>2020-07-12T11:40:59Z</time>
      </trkpt>
      <trkpt lat="36.9635140" lon="-3.1712600">
        <ele>1136.2</ele>
        <time>2020-07-12T11:41:01Z</time>
      </trkpt>
      <trkpt lat="36.9633970" lon="-3.1712040">
        <ele>1137.4</ele>
        <time>2020-07-12T11:41:05Z</time>
      </trkpt>
      <trkpt lat="36.9633640" lon="-3.1711960">
        <ele>1137.8</ele>
        <time>2020-07-12T11:41:06Z</time>
      </trkpt>
      <trkpt lat="36.9632130" lon="-3.1711680">
        <ele>1138.6</ele>
        <time>2020-07-12T11:41:11Z</time>
      </trkpt>
      <trkpt lat="36.9630980" lon="-3.1711450">
        <ele>1139.6</ele>
        <time>2020-07-12T11:41:15Z</time>
      </trkpt>
      <trkpt lat="36.9630660" lon="-3.1711380">
        <ele>1139.8</ele>
        <time>2020-07-12T11:41:16Z</time>
      </trkpt>
      <trkpt lat="36.9629820" lon="-3.1711110">
        <ele>1140.6</ele>
        <time>2020-07-12T11:41:19Z</time>
      </trkpt>
      <trkpt lat="36.9629070" lon="-3.1710650">
        <ele>1141.2</ele>
        <time>2020-07-12T11:41:22Z</time>
      </trkpt>
      <trkpt lat="36.9628840" lon="-3.1710420">
        <ele>1141.4</ele>
        <time>2020-07-12T11:41:23Z</time>
      </trkpt>
      <trkpt lat="36.9628620" lon="-3.1710170">
        <ele>1141.8</ele>
        <time>2020-07-12T11:41:24Z</time>
      </trkpt>
      <trkpt lat="36.9628150" lon="-3.1709230">
        <ele>1142.2</ele>
        <time>2020-07-12T11:41:27Z</time>
      </trkpt>
      <trkpt lat="36.9628100" lon="-3.1708550">
        <ele>1142.6</ele>
        <time>2020-07-12T11:41:29Z</time>
      </trkpt>
      <trkpt lat="36.9628120" lon="-3.1708200">
        <ele>1142.8</ele>
        <time>2020-07-12T11:41:30Z</time>
      </trkpt>
      <trkpt lat="36.9628620" lon="-3.1706880">
        <ele>1143.6</ele>
        <time>2020-07-12T11:41:34Z</time>
      </trkpt>
      <trkpt lat="36.9629030" lon="-3.1706390">
        <ele>1144.0</ele>
        <time>2020-07-12T11:41:36Z</time>
      </trkpt>
      <trkpt lat="36.9629960" lon="-3.1705610">
        <ele>1145.0</ele>
        <time>2020-07-12T11:41:40Z</time>
      </trkpt>
      <trkpt lat="36.9630200" lon="-3.1705420">
        <ele>1145.2</ele>
        <time>2020-07-12T11:41:41Z</time>
      </trkpt>
      <trkpt lat="36.9631600" lon="-3.1704260">
        <ele>1146.4</ele>
        <time>2020-07-12T11:41:47Z</time>
      </trkpt>
      <trkpt lat="36.9632060" lon="-3.1703880">
        <ele>1147.0</ele>
        <time>2020-07-12T11:41:49Z</time>
      </trkpt>
      <trkpt lat="36.9632980" lon="-3.1703200">
        <ele>1147.6</ele>
        <time>2020-07-12T11:41:53Z</time>
      </trkpt>
      <trkpt lat="36.9633930" lon="-3.1702710">
        <ele>1148.2</ele>
        <time>2020-07-12T11:41:57Z</time>
      </trkpt>
      <trkpt lat="36.9634470" lon="-3.1702570">
        <ele>1148.8</ele>
        <time>2020-07-12T11:41:59Z</time>
      </trkpt>
      <trkpt lat="36.9635530" lon="-3.1702360">
        <ele>1150.0</ele>
        <time>2020-07-12T11:42:03Z</time>
      </trkpt>
      <trkpt lat="36.9636610" lon="-3.1702110">
        <ele>1150.8</ele>
        <time>2020-07-12T11:42:07Z</time>
      </trkpt>
      <trkpt lat="36.9636860" lon="-3.1702010">
        <ele>1151.0</ele>
        <time>2020-07-12T11:42:08Z</time>
      </trkpt>
      <trkpt lat="36.9637940" lon="-3.1701030">
        <ele>1151.8</ele>
        <time>2020-07-12T11:42:13Z</time>
      </trkpt>
      <trkpt lat="36.9638240" lon="-3.1700460">
        <ele>1152.0</ele>
        <time>2020-07-12T11:42:15Z</time>
      </trkpt>
      <trkpt lat="36.9638540" lon="-3.1699100">
        <ele>1153.0</ele>
        <time>2020-07-12T11:42:19Z</time>
      </trkpt>
      <trkpt lat="36.9638580" lon="-3.1698790">
        <ele>1153.4</ele>
        <time>2020-07-12T11:42:20Z</time>
      </trkpt>
      <trkpt lat="36.9638800" lon="-3.1697200">
        <ele>1154.4</ele>
        <time>2020-07-12T11:42:25Z</time>
      </trkpt>
      <trkpt lat="36.9639250" lon="-3.1695340">
        <ele>1155.6</ele>
        <time>2020-07-12T11:42:31Z</time>
      </trkpt>
      <trkpt lat="36.9640070" lon="-3.1693520">
        <ele>1156.6</ele>
        <time>2020-07-12T11:42:37Z</time>
      </trkpt>
      <trkpt lat="36.9640210" lon="-3.1693250">
        <ele>1156.8</ele>
        <time>2020-07-12T11:42:38Z</time>
      </trkpt>
      <trkpt lat="36.9640950" lon="-3.1691530">
        <ele>1157.8</ele>
        <time>2020-07-12T11:42:44Z</time>
      </trkpt>
      <trkpt lat="36.9641500" lon="-3.1690200">
        <ele>1159.2</ele>
        <time>2020-07-12T11:42:49Z</time>
      </trkpt>
      <trkpt lat="36.9641930" lon="-3.1689060">
        <ele>1160.2</ele>
        <time>2020-07-12T11:42:53Z</time>
      </trkpt>
      <trkpt lat="36.9642350" lon="-3.1686660">
        <ele>1161.2</ele>
        <time>2020-07-12T11:43:00Z</time>
      </trkpt>
      <trkpt lat="36.9642380" lon="-3.1685970">
        <ele>1161.4</ele>
        <time>2020-07-12T11:43:02Z</time>
      </trkpt>
      <trkpt lat="36.9642310" lon="-3.1684930">
        <ele>1162.2</ele>
        <time>2020-07-12T11:43:05Z</time>
      </trkpt>
      <trkpt lat="36.9642300" lon="-3.1683600">
        <ele>1163.6</ele>
        <time>2020-07-12T11:43:09Z</time>
      </trkpt>
      <trkpt lat="36.9642340" lon="-3.1683260">
        <ele>1163.8</ele>
        <time>2020-07-12T11:43:10Z</time>
      </trkpt>
      <trkpt lat="36.9642860" lon="-3.1682070">
        <ele>1164.6</ele>
        <time>2020-07-12T11:43:14Z</time>
      </trkpt>
      <trkpt lat="36.9643050" lon="-3.1681830">
        <ele>1164.8</ele>
        <time>2020-07-12T11:43:15Z</time>
      </trkpt>
      <trkpt lat="36.9644230" lon="-3.1681420">
        <ele>1165.4</ele>
        <time>2020-07-12T11:43:19Z</time>
      </trkpt>
      <trkpt lat="36.9644790" lon="-3.1681430">
        <ele>1165.8</ele>
        <time>2020-07-12T11:43:21Z</time>
      </trkpt>
      <trkpt lat="36.9646200" lon="-3.1681550">
        <ele>1166.8</ele>
        <time>2020-07-12T11:43:26Z</time>
      </trkpt>
      <trkpt lat="36.9647050" lon="-3.1681670">
        <ele>1167.6</ele>
        <time>2020-07-12T11:43:29Z</time>
      </trkpt>
      <trkpt lat="36.9647310" lon="-3.1681700">
        <ele>1167.8</ele>
        <time>2020-07-12T11:43:30Z</time>
      </trkpt>
      <trkpt lat="36.9649020" lon="-3.1681690">
        <ele>1168.8</ele>
        <time>2020-07-12T11:43:36Z</time>
      </trkpt>
      <trkpt lat="36.9649560" lon="-3.1681680">
        <ele>1169.2</ele>
        <time>2020-07-12T11:43:38Z</time>
      </trkpt>
      <trkpt lat="36.9650700" lon="-3.1681530">
        <ele>1169.8</ele>
        <time>2020-07-12T11:43:42Z</time>
      </trkpt>
      <trkpt lat="36.9652440" lon="-3.1681000">
        <ele>1170.6</ele>
        <time>2020-07-12T11:43:48Z</time>
      </trkpt>
      <trkpt lat="36.9652980" lon="-3.1680710">
        <ele>1171.0</ele>
        <time>2020-07-12T11:43:50Z</time>
      </trkpt>
      <trkpt lat="36.9654650" lon="-3.1679330">
        <ele>1172.2</ele>
        <time>2020-07-12T11:43:57Z</time>
      </trkpt>
      <trkpt lat="36.9655640" lon="-3.1678490">
        <ele>1173.4</ele>
        <time>2020-07-12T11:44:01Z</time>
      </trkpt>
      <trkpt lat="36.9656470" lon="-3.1678030">
        <ele>1174.0</ele>
        <time>2020-07-12T11:44:04Z</time>
      </trkpt>
      <trkpt lat="36.9657060" lon="-3.1677840">
        <ele>1174.4</ele>
        <time>2020-07-12T11:44:06Z</time>
      </trkpt>
      <trkpt lat="36.9658980" lon="-3.1677530">
        <ele>1175.2</ele>
        <time>2020-07-12T11:44:12Z</time>
      </trkpt>
      <trkpt lat="36.9659620" lon="-3.1677500">
        <ele>1175.4</ele>
        <time>2020-07-12T11:44:14Z</time>
      </trkpt>
      <trkpt lat="36.9660800" lon="-3.1676870">
        <ele>1175.8</ele>
        <time>2020-07-12T11:44:18Z</time>
      </trkpt>
      <trkpt lat="36.9661680" lon="-3.1675830">
        <ele>1176.6</ele>
        <time>2020-07-12T11:44:22Z</time>
      </trkpt>
      <trkpt lat="36.9662170" lon="-3.1674950">
        <ele>1177.4</ele>
        <time>2020-07-12T11:44:25Z</time>
      </trkpt>
      <trkpt lat="36.9662450" lon="-3.1674320">
        <ele>1177.6</ele>
        <time>2020-07-12T11:44:27Z</time>
      </trkpt>
      <trkpt lat="36.9662960" lon="-3.1672710">
        <ele>1178.8</ele>
        <time>2020-07-12T11:44:32Z</time>
      </trkpt>
      <trkpt lat="36.9663370" lon="-3.1671350">
        <ele>1179.6</ele>
        <time>2020-07-12T11:44:36Z</time>
      </trkpt>
      <trkpt lat="36.9663700" lon="-3.1670400">
        <ele>1180.0</ele>
        <time>2020-07-12T11:44:39Z</time>
      </trkpt>
      <trkpt lat="36.9664140" lon="-3.1669440">
        <ele>1180.8</ele>
        <time>2020-07-12T11:44:42Z</time>
      </trkpt>
      <trkpt lat="36.9664460" lon="-3.1668840">
        <ele>1181.2</ele>
        <time>2020-07-12T11:44:44Z</time>
      </trkpt>
      <trkpt lat="36.9665280" lon="-3.1667800">
        <ele>1182.0</ele>
        <time>2020-07-12T11:44:48Z</time>
      </trkpt>
      <trkpt lat="36.9666190" lon="-3.1667110">
        <ele>1182.2</ele>
        <time>2020-07-12T11:44:51Z</time>
      </trkpt>
      <trkpt lat="36.9666980" lon="-3.1666850">
        <ele>1182.2</ele>
        <time>2020-07-12T11:44:53Z</time>
      </trkpt>
      <trkpt lat="36.9667400" lon="-3.1666700">
        <ele>1182.2</ele>
        <time>2020-07-12T11:44:54Z</time>
      </trkpt>
      <trkpt lat="36.9668770" lon="-3.1665910">
        <ele>1182.2</ele>
        <time>2020-07-12T11:44:57Z</time>
      </trkpt>
      <trkpt lat="36.9669210" lon="-3.1665390">
        <ele>1182.2</ele>
        <time>2020-07-12T11:44:58Z</time>
      </trkpt>
      <trkpt lat="36.9669990" lon="-3.1663310">
        <ele>1181.8</ele>
        <time>2020-07-12T11:45:01Z</time>
      </trkpt>
      <trkpt lat="36.9670630" lon="-3.1661030">
        <ele>1181.4</ele>
        <time>2020-07-12T11:45:04Z</time>
      </trkpt>
      <trkpt lat="36.9670830" lon="-3.1660290">
        <ele>1181.2</ele>
        <time>2020-07-12T11:45:05Z</time>
      </trkpt>
      <trkpt lat="36.9671570" lon="-3.1657870">
        <ele>1181.0</ele>
        <time>2020-07-12T11:45:08Z</time>
      </trkpt>
      <trkpt lat="36.9671850" lon="-3.1657110">
        <ele>1180.8</ele>
        <time>2020-07-12T11:45:09Z</time>
      </trkpt>
      <trkpt lat="36.9673890" lon="-3.1653430">
        <ele>1180.6</ele>
        <time>2020-07-12T11:45:14Z</time>
      </trkpt>
      <trkpt lat="36.9676220" lon="-3.1649840">
        <ele>1180.4</ele>
        <time>2020-07-12T11:45:19Z</time>
      </trkpt>
      <trkpt lat="36.9677150" lon="-3.1648370">
        <ele>1180.2</ele>
        <time>2020-07-12T11:45:21Z</time>
      </trkpt>
      <trkpt lat="36.9678100" lon="-3.1646820">
        <ele>1180.0</ele>
        <time>2020-07-12T11:45:23Z</time>
      </trkpt>
      <trkpt lat="36.9679960" lon="-3.1642620">
        <ele>1179.4</ele>
        <time>2020-07-12T11:45:28Z</time>
      </trkpt>
      <trkpt lat="36.9679950" lon="-3.1640810">
        <ele>1179.2</ele>
        <time>2020-07-12T11:45:30Z</time>
      </trkpt>
      <trkpt lat="36.9679880" lon="-3.1639840">
        <ele>1179.2</ele>
        <time>2020-07-12T11:45:31Z</time>
      </trkpt>
      <trkpt lat="36.9679890" lon="-3.1638890">
        <ele>1179.4</ele>
        <time>2020-07-12T11:45:32Z</time>
      </trkpt>
      <trkpt lat="36.9680280" lon="-3.1637080">
        <ele>1179.4</ele>
        <time>2020-07-12T11:45:34Z</time>
      </trkpt>
      <trkpt lat="36.9681750" lon="-3.1634690">
        <ele>1179.4</ele>
        <time>2020-07-12T11:45:37Z</time>
      </trkpt>
      <trkpt lat="36.9683130" lon="-3.1633300">
        <ele>1178.8</ele>
        <time>2020-07-12T11:45:39Z</time>
      </trkpt>
      <trkpt lat="36.9683860" lon="-3.1632500">
        <ele>1178.6</ele>
        <time>2020-07-12T11:45:40Z</time>
      </trkpt>
      <trkpt lat="36.9684460" lon="-3.1631440">
        <ele>1178.0</ele>
        <time>2020-07-12T11:45:41Z</time>
      </trkpt>
      <trkpt lat="36.9685540" lon="-3.1627960">
        <ele>1176.6</ele>
        <time>2020-07-12T11:45:44Z</time>
      </trkpt>
      <trkpt lat="36.9685820" lon="-3.1626850">
        <ele>1176.2</ele>
        <time>2020-07-12T11:45:45Z</time>
      </trkpt>
      <trkpt lat="36.9686110" lon="-3.1625450">
        <ele>1175.4</ele>
        <time>2020-07-12T11:45:46Z</time>
      </trkpt>
      <trkpt lat="36.9686400" lon="-3.1622830">
        <ele>1174.2</ele>
        <time>2020-07-12T11:45:48Z</time>
      </trkpt>
      <trkpt lat="36.9686480" lon="-3.1621440">
        <ele>1173.6</ele>
        <time>2020-07-12T11:45:49Z</time>
      </trkpt>
      <trkpt lat="36.9686540" lon="-3.1620210">
        <ele>1173.0</ele>
        <time>2020-07-12T11:45:50Z</time>
      </trkpt>
      <trkpt lat="36.9686680" lon="-3.1617560">
        <ele>1172.0</ele>
        <time>2020-07-12T11:45:52Z</time>
      </trkpt>
      <trkpt lat="36.9686870" lon="-3.1613850">
        <ele>1171.0</ele>
        <time>2020-07-12T11:45:55Z</time>
      </trkpt>
      <trkpt lat="36.9686870" lon="-3.1612530">
        <ele>1170.6</ele>
        <time>2020-07-12T11:45:56Z</time>
      </trkpt>
      <trkpt lat="36.9686780" lon="-3.1611390">
        <ele>1170.6</ele>
        <time>2020-07-12T11:45:57Z</time>
      </trkpt>
      <trkpt lat="36.9685500" lon="-3.1607100">
        <ele>1170.0</ele>
        <time>2020-07-12T11:46:01Z</time>
      </trkpt>
      <trkpt lat="36.9685010" lon="-3.1606180">
        <ele>1170.0</ele>
        <time>2020-07-12T11:46:02Z</time>
      </trkpt>
      <trkpt lat="36.9684540" lon="-3.1605340">
        <ele>1169.8</ele>
        <time>2020-07-12T11:46:03Z</time>
      </trkpt>
      <trkpt lat="36.9684060" lon="-3.1604360">
        <ele>1169.8</ele>
        <time>2020-07-12T11:46:04Z</time>
      </trkpt>
      <trkpt lat="36.9683750" lon="-3.1603490">
        <ele>1169.8</ele>
        <time>2020-07-12T11:46:05Z</time>
      </trkpt>
      <trkpt lat="36.9683540" lon="-3.1602440">
        <ele>1170.0</ele>
        <time>2020-07-12T11:46:06Z</time>
      </trkpt>
      <trkpt lat="36.9683980" lon="-3.1599620">
        <ele>1170.2</ele>
        <time>2020-07-12T11:46:09Z</time>
      </trkpt>
      <trkpt lat="36.9685910" lon="-3.1597840">
        <ele>1170.2</ele>
        <time>2020-07-12T11:46:12Z</time>
      </trkpt>
      <trkpt lat="36.9687510" lon="-3.1597430">
        <ele>1170.0</ele>
        <time>2020-07-12T11:46:14Z</time>
      </trkpt>
      <trkpt lat="36.9688340" lon="-3.1597290">
        <ele>1169.8</ele>
        <time>2020-07-12T11:46:15Z</time>
      </trkpt>
      <trkpt lat="36.9689140" lon="-3.1597270">
        <ele>1169.8</ele>
        <time>2020-07-12T11:46:16Z</time>
      </trkpt>
      <trkpt lat="36.9693040" lon="-3.1597110">
        <ele>1169.4</ele>
        <time>2020-07-12T11:46:21Z</time>
      </trkpt>
      <trkpt lat="36.9696010" lon="-3.1596980">
        <ele>1169.0</ele>
        <time>2020-07-12T11:46:25Z</time>
      </trkpt>
      <trkpt lat="36.9701730" lon="-3.1596750">
        <ele>1168.2</ele>
        <time>2020-07-12T11:46:33Z</time>
      </trkpt>
      <trkpt lat="36.9702400" lon="-3.1596730">
        <ele>1168.2</ele>
        <time>2020-07-12T11:46:34Z</time>
      </trkpt>
      <trkpt lat="36.9705750" lon="-3.1596850">
        <ele>1170.0</ele>
        <time>2020-07-12T11:46:40Z</time>
      </trkpt>
      <trkpt lat="36.9708220" lon="-3.1597410">
        <ele>1170.4</ele>
        <time>2020-07-12T11:46:44Z</time>
      </trkpt>
      <trkpt lat="36.9708850" lon="-3.1597560">
        <ele>1170.4</ele>
        <time>2020-07-12T11:46:45Z</time>
      </trkpt>
      <trkpt lat="36.9713020" lon="-3.1598470">
        <ele>1169.8</ele>
        <time>2020-07-12T11:46:50Z</time>
      </trkpt>
      <trkpt lat="36.9713910" lon="-3.1598800">
        <ele>1169.2</ele>
        <time>2020-07-12T11:46:51Z</time>
      </trkpt>
      <trkpt lat="36.9714780" lon="-3.1599320">
        <ele>1168.8</ele>
        <time>2020-07-12T11:46:52Z</time>
      </trkpt>
      <trkpt lat="36.9715590" lon="-3.1600050">
        <ele>1168.4</ele>
        <time>2020-07-12T11:46:53Z</time>
      </trkpt>
      <trkpt lat="36.9716330" lon="-3.1600870">
        <ele>1167.8</ele>
        <time>2020-07-12T11:46:54Z</time>
      </trkpt>
      <trkpt lat="36.9718120" lon="-3.1602070">
        <ele>1166.8</ele>
        <time>2020-07-12T11:46:56Z</time>
      </trkpt>
      <trkpt lat="36.9720030" lon="-3.1601470">
        <ele>1165.6</ele>
        <time>2020-07-12T11:46:58Z</time>
      </trkpt>
      <trkpt lat="36.9720900" lon="-3.1599330">
        <ele>1164.6</ele>
        <time>2020-07-12T11:47:00Z</time>
      </trkpt>
      <trkpt lat="36.9720940" lon="-3.1598090">
        <ele>1164.4</ele>
        <time>2020-07-12T11:47:01Z</time>
      </trkpt>
      <trkpt lat="36.9720950" lon="-3.1597010">
        <ele>1164.2</ele>
        <time>2020-07-12T11:47:02Z</time>
      </trkpt>
      <trkpt lat="36.9721180" lon="-3.1594900">
        <ele>1163.8</ele>
        <time>2020-07-12T11:47:04Z</time>
      </trkpt>
      <trkpt lat="36.9722330" lon="-3.1592010">
        <ele>1164.2</ele>
        <time>2020-07-12T11:47:07Z</time>
      </trkpt>
      <trkpt lat="36.9722820" lon="-3.1591120">
        <ele>1164.2</ele>
        <time>2020-07-12T11:47:08Z</time>
      </trkpt>
      <trkpt lat="36.9724440" lon="-3.1588840">
        <ele>1164.0</ele>
        <time>2020-07-12T11:47:11Z</time>
      </trkpt>
      <trkpt lat="36.9726630" lon="-3.1586650">
        <ele>1164.2</ele>
        <time>2020-07-12T11:47:15Z</time>
      </trkpt>
      <trkpt lat="36.9727310" lon="-3.1586270">
        <ele>1164.2</ele>
        <time>2020-07-12T11:47:16Z</time>
      </trkpt>
      <trkpt lat="36.9729280" lon="-3.1585700">
        <ele>1165.0</ele>
        <time>2020-07-12T11:47:19Z</time>
      </trkpt>
      <trkpt lat="36.9730390" lon="-3.1585490">
        <ele>1165.2</ele>
        <time>2020-07-12T11:47:21Z</time>
      </trkpt>
      <trkpt lat="36.9734680" lon="-3.1585300">
        <ele>1165.0</ele>
        <time>2020-07-12T11:47:27Z</time>
      </trkpt>
      <trkpt lat="36.9740340" lon="-3.1584840">
        <ele>1165.0</ele>
        <time>2020-07-12T11:47:35Z</time>
      </trkpt>
      <trkpt lat="36.9744730" lon="-3.1583460">
        <ele>1165.0</ele>
        <time>2020-07-12T11:47:41Z</time>
      </trkpt>
      <trkpt lat="36.9748610" lon="-3.1582760">
        <ele>1164.2</ele>
        <time>2020-07-12T11:47:46Z</time>
      </trkpt>
      <trkpt lat="36.9749410" lon="-3.1582770">
        <ele>1164.0</ele>
        <time>2020-07-12T11:47:47Z</time>
      </trkpt>
      <trkpt lat="36.9751660" lon="-3.1582900">
        <ele>1163.6</ele>
        <time>2020-07-12T11:47:50Z</time>
      </trkpt>
      <trkpt lat="36.9753890" lon="-3.1583270">
        <ele>1163.2</ele>
        <time>2020-07-12T11:47:53Z</time>
      </trkpt>
      <trkpt lat="36.9755760" lon="-3.1584870">
        <ele>1163.4</ele>
        <time>2020-07-12T11:47:56Z</time>
      </trkpt>
      <trkpt lat="36.9756660" lon="-3.1586270">
        <ele>1163.4</ele>
        <time>2020-07-12T11:47:58Z</time>
      </trkpt>
      <trkpt lat="36.9758070" lon="-3.1588560">
        <ele>1164.0</ele>
        <time>2020-07-12T11:48:01Z</time>
      </trkpt>
      <trkpt lat="36.9758960" lon="-3.1589890">
        <ele>1164.4</ele>
        <time>2020-07-12T11:48:03Z</time>
      </trkpt>
      <trkpt lat="36.9759580" lon="-3.1590680">
        <ele>1164.4</ele>
        <time>2020-07-12T11:48:04Z</time>
      </trkpt>
      <trkpt lat="36.9760830" lon="-3.1591680">
        <ele>1164.4</ele>
        <time>2020-07-12T11:48:06Z</time>
      </trkpt>
      <trkpt lat="36.9763030" lon="-3.1591970">
        <ele>1164.6</ele>
        <time>2020-07-12T11:48:09Z</time>
      </trkpt>
      <trkpt lat="36.9765650" lon="-3.1590830">
        <ele>1164.8</ele>
        <time>2020-07-12T11:48:13Z</time>
      </trkpt>
      <trkpt lat="36.9768070" lon="-3.1589410">
        <ele>1165.0</ele>
        <time>2020-07-12T11:48:17Z</time>
      </trkpt>
      <trkpt lat="36.9769360" lon="-3.1588770">
        <ele>1165.4</ele>
        <time>2020-07-12T11:48:19Z</time>
      </trkpt>
      <trkpt lat="36.9769950" lon="-3.1588590">
        <ele>1165.4</ele>
        <time>2020-07-12T11:48:20Z</time>
      </trkpt>
      <trkpt lat="36.9771850" lon="-3.1588490">
        <ele>1166.0</ele>
        <time>2020-07-12T11:48:23Z</time>
      </trkpt>
      <trkpt lat="36.9772500" lon="-3.1588480">
        <ele>1166.2</ele>
        <time>2020-07-12T11:48:24Z</time>
      </trkpt>
      <trkpt lat="36.9773070" lon="-3.1588390">
        <ele>1166.2</ele>
        <time>2020-07-12T11:48:25Z</time>
      </trkpt>
      <trkpt lat="36.9774820" lon="-3.1587700">
        <ele>1166.2</ele>
        <time>2020-07-12T11:48:28Z</time>
      </trkpt>
      <trkpt lat="36.9776990" lon="-3.1586350">
        <ele>1166.4</ele>
        <time>2020-07-12T11:48:32Z</time>
      </trkpt>
      <trkpt lat="36.9778380" lon="-3.1585160">
        <ele>1166.6</ele>
        <time>2020-07-12T11:48:35Z</time>
      </trkpt>
      <trkpt lat="36.9779900" lon="-3.1584140">
        <ele>1167.2</ele>
        <time>2020-07-12T11:48:38Z</time>
      </trkpt>
      <trkpt lat="36.9781070" lon="-3.1583720">
        <ele>1167.2</ele>
        <time>2020-07-12T11:48:40Z</time>
      </trkpt>
      <trkpt lat="36.9781800" lon="-3.1583950">
        <ele>1167.4</ele>
        <time>2020-07-12T11:48:41Z</time>
      </trkpt>
      <trkpt lat="36.9782450" lon="-3.1584380">
        <ele>1167.4</ele>
        <time>2020-07-12T11:48:42Z</time>
      </trkpt>
      <trkpt lat="36.9784090" lon="-3.1586560">
        <ele>1167.2</ele>
        <time>2020-07-12T11:48:45Z</time>
      </trkpt>
      <trkpt lat="36.9784760" lon="-3.1587250">
        <ele>1166.6</ele>
        <time>2020-07-12T11:48:46Z</time>
      </trkpt>
      <trkpt lat="36.9785550" lon="-3.1587610">
        <ele>1166.2</ele>
        <time>2020-07-12T11:48:47Z</time>
      </trkpt>
      <trkpt lat="36.9787090" lon="-3.1587050">
        <ele>1164.6</ele>
        <time>2020-07-12T11:48:49Z</time>
      </trkpt>
      <trkpt lat="36.9787900" lon="-3.1585090">
        <ele>1163.2</ele>
        <time>2020-07-12T11:48:51Z</time>
      </trkpt>
      <trkpt lat="36.9788380" lon="-3.1582720">
        <ele>1161.8</ele>
        <time>2020-07-12T11:48:53Z</time>
      </trkpt>
      <trkpt lat="36.9788960" lon="-3.1580100">
        <ele>1160.4</ele>
        <time>2020-07-12T11:48:55Z</time>
      </trkpt>
      <trkpt lat="36.9789300" lon="-3.1578610">
        <ele>1159.6</ele>
        <time>2020-07-12T11:48:56Z</time>
      </trkpt>
      <trkpt lat="36.9789610" lon="-3.1577170">
        <ele>1158.6</ele>
        <time>2020-07-12T11:48:57Z</time>
      </trkpt>
      <trkpt lat="36.9790310" lon="-3.1574380">
        <ele>1156.8</ele>
        <time>2020-07-12T11:48:59Z</time>
      </trkpt>
      <trkpt lat="36.9790760" lon="-3.1573180">
        <ele>1155.8</ele>
        <time>2020-07-12T11:49:00Z</time>
      </trkpt>
      <trkpt lat="36.9791440" lon="-3.1571930">
        <ele>1155.2</ele>
        <time>2020-07-12T11:49:01Z</time>
      </trkpt>
      <trkpt lat="36.9793200" lon="-3.1569980">
        <ele>1153.4</ele>
        <time>2020-07-12T11:49:03Z</time>
      </trkpt>
      <trkpt lat="36.9794210" lon="-3.1569130">
        <ele>1152.8</ele>
        <time>2020-07-12T11:49:04Z</time>
      </trkpt>
      <trkpt lat="36.9795190" lon="-3.1568270">
        <ele>1152.0</ele>
        <time>2020-07-12T11:49:05Z</time>
      </trkpt>
      <trkpt lat="36.9796170" lon="-3.1567190">
        <ele>1151.4</ele>
        <time>2020-07-12T11:49:06Z</time>
      </trkpt>
      <trkpt lat="36.9796980" lon="-3.1565980">
        <ele>1152.2</ele>
        <time>2020-07-12T11:49:07Z</time>
      </trkpt>
      <trkpt lat="36.9798390" lon="-3.1563470">
        <ele>1150.6</ele>
        <time>2020-07-12T11:49:09Z</time>
      </trkpt>
      <trkpt lat="36.9799000" lon="-3.1562380">
        <ele>1148.2</ele>
        <time>2020-07-12T11:49:10Z</time>
      </trkpt>
      <trkpt lat="36.9799730" lon="-3.1561050">
        <ele>1146.8</ele>
        <time>2020-07-12T11:49:11Z</time>
      </trkpt>
      <trkpt lat="36.9800400" lon="-3.1559930">
        <ele>1145.6</ele>
        <time>2020-07-12T11:49:12Z</time>
      </trkpt>
      <trkpt lat="36.9801120" lon="-3.1558980">
        <ele>1145.0</ele>
        <time>2020-07-12T11:49:13Z</time>
      </trkpt>
      <trkpt lat="36.9801890" lon="-3.1558280">
        <ele>1144.2</ele>
        <time>2020-07-12T11:49:14Z</time>
      </trkpt>
      <trkpt lat="36.9802610" lon="-3.1557870">
        <ele>1143.6</ele>
        <time>2020-07-12T11:49:15Z</time>
      </trkpt>
      <trkpt lat="36.9803390" lon="-3.1557790">
        <ele>1143.2</ele>
        <time>2020-07-12T11:49:16Z</time>
      </trkpt>
      <trkpt lat="36.9804300" lon="-3.1557750">
        <ele>1142.8</ele>
        <time>2020-07-12T11:49:17Z</time>
      </trkpt>
      <trkpt lat="36.9805250" lon="-3.1557820">
        <ele>1142.6</ele>
        <time>2020-07-12T11:49:18Z</time>
      </trkpt>
      <trkpt lat="36.9806230" lon="-3.1557860">
        <ele>1142.0</ele>
        <time>2020-07-12T11:49:19Z</time>
      </trkpt>
      <trkpt lat="36.9808130" lon="-3.1558230">
        <ele>1141.8</ele>
        <time>2020-07-12T11:49:21Z</time>
      </trkpt>
      <trkpt lat="36.9810830" lon="-3.1559100">
        <ele>1141.0</ele>
        <time>2020-07-12T11:49:24Z</time>
      </trkpt>
      <trkpt lat="36.9811640" lon="-3.1558950">
        <ele>1141.0</ele>
        <time>2020-07-12T11:49:25Z</time>
      </trkpt>
      <trkpt lat="36.9813910" lon="-3.1557570">
        <ele>1140.4</ele>
        <time>2020-07-12T11:49:28Z</time>
      </trkpt>
      <trkpt lat="36.9817690" lon="-3.1554790">
        <ele>1140.6</ele>
        <time>2020-07-12T11:49:34Z</time>
      </trkpt>
      <trkpt lat="36.9818940" lon="-3.1553870">
        <ele>1140.8</ele>
        <time>2020-07-12T11:49:36Z</time>
      </trkpt>
      <trkpt lat="36.9819490" lon="-3.1553370">
        <ele>1140.8</ele>
        <time>2020-07-12T11:49:37Z</time>
      </trkpt>
      <trkpt lat="36.9819930" lon="-3.1552750">
        <ele>1140.8</ele>
        <time>2020-07-12T11:49:38Z</time>
      </trkpt>
      <trkpt lat="36.9820310" lon="-3.1552070">
        <ele>1140.8</ele>
        <time>2020-07-12T11:49:39Z</time>
      </trkpt>
      <trkpt lat="36.9821230" lon="-3.1549900">
        <ele>1140.6</ele>
        <time>2020-07-12T11:49:42Z</time>
      </trkpt>
      <trkpt lat="36.9822050" lon="-3.1547750">
        <ele>1140.4</ele>
        <time>2020-07-12T11:49:45Z</time>
      </trkpt>
      <trkpt lat="36.9823320" lon="-3.1545690">
        <ele>1140.4</ele>
        <time>2020-07-12T11:49:48Z</time>
      </trkpt>
      <trkpt lat="36.9824430" lon="-3.1544380">
        <ele>1140.2</ele>
        <time>2020-07-12T11:49:50Z</time>
      </trkpt>
      <trkpt lat="36.9825120" lon="-3.1543590">
        <ele>1139.8</ele>
        <time>2020-07-12T11:49:51Z</time>
      </trkpt>
      <trkpt lat="36.9825800" lon="-3.1542960">
        <ele>1139.4</ele>
        <time>2020-07-12T11:49:52Z</time>
      </trkpt>
      <trkpt lat="36.9827670" lon="-3.1542170">
        <ele>1138.4</ele>
        <time>2020-07-12T11:49:54Z</time>
      </trkpt>
      <trkpt lat="36.9829610" lon="-3.1542550">
        <ele>1137.0</ele>
        <time>2020-07-12T11:49:56Z</time>
      </trkpt>
      <trkpt lat="36.9830530" lon="-3.1543170">
        <ele>1136.4</ele>
        <time>2020-07-12T11:49:57Z</time>
      </trkpt>
      <trkpt lat="36.9831370" lon="-3.1543800">
        <ele>1135.6</ele>
        <time>2020-07-12T11:49:58Z</time>
      </trkpt>
      <trkpt lat="36.9833390" lon="-3.1544870">
        <ele>1134.0</ele>
        <time>2020-07-12T11:50:00Z</time>
      </trkpt>
      <trkpt lat="36.9834530" lon="-3.1545060">
        <ele>1133.0</ele>
        <time>2020-07-12T11:50:01Z</time>
      </trkpt>
      <trkpt lat="36.9835630" lon="-3.1545080">
        <ele>1131.8</ele>
        <time>2020-07-12T11:50:02Z</time>
      </trkpt>
      <trkpt lat="36.9836600" lon="-3.1544960">
        <ele>1130.6</ele>
        <time>2020-07-12T11:50:03Z</time>
      </trkpt>
      <trkpt lat="36.9837610" lon="-3.1544550">
        <ele>1129.4</ele>
        <time>2020-07-12T11:50:04Z</time>
      </trkpt>
      <trkpt lat="36.9838540" lon="-3.1543880">
        <ele>1128.4</ele>
        <time>2020-07-12T11:50:05Z</time>
      </trkpt>
      <trkpt lat="36.9840420" lon="-3.1541990">
        <ele>1126.4</ele>
        <time>2020-07-12T11:50:07Z</time>
      </trkpt>
      <trkpt lat="36.9841290" lon="-3.1541040">
        <ele>1125.2</ele>
        <time>2020-07-12T11:50:08Z</time>
      </trkpt>
      <trkpt lat="36.9842920" lon="-3.1539250">
        <ele>1123.6</ele>
        <time>2020-07-12T11:50:10Z</time>
      </trkpt>
      <trkpt lat="36.9843820" lon="-3.1538280">
        <ele>1122.4</ele>
        <time>2020-07-12T11:50:11Z</time>
      </trkpt>
      <trkpt lat="36.9844640" lon="-3.1537470">
        <ele>1121.2</ele>
        <time>2020-07-12T11:50:12Z</time>
      </trkpt>
      <trkpt lat="36.9846340" lon="-3.1535970">
        <ele>1119.8</ele>
        <time>2020-07-12T11:50:14Z</time>
      </trkpt>
      <trkpt lat="36.9848000" lon="-3.1534610">
        <ele>1118.6</ele>
        <time>2020-07-12T11:50:16Z</time>
      </trkpt>
      <trkpt lat="36.9848870" lon="-3.1533820">
        <ele>1117.6</ele>
        <time>2020-07-12T11:50:17Z</time>
      </trkpt>
      <trkpt lat="36.9849610" lon="-3.1533100">
        <ele>1117.0</ele>
        <time>2020-07-12T11:50:18Z</time>
      </trkpt>
      <trkpt lat="36.9851120" lon="-3.1531600">
        <ele>1115.2</ele>
        <time>2020-07-12T11:50:20Z</time>
      </trkpt>
      <trkpt lat="36.9852760" lon="-3.1530010">
        <ele>1114.0</ele>
        <time>2020-07-12T11:50:22Z</time>
      </trkpt>
      <trkpt lat="36.9853620" lon="-3.1529140">
        <ele>1113.4</ele>
        <time>2020-07-12T11:50:23Z</time>
      </trkpt>
      <trkpt lat="36.9854550" lon="-3.1528260">
        <ele>1112.8</ele>
        <time>2020-07-12T11:50:24Z</time>
      </trkpt>
      <trkpt lat="36.9856540" lon="-3.1526540">
        <ele>1111.0</ele>
        <time>2020-07-12T11:50:26Z</time>
      </trkpt>
      <trkpt lat="36.9858500" lon="-3.1524880">
        <ele>1109.6</ele>
        <time>2020-07-12T11:50:28Z</time>
      </trkpt>
      <trkpt lat="36.9860620" lon="-3.1523130">
        <ele>1107.8</ele>
        <time>2020-07-12T11:50:30Z</time>
      </trkpt>
      <trkpt lat="36.9863020" lon="-3.1521720">
        <ele>1106.2</ele>
        <time>2020-07-12T11:50:32Z</time>
      </trkpt>
      <trkpt lat="36.9865340" lon="-3.1520640">
        <ele>1104.8</ele>
        <time>2020-07-12T11:50:34Z</time>
      </trkpt>
      <trkpt lat="36.9869220" lon="-3.1519070">
        <ele>1103.8</ele>
        <time>2020-07-12T11:50:37Z</time>
      </trkpt>
      <trkpt lat="36.9871050" lon="-3.1518610">
        <ele>1102.0</ele>
        <time>2020-07-12T11:50:39Z</time>
      </trkpt>
      <trkpt lat="36.9874190" lon="-3.1518480">
        <ele>1099.8</ele>
        <time>2020-07-12T11:50:41Z</time>
      </trkpt>
      <trkpt lat="36.9876190" lon="-3.1518260">
        <ele>1098.2</ele>
        <time>2020-07-12T11:50:43Z</time>
      </trkpt>
      <trkpt lat="36.9876990" lon="-3.1517670">
        <ele>1097.6</ele>
        <time>2020-07-12T11:50:44Z</time>
      </trkpt>
      <trkpt lat="36.9877490" lon="-3.1516760">
        <ele>1096.8</ele>
        <time>2020-07-12T11:50:45Z</time>
      </trkpt>
      <trkpt lat="36.9877760" lon="-3.1515560">
        <ele>1095.8</ele>
        <time>2020-07-12T11:50:46Z</time>
      </trkpt>
      <trkpt lat="36.9877770" lon="-3.1514200">
        <ele>1094.6</ele>
        <time>2020-07-12T11:50:47Z</time>
      </trkpt>
      <trkpt lat="36.9877350" lon="-3.1511510">
        <ele>1092.8</ele>
        <time>2020-07-12T11:50:49Z</time>
      </trkpt>
      <trkpt lat="36.9876810" lon="-3.1508820">
        <ele>1091.2</ele>
        <time>2020-07-12T11:50:51Z</time>
      </trkpt>
      <trkpt lat="36.9876730" lon="-3.1507560">
        <ele>1090.4</ele>
        <time>2020-07-12T11:50:52Z</time>
      </trkpt>
      <trkpt lat="36.9877000" lon="-3.1506250">
        <ele>1089.8</ele>
        <time>2020-07-12T11:50:53Z</time>
      </trkpt>
      <trkpt lat="36.9878320" lon="-3.1504650">
        <ele>1089.2</ele>
        <time>2020-07-12T11:50:55Z</time>
      </trkpt>
      <trkpt lat="36.9879540" lon="-3.1503940">
        <ele>1088.4</ele>
        <time>2020-07-12T11:50:56Z</time>
      </trkpt>
      <trkpt lat="36.9881650" lon="-3.1503440">
        <ele>1086.6</ele>
        <time>2020-07-12T11:50:58Z</time>
      </trkpt>
      <trkpt lat="36.9882870" lon="-3.1503540">
        <ele>1087.2</ele>
        <time>2020-07-12T11:50:59Z</time>
      </trkpt>
      <trkpt lat="36.9883880" lon="-3.1503630">
        <ele>1087.2</ele>
        <time>2020-07-12T11:51:00Z</time>
      </trkpt>
      <trkpt lat="36.9885820" lon="-3.1503490">
        <ele>1085.2</ele>
        <time>2020-07-12T11:51:02Z</time>
      </trkpt>
      <trkpt lat="36.9886910" lon="-3.1502230">
        <ele>1083.8</ele>
        <time>2020-07-12T11:51:04Z</time>
      </trkpt>
      <trkpt lat="36.9887430" lon="-3.1500440">
        <ele>1083.4</ele>
        <time>2020-07-12T11:51:06Z</time>
      </trkpt>
      <trkpt lat="36.9887880" lon="-3.1498750">
        <ele>1083.2</ele>
        <time>2020-07-12T11:51:08Z</time>
      </trkpt>
      <trkpt lat="36.9887270" lon="-3.1496240">
        <ele>1083.2</ele>
        <time>2020-07-12T11:51:11Z</time>
      </trkpt>
      <trkpt lat="36.9886040" lon="-3.1495360">
        <ele>1083.0</ele>
        <time>2020-07-12T11:51:13Z</time>
      </trkpt>
      <trkpt lat="36.9885440" lon="-3.1494990">
        <ele>1083.0</ele>
        <time>2020-07-12T11:51:14Z</time>
      </trkpt>
      <trkpt lat="36.9884920" lon="-3.1494670">
        <ele>1082.8</ele>
        <time>2020-07-12T11:51:15Z</time>
      </trkpt>
      <trkpt lat="36.9882200" lon="-3.1493060">
        <ele>1082.8</ele>
        <time>2020-07-12T11:51:20Z</time>
      </trkpt>
      <trkpt lat="36.9880980" lon="-3.1492420">
        <ele>1083.0</ele>
        <time>2020-07-12T11:51:23Z</time>
      </trkpt>
      <trkpt lat="36.9880280" lon="-3.1492080">
        <ele>1083.4</ele>
        <time>2020-07-12T11:51:25Z</time>
      </trkpt>
      <trkpt lat="36.9879940" lon="-3.1491900">
        <ele>1083.6</ele>
        <time>2020-07-12T11:51:26Z</time>
      </trkpt>
      <trkpt lat="36.9879290" lon="-3.1491570">
        <ele>1084.0</ele>
        <time>2020-07-12T11:51:28Z</time>
      </trkpt>
      <trkpt lat="36.9878640" lon="-3.1491200">
        <ele>1084.0</ele>
        <time>2020-07-12T11:51:30Z</time>
      </trkpt>
      <trkpt lat="36.9877970" lon="-3.1490850">
        <ele>1084.0</ele>
        <time>2020-07-12T11:51:32Z</time>
      </trkpt>
      <trkpt lat="36.9877310" lon="-3.1490570">
        <ele>1084.2</ele>
        <time>2020-07-12T11:51:34Z</time>
      </trkpt>
      <trkpt lat="36.9875980" lon="-3.1490010">
        <ele>1084.4</ele>
        <time>2020-07-12T11:51:38Z</time>
      </trkpt>
      <trkpt lat="36.9874740" lon="-3.1489550">
        <ele>1085.0</ele>
        <time>2020-07-12T11:51:42Z</time>
      </trkpt>
      <trkpt lat="36.9874120" lon="-3.1489340">
        <ele>1085.0</ele>
        <time>2020-07-12T11:51:44Z</time>
      </trkpt>
      <trkpt lat="36.9872880" lon="-3.1488900">
        <ele>1086.2</ele>
        <time>2020-07-12T11:51:48Z</time>
      </trkpt>
      <trkpt lat="36.9871360" lon="-3.1488260">
        <ele>1087.4</ele>
        <time>2020-07-12T11:51:53Z</time>
      </trkpt>
      <trkpt lat="36.9869960" lon="-3.1487590">
        <ele>1088.4</ele>
        <time>2020-07-12T11:51:58Z</time>
      </trkpt>
      <trkpt lat="36.9868720" lon="-3.1487070">
        <ele>1089.2</ele>
        <time>2020-07-12T11:52:02Z</time>
      </trkpt>
      <trkpt lat="36.9868100" lon="-3.1487040">
        <ele>1089.6</ele>
        <time>2020-07-12T11:52:04Z</time>
      </trkpt>
      <trkpt lat="36.9866880" lon="-3.1487330">
        <ele>1090.2</ele>
        <time>2020-07-12T11:52:08Z</time>
      </trkpt>
      <trkpt lat="36.9866600" lon="-3.1487450">
        <ele>1090.6</ele>
        <time>2020-07-12T11:52:09Z</time>
      </trkpt>
      <trkpt lat="36.9865220" lon="-3.1488150">
        <ele>1091.8</ele>
        <time>2020-07-12T11:52:14Z</time>
      </trkpt>
      <trkpt lat="36.9864690" lon="-3.1488420">
        <ele>1092.2</ele>
        <time>2020-07-12T11:52:16Z</time>
      </trkpt>
      <trkpt lat="36.9863880" lon="-3.1488910">
        <ele>1092.8</ele>
        <time>2020-07-12T11:52:19Z</time>
      </trkpt>
      <trkpt lat="36.9862450" lon="-3.1490090">
        <ele>1093.8</ele>
        <time>2020-07-12T11:52:25Z</time>
      </trkpt>
      <trkpt lat="36.9861350" lon="-3.1491240">
        <ele>1094.8</ele>
        <time>2020-07-12T11:52:30Z</time>
      </trkpt>
      <trkpt lat="36.9860480" lon="-3.1492080">
        <ele>1095.8</ele>
        <time>2020-07-12T11:52:34Z</time>
      </trkpt>
      <trkpt lat="36.9860250" lon="-3.1492260">
        <ele>1096.0</ele>
        <time>2020-07-12T11:52:35Z</time>
      </trkpt>
      <trkpt lat="36.9859050" lon="-3.1493070">
        <ele>1097.2</ele>
        <time>2020-07-12T11:52:40Z</time>
      </trkpt>
      <trkpt lat="36.9858510" lon="-3.1493400">
        <ele>1097.6</ele>
        <time>2020-07-12T11:52:42Z</time>
      </trkpt>
      <trkpt lat="36.9857360" lon="-3.1493960">
        <ele>1098.2</ele>
        <time>2020-07-12T11:52:46Z</time>
      </trkpt>
      <trkpt lat="36.9856440" lon="-3.1494170">
        <ele>1098.8</ele>
        <time>2020-07-12T11:52:49Z</time>
      </trkpt>
      <trkpt lat="36.9855820" lon="-3.1494200">
        <ele>1099.4</ele>
        <time>2020-07-12T11:52:51Z</time>
      </trkpt>
      <trkpt lat="36.9854040" lon="-3.1494200">
        <ele>1100.4</ele>
        <time>2020-07-12T11:52:57Z</time>
      </trkpt>
      <trkpt lat="36.9852530" lon="-3.1494190">
        <ele>1101.6</ele>
        <time>2020-07-12T11:53:02Z</time>
      </trkpt>
      <trkpt lat="36.9851640" lon="-3.1494400">
        <ele>1102.2</ele>
        <time>2020-07-12T11:53:05Z</time>
      </trkpt>
      <trkpt lat="36.9850640" lon="-3.1494700">
        <ele>1102.6</ele>
        <time>2020-07-12T11:53:08Z</time>
      </trkpt>
      <trkpt lat="36.9849060" lon="-3.1495160">
        <ele>1103.0</ele>
        <time>2020-07-12T11:53:12Z</time>
      </trkpt>
      <trkpt lat="36.9848640" lon="-3.1495200">
        <ele>1103.0</ele>
        <time>2020-07-12T11:53:13Z</time>
      </trkpt>
      <trkpt lat="36.9847760" lon="-3.1495190">
        <ele>1103.0</ele>
        <time>2020-07-12T11:53:15Z</time>
      </trkpt>
      <trkpt lat="36.9846860" lon="-3.1494750">
        <ele>1103.0</ele>
        <time>2020-07-12T11:53:17Z</time>
      </trkpt>
      <trkpt lat="36.9846060" lon="-3.1494030">
        <ele>1103.2</ele>
        <time>2020-07-12T11:53:19Z</time>
      </trkpt>
      <trkpt lat="36.9844850" lon="-3.1492690">
        <ele>1103.0</ele>
        <time>2020-07-12T11:53:22Z</time>
      </trkpt>
      <trkpt lat="36.9844150" lon="-3.1491630">
        <ele>1102.6</ele>
        <time>2020-07-12T11:53:24Z</time>
      </trkpt>
      <trkpt lat="36.9843350" lon="-3.1489980">
        <ele>1102.6</ele>
        <time>2020-07-12T11:53:27Z</time>
      </trkpt>
      <trkpt lat="36.9843130" lon="-3.1489460">
        <ele>1102.8</ele>
        <time>2020-07-12T11:53:28Z</time>
      </trkpt>
      <trkpt lat="36.9842820" lon="-3.1488870">
        <ele>1102.8</ele>
        <time>2020-07-12T11:53:29Z</time>
      </trkpt>
      <trkpt lat="36.9841530" lon="-3.1487780">
        <ele>1102.8</ele>
        <time>2020-07-12T11:53:32Z</time>
      </trkpt>
      <trkpt lat="36.9839880" lon="-3.1487630">
        <ele>1102.8</ele>
        <time>2020-07-12T11:53:35Z</time>
      </trkpt>
      <trkpt lat="36.9839270" lon="-3.1487640">
        <ele>1102.8</ele>
        <time>2020-07-12T11:53:36Z</time>
      </trkpt>
      <trkpt lat="36.9838100" lon="-3.1487540">
        <ele>1103.0</ele>
        <time>2020-07-12T11:53:38Z</time>
      </trkpt>
      <trkpt lat="36.9836920" lon="-3.1487100">
        <ele>1102.8</ele>
        <time>2020-07-12T11:53:40Z</time>
      </trkpt>
      <trkpt lat="36.9836240" lon="-3.1486720">
        <ele>1102.8</ele>
        <time>2020-07-12T11:53:41Z</time>
      </trkpt>
      <trkpt lat="36.9834860" lon="-3.1485800">
        <ele>1102.4</ele>
        <time>2020-07-12T11:53:43Z</time>
      </trkpt>
      <trkpt lat="36.9832610" lon="-3.1484150">
        <ele>1101.4</ele>
        <time>2020-07-12T11:53:46Z</time>
      </trkpt>
      <trkpt lat="36.9831120" lon="-3.1482870">
        <ele>1100.4</ele>
        <time>2020-07-12T11:53:48Z</time>
      </trkpt>
      <trkpt lat="36.9830510" lon="-3.1480870">
        <ele>1099.2</ele>
        <time>2020-07-12T11:53:50Z</time>
      </trkpt>
      <trkpt lat="36.9830610" lon="-3.1478530">
        <ele>1098.2</ele>
        <time>2020-07-12T11:53:52Z</time>
      </trkpt>
      <trkpt lat="36.9830610" lon="-3.1477070">
        <ele>1097.6</ele>
        <time>2020-07-12T11:53:53Z</time>
      </trkpt>
      <trkpt lat="36.9829930" lon="-3.1474420">
        <ele>1096.6</ele>
        <time>2020-07-12T11:53:55Z</time>
      </trkpt>
      <trkpt lat="36.9828450" lon="-3.1471960">
        <ele>1095.2</ele>
        <time>2020-07-12T11:53:57Z</time>
      </trkpt>
      <trkpt lat="36.9827590" lon="-3.1470990">
        <ele>1094.2</ele>
        <time>2020-07-12T11:53:58Z</time>
      </trkpt>
      <trkpt lat="36.9826570" lon="-3.1469980">
        <ele>1093.0</ele>
        <time>2020-07-12T11:53:59Z</time>
      </trkpt>
      <trkpt lat="36.9824890" lon="-3.1467740">
        <ele>1091.6</ele>
        <time>2020-07-12T11:54:01Z</time>
      </trkpt>
      <trkpt lat="36.9824290" lon="-3.1466350">
        <ele>1090.6</ele>
        <time>2020-07-12T11:54:02Z</time>
      </trkpt>
      <trkpt lat="36.9823470" lon="-3.1463350">
        <ele>1088.2</ele>
        <time>2020-07-12T11:54:04Z</time>
      </trkpt>
      <trkpt lat="36.9823320" lon="-3.1461740">
        <ele>1087.0</ele>
        <time>2020-07-12T11:54:05Z</time>
      </trkpt>
      <trkpt lat="36.9823280" lon="-3.1460130">
        <ele>1085.6</ele>
        <time>2020-07-12T11:54:06Z</time>
      </trkpt>
      <trkpt lat="36.9823160" lon="-3.1458770">
        <ele>1084.4</ele>
        <time>2020-07-12T11:54:07Z</time>
      </trkpt>
      <trkpt lat="36.9822770" lon="-3.1457660">
        <ele>1083.4</ele>
        <time>2020-07-12T11:54:08Z</time>
      </trkpt>
      <trkpt lat="36.9822040" lon="-3.1456710">
        <ele>1082.4</ele>
        <time>2020-07-12T11:54:09Z</time>
      </trkpt>
      <trkpt lat="36.9821260" lon="-3.1456050">
        <ele>1081.8</ele>
        <time>2020-07-12T11:54:10Z</time>
      </trkpt>
      <trkpt lat="36.9820210" lon="-3.1455260">
        <ele>1081.2</ele>
        <time>2020-07-12T11:54:11Z</time>
      </trkpt>
      <trkpt lat="36.9819270" lon="-3.1454480">
        <ele>1080.4</ele>
        <time>2020-07-12T11:54:12Z</time>
      </trkpt>
      <trkpt lat="36.9817430" lon="-3.1452620">
        <ele>1079.0</ele>
        <time>2020-07-12T11:54:14Z</time>
      </trkpt>
      <trkpt lat="36.9816640" lon="-3.1451610">
        <ele>1078.2</ele>
        <time>2020-07-12T11:54:15Z</time>
      </trkpt>
      <trkpt lat="36.9815860" lon="-3.1450440">
        <ele>1077.2</ele>
        <time>2020-07-12T11:54:16Z</time>
      </trkpt>
      <trkpt lat="36.9814470" lon="-3.1447790">
        <ele>1075.8</ele>
        <time>2020-07-12T11:54:18Z</time>
      </trkpt>
      <trkpt lat="36.9813090" lon="-3.1445560">
        <ele>1074.4</ele>
        <time>2020-07-12T11:54:20Z</time>
      </trkpt>
      <trkpt lat="36.9811890" lon="-3.1443540">
        <ele>1073.0</ele>
        <time>2020-07-12T11:54:22Z</time>
      </trkpt>
      <trkpt lat="36.9811680" lon="-3.1442340">
        <ele>1072.0</ele>
        <time>2020-07-12T11:54:23Z</time>
      </trkpt>
      <trkpt lat="36.9811800" lon="-3.1441120">
        <ele>1071.0</ele>
        <time>2020-07-12T11:54:24Z</time>
      </trkpt>
      <trkpt lat="36.9812030" lon="-3.1440060">
        <ele>1070.4</ele>
        <time>2020-07-12T11:54:25Z</time>
      </trkpt>
      <trkpt lat="36.9812310" lon="-3.1438890">
        <ele>1069.6</ele>
        <time>2020-07-12T11:54:26Z</time>
      </trkpt>
      <trkpt lat="36.9812460" lon="-3.1437760">
        <ele>1069.2</ele>
        <time>2020-07-12T11:54:27Z</time>
      </trkpt>
      <trkpt lat="36.9812010" lon="-3.1435790">
        <ele>1068.4</ele>
        <time>2020-07-12T11:54:29Z</time>
      </trkpt>
      <trkpt lat="36.9810600" lon="-3.1434970">
        <ele>1068.2</ele>
        <time>2020-07-12T11:54:31Z</time>
      </trkpt>
      <trkpt lat="36.9808460" lon="-3.1434830">
        <ele>1068.2</ele>
        <time>2020-07-12T11:54:34Z</time>
      </trkpt>
      <trkpt lat="36.9807810" lon="-3.1434740">
        <ele>1068.2</ele>
        <time>2020-07-12T11:54:35Z</time>
      </trkpt>
      <trkpt lat="36.9806520" lon="-3.1434620">
        <ele>1068.6</ele>
        <time>2020-07-12T11:54:37Z</time>
      </trkpt>
      <trkpt lat="36.9805330" lon="-3.1434480">
        <ele>1069.2</ele>
        <time>2020-07-12T11:54:39Z</time>
      </trkpt>
      <trkpt lat="36.9804820" lon="-3.1434430">
        <ele>1069.6</ele>
        <time>2020-07-12T11:54:40Z</time>
      </trkpt>
      <trkpt lat="36.9804200" lon="-3.1434380">
        <ele>1069.8</ele>
        <time>2020-07-12T11:54:41Z</time>
      </trkpt>
      <trkpt lat="36.9803640" lon="-3.1434290">
        <ele>1070.2</ele>
        <time>2020-07-12T11:54:42Z</time>
      </trkpt>
      <trkpt lat="36.9802540" lon="-3.1434140">
        <ele>1070.6</ele>
        <time>2020-07-12T11:54:44Z</time>
      </trkpt>
      <trkpt lat="36.9802020" lon="-3.1434060">
        <ele>1070.6</ele>
        <time>2020-07-12T11:54:45Z</time>
      </trkpt>
      <trkpt lat="36.9800880" lon="-3.1433920">
        <ele>1071.0</ele>
        <time>2020-07-12T11:54:47Z</time>
      </trkpt>
      <trkpt lat="36.9800350" lon="-3.1433830">
        <ele>1071.2</ele>
        <time>2020-07-12T11:54:48Z</time>
      </trkpt>
      <trkpt lat="36.9799400" lon="-3.1433670">
        <ele>1071.4</ele>
        <time>2020-07-12T11:54:50Z</time>
      </trkpt>
      <trkpt lat="36.9798480" lon="-3.1433540">
        <ele>1071.8</ele>
        <time>2020-07-12T11:54:52Z</time>
      </trkpt>
      <trkpt lat="36.9798020" lon="-3.1433500">
        <ele>1072.0</ele>
        <time>2020-07-12T11:54:53Z</time>
      </trkpt>
      <trkpt lat="36.9796630" lon="-3.1433320">
        <ele>1072.6</ele>
        <time>2020-07-12T11:54:56Z</time>
      </trkpt>
      <trkpt lat="36.9795660" lon="-3.1433150">
        <ele>1073.0</ele>
        <time>2020-07-12T11:54:58Z</time>
      </trkpt>
      <trkpt lat="36.9794690" lon="-3.1432820">
        <ele>1073.0</ele>
        <time>2020-07-12T11:55:00Z</time>
      </trkpt>
      <trkpt lat="36.9793800" lon="-3.1432100">
        <ele>1073.4</ele>
        <time>2020-07-12T11:55:02Z</time>
      </trkpt>
      <trkpt lat="36.9793080" lon="-3.1431130">
        <ele>1073.4</ele>
        <time>2020-07-12T11:55:04Z</time>
      </trkpt>
      <trkpt lat="36.9792890" lon="-3.1430610">
        <ele>1073.6</ele>
        <time>2020-07-12T11:55:05Z</time>
      </trkpt>
      <trkpt lat="36.9792140" lon="-3.1428480">
        <ele>1073.8</ele>
        <time>2020-07-12T11:55:08Z</time>
      </trkpt>
      <trkpt lat="36.9791970" lon="-3.1427700">
        <ele>1074.0</ele>
        <time>2020-07-12T11:55:09Z</time>
      </trkpt>
      <trkpt lat="36.9791650" lon="-3.1424780">
        <ele>1074.4</ele>
        <time>2020-07-12T11:55:13Z</time>
      </trkpt>
      <trkpt lat="36.9791440" lon="-3.1421260">
        <ele>1074.8</ele>
        <time>2020-07-12T11:55:18Z</time>
      </trkpt>
      <trkpt lat="36.9791200" lon="-3.1420600">
        <ele>1075.0</ele>
        <time>2020-07-12T11:55:19Z</time>
      </trkpt>
      <trkpt lat="36.9790860" lon="-3.1420120">
        <ele>1075.0</ele>
        <time>2020-07-12T11:55:20Z</time>
      </trkpt>
      <trkpt lat="36.9789910" lon="-3.1419390">
        <ele>1075.4</ele>
        <time>2020-07-12T11:55:22Z</time>
      </trkpt>
      <trkpt lat="36.9789360" lon="-3.1419040">
        <ele>1075.4</ele>
        <time>2020-07-12T11:55:23Z</time>
      </trkpt>
      <trkpt lat="36.9786230" lon="-3.1416410">
        <ele>1075.8</ele>
        <time>2020-07-12T11:55:30Z</time>
      </trkpt>
      <trkpt lat="36.9784520" lon="-3.1414100">
        <ele>1076.2</ele>
        <time>2020-07-12T11:55:34Z</time>
      </trkpt>
      <trkpt lat="36.9782920" lon="-3.1411900">
        <ele>1076.6</ele>
        <time>2020-07-12T11:55:38Z</time>
      </trkpt>
      <trkpt lat="36.9780150" lon="-3.1408020">
        <ele>1077.0</ele>
        <time>2020-07-12T11:55:45Z</time>
      </trkpt>
      <trkpt lat="36.9779700" lon="-3.1407440">
        <ele>1077.2</ele>
        <time>2020-07-12T11:55:46Z</time>
      </trkpt>
      <trkpt lat="36.9778710" lon="-3.1406210">
        <ele>1077.2</ele>
        <time>2020-07-12T11:55:48Z</time>
      </trkpt>
      <trkpt lat="36.9776240" lon="-3.1403560">
        <ele>1076.6</ele>
        <time>2020-07-12T11:55:52Z</time>
      </trkpt>
      <trkpt lat="36.9775450" lon="-3.1402890">
        <ele>1076.4</ele>
        <time>2020-07-12T11:55:53Z</time>
      </trkpt>
      <trkpt lat="36.9774660" lon="-3.1402280">
        <ele>1076.2</ele>
        <time>2020-07-12T11:55:54Z</time>
      </trkpt>
      <trkpt lat="36.9773180" lon="-3.1400980">
        <ele>1075.2</ele>
        <time>2020-07-12T11:55:56Z</time>
      </trkpt>
      <trkpt lat="36.9772510" lon="-3.1400210">
        <ele>1074.6</ele>
        <time>2020-07-12T11:55:57Z</time>
      </trkpt>
      <trkpt lat="36.9772010" lon="-3.1399410">
        <ele>1074.0</ele>
        <time>2020-07-12T11:55:58Z</time>
      </trkpt>
      <trkpt lat="36.9771270" lon="-3.1396130">
        <ele>1073.2</ele>
        <time>2020-07-12T11:56:01Z</time>
      </trkpt>
      <trkpt lat="36.9771230" lon="-3.1395020">
        <ele>1073.2</ele>
        <time>2020-07-12T11:56:02Z</time>
      </trkpt>
      <trkpt lat="36.9771240" lon="-3.1393890">
        <ele>1073.0</ele>
        <time>2020-07-12T11:56:03Z</time>
      </trkpt>
      <trkpt lat="36.9771490" lon="-3.1390240">
        <ele>1072.4</ele>
        <time>2020-07-12T11:56:06Z</time>
      </trkpt>
      <trkpt lat="36.9771800" lon="-3.1387680">
        <ele>1071.8</ele>
        <time>2020-07-12T11:56:08Z</time>
      </trkpt>
      <trkpt lat="36.9772120" lon="-3.1385070">
        <ele>1071.0</ele>
        <time>2020-07-12T11:56:10Z</time>
      </trkpt>
      <trkpt lat="36.9772290" lon="-3.1383560">
        <ele>1070.4</ele>
        <time>2020-07-12T11:56:11Z</time>
      </trkpt>
      <trkpt lat="36.9772400" lon="-3.1382190">
        <ele>1069.8</ele>
        <time>2020-07-12T11:56:12Z</time>
      </trkpt>
      <trkpt lat="36.9772380" lon="-3.1380920">
        <ele>1069.2</ele>
        <time>2020-07-12T11:56:13Z</time>
      </trkpt>
      <trkpt lat="36.9771910" lon="-3.1378400">
        <ele>1068.6</ele>
        <time>2020-07-12T11:56:15Z</time>
      </trkpt>
      <trkpt lat="36.9771500" lon="-3.1377160">
        <ele>1068.2</ele>
        <time>2020-07-12T11:56:16Z</time>
      </trkpt>
      <trkpt lat="36.9771070" lon="-3.1375930">
        <ele>1067.8</ele>
        <time>2020-07-12T11:56:17Z</time>
      </trkpt>
      <trkpt lat="36.9769970" lon="-3.1372550">
        <ele>1067.0</ele>
        <time>2020-07-12T11:56:20Z</time>
      </trkpt>
      <trkpt lat="36.9768800" lon="-3.1368150">
        <ele>1066.8</ele>
        <time>2020-07-12T11:56:24Z</time>
      </trkpt>
      <trkpt lat="36.9768600" lon="-3.1367270">
        <ele>1066.8</ele>
        <time>2020-07-12T11:56:25Z</time>
      </trkpt>
      <trkpt lat="36.9768150" lon="-3.1365500">
        <ele>1067.4</ele>
        <time>2020-07-12T11:56:27Z</time>
      </trkpt>
      <trkpt lat="36.9767780" lon="-3.1364040">
        <ele>1068.4</ele>
        <time>2020-07-12T11:56:29Z</time>
      </trkpt>
      <trkpt lat="36.9767500" lon="-3.1362790">
        <ele>1069.2</ele>
        <time>2020-07-12T11:56:31Z</time>
      </trkpt>
      <trkpt lat="36.9767440" lon="-3.1362180">
        <ele>1069.8</ele>
        <time>2020-07-12T11:56:32Z</time>
      </trkpt>
      <trkpt lat="36.9767410" lon="-3.1361110">
        <ele>1070.4</ele>
        <time>2020-07-12T11:56:34Z</time>
      </trkpt>
      <trkpt lat="36.9767420" lon="-3.1360530">
        <ele>1070.6</ele>
        <time>2020-07-12T11:56:35Z</time>
      </trkpt>
      <trkpt lat="36.9767480" lon="-3.1359960">
        <ele>1071.0</ele>
        <time>2020-07-12T11:56:36Z</time>
      </trkpt>
      <trkpt lat="36.9767690" lon="-3.1358910">
        <ele>1071.6</ele>
        <time>2020-07-12T11:56:38Z</time>
      </trkpt>
      <trkpt lat="36.9767910" lon="-3.1358010">
        <ele>1072.2</ele>
        <time>2020-07-12T11:56:40Z</time>
      </trkpt>
      <trkpt lat="36.9768280" lon="-3.1356440">
        <ele>1073.4</ele>
        <time>2020-07-12T11:56:43Z</time>
      </trkpt>
      <trkpt lat="36.9768540" lon="-3.1355370">
        <ele>1074.0</ele>
        <time>2020-07-12T11:56:45Z</time>
      </trkpt>
      <trkpt lat="36.9768690" lon="-3.1354850">
        <ele>1074.4</ele>
        <time>2020-07-12T11:56:46Z</time>
      </trkpt>
      <trkpt lat="36.9768840" lon="-3.1354320">
        <ele>1074.8</ele>
        <time>2020-07-12T11:56:47Z</time>
      </trkpt>
      <trkpt lat="36.9769080" lon="-3.1353320">
        <ele>1075.4</ele>
        <time>2020-07-12T11:56:49Z</time>
      </trkpt>
      <trkpt lat="36.9769330" lon="-3.1352330">
        <ele>1076.0</ele>
        <time>2020-07-12T11:56:51Z</time>
      </trkpt>
      <trkpt lat="36.9769590" lon="-3.1351310">
        <ele>1076.6</ele>
        <time>2020-07-12T11:56:53Z</time>
      </trkpt>
      <trkpt lat="36.9769740" lon="-3.1350740">
        <ele>1076.8</ele>
        <time>2020-07-12T11:56:54Z</time>
      </trkpt>
      <trkpt lat="36.9769880" lon="-3.1350240">
        <ele>1077.2</ele>
        <time>2020-07-12T11:56:55Z</time>
      </trkpt>
      <trkpt lat="36.9770280" lon="-3.1349200">
        <ele>1077.6</ele>
        <time>2020-07-12T11:56:57Z</time>
      </trkpt>
      <trkpt lat="36.9770920" lon="-3.1348220">
        <ele>1078.0</ele>
        <time>2020-07-12T11:56:59Z</time>
      </trkpt>
      <trkpt lat="36.9773010" lon="-3.1345260">
        <ele>1078.0</ele>
        <time>2020-07-12T11:57:04Z</time>
      </trkpt>
      <trkpt lat="36.9773230" lon="-3.1343290">
        <ele>1077.4</ele>
        <time>2020-07-12T11:57:06Z</time>
      </trkpt>
      <trkpt lat="36.9773160" lon="-3.1339210">
        <ele>1076.2</ele>
        <time>2020-07-12T11:57:10Z</time>
      </trkpt>
      <trkpt lat="36.9774730" lon="-3.1336350">
        <ele>1075.2</ele>
        <time>2020-07-12T11:57:13Z</time>
      </trkpt>
      <trkpt lat="36.9775600" lon="-3.1335690">
        <ele>1074.8</ele>
        <time>2020-07-12T11:57:14Z</time>
      </trkpt>
      <trkpt lat="36.9777360" lon="-3.1335150">
        <ele>1073.8</ele>
        <time>2020-07-12T11:57:16Z</time>
      </trkpt>
      <trkpt lat="36.9778340" lon="-3.1335240">
        <ele>1073.4</ele>
        <time>2020-07-12T11:57:17Z</time>
      </trkpt>
      <trkpt lat="36.9780150" lon="-3.1335630">
        <ele>1072.8</ele>
        <time>2020-07-12T11:57:19Z</time>
      </trkpt>
      <trkpt lat="36.9781920" lon="-3.1335220">
        <ele>1072.4</ele>
        <time>2020-07-12T11:57:21Z</time>
      </trkpt>
      <trkpt lat="36.9782560" lon="-3.1334540">
        <ele>1072.2</ele>
        <time>2020-07-12T11:57:22Z</time>
      </trkpt>
      <trkpt lat="36.9782950" lon="-3.1332470">
        <ele>1071.8</ele>
        <time>2020-07-12T11:57:24Z</time>
      </trkpt>
      <trkpt lat="36.9782450" lon="-3.1330560">
        <ele>1071.4</ele>
        <time>2020-07-12T11:57:26Z</time>
      </trkpt>
      <trkpt lat="36.9782100" lon="-3.1329660">
        <ele>1071.4</ele>
        <time>2020-07-12T11:57:27Z</time>
      </trkpt>
      <trkpt lat="36.9780680" lon="-3.1326210">
        <ele>1071.8</ele>
        <time>2020-07-12T11:57:31Z</time>
      </trkpt>
      <trkpt lat="36.9780130" lon="-3.1324470">
        <ele>1072.0</ele>
        <time>2020-07-12T11:57:33Z</time>
      </trkpt>
      <trkpt lat="36.9779570" lon="-3.1321950">
        <ele>1072.2</ele>
        <time>2020-07-12T11:57:36Z</time>
      </trkpt>
      <trkpt lat="36.9779350" lon="-3.1320380">
        <ele>1072.4</ele>
        <time>2020-07-12T11:57:38Z</time>
      </trkpt>
      <trkpt lat="36.9779580" lon="-3.1316910">
        <ele>1072.2</ele>
        <time>2020-07-12T11:57:42Z</time>
      </trkpt>
      <trkpt lat="36.9780020" lon="-3.1312710">
        <ele>1071.0</ele>
        <time>2020-07-12T11:57:46Z</time>
      </trkpt>
      <trkpt lat="36.9780140" lon="-3.1311450">
        <ele>1070.4</ele>
        <time>2020-07-12T11:57:47Z</time>
      </trkpt>
      <trkpt lat="36.9780290" lon="-3.1310260">
        <ele>1069.6</ele>
        <time>2020-07-12T11:57:48Z</time>
      </trkpt>
      <trkpt lat="36.9780530" lon="-3.1309060">
        <ele>1068.8</ele>
        <time>2020-07-12T11:57:49Z</time>
      </trkpt>
      <trkpt lat="36.9780880" lon="-3.1307980">
        <ele>1067.8</ele>
        <time>2020-07-12T11:57:50Z</time>
      </trkpt>
      <trkpt lat="36.9781330" lon="-3.1306740">
        <ele>1067.0</ele>
        <time>2020-07-12T11:57:51Z</time>
      </trkpt>
      <trkpt lat="36.9781730" lon="-3.1305630">
        <ele>1066.4</ele>
        <time>2020-07-12T11:57:52Z</time>
      </trkpt>
      <trkpt lat="36.9782670" lon="-3.1303180">
        <ele>1065.4</ele>
        <time>2020-07-12T11:57:54Z</time>
      </trkpt>
      <trkpt lat="36.9783190" lon="-3.1302180">
        <ele>1065.0</ele>
        <time>2020-07-12T11:57:55Z</time>
      </trkpt>
      <trkpt lat="36.9783890" lon="-3.1301110">
        <ele>1064.6</ele>
        <time>2020-07-12T11:57:56Z</time>
      </trkpt>
      <trkpt lat="36.9784600" lon="-3.1300190">
        <ele>1064.0</ele>
        <time>2020-07-12T11:57:57Z</time>
      </trkpt>
      <trkpt lat="36.9786660" lon="-3.1297540">
        <ele>1063.0</ele>
        <time>2020-07-12T11:58:00Z</time>
      </trkpt>
      <trkpt lat="36.9787260" lon="-3.1296450">
        <ele>1062.6</ele>
        <time>2020-07-12T11:58:01Z</time>
      </trkpt>
      <trkpt lat="36.9787680" lon="-3.1294180">
        <ele>1062.4</ele>
        <time>2020-07-12T11:58:03Z</time>
      </trkpt>
      <trkpt lat="36.9787380" lon="-3.1291950">
        <ele>1062.2</ele>
        <time>2020-07-12T11:58:05Z</time>
      </trkpt>
      <trkpt lat="36.9786510" lon="-3.1291240">
        <ele>1062.0</ele>
        <time>2020-07-12T11:58:06Z</time>
      </trkpt>
      <trkpt lat="36.9785100" lon="-3.1290250">
        <ele>1062.0</ele>
        <time>2020-07-12T11:58:08Z</time>
      </trkpt>
      <trkpt lat="36.9783790" lon="-3.1289100">
        <ele>1061.8</ele>
        <time>2020-07-12T11:58:10Z</time>
      </trkpt>
      <trkpt lat="36.9783260" lon="-3.1287110">
        <ele>1061.8</ele>
        <time>2020-07-12T11:58:12Z</time>
      </trkpt>
      <trkpt lat="36.9784080" lon="-3.1285290">
        <ele>1061.6</ele>
        <time>2020-07-12T11:58:14Z</time>
      </trkpt>
      <trkpt lat="36.9785530" lon="-3.1283860">
        <ele>1061.0</ele>
        <time>2020-07-12T11:58:16Z</time>
      </trkpt>
      <trkpt lat="36.9787070" lon="-3.1282140">
        <ele>1060.0</ele>
        <time>2020-07-12T11:58:18Z</time>
      </trkpt>
      <trkpt lat="36.9787760" lon="-3.1281090">
        <ele>1059.2</ele>
        <time>2020-07-12T11:58:19Z</time>
      </trkpt>
      <trkpt lat="36.9788850" lon="-3.1278860">
        <ele>1058.0</ele>
        <time>2020-07-12T11:58:21Z</time>
      </trkpt>
      <trkpt lat="36.9789400" lon="-3.1276250">
        <ele>1056.8</ele>
        <time>2020-07-12T11:58:23Z</time>
      </trkpt>
      <trkpt lat="36.9789270" lon="-3.1274930">
        <ele>1056.4</ele>
        <time>2020-07-12T11:58:24Z</time>
      </trkpt>
      <trkpt lat="36.9788160" lon="-3.1272830">
        <ele>1055.6</ele>
        <time>2020-07-12T11:58:26Z</time>
      </trkpt>
      <trkpt lat="36.9786710" lon="-3.1271300">
        <ele>1055.2</ele>
        <time>2020-07-12T11:58:28Z</time>
      </trkpt>
      <trkpt lat="36.9784520" lon="-3.1268870">
        <ele>1055.0</ele>
        <time>2020-07-12T11:58:31Z</time>
      </trkpt>
      <trkpt lat="36.9783200" lon="-3.1267230">
        <ele>1054.6</ele>
        <time>2020-07-12T11:58:33Z</time>
      </trkpt>
      <trkpt lat="36.9782390" lon="-3.1265350">
        <ele>1054.0</ele>
        <time>2020-07-12T11:58:35Z</time>
      </trkpt>
      <trkpt lat="36.9781990" lon="-3.1263070">
        <ele>1053.4</ele>
        <time>2020-07-12T11:58:37Z</time>
      </trkpt>
      <trkpt lat="36.9781880" lon="-3.1262000">
        <ele>1053.2</ele>
        <time>2020-07-12T11:58:38Z</time>
      </trkpt>
      <trkpt lat="36.9781770" lon="-3.1260820">
        <ele>1053.0</ele>
        <time>2020-07-12T11:58:39Z</time>
      </trkpt>
      <trkpt lat="36.9781620" lon="-3.1258570">
        <ele>1052.6</ele>
        <time>2020-07-12T11:58:41Z</time>
      </trkpt>
      <trkpt lat="36.9781670" lon="-3.1257440">
        <ele>1052.2</ele>
        <time>2020-07-12T11:58:42Z</time>
      </trkpt>
      <trkpt lat="36.9782090" lon="-3.1255260">
        <ele>1051.8</ele>
        <time>2020-07-12T11:58:44Z</time>
      </trkpt>
      <trkpt lat="36.9782380" lon="-3.1254260">
        <ele>1051.8</ele>
        <time>2020-07-12T11:58:45Z</time>
      </trkpt>
      <trkpt lat="36.9783350" lon="-3.1251050">
        <ele>1051.4</ele>
        <time>2020-07-12T11:58:48Z</time>
      </trkpt>
      <trkpt lat="36.9783690" lon="-3.1250030">
        <ele>1051.2</ele>
        <time>2020-07-12T11:58:49Z</time>
      </trkpt>
      <trkpt lat="36.9784350" lon="-3.1248080">
        <ele>1050.8</ele>
        <time>2020-07-12T11:58:51Z</time>
      </trkpt>
      <trkpt lat="36.9785600" lon="-3.1245410">
        <ele>1050.2</ele>
        <time>2020-07-12T11:58:54Z</time>
      </trkpt>
      <trkpt lat="36.9787040" lon="-3.1242950">
        <ele>1049.2</ele>
        <time>2020-07-12T11:58:57Z</time>
      </trkpt>
      <trkpt lat="36.9787480" lon="-3.1242230">
        <ele>1049.0</ele>
        <time>2020-07-12T11:58:58Z</time>
      </trkpt>
      <trkpt lat="36.9790110" lon="-3.1237690">
        <ele>1048.2</ele>
        <time>2020-07-12T11:59:04Z</time>
      </trkpt>
      <trkpt lat="36.9791510" lon="-3.1235440">
        <ele>1048.0</ele>
        <time>2020-07-12T11:59:07Z</time>
      </trkpt>
      <trkpt lat="36.9792660" lon="-3.1234160">
        <ele>1048.0</ele>
        <time>2020-07-12T11:59:09Z</time>
      </trkpt>
      <trkpt lat="36.9794070" lon="-3.1232990">
        <ele>1048.0</ele>
        <time>2020-07-12T11:59:11Z</time>
      </trkpt>
      <trkpt lat="36.9795560" lon="-3.1231970">
        <ele>1047.8</ele>
        <time>2020-07-12T11:59:13Z</time>
      </trkpt>
      <trkpt lat="36.9796370" lon="-3.1231400">
        <ele>1047.6</ele>
        <time>2020-07-12T11:59:14Z</time>
      </trkpt>
      <trkpt lat="36.9797890" lon="-3.1230340">
        <ele>1047.0</ele>
        <time>2020-07-12T11:59:16Z</time>
      </trkpt>
      <trkpt lat="36.9800300" lon="-3.1228290">
        <ele>1045.6</ele>
        <time>2020-07-12T11:59:19Z</time>
      </trkpt>
      <trkpt lat="36.9800970" lon="-3.1227580">
        <ele>1045.2</ele>
        <time>2020-07-12T11:59:20Z</time>
      </trkpt>
      <trkpt lat="36.9802450" lon="-3.1225980">
        <ele>1044.2</ele>
        <time>2020-07-12T11:59:22Z</time>
      </trkpt>
      <trkpt lat="36.9804050" lon="-3.1224290">
        <ele>1043.0</ele>
        <time>2020-07-12T11:59:24Z</time>
      </trkpt>
      <trkpt lat="36.9805660" lon="-3.1222580">
        <ele>1041.8</ele>
        <time>2020-07-12T11:59:26Z</time>
      </trkpt>
      <trkpt lat="36.9807220" lon="-3.1220940">
        <ele>1040.8</ele>
        <time>2020-07-12T11:59:28Z</time>
      </trkpt>
      <trkpt lat="36.9809030" lon="-3.1219350">
        <ele>1039.8</ele>
        <time>2020-07-12T11:59:30Z</time>
      </trkpt>
      <trkpt lat="36.9811160" lon="-3.1217860">
        <ele>1038.2</ele>
        <time>2020-07-12T11:59:32Z</time>
      </trkpt>
      <trkpt lat="36.9813100" lon="-3.1216590">
        <ele>1036.8</ele>
        <time>2020-07-12T11:59:34Z</time>
      </trkpt>
      <trkpt lat="36.9815080" lon="-3.1215040">
        <ele>1036.0</ele>
        <time>2020-07-12T11:59:36Z</time>
      </trkpt>
      <trkpt lat="36.9815910" lon="-3.1214120">
        <ele>1035.8</ele>
        <time>2020-07-12T11:59:37Z</time>
      </trkpt>
      <trkpt lat="36.9817870" lon="-3.1211240">
        <ele>1034.8</ele>
        <time>2020-07-12T11:59:40Z</time>
      </trkpt>
      <trkpt lat="36.9818660" lon="-3.1210060">
        <ele>1034.6</ele>
        <time>2020-07-12T11:59:41Z</time>
      </trkpt>
      <trkpt lat="36.9820070" lon="-3.1208220">
        <ele>1033.6</ele>
        <time>2020-07-12T11:59:43Z</time>
      </trkpt>
      <trkpt lat="36.9820850" lon="-3.1207280">
        <ele>1033.2</ele>
        <time>2020-07-12T11:59:44Z</time>
      </trkpt>
      <trkpt lat="36.9822410" lon="-3.1205580">
        <ele>1032.4</ele>
        <time>2020-07-12T11:59:46Z</time>
      </trkpt>
      <trkpt lat="36.9823360" lon="-3.1204760">
        <ele>1032.0</ele>
        <time>2020-07-12T11:59:47Z</time>
      </trkpt>
      <trkpt lat="36.9825330" lon="-3.1203620">
        <ele>1031.4</ele>
        <time>2020-07-12T11:59:49Z</time>
      </trkpt>
      <trkpt lat="36.9827380" lon="-3.1202430">
        <ele>1030.8</ele>
        <time>2020-07-12T11:59:51Z</time>
      </trkpt>
      <trkpt lat="36.9828880" lon="-3.1200710">
        <ele>1030.2</ele>
        <time>2020-07-12T11:59:53Z</time>
      </trkpt>
      <trkpt lat="36.9829840" lon="-3.1198700">
        <ele>1029.8</ele>
        <time>2020-07-12T11:59:55Z</time>
      </trkpt>
      <trkpt lat="36.9830260" lon="-3.1197550">
        <ele>1029.6</ele>
        <time>2020-07-12T11:59:56Z</time>
      </trkpt>
      <trkpt lat="36.9830840" lon="-3.1195500">
        <ele>1029.2</ele>
        <time>2020-07-12T11:59:58Z</time>
      </trkpt>
      <trkpt lat="36.9831480" lon="-3.1193380">
        <ele>1029.2</ele>
        <time>2020-07-12T12:00:00Z</time>
      </trkpt>
      <trkpt lat="36.9831920" lon="-3.1192460">
        <ele>1029.0</ele>
        <time>2020-07-12T12:00:01Z</time>
      </trkpt>
      <trkpt lat="36.9832470" lon="-3.1191820">
        <ele>1028.6</ele>
        <time>2020-07-12T12:00:02Z</time>
      </trkpt>
      <trkpt lat="36.9833590" lon="-3.1191320">
        <ele>1027.8</ele>
        <time>2020-07-12T12:00:04Z</time>
      </trkpt>
      <trkpt lat="36.9834130" lon="-3.1191250">
        <ele>1027.4</ele>
        <time>2020-07-12T12:00:05Z</time>
      </trkpt>
      <trkpt lat="36.9834700" lon="-3.1191190">
        <ele>1027.0</ele>
        <time>2020-07-12T12:00:06Z</time>
      </trkpt>
      <trkpt lat="36.9835220" lon="-3.1191090">
        <ele>1026.8</ele>
        <time>2020-07-12T12:00:07Z</time>
      </trkpt>
      <trkpt lat="36.9836170" lon="-3.1190920">
        <ele>1026.8</ele>
        <time>2020-07-12T12:00:09Z</time>
      </trkpt>
      <trkpt lat="36.9837080" lon="-3.1190770">
        <ele>1026.8</ele>
        <time>2020-07-12T12:00:11Z</time>
      </trkpt>
      <trkpt lat="36.9838680" lon="-3.1190320">
        <ele>1027.4</ele>
        <time>2020-07-12T12:00:15Z</time>
      </trkpt>
      <trkpt lat="36.9839560" lon="-3.1189850">
        <ele>1027.6</ele>
        <time>2020-07-12T12:00:17Z</time>
      </trkpt>
      <trkpt lat="36.9840380" lon="-3.1189350">
        <ele>1027.8</ele>
        <time>2020-07-12T12:00:19Z</time>
      </trkpt>
      <trkpt lat="36.9841160" lon="-3.1188890">
        <ele>1028.2</ele>
        <time>2020-07-12T12:00:21Z</time>
      </trkpt>
      <trkpt lat="36.9841510" lon="-3.1188680">
        <ele>1028.4</ele>
        <time>2020-07-12T12:00:22Z</time>
      </trkpt>
      <trkpt lat="36.9841910" lon="-3.1188450">
        <ele>1028.4</ele>
        <time>2020-07-12T12:00:23Z</time>
      </trkpt>
      <trkpt lat="36.9842600" lon="-3.1188050">
        <ele>1029.0</ele>
        <time>2020-07-12T12:00:25Z</time>
      </trkpt>
      <trkpt lat="36.9843330" lon="-3.1187610">
        <ele>1029.6</ele>
        <time>2020-07-12T12:00:27Z</time>
      </trkpt>
      <trkpt lat="36.9844050" lon="-3.1187160">
        <ele>1030.2</ele>
        <time>2020-07-12T12:00:29Z</time>
      </trkpt>
      <trkpt lat="36.9845980" lon="-3.1186020">
        <ele>1030.6</ele>
        <time>2020-07-12T12:00:34Z</time>
      </trkpt>
      <trkpt lat="36.9846470" lon="-3.1185730">
        <ele>1030.6</ele>
        <time>2020-07-12T12:00:35Z</time>
      </trkpt>
      <trkpt lat="36.9846810" lon="-3.1185530">
        <ele>1030.8</ele>
        <time>2020-07-12T12:00:36Z</time>
      </trkpt>
      <trkpt lat="36.9847590" lon="-3.1184970">
        <ele>1031.0</ele>
        <time>2020-07-12T12:00:38Z</time>
      </trkpt>
      <trkpt lat="36.9848640" lon="-3.1183850">
        <ele>1031.4</ele>
        <time>2020-07-12T12:00:41Z</time>
      </trkpt>
      <trkpt lat="36.9848970" lon="-3.1183440">
        <ele>1031.4</ele>
        <time>2020-07-12T12:00:42Z</time>
      </trkpt>
      <trkpt lat="36.9849850" lon="-3.1182280">
        <ele>1032.0</ele>
        <time>2020-07-12T12:00:45Z</time>
      </trkpt>
      <trkpt lat="36.9852070" lon="-3.1179490">
        <ele>1032.8</ele>
        <time>2020-07-12T12:00:52Z</time>
      </trkpt>
      <trkpt lat="36.9852730" lon="-3.1178750">
        <ele>1033.0</ele>
        <time>2020-07-12T12:00:54Z</time>
      </trkpt>
      <trkpt lat="36.9854150" lon="-3.1177340">
        <ele>1033.4</ele>
        <time>2020-07-12T12:00:58Z</time>
      </trkpt>
      <trkpt lat="36.9855500" lon="-3.1176680">
        <ele>1033.6</ele>
        <time>2020-07-12T12:01:01Z</time>
      </trkpt>
      <trkpt lat="36.9857620" lon="-3.1176820">
        <ele>1033.8</ele>
        <time>2020-07-12T12:01:05Z</time>
      </trkpt>
      <trkpt lat="36.9858270" lon="-3.1176950">
        <ele>1033.8</ele>
        <time>2020-07-12T12:01:06Z</time>
      </trkpt>
      <trkpt lat="36.9860920" lon="-3.1177580">
        <ele>1033.4</ele>
        <time>2020-07-12T12:01:10Z</time>
      </trkpt>
      <trkpt lat="36.9863150" lon="-3.1178430">
        <ele>1032.8</ele>
        <time>2020-07-12T12:01:13Z</time>
      </trkpt>
      <trkpt lat="36.9864400" lon="-3.1179520">
        <ele>1032.6</ele>
        <time>2020-07-12T12:01:15Z</time>
      </trkpt>
      <trkpt lat="36.9865640" lon="-3.1181030">
        <ele>1032.4</ele>
        <time>2020-07-12T12:01:17Z</time>
      </trkpt>
      <trkpt lat="36.9867400" lon="-3.1183290">
        <ele>1032.0</ele>
        <time>2020-07-12T12:01:20Z</time>
      </trkpt>
      <trkpt lat="36.9868060" lon="-3.1184060">
        <ele>1031.6</ele>
        <time>2020-07-12T12:01:21Z</time>
      </trkpt>
      <trkpt lat="36.9868670" lon="-3.1184610">
        <ele>1031.4</ele>
        <time>2020-07-12T12:01:22Z</time>
      </trkpt>
      <trkpt lat="36.9870150" lon="-3.1185290">
        <ele>1031.2</ele>
        <time>2020-07-12T12:01:24Z</time>
      </trkpt>
      <trkpt lat="36.9871520" lon="-3.1184950">
        <ele>1031.2</ele>
        <time>2020-07-12T12:01:26Z</time>
      </trkpt>
      <trkpt lat="36.9872100" lon="-3.1184630">
        <ele>1031.2</ele>
        <time>2020-07-12T12:01:27Z</time>
      </trkpt>
      <trkpt lat="36.9873040" lon="-3.1183860">
        <ele>1031.8</ele>
        <time>2020-07-12T12:01:29Z</time>
      </trkpt>
      <trkpt lat="36.9873290" lon="-3.1183410">
        <ele>1032.0</ele>
        <time>2020-07-12T12:01:30Z</time>
      </trkpt>
      <trkpt lat="36.9873580" lon="-3.1181880">
        <ele>1033.6</ele>
        <time>2020-07-12T12:01:33Z</time>
      </trkpt>
      <trkpt lat="36.9873620" lon="-3.1181400">
        <ele>1033.8</ele>
        <time>2020-07-12T12:01:34Z</time>
      </trkpt>
      <trkpt lat="36.9873590" lon="-3.1181010">
        <ele>1034.2</ele>
        <time>2020-07-12T12:01:36Z</time>
      </trkpt>
      <trkpt lat="36.9873580" lon="-3.1179670">
        <ele>1034.8</ele>
        <time>2020-07-12T12:01:38Z</time>
      </trkpt>
      <trkpt lat="36.9873590" lon="-3.1178340">
        <ele>1035.8</ele>
        <time>2020-07-12T12:01:41Z</time>
      </trkpt>
      <trkpt lat="36.9873600" lon="-3.1177930">
        <ele>1036.0</ele>
        <time>2020-07-12T12:01:42Z</time>
      </trkpt>
      <trkpt lat="36.9873600" lon="-3.1176740">
        <ele>1036.8</ele>
        <time>2020-07-12T12:01:45Z</time>
      </trkpt>
      <trkpt lat="36.9873750" lon="-3.1174760">
        <ele>1038.2</ele>
        <time>2020-07-12T12:01:50Z</time>
      </trkpt>
      <trkpt lat="36.9874330" lon="-3.1173360">
        <ele>1039.4</ele>
        <time>2020-07-12T12:01:54Z</time>
      </trkpt>
      <trkpt lat="36.9874520" lon="-3.1173090">
        <ele>1039.6</ele>
        <time>2020-07-12T12:01:55Z</time>
      </trkpt>
      <trkpt lat="36.9875300" lon="-3.1172370">
        <ele>1040.4</ele>
        <time>2020-07-12T12:01:58Z</time>
      </trkpt>
      <trkpt lat="36.9876250" lon="-3.1171830">
        <ele>1040.8</ele>
        <time>2020-07-12T12:02:01Z</time>
      </trkpt>
      <trkpt lat="36.9877250" lon="-3.1171460">
        <ele>1041.4</ele>
        <time>2020-07-12T12:02:05Z</time>
      </trkpt>
      <trkpt lat="36.9878720" lon="-3.1171420">
        <ele>1042.4</ele>
        <time>2020-07-12T12:02:09Z</time>
      </trkpt>
      <trkpt lat="36.9878970" lon="-3.1171460">
        <ele>1042.8</ele>
        <time>2020-07-12T12:02:10Z</time>
      </trkpt>
      <trkpt lat="36.9880130" lon="-3.1171770">
        <ele>1043.8</ele>
        <time>2020-07-12T12:02:14Z</time>
      </trkpt>
      <trkpt lat="36.9880700" lon="-3.1171930">
        <ele>1044.2</ele>
        <time>2020-07-12T12:02:16Z</time>
      </trkpt>
      <trkpt lat="36.9881680" lon="-3.1172150">
        <ele>1044.8</ele>
        <time>2020-07-12T12:02:19Z</time>
      </trkpt>
      <trkpt lat="36.9882890" lon="-3.1172210">
        <ele>1045.8</ele>
        <time>2020-07-12T12:02:23Z</time>
      </trkpt>
      <trkpt lat="36.9883190" lon="-3.1172190">
        <ele>1046.0</ele>
        <time>2020-07-12T12:02:24Z</time>
      </trkpt>
      <trkpt lat="36.9885000" lon="-3.1172240">
        <ele>1047.2</ele>
        <time>2020-07-12T12:02:30Z</time>
      </trkpt>
      <trkpt lat="36.9885630" lon="-3.1172490">
        <ele>1047.6</ele>
        <time>2020-07-12T12:02:32Z</time>
      </trkpt>
      <trkpt lat="36.9886860" lon="-3.1173370">
        <ele>1048.2</ele>
        <time>2020-07-12T12:02:36Z</time>
      </trkpt>
      <trkpt lat="36.9887900" lon="-3.1174050">
        <ele>1048.8</ele>
        <time>2020-07-12T12:02:39Z</time>
      </trkpt>
      <trkpt lat="36.9888230" lon="-3.1174190">
        <ele>1048.8</ele>
        <time>2020-07-12T12:02:40Z</time>
      </trkpt>
      <trkpt lat="36.9889670" lon="-3.1174170">
        <ele>1049.0</ele>
        <time>2020-07-12T12:02:43Z</time>
      </trkpt>
      <trkpt lat="36.9890700" lon="-3.1173060">
        <ele>1049.0</ele>
        <time>2020-07-12T12:02:46Z</time>
      </trkpt>
      <trkpt lat="36.9891110" lon="-3.1171520">
        <ele>1049.2</ele>
        <time>2020-07-12T12:02:49Z</time>
      </trkpt>
      <trkpt lat="36.9891190" lon="-3.1171060">
        <ele>1049.4</ele>
        <time>2020-07-12T12:02:50Z</time>
      </trkpt>
      <trkpt lat="36.9891280" lon="-3.1170540">
        <ele>1049.6</ele>
        <time>2020-07-12T12:02:51Z</time>
      </trkpt>
      <trkpt lat="36.9891670" lon="-3.1168290">
        <ele>1050.4</ele>
        <time>2020-07-12T12:02:56Z</time>
      </trkpt>
      <trkpt lat="36.9892200" lon="-3.1166700">
        <ele>1051.4</ele>
        <time>2020-07-12T12:03:00Z</time>
      </trkpt>
      <trkpt lat="36.9892380" lon="-3.1166300">
        <ele>1051.6</ele>
        <time>2020-07-12T12:03:01Z</time>
      </trkpt>
      <trkpt lat="36.9893450" lon="-3.1164190">
        <ele>1052.6</ele>
        <time>2020-07-12T12:03:06Z</time>
      </trkpt>
      <trkpt lat="36.9895220" lon="-3.1160990">
        <ele>1052.8</ele>
        <time>2020-07-12T12:03:12Z</time>
      </trkpt>
      <trkpt lat="36.9895620" lon="-3.1160390">
        <ele>1052.6</ele>
        <time>2020-07-12T12:03:13Z</time>
      </trkpt>
      <trkpt lat="36.9897230" lon="-3.1159040">
        <ele>1052.2</ele>
        <time>2020-07-12T12:03:16Z</time>
      </trkpt>
      <trkpt lat="36.9899320" lon="-3.1158200">
        <ele>1051.6</ele>
        <time>2020-07-12T12:03:19Z</time>
      </trkpt>
      <trkpt lat="36.9899960" lon="-3.1158140">
        <ele>1051.2</ele>
        <time>2020-07-12T12:03:20Z</time>
      </trkpt>
      <trkpt lat="36.9902000" lon="-3.1158920">
        <ele>1050.8</ele>
        <time>2020-07-12T12:03:23Z</time>
      </trkpt>
      <trkpt lat="36.9902640" lon="-3.1159310">
        <ele>1050.6</ele>
        <time>2020-07-12T12:03:24Z</time>
      </trkpt>
      <trkpt lat="36.9904010" lon="-3.1159770">
        <ele>1050.0</ele>
        <time>2020-07-12T12:03:26Z</time>
      </trkpt>
      <trkpt lat="36.9904730" lon="-3.1159600">
        <ele>1050.0</ele>
        <time>2020-07-12T12:03:27Z</time>
      </trkpt>
      <trkpt lat="36.9905240" lon="-3.1159210">
        <ele>1049.8</ele>
        <time>2020-07-12T12:03:28Z</time>
      </trkpt>
      <trkpt lat="36.9905690" lon="-3.1158390">
        <ele>1049.8</ele>
        <time>2020-07-12T12:03:29Z</time>
      </trkpt>
      <trkpt lat="36.9905770" lon="-3.1157580">
        <ele>1049.8</ele>
        <time>2020-07-12T12:03:30Z</time>
      </trkpt>
      <trkpt lat="36.9905650" lon="-3.1156630">
        <ele>1049.6</ele>
        <time>2020-07-12T12:03:31Z</time>
      </trkpt>
      <trkpt lat="36.9905230" lon="-3.1154930">
        <ele>1049.6</ele>
        <time>2020-07-12T12:03:33Z</time>
      </trkpt>
      <trkpt lat="36.9904500" lon="-3.1152190">
        <ele>1049.4</ele>
        <time>2020-07-12T12:03:36Z</time>
      </trkpt>
      <trkpt lat="36.9904250" lon="-3.1151250">
        <ele>1049.2</ele>
        <time>2020-07-12T12:03:37Z</time>
      </trkpt>
      <trkpt lat="36.9903750" lon="-3.1149380">
        <ele>1049.4</ele>
        <time>2020-07-12T12:03:39Z</time>
      </trkpt>
      <trkpt lat="36.9902980" lon="-3.1147610">
        <ele>1049.0</ele>
        <time>2020-07-12T12:03:41Z</time>
      </trkpt>
      <trkpt lat="36.9902510" lon="-3.1146780">
        <ele>1049.0</ele>
        <time>2020-07-12T12:03:42Z</time>
      </trkpt>
      <trkpt lat="36.9901460" lon="-3.1145010">
        <ele>1048.2</ele>
        <time>2020-07-12T12:03:44Z</time>
      </trkpt>
      <trkpt lat="36.9900990" lon="-3.1144000">
        <ele>1047.8</ele>
        <time>2020-07-12T12:03:45Z</time>
      </trkpt>
      <trkpt lat="36.9900740" lon="-3.1142820">
        <ele>1047.6</ele>
        <time>2020-07-12T12:03:46Z</time>
      </trkpt>
      <trkpt lat="36.9900770" lon="-3.1141620">
        <ele>1047.2</ele>
        <time>2020-07-12T12:03:47Z</time>
      </trkpt>
      <trkpt lat="36.9900970" lon="-3.1140340">
        <ele>1046.6</ele>
        <time>2020-07-12T12:03:48Z</time>
      </trkpt>
      <trkpt lat="36.9901580" lon="-3.1137900">
        <ele>1045.8</ele>
        <time>2020-07-12T12:03:50Z</time>
      </trkpt>
      <trkpt lat="36.9902060" lon="-3.1135270">
        <ele>1044.4</ele>
        <time>2020-07-12T12:03:52Z</time>
      </trkpt>
      <trkpt lat="36.9901450" lon="-3.1132450">
        <ele>1043.2</ele>
        <time>2020-07-12T12:03:54Z</time>
      </trkpt>
      <trkpt lat="36.9899990" lon="-3.1130080">
        <ele>1041.8</ele>
        <time>2020-07-12T12:03:56Z</time>
      </trkpt>
      <trkpt lat="36.9899210" lon="-3.1128930">
        <ele>1041.0</ele>
        <time>2020-07-12T12:03:57Z</time>
      </trkpt>
      <trkpt lat="36.9898520" lon="-3.1127900">
        <ele>1040.2</ele>
        <time>2020-07-12T12:03:58Z</time>
      </trkpt>
      <trkpt lat="36.9897000" lon="-3.1125520">
        <ele>1039.0</ele>
        <time>2020-07-12T12:04:00Z</time>
      </trkpt>
      <trkpt lat="36.9896310" lon="-3.1124170">
        <ele>1038.2</ele>
        <time>2020-07-12T12:04:01Z</time>
      </trkpt>
      <trkpt lat="36.9895930" lon="-3.1122830">
        <ele>1037.4</ele>
        <time>2020-07-12T12:04:02Z</time>
      </trkpt>
      <trkpt lat="36.9896160" lon="-3.1120350">
        <ele>1036.2</ele>
        <time>2020-07-12T12:04:04Z</time>
      </trkpt>
      <trkpt lat="36.9897700" lon="-3.1118630">
        <ele>1035.4</ele>
        <time>2020-07-12T12:04:06Z</time>
      </trkpt>
      <trkpt lat="36.9898710" lon="-3.1118470">
        <ele>1034.8</ele>
        <time>2020-07-12T12:04:07Z</time>
      </trkpt>
      <trkpt lat="36.9899640" lon="-3.1118740">
        <ele>1034.2</ele>
        <time>2020-07-12T12:04:08Z</time>
      </trkpt>
      <trkpt lat="36.9900650" lon="-3.1119340">
        <ele>1033.6</ele>
        <time>2020-07-12T12:04:09Z</time>
      </trkpt>
      <trkpt lat="36.9901580" lon="-3.1119930">
        <ele>1033.0</ele>
        <time>2020-07-12T12:04:10Z</time>
      </trkpt>
      <trkpt lat="36.9902780" lon="-3.1120500">
        <ele>1032.4</ele>
        <time>2020-07-12T12:04:11Z</time>
      </trkpt>
      <trkpt lat="36.9905070" lon="-3.1120950">
        <ele>1031.0</ele>
        <time>2020-07-12T12:04:13Z</time>
      </trkpt>
      <trkpt lat="36.9906280" lon="-3.1121040">
        <ele>1030.4</ele>
        <time>2020-07-12T12:04:14Z</time>
      </trkpt>
      <trkpt lat="36.9907350" lon="-3.1121070">
        <ele>1029.4</ele>
        <time>2020-07-12T12:04:15Z</time>
      </trkpt>
      <trkpt lat="36.9908440" lon="-3.1120900">
        <ele>1028.6</ele>
        <time>2020-07-12T12:04:16Z</time>
      </trkpt>
      <trkpt lat="36.9909350" lon="-3.1120340">
        <ele>1028.0</ele>
        <time>2020-07-12T12:04:17Z</time>
      </trkpt>
      <trkpt lat="36.9910390" lon="-3.1118310">
        <ele>1026.8</ele>
        <time>2020-07-12T12:04:19Z</time>
      </trkpt>
      <trkpt lat="36.9911460" lon="-3.1116030">
        <ele>1025.6</ele>
        <time>2020-07-12T12:04:21Z</time>
      </trkpt>
      <trkpt lat="36.9912170" lon="-3.1115100">
        <ele>1024.6</ele>
        <time>2020-07-12T12:04:22Z</time>
      </trkpt>
      <trkpt lat="36.9913120" lon="-3.1114080">
        <ele>1023.8</ele>
        <time>2020-07-12T12:04:23Z</time>
      </trkpt>
      <trkpt lat="36.9915010" lon="-3.1112440">
        <ele>1022.2</ele>
        <time>2020-07-12T12:04:25Z</time>
      </trkpt>
      <trkpt lat="36.9916260" lon="-3.1111710">
        <ele>1021.4</ele>
        <time>2020-07-12T12:04:26Z</time>
      </trkpt>
      <trkpt lat="36.9917480" lon="-3.1111120">
        <ele>1020.4</ele>
        <time>2020-07-12T12:04:27Z</time>
      </trkpt>
      <trkpt lat="36.9918400" lon="-3.1110580">
        <ele>1019.6</ele>
        <time>2020-07-12T12:04:28Z</time>
      </trkpt>
      <trkpt lat="36.9919600" lon="-3.1109660">
        <ele>1018.6</ele>
        <time>2020-07-12T12:04:29Z</time>
      </trkpt>
      <trkpt lat="36.9920570" lon="-3.1108730">
        <ele>1017.8</ele>
        <time>2020-07-12T12:04:30Z</time>
      </trkpt>
      <trkpt lat="36.9921540" lon="-3.1107540">
        <ele>1017.4</ele>
        <time>2020-07-12T12:04:31Z</time>
      </trkpt>
      <trkpt lat="36.9922780" lon="-3.1104870">
        <ele>1016.2</ele>
        <time>2020-07-12T12:04:33Z</time>
      </trkpt>
      <trkpt lat="36.9923260" lon="-3.1103490">
        <ele>1015.6</ele>
        <time>2020-07-12T12:04:34Z</time>
      </trkpt>
      <trkpt lat="36.9923750" lon="-3.1102100">
        <ele>1014.8</ele>
        <time>2020-07-12T12:04:35Z</time>
      </trkpt>
      <trkpt lat="36.9924340" lon="-3.1100750">
        <ele>1014.0</ele>
        <time>2020-07-12T12:04:36Z</time>
      </trkpt>
      <trkpt lat="36.9925130" lon="-3.1099620">
        <ele>1013.0</ele>
        <time>2020-07-12T12:04:37Z</time>
      </trkpt>
      <trkpt lat="36.9926950" lon="-3.1097980">
        <ele>1011.0</ele>
        <time>2020-07-12T12:04:39Z</time>
      </trkpt>
      <trkpt lat="36.9927610" lon="-3.1097170">
        <ele>1010.6</ele>
        <time>2020-07-12T12:04:40Z</time>
      </trkpt>
      <trkpt lat="36.9928240" lon="-3.1095860">
        <ele>1009.8</ele>
        <time>2020-07-12T12:04:41Z</time>
      </trkpt>
      <trkpt lat="36.9928670" lon="-3.1094570">
        <ele>1009.4</ele>
        <time>2020-07-12T12:04:42Z</time>
      </trkpt>
      <trkpt lat="36.9929190" lon="-3.1093320">
        <ele>1008.8</ele>
        <time>2020-07-12T12:04:43Z</time>
      </trkpt>
      <trkpt lat="36.9930740" lon="-3.1091320">
        <ele>1007.0</ele>
        <time>2020-07-12T12:04:45Z</time>
      </trkpt>
      <trkpt lat="36.9932640" lon="-3.1089570">
        <ele>1005.2</ele>
        <time>2020-07-12T12:04:47Z</time>
      </trkpt>
      <trkpt lat="36.9933570" lon="-3.1088890">
        <ele>1004.2</ele>
        <time>2020-07-12T12:04:48Z</time>
      </trkpt>
      <trkpt lat="36.9934580" lon="-3.1088570">
        <ele>1003.4</ele>
        <time>2020-07-12T12:04:49Z</time>
      </trkpt>
      <trkpt lat="36.9936570" lon="-3.1089290">
        <ele>1001.8</ele>
        <time>2020-07-12T12:04:51Z</time>
      </trkpt>
      <trkpt lat="36.9938400" lon="-3.1090670">
        <ele>1000.6</ele>
        <time>2020-07-12T12:04:53Z</time>
      </trkpt>
      <trkpt lat="36.9939340" lon="-3.1090990">
        <ele>1000.0</ele>
        <time>2020-07-12T12:04:54Z</time>
      </trkpt>
      <trkpt lat="36.9940220" lon="-3.1090860">
        <ele>999.6</ele>
        <time>2020-07-12T12:04:55Z</time>
      </trkpt>
      <trkpt lat="36.9941120" lon="-3.1090240">
        <ele>998.8</ele>
        <time>2020-07-12T12:04:56Z</time>
      </trkpt>
      <trkpt lat="36.9941940" lon="-3.1089540">
        <ele>998.2</ele>
        <time>2020-07-12T12:04:57Z</time>
      </trkpt>
      <trkpt lat="36.9942850" lon="-3.1089170">
        <ele>997.6</ele>
        <time>2020-07-12T12:04:58Z</time>
      </trkpt>
      <trkpt lat="36.9943890" lon="-3.1089300">
        <ele>996.8</ele>
        <time>2020-07-12T12:04:59Z</time>
      </trkpt>
      <trkpt lat="36.9945820" lon="-3.1090390">
        <ele>995.6</ele>
        <time>2020-07-12T12:05:01Z</time>
      </trkpt>
      <trkpt lat="36.9946670" lon="-3.1091010">
        <ele>995.0</ele>
        <time>2020-07-12T12:05:02Z</time>
      </trkpt>
      <trkpt lat="36.9947520" lon="-3.1091510">
        <ele>994.2</ele>
        <time>2020-07-12T12:05:03Z</time>
      </trkpt>
      <trkpt lat="36.9949290" lon="-3.1091620">
        <ele>993.8</ele>
        <time>2020-07-12T12:05:05Z</time>
      </trkpt>
      <trkpt lat="36.9950780" lon="-3.1090120">
        <ele>993.4</ele>
        <time>2020-07-12T12:05:07Z</time>
      </trkpt>
      <trkpt lat="36.9951800" lon="-3.1088260">
        <ele>993.2</ele>
        <time>2020-07-12T12:05:09Z</time>
      </trkpt>
      <trkpt lat="36.9952510" lon="-3.1086300">
        <ele>992.6</ele>
        <time>2020-07-12T12:05:11Z</time>
      </trkpt>
      <trkpt lat="36.9951990" lon="-3.1084370">
        <ele>992.0</ele>
        <time>2020-07-12T12:05:13Z</time>
      </trkpt>
      <trkpt lat="36.9951080" lon="-3.1082590">
        <ele>991.8</ele>
        <time>2020-07-12T12:05:15Z</time>
      </trkpt>
      <trkpt lat="36.9950560" lon="-3.1081620">
        <ele>991.8</ele>
        <time>2020-07-12T12:05:16Z</time>
      </trkpt>
      <trkpt lat="36.9949570" lon="-3.1079560">
        <ele>991.6</ele>
        <time>2020-07-12T12:05:18Z</time>
      </trkpt>
      <trkpt lat="36.9949270" lon="-3.1078520">
        <ele>991.2</ele>
        <time>2020-07-12T12:05:19Z</time>
      </trkpt>
      <trkpt lat="36.9949120" lon="-3.1077470">
        <ele>991.0</ele>
        <time>2020-07-12T12:05:20Z</time>
      </trkpt>
      <trkpt lat="36.9948960" lon="-3.1075150">
        <ele>990.6</ele>
        <time>2020-07-12T12:05:22Z</time>
      </trkpt>
      <trkpt lat="36.9948790" lon="-3.1073900">
        <ele>990.2</ele>
        <time>2020-07-12T12:05:23Z</time>
      </trkpt>
      <trkpt lat="36.9948480" lon="-3.1072830">
        <ele>990.0</ele>
        <time>2020-07-12T12:05:24Z</time>
      </trkpt>
      <trkpt lat="36.9948050" lon="-3.1071810">
        <ele>989.8</ele>
        <time>2020-07-12T12:05:25Z</time>
      </trkpt>
      <trkpt lat="36.9946570" lon="-3.1068510">
        <ele>988.8</ele>
        <time>2020-07-12T12:05:28Z</time>
      </trkpt>
      <trkpt lat="36.9946560" lon="-3.1068220">
        <ele>988.6</ele>
        <time>2020-07-12T12:05:29Z</time>
      </trkpt>
      <trkpt lat="36.9946130" lon="-3.1066520">
        <ele>988.0</ele>
        <time>2020-07-12T12:05:30Z</time>
      </trkpt>
      <trkpt lat="36.9945690" lon="-3.1064820">
        <ele>987.6</ele>
        <time>2020-07-12T12:05:31Z</time>
      </trkpt>
      <trkpt lat="36.9945010" lon="-3.1062300">
        <ele>986.4</ele>
        <time>2020-07-12T12:05:33Z</time>
      </trkpt>
      <trkpt lat="36.9943950" lon="-3.1059950">
        <ele>985.0</ele>
        <time>2020-07-12T12:05:35Z</time>
      </trkpt>
      <trkpt lat="36.9942820" lon="-3.1057540">
        <ele>983.8</ele>
        <time>2020-07-12T12:05:37Z</time>
      </trkpt>
      <trkpt lat="36.9942650" lon="-3.1056350">
        <ele>983.2</ele>
        <time>2020-07-12T12:05:38Z</time>
      </trkpt>
      <trkpt lat="36.9942840" lon="-3.1055240">
        <ele>982.4</ele>
        <time>2020-07-12T12:05:39Z</time>
      </trkpt>
      <trkpt lat="36.9943360" lon="-3.1054410">
        <ele>982.0</ele>
        <time>2020-07-12T12:05:40Z</time>
      </trkpt>
      <trkpt lat="36.9944360" lon="-3.1053790">
        <ele>981.4</ele>
        <time>2020-07-12T12:05:41Z</time>
      </trkpt>
      <trkpt lat="36.9945380" lon="-3.1053550">
        <ele>980.6</ele>
        <time>2020-07-12T12:05:42Z</time>
      </trkpt>
      <trkpt lat="36.9946440" lon="-3.1053390">
        <ele>980.0</ele>
        <time>2020-07-12T12:05:43Z</time>
      </trkpt>
      <trkpt lat="36.9948540" lon="-3.1053270">
        <ele>978.8</ele>
        <time>2020-07-12T12:05:45Z</time>
      </trkpt>
      <trkpt lat="36.9949720" lon="-3.1053540">
        <ele>978.2</ele>
        <time>2020-07-12T12:05:46Z</time>
      </trkpt>
      <trkpt lat="36.9950810" lon="-3.1054160">
        <ele>977.6</ele>
        <time>2020-07-12T12:05:47Z</time>
      </trkpt>
      <trkpt lat="36.9951630" lon="-3.1054810">
        <ele>977.0</ele>
        <time>2020-07-12T12:05:48Z</time>
      </trkpt>
      <trkpt lat="36.9952460" lon="-3.1055260">
        <ele>976.2</ele>
        <time>2020-07-12T12:05:49Z</time>
      </trkpt>
      <trkpt lat="36.9953320" lon="-3.1055310">
        <ele>975.4</ele>
        <time>2020-07-12T12:05:50Z</time>
      </trkpt>
      <trkpt lat="36.9954280" lon="-3.1054860">
        <ele>974.6</ele>
        <time>2020-07-12T12:05:51Z</time>
      </trkpt>
      <trkpt lat="36.9955010" lon="-3.1054100">
        <ele>973.8</ele>
        <time>2020-07-12T12:05:52Z</time>
      </trkpt>
      <trkpt lat="36.9955590" lon="-3.1053050">
        <ele>973.0</ele>
        <time>2020-07-12T12:05:53Z</time>
      </trkpt>
      <trkpt lat="36.9955790" lon="-3.1051790">
        <ele>972.2</ele>
        <time>2020-07-12T12:05:54Z</time>
      </trkpt>
      <trkpt lat="36.9955640" lon="-3.1050670">
        <ele>971.6</ele>
        <time>2020-07-12T12:05:55Z</time>
      </trkpt>
      <trkpt lat="36.9955360" lon="-3.1049580">
        <ele>970.8</ele>
        <time>2020-07-12T12:05:56Z</time>
      </trkpt>
      <trkpt lat="36.9954990" lon="-3.1048450">
        <ele>970.2</ele>
        <time>2020-07-12T12:05:57Z</time>
      </trkpt>
      <trkpt lat="36.9954030" lon="-3.1046460">
        <ele>969.6</ele>
        <time>2020-07-12T12:05:59Z</time>
      </trkpt>
      <trkpt lat="36.9953470" lon="-3.1045620">
        <ele>969.6</ele>
        <time>2020-07-12T12:06:00Z</time>
      </trkpt>
      <trkpt lat="36.9952770" lon="-3.1044710">
        <ele>969.8</ele>
        <time>2020-07-12T12:06:01Z</time>
      </trkpt>
      <trkpt lat="36.9952100" lon="-3.1043850">
        <ele>969.8</ele>
        <time>2020-07-12T12:06:02Z</time>
      </trkpt>
      <trkpt lat="36.9950770" lon="-3.1042130">
        <ele>969.8</ele>
        <time>2020-07-12T12:06:04Z</time>
      </trkpt>
      <trkpt lat="36.9949410" lon="-3.1040460">
        <ele>969.8</ele>
        <time>2020-07-12T12:06:06Z</time>
      </trkpt>
      <trkpt lat="36.9945780" lon="-3.1036620">
        <ele>969.2</ele>
        <time>2020-07-12T12:06:11Z</time>
      </trkpt>
      <trkpt lat="36.9944900" lon="-3.1035980">
        <ele>969.0</ele>
        <time>2020-07-12T12:06:12Z</time>
      </trkpt>
      <trkpt lat="36.9943120" lon="-3.1034730">
        <ele>968.2</ele>
        <time>2020-07-12T12:06:14Z</time>
      </trkpt>
      <trkpt lat="36.9942510" lon="-3.1033830">
        <ele>967.6</ele>
        <time>2020-07-12T12:06:15Z</time>
      </trkpt>
      <trkpt lat="36.9941980" lon="-3.1031180">
        <ele>966.4</ele>
        <time>2020-07-12T12:06:17Z</time>
      </trkpt>
      <trkpt lat="36.9941880" lon="-3.1029790">
        <ele>965.4</ele>
        <time>2020-07-12T12:06:18Z</time>
      </trkpt>
      <trkpt lat="36.9941720" lon="-3.1028360">
        <ele>964.6</ele>
        <time>2020-07-12T12:06:19Z</time>
      </trkpt>
      <trkpt lat="36.9941430" lon="-3.1027070">
        <ele>963.8</ele>
        <time>2020-07-12T12:06:20Z</time>
      </trkpt>
      <trkpt lat="36.9940960" lon="-3.1025550">
        <ele>963.0</ele>
        <time>2020-07-12T12:06:21Z</time>
      </trkpt>
      <trkpt lat="36.9940480" lon="-3.1024270">
        <ele>962.0</ele>
        <time>2020-07-12T12:06:22Z</time>
      </trkpt>
      <trkpt lat="36.9939880" lon="-3.1022820">
        <ele>961.2</ele>
        <time>2020-07-12T12:06:23Z</time>
      </trkpt>
      <trkpt lat="36.9939240" lon="-3.1021520">
        <ele>960.6</ele>
        <time>2020-07-12T12:06:24Z</time>
      </trkpt>
      <trkpt lat="36.9938540" lon="-3.1020350">
        <ele>959.6</ele>
        <time>2020-07-12T12:06:25Z</time>
      </trkpt>
      <trkpt lat="36.9937680" lon="-3.1019050">
        <ele>958.8</ele>
        <time>2020-07-12T12:06:26Z</time>
      </trkpt>
      <trkpt lat="36.9936220" lon="-3.1016790">
        <ele>957.8</ele>
        <time>2020-07-12T12:06:28Z</time>
      </trkpt>
      <trkpt lat="36.9935280" lon="-3.1014770">
        <ele>956.4</ele>
        <time>2020-07-12T12:06:30Z</time>
      </trkpt>
      <trkpt lat="36.9935210" lon="-3.1013600">
        <ele>955.4</ele>
        <time>2020-07-12T12:06:31Z</time>
      </trkpt>
      <trkpt lat="36.9935530" lon="-3.1012570">
        <ele>954.8</ele>
        <time>2020-07-12T12:06:32Z</time>
      </trkpt>
      <trkpt lat="36.9936150" lon="-3.1011700">
        <ele>953.8</ele>
        <time>2020-07-12T12:06:33Z</time>
      </trkpt>
      <trkpt lat="36.9936880" lon="-3.1011000">
        <ele>952.8</ele>
        <time>2020-07-12T12:06:34Z</time>
      </trkpt>
      <trkpt lat="36.9937560" lon="-3.1010150">
        <ele>952.2</ele>
        <time>2020-07-12T12:06:35Z</time>
      </trkpt>
      <trkpt lat="36.9938050" lon="-3.1008990">
        <ele>951.6</ele>
        <time>2020-07-12T12:06:36Z</time>
      </trkpt>
      <trkpt lat="36.9938180" lon="-3.1007940">
        <ele>951.0</ele>
        <time>2020-07-12T12:06:37Z</time>
      </trkpt>
      <trkpt lat="36.9938270" lon="-3.1006330">
        <ele>950.6</ele>
        <time>2020-07-12T12:06:39Z</time>
      </trkpt>
      <trkpt lat="36.9937220" lon="-3.1006190">
        <ele>949.8</ele>
        <time>2020-07-12T12:06:40Z</time>
      </trkpt>
      <trkpt lat="36.9935480" lon="-3.1005330">
        <ele>948.4</ele>
        <time>2020-07-12T12:06:42Z</time>
      </trkpt>
      <trkpt lat="36.9934790" lon="-3.1004600">
        <ele>947.8</ele>
        <time>2020-07-12T12:06:43Z</time>
      </trkpt>
      <trkpt lat="36.9934400" lon="-3.1003480">
        <ele>947.4</ele>
        <time>2020-07-12T12:06:44Z</time>
      </trkpt>
      <trkpt lat="36.9934440" lon="-3.1002230">
        <ele>946.6</ele>
        <time>2020-07-12T12:06:45Z</time>
      </trkpt>
      <trkpt lat="36.9934750" lon="-3.1001090">
        <ele>946.0</ele>
        <time>2020-07-12T12:06:46Z</time>
      </trkpt>
      <trkpt lat="36.9935110" lon="-3.0999830">
        <ele>945.4</ele>
        <time>2020-07-12T12:06:47Z</time>
      </trkpt>
      <trkpt lat="36.9935510" lon="-3.0998450">
        <ele>944.8</ele>
        <time>2020-07-12T12:06:48Z</time>
      </trkpt>
      <trkpt lat="36.9936140" lon="-3.0995860">
        <ele>943.4</ele>
        <time>2020-07-12T12:06:50Z</time>
      </trkpt>
      <trkpt lat="36.9936310" lon="-3.0994510">
        <ele>943.0</ele>
        <time>2020-07-12T12:06:51Z</time>
      </trkpt>
      <trkpt lat="36.9936330" lon="-3.0993000">
        <ele>942.6</ele>
        <time>2020-07-12T12:06:52Z</time>
      </trkpt>
      <trkpt lat="36.9936140" lon="-3.0991780">
        <ele>942.2</ele>
        <time>2020-07-12T12:06:53Z</time>
      </trkpt>
      <trkpt lat="36.9935630" lon="-3.0989170">
        <ele>941.8</ele>
        <time>2020-07-12T12:06:55Z</time>
      </trkpt>
      <trkpt lat="36.9935520" lon="-3.0986530">
        <ele>941.4</ele>
        <time>2020-07-12T12:06:57Z</time>
      </trkpt>
      <trkpt lat="36.9935930" lon="-3.0985260">
        <ele>941.2</ele>
        <time>2020-07-12T12:06:58Z</time>
      </trkpt>
      <trkpt lat="36.9937120" lon="-3.0983020">
        <ele>940.2</ele>
        <time>2020-07-12T12:07:00Z</time>
      </trkpt>
      <trkpt lat="36.9937820" lon="-3.0981910">
        <ele>939.6</ele>
        <time>2020-07-12T12:07:01Z</time>
      </trkpt>
      <trkpt lat="36.9938460" lon="-3.0980840">
        <ele>938.8</ele>
        <time>2020-07-12T12:07:02Z</time>
      </trkpt>
      <trkpt lat="36.9938910" lon="-3.0979840">
        <ele>938.2</ele>
        <time>2020-07-12T12:07:03Z</time>
      </trkpt>
      <trkpt lat="36.9939130" lon="-3.0978590">
        <ele>937.6</ele>
        <time>2020-07-12T12:07:04Z</time>
      </trkpt>
      <trkpt lat="36.9938450" lon="-3.0976330">
        <ele>936.2</ele>
        <time>2020-07-12T12:07:06Z</time>
      </trkpt>
      <trkpt lat="36.9937490" lon="-3.0973790">
        <ele>935.0</ele>
        <time>2020-07-12T12:07:08Z</time>
      </trkpt>
      <trkpt lat="36.9937460" lon="-3.0972520">
        <ele>934.2</ele>
        <time>2020-07-12T12:07:09Z</time>
      </trkpt>
      <trkpt lat="36.9937860" lon="-3.0971400">
        <ele>933.4</ele>
        <time>2020-07-12T12:07:10Z</time>
      </trkpt>
      <trkpt lat="36.9938520" lon="-3.0970670">
        <ele>933.0</ele>
        <time>2020-07-12T12:07:11Z</time>
      </trkpt>
      <trkpt lat="36.9939490" lon="-3.0969840">
        <ele>932.4</ele>
        <time>2020-07-12T12:07:12Z</time>
      </trkpt>
      <trkpt lat="36.9940650" lon="-3.0967510">
        <ele>930.8</ele>
        <time>2020-07-12T12:07:14Z</time>
      </trkpt>
      <trkpt lat="36.9940550" lon="-3.0964970">
        <ele>929.2</ele>
        <time>2020-07-12T12:07:16Z</time>
      </trkpt>
      <trkpt lat="36.9939750" lon="-3.0962180">
        <ele>927.6</ele>
        <time>2020-07-12T12:07:18Z</time>
      </trkpt>
      <trkpt lat="36.9939520" lon="-3.0960740">
        <ele>926.4</ele>
        <time>2020-07-12T12:07:19Z</time>
      </trkpt>
      <trkpt lat="36.9939590" lon="-3.0959250">
        <ele>925.4</ele>
        <time>2020-07-12T12:07:20Z</time>
      </trkpt>
      <trkpt lat="36.9939850" lon="-3.0957800">
        <ele>924.6</ele>
        <time>2020-07-12T12:07:21Z</time>
      </trkpt>
      <trkpt lat="36.9940210" lon="-3.0956190">
        <ele>923.8</ele>
        <time>2020-07-12T12:07:22Z</time>
      </trkpt>
      <trkpt lat="36.9941300" lon="-3.0953360">
        <ele>922.6</ele>
        <time>2020-07-12T12:07:24Z</time>
      </trkpt>
      <trkpt lat="36.9942890" lon="-3.0951140">
        <ele>921.2</ele>
        <time>2020-07-12T12:07:26Z</time>
      </trkpt>
      <trkpt lat="36.9943870" lon="-3.0950000">
        <ele>920.4</ele>
        <time>2020-07-12T12:07:27Z</time>
      </trkpt>
      <trkpt lat="36.9944840" lon="-3.0948950">
        <ele>919.6</ele>
        <time>2020-07-12T12:07:28Z</time>
      </trkpt>
      <trkpt lat="36.9946860" lon="-3.0946850">
        <ele>918.2</ele>
        <time>2020-07-12T12:07:30Z</time>
      </trkpt>
      <trkpt lat="36.9949050" lon="-3.0944870">
        <ele>916.8</ele>
        <time>2020-07-12T12:07:32Z</time>
      </trkpt>
      <trkpt lat="36.9950790" lon="-3.0943090">
        <ele>915.0</ele>
        <time>2020-07-12T12:07:34Z</time>
      </trkpt>
      <trkpt lat="36.9951440" lon="-3.0942320">
        <ele>914.2</ele>
        <time>2020-07-12T12:07:35Z</time>
      </trkpt>
      <trkpt lat="36.9952090" lon="-3.0941490">
        <ele>913.4</ele>
        <time>2020-07-12T12:07:36Z</time>
      </trkpt>
      <trkpt lat="36.9952690" lon="-3.0940590">
        <ele>912.4</ele>
        <time>2020-07-12T12:07:37Z</time>
      </trkpt>
      <trkpt lat="36.9952990" lon="-3.0939620">
        <ele>911.8</ele>
        <time>2020-07-12T12:07:38Z</time>
      </trkpt>
      <trkpt lat="36.9952910" lon="-3.0938560">
        <ele>911.2</ele>
        <time>2020-07-12T12:07:39Z</time>
      </trkpt>
      <trkpt lat="36.9952550" lon="-3.0937620">
        <ele>910.2</ele>
        <time>2020-07-12T12:07:40Z</time>
      </trkpt>
      <trkpt lat="36.9952220" lon="-3.0936700">
        <ele>909.6</ele>
        <time>2020-07-12T12:07:41Z</time>
      </trkpt>
      <trkpt lat="36.9952040" lon="-3.0935390">
        <ele>908.8</ele>
        <time>2020-07-12T12:07:42Z</time>
      </trkpt>
      <trkpt lat="36.9952030" lon="-3.0934180">
        <ele>908.2</ele>
        <time>2020-07-12T12:07:43Z</time>
      </trkpt>
      <trkpt lat="36.9952090" lon="-3.0932940">
        <ele>907.8</ele>
        <time>2020-07-12T12:07:44Z</time>
      </trkpt>
      <trkpt lat="36.9952200" lon="-3.0931710">
        <ele>907.4</ele>
        <time>2020-07-12T12:07:45Z</time>
      </trkpt>
      <trkpt lat="36.9952440" lon="-3.0929280">
        <ele>906.8</ele>
        <time>2020-07-12T12:07:47Z</time>
      </trkpt>
      <trkpt lat="36.9952630" lon="-3.0927900">
        <ele>906.4</ele>
        <time>2020-07-12T12:07:48Z</time>
      </trkpt>
      <trkpt lat="36.9953050" lon="-3.0925320">
        <ele>905.6</ele>
        <time>2020-07-12T12:07:50Z</time>
      </trkpt>
      <trkpt lat="36.9953270" lon="-3.0924040">
        <ele>904.8</ele>
        <time>2020-07-12T12:07:51Z</time>
      </trkpt>
      <trkpt lat="36.9953780" lon="-3.0921480">
        <ele>903.8</ele>
        <time>2020-07-12T12:07:53Z</time>
      </trkpt>
      <trkpt lat="36.9954320" lon="-3.0918990">
        <ele>902.6</ele>
        <time>2020-07-12T12:07:55Z</time>
      </trkpt>
      <trkpt lat="36.9954830" lon="-3.0916540">
        <ele>901.8</ele>
        <time>2020-07-12T12:07:57Z</time>
      </trkpt>
      <trkpt lat="36.9955240" lon="-3.0915360">
        <ele>901.2</ele>
        <time>2020-07-12T12:07:58Z</time>
      </trkpt>
      <trkpt lat="36.9956530" lon="-3.0913540">
        <ele>900.8</ele>
        <time>2020-07-12T12:08:00Z</time>
      </trkpt>
      <trkpt lat="36.9958040" lon="-3.0910970">
        <ele>900.0</ele>
        <time>2020-07-12T12:08:02Z</time>
      </trkpt>
      <trkpt lat="36.9958510" lon="-3.0909550">
        <ele>899.4</ele>
        <time>2020-07-12T12:08:03Z</time>
      </trkpt>
      <trkpt lat="36.9958820" lon="-3.0908260">
        <ele>898.4</ele>
        <time>2020-07-12T12:08:04Z</time>
      </trkpt>
      <trkpt lat="36.9959330" lon="-3.0905930">
        <ele>896.4</ele>
        <time>2020-07-12T12:08:06Z</time>
      </trkpt>
      <trkpt lat="36.9959230" lon="-3.0904520">
        <ele>895.2</ele>
        <time>2020-07-12T12:08:07Z</time>
      </trkpt>
      <trkpt lat="36.9958980" lon="-3.0903230">
        <ele>894.0</ele>
        <time>2020-07-12T12:08:08Z</time>
      </trkpt>
      <trkpt lat="36.9958480" lon="-3.0900630">
        <ele>892.4</ele>
        <time>2020-07-12T12:08:10Z</time>
      </trkpt>
      <trkpt lat="36.9958390" lon="-3.0899430">
        <ele>892.0</ele>
        <time>2020-07-12T12:08:11Z</time>
      </trkpt>
      <trkpt lat="36.9958360" lon="-3.0897890">
        <ele>891.6</ele>
        <time>2020-07-12T12:08:12Z</time>
      </trkpt>
      <trkpt lat="36.9958380" lon="-3.0896490">
        <ele>891.2</ele>
        <time>2020-07-12T12:08:13Z</time>
      </trkpt>
      <trkpt lat="36.9958510" lon="-3.0895130">
        <ele>890.6</ele>
        <time>2020-07-12T12:08:14Z</time>
      </trkpt>
      <trkpt lat="36.9958820" lon="-3.0893770">
        <ele>890.2</ele>
        <time>2020-07-12T12:08:15Z</time>
      </trkpt>
      <trkpt lat="36.9959230" lon="-3.0892560">
        <ele>889.8</ele>
        <time>2020-07-12T12:08:16Z</time>
      </trkpt>
      <trkpt lat="36.9960190" lon="-3.0889880">
        <ele>888.8</ele>
        <time>2020-07-12T12:08:18Z</time>
      </trkpt>
      <trkpt lat="36.9961670" lon="-3.0886440">
        <ele>887.6</ele>
        <time>2020-07-12T12:08:21Z</time>
      </trkpt>
      <trkpt lat="36.9962440" lon="-3.0885370">
        <ele>886.8</ele>
        <time>2020-07-12T12:08:22Z</time>
      </trkpt>
      <trkpt lat="36.9963240" lon="-3.0884540">
        <ele>886.0</ele>
        <time>2020-07-12T12:08:23Z</time>
      </trkpt>
      <trkpt lat="36.9964210" lon="-3.0883620">
        <ele>885.0</ele>
        <time>2020-07-12T12:08:24Z</time>
      </trkpt>
      <trkpt lat="36.9965070" lon="-3.0882930">
        <ele>884.0</ele>
        <time>2020-07-12T12:08:25Z</time>
      </trkpt>
      <trkpt lat="36.9967160" lon="-3.0882130">
        <ele>882.4</ele>
        <time>2020-07-12T12:08:27Z</time>
      </trkpt>
      <trkpt lat="36.9969340" lon="-3.0882250">
        <ele>880.8</ele>
        <time>2020-07-12T12:08:29Z</time>
      </trkpt>
      <trkpt lat="36.9970570" lon="-3.0882530">
        <ele>880.0</ele>
        <time>2020-07-12T12:08:30Z</time>
      </trkpt>
      <trkpt lat="36.9971630" lon="-3.0882760">
        <ele>879.0</ele>
        <time>2020-07-12T12:08:31Z</time>
      </trkpt>
      <trkpt lat="36.9973880" lon="-3.0882740">
        <ele>877.4</ele>
        <time>2020-07-12T12:08:33Z</time>
      </trkpt>
      <trkpt lat="36.9974840" lon="-3.0882270">
        <ele>877.0</ele>
        <time>2020-07-12T12:08:34Z</time>
      </trkpt>
      <trkpt lat="36.9976160" lon="-3.0880530">
        <ele>876.0</ele>
        <time>2020-07-12T12:08:36Z</time>
      </trkpt>
      <trkpt lat="36.9977200" lon="-3.0878570">
        <ele>875.4</ele>
        <time>2020-07-12T12:08:38Z</time>
      </trkpt>
      <trkpt lat="36.9977890" lon="-3.0876500">
        <ele>874.8</ele>
        <time>2020-07-12T12:08:40Z</time>
      </trkpt>
      <trkpt lat="36.9977060" lon="-3.0874690">
        <ele>874.8</ele>
        <time>2020-07-12T12:08:42Z</time>
      </trkpt>
      <trkpt lat="36.9976020" lon="-3.0873340">
        <ele>874.8</ele>
        <time>2020-07-12T12:08:44Z</time>
      </trkpt>
      <trkpt lat="36.9975660" lon="-3.0872580">
        <ele>875.0</ele>
        <time>2020-07-12T12:08:45Z</time>
      </trkpt>
      <trkpt lat="36.9975380" lon="-3.0871790">
        <ele>875.4</ele>
        <time>2020-07-12T12:08:46Z</time>
      </trkpt>
      <trkpt lat="36.9975100" lon="-3.0870980">
        <ele>875.4</ele>
        <time>2020-07-12T12:08:47Z</time>
      </trkpt>
      <trkpt lat="36.9974550" lon="-3.0869440">
        <ele>876.0</ele>
        <time>2020-07-12T12:08:49Z</time>
      </trkpt>
      <trkpt lat="36.9973690" lon="-3.0867550">
        <ele>876.8</ele>
        <time>2020-07-12T12:08:52Z</time>
      </trkpt>
      <trkpt lat="36.9973290" lon="-3.0867150">
        <ele>877.0</ele>
        <time>2020-07-12T12:08:53Z</time>
      </trkpt>
      <trkpt lat="36.9972810" lon="-3.0866860">
        <ele>877.4</ele>
        <time>2020-07-12T12:08:54Z</time>
      </trkpt>
      <trkpt lat="36.9971910" lon="-3.0866510">
        <ele>878.0</ele>
        <time>2020-07-12T12:08:56Z</time>
      </trkpt>
      <trkpt lat="36.9971440" lon="-3.0866330">
        <ele>878.2</ele>
        <time>2020-07-12T12:08:57Z</time>
      </trkpt>
      <trkpt lat="36.9970620" lon="-3.0866000">
        <ele>879.0</ele>
        <time>2020-07-12T12:08:59Z</time>
      </trkpt>
      <trkpt lat="36.9970220" lon="-3.0865800">
        <ele>879.4</ele>
        <time>2020-07-12T12:09:00Z</time>
      </trkpt>
      <trkpt lat="36.9969430" lon="-3.0865430">
        <ele>880.2</ele>
        <time>2020-07-12T12:09:02Z</time>
      </trkpt>
      <trkpt lat="36.9969050" lon="-3.0865220">
        <ele>880.6</ele>
        <time>2020-07-12T12:09:03Z</time>
      </trkpt>
      <trkpt lat="36.9968680" lon="-3.0864950">
        <ele>880.8</ele>
        <time>2020-07-12T12:09:04Z</time>
      </trkpt>
      <trkpt lat="36.9968000" lon="-3.0864430">
        <ele>881.4</ele>
        <time>2020-07-12T12:09:06Z</time>
      </trkpt>
      <trkpt lat="36.9967260" lon="-3.0863880">
        <ele>881.6</ele>
        <time>2020-07-12T12:09:08Z</time>
      </trkpt>
      <trkpt lat="36.9966590" lon="-3.0863170">
        <ele>882.0</ele>
        <time>2020-07-12T12:09:10Z</time>
      </trkpt>
      <trkpt lat="36.9965980" lon="-3.0862220">
        <ele>882.6</ele>
        <time>2020-07-12T12:09:12Z</time>
      </trkpt>
      <trkpt lat="36.9965750" lon="-3.0861700">
        <ele>882.6</ele>
        <time>2020-07-12T12:09:13Z</time>
      </trkpt>
      <trkpt lat="36.9965380" lon="-3.0860590">
        <ele>883.0</ele>
        <time>2020-07-12T12:09:15Z</time>
      </trkpt>
      <trkpt lat="36.9965060" lon="-3.0859510">
        <ele>883.2</ele>
        <time>2020-07-12T12:09:17Z</time>
      </trkpt>
      <trkpt lat="36.9964590" lon="-3.0857250">
        <ele>883.6</ele>
        <time>2020-07-12T12:09:21Z</time>
      </trkpt>
      <trkpt lat="36.9964360" lon="-3.0855280">
        <ele>884.0</ele>
        <time>2020-07-12T12:09:24Z</time>
      </trkpt>
      <trkpt lat="36.9963890" lon="-3.0851470">
        <ele>883.8</ele>
        <time>2020-07-12T12:09:29Z</time>
      </trkpt>
      <trkpt lat="36.9963840" lon="-3.0850630">
        <ele>883.6</ele>
        <time>2020-07-12T12:09:30Z</time>
      </trkpt>
      <trkpt lat="36.9963900" lon="-3.0848890">
        <ele>883.4</ele>
        <time>2020-07-12T12:09:32Z</time>
      </trkpt>
      <trkpt lat="36.9964150" lon="-3.0846980">
        <ele>883.0</ele>
        <time>2020-07-12T12:09:34Z</time>
      </trkpt>
      <trkpt lat="36.9964400" lon="-3.0845020">
        <ele>882.6</ele>
        <time>2020-07-12T12:09:36Z</time>
      </trkpt>
      <trkpt lat="36.9964610" lon="-3.0841290">
        <ele>881.4</ele>
        <time>2020-07-12T12:09:39Z</time>
      </trkpt>
      <trkpt lat="36.9964670" lon="-3.0838840">
        <ele>880.2</ele>
        <time>2020-07-12T12:09:41Z</time>
      </trkpt>
      <trkpt lat="36.9964730" lon="-3.0835900">
        <ele>878.8</ele>
        <time>2020-07-12T12:09:43Z</time>
      </trkpt>
      <trkpt lat="36.9964740" lon="-3.0833130">
        <ele>877.0</ele>
        <time>2020-07-12T12:09:45Z</time>
      </trkpt>
      <trkpt lat="36.9964750" lon="-3.0830660">
        <ele>876.0</ele>
        <time>2020-07-12T12:09:47Z</time>
      </trkpt>
      <trkpt lat="36.9964750" lon="-3.0826730">
        <ele>874.8</ele>
        <time>2020-07-12T12:09:50Z</time>
      </trkpt>
      <trkpt lat="36.9964800" lon="-3.0824120">
        <ele>873.0</ele>
        <time>2020-07-12T12:09:52Z</time>
      </trkpt>
      <trkpt lat="36.9964870" lon="-3.0821590">
        <ele>871.4</ele>
        <time>2020-07-12T12:09:54Z</time>
      </trkpt>
      <trkpt lat="36.9964900" lon="-3.0820440">
        <ele>870.4</ele>
        <time>2020-07-12T12:09:55Z</time>
      </trkpt>
      <trkpt lat="36.9964840" lon="-3.0819310">
        <ele>869.8</ele>
        <time>2020-07-12T12:09:56Z</time>
      </trkpt>
      <trkpt lat="36.9964650" lon="-3.0818130">
        <ele>869.4</ele>
        <time>2020-07-12T12:09:57Z</time>
      </trkpt>
      <trkpt lat="36.9963470" lon="-3.0812080">
        <ele>868.4</ele>
        <time>2020-07-12T12:10:02Z</time>
      </trkpt>
      <trkpt lat="36.9962920" lon="-3.0809560">
        <ele>867.2</ele>
        <time>2020-07-12T12:10:04Z</time>
      </trkpt>
      <trkpt lat="36.9961480" lon="-3.0808110">
        <ele>866.2</ele>
        <time>2020-07-12T12:10:06Z</time>
      </trkpt>
      <trkpt lat="36.9960420" lon="-3.0807670">
        <ele>865.4</ele>
        <time>2020-07-12T12:10:07Z</time>
      </trkpt>
      <trkpt lat="36.9958630" lon="-3.0806270">
        <ele>864.0</ele>
        <time>2020-07-12T12:10:09Z</time>
      </trkpt>
      <trkpt lat="36.9957340" lon="-3.0804450">
        <ele>862.6</ele>
        <time>2020-07-12T12:10:11Z</time>
      </trkpt>
      <trkpt lat="36.9956500" lon="-3.0803190">
        <ele>861.8</ele>
        <time>2020-07-12T12:10:12Z</time>
      </trkpt>
      <trkpt lat="36.9955820" lon="-3.0802140">
        <ele>861.0</ele>
        <time>2020-07-12T12:10:13Z</time>
      </trkpt>
      <trkpt lat="36.9954670" lon="-3.0800280">
        <ele>859.8</ele>
        <time>2020-07-12T12:10:15Z</time>
      </trkpt>
      <trkpt lat="36.9953570" lon="-3.0798450">
        <ele>858.6</ele>
        <time>2020-07-12T12:10:17Z</time>
      </trkpt>
      <trkpt lat="36.9951850" lon="-3.0795510">
        <ele>857.2</ele>
        <time>2020-07-12T12:10:20Z</time>
      </trkpt>
      <trkpt lat="36.9951380" lon="-3.0793040">
        <ele>856.6</ele>
        <time>2020-07-12T12:10:22Z</time>
      </trkpt>
      <trkpt lat="36.9951380" lon="-3.0790660">
        <ele>855.8</ele>
        <time>2020-07-12T12:10:24Z</time>
      </trkpt>
      <trkpt lat="36.9951540" lon="-3.0789590">
        <ele>855.4</ele>
        <time>2020-07-12T12:10:25Z</time>
      </trkpt>
      <trkpt lat="36.9952420" lon="-3.0787780">
        <ele>854.6</ele>
        <time>2020-07-12T12:10:27Z</time>
      </trkpt>
      <trkpt lat="36.9953240" lon="-3.0787240">
        <ele>854.2</ele>
        <time>2020-07-12T12:10:28Z</time>
      </trkpt>
      <trkpt lat="36.9955170" lon="-3.0786640">
        <ele>853.4</ele>
        <time>2020-07-12T12:10:30Z</time>
      </trkpt>
      <trkpt lat="36.9956200" lon="-3.0786500">
        <ele>853.0</ele>
        <time>2020-07-12T12:10:31Z</time>
      </trkpt>
      <trkpt lat="36.9958210" lon="-3.0786370">
        <ele>851.8</ele>
        <time>2020-07-12T12:10:33Z</time>
      </trkpt>
      <trkpt lat="36.9959090" lon="-3.0786110">
        <ele>850.8</ele>
        <time>2020-07-12T12:10:34Z</time>
      </trkpt>
      <trkpt lat="36.9959660" lon="-3.0785690">
        <ele>850.4</ele>
        <time>2020-07-12T12:10:35Z</time>
      </trkpt>
      <trkpt lat="36.9960650" lon="-3.0783600">
        <ele>848.8</ele>
        <time>2020-07-12T12:10:37Z</time>
      </trkpt>
      <trkpt lat="36.9960110" lon="-3.0781450">
        <ele>847.2</ele>
        <time>2020-07-12T12:10:39Z</time>
      </trkpt>
      <trkpt lat="36.9959000" lon="-3.0779730">
        <ele>845.8</ele>
        <time>2020-07-12T12:10:41Z</time>
      </trkpt>
      <trkpt lat="36.9958330" lon="-3.0778750">
        <ele>845.0</ele>
        <time>2020-07-12T12:10:42Z</time>
      </trkpt>
      <trkpt lat="36.9957680" lon="-3.0777800">
        <ele>844.2</ele>
        <time>2020-07-12T12:10:43Z</time>
      </trkpt>
      <trkpt lat="36.9956270" lon="-3.0776090">
        <ele>843.0</ele>
        <time>2020-07-12T12:10:45Z</time>
      </trkpt>
      <trkpt lat="36.9955490" lon="-3.0775400">
        <ele>842.2</ele>
        <time>2020-07-12T12:10:46Z</time>
      </trkpt>
      <trkpt lat="36.9954630" lon="-3.0774770">
        <ele>841.8</ele>
        <time>2020-07-12T12:10:47Z</time>
      </trkpt>
      <trkpt lat="36.9952670" lon="-3.0773690">
        <ele>840.6</ele>
        <time>2020-07-12T12:10:49Z</time>
      </trkpt>
      <trkpt lat="36.9950730" lon="-3.0773200">
        <ele>839.8</ele>
        <time>2020-07-12T12:10:51Z</time>
      </trkpt>
      <trkpt lat="36.9949720" lon="-3.0773060">
        <ele>839.2</ele>
        <time>2020-07-12T12:10:52Z</time>
      </trkpt>
      <trkpt lat="36.9948920" lon="-3.0772750">
        <ele>838.6</ele>
        <time>2020-07-12T12:10:53Z</time>
      </trkpt>
      <trkpt lat="36.9948300" lon="-3.0772000">
        <ele>838.2</ele>
        <time>2020-07-12T12:10:54Z</time>
      </trkpt>
      <trkpt lat="36.9948130" lon="-3.0771020">
        <ele>837.6</ele>
        <time>2020-07-12T12:10:55Z</time>
      </trkpt>
      <trkpt lat="36.9948420" lon="-3.0770180">
        <ele>837.2</ele>
        <time>2020-07-12T12:10:56Z</time>
      </trkpt>
      <trkpt lat="36.9949760" lon="-3.0769010">
        <ele>836.0</ele>
        <time>2020-07-12T12:10:58Z</time>
      </trkpt>
      <trkpt lat="36.9951110" lon="-3.0768390">
        <ele>834.8</ele>
        <time>2020-07-12T12:11:00Z</time>
      </trkpt>
      <trkpt lat="36.9952130" lon="-3.0767930">
        <ele>834.2</ele>
        <time>2020-07-12T12:11:01Z</time>
      </trkpt>
      <trkpt lat="36.9952980" lon="-3.0767380">
        <ele>833.6</ele>
        <time>2020-07-12T12:11:02Z</time>
      </trkpt>
      <trkpt lat="36.9953810" lon="-3.0765430">
        <ele>832.6</ele>
        <time>2020-07-12T12:11:04Z</time>
      </trkpt>
      <trkpt lat="36.9953000" lon="-3.0763780">
        <ele>831.8</ele>
        <time>2020-07-12T12:11:06Z</time>
      </trkpt>
      <trkpt lat="36.9952200" lon="-3.0763080">
        <ele>831.4</ele>
        <time>2020-07-12T12:11:07Z</time>
      </trkpt>
      <trkpt lat="36.9951410" lon="-3.0762450">
        <ele>830.8</ele>
        <time>2020-07-12T12:11:08Z</time>
      </trkpt>
      <trkpt lat="36.9950600" lon="-3.0761750">
        <ele>830.2</ele>
        <time>2020-07-12T12:11:09Z</time>
      </trkpt>
      <trkpt lat="36.9949340" lon="-3.0760200">
        <ele>829.0</ele>
        <time>2020-07-12T12:11:11Z</time>
      </trkpt>
      <trkpt lat="36.9949150" lon="-3.0758950">
        <ele>828.6</ele>
        <time>2020-07-12T12:11:12Z</time>
      </trkpt>
      <trkpt lat="36.9949910" lon="-3.0756510">
        <ele>827.6</ele>
        <time>2020-07-12T12:11:14Z</time>
      </trkpt>
      <trkpt lat="36.9950380" lon="-3.0755300">
        <ele>827.0</ele>
        <time>2020-07-12T12:11:15Z</time>
      </trkpt>
      <trkpt lat="36.9950580" lon="-3.0754250">
        <ele>826.4</ele>
        <time>2020-07-12T12:11:16Z</time>
      </trkpt>
      <trkpt lat="36.9950520" lon="-3.0753180">
        <ele>826.4</ele>
        <time>2020-07-12T12:11:17Z</time>
      </trkpt>
      <trkpt lat="36.9949300" lon="-3.0751570">
        <ele>824.8</ele>
        <time>2020-07-12T12:11:19Z</time>
      </trkpt>
      <trkpt lat="36.9948500" lon="-3.0751090">
        <ele>823.6</ele>
        <time>2020-07-12T12:11:20Z</time>
      </trkpt>
      <trkpt lat="36.9947650" lon="-3.0750530">
        <ele>822.4</ele>
        <time>2020-07-12T12:11:21Z</time>
      </trkpt>
      <trkpt lat="36.9946740" lon="-3.0749940">
        <ele>821.0</ele>
        <time>2020-07-12T12:11:22Z</time>
      </trkpt>
      <trkpt lat="36.9945770" lon="-3.0749290">
        <ele>819.6</ele>
        <time>2020-07-12T12:11:23Z</time>
      </trkpt>
      <trkpt lat="36.9944830" lon="-3.0748470">
        <ele>818.6</ele>
        <time>2020-07-12T12:11:24Z</time>
      </trkpt>
      <trkpt lat="36.9944210" lon="-3.0747380">
        <ele>817.6</ele>
        <time>2020-07-12T12:11:25Z</time>
      </trkpt>
      <trkpt lat="36.9943770" lon="-3.0744570">
        <ele>815.8</ele>
        <time>2020-07-12T12:11:27Z</time>
      </trkpt>
      <trkpt lat="36.9943050" lon="-3.0741850">
        <ele>814.6</ele>
        <time>2020-07-12T12:11:29Z</time>
      </trkpt>
      <trkpt lat="36.9942280" lon="-3.0740640">
        <ele>814.0</ele>
        <time>2020-07-12T12:11:30Z</time>
      </trkpt>
      <trkpt lat="36.9941460" lon="-3.0739750">
        <ele>813.6</ele>
        <time>2020-07-12T12:11:31Z</time>
      </trkpt>
      <trkpt lat="36.9940670" lon="-3.0738890">
        <ele>812.8</ele>
        <time>2020-07-12T12:11:32Z</time>
      </trkpt>
      <trkpt lat="36.9940060" lon="-3.0738210">
        <ele>812.0</ele>
        <time>2020-07-12T12:11:33Z</time>
      </trkpt>
      <trkpt lat="36.9939180" lon="-3.0737060">
        <ele>811.0</ele>
        <time>2020-07-12T12:11:35Z</time>
      </trkpt>
      <trkpt lat="36.9938910" lon="-3.0736370">
        <ele>810.4</ele>
        <time>2020-07-12T12:11:36Z</time>
      </trkpt>
      <trkpt lat="36.9938280" lon="-3.0734710">
        <ele>809.6</ele>
        <time>2020-07-12T12:11:38Z</time>
      </trkpt>
      <trkpt lat="36.9937160" lon="-3.0733300">
        <ele>808.8</ele>
        <time>2020-07-12T12:11:40Z</time>
      </trkpt>
      <trkpt lat="36.9936550" lon="-3.0732910">
        <ele>808.2</ele>
        <time>2020-07-12T12:11:41Z</time>
      </trkpt>
      <trkpt lat="36.9934850" lon="-3.0731850">
        <ele>807.2</ele>
        <time>2020-07-12T12:11:43Z</time>
      </trkpt>
      <trkpt lat="36.9933820" lon="-3.0730170">
        <ele>805.8</ele>
        <time>2020-07-12T12:11:45Z</time>
      </trkpt>
      <trkpt lat="36.9933570" lon="-3.0729180">
        <ele>805.2</ele>
        <time>2020-07-12T12:11:46Z</time>
      </trkpt>
      <trkpt lat="36.9933270" lon="-3.0727040">
        <ele>804.4</ele>
        <time>2020-07-12T12:11:48Z</time>
      </trkpt>
      <trkpt lat="36.9933800" lon="-3.0725070">
        <ele>804.2</ele>
        <time>2020-07-12T12:11:50Z</time>
      </trkpt>
      <trkpt lat="36.9935230" lon="-3.0723550">
        <ele>804.0</ele>
        <time>2020-07-12T12:11:52Z</time>
      </trkpt>
      <trkpt lat="36.9938040" lon="-3.0722430">
        <ele>803.0</ele>
        <time>2020-07-12T12:11:55Z</time>
      </trkpt>
      <trkpt lat="36.9939990" lon="-3.0721520">
        <ele>801.8</ele>
        <time>2020-07-12T12:11:57Z</time>
      </trkpt>
      <trkpt lat="36.9941920" lon="-3.0720320">
        <ele>801.0</ele>
        <time>2020-07-12T12:11:59Z</time>
      </trkpt>
      <trkpt lat="36.9942850" lon="-3.0719670">
        <ele>800.8</ele>
        <time>2020-07-12T12:12:00Z</time>
      </trkpt>
      <trkpt lat="36.9944120" lon="-3.0718090">
        <ele>800.0</ele>
        <time>2020-07-12T12:12:02Z</time>
      </trkpt>
      <trkpt lat="36.9944100" lon="-3.0717000">
        <ele>799.2</ele>
        <time>2020-07-12T12:12:03Z</time>
      </trkpt>
      <trkpt lat="36.9943730" lon="-3.0716020">
        <ele>798.2</ele>
        <time>2020-07-12T12:12:04Z</time>
      </trkpt>
      <trkpt lat="36.9943550" lon="-3.0715510">
        <ele>797.6</ele>
        <time>2020-07-12T12:12:05Z</time>
      </trkpt>
      <trkpt lat="36.9943080" lon="-3.0714180">
        <ele>796.6</ele>
        <time>2020-07-12T12:12:06Z</time>
      </trkpt>
      <trkpt lat="36.9942490" lon="-3.0713210">
        <ele>795.6</ele>
        <time>2020-07-12T12:12:07Z</time>
      </trkpt>
      <trkpt lat="36.9941640" lon="-3.0712620">
        <ele>795.0</ele>
        <time>2020-07-12T12:12:08Z</time>
      </trkpt>
      <trkpt lat="36.9940690" lon="-3.0712290">
        <ele>794.4</ele>
        <time>2020-07-12T12:12:09Z</time>
      </trkpt>
      <trkpt lat="36.9938840" lon="-3.0711580">
        <ele>793.2</ele>
        <time>2020-07-12T12:12:11Z</time>
      </trkpt>
      <trkpt lat="36.9937850" lon="-3.0710990">
        <ele>792.4</ele>
        <time>2020-07-12T12:12:12Z</time>
      </trkpt>
      <trkpt lat="36.9937230" lon="-3.0710100">
        <ele>791.8</ele>
        <time>2020-07-12T12:12:13Z</time>
      </trkpt>
      <trkpt lat="36.9937080" lon="-3.0708940">
        <ele>791.2</ele>
        <time>2020-07-12T12:12:14Z</time>
      </trkpt>
      <trkpt lat="36.9937440" lon="-3.0707910">
        <ele>790.6</ele>
        <time>2020-07-12T12:12:15Z</time>
      </trkpt>
      <trkpt lat="36.9938140" lon="-3.0707300">
        <ele>790.2</ele>
        <time>2020-07-12T12:12:16Z</time>
      </trkpt>
      <trkpt lat="36.9940110" lon="-3.0707180">
        <ele>789.0</ele>
        <time>2020-07-12T12:12:18Z</time>
      </trkpt>
      <trkpt lat="36.9942010" lon="-3.0706380">
        <ele>788.0</ele>
        <time>2020-07-12T12:12:20Z</time>
      </trkpt>
      <trkpt lat="36.9942720" lon="-3.0705410">
        <ele>787.6</ele>
        <time>2020-07-12T12:12:21Z</time>
      </trkpt>
      <trkpt lat="36.9943430" lon="-3.0704230">
        <ele>786.8</ele>
        <time>2020-07-12T12:12:22Z</time>
      </trkpt>
      <trkpt lat="36.9944090" lon="-3.0703150">
        <ele>786.2</ele>
        <time>2020-07-12T12:12:23Z</time>
      </trkpt>
      <trkpt lat="36.9944870" lon="-3.0701940">
        <ele>785.6</ele>
        <time>2020-07-12T12:12:24Z</time>
      </trkpt>
      <trkpt lat="36.9946520" lon="-3.0699900">
        <ele>784.0</ele>
        <time>2020-07-12T12:12:26Z</time>
      </trkpt>
      <trkpt lat="36.9948370" lon="-3.0697950">
        <ele>782.0</ele>
        <time>2020-07-12T12:12:28Z</time>
      </trkpt>
      <trkpt lat="36.9949680" lon="-3.0696500">
        <ele>780.0</ele>
        <time>2020-07-12T12:12:30Z</time>
      </trkpt>
      <trkpt lat="36.9950200" lon="-3.0696030">
        <ele>778.8</ele>
        <time>2020-07-12T12:12:31Z</time>
      </trkpt>
      <trkpt lat="36.9950700" lon="-3.0695600">
        <ele>777.8</ele>
        <time>2020-07-12T12:12:32Z</time>
      </trkpt>
      <trkpt lat="36.9951130" lon="-3.0695380">
        <ele>776.8</ele>
        <time>2020-07-12T12:12:33Z</time>
      </trkpt>
      <trkpt lat="36.9951610" lon="-3.0695490">
        <ele>776.0</ele>
        <time>2020-07-12T12:12:34Z</time>
      </trkpt>
      <trkpt lat="36.9951980" lon="-3.0695750">
        <ele>775.4</ele>
        <time>2020-07-12T12:12:35Z</time>
      </trkpt>
      <trkpt lat="36.9952590" lon="-3.0696500">
        <ele>774.8</ele>
        <time>2020-07-12T12:12:37Z</time>
      </trkpt>
      <trkpt lat="36.9953240" lon="-3.0697160">
        <ele>774.6</ele>
        <time>2020-07-12T12:12:39Z</time>
      </trkpt>
      <trkpt lat="36.9953900" lon="-3.0697640">
        <ele>775.0</ele>
        <time>2020-07-12T12:12:41Z</time>
      </trkpt>
      <trkpt lat="36.9954340" lon="-3.0697910">
        <ele>775.2</ele>
        <time>2020-07-12T12:12:42Z</time>
      </trkpt>
      <trkpt lat="36.9954690" lon="-3.0698140">
        <ele>775.4</ele>
        <time>2020-07-12T12:12:43Z</time>
      </trkpt>
      <trkpt lat="36.9955340" lon="-3.0698490">
        <ele>776.0</ele>
        <time>2020-07-12T12:12:45Z</time>
      </trkpt>
      <trkpt lat="36.9956030" lon="-3.0698840">
        <ele>776.4</ele>
        <time>2020-07-12T12:12:47Z</time>
      </trkpt>
      <trkpt lat="36.9956610" lon="-3.0699140">
        <ele>777.0</ele>
        <time>2020-07-12T12:12:49Z</time>
      </trkpt>
      <trkpt lat="36.9957370" lon="-3.0699510">
        <ele>777.4</ele>
        <time>2020-07-12T12:12:51Z</time>
      </trkpt>
      <trkpt lat="36.9957930" lon="-3.0699810">
        <ele>778.0</ele>
        <time>2020-07-12T12:12:53Z</time>
      </trkpt>
      <trkpt lat="36.9958710" lon="-3.0700230">
        <ele>778.6</ele>
        <time>2020-07-12T12:12:55Z</time>
      </trkpt>
      <trkpt lat="36.9959320" lon="-3.0700550">
        <ele>779.2</ele>
        <time>2020-07-12T12:12:57Z</time>
      </trkpt>
      <trkpt lat="36.9959890" lon="-3.0700850">
        <ele>779.8</ele>
        <time>2020-07-12T12:12:59Z</time>
      </trkpt>
      <trkpt lat="36.9960470" lon="-3.0701230">
        <ele>780.4</ele>
        <time>2020-07-12T12:13:01Z</time>
      </trkpt>
      <trkpt lat="36.9960990" lon="-3.0701590">
        <ele>780.8</ele>
        <time>2020-07-12T12:13:03Z</time>
      </trkpt>
      <trkpt lat="36.9961190" lon="-3.0701690">
        <ele>781.0</ele>
        <time>2020-07-12T12:13:04Z</time>
      </trkpt>
      <trkpt lat="36.9961540" lon="-3.0701830">
        <ele>781.4</ele>
        <time>2020-07-12T12:13:06Z</time>
      </trkpt>
      <trkpt lat="36.9962280" lon="-3.0702100">
        <ele>781.8</ele>
        <time>2020-07-12T12:13:09Z</time>
      </trkpt>
      <trkpt lat="36.9962520" lon="-3.0702190">
        <ele>782.0</ele>
        <time>2020-07-12T12:13:10Z</time>
      </trkpt>
      <trkpt lat="36.9963680" lon="-3.0702360">
        <ele>783.0</ele>
        <time>2020-07-12T12:13:16Z</time>
      </trkpt>
      <trkpt lat="36.9963700" lon="-3.0702350">
        <ele>783.4</ele>
        <time>2020-07-12T12:13:18Z</time>
      </trkpt>
      <trkpt lat="36.9964360" lon="-3.0702300">
        <ele>783.6</ele>
        <time>2020-07-12T12:13:33Z</time>
      </trkpt>
      <trkpt lat="36.9964480" lon="-3.0702310">
        <ele>783.6</ele>
        <time>2020-07-12T12:13:34Z</time>
      </trkpt>
      <trkpt lat="36.9965350" lon="-3.0702080">
        <ele>784.0</ele>
        <time>2020-07-12T12:13:38Z</time>
      </trkpt>
      <trkpt lat="36.9965570" lon="-3.0701900">
        <ele>784.4</ele>
        <time>2020-07-12T12:13:39Z</time>
      </trkpt>
      <trkpt lat="36.9966360" lon="-3.0700780">
        <ele>785.2</ele>
        <time>2020-07-12T12:13:44Z</time>
      </trkpt>
      <trkpt lat="36.9966500" lon="-3.0700620">
        <ele>785.4</ele>
        <time>2020-07-12T12:13:45Z</time>
      </trkpt>
      <trkpt lat="36.9966730" lon="-3.0700540">
        <ele>785.6</ele>
        <time>2020-07-12T12:13:46Z</time>
      </trkpt>
      <trkpt lat="36.9967440" lon="-3.0700380">
        <ele>786.4</ele>
        <time>2020-07-12T12:13:49Z</time>
      </trkpt>
      <trkpt lat="36.9967410" lon="-3.0700220">
        <ele>786.8</ele>
        <time>2020-07-12T12:13:51Z</time>
      </trkpt>
      <trkpt lat="36.9967320" lon="-3.0700140">
        <ele>787.2</ele>
        <time>2020-07-12T12:13:52Z</time>
      </trkpt>
      <trkpt lat="36.9967250" lon="-3.0700020">
        <ele>787.6</ele>
        <time>2020-07-12T12:13:54Z</time>
      </trkpt>
      <trkpt lat="36.9967230" lon="-3.0700030">
        <ele>787.8</ele>
        <time>2020-07-12T12:13:56Z</time>
      </trkpt>
      <trkpt lat="36.9966980" lon="-3.0701000">
        <ele>788.4</ele>
        <time>2020-07-12T12:15:33Z</time>
      </trkpt>
      <trkpt lat="36.9966950" lon="-3.0701200">
        <ele>788.2</ele>
        <time>2020-07-12T12:15:34Z</time>
      </trkpt>
      <trkpt lat="36.9966600" lon="-3.0701230">
        <ele>788.2</ele>
        <time>2020-07-12T12:15:36Z</time>
      </trkpt>
      <trkpt lat="36.9966360" lon="-3.0700860">
        <ele>788.2</ele>
        <time>2020-07-12T12:15:37Z</time>
      </trkpt>
      <trkpt lat="36.9966290" lon="-3.0699360">
        <ele>788.0</ele>
        <time>2020-07-12T12:15:41Z</time>
      </trkpt>
      <trkpt lat="36.9966350" lon="-3.0698910">
        <ele>788.0</ele>
        <time>2020-07-12T12:15:42Z</time>
      </trkpt>
      <trkpt lat="36.9966520" lon="-3.0698070">
        <ele>788.2</ele>
        <time>2020-07-12T12:15:44Z</time>
      </trkpt>
      <trkpt lat="36.9966720" lon="-3.0697230">
        <ele>788.6</ele>
        <time>2020-07-12T12:15:46Z</time>
      </trkpt>
      <trkpt lat="36.9967010" lon="-3.0696290">
        <ele>789.0</ele>
        <time>2020-07-12T12:15:48Z</time>
      </trkpt>
      <trkpt lat="36.9967780" lon="-3.0693980">
        <ele>789.6</ele>
        <time>2020-07-12T12:15:53Z</time>
      </trkpt>
      <trkpt lat="36.9968190" lon="-3.0692940">
        <ele>790.0</ele>
        <time>2020-07-12T12:15:55Z</time>
      </trkpt>
      <trkpt lat="36.9968620" lon="-3.0692100">
        <ele>790.6</ele>
        <time>2020-07-12T12:15:57Z</time>
      </trkpt>
      <trkpt lat="36.9968860" lon="-3.0691680">
        <ele>790.8</ele>
        <time>2020-07-12T12:15:58Z</time>
      </trkpt>
      <trkpt lat="36.9969100" lon="-3.0691320">
        <ele>791.0</ele>
        <time>2020-07-12T12:15:59Z</time>
      </trkpt>
      <trkpt lat="36.9969640" lon="-3.0690530">
        <ele>791.2</ele>
        <time>2020-07-12T12:16:01Z</time>
      </trkpt>
      <trkpt lat="36.9969970" lon="-3.0690110">
        <ele>791.4</ele>
        <time>2020-07-12T12:16:02Z</time>
      </trkpt>
      <trkpt lat="36.9970970" lon="-3.0689080">
        <ele>791.8</ele>
        <time>2020-07-12T12:16:05Z</time>
      </trkpt>
      <trkpt lat="36.9971390" lon="-3.0688780">
        <ele>791.8</ele>
        <time>2020-07-12T12:16:06Z</time>
      </trkpt>
      <trkpt lat="36.9972220" lon="-3.0688410">
        <ele>792.0</ele>
        <time>2020-07-12T12:16:08Z</time>
      </trkpt>
      <trkpt lat="36.9974540" lon="-3.0687840">
        <ele>792.8</ele>
        <time>2020-07-12T12:16:14Z</time>
      </trkpt>
      <trkpt lat="36.9975240" lon="-3.0687700">
        <ele>793.6</ele>
        <time>2020-07-12T12:16:16Z</time>
      </trkpt>
      <trkpt lat="36.9975620" lon="-3.0687660">
        <ele>794.0</ele>
        <time>2020-07-12T12:16:17Z</time>
      </trkpt>
      <trkpt lat="36.9977170" lon="-3.0687740">
        <ele>795.0</ele>
        <time>2020-07-12T12:16:22Z</time>
      </trkpt>
      <trkpt lat="36.9979730" lon="-3.0688650">
        <ele>795.8</ele>
        <time>2020-07-12T12:16:27Z</time>
      </trkpt>
      <trkpt lat="36.9983350" lon="-3.0690450">
        <ele>795.0</ele>
        <time>2020-07-12T12:16:33Z</time>
      </trkpt>
      <trkpt lat="36.9984720" lon="-3.0690590">
        <ele>794.8</ele>
        <time>2020-07-12T12:16:35Z</time>
      </trkpt>
      <trkpt lat="36.9987040" lon="-3.0690330">
        <ele>794.2</ele>
        <time>2020-07-12T12:16:38Z</time>
      </trkpt>
      <trkpt lat="36.9987780" lon="-3.0690100">
        <ele>794.0</ele>
        <time>2020-07-12T12:16:39Z</time>
      </trkpt>
      <trkpt lat="36.9988360" lon="-3.0689460">
        <ele>793.8</ele>
        <time>2020-07-12T12:16:40Z</time>
      </trkpt>
      <trkpt lat="36.9988570" lon="-3.0688390">
        <ele>793.8</ele>
        <time>2020-07-12T12:16:41Z</time>
      </trkpt>
      <trkpt lat="36.9989520" lon="-3.0685570">
        <ele>792.8</ele>
        <time>2020-07-12T12:16:44Z</time>
      </trkpt>
      <trkpt lat="36.9990090" lon="-3.0684860">
        <ele>792.4</ele>
        <time>2020-07-12T12:16:45Z</time>
      </trkpt>
      <trkpt lat="36.9992230" lon="-3.0683480">
        <ele>791.6</ele>
        <time>2020-07-12T12:16:48Z</time>
      </trkpt>
      <trkpt lat="36.9992990" lon="-3.0683060">
        <ele>791.6</ele>
        <time>2020-07-12T12:16:49Z</time>
      </trkpt>
      <trkpt lat="36.9994250" lon="-3.0682080">
        <ele>791.6</ele>
        <time>2020-07-12T12:16:51Z</time>
      </trkpt>
      <trkpt lat="36.9995300" lon="-3.0680670">
        <ele>791.6</ele>
        <time>2020-07-12T12:16:53Z</time>
      </trkpt>
      <trkpt lat="36.9996170" lon="-3.0679000">
        <ele>791.8</ele>
        <time>2020-07-12T12:16:55Z</time>
      </trkpt>
      <trkpt lat="36.9996580" lon="-3.0678230">
        <ele>791.8</ele>
        <time>2020-07-12T12:16:56Z</time>
      </trkpt>
      <trkpt lat="36.9997100" lon="-3.0677480">
        <ele>791.8</ele>
        <time>2020-07-12T12:16:57Z</time>
      </trkpt>
      <trkpt lat="36.9997690" lon="-3.0676970">
        <ele>792.0</ele>
        <time>2020-07-12T12:16:58Z</time>
      </trkpt>
      <trkpt lat="36.9999780" lon="-3.0676270">
        <ele>792.0</ele>
        <time>2020-07-12T12:17:01Z</time>
      </trkpt>
      <trkpt lat="37.0002830" lon="-3.0676570">
        <ele>792.0</ele>
        <time>2020-07-12T12:17:05Z</time>
      </trkpt>
      <trkpt lat="37.0003690" lon="-3.0676570">
        <ele>791.8</ele>
        <time>2020-07-12T12:17:06Z</time>
      </trkpt>
      <trkpt lat="37.0005320" lon="-3.0675760">
        <ele>791.6</ele>
        <time>2020-07-12T12:17:08Z</time>
      </trkpt>
      <trkpt lat="37.0006280" lon="-3.0674080">
        <ele>791.2</ele>
        <time>2020-07-12T12:17:10Z</time>
      </trkpt>
      <trkpt lat="37.0006210" lon="-3.0673070">
        <ele>790.8</ele>
        <time>2020-07-12T12:17:11Z</time>
      </trkpt>
      <trkpt lat="37.0005530" lon="-3.0672010">
        <ele>790.4</ele>
        <time>2020-07-12T12:17:12Z</time>
      </trkpt>
      <trkpt lat="37.0004880" lon="-3.0671190">
        <ele>789.8</ele>
        <time>2020-07-12T12:17:13Z</time>
      </trkpt>
      <trkpt lat="37.0003940" lon="-3.0670870">
        <ele>789.2</ele>
        <time>2020-07-12T12:17:14Z</time>
      </trkpt>
      <trkpt lat="37.0003090" lon="-3.0670420">
        <ele>788.4</ele>
        <time>2020-07-12T12:17:15Z</time>
      </trkpt>
      <trkpt lat="37.0002330" lon="-3.0670050">
        <ele>787.8</ele>
        <time>2020-07-12T12:17:16Z</time>
      </trkpt>
      <trkpt lat="36.9999540" lon="-3.0669140">
        <ele>786.6</ele>
        <time>2020-07-12T12:17:19Z</time>
      </trkpt>
      <trkpt lat="36.9998700" lon="-3.0669040">
        <ele>786.4</ele>
        <time>2020-07-12T12:17:20Z</time>
      </trkpt>
      <trkpt lat="36.9996470" lon="-3.0669030">
        <ele>786.6</ele>
        <time>2020-07-12T12:17:23Z</time>
      </trkpt>
      <trkpt lat="36.9995740" lon="-3.0669060">
        <ele>786.8</ele>
        <time>2020-07-12T12:17:24Z</time>
      </trkpt>
      <trkpt lat="36.9994540" lon="-3.0669060">
        <ele>787.2</ele>
        <time>2020-07-12T12:17:26Z</time>
      </trkpt>
      <trkpt lat="36.9993930" lon="-3.0669000">
        <ele>787.6</ele>
        <time>2020-07-12T12:17:27Z</time>
      </trkpt>
      <trkpt lat="36.9992900" lon="-3.0668580">
        <ele>788.6</ele>
        <time>2020-07-12T12:17:29Z</time>
      </trkpt>
      <trkpt lat="36.9992460" lon="-3.0668230">
        <ele>789.2</ele>
        <time>2020-07-12T12:17:30Z</time>
      </trkpt>
      <trkpt lat="36.9991470" lon="-3.0667110">
        <ele>790.4</ele>
        <time>2020-07-12T12:17:33Z</time>
      </trkpt>
      <trkpt lat="36.9990840" lon="-3.0665880">
        <ele>791.4</ele>
        <time>2020-07-12T12:17:36Z</time>
      </trkpt>
      <trkpt lat="36.9990660" lon="-3.0665420">
        <ele>791.8</ele>
        <time>2020-07-12T12:17:37Z</time>
      </trkpt>
      <trkpt lat="36.9990520" lon="-3.0665020">
        <ele>792.0</ele>
        <time>2020-07-12T12:17:38Z</time>
      </trkpt>
      <trkpt lat="36.9990150" lon="-3.0663810">
        <ele>792.8</ele>
        <time>2020-07-12T12:17:41Z</time>
      </trkpt>
      <trkpt lat="36.9989850" lon="-3.0662110">
        <ele>793.8</ele>
        <time>2020-07-12T12:17:45Z</time>
      </trkpt>
      <trkpt lat="36.9989820" lon="-3.0661710">
        <ele>794.2</ele>
        <time>2020-07-12T12:17:46Z</time>
      </trkpt>
      <trkpt lat="36.9989690" lon="-3.0660370">
        <ele>795.0</ele>
        <time>2020-07-12T12:17:49Z</time>
      </trkpt>
      <trkpt lat="36.9989530" lon="-3.0658740">
        <ele>796.0</ele>
        <time>2020-07-12T12:17:53Z</time>
      </trkpt>
      <trkpt lat="36.9989460" lon="-3.0658320">
        <ele>796.2</ele>
        <time>2020-07-12T12:17:54Z</time>
      </trkpt>
      <trkpt lat="36.9988760" lon="-3.0656520">
        <ele>797.2</ele>
        <time>2020-07-12T12:17:59Z</time>
      </trkpt>
      <trkpt lat="36.9988600" lon="-3.0656150">
        <ele>797.4</ele>
        <time>2020-07-12T12:18:00Z</time>
      </trkpt>
      <trkpt lat="36.9987830" lon="-3.0654940">
        <ele>798.4</ele>
        <time>2020-07-12T12:18:04Z</time>
      </trkpt>
      <trkpt lat="36.9987030" lon="-3.0653760">
        <ele>799.0</ele>
        <time>2020-07-12T12:18:08Z</time>
      </trkpt>
      <trkpt lat="36.9986630" lon="-3.0653200">
        <ele>799.6</ele>
        <time>2020-07-12T12:18:10Z</time>
      </trkpt>
      <trkpt lat="36.9986170" lon="-3.0651810">
        <ele>800.8</ele>
        <time>2020-07-12T12:18:14Z</time>
      </trkpt>
      <trkpt lat="36.9985940" lon="-3.0650160">
        <ele>802.0</ele>
        <time>2020-07-12T12:18:19Z</time>
      </trkpt>
      <trkpt lat="36.9985810" lon="-3.0648290">
        <ele>802.2</ele>
        <time>2020-07-12T12:18:23Z</time>
      </trkpt>
      <trkpt lat="36.9985470" lon="-3.0646740">
        <ele>803.0</ele>
        <time>2020-07-12T12:18:27Z</time>
      </trkpt>
      <trkpt lat="36.9985040" lon="-3.0645040">
        <ele>804.2</ele>
        <time>2020-07-12T12:18:32Z</time>
      </trkpt>
      <trkpt lat="36.9984790" lon="-3.0643110">
        <ele>805.2</ele>
        <time>2020-07-12T12:18:37Z</time>
      </trkpt>
      <trkpt lat="36.9984800" lon="-3.0642260">
        <ele>805.8</ele>
        <time>2020-07-12T12:18:39Z</time>
      </trkpt>
      <trkpt lat="36.9984860" lon="-3.0641400">
        <ele>806.2</ele>
        <time>2020-07-12T12:18:41Z</time>
      </trkpt>
      <trkpt lat="36.9985200" lon="-3.0638380">
        <ele>807.2</ele>
        <time>2020-07-12T12:18:47Z</time>
      </trkpt>
      <trkpt lat="36.9985320" lon="-3.0637340">
        <ele>807.4</ele>
        <time>2020-07-12T12:18:49Z</time>
      </trkpt>
      <trkpt lat="36.9985780" lon="-3.0633880">
        <ele>808.0</ele>
        <time>2020-07-12T12:18:56Z</time>
      </trkpt>
      <trkpt lat="36.9985880" lon="-3.0632760">
        <ele>808.2</ele>
        <time>2020-07-12T12:18:58Z</time>
      </trkpt>
      <trkpt lat="36.9985970" lon="-3.0631530">
        <ele>808.4</ele>
        <time>2020-07-12T12:19:00Z</time>
      </trkpt>
      <trkpt lat="36.9985980" lon="-3.0630270">
        <ele>808.6</ele>
        <time>2020-07-12T12:19:02Z</time>
      </trkpt>
      <trkpt lat="36.9985770" lon="-3.0628660">
        <ele>808.6</ele>
        <time>2020-07-12T12:19:04Z</time>
      </trkpt>
      <trkpt lat="36.9984820" lon="-3.0624670">
        <ele>808.2</ele>
        <time>2020-07-12T12:19:09Z</time>
      </trkpt>
      <trkpt lat="36.9984610" lon="-3.0623830">
        <ele>808.0</ele>
        <time>2020-07-12T12:19:10Z</time>
      </trkpt>
      <trkpt lat="36.9983790" lon="-3.0620300">
        <ele>807.4</ele>
        <time>2020-07-12T12:19:14Z</time>
      </trkpt>
      <trkpt lat="36.9983270" lon="-3.0618620">
        <ele>807.0</ele>
        <time>2020-07-12T12:19:16Z</time>
      </trkpt>
      <trkpt lat="36.9982890" lon="-3.0617780">
        <ele>806.8</ele>
        <time>2020-07-12T12:19:17Z</time>
      </trkpt>
      <trkpt lat="36.9982370" lon="-3.0616990">
        <ele>806.8</ele>
        <time>2020-07-12T12:19:18Z</time>
      </trkpt>
      <trkpt lat="36.9981190" lon="-3.0616110">
        <ele>806.4</ele>
        <time>2020-07-12T12:19:20Z</time>
      </trkpt>
      <trkpt lat="36.9980570" lon="-3.0616000">
        <ele>806.2</ele>
        <time>2020-07-12T12:19:21Z</time>
      </trkpt>
      <trkpt lat="36.9979910" lon="-3.0615930">
        <ele>806.0</ele>
        <time>2020-07-12T12:19:22Z</time>
      </trkpt>
      <trkpt lat="36.9979380" lon="-3.0615860">
        <ele>805.8</ele>
        <time>2020-07-12T12:19:23Z</time>
      </trkpt>
      <trkpt lat="36.9978340" lon="-3.0615580">
        <ele>806.0</ele>
        <time>2020-07-12T12:19:25Z</time>
      </trkpt>
      <trkpt lat="36.9977520" lon="-3.0615030">
        <ele>806.8</ele>
        <time>2020-07-12T12:19:27Z</time>
      </trkpt>
      <trkpt lat="36.9976870" lon="-3.0614340">
        <ele>807.6</ele>
        <time>2020-07-12T12:19:29Z</time>
      </trkpt>
      <trkpt lat="36.9976060" lon="-3.0613030">
        <ele>808.6</ele>
        <time>2020-07-12T12:19:32Z</time>
      </trkpt>
      <trkpt lat="36.9975780" lon="-3.0612600">
        <ele>808.8</ele>
        <time>2020-07-12T12:19:33Z</time>
      </trkpt>
      <trkpt lat="36.9974930" lon="-3.0611480">
        <ele>809.4</ele>
        <time>2020-07-12T12:19:36Z</time>
      </trkpt>
      <trkpt lat="36.9974250" lon="-3.0610870">
        <ele>809.8</ele>
        <time>2020-07-12T12:19:38Z</time>
      </trkpt>
      <trkpt lat="36.9972930" lon="-3.0609750">
        <ele>810.4</ele>
        <time>2020-07-12T12:19:42Z</time>
      </trkpt>
      <trkpt lat="36.9972270" lon="-3.0609160">
        <ele>811.0</ele>
        <time>2020-07-12T12:19:44Z</time>
      </trkpt>
      <trkpt lat="36.9970830" lon="-3.0608080">
        <ele>812.0</ele>
        <time>2020-07-12T12:19:48Z</time>
      </trkpt>
      <trkpt lat="36.9969430" lon="-3.0607620">
        <ele>812.8</ele>
        <time>2020-07-12T12:19:52Z</time>
      </trkpt>
      <trkpt lat="36.9968740" lon="-3.0607580">
        <ele>813.2</ele>
        <time>2020-07-12T12:19:54Z</time>
      </trkpt>
      <trkpt lat="36.9967310" lon="-3.0607650">
        <ele>814.2</ele>
        <time>2020-07-12T12:19:58Z</time>
      </trkpt>
      <trkpt lat="36.9965850" lon="-3.0608060">
        <ele>814.8</ele>
        <time>2020-07-12T12:20:02Z</time>
      </trkpt>
      <trkpt lat="36.9964940" lon="-3.0608480">
        <ele>815.2</ele>
        <time>2020-07-12T12:20:05Z</time>
      </trkpt>
      <trkpt lat="36.9963600" lon="-3.0608950">
        <ele>816.4</ele>
        <time>2020-07-12T12:20:09Z</time>
      </trkpt>
      <trkpt lat="36.9963280" lon="-3.0609030">
        <ele>816.6</ele>
        <time>2020-07-12T12:20:10Z</time>
      </trkpt>
      <trkpt lat="36.9961630" lon="-3.0609290">
        <ele>817.4</ele>
        <time>2020-07-12T12:20:15Z</time>
      </trkpt>
      <trkpt lat="36.9960630" lon="-3.0609300">
        <ele>818.0</ele>
        <time>2020-07-12T12:20:18Z</time>
      </trkpt>
      <trkpt lat="36.9960050" lon="-3.0609240">
        <ele>818.4</ele>
        <time>2020-07-12T12:20:20Z</time>
      </trkpt>
      <trkpt lat="36.9958880" lon="-3.0608710">
        <ele>819.2</ele>
        <time>2020-07-12T12:20:24Z</time>
      </trkpt>
      <trkpt lat="36.9958360" lon="-3.0608290">
        <ele>819.6</ele>
        <time>2020-07-12T12:20:26Z</time>
      </trkpt>
      <trkpt lat="36.9957650" lon="-3.0607380">
        <ele>820.4</ele>
        <time>2020-07-12T12:20:29Z</time>
      </trkpt>
      <trkpt lat="36.9957440" lon="-3.0607020">
        <ele>820.8</ele>
        <time>2020-07-12T12:20:30Z</time>
      </trkpt>
      <trkpt lat="36.9957020" lon="-3.0605530">
        <ele>822.0</ele>
        <time>2020-07-12T12:20:34Z</time>
      </trkpt>
      <trkpt lat="36.9956780" lon="-3.0603150">
        <ele>823.0</ele>
        <time>2020-07-12T12:20:40Z</time>
      </trkpt>
      <trkpt lat="36.9956650" lon="-3.0602370">
        <ele>823.4</ele>
        <time>2020-07-12T12:20:42Z</time>
      </trkpt>
      <trkpt lat="36.9955910" lon="-3.0601240">
        <ele>824.0</ele>
        <time>2020-07-12T12:20:46Z</time>
      </trkpt>
      <trkpt lat="36.9954500" lon="-3.0600840">
        <ele>825.2</ele>
        <time>2020-07-12T12:20:51Z</time>
      </trkpt>
      <trkpt lat="36.9953370" lon="-3.0601210">
        <ele>826.4</ele>
        <time>2020-07-12T12:20:55Z</time>
      </trkpt>
      <trkpt lat="36.9952780" lon="-3.0601450">
        <ele>827.0</ele>
        <time>2020-07-12T12:20:57Z</time>
      </trkpt>
      <trkpt lat="36.9951670" lon="-3.0601780">
        <ele>827.6</ele>
        <time>2020-07-12T12:21:01Z</time>
      </trkpt>
      <trkpt lat="36.9950450" lon="-3.0601640">
        <ele>828.2</ele>
        <time>2020-07-12T12:21:05Z</time>
      </trkpt>
      <trkpt lat="36.9949940" lon="-3.0601210">
        <ele>828.6</ele>
        <time>2020-07-12T12:21:07Z</time>
      </trkpt>
      <trkpt lat="36.9949510" lon="-3.0600600">
        <ele>828.8</ele>
        <time>2020-07-12T12:21:09Z</time>
      </trkpt>
      <trkpt lat="36.9948740" lon="-3.0599190">
        <ele>829.8</ele>
        <time>2020-07-12T12:21:13Z</time>
      </trkpt>
      <trkpt lat="36.9948120" lon="-3.0597750">
        <ele>830.8</ele>
        <time>2020-07-12T12:21:17Z</time>
      </trkpt>
      <trkpt lat="36.9947950" lon="-3.0597360">
        <ele>831.0</ele>
        <time>2020-07-12T12:21:18Z</time>
      </trkpt>
      <trkpt lat="36.9947440" lon="-3.0595880">
        <ele>831.8</ele>
        <time>2020-07-12T12:21:22Z</time>
      </trkpt>
      <trkpt lat="36.9947220" lon="-3.0594290">
        <ele>832.6</ele>
        <time>2020-07-12T12:21:26Z</time>
      </trkpt>
      <trkpt lat="36.9947330" lon="-3.0593050">
        <ele>833.0</ele>
        <time>2020-07-12T12:21:29Z</time>
      </trkpt>
      <trkpt lat="36.9947640" lon="-3.0591860">
        <ele>833.6</ele>
        <time>2020-07-12T12:21:32Z</time>
      </trkpt>
      <trkpt lat="36.9947940" lon="-3.0591160">
        <ele>834.2</ele>
        <time>2020-07-12T12:21:34Z</time>
      </trkpt>
      <trkpt lat="36.9948770" lon="-3.0589920">
        <ele>835.2</ele>
        <time>2020-07-12T12:21:38Z</time>
      </trkpt>
      <trkpt lat="36.9949010" lon="-3.0589650">
        <ele>835.4</ele>
        <time>2020-07-12T12:21:39Z</time>
      </trkpt>
      <trkpt lat="36.9950250" lon="-3.0588420">
        <ele>836.4</ele>
        <time>2020-07-12T12:21:44Z</time>
      </trkpt>
      <trkpt lat="36.9951250" lon="-3.0587490">
        <ele>837.0</ele>
        <time>2020-07-12T12:21:48Z</time>
      </trkpt>
      <trkpt lat="36.9951770" lon="-3.0587100">
        <ele>837.4</ele>
        <time>2020-07-12T12:21:50Z</time>
      </trkpt>
      <trkpt lat="36.9953440" lon="-3.0586160">
        <ele>838.8</ele>
        <time>2020-07-12T12:21:56Z</time>
      </trkpt>
      <trkpt lat="36.9954080" lon="-3.0585880">
        <ele>839.4</ele>
        <time>2020-07-12T12:21:58Z</time>
      </trkpt>
      <trkpt lat="36.9954680" lon="-3.0585610">
        <ele>839.8</ele>
        <time>2020-07-12T12:22:00Z</time>
      </trkpt>
      <trkpt lat="36.9956150" lon="-3.0584310">
        <ele>840.8</ele>
        <time>2020-07-12T12:22:06Z</time>
      </trkpt>
      <trkpt lat="36.9956830" lon="-3.0582280">
        <ele>842.0</ele>
        <time>2020-07-12T12:22:12Z</time>
      </trkpt>
      <trkpt lat="36.9956910" lon="-3.0581950">
        <ele>842.2</ele>
        <time>2020-07-12T12:22:13Z</time>
      </trkpt>
      <trkpt lat="36.9957070" lon="-3.0580600">
        <ele>843.2</ele>
        <time>2020-07-12T12:22:17Z</time>
      </trkpt>
      <trkpt lat="36.9957010" lon="-3.0579490">
        <ele>844.2</ele>
        <time>2020-07-12T12:22:20Z</time>
      </trkpt>
      <trkpt lat="36.9956520" lon="-3.0577750">
        <ele>845.2</ele>
        <time>2020-07-12T12:22:25Z</time>
      </trkpt>
      <trkpt lat="36.9956200" lon="-3.0577170">
        <ele>845.6</ele>
        <time>2020-07-12T12:22:27Z</time>
      </trkpt>
      <trkpt lat="36.9955200" lon="-3.0575770">
        <ele>846.4</ele>
        <time>2020-07-12T12:22:32Z</time>
      </trkpt>
      <trkpt lat="36.9954340" lon="-3.0574750">
        <ele>847.2</ele>
        <time>2020-07-12T12:22:36Z</time>
      </trkpt>
      <trkpt lat="36.9953890" lon="-3.0574210">
        <ele>847.6</ele>
        <time>2020-07-12T12:22:38Z</time>
      </trkpt>
      <trkpt lat="36.9952990" lon="-3.0572710">
        <ele>848.8</ele>
        <time>2020-07-12T12:22:43Z</time>
      </trkpt>
      <trkpt lat="36.9952750" lon="-3.0572050">
        <ele>849.4</ele>
        <time>2020-07-12T12:22:45Z</time>
      </trkpt>
      <trkpt lat="36.9952570" lon="-3.0571300">
        <ele>849.8</ele>
        <time>2020-07-12T12:22:47Z</time>
      </trkpt>
      <trkpt lat="36.9952330" lon="-3.0569210">
        <ele>850.8</ele>
        <time>2020-07-12T12:22:52Z</time>
      </trkpt>
      <trkpt lat="36.9952390" lon="-3.0565960">
        <ele>852.0</ele>
        <time>2020-07-12T12:23:00Z</time>
      </trkpt>
      <trkpt lat="36.9952410" lon="-3.0565560">
        <ele>852.2</ele>
        <time>2020-07-12T12:23:01Z</time>
      </trkpt>
      <trkpt lat="36.9952530" lon="-3.0563950">
        <ele>853.0</ele>
        <time>2020-07-12T12:23:05Z</time>
      </trkpt>
      <trkpt lat="36.9952800" lon="-3.0561200">
        <ele>854.2</ele>
        <time>2020-07-12T12:23:12Z</time>
      </trkpt>
      <trkpt lat="36.9952850" lon="-3.0560810">
        <ele>854.4</ele>
        <time>2020-07-12T12:23:13Z</time>
      </trkpt>
      <trkpt lat="36.9953040" lon="-3.0558630">
        <ele>855.2</ele>
        <time>2020-07-12T12:23:19Z</time>
      </trkpt>
      <trkpt lat="36.9953210" lon="-3.0556890">
        <ele>856.4</ele>
        <time>2020-07-12T12:23:24Z</time>
      </trkpt>
      <trkpt lat="36.9953360" lon="-3.0555530">
        <ele>857.4</ele>
        <time>2020-07-12T12:23:28Z</time>
      </trkpt>
      <trkpt lat="36.9953610" lon="-3.0553800">
        <ele>858.4</ele>
        <time>2020-07-12T12:23:33Z</time>
      </trkpt>
      <trkpt lat="36.9953740" lon="-3.0553150">
        <ele>858.8</ele>
        <time>2020-07-12T12:23:35Z</time>
      </trkpt>
      <trkpt lat="36.9954200" lon="-3.0551500">
        <ele>859.6</ele>
        <time>2020-07-12T12:23:40Z</time>
      </trkpt>
      <trkpt lat="36.9954750" lon="-3.0550340">
        <ele>860.2</ele>
        <time>2020-07-12T12:23:44Z</time>
      </trkpt>
      <trkpt lat="36.9955040" lon="-3.0549830">
        <ele>860.8</ele>
        <time>2020-07-12T12:23:46Z</time>
      </trkpt>
      <trkpt lat="36.9955650" lon="-3.0548860">
        <ele>861.8</ele>
        <time>2020-07-12T12:23:50Z</time>
      </trkpt>
      <trkpt lat="36.9956160" lon="-3.0548190">
        <ele>862.4</ele>
        <time>2020-07-12T12:23:53Z</time>
      </trkpt>
      <trkpt lat="36.9956500" lon="-3.0547700">
        <ele>862.8</ele>
        <time>2020-07-12T12:23:55Z</time>
      </trkpt>
      <trkpt lat="36.9956820" lon="-3.0546500">
        <ele>863.6</ele>
        <time>2020-07-12T12:23:59Z</time>
      </trkpt>
      <trkpt lat="36.9956820" lon="-3.0546170">
        <ele>863.8</ele>
        <time>2020-07-12T12:24:00Z</time>
      </trkpt>
      <trkpt lat="36.9956390" lon="-3.0544570">
        <ele>864.8</ele>
        <time>2020-07-12T12:24:05Z</time>
      </trkpt>
      <trkpt lat="36.9956010" lon="-3.0542030">
        <ele>866.0</ele>
        <time>2020-07-12T12:24:12Z</time>
      </trkpt>
      <trkpt lat="36.9956440" lon="-3.0539670">
        <ele>867.0</ele>
        <time>2020-07-12T12:24:18Z</time>
      </trkpt>
      <trkpt lat="36.9956530" lon="-3.0538750">
        <ele>867.2</ele>
        <time>2020-07-12T12:24:20Z</time>
      </trkpt>
      <trkpt lat="36.9956040" lon="-3.0537000">
        <ele>867.4</ele>
        <time>2020-07-12T12:24:24Z</time>
      </trkpt>
      <trkpt lat="36.9954400" lon="-3.0534920">
        <ele>867.8</ele>
        <time>2020-07-12T12:24:30Z</time>
      </trkpt>
      <trkpt lat="36.9954060" lon="-3.0534670">
        <ele>868.0</ele>
        <time>2020-07-12T12:24:31Z</time>
      </trkpt>
      <trkpt lat="36.9953190" lon="-3.0534370">
        <ele>868.0</ele>
        <time>2020-07-12T12:24:33Z</time>
      </trkpt>
      <trkpt lat="36.9952740" lon="-3.0534330">
        <ele>868.2</ele>
        <time>2020-07-12T12:24:34Z</time>
      </trkpt>
      <trkpt lat="36.9951350" lon="-3.0534470">
        <ele>868.2</ele>
        <time>2020-07-12T12:24:37Z</time>
      </trkpt>
      <trkpt lat="36.9950900" lon="-3.0534480">
        <ele>868.2</ele>
        <time>2020-07-12T12:24:38Z</time>
      </trkpt>
      <trkpt lat="36.9950460" lon="-3.0534390">
        <ele>868.2</ele>
        <time>2020-07-12T12:24:39Z</time>
      </trkpt>
      <trkpt lat="36.9949120" lon="-3.0533050">
        <ele>868.4</ele>
        <time>2020-07-12T12:24:43Z</time>
      </trkpt>
      <trkpt lat="36.9949130" lon="-3.0531480">
        <ele>868.8</ele>
        <time>2020-07-12T12:24:46Z</time>
      </trkpt>
      <trkpt lat="36.9949590" lon="-3.0530610">
        <ele>869.2</ele>
        <time>2020-07-12T12:24:48Z</time>
      </trkpt>
      <trkpt lat="36.9950260" lon="-3.0530150">
        <ele>869.4</ele>
        <time>2020-07-12T12:24:50Z</time>
      </trkpt>
      <trkpt lat="36.9951740" lon="-3.0530290">
        <ele>870.2</ele>
        <time>2020-07-12T12:24:54Z</time>
      </trkpt>
      <trkpt lat="36.9952060" lon="-3.0530460">
        <ele>870.4</ele>
        <time>2020-07-12T12:24:55Z</time>
      </trkpt>
      <trkpt lat="36.9952970" lon="-3.0531040">
        <ele>871.4</ele>
        <time>2020-07-12T12:24:58Z</time>
      </trkpt>
      <trkpt lat="36.9954080" lon="-3.0531810">
        <ele>872.4</ele>
        <time>2020-07-12T12:25:02Z</time>
      </trkpt>
      <trkpt lat="36.9954340" lon="-3.0532020">
        <ele>872.6</ele>
        <time>2020-07-12T12:25:03Z</time>
      </trkpt>
      <trkpt lat="36.9955340" lon="-3.0532910">
        <ele>873.6</ele>
        <time>2020-07-12T12:25:07Z</time>
      </trkpt>
      <trkpt lat="36.9956260" lon="-3.0533850">
        <ele>874.6</ele>
        <time>2020-07-12T12:25:11Z</time>
      </trkpt>
      <trkpt lat="36.9957550" lon="-3.0535620">
        <ele>875.6</ele>
        <time>2020-07-12T12:25:17Z</time>
      </trkpt>
      <trkpt lat="36.9958080" lon="-3.0536560">
        <ele>876.4</ele>
        <time>2020-07-12T12:25:20Z</time>
      </trkpt>
      <trkpt lat="36.9958230" lon="-3.0536860">
        <ele>876.6</ele>
        <time>2020-07-12T12:25:21Z</time>
      </trkpt>
      <trkpt lat="36.9958700" lon="-3.0538190">
        <ele>877.8</ele>
        <time>2020-07-12T12:25:25Z</time>
      </trkpt>
      <trkpt lat="36.9958810" lon="-3.0538990">
        <ele>878.0</ele>
        <time>2020-07-12T12:25:27Z</time>
      </trkpt>
      <trkpt lat="36.9958940" lon="-3.0540980">
        <ele>878.8</ele>
        <time>2020-07-12T12:25:32Z</time>
      </trkpt>
      <trkpt lat="36.9959020" lon="-3.0541360">
        <ele>879.0</ele>
        <time>2020-07-12T12:25:33Z</time>
      </trkpt>
      <trkpt lat="36.9959540" lon="-3.0542760">
        <ele>880.0</ele>
        <time>2020-07-12T12:25:37Z</time>
      </trkpt>
      <trkpt lat="36.9959910" lon="-3.0543340">
        <ele>880.4</ele>
        <time>2020-07-12T12:25:39Z</time>
      </trkpt>
      <trkpt lat="36.9960460" lon="-3.0544130">
        <ele>881.0</ele>
        <time>2020-07-12T12:25:42Z</time>
      </trkpt>
      <trkpt lat="36.9960860" lon="-3.0545100">
        <ele>882.2</ele>
        <time>2020-07-12T12:25:45Z</time>
      </trkpt>
      <trkpt lat="36.9960990" lon="-3.0545840">
        <ele>882.8</ele>
        <time>2020-07-12T12:25:47Z</time>
      </trkpt>
      <trkpt lat="36.9960980" lon="-3.0546620">
        <ele>883.2</ele>
        <time>2020-07-12T12:25:49Z</time>
      </trkpt>
      <trkpt lat="36.9960660" lon="-3.0547810">
        <ele>883.8</ele>
        <time>2020-07-12T12:25:52Z</time>
      </trkpt>
      <trkpt lat="36.9960260" lon="-3.0548940">
        <ele>884.4</ele>
        <time>2020-07-12T12:25:55Z</time>
      </trkpt>
      <trkpt lat="36.9959590" lon="-3.0552010">
        <ele>885.6</ele>
        <time>2020-07-12T12:26:03Z</time>
      </trkpt>
      <trkpt lat="36.9959490" lon="-3.0553940">
        <ele>886.8</ele>
        <time>2020-07-12T12:26:08Z</time>
      </trkpt>
      <trkpt lat="36.9959680" lon="-3.0555390">
        <ele>887.6</ele>
        <time>2020-07-12T12:26:13Z</time>
      </trkpt>
      <trkpt lat="36.9959920" lon="-3.0556490">
        <ele>888.0</ele>
        <time>2020-07-12T12:26:15Z</time>
      </trkpt>
      <trkpt lat="36.9960130" lon="-3.0557890">
        <ele>889.2</ele>
        <time>2020-07-12T12:26:19Z</time>
      </trkpt>
      <trkpt lat="36.9960130" lon="-3.0558940">
        <ele>889.8</ele>
        <time>2020-07-12T12:26:22Z</time>
      </trkpt>
      <trkpt lat="36.9960020" lon="-3.0559640">
        <ele>890.2</ele>
        <time>2020-07-12T12:26:24Z</time>
      </trkpt>
      <trkpt lat="36.9959690" lon="-3.0561030">
        <ele>891.2</ele>
        <time>2020-07-12T12:26:28Z</time>
      </trkpt>
      <trkpt lat="36.9959350" lon="-3.0562020">
        <ele>891.8</ele>
        <time>2020-07-12T12:26:31Z</time>
      </trkpt>
      <trkpt lat="36.9958980" lon="-3.0563020">
        <ele>892.4</ele>
        <time>2020-07-12T12:26:34Z</time>
      </trkpt>
      <trkpt lat="36.9958760" lon="-3.0564470">
        <ele>893.6</ele>
        <time>2020-07-12T12:26:38Z</time>
      </trkpt>
      <trkpt lat="36.9958800" lon="-3.0564840">
        <ele>893.8</ele>
        <time>2020-07-12T12:26:39Z</time>
      </trkpt>
      <trkpt lat="36.9959490" lon="-3.0566070">
        <ele>894.6</ele>
        <time>2020-07-12T12:26:43Z</time>
      </trkpt>
      <trkpt lat="36.9960900" lon="-3.0567060">
        <ele>895.8</ele>
        <time>2020-07-12T12:26:48Z</time>
      </trkpt>
      <trkpt lat="36.9962690" lon="-3.0567100">
        <ele>896.8</ele>
        <time>2020-07-12T12:26:54Z</time>
      </trkpt>
      <trkpt lat="36.9964120" lon="-3.0566500">
        <ele>897.8</ele>
        <time>2020-07-12T12:26:59Z</time>
      </trkpt>
      <trkpt lat="36.9965270" lon="-3.0565980">
        <ele>898.8</ele>
        <time>2020-07-12T12:27:03Z</time>
      </trkpt>
      <trkpt lat="36.9965540" lon="-3.0565850">
        <ele>899.0</ele>
        <time>2020-07-12T12:27:04Z</time>
      </trkpt>
      <trkpt lat="36.9966390" lon="-3.0565450">
        <ele>899.8</ele>
        <time>2020-07-12T12:27:07Z</time>
      </trkpt>
      <trkpt lat="36.9966690" lon="-3.0565330">
        <ele>900.0</ele>
        <time>2020-07-12T12:27:08Z</time>
      </trkpt>
      <trkpt lat="36.9967570" lon="-3.0564860">
        <ele>900.8</ele>
        <time>2020-07-12T12:27:11Z</time>
      </trkpt>
      <trkpt lat="36.9968480" lon="-3.0564220">
        <ele>901.2</ele>
        <time>2020-07-12T12:27:14Z</time>
      </trkpt>
      <trkpt lat="36.9970050" lon="-3.0562990">
        <ele>902.0</ele>
        <time>2020-07-12T12:27:20Z</time>
      </trkpt>
      <trkpt lat="36.9970310" lon="-3.0562770">
        <ele>902.2</ele>
        <time>2020-07-12T12:27:21Z</time>
      </trkpt>
      <trkpt lat="36.9971940" lon="-3.0561040">
        <ele>903.2</ele>
        <time>2020-07-12T12:27:28Z</time>
      </trkpt>
      <trkpt lat="36.9972360" lon="-3.0560540">
        <ele>903.8</ele>
        <time>2020-07-12T12:27:30Z</time>
      </trkpt>
      <trkpt lat="36.9972790" lon="-3.0560030">
        <ele>904.4</ele>
        <time>2020-07-12T12:27:32Z</time>
      </trkpt>
      <trkpt lat="36.9973840" lon="-3.0558800">
        <ele>905.4</ele>
        <time>2020-07-12T12:27:37Z</time>
      </trkpt>
      <trkpt lat="36.9974280" lon="-3.0558360">
        <ele>905.8</ele>
        <time>2020-07-12T12:27:39Z</time>
      </trkpt>
      <trkpt lat="36.9975630" lon="-3.0557620">
        <ele>906.6</ele>
        <time>2020-07-12T12:27:44Z</time>
      </trkpt>
      <trkpt lat="36.9976190" lon="-3.0557470">
        <ele>907.0</ele>
        <time>2020-07-12T12:27:46Z</time>
      </trkpt>
      <trkpt lat="36.9977660" lon="-3.0557270">
        <ele>907.6</ele>
        <time>2020-07-12T12:27:51Z</time>
      </trkpt>
      <trkpt lat="36.9978830" lon="-3.0556960">
        <ele>908.4</ele>
        <time>2020-07-12T12:27:55Z</time>
      </trkpt>
      <trkpt lat="36.9979090" lon="-3.0556800">
        <ele>908.6</ele>
        <time>2020-07-12T12:27:56Z</time>
      </trkpt>
      <trkpt lat="36.9979720" lon="-3.0555670">
        <ele>909.4</ele>
        <time>2020-07-12T12:28:00Z</time>
      </trkpt>
      <trkpt lat="36.9979750" lon="-3.0555000">
        <ele>909.8</ele>
        <time>2020-07-12T12:28:02Z</time>
      </trkpt>
      <trkpt lat="36.9979590" lon="-3.0554390">
        <ele>910.4</ele>
        <time>2020-07-12T12:28:04Z</time>
      </trkpt>
      <trkpt lat="36.9979440" lon="-3.0554150">
        <ele>910.6</ele>
        <time>2020-07-12T12:28:05Z</time>
      </trkpt>
      <trkpt lat="36.9979240" lon="-3.0553910">
        <ele>910.8</ele>
        <time>2020-07-12T12:28:06Z</time>
      </trkpt>
      <trkpt lat="36.9978160" lon="-3.0553340">
        <ele>911.8</ele>
        <time>2020-07-12T12:28:10Z</time>
      </trkpt>
      <trkpt lat="36.9977900" lon="-3.0553290">
        <ele>912.0</ele>
        <time>2020-07-12T12:28:11Z</time>
      </trkpt>
      <trkpt lat="36.9977210" lon="-3.0553210">
        <ele>912.4</ele>
        <time>2020-07-12T12:28:13Z</time>
      </trkpt>
      <trkpt lat="36.9976540" lon="-3.0553140">
        <ele>913.0</ele>
        <time>2020-07-12T12:28:15Z</time>
      </trkpt>
      <trkpt lat="36.9976210" lon="-3.0553090">
        <ele>913.4</ele>
        <time>2020-07-12T12:28:16Z</time>
      </trkpt>
      <trkpt lat="36.9974750" lon="-3.0552970">
        <ele>914.0</ele>
        <time>2020-07-12T12:28:24Z</time>
      </trkpt>
      <trkpt lat="36.9973280" lon="-3.0552850">
        <ele>914.0</ele>
        <time>2020-07-12T12:28:26Z</time>
      </trkpt>
      <trkpt lat="36.9971810" lon="-3.0552730">
        <ele>914.0</ele>
        <time>2020-07-12T12:28:27Z</time>
      </trkpt>
      <trkpt lat="36.9970010" lon="-3.0552210">
        <ele>914.4</ele>
        <time>2020-07-12T12:28:32Z</time>
      </trkpt>
      <trkpt lat="36.9969270" lon="-3.0550710">
        <ele>915.2</ele>
        <time>2020-07-12T12:28:36Z</time>
      </trkpt>
      <trkpt lat="36.9969620" lon="-3.0548100">
        <ele>916.4</ele>
        <time>2020-07-12T12:28:42Z</time>
      </trkpt>
      <trkpt lat="36.9970300" lon="-3.0545870">
        <ele>917.4</ele>
        <time>2020-07-12T12:28:48Z</time>
      </trkpt>
      <trkpt lat="36.9970830" lon="-3.0544930">
        <ele>918.0</ele>
        <time>2020-07-12T12:28:51Z</time>
      </trkpt>
      <trkpt lat="36.9971670" lon="-3.0544250">
        <ele>918.6</ele>
        <time>2020-07-12T12:28:54Z</time>
      </trkpt>
      <trkpt lat="36.9972290" lon="-3.0544010">
        <ele>919.0</ele>
        <time>2020-07-12T12:28:56Z</time>
      </trkpt>
      <trkpt lat="36.9972990" lon="-3.0543830">
        <ele>919.8</ele>
        <time>2020-07-12T12:28:58Z</time>
      </trkpt>
      <trkpt lat="36.9974390" lon="-3.0543700">
        <ele>920.8</ele>
        <time>2020-07-12T12:29:02Z</time>
      </trkpt>
      <trkpt lat="36.9975110" lon="-3.0543790">
        <ele>921.2</ele>
        <time>2020-07-12T12:29:04Z</time>
      </trkpt>
      <trkpt lat="36.9976440" lon="-3.0544450">
        <ele>921.8</ele>
        <time>2020-07-12T12:29:08Z</time>
      </trkpt>
      <trkpt lat="36.9976740" lon="-3.0544690">
        <ele>922.0</ele>
        <time>2020-07-12T12:29:09Z</time>
      </trkpt>
      <trkpt lat="36.9978310" lon="-3.0546250">
        <ele>923.0</ele>
        <time>2020-07-12T12:29:15Z</time>
      </trkpt>
      <trkpt lat="36.9979010" lon="-3.0547100">
        <ele>923.6</ele>
        <time>2020-07-12T12:29:18Z</time>
      </trkpt>
      <trkpt lat="36.9979910" lon="-3.0548080">
        <ele>924.2</ele>
        <time>2020-07-12T12:29:22Z</time>
      </trkpt>
      <trkpt lat="36.9980570" lon="-3.0548780">
        <ele>925.2</ele>
        <time>2020-07-12T12:29:25Z</time>
      </trkpt>
      <trkpt lat="36.9981030" lon="-3.0549200">
        <ele>926.0</ele>
        <time>2020-07-12T12:29:27Z</time>
      </trkpt>
      <trkpt lat="36.9981510" lon="-3.0549590">
        <ele>926.4</ele>
        <time>2020-07-12T12:29:29Z</time>
      </trkpt>
      <trkpt lat="36.9982810" lon="-3.0550330">
        <ele>927.4</ele>
        <time>2020-07-12T12:29:34Z</time>
      </trkpt>
      <trkpt lat="36.9983310" lon="-3.0550610">
        <ele>927.6</ele>
        <time>2020-07-12T12:29:36Z</time>
      </trkpt>
      <trkpt lat="36.9984450" lon="-3.0551720">
        <ele>928.4</ele>
        <time>2020-07-12T12:29:41Z</time>
      </trkpt>
      <trkpt lat="36.9984900" lon="-3.0552300">
        <ele>928.8</ele>
        <time>2020-07-12T12:29:43Z</time>
      </trkpt>
      <trkpt lat="36.9985860" lon="-3.0553130">
        <ele>929.6</ele>
        <time>2020-07-12T12:29:47Z</time>
      </trkpt>
      <trkpt lat="36.9986720" lon="-3.0553630">
        <ele>930.6</ele>
        <time>2020-07-12T12:29:50Z</time>
      </trkpt>
      <trkpt lat="36.9986990" lon="-3.0553740">
        <ele>930.8</ele>
        <time>2020-07-12T12:29:51Z</time>
      </trkpt>
      <trkpt lat="36.9988120" lon="-3.0554060">
        <ele>931.8</ele>
        <time>2020-07-12T12:29:55Z</time>
      </trkpt>
      <trkpt lat="36.9989010" lon="-3.0554090">
        <ele>932.6</ele>
        <time>2020-07-12T12:29:58Z</time>
      </trkpt>
      <trkpt lat="36.9989580" lon="-3.0553860">
        <ele>933.0</ele>
        <time>2020-07-12T12:30:00Z</time>
      </trkpt>
      <trkpt lat="36.9990210" lon="-3.0553070">
        <ele>933.6</ele>
        <time>2020-07-12T12:30:03Z</time>
      </trkpt>
      <trkpt lat="36.9990410" lon="-3.0552030">
        <ele>934.0</ele>
        <time>2020-07-12T12:30:06Z</time>
      </trkpt>
      <trkpt lat="36.9990410" lon="-3.0551230">
        <ele>934.2</ele>
        <time>2020-07-12T12:30:08Z</time>
      </trkpt>
      <trkpt lat="36.9990170" lon="-3.0549590">
        <ele>935.0</ele>
        <time>2020-07-12T12:30:12Z</time>
      </trkpt>
      <trkpt lat="36.9990030" lon="-3.0548760">
        <ele>935.8</ele>
        <time>2020-07-12T12:30:14Z</time>
      </trkpt>
      <trkpt lat="36.9989860" lon="-3.0547970">
        <ele>936.4</ele>
        <time>2020-07-12T12:30:16Z</time>
      </trkpt>
      <trkpt lat="36.9989600" lon="-3.0546660">
        <ele>937.4</ele>
        <time>2020-07-12T12:30:19Z</time>
      </trkpt>
      <trkpt lat="36.9989140" lon="-3.0544200">
        <ele>938.0</ele>
        <time>2020-07-12T12:30:24Z</time>
      </trkpt>
      <trkpt lat="36.9988430" lon="-3.0541110">
        <ele>938.4</ele>
        <time>2020-07-12T12:30:30Z</time>
      </trkpt>
      <trkpt lat="36.9988100" lon="-3.0540140">
        <ele>938.6</ele>
        <time>2020-07-12T12:30:32Z</time>
      </trkpt>
      <trkpt lat="36.9986920" lon="-3.0538830">
        <ele>939.0</ele>
        <time>2020-07-12T12:30:36Z</time>
      </trkpt>
      <trkpt lat="36.9986550" lon="-3.0538600">
        <ele>939.0</ele>
        <time>2020-07-12T12:30:37Z</time>
      </trkpt>
      <trkpt lat="36.9985390" lon="-3.0537970">
        <ele>939.4</ele>
        <time>2020-07-12T12:30:41Z</time>
      </trkpt>
      <trkpt lat="36.9984850" lon="-3.0537530">
        <ele>939.8</ele>
        <time>2020-07-12T12:30:43Z</time>
      </trkpt>
      <trkpt lat="36.9984060" lon="-3.0536030">
        <ele>940.6</ele>
        <time>2020-07-12T12:30:48Z</time>
      </trkpt>
      <trkpt lat="36.9983950" lon="-3.0535700">
        <ele>940.8</ele>
        <time>2020-07-12T12:30:49Z</time>
      </trkpt>
      <trkpt lat="36.9983330" lon="-3.0533710">
        <ele>941.8</ele>
        <time>2020-07-12T12:30:55Z</time>
      </trkpt>
      <trkpt lat="36.9983070" lon="-3.0532580">
        <ele>942.0</ele>
        <time>2020-07-12T12:30:58Z</time>
      </trkpt>
      <trkpt lat="36.9982690" lon="-3.0531100">
        <ele>942.8</ele>
        <time>2020-07-12T12:31:02Z</time>
      </trkpt>
      <trkpt lat="36.9982420" lon="-3.0529980">
        <ele>943.6</ele>
        <time>2020-07-12T12:31:05Z</time>
      </trkpt>
      <trkpt lat="36.9982220" lon="-3.0529210">
        <ele>944.0</ele>
        <time>2020-07-12T12:31:07Z</time>
      </trkpt>
      <trkpt lat="36.9981810" lon="-3.0527030">
        <ele>945.2</ele>
        <time>2020-07-12T12:31:13Z</time>
      </trkpt>
      <trkpt lat="36.9981810" lon="-3.0526660">
        <ele>945.4</ele>
        <time>2020-07-12T12:31:14Z</time>
      </trkpt>
      <trkpt lat="36.9981750" lon="-3.0524870">
        <ele>946.2</ele>
        <time>2020-07-12T12:31:19Z</time>
      </trkpt>
      <trkpt lat="36.9981810" lon="-3.0523090">
        <ele>947.0</ele>
        <time>2020-07-12T12:31:24Z</time>
      </trkpt>
      <trkpt lat="36.9981820" lon="-3.0522750">
        <ele>947.4</ele>
        <time>2020-07-12T12:31:25Z</time>
      </trkpt>
      <trkpt lat="36.9981940" lon="-3.0520980">
        <ele>948.4</ele>
        <time>2020-07-12T12:31:30Z</time>
      </trkpt>
      <trkpt lat="36.9981950" lon="-3.0520640">
        <ele>948.6</ele>
        <time>2020-07-12T12:31:31Z</time>
      </trkpt>
      <trkpt lat="36.9981940" lon="-3.0518520">
        <ele>949.4</ele>
        <time>2020-07-12T12:31:37Z</time>
      </trkpt>
      <trkpt lat="36.9981910" lon="-3.0517080">
        <ele>949.8</ele>
        <time>2020-07-12T12:31:41Z</time>
      </trkpt>
      <trkpt lat="36.9981950" lon="-3.0515910">
        <ele>950.4</ele>
        <time>2020-07-12T12:31:44Z</time>
      </trkpt>
      <trkpt lat="36.9982040" lon="-3.0513950">
        <ele>951.6</ele>
        <time>2020-07-12T12:31:49Z</time>
      </trkpt>
      <trkpt lat="36.9982110" lon="-3.0513180">
        <ele>952.2</ele>
        <time>2020-07-12T12:31:51Z</time>
      </trkpt>
      <trkpt lat="36.9982520" lon="-3.0512120">
        <ele>952.8</ele>
        <time>2020-07-12T12:31:54Z</time>
      </trkpt>
      <trkpt lat="36.9982910" lon="-3.0511560">
        <ele>953.2</ele>
        <time>2020-07-12T12:31:56Z</time>
      </trkpt>
      <trkpt lat="36.9984210" lon="-3.0510610">
        <ele>954.0</ele>
        <time>2020-07-12T12:32:01Z</time>
      </trkpt>
      <trkpt lat="36.9984520" lon="-3.0510530">
        <ele>954.0</ele>
        <time>2020-07-12T12:32:02Z</time>
      </trkpt>
      <trkpt lat="36.9986280" lon="-3.0510480">
        <ele>955.0</ele>
        <time>2020-07-12T12:32:08Z</time>
      </trkpt>
      <trkpt lat="36.9988040" lon="-3.0510510">
        <ele>956.0</ele>
        <time>2020-07-12T12:32:14Z</time>
      </trkpt>
      <trkpt lat="36.9988810" lon="-3.0510440">
        <ele>956.4</ele>
        <time>2020-07-12T12:32:17Z</time>
      </trkpt>
      <trkpt lat="36.9990470" lon="-3.0509590">
        <ele>957.0</ele>
        <time>2020-07-12T12:32:23Z</time>
      </trkpt>
      <trkpt lat="36.9991670" lon="-3.0507870">
        <ele>958.2</ele>
        <time>2020-07-12T12:32:29Z</time>
      </trkpt>
      <trkpt lat="36.9991800" lon="-3.0507510">
        <ele>958.4</ele>
        <time>2020-07-12T12:32:30Z</time>
      </trkpt>
      <trkpt lat="36.9992250" lon="-3.0506130">
        <ele>959.4</ele>
        <time>2020-07-12T12:32:34Z</time>
      </trkpt>
      <trkpt lat="36.9992920" lon="-3.0504020">
        <ele>960.2</ele>
        <time>2020-07-12T12:32:40Z</time>
      </trkpt>
      <trkpt lat="36.9993170" lon="-3.0503350">
        <ele>960.4</ele>
        <time>2020-07-12T12:32:42Z</time>
      </trkpt>
      <trkpt lat="36.9994330" lon="-3.0501580">
        <ele>961.4</ele>
        <time>2020-07-12T12:32:48Z</time>
      </trkpt>
      <trkpt lat="36.9994600" lon="-3.0501360">
        <ele>961.6</ele>
        <time>2020-07-12T12:32:49Z</time>
      </trkpt>
      <trkpt lat="36.9995780" lon="-3.0500930">
        <ele>962.4</ele>
        <time>2020-07-12T12:32:53Z</time>
      </trkpt>
      <trkpt lat="36.9996110" lon="-3.0500880">
        <ele>962.6</ele>
        <time>2020-07-12T12:32:54Z</time>
      </trkpt>
      <trkpt lat="36.9998890" lon="-3.0500900">
        <ele>963.6</ele>
        <time>2020-07-12T12:33:03Z</time>
      </trkpt>
      <trkpt lat="37.0000900" lon="-3.0500760">
        <ele>964.6</ele>
        <time>2020-07-12T12:33:10Z</time>
      </trkpt>
      <trkpt lat="37.0001150" lon="-3.0500700">
        <ele>964.8</ele>
        <time>2020-07-12T12:33:11Z</time>
      </trkpt>
      <trkpt lat="37.0002210" lon="-3.0500050">
        <ele>965.8</ele>
        <time>2020-07-12T12:33:15Z</time>
      </trkpt>
      <trkpt lat="37.0002620" lon="-3.0499600">
        <ele>966.4</ele>
        <time>2020-07-12T12:33:17Z</time>
      </trkpt>
      <trkpt lat="37.0003010" lon="-3.0499080">
        <ele>967.0</ele>
        <time>2020-07-12T12:33:19Z</time>
      </trkpt>
      <trkpt lat="37.0003870" lon="-3.0497730">
        <ele>968.0</ele>
        <time>2020-07-12T12:33:24Z</time>
      </trkpt>
      <trkpt lat="37.0004040" lon="-3.0497470">
        <ele>968.4</ele>
        <time>2020-07-12T12:33:25Z</time>
      </trkpt>
      <trkpt lat="37.0005010" lon="-3.0496260">
        <ele>969.2</ele>
        <time>2020-07-12T12:33:30Z</time>
      </trkpt>
      <trkpt lat="37.0005960" lon="-3.0495620">
        <ele>970.0</ele>
        <time>2020-07-12T12:33:34Z</time>
      </trkpt>
      <trkpt lat="37.0006440" lon="-3.0495510">
        <ele>970.6</ele>
        <time>2020-07-12T12:33:36Z</time>
      </trkpt>
      <trkpt lat="37.0007650" lon="-3.0495900">
        <ele>971.6</ele>
        <time>2020-07-12T12:33:40Z</time>
      </trkpt>
      <trkpt lat="37.0008890" lon="-3.0496740">
        <ele>972.8</ele>
        <time>2020-07-12T12:33:45Z</time>
      </trkpt>
      <trkpt lat="37.0009510" lon="-3.0497130">
        <ele>973.0</ele>
        <time>2020-07-12T12:33:47Z</time>
      </trkpt>
      <trkpt lat="37.0011170" lon="-3.0497420">
        <ele>973.8</ele>
        <time>2020-07-12T12:33:53Z</time>
      </trkpt>
      <trkpt lat="37.0012600" lon="-3.0497140">
        <ele>974.8</ele>
        <time>2020-07-12T12:33:58Z</time>
      </trkpt>
      <trkpt lat="37.0013770" lon="-3.0496870">
        <ele>976.0</ele>
        <time>2020-07-12T12:34:02Z</time>
      </trkpt>
      <trkpt lat="37.0014070" lon="-3.0496770">
        <ele>976.2</ele>
        <time>2020-07-12T12:34:03Z</time>
      </trkpt>
      <trkpt lat="37.0016150" lon="-3.0496150">
        <ele>977.0</ele>
        <time>2020-07-12T12:34:10Z</time>
      </trkpt>
      <trkpt lat="37.0017020" lon="-3.0495750">
        <ele>977.4</ele>
        <time>2020-07-12T12:34:13Z</time>
      </trkpt>
      <trkpt lat="37.0018160" lon="-3.0494390">
        <ele>978.0</ele>
        <time>2020-07-12T12:34:18Z</time>
      </trkpt>
      <trkpt lat="37.0018260" lon="-3.0494020">
        <ele>978.2</ele>
        <time>2020-07-12T12:34:19Z</time>
      </trkpt>
      <trkpt lat="37.0018470" lon="-3.0492520">
        <ele>979.0</ele>
        <time>2020-07-12T12:34:23Z</time>
      </trkpt>
      <trkpt lat="37.0018560" lon="-3.0491280">
        <ele>979.8</ele>
        <time>2020-07-12T12:34:26Z</time>
      </trkpt>
      <trkpt lat="37.0018730" lon="-3.0488970">
        <ele>980.2</ele>
        <time>2020-07-12T12:34:31Z</time>
      </trkpt>
      <trkpt lat="37.0019170" lon="-3.0487350">
        <ele>980.4</ele>
        <time>2020-07-12T12:34:35Z</time>
      </trkpt>
      <trkpt lat="37.0020410" lon="-3.0485810">
        <ele>981.2</ele>
        <time>2020-07-12T12:34:40Z</time>
      </trkpt>
      <trkpt lat="37.0020680" lon="-3.0485610">
        <ele>981.4</ele>
        <time>2020-07-12T12:34:41Z</time>
      </trkpt>
      <trkpt lat="37.0022720" lon="-3.0484090">
        <ele>982.0</ele>
        <time>2020-07-12T12:34:47Z</time>
      </trkpt>
      <trkpt lat="37.0023050" lon="-3.0483680">
        <ele>982.2</ele>
        <time>2020-07-12T12:34:48Z</time>
      </trkpt>
      <trkpt lat="37.0023450" lon="-3.0482760">
        <ele>982.2</ele>
        <time>2020-07-12T12:34:50Z</time>
      </trkpt>
      <trkpt lat="37.0023590" lon="-3.0481820">
        <ele>982.4</ele>
        <time>2020-07-12T12:34:52Z</time>
      </trkpt>
      <trkpt lat="37.0023660" lon="-3.0480930">
        <ele>982.6</ele>
        <time>2020-07-12T12:34:54Z</time>
      </trkpt>
      <trkpt lat="37.0023840" lon="-3.0478800">
        <ele>983.2</ele>
        <time>2020-07-12T12:34:59Z</time>
      </trkpt>
      <trkpt lat="37.0023880" lon="-3.0478370">
        <ele>983.6</ele>
        <time>2020-07-12T12:35:00Z</time>
      </trkpt>
      <trkpt lat="37.0023970" lon="-3.0477140">
        <ele>984.4</ele>
        <time>2020-07-12T12:35:03Z</time>
      </trkpt>
      <trkpt lat="37.0024380" lon="-3.0475690">
        <ele>985.4</ele>
        <time>2020-07-12T12:35:07Z</time>
      </trkpt>
      <trkpt lat="37.0024580" lon="-3.0475380">
        <ele>985.6</ele>
        <time>2020-07-12T12:35:08Z</time>
      </trkpt>
      <trkpt lat="37.0025450" lon="-3.0474280">
        <ele>986.6</ele>
        <time>2020-07-12T12:35:12Z</time>
      </trkpt>
      <trkpt lat="37.0026180" lon="-3.0473540">
        <ele>987.4</ele>
        <time>2020-07-12T12:35:15Z</time>
      </trkpt>
      <trkpt lat="37.0026650" lon="-3.0473110">
        <ele>987.6</ele>
        <time>2020-07-12T12:35:17Z</time>
      </trkpt>
      <trkpt lat="37.0028130" lon="-3.0471720">
        <ele>988.4</ele>
        <time>2020-07-12T12:35:23Z</time>
      </trkpt>
      <trkpt lat="37.0028680" lon="-3.0471360">
        <ele>988.8</ele>
        <time>2020-07-12T12:35:25Z</time>
      </trkpt>
      <trkpt lat="37.0030030" lon="-3.0471160">
        <ele>989.2</ele>
        <time>2020-07-12T12:35:29Z</time>
      </trkpt>
      <trkpt lat="37.0031210" lon="-3.0471520">
        <ele>989.4</ele>
        <time>2020-07-12T12:35:32Z</time>
      </trkpt>
      <trkpt lat="37.0032460" lon="-3.0471890">
        <ele>989.4</ele>
        <time>2020-07-12T12:35:35Z</time>
      </trkpt>
      <trkpt lat="37.0033410" lon="-3.0472010">
        <ele>989.4</ele>
        <time>2020-07-12T12:35:37Z</time>
      </trkpt>
      <trkpt lat="37.0034310" lon="-3.0471970">
        <ele>989.6</ele>
        <time>2020-07-12T12:35:39Z</time>
      </trkpt>
      <trkpt lat="37.0035200" lon="-3.0471790">
        <ele>989.6</ele>
        <time>2020-07-12T12:35:41Z</time>
      </trkpt>
      <trkpt lat="37.0036970" lon="-3.0471350">
        <ele>989.8</ele>
        <time>2020-07-12T12:35:45Z</time>
      </trkpt>
      <trkpt lat="37.0038330" lon="-3.0470810">
        <ele>990.0</ele>
        <time>2020-07-12T12:35:48Z</time>
      </trkpt>
      <trkpt lat="37.0038710" lon="-3.0470560">
        <ele>990.2</ele>
        <time>2020-07-12T12:35:49Z</time>
      </trkpt>
      <trkpt lat="37.0039430" lon="-3.0469200">
        <ele>990.6</ele>
        <time>2020-07-12T12:35:52Z</time>
      </trkpt>
      <trkpt lat="37.0039460" lon="-3.0468690">
        <ele>990.8</ele>
        <time>2020-07-12T12:35:53Z</time>
      </trkpt>
      <trkpt lat="37.0039070" lon="-3.0467280">
        <ele>991.2</ele>
        <time>2020-07-12T12:35:56Z</time>
      </trkpt>
      <trkpt lat="37.0038150" lon="-3.0466330">
        <ele>992.0</ele>
        <time>2020-07-12T12:35:59Z</time>
      </trkpt>
      <trkpt lat="37.0037830" lon="-3.0466060">
        <ele>992.2</ele>
        <time>2020-07-12T12:36:00Z</time>
      </trkpt>
      <trkpt lat="37.0037550" lon="-3.0465780">
        <ele>992.4</ele>
        <time>2020-07-12T12:36:01Z</time>
      </trkpt>
      <trkpt lat="37.0035940" lon="-3.0463370">
        <ele>993.0</ele>
        <time>2020-07-12T12:36:07Z</time>
      </trkpt>
      <trkpt lat="37.0035710" lon="-3.0462900">
        <ele>993.2</ele>
        <time>2020-07-12T12:36:08Z</time>
      </trkpt>
      <trkpt lat="37.0033890" lon="-3.0459840">
        <ele>994.2</ele>
        <time>2020-07-12T12:36:15Z</time>
      </trkpt>
      <trkpt lat="37.0033520" lon="-3.0458940">
        <ele>994.4</ele>
        <time>2020-07-12T12:36:17Z</time>
      </trkpt>
      <trkpt lat="37.0033080" lon="-3.0457150">
        <ele>994.6</ele>
        <time>2020-07-12T12:36:21Z</time>
      </trkpt>
      <trkpt lat="37.0032850" lon="-3.0455140">
        <ele>995.2</ele>
        <time>2020-07-12T12:36:25Z</time>
      </trkpt>
      <trkpt lat="37.0032370" lon="-3.0452570">
        <ele>995.6</ele>
        <time>2020-07-12T12:36:30Z</time>
      </trkpt>
      <trkpt lat="37.0031340" lon="-3.0450050">
        <ele>996.4</ele>
        <time>2020-07-12T12:36:36Z</time>
      </trkpt>
      <trkpt lat="37.0031170" lon="-3.0449630">
        <ele>996.4</ele>
        <time>2020-07-12T12:36:37Z</time>
      </trkpt>
      <trkpt lat="37.0030580" lon="-3.0447610">
        <ele>997.4</ele>
        <time>2020-07-12T12:36:42Z</time>
      </trkpt>
      <trkpt lat="37.0030560" lon="-3.0446790">
        <ele>997.6</ele>
        <time>2020-07-12T12:36:44Z</time>
      </trkpt>
      <trkpt lat="37.0030730" lon="-3.0444690">
        <ele>998.4</ele>
        <time>2020-07-12T12:36:49Z</time>
      </trkpt>
      <trkpt lat="37.0030880" lon="-3.0443410">
        <ele>999.0</ele>
        <time>2020-07-12T12:36:52Z</time>
      </trkpt>
      <trkpt lat="37.0031060" lon="-3.0442120">
        <ele>999.6</ele>
        <time>2020-07-12T12:36:55Z</time>
      </trkpt>
      <trkpt lat="37.0031350" lon="-3.0439150">
        <ele>1000.6</ele>
        <time>2020-07-12T12:37:02Z</time>
      </trkpt>
      <trkpt lat="37.0031080" lon="-3.0436350">
        <ele>1001.4</ele>
        <time>2020-07-12T12:37:09Z</time>
      </trkpt>
      <trkpt lat="37.0030880" lon="-3.0435790">
        <ele>1001.8</ele>
        <time>2020-07-12T12:37:11Z</time>
      </trkpt>
      <trkpt lat="37.0030280" lon="-3.0434320">
        <ele>1002.6</ele>
        <time>2020-07-12T12:37:16Z</time>
      </trkpt>
      <trkpt lat="37.0030130" lon="-3.0434050">
        <ele>1003.0</ele>
        <time>2020-07-12T12:37:17Z</time>
      </trkpt>
      <trkpt lat="37.0029670" lon="-3.0433170">
        <ele>1004.0</ele>
        <time>2020-07-12T12:37:20Z</time>
      </trkpt>
      <trkpt lat="37.0029170" lon="-3.0432100">
        <ele>1005.0</ele>
        <time>2020-07-12T12:37:24Z</time>
      </trkpt>
      <trkpt lat="37.0029110" lon="-3.0431820">
        <ele>1005.2</ele>
        <time>2020-07-12T12:37:25Z</time>
      </trkpt>
      <trkpt lat="37.0028860" lon="-3.0429570">
        <ele>1006.4</ele>
        <time>2020-07-12T12:37:32Z</time>
      </trkpt>
      <trkpt lat="37.0028800" lon="-3.0427810">
        <ele>1007.4</ele>
        <time>2020-07-12T12:37:37Z</time>
      </trkpt>
      <trkpt lat="37.0028820" lon="-3.0426460">
        <ele>1008.4</ele>
        <time>2020-07-12T12:37:41Z</time>
      </trkpt>
      <trkpt lat="37.0028970" lon="-3.0424180">
        <ele>1009.2</ele>
        <time>2020-07-12T12:37:48Z</time>
      </trkpt>
      <trkpt lat="37.0029010" lon="-3.0423590">
        <ele>1009.6</ele>
        <time>2020-07-12T12:37:50Z</time>
      </trkpt>
      <trkpt lat="37.0029280" lon="-3.0421960">
        <ele>1010.6</ele>
        <time>2020-07-12T12:37:56Z</time>
      </trkpt>
      <trkpt lat="37.0029350" lon="-3.0421660">
        <ele>1010.8</ele>
        <time>2020-07-12T12:37:57Z</time>
      </trkpt>
      <trkpt lat="37.0029570" lon="-3.0420580">
        <ele>1011.8</ele>
        <time>2020-07-12T12:38:01Z</time>
      </trkpt>
      <trkpt lat="37.0029900" lon="-3.0419470">
        <ele>1012.8</ele>
        <time>2020-07-12T12:38:05Z</time>
      </trkpt>
      <trkpt lat="37.0030000" lon="-3.0419210">
        <ele>1013.0</ele>
        <time>2020-07-12T12:38:06Z</time>
      </trkpt>
      <trkpt lat="37.0030340" lon="-3.0417870">
        <ele>1014.0</ele>
        <time>2020-07-12T12:38:11Z</time>
      </trkpt>
      <trkpt lat="37.0030560" lon="-3.0417060">
        <ele>1014.4</ele>
        <time>2020-07-12T12:38:14Z</time>
      </trkpt>
      <trkpt lat="37.0030770" lon="-3.0416310">
        <ele>1015.0</ele>
        <time>2020-07-12T12:38:17Z</time>
      </trkpt>
      <trkpt lat="37.0031170" lon="-3.0415340">
        <ele>1016.2</ele>
        <time>2020-07-12T12:38:21Z</time>
      </trkpt>
      <trkpt lat="37.0031380" lon="-3.0414810">
        <ele>1016.6</ele>
        <time>2020-07-12T12:38:23Z</time>
      </trkpt>
      <trkpt lat="37.0031610" lon="-3.0414310">
        <ele>1017.2</ele>
        <time>2020-07-12T12:38:25Z</time>
      </trkpt>
      <trkpt lat="37.0032250" lon="-3.0413380">
        <ele>1018.2</ele>
        <time>2020-07-12T12:38:29Z</time>
      </trkpt>
      <trkpt lat="37.0032410" lon="-3.0413140">
        <ele>1018.4</ele>
        <time>2020-07-12T12:38:30Z</time>
      </trkpt>
      <trkpt lat="37.0033780" lon="-3.0411940">
        <ele>1019.4</ele>
        <time>2020-07-12T12:38:37Z</time>
      </trkpt>
      <trkpt lat="37.0035060" lon="-3.0411600">
        <ele>1020.4</ele>
        <time>2020-07-12T12:38:43Z</time>
      </trkpt>
      <trkpt lat="37.0035320" lon="-3.0411660">
        <ele>1020.8</ele>
        <time>2020-07-12T12:38:44Z</time>
      </trkpt>
      <trkpt lat="37.0035930" lon="-3.0411840">
        <ele>1021.6</ele>
        <time>2020-07-12T12:38:47Z</time>
      </trkpt>
      <trkpt lat="37.0036920" lon="-3.0412240">
        <ele>1022.4</ele>
        <time>2020-07-12T12:38:52Z</time>
      </trkpt>
      <trkpt lat="37.0037320" lon="-3.0412410">
        <ele>1022.6</ele>
        <time>2020-07-12T12:38:54Z</time>
      </trkpt>
      <trkpt lat="37.0038660" lon="-3.0412970">
        <ele>1023.8</ele>
        <time>2020-07-12T12:39:01Z</time>
      </trkpt>
      <trkpt lat="37.0039470" lon="-3.0413400">
        <ele>1024.8</ele>
        <time>2020-07-12T12:39:05Z</time>
      </trkpt>
      <trkpt lat="37.0039840" lon="-3.0413670">
        <ele>1025.4</ele>
        <time>2020-07-12T12:39:07Z</time>
      </trkpt>
      <trkpt lat="37.0040210" lon="-3.0413910">
        <ele>1025.8</ele>
        <time>2020-07-12T12:39:09Z</time>
      </trkpt>
      <trkpt lat="37.0041410" lon="-3.0414820">
        <ele>1026.8</ele>
        <time>2020-07-12T12:39:16Z</time>
      </trkpt>
      <trkpt lat="37.0041600" lon="-3.0414910">
        <ele>1026.8</ele>
        <time>2020-07-12T12:39:17Z</time>
      </trkpt>
      <trkpt lat="37.0043150" lon="-3.0415640">
        <ele>1027.8</ele>
        <time>2020-07-12T12:39:25Z</time>
      </trkpt>
      <trkpt lat="37.0044310" lon="-3.0416120">
        <ele>1029.0</ele>
        <time>2020-07-12T12:39:31Z</time>
      </trkpt>
      <trkpt lat="37.0044760" lon="-3.0416280">
        <ele>1029.4</ele>
        <time>2020-07-12T12:39:33Z</time>
      </trkpt>
      <trkpt lat="37.0045590" lon="-3.0416490">
        <ele>1030.0</ele>
        <time>2020-07-12T12:39:37Z</time>
      </trkpt>
      <trkpt lat="37.0046190" lon="-3.0416880">
        <ele>1030.4</ele>
        <time>2020-07-12T12:39:40Z</time>
      </trkpt>
      <trkpt lat="37.0047210" lon="-3.0417270">
        <ele>1031.2</ele>
        <time>2020-07-12T12:39:45Z</time>
      </trkpt>
      <trkpt lat="37.0047380" lon="-3.0417340">
        <ele>1031.4</ele>
        <time>2020-07-12T12:39:46Z</time>
      </trkpt>
      <trkpt lat="37.0048200" lon="-3.0417700">
        <ele>1032.4</ele>
        <time>2020-07-12T12:39:50Z</time>
      </trkpt>
      <trkpt lat="37.0049410" lon="-3.0418150">
        <ele>1033.4</ele>
        <time>2020-07-12T12:39:56Z</time>
      </trkpt>
      <trkpt lat="37.0049630" lon="-3.0418260">
        <ele>1033.4</ele>
        <time>2020-07-12T12:39:57Z</time>
      </trkpt>
      <trkpt lat="37.0051120" lon="-3.0418830">
        <ele>1034.4</ele>
        <time>2020-07-12T12:40:04Z</time>
      </trkpt>
      <trkpt lat="37.0051320" lon="-3.0418910">
        <ele>1034.6</ele>
        <time>2020-07-12T12:40:05Z</time>
      </trkpt>
      <trkpt lat="37.0052690" lon="-3.0419330">
        <ele>1035.8</ele>
        <time>2020-07-12T12:40:11Z</time>
      </trkpt>
      <trkpt lat="37.0053260" lon="-3.0419440">
        <ele>1036.2</ele>
        <time>2020-07-12T12:40:13Z</time>
      </trkpt>
      <trkpt lat="37.0053800" lon="-3.0419410">
        <ele>1036.8</ele>
        <time>2020-07-12T12:40:15Z</time>
      </trkpt>
      <trkpt lat="37.0054470" lon="-3.0418840">
        <ele>1037.2</ele>
        <time>2020-07-12T12:40:18Z</time>
      </trkpt>
      <trkpt lat="37.0054750" lon="-3.0418010">
        <ele>1037.8</ele>
        <time>2020-07-12T12:40:21Z</time>
      </trkpt>
      <trkpt lat="37.0054800" lon="-3.0417370">
        <ele>1038.2</ele>
        <time>2020-07-12T12:40:23Z</time>
      </trkpt>
      <trkpt lat="37.0054700" lon="-3.0416140">
        <ele>1038.8</ele>
        <time>2020-07-12T12:40:27Z</time>
      </trkpt>
      <trkpt lat="37.0054630" lon="-3.0415860">
        <ele>1039.2</ele>
        <time>2020-07-12T12:40:28Z</time>
      </trkpt>
      <trkpt lat="37.0054380" lon="-3.0415020">
        <ele>1040.0</ele>
        <time>2020-07-12T12:40:31Z</time>
      </trkpt>
      <trkpt lat="37.0054280" lon="-3.0414700">
        <ele>1040.4</ele>
        <time>2020-07-12T12:40:32Z</time>
      </trkpt>
      <trkpt lat="37.0053950" lon="-3.0413920">
        <ele>1041.4</ele>
        <time>2020-07-12T12:40:35Z</time>
      </trkpt>
      <trkpt lat="37.0053460" lon="-3.0412670">
        <ele>1042.6</ele>
        <time>2020-07-12T12:40:39Z</time>
      </trkpt>
      <trkpt lat="37.0052860" lon="-3.0410470">
        <ele>1043.6</ele>
        <time>2020-07-12T12:40:46Z</time>
      </trkpt>
      <trkpt lat="37.0052770" lon="-3.0410140">
        <ele>1043.8</ele>
        <time>2020-07-12T12:40:47Z</time>
      </trkpt>
      <trkpt lat="37.0052610" lon="-3.0407720">
        <ele>1044.8</ele>
        <time>2020-07-12T12:40:54Z</time>
      </trkpt>
      <trkpt lat="37.0052910" lon="-3.0405760">
        <ele>1046.0</ele>
        <time>2020-07-12T12:41:00Z</time>
      </trkpt>
      <trkpt lat="37.0053150" lon="-3.0404830">
        <ele>1046.6</ele>
        <time>2020-07-12T12:41:03Z</time>
      </trkpt>
      <trkpt lat="37.0053330" lon="-3.0403910">
        <ele>1047.0</ele>
        <time>2020-07-12T12:41:06Z</time>
      </trkpt>
      <trkpt lat="37.0053650" lon="-3.0401790">
        <ele>1047.8</ele>
        <time>2020-07-12T12:41:12Z</time>
      </trkpt>
      <trkpt lat="37.0053710" lon="-3.0401100">
        <ele>1048.0</ele>
        <time>2020-07-12T12:41:14Z</time>
      </trkpt>
      <trkpt lat="37.0053840" lon="-3.0399360">
        <ele>1049.2</ele>
        <time>2020-07-12T12:41:19Z</time>
      </trkpt>
      <trkpt lat="37.0053880" lon="-3.0398310">
        <ele>1050.4</ele>
        <time>2020-07-12T12:41:22Z</time>
      </trkpt>
      <trkpt lat="37.0053870" lon="-3.0397980">
        <ele>1050.6</ele>
        <time>2020-07-12T12:41:23Z</time>
      </trkpt>
      <trkpt lat="37.0053730" lon="-3.0396510">
        <ele>1051.4</ele>
        <time>2020-07-12T12:41:27Z</time>
      </trkpt>
      <trkpt lat="37.0053580" lon="-3.0395220">
        <ele>1051.8</ele>
        <time>2020-07-12T12:41:31Z</time>
      </trkpt>
      <trkpt lat="37.0053450" lon="-3.0394210">
        <ele>1052.4</ele>
        <time>2020-07-12T12:41:34Z</time>
      </trkpt>
      <trkpt lat="37.0053430" lon="-3.0392540">
        <ele>1053.6</ele>
        <time>2020-07-12T12:41:39Z</time>
      </trkpt>
      <trkpt lat="37.0053530" lon="-3.0391930">
        <ele>1054.0</ele>
        <time>2020-07-12T12:41:41Z</time>
      </trkpt>
      <trkpt lat="37.0053880" lon="-3.0390590">
        <ele>1054.8</ele>
        <time>2020-07-12T12:41:45Z</time>
      </trkpt>
      <trkpt lat="37.0054370" lon="-3.0389460">
        <ele>1055.4</ele>
        <time>2020-07-12T12:41:49Z</time>
      </trkpt>
      <trkpt lat="37.0054690" lon="-3.0388560">
        <ele>1056.0</ele>
        <time>2020-07-12T12:41:52Z</time>
      </trkpt>
      <trkpt lat="37.0055260" lon="-3.0387410">
        <ele>1056.6</ele>
        <time>2020-07-12T12:41:56Z</time>
      </trkpt>
      <trkpt lat="37.0055670" lon="-3.0386860">
        <ele>1057.2</ele>
        <time>2020-07-12T12:41:58Z</time>
      </trkpt>
      <trkpt lat="37.0056260" lon="-3.0386170">
        <ele>1058.2</ele>
        <time>2020-07-12T12:42:01Z</time>
      </trkpt>
      <trkpt lat="37.0057330" lon="-3.0385080">
        <ele>1059.2</ele>
        <time>2020-07-12T12:42:06Z</time>
      </trkpt>
      <trkpt lat="37.0058830" lon="-3.0383540">
        <ele>1060.2</ele>
        <time>2020-07-12T12:42:13Z</time>
      </trkpt>
      <trkpt lat="37.0059980" lon="-3.0382430">
        <ele>1061.0</ele>
        <time>2020-07-12T12:42:18Z</time>
      </trkpt>
      <trkpt lat="37.0060480" lon="-3.0381970">
        <ele>1061.6</ele>
        <time>2020-07-12T12:42:20Z</time>
      </trkpt>
      <trkpt lat="37.0061410" lon="-3.0380970">
        <ele>1062.6</ele>
        <time>2020-07-12T12:42:24Z</time>
      </trkpt>
      <trkpt lat="37.0061990" lon="-3.0380000">
        <ele>1063.4</ele>
        <time>2020-07-12T12:42:27Z</time>
      </trkpt>
      <trkpt lat="37.0062410" lon="-3.0379220">
        <ele>1063.8</ele>
        <time>2020-07-12T12:42:29Z</time>
      </trkpt>
      <trkpt lat="37.0063260" lon="-3.0377530">
        <ele>1063.6</ele>
        <time>2020-07-12T12:42:33Z</time>
      </trkpt>
      <trkpt lat="37.0063410" lon="-3.0376540">
        <ele>1063.2</ele>
        <time>2020-07-12T12:42:35Z</time>
      </trkpt>
      <trkpt lat="37.0063380" lon="-3.0375260">
        <ele>1062.8</ele>
        <time>2020-07-12T12:42:37Z</time>
      </trkpt>
      <trkpt lat="37.0063100" lon="-3.0374620">
        <ele>1062.6</ele>
        <time>2020-07-12T12:42:38Z</time>
      </trkpt>
      <trkpt lat="37.0062370" lon="-3.0373340">
        <ele>1061.8</ele>
        <time>2020-07-12T12:42:40Z</time>
      </trkpt>
      <trkpt lat="37.0061850" lon="-3.0372000">
        <ele>1061.4</ele>
        <time>2020-07-12T12:42:42Z</time>
      </trkpt>
      <trkpt lat="37.0061540" lon="-3.0370460">
        <ele>1061.0</ele>
        <time>2020-07-12T12:42:44Z</time>
      </trkpt>
      <trkpt lat="37.0060960" lon="-3.0367290">
        <ele>1060.6</ele>
        <time>2020-07-12T12:42:48Z</time>
      </trkpt>
      <trkpt lat="37.0060570" lon="-3.0364940">
        <ele>1060.6</ele>
        <time>2020-07-12T12:42:51Z</time>
      </trkpt>
      <trkpt lat="37.0060410" lon="-3.0364070">
        <ele>1060.6</ele>
        <time>2020-07-12T12:42:52Z</time>
      </trkpt>
      <trkpt lat="37.0060010" lon="-3.0361630">
        <ele>1060.8</ele>
        <time>2020-07-12T12:42:55Z</time>
      </trkpt>
      <trkpt lat="37.0060130" lon="-3.0359910">
        <ele>1060.6</ele>
        <time>2020-07-12T12:42:57Z</time>
      </trkpt>
      <trkpt lat="37.0060730" lon="-3.0356830">
        <ele>1060.4</ele>
        <time>2020-07-12T12:43:00Z</time>
      </trkpt>
      <trkpt lat="37.0060950" lon="-3.0355870">
        <ele>1060.4</ele>
        <time>2020-07-12T12:43:01Z</time>
      </trkpt>
      <trkpt lat="37.0061730" lon="-3.0350700">
        <ele>1059.2</ele>
        <time>2020-07-12T12:43:05Z</time>
      </trkpt>
      <trkpt lat="37.0062340" lon="-3.0347930">
        <ele>1058.0</ele>
        <time>2020-07-12T12:43:07Z</time>
      </trkpt>
      <trkpt lat="37.0062740" lon="-3.0345330">
        <ele>1056.4</ele>
        <time>2020-07-12T12:43:09Z</time>
      </trkpt>
      <trkpt lat="37.0061910" lon="-3.0343130">
        <ele>1054.6</ele>
        <time>2020-07-12T12:43:11Z</time>
      </trkpt>
      <trkpt lat="37.0061120" lon="-3.0341980">
        <ele>1053.6</ele>
        <time>2020-07-12T12:43:12Z</time>
      </trkpt>
      <trkpt lat="37.0060840" lon="-3.0339260">
        <ele>1051.8</ele>
        <time>2020-07-12T12:43:14Z</time>
      </trkpt>
      <trkpt lat="37.0061720" lon="-3.0336790">
        <ele>1050.0</ele>
        <time>2020-07-12T12:43:16Z</time>
      </trkpt>
      <trkpt lat="37.0062980" lon="-3.0334130">
        <ele>1048.8</ele>
        <time>2020-07-12T12:43:18Z</time>
      </trkpt>
      <trkpt lat="37.0064140" lon="-3.0331590">
        <ele>1047.4</ele>
        <time>2020-07-12T12:43:20Z</time>
      </trkpt>
      <trkpt lat="37.0064490" lon="-3.0330440">
        <ele>1047.0</ele>
        <time>2020-07-12T12:43:21Z</time>
      </trkpt>
      <trkpt lat="37.0064530" lon="-3.0328880">
        <ele>1046.2</ele>
        <time>2020-07-12T12:43:22Z</time>
      </trkpt>
      <trkpt lat="37.0064070" lon="-3.0327680">
        <ele>1045.8</ele>
        <time>2020-07-12T12:43:23Z</time>
      </trkpt>
      <trkpt lat="37.0062390" lon="-3.0325920">
        <ele>1045.0</ele>
        <time>2020-07-12T12:43:25Z</time>
      </trkpt>
      <trkpt lat="37.0061690" lon="-3.0325200">
        <ele>1044.6</ele>
        <time>2020-07-12T12:43:26Z</time>
      </trkpt>
      <trkpt lat="37.0059860" lon="-3.0323760">
        <ele>1044.2</ele>
        <time>2020-07-12T12:43:28Z</time>
      </trkpt>
      <trkpt lat="37.0058890" lon="-3.0323570">
        <ele>1043.6</ele>
        <time>2020-07-12T12:43:29Z</time>
      </trkpt>
      <trkpt lat="37.0055750" lon="-3.0322920">
        <ele>1042.6</ele>
        <time>2020-07-12T12:43:32Z</time>
      </trkpt>
      <trkpt lat="37.0054770" lon="-3.0322430">
        <ele>1042.4</ele>
        <time>2020-07-12T12:43:33Z</time>
      </trkpt>
      <trkpt lat="37.0053490" lon="-3.0320400">
        <ele>1041.6</ele>
        <time>2020-07-12T12:43:35Z</time>
      </trkpt>
      <trkpt lat="37.0053100" lon="-3.0317730">
        <ele>1040.8</ele>
        <time>2020-07-12T12:43:37Z</time>
      </trkpt>
      <trkpt lat="37.0052860" lon="-3.0316430">
        <ele>1040.4</ele>
        <time>2020-07-12T12:43:38Z</time>
      </trkpt>
      <trkpt lat="37.0052480" lon="-3.0315140">
        <ele>1040.2</ele>
        <time>2020-07-12T12:43:39Z</time>
      </trkpt>
      <trkpt lat="37.0051330" lon="-3.0313060">
        <ele>1039.4</ele>
        <time>2020-07-12T12:43:41Z</time>
      </trkpt>
      <trkpt lat="37.0050500" lon="-3.0310700">
        <ele>1038.8</ele>
        <time>2020-07-12T12:43:43Z</time>
      </trkpt>
      <trkpt lat="37.0050620" lon="-3.0309310">
        <ele>1038.6</ele>
        <time>2020-07-12T12:43:44Z</time>
      </trkpt>
      <trkpt lat="37.0050940" lon="-3.0307980">
        <ele>1038.4</ele>
        <time>2020-07-12T12:43:45Z</time>
      </trkpt>
      <trkpt lat="37.0051800" lon="-3.0305400">
        <ele>1037.6</ele>
        <time>2020-07-12T12:43:47Z</time>
      </trkpt>
      <trkpt lat="37.0052500" lon="-3.0304130">
        <ele>1037.2</ele>
        <time>2020-07-12T12:43:48Z</time>
      </trkpt>
      <trkpt lat="37.0053980" lon="-3.0302540">
        <ele>1036.2</ele>
        <time>2020-07-12T12:43:50Z</time>
      </trkpt>
      <trkpt lat="37.0055120" lon="-3.0301230">
        <ele>1035.2</ele>
        <time>2020-07-12T12:43:51Z</time>
      </trkpt>
      <trkpt lat="37.0057400" lon="-3.0298600">
        <ele>1032.8</ele>
        <time>2020-07-12T12:43:53Z</time>
      </trkpt>
      <trkpt lat="37.0058230" lon="-3.0297480">
        <ele>1031.8</ele>
        <time>2020-07-12T12:43:54Z</time>
      </trkpt>
      <trkpt lat="37.0059020" lon="-3.0296330">
        <ele>1031.0</ele>
        <time>2020-07-12T12:43:55Z</time>
      </trkpt>
      <trkpt lat="37.0059190" lon="-3.0294790">
        <ele>1029.8</ele>
        <time>2020-07-12T12:43:56Z</time>
      </trkpt>
      <trkpt lat="37.0059140" lon="-3.0293220">
        <ele>1028.8</ele>
        <time>2020-07-12T12:43:57Z</time>
      </trkpt>
      <trkpt lat="37.0058710" lon="-3.0291980">
        <ele>1027.8</ele>
        <time>2020-07-12T12:43:58Z</time>
      </trkpt>
      <trkpt lat="37.0057850" lon="-3.0290980">
        <ele>1026.2</ele>
        <time>2020-07-12T12:43:59Z</time>
      </trkpt>
      <trkpt lat="37.0055830" lon="-3.0290170">
        <ele>1025.2</ele>
        <time>2020-07-12T12:44:01Z</time>
      </trkpt>
      <trkpt lat="37.0054780" lon="-3.0289890">
        <ele>1024.8</ele>
        <time>2020-07-12T12:44:02Z</time>
      </trkpt>
      <trkpt lat="37.0053740" lon="-3.0289590">
        <ele>1024.6</ele>
        <time>2020-07-12T12:44:03Z</time>
      </trkpt>
      <trkpt lat="37.0052910" lon="-3.0289270">
        <ele>1024.6</ele>
        <time>2020-07-12T12:44:04Z</time>
      </trkpt>
      <trkpt lat="37.0051420" lon="-3.0287770">
        <ele>1024.6</ele>
        <time>2020-07-12T12:44:06Z</time>
      </trkpt>
      <trkpt lat="37.0050930" lon="-3.0285520">
        <ele>1024.6</ele>
        <time>2020-07-12T12:44:08Z</time>
      </trkpt>
      <trkpt lat="37.0050720" lon="-3.0283110">
        <ele>1024.4</ele>
        <time>2020-07-12T12:44:10Z</time>
      </trkpt>
      <trkpt lat="37.0050510" lon="-3.0281940">
        <ele>1024.4</ele>
        <time>2020-07-12T12:44:11Z</time>
      </trkpt>
      <trkpt lat="37.0049730" lon="-3.0279830">
        <ele>1024.0</ele>
        <time>2020-07-12T12:44:13Z</time>
      </trkpt>
      <trkpt lat="37.0048700" lon="-3.0278000">
        <ele>1023.6</ele>
        <time>2020-07-12T12:44:15Z</time>
      </trkpt>
      <trkpt lat="37.0047860" lon="-3.0276140">
        <ele>1023.8</ele>
        <time>2020-07-12T12:44:17Z</time>
      </trkpt>
      <trkpt lat="37.0047720" lon="-3.0275120">
        <ele>1023.8</ele>
        <time>2020-07-12T12:44:18Z</time>
      </trkpt>
      <trkpt lat="37.0048340" lon="-3.0272100">
        <ele>1024.0</ele>
        <time>2020-07-12T12:44:21Z</time>
      </trkpt>
      <trkpt lat="37.0048970" lon="-3.0270100">
        <ele>1023.8</ele>
        <time>2020-07-12T12:44:23Z</time>
      </trkpt>
      <trkpt lat="37.0050410" lon="-3.0267430">
        <ele>1023.2</ele>
        <time>2020-07-12T12:44:26Z</time>
      </trkpt>
      <trkpt lat="37.0051110" lon="-3.0266790">
        <ele>1023.2</ele>
        <time>2020-07-12T12:44:27Z</time>
      </trkpt>
      <trkpt lat="37.0052790" lon="-3.0266090">
        <ele>1023.0</ele>
        <time>2020-07-12T12:44:29Z</time>
      </trkpt>
      <trkpt lat="37.0053670" lon="-3.0265920">
        <ele>1023.0</ele>
        <time>2020-07-12T12:44:30Z</time>
      </trkpt>
      <trkpt lat="37.0054640" lon="-3.0266270">
        <ele>1022.8</ele>
        <time>2020-07-12T12:44:31Z</time>
      </trkpt>
      <trkpt lat="37.0055630" lon="-3.0266590">
        <ele>1022.8</ele>
        <time>2020-07-12T12:44:32Z</time>
      </trkpt>
      <trkpt lat="37.0056620" lon="-3.0266850">
        <ele>1022.4</ele>
        <time>2020-07-12T12:44:33Z</time>
      </trkpt>
      <trkpt lat="37.0058570" lon="-3.0266370">
        <ele>1021.2</ele>
        <time>2020-07-12T12:44:35Z</time>
      </trkpt>
      <trkpt lat="37.0060050" lon="-3.0264320">
        <ele>1019.4</ele>
        <time>2020-07-12T12:44:37Z</time>
      </trkpt>
      <trkpt lat="37.0061270" lon="-3.0261990">
        <ele>1017.8</ele>
        <time>2020-07-12T12:44:39Z</time>
      </trkpt>
      <trkpt lat="37.0062490" lon="-3.0259660">
        <ele>1016.6</ele>
        <time>2020-07-12T12:44:41Z</time>
      </trkpt>
      <trkpt lat="37.0063670" lon="-3.0257310">
        <ele>1015.2</ele>
        <time>2020-07-12T12:44:43Z</time>
      </trkpt>
      <trkpt lat="37.0064680" lon="-3.0254820">
        <ele>1014.6</ele>
        <time>2020-07-12T12:44:45Z</time>
      </trkpt>
      <trkpt lat="37.0064870" lon="-3.0253470">
        <ele>1014.4</ele>
        <time>2020-07-12T12:44:46Z</time>
      </trkpt>
      <trkpt lat="37.0064780" lon="-3.0251880">
        <ele>1014.0</ele>
        <time>2020-07-12T12:44:47Z</time>
      </trkpt>
      <trkpt lat="37.0065420" lon="-3.0247800">
        <ele>1013.2</ele>
        <time>2020-07-12T12:44:50Z</time>
      </trkpt>
      <trkpt lat="37.0066200" lon="-3.0246650">
        <ele>1012.4</ele>
        <time>2020-07-12T12:44:51Z</time>
      </trkpt>
      <trkpt lat="37.0067040" lon="-3.0245690">
        <ele>1011.8</ele>
        <time>2020-07-12T12:44:52Z</time>
      </trkpt>
      <trkpt lat="37.0068260" lon="-3.0245730">
        <ele>1011.4</ele>
        <time>2020-07-12T12:44:53Z</time>
      </trkpt>
      <trkpt lat="37.0069370" lon="-3.0245960">
        <ele>1010.6</ele>
        <time>2020-07-12T12:44:54Z</time>
      </trkpt>
      <trkpt lat="37.0070450" lon="-3.0246340">
        <ele>1010.2</ele>
        <time>2020-07-12T12:44:55Z</time>
      </trkpt>
      <trkpt lat="37.0071630" lon="-3.0246540">
        <ele>1009.2</ele>
        <time>2020-07-12T12:44:56Z</time>
      </trkpt>
      <trkpt lat="37.0072760" lon="-3.0246300">
        <ele>1008.6</ele>
        <time>2020-07-12T12:44:57Z</time>
      </trkpt>
      <trkpt lat="37.0074920" lon="-3.0245660">
        <ele>1007.2</ele>
        <time>2020-07-12T12:44:59Z</time>
      </trkpt>
      <trkpt lat="37.0077210" lon="-3.0245600">
        <ele>1006.4</ele>
        <time>2020-07-12T12:45:01Z</time>
      </trkpt>
      <trkpt lat="37.0078230" lon="-3.0245390">
        <ele>1006.0</ele>
        <time>2020-07-12T12:45:02Z</time>
      </trkpt>
      <trkpt lat="37.0079250" lon="-3.0244970">
        <ele>1005.6</ele>
        <time>2020-07-12T12:45:03Z</time>
      </trkpt>
      <trkpt lat="37.0081240" lon="-3.0244240">
        <ele>1005.2</ele>
        <time>2020-07-12T12:45:05Z</time>
      </trkpt>
      <trkpt lat="37.0082430" lon="-3.0244000">
        <ele>1004.8</ele>
        <time>2020-07-12T12:45:06Z</time>
      </trkpt>
      <trkpt lat="37.0083440" lon="-3.0243460">
        <ele>1004.4</ele>
        <time>2020-07-12T12:45:07Z</time>
      </trkpt>
      <trkpt lat="37.0084300" lon="-3.0242560">
        <ele>1003.6</ele>
        <time>2020-07-12T12:45:08Z</time>
      </trkpt>
      <trkpt lat="37.0084960" lon="-3.0241370">
        <ele>1003.0</ele>
        <time>2020-07-12T12:45:09Z</time>
      </trkpt>
      <trkpt lat="37.0085530" lon="-3.0240090">
        <ele>1002.6</ele>
        <time>2020-07-12T12:45:10Z</time>
      </trkpt>
      <trkpt lat="37.0086270" lon="-3.0238850">
        <ele>1001.8</ele>
        <time>2020-07-12T12:45:11Z</time>
      </trkpt>
      <trkpt lat="37.0087180" lon="-3.0237750">
        <ele>1001.0</ele>
        <time>2020-07-12T12:45:12Z</time>
      </trkpt>
      <trkpt lat="37.0088150" lon="-3.0236880">
        <ele>1000.6</ele>
        <time>2020-07-12T12:45:13Z</time>
      </trkpt>
      <trkpt lat="37.0089290" lon="-3.0236110">
        <ele>999.8</ele>
        <time>2020-07-12T12:45:14Z</time>
      </trkpt>
      <trkpt lat="37.0090410" lon="-3.0235450">
        <ele>999.6</ele>
        <time>2020-07-12T12:45:15Z</time>
      </trkpt>
      <trkpt lat="37.0091580" lon="-3.0235180">
        <ele>998.2</ele>
        <time>2020-07-12T12:45:16Z</time>
      </trkpt>
      <trkpt lat="37.0092820" lon="-3.0234750">
        <ele>997.2</ele>
        <time>2020-07-12T12:45:17Z</time>
      </trkpt>
      <trkpt lat="37.0095080" lon="-3.0233620">
        <ele>995.6</ele>
        <time>2020-07-12T12:45:19Z</time>
      </trkpt>
      <trkpt lat="37.0096130" lon="-3.0232910">
        <ele>995.0</ele>
        <time>2020-07-12T12:45:20Z</time>
      </trkpt>
      <trkpt lat="37.0097050" lon="-3.0231990">
        <ele>994.4</ele>
        <time>2020-07-12T12:45:21Z</time>
      </trkpt>
      <trkpt lat="37.0099040" lon="-3.0230640">
        <ele>993.2</ele>
        <time>2020-07-12T12:45:23Z</time>
      </trkpt>
      <trkpt lat="37.0101220" lon="-3.0230610">
        <ele>992.0</ele>
        <time>2020-07-12T12:45:25Z</time>
      </trkpt>
      <trkpt lat="37.0102270" lon="-3.0231490">
        <ele>991.2</ele>
        <time>2020-07-12T12:45:26Z</time>
      </trkpt>
      <trkpt lat="37.0103250" lon="-3.0232210">
        <ele>990.2</ele>
        <time>2020-07-12T12:45:27Z</time>
      </trkpt>
      <trkpt lat="37.0104240" lon="-3.0232970">
        <ele>989.2</ele>
        <time>2020-07-12T12:45:28Z</time>
      </trkpt>
      <trkpt lat="37.0105370" lon="-3.0233720">
        <ele>988.2</ele>
        <time>2020-07-12T12:45:29Z</time>
      </trkpt>
      <trkpt lat="37.0106450" lon="-3.0234250">
        <ele>987.4</ele>
        <time>2020-07-12T12:45:30Z</time>
      </trkpt>
      <trkpt lat="37.0107610" lon="-3.0234730">
        <ele>986.8</ele>
        <time>2020-07-12T12:45:31Z</time>
      </trkpt>
      <trkpt lat="37.0108710" lon="-3.0235160">
        <ele>986.2</ele>
        <time>2020-07-12T12:45:32Z</time>
      </trkpt>
      <trkpt lat="37.0112800" lon="-3.0237140">
        <ele>985.0</ele>
        <time>2020-07-12T12:45:36Z</time>
      </trkpt>
      <trkpt lat="37.0113720" lon="-3.0237300">
        <ele>985.0</ele>
        <time>2020-07-12T12:45:37Z</time>
      </trkpt>
      <trkpt lat="37.0114520" lon="-3.0237110">
        <ele>984.8</ele>
        <time>2020-07-12T12:45:38Z</time>
      </trkpt>
      <trkpt lat="37.0115500" lon="-3.0234490">
        <ele>983.4</ele>
        <time>2020-07-12T12:45:41Z</time>
      </trkpt>
      <trkpt lat="37.0115250" lon="-3.0232350">
        <ele>981.8</ele>
        <time>2020-07-12T12:45:43Z</time>
      </trkpt>
      <trkpt lat="37.0115380" lon="-3.0231390">
        <ele>981.0</ele>
        <time>2020-07-12T12:45:44Z</time>
      </trkpt>
      <trkpt lat="37.0115710" lon="-3.0230640">
        <ele>980.6</ele>
        <time>2020-07-12T12:45:45Z</time>
      </trkpt>
      <trkpt lat="37.0116270" lon="-3.0230020">
        <ele>980.4</ele>
        <time>2020-07-12T12:45:46Z</time>
      </trkpt>
      <trkpt lat="37.0117720" lon="-3.0229250">
        <ele>980.2</ele>
        <time>2020-07-12T12:45:48Z</time>
      </trkpt>
      <trkpt lat="37.0119200" lon="-3.0228470">
        <ele>980.2</ele>
        <time>2020-07-12T12:45:50Z</time>
      </trkpt>
      <trkpt lat="37.0119860" lon="-3.0227970">
        <ele>980.2</ele>
        <time>2020-07-12T12:45:51Z</time>
      </trkpt>
      <trkpt lat="37.0122380" lon="-3.0226020">
        <ele>980.0</ele>
        <time>2020-07-12T12:45:55Z</time>
      </trkpt>
      <trkpt lat="37.0122790" lon="-3.0225530">
        <ele>980.0</ele>
        <time>2020-07-12T12:45:56Z</time>
      </trkpt>
      <trkpt lat="37.0123790" lon="-3.0224740">
        <ele>980.4</ele>
        <time>2020-07-12T12:45:58Z</time>
      </trkpt>
      <trkpt lat="37.0125100" lon="-3.0224420">
        <ele>981.0</ele>
        <time>2020-07-12T12:46:00Z</time>
      </trkpt>
      <trkpt lat="37.0125860" lon="-3.0224650">
        <ele>981.2</ele>
        <time>2020-07-12T12:46:01Z</time>
      </trkpt>
      <trkpt lat="37.0127460" lon="-3.0225480">
        <ele>981.8</ele>
        <time>2020-07-12T12:46:03Z</time>
      </trkpt>
      <trkpt lat="37.0128320" lon="-3.0225650">
        <ele>981.6</ele>
        <time>2020-07-12T12:46:04Z</time>
      </trkpt>
      <trkpt lat="37.0129920" lon="-3.0224820">
        <ele>980.2</ele>
        <time>2020-07-12T12:46:06Z</time>
      </trkpt>
      <trkpt lat="37.0131030" lon="-3.0223130">
        <ele>979.0</ele>
        <time>2020-07-12T12:46:08Z</time>
      </trkpt>
      <trkpt lat="37.0131560" lon="-3.0222240">
        <ele>978.6</ele>
        <time>2020-07-12T12:46:09Z</time>
      </trkpt>
      <trkpt lat="37.0132790" lon="-3.0220550">
        <ele>978.0</ele>
        <time>2020-07-12T12:46:11Z</time>
      </trkpt>
      <trkpt lat="37.0133650" lon="-3.0220020">
        <ele>977.4</ele>
        <time>2020-07-12T12:46:12Z</time>
      </trkpt>
      <trkpt lat="37.0134640" lon="-3.0219860">
        <ele>976.8</ele>
        <time>2020-07-12T12:46:13Z</time>
      </trkpt>
      <trkpt lat="37.0135700" lon="-3.0220000">
        <ele>976.2</ele>
        <time>2020-07-12T12:46:14Z</time>
      </trkpt>
      <trkpt lat="37.0136770" lon="-3.0220190">
        <ele>975.8</ele>
        <time>2020-07-12T12:46:15Z</time>
      </trkpt>
      <trkpt lat="37.0137890" lon="-3.0220280">
        <ele>975.2</ele>
        <time>2020-07-12T12:46:16Z</time>
      </trkpt>
      <trkpt lat="37.0139220" lon="-3.0220370">
        <ele>974.4</ele>
        <time>2020-07-12T12:46:17Z</time>
      </trkpt>
      <trkpt lat="37.0140450" lon="-3.0220610">
        <ele>973.2</ele>
        <time>2020-07-12T12:46:18Z</time>
      </trkpt>
      <trkpt lat="37.0141730" lon="-3.0220990">
        <ele>972.2</ele>
        <time>2020-07-12T12:46:19Z</time>
      </trkpt>
      <trkpt lat="37.0144350" lon="-3.0221660">
        <ele>970.0</ele>
        <time>2020-07-12T12:46:21Z</time>
      </trkpt>
      <trkpt lat="37.0145670" lon="-3.0221840">
        <ele>969.2</ele>
        <time>2020-07-12T12:46:22Z</time>
      </trkpt>
      <trkpt lat="37.0147120" lon="-3.0221920">
        <ele>968.2</ele>
        <time>2020-07-12T12:46:23Z</time>
      </trkpt>
      <trkpt lat="37.0148500" lon="-3.0221800">
        <ele>967.0</ele>
        <time>2020-07-12T12:46:24Z</time>
      </trkpt>
      <trkpt lat="37.0149660" lon="-3.0221620">
        <ele>966.2</ele>
        <time>2020-07-12T12:46:25Z</time>
      </trkpt>
      <trkpt lat="37.0150860" lon="-3.0221450">
        <ele>965.0</ele>
        <time>2020-07-12T12:46:26Z</time>
      </trkpt>
      <trkpt lat="37.0151840" lon="-3.0221400">
        <ele>963.8</ele>
        <time>2020-07-12T12:46:27Z</time>
      </trkpt>
      <trkpt lat="37.0152700" lon="-3.0221330">
        <ele>962.4</ele>
        <time>2020-07-12T12:46:28Z</time>
      </trkpt>
      <trkpt lat="37.0153580" lon="-3.0221030">
        <ele>961.0</ele>
        <time>2020-07-12T12:46:29Z</time>
      </trkpt>
      <trkpt lat="37.0154090" lon="-3.0220330">
        <ele>959.4</ele>
        <time>2020-07-12T12:46:30Z</time>
      </trkpt>
      <trkpt lat="37.0154340" lon="-3.0219300">
        <ele>958.2</ele>
        <time>2020-07-12T12:46:31Z</time>
      </trkpt>
      <trkpt lat="37.0154280" lon="-3.0218270">
        <ele>957.0</ele>
        <time>2020-07-12T12:46:32Z</time>
      </trkpt>
      <trkpt lat="37.0153910" lon="-3.0217460">
        <ele>955.8</ele>
        <time>2020-07-12T12:46:33Z</time>
      </trkpt>
      <trkpt lat="37.0153400" lon="-3.0216980">
        <ele>955.4</ele>
        <time>2020-07-12T12:46:34Z</time>
      </trkpt>
      <trkpt lat="37.0152120" lon="-3.0216210">
        <ele>955.2</ele>
        <time>2020-07-12T12:46:36Z</time>
      </trkpt>
      <trkpt lat="37.0150870" lon="-3.0215590">
        <ele>955.6</ele>
        <time>2020-07-12T12:46:38Z</time>
      </trkpt>
      <trkpt lat="37.0150260" lon="-3.0215250">
        <ele>956.0</ele>
        <time>2020-07-12T12:46:39Z</time>
      </trkpt>
      <trkpt lat="37.0149770" lon="-3.0214930">
        <ele>956.2</ele>
        <time>2020-07-12T12:46:40Z</time>
      </trkpt>
      <trkpt lat="37.0149140" lon="-3.0214420">
        <ele>956.2</ele>
        <time>2020-07-12T12:46:41Z</time>
      </trkpt>
      <trkpt lat="37.0148230" lon="-3.0213440">
        <ele>956.6</ele>
        <time>2020-07-12T12:46:43Z</time>
      </trkpt>
      <trkpt lat="37.0147470" lon="-3.0212630">
        <ele>957.0</ele>
        <time>2020-07-12T12:46:45Z</time>
      </trkpt>
      <trkpt lat="37.0146180" lon="-3.0211250">
        <ele>957.6</ele>
        <time>2020-07-12T12:46:48Z</time>
      </trkpt>
      <trkpt lat="37.0145450" lon="-3.0210590">
        <ele>958.0</ele>
        <time>2020-07-12T12:46:50Z</time>
      </trkpt>
      <trkpt lat="37.0145100" lon="-3.0210230">
        <ele>958.2</ele>
        <time>2020-07-12T12:46:51Z</time>
      </trkpt>
      <trkpt lat="37.0144540" lon="-3.0209510">
        <ele>958.8</ele>
        <time>2020-07-12T12:46:53Z</time>
      </trkpt>
      <trkpt lat="37.0144080" lon="-3.0208800">
        <ele>959.4</ele>
        <time>2020-07-12T12:46:55Z</time>
      </trkpt>
      <trkpt lat="37.0143850" lon="-3.0208340">
        <ele>959.6</ele>
        <time>2020-07-12T12:46:56Z</time>
      </trkpt>
      <trkpt lat="37.0143510" lon="-3.0207560">
        <ele>960.2</ele>
        <time>2020-07-12T12:46:58Z</time>
      </trkpt>
      <trkpt lat="37.0143350" lon="-3.0207060">
        <ele>960.4</ele>
        <time>2020-07-12T12:46:59Z</time>
      </trkpt>
      <trkpt lat="37.0143090" lon="-3.0206200">
        <ele>961.0</ele>
        <time>2020-07-12T12:47:01Z</time>
      </trkpt>
      <trkpt lat="37.0142730" lon="-3.0204930">
        <ele>961.4</ele>
        <time>2020-07-12T12:47:04Z</time>
      </trkpt>
      <trkpt lat="37.0142310" lon="-3.0203710">
        <ele>962.0</ele>
        <time>2020-07-12T12:47:07Z</time>
      </trkpt>
      <trkpt lat="37.0142010" lon="-3.0202980">
        <ele>962.4</ele>
        <time>2020-07-12T12:47:09Z</time>
      </trkpt>
      <trkpt lat="37.0141850" lon="-3.0202650">
        <ele>962.8</ele>
        <time>2020-07-12T12:47:10Z</time>
      </trkpt>
      <trkpt lat="37.0141210" lon="-3.0201650">
        <ele>963.8</ele>
        <time>2020-07-12T12:47:13Z</time>
      </trkpt>
      <trkpt lat="37.0140790" lon="-3.0201230">
        <ele>964.6</ele>
        <time>2020-07-12T12:47:15Z</time>
      </trkpt>
      <trkpt lat="37.0140550" lon="-3.0201050">
        <ele>964.8</ele>
        <time>2020-07-12T12:47:16Z</time>
      </trkpt>
      <trkpt lat="37.0139380" lon="-3.0200320">
        <ele>966.0</ele>
        <time>2020-07-12T12:47:21Z</time>
      </trkpt>
      <trkpt lat="37.0138910" lon="-3.0200050">
        <ele>966.6</ele>
        <time>2020-07-12T12:47:23Z</time>
      </trkpt>
      <trkpt lat="37.0138220" lon="-3.0199590">
        <ele>967.2</ele>
        <time>2020-07-12T12:47:26Z</time>
      </trkpt>
      <trkpt lat="37.0137130" lon="-3.0198700">
        <ele>968.2</ele>
        <time>2020-07-12T12:47:31Z</time>
      </trkpt>
      <trkpt lat="37.0136120" lon="-3.0197990">
        <ele>969.4</ele>
        <time>2020-07-12T12:47:36Z</time>
      </trkpt>
      <trkpt lat="37.0135660" lon="-3.0197760">
        <ele>970.0</ele>
        <time>2020-07-12T12:47:38Z</time>
      </trkpt>
      <trkpt lat="37.0135050" lon="-3.0197430">
        <ele>970.6</ele>
        <time>2020-07-12T12:47:41Z</time>
      </trkpt>
      <trkpt lat="37.0133960" lon="-3.0196590">
        <ele>971.8</ele>
        <time>2020-07-12T12:47:47Z</time>
      </trkpt>
      <trkpt lat="37.0133770" lon="-3.0196440">
        <ele>971.8</ele>
        <time>2020-07-12T12:47:48Z</time>
      </trkpt>
      <trkpt lat="37.0132960" lon="-3.0195730">
        <ele>972.8</ele>
        <time>2020-07-12T12:47:52Z</time>
      </trkpt>
      <trkpt lat="37.0132400" lon="-3.0194770">
        <ele>974.0</ele>
        <time>2020-07-12T12:47:56Z</time>
      </trkpt>
      <trkpt lat="37.0132300" lon="-3.0194520">
        <ele>974.2</ele>
        <time>2020-07-12T12:47:57Z</time>
      </trkpt>
      <trkpt lat="37.0131990" lon="-3.0193700">
        <ele>975.2</ele>
        <time>2020-07-12T12:48:00Z</time>
      </trkpt>
      <trkpt lat="37.0131800" lon="-3.0192440">
        <ele>976.0</ele>
        <time>2020-07-12T12:48:04Z</time>
      </trkpt>
      <trkpt lat="37.0131760" lon="-3.0192120">
        <ele>976.2</ele>
        <time>2020-07-12T12:48:05Z</time>
      </trkpt>
      <trkpt lat="37.0131130" lon="-3.0190380">
        <ele>977.0</ele>
        <time>2020-07-12T12:48:11Z</time>
      </trkpt>
      <trkpt lat="37.0131000" lon="-3.0190180">
        <ele>977.2</ele>
        <time>2020-07-12T12:48:12Z</time>
      </trkpt>
      <trkpt lat="37.0130070" lon="-3.0189230">
        <ele>978.2</ele>
        <time>2020-07-12T12:48:17Z</time>
      </trkpt>
      <trkpt lat="37.0129460" lon="-3.0188620">
        <ele>979.4</ele>
        <time>2020-07-12T12:48:20Z</time>
      </trkpt>
      <trkpt lat="37.0128420" lon="-3.0187620">
        <ele>980.4</ele>
        <time>2020-07-12T12:48:24Z</time>
      </trkpt>
      <trkpt lat="37.0128130" lon="-3.0187340">
        <ele>980.4</ele>
        <time>2020-07-12T12:48:25Z</time>
      </trkpt>
      <trkpt lat="37.0125640" lon="-3.0185020">
        <ele>980.0</ele>
        <time>2020-07-12T12:48:31Z</time>
      </trkpt>
      <trkpt lat="37.0122370" lon="-3.0182030">
        <ele>979.8</ele>
        <time>2020-07-12T12:48:39Z</time>
      </trkpt>
      <trkpt lat="37.0120800" lon="-3.0180510">
        <ele>980.8</ele>
        <time>2020-07-12T12:48:44Z</time>
      </trkpt>
      <trkpt lat="37.0120130" lon="-3.0179950">
        <ele>981.2</ele>
        <time>2020-07-12T12:48:46Z</time>
      </trkpt>
      <trkpt lat="37.0119730" lon="-3.0179610">
        <ele>981.4</ele>
        <time>2020-07-12T12:48:47Z</time>
      </trkpt>
      <trkpt lat="37.0117440" lon="-3.0177860">
        <ele>982.4</ele>
        <time>2020-07-12T12:48:53Z</time>
      </trkpt>
      <trkpt lat="37.0117080" lon="-3.0177620">
        <ele>982.6</ele>
        <time>2020-07-12T12:48:54Z</time>
      </trkpt>
      <trkpt lat="37.0115200" lon="-3.0176680">
        <ele>983.4</ele>
        <time>2020-07-12T12:49:00Z</time>
      </trkpt>
      <trkpt lat="37.0114870" lon="-3.0176580">
        <ele>983.6</ele>
        <time>2020-07-12T12:49:01Z</time>
      </trkpt>
      <trkpt lat="37.0113680" lon="-3.0176290">
        <ele>984.8</ele>
        <time>2020-07-12T12:49:05Z</time>
      </trkpt>
      <trkpt lat="37.0112600" lon="-3.0176190">
        <ele>985.8</ele>
        <time>2020-07-12T12:49:08Z</time>
      </trkpt>
      <trkpt lat="37.0111370" lon="-3.0176150">
        <ele>986.8</ele>
        <time>2020-07-12T12:49:12Z</time>
      </trkpt>
      <trkpt lat="37.0110460" lon="-3.0175950">
        <ele>987.6</ele>
        <time>2020-07-12T12:49:15Z</time>
      </trkpt>
      <trkpt lat="37.0109580" lon="-3.0175600">
        <ele>988.0</ele>
        <time>2020-07-12T12:49:18Z</time>
      </trkpt>
      <trkpt lat="37.0107410" lon="-3.0174510">
        <ele>989.0</ele>
        <time>2020-07-12T12:49:25Z</time>
      </trkpt>
      <trkpt lat="37.0105830" lon="-3.0173410">
        <ele>990.0</ele>
        <time>2020-07-12T12:49:31Z</time>
      </trkpt>
      <trkpt lat="37.0105380" lon="-3.0172970">
        <ele>990.6</ele>
        <time>2020-07-12T12:49:33Z</time>
      </trkpt>
      <trkpt lat="37.0104800" lon="-3.0172150">
        <ele>991.2</ele>
        <time>2020-07-12T12:49:36Z</time>
      </trkpt>
      <trkpt lat="37.0104070" lon="-3.0170860">
        <ele>991.6</ele>
        <time>2020-07-12T12:49:40Z</time>
      </trkpt>
      <trkpt lat="37.0103710" lon="-3.0169800">
        <ele>992.2</ele>
        <time>2020-07-12T12:49:43Z</time>
      </trkpt>
      <trkpt lat="37.0103270" lon="-3.0168140">
        <ele>993.4</ele>
        <time>2020-07-12T12:49:48Z</time>
      </trkpt>
      <trkpt lat="37.0103200" lon="-3.0167820">
        <ele>993.8</ele>
        <time>2020-07-12T12:49:49Z</time>
      </trkpt>
      <trkpt lat="37.0102950" lon="-3.0166570">
        <ele>994.4</ele>
        <time>2020-07-12T12:49:53Z</time>
      </trkpt>
      <trkpt lat="37.0102740" lon="-3.0165590">
        <ele>995.0</ele>
        <time>2020-07-12T12:49:56Z</time>
      </trkpt>
      <trkpt lat="37.0102320" lon="-3.0164220">
        <ele>995.6</ele>
        <time>2020-07-12T12:50:00Z</time>
      </trkpt>
      <trkpt lat="37.0101840" lon="-3.0162930">
        <ele>996.0</ele>
        <time>2020-07-12T12:50:04Z</time>
      </trkpt>
      <trkpt lat="37.0101390" lon="-3.0161760">
        <ele>996.6</ele>
        <time>2020-07-12T12:50:08Z</time>
      </trkpt>
      <trkpt lat="37.0100790" lon="-3.0160400">
        <ele>997.6</ele>
        <time>2020-07-12T12:50:13Z</time>
      </trkpt>
      <trkpt lat="37.0100520" lon="-3.0159900">
        <ele>998.2</ele>
        <time>2020-07-12T12:50:15Z</time>
      </trkpt>
      <trkpt lat="37.0100210" lon="-3.0159340">
        <ele>998.8</ele>
        <time>2020-07-12T12:50:17Z</time>
      </trkpt>
      <trkpt lat="37.0099130" lon="-3.0157380">
        <ele>999.8</ele>
        <time>2020-07-12T12:50:24Z</time>
      </trkpt>
      <trkpt lat="37.0098890" lon="-3.0156800">
        <ele>1000.0</ele>
        <time>2020-07-12T12:50:26Z</time>
      </trkpt>
      <trkpt lat="37.0098120" lon="-3.0154210">
        <ele>1000.8</ele>
        <time>2020-07-12T12:50:33Z</time>
      </trkpt>
      <trkpt lat="37.0097870" lon="-3.0152350">
        <ele>1000.8</ele>
        <time>2020-07-12T12:50:37Z</time>
      </trkpt>
      <trkpt lat="37.0097790" lon="-3.0151900">
        <ele>1000.8</ele>
        <time>2020-07-12T12:50:38Z</time>
      </trkpt>
      <trkpt lat="37.0097530" lon="-3.0151070">
        <ele>1000.8</ele>
        <time>2020-07-12T12:50:40Z</time>
      </trkpt>
      <trkpt lat="37.0097150" lon="-3.0149390">
        <ele>1000.6</ele>
        <time>2020-07-12T12:50:44Z</time>
      </trkpt>
      <trkpt lat="37.0096900" lon="-3.0148550">
        <ele>1000.6</ele>
        <time>2020-07-12T12:50:46Z</time>
      </trkpt>
      <trkpt lat="37.0096260" lon="-3.0146050">
        <ele>1000.4</ele>
        <time>2020-07-12T12:50:52Z</time>
      </trkpt>
      <trkpt lat="37.0096100" lon="-3.0145220">
        <ele>1000.6</ele>
        <time>2020-07-12T12:50:54Z</time>
      </trkpt>
      <trkpt lat="37.0095370" lon="-3.0141850">
        <ele>1001.8</ele>
        <time>2020-07-12T12:51:02Z</time>
      </trkpt>
      <trkpt lat="37.0095240" lon="-3.0141390">
        <ele>1002.0</ele>
        <time>2020-07-12T12:51:03Z</time>
      </trkpt>
      <trkpt lat="37.0094190" lon="-3.0138970">
        <ele>1002.2</ele>
        <time>2020-07-12T12:51:08Z</time>
      </trkpt>
      <trkpt lat="37.0091980" lon="-3.0135690">
        <ele>1002.2</ele>
        <time>2020-07-12T12:51:16Z</time>
      </trkpt>
      <trkpt lat="37.0090990" lon="-3.0133980">
        <ele>1002.8</ele>
        <time>2020-07-12T12:51:20Z</time>
      </trkpt>
      <trkpt lat="37.0090440" lon="-3.0133080">
        <ele>1003.0</ele>
        <time>2020-07-12T12:51:22Z</time>
      </trkpt>
      <trkpt lat="37.0090140" lon="-3.0132660">
        <ele>1003.0</ele>
        <time>2020-07-12T12:51:23Z</time>
      </trkpt>
      <trkpt lat="37.0089820" lon="-3.0132290">
        <ele>1003.0</ele>
        <time>2020-07-12T12:51:24Z</time>
      </trkpt>
      <trkpt lat="37.0088070" lon="-3.0130350">
        <ele>1003.2</ele>
        <time>2020-07-12T12:51:29Z</time>
      </trkpt>
      <trkpt lat="37.0087420" lon="-3.0129540">
        <ele>1003.2</ele>
        <time>2020-07-12T12:51:31Z</time>
      </trkpt>
      <trkpt lat="37.0086580" lon="-3.0127580">
        <ele>1003.6</ele>
        <time>2020-07-12T12:51:35Z</time>
      </trkpt>
      <trkpt lat="37.0086440" lon="-3.0126400">
        <ele>1004.0</ele>
        <time>2020-07-12T12:51:37Z</time>
      </trkpt>
      <trkpt lat="37.0086470" lon="-3.0125250">
        <ele>1004.4</ele>
        <time>2020-07-12T12:51:39Z</time>
      </trkpt>
      <trkpt lat="37.0086530" lon="-3.0124670">
        <ele>1004.4</ele>
        <time>2020-07-12T12:51:40Z</time>
      </trkpt>
      <trkpt lat="37.0086670" lon="-3.0124070">
        <ele>1004.4</ele>
        <time>2020-07-12T12:51:41Z</time>
      </trkpt>
      <trkpt lat="37.0087240" lon="-3.0121830">
        <ele>1004.4</ele>
        <time>2020-07-12T12:51:45Z</time>
      </trkpt>
      <trkpt lat="37.0087460" lon="-3.0120660">
        <ele>1004.6</ele>
        <time>2020-07-12T12:51:47Z</time>
      </trkpt>
      <trkpt lat="37.0087590" lon="-3.0118080">
        <ele>1004.6</ele>
        <time>2020-07-12T12:51:51Z</time>
      </trkpt>
      <trkpt lat="37.0087620" lon="-3.0115780">
        <ele>1004.4</ele>
        <time>2020-07-12T12:51:55Z</time>
      </trkpt>
      <trkpt lat="37.0087490" lon="-3.0114980">
        <ele>1004.2</ele>
        <time>2020-07-12T12:51:57Z</time>
      </trkpt>
      <trkpt lat="37.0086940" lon="-3.0114070">
        <ele>1003.6</ele>
        <time>2020-07-12T12:52:00Z</time>
      </trkpt>
      <trkpt lat="37.0086310" lon="-3.0113320">
        <ele>1002.8</ele>
        <time>2020-07-12T12:52:02Z</time>
      </trkpt>
      <trkpt lat="37.0085710" lon="-3.0112330">
        <ele>1002.2</ele>
        <time>2020-07-12T12:52:04Z</time>
      </trkpt>
      <trkpt lat="37.0085290" lon="-3.0111190">
        <ele>1001.6</ele>
        <time>2020-07-12T12:52:06Z</time>
      </trkpt>
      <trkpt lat="37.0084930" lon="-3.0110640">
        <ele>1000.8</ele>
        <time>2020-07-12T12:52:08Z</time>
      </trkpt>
      <trkpt lat="37.0084850" lon="-3.0110610">
        <ele>1000.4</ele>
        <time>2020-07-12T12:52:09Z</time>
      </trkpt>
      <trkpt lat="37.0084850" lon="-3.0110590">
        <ele>1000.0</ele>
        <time>2020-07-12T12:52:11Z</time>
      </trkpt>
      <trkpt lat="37.0083640" lon="-3.0108870">
        <ele>996.8</ele>
        <time>2020-07-12T12:58:32Z</time>
      </trkpt>
      <trkpt lat="37.0083770" lon="-3.0108830">
        <ele>996.8</ele>
        <time>2020-07-12T12:58:33Z</time>
      </trkpt>
      <trkpt lat="37.0083540" lon="-3.0109470">
        <ele>1041.0</ele>
        <time>2020-07-13T04:43:37Z</time>
      </trkpt>
      <trkpt lat="37.0083540" lon="-3.0109470">
        <ele>1041.2</ele>
        <time>2020-07-13T04:43:38Z</time>
      </trkpt>
      <trkpt lat="37.0084900" lon="-3.0109650">
        <ele>1043.6</ele>
        <time>2020-07-13T04:44:49Z</time>
      </trkpt>
      <trkpt lat="37.0084950" lon="-3.0109850">
        <ele>1043.6</ele>
        <time>2020-07-13T04:44:50Z</time>
      </trkpt>
      <trkpt lat="37.0084930" lon="-3.0110070">
        <ele>1043.6</ele>
        <time>2020-07-13T04:44:51Z</time>
      </trkpt>
      <trkpt lat="37.0084940" lon="-3.0110970">
        <ele>1044.0</ele>
        <time>2020-07-13T04:44:55Z</time>
      </trkpt>
      <trkpt lat="37.0085110" lon="-3.0111860">
        <ele>1044.6</ele>
        <time>2020-07-13T04:45:00Z</time>
      </trkpt>
      <trkpt lat="37.0085600" lon="-3.0112840">
        <ele>1045.2</ele>
        <time>2020-07-13T04:45:06Z</time>
      </trkpt>
      <trkpt lat="37.0085780" lon="-3.0113220">
        <ele>1045.4</ele>
        <time>2020-07-13T04:45:08Z</time>
      </trkpt>
      <trkpt lat="37.0086010" lon="-3.0113520">
        <ele>1045.8</ele>
        <time>2020-07-13T04:45:10Z</time>
      </trkpt>
      <trkpt lat="37.0086390" lon="-3.0113790">
        <ele>1046.0</ele>
        <time>2020-07-13T04:45:13Z</time>
      </trkpt>
      <trkpt lat="37.0086760" lon="-3.0114160">
        <ele>1046.6</ele>
        <time>2020-07-13T04:45:16Z</time>
      </trkpt>
      <trkpt lat="37.0087070" lon="-3.0114360">
        <ele>1046.8</ele>
        <time>2020-07-13T04:45:18Z</time>
      </trkpt>
      <trkpt lat="37.0087190" lon="-3.0114440">
        <ele>1047.0</ele>
        <time>2020-07-13T04:45:19Z</time>
      </trkpt>
      <trkpt lat="37.0087490" lon="-3.0114410">
        <ele>1047.2</ele>
        <time>2020-07-13T04:45:21Z</time>
      </trkpt>
      <trkpt lat="37.0087960" lon="-3.0114220">
        <ele>1047.8</ele>
        <time>2020-07-13T04:45:24Z</time>
      </trkpt>
      <trkpt lat="37.0088140" lon="-3.0114120">
        <ele>1047.8</ele>
        <time>2020-07-13T04:45:25Z</time>
      </trkpt>
      <trkpt lat="37.0088870" lon="-3.0113560">
        <ele>1048.6</ele>
        <time>2020-07-13T04:45:30Z</time>
      </trkpt>
      <trkpt lat="37.0089210" lon="-3.0113020">
        <ele>1049.0</ele>
        <time>2020-07-13T04:45:33Z</time>
      </trkpt>
      <trkpt lat="37.0089570" lon="-3.0112180">
        <ele>1049.6</ele>
        <time>2020-07-13T04:45:37Z</time>
      </trkpt>
      <trkpt lat="37.0089720" lon="-3.0111510">
        <ele>1050.0</ele>
        <time>2020-07-13T04:45:40Z</time>
      </trkpt>
      <trkpt lat="37.0089880" lon="-3.0110430">
        <ele>1050.6</ele>
        <time>2020-07-13T04:45:44Z</time>
      </trkpt>
      <trkpt lat="37.0089970" lon="-3.0108760">
        <ele>1051.0</ele>
        <time>2020-07-13T04:45:50Z</time>
      </trkpt>
      <trkpt lat="37.0090040" lon="-3.0108210">
        <ele>1051.4</ele>
        <time>2020-07-13T04:45:52Z</time>
      </trkpt>
      <trkpt lat="37.0090610" lon="-3.0106450">
        <ele>1052.2</ele>
        <time>2020-07-13T04:45:59Z</time>
      </trkpt>
      <trkpt lat="37.0090720" lon="-3.0106210">
        <ele>1052.4</ele>
        <time>2020-07-13T04:46:00Z</time>
      </trkpt>
      <trkpt lat="37.0091380" lon="-3.0104940">
        <ele>1053.4</ele>
        <time>2020-07-13T04:46:06Z</time>
      </trkpt>
      <trkpt lat="37.0091660" lon="-3.0104510">
        <ele>1053.8</ele>
        <time>2020-07-13T04:46:09Z</time>
      </trkpt>
      <trkpt lat="37.0091620" lon="-3.0104560">
        <ele>1054.0</ele>
        <time>2020-07-13T04:46:10Z</time>
      </trkpt>
      <trkpt lat="37.0091810" lon="-3.0104060">
        <ele>1054.2</ele>
        <time>2020-07-13T04:46:30Z</time>
      </trkpt>
      <trkpt lat="37.0091720" lon="-3.0104230">
        <ele>1054.2</ele>
        <time>2020-07-13T04:46:31Z</time>
      </trkpt>
      <trkpt lat="37.0092170" lon="-3.0103780">
        <ele>1054.0</ele>
        <time>2020-07-13T04:48:13Z</time>
      </trkpt>
      <trkpt lat="37.0092290" lon="-3.0103660">
        <ele>1054.0</ele>
        <time>2020-07-13T04:48:14Z</time>
      </trkpt>
      <trkpt lat="37.0092620" lon="-3.0103240">
        <ele>1054.0</ele>
        <time>2020-07-13T04:48:16Z</time>
      </trkpt>
      <trkpt lat="37.0093120" lon="-3.0102590">
        <ele>1054.4</ele>
        <time>2020-07-13T04:48:19Z</time>
      </trkpt>
      <trkpt lat="37.0093270" lon="-3.0102400">
        <ele>1054.4</ele>
        <time>2020-07-13T04:48:20Z</time>
      </trkpt>
      <trkpt lat="37.0093560" lon="-3.0101970">
        <ele>1055.0</ele>
        <time>2020-07-13T04:48:22Z</time>
      </trkpt>
      <trkpt lat="37.0094060" lon="-3.0101370">
        <ele>1055.6</ele>
        <time>2020-07-13T04:48:25Z</time>
      </trkpt>
      <trkpt lat="37.0094190" lon="-3.0101190">
        <ele>1055.8</ele>
        <time>2020-07-13T04:48:26Z</time>
      </trkpt>
      <trkpt lat="37.0094780" lon="-3.0100440">
        <ele>1056.6</ele>
        <time>2020-07-13T04:48:30Z</time>
      </trkpt>
      <trkpt lat="37.0094930" lon="-3.0100280">
        <ele>1056.8</ele>
        <time>2020-07-13T04:48:31Z</time>
      </trkpt>
      <trkpt lat="37.0095470" lon="-3.0099900">
        <ele>1057.4</ele>
        <time>2020-07-13T04:48:34Z</time>
      </trkpt>
      <trkpt lat="37.0095660" lon="-3.0099860">
        <ele>1057.6</ele>
        <time>2020-07-13T04:48:35Z</time>
      </trkpt>
      <trkpt lat="37.0096020" lon="-3.0099820">
        <ele>1058.0</ele>
        <time>2020-07-13T04:48:37Z</time>
      </trkpt>
      <trkpt lat="37.0096590" lon="-3.0099840">
        <ele>1058.6</ele>
        <time>2020-07-13T04:48:40Z</time>
      </trkpt>
      <trkpt lat="37.0096920" lon="-3.0100000">
        <ele>1059.2</ele>
        <time>2020-07-13T04:48:42Z</time>
      </trkpt>
      <trkpt lat="37.0097090" lon="-3.0100090">
        <ele>1059.4</ele>
        <time>2020-07-13T04:48:43Z</time>
      </trkpt>
      <trkpt lat="37.0097690" lon="-3.0100720">
        <ele>1060.2</ele>
        <time>2020-07-13T04:48:47Z</time>
      </trkpt>
      <trkpt lat="37.0097950" lon="-3.0101090">
        <ele>1060.6</ele>
        <time>2020-07-13T04:48:49Z</time>
      </trkpt>
      <trkpt lat="37.0098200" lon="-3.0101720">
        <ele>1061.2</ele>
        <time>2020-07-13T04:48:52Z</time>
      </trkpt>
      <trkpt lat="37.0098300" lon="-3.0102440">
        <ele>1062.0</ele>
        <time>2020-07-13T04:48:55Z</time>
      </trkpt>
      <trkpt lat="37.0098300" lon="-3.0102900">
        <ele>1062.4</ele>
        <time>2020-07-13T04:48:57Z</time>
      </trkpt>
      <trkpt lat="37.0098130" lon="-3.0103740">
        <ele>1063.2</ele>
        <time>2020-07-13T04:49:01Z</time>
      </trkpt>
      <trkpt lat="37.0098010" lon="-3.0104170">
        <ele>1063.6</ele>
        <time>2020-07-13T04:49:03Z</time>
      </trkpt>
      <trkpt lat="37.0097470" lon="-3.0105200">
        <ele>1064.8</ele>
        <time>2020-07-13T04:49:08Z</time>
      </trkpt>
      <trkpt lat="37.0096770" lon="-3.0106650">
        <ele>1065.8</ele>
        <time>2020-07-13T04:49:15Z</time>
      </trkpt>
      <trkpt lat="37.0096280" lon="-3.0108220">
        <ele>1066.8</ele>
        <time>2020-07-13T04:49:22Z</time>
      </trkpt>
      <trkpt lat="37.0096250" lon="-3.0108440">
        <ele>1067.0</ele>
        <time>2020-07-13T04:49:23Z</time>
      </trkpt>
      <trkpt lat="37.0096430" lon="-3.0109600">
        <ele>1067.8</ele>
        <time>2020-07-13T04:49:28Z</time>
      </trkpt>
      <trkpt lat="37.0096610" lon="-3.0110090">
        <ele>1068.2</ele>
        <time>2020-07-13T04:49:30Z</time>
      </trkpt>
      <trkpt lat="37.0096740" lon="-3.0111320">
        <ele>1068.8</ele>
        <time>2020-07-13T04:49:35Z</time>
      </trkpt>
      <trkpt lat="37.0096940" lon="-3.0111980">
        <ele>1069.4</ele>
        <time>2020-07-13T04:49:38Z</time>
      </trkpt>
      <trkpt lat="37.0097230" lon="-3.0112590">
        <ele>1070.0</ele>
        <time>2020-07-13T04:49:41Z</time>
      </trkpt>
      <trkpt lat="37.0097950" lon="-3.0113800">
        <ele>1071.0</ele>
        <time>2020-07-13T04:49:47Z</time>
      </trkpt>
      <trkpt lat="37.0098100" lon="-3.0113940">
        <ele>1071.0</ele>
        <time>2020-07-13T04:49:48Z</time>
      </trkpt>
      <trkpt lat="37.0099020" lon="-3.0114910">
        <ele>1072.0</ele>
        <time>2020-07-13T04:49:54Z</time>
      </trkpt>
      <trkpt lat="37.0099590" lon="-3.0115710">
        <ele>1072.8</ele>
        <time>2020-07-13T04:49:58Z</time>
      </trkpt>
      <trkpt lat="37.0099880" lon="-3.0116130">
        <ele>1073.2</ele>
        <time>2020-07-13T04:50:00Z</time>
      </trkpt>
      <trkpt lat="37.0100680" lon="-3.0117350">
        <ele>1074.2</ele>
        <time>2020-07-13T04:50:06Z</time>
      </trkpt>
      <trkpt lat="37.0101240" lon="-3.0118160">
        <ele>1074.8</ele>
        <time>2020-07-13T04:50:10Z</time>
      </trkpt>
      <trkpt lat="37.0101680" lon="-3.0118750">
        <ele>1075.2</ele>
        <time>2020-07-13T04:50:13Z</time>
      </trkpt>
      <trkpt lat="37.0102480" lon="-3.0120010">
        <ele>1076.2</ele>
        <time>2020-07-13T04:50:19Z</time>
      </trkpt>
      <trkpt lat="37.0102830" lon="-3.0120690">
        <ele>1076.6</ele>
        <time>2020-07-13T04:50:22Z</time>
      </trkpt>
      <trkpt lat="37.0103420" lon="-3.0121860">
        <ele>1077.4</ele>
        <time>2020-07-13T04:50:27Z</time>
      </trkpt>
      <trkpt lat="37.0103970" lon="-3.0123000">
        <ele>1078.0</ele>
        <time>2020-07-13T04:50:32Z</time>
      </trkpt>
      <trkpt lat="37.0104220" lon="-3.0123420">
        <ele>1078.4</ele>
        <time>2020-07-13T04:50:34Z</time>
      </trkpt>
      <trkpt lat="37.0104890" lon="-3.0124800">
        <ele>1079.4</ele>
        <time>2020-07-13T04:50:40Z</time>
      </trkpt>
      <trkpt lat="37.0104980" lon="-3.0125050">
        <ele>1079.6</ele>
        <time>2020-07-13T04:50:41Z</time>
      </trkpt>
      <trkpt lat="37.0105540" lon="-3.0126560">
        <ele>1080.6</ele>
        <time>2020-07-13T04:50:47Z</time>
      </trkpt>
      <trkpt lat="37.0105850" lon="-3.0127530">
        <ele>1081.4</ele>
        <time>2020-07-13T04:50:51Z</time>
      </trkpt>
      <trkpt lat="37.0106030" lon="-3.0128070">
        <ele>1081.8</ele>
        <time>2020-07-13T04:50:53Z</time>
      </trkpt>
      <trkpt lat="37.0106540" lon="-3.0129010">
        <ele>1082.2</ele>
        <time>2020-07-13T04:50:57Z</time>
      </trkpt>
      <trkpt lat="37.0106930" lon="-3.0130000">
        <ele>1082.8</ele>
        <time>2020-07-13T04:51:01Z</time>
      </trkpt>
      <trkpt lat="37.0107390" lon="-3.0131590">
        <ele>1084.0</ele>
        <time>2020-07-13T04:51:07Z</time>
      </trkpt>
      <trkpt lat="37.0107470" lon="-3.0131870">
        <ele>1084.0</ele>
        <time>2020-07-13T04:51:08Z</time>
      </trkpt>
      <trkpt lat="37.0107870" lon="-3.0133710">
        <ele>1085.0</ele>
        <time>2020-07-13T04:51:14Z</time>
      </trkpt>
      <trkpt lat="37.0107900" lon="-3.0134030">
        <ele>1085.2</ele>
        <time>2020-07-13T04:51:15Z</time>
      </trkpt>
      <trkpt lat="37.0108100" lon="-3.0135550">
        <ele>1086.0</ele>
        <time>2020-07-13T04:51:20Z</time>
      </trkpt>
      <trkpt lat="37.0108480" lon="-3.0137000">
        <ele>1086.8</ele>
        <time>2020-07-13T04:51:25Z</time>
      </trkpt>
      <trkpt lat="37.0108660" lon="-3.0137550">
        <ele>1087.2</ele>
        <time>2020-07-13T04:51:27Z</time>
      </trkpt>
      <trkpt lat="37.0109290" lon="-3.0139070">
        <ele>1088.4</ele>
        <time>2020-07-13T04:51:33Z</time>
      </trkpt>
      <trkpt lat="37.0109390" lon="-3.0139290">
        <ele>1088.6</ele>
        <time>2020-07-13T04:51:34Z</time>
      </trkpt>
      <trkpt lat="37.0109870" lon="-3.0140230">
        <ele>1089.4</ele>
        <time>2020-07-13T04:51:38Z</time>
      </trkpt>
      <trkpt lat="37.0110630" lon="-3.0141670">
        <ele>1090.4</ele>
        <time>2020-07-13T04:51:44Z</time>
      </trkpt>
      <trkpt lat="37.0111400" lon="-3.0143110">
        <ele>1091.4</ele>
        <time>2020-07-13T04:51:50Z</time>
      </trkpt>
      <trkpt lat="37.0112020" lon="-3.0144230">
        <ele>1092.4</ele>
        <time>2020-07-13T04:51:55Z</time>
      </trkpt>
      <trkpt lat="37.0112130" lon="-3.0144440">
        <ele>1092.4</ele>
        <time>2020-07-13T04:51:56Z</time>
      </trkpt>
      <trkpt lat="37.0112970" lon="-3.0146070">
        <ele>1093.6</ele>
        <time>2020-07-13T04:52:03Z</time>
      </trkpt>
      <trkpt lat="37.0113300" lon="-3.0146710">
        <ele>1094.0</ele>
        <time>2020-07-13T04:52:06Z</time>
      </trkpt>
      <trkpt lat="37.0113840" lon="-3.0147460">
        <ele>1094.8</ele>
        <time>2020-07-13T04:52:10Z</time>
      </trkpt>
      <trkpt lat="37.0114520" lon="-3.0147760">
        <ele>1095.6</ele>
        <time>2020-07-13T04:52:14Z</time>
      </trkpt>
      <trkpt lat="37.0114730" lon="-3.0147760">
        <ele>1095.8</ele>
        <time>2020-07-13T04:52:15Z</time>
      </trkpt>
      <trkpt lat="37.0115430" lon="-3.0147500">
        <ele>1096.8</ele>
        <time>2020-07-13T04:52:19Z</time>
      </trkpt>
      <trkpt lat="37.0115590" lon="-3.0147380">
        <ele>1097.2</ele>
        <time>2020-07-13T04:52:20Z</time>
      </trkpt>
      <trkpt lat="37.0116060" lon="-3.0146660">
        <ele>1098.0</ele>
        <time>2020-07-13T04:52:24Z</time>
      </trkpt>
      <trkpt lat="37.0116260" lon="-3.0145970">
        <ele>1098.8</ele>
        <time>2020-07-13T04:52:27Z</time>
      </trkpt>
      <trkpt lat="37.0116270" lon="-3.0145720">
        <ele>1099.2</ele>
        <time>2020-07-13T04:52:28Z</time>
      </trkpt>
      <trkpt lat="37.0116030" lon="-3.0144350">
        <ele>1100.2</ele>
        <time>2020-07-13T04:52:33Z</time>
      </trkpt>
      <trkpt lat="37.0115290" lon="-3.0142920">
        <ele>1101.4</ele>
        <time>2020-07-13T04:52:39Z</time>
      </trkpt>
      <trkpt lat="37.0115000" lon="-3.0142460">
        <ele>1101.6</ele>
        <time>2020-07-13T04:52:41Z</time>
      </trkpt>
      <trkpt lat="37.0114310" lon="-3.0141240">
        <ele>1102.4</ele>
        <time>2020-07-13T04:52:46Z</time>
      </trkpt>
      <trkpt lat="37.0113880" lon="-3.0140170">
        <ele>1103.2</ele>
        <time>2020-07-13T04:52:50Z</time>
      </trkpt>
      <trkpt lat="37.0113730" lon="-3.0139640">
        <ele>1103.4</ele>
        <time>2020-07-13T04:52:52Z</time>
      </trkpt>
      <trkpt lat="37.0113550" lon="-3.0137920">
        <ele>1104.4</ele>
        <time>2020-07-13T04:52:58Z</time>
      </trkpt>
      <trkpt lat="37.0113600" lon="-3.0137310">
        <ele>1104.8</ele>
        <time>2020-07-13T04:53:00Z</time>
      </trkpt>
      <trkpt lat="37.0113860" lon="-3.0136230">
        <ele>1105.6</ele>
        <time>2020-07-13T04:53:04Z</time>
      </trkpt>
      <trkpt lat="37.0114390" lon="-3.0135360">
        <ele>1106.4</ele>
        <time>2020-07-13T04:53:08Z</time>
      </trkpt>
      <trkpt lat="37.0114550" lon="-3.0135180">
        <ele>1106.6</ele>
        <time>2020-07-13T04:53:09Z</time>
      </trkpt>
      <trkpt lat="37.0115350" lon="-3.0134320">
        <ele>1107.8</ele>
        <time>2020-07-13T04:53:14Z</time>
      </trkpt>
      <trkpt lat="37.0115870" lon="-3.0133790">
        <ele>1108.4</ele>
        <time>2020-07-13T04:53:17Z</time>
      </trkpt>
      <trkpt lat="37.0116370" lon="-3.0133250">
        <ele>1108.8</ele>
        <time>2020-07-13T04:53:20Z</time>
      </trkpt>
      <trkpt lat="37.0117150" lon="-3.0132210">
        <ele>1109.8</ele>
        <time>2020-07-13T04:53:25Z</time>
      </trkpt>
      <trkpt lat="37.0117290" lon="-3.0131980">
        <ele>1110.2</ele>
        <time>2020-07-13T04:53:26Z</time>
      </trkpt>
      <trkpt lat="37.0117980" lon="-3.0130710">
        <ele>1111.0</ele>
        <time>2020-07-13T04:53:31Z</time>
      </trkpt>
      <trkpt lat="37.0118690" lon="-3.0129170">
        <ele>1112.0</ele>
        <time>2020-07-13T04:53:37Z</time>
      </trkpt>
      <trkpt lat="37.0118790" lon="-3.0128900">
        <ele>1112.2</ele>
        <time>2020-07-13T04:53:38Z</time>
      </trkpt>
      <trkpt lat="37.0119310" lon="-3.0126930">
        <ele>1113.2</ele>
        <time>2020-07-13T04:53:45Z</time>
      </trkpt>
      <trkpt lat="37.0119420" lon="-3.0126370">
        <ele>1113.6</ele>
        <time>2020-07-13T04:53:47Z</time>
      </trkpt>
      <trkpt lat="37.0119580" lon="-3.0125540">
        <ele>1114.2</ele>
        <time>2020-07-13T04:53:50Z</time>
      </trkpt>
      <trkpt lat="37.0119910" lon="-3.0124190">
        <ele>1115.2</ele>
        <time>2020-07-13T04:53:55Z</time>
      </trkpt>
      <trkpt lat="37.0119970" lon="-3.0123950">
        <ele>1115.4</ele>
        <time>2020-07-13T04:53:56Z</time>
      </trkpt>
      <trkpt lat="37.0120280" lon="-3.0122930">
        <ele>1116.4</ele>
        <time>2020-07-13T04:54:00Z</time>
      </trkpt>
      <trkpt lat="37.0120640" lon="-3.0122280">
        <ele>1117.0</ele>
        <time>2020-07-13T04:54:03Z</time>
      </trkpt>
      <trkpt lat="37.0120880" lon="-3.0121880">
        <ele>1117.4</ele>
        <time>2020-07-13T04:54:05Z</time>
      </trkpt>
      <trkpt lat="37.0121740" lon="-3.0121210">
        <ele>1118.6</ele>
        <time>2020-07-13T04:54:10Z</time>
      </trkpt>
      <trkpt lat="37.0122780" lon="-3.0120500">
        <ele>1119.8</ele>
        <time>2020-07-13T04:54:16Z</time>
      </trkpt>
      <trkpt lat="37.0123430" lon="-3.0120010">
        <ele>1120.6</ele>
        <time>2020-07-13T04:54:20Z</time>
      </trkpt>
      <trkpt lat="37.0123690" lon="-3.0119690">
        <ele>1121.0</ele>
        <time>2020-07-13T04:54:22Z</time>
      </trkpt>
      <trkpt lat="37.0124140" lon="-3.0119240">
        <ele>1121.4</ele>
        <time>2020-07-13T04:54:25Z</time>
      </trkpt>
      <trkpt lat="37.0124560" lon="-3.0118680">
        <ele>1122.0</ele>
        <time>2020-07-13T04:54:28Z</time>
      </trkpt>
      <trkpt lat="37.0124930" lon="-3.0117820">
        <ele>1123.0</ele>
        <time>2020-07-13T04:54:32Z</time>
      </trkpt>
      <trkpt lat="37.0124980" lon="-3.0117610">
        <ele>1123.2</ele>
        <time>2020-07-13T04:54:33Z</time>
      </trkpt>
      <trkpt lat="37.0125160" lon="-3.0116510">
        <ele>1124.2</ele>
        <time>2020-07-13T04:54:38Z</time>
      </trkpt>
      <trkpt lat="37.0125210" lon="-3.0116050">
        <ele>1124.8</ele>
        <time>2020-07-13T04:54:40Z</time>
      </trkpt>
      <trkpt lat="37.0125230" lon="-3.0115320">
        <ele>1125.4</ele>
        <time>2020-07-13T04:54:43Z</time>
      </trkpt>
      <trkpt lat="37.0125180" lon="-3.0114250">
        <ele>1126.2</ele>
        <time>2020-07-13T04:54:47Z</time>
      </trkpt>
      <trkpt lat="37.0125100" lon="-3.0113740">
        <ele>1126.6</ele>
        <time>2020-07-13T04:54:49Z</time>
      </trkpt>
      <trkpt lat="37.0124850" lon="-3.0112500">
        <ele>1127.8</ele>
        <time>2020-07-13T04:54:54Z</time>
      </trkpt>
      <trkpt lat="37.0124820" lon="-3.0112260">
        <ele>1128.0</ele>
        <time>2020-07-13T04:54:55Z</time>
      </trkpt>
      <trkpt lat="37.0124750" lon="-3.0111230">
        <ele>1128.8</ele>
        <time>2020-07-13T04:54:59Z</time>
      </trkpt>
      <trkpt lat="37.0124890" lon="-3.0110150">
        <ele>1129.6</ele>
        <time>2020-07-13T04:55:03Z</time>
      </trkpt>
      <trkpt lat="37.0125030" lon="-3.0109630">
        <ele>1129.8</ele>
        <time>2020-07-13T04:55:05Z</time>
      </trkpt>
      <trkpt lat="37.0125660" lon="-3.0108170">
        <ele>1131.0</ele>
        <time>2020-07-13T04:55:11Z</time>
      </trkpt>
      <trkpt lat="37.0125930" lon="-3.0107700">
        <ele>1131.2</ele>
        <time>2020-07-13T04:55:13Z</time>
      </trkpt>
      <trkpt lat="37.0126740" lon="-3.0106660">
        <ele>1132.0</ele>
        <time>2020-07-13T04:55:18Z</time>
      </trkpt>
      <trkpt lat="37.0127580" lon="-3.0105610">
        <ele>1132.8</ele>
        <time>2020-07-13T04:55:23Z</time>
      </trkpt>
      <trkpt lat="37.0127770" lon="-3.0105430">
        <ele>1133.0</ele>
        <time>2020-07-13T04:55:24Z</time>
      </trkpt>
      <trkpt lat="37.0128870" lon="-3.0104320">
        <ele>1134.2</ele>
        <time>2020-07-13T04:55:30Z</time>
      </trkpt>
      <trkpt lat="37.0129580" lon="-3.0103610">
        <ele>1135.0</ele>
        <time>2020-07-13T04:55:34Z</time>
      </trkpt>
      <trkpt lat="37.0129940" lon="-3.0103230">
        <ele>1135.4</ele>
        <time>2020-07-13T04:55:36Z</time>
      </trkpt>
      <trkpt lat="37.0130790" lon="-3.0101730">
        <ele>1136.4</ele>
        <time>2020-07-13T04:55:42Z</time>
      </trkpt>
      <trkpt lat="37.0131270" lon="-3.0100070">
        <ele>1137.6</ele>
        <time>2020-07-13T04:55:48Z</time>
      </trkpt>
      <trkpt lat="37.0131460" lon="-3.0098940">
        <ele>1138.4</ele>
        <time>2020-07-13T04:55:52Z</time>
      </trkpt>
      <trkpt lat="37.0131480" lon="-3.0098650">
        <ele>1138.6</ele>
        <time>2020-07-13T04:55:53Z</time>
      </trkpt>
      <trkpt lat="37.0131790" lon="-3.0096930">
        <ele>1139.8</ele>
        <time>2020-07-13T04:55:59Z</time>
      </trkpt>
      <trkpt lat="37.0132020" lon="-3.0096060">
        <ele>1140.4</ele>
        <time>2020-07-13T04:56:02Z</time>
      </trkpt>
      <trkpt lat="37.0132300" lon="-3.0095240">
        <ele>1141.0</ele>
        <time>2020-07-13T04:56:05Z</time>
      </trkpt>
      <trkpt lat="37.0133020" lon="-3.0093780">
        <ele>1142.0</ele>
        <time>2020-07-13T04:56:11Z</time>
      </trkpt>
      <trkpt lat="37.0133940" lon="-3.0092480">
        <ele>1143.2</ele>
        <time>2020-07-13T04:56:17Z</time>
      </trkpt>
      <trkpt lat="37.0134760" lon="-3.0091510">
        <ele>1144.2</ele>
        <time>2020-07-13T04:56:22Z</time>
      </trkpt>
      <trkpt lat="37.0135810" lon="-3.0090490">
        <ele>1145.4</ele>
        <time>2020-07-13T04:56:28Z</time>
      </trkpt>
      <trkpt lat="37.0136440" lon="-3.0089960">
        <ele>1145.8</ele>
        <time>2020-07-13T04:56:31Z</time>
      </trkpt>
      <trkpt lat="37.0137110" lon="-3.0089560">
        <ele>1146.4</ele>
        <time>2020-07-13T04:56:34Z</time>
      </trkpt>
      <trkpt lat="37.0138670" lon="-3.0088580">
        <ele>1147.6</ele>
        <time>2020-07-13T04:56:41Z</time>
      </trkpt>
      <trkpt lat="37.0140040" lon="-3.0087740">
        <ele>1148.6</ele>
        <time>2020-07-13T04:56:47Z</time>
      </trkpt>
      <trkpt lat="37.0140860" lon="-3.0087010">
        <ele>1149.4</ele>
        <time>2020-07-13T04:56:51Z</time>
      </trkpt>
      <trkpt lat="37.0141260" lon="-3.0086570">
        <ele>1149.6</ele>
        <time>2020-07-13T04:56:53Z</time>
      </trkpt>
      <trkpt lat="37.0142480" lon="-3.0085380">
        <ele>1150.8</ele>
        <time>2020-07-13T04:56:59Z</time>
      </trkpt>
      <trkpt lat="37.0142950" lon="-3.0085140">
        <ele>1151.0</ele>
        <time>2020-07-13T04:57:01Z</time>
      </trkpt>
      <trkpt lat="37.0143950" lon="-3.0084900">
        <ele>1151.8</ele>
        <time>2020-07-13T04:57:05Z</time>
      </trkpt>
      <trkpt lat="37.0144970" lon="-3.0084890">
        <ele>1152.6</ele>
        <time>2020-07-13T04:57:09Z</time>
      </trkpt>
      <trkpt lat="37.0145210" lon="-3.0084880">
        <ele>1152.8</ele>
        <time>2020-07-13T04:57:10Z</time>
      </trkpt>
      <trkpt lat="37.0146480" lon="-3.0084770">
        <ele>1153.8</ele>
        <time>2020-07-13T04:57:15Z</time>
      </trkpt>
      <trkpt lat="37.0147980" lon="-3.0084670">
        <ele>1155.0</ele>
        <time>2020-07-13T04:57:21Z</time>
      </trkpt>
      <trkpt lat="37.0148510" lon="-3.0084630">
        <ele>1155.4</ele>
        <time>2020-07-13T04:57:23Z</time>
      </trkpt>
      <trkpt lat="37.0149500" lon="-3.0084360">
        <ele>1156.0</ele>
        <time>2020-07-13T04:57:27Z</time>
      </trkpt>
      <trkpt lat="37.0150690" lon="-3.0083850">
        <ele>1157.0</ele>
        <time>2020-07-13T04:57:32Z</time>
      </trkpt>
      <trkpt lat="37.0150940" lon="-3.0083750">
        <ele>1157.2</ele>
        <time>2020-07-13T04:57:33Z</time>
      </trkpt>
      <trkpt lat="37.0152050" lon="-3.0083250">
        <ele>1158.2</ele>
        <time>2020-07-13T04:57:38Z</time>
      </trkpt>
      <trkpt lat="37.0152690" lon="-3.0082920">
        <ele>1158.8</ele>
        <time>2020-07-13T04:57:41Z</time>
      </trkpt>
      <trkpt lat="37.0153360" lon="-3.0082590">
        <ele>1159.4</ele>
        <time>2020-07-13T04:57:44Z</time>
      </trkpt>
      <trkpt lat="37.0154680" lon="-3.0081990">
        <ele>1160.4</ele>
        <time>2020-07-13T04:57:50Z</time>
      </trkpt>
      <trkpt lat="37.0155130" lon="-3.0081780">
        <ele>1160.8</ele>
        <time>2020-07-13T04:57:52Z</time>
      </trkpt>
      <trkpt lat="37.0156010" lon="-3.0081390">
        <ele>1161.6</ele>
        <time>2020-07-13T04:57:56Z</time>
      </trkpt>
      <trkpt lat="37.0157180" lon="-3.0080960">
        <ele>1162.6</ele>
        <time>2020-07-13T04:58:01Z</time>
      </trkpt>
      <trkpt lat="37.0158530" lon="-3.0080320">
        <ele>1163.6</ele>
        <time>2020-07-13T04:58:07Z</time>
      </trkpt>
      <trkpt lat="37.0158950" lon="-3.0080010">
        <ele>1164.0</ele>
        <time>2020-07-13T04:58:09Z</time>
      </trkpt>
      <trkpt lat="37.0159710" lon="-3.0079280">
        <ele>1164.6</ele>
        <time>2020-07-13T04:58:13Z</time>
      </trkpt>
      <trkpt lat="37.0160370" lon="-3.0078320">
        <ele>1165.6</ele>
        <time>2020-07-13T04:58:17Z</time>
      </trkpt>
      <trkpt lat="37.0160510" lon="-3.0078070">
        <ele>1165.8</ele>
        <time>2020-07-13T04:58:18Z</time>
      </trkpt>
      <trkpt lat="37.0161420" lon="-3.0076520">
        <ele>1166.8</ele>
        <time>2020-07-13T04:58:24Z</time>
      </trkpt>
      <trkpt lat="37.0161860" lon="-3.0075640">
        <ele>1167.4</ele>
        <time>2020-07-13T04:58:27Z</time>
      </trkpt>
      <trkpt lat="37.0162340" lon="-3.0074880">
        <ele>1168.0</ele>
        <time>2020-07-13T04:58:30Z</time>
      </trkpt>
      <trkpt lat="37.0163240" lon="-3.0073390">
        <ele>1169.0</ele>
        <time>2020-07-13T04:58:36Z</time>
      </trkpt>
      <trkpt lat="37.0163410" lon="-3.0073140">
        <ele>1169.4</ele>
        <time>2020-07-13T04:58:37Z</time>
      </trkpt>
      <trkpt lat="37.0164010" lon="-3.0072230">
        <ele>1170.2</ele>
        <time>2020-07-13T04:58:41Z</time>
      </trkpt>
      <trkpt lat="37.0165000" lon="-3.0070930">
        <ele>1171.2</ele>
        <time>2020-07-13T04:58:47Z</time>
      </trkpt>
      <trkpt lat="37.0166050" lon="-3.0069750">
        <ele>1172.4</ele>
        <time>2020-07-13T04:58:53Z</time>
      </trkpt>
      <trkpt lat="37.0167000" lon="-3.0068820">
        <ele>1173.2</ele>
        <time>2020-07-13T04:58:58Z</time>
      </trkpt>
      <trkpt lat="37.0167210" lon="-3.0068640">
        <ele>1173.4</ele>
        <time>2020-07-13T04:58:59Z</time>
      </trkpt>
      <trkpt lat="37.0168390" lon="-3.0067560">
        <ele>1174.6</ele>
        <time>2020-07-13T04:59:05Z</time>
      </trkpt>
      <trkpt lat="37.0169140" lon="-3.0066770">
        <ele>1175.2</ele>
        <time>2020-07-13T04:59:09Z</time>
      </trkpt>
      <trkpt lat="37.0169700" lon="-3.0066190">
        <ele>1175.8</ele>
        <time>2020-07-13T04:59:12Z</time>
      </trkpt>
      <trkpt lat="37.0170900" lon="-3.0065030">
        <ele>1176.8</ele>
        <time>2020-07-13T04:59:18Z</time>
      </trkpt>
      <trkpt lat="37.0171900" lon="-3.0064070">
        <ele>1177.8</ele>
        <time>2020-07-13T04:59:23Z</time>
      </trkpt>
      <trkpt lat="37.0173090" lon="-3.0062990">
        <ele>1179.0</ele>
        <time>2020-07-13T04:59:29Z</time>
      </trkpt>
      <trkpt lat="37.0173340" lon="-3.0062770">
        <ele>1179.2</ele>
        <time>2020-07-13T04:59:30Z</time>
      </trkpt>
      <trkpt lat="37.0174130" lon="-3.0061990">
        <ele>1180.0</ele>
        <time>2020-07-13T04:59:34Z</time>
      </trkpt>
      <trkpt lat="37.0175400" lon="-3.0060930">
        <ele>1181.2</ele>
        <time>2020-07-13T04:59:40Z</time>
      </trkpt>
      <trkpt lat="37.0176070" lon="-3.0060420">
        <ele>1181.6</ele>
        <time>2020-07-13T04:59:43Z</time>
      </trkpt>
      <trkpt lat="37.0176730" lon="-3.0060010">
        <ele>1182.4</ele>
        <time>2020-07-13T04:59:46Z</time>
      </trkpt>
      <trkpt lat="37.0178190" lon="-3.0059340">
        <ele>1183.4</ele>
        <time>2020-07-13T04:59:52Z</time>
      </trkpt>
      <trkpt lat="37.0179570" lon="-3.0058690">
        <ele>1184.6</ele>
        <time>2020-07-13T04:59:58Z</time>
      </trkpt>
      <trkpt lat="37.0180500" lon="-3.0058370">
        <ele>1185.4</ele>
        <time>2020-07-13T05:00:02Z</time>
      </trkpt>
      <trkpt lat="37.0180730" lon="-3.0058330">
        <ele>1185.6</ele>
        <time>2020-07-13T05:00:03Z</time>
      </trkpt>
      <trkpt lat="37.0182110" lon="-3.0058130">
        <ele>1186.8</ele>
        <time>2020-07-13T05:00:09Z</time>
      </trkpt>
      <trkpt lat="37.0182540" lon="-3.0058010">
        <ele>1187.2</ele>
        <time>2020-07-13T05:00:11Z</time>
      </trkpt>
      <trkpt lat="37.0183480" lon="-3.0057740">
        <ele>1187.8</ele>
        <time>2020-07-13T05:00:15Z</time>
      </trkpt>
      <trkpt lat="37.0184710" lon="-3.0057460">
        <ele>1188.8</ele>
        <time>2020-07-13T05:00:20Z</time>
      </trkpt>
      <trkpt lat="37.0184940" lon="-3.0057430">
        <ele>1189.0</ele>
        <time>2020-07-13T05:00:21Z</time>
      </trkpt>
      <trkpt lat="37.0186130" lon="-3.0057190">
        <ele>1190.0</ele>
        <time>2020-07-13T05:00:26Z</time>
      </trkpt>
      <trkpt lat="37.0187110" lon="-3.0057010">
        <ele>1191.0</ele>
        <time>2020-07-13T05:00:30Z</time>
      </trkpt>
      <trkpt lat="37.0187330" lon="-3.0056960">
        <ele>1191.2</ele>
        <time>2020-07-13T05:00:31Z</time>
      </trkpt>
      <trkpt lat="37.0188750" lon="-3.0056470">
        <ele>1192.2</ele>
        <time>2020-07-13T05:00:37Z</time>
      </trkpt>
      <trkpt lat="37.0189220" lon="-3.0056270">
        <ele>1192.6</ele>
        <time>2020-07-13T05:00:39Z</time>
      </trkpt>
      <trkpt lat="37.0190140" lon="-3.0055900">
        <ele>1193.2</ele>
        <time>2020-07-13T05:00:43Z</time>
      </trkpt>
      <trkpt lat="37.0191480" lon="-3.0055260">
        <ele>1194.4</ele>
        <time>2020-07-13T05:00:49Z</time>
      </trkpt>
      <trkpt lat="37.0191700" lon="-3.0055130">
        <ele>1194.6</ele>
        <time>2020-07-13T05:00:50Z</time>
      </trkpt>
      <trkpt lat="37.0192810" lon="-3.0054600">
        <ele>1195.4</ele>
        <time>2020-07-13T05:00:55Z</time>
      </trkpt>
      <trkpt lat="37.0194100" lon="-3.0054160">
        <ele>1196.4</ele>
        <time>2020-07-13T05:01:01Z</time>
      </trkpt>
      <trkpt lat="37.0194480" lon="-3.0054070">
        <ele>1196.6</ele>
        <time>2020-07-13T05:01:02Z</time>
      </trkpt>
      <trkpt lat="37.0195730" lon="-3.0053820">
        <ele>1197.6</ele>
        <time>2020-07-13T05:01:07Z</time>
      </trkpt>
      <trkpt lat="37.0196690" lon="-3.0053840">
        <ele>1198.6</ele>
        <time>2020-07-13T05:01:11Z</time>
      </trkpt>
      <trkpt lat="37.0196950" lon="-3.0053830">
        <ele>1198.8</ele>
        <time>2020-07-13T05:01:12Z</time>
      </trkpt>
      <trkpt lat="37.0198390" lon="-3.0053750">
        <ele>1200.0</ele>
        <time>2020-07-13T05:01:18Z</time>
      </trkpt>
      <trkpt lat="37.0199370" lon="-3.0053750">
        <ele>1200.6</ele>
        <time>2020-07-13T05:01:22Z</time>
      </trkpt>
      <trkpt lat="37.0199890" lon="-3.0053750">
        <ele>1201.0</ele>
        <time>2020-07-13T05:01:24Z</time>
      </trkpt>
      <trkpt lat="37.0201360" lon="-3.0053710">
        <ele>1202.2</ele>
        <time>2020-07-13T05:01:30Z</time>
      </trkpt>
      <trkpt lat="37.0202980" lon="-3.0053380">
        <ele>1203.2</ele>
        <time>2020-07-13T05:01:37Z</time>
      </trkpt>
      <trkpt lat="37.0203930" lon="-3.0052810">
        <ele>1204.2</ele>
        <time>2020-07-13T05:01:41Z</time>
      </trkpt>
      <trkpt lat="37.0204170" lon="-3.0052610">
        <ele>1204.4</ele>
        <time>2020-07-13T05:01:42Z</time>
      </trkpt>
      <trkpt lat="37.0205860" lon="-3.0050920">
        <ele>1205.4</ele>
        <time>2020-07-13T05:01:50Z</time>
      </trkpt>
      <trkpt lat="37.0206450" lon="-3.0050220">
        <ele>1205.8</ele>
        <time>2020-07-13T05:01:53Z</time>
      </trkpt>
      <trkpt lat="37.0207330" lon="-3.0049440">
        <ele>1206.6</ele>
        <time>2020-07-13T05:01:57Z</time>
      </trkpt>
      <trkpt lat="37.0208300" lon="-3.0048990">
        <ele>1207.4</ele>
        <time>2020-07-13T05:02:01Z</time>
      </trkpt>
      <trkpt lat="37.0208810" lon="-3.0048880">
        <ele>1207.6</ele>
        <time>2020-07-13T05:02:03Z</time>
      </trkpt>
      <trkpt lat="37.0209960" lon="-3.0048870">
        <ele>1208.8</ele>
        <time>2020-07-13T05:02:08Z</time>
      </trkpt>
      <trkpt lat="37.0210150" lon="-3.0048940">
        <ele>1209.0</ele>
        <time>2020-07-13T05:02:09Z</time>
      </trkpt>
      <trkpt lat="37.0210650" lon="-3.0049420">
        <ele>1210.0</ele>
        <time>2020-07-13T05:02:12Z</time>
      </trkpt>
      <trkpt lat="37.0211040" lon="-3.0050100">
        <ele>1210.8</ele>
        <time>2020-07-13T05:02:15Z</time>
      </trkpt>
      <trkpt lat="37.0211150" lon="-3.0050290">
        <ele>1211.0</ele>
        <time>2020-07-13T05:02:16Z</time>
      </trkpt>
      <trkpt lat="37.0211390" lon="-3.0051450">
        <ele>1212.2</ele>
        <time>2020-07-13T05:02:20Z</time>
      </trkpt>
      <trkpt lat="37.0211380" lon="-3.0051740">
        <ele>1212.4</ele>
        <time>2020-07-13T05:02:21Z</time>
      </trkpt>
      <trkpt lat="37.0211290" lon="-3.0052730">
        <ele>1213.2</ele>
        <time>2020-07-13T05:02:24Z</time>
      </trkpt>
      <trkpt lat="37.0210690" lon="-3.0054210">
        <ele>1214.0</ele>
        <time>2020-07-13T05:02:29Z</time>
      </trkpt>
      <trkpt lat="37.0210560" lon="-3.0054420">
        <ele>1214.2</ele>
        <time>2020-07-13T05:02:30Z</time>
      </trkpt>
      <trkpt lat="37.0209100" lon="-3.0055950">
        <ele>1215.2</ele>
        <time>2020-07-13T05:02:37Z</time>
      </trkpt>
      <trkpt lat="37.0208880" lon="-3.0056130">
        <ele>1215.4</ele>
        <time>2020-07-13T05:02:38Z</time>
      </trkpt>
      <trkpt lat="37.0207800" lon="-3.0057030">
        <ele>1216.4</ele>
        <time>2020-07-13T05:02:43Z</time>
      </trkpt>
      <trkpt lat="37.0206510" lon="-3.0058220">
        <ele>1217.4</ele>
        <time>2020-07-13T05:02:49Z</time>
      </trkpt>
      <trkpt lat="37.0205210" lon="-3.0059280">
        <ele>1218.4</ele>
        <time>2020-07-13T05:02:55Z</time>
      </trkpt>
      <trkpt lat="37.0204170" lon="-3.0060100">
        <ele>1219.4</ele>
        <time>2020-07-13T05:03:00Z</time>
      </trkpt>
      <trkpt lat="37.0203950" lon="-3.0060260">
        <ele>1219.6</ele>
        <time>2020-07-13T05:03:01Z</time>
      </trkpt>
      <trkpt lat="37.0202670" lon="-3.0061340">
        <ele>1220.6</ele>
        <time>2020-07-13T05:03:07Z</time>
      </trkpt>
      <trkpt lat="37.0202030" lon="-3.0061820">
        <ele>1221.2</ele>
        <time>2020-07-13T05:03:10Z</time>
      </trkpt>
      <trkpt lat="37.0201390" lon="-3.0062340">
        <ele>1221.8</ele>
        <time>2020-07-13T05:03:13Z</time>
      </trkpt>
      <trkpt lat="37.0200090" lon="-3.0063350">
        <ele>1222.8</ele>
        <time>2020-07-13T05:03:19Z</time>
      </trkpt>
      <trkpt lat="37.0199480" lon="-3.0063880">
        <ele>1223.4</ele>
        <time>2020-07-13T05:03:22Z</time>
      </trkpt>
      <trkpt lat="37.0198830" lon="-3.0064370">
        <ele>1224.0</ele>
        <time>2020-07-13T05:03:25Z</time>
      </trkpt>
      <trkpt lat="37.0197790" lon="-3.0065220">
        <ele>1225.0</ele>
        <time>2020-07-13T05:03:30Z</time>
      </trkpt>
      <trkpt lat="37.0196990" lon="-3.0065890">
        <ele>1225.8</ele>
        <time>2020-07-13T05:03:34Z</time>
      </trkpt>
      <trkpt lat="37.0196560" lon="-3.0066190">
        <ele>1226.0</ele>
        <time>2020-07-13T05:03:36Z</time>
      </trkpt>
      <trkpt lat="37.0195580" lon="-3.0067030">
        <ele>1227.2</ele>
        <time>2020-07-13T05:03:41Z</time>
      </trkpt>
      <trkpt lat="37.0195180" lon="-3.0067370">
        <ele>1227.6</ele>
        <time>2020-07-13T05:03:43Z</time>
      </trkpt>
      <trkpt lat="37.0194390" lon="-3.0068020">
        <ele>1228.2</ele>
        <time>2020-07-13T05:03:47Z</time>
      </trkpt>
      <trkpt lat="37.0193400" lon="-3.0068780">
        <ele>1229.4</ele>
        <time>2020-07-13T05:03:52Z</time>
      </trkpt>
      <trkpt lat="37.0192970" lon="-3.0069090">
        <ele>1229.8</ele>
        <time>2020-07-13T05:03:54Z</time>
      </trkpt>
      <trkpt lat="37.0192390" lon="-3.0069630">
        <ele>1230.4</ele>
        <time>2020-07-13T05:03:57Z</time>
      </trkpt>
      <trkpt lat="37.0191160" lon="-3.0070620">
        <ele>1231.6</ele>
        <time>2020-07-13T05:04:03Z</time>
      </trkpt>
      <trkpt lat="37.0190740" lon="-3.0070960">
        <ele>1231.8</ele>
        <time>2020-07-13T05:04:05Z</time>
      </trkpt>
      <trkpt lat="37.0189940" lon="-3.0071670">
        <ele>1232.6</ele>
        <time>2020-07-13T05:04:09Z</time>
      </trkpt>
      <trkpt lat="37.0188560" lon="-3.0072870">
        <ele>1233.8</ele>
        <time>2020-07-13T05:04:16Z</time>
      </trkpt>
      <trkpt lat="37.0188340" lon="-3.0073070">
        <ele>1234.0</ele>
        <time>2020-07-13T05:04:17Z</time>
      </trkpt>
      <trkpt lat="37.0187320" lon="-3.0074000">
        <ele>1234.8</ele>
        <time>2020-07-13T05:04:22Z</time>
      </trkpt>
      <trkpt lat="37.0186500" lon="-3.0075240">
        <ele>1235.8</ele>
        <time>2020-07-13T05:04:27Z</time>
      </trkpt>
      <trkpt lat="37.0186410" lon="-3.0075520">
        <ele>1236.0</ele>
        <time>2020-07-13T05:04:28Z</time>
      </trkpt>
      <trkpt lat="37.0186250" lon="-3.0077340">
        <ele>1237.0</ele>
        <time>2020-07-13T05:04:34Z</time>
      </trkpt>
      <trkpt lat="37.0186900" lon="-3.0078910">
        <ele>1238.2</ele>
        <time>2020-07-13T05:04:40Z</time>
      </trkpt>
      <trkpt lat="37.0187970" lon="-3.0079570">
        <ele>1239.4</ele>
        <time>2020-07-13T05:04:45Z</time>
      </trkpt>
      <trkpt lat="37.0188180" lon="-3.0079620">
        <ele>1239.6</ele>
        <time>2020-07-13T05:04:46Z</time>
      </trkpt>
      <trkpt lat="37.0189150" lon="-3.0079600">
        <ele>1240.6</ele>
        <time>2020-07-13T05:04:50Z</time>
      </trkpt>
      <trkpt lat="37.0189900" lon="-3.0079420">
        <ele>1241.2</ele>
        <time>2020-07-13T05:04:53Z</time>
      </trkpt>
      <trkpt lat="37.0190380" lon="-3.0079270">
        <ele>1241.6</ele>
        <time>2020-07-13T05:04:55Z</time>
      </trkpt>
      <trkpt lat="37.0191810" lon="-3.0078810">
        <ele>1242.8</ele>
        <time>2020-07-13T05:05:01Z</time>
      </trkpt>
      <trkpt lat="37.0192490" lon="-3.0078550">
        <ele>1243.4</ele>
        <time>2020-07-13T05:05:04Z</time>
      </trkpt>
      <trkpt lat="37.0193220" lon="-3.0078290">
        <ele>1243.8</ele>
        <time>2020-07-13T05:05:07Z</time>
      </trkpt>
      <trkpt lat="37.0194650" lon="-3.0077800">
        <ele>1244.8</ele>
        <time>2020-07-13T05:05:13Z</time>
      </trkpt>
      <trkpt lat="37.0195110" lon="-3.0077650">
        <ele>1245.2</ele>
        <time>2020-07-13T05:05:15Z</time>
      </trkpt>
      <trkpt lat="37.0196040" lon="-3.0077300">
        <ele>1246.0</ele>
        <time>2020-07-13T05:05:19Z</time>
      </trkpt>
      <trkpt lat="37.0197000" lon="-3.0077010">
        <ele>1246.8</ele>
        <time>2020-07-13T05:05:23Z</time>
      </trkpt>
      <trkpt lat="37.0197250" lon="-3.0076950">
        <ele>1247.0</ele>
        <time>2020-07-13T05:05:24Z</time>
      </trkpt>
      <trkpt lat="37.0198740" lon="-3.0076610">
        <ele>1248.0</ele>
        <time>2020-07-13T05:05:30Z</time>
      </trkpt>
      <trkpt lat="37.0199980" lon="-3.0076500">
        <ele>1249.0</ele>
        <time>2020-07-13T05:05:35Z</time>
      </trkpt>
      <trkpt lat="37.0201510" lon="-3.0076450">
        <ele>1250.2</ele>
        <time>2020-07-13T05:05:41Z</time>
      </trkpt>
      <trkpt lat="37.0202830" lon="-3.0076520">
        <ele>1251.2</ele>
        <time>2020-07-13T05:05:46Z</time>
      </trkpt>
      <trkpt lat="37.0203120" lon="-3.0076520">
        <ele>1251.2</ele>
        <time>2020-07-13T05:05:47Z</time>
      </trkpt>
      <trkpt lat="37.0204680" lon="-3.0076400">
        <ele>1252.4</ele>
        <time>2020-07-13T05:05:53Z</time>
      </trkpt>
      <trkpt lat="37.0205690" lon="-3.0076170">
        <ele>1253.2</ele>
        <time>2020-07-13T05:05:57Z</time>
      </trkpt>
      <trkpt lat="37.0205930" lon="-3.0076110">
        <ele>1253.4</ele>
        <time>2020-07-13T05:05:58Z</time>
      </trkpt>
      <trkpt lat="37.0207420" lon="-3.0075700">
        <ele>1254.4</ele>
        <time>2020-07-13T05:06:04Z</time>
      </trkpt>
      <trkpt lat="37.0208460" lon="-3.0075470">
        <ele>1255.2</ele>
        <time>2020-07-13T05:06:08Z</time>
      </trkpt>
      <trkpt lat="37.0208960" lon="-3.0075320">
        <ele>1255.6</ele>
        <time>2020-07-13T05:06:10Z</time>
      </trkpt>
      <trkpt lat="37.0210200" lon="-3.0074850">
        <ele>1256.6</ele>
        <time>2020-07-13T05:06:15Z</time>
      </trkpt>
      <trkpt lat="37.0210700" lon="-3.0074690">
        <ele>1257.0</ele>
        <time>2020-07-13T05:06:17Z</time>
      </trkpt>
      <trkpt lat="37.0211690" lon="-3.0074390">
        <ele>1257.6</ele>
        <time>2020-07-13T05:06:21Z</time>
      </trkpt>
      <trkpt lat="37.0213250" lon="-3.0073910">
        <ele>1258.8</ele>
        <time>2020-07-13T05:06:27Z</time>
      </trkpt>
      <trkpt lat="37.0213760" lon="-3.0073790">
        <ele>1259.2</ele>
        <time>2020-07-13T05:06:29Z</time>
      </trkpt>
      <trkpt lat="37.0214550" lon="-3.0073600">
        <ele>1259.8</ele>
        <time>2020-07-13T05:06:32Z</time>
      </trkpt>
      <trkpt lat="37.0216160" lon="-3.0073380">
        <ele>1260.8</ele>
        <time>2020-07-13T05:06:38Z</time>
      </trkpt>
      <trkpt lat="37.0216680" lon="-3.0073320">
        <ele>1261.2</ele>
        <time>2020-07-13T05:06:40Z</time>
      </trkpt>
      <trkpt lat="37.0218050" lon="-3.0073100">
        <ele>1261.8</ele>
        <time>2020-07-13T05:06:45Z</time>
      </trkpt>
      <trkpt lat="37.0219630" lon="-3.0072500">
        <ele>1262.6</ele>
        <time>2020-07-13T05:06:51Z</time>
      </trkpt>
      <trkpt lat="37.0219890" lon="-3.0072390">
        <ele>1262.8</ele>
        <time>2020-07-13T05:06:52Z</time>
      </trkpt>
      <trkpt lat="37.0221450" lon="-3.0071810">
        <ele>1263.8</ele>
        <time>2020-07-13T05:06:58Z</time>
      </trkpt>
      <trkpt lat="37.0222500" lon="-3.0071510">
        <ele>1264.4</ele>
        <time>2020-07-13T05:07:02Z</time>
      </trkpt>
      <trkpt lat="37.0222770" lon="-3.0071470">
        <ele>1264.6</ele>
        <time>2020-07-13T05:07:03Z</time>
      </trkpt>
      <trkpt lat="37.0223270" lon="-3.0071430">
        <ele>1265.0</ele>
        <time>2020-07-13T05:07:05Z</time>
      </trkpt>
      <trkpt lat="37.0224790" lon="-3.0071530">
        <ele>1266.0</ele>
        <time>2020-07-13T05:07:11Z</time>
      </trkpt>
      <trkpt lat="37.0225320" lon="-3.0071620">
        <ele>1266.4</ele>
        <time>2020-07-13T05:07:13Z</time>
      </trkpt>
      <trkpt lat="37.0226360" lon="-3.0071760">
        <ele>1267.2</ele>
        <time>2020-07-13T05:07:17Z</time>
      </trkpt>
      <trkpt lat="37.0228060" lon="-3.0071970">
        <ele>1268.2</ele>
        <time>2020-07-13T05:07:24Z</time>
      </trkpt>
      <trkpt lat="37.0228320" lon="-3.0071960">
        <ele>1268.4</ele>
        <time>2020-07-13T05:07:25Z</time>
      </trkpt>
      <trkpt lat="37.0229730" lon="-3.0071580">
        <ele>1269.4</ele>
        <time>2020-07-13T05:07:30Z</time>
      </trkpt>
      <trkpt lat="37.0230450" lon="-3.0071290">
        <ele>1270.0</ele>
        <time>2020-07-13T05:07:33Z</time>
      </trkpt>
      <trkpt lat="37.0231430" lon="-3.0070970">
        <ele>1270.6</ele>
        <time>2020-07-13T05:07:37Z</time>
      </trkpt>
      <trkpt lat="37.0232900" lon="-3.0070360">
        <ele>1271.8</ele>
        <time>2020-07-13T05:07:43Z</time>
      </trkpt>
      <trkpt lat="37.0234380" lon="-3.0069750">
        <ele>1272.8</ele>
        <time>2020-07-13T05:07:49Z</time>
      </trkpt>
      <trkpt lat="37.0235470" lon="-3.0069430">
        <ele>1273.2</ele>
        <time>2020-07-13T05:07:53Z</time>
      </trkpt>
      <trkpt lat="37.0236200" lon="-3.0069440">
        <ele>1274.0</ele>
        <time>2020-07-13T05:07:56Z</time>
      </trkpt>
      <trkpt lat="37.0237120" lon="-3.0069780">
        <ele>1274.8</ele>
        <time>2020-07-13T05:08:00Z</time>
      </trkpt>
      <trkpt lat="37.0237280" lon="-3.0069930">
        <ele>1275.0</ele>
        <time>2020-07-13T05:08:01Z</time>
      </trkpt>
      <trkpt lat="37.0238140" lon="-3.0070910">
        <ele>1276.2</ele>
        <time>2020-07-13T05:08:06Z</time>
      </trkpt>
      <trkpt lat="37.0238300" lon="-3.0072010">
        <ele>1277.2</ele>
        <time>2020-07-13T05:08:10Z</time>
      </trkpt>
      <trkpt lat="37.0238250" lon="-3.0072600">
        <ele>1277.6</ele>
        <time>2020-07-13T05:08:12Z</time>
      </trkpt>
      <trkpt lat="37.0237940" lon="-3.0073390">
        <ele>1278.2</ele>
        <time>2020-07-13T05:08:15Z</time>
      </trkpt>
      <trkpt lat="37.0237360" lon="-3.0074230">
        <ele>1279.2</ele>
        <time>2020-07-13T05:08:19Z</time>
      </trkpt>
      <trkpt lat="37.0237170" lon="-3.0074420">
        <ele>1279.4</ele>
        <time>2020-07-13T05:08:20Z</time>
      </trkpt>
      <trkpt lat="37.0235910" lon="-3.0075030">
        <ele>1280.6</ele>
        <time>2020-07-13T05:08:25Z</time>
      </trkpt>
      <trkpt lat="37.0234150" lon="-3.0074810">
        <ele>1281.4</ele>
        <time>2020-07-13T05:08:31Z</time>
      </trkpt>
      <trkpt lat="37.0233880" lon="-3.0074760">
        <ele>1281.6</ele>
        <time>2020-07-13T05:08:32Z</time>
      </trkpt>
      <trkpt lat="37.0231750" lon="-3.0074950">
        <ele>1282.4</ele>
        <time>2020-07-13T05:08:39Z</time>
      </trkpt>
      <trkpt lat="37.0231220" lon="-3.0075150">
        <ele>1282.6</ele>
        <time>2020-07-13T05:08:41Z</time>
      </trkpt>
      <trkpt lat="37.0229740" lon="-3.0076150">
        <ele>1283.8</ele>
        <time>2020-07-13T05:08:47Z</time>
      </trkpt>
      <trkpt lat="37.0229550" lon="-3.0076380">
        <ele>1284.0</ele>
        <time>2020-07-13T05:08:48Z</time>
      </trkpt>
      <trkpt lat="37.0228940" lon="-3.0077480">
        <ele>1284.8</ele>
        <time>2020-07-13T05:08:52Z</time>
      </trkpt>
      <trkpt lat="37.0228590" lon="-3.0078430">
        <ele>1285.4</ele>
        <time>2020-07-13T05:08:55Z</time>
      </trkpt>
      <trkpt lat="37.0228090" lon="-3.0079580">
        <ele>1286.0</ele>
        <time>2020-07-13T05:08:59Z</time>
      </trkpt>
      <trkpt lat="37.0227250" lon="-3.0081180">
        <ele>1287.0</ele>
        <time>2020-07-13T05:09:05Z</time>
      </trkpt>
      <trkpt lat="37.0227080" lon="-3.0081400">
        <ele>1287.2</ele>
        <time>2020-07-13T05:09:06Z</time>
      </trkpt>
      <trkpt lat="37.0225550" lon="-3.0082670">
        <ele>1288.2</ele>
        <time>2020-07-13T05:09:13Z</time>
      </trkpt>
      <trkpt lat="37.0223280" lon="-3.0083140">
        <ele>1289.4</ele>
        <time>2020-07-13T05:09:21Z</time>
      </trkpt>
      <trkpt lat="37.0221340" lon="-3.0084290">
        <ele>1290.0</ele>
        <time>2020-07-13T05:09:28Z</time>
      </trkpt>
      <trkpt lat="37.0221000" lon="-3.0085240">
        <ele>1290.4</ele>
        <time>2020-07-13T05:09:31Z</time>
      </trkpt>
      <trkpt lat="37.0221000" lon="-3.0085920">
        <ele>1291.0</ele>
        <time>2020-07-13T05:09:33Z</time>
      </trkpt>
      <trkpt lat="37.0221240" lon="-3.0086750">
        <ele>1291.6</ele>
        <time>2020-07-13T05:09:36Z</time>
      </trkpt>
      <trkpt lat="37.0221730" lon="-3.0087380">
        <ele>1292.6</ele>
        <time>2020-07-13T05:09:39Z</time>
      </trkpt>
      <trkpt lat="37.0221910" lon="-3.0087500">
        <ele>1293.0</ele>
        <time>2020-07-13T05:09:40Z</time>
      </trkpt>
      <trkpt lat="37.0222500" lon="-3.0087810">
        <ele>1294.2</ele>
        <time>2020-07-13T05:09:43Z</time>
      </trkpt>
      <trkpt lat="37.0222910" lon="-3.0087930">
        <ele>1294.8</ele>
        <time>2020-07-13T05:09:45Z</time>
      </trkpt>
      <trkpt lat="37.0223140" lon="-3.0087930">
        <ele>1295.2</ele>
        <time>2020-07-13T05:09:46Z</time>
      </trkpt>
      <trkpt lat="37.0224000" lon="-3.0087990">
        <ele>1296.4</ele>
        <time>2020-07-13T05:09:50Z</time>
      </trkpt>
      <trkpt lat="37.0224470" lon="-3.0088030">
        <ele>1297.0</ele>
        <time>2020-07-13T05:09:52Z</time>
      </trkpt>
      <trkpt lat="37.0224940" lon="-3.0088110">
        <ele>1297.4</ele>
        <time>2020-07-13T05:09:54Z</time>
      </trkpt>
      <trkpt lat="37.0225950" lon="-3.0088290">
        <ele>1298.6</ele>
        <time>2020-07-13T05:09:58Z</time>
      </trkpt>
      <trkpt lat="37.0226450" lon="-3.0088410">
        <ele>1299.0</ele>
        <time>2020-07-13T05:10:00Z</time>
      </trkpt>
      <trkpt lat="37.0227160" lon="-3.0088590">
        <ele>1299.8</ele>
        <time>2020-07-13T05:10:03Z</time>
      </trkpt>
      <trkpt lat="37.0228630" lon="-3.0088810">
        <ele>1300.8</ele>
        <time>2020-07-13T05:10:09Z</time>
      </trkpt>
      <trkpt lat="37.0229360" lon="-3.0088760">
        <ele>1301.2</ele>
        <time>2020-07-13T05:10:12Z</time>
      </trkpt>
      <trkpt lat="37.0230070" lon="-3.0088630">
        <ele>1302.0</ele>
        <time>2020-07-13T05:10:15Z</time>
      </trkpt>
      <trkpt lat="37.0231300" lon="-3.0088280">
        <ele>1303.0</ele>
        <time>2020-07-13T05:10:20Z</time>
      </trkpt>
      <trkpt lat="37.0232040" lon="-3.0088010">
        <ele>1303.4</ele>
        <time>2020-07-13T05:10:23Z</time>
      </trkpt>
      <trkpt lat="37.0232740" lon="-3.0087750">
        <ele>1304.0</ele>
        <time>2020-07-13T05:10:26Z</time>
      </trkpt>
      <trkpt lat="37.0234130" lon="-3.0087140">
        <ele>1305.0</ele>
        <time>2020-07-13T05:10:32Z</time>
      </trkpt>
      <trkpt lat="37.0235500" lon="-3.0086570">
        <ele>1306.2</ele>
        <time>2020-07-13T05:10:38Z</time>
      </trkpt>
      <trkpt lat="37.0236660" lon="-3.0086070">
        <ele>1307.0</ele>
        <time>2020-07-13T05:10:43Z</time>
      </trkpt>
      <trkpt lat="37.0236890" lon="-3.0085960">
        <ele>1307.2</ele>
        <time>2020-07-13T05:10:44Z</time>
      </trkpt>
      <trkpt lat="37.0238290" lon="-3.0085320">
        <ele>1308.4</ele>
        <time>2020-07-13T05:10:50Z</time>
      </trkpt>
      <trkpt lat="37.0239680" lon="-3.0084720">
        <ele>1309.4</ele>
        <time>2020-07-13T05:10:56Z</time>
      </trkpt>
      <trkpt lat="37.0239910" lon="-3.0084580">
        <ele>1309.6</ele>
        <time>2020-07-13T05:10:57Z</time>
      </trkpt>
      <trkpt lat="37.0241080" lon="-3.0084050">
        <ele>1310.6</ele>
        <time>2020-07-13T05:11:02Z</time>
      </trkpt>
      <trkpt lat="37.0242230" lon="-3.0083530">
        <ele>1311.8</ele>
        <time>2020-07-13T05:11:07Z</time>
      </trkpt>
      <trkpt lat="37.0243630" lon="-3.0082880">
        <ele>1312.8</ele>
        <time>2020-07-13T05:11:13Z</time>
      </trkpt>
      <trkpt lat="37.0245020" lon="-3.0082260">
        <ele>1313.8</ele>
        <time>2020-07-13T05:11:19Z</time>
      </trkpt>
      <trkpt lat="37.0246390" lon="-3.0081620">
        <ele>1315.0</ele>
        <time>2020-07-13T05:11:25Z</time>
      </trkpt>
      <trkpt lat="37.0247750" lon="-3.0081080">
        <ele>1316.0</ele>
        <time>2020-07-13T05:11:31Z</time>
      </trkpt>
      <trkpt lat="37.0249150" lon="-3.0080460">
        <ele>1317.2</ele>
        <time>2020-07-13T05:11:37Z</time>
      </trkpt>
      <trkpt lat="37.0250310" lon="-3.0079930">
        <ele>1318.4</ele>
        <time>2020-07-13T05:11:42Z</time>
      </trkpt>
      <trkpt lat="37.0250540" lon="-3.0079830">
        <ele>1318.6</ele>
        <time>2020-07-13T05:11:43Z</time>
      </trkpt>
      <trkpt lat="37.0251940" lon="-3.0079320">
        <ele>1319.6</ele>
        <time>2020-07-13T05:11:49Z</time>
      </trkpt>
      <trkpt lat="37.0252930" lon="-3.0078920">
        <ele>1320.4</ele>
        <time>2020-07-13T05:11:53Z</time>
      </trkpt>
      <trkpt lat="37.0253430" lon="-3.0078730">
        <ele>1320.8</ele>
        <time>2020-07-13T05:11:55Z</time>
      </trkpt>
      <trkpt lat="37.0254900" lon="-3.0078070">
        <ele>1321.8</ele>
        <time>2020-07-13T05:12:01Z</time>
      </trkpt>
      <trkpt lat="37.0255910" lon="-3.0077690">
        <ele>1322.6</ele>
        <time>2020-07-13T05:12:05Z</time>
      </trkpt>
      <trkpt lat="37.0256420" lon="-3.0077490">
        <ele>1323.0</ele>
        <time>2020-07-13T05:12:07Z</time>
      </trkpt>
      <trkpt lat="37.0257880" lon="-3.0076980">
        <ele>1324.0</ele>
        <time>2020-07-13T05:12:13Z</time>
      </trkpt>
      <trkpt lat="37.0258800" lon="-3.0076620">
        <ele>1324.8</ele>
        <time>2020-07-13T05:12:17Z</time>
      </trkpt>
      <trkpt lat="37.0259260" lon="-3.0076430">
        <ele>1325.2</ele>
        <time>2020-07-13T05:12:19Z</time>
      </trkpt>
      <trkpt lat="37.0260650" lon="-3.0075930">
        <ele>1326.4</ele>
        <time>2020-07-13T05:12:25Z</time>
      </trkpt>
      <trkpt lat="37.0261310" lon="-3.0075690">
        <ele>1326.8</ele>
        <time>2020-07-13T05:12:28Z</time>
      </trkpt>
      <trkpt lat="37.0262220" lon="-3.0075360">
        <ele>1327.4</ele>
        <time>2020-07-13T05:12:32Z</time>
      </trkpt>
      <trkpt lat="37.0263360" lon="-3.0074920">
        <ele>1328.4</ele>
        <time>2020-07-13T05:12:37Z</time>
      </trkpt>
      <trkpt lat="37.0263580" lon="-3.0074820">
        <ele>1328.6</ele>
        <time>2020-07-13T05:12:38Z</time>
      </trkpt>
      <trkpt lat="37.0264750" lon="-3.0074370">
        <ele>1329.6</ele>
        <time>2020-07-13T05:12:43Z</time>
      </trkpt>
      <trkpt lat="37.0266170" lon="-3.0073820">
        <ele>1330.8</ele>
        <time>2020-07-13T05:12:49Z</time>
      </trkpt>
      <trkpt lat="37.0267560" lon="-3.0073330">
        <ele>1331.8</ele>
        <time>2020-07-13T05:12:55Z</time>
      </trkpt>
      <trkpt lat="37.0268270" lon="-3.0073170">
        <ele>1332.2</ele>
        <time>2020-07-13T05:12:58Z</time>
      </trkpt>
      <trkpt lat="37.0269000" lon="-3.0073200">
        <ele>1333.0</ele>
        <time>2020-07-13T05:13:01Z</time>
      </trkpt>
      <trkpt lat="37.0269950" lon="-3.0073500">
        <ele>1333.6</ele>
        <time>2020-07-13T05:13:05Z</time>
      </trkpt>
      <trkpt lat="37.0270330" lon="-3.0073840">
        <ele>1334.0</ele>
        <time>2020-07-13T05:13:07Z</time>
      </trkpt>
      <trkpt lat="37.0270950" lon="-3.0074730">
        <ele>1334.8</ele>
        <time>2020-07-13T05:13:11Z</time>
      </trkpt>
      <trkpt lat="37.0271040" lon="-3.0074990">
        <ele>1335.0</ele>
        <time>2020-07-13T05:13:12Z</time>
      </trkpt>
      <trkpt lat="37.0271130" lon="-3.0076860">
        <ele>1336.0</ele>
        <time>2020-07-13T05:13:18Z</time>
      </trkpt>
      <trkpt lat="37.0271100" lon="-3.0077150">
        <ele>1336.4</ele>
        <time>2020-07-13T05:13:19Z</time>
      </trkpt>
      <trkpt lat="37.0270480" lon="-3.0078520">
        <ele>1337.4</ele>
        <time>2020-07-13T05:13:24Z</time>
      </trkpt>
      <trkpt lat="37.0270270" lon="-3.0078710">
        <ele>1337.4</ele>
        <time>2020-07-13T05:13:25Z</time>
      </trkpt>
      <trkpt lat="37.0269030" lon="-3.0079270">
        <ele>1338.2</ele>
        <time>2020-07-13T05:13:30Z</time>
      </trkpt>
      <trkpt lat="37.0268460" lon="-3.0079290">
        <ele>1338.6</ele>
        <time>2020-07-13T05:13:32Z</time>
      </trkpt>
      <trkpt lat="37.0267020" lon="-3.0079270">
        <ele>1339.0</ele>
        <time>2020-07-13T05:13:37Z</time>
      </trkpt>
      <trkpt lat="37.0265250" lon="-3.0079200">
        <ele>1339.6</ele>
        <time>2020-07-13T05:13:43Z</time>
      </trkpt>
      <trkpt lat="37.0263710" lon="-3.0079280">
        <ele>1340.4</ele>
        <time>2020-07-13T05:13:49Z</time>
      </trkpt>
      <trkpt lat="37.0263180" lon="-3.0079470">
        <ele>1340.6</ele>
        <time>2020-07-13T05:13:51Z</time>
      </trkpt>
      <trkpt lat="37.0261960" lon="-3.0080500">
        <ele>1341.6</ele>
        <time>2020-07-13T05:13:56Z</time>
      </trkpt>
      <trkpt lat="37.0261780" lon="-3.0080770">
        <ele>1341.8</ele>
        <time>2020-07-13T05:13:57Z</time>
      </trkpt>
      <trkpt lat="37.0261040" lon="-3.0082040">
        <ele>1343.0</ele>
        <time>2020-07-13T05:14:02Z</time>
      </trkpt>
      <trkpt lat="37.0260660" lon="-3.0082880">
        <ele>1343.6</ele>
        <time>2020-07-13T05:14:05Z</time>
      </trkpt>
      <trkpt lat="37.0260420" lon="-3.0083470">
        <ele>1344.0</ele>
        <time>2020-07-13T05:14:07Z</time>
      </trkpt>
      <trkpt lat="37.0259900" lon="-3.0084930">
        <ele>1345.0</ele>
        <time>2020-07-13T05:14:12Z</time>
      </trkpt>
      <trkpt lat="37.0259590" lon="-3.0086110">
        <ele>1345.8</ele>
        <time>2020-07-13T05:14:16Z</time>
      </trkpt>
      <trkpt lat="37.0259440" lon="-3.0086740">
        <ele>1346.2</ele>
        <time>2020-07-13T05:14:18Z</time>
      </trkpt>
      <trkpt lat="37.0259110" lon="-3.0088520">
        <ele>1347.4</ele>
        <time>2020-07-13T05:14:24Z</time>
      </trkpt>
      <trkpt lat="37.0259000" lon="-3.0089710">
        <ele>1348.2</ele>
        <time>2020-07-13T05:14:28Z</time>
      </trkpt>
      <trkpt lat="37.0258950" lon="-3.0090040">
        <ele>1348.4</ele>
        <time>2020-07-13T05:14:29Z</time>
      </trkpt>
      <trkpt lat="37.0258680" lon="-3.0091480">
        <ele>1349.6</ele>
        <time>2020-07-13T05:14:34Z</time>
      </trkpt>
      <trkpt lat="37.0258310" lon="-3.0092610">
        <ele>1350.4</ele>
        <time>2020-07-13T05:14:38Z</time>
      </trkpt>
      <trkpt lat="37.0258210" lon="-3.0092890">
        <ele>1350.6</ele>
        <time>2020-07-13T05:14:39Z</time>
      </trkpt>
      <trkpt lat="37.0257140" lon="-3.0094230">
        <ele>1351.6</ele>
        <time>2020-07-13T05:14:45Z</time>
      </trkpt>
      <trkpt lat="37.0256940" lon="-3.0094390">
        <ele>1351.6</ele>
        <time>2020-07-13T05:14:46Z</time>
      </trkpt>
      <trkpt lat="37.0255280" lon="-3.0095340">
        <ele>1352.6</ele>
        <time>2020-07-13T05:14:53Z</time>
      </trkpt>
      <trkpt lat="37.0255030" lon="-3.0095410">
        <ele>1352.8</ele>
        <time>2020-07-13T05:14:54Z</time>
      </trkpt>
      <trkpt lat="37.0253550" lon="-3.0095990">
        <ele>1353.6</ele>
        <time>2020-07-13T05:15:00Z</time>
      </trkpt>
      <trkpt lat="37.0252530" lon="-3.0096430">
        <ele>1354.2</ele>
        <time>2020-07-13T05:15:04Z</time>
      </trkpt>
      <trkpt lat="37.0251360" lon="-3.0097360">
        <ele>1354.8</ele>
        <time>2020-07-13T05:15:09Z</time>
      </trkpt>
      <trkpt lat="37.0250920" lon="-3.0098280">
        <ele>1355.0</ele>
        <time>2020-07-13T05:15:12Z</time>
      </trkpt>
      <trkpt lat="37.0250740" lon="-3.0099610">
        <ele>1355.8</ele>
        <time>2020-07-13T05:15:16Z</time>
      </trkpt>
      <trkpt lat="37.0250850" lon="-3.0100340">
        <ele>1356.2</ele>
        <time>2020-07-13T05:15:18Z</time>
      </trkpt>
      <trkpt lat="37.0251180" lon="-3.0101280">
        <ele>1356.8</ele>
        <time>2020-07-13T05:15:21Z</time>
      </trkpt>
      <trkpt lat="37.0251790" lon="-3.0102020">
        <ele>1357.4</ele>
        <time>2020-07-13T05:15:24Z</time>
      </trkpt>
      <trkpt lat="37.0252290" lon="-3.0102340">
        <ele>1358.0</ele>
        <time>2020-07-13T05:15:26Z</time>
      </trkpt>
      <trkpt lat="37.0253410" lon="-3.0102560">
        <ele>1359.0</ele>
        <time>2020-07-13T05:15:30Z</time>
      </trkpt>
      <trkpt lat="37.0253710" lon="-3.0102500">
        <ele>1359.2</ele>
        <time>2020-07-13T05:15:31Z</time>
      </trkpt>
      <trkpt lat="37.0255000" lon="-3.0101950">
        <ele>1360.0</ele>
        <time>2020-07-13T05:15:36Z</time>
      </trkpt>
      <trkpt lat="37.0255250" lon="-3.0101790">
        <ele>1360.2</ele>
        <time>2020-07-13T05:15:37Z</time>
      </trkpt>
      <trkpt lat="37.0256650" lon="-3.0100860">
        <ele>1361.4</ele>
        <time>2020-07-13T05:15:43Z</time>
      </trkpt>
      <trkpt lat="37.0257260" lon="-3.0100450">
        <ele>1362.0</ele>
        <time>2020-07-13T05:15:46Z</time>
      </trkpt>
      <trkpt lat="37.0257920" lon="-3.0099970">
        <ele>1362.4</ele>
        <time>2020-07-13T05:15:49Z</time>
      </trkpt>
      <trkpt lat="37.0259200" lon="-3.0099070">
        <ele>1363.6</ele>
        <time>2020-07-13T05:15:55Z</time>
      </trkpt>
      <trkpt lat="37.0260240" lon="-3.0098350">
        <ele>1364.8</ele>
        <time>2020-07-13T05:16:00Z</time>
      </trkpt>
      <trkpt lat="37.0261050" lon="-3.0097760">
        <ele>1365.6</ele>
        <time>2020-07-13T05:16:04Z</time>
      </trkpt>
      <trkpt lat="37.0261490" lon="-3.0097460">
        <ele>1365.8</ele>
        <time>2020-07-13T05:16:06Z</time>
      </trkpt>
      <trkpt lat="37.0262540" lon="-3.0096760">
        <ele>1367.0</ele>
        <time>2020-07-13T05:16:11Z</time>
      </trkpt>
      <trkpt lat="37.0262960" lon="-3.0096450">
        <ele>1367.2</ele>
        <time>2020-07-13T05:16:13Z</time>
      </trkpt>
      <trkpt lat="37.0263830" lon="-3.0095880">
        <ele>1368.2</ele>
        <time>2020-07-13T05:16:17Z</time>
      </trkpt>
      <trkpt lat="37.0265230" lon="-3.0094870">
        <ele>1369.2</ele>
        <time>2020-07-13T05:16:23Z</time>
      </trkpt>
      <trkpt lat="37.0266330" lon="-3.0094090">
        <ele>1370.4</ele>
        <time>2020-07-13T05:16:28Z</time>
      </trkpt>
      <trkpt lat="37.0267190" lon="-3.0093560">
        <ele>1371.0</ele>
        <time>2020-07-13T05:16:32Z</time>
      </trkpt>
      <trkpt lat="37.0267780" lon="-3.0093240">
        <ele>1371.4</ele>
        <time>2020-07-13T05:16:34Z</time>
      </trkpt>
      <trkpt lat="37.0268970" lon="-3.0092540">
        <ele>1372.6</ele>
        <time>2020-07-13T05:16:39Z</time>
      </trkpt>
      <trkpt lat="37.0270170" lon="-3.0092020">
        <ele>1373.6</ele>
        <time>2020-07-13T05:16:44Z</time>
      </trkpt>
      <trkpt lat="37.0270420" lon="-3.0091920">
        <ele>1373.8</ele>
        <time>2020-07-13T05:16:45Z</time>
      </trkpt>
      <trkpt lat="37.0271710" lon="-3.0091460">
        <ele>1374.6</ele>
        <time>2020-07-13T05:16:50Z</time>
      </trkpt>
      <trkpt lat="37.0272730" lon="-3.0091090">
        <ele>1375.4</ele>
        <time>2020-07-13T05:16:54Z</time>
      </trkpt>
      <trkpt lat="37.0273230" lon="-3.0090920">
        <ele>1375.6</ele>
        <time>2020-07-13T05:16:56Z</time>
      </trkpt>
      <trkpt lat="37.0274690" lon="-3.0090230">
        <ele>1376.8</ele>
        <time>2020-07-13T05:17:02Z</time>
      </trkpt>
      <trkpt lat="37.0275180" lon="-3.0090090">
        <ele>1377.0</ele>
        <time>2020-07-13T05:17:04Z</time>
      </trkpt>
      <trkpt lat="37.0276180" lon="-3.0089770">
        <ele>1377.8</ele>
        <time>2020-07-13T05:17:08Z</time>
      </trkpt>
      <trkpt lat="37.0277650" lon="-3.0089240">
        <ele>1379.0</ele>
        <time>2020-07-13T05:17:14Z</time>
      </trkpt>
      <trkpt lat="37.0278380" lon="-3.0088860">
        <ele>1379.4</ele>
        <time>2020-07-13T05:17:17Z</time>
      </trkpt>
      <trkpt lat="37.0278880" lon="-3.0088630">
        <ele>1380.0</ele>
        <time>2020-07-13T05:17:19Z</time>
      </trkpt>
      <trkpt lat="37.0280370" lon="-3.0088010">
        <ele>1381.0</ele>
        <time>2020-07-13T05:17:25Z</time>
      </trkpt>
      <trkpt lat="37.0281070" lon="-3.0087640">
        <ele>1381.6</ele>
        <time>2020-07-13T05:17:28Z</time>
      </trkpt>
      <trkpt lat="37.0281770" lon="-3.0087250">
        <ele>1382.2</ele>
        <time>2020-07-13T05:17:31Z</time>
      </trkpt>
      <trkpt lat="37.0282950" lon="-3.0086750">
        <ele>1383.2</ele>
        <time>2020-07-13T05:17:36Z</time>
      </trkpt>
      <trkpt lat="37.0284150" lon="-3.0086240">
        <ele>1384.0</ele>
        <time>2020-07-13T05:17:41Z</time>
      </trkpt>
      <trkpt lat="37.0284420" lon="-3.0086170">
        <ele>1384.2</ele>
        <time>2020-07-13T05:17:42Z</time>
      </trkpt>
      <trkpt lat="37.0285670" lon="-3.0085920">
        <ele>1385.2</ele>
        <time>2020-07-13T05:17:47Z</time>
      </trkpt>
      <trkpt lat="37.0286640" lon="-3.0085850">
        <ele>1386.0</ele>
        <time>2020-07-13T05:17:51Z</time>
      </trkpt>
      <trkpt lat="37.0287140" lon="-3.0085880">
        <ele>1386.4</ele>
        <time>2020-07-13T05:17:53Z</time>
      </trkpt>
      <trkpt lat="37.0288330" lon="-3.0086040">
        <ele>1387.6</ele>
        <time>2020-07-13T05:17:58Z</time>
      </trkpt>
      <trkpt lat="37.0288820" lon="-3.0086200">
        <ele>1387.8</ele>
        <time>2020-07-13T05:18:00Z</time>
      </trkpt>
      <trkpt lat="37.0289730" lon="-3.0086540">
        <ele>1388.6</ele>
        <time>2020-07-13T05:18:04Z</time>
      </trkpt>
      <trkpt lat="37.0290890" lon="-3.0086870">
        <ele>1389.6</ele>
        <time>2020-07-13T05:18:09Z</time>
      </trkpt>
      <trkpt lat="37.0291100" lon="-3.0086920">
        <ele>1389.8</ele>
        <time>2020-07-13T05:18:10Z</time>
      </trkpt>
      <trkpt lat="37.0292460" lon="-3.0087220">
        <ele>1390.8</ele>
        <time>2020-07-13T05:18:16Z</time>
      </trkpt>
      <trkpt lat="37.0293390" lon="-3.0087430">
        <ele>1391.6</ele>
        <time>2020-07-13T05:18:20Z</time>
      </trkpt>
      <trkpt lat="37.0293860" lon="-3.0087540">
        <ele>1392.0</ele>
        <time>2020-07-13T05:18:22Z</time>
      </trkpt>
      <trkpt lat="37.0295310" lon="-3.0087830">
        <ele>1393.2</ele>
        <time>2020-07-13T05:18:28Z</time>
      </trkpt>
      <trkpt lat="37.0296030" lon="-3.0087940">
        <ele>1393.8</ele>
        <time>2020-07-13T05:18:31Z</time>
      </trkpt>
      <trkpt lat="37.0296520" lon="-3.0087940">
        <ele>1394.2</ele>
        <time>2020-07-13T05:18:33Z</time>
      </trkpt>
      <trkpt lat="37.0298090" lon="-3.0087810">
        <ele>1395.4</ele>
        <time>2020-07-13T05:18:39Z</time>
      </trkpt>
      <trkpt lat="37.0298360" lon="-3.0087760">
        <ele>1395.6</ele>
        <time>2020-07-13T05:18:40Z</time>
      </trkpt>
      <trkpt lat="37.0299740" lon="-3.0087560">
        <ele>1396.4</ele>
        <time>2020-07-13T05:18:45Z</time>
      </trkpt>
      <trkpt lat="37.0301050" lon="-3.0087410">
        <ele>1397.6</ele>
        <time>2020-07-13T05:18:50Z</time>
      </trkpt>
      <trkpt lat="37.0302350" lon="-3.0087360">
        <ele>1398.6</ele>
        <time>2020-07-13T05:18:55Z</time>
      </trkpt>
      <trkpt lat="37.0303680" lon="-3.0087390">
        <ele>1399.6</ele>
        <time>2020-07-13T05:19:00Z</time>
      </trkpt>
      <trkpt lat="37.0303930" lon="-3.0087430">
        <ele>1400.0</ele>
        <time>2020-07-13T05:19:01Z</time>
      </trkpt>
      <trkpt lat="37.0304970" lon="-3.0087570">
        <ele>1400.8</ele>
        <time>2020-07-13T05:19:05Z</time>
      </trkpt>
      <trkpt lat="37.0306230" lon="-3.0087840">
        <ele>1402.0</ele>
        <time>2020-07-13T05:19:10Z</time>
      </trkpt>
      <trkpt lat="37.0307760" lon="-3.0088230">
        <ele>1403.2</ele>
        <time>2020-07-13T05:19:16Z</time>
      </trkpt>
      <trkpt lat="37.0308840" lon="-3.0088450">
        <ele>1403.8</ele>
        <time>2020-07-13T05:19:20Z</time>
      </trkpt>
      <trkpt lat="37.0309620" lon="-3.0088540">
        <ele>1404.4</ele>
        <time>2020-07-13T05:19:23Z</time>
      </trkpt>
      <trkpt lat="37.0310860" lon="-3.0088650">
        <ele>1405.4</ele>
        <time>2020-07-13T05:19:28Z</time>
      </trkpt>
      <trkpt lat="37.0312360" lon="-3.0088760">
        <ele>1406.4</ele>
        <time>2020-07-13T05:19:34Z</time>
      </trkpt>
      <trkpt lat="37.0313570" lon="-3.0088730">
        <ele>1407.4</ele>
        <time>2020-07-13T05:19:39Z</time>
      </trkpt>
      <trkpt lat="37.0313820" lon="-3.0088750">
        <ele>1407.6</ele>
        <time>2020-07-13T05:19:40Z</time>
      </trkpt>
      <trkpt lat="37.0315310" lon="-3.0088820">
        <ele>1408.6</ele>
        <time>2020-07-13T05:19:46Z</time>
      </trkpt>
      <trkpt lat="37.0315590" lon="-3.0088800">
        <ele>1408.8</ele>
        <time>2020-07-13T05:19:47Z</time>
      </trkpt>
      <trkpt lat="37.0316690" lon="-3.0088840">
        <ele>1409.6</ele>
        <time>2020-07-13T05:19:51Z</time>
      </trkpt>
      <trkpt lat="37.0317770" lon="-3.0088830">
        <ele>1410.4</ele>
        <time>2020-07-13T05:19:55Z</time>
      </trkpt>
      <trkpt lat="37.0318270" lon="-3.0088830">
        <ele>1410.8</ele>
        <time>2020-07-13T05:19:57Z</time>
      </trkpt>
      <trkpt lat="37.0319540" lon="-3.0088710">
        <ele>1411.8</ele>
        <time>2020-07-13T05:20:02Z</time>
      </trkpt>
      <trkpt lat="37.0320050" lon="-3.0088610">
        <ele>1412.2</ele>
        <time>2020-07-13T05:20:04Z</time>
      </trkpt>
      <trkpt lat="37.0321080" lon="-3.0088460">
        <ele>1412.8</ele>
        <time>2020-07-13T05:20:08Z</time>
      </trkpt>
      <trkpt lat="37.0321080" lon="-3.0088460">
        <ele>1413.4</ele>
        <time>2020-07-13T05:20:11Z</time>
      </trkpt>
      <trkpt lat="37.0322420" lon="-3.0088180">
        <ele>1413.8</ele>
        <time>2020-07-13T05:20:14Z</time>
      </trkpt>
      <trkpt lat="37.0323550" lon="-3.0087850">
        <ele>1414.6</ele>
        <time>2020-07-13T05:20:18Z</time>
      </trkpt>
      <trkpt lat="37.0323790" lon="-3.0087800">
        <ele>1414.8</ele>
        <time>2020-07-13T05:20:19Z</time>
      </trkpt>
      <trkpt lat="37.0325050" lon="-3.0087400">
        <ele>1416.0</ele>
        <time>2020-07-13T05:20:24Z</time>
      </trkpt>
      <trkpt lat="37.0326290" lon="-3.0086930">
        <ele>1417.0</ele>
        <time>2020-07-13T05:20:29Z</time>
      </trkpt>
      <trkpt lat="37.0326540" lon="-3.0086850">
        <ele>1417.2</ele>
        <time>2020-07-13T05:20:30Z</time>
      </trkpt>
      <trkpt lat="37.0328020" lon="-3.0086400">
        <ele>1418.2</ele>
        <time>2020-07-13T05:20:36Z</time>
      </trkpt>
      <trkpt lat="37.0328810" lon="-3.0086250">
        <ele>1418.8</ele>
        <time>2020-07-13T05:20:39Z</time>
      </trkpt>
      <trkpt lat="37.0329300" lon="-3.0086190">
        <ele>1419.2</ele>
        <time>2020-07-13T05:20:41Z</time>
      </trkpt>
      <trkpt lat="37.0330910" lon="-3.0086050">
        <ele>1420.4</ele>
        <time>2020-07-13T05:20:47Z</time>
      </trkpt>
      <trkpt lat="37.0331440" lon="-3.0086070">
        <ele>1420.6</ele>
        <time>2020-07-13T05:20:49Z</time>
      </trkpt>
      <trkpt lat="37.0332520" lon="-3.0086150">
        <ele>1421.4</ele>
        <time>2020-07-13T05:20:53Z</time>
      </trkpt>
      <trkpt lat="37.0333850" lon="-3.0086350">
        <ele>1422.4</ele>
        <time>2020-07-13T05:20:58Z</time>
      </trkpt>
      <trkpt lat="37.0334660" lon="-3.0086490">
        <ele>1423.0</ele>
        <time>2020-07-13T05:21:01Z</time>
      </trkpt>
      <trkpt lat="37.0335210" lon="-3.0086580">
        <ele>1423.6</ele>
        <time>2020-07-13T05:21:03Z</time>
      </trkpt>
      <trkpt lat="37.0336890" lon="-3.0086840">
        <ele>1424.8</ele>
        <time>2020-07-13T05:21:09Z</time>
      </trkpt>
      <trkpt lat="37.0338000" lon="-3.0086900">
        <ele>1425.4</ele>
        <time>2020-07-13T05:21:13Z</time>
      </trkpt>
      <trkpt lat="37.0338550" lon="-3.0086950">
        <ele>1425.8</ele>
        <time>2020-07-13T05:21:15Z</time>
      </trkpt>
      <trkpt lat="37.0339920" lon="-3.0086900">
        <ele>1427.0</ele>
        <time>2020-07-13T05:21:20Z</time>
      </trkpt>
      <trkpt lat="37.0340730" lon="-3.0086940">
        <ele>1427.6</ele>
        <time>2020-07-13T05:21:23Z</time>
      </trkpt>
      <trkpt lat="37.0341270" lon="-3.0086930">
        <ele>1428.0</ele>
        <time>2020-07-13T05:21:25Z</time>
      </trkpt>
      <trkpt lat="37.0342610" lon="-3.0086910">
        <ele>1429.0</ele>
        <time>2020-07-13T05:21:30Z</time>
      </trkpt>
      <trkpt lat="37.0344140" lon="-3.0086830">
        <ele>1430.2</ele>
        <time>2020-07-13T05:21:36Z</time>
      </trkpt>
      <trkpt lat="37.0345440" lon="-3.0086890">
        <ele>1431.2</ele>
        <time>2020-07-13T05:21:41Z</time>
      </trkpt>
      <trkpt lat="37.0346200" lon="-3.0086870">
        <ele>1431.8</ele>
        <time>2020-07-13T05:21:44Z</time>
      </trkpt>
      <trkpt lat="37.0346680" lon="-3.0086880">
        <ele>1432.2</ele>
        <time>2020-07-13T05:21:46Z</time>
      </trkpt>
      <trkpt lat="37.0348210" lon="-3.0086830">
        <ele>1433.4</ele>
        <time>2020-07-13T05:21:52Z</time>
      </trkpt>
      <trkpt lat="37.0348740" lon="-3.0086830">
        <ele>1433.8</ele>
        <time>2020-07-13T05:21:54Z</time>
      </trkpt>
      <trkpt lat="37.0349730" lon="-3.0086840">
        <ele>1434.6</ele>
        <time>2020-07-13T05:21:58Z</time>
      </trkpt>
      <trkpt lat="37.0350980" lon="-3.0086880">
        <ele>1435.6</ele>
        <time>2020-07-13T05:22:03Z</time>
      </trkpt>
      <trkpt lat="37.0352080" lon="-3.0087000">
        <ele>1436.4</ele>
        <time>2020-07-13T05:22:07Z</time>
      </trkpt>
      <trkpt lat="37.0352620" lon="-3.0087130">
        <ele>1436.8</ele>
        <time>2020-07-13T05:22:09Z</time>
      </trkpt>
      <trkpt lat="37.0353950" lon="-3.0087530">
        <ele>1437.8</ele>
        <time>2020-07-13T05:22:14Z</time>
      </trkpt>
      <trkpt lat="37.0354740" lon="-3.0087800">
        <ele>1438.4</ele>
        <time>2020-07-13T05:22:17Z</time>
      </trkpt>
      <trkpt lat="37.0355530" lon="-3.0088080">
        <ele>1439.0</ele>
        <time>2020-07-13T05:22:20Z</time>
      </trkpt>
      <trkpt lat="37.0356980" lon="-3.0088990">
        <ele>1440.2</ele>
        <time>2020-07-13T05:22:26Z</time>
      </trkpt>
      <trkpt lat="37.0357210" lon="-3.0089200">
        <ele>1440.4</ele>
        <time>2020-07-13T05:22:27Z</time>
      </trkpt>
      <trkpt lat="37.0358280" lon="-3.0090220">
        <ele>1441.4</ele>
        <time>2020-07-13T05:22:32Z</time>
      </trkpt>
      <trkpt lat="37.0359210" lon="-3.0091390">
        <ele>1442.4</ele>
        <time>2020-07-13T05:22:37Z</time>
      </trkpt>
      <trkpt lat="37.0360310" lon="-3.0092770">
        <ele>1443.4</ele>
        <time>2020-07-13T05:22:43Z</time>
      </trkpt>
      <trkpt lat="37.0361030" lon="-3.0093760">
        <ele>1444.2</ele>
        <time>2020-07-13T05:22:47Z</time>
      </trkpt>
      <trkpt lat="37.0361370" lon="-3.0094250">
        <ele>1444.6</ele>
        <time>2020-07-13T05:22:49Z</time>
      </trkpt>
      <trkpt lat="37.0362480" lon="-3.0095760">
        <ele>1445.6</ele>
        <time>2020-07-13T05:22:55Z</time>
      </trkpt>
      <trkpt lat="37.0363250" lon="-3.0096720">
        <ele>1446.4</ele>
        <time>2020-07-13T05:22:59Z</time>
      </trkpt>
      <trkpt lat="37.0363440" lon="-3.0096950">
        <ele>1446.6</ele>
        <time>2020-07-13T05:23:00Z</time>
      </trkpt>
      <trkpt lat="37.0364700" lon="-3.0098180">
        <ele>1447.8</ele>
        <time>2020-07-13T05:23:06Z</time>
      </trkpt>
      <trkpt lat="37.0365130" lon="-3.0098590">
        <ele>1448.2</ele>
        <time>2020-07-13T05:23:08Z</time>
      </trkpt>
      <trkpt lat="37.0366000" lon="-3.0099310">
        <ele>1448.8</ele>
        <time>2020-07-13T05:23:12Z</time>
      </trkpt>
      <trkpt lat="37.0366860" lon="-3.0099990">
        <ele>1449.6</ele>
        <time>2020-07-13T05:23:16Z</time>
      </trkpt>
      <trkpt lat="37.0367110" lon="-3.0100180">
        <ele>1450.0</ele>
        <time>2020-07-13T05:23:17Z</time>
      </trkpt>
      <trkpt lat="37.0368200" lon="-3.0100900">
        <ele>1451.0</ele>
        <time>2020-07-13T05:23:22Z</time>
      </trkpt>
      <trkpt lat="37.0368670" lon="-3.0101170">
        <ele>1451.4</ele>
        <time>2020-07-13T05:23:24Z</time>
      </trkpt>
      <trkpt lat="37.0369360" lon="-3.0101530">
        <ele>1452.0</ele>
        <time>2020-07-13T05:23:27Z</time>
      </trkpt>
      <trkpt lat="37.0370840" lon="-3.0101890">
        <ele>1453.2</ele>
        <time>2020-07-13T05:23:33Z</time>
      </trkpt>
      <trkpt lat="37.0372290" lon="-3.0101800">
        <ele>1454.4</ele>
        <time>2020-07-13T05:23:39Z</time>
      </trkpt>
      <trkpt lat="37.0372730" lon="-3.0101690">
        <ele>1454.8</ele>
        <time>2020-07-13T05:23:41Z</time>
      </trkpt>
      <trkpt lat="37.0373220" lon="-3.0101530">
        <ele>1455.4</ele>
        <time>2020-07-13T05:23:43Z</time>
      </trkpt>
      <trkpt lat="37.0374400" lon="-3.0100940">
        <ele>1456.6</ele>
        <time>2020-07-13T05:23:48Z</time>
      </trkpt>
      <trkpt lat="37.0374880" lon="-3.0100660">
        <ele>1457.0</ele>
        <time>2020-07-13T05:23:50Z</time>
      </trkpt>
      <trkpt lat="37.0375780" lon="-3.0100050">
        <ele>1457.8</ele>
        <time>2020-07-13T05:23:54Z</time>
      </trkpt>
      <trkpt lat="37.0377120" lon="-3.0099050">
        <ele>1458.8</ele>
        <time>2020-07-13T05:24:00Z</time>
      </trkpt>
      <trkpt lat="37.0377560" lon="-3.0098710">
        <ele>1459.2</ele>
        <time>2020-07-13T05:24:02Z</time>
      </trkpt>
      <trkpt lat="37.0378440" lon="-3.0098120">
        <ele>1460.0</ele>
        <time>2020-07-13T05:24:06Z</time>
      </trkpt>
      <trkpt lat="37.0379790" lon="-3.0097170">
        <ele>1461.0</ele>
        <time>2020-07-13T05:24:12Z</time>
      </trkpt>
      <trkpt lat="37.0380250" lon="-3.0096870">
        <ele>1461.4</ele>
        <time>2020-07-13T05:24:14Z</time>
      </trkpt>
      <trkpt lat="37.0381440" lon="-3.0096170">
        <ele>1462.0</ele>
        <time>2020-07-13T05:24:19Z</time>
      </trkpt>
      <trkpt lat="37.0383140" lon="-3.0095300">
        <ele>1463.0</ele>
        <time>2020-07-13T05:24:26Z</time>
      </trkpt>
      <trkpt lat="37.0384410" lon="-3.0094910">
        <ele>1464.2</ele>
        <time>2020-07-13T05:24:31Z</time>
      </trkpt>
      <trkpt lat="37.0384950" lon="-3.0094810">
        <ele>1464.6</ele>
        <time>2020-07-13T05:24:33Z</time>
      </trkpt>
      <trkpt lat="37.0386000" lon="-3.0094750">
        <ele>1465.4</ele>
        <time>2020-07-13T05:24:37Z</time>
      </trkpt>
      <trkpt lat="37.0387640" lon="-3.0094980">
        <ele>1466.4</ele>
        <time>2020-07-13T05:24:43Z</time>
      </trkpt>
      <trkpt lat="37.0389260" lon="-3.0095620">
        <ele>1467.6</ele>
        <time>2020-07-13T05:24:49Z</time>
      </trkpt>
      <trkpt lat="37.0390290" lon="-3.0096240">
        <ele>1468.4</ele>
        <time>2020-07-13T05:24:53Z</time>
      </trkpt>
      <trkpt lat="37.0390550" lon="-3.0096380">
        <ele>1468.6</ele>
        <time>2020-07-13T05:24:54Z</time>
      </trkpt>
      <trkpt lat="37.0392050" lon="-3.0097460">
        <ele>1469.8</ele>
        <time>2020-07-13T05:25:00Z</time>
      </trkpt>
      <trkpt lat="37.0392530" lon="-3.0097850">
        <ele>1470.2</ele>
        <time>2020-07-13T05:25:02Z</time>
      </trkpt>
      <trkpt lat="37.0393480" lon="-3.0098590">
        <ele>1470.8</ele>
        <time>2020-07-13T05:25:06Z</time>
      </trkpt>
      <trkpt lat="37.0395010" lon="-3.0099720">
        <ele>1472.0</ele>
        <time>2020-07-13T05:25:12Z</time>
      </trkpt>
      <trkpt lat="37.0396270" lon="-3.0100570">
        <ele>1473.0</ele>
        <time>2020-07-13T05:25:17Z</time>
      </trkpt>
      <trkpt lat="37.0396510" lon="-3.0100750">
        <ele>1473.2</ele>
        <time>2020-07-13T05:25:18Z</time>
      </trkpt>
      <trkpt lat="37.0397750" lon="-3.0101560">
        <ele>1474.0</ele>
        <time>2020-07-13T05:25:23Z</time>
      </trkpt>
      <trkpt lat="37.0399230" lon="-3.0102400">
        <ele>1475.2</ele>
        <time>2020-07-13T05:25:29Z</time>
      </trkpt>
      <trkpt lat="37.0399470" lon="-3.0102540">
        <ele>1475.4</ele>
        <time>2020-07-13T05:25:30Z</time>
      </trkpt>
      <trkpt lat="37.0400720" lon="-3.0103160">
        <ele>1476.4</ele>
        <time>2020-07-13T05:25:35Z</time>
      </trkpt>
      <trkpt lat="37.0402260" lon="-3.0103860">
        <ele>1477.6</ele>
        <time>2020-07-13T05:25:41Z</time>
      </trkpt>
      <trkpt lat="37.0402510" lon="-3.0103960">
        <ele>1477.8</ele>
        <time>2020-07-13T05:25:42Z</time>
      </trkpt>
      <trkpt lat="37.0403800" lon="-3.0104470">
        <ele>1478.6</ele>
        <time>2020-07-13T05:25:47Z</time>
      </trkpt>
      <trkpt lat="37.0405130" lon="-3.0104940">
        <ele>1479.6</ele>
        <time>2020-07-13T05:25:52Z</time>
      </trkpt>
      <trkpt lat="37.0406670" lon="-3.0105580">
        <ele>1480.8</ele>
        <time>2020-07-13T05:25:58Z</time>
      </trkpt>
      <trkpt lat="37.0408000" lon="-3.0106090">
        <ele>1481.8</ele>
        <time>2020-07-13T05:26:03Z</time>
      </trkpt>
      <trkpt lat="37.0409310" lon="-3.0106710">
        <ele>1483.0</ele>
        <time>2020-07-13T05:26:08Z</time>
      </trkpt>
      <trkpt lat="37.0409560" lon="-3.0106860">
        <ele>1483.2</ele>
        <time>2020-07-13T05:26:09Z</time>
      </trkpt>
      <trkpt lat="37.0410240" lon="-3.0107400">
        <ele>1484.0</ele>
        <time>2020-07-13T05:26:12Z</time>
      </trkpt>
      <trkpt lat="37.0411280" lon="-3.0108440">
        <ele>1485.2</ele>
        <time>2020-07-13T05:26:17Z</time>
      </trkpt>
      <trkpt lat="37.0411660" lon="-3.0108900">
        <ele>1485.6</ele>
        <time>2020-07-13T05:26:19Z</time>
      </trkpt>
      <trkpt lat="37.0412400" lon="-3.0109900">
        <ele>1486.4</ele>
        <time>2020-07-13T05:26:23Z</time>
      </trkpt>
      <trkpt lat="37.0413490" lon="-3.0111420">
        <ele>1487.6</ele>
        <time>2020-07-13T05:26:29Z</time>
      </trkpt>
      <trkpt lat="37.0414420" lon="-3.0112740">
        <ele>1488.4</ele>
        <time>2020-07-13T05:26:34Z</time>
      </trkpt>
      <trkpt lat="37.0414530" lon="-3.0112920">
        <ele>1488.6</ele>
        <time>2020-07-13T05:26:35Z</time>
      </trkpt>
      <trkpt lat="37.0415730" lon="-3.0114470">
        <ele>1489.8</ele>
        <time>2020-07-13T05:26:41Z</time>
      </trkpt>
      <trkpt lat="37.0416280" lon="-3.0115210">
        <ele>1490.4</ele>
        <time>2020-07-13T05:26:44Z</time>
      </trkpt>
      <trkpt lat="37.0416800" lon="-3.0115980">
        <ele>1490.8</ele>
        <time>2020-07-13T05:26:47Z</time>
      </trkpt>
      <trkpt lat="37.0418050" lon="-3.0117780">
        <ele>1492.0</ele>
        <time>2020-07-13T05:26:54Z</time>
      </trkpt>
      <trkpt lat="37.0418230" lon="-3.0118040">
        <ele>1492.0</ele>
        <time>2020-07-13T05:26:55Z</time>
      </trkpt>
      <trkpt lat="37.0419110" lon="-3.0119360">
        <ele>1493.0</ele>
        <time>2020-07-13T05:27:00Z</time>
      </trkpt>
      <trkpt lat="37.0420130" lon="-3.0120970">
        <ele>1493.8</ele>
        <time>2020-07-13T05:27:06Z</time>
      </trkpt>
      <trkpt lat="37.0420320" lon="-3.0121250">
        <ele>1494.0</ele>
        <time>2020-07-13T05:27:07Z</time>
      </trkpt>
      <trkpt lat="37.0421930" lon="-3.0123460">
        <ele>1495.0</ele>
        <time>2020-07-13T05:27:15Z</time>
      </trkpt>
      <trkpt lat="37.0422550" lon="-3.0124320">
        <ele>1495.6</ele>
        <time>2020-07-13T05:27:18Z</time>
      </trkpt>
      <trkpt lat="37.0423140" lon="-3.0125150">
        <ele>1496.2</ele>
        <time>2020-07-13T05:27:21Z</time>
      </trkpt>
      <trkpt lat="37.0424530" lon="-3.0127080">
        <ele>1497.2</ele>
        <time>2020-07-13T05:27:28Z</time>
      </trkpt>
      <trkpt lat="37.0425290" lon="-3.0128090">
        <ele>1498.0</ele>
        <time>2020-07-13T05:27:32Z</time>
      </trkpt>
      <trkpt lat="37.0425680" lon="-3.0128580">
        <ele>1498.4</ele>
        <time>2020-07-13T05:27:34Z</time>
      </trkpt>
      <trkpt lat="37.0426770" lon="-3.0129700">
        <ele>1499.4</ele>
        <time>2020-07-13T05:27:39Z</time>
      </trkpt>
      <trkpt lat="37.0427240" lon="-3.0130110">
        <ele>1499.8</ele>
        <time>2020-07-13T05:27:41Z</time>
      </trkpt>
      <trkpt lat="37.0428030" lon="-3.0130630">
        <ele>1500.4</ele>
        <time>2020-07-13T05:27:44Z</time>
      </trkpt>
      <trkpt lat="37.0429410" lon="-3.0131270">
        <ele>1501.6</ele>
        <time>2020-07-13T05:27:49Z</time>
      </trkpt>
      <trkpt lat="37.0431150" lon="-3.0131550">
        <ele>1502.6</ele>
        <time>2020-07-13T05:27:55Z</time>
      </trkpt>
      <trkpt lat="37.0432310" lon="-3.0131650">
        <ele>1503.6</ele>
        <time>2020-07-13T05:27:59Z</time>
      </trkpt>
      <trkpt lat="37.0432900" lon="-3.0131660">
        <ele>1504.0</ele>
        <time>2020-07-13T05:28:01Z</time>
      </trkpt>
      <trkpt lat="37.0434230" lon="-3.0131680">
        <ele>1505.0</ele>
        <time>2020-07-13T05:28:06Z</time>
      </trkpt>
      <trkpt lat="37.0434490" lon="-3.0131650">
        <ele>1505.2</ele>
        <time>2020-07-13T05:28:07Z</time>
      </trkpt>
      <trkpt lat="37.0435530" lon="-3.0131680">
        <ele>1506.2</ele>
        <time>2020-07-13T05:28:11Z</time>
      </trkpt>
      <trkpt lat="37.0437120" lon="-3.0131790">
        <ele>1507.4</ele>
        <time>2020-07-13T05:28:17Z</time>
      </trkpt>
      <trkpt lat="37.0438790" lon="-3.0132260">
        <ele>1508.4</ele>
        <time>2020-07-13T05:28:23Z</time>
      </trkpt>
      <trkpt lat="37.0439620" lon="-3.0132620">
        <ele>1509.0</ele>
        <time>2020-07-13T05:28:26Z</time>
      </trkpt>
      <trkpt lat="37.0440430" lon="-3.0132990">
        <ele>1509.6</ele>
        <time>2020-07-13T05:28:29Z</time>
      </trkpt>
      <trkpt lat="37.0441760" lon="-3.0133660">
        <ele>1510.6</ele>
        <time>2020-07-13T05:28:34Z</time>
      </trkpt>
      <trkpt lat="37.0443370" lon="-3.0134630">
        <ele>1511.6</ele>
        <time>2020-07-13T05:28:40Z</time>
      </trkpt>
      <trkpt lat="37.0443660" lon="-3.0134810">
        <ele>1511.8</ele>
        <time>2020-07-13T05:28:41Z</time>
      </trkpt>
      <trkpt lat="37.0445250" lon="-3.0136060">
        <ele>1512.8</ele>
        <time>2020-07-13T05:28:47Z</time>
      </trkpt>
      <trkpt lat="37.0445540" lon="-3.0136310">
        <ele>1513.0</ele>
        <time>2020-07-13T05:28:48Z</time>
      </trkpt>
      <trkpt lat="37.0446950" lon="-3.0137600">
        <ele>1513.8</ele>
        <time>2020-07-13T05:28:53Z</time>
      </trkpt>
      <trkpt lat="37.0448550" lon="-3.0139100">
        <ele>1514.8</ele>
        <time>2020-07-13T05:28:59Z</time>
      </trkpt>
      <trkpt lat="37.0449070" lon="-3.0139570">
        <ele>1515.2</ele>
        <time>2020-07-13T05:29:01Z</time>
      </trkpt>
      <trkpt lat="37.0450300" lon="-3.0140690">
        <ele>1516.0</ele>
        <time>2020-07-13T05:29:06Z</time>
      </trkpt>
      <trkpt lat="37.0451920" lon="-3.0142070">
        <ele>1517.2</ele>
        <time>2020-07-13T05:29:12Z</time>
      </trkpt>
      <trkpt lat="37.0452200" lon="-3.0142290">
        <ele>1517.2</ele>
        <time>2020-07-13T05:29:13Z</time>
      </trkpt>
      <trkpt lat="37.0453930" lon="-3.0143510">
        <ele>1518.2</ele>
        <time>2020-07-13T05:29:19Z</time>
      </trkpt>
      <trkpt lat="37.0455930" lon="-3.0144900">
        <ele>1519.4</ele>
        <time>2020-07-13T05:29:26Z</time>
      </trkpt>
      <trkpt lat="37.0456280" lon="-3.0145130">
        <ele>1519.6</ele>
        <time>2020-07-13T05:29:27Z</time>
      </trkpt>
      <trkpt lat="37.0457780" lon="-3.0146220">
        <ele>1520.4</ele>
        <time>2020-07-13T05:29:32Z</time>
      </trkpt>
      <trkpt lat="37.0459540" lon="-3.0147710">
        <ele>1521.4</ele>
        <time>2020-07-13T05:29:38Z</time>
      </trkpt>
      <trkpt lat="37.0459820" lon="-3.0147960">
        <ele>1521.6</ele>
        <time>2020-07-13T05:29:39Z</time>
      </trkpt>
      <trkpt lat="37.0461580" lon="-3.0149530">
        <ele>1522.6</ele>
        <time>2020-07-13T05:29:45Z</time>
      </trkpt>
      <trkpt lat="37.0463080" lon="-3.0150860">
        <ele>1523.6</ele>
        <time>2020-07-13T05:29:50Z</time>
      </trkpt>
      <trkpt lat="37.0463340" lon="-3.0151080">
        <ele>1523.8</ele>
        <time>2020-07-13T05:29:51Z</time>
      </trkpt>
      <trkpt lat="37.0465180" lon="-3.0152490">
        <ele>1524.8</ele>
        <time>2020-07-13T05:29:57Z</time>
      </trkpt>
      <trkpt lat="37.0465480" lon="-3.0152690">
        <ele>1525.0</ele>
        <time>2020-07-13T05:29:58Z</time>
      </trkpt>
      <trkpt lat="37.0467370" lon="-3.0153920">
        <ele>1526.0</ele>
        <time>2020-07-13T05:30:04Z</time>
      </trkpt>
      <trkpt lat="37.0468930" lon="-3.0154930">
        <ele>1526.6</ele>
        <time>2020-07-13T05:30:09Z</time>
      </trkpt>
      <trkpt lat="37.0469840" lon="-3.0155530">
        <ele>1527.2</ele>
        <time>2020-07-13T05:30:12Z</time>
      </trkpt>
      <trkpt lat="37.0471670" lon="-3.0156720">
        <ele>1528.2</ele>
        <time>2020-07-13T05:30:18Z</time>
      </trkpt>
      <trkpt lat="37.0472590" lon="-3.0157290">
        <ele>1528.6</ele>
        <time>2020-07-13T05:30:21Z</time>
      </trkpt>
      <trkpt lat="37.0473500" lon="-3.0157910">
        <ele>1529.2</ele>
        <time>2020-07-13T05:30:24Z</time>
      </trkpt>
      <trkpt lat="37.0475620" lon="-3.0159290">
        <ele>1530.4</ele>
        <time>2020-07-13T05:30:31Z</time>
      </trkpt>
      <trkpt lat="37.0477050" lon="-3.0160110">
        <ele>1531.2</ele>
        <time>2020-07-13T05:30:36Z</time>
      </trkpt>
      <trkpt lat="37.0477310" lon="-3.0160260">
        <ele>1531.4</ele>
        <time>2020-07-13T05:30:37Z</time>
      </trkpt>
      <trkpt lat="37.0478900" lon="-3.0161140">
        <ele>1532.4</ele>
        <time>2020-07-13T05:30:43Z</time>
      </trkpt>
      <trkpt lat="37.0479460" lon="-3.0161450">
        <ele>1532.8</ele>
        <time>2020-07-13T05:30:45Z</time>
      </trkpt>
      <trkpt lat="37.0480480" lon="-3.0162020">
        <ele>1533.6</ele>
        <time>2020-07-13T05:30:49Z</time>
      </trkpt>
      <trkpt lat="37.0481010" lon="-3.0162250">
        <ele>1534.0</ele>
        <time>2020-07-13T05:30:51Z</time>
      </trkpt>
      <trkpt lat="37.0482070" lon="-3.0162770">
        <ele>1534.8</ele>
        <time>2020-07-13T05:30:55Z</time>
      </trkpt>
      <trkpt lat="37.0483500" lon="-3.0163450">
        <ele>1535.8</ele>
        <time>2020-07-13T05:31:00Z</time>
      </trkpt>
      <trkpt lat="37.0483780" lon="-3.0163570">
        <ele>1536.0</ele>
        <time>2020-07-13T05:31:01Z</time>
      </trkpt>
      <trkpt lat="37.0485480" lon="-3.0164380">
        <ele>1537.0</ele>
        <time>2020-07-13T05:31:07Z</time>
      </trkpt>
      <trkpt lat="37.0486040" lon="-3.0164600">
        <ele>1537.4</ele>
        <time>2020-07-13T05:31:09Z</time>
      </trkpt>
      <trkpt lat="37.0487470" lon="-3.0165080">
        <ele>1538.2</ele>
        <time>2020-07-13T05:31:14Z</time>
      </trkpt>
      <trkpt lat="37.0488930" lon="-3.0165540">
        <ele>1539.4</ele>
        <time>2020-07-13T05:31:19Z</time>
      </trkpt>
      <trkpt lat="37.0489520" lon="-3.0165690">
        <ele>1539.6</ele>
        <time>2020-07-13T05:31:21Z</time>
      </trkpt>
      <trkpt lat="37.0490960" lon="-3.0166040">
        <ele>1540.4</ele>
        <time>2020-07-13T05:31:26Z</time>
      </trkpt>
      <trkpt lat="37.0492640" lon="-3.0166550">
        <ele>1541.6</ele>
        <time>2020-07-13T05:31:32Z</time>
      </trkpt>
      <trkpt lat="37.0493200" lon="-3.0166760">
        <ele>1541.8</ele>
        <time>2020-07-13T05:31:34Z</time>
      </trkpt>
      <trkpt lat="37.0494270" lon="-3.0167180">
        <ele>1542.6</ele>
        <time>2020-07-13T05:31:38Z</time>
      </trkpt>
      <trkpt lat="37.0495940" lon="-3.0167870">
        <ele>1543.8</ele>
        <time>2020-07-13T05:31:44Z</time>
      </trkpt>
      <trkpt lat="37.0497380" lon="-3.0168470">
        <ele>1544.8</ele>
        <time>2020-07-13T05:31:49Z</time>
      </trkpt>
      <trkpt lat="37.0498800" lon="-3.0169110">
        <ele>1546.0</ele>
        <time>2020-07-13T05:31:54Z</time>
      </trkpt>
      <trkpt lat="37.0499680" lon="-3.0169350">
        <ele>1546.6</ele>
        <time>2020-07-13T05:31:57Z</time>
      </trkpt>
      <trkpt lat="37.0500290" lon="-3.0169480">
        <ele>1547.0</ele>
        <time>2020-07-13T05:31:59Z</time>
      </trkpt>
      <trkpt lat="37.0502450" lon="-3.0169730">
        <ele>1548.2</ele>
        <time>2020-07-13T05:32:06Z</time>
      </trkpt>
      <trkpt lat="37.0503380" lon="-3.0169700">
        <ele>1548.8</ele>
        <time>2020-07-13T05:32:09Z</time>
      </trkpt>
      <trkpt lat="37.0504000" lon="-3.0169660">
        <ele>1549.2</ele>
        <time>2020-07-13T05:32:11Z</time>
      </trkpt>
      <trkpt lat="37.0505570" lon="-3.0169530">
        <ele>1550.2</ele>
        <time>2020-07-13T05:32:16Z</time>
      </trkpt>
      <trkpt lat="37.0507160" lon="-3.0169390">
        <ele>1551.2</ele>
        <time>2020-07-13T05:32:21Z</time>
      </trkpt>
      <trkpt lat="37.0507470" lon="-3.0169370">
        <ele>1551.4</ele>
        <time>2020-07-13T05:32:22Z</time>
      </trkpt>
      <trkpt lat="37.0509380" lon="-3.0169150">
        <ele>1552.4</ele>
        <time>2020-07-13T05:32:28Z</time>
      </trkpt>
      <trkpt lat="37.0511010" lon="-3.0169150">
        <ele>1553.2</ele>
        <time>2020-07-13T05:32:33Z</time>
      </trkpt>
      <trkpt lat="37.0511320" lon="-3.0169150">
        <ele>1553.4</ele>
        <time>2020-07-13T05:32:34Z</time>
      </trkpt>
      <trkpt lat="37.0513220" lon="-3.0169330">
        <ele>1554.4</ele>
        <time>2020-07-13T05:32:40Z</time>
      </trkpt>
      <trkpt lat="37.0514450" lon="-3.0169700">
        <ele>1555.2</ele>
        <time>2020-07-13T05:32:44Z</time>
      </trkpt>
      <trkpt lat="37.0515020" lon="-3.0169950">
        <ele>1555.4</ele>
        <time>2020-07-13T05:32:46Z</time>
      </trkpt>
      <trkpt lat="37.0516500" lon="-3.0170690">
        <ele>1556.4</ele>
        <time>2020-07-13T05:32:51Z</time>
      </trkpt>
      <trkpt lat="37.0517980" lon="-3.0171400">
        <ele>1557.4</ele>
        <time>2020-07-13T05:32:56Z</time>
      </trkpt>
      <trkpt lat="37.0518290" lon="-3.0171540">
        <ele>1557.6</ele>
        <time>2020-07-13T05:32:57Z</time>
      </trkpt>
      <trkpt lat="37.0521000" lon="-3.0172190">
        <ele>1558.6</ele>
        <time>2020-07-13T05:33:05Z</time>
      </trkpt>
      <trkpt lat="37.0522950" lon="-3.0171870">
        <ele>1559.6</ele>
        <time>2020-07-13T05:33:11Z</time>
      </trkpt>
      <trkpt lat="37.0524660" lon="-3.0171320">
        <ele>1560.8</ele>
        <time>2020-07-13T05:33:17Z</time>
      </trkpt>
      <trkpt lat="37.0525490" lon="-3.0171080">
        <ele>1561.4</ele>
        <time>2020-07-13T05:33:20Z</time>
      </trkpt>
      <trkpt lat="37.0526020" lon="-3.0170910">
        <ele>1561.8</ele>
        <time>2020-07-13T05:33:22Z</time>
      </trkpt>
      <trkpt lat="37.0527330" lon="-3.0170400">
        <ele>1563.0</ele>
        <time>2020-07-13T05:33:27Z</time>
      </trkpt>
      <trkpt lat="37.0528440" lon="-3.0170050">
        <ele>1563.8</ele>
        <time>2020-07-13T05:33:31Z</time>
      </trkpt>
      <trkpt lat="37.0528720" lon="-3.0169980">
        <ele>1564.0</ele>
        <time>2020-07-13T05:33:32Z</time>
      </trkpt>
      <trkpt lat="37.0530080" lon="-3.0169540">
        <ele>1565.0</ele>
        <time>2020-07-13T05:33:37Z</time>
      </trkpt>
      <trkpt lat="37.0530350" lon="-3.0169460">
        <ele>1565.2</ele>
        <time>2020-07-13T05:33:38Z</time>
      </trkpt>
      <trkpt lat="37.0531670" lon="-3.0169070">
        <ele>1566.2</ele>
        <time>2020-07-13T05:33:43Z</time>
      </trkpt>
      <trkpt lat="37.0533180" lon="-3.0168540">
        <ele>1567.2</ele>
        <time>2020-07-13T05:33:49Z</time>
      </trkpt>
      <trkpt lat="37.0534170" lon="-3.0168260">
        <ele>1568.4</ele>
        <time>2020-07-13T05:33:53Z</time>
      </trkpt>
      <trkpt lat="37.0535410" lon="-3.0167840">
        <ele>1569.4</ele>
        <time>2020-07-13T05:33:58Z</time>
      </trkpt>
      <trkpt lat="37.0536730" lon="-3.0167510">
        <ele>1570.4</ele>
        <time>2020-07-13T05:34:03Z</time>
      </trkpt>
      <trkpt lat="37.0538080" lon="-3.0167240">
        <ele>1571.2</ele>
        <time>2020-07-13T05:34:08Z</time>
      </trkpt>
      <trkpt lat="37.0538340" lon="-3.0167220">
        <ele>1571.4</ele>
        <time>2020-07-13T05:34:09Z</time>
      </trkpt>
      <trkpt lat="37.0539400" lon="-3.0167090">
        <ele>1572.6</ele>
        <time>2020-07-13T05:34:13Z</time>
      </trkpt>
      <trkpt lat="37.0540410" lon="-3.0166990">
        <ele>1573.4</ele>
        <time>2020-07-13T05:34:17Z</time>
      </trkpt>
      <trkpt lat="37.0540660" lon="-3.0166970">
        <ele>1573.6</ele>
        <time>2020-07-13T05:34:18Z</time>
      </trkpt>
      <trkpt lat="37.0541950" lon="-3.0166930">
        <ele>1574.8</ele>
        <time>2020-07-13T05:34:23Z</time>
      </trkpt>
      <trkpt lat="37.0543190" lon="-3.0166910">
        <ele>1575.8</ele>
        <time>2020-07-13T05:34:28Z</time>
      </trkpt>
      <trkpt lat="37.0544410" lon="-3.0166990">
        <ele>1577.0</ele>
        <time>2020-07-13T05:34:33Z</time>
      </trkpt>
      <trkpt lat="37.0545870" lon="-3.0167180">
        <ele>1578.2</ele>
        <time>2020-07-13T05:34:39Z</time>
      </trkpt>
      <trkpt lat="37.0547310" lon="-3.0167400">
        <ele>1579.2</ele>
        <time>2020-07-13T05:34:45Z</time>
      </trkpt>
      <trkpt lat="37.0548240" lon="-3.0167610">
        <ele>1580.2</ele>
        <time>2020-07-13T05:34:49Z</time>
      </trkpt>
      <trkpt lat="37.0548470" lon="-3.0167660">
        <ele>1580.4</ele>
        <time>2020-07-13T05:34:50Z</time>
      </trkpt>
      <trkpt lat="37.0549830" lon="-3.0168020">
        <ele>1581.6</ele>
        <time>2020-07-13T05:34:56Z</time>
      </trkpt>
      <trkpt lat="37.0551180" lon="-3.0168460">
        <ele>1582.6</ele>
        <time>2020-07-13T05:35:02Z</time>
      </trkpt>
      <trkpt lat="37.0552550" lon="-3.0168900">
        <ele>1583.6</ele>
        <time>2020-07-13T05:35:08Z</time>
      </trkpt>
      <trkpt lat="37.0553710" lon="-3.0169130">
        <ele>1584.6</ele>
        <time>2020-07-13T05:35:13Z</time>
      </trkpt>
      <trkpt lat="37.0553950" lon="-3.0169160">
        <ele>1585.0</ele>
        <time>2020-07-13T05:35:14Z</time>
      </trkpt>
      <trkpt lat="37.0554880" lon="-3.0169210">
        <ele>1585.8</ele>
        <time>2020-07-13T05:35:18Z</time>
      </trkpt>
      <trkpt lat="37.0556290" lon="-3.0169120">
        <ele>1587.0</ele>
        <time>2020-07-13T05:35:24Z</time>
      </trkpt>
      <trkpt lat="37.0557420" lon="-3.0168980">
        <ele>1588.0</ele>
        <time>2020-07-13T05:35:29Z</time>
      </trkpt>
      <trkpt lat="37.0558560" lon="-3.0168780">
        <ele>1589.0</ele>
        <time>2020-07-13T05:35:34Z</time>
      </trkpt>
      <trkpt lat="37.0559690" lon="-3.0168640">
        <ele>1590.0</ele>
        <time>2020-07-13T05:35:39Z</time>
      </trkpt>
      <trkpt lat="37.0560860" lon="-3.0168410">
        <ele>1591.2</ele>
        <time>2020-07-13T05:35:44Z</time>
      </trkpt>
      <trkpt lat="37.0562260" lon="-3.0168300">
        <ele>1592.2</ele>
        <time>2020-07-13T05:35:50Z</time>
      </trkpt>
      <trkpt lat="37.0562950" lon="-3.0168350">
        <ele>1592.8</ele>
        <time>2020-07-13T05:35:53Z</time>
      </trkpt>
      <trkpt lat="37.0563440" lon="-3.0168320">
        <ele>1593.4</ele>
        <time>2020-07-13T05:35:55Z</time>
      </trkpt>
      <trkpt lat="37.0564830" lon="-3.0168410">
        <ele>1594.6</ele>
        <time>2020-07-13T05:36:01Z</time>
      </trkpt>
      <trkpt lat="37.0566030" lon="-3.0168530">
        <ele>1595.6</ele>
        <time>2020-07-13T05:36:06Z</time>
      </trkpt>
      <trkpt lat="37.0567110" lon="-3.0168590">
        <ele>1596.6</ele>
        <time>2020-07-13T05:36:10Z</time>
      </trkpt>
      <trkpt lat="37.0567330" lon="-3.0168640">
        <ele>1596.8</ele>
        <time>2020-07-13T05:36:11Z</time>
      </trkpt>
      <trkpt lat="37.0568600" lon="-3.0168770">
        <ele>1598.0</ele>
        <time>2020-07-13T05:36:16Z</time>
      </trkpt>
      <trkpt lat="37.0568860" lon="-3.0168810">
        <ele>1598.2</ele>
        <time>2020-07-13T05:36:17Z</time>
      </trkpt>
      <trkpt lat="37.0570100" lon="-3.0168750">
        <ele>1599.2</ele>
        <time>2020-07-13T05:36:22Z</time>
      </trkpt>
      <trkpt lat="37.0570600" lon="-3.0168680">
        <ele>1599.6</ele>
        <time>2020-07-13T05:36:24Z</time>
      </trkpt>
      <trkpt lat="37.0571350" lon="-3.0168540">
        <ele>1600.2</ele>
        <time>2020-07-13T05:36:27Z</time>
      </trkpt>
      <trkpt lat="37.0572590" lon="-3.0168260">
        <ele>1601.4</ele>
        <time>2020-07-13T05:36:32Z</time>
      </trkpt>
      <trkpt lat="37.0573080" lon="-3.0168170">
        <ele>1601.8</ele>
        <time>2020-07-13T05:36:34Z</time>
      </trkpt>
      <trkpt lat="37.0574140" lon="-3.0168000">
        <ele>1602.6</ele>
        <time>2020-07-13T05:36:38Z</time>
      </trkpt>
      <trkpt lat="37.0575460" lon="-3.0168000">
        <ele>1603.6</ele>
        <time>2020-07-13T05:36:43Z</time>
      </trkpt>
      <trkpt lat="37.0576780" lon="-3.0168130">
        <ele>1604.8</ele>
        <time>2020-07-13T05:36:48Z</time>
      </trkpt>
      <trkpt lat="37.0578050" lon="-3.0168310">
        <ele>1605.8</ele>
        <time>2020-07-13T05:36:53Z</time>
      </trkpt>
      <trkpt lat="37.0578820" lon="-3.0168450">
        <ele>1606.4</ele>
        <time>2020-07-13T05:36:56Z</time>
      </trkpt>
      <trkpt lat="37.0579370" lon="-3.0168550">
        <ele>1606.8</ele>
        <time>2020-07-13T05:36:58Z</time>
      </trkpt>
      <trkpt lat="37.0580440" lon="-3.0168770">
        <ele>1607.8</ele>
        <time>2020-07-13T05:37:02Z</time>
      </trkpt>
      <trkpt lat="37.0581730" lon="-3.0169260">
        <ele>1608.8</ele>
        <time>2020-07-13T05:37:07Z</time>
      </trkpt>
      <trkpt lat="37.0581970" lon="-3.0169360">
        <ele>1609.0</ele>
        <time>2020-07-13T05:37:08Z</time>
      </trkpt>
      <trkpt lat="37.0582700" lon="-3.0169730">
        <ele>1610.0</ele>
        <time>2020-07-13T05:37:11Z</time>
      </trkpt>
      <trkpt lat="37.0583860" lon="-3.0170550">
        <ele>1611.0</ele>
        <time>2020-07-13T05:37:16Z</time>
      </trkpt>
      <trkpt lat="37.0584870" lon="-3.0171230">
        <ele>1612.2</ele>
        <time>2020-07-13T05:37:20Z</time>
      </trkpt>
      <trkpt lat="37.0585790" lon="-3.0171930">
        <ele>1613.4</ele>
        <time>2020-07-13T05:37:24Z</time>
      </trkpt>
      <trkpt lat="37.0586470" lon="-3.0172480">
        <ele>1614.0</ele>
        <time>2020-07-13T05:37:27Z</time>
      </trkpt>
      <trkpt lat="37.0586710" lon="-3.0172660">
        <ele>1614.4</ele>
        <time>2020-07-13T05:37:28Z</time>
      </trkpt>
      <trkpt lat="37.0587900" lon="-3.0173480">
        <ele>1615.6</ele>
        <time>2020-07-13T05:37:33Z</time>
      </trkpt>
      <trkpt lat="37.0589200" lon="-3.0173980">
        <ele>1616.6</ele>
        <time>2020-07-13T05:37:38Z</time>
      </trkpt>
      <trkpt lat="37.0589480" lon="-3.0174030">
        <ele>1616.8</ele>
        <time>2020-07-13T05:37:39Z</time>
      </trkpt>
      <trkpt lat="37.0590870" lon="-3.0174270">
        <ele>1617.8</ele>
        <time>2020-07-13T05:37:44Z</time>
      </trkpt>
      <trkpt lat="37.0592220" lon="-3.0174480">
        <ele>1618.8</ele>
        <time>2020-07-13T05:37:49Z</time>
      </trkpt>
      <trkpt lat="37.0592480" lon="-3.0174570">
        <ele>1619.0</ele>
        <time>2020-07-13T05:37:50Z</time>
      </trkpt>
      <trkpt lat="37.0593800" lon="-3.0174930">
        <ele>1620.0</ele>
        <time>2020-07-13T05:37:55Z</time>
      </trkpt>
      <trkpt lat="37.0595170" lon="-3.0175420">
        <ele>1620.8</ele>
        <time>2020-07-13T05:38:00Z</time>
      </trkpt>
      <trkpt lat="37.0595430" lon="-3.0175540">
        <ele>1621.0</ele>
        <time>2020-07-13T05:38:01Z</time>
      </trkpt>
      <trkpt lat="37.0597380" lon="-3.0176340">
        <ele>1622.0</ele>
        <time>2020-07-13T05:38:08Z</time>
      </trkpt>
      <trkpt lat="37.0597660" lon="-3.0176450">
        <ele>1622.2</ele>
        <time>2020-07-13T05:38:09Z</time>
      </trkpt>
      <trkpt lat="37.0599370" lon="-3.0177110">
        <ele>1623.2</ele>
        <time>2020-07-13T05:38:15Z</time>
      </trkpt>
      <trkpt lat="37.0600660" lon="-3.0177430">
        <ele>1623.8</ele>
        <time>2020-07-13T05:38:19Z</time>
      </trkpt>
      <trkpt lat="37.0601670" lon="-3.0177740">
        <ele>1624.2</ele>
        <time>2020-07-13T05:38:22Z</time>
      </trkpt>
      <trkpt lat="37.0602630" lon="-3.0177930">
        <ele>1624.8</ele>
        <time>2020-07-13T05:38:25Z</time>
      </trkpt>
      <trkpt lat="37.0603550" lon="-3.0178140">
        <ele>1625.4</ele>
        <time>2020-07-13T05:38:28Z</time>
      </trkpt>
      <trkpt lat="37.0605450" lon="-3.0178500">
        <ele>1626.6</ele>
        <time>2020-07-13T05:38:34Z</time>
      </trkpt>
      <trkpt lat="37.0606060" lon="-3.0178640">
        <ele>1627.0</ele>
        <time>2020-07-13T05:38:36Z</time>
      </trkpt>
      <trkpt lat="37.0606990" lon="-3.0178840">
        <ele>1627.6</ele>
        <time>2020-07-13T05:38:39Z</time>
      </trkpt>
      <trkpt lat="37.0608860" lon="-3.0179320">
        <ele>1628.6</ele>
        <time>2020-07-13T05:38:45Z</time>
      </trkpt>
      <trkpt lat="37.0609510" lon="-3.0179450">
        <ele>1629.0</ele>
        <time>2020-07-13T05:38:47Z</time>
      </trkpt>
      <trkpt lat="37.0611170" lon="-3.0179400">
        <ele>1629.8</ele>
        <time>2020-07-13T05:38:52Z</time>
      </trkpt>
      <trkpt lat="37.0611850" lon="-3.0179240">
        <ele>1630.2</ele>
        <time>2020-07-13T05:38:54Z</time>
      </trkpt>
      <trkpt lat="37.0613510" lon="-3.0178900">
        <ele>1630.8</ele>
        <time>2020-07-13T05:38:59Z</time>
      </trkpt>
      <trkpt lat="37.0615240" lon="-3.0178510">
        <ele>1631.6</ele>
        <time>2020-07-13T05:39:04Z</time>
      </trkpt>
      <trkpt lat="37.0615900" lon="-3.0178380">
        <ele>1632.0</ele>
        <time>2020-07-13T05:39:06Z</time>
      </trkpt>
      <trkpt lat="37.0617630" lon="-3.0177990">
        <ele>1632.6</ele>
        <time>2020-07-13T05:39:11Z</time>
      </trkpt>
      <trkpt lat="37.0618390" lon="-3.0177820">
        <ele>1632.6</ele>
        <time>2020-07-13T05:39:13Z</time>
      </trkpt>
      <trkpt lat="37.0619840" lon="-3.0177530">
        <ele>1633.0</ele>
        <time>2020-07-13T05:39:17Z</time>
      </trkpt>
      <trkpt lat="37.0622220" lon="-3.0176980">
        <ele>1633.8</ele>
        <time>2020-07-13T05:39:23Z</time>
      </trkpt>
      <trkpt lat="37.0623410" lon="-3.0176740">
        <ele>1634.0</ele>
        <time>2020-07-13T05:39:26Z</time>
      </trkpt>
      <trkpt lat="37.0626780" lon="-3.0176040">
        <ele>1634.6</ele>
        <time>2020-07-13T05:39:34Z</time>
      </trkpt>
      <trkpt lat="37.0628890" lon="-3.0175340">
        <ele>1634.8</ele>
        <time>2020-07-13T05:39:39Z</time>
      </trkpt>
      <trkpt lat="37.0629270" lon="-3.0175110">
        <ele>1635.0</ele>
        <time>2020-07-13T05:39:40Z</time>
      </trkpt>
      <trkpt lat="37.0629990" lon="-3.0174610">
        <ele>1635.2</ele>
        <time>2020-07-13T05:39:42Z</time>
      </trkpt>
      <trkpt lat="37.0632630" lon="-3.0172390">
        <ele>1636.0</ele>
        <time>2020-07-13T05:39:49Z</time>
      </trkpt>
      <trkpt lat="37.0633850" lon="-3.0171320">
        <ele>1636.2</ele>
        <time>2020-07-13T05:39:52Z</time>
      </trkpt>
      <trkpt lat="37.0636310" lon="-3.0169490">
        <ele>1636.8</ele>
        <time>2020-07-13T05:39:58Z</time>
      </trkpt>
      <trkpt lat="37.0638220" lon="-3.0169030">
        <ele>1637.2</ele>
        <time>2020-07-13T05:40:02Z</time>
      </trkpt>
      <trkpt lat="37.0638690" lon="-3.0169010">
        <ele>1637.2</ele>
        <time>2020-07-13T05:40:03Z</time>
      </trkpt>
      <trkpt lat="37.0641420" lon="-3.0169660">
        <ele>1638.2</ele>
        <time>2020-07-13T05:40:09Z</time>
      </trkpt>
      <trkpt lat="37.0644910" lon="-3.0170910">
        <ele>1639.0</ele>
        <time>2020-07-13T05:40:17Z</time>
      </trkpt>
      <trkpt lat="37.0648000" lon="-3.0172080">
        <ele>1639.4</ele>
        <time>2020-07-13T05:40:24Z</time>
      </trkpt>
      <trkpt lat="37.0649250" lon="-3.0172510">
        <ele>1639.6</ele>
        <time>2020-07-13T05:40:27Z</time>
      </trkpt>
      <trkpt lat="37.0651330" lon="-3.0173450">
        <ele>1640.4</ele>
        <time>2020-07-13T05:40:32Z</time>
      </trkpt>
      <trkpt lat="37.0652900" lon="-3.0174420">
        <ele>1640.6</ele>
        <time>2020-07-13T05:40:36Z</time>
      </trkpt>
      <trkpt lat="37.0656050" lon="-3.0175830">
        <ele>1640.8</ele>
        <time>2020-07-13T05:40:43Z</time>
      </trkpt>
      <trkpt lat="37.0656580" lon="-3.0175790">
        <ele>1640.8</ele>
        <time>2020-07-13T05:40:44Z</time>
      </trkpt>
      <trkpt lat="37.0658940" lon="-3.0174870">
        <ele>1641.2</ele>
        <time>2020-07-13T05:40:49Z</time>
      </trkpt>
      <trkpt lat="37.0659360" lon="-3.0174610">
        <ele>1641.4</ele>
        <time>2020-07-13T05:40:50Z</time>
      </trkpt>
      <trkpt lat="37.0660940" lon="-3.0173720">
        <ele>1642.4</ele>
        <time>2020-07-13T05:40:54Z</time>
      </trkpt>
      <trkpt lat="37.0661320" lon="-3.0173460">
        <ele>1642.6</ele>
        <time>2020-07-13T05:40:55Z</time>
      </trkpt>
      <trkpt lat="37.0661680" lon="-3.0173250">
        <ele>1642.8</ele>
        <time>2020-07-13T05:40:56Z</time>
      </trkpt>
      <trkpt lat="37.0663240" lon="-3.0172260">
        <ele>1643.6</ele>
        <time>2020-07-13T05:41:00Z</time>
      </trkpt>
      <trkpt lat="37.0665180" lon="-3.0171080">
        <ele>1644.6</ele>
        <time>2020-07-13T05:41:05Z</time>
      </trkpt>
      <trkpt lat="37.0665560" lon="-3.0170860">
        <ele>1644.8</ele>
        <time>2020-07-13T05:41:06Z</time>
      </trkpt>
      <trkpt lat="37.0667420" lon="-3.0170010">
        <ele>1645.8</ele>
        <time>2020-07-13T05:41:11Z</time>
      </trkpt>
      <trkpt lat="37.0667880" lon="-3.0169960">
        <ele>1646.0</ele>
        <time>2020-07-13T05:41:12Z</time>
      </trkpt>
      <trkpt lat="37.0668260" lon="-3.0169930">
        <ele>1646.4</ele>
        <time>2020-07-13T05:41:13Z</time>
      </trkpt>
      <trkpt lat="37.0669280" lon="-3.0169840">
        <ele>1647.2</ele>
        <time>2020-07-13T05:41:16Z</time>
      </trkpt>
      <trkpt lat="37.0669960" lon="-3.0170030">
        <ele>1647.6</ele>
        <time>2020-07-13T05:41:18Z</time>
      </trkpt>
      <trkpt lat="37.0671170" lon="-3.0170340">
        <ele>1648.4</ele>
        <time>2020-07-13T05:41:22Z</time>
      </trkpt>
      <trkpt lat="37.0672550" lon="-3.0170750">
        <ele>1649.4</ele>
        <time>2020-07-13T05:41:27Z</time>
      </trkpt>
      <trkpt lat="37.0672820" lon="-3.0170810">
        <ele>1649.6</ele>
        <time>2020-07-13T05:41:28Z</time>
      </trkpt>
      <trkpt lat="37.0674350" lon="-3.0171350">
        <ele>1650.6</ele>
        <time>2020-07-13T05:41:34Z</time>
      </trkpt>
      <trkpt lat="37.0674600" lon="-3.0171430">
        <ele>1650.8</ele>
        <time>2020-07-13T05:41:35Z</time>
      </trkpt>
      <trkpt lat="37.0676100" lon="-3.0172030">
        <ele>1651.6</ele>
        <time>2020-07-13T05:41:41Z</time>
      </trkpt>
      <trkpt lat="37.0677150" lon="-3.0172400">
        <ele>1652.4</ele>
        <time>2020-07-13T05:41:45Z</time>
      </trkpt>
      <trkpt lat="37.0677650" lon="-3.0172510">
        <ele>1652.8</ele>
        <time>2020-07-13T05:41:47Z</time>
      </trkpt>
      <trkpt lat="37.0679190" lon="-3.0173110">
        <ele>1653.8</ele>
        <time>2020-07-13T05:41:53Z</time>
      </trkpt>
      <trkpt lat="37.0679470" lon="-3.0173230">
        <ele>1654.0</ele>
        <time>2020-07-13T05:41:54Z</time>
      </trkpt>
      <trkpt lat="37.0681080" lon="-3.0173750">
        <ele>1655.0</ele>
        <time>2020-07-13T05:42:00Z</time>
      </trkpt>
      <trkpt lat="37.0681890" lon="-3.0173940">
        <ele>1655.4</ele>
        <time>2020-07-13T05:42:03Z</time>
      </trkpt>
      <trkpt lat="37.0682910" lon="-3.0174180">
        <ele>1656.0</ele>
        <time>2020-07-13T05:42:07Z</time>
      </trkpt>
      <trkpt lat="37.0684510" lon="-3.0174430">
        <ele>1657.0</ele>
        <time>2020-07-13T05:42:13Z</time>
      </trkpt>
      <trkpt lat="37.0686400" lon="-3.0174590">
        <ele>1658.2</ele>
        <time>2020-07-13T05:42:20Z</time>
      </trkpt>
      <trkpt lat="37.0686650" lon="-3.0174620">
        <ele>1658.4</ele>
        <time>2020-07-13T05:42:21Z</time>
      </trkpt>
      <trkpt lat="37.0687780" lon="-3.0174700">
        <ele>1659.4</ele>
        <time>2020-07-13T05:42:25Z</time>
      </trkpt>
      <trkpt lat="37.0688910" lon="-3.0174790">
        <ele>1660.2</ele>
        <time>2020-07-13T05:42:29Z</time>
      </trkpt>
      <trkpt lat="37.0689460" lon="-3.0174780">
        <ele>1660.4</ele>
        <time>2020-07-13T05:42:31Z</time>
      </trkpt>
      <trkpt lat="37.0691080" lon="-3.0174810">
        <ele>1661.6</ele>
        <time>2020-07-13T05:42:37Z</time>
      </trkpt>
      <trkpt lat="37.0691360" lon="-3.0174790">
        <ele>1661.6</ele>
        <time>2020-07-13T05:42:38Z</time>
      </trkpt>
      <trkpt lat="37.0692950" lon="-3.0174890">
        <ele>1662.8</ele>
        <time>2020-07-13T05:42:44Z</time>
      </trkpt>
      <trkpt lat="37.0693750" lon="-3.0174940">
        <ele>1663.4</ele>
        <time>2020-07-13T05:42:47Z</time>
      </trkpt>
      <trkpt lat="37.0694320" lon="-3.0174980">
        <ele>1663.8</ele>
        <time>2020-07-13T05:42:49Z</time>
      </trkpt>
      <trkpt lat="37.0696250" lon="-3.0175180">
        <ele>1665.0</ele>
        <time>2020-07-13T05:42:56Z</time>
      </trkpt>
      <trkpt lat="37.0696550" lon="-3.0175240">
        <ele>1665.2</ele>
        <time>2020-07-13T05:42:57Z</time>
      </trkpt>
      <trkpt lat="37.0697930" lon="-3.0175340">
        <ele>1666.0</ele>
        <time>2020-07-13T05:43:02Z</time>
      </trkpt>
      <trkpt lat="37.0699600" lon="-3.0175410">
        <ele>1667.2</ele>
        <time>2020-07-13T05:43:08Z</time>
      </trkpt>
      <trkpt lat="37.0699870" lon="-3.0175430">
        <ele>1667.6</ele>
        <time>2020-07-13T05:43:09Z</time>
      </trkpt>
      <trkpt lat="37.0701250" lon="-3.0175610">
        <ele>1668.2</ele>
        <time>2020-07-13T05:43:14Z</time>
      </trkpt>
      <trkpt lat="37.0702350" lon="-3.0175780">
        <ele>1669.2</ele>
        <time>2020-07-13T05:43:18Z</time>
      </trkpt>
      <trkpt lat="37.0702620" lon="-3.0175840">
        <ele>1669.4</ele>
        <time>2020-07-13T05:43:19Z</time>
      </trkpt>
      <trkpt lat="37.0704780" lon="-3.0176580">
        <ele>1670.6</ele>
        <time>2020-07-13T05:43:27Z</time>
      </trkpt>
      <trkpt lat="37.0706140" lon="-3.0177150">
        <ele>1671.6</ele>
        <time>2020-07-13T05:43:32Z</time>
      </trkpt>
      <trkpt lat="37.0707540" lon="-3.0177650">
        <ele>1672.2</ele>
        <time>2020-07-13T05:43:37Z</time>
      </trkpt>
      <trkpt lat="37.0709280" lon="-3.0178660">
        <ele>1672.6</ele>
        <time>2020-07-13T05:43:43Z</time>
      </trkpt>
      <trkpt lat="37.0709850" lon="-3.0179190">
        <ele>1672.6</ele>
        <time>2020-07-13T05:43:47Z</time>
      </trkpt>
      <trkpt lat="37.0712020" lon="-3.0181950">
        <ele>1672.6</ele>
        <time>2020-07-13T05:43:54Z</time>
      </trkpt>
      <trkpt lat="37.0713490" lon="-3.0183160">
        <ele>1672.8</ele>
        <time>2020-07-13T05:43:59Z</time>
      </trkpt>
      <trkpt lat="37.0714140" lon="-3.0183480">
        <ele>1673.0</ele>
        <time>2020-07-13T05:44:01Z</time>
      </trkpt>
      <trkpt lat="37.0716200" lon="-3.0183940">
        <ele>1673.6</ele>
        <time>2020-07-13T05:44:07Z</time>
      </trkpt>
      <trkpt lat="37.0716970" lon="-3.0184070">
        <ele>1673.8</ele>
        <time>2020-07-13T05:44:09Z</time>
      </trkpt>
      <trkpt lat="37.0719040" lon="-3.0184500">
        <ele>1674.8</ele>
        <time>2020-07-13T05:44:15Z</time>
      </trkpt>
      <trkpt lat="37.0720090" lon="-3.0184810">
        <ele>1675.2</ele>
        <time>2020-07-13T05:44:18Z</time>
      </trkpt>
      <trkpt lat="37.0722630" lon="-3.0186190">
        <ele>1675.8</ele>
        <time>2020-07-13T05:44:26Z</time>
      </trkpt>
      <trkpt lat="37.0722930" lon="-3.0186400">
        <ele>1675.8</ele>
        <time>2020-07-13T05:44:27Z</time>
      </trkpt>
      <trkpt lat="37.0724750" lon="-3.0187950">
        <ele>1676.2</ele>
        <time>2020-07-13T05:44:34Z</time>
      </trkpt>
      <trkpt lat="37.0726950" lon="-3.0189960">
        <ele>1676.8</ele>
        <time>2020-07-13T05:44:43Z</time>
      </trkpt>
      <trkpt lat="37.0727180" lon="-3.0190160">
        <ele>1677.0</ele>
        <time>2020-07-13T05:44:44Z</time>
      </trkpt>
      <trkpt lat="37.0728290" lon="-3.0191160">
        <ele>1678.0</ele>
        <time>2020-07-13T05:44:49Z</time>
      </trkpt>
      <trkpt lat="37.0729140" lon="-3.0191980">
        <ele>1678.8</ele>
        <time>2020-07-13T05:44:53Z</time>
      </trkpt>
      <trkpt lat="37.0729550" lon="-3.0192410">
        <ele>1679.0</ele>
        <time>2020-07-13T05:44:55Z</time>
      </trkpt>
      <trkpt lat="37.0730470" lon="-3.0193620">
        <ele>1679.8</ele>
        <time>2020-07-13T05:45:00Z</time>
      </trkpt>
      <trkpt lat="37.0730780" lon="-3.0194210">
        <ele>1680.0</ele>
        <time>2020-07-13T05:45:02Z</time>
      </trkpt>
      <trkpt lat="37.0730910" lon="-3.0194520">
        <ele>1680.0</ele>
        <time>2020-07-13T05:45:03Z</time>
      </trkpt>
      <trkpt lat="37.0731360" lon="-3.0196830">
        <ele>1680.8</ele>
        <time>2020-07-13T05:45:10Z</time>
      </trkpt>
      <trkpt lat="37.0731580" lon="-3.0198330">
        <ele>1681.2</ele>
        <time>2020-07-13T05:45:14Z</time>
      </trkpt>
      <trkpt lat="37.0731820" lon="-3.0200140">
        <ele>1681.6</ele>
        <time>2020-07-13T05:45:19Z</time>
      </trkpt>
      <trkpt lat="37.0732050" lon="-3.0201910">
        <ele>1682.4</ele>
        <time>2020-07-13T05:45:24Z</time>
      </trkpt>
      <trkpt lat="37.0732330" lon="-3.0204070">
        <ele>1683.0</ele>
        <time>2020-07-13T05:45:30Z</time>
      </trkpt>
      <trkpt lat="37.0732540" lon="-3.0205480">
        <ele>1683.4</ele>
        <time>2020-07-13T05:45:34Z</time>
      </trkpt>
      <trkpt lat="37.0732900" lon="-3.0207240">
        <ele>1684.0</ele>
        <time>2020-07-13T05:45:39Z</time>
      </trkpt>
      <trkpt lat="37.0733350" lon="-3.0208160">
        <ele>1684.6</ele>
        <time>2020-07-13T05:45:42Z</time>
      </trkpt>
      <trkpt lat="37.0734030" lon="-3.0208730">
        <ele>1685.2</ele>
        <time>2020-07-13T05:45:45Z</time>
      </trkpt>
      <trkpt lat="37.0734860" lon="-3.0208980">
        <ele>1685.6</ele>
        <time>2020-07-13T05:45:48Z</time>
      </trkpt>
      <trkpt lat="37.0735670" lon="-3.0208740">
        <ele>1686.6</ele>
        <time>2020-07-13T05:45:51Z</time>
      </trkpt>
      <trkpt lat="37.0735920" lon="-3.0208630">
        <ele>1686.8</ele>
        <time>2020-07-13T05:45:52Z</time>
      </trkpt>
      <trkpt lat="37.0736890" lon="-3.0207990">
        <ele>1687.8</ele>
        <time>2020-07-13T05:45:56Z</time>
      </trkpt>
      <trkpt lat="37.0737630" lon="-3.0207510">
        <ele>1688.6</ele>
        <time>2020-07-13T05:45:59Z</time>
      </trkpt>
      <trkpt lat="37.0738120" lon="-3.0207230">
        <ele>1689.0</ele>
        <time>2020-07-13T05:46:01Z</time>
      </trkpt>
      <trkpt lat="37.0739430" lon="-3.0206750">
        <ele>1690.0</ele>
        <time>2020-07-13T05:46:06Z</time>
      </trkpt>
      <trkpt lat="37.0739970" lon="-3.0206590">
        <ele>1690.6</ele>
        <time>2020-07-13T05:46:08Z</time>
      </trkpt>
      <trkpt lat="37.0740850" lon="-3.0206510">
        <ele>1691.2</ele>
        <time>2020-07-13T05:46:11Z</time>
      </trkpt>
      <trkpt lat="37.0741950" lon="-3.0206580">
        <ele>1692.0</ele>
        <time>2020-07-13T05:46:15Z</time>
      </trkpt>
      <trkpt lat="37.0742230" lon="-3.0206640">
        <ele>1692.2</ele>
        <time>2020-07-13T05:46:16Z</time>
      </trkpt>
      <trkpt lat="37.0744160" lon="-3.0207210">
        <ele>1693.4</ele>
        <time>2020-07-13T05:46:23Z</time>
      </trkpt>
      <trkpt lat="37.0744680" lon="-3.0207390">
        <ele>1693.6</ele>
        <time>2020-07-13T05:46:25Z</time>
      </trkpt>
      <trkpt lat="37.0745980" lon="-3.0207920">
        <ele>1694.6</ele>
        <time>2020-07-13T05:46:30Z</time>
      </trkpt>
      <trkpt lat="37.0747470" lon="-3.0208650">
        <ele>1695.4</ele>
        <time>2020-07-13T05:46:36Z</time>
      </trkpt>
      <trkpt lat="37.0747790" lon="-3.0208810">
        <ele>1695.6</ele>
        <time>2020-07-13T05:46:37Z</time>
      </trkpt>
      <trkpt lat="37.0749070" lon="-3.0209410">
        <ele>1696.8</ele>
        <time>2020-07-13T05:46:42Z</time>
      </trkpt>
      <trkpt lat="37.0750070" lon="-3.0209850">
        <ele>1697.4</ele>
        <time>2020-07-13T05:46:46Z</time>
      </trkpt>
      <trkpt lat="37.0750600" lon="-3.0210110">
        <ele>1697.8</ele>
        <time>2020-07-13T05:46:48Z</time>
      </trkpt>
      <trkpt lat="37.0751860" lon="-3.0210680">
        <ele>1698.8</ele>
        <time>2020-07-13T05:46:53Z</time>
      </trkpt>
      <trkpt lat="37.0752630" lon="-3.0210950">
        <ele>1699.4</ele>
        <time>2020-07-13T05:46:56Z</time>
      </trkpt>
      <trkpt lat="37.0753440" lon="-3.0211230">
        <ele>1699.8</ele>
        <time>2020-07-13T05:46:59Z</time>
      </trkpt>
      <trkpt lat="37.0755110" lon="-3.0211600">
        <ele>1700.8</ele>
        <time>2020-07-13T05:47:05Z</time>
      </trkpt>
      <trkpt lat="37.0755380" lon="-3.0211640">
        <ele>1700.8</ele>
        <time>2020-07-13T05:47:06Z</time>
      </trkpt>
      <trkpt lat="37.0757050" lon="-3.0211750">
        <ele>1701.8</ele>
        <time>2020-07-13T05:47:12Z</time>
      </trkpt>
      <trkpt lat="37.0757850" lon="-3.0211750">
        <ele>1702.4</ele>
        <time>2020-07-13T05:47:15Z</time>
      </trkpt>
      <trkpt lat="37.0758680" lon="-3.0211750">
        <ele>1703.0</ele>
        <time>2020-07-13T05:47:18Z</time>
      </trkpt>
      <trkpt lat="37.0760540" lon="-3.0211920">
        <ele>1704.0</ele>
        <time>2020-07-13T05:47:25Z</time>
      </trkpt>
      <trkpt lat="37.0760800" lon="-3.0211970">
        <ele>1704.2</ele>
        <time>2020-07-13T05:47:26Z</time>
      </trkpt>
      <trkpt lat="37.0762370" lon="-3.0212410">
        <ele>1705.2</ele>
        <time>2020-07-13T05:47:32Z</time>
      </trkpt>
      <trkpt lat="37.0763070" lon="-3.0212800">
        <ele>1705.8</ele>
        <time>2020-07-13T05:47:35Z</time>
      </trkpt>
      <trkpt lat="37.0763650" lon="-3.0213350">
        <ele>1706.4</ele>
        <time>2020-07-13T05:47:38Z</time>
      </trkpt>
      <trkpt lat="37.0764350" lon="-3.0214210">
        <ele>1707.0</ele>
        <time>2020-07-13T05:47:42Z</time>
      </trkpt>
      <trkpt lat="37.0764670" lon="-3.0214650">
        <ele>1707.4</ele>
        <time>2020-07-13T05:47:44Z</time>
      </trkpt>
      <trkpt lat="37.0765390" lon="-3.0215740">
        <ele>1708.4</ele>
        <time>2020-07-13T05:47:49Z</time>
      </trkpt>
      <trkpt lat="37.0765840" lon="-3.0216450">
        <ele>1709.0</ele>
        <time>2020-07-13T05:47:52Z</time>
      </trkpt>
      <trkpt lat="37.0766820" lon="-3.0217500">
        <ele>1709.8</ele>
        <time>2020-07-13T05:47:57Z</time>
      </trkpt>
      <trkpt lat="37.0767530" lon="-3.0217830">
        <ele>1710.4</ele>
        <time>2020-07-13T05:48:00Z</time>
      </trkpt>
      <trkpt lat="37.0768020" lon="-3.0217930">
        <ele>1710.8</ele>
        <time>2020-07-13T05:48:02Z</time>
      </trkpt>
      <trkpt lat="37.0769030" lon="-3.0217680">
        <ele>1711.6</ele>
        <time>2020-07-13T05:48:06Z</time>
      </trkpt>
      <trkpt lat="37.0769300" lon="-3.0217570">
        <ele>1711.8</ele>
        <time>2020-07-13T05:48:07Z</time>
      </trkpt>
      <trkpt lat="37.0770530" lon="-3.0216890">
        <ele>1712.8</ele>
        <time>2020-07-13T05:48:12Z</time>
      </trkpt>
      <trkpt lat="37.0771250" lon="-3.0216530">
        <ele>1713.4</ele>
        <time>2020-07-13T05:48:15Z</time>
      </trkpt>
      <trkpt lat="37.0771750" lon="-3.0216330">
        <ele>1714.0</ele>
        <time>2020-07-13T05:48:17Z</time>
      </trkpt>
      <trkpt lat="37.0772760" lon="-3.0216260">
        <ele>1715.0</ele>
        <time>2020-07-13T05:48:21Z</time>
      </trkpt>
      <trkpt lat="37.0773300" lon="-3.0216260">
        <ele>1715.4</ele>
        <time>2020-07-13T05:48:23Z</time>
      </trkpt>
      <trkpt lat="37.0774080" lon="-3.0216450">
        <ele>1716.2</ele>
        <time>2020-07-13T05:48:26Z</time>
      </trkpt>
      <trkpt lat="37.0775030" lon="-3.0216960">
        <ele>1717.0</ele>
        <time>2020-07-13T05:48:30Z</time>
      </trkpt>
      <trkpt lat="37.0775250" lon="-3.0217150">
        <ele>1717.2</ele>
        <time>2020-07-13T05:48:31Z</time>
      </trkpt>
      <trkpt lat="37.0776130" lon="-3.0218280">
        <ele>1718.2</ele>
        <time>2020-07-13T05:48:36Z</time>
      </trkpt>
      <trkpt lat="37.0776400" lon="-3.0218780">
        <ele>1718.6</ele>
        <time>2020-07-13T05:48:38Z</time>
      </trkpt>
      <trkpt lat="37.0776980" lon="-3.0220190">
        <ele>1719.4</ele>
        <time>2020-07-13T05:48:43Z</time>
      </trkpt>
      <trkpt lat="37.0777480" lon="-3.0222000">
        <ele>1720.6</ele>
        <time>2020-07-13T05:48:49Z</time>
      </trkpt>
      <trkpt lat="37.0778300" lon="-3.0223620">
        <ele>1721.6</ele>
        <time>2020-07-13T05:48:55Z</time>
      </trkpt>
      <trkpt lat="37.0778540" lon="-3.0223780">
        <ele>1721.8</ele>
        <time>2020-07-13T05:48:56Z</time>
      </trkpt>
      <trkpt lat="37.0779860" lon="-3.0223890">
        <ele>1722.4</ele>
        <time>2020-07-13T05:49:01Z</time>
      </trkpt>
      <trkpt lat="37.0780120" lon="-3.0223800">
        <ele>1722.6</ele>
        <time>2020-07-13T05:49:02Z</time>
      </trkpt>
      <trkpt lat="37.0781010" lon="-3.0222930">
        <ele>1723.8</ele>
        <time>2020-07-13T05:49:06Z</time>
      </trkpt>
      <trkpt lat="37.0782690" lon="-3.0221170">
        <ele>1725.0</ele>
        <time>2020-07-13T05:49:13Z</time>
      </trkpt>
      <trkpt lat="37.0783290" lon="-3.0220860">
        <ele>1725.2</ele>
        <time>2020-07-13T05:49:15Z</time>
      </trkpt>
      <trkpt lat="37.0785250" lon="-3.0220740">
        <ele>1725.8</ele>
        <time>2020-07-13T05:49:21Z</time>
      </trkpt>
      <trkpt lat="37.0785910" lon="-3.0221010">
        <ele>1726.0</ele>
        <time>2020-07-13T05:49:23Z</time>
      </trkpt>
      <trkpt lat="37.0787750" lon="-3.0222020">
        <ele>1726.6</ele>
        <time>2020-07-13T05:49:29Z</time>
      </trkpt>
      <trkpt lat="37.0789240" lon="-3.0222830">
        <ele>1727.2</ele>
        <time>2020-07-13T05:49:34Z</time>
      </trkpt>
      <trkpt lat="37.0790770" lon="-3.0223460">
        <ele>1727.8</ele>
        <time>2020-07-13T05:49:39Z</time>
      </trkpt>
      <trkpt lat="37.0791770" lon="-3.0223440">
        <ele>1728.4</ele>
        <time>2020-07-13T05:49:42Z</time>
      </trkpt>
      <trkpt lat="37.0793650" lon="-3.0223310">
        <ele>1729.4</ele>
        <time>2020-07-13T05:49:48Z</time>
      </trkpt>
      <trkpt lat="37.0795520" lon="-3.0223510">
        <ele>1730.6</ele>
        <time>2020-07-13T05:49:54Z</time>
      </trkpt>
      <trkpt lat="37.0796450" lon="-3.0223640">
        <ele>1731.2</ele>
        <time>2020-07-13T05:49:57Z</time>
      </trkpt>
      <trkpt lat="37.0797320" lon="-3.0223770">
        <ele>1731.6</ele>
        <time>2020-07-13T05:50:00Z</time>
      </trkpt>
      <trkpt lat="37.0799040" lon="-3.0224110">
        <ele>1732.6</ele>
        <time>2020-07-13T05:50:06Z</time>
      </trkpt>
      <trkpt lat="37.0800380" lon="-3.0224430">
        <ele>1733.8</ele>
        <time>2020-07-13T05:50:11Z</time>
      </trkpt>
      <trkpt lat="37.0800860" lon="-3.0224630">
        <ele>1734.4</ele>
        <time>2020-07-13T05:50:13Z</time>
      </trkpt>
      <trkpt lat="37.0801580" lon="-3.0224730">
        <ele>1735.0</ele>
        <time>2020-07-13T05:50:16Z</time>
      </trkpt>
      <trkpt lat="37.0802080" lon="-3.0224810">
        <ele>1735.6</ele>
        <time>2020-07-13T05:50:18Z</time>
      </trkpt>
      <trkpt lat="37.0802850" lon="-3.0224900">
        <ele>1736.2</ele>
        <time>2020-07-13T05:50:21Z</time>
      </trkpt>
      <trkpt lat="37.0803850" lon="-3.0225080">
        <ele>1736.8</ele>
        <time>2020-07-13T05:50:25Z</time>
      </trkpt>
      <trkpt lat="37.0804610" lon="-3.0225190">
        <ele>1737.2</ele>
        <time>2020-07-13T05:50:28Z</time>
      </trkpt>
      <trkpt lat="37.0805680" lon="-3.0225300">
        <ele>1738.0</ele>
        <time>2020-07-13T05:50:32Z</time>
      </trkpt>
      <trkpt lat="37.0806200" lon="-3.0225420">
        <ele>1738.4</ele>
        <time>2020-07-13T05:50:34Z</time>
      </trkpt>
      <trkpt lat="37.0807500" lon="-3.0225620">
        <ele>1739.2</ele>
        <time>2020-07-13T05:50:39Z</time>
      </trkpt>
      <trkpt lat="37.0808010" lon="-3.0225710">
        <ele>1739.6</ele>
        <time>2020-07-13T05:50:41Z</time>
      </trkpt>
      <trkpt lat="37.0809660" lon="-3.0225970">
        <ele>1740.8</ele>
        <time>2020-07-13T05:50:47Z</time>
      </trkpt>
      <trkpt lat="37.0811540" lon="-3.0226370">
        <ele>1741.8</ele>
        <time>2020-07-13T05:50:54Z</time>
      </trkpt>
      <trkpt lat="37.0811790" lon="-3.0226430">
        <ele>1742.0</ele>
        <time>2020-07-13T05:50:55Z</time>
      </trkpt>
      <trkpt lat="37.0813480" lon="-3.0226880">
        <ele>1743.0</ele>
        <time>2020-07-13T05:51:01Z</time>
      </trkpt>
      <trkpt lat="37.0813750" lon="-3.0226930">
        <ele>1743.2</ele>
        <time>2020-07-13T05:51:02Z</time>
      </trkpt>
      <trkpt lat="37.0815150" lon="-3.0227170">
        <ele>1744.2</ele>
        <time>2020-07-13T05:51:07Z</time>
      </trkpt>
      <trkpt lat="37.0816250" lon="-3.0227370">
        <ele>1744.8</ele>
        <time>2020-07-13T05:51:11Z</time>
      </trkpt>
      <trkpt lat="37.0816780" lon="-3.0227510">
        <ele>1745.2</ele>
        <time>2020-07-13T05:51:13Z</time>
      </trkpt>
      <trkpt lat="37.0818280" lon="-3.0227840">
        <ele>1746.4</ele>
        <time>2020-07-13T05:51:19Z</time>
      </trkpt>
      <trkpt lat="37.0818780" lon="-3.0227890">
        <ele>1746.8</ele>
        <time>2020-07-13T05:51:21Z</time>
      </trkpt>
      <trkpt lat="37.0819700" lon="-3.0228170">
        <ele>1747.6</ele>
        <time>2020-07-13T05:51:25Z</time>
      </trkpt>
      <trkpt lat="37.0820870" lon="-3.0228470">
        <ele>1748.4</ele>
        <time>2020-07-13T05:51:30Z</time>
      </trkpt>
      <trkpt lat="37.0821100" lon="-3.0228530">
        <ele>1748.6</ele>
        <time>2020-07-13T05:51:31Z</time>
      </trkpt>
      <trkpt lat="37.0822040" lon="-3.0228800">
        <ele>1749.6</ele>
        <time>2020-07-13T05:51:35Z</time>
      </trkpt>
      <trkpt lat="37.0823190" lon="-3.0229220">
        <ele>1750.8</ele>
        <time>2020-07-13T05:51:40Z</time>
      </trkpt>
      <trkpt lat="37.0824340" lon="-3.0229610">
        <ele>1751.8</ele>
        <time>2020-07-13T05:51:45Z</time>
      </trkpt>
      <trkpt lat="37.0825310" lon="-3.0229910">
        <ele>1752.4</ele>
        <time>2020-07-13T05:51:49Z</time>
      </trkpt>
      <trkpt lat="37.0825770" lon="-3.0230100">
        <ele>1752.8</ele>
        <time>2020-07-13T05:51:51Z</time>
      </trkpt>
      <trkpt lat="37.0827150" lon="-3.0230640">
        <ele>1754.0</ele>
        <time>2020-07-13T05:51:57Z</time>
      </trkpt>
      <trkpt lat="37.0827600" lon="-3.0230860">
        <ele>1754.4</ele>
        <time>2020-07-13T05:51:59Z</time>
      </trkpt>
      <trkpt lat="37.0828500" lon="-3.0231320">
        <ele>1755.2</ele>
        <time>2020-07-13T05:52:03Z</time>
      </trkpt>
      <trkpt lat="37.0829850" lon="-3.0231960">
        <ele>1756.2</ele>
        <time>2020-07-13T05:52:09Z</time>
      </trkpt>
      <trkpt lat="37.0831500" lon="-3.0232540">
        <ele>1757.2</ele>
        <time>2020-07-13T05:52:16Z</time>
      </trkpt>
      <trkpt lat="37.0832680" lon="-3.0233030">
        <ele>1758.2</ele>
        <time>2020-07-13T05:52:21Z</time>
      </trkpt>
      <trkpt lat="37.0833380" lon="-3.0233310">
        <ele>1758.8</ele>
        <time>2020-07-13T05:52:24Z</time>
      </trkpt>
      <trkpt lat="37.0834080" lon="-3.0233600">
        <ele>1759.2</ele>
        <time>2020-07-13T05:52:27Z</time>
      </trkpt>
      <trkpt lat="37.0835470" lon="-3.0234250">
        <ele>1760.4</ele>
        <time>2020-07-13T05:52:33Z</time>
      </trkpt>
      <trkpt lat="37.0835680" lon="-3.0234380">
        <ele>1760.6</ele>
        <time>2020-07-13T05:52:34Z</time>
      </trkpt>
      <trkpt lat="37.0837000" lon="-3.0235200">
        <ele>1761.4</ele>
        <time>2020-07-13T05:52:40Z</time>
      </trkpt>
      <trkpt lat="37.0838320" lon="-3.0236060">
        <ele>1762.4</ele>
        <time>2020-07-13T05:52:46Z</time>
      </trkpt>
      <trkpt lat="37.0839790" lon="-3.0237180">
        <ele>1763.6</ele>
        <time>2020-07-13T05:52:53Z</time>
      </trkpt>
      <trkpt lat="37.0840600" lon="-3.0237830">
        <ele>1764.0</ele>
        <time>2020-07-13T05:52:57Z</time>
      </trkpt>
      <trkpt lat="37.0841400" lon="-3.0238490">
        <ele>1764.6</ele>
        <time>2020-07-13T05:53:01Z</time>
      </trkpt>
      <trkpt lat="37.0842320" lon="-3.0239330">
        <ele>1765.6</ele>
        <time>2020-07-13T05:53:06Z</time>
      </trkpt>
      <trkpt lat="37.0842670" lon="-3.0239680">
        <ele>1766.2</ele>
        <time>2020-07-13T05:53:08Z</time>
      </trkpt>
      <trkpt lat="37.0843240" lon="-3.0240170">
        <ele>1766.8</ele>
        <time>2020-07-13T05:53:11Z</time>
      </trkpt>
      <trkpt lat="37.0844700" lon="-3.0241360">
        <ele>1767.6</ele>
        <time>2020-07-13T05:53:18Z</time>
      </trkpt>
      <trkpt lat="37.0845110" lon="-3.0241710">
        <ele>1768.0</ele>
        <time>2020-07-13T05:53:20Z</time>
      </trkpt>
      <trkpt lat="37.0846500" lon="-3.0242520">
        <ele>1768.8</ele>
        <time>2020-07-13T05:53:26Z</time>
      </trkpt>
      <trkpt lat="37.0846990" lon="-3.0242710">
        <ele>1769.0</ele>
        <time>2020-07-13T05:53:28Z</time>
      </trkpt>
      <trkpt lat="37.0848480" lon="-3.0243340">
        <ele>1769.8</ele>
        <time>2020-07-13T05:53:34Z</time>
      </trkpt>
      <trkpt lat="37.0849250" lon="-3.0243630">
        <ele>1770.2</ele>
        <time>2020-07-13T05:53:37Z</time>
      </trkpt>
      <trkpt lat="37.0850520" lon="-3.0244130">
        <ele>1771.2</ele>
        <time>2020-07-13T05:53:42Z</time>
      </trkpt>
      <trkpt lat="37.0852210" lon="-3.0244920">
        <ele>1772.4</ele>
        <time>2020-07-13T05:53:49Z</time>
      </trkpt>
      <trkpt lat="37.0853180" lon="-3.0245520">
        <ele>1773.4</ele>
        <time>2020-07-13T05:53:53Z</time>
      </trkpt>
      <trkpt lat="37.0853940" lon="-3.0245960">
        <ele>1774.2</ele>
        <time>2020-07-13T05:53:56Z</time>
      </trkpt>
      <trkpt lat="37.0854440" lon="-3.0246230">
        <ele>1774.4</ele>
        <time>2020-07-13T05:53:58Z</time>
      </trkpt>
      <trkpt lat="37.0856530" lon="-3.0246830">
        <ele>1775.2</ele>
        <time>2020-07-13T05:54:06Z</time>
      </trkpt>
      <trkpt lat="37.0856780" lon="-3.0246810">
        <ele>1775.6</ele>
        <time>2020-07-13T05:54:07Z</time>
      </trkpt>
      <trkpt lat="37.0857790" lon="-3.0246640">
        <ele>1776.6</ele>
        <time>2020-07-13T05:54:11Z</time>
      </trkpt>
      <trkpt lat="37.0858300" lon="-3.0246590">
        <ele>1776.8</ele>
        <time>2020-07-13T05:54:13Z</time>
      </trkpt>
      <trkpt lat="37.0859320" lon="-3.0246390">
        <ele>1777.6</ele>
        <time>2020-07-13T05:54:17Z</time>
      </trkpt>
      <trkpt lat="37.0860350" lon="-3.0246280">
        <ele>1778.6</ele>
        <time>2020-07-13T05:54:21Z</time>
      </trkpt>
      <trkpt lat="37.0860580" lon="-3.0246250">
        <ele>1778.8</ele>
        <time>2020-07-13T05:54:22Z</time>
      </trkpt>
      <trkpt lat="37.0862390" lon="-3.0245930">
        <ele>1779.8</ele>
        <time>2020-07-13T05:54:29Z</time>
      </trkpt>
      <trkpt lat="37.0862640" lon="-3.0245890">
        <ele>1780.0</ele>
        <time>2020-07-13T05:54:30Z</time>
      </trkpt>
      <trkpt lat="37.0864240" lon="-3.0245820">
        <ele>1781.0</ele>
        <time>2020-07-13T05:54:36Z</time>
      </trkpt>
      <trkpt lat="37.0865000" lon="-3.0245920">
        <ele>1781.4</ele>
        <time>2020-07-13T05:54:39Z</time>
      </trkpt>
      <trkpt lat="37.0865780" lon="-3.0245930">
        <ele>1782.0</ele>
        <time>2020-07-13T05:54:42Z</time>
      </trkpt>
      <trkpt lat="37.0867340" lon="-3.0246120">
        <ele>1783.0</ele>
        <time>2020-07-13T05:54:48Z</time>
      </trkpt>
      <trkpt lat="37.0867600" lon="-3.0246170">
        <ele>1783.2</ele>
        <time>2020-07-13T05:54:49Z</time>
      </trkpt>
      <trkpt lat="37.0869150" lon="-3.0246650">
        <ele>1784.2</ele>
        <time>2020-07-13T05:54:55Z</time>
      </trkpt>
      <trkpt lat="37.0870140" lon="-3.0246960">
        <ele>1785.0</ele>
        <time>2020-07-13T05:54:59Z</time>
      </trkpt>
      <trkpt lat="37.0870410" lon="-3.0247060">
        <ele>1785.2</ele>
        <time>2020-07-13T05:55:00Z</time>
      </trkpt>
      <trkpt lat="37.0871910" lon="-3.0247510">
        <ele>1786.4</ele>
        <time>2020-07-13T05:55:06Z</time>
      </trkpt>
      <trkpt lat="37.0872410" lon="-3.0247740">
        <ele>1786.6</ele>
        <time>2020-07-13T05:55:08Z</time>
      </trkpt>
      <trkpt lat="37.0873880" lon="-3.0248490">
        <ele>1787.4</ele>
        <time>2020-07-13T05:55:14Z</time>
      </trkpt>
      <trkpt lat="37.0875020" lon="-3.0249210">
        <ele>1788.2</ele>
        <time>2020-07-13T05:55:19Z</time>
      </trkpt>
      <trkpt lat="37.0875240" lon="-3.0249360">
        <ele>1788.4</ele>
        <time>2020-07-13T05:55:20Z</time>
      </trkpt>
      <trkpt lat="37.0876470" lon="-3.0250470">
        <ele>1789.4</ele>
        <time>2020-07-13T05:55:26Z</time>
      </trkpt>
      <trkpt lat="37.0876640" lon="-3.0250680">
        <ele>1789.8</ele>
        <time>2020-07-13T05:55:27Z</time>
      </trkpt>
      <trkpt lat="37.0877610" lon="-3.0252070">
        <ele>1790.6</ele>
        <time>2020-07-13T05:55:33Z</time>
      </trkpt>
      <trkpt lat="37.0878070" lon="-3.0252820">
        <ele>1791.2</ele>
        <time>2020-07-13T05:55:36Z</time>
      </trkpt>
      <trkpt lat="37.0878810" lon="-3.0254090">
        <ele>1791.8</ele>
        <time>2020-07-13T05:55:41Z</time>
      </trkpt>
      <trkpt lat="37.0879250" lon="-3.0254760">
        <ele>1792.4</ele>
        <time>2020-07-13T05:55:44Z</time>
      </trkpt>
      <trkpt lat="37.0879570" lon="-3.0255200">
        <ele>1792.8</ele>
        <time>2020-07-13T05:55:46Z</time>
      </trkpt>
      <trkpt lat="37.0880830" lon="-3.0256700">
        <ele>1794.0</ele>
        <time>2020-07-13T05:55:53Z</time>
      </trkpt>
      <trkpt lat="37.0881010" lon="-3.0256890">
        <ele>1794.2</ele>
        <time>2020-07-13T05:55:54Z</time>
      </trkpt>
      <trkpt lat="37.0882140" lon="-3.0258030">
        <ele>1795.2</ele>
        <time>2020-07-13T05:56:00Z</time>
      </trkpt>
      <trkpt lat="37.0883120" lon="-3.0259020">
        <ele>1796.0</ele>
        <time>2020-07-13T05:56:05Z</time>
      </trkpt>
      <trkpt lat="37.0883330" lon="-3.0259220">
        <ele>1796.4</ele>
        <time>2020-07-13T05:56:06Z</time>
      </trkpt>
      <trkpt lat="37.0884470" lon="-3.0260350">
        <ele>1797.4</ele>
        <time>2020-07-13T05:56:12Z</time>
      </trkpt>
      <trkpt lat="37.0885030" lon="-3.0260950">
        <ele>1798.0</ele>
        <time>2020-07-13T05:56:15Z</time>
      </trkpt>
      <trkpt lat="37.0885580" lon="-3.0261590">
        <ele>1798.6</ele>
        <time>2020-07-13T05:56:18Z</time>
      </trkpt>
      <trkpt lat="37.0886630" lon="-3.0262880">
        <ele>1799.8</ele>
        <time>2020-07-13T05:56:24Z</time>
      </trkpt>
      <trkpt lat="37.0887120" lon="-3.0263570">
        <ele>1800.2</ele>
        <time>2020-07-13T05:56:27Z</time>
      </trkpt>
      <trkpt lat="37.0887630" lon="-3.0264330">
        <ele>1800.8</ele>
        <time>2020-07-13T05:56:30Z</time>
      </trkpt>
      <trkpt lat="37.0888290" lon="-3.0265300">
        <ele>1801.6</ele>
        <time>2020-07-13T05:56:34Z</time>
      </trkpt>
      <trkpt lat="37.0888450" lon="-3.0265550">
        <ele>1801.8</ele>
        <time>2020-07-13T05:56:35Z</time>
      </trkpt>
      <trkpt lat="37.0889280" lon="-3.0266670">
        <ele>1802.8</ele>
        <time>2020-07-13T05:56:40Z</time>
      </trkpt>
      <trkpt lat="37.0890160" lon="-3.0267750">
        <ele>1804.2</ele>
        <time>2020-07-13T05:56:45Z</time>
      </trkpt>
      <trkpt lat="37.0891280" lon="-3.0268960">
        <ele>1805.2</ele>
        <time>2020-07-13T05:56:51Z</time>
      </trkpt>
      <trkpt lat="37.0891830" lon="-3.0269530">
        <ele>1805.8</ele>
        <time>2020-07-13T05:56:54Z</time>
      </trkpt>
      <trkpt lat="37.0892000" lon="-3.0269720">
        <ele>1806.0</ele>
        <time>2020-07-13T05:56:55Z</time>
      </trkpt>
      <trkpt lat="37.0892400" lon="-3.0270110">
        <ele>1806.4</ele>
        <time>2020-07-13T05:56:57Z</time>
      </trkpt>
      <trkpt lat="37.0893300" lon="-3.0271110">
        <ele>1807.4</ele>
        <time>2020-07-13T05:57:02Z</time>
      </trkpt>
      <trkpt lat="37.0893920" lon="-3.0271930">
        <ele>1808.2</ele>
        <time>2020-07-13T05:57:06Z</time>
      </trkpt>
      <trkpt lat="37.0894090" lon="-3.0272140">
        <ele>1808.4</ele>
        <time>2020-07-13T05:57:07Z</time>
      </trkpt>
      <trkpt lat="37.0894700" lon="-3.0273320">
        <ele>1809.4</ele>
        <time>2020-07-13T05:57:12Z</time>
      </trkpt>
      <trkpt lat="37.0895010" lon="-3.0274090">
        <ele>1810.2</ele>
        <time>2020-07-13T05:57:15Z</time>
      </trkpt>
      <trkpt lat="37.0895230" lon="-3.0274630">
        <ele>1810.6</ele>
        <time>2020-07-13T05:57:17Z</time>
      </trkpt>
      <trkpt lat="37.0895900" lon="-3.0276190">
        <ele>1811.6</ele>
        <time>2020-07-13T05:57:23Z</time>
      </trkpt>
      <trkpt lat="37.0896390" lon="-3.0277280">
        <ele>1812.2</ele>
        <time>2020-07-13T05:57:27Z</time>
      </trkpt>
      <trkpt lat="37.0896810" lon="-3.0278050">
        <ele>1812.8</ele>
        <time>2020-07-13T05:57:30Z</time>
      </trkpt>
      <trkpt lat="37.0897650" lon="-3.0279530">
        <ele>1813.8</ele>
        <time>2020-07-13T05:57:36Z</time>
      </trkpt>
      <trkpt lat="37.0897940" lon="-3.0279990">
        <ele>1814.2</ele>
        <time>2020-07-13T05:57:38Z</time>
      </trkpt>
      <trkpt lat="37.0898370" lon="-3.0280660">
        <ele>1814.8</ele>
        <time>2020-07-13T05:57:41Z</time>
      </trkpt>
      <trkpt lat="37.0899230" lon="-3.0281970">
        <ele>1815.8</ele>
        <time>2020-07-13T05:57:47Z</time>
      </trkpt>
      <trkpt lat="37.0899400" lon="-3.0282200">
        <ele>1816.0</ele>
        <time>2020-07-13T05:57:48Z</time>
      </trkpt>
      <trkpt lat="37.0900240" lon="-3.0283240">
        <ele>1817.0</ele>
        <time>2020-07-13T05:57:53Z</time>
      </trkpt>
      <trkpt lat="37.0901090" lon="-3.0284260">
        <ele>1818.0</ele>
        <time>2020-07-13T05:57:58Z</time>
      </trkpt>
      <trkpt lat="37.0902140" lon="-3.0285500">
        <ele>1819.0</ele>
        <time>2020-07-13T05:58:04Z</time>
      </trkpt>
      <trkpt lat="37.0903060" lon="-3.0286450">
        <ele>1819.8</ele>
        <time>2020-07-13T05:58:09Z</time>
      </trkpt>
      <trkpt lat="37.0903430" lon="-3.0286810">
        <ele>1820.2</ele>
        <time>2020-07-13T05:58:11Z</time>
      </trkpt>
      <trkpt lat="37.0904680" lon="-3.0288170">
        <ele>1821.2</ele>
        <time>2020-07-13T05:58:18Z</time>
      </trkpt>
      <trkpt lat="37.0904860" lon="-3.0288370">
        <ele>1821.4</ele>
        <time>2020-07-13T05:58:19Z</time>
      </trkpt>
      <trkpt lat="37.0905930" lon="-3.0289570">
        <ele>1822.4</ele>
        <time>2020-07-13T05:58:25Z</time>
      </trkpt>
      <trkpt lat="37.0906140" lon="-3.0289780">
        <ele>1822.4</ele>
        <time>2020-07-13T05:58:26Z</time>
      </trkpt>
      <trkpt lat="37.0907540" lon="-3.0290510">
        <ele>1823.2</ele>
        <time>2020-07-13T05:58:32Z</time>
      </trkpt>
      <trkpt lat="37.0907770" lon="-3.0290460">
        <ele>1823.4</ele>
        <time>2020-07-13T05:58:33Z</time>
      </trkpt>
      <trkpt lat="37.0908170" lon="-3.0290150">
        <ele>1823.8</ele>
        <time>2020-07-13T05:58:35Z</time>
      </trkpt>
      <trkpt lat="37.0908430" lon="-3.0289640">
        <ele>1824.2</ele>
        <time>2020-07-13T05:58:37Z</time>
      </trkpt>
      <trkpt lat="37.0908500" lon="-3.0289070">
        <ele>1824.6</ele>
        <time>2020-07-13T05:58:39Z</time>
      </trkpt>
      <trkpt lat="37.0908390" lon="-3.0288230">
        <ele>1825.6</ele>
        <time>2020-07-13T05:58:42Z</time>
      </trkpt>
      <trkpt lat="37.0908320" lon="-3.0287970">
        <ele>1826.0</ele>
        <time>2020-07-13T05:58:43Z</time>
      </trkpt>
      <trkpt lat="37.0908130" lon="-3.0287370">
        <ele>1826.8</ele>
        <time>2020-07-13T05:58:45Z</time>
      </trkpt>
      <trkpt lat="37.0907710" lon="-3.0286250">
        <ele>1827.8</ele>
        <time>2020-07-13T05:58:49Z</time>
      </trkpt>
      <trkpt lat="37.0907610" lon="-3.0286000">
        <ele>1828.0</ele>
        <time>2020-07-13T05:58:50Z</time>
      </trkpt>
      <trkpt lat="37.0906920" lon="-3.0284370">
        <ele>1829.0</ele>
        <time>2020-07-13T05:58:56Z</time>
      </trkpt>
      <trkpt lat="37.0906350" lon="-3.0283010">
        <ele>1829.8</ele>
        <time>2020-07-13T05:59:01Z</time>
      </trkpt>
      <trkpt lat="37.0906160" lon="-3.0282430">
        <ele>1830.2</ele>
        <time>2020-07-13T05:59:03Z</time>
      </trkpt>
      <trkpt lat="37.0905540" lon="-3.0280440">
        <ele>1831.2</ele>
        <time>2020-07-13T05:59:10Z</time>
      </trkpt>
      <trkpt lat="37.0905370" lon="-3.0279800">
        <ele>1831.6</ele>
        <time>2020-07-13T05:59:12Z</time>
      </trkpt>
      <trkpt lat="37.0905210" lon="-3.0278570">
        <ele>1832.4</ele>
        <time>2020-07-13T05:59:16Z</time>
      </trkpt>
      <trkpt lat="37.0905040" lon="-3.0277310">
        <ele>1833.0</ele>
        <time>2020-07-13T05:59:20Z</time>
      </trkpt>
      <trkpt lat="37.0904950" lon="-3.0276700">
        <ele>1833.4</ele>
        <time>2020-07-13T05:59:22Z</time>
      </trkpt>
      <trkpt lat="37.0904770" lon="-3.0274810">
        <ele>1834.6</ele>
        <time>2020-07-13T05:59:28Z</time>
      </trkpt>
      <trkpt lat="37.0904730" lon="-3.0274200">
        <ele>1835.0</ele>
        <time>2020-07-13T05:59:30Z</time>
      </trkpt>
      <trkpt lat="37.0904660" lon="-3.0272980">
        <ele>1835.8</ele>
        <time>2020-07-13T05:59:34Z</time>
      </trkpt>
      <trkpt lat="37.0904540" lon="-3.0271150">
        <ele>1836.8</ele>
        <time>2020-07-13T05:59:40Z</time>
      </trkpt>
      <trkpt lat="37.0904410" lon="-3.0270190">
        <ele>1837.2</ele>
        <time>2020-07-13T05:59:43Z</time>
      </trkpt>
      <trkpt lat="37.0904290" lon="-3.0269280">
        <ele>1837.8</ele>
        <time>2020-07-13T05:59:46Z</time>
      </trkpt>
      <trkpt lat="37.0903930" lon="-3.0267100">
        <ele>1838.8</ele>
        <time>2020-07-13T05:59:53Z</time>
      </trkpt>
      <trkpt lat="37.0903890" lon="-3.0266790">
        <ele>1839.0</ele>
        <time>2020-07-13T05:59:54Z</time>
      </trkpt>
      <trkpt lat="37.0903650" lon="-3.0265260">
        <ele>1840.0</ele>
        <time>2020-07-13T05:59:59Z</time>
      </trkpt>
      <trkpt lat="37.0903520" lon="-3.0263400">
        <ele>1841.0</ele>
        <time>2020-07-13T06:00:05Z</time>
      </trkpt>
      <trkpt lat="37.0904030" lon="-3.0261570">
        <ele>1842.2</ele>
        <time>2020-07-13T06:00:11Z</time>
      </trkpt>
      <trkpt lat="37.0904170" lon="-3.0261320">
        <ele>1842.4</ele>
        <time>2020-07-13T06:00:12Z</time>
      </trkpt>
      <trkpt lat="37.0904910" lon="-3.0260370">
        <ele>1843.2</ele>
        <time>2020-07-13T06:00:16Z</time>
      </trkpt>
      <trkpt lat="37.0905850" lon="-3.0259650">
        <ele>1844.0</ele>
        <time>2020-07-13T06:00:20Z</time>
      </trkpt>
      <trkpt lat="37.0906100" lon="-3.0259480">
        <ele>1844.2</ele>
        <time>2020-07-13T06:00:21Z</time>
      </trkpt>
      <trkpt lat="37.0907570" lon="-3.0258580">
        <ele>1845.4</ele>
        <time>2020-07-13T06:00:27Z</time>
      </trkpt>
      <trkpt lat="37.0908290" lon="-3.0258130">
        <ele>1845.8</ele>
        <time>2020-07-13T06:00:30Z</time>
      </trkpt>
      <trkpt lat="37.0909690" lon="-3.0257260">
        <ele>1846.4</ele>
        <time>2020-07-13T06:00:37Z</time>
      </trkpt>
      <trkpt lat="37.0910610" lon="-3.0256620">
        <ele>1847.2</ele>
        <time>2020-07-13T06:00:40Z</time>
      </trkpt>
      <trkpt lat="37.0910860" lon="-3.0256410">
        <ele>1847.4</ele>
        <time>2020-07-13T06:00:41Z</time>
      </trkpt>
      <trkpt lat="37.0911930" lon="-3.0255560">
        <ele>1848.4</ele>
        <time>2020-07-13T06:00:46Z</time>
      </trkpt>
      <trkpt lat="37.0912730" lon="-3.0254870">
        <ele>1849.2</ele>
        <time>2020-07-13T06:00:50Z</time>
      </trkpt>
      <trkpt lat="37.0913160" lon="-3.0254580">
        <ele>1849.4</ele>
        <time>2020-07-13T06:00:53Z</time>
      </trkpt>
      <trkpt lat="37.0914360" lon="-3.0253590">
        <ele>1850.6</ele>
        <time>2020-07-13T06:00:58Z</time>
      </trkpt>
      <trkpt lat="37.0915490" lon="-3.0252610">
        <ele>1851.8</ele>
        <time>2020-07-13T06:01:04Z</time>
      </trkpt>
      <trkpt lat="37.0916420" lon="-3.0251720">
        <ele>1852.8</ele>
        <time>2020-07-13T06:01:09Z</time>
      </trkpt>
      <trkpt lat="37.0917300" lon="-3.0250470">
        <ele>1853.8</ele>
        <time>2020-07-13T06:01:15Z</time>
      </trkpt>
      <trkpt lat="37.0917720" lon="-3.0249830">
        <ele>1854.4</ele>
        <time>2020-07-13T06:01:18Z</time>
      </trkpt>
      <trkpt lat="37.0918170" lon="-3.0249240">
        <ele>1855.0</ele>
        <time>2020-07-13T06:01:21Z</time>
      </trkpt>
      <trkpt lat="37.0918750" lon="-3.0248260">
        <ele>1856.0</ele>
        <time>2020-07-13T06:01:25Z</time>
      </trkpt>
      <trkpt lat="37.0918890" lon="-3.0247990">
        <ele>1856.2</ele>
        <time>2020-07-13T06:01:26Z</time>
      </trkpt>
      <trkpt lat="37.0919530" lon="-3.0246770">
        <ele>1857.2</ele>
        <time>2020-07-13T06:01:31Z</time>
      </trkpt>
      <trkpt lat="37.0919880" lon="-3.0246030">
        <ele>1857.8</ele>
        <time>2020-07-13T06:01:34Z</time>
      </trkpt>
      <trkpt lat="37.0920270" lon="-3.0245360">
        <ele>1858.2</ele>
        <time>2020-07-13T06:01:37Z</time>
      </trkpt>
      <trkpt lat="37.0920750" lon="-3.0244330">
        <ele>1859.0</ele>
        <time>2020-07-13T06:01:41Z</time>
      </trkpt>
      <trkpt lat="37.0920960" lon="-3.0243800">
        <ele>1859.4</ele>
        <time>2020-07-13T06:01:43Z</time>
      </trkpt>
      <trkpt lat="37.0921580" lon="-3.0242160">
        <ele>1860.8</ele>
        <time>2020-07-13T06:01:49Z</time>
      </trkpt>
      <trkpt lat="37.0922000" lon="-3.0241070">
        <ele>1861.4</ele>
        <time>2020-07-13T06:01:53Z</time>
      </trkpt>
      <trkpt lat="37.0922370" lon="-3.0240270">
        <ele>1861.8</ele>
        <time>2020-07-13T06:01:56Z</time>
      </trkpt>
      <trkpt lat="37.0922970" lon="-3.0239300">
        <ele>1862.6</ele>
        <time>2020-07-13T06:02:00Z</time>
      </trkpt>
      <trkpt lat="37.0923300" lon="-3.0238790">
        <ele>1863.0</ele>
        <time>2020-07-13T06:02:02Z</time>
      </trkpt>
      <trkpt lat="37.0924520" lon="-3.0237130">
        <ele>1864.0</ele>
        <time>2020-07-13T06:02:09Z</time>
      </trkpt>
      <trkpt lat="37.0925010" lon="-3.0236360">
        <ele>1864.6</ele>
        <time>2020-07-13T06:02:12Z</time>
      </trkpt>
      <trkpt lat="37.0925390" lon="-3.0235930">
        <ele>1865.0</ele>
        <time>2020-07-13T06:02:14Z</time>
      </trkpt>
      <trkpt lat="37.0926510" lon="-3.0234650">
        <ele>1866.0</ele>
        <time>2020-07-13T06:02:20Z</time>
      </trkpt>
      <trkpt lat="37.0927500" lon="-3.0233770">
        <ele>1867.2</ele>
        <time>2020-07-13T06:02:25Z</time>
      </trkpt>
      <trkpt lat="37.0928530" lon="-3.0233000">
        <ele>1868.2</ele>
        <time>2020-07-13T06:02:30Z</time>
      </trkpt>
      <trkpt lat="37.0928770" lon="-3.0232870">
        <ele>1868.4</ele>
        <time>2020-07-13T06:02:31Z</time>
      </trkpt>
      <trkpt lat="37.0929840" lon="-3.0232270">
        <ele>1869.6</ele>
        <time>2020-07-13T06:02:36Z</time>
      </trkpt>
      <trkpt lat="37.0930940" lon="-3.0231700">
        <ele>1870.4</ele>
        <time>2020-07-13T06:02:41Z</time>
      </trkpt>
      <trkpt lat="37.0931150" lon="-3.0231590">
        <ele>1870.6</ele>
        <time>2020-07-13T06:02:42Z</time>
      </trkpt>
      <trkpt lat="37.0932200" lon="-3.0231230">
        <ele>1871.6</ele>
        <time>2020-07-13T06:02:47Z</time>
      </trkpt>
      <trkpt lat="37.0932410" lon="-3.0231120">
        <ele>1871.8</ele>
        <time>2020-07-13T06:02:48Z</time>
      </trkpt>
      <trkpt lat="37.0933280" lon="-3.0230780">
        <ele>1872.8</ele>
        <time>2020-07-13T06:02:52Z</time>
      </trkpt>
      <trkpt lat="37.0934260" lon="-3.0230590">
        <ele>1873.4</ele>
        <time>2020-07-13T06:02:56Z</time>
      </trkpt>
      <trkpt lat="37.0935200" lon="-3.0230490">
        <ele>1873.8</ele>
        <time>2020-07-13T06:03:00Z</time>
      </trkpt>
      <trkpt lat="37.0936370" lon="-3.0230500">
        <ele>1875.0</ele>
        <time>2020-07-13T06:03:05Z</time>
      </trkpt>
      <trkpt lat="37.0937840" lon="-3.0230570">
        <ele>1876.2</ele>
        <time>2020-07-13T06:03:11Z</time>
      </trkpt>
      <trkpt lat="37.0938300" lon="-3.0230570">
        <ele>1876.4</ele>
        <time>2020-07-13T06:03:13Z</time>
      </trkpt>
      <trkpt lat="37.0939200" lon="-3.0230630">
        <ele>1877.2</ele>
        <time>2020-07-13T06:03:17Z</time>
      </trkpt>
      <trkpt lat="37.0940650" lon="-3.0230710">
        <ele>1878.0</ele>
        <time>2020-07-13T06:03:23Z</time>
      </trkpt>
      <trkpt lat="37.0940880" lon="-3.0230730">
        <ele>1878.2</ele>
        <time>2020-07-13T06:03:24Z</time>
      </trkpt>
      <trkpt lat="37.0942010" lon="-3.0230860">
        <ele>1879.2</ele>
        <time>2020-07-13T06:03:29Z</time>
      </trkpt>
      <trkpt lat="37.0943170" lon="-3.0231010">
        <ele>1880.2</ele>
        <time>2020-07-13T06:03:34Z</time>
      </trkpt>
      <trkpt lat="37.0943400" lon="-3.0231010">
        <ele>1880.4</ele>
        <time>2020-07-13T06:03:35Z</time>
      </trkpt>
      <trkpt lat="37.0944550" lon="-3.0231050">
        <ele>1881.4</ele>
        <time>2020-07-13T06:03:40Z</time>
      </trkpt>
      <trkpt lat="37.0945260" lon="-3.0231210">
        <ele>1882.0</ele>
        <time>2020-07-13T06:03:43Z</time>
      </trkpt>
      <trkpt lat="37.0945910" lon="-3.0231410">
        <ele>1882.6</ele>
        <time>2020-07-13T06:03:46Z</time>
      </trkpt>
      <trkpt lat="37.0947160" lon="-3.0231970">
        <ele>1883.6</ele>
        <time>2020-07-13T06:03:52Z</time>
      </trkpt>
      <trkpt lat="37.0947360" lon="-3.0232110">
        <ele>1883.8</ele>
        <time>2020-07-13T06:03:53Z</time>
      </trkpt>
      <trkpt lat="37.0948630" lon="-3.0232630">
        <ele>1884.6</ele>
        <time>2020-07-13T06:03:59Z</time>
      </trkpt>
      <trkpt lat="37.0948830" lon="-3.0232720">
        <ele>1884.8</ele>
        <time>2020-07-13T06:04:00Z</time>
      </trkpt>
      <trkpt lat="37.0949840" lon="-3.0233200">
        <ele>1885.8</ele>
        <time>2020-07-13T06:04:05Z</time>
      </trkpt>
      <trkpt lat="37.0950460" lon="-3.0233550">
        <ele>1886.4</ele>
        <time>2020-07-13T06:04:08Z</time>
      </trkpt>
      <trkpt lat="37.0951290" lon="-3.0233980">
        <ele>1886.8</ele>
        <time>2020-07-13T06:04:12Z</time>
      </trkpt>
      <trkpt lat="37.0952320" lon="-3.0234540">
        <ele>1887.8</ele>
        <time>2020-07-13T06:04:17Z</time>
      </trkpt>
      <trkpt lat="37.0952550" lon="-3.0234640">
        <ele>1888.0</ele>
        <time>2020-07-13T06:04:18Z</time>
      </trkpt>
      <trkpt lat="37.0953750" lon="-3.0235240">
        <ele>1889.2</ele>
        <time>2020-07-13T06:04:24Z</time>
      </trkpt>
      <trkpt lat="37.0954150" lon="-3.0235450">
        <ele>1889.6</ele>
        <time>2020-07-13T06:04:26Z</time>
      </trkpt>
      <trkpt lat="37.0954930" lon="-3.0235860">
        <ele>1890.2</ele>
        <time>2020-07-13T06:04:30Z</time>
      </trkpt>
      <trkpt lat="37.0955910" lon="-3.0236260">
        <ele>1891.2</ele>
        <time>2020-07-13T06:04:35Z</time>
      </trkpt>
      <trkpt lat="37.0956160" lon="-3.0236360">
        <ele>1891.4</ele>
        <time>2020-07-13T06:04:36Z</time>
      </trkpt>
      <trkpt lat="37.0957130" lon="-3.0236870">
        <ele>1892.4</ele>
        <time>2020-07-13T06:04:41Z</time>
      </trkpt>
      <trkpt lat="37.0957930" lon="-3.0237240">
        <ele>1893.0</ele>
        <time>2020-07-13T06:04:45Z</time>
      </trkpt>
      <trkpt lat="37.0958360" lon="-3.0237420">
        <ele>1893.4</ele>
        <time>2020-07-13T06:04:47Z</time>
      </trkpt>
      <trkpt lat="37.0959890" lon="-3.0237820">
        <ele>1894.6</ele>
        <time>2020-07-13T06:04:54Z</time>
      </trkpt>
      <trkpt lat="37.0960340" lon="-3.0237930">
        <ele>1895.0</ele>
        <time>2020-07-13T06:04:56Z</time>
      </trkpt>
      <trkpt lat="37.0960790" lon="-3.0238020">
        <ele>1895.6</ele>
        <time>2020-07-13T06:04:58Z</time>
      </trkpt>
      <trkpt lat="37.0961980" lon="-3.0238200">
        <ele>1896.6</ele>
        <time>2020-07-13T06:05:03Z</time>
      </trkpt>
      <trkpt lat="37.0962660" lon="-3.0238300">
        <ele>1897.2</ele>
        <time>2020-07-13T06:05:06Z</time>
      </trkpt>
      <trkpt lat="37.0963370" lon="-3.0238350">
        <ele>1897.8</ele>
        <time>2020-07-13T06:05:09Z</time>
      </trkpt>
      <trkpt lat="37.0965050" lon="-3.0238390">
        <ele>1899.0</ele>
        <time>2020-07-13T06:05:16Z</time>
      </trkpt>
      <trkpt lat="37.0965320" lon="-3.0238350">
        <ele>1899.2</ele>
        <time>2020-07-13T06:05:17Z</time>
      </trkpt>
      <trkpt lat="37.0966850" lon="-3.0238090">
        <ele>1900.2</ele>
        <time>2020-07-13T06:05:23Z</time>
      </trkpt>
      <trkpt lat="37.0968010" lon="-3.0237730">
        <ele>1901.0</ele>
        <time>2020-07-13T06:05:28Z</time>
      </trkpt>
      <trkpt lat="37.0968270" lon="-3.0237630">
        <ele>1901.2</ele>
        <time>2020-07-13T06:05:29Z</time>
      </trkpt>
      <trkpt lat="37.0969630" lon="-3.0236950">
        <ele>1902.4</ele>
        <time>2020-07-13T06:05:35Z</time>
      </trkpt>
      <trkpt lat="37.0969870" lon="-3.0236810">
        <ele>1902.6</ele>
        <time>2020-07-13T06:05:36Z</time>
      </trkpt>
      <trkpt lat="37.0971250" lon="-3.0236030">
        <ele>1903.6</ele>
        <time>2020-07-13T06:05:42Z</time>
      </trkpt>
      <trkpt lat="37.0971710" lon="-3.0235780">
        <ele>1904.0</ele>
        <time>2020-07-13T06:05:44Z</time>
      </trkpt>
      <trkpt lat="37.0972390" lon="-3.0235400">
        <ele>1904.6</ele>
        <time>2020-07-13T06:05:47Z</time>
      </trkpt>
      <trkpt lat="37.0973470" lon="-3.0234840">
        <ele>1905.6</ele>
        <time>2020-07-13T06:05:52Z</time>
      </trkpt>
      <trkpt lat="37.0973920" lon="-3.0234580">
        <ele>1906.0</ele>
        <time>2020-07-13T06:05:54Z</time>
      </trkpt>
      <trkpt lat="37.0974780" lon="-3.0234080">
        <ele>1906.8</ele>
        <time>2020-07-13T06:05:58Z</time>
      </trkpt>
      <trkpt lat="37.0975690" lon="-3.0233650">
        <ele>1907.4</ele>
        <time>2020-07-13T06:06:02Z</time>
      </trkpt>
      <trkpt lat="37.0976310" lon="-3.0233210">
        <ele>1907.8</ele>
        <time>2020-07-13T06:06:05Z</time>
      </trkpt>
      <trkpt lat="37.0977430" lon="-3.0232640">
        <ele>1908.6</ele>
        <time>2020-07-13T06:06:10Z</time>
      </trkpt>
      <trkpt lat="37.0977890" lon="-3.0232420">
        <ele>1909.0</ele>
        <time>2020-07-13T06:06:12Z</time>
      </trkpt>
      <trkpt lat="37.0979450" lon="-3.0231640">
        <ele>1910.0</ele>
        <time>2020-07-13T06:06:19Z</time>
      </trkpt>
      <trkpt lat="37.0979670" lon="-3.0231540">
        <ele>1910.2</ele>
        <time>2020-07-13T06:06:20Z</time>
      </trkpt>
      <trkpt lat="37.0980770" lon="-3.0230910">
        <ele>1911.0</ele>
        <time>2020-07-13T06:06:25Z</time>
      </trkpt>
      <trkpt lat="37.0981690" lon="-3.0230420">
        <ele>1911.8</ele>
        <time>2020-07-13T06:06:29Z</time>
      </trkpt>
      <trkpt lat="37.0982350" lon="-3.0230050">
        <ele>1912.2</ele>
        <time>2020-07-13T06:06:32Z</time>
      </trkpt>
      <trkpt lat="37.0983750" lon="-3.0229370">
        <ele>1913.2</ele>
        <time>2020-07-13T06:06:38Z</time>
      </trkpt>
      <trkpt lat="37.0984180" lon="-3.0229170">
        <ele>1913.4</ele>
        <time>2020-07-13T06:06:40Z</time>
      </trkpt>
      <trkpt lat="37.0985650" lon="-3.0228530">
        <ele>1914.4</ele>
        <time>2020-07-13T06:06:46Z</time>
      </trkpt>
      <trkpt lat="37.0987070" lon="-3.0227990">
        <ele>1915.6</ele>
        <time>2020-07-13T06:06:52Z</time>
      </trkpt>
      <trkpt lat="37.0988330" lon="-3.0227620">
        <ele>1916.4</ele>
        <time>2020-07-13T06:06:57Z</time>
      </trkpt>
      <trkpt lat="37.0988560" lon="-3.0227550">
        <ele>1916.6</ele>
        <time>2020-07-13T06:06:58Z</time>
      </trkpt>
      <trkpt lat="37.0990080" lon="-3.0227180">
        <ele>1917.8</ele>
        <time>2020-07-13T06:07:04Z</time>
      </trkpt>
      <trkpt lat="37.0991150" lon="-3.0227110">
        <ele>1918.8</ele>
        <time>2020-07-13T06:07:08Z</time>
      </trkpt>
      <trkpt lat="37.0993150" lon="-3.0227960">
        <ele>1919.6</ele>
        <time>2020-07-13T06:07:16Z</time>
      </trkpt>
      <trkpt lat="37.0993890" lon="-3.0228480">
        <ele>1919.8</ele>
        <time>2020-07-13T06:07:19Z</time>
      </trkpt>
      <trkpt lat="37.0995410" lon="-3.0229890">
        <ele>1920.6</ele>
        <time>2020-07-13T06:07:26Z</time>
      </trkpt>
      <trkpt lat="37.0996070" lon="-3.0230500">
        <ele>1920.8</ele>
        <time>2020-07-13T06:07:29Z</time>
      </trkpt>
      <trkpt lat="37.0997180" lon="-3.0231450">
        <ele>1921.6</ele>
        <time>2020-07-13T06:07:34Z</time>
      </trkpt>
      <trkpt lat="37.0997860" lon="-3.0232120">
        <ele>1921.8</ele>
        <time>2020-07-13T06:07:37Z</time>
      </trkpt>
      <trkpt lat="37.0999030" lon="-3.0233220">
        <ele>1923.0</ele>
        <time>2020-07-13T06:07:42Z</time>
      </trkpt>
      <trkpt lat="37.0999280" lon="-3.0233450">
        <ele>1923.2</ele>
        <time>2020-07-13T06:07:43Z</time>
      </trkpt>
      <trkpt lat="37.1000740" lon="-3.0234830">
        <ele>1924.0</ele>
        <time>2020-07-13T06:07:49Z</time>
      </trkpt>
      <trkpt lat="37.1000940" lon="-3.0235050">
        <ele>1924.2</ele>
        <time>2020-07-13T06:07:50Z</time>
      </trkpt>
      <trkpt lat="37.1002080" lon="-3.0236110">
        <ele>1925.0</ele>
        <time>2020-07-13T06:07:55Z</time>
      </trkpt>
      <trkpt lat="37.1003010" lon="-3.0236920">
        <ele>1925.8</ele>
        <time>2020-07-13T06:07:59Z</time>
      </trkpt>
      <trkpt lat="37.1003210" lon="-3.0237110">
        <ele>1926.0</ele>
        <time>2020-07-13T06:08:00Z</time>
      </trkpt>
      <trkpt lat="37.1004570" lon="-3.0238310">
        <ele>1927.2</ele>
        <time>2020-07-13T06:08:06Z</time>
      </trkpt>
      <trkpt lat="37.1005510" lon="-3.0238950">
        <ele>1927.8</ele>
        <time>2020-07-13T06:08:10Z</time>
      </trkpt>
      <trkpt lat="37.1005800" lon="-3.0239140">
        <ele>1928.2</ele>
        <time>2020-07-13T06:08:11Z</time>
      </trkpt>
      <trkpt lat="37.1007120" lon="-3.0240070">
        <ele>1929.4</ele>
        <time>2020-07-13T06:08:17Z</time>
      </trkpt>
      <trkpt lat="37.1007600" lon="-3.0240360">
        <ele>1929.8</ele>
        <time>2020-07-13T06:08:19Z</time>
      </trkpt>
      <trkpt lat="37.1008560" lon="-3.0240890">
        <ele>1930.4</ele>
        <time>2020-07-13T06:08:23Z</time>
      </trkpt>
      <trkpt lat="37.1009570" lon="-3.0241420">
        <ele>1931.0</ele>
        <time>2020-07-13T06:08:27Z</time>
      </trkpt>
      <trkpt lat="37.1010260" lon="-3.0241850">
        <ele>1931.6</ele>
        <time>2020-07-13T06:08:30Z</time>
      </trkpt>
      <trkpt lat="37.1011530" lon="-3.0242990">
        <ele>1932.6</ele>
        <time>2020-07-13T06:08:36Z</time>
      </trkpt>
      <trkpt lat="37.1011690" lon="-3.0243230">
        <ele>1932.6</ele>
        <time>2020-07-13T06:08:37Z</time>
      </trkpt>
      <trkpt lat="37.1012880" lon="-3.0245200">
        <ele>1933.6</ele>
        <time>2020-07-13T06:08:45Z</time>
      </trkpt>
      <trkpt lat="37.1013010" lon="-3.0245470">
        <ele>1933.8</ele>
        <time>2020-07-13T06:08:46Z</time>
      </trkpt>
      <trkpt lat="37.1013800" lon="-3.0247100">
        <ele>1934.8</ele>
        <time>2020-07-13T06:08:52Z</time>
      </trkpt>
      <trkpt lat="37.1014320" lon="-3.0248170">
        <ele>1935.4</ele>
        <time>2020-07-13T06:08:56Z</time>
      </trkpt>
      <trkpt lat="37.1014670" lon="-3.0248980">
        <ele>1936.0</ele>
        <time>2020-07-13T06:08:59Z</time>
      </trkpt>
      <trkpt lat="37.1015620" lon="-3.0250870">
        <ele>1937.0</ele>
        <time>2020-07-13T06:09:06Z</time>
      </trkpt>
      <trkpt lat="37.1016870" lon="-3.0252370">
        <ele>1938.2</ele>
        <time>2020-07-13T06:09:13Z</time>
      </trkpt>
      <trkpt lat="37.1017980" lon="-3.0253330">
        <ele>1939.2</ele>
        <time>2020-07-13T06:09:18Z</time>
      </trkpt>
      <trkpt lat="37.1018860" lon="-3.0254020">
        <ele>1940.0</ele>
        <time>2020-07-13T06:09:22Z</time>
      </trkpt>
      <trkpt lat="37.1019300" lon="-3.0254420">
        <ele>1940.4</ele>
        <time>2020-07-13T06:09:24Z</time>
      </trkpt>
      <trkpt lat="37.1020520" lon="-3.0255570">
        <ele>1941.6</ele>
        <time>2020-07-13T06:09:30Z</time>
      </trkpt>
      <trkpt lat="37.1020750" lon="-3.0255780">
        <ele>1941.6</ele>
        <time>2020-07-13T06:09:31Z</time>
      </trkpt>
      <trkpt lat="37.1021750" lon="-3.0256800">
        <ele>1942.6</ele>
        <time>2020-07-13T06:09:36Z</time>
      </trkpt>
      <trkpt lat="37.1022970" lon="-3.0258010">
        <ele>1943.4</ele>
        <time>2020-07-13T06:09:42Z</time>
      </trkpt>
      <trkpt lat="37.1023180" lon="-3.0258200">
        <ele>1943.6</ele>
        <time>2020-07-13T06:09:43Z</time>
      </trkpt>
      <trkpt lat="37.1025020" lon="-3.0259580">
        <ele>1944.6</ele>
        <time>2020-07-13T06:09:51Z</time>
      </trkpt>
      <trkpt lat="37.1025500" lon="-3.0259870">
        <ele>1945.0</ele>
        <time>2020-07-13T06:09:53Z</time>
      </trkpt>
      <trkpt lat="37.1026480" lon="-3.0260390">
        <ele>1945.6</ele>
        <time>2020-07-13T06:09:57Z</time>
      </trkpt>
      <trkpt lat="37.1027880" lon="-3.0261060">
        <ele>1946.6</ele>
        <time>2020-07-13T06:10:03Z</time>
      </trkpt>
      <trkpt lat="37.1028440" lon="-3.0261320">
        <ele>1947.0</ele>
        <time>2020-07-13T06:10:05Z</time>
      </trkpt>
      <trkpt lat="37.1029620" lon="-3.0261810">
        <ele>1947.8</ele>
        <time>2020-07-13T06:10:10Z</time>
      </trkpt>
      <trkpt lat="37.1029900" lon="-3.0261910">
        <ele>1948.0</ele>
        <time>2020-07-13T06:10:11Z</time>
      </trkpt>
      <trkpt lat="37.1031280" lon="-3.0262270">
        <ele>1949.2</ele>
        <time>2020-07-13T06:10:16Z</time>
      </trkpt>
      <trkpt lat="37.1033120" lon="-3.0262820">
        <ele>1950.2</ele>
        <time>2020-07-13T06:10:22Z</time>
      </trkpt>
      <trkpt lat="37.1033470" lon="-3.0262910">
        <ele>1950.2</ele>
        <time>2020-07-13T06:10:23Z</time>
      </trkpt>
      <trkpt lat="37.1034200" lon="-3.0263330">
        <ele>1950.6</ele>
        <time>2020-07-13T06:10:25Z</time>
      </trkpt>
      <trkpt lat="37.1034490" lon="-3.0263350">
        <ele>1950.6</ele>
        <time>2020-07-13T06:10:26Z</time>
      </trkpt>
      <trkpt lat="37.1035430" lon="-3.0263150">
        <ele>1951.0</ele>
        <time>2020-07-13T06:10:29Z</time>
      </trkpt>
      <trkpt lat="37.1036040" lon="-3.0262970">
        <ele>1951.2</ele>
        <time>2020-07-13T06:10:31Z</time>
      </trkpt>
      <trkpt lat="37.1036350" lon="-3.0262880">
        <ele>1951.4</ele>
        <time>2020-07-13T06:10:32Z</time>
      </trkpt>
      <trkpt lat="37.1038600" lon="-3.0262170">
        <ele>1952.2</ele>
        <time>2020-07-13T06:10:39Z</time>
      </trkpt>
      <trkpt lat="37.1039250" lon="-3.0261950">
        <ele>1952.4</ele>
        <time>2020-07-13T06:10:41Z</time>
      </trkpt>
      <trkpt lat="37.1041380" lon="-3.0261450">
        <ele>1953.4</ele>
        <time>2020-07-13T06:10:48Z</time>
      </trkpt>
      <trkpt lat="37.1043200" lon="-3.0260820">
        <ele>1954.4</ele>
        <time>2020-07-13T06:10:54Z</time>
      </trkpt>
      <trkpt lat="37.1044040" lon="-3.0260530">
        <ele>1954.8</ele>
        <time>2020-07-13T06:10:57Z</time>
      </trkpt>
      <trkpt lat="37.1045500" lon="-3.0260110">
        <ele>1955.6</ele>
        <time>2020-07-13T06:11:02Z</time>
      </trkpt>
      <trkpt lat="37.1046630" lon="-3.0259760">
        <ele>1956.2</ele>
        <time>2020-07-13T06:11:06Z</time>
      </trkpt>
      <trkpt lat="37.1047200" lon="-3.0259570">
        <ele>1956.6</ele>
        <time>2020-07-13T06:11:08Z</time>
      </trkpt>
      <trkpt lat="37.1049110" lon="-3.0259300">
        <ele>1957.8</ele>
        <time>2020-07-13T06:11:14Z</time>
      </trkpt>
      <trkpt lat="37.1050930" lon="-3.0259130">
        <ele>1958.8</ele>
        <time>2020-07-13T06:11:20Z</time>
      </trkpt>
      <trkpt lat="37.1052750" lon="-3.0259400">
        <ele>1959.8</ele>
        <time>2020-07-13T06:11:26Z</time>
      </trkpt>
      <trkpt lat="37.1053030" lon="-3.0259490">
        <ele>1960.0</ele>
        <time>2020-07-13T06:11:27Z</time>
      </trkpt>
      <trkpt lat="37.1054510" lon="-3.0260100">
        <ele>1960.8</ele>
        <time>2020-07-13T06:11:32Z</time>
      </trkpt>
      <trkpt lat="37.1055060" lon="-3.0260400">
        <ele>1961.2</ele>
        <time>2020-07-13T06:11:34Z</time>
      </trkpt>
      <trkpt lat="37.1055940" lon="-3.0260790">
        <ele>1961.8</ele>
        <time>2020-07-13T06:11:37Z</time>
      </trkpt>
      <trkpt lat="37.1057040" lon="-3.0261320">
        <ele>1962.6</ele>
        <time>2020-07-13T06:11:41Z</time>
      </trkpt>
      <trkpt lat="37.1057870" lon="-3.0261700">
        <ele>1963.0</ele>
        <time>2020-07-13T06:11:44Z</time>
      </trkpt>
      <trkpt lat="37.1059500" lon="-3.0262440">
        <ele>1964.0</ele>
        <time>2020-07-13T06:11:50Z</time>
      </trkpt>
      <trkpt lat="37.1060920" lon="-3.0263100">
        <ele>1965.0</ele>
        <time>2020-07-13T06:11:55Z</time>
      </trkpt>
      <trkpt lat="37.1061210" lon="-3.0263240">
        <ele>1965.2</ele>
        <time>2020-07-13T06:11:56Z</time>
      </trkpt>
      <trkpt lat="37.1062000" lon="-3.0263550">
        <ele>1965.8</ele>
        <time>2020-07-13T06:11:59Z</time>
      </trkpt>
      <trkpt lat="37.1062800" lon="-3.0263890">
        <ele>1966.2</ele>
        <time>2020-07-13T06:12:02Z</time>
      </trkpt>
      <trkpt lat="37.1064140" lon="-3.0264350">
        <ele>1967.0</ele>
        <time>2020-07-13T06:12:07Z</time>
      </trkpt>
      <trkpt lat="37.1064680" lon="-3.0264560">
        <ele>1967.4</ele>
        <time>2020-07-13T06:12:09Z</time>
      </trkpt>
      <trkpt lat="37.1066590" lon="-3.0265150">
        <ele>1968.4</ele>
        <time>2020-07-13T06:12:16Z</time>
      </trkpt>
      <trkpt lat="37.1067160" lon="-3.0265310">
        <ele>1968.8</ele>
        <time>2020-07-13T06:12:18Z</time>
      </trkpt>
      <trkpt lat="37.1068250" lon="-3.0265630">
        <ele>1969.6</ele>
        <time>2020-07-13T06:12:22Z</time>
      </trkpt>
      <trkpt lat="37.1069690" lon="-3.0266200">
        <ele>1970.2</ele>
        <time>2020-07-13T06:12:27Z</time>
      </trkpt>
      <trkpt lat="37.1070270" lon="-3.0266420">
        <ele>1970.6</ele>
        <time>2020-07-13T06:12:29Z</time>
      </trkpt>
      <trkpt lat="37.1071370" lon="-3.0266940">
        <ele>1971.2</ele>
        <time>2020-07-13T06:12:33Z</time>
      </trkpt>
      <trkpt lat="37.1072150" lon="-3.0267390">
        <ele>1971.8</ele>
        <time>2020-07-13T06:12:36Z</time>
      </trkpt>
      <trkpt lat="37.1073190" lon="-3.0267910">
        <ele>1972.6</ele>
        <time>2020-07-13T06:12:40Z</time>
      </trkpt>
      <trkpt lat="37.1073750" lon="-3.0268190">
        <ele>1973.0</ele>
        <time>2020-07-13T06:12:42Z</time>
      </trkpt>
      <trkpt lat="37.1075240" lon="-3.0269200">
        <ele>1974.0</ele>
        <time>2020-07-13T06:12:48Z</time>
      </trkpt>
      <trkpt lat="37.1075490" lon="-3.0269340">
        <ele>1974.2</ele>
        <time>2020-07-13T06:12:49Z</time>
      </trkpt>
      <trkpt lat="37.1076820" lon="-3.0270180">
        <ele>1975.0</ele>
        <time>2020-07-13T06:12:54Z</time>
      </trkpt>
      <trkpt lat="37.1078110" lon="-3.0271110">
        <ele>1975.6</ele>
        <time>2020-07-13T06:12:59Z</time>
      </trkpt>
      <trkpt lat="37.1079280" lon="-3.0271780">
        <ele>1976.2</ele>
        <time>2020-07-13T06:13:03Z</time>
      </trkpt>
      <trkpt lat="37.1080170" lon="-3.0272290">
        <ele>1976.8</ele>
        <time>2020-07-13T06:13:06Z</time>
      </trkpt>
      <trkpt lat="37.1081260" lon="-3.0272930">
        <ele>1977.2</ele>
        <time>2020-07-13T06:13:10Z</time>
      </trkpt>
      <trkpt lat="37.1082440" lon="-3.0273610">
        <ele>1978.0</ele>
        <time>2020-07-13T06:13:14Z</time>
      </trkpt>
      <trkpt lat="37.1082980" lon="-3.0273960">
        <ele>1978.4</ele>
        <time>2020-07-13T06:13:16Z</time>
      </trkpt>
      <trkpt lat="37.1085030" lon="-3.0275130">
        <ele>1979.4</ele>
        <time>2020-07-13T06:13:23Z</time>
      </trkpt>
      <trkpt lat="37.1085310" lon="-3.0275300">
        <ele>1979.6</ele>
        <time>2020-07-13T06:13:24Z</time>
      </trkpt>
      <trkpt lat="37.1087340" lon="-3.0276540">
        <ele>1980.6</ele>
        <time>2020-07-13T06:13:31Z</time>
      </trkpt>
      <trkpt lat="37.1087630" lon="-3.0276720">
        <ele>1980.8</ele>
        <time>2020-07-13T06:13:32Z</time>
      </trkpt>
      <trkpt lat="37.1089780" lon="-3.0277980">
        <ele>1981.8</ele>
        <time>2020-07-13T06:13:39Z</time>
      </trkpt>
      <trkpt lat="37.1091860" lon="-3.0279210">
        <ele>1982.8</ele>
        <time>2020-07-13T06:13:46Z</time>
      </trkpt>
      <trkpt lat="37.1092490" lon="-3.0279550">
        <ele>1983.2</ele>
        <time>2020-07-13T06:13:48Z</time>
      </trkpt>
      <trkpt lat="37.1094110" lon="-3.0280560">
        <ele>1984.0</ele>
        <time>2020-07-13T06:13:53Z</time>
      </trkpt>
      <trkpt lat="37.1094800" lon="-3.0281040">
        <ele>1984.2</ele>
        <time>2020-07-13T06:13:55Z</time>
      </trkpt>
      <trkpt lat="37.1097680" lon="-3.0283110">
        <ele>1984.4</ele>
        <time>2020-07-13T06:14:02Z</time>
      </trkpt>
      <trkpt lat="37.1101050" lon="-3.0284900">
        <ele>1984.4</ele>
        <time>2020-07-13T06:14:09Z</time>
      </trkpt>
      <trkpt lat="37.1105460" lon="-3.0286800">
        <ele>1984.6</ele>
        <time>2020-07-13T06:14:17Z</time>
      </trkpt>
      <trkpt lat="37.1108900" lon="-3.0288240">
        <ele>1984.8</ele>
        <time>2020-07-13T06:14:23Z</time>
      </trkpt>
      <trkpt lat="37.1109500" lon="-3.0288480">
        <ele>1984.6</ele>
        <time>2020-07-13T06:14:24Z</time>
      </trkpt>
      <trkpt lat="37.1113640" lon="-3.0290290">
        <ele>1984.8</ele>
        <time>2020-07-13T06:14:31Z</time>
      </trkpt>
      <trkpt lat="37.1116630" lon="-3.0291590">
        <ele>1985.0</ele>
        <time>2020-07-13T06:14:36Z</time>
      </trkpt>
      <trkpt lat="37.1117240" lon="-3.0291830">
        <ele>1985.0</ele>
        <time>2020-07-13T06:14:37Z</time>
      </trkpt>
      <trkpt lat="37.1121350" lon="-3.0293600">
        <ele>1985.2</ele>
        <time>2020-07-13T06:14:44Z</time>
      </trkpt>
      <trkpt lat="37.1126560" lon="-3.0295700">
        <ele>1985.2</ele>
        <time>2020-07-13T06:14:53Z</time>
      </trkpt>
      <trkpt lat="37.1127120" lon="-3.0295940">
        <ele>1985.2</ele>
        <time>2020-07-13T06:14:54Z</time>
      </trkpt>
      <trkpt lat="37.1131430" lon="-3.0297700">
        <ele>1985.6</ele>
        <time>2020-07-13T06:15:02Z</time>
      </trkpt>
      <trkpt lat="37.1132930" lon="-3.0298190">
        <ele>1985.6</ele>
        <time>2020-07-13T06:15:05Z</time>
      </trkpt>
      <trkpt lat="37.1133550" lon="-3.0298400">
        <ele>1985.6</ele>
        <time>2020-07-13T06:15:07Z</time>
      </trkpt>
      <trkpt lat="37.1133690" lon="-3.0298470">
        <ele>1985.4</ele>
        <time>2020-07-13T06:15:10Z</time>
      </trkpt>
      <trkpt lat="37.1134200" lon="-3.0299180">
        <ele>1984.8</ele>
        <time>2020-07-13T06:22:45Z</time>
      </trkpt>
      <trkpt lat="37.1134130" lon="-3.0299330">
        <ele>1985.0</ele>
        <time>2020-07-13T06:22:46Z</time>
      </trkpt>
      <trkpt lat="37.1134100" lon="-3.0299410">
        <ele>1984.8</ele>
        <time>2020-07-13T06:22:48Z</time>
      </trkpt>
      <trkpt lat="37.1135560" lon="-3.0299090">
        <ele>1984.4</ele>
        <time>2020-07-13T06:34:05Z</time>
      </trkpt>
      <trkpt lat="37.1135640" lon="-3.0299160">
        <ele>1984.4</ele>
        <time>2020-07-13T06:34:06Z</time>
      </trkpt>
      <trkpt lat="37.1135630" lon="-3.0299150">
        <ele>1984.4</ele>
        <time>2020-07-13T06:34:07Z</time>
      </trkpt>
      <trkpt lat="37.1135950" lon="-3.0299240">
        <ele>1984.2</ele>
        <time>2020-07-13T06:34:41Z</time>
      </trkpt>
      <trkpt lat="37.1136290" lon="-3.0299410">
        <ele>1984.2</ele>
        <time>2020-07-13T06:34:43Z</time>
      </trkpt>
      <trkpt lat="37.1137170" lon="-3.0299790">
        <ele>1984.0</ele>
        <time>2020-07-13T06:34:46Z</time>
      </trkpt>
      <trkpt lat="37.1137600" lon="-3.0299970">
        <ele>1984.0</ele>
        <time>2020-07-13T06:34:47Z</time>
      </trkpt>
      <trkpt lat="37.1138540" lon="-3.0300390">
        <ele>1983.8</ele>
        <time>2020-07-13T06:34:49Z</time>
      </trkpt>
      <trkpt lat="37.1140210" lon="-3.0301150">
        <ele>1983.4</ele>
        <time>2020-07-13T06:34:52Z</time>
      </trkpt>
      <trkpt lat="37.1141550" lon="-3.0301760">
        <ele>1982.8</ele>
        <time>2020-07-13T06:34:54Z</time>
      </trkpt>
      <trkpt lat="37.1143770" lon="-3.0302750">
        <ele>1981.6</ele>
        <time>2020-07-13T06:34:57Z</time>
      </trkpt>
      <trkpt lat="37.1144530" lon="-3.0303060">
        <ele>1981.2</ele>
        <time>2020-07-13T06:34:58Z</time>
      </trkpt>
      <trkpt lat="37.1146190" lon="-3.0303730">
        <ele>1980.6</ele>
        <time>2020-07-13T06:35:00Z</time>
      </trkpt>
      <trkpt lat="37.1147720" lon="-3.0304300">
        <ele>1979.4</ele>
        <time>2020-07-13T06:35:02Z</time>
      </trkpt>
      <trkpt lat="37.1148370" lon="-3.0304560">
        <ele>1978.8</ele>
        <time>2020-07-13T06:35:03Z</time>
      </trkpt>
      <trkpt lat="37.1149680" lon="-3.0305180">
        <ele>1978.2</ele>
        <time>2020-07-13T06:35:05Z</time>
      </trkpt>
      <trkpt lat="37.1151800" lon="-3.0306470">
        <ele>1977.2</ele>
        <time>2020-07-13T06:35:08Z</time>
      </trkpt>
      <trkpt lat="37.1152510" lon="-3.0306980">
        <ele>1976.6</ele>
        <time>2020-07-13T06:35:09Z</time>
      </trkpt>
      <trkpt lat="37.1153150" lon="-3.0307460">
        <ele>1976.0</ele>
        <time>2020-07-13T06:35:10Z</time>
      </trkpt>
      <trkpt lat="37.1154680" lon="-3.0308620">
        <ele>1974.8</ele>
        <time>2020-07-13T06:35:12Z</time>
      </trkpt>
      <trkpt lat="37.1156940" lon="-3.0310330">
        <ele>1973.4</ele>
        <time>2020-07-13T06:35:15Z</time>
      </trkpt>
      <trkpt lat="37.1157780" lon="-3.0310850">
        <ele>1972.8</ele>
        <time>2020-07-13T06:35:16Z</time>
      </trkpt>
      <trkpt lat="37.1159570" lon="-3.0311830">
        <ele>1971.8</ele>
        <time>2020-07-13T06:35:18Z</time>
      </trkpt>
      <trkpt lat="37.1162430" lon="-3.0313180">
        <ele>1970.6</ele>
        <time>2020-07-13T06:35:21Z</time>
      </trkpt>
      <trkpt lat="37.1163400" lon="-3.0313550">
        <ele>1970.0</ele>
        <time>2020-07-13T06:35:22Z</time>
      </trkpt>
      <trkpt lat="37.1164540" lon="-3.0313870">
        <ele>1969.6</ele>
        <time>2020-07-13T06:35:23Z</time>
      </trkpt>
      <trkpt lat="37.1166590" lon="-3.0314180">
        <ele>1968.2</ele>
        <time>2020-07-13T06:35:25Z</time>
      </trkpt>
      <trkpt lat="37.1167800" lon="-3.0314250">
        <ele>1967.6</ele>
        <time>2020-07-13T06:35:26Z</time>
      </trkpt>
      <trkpt lat="37.1168890" lon="-3.0314310">
        <ele>1967.0</ele>
        <time>2020-07-13T06:35:27Z</time>
      </trkpt>
      <trkpt lat="37.1172080" lon="-3.0314880">
        <ele>1965.6</ele>
        <time>2020-07-13T06:35:30Z</time>
      </trkpt>
      <trkpt lat="37.1173180" lon="-3.0315520">
        <ele>1965.0</ele>
        <time>2020-07-13T06:35:31Z</time>
      </trkpt>
      <trkpt lat="37.1174110" lon="-3.0316350">
        <ele>1964.4</ele>
        <time>2020-07-13T06:35:32Z</time>
      </trkpt>
      <trkpt lat="37.1175710" lon="-3.0318130">
        <ele>1963.0</ele>
        <time>2020-07-13T06:35:34Z</time>
      </trkpt>
      <trkpt lat="37.1177290" lon="-3.0319900">
        <ele>1961.4</ele>
        <time>2020-07-13T06:35:36Z</time>
      </trkpt>
      <trkpt lat="37.1178740" lon="-3.0321290">
        <ele>1960.0</ele>
        <time>2020-07-13T06:35:38Z</time>
      </trkpt>
      <trkpt lat="37.1179530" lon="-3.0321860">
        <ele>1959.4</ele>
        <time>2020-07-13T06:35:39Z</time>
      </trkpt>
      <trkpt lat="37.1180250" lon="-3.0322280">
        <ele>1958.8</ele>
        <time>2020-07-13T06:35:40Z</time>
      </trkpt>
      <trkpt lat="37.1182230" lon="-3.0323040">
        <ele>1957.6</ele>
        <time>2020-07-13T06:35:42Z</time>
      </trkpt>
      <trkpt lat="37.1184310" lon="-3.0323430">
        <ele>1956.4</ele>
        <time>2020-07-13T06:35:44Z</time>
      </trkpt>
      <trkpt lat="37.1186310" lon="-3.0323580">
        <ele>1955.0</ele>
        <time>2020-07-13T06:35:46Z</time>
      </trkpt>
      <trkpt lat="37.1188400" lon="-3.0324350">
        <ele>1953.4</ele>
        <time>2020-07-13T06:35:48Z</time>
      </trkpt>
      <trkpt lat="37.1189300" lon="-3.0324990">
        <ele>1952.6</ele>
        <time>2020-07-13T06:35:49Z</time>
      </trkpt>
      <trkpt lat="37.1190070" lon="-3.0325530">
        <ele>1952.2</ele>
        <time>2020-07-13T06:35:50Z</time>
      </trkpt>
      <trkpt lat="37.1191940" lon="-3.0326640">
        <ele>1950.6</ele>
        <time>2020-07-13T06:35:52Z</time>
      </trkpt>
      <trkpt lat="37.1193850" lon="-3.0327700">
        <ele>1949.4</ele>
        <time>2020-07-13T06:35:54Z</time>
      </trkpt>
      <trkpt lat="37.1194610" lon="-3.0328230">
        <ele>1948.4</ele>
        <time>2020-07-13T06:35:55Z</time>
      </trkpt>
      <trkpt lat="37.1195440" lon="-3.0329100">
        <ele>1947.6</ele>
        <time>2020-07-13T06:35:56Z</time>
      </trkpt>
      <trkpt lat="37.1196020" lon="-3.0330050">
        <ele>1946.4</ele>
        <time>2020-07-13T06:35:57Z</time>
      </trkpt>
      <trkpt lat="37.1196430" lon="-3.0330920">
        <ele>1945.6</ele>
        <time>2020-07-13T06:35:58Z</time>
      </trkpt>
      <trkpt lat="37.1196860" lon="-3.0331750">
        <ele>1944.6</ele>
        <time>2020-07-13T06:35:59Z</time>
      </trkpt>
      <trkpt lat="37.1197340" lon="-3.0332350">
        <ele>1943.4</ele>
        <time>2020-07-13T06:36:00Z</time>
      </trkpt>
      <trkpt lat="37.1198050" lon="-3.0332830">
        <ele>1942.4</ele>
        <time>2020-07-13T06:36:01Z</time>
      </trkpt>
      <trkpt lat="37.1199560" lon="-3.0333410">
        <ele>1940.8</ele>
        <time>2020-07-13T06:36:03Z</time>
      </trkpt>
      <trkpt lat="37.1200210" lon="-3.0333900">
        <ele>1940.4</ele>
        <time>2020-07-13T06:36:04Z</time>
      </trkpt>
      <trkpt lat="37.1201530" lon="-3.0335650">
        <ele>1939.6</ele>
        <time>2020-07-13T06:36:06Z</time>
      </trkpt>
      <trkpt lat="37.1202140" lon="-3.0336510">
        <ele>1939.2</ele>
        <time>2020-07-13T06:36:07Z</time>
      </trkpt>
      <trkpt lat="37.1203580" lon="-3.0337840">
        <ele>1938.2</ele>
        <time>2020-07-13T06:36:09Z</time>
      </trkpt>
      <trkpt lat="37.1204340" lon="-3.0338160">
        <ele>1937.4</ele>
        <time>2020-07-13T06:36:10Z</time>
      </trkpt>
      <trkpt lat="37.1205190" lon="-3.0338420">
        <ele>1937.0</ele>
        <time>2020-07-13T06:36:11Z</time>
      </trkpt>
      <trkpt lat="37.1207470" lon="-3.0339780">
        <ele>1936.2</ele>
        <time>2020-07-13T06:36:14Z</time>
      </trkpt>
      <trkpt lat="37.1208910" lon="-3.0340730">
        <ele>1935.8</ele>
        <time>2020-07-13T06:36:16Z</time>
      </trkpt>
      <trkpt lat="37.1210600" lon="-3.0341140">
        <ele>1935.4</ele>
        <time>2020-07-13T06:36:18Z</time>
      </trkpt>
      <trkpt lat="37.1212270" lon="-3.0341230">
        <ele>1935.0</ele>
        <time>2020-07-13T06:36:20Z</time>
      </trkpt>
      <trkpt lat="37.1213180" lon="-3.0341230">
        <ele>1934.8</ele>
        <time>2020-07-13T06:36:21Z</time>
      </trkpt>
      <trkpt lat="37.1215720" lon="-3.0341600">
        <ele>1934.0</ele>
        <time>2020-07-13T06:36:24Z</time>
      </trkpt>
      <trkpt lat="37.1216560" lon="-3.0341900">
        <ele>1933.6</ele>
        <time>2020-07-13T06:36:25Z</time>
      </trkpt>
      <trkpt lat="37.1219970" lon="-3.0343150">
        <ele>1932.6</ele>
        <time>2020-07-13T06:36:29Z</time>
      </trkpt>
      <trkpt lat="37.1220690" lon="-3.0343800">
        <ele>1932.4</ele>
        <time>2020-07-13T06:36:30Z</time>
      </trkpt>
      <trkpt lat="37.1222320" lon="-3.0346800">
        <ele>1931.4</ele>
        <time>2020-07-13T06:36:33Z</time>
      </trkpt>
      <trkpt lat="37.1224040" lon="-3.0349800">
        <ele>1929.8</ele>
        <time>2020-07-13T06:36:36Z</time>
      </trkpt>
      <trkpt lat="37.1224850" lon="-3.0350540">
        <ele>1929.0</ele>
        <time>2020-07-13T06:36:37Z</time>
      </trkpt>
      <trkpt lat="37.1225730" lon="-3.0351190">
        <ele>1928.2</ele>
        <time>2020-07-13T06:36:38Z</time>
      </trkpt>
      <trkpt lat="37.1227560" lon="-3.0352300">
        <ele>1927.0</ele>
        <time>2020-07-13T06:36:40Z</time>
      </trkpt>
      <trkpt lat="37.1228520" lon="-3.0352800">
        <ele>1926.6</ele>
        <time>2020-07-13T06:36:41Z</time>
      </trkpt>
      <trkpt lat="37.1229570" lon="-3.0353180">
        <ele>1926.0</ele>
        <time>2020-07-13T06:36:42Z</time>
      </trkpt>
      <trkpt lat="37.1231540" lon="-3.0353880">
        <ele>1924.6</ele>
        <time>2020-07-13T06:36:44Z</time>
      </trkpt>
      <trkpt lat="37.1232440" lon="-3.0354390">
        <ele>1924.0</ele>
        <time>2020-07-13T06:36:45Z</time>
      </trkpt>
      <trkpt lat="37.1233300" lon="-3.0355130">
        <ele>1923.0</ele>
        <time>2020-07-13T06:36:46Z</time>
      </trkpt>
      <trkpt lat="37.1234840" lon="-3.0356960">
        <ele>1921.8</ele>
        <time>2020-07-13T06:36:48Z</time>
      </trkpt>
      <trkpt lat="37.1235590" lon="-3.0357990">
        <ele>1921.0</ele>
        <time>2020-07-13T06:36:49Z</time>
      </trkpt>
      <trkpt lat="37.1236250" lon="-3.0359000">
        <ele>1920.2</ele>
        <time>2020-07-13T06:36:50Z</time>
      </trkpt>
      <trkpt lat="37.1236890" lon="-3.0360230">
        <ele>1919.8</ele>
        <time>2020-07-13T06:36:51Z</time>
      </trkpt>
      <trkpt lat="37.1237410" lon="-3.0361350">
        <ele>1919.0</ele>
        <time>2020-07-13T06:36:52Z</time>
      </trkpt>
      <trkpt lat="37.1238630" lon="-3.0363470">
        <ele>1917.6</ele>
        <time>2020-07-13T06:36:54Z</time>
      </trkpt>
      <trkpt lat="37.1240200" lon="-3.0365130">
        <ele>1916.2</ele>
        <time>2020-07-13T06:36:56Z</time>
      </trkpt>
      <trkpt lat="37.1241660" lon="-3.0366800">
        <ele>1914.8</ele>
        <time>2020-07-13T06:36:58Z</time>
      </trkpt>
      <trkpt lat="37.1243090" lon="-3.0368700">
        <ele>1913.6</ele>
        <time>2020-07-13T06:37:00Z</time>
      </trkpt>
      <trkpt lat="37.1243830" lon="-3.0369630">
        <ele>1913.0</ele>
        <time>2020-07-13T06:37:01Z</time>
      </trkpt>
      <trkpt lat="37.1245330" lon="-3.0371290">
        <ele>1912.2</ele>
        <time>2020-07-13T06:37:03Z</time>
      </trkpt>
      <trkpt lat="37.1247120" lon="-3.0372470">
        <ele>1911.2</ele>
        <time>2020-07-13T06:37:05Z</time>
      </trkpt>
      <trkpt lat="37.1249160" lon="-3.0373330">
        <ele>1910.0</ele>
        <time>2020-07-13T06:37:07Z</time>
      </trkpt>
      <trkpt lat="37.1250220" lon="-3.0373450">
        <ele>1909.2</ele>
        <time>2020-07-13T06:37:08Z</time>
      </trkpt>
      <trkpt lat="37.1251200" lon="-3.0373400">
        <ele>1908.8</ele>
        <time>2020-07-13T06:37:09Z</time>
      </trkpt>
      <trkpt lat="37.1253330" lon="-3.0373100">
        <ele>1907.6</ele>
        <time>2020-07-13T06:37:11Z</time>
      </trkpt>
      <trkpt lat="37.1254330" lon="-3.0373070">
        <ele>1906.8</ele>
        <time>2020-07-13T06:37:12Z</time>
      </trkpt>
      <trkpt lat="37.1255330" lon="-3.0373240">
        <ele>1906.2</ele>
        <time>2020-07-13T06:37:13Z</time>
      </trkpt>
      <trkpt lat="37.1257280" lon="-3.0373860">
        <ele>1905.2</ele>
        <time>2020-07-13T06:37:15Z</time>
      </trkpt>
      <trkpt lat="37.1260280" lon="-3.0374880">
        <ele>1903.6</ele>
        <time>2020-07-13T06:37:18Z</time>
      </trkpt>
      <trkpt lat="37.1261100" lon="-3.0375410">
        <ele>1903.0</ele>
        <time>2020-07-13T06:37:19Z</time>
      </trkpt>
      <trkpt lat="37.1261800" lon="-3.0376170">
        <ele>1902.6</ele>
        <time>2020-07-13T06:37:20Z</time>
      </trkpt>
      <trkpt lat="37.1262590" lon="-3.0378320">
        <ele>1901.2</ele>
        <time>2020-07-13T06:37:22Z</time>
      </trkpt>
      <trkpt lat="37.1262910" lon="-3.0380810">
        <ele>1900.4</ele>
        <time>2020-07-13T06:37:24Z</time>
      </trkpt>
      <trkpt lat="37.1263020" lon="-3.0381980">
        <ele>1899.8</ele>
        <time>2020-07-13T06:37:25Z</time>
      </trkpt>
      <trkpt lat="37.1263150" lon="-3.0383290">
        <ele>1899.2</ele>
        <time>2020-07-13T06:37:26Z</time>
      </trkpt>
      <trkpt lat="37.1263280" lon="-3.0384570">
        <ele>1898.6</ele>
        <time>2020-07-13T06:37:27Z</time>
      </trkpt>
      <trkpt lat="37.1263620" lon="-3.0388410">
        <ele>1897.6</ele>
        <time>2020-07-13T06:37:30Z</time>
      </trkpt>
      <trkpt lat="37.1264010" lon="-3.0391190">
        <ele>1896.4</ele>
        <time>2020-07-13T06:37:32Z</time>
      </trkpt>
      <trkpt lat="37.1264250" lon="-3.0392530">
        <ele>1895.6</ele>
        <time>2020-07-13T06:37:33Z</time>
      </trkpt>
      <trkpt lat="37.1264520" lon="-3.0393800">
        <ele>1894.8</ele>
        <time>2020-07-13T06:37:34Z</time>
      </trkpt>
      <trkpt lat="37.1264910" lon="-3.0395140">
        <ele>1894.6</ele>
        <time>2020-07-13T06:37:35Z</time>
      </trkpt>
      <trkpt lat="37.1265390" lon="-3.0396500">
        <ele>1893.8</ele>
        <time>2020-07-13T06:37:36Z</time>
      </trkpt>
      <trkpt lat="37.1265870" lon="-3.0397790">
        <ele>1893.4</ele>
        <time>2020-07-13T06:37:37Z</time>
      </trkpt>
      <trkpt lat="37.1266820" lon="-3.0400310">
        <ele>1892.0</ele>
        <time>2020-07-13T06:37:39Z</time>
      </trkpt>
      <trkpt lat="37.1267420" lon="-3.0402770">
        <ele>1890.8</ele>
        <time>2020-07-13T06:37:41Z</time>
      </trkpt>
      <trkpt lat="37.1267400" lon="-3.0405260">
        <ele>1889.6</ele>
        <time>2020-07-13T06:37:43Z</time>
      </trkpt>
      <trkpt lat="37.1267270" lon="-3.0406530">
        <ele>1889.0</ele>
        <time>2020-07-13T06:37:44Z</time>
      </trkpt>
      <trkpt lat="37.1267130" lon="-3.0407740">
        <ele>1888.4</ele>
        <time>2020-07-13T06:37:45Z</time>
      </trkpt>
      <trkpt lat="37.1266820" lon="-3.0410390">
        <ele>1887.2</ele>
        <time>2020-07-13T06:37:47Z</time>
      </trkpt>
      <trkpt lat="37.1266550" lon="-3.0412980">
        <ele>1885.8</ele>
        <time>2020-07-13T06:37:49Z</time>
      </trkpt>
      <trkpt lat="37.1266370" lon="-3.0415490">
        <ele>1884.8</ele>
        <time>2020-07-13T06:37:51Z</time>
      </trkpt>
      <trkpt lat="37.1266380" lon="-3.0416510">
        <ele>1884.2</ele>
        <time>2020-07-13T06:37:52Z</time>
      </trkpt>
      <trkpt lat="37.1266560" lon="-3.0417490">
        <ele>1883.8</ele>
        <time>2020-07-13T06:37:53Z</time>
      </trkpt>
      <trkpt lat="37.1266960" lon="-3.0418240">
        <ele>1883.6</ele>
        <time>2020-07-13T06:37:54Z</time>
      </trkpt>
      <trkpt lat="37.1267590" lon="-3.0418750">
        <ele>1883.0</ele>
        <time>2020-07-13T06:37:55Z</time>
      </trkpt>
      <trkpt lat="37.1268380" lon="-3.0419100">
        <ele>1882.4</ele>
        <time>2020-07-13T06:37:56Z</time>
      </trkpt>
      <trkpt lat="37.1269230" lon="-3.0419370">
        <ele>1881.8</ele>
        <time>2020-07-13T06:37:57Z</time>
      </trkpt>
      <trkpt lat="37.1270060" lon="-3.0419640">
        <ele>1881.2</ele>
        <time>2020-07-13T06:37:58Z</time>
      </trkpt>
      <trkpt lat="37.1271070" lon="-3.0420010">
        <ele>1880.6</ele>
        <time>2020-07-13T06:37:59Z</time>
      </trkpt>
      <trkpt lat="37.1271990" lon="-3.0420350">
        <ele>1880.0</ele>
        <time>2020-07-13T06:38:00Z</time>
      </trkpt>
      <trkpt lat="37.1273030" lon="-3.0420750">
        <ele>1879.0</ele>
        <time>2020-07-13T06:38:01Z</time>
      </trkpt>
      <trkpt lat="37.1274870" lon="-3.0421600">
        <ele>1877.8</ele>
        <time>2020-07-13T06:38:03Z</time>
      </trkpt>
      <trkpt lat="37.1276180" lon="-3.0423120">
        <ele>1876.4</ele>
        <time>2020-07-13T06:38:05Z</time>
      </trkpt>
      <trkpt lat="37.1277000" lon="-3.0425210">
        <ele>1874.8</ele>
        <time>2020-07-13T06:38:07Z</time>
      </trkpt>
      <trkpt lat="37.1277460" lon="-3.0426120">
        <ele>1873.8</ele>
        <time>2020-07-13T06:38:08Z</time>
      </trkpt>
      <trkpt lat="37.1278730" lon="-3.0427140">
        <ele>1872.4</ele>
        <time>2020-07-13T06:38:10Z</time>
      </trkpt>
      <trkpt lat="37.1281440" lon="-3.0427440">
        <ele>1871.2</ele>
        <time>2020-07-13T06:38:13Z</time>
      </trkpt>
      <trkpt lat="37.1283310" lon="-3.0427210">
        <ele>1869.8</ele>
        <time>2020-07-13T06:38:15Z</time>
      </trkpt>
      <trkpt lat="37.1285230" lon="-3.0426990">
        <ele>1868.4</ele>
        <time>2020-07-13T06:38:17Z</time>
      </trkpt>
      <trkpt lat="37.1286110" lon="-3.0427110">
        <ele>1867.8</ele>
        <time>2020-07-13T06:38:18Z</time>
      </trkpt>
      <trkpt lat="37.1287050" lon="-3.0427460">
        <ele>1867.4</ele>
        <time>2020-07-13T06:38:19Z</time>
      </trkpt>
      <trkpt lat="37.1288760" lon="-3.0428440">
        <ele>1866.0</ele>
        <time>2020-07-13T06:38:21Z</time>
      </trkpt>
      <trkpt lat="37.1291630" lon="-3.0430010">
        <ele>1864.2</ele>
        <time>2020-07-13T06:38:24Z</time>
      </trkpt>
      <trkpt lat="37.1293590" lon="-3.0431140">
        <ele>1863.0</ele>
        <time>2020-07-13T06:38:26Z</time>
      </trkpt>
      <trkpt lat="37.1294580" lon="-3.0431710">
        <ele>1862.4</ele>
        <time>2020-07-13T06:38:27Z</time>
      </trkpt>
      <trkpt lat="37.1295520" lon="-3.0432340">
        <ele>1861.8</ele>
        <time>2020-07-13T06:38:28Z</time>
      </trkpt>
      <trkpt lat="37.1297250" lon="-3.0433790">
        <ele>1860.6</ele>
        <time>2020-07-13T06:38:30Z</time>
      </trkpt>
      <trkpt lat="37.1297980" lon="-3.0434610">
        <ele>1860.0</ele>
        <time>2020-07-13T06:38:31Z</time>
      </trkpt>
      <trkpt lat="37.1298590" lon="-3.0435320">
        <ele>1859.6</ele>
        <time>2020-07-13T06:38:32Z</time>
      </trkpt>
      <trkpt lat="37.1299260" lon="-3.0435900">
        <ele>1859.0</ele>
        <time>2020-07-13T06:38:33Z</time>
      </trkpt>
      <trkpt lat="37.1299980" lon="-3.0436180">
        <ele>1858.4</ele>
        <time>2020-07-13T06:38:34Z</time>
      </trkpt>
      <trkpt lat="37.1302650" lon="-3.0436450">
        <ele>1857.0</ele>
        <time>2020-07-13T06:38:37Z</time>
      </trkpt>
      <trkpt lat="37.1303540" lon="-3.0436560">
        <ele>1856.2</ele>
        <time>2020-07-13T06:38:38Z</time>
      </trkpt>
      <trkpt lat="37.1304360" lon="-3.0436660">
        <ele>1856.0</ele>
        <time>2020-07-13T06:38:39Z</time>
      </trkpt>
      <trkpt lat="37.1307370" lon="-3.0436660">
        <ele>1854.4</ele>
        <time>2020-07-13T06:38:42Z</time>
      </trkpt>
      <trkpt lat="37.1308360" lon="-3.0436520">
        <ele>1854.2</ele>
        <time>2020-07-13T06:38:43Z</time>
      </trkpt>
      <trkpt lat="37.1310420" lon="-3.0436190">
        <ele>1853.0</ele>
        <time>2020-07-13T06:38:45Z</time>
      </trkpt>
      <trkpt lat="37.1312630" lon="-3.0435780">
        <ele>1851.8</ele>
        <time>2020-07-13T06:38:47Z</time>
      </trkpt>
      <trkpt lat="37.1314790" lon="-3.0435250">
        <ele>1850.6</ele>
        <time>2020-07-13T06:38:49Z</time>
      </trkpt>
      <trkpt lat="37.1315870" lon="-3.0434870">
        <ele>1850.2</ele>
        <time>2020-07-13T06:38:50Z</time>
      </trkpt>
      <trkpt lat="37.1317050" lon="-3.0434390">
        <ele>1849.4</ele>
        <time>2020-07-13T06:38:51Z</time>
      </trkpt>
      <trkpt lat="37.1319200" lon="-3.0433410">
        <ele>1848.2</ele>
        <time>2020-07-13T06:38:53Z</time>
      </trkpt>
      <trkpt lat="37.1321400" lon="-3.0432300">
        <ele>1846.4</ele>
        <time>2020-07-13T06:38:55Z</time>
      </trkpt>
      <trkpt lat="37.1323610" lon="-3.0430920">
        <ele>1844.8</ele>
        <time>2020-07-13T06:38:57Z</time>
      </trkpt>
      <trkpt lat="37.1325600" lon="-3.0429410">
        <ele>1843.4</ele>
        <time>2020-07-13T06:38:59Z</time>
      </trkpt>
      <trkpt lat="37.1326510" lon="-3.0428590">
        <ele>1842.8</ele>
        <time>2020-07-13T06:39:00Z</time>
      </trkpt>
      <trkpt lat="37.1327450" lon="-3.0427650">
        <ele>1842.2</ele>
        <time>2020-07-13T06:39:01Z</time>
      </trkpt>
      <trkpt lat="37.1329170" lon="-3.0425760">
        <ele>1841.0</ele>
        <time>2020-07-13T06:39:03Z</time>
      </trkpt>
      <trkpt lat="37.1330970" lon="-3.0424140">
        <ele>1839.8</ele>
        <time>2020-07-13T06:39:05Z</time>
      </trkpt>
      <trkpt lat="37.1332770" lon="-3.0422740">
        <ele>1838.2</ele>
        <time>2020-07-13T06:39:07Z</time>
      </trkpt>
      <trkpt lat="37.1334300" lon="-3.0421560">
        <ele>1836.8</ele>
        <time>2020-07-13T06:39:09Z</time>
      </trkpt>
      <trkpt lat="37.1335890" lon="-3.0420400">
        <ele>1835.0</ele>
        <time>2020-07-13T06:39:11Z</time>
      </trkpt>
      <trkpt lat="37.1336760" lon="-3.0419900">
        <ele>1834.2</ele>
        <time>2020-07-13T06:39:12Z</time>
      </trkpt>
      <trkpt lat="37.1337710" lon="-3.0419600">
        <ele>1833.4</ele>
        <time>2020-07-13T06:39:13Z</time>
      </trkpt>
      <trkpt lat="37.1338680" lon="-3.0419590">
        <ele>1832.6</ele>
        <time>2020-07-13T06:39:14Z</time>
      </trkpt>
      <trkpt lat="37.1339610" lon="-3.0419820">
        <ele>1832.0</ele>
        <time>2020-07-13T06:39:15Z</time>
      </trkpt>
      <trkpt lat="37.1341660" lon="-3.0420700">
        <ele>1830.6</ele>
        <time>2020-07-13T06:39:17Z</time>
      </trkpt>
      <trkpt lat="37.1343650" lon="-3.0421570">
        <ele>1829.2</ele>
        <time>2020-07-13T06:39:19Z</time>
      </trkpt>
      <trkpt lat="37.1345760" lon="-3.0422550">
        <ele>1827.6</ele>
        <time>2020-07-13T06:39:21Z</time>
      </trkpt>
      <trkpt lat="37.1347720" lon="-3.0423660">
        <ele>1826.2</ele>
        <time>2020-07-13T06:39:23Z</time>
      </trkpt>
      <trkpt lat="37.1348600" lon="-3.0424380">
        <ele>1825.6</ele>
        <time>2020-07-13T06:39:24Z</time>
      </trkpt>
      <trkpt lat="37.1349310" lon="-3.0425100">
        <ele>1824.4</ele>
        <time>2020-07-13T06:39:25Z</time>
      </trkpt>
      <trkpt lat="37.1349960" lon="-3.0425980">
        <ele>1823.8</ele>
        <time>2020-07-13T06:39:26Z</time>
      </trkpt>
      <trkpt lat="37.1350450" lon="-3.0426920">
        <ele>1823.0</ele>
        <time>2020-07-13T06:39:27Z</time>
      </trkpt>
      <trkpt lat="37.1351150" lon="-3.0429060">
        <ele>1822.0</ele>
        <time>2020-07-13T06:39:29Z</time>
      </trkpt>
      <trkpt lat="37.1351380" lon="-3.0430230">
        <ele>1821.6</ele>
        <time>2020-07-13T06:39:30Z</time>
      </trkpt>
      <trkpt lat="37.1351600" lon="-3.0431500">
        <ele>1820.6</ele>
        <time>2020-07-13T06:39:31Z</time>
      </trkpt>
      <trkpt lat="37.1351820" lon="-3.0432710">
        <ele>1820.2</ele>
        <time>2020-07-13T06:39:32Z</time>
      </trkpt>
      <trkpt lat="37.1352280" lon="-3.0435070">
        <ele>1818.4</ele>
        <time>2020-07-13T06:39:34Z</time>
      </trkpt>
      <trkpt lat="37.1352850" lon="-3.0437570">
        <ele>1816.8</ele>
        <time>2020-07-13T06:39:36Z</time>
      </trkpt>
      <trkpt lat="37.1353480" lon="-3.0439950">
        <ele>1815.6</ele>
        <time>2020-07-13T06:39:38Z</time>
      </trkpt>
      <trkpt lat="37.1354370" lon="-3.0443690">
        <ele>1814.4</ele>
        <time>2020-07-13T06:39:41Z</time>
      </trkpt>
      <trkpt lat="37.1354710" lon="-3.0446300">
        <ele>1813.2</ele>
        <time>2020-07-13T06:39:43Z</time>
      </trkpt>
      <trkpt lat="37.1355180" lon="-3.0448920">
        <ele>1812.0</ele>
        <time>2020-07-13T06:39:45Z</time>
      </trkpt>
      <trkpt lat="37.1355470" lon="-3.0450290">
        <ele>1811.4</ele>
        <time>2020-07-13T06:39:46Z</time>
      </trkpt>
      <trkpt lat="37.1355810" lon="-3.0451750">
        <ele>1811.0</ele>
        <time>2020-07-13T06:39:47Z</time>
      </trkpt>
      <trkpt lat="37.1356590" lon="-3.0454500">
        <ele>1809.8</ele>
        <time>2020-07-13T06:39:49Z</time>
      </trkpt>
      <trkpt lat="37.1357660" lon="-3.0457160">
        <ele>1808.2</ele>
        <time>2020-07-13T06:39:51Z</time>
      </trkpt>
      <trkpt lat="37.1359040" lon="-3.0459750">
        <ele>1806.2</ele>
        <time>2020-07-13T06:39:53Z</time>
      </trkpt>
      <trkpt lat="37.1360640" lon="-3.0462000">
        <ele>1804.6</ele>
        <time>2020-07-13T06:39:55Z</time>
      </trkpt>
      <trkpt lat="37.1362570" lon="-3.0464130">
        <ele>1803.0</ele>
        <time>2020-07-13T06:39:57Z</time>
      </trkpt>
      <trkpt lat="37.1364620" lon="-3.0466070">
        <ele>1801.4</ele>
        <time>2020-07-13T06:39:59Z</time>
      </trkpt>
      <trkpt lat="37.1366810" lon="-3.0467960">
        <ele>1800.0</ele>
        <time>2020-07-13T06:40:01Z</time>
      </trkpt>
      <trkpt lat="37.1369040" lon="-3.0469790">
        <ele>1798.4</ele>
        <time>2020-07-13T06:40:03Z</time>
      </trkpt>
      <trkpt lat="37.1371190" lon="-3.0471590">
        <ele>1796.4</ele>
        <time>2020-07-13T06:40:05Z</time>
      </trkpt>
      <trkpt lat="37.1372140" lon="-3.0472390">
        <ele>1795.2</ele>
        <time>2020-07-13T06:40:06Z</time>
      </trkpt>
      <trkpt lat="37.1373360" lon="-3.0473460">
        <ele>1794.0</ele>
        <time>2020-07-13T06:40:07Z</time>
      </trkpt>
      <trkpt lat="37.1374410" lon="-3.0474340">
        <ele>1792.6</ele>
        <time>2020-07-13T06:40:08Z</time>
      </trkpt>
      <trkpt lat="37.1375350" lon="-3.0475110">
        <ele>1791.4</ele>
        <time>2020-07-13T06:40:09Z</time>
      </trkpt>
      <trkpt lat="37.1376290" lon="-3.0475910">
        <ele>1790.4</ele>
        <time>2020-07-13T06:40:10Z</time>
      </trkpt>
      <trkpt lat="37.1377390" lon="-3.0476780">
        <ele>1789.4</ele>
        <time>2020-07-13T06:40:11Z</time>
      </trkpt>
      <trkpt lat="37.1378410" lon="-3.0477510">
        <ele>1788.2</ele>
        <time>2020-07-13T06:40:12Z</time>
      </trkpt>
      <trkpt lat="37.1380660" lon="-3.0478940">
        <ele>1786.2</ele>
        <time>2020-07-13T06:40:14Z</time>
      </trkpt>
      <trkpt lat="37.1381810" lon="-3.0479570">
        <ele>1785.0</ele>
        <time>2020-07-13T06:40:15Z</time>
      </trkpt>
      <trkpt lat="37.1383010" lon="-3.0480160">
        <ele>1783.8</ele>
        <time>2020-07-13T06:40:16Z</time>
      </trkpt>
      <trkpt lat="37.1384310" lon="-3.0480730">
        <ele>1782.8</ele>
        <time>2020-07-13T06:40:17Z</time>
      </trkpt>
      <trkpt lat="37.1385570" lon="-3.0481210">
        <ele>1781.8</ele>
        <time>2020-07-13T06:40:18Z</time>
      </trkpt>
      <trkpt lat="37.1386860" lon="-3.0481670">
        <ele>1780.8</ele>
        <time>2020-07-13T06:40:19Z</time>
      </trkpt>
      <trkpt lat="37.1389440" lon="-3.0482340">
        <ele>1778.8</ele>
        <time>2020-07-13T06:40:21Z</time>
      </trkpt>
      <trkpt lat="37.1390750" lon="-3.0482590">
        <ele>1777.8</ele>
        <time>2020-07-13T06:40:22Z</time>
      </trkpt>
      <trkpt lat="37.1392140" lon="-3.0482790">
        <ele>1776.6</ele>
        <time>2020-07-13T06:40:23Z</time>
      </trkpt>
      <trkpt lat="37.1393460" lon="-3.0482920">
        <ele>1775.6</ele>
        <time>2020-07-13T06:40:24Z</time>
      </trkpt>
      <trkpt lat="37.1394720" lon="-3.0482990">
        <ele>1774.2</ele>
        <time>2020-07-13T06:40:25Z</time>
      </trkpt>
      <trkpt lat="37.1396110" lon="-3.0483000">
        <ele>1773.0</ele>
        <time>2020-07-13T06:40:26Z</time>
      </trkpt>
      <trkpt lat="37.1397490" lon="-3.0482950">
        <ele>1771.8</ele>
        <time>2020-07-13T06:40:27Z</time>
      </trkpt>
      <trkpt lat="37.1398770" lon="-3.0482830">
        <ele>1770.2</ele>
        <time>2020-07-13T06:40:28Z</time>
      </trkpt>
      <trkpt lat="37.1400240" lon="-3.0482660">
        <ele>1769.2</ele>
        <time>2020-07-13T06:40:29Z</time>
      </trkpt>
      <trkpt lat="37.1401550" lon="-3.0482470">
        <ele>1768.2</ele>
        <time>2020-07-13T06:40:30Z</time>
      </trkpt>
      <trkpt lat="37.1403010" lon="-3.0482210">
        <ele>1767.2</ele>
        <time>2020-07-13T06:40:31Z</time>
      </trkpt>
      <trkpt lat="37.1404400" lon="-3.0481930">
        <ele>1765.8</ele>
        <time>2020-07-13T06:40:32Z</time>
      </trkpt>
      <trkpt lat="37.1407180" lon="-3.0481420">
        <ele>1763.8</ele>
        <time>2020-07-13T06:40:34Z</time>
      </trkpt>
      <trkpt lat="37.1408610" lon="-3.0481170">
        <ele>1762.4</ele>
        <time>2020-07-13T06:40:35Z</time>
      </trkpt>
      <trkpt lat="37.1410130" lon="-3.0480870">
        <ele>1761.0</ele>
        <time>2020-07-13T06:40:36Z</time>
      </trkpt>
      <trkpt lat="37.1411580" lon="-3.0480600">
        <ele>1760.0</ele>
        <time>2020-07-13T06:40:37Z</time>
      </trkpt>
      <trkpt lat="37.1413020" lon="-3.0480310">
        <ele>1758.6</ele>
        <time>2020-07-13T06:40:38Z</time>
      </trkpt>
      <trkpt lat="37.1414420" lon="-3.0480020">
        <ele>1757.4</ele>
        <time>2020-07-13T06:40:39Z</time>
      </trkpt>
      <trkpt lat="37.1415700" lon="-3.0479760">
        <ele>1756.2</ele>
        <time>2020-07-13T06:40:40Z</time>
      </trkpt>
      <trkpt lat="37.1417290" lon="-3.0479460">
        <ele>1754.8</ele>
        <time>2020-07-13T06:40:41Z</time>
      </trkpt>
      <trkpt lat="37.1422820" lon="-3.0478390">
        <ele>1752.6</ele>
        <time>2020-07-13T06:40:45Z</time>
      </trkpt>
      <trkpt lat="37.1424240" lon="-3.0478100">
        <ele>1751.2</ele>
        <time>2020-07-13T06:40:46Z</time>
      </trkpt>
      <trkpt lat="37.1425690" lon="-3.0477780">
        <ele>1749.8</ele>
        <time>2020-07-13T06:40:47Z</time>
      </trkpt>
      <trkpt lat="37.1427050" lon="-3.0477400">
        <ele>1748.6</ele>
        <time>2020-07-13T06:40:48Z</time>
      </trkpt>
      <trkpt lat="37.1428390" lon="-3.0476950">
        <ele>1747.4</ele>
        <time>2020-07-13T06:40:49Z</time>
      </trkpt>
      <trkpt lat="37.1429660" lon="-3.0476440">
        <ele>1746.0</ele>
        <time>2020-07-13T06:40:50Z</time>
      </trkpt>
      <trkpt lat="37.1431040" lon="-3.0475800">
        <ele>1744.8</ele>
        <time>2020-07-13T06:40:51Z</time>
      </trkpt>
      <trkpt lat="37.1433490" lon="-3.0474330">
        <ele>1743.4</ele>
        <time>2020-07-13T06:40:53Z</time>
      </trkpt>
      <trkpt lat="37.1434670" lon="-3.0473450">
        <ele>1742.2</ele>
        <time>2020-07-13T06:40:54Z</time>
      </trkpt>
      <trkpt lat="37.1436970" lon="-3.0471450">
        <ele>1738.8</ele>
        <time>2020-07-13T06:40:56Z</time>
      </trkpt>
      <trkpt lat="37.1438040" lon="-3.0470430">
        <ele>1737.6</ele>
        <time>2020-07-13T06:40:57Z</time>
      </trkpt>
      <trkpt lat="37.1440140" lon="-3.0468310">
        <ele>1736.0</ele>
        <time>2020-07-13T06:40:59Z</time>
      </trkpt>
      <trkpt lat="37.1442280" lon="-3.0466140">
        <ele>1733.8</ele>
        <time>2020-07-13T06:41:01Z</time>
      </trkpt>
      <trkpt lat="37.1443320" lon="-3.0465080">
        <ele>1732.6</ele>
        <time>2020-07-13T06:41:02Z</time>
      </trkpt>
      <trkpt lat="37.1444210" lon="-3.0464170">
        <ele>1731.4</ele>
        <time>2020-07-13T06:41:03Z</time>
      </trkpt>
      <trkpt lat="37.1445380" lon="-3.0462980">
        <ele>1729.0</ele>
        <time>2020-07-13T06:41:04Z</time>
      </trkpt>
      <trkpt lat="37.1446410" lon="-3.0461920">
        <ele>1727.8</ele>
        <time>2020-07-13T06:41:05Z</time>
      </trkpt>
      <trkpt lat="37.1447490" lon="-3.0460800">
        <ele>1726.8</ele>
        <time>2020-07-13T06:41:06Z</time>
      </trkpt>
      <trkpt lat="37.1449570" lon="-3.0458690">
        <ele>1724.4</ele>
        <time>2020-07-13T06:41:08Z</time>
      </trkpt>
      <trkpt lat="37.1450820" lon="-3.0457400">
        <ele>1723.4</ele>
        <time>2020-07-13T06:41:10Z</time>
      </trkpt>
      <trkpt lat="37.1451860" lon="-3.0456350">
        <ele>1721.6</ele>
        <time>2020-07-13T06:41:11Z</time>
      </trkpt>
      <trkpt lat="37.1453030" lon="-3.0455170">
        <ele>1720.6</ele>
        <time>2020-07-13T06:41:12Z</time>
      </trkpt>
      <trkpt lat="37.1454050" lon="-3.0454170">
        <ele>1719.2</ele>
        <time>2020-07-13T06:41:13Z</time>
      </trkpt>
      <trkpt lat="37.1456070" lon="-3.0452400">
        <ele>1717.2</ele>
        <time>2020-07-13T06:41:15Z</time>
      </trkpt>
      <trkpt lat="37.1456640" lon="-3.0452010">
        <ele>1717.0</ele>
        <time>2020-07-13T06:41:16Z</time>
      </trkpt>
      <trkpt lat="37.1458350" lon="-3.0451280">
        <ele>1716.0</ele>
        <time>2020-07-13T06:41:17Z</time>
      </trkpt>
      <trkpt lat="37.1460060" lon="-3.0450540">
        <ele>1715.0</ele>
        <time>2020-07-13T06:41:18Z</time>
      </trkpt>
      <trkpt lat="37.1461260" lon="-3.0450390">
        <ele>1713.2</ele>
        <time>2020-07-13T06:41:19Z</time>
      </trkpt>
      <trkpt lat="37.1462410" lon="-3.0450400">
        <ele>1712.0</ele>
        <time>2020-07-13T06:41:20Z</time>
      </trkpt>
      <trkpt lat="37.1463650" lon="-3.0450590">
        <ele>1711.4</ele>
        <time>2020-07-13T06:41:21Z</time>
      </trkpt>
      <trkpt lat="37.1464760" lon="-3.0450940">
        <ele>1710.6</ele>
        <time>2020-07-13T06:41:22Z</time>
      </trkpt>
      <trkpt lat="37.1466890" lon="-3.0452090">
        <ele>1709.2</ele>
        <time>2020-07-13T06:41:24Z</time>
      </trkpt>
      <trkpt lat="37.1468750" lon="-3.0453790">
        <ele>1708.0</ele>
        <time>2020-07-13T06:41:26Z</time>
      </trkpt>
      <trkpt lat="37.1469530" lon="-3.0454770">
        <ele>1707.6</ele>
        <time>2020-07-13T06:41:27Z</time>
      </trkpt>
      <trkpt lat="37.1470810" lon="-3.0456970">
        <ele>1706.6</ele>
        <time>2020-07-13T06:41:29Z</time>
      </trkpt>
      <trkpt lat="37.1471260" lon="-3.0458100">
        <ele>1706.0</ele>
        <time>2020-07-13T06:41:30Z</time>
      </trkpt>
      <trkpt lat="37.1471890" lon="-3.0460700">
        <ele>1705.2</ele>
        <time>2020-07-13T06:41:32Z</time>
      </trkpt>
      <trkpt lat="37.1472050" lon="-3.0462000">
        <ele>1704.6</ele>
        <time>2020-07-13T06:41:33Z</time>
      </trkpt>
      <trkpt lat="37.1472110" lon="-3.0463280">
        <ele>1704.0</ele>
        <time>2020-07-13T06:41:34Z</time>
      </trkpt>
      <trkpt lat="37.1471870" lon="-3.0465940">
        <ele>1702.8</ele>
        <time>2020-07-13T06:41:36Z</time>
      </trkpt>
      <trkpt lat="37.1471260" lon="-3.0468470">
        <ele>1701.6</ele>
        <time>2020-07-13T06:41:38Z</time>
      </trkpt>
      <trkpt lat="37.1470340" lon="-3.0470780">
        <ele>1701.0</ele>
        <time>2020-07-13T06:41:40Z</time>
      </trkpt>
      <trkpt lat="37.1469630" lon="-3.0471800">
        <ele>1700.6</ele>
        <time>2020-07-13T06:41:41Z</time>
      </trkpt>
      <trkpt lat="37.1468070" lon="-3.0473710">
        <ele>1699.4</ele>
        <time>2020-07-13T06:41:43Z</time>
      </trkpt>
      <trkpt lat="37.1466260" lon="-3.0475170">
        <ele>1698.0</ele>
        <time>2020-07-13T06:41:45Z</time>
      </trkpt>
      <trkpt lat="37.1465210" lon="-3.0475780">
        <ele>1697.4</ele>
        <time>2020-07-13T06:41:46Z</time>
      </trkpt>
      <trkpt lat="37.1462990" lon="-3.0476710">
        <ele>1696.2</ele>
        <time>2020-07-13T06:41:48Z</time>
      </trkpt>
      <trkpt lat="37.1460830" lon="-3.0477460">
        <ele>1694.6</ele>
        <time>2020-07-13T06:41:50Z</time>
      </trkpt>
      <trkpt lat="37.1459640" lon="-3.0477870">
        <ele>1693.6</ele>
        <time>2020-07-13T06:41:51Z</time>
      </trkpt>
      <trkpt lat="37.1458540" lon="-3.0478280">
        <ele>1692.8</ele>
        <time>2020-07-13T06:41:52Z</time>
      </trkpt>
      <trkpt lat="37.1455180" lon="-3.0479740">
        <ele>1691.4</ele>
        <time>2020-07-13T06:41:55Z</time>
      </trkpt>
      <trkpt lat="37.1452960" lon="-3.0481030">
        <ele>1690.4</ele>
        <time>2020-07-13T06:41:57Z</time>
      </trkpt>
      <trkpt lat="37.1450920" lon="-3.0482600">
        <ele>1689.2</ele>
        <time>2020-07-13T06:41:59Z</time>
      </trkpt>
      <trkpt lat="37.1449040" lon="-3.0484440">
        <ele>1688.0</ele>
        <time>2020-07-13T06:42:01Z</time>
      </trkpt>
      <trkpt lat="37.1447350" lon="-3.0486420">
        <ele>1687.0</ele>
        <time>2020-07-13T06:42:03Z</time>
      </trkpt>
      <trkpt lat="37.1445910" lon="-3.0488480">
        <ele>1685.6</ele>
        <time>2020-07-13T06:42:05Z</time>
      </trkpt>
      <trkpt lat="37.1445280" lon="-3.0489630">
        <ele>1684.4</ele>
        <time>2020-07-13T06:42:06Z</time>
      </trkpt>
      <trkpt lat="37.1444490" lon="-3.0491980">
        <ele>1682.2</ele>
        <time>2020-07-13T06:42:08Z</time>
      </trkpt>
      <trkpt lat="37.1444290" lon="-3.0493190">
        <ele>1680.6</ele>
        <time>2020-07-13T06:42:09Z</time>
      </trkpt>
      <trkpt lat="37.1444340" lon="-3.0495730">
        <ele>1678.4</ele>
        <time>2020-07-13T06:42:11Z</time>
      </trkpt>
      <trkpt lat="37.1444610" lon="-3.0496990">
        <ele>1677.6</ele>
        <time>2020-07-13T06:42:12Z</time>
      </trkpt>
      <trkpt lat="37.1445020" lon="-3.0498190">
        <ele>1677.0</ele>
        <time>2020-07-13T06:42:13Z</time>
      </trkpt>
      <trkpt lat="37.1446160" lon="-3.0500160">
        <ele>1675.8</ele>
        <time>2020-07-13T06:42:15Z</time>
      </trkpt>
      <trkpt lat="37.1447230" lon="-3.0501540">
        <ele>1675.4</ele>
        <time>2020-07-13T06:42:17Z</time>
      </trkpt>
      <trkpt lat="37.1448050" lon="-3.0501860">
        <ele>1674.4</ele>
        <time>2020-07-13T06:42:18Z</time>
      </trkpt>
      <trkpt lat="37.1448860" lon="-3.0502180">
        <ele>1673.8</ele>
        <time>2020-07-13T06:42:19Z</time>
      </trkpt>
      <trkpt lat="37.1450490" lon="-3.0502830">
        <ele>1672.6</ele>
        <time>2020-07-13T06:42:20Z</time>
      </trkpt>
      <trkpt lat="37.1452650" lon="-3.0502680">
        <ele>1670.8</ele>
        <time>2020-07-13T06:42:22Z</time>
      </trkpt>
      <trkpt lat="37.1453680" lon="-3.0502280">
        <ele>1670.0</ele>
        <time>2020-07-13T06:42:23Z</time>
      </trkpt>
      <trkpt lat="37.1454760" lon="-3.0501640">
        <ele>1669.0</ele>
        <time>2020-07-13T06:42:24Z</time>
      </trkpt>
      <trkpt lat="37.1456580" lon="-3.0499970">
        <ele>1667.4</ele>
        <time>2020-07-13T06:42:26Z</time>
      </trkpt>
      <trkpt lat="37.1458330" lon="-3.0497850">
        <ele>1665.8</ele>
        <time>2020-07-13T06:42:28Z</time>
      </trkpt>
      <trkpt lat="37.1460000" lon="-3.0495570">
        <ele>1664.2</ele>
        <time>2020-07-13T06:42:30Z</time>
      </trkpt>
      <trkpt lat="37.1461710" lon="-3.0493250">
        <ele>1663.0</ele>
        <time>2020-07-13T06:42:32Z</time>
      </trkpt>
      <trkpt lat="37.1463490" lon="-3.0491050">
        <ele>1661.2</ele>
        <time>2020-07-13T06:42:34Z</time>
      </trkpt>
      <trkpt lat="37.1464410" lon="-3.0490170">
        <ele>1660.0</ele>
        <time>2020-07-13T06:42:35Z</time>
      </trkpt>
      <trkpt lat="37.1465380" lon="-3.0489350">
        <ele>1659.0</ele>
        <time>2020-07-13T06:42:36Z</time>
      </trkpt>
      <trkpt lat="37.1467490" lon="-3.0488140">
        <ele>1657.4</ele>
        <time>2020-07-13T06:42:38Z</time>
      </trkpt>
      <trkpt lat="37.1468590" lon="-3.0487780">
        <ele>1656.8</ele>
        <time>2020-07-13T06:42:39Z</time>
      </trkpt>
      <trkpt lat="37.1469710" lon="-3.0487530">
        <ele>1655.8</ele>
        <time>2020-07-13T06:42:40Z</time>
      </trkpt>
      <trkpt lat="37.1472070" lon="-3.0487460">
        <ele>1654.2</ele>
        <time>2020-07-13T06:42:42Z</time>
      </trkpt>
      <trkpt lat="37.1473280" lon="-3.0487590">
        <ele>1653.0</ele>
        <time>2020-07-13T06:42:43Z</time>
      </trkpt>
      <trkpt lat="37.1474500" lon="-3.0487780">
        <ele>1651.8</ele>
        <time>2020-07-13T06:42:44Z</time>
      </trkpt>
      <trkpt lat="37.1476840" lon="-3.0488260">
        <ele>1650.2</ele>
        <time>2020-07-13T06:42:46Z</time>
      </trkpt>
      <trkpt lat="37.1479440" lon="-3.0489000">
        <ele>1648.4</ele>
        <time>2020-07-13T06:42:48Z</time>
      </trkpt>
      <trkpt lat="37.1481950" lon="-3.0490000">
        <ele>1647.0</ele>
        <time>2020-07-13T06:42:50Z</time>
      </trkpt>
      <trkpt lat="37.1483120" lon="-3.0490570">
        <ele>1646.0</ele>
        <time>2020-07-13T06:42:51Z</time>
      </trkpt>
      <trkpt lat="37.1484410" lon="-3.0491240">
        <ele>1645.2</ele>
        <time>2020-07-13T06:42:52Z</time>
      </trkpt>
      <trkpt lat="37.1486870" lon="-3.0492680">
        <ele>1643.2</ele>
        <time>2020-07-13T06:42:54Z</time>
      </trkpt>
      <trkpt lat="37.1489070" lon="-3.0494290">
        <ele>1641.6</ele>
        <time>2020-07-13T06:42:56Z</time>
      </trkpt>
      <trkpt lat="37.1490210" lon="-3.0495220">
        <ele>1640.6</ele>
        <time>2020-07-13T06:42:57Z</time>
      </trkpt>
      <trkpt lat="37.1492200" lon="-3.0496990">
        <ele>1638.8</ele>
        <time>2020-07-13T06:42:59Z</time>
      </trkpt>
      <trkpt lat="37.1493260" lon="-3.0498010">
        <ele>1637.8</ele>
        <time>2020-07-13T06:43:00Z</time>
      </trkpt>
      <trkpt lat="37.1494140" lon="-3.0498920">
        <ele>1636.6</ele>
        <time>2020-07-13T06:43:01Z</time>
      </trkpt>
      <trkpt lat="37.1495130" lon="-3.0499940">
        <ele>1635.4</ele>
        <time>2020-07-13T06:43:02Z</time>
      </trkpt>
      <trkpt lat="37.1496950" lon="-3.0501850">
        <ele>1633.2</ele>
        <time>2020-07-13T06:43:04Z</time>
      </trkpt>
      <trkpt lat="37.1498730" lon="-3.0503700">
        <ele>1631.2</ele>
        <time>2020-07-13T06:43:06Z</time>
      </trkpt>
      <trkpt lat="37.1500720" lon="-3.0505420">
        <ele>1629.6</ele>
        <time>2020-07-13T06:43:08Z</time>
      </trkpt>
      <trkpt lat="37.1501800" lon="-3.0506120">
        <ele>1628.8</ele>
        <time>2020-07-13T06:43:09Z</time>
      </trkpt>
      <trkpt lat="37.1502960" lon="-3.0506620">
        <ele>1628.0</ele>
        <time>2020-07-13T06:43:10Z</time>
      </trkpt>
      <trkpt lat="37.1504000" lon="-3.0506910">
        <ele>1627.0</ele>
        <time>2020-07-13T06:43:11Z</time>
      </trkpt>
      <trkpt lat="37.1505330" lon="-3.0507130">
        <ele>1626.2</ele>
        <time>2020-07-13T06:43:12Z</time>
      </trkpt>
      <trkpt lat="37.1506530" lon="-3.0507110">
        <ele>1625.2</ele>
        <time>2020-07-13T06:43:13Z</time>
      </trkpt>
      <trkpt lat="37.1507730" lon="-3.0506920">
        <ele>1624.6</ele>
        <time>2020-07-13T06:43:14Z</time>
      </trkpt>
      <trkpt lat="37.1508950" lon="-3.0506560">
        <ele>1623.4</ele>
        <time>2020-07-13T06:43:15Z</time>
      </trkpt>
      <trkpt lat="37.1511240" lon="-3.0505370">
        <ele>1621.4</ele>
        <time>2020-07-13T06:43:17Z</time>
      </trkpt>
      <trkpt lat="37.1513600" lon="-3.0503650">
        <ele>1619.4</ele>
        <time>2020-07-13T06:43:19Z</time>
      </trkpt>
      <trkpt lat="37.1515810" lon="-3.0501910">
        <ele>1617.4</ele>
        <time>2020-07-13T06:43:21Z</time>
      </trkpt>
      <trkpt lat="37.1518110" lon="-3.0500160">
        <ele>1615.6</ele>
        <time>2020-07-13T06:43:23Z</time>
      </trkpt>
      <trkpt lat="37.1519370" lon="-3.0499300">
        <ele>1614.4</ele>
        <time>2020-07-13T06:43:24Z</time>
      </trkpt>
      <trkpt lat="37.1520530" lon="-3.0498610">
        <ele>1613.4</ele>
        <time>2020-07-13T06:43:25Z</time>
      </trkpt>
      <trkpt lat="37.1521680" lon="-3.0497940">
        <ele>1612.4</ele>
        <time>2020-07-13T06:43:26Z</time>
      </trkpt>
      <trkpt lat="37.1522930" lon="-3.0497330">
        <ele>1611.4</ele>
        <time>2020-07-13T06:43:27Z</time>
      </trkpt>
      <trkpt lat="37.1524140" lon="-3.0496800">
        <ele>1610.4</ele>
        <time>2020-07-13T06:43:28Z</time>
      </trkpt>
      <trkpt lat="37.1526420" lon="-3.0495870">
        <ele>1608.4</ele>
        <time>2020-07-13T06:43:30Z</time>
      </trkpt>
      <trkpt lat="37.1528590" lon="-3.0495040">
        <ele>1606.6</ele>
        <time>2020-07-13T06:43:32Z</time>
      </trkpt>
      <trkpt lat="37.1530680" lon="-3.0494040">
        <ele>1604.6</ele>
        <time>2020-07-13T06:43:34Z</time>
      </trkpt>
      <trkpt lat="37.1532690" lon="-3.0493270">
        <ele>1603.0</ele>
        <time>2020-07-13T06:43:36Z</time>
      </trkpt>
      <trkpt lat="37.1533790" lon="-3.0492990">
        <ele>1602.2</ele>
        <time>2020-07-13T06:43:37Z</time>
      </trkpt>
      <trkpt lat="37.1534860" lon="-3.0492850">
        <ele>1601.6</ele>
        <time>2020-07-13T06:43:38Z</time>
      </trkpt>
      <trkpt lat="37.1535950" lon="-3.0492880">
        <ele>1600.6</ele>
        <time>2020-07-13T06:43:39Z</time>
      </trkpt>
      <trkpt lat="37.1537050" lon="-3.0493030">
        <ele>1599.8</ele>
        <time>2020-07-13T06:43:40Z</time>
      </trkpt>
      <trkpt lat="37.1539240" lon="-3.0493550">
        <ele>1598.2</ele>
        <time>2020-07-13T06:43:42Z</time>
      </trkpt>
      <trkpt lat="37.1541450" lon="-3.0493960">
        <ele>1596.2</ele>
        <time>2020-07-13T06:43:44Z</time>
      </trkpt>
      <trkpt lat="37.1542530" lon="-3.0494060">
        <ele>1595.4</ele>
        <time>2020-07-13T06:43:45Z</time>
      </trkpt>
      <trkpt lat="37.1543580" lon="-3.0494140">
        <ele>1594.6</ele>
        <time>2020-07-13T06:43:46Z</time>
      </trkpt>
      <trkpt lat="37.1545830" lon="-3.0494270">
        <ele>1593.2</ele>
        <time>2020-07-13T06:43:48Z</time>
      </trkpt>
      <trkpt lat="37.1547920" lon="-3.0494710">
        <ele>1591.8</ele>
        <time>2020-07-13T06:43:50Z</time>
      </trkpt>
      <trkpt lat="37.1548860" lon="-3.0495200">
        <ele>1591.0</ele>
        <time>2020-07-13T06:43:51Z</time>
      </trkpt>
      <trkpt lat="37.1549920" lon="-3.0495920">
        <ele>1590.2</ele>
        <time>2020-07-13T06:43:52Z</time>
      </trkpt>
      <trkpt lat="37.1551880" lon="-3.0497440">
        <ele>1588.8</ele>
        <time>2020-07-13T06:43:54Z</time>
      </trkpt>
      <trkpt lat="37.1552850" lon="-3.0498250">
        <ele>1587.8</ele>
        <time>2020-07-13T06:43:55Z</time>
      </trkpt>
      <trkpt lat="37.1553750" lon="-3.0499040">
        <ele>1587.2</ele>
        <time>2020-07-13T06:43:56Z</time>
      </trkpt>
      <trkpt lat="37.1555820" lon="-3.0500720">
        <ele>1585.6</ele>
        <time>2020-07-13T06:43:58Z</time>
      </trkpt>
      <trkpt lat="37.1557890" lon="-3.0502140">
        <ele>1584.2</ele>
        <time>2020-07-13T06:44:00Z</time>
      </trkpt>
      <trkpt lat="37.1558960" lon="-3.0502770">
        <ele>1583.6</ele>
        <time>2020-07-13T06:44:01Z</time>
      </trkpt>
      <trkpt lat="37.1560110" lon="-3.0503400">
        <ele>1582.8</ele>
        <time>2020-07-13T06:44:02Z</time>
      </trkpt>
      <trkpt lat="37.1562330" lon="-3.0504460">
        <ele>1581.2</ele>
        <time>2020-07-13T06:44:04Z</time>
      </trkpt>
      <trkpt lat="37.1564420" lon="-3.0505220">
        <ele>1579.4</ele>
        <time>2020-07-13T06:44:06Z</time>
      </trkpt>
      <trkpt lat="37.1566640" lon="-3.0505050">
        <ele>1577.4</ele>
        <time>2020-07-13T06:44:08Z</time>
      </trkpt>
      <trkpt lat="37.1567730" lon="-3.0504740">
        <ele>1576.4</ele>
        <time>2020-07-13T06:44:09Z</time>
      </trkpt>
      <trkpt lat="37.1568850" lon="-3.0504460">
        <ele>1575.4</ele>
        <time>2020-07-13T06:44:10Z</time>
      </trkpt>
      <trkpt lat="37.1569870" lon="-3.0504290">
        <ele>1574.4</ele>
        <time>2020-07-13T06:44:11Z</time>
      </trkpt>
      <trkpt lat="37.1571180" lon="-3.0504230">
        <ele>1573.6</ele>
        <time>2020-07-13T06:44:12Z</time>
      </trkpt>
      <trkpt lat="37.1572370" lon="-3.0504320">
        <ele>1573.0</ele>
        <time>2020-07-13T06:44:13Z</time>
      </trkpt>
      <trkpt lat="37.1574790" lon="-3.0504740">
        <ele>1571.6</ele>
        <time>2020-07-13T06:44:15Z</time>
      </trkpt>
      <trkpt lat="37.1577150" lon="-3.0505670">
        <ele>1570.0</ele>
        <time>2020-07-13T06:44:17Z</time>
      </trkpt>
      <trkpt lat="37.1578320" lon="-3.0506250">
        <ele>1569.0</ele>
        <time>2020-07-13T06:44:18Z</time>
      </trkpt>
      <trkpt lat="37.1579500" lon="-3.0506810">
        <ele>1567.8</ele>
        <time>2020-07-13T06:44:19Z</time>
      </trkpt>
      <trkpt lat="37.1581940" lon="-3.0507710">
        <ele>1566.2</ele>
        <time>2020-07-13T06:44:21Z</time>
      </trkpt>
      <trkpt lat="37.1583170" lon="-3.0508120">
        <ele>1565.2</ele>
        <time>2020-07-13T06:44:22Z</time>
      </trkpt>
      <trkpt lat="37.1584350" lon="-3.0508490">
        <ele>1564.2</ele>
        <time>2020-07-13T06:44:23Z</time>
      </trkpt>
      <trkpt lat="37.1586750" lon="-3.0509230">
        <ele>1562.4</ele>
        <time>2020-07-13T06:44:25Z</time>
      </trkpt>
      <trkpt lat="37.1588870" lon="-3.0509980">
        <ele>1561.2</ele>
        <time>2020-07-13T06:44:27Z</time>
      </trkpt>
      <trkpt lat="37.1589850" lon="-3.0510570">
        <ele>1560.6</ele>
        <time>2020-07-13T06:44:28Z</time>
      </trkpt>
      <trkpt lat="37.1590670" lon="-3.0511360">
        <ele>1559.8</ele>
        <time>2020-07-13T06:44:29Z</time>
      </trkpt>
      <trkpt lat="37.1591500" lon="-3.0512400">
        <ele>1558.8</ele>
        <time>2020-07-13T06:44:30Z</time>
      </trkpt>
      <trkpt lat="37.1592140" lon="-3.0513460">
        <ele>1557.8</ele>
        <time>2020-07-13T06:44:31Z</time>
      </trkpt>
      <trkpt lat="37.1592670" lon="-3.0514690">
        <ele>1556.6</ele>
        <time>2020-07-13T06:44:32Z</time>
      </trkpt>
      <trkpt lat="37.1593040" lon="-3.0515990">
        <ele>1555.6</ele>
        <time>2020-07-13T06:44:33Z</time>
      </trkpt>
      <trkpt lat="37.1593350" lon="-3.0517360">
        <ele>1554.6</ele>
        <time>2020-07-13T06:44:34Z</time>
      </trkpt>
      <trkpt lat="37.1593620" lon="-3.0518640">
        <ele>1553.6</ele>
        <time>2020-07-13T06:44:35Z</time>
      </trkpt>
      <trkpt lat="37.1593920" lon="-3.0520090">
        <ele>1553.0</ele>
        <time>2020-07-13T06:44:36Z</time>
      </trkpt>
      <trkpt lat="37.1594570" lon="-3.0523050">
        <ele>1551.4</ele>
        <time>2020-07-13T06:44:38Z</time>
      </trkpt>
      <trkpt lat="37.1595190" lon="-3.0526030">
        <ele>1549.8</ele>
        <time>2020-07-13T06:44:40Z</time>
      </trkpt>
      <trkpt lat="37.1595480" lon="-3.0527320">
        <ele>1548.8</ele>
        <time>2020-07-13T06:44:41Z</time>
      </trkpt>
      <trkpt lat="37.1596170" lon="-3.0530370">
        <ele>1547.0</ele>
        <time>2020-07-13T06:44:43Z</time>
      </trkpt>
      <trkpt lat="37.1596510" lon="-3.0531790">
        <ele>1546.0</ele>
        <time>2020-07-13T06:44:44Z</time>
      </trkpt>
      <trkpt lat="37.1596790" lon="-3.0533140">
        <ele>1545.0</ele>
        <time>2020-07-13T06:44:45Z</time>
      </trkpt>
      <trkpt lat="37.1596900" lon="-3.0534390">
        <ele>1544.4</ele>
        <time>2020-07-13T06:44:46Z</time>
      </trkpt>
      <trkpt lat="37.1596810" lon="-3.0535720">
        <ele>1543.6</ele>
        <time>2020-07-13T06:44:47Z</time>
      </trkpt>
      <trkpt lat="37.1596350" lon="-3.0538530">
        <ele>1542.0</ele>
        <time>2020-07-13T06:44:49Z</time>
      </trkpt>
      <trkpt lat="37.1596040" lon="-3.0539900">
        <ele>1541.2</ele>
        <time>2020-07-13T06:44:50Z</time>
      </trkpt>
      <trkpt lat="37.1595700" lon="-3.0541190">
        <ele>1540.2</ele>
        <time>2020-07-13T06:44:51Z</time>
      </trkpt>
      <trkpt lat="37.1594830" lon="-3.0543930">
        <ele>1538.4</ele>
        <time>2020-07-13T06:44:53Z</time>
      </trkpt>
      <trkpt lat="37.1593860" lon="-3.0546780">
        <ele>1536.8</ele>
        <time>2020-07-13T06:44:55Z</time>
      </trkpt>
      <trkpt lat="37.1593410" lon="-3.0548130">
        <ele>1536.0</ele>
        <time>2020-07-13T06:44:56Z</time>
      </trkpt>
      <trkpt lat="37.1592870" lon="-3.0549650">
        <ele>1535.4</ele>
        <time>2020-07-13T06:44:57Z</time>
      </trkpt>
      <trkpt lat="37.1591860" lon="-3.0552460">
        <ele>1533.8</ele>
        <time>2020-07-13T06:44:59Z</time>
      </trkpt>
      <trkpt lat="37.1590860" lon="-3.0555150">
        <ele>1532.2</ele>
        <time>2020-07-13T06:45:01Z</time>
      </trkpt>
      <trkpt lat="37.1590480" lon="-3.0556650">
        <ele>1531.4</ele>
        <time>2020-07-13T06:45:02Z</time>
      </trkpt>
      <trkpt lat="37.1590260" lon="-3.0558010">
        <ele>1530.6</ele>
        <time>2020-07-13T06:45:03Z</time>
      </trkpt>
      <trkpt lat="37.1589890" lon="-3.0560670">
        <ele>1529.0</ele>
        <time>2020-07-13T06:45:05Z</time>
      </trkpt>
      <trkpt lat="37.1589720" lon="-3.0561960">
        <ele>1528.6</ele>
        <time>2020-07-13T06:45:06Z</time>
      </trkpt>
      <trkpt lat="37.1589550" lon="-3.0563280">
        <ele>1527.8</ele>
        <time>2020-07-13T06:45:07Z</time>
      </trkpt>
      <trkpt lat="37.1589420" lon="-3.0565880">
        <ele>1526.6</ele>
        <time>2020-07-13T06:45:09Z</time>
      </trkpt>
      <trkpt lat="37.1589770" lon="-3.0568320">
        <ele>1525.6</ele>
        <time>2020-07-13T06:45:11Z</time>
      </trkpt>
      <trkpt lat="37.1590160" lon="-3.0570580">
        <ele>1524.0</ele>
        <time>2020-07-13T06:45:13Z</time>
      </trkpt>
      <trkpt lat="37.1590550" lon="-3.0572550">
        <ele>1522.2</ele>
        <time>2020-07-13T06:45:15Z</time>
      </trkpt>
      <trkpt lat="37.1590880" lon="-3.0573210">
        <ele>1521.0</ele>
        <time>2020-07-13T06:45:16Z</time>
      </trkpt>
      <trkpt lat="37.1591430" lon="-3.0573630">
        <ele>1520.2</ele>
        <time>2020-07-13T06:45:17Z</time>
      </trkpt>
      <trkpt lat="37.1592140" lon="-3.0573560">
        <ele>1519.4</ele>
        <time>2020-07-13T06:45:18Z</time>
      </trkpt>
      <trkpt lat="37.1592790" lon="-3.0573070">
        <ele>1518.6</ele>
        <time>2020-07-13T06:45:19Z</time>
      </trkpt>
      <trkpt lat="37.1593380" lon="-3.0572450">
        <ele>1517.8</ele>
        <time>2020-07-13T06:45:20Z</time>
      </trkpt>
      <trkpt lat="37.1594540" lon="-3.0570940">
        <ele>1516.4</ele>
        <time>2020-07-13T06:45:22Z</time>
      </trkpt>
      <trkpt lat="37.1595770" lon="-3.0569070">
        <ele>1515.2</ele>
        <time>2020-07-13T06:45:24Z</time>
      </trkpt>
      <trkpt lat="37.1596250" lon="-3.0568010">
        <ele>1514.8</ele>
        <time>2020-07-13T06:45:25Z</time>
      </trkpt>
      <trkpt lat="37.1596660" lon="-3.0566910">
        <ele>1514.2</ele>
        <time>2020-07-13T06:45:26Z</time>
      </trkpt>
      <trkpt lat="37.1597280" lon="-3.0564410">
        <ele>1513.2</ele>
        <time>2020-07-13T06:45:28Z</time>
      </trkpt>
      <trkpt lat="37.1597580" lon="-3.0563080">
        <ele>1512.6</ele>
        <time>2020-07-13T06:45:29Z</time>
      </trkpt>
      <trkpt lat="37.1597860" lon="-3.0561640">
        <ele>1512.0</ele>
        <time>2020-07-13T06:45:30Z</time>
      </trkpt>
      <trkpt lat="37.1598340" lon="-3.0558810">
        <ele>1511.0</ele>
        <time>2020-07-13T06:45:32Z</time>
      </trkpt>
      <trkpt lat="37.1598720" lon="-3.0555990">
        <ele>1509.4</ele>
        <time>2020-07-13T06:45:34Z</time>
      </trkpt>
      <trkpt lat="37.1598920" lon="-3.0554730">
        <ele>1508.4</ele>
        <time>2020-07-13T06:45:35Z</time>
      </trkpt>
      <trkpt lat="37.1599070" lon="-3.0553590">
        <ele>1507.4</ele>
        <time>2020-07-13T06:45:36Z</time>
      </trkpt>
      <trkpt lat="37.1599350" lon="-3.0552510">
        <ele>1506.6</ele>
        <time>2020-07-13T06:45:37Z</time>
      </trkpt>
      <trkpt lat="37.1599830" lon="-3.0551680">
        <ele>1505.8</ele>
        <time>2020-07-13T06:45:38Z</time>
      </trkpt>
      <trkpt lat="37.1601350" lon="-3.0550890">
        <ele>1504.6</ele>
        <time>2020-07-13T06:45:40Z</time>
      </trkpt>
      <trkpt lat="37.1603180" lon="-3.0551330">
        <ele>1503.6</ele>
        <time>2020-07-13T06:45:42Z</time>
      </trkpt>
      <trkpt lat="37.1605030" lon="-3.0552310">
        <ele>1502.2</ele>
        <time>2020-07-13T06:45:44Z</time>
      </trkpt>
      <trkpt lat="37.1606000" lon="-3.0552970">
        <ele>1501.6</ele>
        <time>2020-07-13T06:45:45Z</time>
      </trkpt>
      <trkpt lat="37.1606860" lon="-3.0553580">
        <ele>1500.8</ele>
        <time>2020-07-13T06:45:46Z</time>
      </trkpt>
      <trkpt lat="37.1608830" lon="-3.0555040">
        <ele>1499.4</ele>
        <time>2020-07-13T06:45:48Z</time>
      </trkpt>
      <trkpt lat="37.1610750" lon="-3.0555990">
        <ele>1497.8</ele>
        <time>2020-07-13T06:45:50Z</time>
      </trkpt>
      <trkpt lat="37.1612860" lon="-3.0556260">
        <ele>1496.0</ele>
        <time>2020-07-13T06:45:52Z</time>
      </trkpt>
      <trkpt lat="37.1613950" lon="-3.0556360">
        <ele>1495.0</ele>
        <time>2020-07-13T06:45:53Z</time>
      </trkpt>
      <trkpt lat="37.1615110" lon="-3.0556450">
        <ele>1494.2</ele>
        <time>2020-07-13T06:45:54Z</time>
      </trkpt>
      <trkpt lat="37.1617260" lon="-3.0556560">
        <ele>1493.0</ele>
        <time>2020-07-13T06:45:56Z</time>
      </trkpt>
      <trkpt lat="37.1619330" lon="-3.0556190">
        <ele>1491.6</ele>
        <time>2020-07-13T06:45:58Z</time>
      </trkpt>
      <trkpt lat="37.1620190" lon="-3.0555790">
        <ele>1490.6</ele>
        <time>2020-07-13T06:45:59Z</time>
      </trkpt>
      <trkpt lat="37.1621080" lon="-3.0555130">
        <ele>1489.2</ele>
        <time>2020-07-13T06:46:00Z</time>
      </trkpt>
      <trkpt lat="37.1621760" lon="-3.0554380">
        <ele>1488.2</ele>
        <time>2020-07-13T06:46:01Z</time>
      </trkpt>
      <trkpt lat="37.1622500" lon="-3.0553310">
        <ele>1487.4</ele>
        <time>2020-07-13T06:46:02Z</time>
      </trkpt>
      <trkpt lat="37.1623610" lon="-3.0551030">
        <ele>1486.2</ele>
        <time>2020-07-13T06:46:04Z</time>
      </trkpt>
      <trkpt lat="37.1624490" lon="-3.0548390">
        <ele>1484.6</ele>
        <time>2020-07-13T06:46:06Z</time>
      </trkpt>
      <trkpt lat="37.1625200" lon="-3.0545490">
        <ele>1483.4</ele>
        <time>2020-07-13T06:46:08Z</time>
      </trkpt>
      <trkpt lat="37.1625570" lon="-3.0542880">
        <ele>1481.8</ele>
        <time>2020-07-13T06:46:10Z</time>
      </trkpt>
      <trkpt lat="37.1625580" lon="-3.0540270">
        <ele>1479.8</ele>
        <time>2020-07-13T06:46:12Z</time>
      </trkpt>
      <trkpt lat="37.1625010" lon="-3.0538070">
        <ele>1478.2</ele>
        <time>2020-07-13T06:46:14Z</time>
      </trkpt>
      <trkpt lat="37.1624460" lon="-3.0537060">
        <ele>1477.6</ele>
        <time>2020-07-13T06:46:15Z</time>
      </trkpt>
      <trkpt lat="37.1623880" lon="-3.0536100">
        <ele>1476.8</ele>
        <time>2020-07-13T06:46:16Z</time>
      </trkpt>
      <trkpt lat="37.1623250" lon="-3.0535060">
        <ele>1476.2</ele>
        <time>2020-07-13T06:46:17Z</time>
      </trkpt>
      <trkpt lat="37.1622600" lon="-3.0533960">
        <ele>1475.6</ele>
        <time>2020-07-13T06:46:18Z</time>
      </trkpt>
      <trkpt lat="37.1621170" lon="-3.0531940">
        <ele>1474.2</ele>
        <time>2020-07-13T06:46:20Z</time>
      </trkpt>
      <trkpt lat="37.1619490" lon="-3.0530180">
        <ele>1472.8</ele>
        <time>2020-07-13T06:46:22Z</time>
      </trkpt>
      <trkpt lat="37.1617760" lon="-3.0528350">
        <ele>1471.2</ele>
        <time>2020-07-13T06:46:24Z</time>
      </trkpt>
      <trkpt lat="37.1616160" lon="-3.0526890">
        <ele>1469.8</ele>
        <time>2020-07-13T06:46:26Z</time>
      </trkpt>
      <trkpt lat="37.1615500" lon="-3.0526070">
        <ele>1469.0</ele>
        <time>2020-07-13T06:46:27Z</time>
      </trkpt>
      <trkpt lat="37.1615260" lon="-3.0525170">
        <ele>1468.4</ele>
        <time>2020-07-13T06:46:28Z</time>
      </trkpt>
      <trkpt lat="37.1615370" lon="-3.0524260">
        <ele>1467.6</ele>
        <time>2020-07-13T06:46:29Z</time>
      </trkpt>
      <trkpt lat="37.1615830" lon="-3.0523570">
        <ele>1467.0</ele>
        <time>2020-07-13T06:46:30Z</time>
      </trkpt>
      <trkpt lat="37.1616440" lon="-3.0523080">
        <ele>1466.4</ele>
        <time>2020-07-13T06:46:31Z</time>
      </trkpt>
      <trkpt lat="37.1617080" lon="-3.0522460">
        <ele>1466.0</ele>
        <time>2020-07-13T06:46:32Z</time>
      </trkpt>
      <trkpt lat="37.1617690" lon="-3.0521780">
        <ele>1465.8</ele>
        <time>2020-07-13T06:46:33Z</time>
      </trkpt>
      <trkpt lat="37.1619490" lon="-3.0519560">
        <ele>1464.6</ele>
        <time>2020-07-13T06:46:36Z</time>
      </trkpt>
      <trkpt lat="37.1620940" lon="-3.0517880">
        <ele>1463.2</ele>
        <time>2020-07-13T06:46:38Z</time>
      </trkpt>
      <trkpt lat="37.1621750" lon="-3.0517190">
        <ele>1462.4</ele>
        <time>2020-07-13T06:46:39Z</time>
      </trkpt>
      <trkpt lat="37.1622590" lon="-3.0516710">
        <ele>1461.6</ele>
        <time>2020-07-13T06:46:40Z</time>
      </trkpt>
      <trkpt lat="37.1624680" lon="-3.0516450">
        <ele>1460.4</ele>
        <time>2020-07-13T06:46:42Z</time>
      </trkpt>
      <trkpt lat="37.1625740" lon="-3.0516560">
        <ele>1459.8</ele>
        <time>2020-07-13T06:46:43Z</time>
      </trkpt>
      <trkpt lat="37.1626810" lon="-3.0516750">
        <ele>1459.0</ele>
        <time>2020-07-13T06:46:44Z</time>
      </trkpt>
      <trkpt lat="37.1627870" lon="-3.0516990">
        <ele>1458.2</ele>
        <time>2020-07-13T06:46:45Z</time>
      </trkpt>
      <trkpt lat="37.1628960" lon="-3.0517160">
        <ele>1457.4</ele>
        <time>2020-07-13T06:46:46Z</time>
      </trkpt>
      <trkpt lat="37.1630150" lon="-3.0517210">
        <ele>1456.6</ele>
        <time>2020-07-13T06:46:47Z</time>
      </trkpt>
      <trkpt lat="37.1631340" lon="-3.0517170">
        <ele>1455.8</ele>
        <time>2020-07-13T06:46:48Z</time>
      </trkpt>
      <trkpt lat="37.1633650" lon="-3.0517250">
        <ele>1454.0</ele>
        <time>2020-07-13T06:46:50Z</time>
      </trkpt>
      <trkpt lat="37.1635940" lon="-3.0517400">
        <ele>1452.4</ele>
        <time>2020-07-13T06:46:52Z</time>
      </trkpt>
      <trkpt lat="37.1638130" lon="-3.0517450">
        <ele>1451.0</ele>
        <time>2020-07-13T06:46:54Z</time>
      </trkpt>
      <trkpt lat="37.1639950" lon="-3.0517360">
        <ele>1449.8</ele>
        <time>2020-07-13T06:46:56Z</time>
      </trkpt>
      <trkpt lat="37.1641500" lon="-3.0516240">
        <ele>1448.2</ele>
        <time>2020-07-13T06:46:58Z</time>
      </trkpt>
      <trkpt lat="37.1642510" lon="-3.0514210">
        <ele>1446.6</ele>
        <time>2020-07-13T06:47:00Z</time>
      </trkpt>
      <trkpt lat="37.1642780" lon="-3.0513140">
        <ele>1445.8</ele>
        <time>2020-07-13T06:47:01Z</time>
      </trkpt>
      <trkpt lat="37.1642820" lon="-3.0511880">
        <ele>1444.8</ele>
        <time>2020-07-13T06:47:02Z</time>
      </trkpt>
      <trkpt lat="37.1642600" lon="-3.0510670">
        <ele>1444.2</ele>
        <time>2020-07-13T06:47:03Z</time>
      </trkpt>
      <trkpt lat="37.1642270" lon="-3.0509510">
        <ele>1443.6</ele>
        <time>2020-07-13T06:47:04Z</time>
      </trkpt>
      <trkpt lat="37.1641320" lon="-3.0507220">
        <ele>1442.0</ele>
        <time>2020-07-13T06:47:06Z</time>
      </trkpt>
      <trkpt lat="37.1640620" lon="-3.0506040">
        <ele>1441.4</ele>
        <time>2020-07-13T06:47:07Z</time>
      </trkpt>
      <trkpt lat="37.1639870" lon="-3.0505010">
        <ele>1440.6</ele>
        <time>2020-07-13T06:47:08Z</time>
      </trkpt>
      <trkpt lat="37.1639000" lon="-3.0504090">
        <ele>1439.8</ele>
        <time>2020-07-13T06:47:09Z</time>
      </trkpt>
      <trkpt lat="37.1638120" lon="-3.0503320">
        <ele>1439.2</ele>
        <time>2020-07-13T06:47:10Z</time>
      </trkpt>
      <trkpt lat="37.1636020" lon="-3.0502110">
        <ele>1437.8</ele>
        <time>2020-07-13T06:47:12Z</time>
      </trkpt>
      <trkpt lat="37.1634940" lon="-3.0501610">
        <ele>1437.2</ele>
        <time>2020-07-13T06:47:13Z</time>
      </trkpt>
      <trkpt lat="37.1633980" lon="-3.0501140">
        <ele>1436.4</ele>
        <time>2020-07-13T06:47:14Z</time>
      </trkpt>
      <trkpt lat="37.1632730" lon="-3.0500070">
        <ele>1435.0</ele>
        <time>2020-07-13T06:47:16Z</time>
      </trkpt>
      <trkpt lat="37.1632540" lon="-3.0498010">
        <ele>1433.6</ele>
        <time>2020-07-13T06:47:18Z</time>
      </trkpt>
      <trkpt lat="37.1633380" lon="-3.0496130">
        <ele>1432.2</ele>
        <time>2020-07-13T06:47:20Z</time>
      </trkpt>
      <trkpt lat="37.1633850" lon="-3.0495220">
        <ele>1431.8</ele>
        <time>2020-07-13T06:47:21Z</time>
      </trkpt>
      <trkpt lat="37.1634400" lon="-3.0494240">
        <ele>1431.2</ele>
        <time>2020-07-13T06:47:22Z</time>
      </trkpt>
      <trkpt lat="37.1635040" lon="-3.0493470">
        <ele>1430.6</ele>
        <time>2020-07-13T06:47:23Z</time>
      </trkpt>
      <trkpt lat="37.1635970" lon="-3.0492840">
        <ele>1430.2</ele>
        <time>2020-07-13T06:47:24Z</time>
      </trkpt>
      <trkpt lat="37.1637770" lon="-3.0491960">
        <ele>1428.8</ele>
        <time>2020-07-13T06:47:26Z</time>
      </trkpt>
      <trkpt lat="37.1639880" lon="-3.0491040">
        <ele>1427.4</ele>
        <time>2020-07-13T06:47:28Z</time>
      </trkpt>
      <trkpt lat="37.1642000" lon="-3.0490340">
        <ele>1426.0</ele>
        <time>2020-07-13T06:47:30Z</time>
      </trkpt>
      <trkpt lat="37.1644280" lon="-3.0489740">
        <ele>1424.8</ele>
        <time>2020-07-13T06:47:32Z</time>
      </trkpt>
      <trkpt lat="37.1645320" lon="-3.0489450">
        <ele>1424.0</ele>
        <time>2020-07-13T06:47:33Z</time>
      </trkpt>
      <trkpt lat="37.1646320" lon="-3.0489140">
        <ele>1423.2</ele>
        <time>2020-07-13T06:47:34Z</time>
      </trkpt>
      <trkpt lat="37.1647280" lon="-3.0488700">
        <ele>1422.4</ele>
        <time>2020-07-13T06:47:35Z</time>
      </trkpt>
      <trkpt lat="37.1648200" lon="-3.0488070">
        <ele>1421.6</ele>
        <time>2020-07-13T06:47:36Z</time>
      </trkpt>
      <trkpt lat="37.1649120" lon="-3.0487270">
        <ele>1420.6</ele>
        <time>2020-07-13T06:47:37Z</time>
      </trkpt>
      <trkpt lat="37.1649940" lon="-3.0486440">
        <ele>1419.8</ele>
        <time>2020-07-13T06:47:38Z</time>
      </trkpt>
      <trkpt lat="37.1650740" lon="-3.0485610">
        <ele>1419.0</ele>
        <time>2020-07-13T06:47:39Z</time>
      </trkpt>
      <trkpt lat="37.1651450" lon="-3.0484690">
        <ele>1418.2</ele>
        <time>2020-07-13T06:47:40Z</time>
      </trkpt>
      <trkpt lat="37.1651970" lon="-3.0483710">
        <ele>1417.8</ele>
        <time>2020-07-13T06:47:41Z</time>
      </trkpt>
      <trkpt lat="37.1652360" lon="-3.0482370">
        <ele>1417.0</ele>
        <time>2020-07-13T06:47:42Z</time>
      </trkpt>
      <trkpt lat="37.1652860" lon="-3.0479710">
        <ele>1415.4</ele>
        <time>2020-07-13T06:47:44Z</time>
      </trkpt>
      <trkpt lat="37.1653230" lon="-3.0477130">
        <ele>1413.8</ele>
        <time>2020-07-13T06:47:46Z</time>
      </trkpt>
      <trkpt lat="37.1653410" lon="-3.0474440">
        <ele>1411.8</ele>
        <time>2020-07-13T06:47:48Z</time>
      </trkpt>
      <trkpt lat="37.1653260" lon="-3.0473150">
        <ele>1411.0</ele>
        <time>2020-07-13T06:47:49Z</time>
      </trkpt>
      <trkpt lat="37.1652950" lon="-3.0471880">
        <ele>1410.2</ele>
        <time>2020-07-13T06:47:50Z</time>
      </trkpt>
      <trkpt lat="37.1652260" lon="-3.0469300">
        <ele>1409.0</ele>
        <time>2020-07-13T06:47:52Z</time>
      </trkpt>
      <trkpt lat="37.1652110" lon="-3.0467950">
        <ele>1408.2</ele>
        <time>2020-07-13T06:47:53Z</time>
      </trkpt>
      <trkpt lat="37.1652170" lon="-3.0466440">
        <ele>1407.4</ele>
        <time>2020-07-13T06:47:54Z</time>
      </trkpt>
      <trkpt lat="37.1652320" lon="-3.0465030">
        <ele>1406.6</ele>
        <time>2020-07-13T06:47:55Z</time>
      </trkpt>
      <trkpt lat="37.1652470" lon="-3.0463740">
        <ele>1405.8</ele>
        <time>2020-07-13T06:47:56Z</time>
      </trkpt>
      <trkpt lat="37.1652740" lon="-3.0461150">
        <ele>1404.2</ele>
        <time>2020-07-13T06:47:58Z</time>
      </trkpt>
      <trkpt lat="37.1652710" lon="-3.0459890">
        <ele>1403.6</ele>
        <time>2020-07-13T06:47:59Z</time>
      </trkpt>
      <trkpt lat="37.1652580" lon="-3.0458510">
        <ele>1403.0</ele>
        <time>2020-07-13T06:48:00Z</time>
      </trkpt>
      <trkpt lat="37.1652280" lon="-3.0456140">
        <ele>1401.4</ele>
        <time>2020-07-13T06:48:02Z</time>
      </trkpt>
      <trkpt lat="37.1652490" lon="-3.0454980">
        <ele>1400.6</ele>
        <time>2020-07-13T06:48:03Z</time>
      </trkpt>
      <trkpt lat="37.1652940" lon="-3.0454060">
        <ele>1399.6</ele>
        <time>2020-07-13T06:48:04Z</time>
      </trkpt>
      <trkpt lat="37.1653660" lon="-3.0453340">
        <ele>1398.8</ele>
        <time>2020-07-13T06:48:05Z</time>
      </trkpt>
      <trkpt lat="37.1654520" lon="-3.0452940">
        <ele>1398.2</ele>
        <time>2020-07-13T06:48:06Z</time>
      </trkpt>
      <trkpt lat="37.1655460" lon="-3.0452960">
        <ele>1397.4</ele>
        <time>2020-07-13T06:48:07Z</time>
      </trkpt>
      <trkpt lat="37.1656260" lon="-3.0453490">
        <ele>1396.6</ele>
        <time>2020-07-13T06:48:08Z</time>
      </trkpt>
      <trkpt lat="37.1656840" lon="-3.0454390">
        <ele>1395.8</ele>
        <time>2020-07-13T06:48:09Z</time>
      </trkpt>
      <trkpt lat="37.1657230" lon="-3.0455500">
        <ele>1395.0</ele>
        <time>2020-07-13T06:48:10Z</time>
      </trkpt>
      <trkpt lat="37.1657490" lon="-3.0456580">
        <ele>1394.2</ele>
        <time>2020-07-13T06:48:11Z</time>
      </trkpt>
      <trkpt lat="37.1657710" lon="-3.0457980">
        <ele>1393.4</ele>
        <time>2020-07-13T06:48:12Z</time>
      </trkpt>
      <trkpt lat="37.1657650" lon="-3.0460630">
        <ele>1391.8</ele>
        <time>2020-07-13T06:48:14Z</time>
      </trkpt>
      <trkpt lat="37.1657240" lon="-3.0463180">
        <ele>1390.4</ele>
        <time>2020-07-13T06:48:16Z</time>
      </trkpt>
      <trkpt lat="37.1656890" lon="-3.0465720">
        <ele>1389.6</ele>
        <time>2020-07-13T06:48:18Z</time>
      </trkpt>
      <trkpt lat="37.1656980" lon="-3.0466800">
        <ele>1388.8</ele>
        <time>2020-07-13T06:48:19Z</time>
      </trkpt>
      <trkpt lat="37.1657960" lon="-3.0468460">
        <ele>1387.6</ele>
        <time>2020-07-13T06:48:21Z</time>
      </trkpt>
      <trkpt lat="37.1659210" lon="-3.0470270">
        <ele>1386.2</ele>
        <time>2020-07-13T06:48:23Z</time>
      </trkpt>
      <trkpt lat="37.1659500" lon="-3.0471500">
        <ele>1385.6</ele>
        <time>2020-07-13T06:48:24Z</time>
      </trkpt>
      <trkpt lat="37.1659770" lon="-3.0472730">
        <ele>1385.2</ele>
        <time>2020-07-13T06:48:25Z</time>
      </trkpt>
      <trkpt lat="37.1660190" lon="-3.0475350">
        <ele>1384.0</ele>
        <time>2020-07-13T06:48:27Z</time>
      </trkpt>
      <trkpt lat="37.1660380" lon="-3.0476710">
        <ele>1383.4</ele>
        <time>2020-07-13T06:48:28Z</time>
      </trkpt>
      <trkpt lat="37.1660550" lon="-3.0477880">
        <ele>1382.6</ele>
        <time>2020-07-13T06:48:29Z</time>
      </trkpt>
      <trkpt lat="37.1661060" lon="-3.0480800">
        <ele>1381.0</ele>
        <time>2020-07-13T06:48:31Z</time>
      </trkpt>
      <trkpt lat="37.1661430" lon="-3.0482130">
        <ele>1380.0</ele>
        <time>2020-07-13T06:48:32Z</time>
      </trkpt>
      <trkpt lat="37.1662000" lon="-3.0483230">
        <ele>1379.0</ele>
        <time>2020-07-13T06:48:33Z</time>
      </trkpt>
      <trkpt lat="37.1662760" lon="-3.0484140">
        <ele>1378.2</ele>
        <time>2020-07-13T06:48:34Z</time>
      </trkpt>
      <trkpt lat="37.1664550" lon="-3.0485750">
        <ele>1376.4</ele>
        <time>2020-07-13T06:48:36Z</time>
      </trkpt>
      <trkpt lat="37.1666700" lon="-3.0486790">
        <ele>1374.8</ele>
        <time>2020-07-13T06:48:38Z</time>
      </trkpt>
      <trkpt lat="37.1667810" lon="-3.0487230">
        <ele>1374.0</ele>
        <time>2020-07-13T06:48:39Z</time>
      </trkpt>
      <trkpt lat="37.1668840" lon="-3.0487900">
        <ele>1373.4</ele>
        <time>2020-07-13T06:48:40Z</time>
      </trkpt>
      <trkpt lat="37.1670790" lon="-3.0489650">
        <ele>1371.8</ele>
        <time>2020-07-13T06:48:42Z</time>
      </trkpt>
      <trkpt lat="37.1672570" lon="-3.0491700">
        <ele>1370.2</ele>
        <time>2020-07-13T06:48:44Z</time>
      </trkpt>
      <trkpt lat="37.1674010" lon="-3.0493630">
        <ele>1368.8</ele>
        <time>2020-07-13T06:48:46Z</time>
      </trkpt>
      <trkpt lat="37.1675520" lon="-3.0495230">
        <ele>1367.4</ele>
        <time>2020-07-13T06:48:48Z</time>
      </trkpt>
      <trkpt lat="37.1676440" lon="-3.0495630">
        <ele>1366.6</ele>
        <time>2020-07-13T06:48:49Z</time>
      </trkpt>
      <trkpt lat="37.1677370" lon="-3.0495860">
        <ele>1365.8</ele>
        <time>2020-07-13T06:48:50Z</time>
      </trkpt>
      <trkpt lat="37.1679130" lon="-3.0495590">
        <ele>1364.4</ele>
        <time>2020-07-13T06:48:52Z</time>
      </trkpt>
      <trkpt lat="37.1680740" lon="-3.0494320">
        <ele>1362.2</ele>
        <time>2020-07-13T06:48:54Z</time>
      </trkpt>
      <trkpt lat="37.1681590" lon="-3.0493640">
        <ele>1361.4</ele>
        <time>2020-07-13T06:48:55Z</time>
      </trkpt>
      <trkpt lat="37.1682380" lon="-3.0492940">
        <ele>1360.2</ele>
        <time>2020-07-13T06:48:56Z</time>
      </trkpt>
      <trkpt lat="37.1684070" lon="-3.0491400">
        <ele>1358.6</ele>
        <time>2020-07-13T06:48:58Z</time>
      </trkpt>
      <trkpt lat="37.1684750" lon="-3.0490550">
        <ele>1357.8</ele>
        <time>2020-07-13T06:48:59Z</time>
      </trkpt>
      <trkpt lat="37.1685330" lon="-3.0489430">
        <ele>1357.0</ele>
        <time>2020-07-13T06:49:00Z</time>
      </trkpt>
      <trkpt lat="37.1685930" lon="-3.0486920">
        <ele>1355.8</ele>
        <time>2020-07-13T06:49:02Z</time>
      </trkpt>
      <trkpt lat="37.1686230" lon="-3.0485670">
        <ele>1355.0</ele>
        <time>2020-07-13T06:49:03Z</time>
      </trkpt>
      <trkpt lat="37.1686630" lon="-3.0484540">
        <ele>1354.2</ele>
        <time>2020-07-13T06:49:04Z</time>
      </trkpt>
      <trkpt lat="37.1687970" lon="-3.0482740">
        <ele>1352.8</ele>
        <time>2020-07-13T06:49:06Z</time>
      </trkpt>
      <trkpt lat="37.1689530" lon="-3.0481330">
        <ele>1351.4</ele>
        <time>2020-07-13T06:49:08Z</time>
      </trkpt>
      <trkpt lat="37.1690570" lon="-3.0480750">
        <ele>1350.6</ele>
        <time>2020-07-13T06:49:09Z</time>
      </trkpt>
      <trkpt lat="37.1691470" lon="-3.0480560">
        <ele>1350.0</ele>
        <time>2020-07-13T06:49:10Z</time>
      </trkpt>
      <trkpt lat="37.1693190" lon="-3.0480920">
        <ele>1348.2</ele>
        <time>2020-07-13T06:49:12Z</time>
      </trkpt>
      <trkpt lat="37.1693770" lon="-3.0481720">
        <ele>1347.4</ele>
        <time>2020-07-13T06:49:13Z</time>
      </trkpt>
      <trkpt lat="37.1694120" lon="-3.0482790">
        <ele>1346.6</ele>
        <time>2020-07-13T06:49:14Z</time>
      </trkpt>
      <trkpt lat="37.1694260" lon="-3.0483980">
        <ele>1345.8</ele>
        <time>2020-07-13T06:49:15Z</time>
      </trkpt>
      <trkpt lat="37.1694290" lon="-3.0485150">
        <ele>1345.2</ele>
        <time>2020-07-13T06:49:16Z</time>
      </trkpt>
      <trkpt lat="37.1693770" lon="-3.0487790">
        <ele>1343.4</ele>
        <time>2020-07-13T06:49:18Z</time>
      </trkpt>
      <trkpt lat="37.1692780" lon="-3.0490200">
        <ele>1342.2</ele>
        <time>2020-07-13T06:49:20Z</time>
      </trkpt>
      <trkpt lat="37.1691730" lon="-3.0492670">
        <ele>1340.8</ele>
        <time>2020-07-13T06:49:22Z</time>
      </trkpt>
      <trkpt lat="37.1690480" lon="-3.0496390">
        <ele>1339.2</ele>
        <time>2020-07-13T06:49:25Z</time>
      </trkpt>
      <trkpt lat="37.1690590" lon="-3.0497460">
        <ele>1338.4</ele>
        <time>2020-07-13T06:49:26Z</time>
      </trkpt>
      <trkpt lat="37.1690950" lon="-3.0498620">
        <ele>1337.6</ele>
        <time>2020-07-13T06:49:27Z</time>
      </trkpt>
      <trkpt lat="37.1691410" lon="-3.0499640">
        <ele>1336.6</ele>
        <time>2020-07-13T06:49:28Z</time>
      </trkpt>
      <trkpt lat="37.1691870" lon="-3.0500730">
        <ele>1336.0</ele>
        <time>2020-07-13T06:49:29Z</time>
      </trkpt>
      <trkpt lat="37.1692280" lon="-3.0501970">
        <ele>1334.8</ele>
        <time>2020-07-13T06:49:30Z</time>
      </trkpt>
      <trkpt lat="37.1693050" lon="-3.0504430">
        <ele>1333.4</ele>
        <time>2020-07-13T06:49:32Z</time>
      </trkpt>
      <trkpt lat="37.1693430" lon="-3.0505660">
        <ele>1332.6</ele>
        <time>2020-07-13T06:49:33Z</time>
      </trkpt>
      <trkpt lat="37.1693930" lon="-3.0506820">
        <ele>1332.0</ele>
        <time>2020-07-13T06:49:34Z</time>
      </trkpt>
      <trkpt lat="37.1695620" lon="-3.0508550">
        <ele>1330.6</ele>
        <time>2020-07-13T06:49:36Z</time>
      </trkpt>
      <trkpt lat="37.1697650" lon="-3.0510010">
        <ele>1329.4</ele>
        <time>2020-07-13T06:49:38Z</time>
      </trkpt>
      <trkpt lat="37.1699560" lon="-3.0511730">
        <ele>1327.8</ele>
        <time>2020-07-13T06:49:40Z</time>
      </trkpt>
      <trkpt lat="37.1701270" lon="-3.0514110">
        <ele>1326.4</ele>
        <time>2020-07-13T06:49:42Z</time>
      </trkpt>
      <trkpt lat="37.1702100" lon="-3.0515300">
        <ele>1325.6</ele>
        <time>2020-07-13T06:49:43Z</time>
      </trkpt>
      <trkpt lat="37.1702860" lon="-3.0516440">
        <ele>1324.6</ele>
        <time>2020-07-13T06:49:44Z</time>
      </trkpt>
      <trkpt lat="37.1703600" lon="-3.0517470">
        <ele>1323.6</ele>
        <time>2020-07-13T06:49:45Z</time>
      </trkpt>
      <trkpt lat="37.1705310" lon="-3.0518980">
        <ele>1322.0</ele>
        <time>2020-07-13T06:49:47Z</time>
      </trkpt>
      <trkpt lat="37.1706390" lon="-3.0519330">
        <ele>1321.0</ele>
        <time>2020-07-13T06:49:48Z</time>
      </trkpt>
      <trkpt lat="37.1707440" lon="-3.0519460">
        <ele>1319.8</ele>
        <time>2020-07-13T06:49:49Z</time>
      </trkpt>
      <trkpt lat="37.1708480" lon="-3.0519500">
        <ele>1318.4</ele>
        <time>2020-07-13T06:49:50Z</time>
      </trkpt>
      <trkpt lat="37.1710170" lon="-3.0519180">
        <ele>1316.6</ele>
        <time>2020-07-13T06:49:52Z</time>
      </trkpt>
      <trkpt lat="37.1711340" lon="-3.0517700">
        <ele>1315.2</ele>
        <time>2020-07-13T06:49:54Z</time>
      </trkpt>
      <trkpt lat="37.1711730" lon="-3.0515820">
        <ele>1313.8</ele>
        <time>2020-07-13T06:49:56Z</time>
      </trkpt>
      <trkpt lat="37.1711510" lon="-3.0514770">
        <ele>1313.0</ele>
        <time>2020-07-13T06:49:57Z</time>
      </trkpt>
      <trkpt lat="37.1711010" lon="-3.0513970">
        <ele>1312.2</ele>
        <time>2020-07-13T06:49:58Z</time>
      </trkpt>
      <trkpt lat="37.1710410" lon="-3.0513260">
        <ele>1311.6</ele>
        <time>2020-07-13T06:49:59Z</time>
      </trkpt>
      <trkpt lat="37.1709680" lon="-3.0512520">
        <ele>1311.0</ele>
        <time>2020-07-13T06:50:00Z</time>
      </trkpt>
      <trkpt lat="37.1708120" lon="-3.0511280">
        <ele>1309.8</ele>
        <time>2020-07-13T06:50:02Z</time>
      </trkpt>
      <trkpt lat="37.1707280" lon="-3.0510630">
        <ele>1309.4</ele>
        <time>2020-07-13T06:50:03Z</time>
      </trkpt>
      <trkpt lat="37.1706430" lon="-3.0510030">
        <ele>1308.8</ele>
        <time>2020-07-13T06:50:04Z</time>
      </trkpt>
      <trkpt lat="37.1704660" lon="-3.0508660">
        <ele>1307.6</ele>
        <time>2020-07-13T06:50:06Z</time>
      </trkpt>
      <trkpt lat="37.1703770" lon="-3.0507720">
        <ele>1307.0</ele>
        <time>2020-07-13T06:50:07Z</time>
      </trkpt>
      <trkpt lat="37.1703040" lon="-3.0506640">
        <ele>1306.4</ele>
        <time>2020-07-13T06:50:08Z</time>
      </trkpt>
      <trkpt lat="37.1701710" lon="-3.0504320">
        <ele>1304.8</ele>
        <time>2020-07-13T06:50:10Z</time>
      </trkpt>
      <trkpt lat="37.1700440" lon="-3.0502310">
        <ele>1303.2</ele>
        <time>2020-07-13T06:50:12Z</time>
      </trkpt>
      <trkpt lat="37.1699850" lon="-3.0500400">
        <ele>1301.4</ele>
        <time>2020-07-13T06:50:14Z</time>
      </trkpt>
      <trkpt lat="37.1700160" lon="-3.0499580">
        <ele>1300.6</ele>
        <time>2020-07-13T06:50:15Z</time>
      </trkpt>
      <trkpt lat="37.1700460" lon="-3.0498890">
        <ele>1300.0</ele>
        <time>2020-07-13T06:50:16Z</time>
      </trkpt>
      <trkpt lat="37.1702150" lon="-3.0498790">
        <ele>1299.0</ele>
        <time>2020-07-13T06:50:18Z</time>
      </trkpt>
      <trkpt lat="37.1703070" lon="-3.0498710">
        <ele>1298.6</ele>
        <time>2020-07-13T06:50:19Z</time>
      </trkpt>
      <trkpt lat="37.1704850" lon="-3.0498280">
        <ele>1297.8</ele>
        <time>2020-07-13T06:50:21Z</time>
      </trkpt>
      <trkpt lat="37.1705790" lon="-3.0497790">
        <ele>1297.2</ele>
        <time>2020-07-13T06:50:22Z</time>
      </trkpt>
      <trkpt lat="37.1707780" lon="-3.0496620">
        <ele>1295.8</ele>
        <time>2020-07-13T06:50:24Z</time>
      </trkpt>
      <trkpt lat="37.1709660" lon="-3.0495350">
        <ele>1294.2</ele>
        <time>2020-07-13T06:50:26Z</time>
      </trkpt>
      <trkpt lat="37.1711400" lon="-3.0493660">
        <ele>1292.8</ele>
        <time>2020-07-13T06:50:28Z</time>
      </trkpt>
      <trkpt lat="37.1712030" lon="-3.0492770">
        <ele>1292.0</ele>
        <time>2020-07-13T06:50:29Z</time>
      </trkpt>
      <trkpt lat="37.1712490" lon="-3.0491690">
        <ele>1291.2</ele>
        <time>2020-07-13T06:50:30Z</time>
      </trkpt>
      <trkpt lat="37.1712610" lon="-3.0489310">
        <ele>1289.8</ele>
        <time>2020-07-13T06:50:32Z</time>
      </trkpt>
      <trkpt lat="37.1712620" lon="-3.0488140">
        <ele>1288.8</ele>
        <time>2020-07-13T06:50:33Z</time>
      </trkpt>
      <trkpt lat="37.1712900" lon="-3.0487060">
        <ele>1287.6</ele>
        <time>2020-07-13T06:50:34Z</time>
      </trkpt>
      <trkpt lat="37.1713500" lon="-3.0486190">
        <ele>1287.0</ele>
        <time>2020-07-13T06:50:35Z</time>
      </trkpt>
      <trkpt lat="37.1714230" lon="-3.0485520">
        <ele>1286.2</ele>
        <time>2020-07-13T06:50:36Z</time>
      </trkpt>
      <trkpt lat="37.1715260" lon="-3.0485170">
        <ele>1285.4</ele>
        <time>2020-07-13T06:50:37Z</time>
      </trkpt>
      <trkpt lat="37.1716320" lon="-3.0485300">
        <ele>1284.6</ele>
        <time>2020-07-13T06:50:38Z</time>
      </trkpt>
      <trkpt lat="37.1717270" lon="-3.0485880">
        <ele>1284.0</ele>
        <time>2020-07-13T06:50:39Z</time>
      </trkpt>
      <trkpt lat="37.1718160" lon="-3.0486550">
        <ele>1283.6</ele>
        <time>2020-07-13T06:50:40Z</time>
      </trkpt>
      <trkpt lat="37.1720050" lon="-3.0488090">
        <ele>1282.4</ele>
        <time>2020-07-13T06:50:42Z</time>
      </trkpt>
      <trkpt lat="37.1722040" lon="-3.0489460">
        <ele>1280.8</ele>
        <time>2020-07-13T06:50:44Z</time>
      </trkpt>
      <trkpt lat="37.1724290" lon="-3.0489980">
        <ele>1279.2</ele>
        <time>2020-07-13T06:50:46Z</time>
      </trkpt>
      <trkpt lat="37.1726850" lon="-3.0490030">
        <ele>1277.6</ele>
        <time>2020-07-13T06:50:48Z</time>
      </trkpt>
      <trkpt lat="37.1728100" lon="-3.0490010">
        <ele>1276.8</ele>
        <time>2020-07-13T06:50:49Z</time>
      </trkpt>
      <trkpt lat="37.1729350" lon="-3.0489980">
        <ele>1276.0</ele>
        <time>2020-07-13T06:50:50Z</time>
      </trkpt>
      <trkpt lat="37.1731910" lon="-3.0489920">
        <ele>1274.6</ele>
        <time>2020-07-13T06:50:52Z</time>
      </trkpt>
      <trkpt lat="37.1734350" lon="-3.0489850">
        <ele>1272.6</ele>
        <time>2020-07-13T06:50:54Z</time>
      </trkpt>
      <trkpt lat="37.1736510" lon="-3.0489760">
        <ele>1271.0</ele>
        <time>2020-07-13T06:50:56Z</time>
      </trkpt>
      <trkpt lat="37.1737620" lon="-3.0489670">
        <ele>1269.8</ele>
        <time>2020-07-13T06:50:57Z</time>
      </trkpt>
      <trkpt lat="37.1738530" lon="-3.0489480">
        <ele>1268.8</ele>
        <time>2020-07-13T06:50:58Z</time>
      </trkpt>
      <trkpt lat="37.1739400" lon="-3.0489070">
        <ele>1267.8</ele>
        <time>2020-07-13T06:50:59Z</time>
      </trkpt>
      <trkpt lat="37.1740280" lon="-3.0488450">
        <ele>1266.8</ele>
        <time>2020-07-13T06:51:00Z</time>
      </trkpt>
      <trkpt lat="37.1741240" lon="-3.0486490">
        <ele>1264.8</ele>
        <time>2020-07-13T06:51:02Z</time>
      </trkpt>
      <trkpt lat="37.1741560" lon="-3.0485340">
        <ele>1263.8</ele>
        <time>2020-07-13T06:51:03Z</time>
      </trkpt>
      <trkpt lat="37.1742010" lon="-3.0482980">
        <ele>1262.0</ele>
        <time>2020-07-13T06:51:05Z</time>
      </trkpt>
      <trkpt lat="37.1742520" lon="-3.0480500">
        <ele>1260.6</ele>
        <time>2020-07-13T06:51:07Z</time>
      </trkpt>
      <trkpt lat="37.1743300" lon="-3.0476830">
        <ele>1259.2</ele>
        <time>2020-07-13T06:51:10Z</time>
      </trkpt>
      <trkpt lat="37.1743630" lon="-3.0475750">
        <ele>1258.6</ele>
        <time>2020-07-13T06:51:11Z</time>
      </trkpt>
      <trkpt lat="37.1744090" lon="-3.0474620">
        <ele>1258.0</ele>
        <time>2020-07-13T06:51:12Z</time>
      </trkpt>
      <trkpt lat="37.1745270" lon="-3.0473030">
        <ele>1257.0</ele>
        <time>2020-07-13T06:51:14Z</time>
      </trkpt>
      <trkpt lat="37.1746820" lon="-3.0472760">
        <ele>1256.4</ele>
        <time>2020-07-13T06:51:16Z</time>
      </trkpt>
      <trkpt lat="37.1747690" lon="-3.0473200">
        <ele>1255.8</ele>
        <time>2020-07-13T06:51:17Z</time>
      </trkpt>
      <trkpt lat="37.1748310" lon="-3.0473900">
        <ele>1255.2</ele>
        <time>2020-07-13T06:51:18Z</time>
      </trkpt>
      <trkpt lat="37.1748720" lon="-3.0474560">
        <ele>1254.4</ele>
        <time>2020-07-13T06:51:19Z</time>
      </trkpt>
      <trkpt lat="37.1749170" lon="-3.0475550">
        <ele>1252.8</ele>
        <time>2020-07-13T06:51:21Z</time>
      </trkpt>
      <trkpt lat="37.1749340" lon="-3.0475950">
        <ele>1252.2</ele>
        <time>2020-07-13T06:51:22Z</time>
      </trkpt>
      <trkpt lat="37.1749440" lon="-3.0476240">
        <ele>1251.6</ele>
        <time>2020-07-13T06:51:23Z</time>
      </trkpt>
      <trkpt lat="37.1749590" lon="-3.0476660">
        <ele>1250.8</ele>
        <time>2020-07-13T06:51:25Z</time>
      </trkpt>
      <trkpt lat="37.1749580" lon="-3.0476680">
        <ele>1250.4</ele>
        <time>2020-07-13T06:51:26Z</time>
      </trkpt>
      <trkpt lat="37.1749570" lon="-3.0476660">
        <ele>1250.0</ele>
        <time>2020-07-13T06:51:28Z</time>
      </trkpt>
      <trkpt lat="37.1749480" lon="-3.0476970">
        <ele>1249.8</ele>
        <time>2020-07-13T06:51:31Z</time>
      </trkpt>
      <trkpt lat="37.1749340" lon="-3.0477020">
        <ele>1249.8</ele>
        <time>2020-07-13T06:51:34Z</time>
      </trkpt>
      <trkpt lat="37.1750000" lon="-3.0477060">
        <ele>1249.6</ele>
        <time>2020-07-13T06:54:24Z</time>
      </trkpt>
      <trkpt lat="37.1750340" lon="-3.0476990">
        <ele>1249.6</ele>
        <time>2020-07-13T06:54:26Z</time>
      </trkpt>
      <trkpt lat="37.1750450" lon="-3.0476750">
        <ele>1249.4</ele>
        <time>2020-07-13T06:54:27Z</time>
      </trkpt>
      <trkpt lat="37.1750390" lon="-3.0476570">
        <ele>1249.4</ele>
        <time>2020-07-13T06:54:28Z</time>
      </trkpt>
      <trkpt lat="37.1750320" lon="-3.0476310">
        <ele>1249.2</ele>
        <time>2020-07-13T06:54:30Z</time>
      </trkpt>
      <trkpt lat="37.1750280" lon="-3.0476180">
        <ele>1249.2</ele>
        <time>2020-07-13T06:54:31Z</time>
      </trkpt>
      <trkpt lat="37.1749860" lon="-3.0474540">
        <ele>1249.4</ele>
        <time>2020-07-13T06:54:39Z</time>
      </trkpt>
      <trkpt lat="37.1749290" lon="-3.0472720">
        <ele>1249.6</ele>
        <time>2020-07-13T06:54:44Z</time>
      </trkpt>
      <trkpt lat="37.1749130" lon="-3.0472290">
        <ele>1249.6</ele>
        <time>2020-07-13T06:54:45Z</time>
      </trkpt>
      <trkpt lat="37.1747670" lon="-3.0469120">
        <ele>1249.0</ele>
        <time>2020-07-13T06:54:51Z</time>
      </trkpt>
      <trkpt lat="37.1745970" lon="-3.0465760">
        <ele>1248.2</ele>
        <time>2020-07-13T06:54:56Z</time>
      </trkpt>
      <trkpt lat="37.1745640" lon="-3.0464870">
        <ele>1247.8</ele>
        <time>2020-07-13T06:54:57Z</time>
      </trkpt>
      <trkpt lat="37.1745340" lon="-3.0463070">
        <ele>1247.0</ele>
        <time>2020-07-13T06:54:59Z</time>
      </trkpt>
      <trkpt lat="37.1745310" lon="-3.0462010">
        <ele>1246.4</ele>
        <time>2020-07-13T06:55:00Z</time>
      </trkpt>
      <trkpt lat="37.1745290" lon="-3.0461060">
        <ele>1245.8</ele>
        <time>2020-07-13T06:55:01Z</time>
      </trkpt>
      <trkpt lat="37.1745240" lon="-3.0457680">
        <ele>1244.6</ele>
        <time>2020-07-13T06:55:04Z</time>
      </trkpt>
      <trkpt lat="37.1745000" lon="-3.0455480">
        <ele>1243.6</ele>
        <time>2020-07-13T06:55:06Z</time>
      </trkpt>
      <trkpt lat="37.1744730" lon="-3.0454250">
        <ele>1243.2</ele>
        <time>2020-07-13T06:55:07Z</time>
      </trkpt>
      <trkpt lat="37.1743530" lon="-3.0450870">
        <ele>1242.0</ele>
        <time>2020-07-13T06:55:10Z</time>
      </trkpt>
      <trkpt lat="37.1742300" lon="-3.0448580">
        <ele>1240.8</ele>
        <time>2020-07-13T06:55:12Z</time>
      </trkpt>
      <trkpt lat="37.1741630" lon="-3.0447470">
        <ele>1240.2</ele>
        <time>2020-07-13T06:55:13Z</time>
      </trkpt>
      <trkpt lat="37.1741000" lon="-3.0446290">
        <ele>1239.6</ele>
        <time>2020-07-13T06:55:14Z</time>
      </trkpt>
      <trkpt lat="37.1740500" lon="-3.0444990">
        <ele>1238.8</ele>
        <time>2020-07-13T06:55:15Z</time>
      </trkpt>
      <trkpt lat="37.1740270" lon="-3.0443760">
        <ele>1238.2</ele>
        <time>2020-07-13T06:55:16Z</time>
      </trkpt>
      <trkpt lat="37.1740110" lon="-3.0442230">
        <ele>1237.6</ele>
        <time>2020-07-13T06:55:17Z</time>
      </trkpt>
      <trkpt lat="37.1740030" lon="-3.0440740">
        <ele>1237.0</ele>
        <time>2020-07-13T06:55:18Z</time>
      </trkpt>
      <trkpt lat="37.1739970" lon="-3.0439360">
        <ele>1236.6</ele>
        <time>2020-07-13T06:55:19Z</time>
      </trkpt>
      <trkpt lat="37.1739860" lon="-3.0436750">
        <ele>1235.4</ele>
        <time>2020-07-13T06:55:21Z</time>
      </trkpt>
      <trkpt lat="37.1739840" lon="-3.0435420">
        <ele>1234.8</ele>
        <time>2020-07-13T06:55:22Z</time>
      </trkpt>
      <trkpt lat="37.1739740" lon="-3.0432870">
        <ele>1234.2</ele>
        <time>2020-07-13T06:55:24Z</time>
      </trkpt>
      <trkpt lat="37.1739200" lon="-3.0428130">
        <ele>1233.6</ele>
        <time>2020-07-13T06:55:28Z</time>
      </trkpt>
      <trkpt lat="37.1738680" lon="-3.0424720">
        <ele>1233.0</ele>
        <time>2020-07-13T06:55:31Z</time>
      </trkpt>
      <trkpt lat="37.1737990" lon="-3.0420370">
        <ele>1232.2</ele>
        <time>2020-07-13T06:55:35Z</time>
      </trkpt>
      <trkpt lat="37.1737390" lon="-3.0417050">
        <ele>1231.8</ele>
        <time>2020-07-13T06:55:38Z</time>
      </trkpt>
      <trkpt lat="37.1736250" lon="-3.0412080">
        <ele>1231.2</ele>
        <time>2020-07-13T06:55:43Z</time>
      </trkpt>
      <trkpt lat="37.1735570" lon="-3.0410480">
        <ele>1231.2</ele>
        <time>2020-07-13T06:55:45Z</time>
      </trkpt>
      <trkpt lat="37.1734620" lon="-3.0409350">
        <ele>1231.6</ele>
        <time>2020-07-13T06:55:47Z</time>
      </trkpt>
      <trkpt lat="37.1732750" lon="-3.0407140">
        <ele>1231.8</ele>
        <time>2020-07-13T06:55:51Z</time>
      </trkpt>
      <trkpt lat="37.1732250" lon="-3.0405540">
        <ele>1231.8</ele>
        <time>2020-07-13T06:55:53Z</time>
      </trkpt>
      <trkpt lat="37.1732020" lon="-3.0402760">
        <ele>1231.6</ele>
        <time>2020-07-13T06:55:56Z</time>
      </trkpt>
      <trkpt lat="37.1732020" lon="-3.0401740">
        <ele>1231.4</ele>
        <time>2020-07-13T06:55:57Z</time>
      </trkpt>
      <trkpt lat="37.1731980" lon="-3.0398750">
        <ele>1230.8</ele>
        <time>2020-07-13T06:56:00Z</time>
      </trkpt>
      <trkpt lat="37.1731980" lon="-3.0393720">
        <ele>1229.8</ele>
        <time>2020-07-13T06:56:05Z</time>
      </trkpt>
      <trkpt lat="37.1731880" lon="-3.0386240">
        <ele>1229.0</ele>
        <time>2020-07-13T06:56:13Z</time>
      </trkpt>
      <trkpt lat="37.1731850" lon="-3.0383740">
        <ele>1229.0</ele>
        <time>2020-07-13T06:56:16Z</time>
      </trkpt>
      <trkpt lat="37.1731730" lon="-3.0379800">
        <ele>1229.6</ele>
        <time>2020-07-13T06:56:21Z</time>
      </trkpt>
      <trkpt lat="37.1731620" lon="-3.0372450">
        <ele>1230.0</ele>
        <time>2020-07-13T06:56:31Z</time>
      </trkpt>
      <trkpt lat="37.1732600" lon="-3.0370330">
        <ele>1230.4</ele>
        <time>2020-07-13T06:56:35Z</time>
      </trkpt>
      <trkpt lat="37.1732890" lon="-3.0369930">
        <ele>1230.6</ele>
        <time>2020-07-13T06:56:36Z</time>
      </trkpt>
      <trkpt lat="37.1733470" lon="-3.0369040">
        <ele>1231.2</ele>
        <time>2020-07-13T06:56:38Z</time>
      </trkpt>
      <trkpt lat="37.1734000" lon="-3.0368280">
        <ele>1231.8</ele>
        <time>2020-07-13T06:56:40Z</time>
      </trkpt>
      <trkpt lat="37.1734470" lon="-3.0367520">
        <ele>1232.2</ele>
        <time>2020-07-13T06:56:42Z</time>
      </trkpt>
      <trkpt lat="37.1735270" lon="-3.0366430">
        <ele>1233.0</ele>
        <time>2020-07-13T06:56:45Z</time>
      </trkpt>
      <trkpt lat="37.1735490" lon="-3.0366110">
        <ele>1233.2</ele>
        <time>2020-07-13T06:56:46Z</time>
      </trkpt>
      <trkpt lat="37.1736030" lon="-3.0365290">
        <ele>1233.6</ele>
        <time>2020-07-13T06:56:48Z</time>
      </trkpt>
      <trkpt lat="37.1736420" lon="-3.0364410">
        <ele>1234.0</ele>
        <time>2020-07-13T06:56:50Z</time>
      </trkpt>
      <trkpt lat="37.1736530" lon="-3.0363310">
        <ele>1234.4</ele>
        <time>2020-07-13T06:56:52Z</time>
      </trkpt>
      <trkpt lat="37.1736590" lon="-3.0362760">
        <ele>1234.6</ele>
        <time>2020-07-13T06:56:53Z</time>
      </trkpt>
      <trkpt lat="37.1736790" lon="-3.0362190">
        <ele>1234.6</ele>
        <time>2020-07-13T06:56:54Z</time>
      </trkpt>
      <trkpt lat="37.1737290" lon="-3.0360870">
        <ele>1234.6</ele>
        <time>2020-07-13T06:56:57Z</time>
      </trkpt>
      <trkpt lat="37.1737760" lon="-3.0359220">
        <ele>1235.2</ele>
        <time>2020-07-13T06:57:00Z</time>
      </trkpt>
      <trkpt lat="37.1737780" lon="-3.0358020">
        <ele>1235.4</ele>
        <time>2020-07-13T06:57:02Z</time>
      </trkpt>
      <trkpt lat="37.1737690" lon="-3.0356790">
        <ele>1235.2</ele>
        <time>2020-07-13T06:57:04Z</time>
      </trkpt>
      <trkpt lat="37.1737150" lon="-3.0354490">
        <ele>1235.0</ele>
        <time>2020-07-13T06:57:08Z</time>
      </trkpt>
      <trkpt lat="37.1735980" lon="-3.0353900">
        <ele>1235.0</ele>
        <time>2020-07-13T06:57:11Z</time>
      </trkpt>
      <trkpt lat="37.1735570" lon="-3.0353750">
        <ele>1235.0</ele>
        <time>2020-07-13T06:57:12Z</time>
      </trkpt>
      <trkpt lat="37.1734530" lon="-3.0353370">
        <ele>1235.4</ele>
        <time>2020-07-13T06:57:15Z</time>
      </trkpt>
      <trkpt lat="37.1733990" lon="-3.0353320">
        <ele>1236.0</ele>
        <time>2020-07-13T06:57:17Z</time>
      </trkpt>
      <trkpt lat="37.1733220" lon="-3.0353190">
        <ele>1236.8</ele>
        <time>2020-07-13T06:57:20Z</time>
      </trkpt>
      <trkpt lat="37.1732560" lon="-3.0352930">
        <ele>1237.6</ele>
        <time>2020-07-13T06:57:23Z</time>
      </trkpt>
      <trkpt lat="37.1732350" lon="-3.0352710">
        <ele>1237.8</ele>
        <time>2020-07-13T06:57:24Z</time>
      </trkpt>
      <trkpt lat="37.1731480" lon="-3.0352030">
        <ele>1238.8</ele>
        <time>2020-07-13T06:57:28Z</time>
      </trkpt>
      <trkpt lat="37.1731200" lon="-3.0351730">
        <ele>1239.0</ele>
        <time>2020-07-13T06:57:29Z</time>
      </trkpt>
      <trkpt lat="37.1730760" lon="-3.0350830">
        <ele>1239.4</ele>
        <time>2020-07-13T06:57:31Z</time>
      </trkpt>
      <trkpt lat="37.1730440" lon="-3.0349740">
        <ele>1239.4</ele>
        <time>2020-07-13T06:57:33Z</time>
      </trkpt>
      <trkpt lat="37.1729970" lon="-3.0347540">
        <ele>1238.2</ele>
        <time>2020-07-13T06:57:37Z</time>
      </trkpt>
      <trkpt lat="37.1729820" lon="-3.0347130">
        <ele>1237.6</ele>
        <time>2020-07-13T06:57:38Z</time>
      </trkpt>
      <trkpt lat="37.1730200" lon="-3.0346150">
        <ele>1236.4</ele>
        <time>2020-07-13T06:57:41Z</time>
      </trkpt>
      <trkpt lat="37.1731270" lon="-3.0345840">
        <ele>1235.6</ele>
        <time>2020-07-13T06:57:44Z</time>
      </trkpt>
      <trkpt lat="37.1731640" lon="-3.0345730">
        <ele>1235.4</ele>
        <time>2020-07-13T06:57:45Z</time>
      </trkpt>
      <trkpt lat="37.1732410" lon="-3.0345440">
        <ele>1235.0</ele>
        <time>2020-07-13T06:57:47Z</time>
      </trkpt>
      <trkpt lat="37.1732820" lon="-3.0345180">
        <ele>1234.8</ele>
        <time>2020-07-13T06:57:48Z</time>
      </trkpt>
      <trkpt lat="37.1733370" lon="-3.0344470">
        <ele>1234.4</ele>
        <time>2020-07-13T06:57:50Z</time>
      </trkpt>
      <trkpt lat="37.1733650" lon="-3.0344120">
        <ele>1234.2</ele>
        <time>2020-07-13T06:57:51Z</time>
      </trkpt>
      <trkpt lat="37.1733990" lon="-3.0343680">
        <ele>1234.0</ele>
        <time>2020-07-13T06:57:52Z</time>
      </trkpt>
      <trkpt lat="37.1734620" lon="-3.0342720">
        <ele>1233.8</ele>
        <time>2020-07-13T06:57:54Z</time>
      </trkpt>
      <trkpt lat="37.1735240" lon="-3.0341620">
        <ele>1233.4</ele>
        <time>2020-07-13T06:57:56Z</time>
      </trkpt>
      <trkpt lat="37.1736080" lon="-3.0340360">
        <ele>1233.0</ele>
        <time>2020-07-13T06:57:58Z</time>
      </trkpt>
      <trkpt lat="37.1737330" lon="-3.0339630">
        <ele>1232.4</ele>
        <time>2020-07-13T06:58:00Z</time>
      </trkpt>
      <trkpt lat="37.1738620" lon="-3.0339680">
        <ele>1232.0</ele>
        <time>2020-07-13T06:58:02Z</time>
      </trkpt>
      <trkpt lat="37.1739230" lon="-3.0339810">
        <ele>1231.8</ele>
        <time>2020-07-13T06:58:03Z</time>
      </trkpt>
      <trkpt lat="37.1740400" lon="-3.0340160">
        <ele>1231.6</ele>
        <time>2020-07-13T06:58:05Z</time>
      </trkpt>
      <trkpt lat="37.1742800" lon="-3.0341010">
        <ele>1231.2</ele>
        <time>2020-07-13T06:58:09Z</time>
      </trkpt>
      <trkpt lat="37.1743570" lon="-3.0341180">
        <ele>1230.8</ele>
        <time>2020-07-13T06:58:10Z</time>
      </trkpt>
      <trkpt lat="37.1744200" lon="-3.0341200">
        <ele>1230.8</ele>
        <time>2020-07-13T06:58:11Z</time>
      </trkpt>
      <trkpt lat="37.1746490" lon="-3.0340960">
        <ele>1230.0</ele>
        <time>2020-07-13T06:58:14Z</time>
      </trkpt>
      <trkpt lat="37.1747090" lon="-3.0340730">
        <ele>1229.6</ele>
        <time>2020-07-13T06:58:15Z</time>
      </trkpt>
      <trkpt lat="37.1748150" lon="-3.0339830">
        <ele>1228.8</ele>
        <time>2020-07-13T06:58:17Z</time>
      </trkpt>
      <trkpt lat="37.1748590" lon="-3.0339080">
        <ele>1228.4</ele>
        <time>2020-07-13T06:58:18Z</time>
      </trkpt>
      <trkpt lat="37.1749310" lon="-3.0337410">
        <ele>1227.6</ele>
        <time>2020-07-13T06:58:20Z</time>
      </trkpt>
      <trkpt lat="37.1749610" lon="-3.0336570">
        <ele>1227.4</ele>
        <time>2020-07-13T06:58:21Z</time>
      </trkpt>
      <trkpt lat="37.1749900" lon="-3.0335630">
        <ele>1227.0</ele>
        <time>2020-07-13T06:58:22Z</time>
      </trkpt>
      <trkpt lat="37.1750700" lon="-3.0332770">
        <ele>1226.0</ele>
        <time>2020-07-13T06:58:25Z</time>
      </trkpt>
      <trkpt lat="37.1750920" lon="-3.0331860">
        <ele>1225.8</ele>
        <time>2020-07-13T06:58:26Z</time>
      </trkpt>
      <trkpt lat="37.1751610" lon="-3.0328660">
        <ele>1225.0</ele>
        <time>2020-07-13T06:58:29Z</time>
      </trkpt>
      <trkpt lat="37.1751850" lon="-3.0326520">
        <ele>1224.4</ele>
        <time>2020-07-13T06:58:31Z</time>
      </trkpt>
      <trkpt lat="37.1751880" lon="-3.0325350">
        <ele>1224.2</ele>
        <time>2020-07-13T06:58:32Z</time>
      </trkpt>
      <trkpt lat="37.1751880" lon="-3.0324300">
        <ele>1223.8</ele>
        <time>2020-07-13T06:58:33Z</time>
      </trkpt>
      <trkpt lat="37.1752030" lon="-3.0323330">
        <ele>1223.6</ele>
        <time>2020-07-13T06:58:34Z</time>
      </trkpt>
      <trkpt lat="37.1752810" lon="-3.0321610">
        <ele>1223.0</ele>
        <time>2020-07-13T06:58:36Z</time>
      </trkpt>
      <trkpt lat="37.1753440" lon="-3.0320810">
        <ele>1222.8</ele>
        <time>2020-07-13T06:58:37Z</time>
      </trkpt>
      <trkpt lat="37.1755150" lon="-3.0320360">
        <ele>1222.4</ele>
        <time>2020-07-13T06:58:39Z</time>
      </trkpt>
      <trkpt lat="37.1757870" lon="-3.0320900">
        <ele>1221.4</ele>
        <time>2020-07-13T06:58:42Z</time>
      </trkpt>
      <trkpt lat="37.1760630" lon="-3.0321380">
        <ele>1220.2</ele>
        <time>2020-07-13T06:58:45Z</time>
      </trkpt>
      <trkpt lat="37.1762140" lon="-3.0321270">
        <ele>1219.2</ele>
        <time>2020-07-13T06:58:47Z</time>
      </trkpt>
      <trkpt lat="37.1762910" lon="-3.0320970">
        <ele>1218.8</ele>
        <time>2020-07-13T06:58:48Z</time>
      </trkpt>
      <trkpt lat="37.1764210" lon="-3.0319970">
        <ele>1218.0</ele>
        <time>2020-07-13T06:58:50Z</time>
      </trkpt>
      <trkpt lat="37.1764680" lon="-3.0319390">
        <ele>1217.8</ele>
        <time>2020-07-13T06:58:51Z</time>
      </trkpt>
      <trkpt lat="37.1765690" lon="-3.0317980">
        <ele>1217.4</ele>
        <time>2020-07-13T06:58:53Z</time>
      </trkpt>
      <trkpt lat="37.1766090" lon="-3.0317180">
        <ele>1217.2</ele>
        <time>2020-07-13T06:58:54Z</time>
      </trkpt>
      <trkpt lat="37.1766840" lon="-3.0315700">
        <ele>1217.0</ele>
        <time>2020-07-13T06:58:56Z</time>
      </trkpt>
      <trkpt lat="37.1767710" lon="-3.0313270">
        <ele>1217.0</ele>
        <time>2020-07-13T06:58:59Z</time>
      </trkpt>
      <trkpt lat="37.1767950" lon="-3.0312520">
        <ele>1217.2</ele>
        <time>2020-07-13T06:59:00Z</time>
      </trkpt>
      <trkpt lat="37.1768030" lon="-3.0311890">
        <ele>1217.2</ele>
        <time>2020-07-13T06:59:01Z</time>
      </trkpt>
      <trkpt lat="37.1768120" lon="-3.0310470">
        <ele>1217.4</ele>
        <time>2020-07-13T06:59:03Z</time>
      </trkpt>
      <trkpt lat="37.1768150" lon="-3.0309830">
        <ele>1217.6</ele>
        <time>2020-07-13T06:59:04Z</time>
      </trkpt>
      <trkpt lat="37.1768200" lon="-3.0308660">
        <ele>1218.2</ele>
        <time>2020-07-13T06:59:06Z</time>
      </trkpt>
      <trkpt lat="37.1768220" lon="-3.0308000">
        <ele>1218.6</ele>
        <time>2020-07-13T06:59:07Z</time>
      </trkpt>
      <trkpt lat="37.1768230" lon="-3.0307420">
        <ele>1218.8</ele>
        <time>2020-07-13T06:59:08Z</time>
      </trkpt>
      <trkpt lat="37.1768290" lon="-3.0306290">
        <ele>1219.4</ele>
        <time>2020-07-13T06:59:10Z</time>
      </trkpt>
      <trkpt lat="37.1768300" lon="-3.0305210">
        <ele>1219.8</ele>
        <time>2020-07-13T06:59:12Z</time>
      </trkpt>
      <trkpt lat="37.1768320" lon="-3.0304680">
        <ele>1220.0</ele>
        <time>2020-07-13T06:59:13Z</time>
      </trkpt>
      <trkpt lat="37.1768380" lon="-3.0302700">
        <ele>1220.6</ele>
        <time>2020-07-13T06:59:17Z</time>
      </trkpt>
      <trkpt lat="37.1768390" lon="-3.0301690">
        <ele>1221.0</ele>
        <time>2020-07-13T06:59:19Z</time>
      </trkpt>
      <trkpt lat="37.1768420" lon="-3.0300740">
        <ele>1221.4</ele>
        <time>2020-07-13T06:59:21Z</time>
      </trkpt>
      <trkpt lat="37.1768430" lon="-3.0298890">
        <ele>1222.2</ele>
        <time>2020-07-13T06:59:25Z</time>
      </trkpt>
      <trkpt lat="37.1768430" lon="-3.0297610">
        <ele>1222.6</ele>
        <time>2020-07-13T06:59:28Z</time>
      </trkpt>
      <trkpt lat="37.1768370" lon="-3.0296340">
        <ele>1223.4</ele>
        <time>2020-07-13T06:59:31Z</time>
      </trkpt>
      <trkpt lat="37.1768220" lon="-3.0294720">
        <ele>1224.4</ele>
        <time>2020-07-13T06:59:35Z</time>
      </trkpt>
      <trkpt lat="37.1767820" lon="-3.0292800">
        <ele>1225.0</ele>
        <time>2020-07-13T06:59:40Z</time>
      </trkpt>
      <trkpt lat="37.1767520" lon="-3.0291650">
        <ele>1225.6</ele>
        <time>2020-07-13T06:59:43Z</time>
      </trkpt>
      <trkpt lat="37.1766840" lon="-3.0289470">
        <ele>1226.6</ele>
        <time>2020-07-13T06:59:49Z</time>
      </trkpt>
      <trkpt lat="37.1766610" lon="-3.0288770">
        <ele>1227.0</ele>
        <time>2020-07-13T06:59:51Z</time>
      </trkpt>
      <trkpt lat="37.1766110" lon="-3.0287330">
        <ele>1227.8</ele>
        <time>2020-07-13T06:59:55Z</time>
      </trkpt>
      <trkpt lat="37.1765440" lon="-3.0285300">
        <ele>1228.8</ele>
        <time>2020-07-13T07:00:01Z</time>
      </trkpt>
      <trkpt lat="37.1764630" lon="-3.0283200">
        <ele>1229.8</ele>
        <time>2020-07-13T07:00:07Z</time>
      </trkpt>
      <trkpt lat="37.1764370" lon="-3.0282450">
        <ele>1230.2</ele>
        <time>2020-07-13T07:00:09Z</time>
      </trkpt>
      <trkpt lat="37.1763980" lon="-3.0281390">
        <ele>1230.8</ele>
        <time>2020-07-13T07:00:12Z</time>
      </trkpt>
      <trkpt lat="37.1763380" lon="-3.0279390">
        <ele>1231.8</ele>
        <time>2020-07-13T07:00:18Z</time>
      </trkpt>
      <trkpt lat="37.1763320" lon="-3.0279100">
        <ele>1232.0</ele>
        <time>2020-07-13T07:00:19Z</time>
      </trkpt>
      <trkpt lat="37.1763280" lon="-3.0277790">
        <ele>1233.2</ele>
        <time>2020-07-13T07:00:24Z</time>
      </trkpt>
      <trkpt lat="37.1763370" lon="-3.0276040">
        <ele>1233.8</ele>
        <time>2020-07-13T07:00:31Z</time>
      </trkpt>
      <trkpt lat="37.1763340" lon="-3.0275550">
        <ele>1234.2</ele>
        <time>2020-07-13T07:00:33Z</time>
      </trkpt>
      <trkpt lat="37.1763410" lon="-3.0274220">
        <ele>1235.0</ele>
        <time>2020-07-13T07:00:38Z</time>
      </trkpt>
      <trkpt lat="37.1763400" lon="-3.0273950">
        <ele>1235.4</ele>
        <time>2020-07-13T07:00:39Z</time>
      </trkpt>
      <trkpt lat="37.1763250" lon="-3.0272070">
        <ele>1236.2</ele>
        <time>2020-07-13T07:00:46Z</time>
      </trkpt>
      <trkpt lat="37.1763230" lon="-3.0271440">
        <ele>1236.4</ele>
        <time>2020-07-13T07:00:48Z</time>
      </trkpt>
      <trkpt lat="37.1763180" lon="-3.0269570">
        <ele>1237.6</ele>
        <time>2020-07-13T07:00:54Z</time>
      </trkpt>
      <trkpt lat="37.1763090" lon="-3.0267660">
        <ele>1238.6</ele>
        <time>2020-07-13T07:01:00Z</time>
      </trkpt>
      <trkpt lat="37.1763090" lon="-3.0267360">
        <ele>1238.8</ele>
        <time>2020-07-13T07:01:01Z</time>
      </trkpt>
      <trkpt lat="37.1763060" lon="-3.0266120">
        <ele>1239.6</ele>
        <time>2020-07-13T07:01:05Z</time>
      </trkpt>
      <trkpt lat="37.1762960" lon="-3.0264930">
        <ele>1240.2</ele>
        <time>2020-07-13T07:01:09Z</time>
      </trkpt>
      <trkpt lat="37.1762870" lon="-3.0263720">
        <ele>1240.8</ele>
        <time>2020-07-13T07:01:13Z</time>
      </trkpt>
      <trkpt lat="37.1762810" lon="-3.0262170">
        <ele>1241.8</ele>
        <time>2020-07-13T07:01:18Z</time>
      </trkpt>
      <trkpt lat="37.1762820" lon="-3.0261850">
        <ele>1242.2</ele>
        <time>2020-07-13T07:01:19Z</time>
      </trkpt>
      <trkpt lat="37.1762890" lon="-3.0260630">
        <ele>1243.2</ele>
        <time>2020-07-13T07:01:23Z</time>
      </trkpt>
      <trkpt lat="37.1763140" lon="-3.0258740">
        <ele>1244.4</ele>
        <time>2020-07-13T07:01:29Z</time>
      </trkpt>
      <trkpt lat="37.1763190" lon="-3.0258430">
        <ele>1244.6</ele>
        <time>2020-07-13T07:01:30Z</time>
      </trkpt>
      <trkpt lat="37.1763380" lon="-3.0257240">
        <ele>1245.4</ele>
        <time>2020-07-13T07:01:34Z</time>
      </trkpt>
      <trkpt lat="37.1763460" lon="-3.0256030">
        <ele>1246.4</ele>
        <time>2020-07-13T07:01:38Z</time>
      </trkpt>
      <trkpt lat="37.1763480" lon="-3.0255730">
        <ele>1246.8</ele>
        <time>2020-07-13T07:01:39Z</time>
      </trkpt>
      <trkpt lat="37.1763460" lon="-3.0254820">
        <ele>1247.6</ele>
        <time>2020-07-13T07:01:42Z</time>
      </trkpt>
      <trkpt lat="37.1763440" lon="-3.0254560">
        <ele>1248.0</ele>
        <time>2020-07-13T07:01:43Z</time>
      </trkpt>
      <trkpt lat="37.1763320" lon="-3.0253620">
        <ele>1248.8</ele>
        <time>2020-07-13T07:01:46Z</time>
      </trkpt>
      <trkpt lat="37.1763250" lon="-3.0253280">
        <ele>1249.0</ele>
        <time>2020-07-13T07:01:47Z</time>
      </trkpt>
      <trkpt lat="37.1762930" lon="-3.0252080">
        <ele>1250.2</ele>
        <time>2020-07-13T07:01:51Z</time>
      </trkpt>
      <trkpt lat="37.1762630" lon="-3.0251230">
        <ele>1250.8</ele>
        <time>2020-07-13T07:01:54Z</time>
      </trkpt>
      <trkpt lat="37.1762310" lon="-3.0250230">
        <ele>1251.4</ele>
        <time>2020-07-13T07:01:57Z</time>
      </trkpt>
      <trkpt lat="37.1761830" lon="-3.0248770">
        <ele>1251.8</ele>
        <time>2020-07-13T07:02:01Z</time>
      </trkpt>
      <trkpt lat="37.1761240" lon="-3.0246070">
        <ele>1252.0</ele>
        <time>2020-07-13T07:02:06Z</time>
      </trkpt>
      <trkpt lat="37.1760960" lon="-3.0242460">
        <ele>1251.0</ele>
        <time>2020-07-13T07:02:10Z</time>
      </trkpt>
      <trkpt lat="37.1760860" lon="-3.0240130">
        <ele>1249.8</ele>
        <time>2020-07-13T07:02:12Z</time>
      </trkpt>
      <trkpt lat="37.1760800" lon="-3.0237630">
        <ele>1248.6</ele>
        <time>2020-07-13T07:02:14Z</time>
      </trkpt>
      <trkpt lat="37.1760710" lon="-3.0235180">
        <ele>1247.4</ele>
        <time>2020-07-13T07:02:16Z</time>
      </trkpt>
      <trkpt lat="37.1760640" lon="-3.0231680">
        <ele>1246.4</ele>
        <time>2020-07-13T07:02:18Z</time>
      </trkpt>
      <trkpt lat="37.1760600" lon="-3.0230340">
        <ele>1245.0</ele>
        <time>2020-07-13T07:02:19Z</time>
      </trkpt>
      <trkpt lat="37.1760560" lon="-3.0229110">
        <ele>1243.6</ele>
        <time>2020-07-13T07:02:20Z</time>
      </trkpt>
      <trkpt lat="37.1760520" lon="-3.0227890">
        <ele>1242.4</ele>
        <time>2020-07-13T07:02:21Z</time>
      </trkpt>
      <trkpt lat="37.1760460" lon="-3.0226680">
        <ele>1241.0</ele>
        <time>2020-07-13T07:02:22Z</time>
      </trkpt>
      <trkpt lat="37.1760420" lon="-3.0225450">
        <ele>1240.0</ele>
        <time>2020-07-13T07:02:23Z</time>
      </trkpt>
      <trkpt lat="37.1760430" lon="-3.0224290">
        <ele>1239.2</ele>
        <time>2020-07-13T07:02:24Z</time>
      </trkpt>
      <trkpt lat="37.1760490" lon="-3.0223200">
        <ele>1238.8</ele>
        <time>2020-07-13T07:02:25Z</time>
      </trkpt>
      <trkpt lat="37.1760590" lon="-3.0221980">
        <ele>1238.4</ele>
        <time>2020-07-13T07:02:26Z</time>
      </trkpt>
      <trkpt lat="37.1760730" lon="-3.0220860">
        <ele>1238.0</ele>
        <time>2020-07-13T07:02:27Z</time>
      </trkpt>
      <trkpt lat="37.1761090" lon="-3.0218420">
        <ele>1237.8</ele>
        <time>2020-07-13T07:02:29Z</time>
      </trkpt>
      <trkpt lat="37.1761280" lon="-3.0217230">
        <ele>1237.4</ele>
        <time>2020-07-13T07:02:30Z</time>
      </trkpt>
      <trkpt lat="37.1761750" lon="-3.0214600">
        <ele>1236.4</ele>
        <time>2020-07-13T07:02:32Z</time>
      </trkpt>
      <trkpt lat="37.1762260" lon="-3.0212000">
        <ele>1235.0</ele>
        <time>2020-07-13T07:02:34Z</time>
      </trkpt>
      <trkpt lat="37.1762770" lon="-3.0209230">
        <ele>1233.8</ele>
        <time>2020-07-13T07:02:36Z</time>
      </trkpt>
      <trkpt lat="37.1763300" lon="-3.0206600">
        <ele>1232.4</ele>
        <time>2020-07-13T07:02:38Z</time>
      </trkpt>
      <trkpt lat="37.1763590" lon="-3.0205400">
        <ele>1231.8</ele>
        <time>2020-07-13T07:02:39Z</time>
      </trkpt>
      <trkpt lat="37.1763880" lon="-3.0204290">
        <ele>1231.2</ele>
        <time>2020-07-13T07:02:40Z</time>
      </trkpt>
      <trkpt lat="37.1765090" lon="-3.0200030">
        <ele>1230.8</ele>
        <time>2020-07-13T07:02:44Z</time>
      </trkpt>
      <trkpt lat="37.1765810" lon="-3.0198050">
        <ele>1231.0</ele>
        <time>2020-07-13T07:02:46Z</time>
      </trkpt>
      <trkpt lat="37.1767460" lon="-3.0193990">
        <ele>1230.4</ele>
        <time>2020-07-13T07:02:50Z</time>
      </trkpt>
      <trkpt lat="37.1767920" lon="-3.0192930">
        <ele>1230.2</ele>
        <time>2020-07-13T07:02:51Z</time>
      </trkpt>
      <trkpt lat="37.1769670" lon="-3.0188660">
        <ele>1229.0</ele>
        <time>2020-07-13T07:02:55Z</time>
      </trkpt>
      <trkpt lat="37.1771080" lon="-3.0185290">
        <ele>1227.8</ele>
        <time>2020-07-13T07:02:58Z</time>
      </trkpt>
      <trkpt lat="37.1771580" lon="-3.0184070">
        <ele>1227.4</ele>
        <time>2020-07-13T07:02:59Z</time>
      </trkpt>
      <trkpt lat="37.1772340" lon="-3.0181680">
        <ele>1226.4</ele>
        <time>2020-07-13T07:03:01Z</time>
      </trkpt>
      <trkpt lat="37.1772410" lon="-3.0179170">
        <ele>1225.4</ele>
        <time>2020-07-13T07:03:03Z</time>
      </trkpt>
      <trkpt lat="37.1772190" lon="-3.0178020">
        <ele>1225.0</ele>
        <time>2020-07-13T07:03:04Z</time>
      </trkpt>
      <trkpt lat="37.1771290" lon="-3.0175350">
        <ele>1223.8</ele>
        <time>2020-07-13T07:03:06Z</time>
      </trkpt>
      <trkpt lat="37.1770810" lon="-3.0174150">
        <ele>1223.2</ele>
        <time>2020-07-13T07:03:07Z</time>
      </trkpt>
      <trkpt lat="37.1770320" lon="-3.0172950">
        <ele>1222.6</ele>
        <time>2020-07-13T07:03:08Z</time>
      </trkpt>
      <trkpt lat="37.1769410" lon="-3.0170620">
        <ele>1221.6</ele>
        <time>2020-07-13T07:03:10Z</time>
      </trkpt>
      <trkpt lat="37.1768470" lon="-3.0167760">
        <ele>1220.4</ele>
        <time>2020-07-13T07:03:12Z</time>
      </trkpt>
      <trkpt lat="37.1768080" lon="-3.0166320">
        <ele>1219.6</ele>
        <time>2020-07-13T07:03:13Z</time>
      </trkpt>
      <trkpt lat="37.1767700" lon="-3.0164810">
        <ele>1218.8</ele>
        <time>2020-07-13T07:03:14Z</time>
      </trkpt>
      <trkpt lat="37.1767130" lon="-3.0162040">
        <ele>1217.0</ele>
        <time>2020-07-13T07:03:16Z</time>
      </trkpt>
      <trkpt lat="37.1766990" lon="-3.0160740">
        <ele>1216.2</ele>
        <time>2020-07-13T07:03:17Z</time>
      </trkpt>
      <trkpt lat="37.1766950" lon="-3.0159550">
        <ele>1215.0</ele>
        <time>2020-07-13T07:03:18Z</time>
      </trkpt>
      <trkpt lat="37.1767040" lon="-3.0158440">
        <ele>1214.0</ele>
        <time>2020-07-13T07:03:19Z</time>
      </trkpt>
      <trkpt lat="37.1767170" lon="-3.0157460">
        <ele>1213.2</ele>
        <time>2020-07-13T07:03:20Z</time>
      </trkpt>
      <trkpt lat="37.1767370" lon="-3.0156470">
        <ele>1212.0</ele>
        <time>2020-07-13T07:03:21Z</time>
      </trkpt>
      <trkpt lat="37.1767610" lon="-3.0155590">
        <ele>1210.6</ele>
        <time>2020-07-13T07:03:22Z</time>
      </trkpt>
      <trkpt lat="37.1768190" lon="-3.0153860">
        <ele>1210.0</ele>
        <time>2020-07-13T07:03:24Z</time>
      </trkpt>
      <trkpt lat="37.1769490" lon="-3.0150040">
        <ele>1210.0</ele>
        <time>2020-07-13T07:03:28Z</time>
      </trkpt>
      <trkpt lat="37.1769830" lon="-3.0148950">
        <ele>1209.6</ele>
        <time>2020-07-13T07:03:29Z</time>
      </trkpt>
      <trkpt lat="37.1770820" lon="-3.0145750">
        <ele>1208.0</ele>
        <time>2020-07-13T07:03:32Z</time>
      </trkpt>
      <trkpt lat="37.1771440" lon="-3.0143630">
        <ele>1206.8</ele>
        <time>2020-07-13T07:03:34Z</time>
      </trkpt>
      <trkpt lat="37.1771750" lon="-3.0142550">
        <ele>1206.2</ele>
        <time>2020-07-13T07:03:35Z</time>
      </trkpt>
      <trkpt lat="37.1772110" lon="-3.0141280">
        <ele>1205.4</ele>
        <time>2020-07-13T07:03:36Z</time>
      </trkpt>
      <trkpt lat="37.1772780" lon="-3.0138960">
        <ele>1204.0</ele>
        <time>2020-07-13T07:03:38Z</time>
      </trkpt>
      <trkpt lat="37.1773410" lon="-3.0136750">
        <ele>1202.8</ele>
        <time>2020-07-13T07:03:40Z</time>
      </trkpt>
      <trkpt lat="37.1774490" lon="-3.0133380">
        <ele>1201.2</ele>
        <time>2020-07-13T07:03:43Z</time>
      </trkpt>
      <trkpt lat="37.1775820" lon="-3.0129280">
        <ele>1200.0</ele>
        <time>2020-07-13T07:03:47Z</time>
      </trkpt>
      <trkpt lat="37.1776440" lon="-3.0127300">
        <ele>1199.6</ele>
        <time>2020-07-13T07:03:49Z</time>
      </trkpt>
      <trkpt lat="37.1777060" lon="-3.0125420">
        <ele>1199.0</ele>
        <time>2020-07-13T07:03:51Z</time>
      </trkpt>
      <trkpt lat="37.1778430" lon="-3.0121680">
        <ele>1198.6</ele>
        <time>2020-07-13T07:03:55Z</time>
      </trkpt>
      <trkpt lat="37.1779540" lon="-3.0118850">
        <ele>1198.0</ele>
        <time>2020-07-13T07:03:58Z</time>
      </trkpt>
      <trkpt lat="37.1781070" lon="-3.0115110">
        <ele>1197.0</ele>
        <time>2020-07-13T07:04:02Z</time>
      </trkpt>
      <trkpt lat="37.1782180" lon="-3.0112410">
        <ele>1196.6</ele>
        <time>2020-07-13T07:04:05Z</time>
      </trkpt>
      <trkpt lat="37.1783400" lon="-3.0109690">
        <ele>1196.4</ele>
        <time>2020-07-13T07:04:08Z</time>
      </trkpt>
      <trkpt lat="37.1784980" lon="-3.0106230">
        <ele>1195.8</ele>
        <time>2020-07-13T07:04:12Z</time>
      </trkpt>
      <trkpt lat="37.1787210" lon="-3.0101200">
        <ele>1195.4</ele>
        <time>2020-07-13T07:04:18Z</time>
      </trkpt>
      <trkpt lat="37.1788910" lon="-3.0096640">
        <ele>1194.8</ele>
        <time>2020-07-13T07:04:23Z</time>
      </trkpt>
      <trkpt lat="37.1789230" lon="-3.0095640">
        <ele>1194.4</ele>
        <time>2020-07-13T07:04:24Z</time>
      </trkpt>
      <trkpt lat="37.1789540" lon="-3.0094640">
        <ele>1194.0</ele>
        <time>2020-07-13T07:04:25Z</time>
      </trkpt>
      <trkpt lat="37.1790540" lon="-3.0091370">
        <ele>1193.0</ele>
        <time>2020-07-13T07:04:28Z</time>
      </trkpt>
      <trkpt lat="37.1791590" lon="-3.0087910">
        <ele>1191.6</ele>
        <time>2020-07-13T07:04:31Z</time>
      </trkpt>
      <trkpt lat="37.1792290" lon="-3.0085610">
        <ele>1190.6</ele>
        <time>2020-07-13T07:04:33Z</time>
      </trkpt>
      <trkpt lat="37.1792650" lon="-3.0084410">
        <ele>1190.0</ele>
        <time>2020-07-13T07:04:34Z</time>
      </trkpt>
      <trkpt lat="37.1793390" lon="-3.0081940">
        <ele>1188.8</ele>
        <time>2020-07-13T07:04:36Z</time>
      </trkpt>
      <trkpt lat="37.1794130" lon="-3.0079470">
        <ele>1187.8</ele>
        <time>2020-07-13T07:04:38Z</time>
      </trkpt>
      <trkpt lat="37.1795240" lon="-3.0075810">
        <ele>1186.2</ele>
        <time>2020-07-13T07:04:41Z</time>
      </trkpt>
      <trkpt lat="37.1795600" lon="-3.0074610">
        <ele>1185.6</ele>
        <time>2020-07-13T07:04:42Z</time>
      </trkpt>
      <trkpt lat="37.1795960" lon="-3.0073450">
        <ele>1185.0</ele>
        <time>2020-07-13T07:04:43Z</time>
      </trkpt>
      <trkpt lat="37.1797570" lon="-3.0068220">
        <ele>1184.4</ele>
        <time>2020-07-13T07:04:48Z</time>
      </trkpt>
      <trkpt lat="37.1798740" lon="-3.0064430">
        <ele>1184.4</ele>
        <time>2020-07-13T07:04:52Z</time>
      </trkpt>
      <trkpt lat="37.1799860" lon="-3.0060710">
        <ele>1183.8</ele>
        <time>2020-07-13T07:04:56Z</time>
      </trkpt>
      <trkpt lat="37.1800120" lon="-3.0059850">
        <ele>1183.8</ele>
        <time>2020-07-13T07:04:57Z</time>
      </trkpt>
      <trkpt lat="37.1801160" lon="-3.0056350">
        <ele>1183.6</ele>
        <time>2020-07-13T07:05:01Z</time>
      </trkpt>
      <trkpt lat="37.1802410" lon="-3.0052290">
        <ele>1183.6</ele>
        <time>2020-07-13T07:05:06Z</time>
      </trkpt>
      <trkpt lat="37.1804100" lon="-3.0046820">
        <ele>1183.8</ele>
        <time>2020-07-13T07:05:13Z</time>
      </trkpt>
      <trkpt lat="37.1804560" lon="-3.0045300">
        <ele>1183.6</ele>
        <time>2020-07-13T07:05:15Z</time>
      </trkpt>
      <trkpt lat="37.1806500" lon="-3.0038940">
        <ele>1183.2</ele>
        <time>2020-07-13T07:05:23Z</time>
      </trkpt>
      <trkpt lat="37.1807970" lon="-3.0034240">
        <ele>1183.0</ele>
        <time>2020-07-13T07:05:29Z</time>
      </trkpt>
      <trkpt lat="37.1808690" lon="-3.0031860">
        <ele>1182.8</ele>
        <time>2020-07-13T07:05:32Z</time>
      </trkpt>
      <trkpt lat="37.1810850" lon="-3.0024770">
        <ele>1182.4</ele>
        <time>2020-07-13T07:05:41Z</time>
      </trkpt>
      <trkpt lat="37.1811090" lon="-3.0023980">
        <ele>1182.2</ele>
        <time>2020-07-13T07:05:42Z</time>
      </trkpt>
      <trkpt lat="37.1813240" lon="-3.0016920">
        <ele>1182.0</ele>
        <time>2020-07-13T07:05:51Z</time>
      </trkpt>
      <trkpt lat="37.1813490" lon="-3.0016200">
        <ele>1181.8</ele>
        <time>2020-07-13T07:05:52Z</time>
      </trkpt>
      <trkpt lat="37.1813760" lon="-3.0015270">
        <ele>1181.8</ele>
        <time>2020-07-13T07:05:53Z</time>
      </trkpt>
      <trkpt lat="37.1815640" lon="-3.0008840">
        <ele>1181.4</ele>
        <time>2020-07-13T07:06:01Z</time>
      </trkpt>
      <trkpt lat="37.1816130" lon="-3.0007230">
        <ele>1181.2</ele>
        <time>2020-07-13T07:06:03Z</time>
      </trkpt>
      <trkpt lat="37.1816620" lon="-3.0005620">
        <ele>1180.8</ele>
        <time>2020-07-13T07:06:05Z</time>
      </trkpt>
      <trkpt lat="37.1818520" lon="-2.9998900">
        <ele>1180.2</ele>
        <time>2020-07-13T07:06:13Z</time>
      </trkpt>
      <trkpt lat="37.1818750" lon="-2.9998080">
        <ele>1180.0</ele>
        <time>2020-07-13T07:06:14Z</time>
      </trkpt>
      <trkpt lat="37.1820810" lon="-2.9991130">
        <ele>1180.2</ele>
        <time>2020-07-13T07:06:23Z</time>
      </trkpt>
      <trkpt lat="37.1821060" lon="-2.9990470">
        <ele>1180.2</ele>
        <time>2020-07-13T07:06:24Z</time>
      </trkpt>
      <trkpt lat="37.1821980" lon="-2.9987800">
        <ele>1179.8</ele>
        <time>2020-07-13T07:06:28Z</time>
      </trkpt>
      <trkpt lat="37.1822210" lon="-2.9987090">
        <ele>1179.8</ele>
        <time>2020-07-13T07:06:29Z</time>
      </trkpt>
      <trkpt lat="37.1824270" lon="-2.9980790">
        <ele>1179.8</ele>
        <time>2020-07-13T07:06:38Z</time>
      </trkpt>
      <trkpt lat="37.1824520" lon="-2.9980080">
        <ele>1179.8</ele>
        <time>2020-07-13T07:06:39Z</time>
      </trkpt>
      <trkpt lat="37.1825340" lon="-2.9976860">
        <ele>1179.4</ele>
        <time>2020-07-13T07:06:43Z</time>
      </trkpt>
      <trkpt lat="37.1825370" lon="-2.9975490">
        <ele>1179.2</ele>
        <time>2020-07-13T07:06:45Z</time>
      </trkpt>
      <trkpt lat="37.1825420" lon="-2.9971500">
        <ele>1180.0</ele>
        <time>2020-07-13T07:06:51Z</time>
      </trkpt>
      <trkpt lat="37.1825510" lon="-2.9970250">
        <ele>1180.8</ele>
        <time>2020-07-13T07:06:53Z</time>
      </trkpt>
      <trkpt lat="37.1825600" lon="-2.9969640">
        <ele>1180.8</ele>
        <time>2020-07-13T07:06:54Z</time>
      </trkpt>
      <trkpt lat="37.1825760" lon="-2.9967880">
        <ele>1181.2</ele>
        <time>2020-07-13T07:06:57Z</time>
      </trkpt>
      <trkpt lat="37.1825900" lon="-2.9966090">
        <ele>1181.6</ele>
        <time>2020-07-13T07:07:00Z</time>
      </trkpt>
      <trkpt lat="37.1825980" lon="-2.9964870">
        <ele>1182.0</ele>
        <time>2020-07-13T07:07:02Z</time>
      </trkpt>
      <trkpt lat="37.1826210" lon="-2.9961910">
        <ele>1182.8</ele>
        <time>2020-07-13T07:07:07Z</time>
      </trkpt>
      <trkpt lat="37.1826470" lon="-2.9960190">
        <ele>1183.0</ele>
        <time>2020-07-13T07:07:10Z</time>
      </trkpt>
      <trkpt lat="37.1826930" lon="-2.9957860">
        <ele>1183.6</ele>
        <time>2020-07-13T07:07:14Z</time>
      </trkpt>
      <trkpt lat="37.1827140" lon="-2.9956720">
        <ele>1184.0</ele>
        <time>2020-07-13T07:07:16Z</time>
      </trkpt>
      <trkpt lat="37.1827350" lon="-2.9954870">
        <ele>1184.2</ele>
        <time>2020-07-13T07:07:19Z</time>
      </trkpt>
      <trkpt lat="37.1827280" lon="-2.9953660">
        <ele>1184.2</ele>
        <time>2020-07-13T07:07:21Z</time>
      </trkpt>
      <trkpt lat="37.1826800" lon="-2.9950790">
        <ele>1184.4</ele>
        <time>2020-07-13T07:07:26Z</time>
      </trkpt>
      <trkpt lat="37.1826680" lon="-2.9950300">
        <ele>1184.6</ele>
        <time>2020-07-13T07:07:27Z</time>
      </trkpt>
      <trkpt lat="37.1826510" lon="-2.9949320">
        <ele>1185.0</ele>
        <time>2020-07-13T07:07:29Z</time>
      </trkpt>
      <trkpt lat="37.1826180" lon="-2.9947540">
        <ele>1186.2</ele>
        <time>2020-07-13T07:07:33Z</time>
      </trkpt>
      <trkpt lat="37.1825820" lon="-2.9945700">
        <ele>1187.2</ele>
        <time>2020-07-13T07:07:37Z</time>
      </trkpt>
      <trkpt lat="37.1825590" lon="-2.9944390">
        <ele>1187.6</ele>
        <time>2020-07-13T07:07:40Z</time>
      </trkpt>
      <trkpt lat="37.1825320" lon="-2.9942760">
        <ele>1188.2</ele>
        <time>2020-07-13T07:07:43Z</time>
      </trkpt>
      <trkpt lat="37.1825070" lon="-2.9941110">
        <ele>1188.6</ele>
        <time>2020-07-13T07:07:46Z</time>
      </trkpt>
      <trkpt lat="37.1824950" lon="-2.9939310">
        <ele>1188.6</ele>
        <time>2020-07-13T07:07:49Z</time>
      </trkpt>
      <trkpt lat="37.1825030" lon="-2.9936100">
        <ele>1188.4</ele>
        <time>2020-07-13T07:07:54Z</time>
      </trkpt>
      <trkpt lat="37.1825000" lon="-2.9932120">
        <ele>1188.2</ele>
        <time>2020-07-13T07:08:00Z</time>
      </trkpt>
      <trkpt lat="37.1824950" lon="-2.9930100">
        <ele>1188.4</ele>
        <time>2020-07-13T07:08:03Z</time>
      </trkpt>
      <trkpt lat="37.1825030" lon="-2.9927580">
        <ele>1188.2</ele>
        <time>2020-07-13T07:08:07Z</time>
      </trkpt>
      <trkpt lat="37.1825320" lon="-2.9927130">
        <ele>1188.2</ele>
        <time>2020-07-13T07:08:08Z</time>
      </trkpt>
      <trkpt lat="37.1826390" lon="-2.9926020">
        <ele>1188.4</ele>
        <time>2020-07-13T07:08:11Z</time>
      </trkpt>
      <trkpt lat="37.1827500" lon="-2.9923710">
        <ele>1189.4</ele>
        <time>2020-07-13T07:08:16Z</time>
      </trkpt>
      <trkpt lat="37.1827700" lon="-2.9923210">
        <ele>1189.4</ele>
        <time>2020-07-13T07:08:17Z</time>
      </trkpt>
      <trkpt lat="37.1828590" lon="-2.9920940">
        <ele>1190.4</ele>
        <time>2020-07-13T07:08:22Z</time>
      </trkpt>
      <trkpt lat="37.1828750" lon="-2.9920240">
        <ele>1190.6</ele>
        <time>2020-07-13T07:08:24Z</time>
      </trkpt>
      <trkpt lat="37.1828900" lon="-2.9919470">
        <ele>1190.6</ele>
        <time>2020-07-13T07:08:26Z</time>
      </trkpt>
      <trkpt lat="37.1829200" lon="-2.9918620">
        <ele>1190.2</ele>
        <time>2020-07-13T07:08:28Z</time>
      </trkpt>
      <trkpt lat="37.1829440" lon="-2.9918160">
        <ele>1190.0</ele>
        <time>2020-07-13T07:08:29Z</time>
      </trkpt>
      <trkpt lat="37.1830060" lon="-2.9917310">
        <ele>1189.6</ele>
        <time>2020-07-13T07:08:31Z</time>
      </trkpt>
      <trkpt lat="37.1830760" lon="-2.9916560">
        <ele>1189.4</ele>
        <time>2020-07-13T07:08:33Z</time>
      </trkpt>
      <trkpt lat="37.1831130" lon="-2.9916210">
        <ele>1189.2</ele>
        <time>2020-07-13T07:08:34Z</time>
      </trkpt>
      <trkpt lat="37.1831880" lon="-2.9915530">
        <ele>1189.0</ele>
        <time>2020-07-13T07:08:36Z</time>
      </trkpt>
      <trkpt lat="37.1834520" lon="-2.9913700">
        <ele>1188.6</ele>
        <time>2020-07-13T07:08:42Z</time>
      </trkpt>
      <trkpt lat="37.1836060" lon="-2.9913470">
        <ele>1188.4</ele>
        <time>2020-07-13T07:08:45Z</time>
      </trkpt>
      <trkpt lat="37.1837060" lon="-2.9913500">
        <ele>1188.2</ele>
        <time>2020-07-13T07:08:47Z</time>
      </trkpt>
      <trkpt lat="37.1838000" lon="-2.9913550">
        <ele>1188.0</ele>
        <time>2020-07-13T07:08:50Z</time>
      </trkpt>
      <trkpt lat="37.1838370" lon="-2.9913790">
        <ele>1187.8</ele>
        <time>2020-07-13T07:08:52Z</time>
      </trkpt>
      <trkpt lat="37.1838010" lon="-2.9913830">
        <ele>1187.6</ele>
        <time>2020-07-13T07:08:55Z</time>
      </trkpt>
      <trkpt lat="37.1837860" lon="-2.9913750">
        <ele>1187.6</ele>
        <time>2020-07-13T07:08:56Z</time>
      </trkpt>
      <trkpt lat="37.1836860" lon="-2.9913480">
        <ele>1187.6</ele>
        <time>2020-07-13T07:09:00Z</time>
      </trkpt>
      <trkpt lat="37.1835910" lon="-2.9913580">
        <ele>1187.6</ele>
        <time>2020-07-13T07:09:03Z</time>
      </trkpt>
      <trkpt lat="37.1834940" lon="-2.9913730">
        <ele>1187.6</ele>
        <time>2020-07-13T07:09:06Z</time>
      </trkpt>
      <trkpt lat="37.1832920" lon="-2.9914760">
        <ele>1187.8</ele>
        <time>2020-07-13T07:09:12Z</time>
      </trkpt>
      <trkpt lat="37.1830650" lon="-2.9916670">
        <ele>1188.6</ele>
        <time>2020-07-13T07:09:19Z</time>
      </trkpt>
      <trkpt lat="37.1829150" lon="-2.9918620">
        <ele>1188.8</ele>
        <time>2020-07-13T07:09:24Z</time>
      </trkpt>
      <trkpt lat="37.1828980" lon="-2.9919050">
        <ele>1189.0</ele>
        <time>2020-07-13T07:09:25Z</time>
      </trkpt>
      <trkpt lat="37.1828590" lon="-2.9920510">
        <ele>1189.2</ele>
        <time>2020-07-13T07:09:28Z</time>
      </trkpt>
      <trkpt lat="37.1828450" lon="-2.9920990">
        <ele>1189.4</ele>
        <time>2020-07-13T07:09:29Z</time>
      </trkpt>
      <trkpt lat="37.1828010" lon="-2.9922320">
        <ele>1190.0</ele>
        <time>2020-07-13T07:09:32Z</time>
      </trkpt>
      <trkpt lat="37.1827630" lon="-2.9923330">
        <ele>1190.4</ele>
        <time>2020-07-13T07:09:34Z</time>
      </trkpt>
      <trkpt lat="37.1826870" lon="-2.9925160">
        <ele>1190.4</ele>
        <time>2020-07-13T07:09:37Z</time>
      </trkpt>
      <trkpt lat="37.1826320" lon="-2.9926300">
        <ele>1190.2</ele>
        <time>2020-07-13T07:09:39Z</time>
      </trkpt>
      <trkpt lat="37.1825540" lon="-2.9926910">
        <ele>1189.8</ele>
        <time>2020-07-13T07:09:41Z</time>
      </trkpt>
      <trkpt lat="37.1824210" lon="-2.9926140">
        <ele>1189.2</ele>
        <time>2020-07-13T07:09:44Z</time>
      </trkpt>
      <trkpt lat="37.1823840" lon="-2.9925820">
        <ele>1189.0</ele>
        <time>2020-07-13T07:09:45Z</time>
      </trkpt>
      <trkpt lat="37.1820950" lon="-2.9923940">
        <ele>1188.6</ele>
        <time>2020-07-13T07:09:51Z</time>
      </trkpt>
      <trkpt lat="37.1820090" lon="-2.9923330">
        <ele>1188.6</ele>
        <time>2020-07-13T07:09:53Z</time>
      </trkpt>
      <trkpt lat="37.1819730" lon="-2.9922810">
        <ele>1188.6</ele>
        <time>2020-07-13T07:09:55Z</time>
      </trkpt>
      <trkpt lat="37.1819780" lon="-2.9921470">
        <ele>1188.6</ele>
        <time>2020-07-13T07:09:59Z</time>
      </trkpt>
      <trkpt lat="37.1819920" lon="-2.9921080">
        <ele>1188.6</ele>
        <time>2020-07-13T07:10:02Z</time>
      </trkpt>
      <trkpt lat="37.1820250" lon="-2.9920830">
        <ele>1188.4</ele>
        <time>2020-07-13T07:10:16Z</time>
      </trkpt>
      <trkpt lat="37.1821130" lon="-2.9919630">
        <ele>1188.2</ele>
        <time>2020-07-13T07:10:21Z</time>
      </trkpt>
      <trkpt lat="37.1821350" lon="-2.9919350">
        <ele>1187.8</ele>
        <time>2020-07-13T07:10:24Z</time>
      </trkpt>
      <trkpt lat="37.1821540" lon="-2.9918900">
        <ele>1187.4</ele>
        <time>2020-07-13T07:12:44Z</time>
      </trkpt>
      <trkpt lat="37.1821680" lon="-2.9918770">
        <ele>1187.4</ele>
        <time>2020-07-13T07:12:45Z</time>
      </trkpt>
      <trkpt lat="37.1821810" lon="-2.9918570">
        <ele>1187.2</ele>
        <time>2020-07-13T07:12:46Z</time>
      </trkpt>
      <trkpt lat="37.1822140" lon="-2.9918030">
        <ele>1187.0</ele>
        <time>2020-07-13T07:12:48Z</time>
      </trkpt>
      <trkpt lat="37.1822620" lon="-2.9917290">
        <ele>1186.6</ele>
        <time>2020-07-13T07:12:50Z</time>
      </trkpt>
      <trkpt lat="37.1823700" lon="-2.9915670">
        <ele>1186.0</ele>
        <time>2020-07-13T07:12:53Z</time>
      </trkpt>
      <trkpt lat="37.1824150" lon="-2.9915040">
        <ele>1185.6</ele>
        <time>2020-07-13T07:12:54Z</time>
      </trkpt>
      <trkpt lat="37.1825010" lon="-2.9913650">
        <ele>1184.8</ele>
        <time>2020-07-13T07:12:56Z</time>
      </trkpt>
      <trkpt lat="37.1825630" lon="-2.9912220">
        <ele>1184.0</ele>
        <time>2020-07-13T07:12:58Z</time>
      </trkpt>
      <trkpt lat="37.1825800" lon="-2.9911330">
        <ele>1183.6</ele>
        <time>2020-07-13T07:12:59Z</time>
      </trkpt>
      <trkpt lat="37.1825720" lon="-2.9908610">
        <ele>1182.0</ele>
        <time>2020-07-13T07:13:02Z</time>
      </trkpt>
      <trkpt lat="37.1825590" lon="-2.9907690">
        <ele>1181.6</ele>
        <time>2020-07-13T07:13:03Z</time>
      </trkpt>
      <trkpt lat="37.1825460" lon="-2.9906730">
        <ele>1181.2</ele>
        <time>2020-07-13T07:13:04Z</time>
      </trkpt>
      <trkpt lat="37.1825370" lon="-2.9905750">
        <ele>1181.0</ele>
        <time>2020-07-13T07:13:05Z</time>
      </trkpt>
      <trkpt lat="37.1825050" lon="-2.9902690">
        <ele>1179.8</ele>
        <time>2020-07-13T07:13:08Z</time>
      </trkpt>
      <trkpt lat="37.1824930" lon="-2.9901760">
        <ele>1179.6</ele>
        <time>2020-07-13T07:13:09Z</time>
      </trkpt>
      <trkpt lat="37.1824560" lon="-2.9898680">
        <ele>1178.8</ele>
        <time>2020-07-13T07:13:12Z</time>
      </trkpt>
      <trkpt lat="37.1824200" lon="-2.9895040">
        <ele>1177.8</ele>
        <time>2020-07-13T07:13:16Z</time>
      </trkpt>
      <trkpt lat="37.1824160" lon="-2.9894310">
        <ele>1177.4</ele>
        <time>2020-07-13T07:13:17Z</time>
      </trkpt>
      <trkpt lat="37.1824190" lon="-2.9893400">
        <ele>1176.6</ele>
        <time>2020-07-13T07:13:19Z</time>
      </trkpt>
      <trkpt lat="37.1824280" lon="-2.9893110">
        <ele>1176.4</ele>
        <time>2020-07-13T07:13:20Z</time>
      </trkpt>
      <trkpt lat="37.1824650" lon="-2.9892560">
        <ele>1175.2</ele>
        <time>2020-07-13T07:13:22Z</time>
      </trkpt>
      <trkpt lat="37.1825010" lon="-2.9892380">
        <ele>1174.8</ele>
        <time>2020-07-13T07:13:23Z</time>
      </trkpt>
      <trkpt lat="37.1825430" lon="-2.9892280">
        <ele>1174.6</ele>
        <time>2020-07-13T07:13:24Z</time>
      </trkpt>
      <trkpt lat="37.1826440" lon="-2.9892110">
        <ele>1174.2</ele>
        <time>2020-07-13T07:13:26Z</time>
      </trkpt>
      <trkpt lat="37.1827030" lon="-2.9892020">
        <ele>1174.0</ele>
        <time>2020-07-13T07:13:27Z</time>
      </trkpt>
      <trkpt lat="37.1828310" lon="-2.9891820">
        <ele>1173.8</ele>
        <time>2020-07-13T07:13:29Z</time>
      </trkpt>
      <trkpt lat="37.1830890" lon="-2.9891620">
        <ele>1173.0</ele>
        <time>2020-07-13T07:13:33Z</time>
      </trkpt>
      <trkpt lat="37.1832920" lon="-2.9891450">
        <ele>1172.2</ele>
        <time>2020-07-13T07:13:36Z</time>
      </trkpt>
      <trkpt lat="37.1834260" lon="-2.9891390">
        <ele>1172.0</ele>
        <time>2020-07-13T07:13:38Z</time>
      </trkpt>
      <trkpt lat="37.1837590" lon="-2.9891220">
        <ele>1171.2</ele>
        <time>2020-07-13T07:13:43Z</time>
      </trkpt>
      <trkpt lat="37.1838230" lon="-2.9891200">
        <ele>1170.8</ele>
        <time>2020-07-13T07:13:44Z</time>
      </trkpt>
      <trkpt lat="37.1840210" lon="-2.9890820">
        <ele>1170.4</ele>
        <time>2020-07-13T07:13:47Z</time>
      </trkpt>
      <trkpt lat="37.1840860" lon="-2.9890550">
        <ele>1170.2</ele>
        <time>2020-07-13T07:13:48Z</time>
      </trkpt>
      <trkpt lat="37.1843530" lon="-2.9889670">
        <ele>1169.8</ele>
        <time>2020-07-13T07:13:52Z</time>
      </trkpt>
      <trkpt lat="37.1845030" lon="-2.9889230">
        <ele>1169.8</ele>
        <time>2020-07-13T07:13:54Z</time>
      </trkpt>
      <trkpt lat="37.1848930" lon="-2.9888220">
        <ele>1168.6</ele>
        <time>2020-07-13T07:13:59Z</time>
      </trkpt>
      <trkpt lat="37.1851450" lon="-2.9887610">
        <ele>1168.0</ele>
        <time>2020-07-13T07:14:02Z</time>
      </trkpt>
      <trkpt lat="37.1853130" lon="-2.9887160">
        <ele>1167.4</ele>
        <time>2020-07-13T07:14:04Z</time>
      </trkpt>
      <trkpt lat="37.1857340" lon="-2.9885810">
        <ele>1166.2</ele>
        <time>2020-07-13T07:14:09Z</time>
      </trkpt>
      <trkpt lat="37.1858160" lon="-2.9885400">
        <ele>1165.8</ele>
        <time>2020-07-13T07:14:10Z</time>
      </trkpt>
      <trkpt lat="37.1860000" lon="-2.9884270">
        <ele>1165.2</ele>
        <time>2020-07-13T07:14:12Z</time>
      </trkpt>
      <trkpt lat="37.1861710" lon="-2.9882970">
        <ele>1164.0</ele>
        <time>2020-07-13T07:14:14Z</time>
      </trkpt>
      <trkpt lat="37.1863240" lon="-2.9881450">
        <ele>1162.8</ele>
        <time>2020-07-13T07:14:16Z</time>
      </trkpt>
      <trkpt lat="37.1864890" lon="-2.9879760">
        <ele>1161.6</ele>
        <time>2020-07-13T07:14:18Z</time>
      </trkpt>
      <trkpt lat="37.1866510" lon="-2.9878280">
        <ele>1160.4</ele>
        <time>2020-07-13T07:14:20Z</time>
      </trkpt>
      <trkpt lat="37.1869000" lon="-2.9876030">
        <ele>1159.2</ele>
        <time>2020-07-13T07:14:23Z</time>
      </trkpt>
      <trkpt lat="37.1871480" lon="-2.9873930">
        <ele>1158.6</ele>
        <time>2020-07-13T07:14:26Z</time>
      </trkpt>
      <trkpt lat="37.1873230" lon="-2.9872810">
        <ele>1158.2</ele>
        <time>2020-07-13T07:14:28Z</time>
      </trkpt>
      <trkpt lat="37.1874230" lon="-2.9872360">
        <ele>1157.8</ele>
        <time>2020-07-13T07:14:29Z</time>
      </trkpt>
      <trkpt lat="37.1875140" lon="-2.9871980">
        <ele>1157.2</ele>
        <time>2020-07-13T07:14:30Z</time>
      </trkpt>
      <trkpt lat="37.1876120" lon="-2.9871630">
        <ele>1156.8</ele>
        <time>2020-07-13T07:14:31Z</time>
      </trkpt>
      <trkpt lat="37.1878040" lon="-2.9871000">
        <ele>1155.6</ele>
        <time>2020-07-13T07:14:33Z</time>
      </trkpt>
      <trkpt lat="37.1880970" lon="-2.9870240">
        <ele>1154.6</ele>
        <time>2020-07-13T07:14:36Z</time>
      </trkpt>
      <trkpt lat="37.1884750" lon="-2.9869750">
        <ele>1153.6</ele>
        <time>2020-07-13T07:14:40Z</time>
      </trkpt>
      <trkpt lat="37.1886790" lon="-2.9869440">
        <ele>1153.2</ele>
        <time>2020-07-13T07:14:42Z</time>
      </trkpt>
      <trkpt lat="37.1888720" lon="-2.9869080">
        <ele>1152.6</ele>
        <time>2020-07-13T07:14:44Z</time>
      </trkpt>
      <trkpt lat="37.1890650" lon="-2.9868640">
        <ele>1152.2</ele>
        <time>2020-07-13T07:14:46Z</time>
      </trkpt>
      <trkpt lat="37.1893510" lon="-2.9867670">
        <ele>1151.0</ele>
        <time>2020-07-13T07:14:49Z</time>
      </trkpt>
      <trkpt lat="37.1898200" lon="-2.9865810">
        <ele>1149.8</ele>
        <time>2020-07-13T07:14:54Z</time>
      </trkpt>
      <trkpt lat="37.1900930" lon="-2.9864670">
        <ele>1149.0</ele>
        <time>2020-07-13T07:14:57Z</time>
      </trkpt>
      <trkpt lat="37.1902810" lon="-2.9863830">
        <ele>1148.6</ele>
        <time>2020-07-13T07:14:59Z</time>
      </trkpt>
      <trkpt lat="37.1903660" lon="-2.9863410">
        <ele>1148.4</ele>
        <time>2020-07-13T07:15:00Z</time>
      </trkpt>
      <trkpt lat="37.1905430" lon="-2.9862440">
        <ele>1147.6</ele>
        <time>2020-07-13T07:15:02Z</time>
      </trkpt>
      <trkpt lat="37.1907970" lon="-2.9860950">
        <ele>1146.4</ele>
        <time>2020-07-13T07:15:05Z</time>
      </trkpt>
      <trkpt lat="37.1909750" lon="-2.9860020">
        <ele>1145.8</ele>
        <time>2020-07-13T07:15:07Z</time>
      </trkpt>
      <trkpt lat="37.1912360" lon="-2.9858800">
        <ele>1145.4</ele>
        <time>2020-07-13T07:15:10Z</time>
      </trkpt>
      <trkpt lat="37.1915010" lon="-2.9857750">
        <ele>1144.2</ele>
        <time>2020-07-13T07:15:13Z</time>
      </trkpt>
      <trkpt lat="37.1916520" lon="-2.9857280">
        <ele>1143.6</ele>
        <time>2020-07-13T07:15:15Z</time>
      </trkpt>
      <trkpt lat="37.1918080" lon="-2.9856880">
        <ele>1143.2</ele>
        <time>2020-07-13T07:15:17Z</time>
      </trkpt>
      <trkpt lat="37.1919960" lon="-2.9856560">
        <ele>1142.6</ele>
        <time>2020-07-13T07:15:20Z</time>
      </trkpt>
      <trkpt lat="37.1920470" lon="-2.9856510">
        <ele>1142.0</ele>
        <time>2020-07-13T07:15:21Z</time>
      </trkpt>
      <trkpt lat="37.1921580" lon="-2.9856460">
        <ele>1141.4</ele>
        <time>2020-07-13T07:15:23Z</time>
      </trkpt>
      <trkpt lat="37.1922120" lon="-2.9856540">
        <ele>1141.0</ele>
        <time>2020-07-13T07:15:24Z</time>
      </trkpt>
      <trkpt lat="37.1923210" lon="-2.9856820">
        <ele>1140.6</ele>
        <time>2020-07-13T07:15:26Z</time>
      </trkpt>
      <trkpt lat="37.1924260" lon="-2.9857220">
        <ele>1140.0</ele>
        <time>2020-07-13T07:15:28Z</time>
      </trkpt>
      <trkpt lat="37.1926430" lon="-2.9858620">
        <ele>1139.0</ele>
        <time>2020-07-13T07:15:32Z</time>
      </trkpt>
      <trkpt lat="37.1928050" lon="-2.9860060">
        <ele>1137.8</ele>
        <time>2020-07-13T07:15:35Z</time>
      </trkpt>
      <trkpt lat="37.1929240" lon="-2.9860930">
        <ele>1137.2</ele>
        <time>2020-07-13T07:15:37Z</time>
      </trkpt>
      <trkpt lat="37.1929840" lon="-2.9861040">
        <ele>1136.8</ele>
        <time>2020-07-13T07:15:38Z</time>
      </trkpt>
      <trkpt lat="37.1930400" lon="-2.9860900">
        <ele>1136.6</ele>
        <time>2020-07-13T07:15:39Z</time>
      </trkpt>
      <trkpt lat="37.1931340" lon="-2.9859900">
        <ele>1136.2</ele>
        <time>2020-07-13T07:15:41Z</time>
      </trkpt>
      <trkpt lat="37.1931690" lon="-2.9858410">
        <ele>1135.6</ele>
        <time>2020-07-13T07:15:43Z</time>
      </trkpt>
      <trkpt lat="37.1931660" lon="-2.9857660">
        <ele>1135.4</ele>
        <time>2020-07-13T07:15:44Z</time>
      </trkpt>
      <trkpt lat="37.1931480" lon="-2.9856340">
        <ele>1135.0</ele>
        <time>2020-07-13T07:15:46Z</time>
      </trkpt>
      <trkpt lat="37.1931230" lon="-2.9854580">
        <ele>1135.6</ele>
        <time>2020-07-13T07:15:49Z</time>
      </trkpt>
      <trkpt lat="37.1931150" lon="-2.9853550">
        <ele>1136.2</ele>
        <time>2020-07-13T07:15:51Z</time>
      </trkpt>
      <trkpt lat="37.1931170" lon="-2.9853070">
        <ele>1136.6</ele>
        <time>2020-07-13T07:15:52Z</time>
      </trkpt>
      <trkpt lat="37.1931350" lon="-2.9852140">
        <ele>1137.2</ele>
        <time>2020-07-13T07:15:54Z</time>
      </trkpt>
      <trkpt lat="37.1932280" lon="-2.9850480">
        <ele>1137.4</ele>
        <time>2020-07-13T07:15:58Z</time>
      </trkpt>
      <trkpt lat="37.1932680" lon="-2.9850150">
        <ele>1137.4</ele>
        <time>2020-07-13T07:15:59Z</time>
      </trkpt>
      <trkpt lat="37.1935020" lon="-2.9848730">
        <ele>1137.2</ele>
        <time>2020-07-13T07:16:04Z</time>
      </trkpt>
      <trkpt lat="37.1935510" lon="-2.9848420">
        <ele>1137.2</ele>
        <time>2020-07-13T07:16:05Z</time>
      </trkpt>
      <trkpt lat="37.1935960" lon="-2.9848020">
        <ele>1137.0</ele>
        <time>2020-07-13T07:16:06Z</time>
      </trkpt>
      <trkpt lat="37.1936500" lon="-2.9846880">
        <ele>1136.8</ele>
        <time>2020-07-13T07:16:08Z</time>
      </trkpt>
      <trkpt lat="37.1936520" lon="-2.9845320">
        <ele>1136.4</ele>
        <time>2020-07-13T07:16:11Z</time>
      </trkpt>
      <trkpt lat="37.1936250" lon="-2.9843750">
        <ele>1136.0</ele>
        <time>2020-07-13T07:16:16Z</time>
      </trkpt>
      <trkpt lat="37.1936580" lon="-2.9843080">
        <ele>1136.0</ele>
        <time>2020-07-13T07:16:21Z</time>
      </trkpt>
      <trkpt lat="37.1936840" lon="-2.9844310">
        <ele>1136.0</ele>
        <time>2020-07-13T07:16:24Z</time>
      </trkpt>
      <trkpt lat="37.1936840" lon="-2.9845260">
        <ele>1136.0</ele>
        <time>2020-07-13T07:16:26Z</time>
      </trkpt>
      <trkpt lat="37.1936580" lon="-2.9846760">
        <ele>1136.0</ele>
        <time>2020-07-13T07:16:29Z</time>
      </trkpt>
      <trkpt lat="37.1936380" lon="-2.9847300">
        <ele>1136.0</ele>
        <time>2020-07-13T07:16:30Z</time>
      </trkpt>
      <trkpt lat="37.1935600" lon="-2.9848650">
        <ele>1136.2</ele>
        <time>2020-07-13T07:16:33Z</time>
      </trkpt>
      <trkpt lat="37.1935010" lon="-2.9849460">
        <ele>1136.4</ele>
        <time>2020-07-13T07:16:35Z</time>
      </trkpt>
      <trkpt lat="37.1934300" lon="-2.9850180">
        <ele>1136.6</ele>
        <time>2020-07-13T07:16:37Z</time>
      </trkpt>
      <trkpt lat="37.1933240" lon="-2.9850930">
        <ele>1137.0</ele>
        <time>2020-07-13T07:16:40Z</time>
      </trkpt>
      <trkpt lat="37.1932920" lon="-2.9851160">
        <ele>1137.0</ele>
        <time>2020-07-13T07:16:41Z</time>
      </trkpt>
      <trkpt lat="37.1931410" lon="-2.9852650">
        <ele>1137.2</ele>
        <time>2020-07-13T07:16:47Z</time>
      </trkpt>
      <trkpt lat="37.1931520" lon="-2.9854730">
        <ele>1137.2</ele>
        <time>2020-07-13T07:16:51Z</time>
      </trkpt>
      <trkpt lat="37.1931820" lon="-2.9857100">
        <ele>1137.0</ele>
        <time>2020-07-13T07:16:54Z</time>
      </trkpt>
      <trkpt lat="37.1932120" lon="-2.9858750">
        <ele>1136.6</ele>
        <time>2020-07-13T07:16:56Z</time>
      </trkpt>
      <trkpt lat="37.1932940" lon="-2.9860170">
        <ele>1135.8</ele>
        <time>2020-07-13T07:16:58Z</time>
      </trkpt>
      <trkpt lat="37.1933450" lon="-2.9860720">
        <ele>1135.4</ele>
        <time>2020-07-13T07:16:59Z</time>
      </trkpt>
      <trkpt lat="37.1933910" lon="-2.9861260">
        <ele>1135.0</ele>
        <time>2020-07-13T07:17:00Z</time>
      </trkpt>
      <trkpt lat="37.1934330" lon="-2.9861780">
        <ele>1134.6</ele>
        <time>2020-07-13T07:17:01Z</time>
      </trkpt>
      <trkpt lat="37.1934800" lon="-2.9862480">
        <ele>1134.4</ele>
        <time>2020-07-13T07:17:02Z</time>
      </trkpt>
      <trkpt lat="37.1935770" lon="-2.9863630">
        <ele>1134.0</ele>
        <time>2020-07-13T07:17:04Z</time>
      </trkpt>
      <trkpt lat="37.1936440" lon="-2.9864000">
        <ele>1133.8</ele>
        <time>2020-07-13T07:17:05Z</time>
      </trkpt>
      <trkpt lat="37.1937980" lon="-2.9864040">
        <ele>1133.2</ele>
        <time>2020-07-13T07:17:07Z</time>
      </trkpt>
      <trkpt lat="37.1938770" lon="-2.9863850">
        <ele>1133.0</ele>
        <time>2020-07-13T07:17:08Z</time>
      </trkpt>
      <trkpt lat="37.1940350" lon="-2.9863360">
        <ele>1132.4</ele>
        <time>2020-07-13T07:17:10Z</time>
      </trkpt>
      <trkpt lat="37.1941060" lon="-2.9863110">
        <ele>1132.2</ele>
        <time>2020-07-13T07:17:11Z</time>
      </trkpt>
      <trkpt lat="37.1942910" lon="-2.9862680">
        <ele>1131.4</ele>
        <time>2020-07-13T07:17:13Z</time>
      </trkpt>
      <trkpt lat="37.1943920" lon="-2.9862750">
        <ele>1131.0</ele>
        <time>2020-07-13T07:17:14Z</time>
      </trkpt>
      <trkpt lat="37.1945650" lon="-2.9862970">
        <ele>1130.6</ele>
        <time>2020-07-13T07:17:16Z</time>
      </trkpt>
      <trkpt lat="37.1946290" lon="-2.9862690">
        <ele>1130.6</ele>
        <time>2020-07-13T07:17:17Z</time>
      </trkpt>
      <trkpt lat="37.1948290" lon="-2.9861760">
        <ele>1130.2</ele>
        <time>2020-07-13T07:17:20Z</time>
      </trkpt>
      <trkpt lat="37.1949350" lon="-2.9861240">
        <ele>1130.2</ele>
        <time>2020-07-13T07:17:22Z</time>
      </trkpt>
      <trkpt lat="37.1950290" lon="-2.9860760">
        <ele>1130.0</ele>
        <time>2020-07-13T07:17:24Z</time>
      </trkpt>
      <trkpt lat="37.1951540" lon="-2.9860260">
        <ele>1129.8</ele>
        <time>2020-07-13T07:17:27Z</time>
      </trkpt>
      <trkpt lat="37.1952300" lon="-2.9859970">
        <ele>1129.6</ele>
        <time>2020-07-13T07:17:29Z</time>
      </trkpt>
      <trkpt lat="37.1954180" lon="-2.9859260">
        <ele>1129.4</ele>
        <time>2020-07-13T07:17:34Z</time>
      </trkpt>
      <trkpt lat="37.1955300" lon="-2.9858670">
        <ele>1129.4</ele>
        <time>2020-07-13T07:17:37Z</time>
      </trkpt>
      <trkpt lat="37.1955900" lon="-2.9857820">
        <ele>1129.4</ele>
        <time>2020-07-13T07:17:39Z</time>
      </trkpt>
      <trkpt lat="37.1956280" lon="-2.9856980">
        <ele>1129.2</ele>
        <time>2020-07-13T07:17:41Z</time>
      </trkpt>
      <trkpt lat="37.1956800" lon="-2.9856040">
        <ele>1129.2</ele>
        <time>2020-07-13T07:17:43Z</time>
      </trkpt>
      <trkpt lat="37.1957120" lon="-2.9855690">
        <ele>1129.4</ele>
        <time>2020-07-13T07:17:44Z</time>
      </trkpt>
      <trkpt lat="37.1958210" lon="-2.9854390">
        <ele>1129.6</ele>
        <time>2020-07-13T07:17:49Z</time>
      </trkpt>
      <trkpt lat="37.1958160" lon="-2.9854460">
        <ele>1129.6</ele>
        <time>2020-07-13T07:17:50Z</time>
      </trkpt>
      <trkpt lat="37.1958680" lon="-2.9853580">
        <ele>1129.6</ele>
        <time>2020-07-13T07:20:57Z</time>
      </trkpt>
      <trkpt lat="37.1958730" lon="-2.9853500">
        <ele>1129.6</ele>
        <time>2020-07-13T07:20:58Z</time>
      </trkpt>
      <trkpt lat="37.1958830" lon="-2.9853310">
        <ele>1129.6</ele>
        <time>2020-07-13T07:20:59Z</time>
      </trkpt>
      <trkpt lat="37.1958940" lon="-2.9853110">
        <ele>1129.6</ele>
        <time>2020-07-13T07:21:00Z</time>
      </trkpt>
      <trkpt lat="37.1959320" lon="-2.9852150">
        <ele>1129.6</ele>
        <time>2020-07-13T07:21:03Z</time>
      </trkpt>
      <trkpt lat="37.1959460" lon="-2.9851730">
        <ele>1129.8</ele>
        <time>2020-07-13T07:21:04Z</time>
      </trkpt>
      <trkpt lat="37.1959700" lon="-2.9850690">
        <ele>1129.8</ele>
        <time>2020-07-13T07:21:06Z</time>
      </trkpt>
      <trkpt lat="37.1959610" lon="-2.9849550">
        <ele>1129.8</ele>
        <time>2020-07-13T07:21:08Z</time>
      </trkpt>
      <trkpt lat="37.1959300" lon="-2.9847590">
        <ele>1129.6</ele>
        <time>2020-07-13T07:21:12Z</time>
      </trkpt>
      <trkpt lat="37.1959120" lon="-2.9846680">
        <ele>1129.4</ele>
        <time>2020-07-13T07:21:14Z</time>
      </trkpt>
      <trkpt lat="37.1958860" lon="-2.9845770">
        <ele>1129.4</ele>
        <time>2020-07-13T07:21:16Z</time>
      </trkpt>
      <trkpt lat="37.1958420" lon="-2.9843480">
        <ele>1129.6</ele>
        <time>2020-07-13T07:21:20Z</time>
      </trkpt>
      <trkpt lat="37.1958220" lon="-2.9842330">
        <ele>1129.6</ele>
        <time>2020-07-13T07:21:22Z</time>
      </trkpt>
      <trkpt lat="37.1958140" lon="-2.9841840">
        <ele>1129.4</ele>
        <time>2020-07-13T07:21:23Z</time>
      </trkpt>
      <trkpt lat="37.1957850" lon="-2.9840160">
        <ele>1129.4</ele>
        <time>2020-07-13T07:21:27Z</time>
      </trkpt>
      <trkpt lat="37.1957420" lon="-2.9837530">
        <ele>1129.2</ele>
        <time>2020-07-13T07:21:32Z</time>
      </trkpt>
      <trkpt lat="37.1956990" lon="-2.9836850">
        <ele>1129.2</ele>
        <time>2020-07-13T07:21:34Z</time>
      </trkpt>
      <trkpt lat="37.1955440" lon="-2.9836520">
        <ele>1129.2</ele>
        <time>2020-07-13T07:21:38Z</time>
      </trkpt>
      <trkpt lat="37.1953920" lon="-2.9837280">
        <ele>1129.4</ele>
        <time>2020-07-13T07:21:42Z</time>
      </trkpt>
      <trkpt lat="37.1953160" lon="-2.9837730">
        <ele>1129.6</ele>
        <time>2020-07-13T07:21:44Z</time>
      </trkpt>
      <trkpt lat="37.1952020" lon="-2.9838380">
        <ele>1130.0</ele>
        <time>2020-07-13T07:21:47Z</time>
      </trkpt>
      <trkpt lat="37.1950450" lon="-2.9839230">
        <ele>1130.4</ele>
        <time>2020-07-13T07:21:51Z</time>
      </trkpt>
      <trkpt lat="37.1949670" lon="-2.9839740">
        <ele>1130.8</ele>
        <time>2020-07-13T07:21:53Z</time>
      </trkpt>
      <trkpt lat="37.1948890" lon="-2.9840240">
        <ele>1131.2</ele>
        <time>2020-07-13T07:21:55Z</time>
      </trkpt>
      <trkpt lat="37.1946650" lon="-2.9841550">
        <ele>1131.8</ele>
        <time>2020-07-13T07:22:01Z</time>
      </trkpt>
      <trkpt lat="37.1945890" lon="-2.9842020">
        <ele>1132.0</ele>
        <time>2020-07-13T07:22:03Z</time>
      </trkpt>
      <trkpt lat="37.1944790" lon="-2.9842600">
        <ele>1132.4</ele>
        <time>2020-07-13T07:22:06Z</time>
      </trkpt>
      <trkpt lat="37.1943050" lon="-2.9843080">
        <ele>1133.2</ele>
        <time>2020-07-13T07:22:11Z</time>
      </trkpt>
      <trkpt lat="37.1942770" lon="-2.9842810">
        <ele>1133.4</ele>
        <time>2020-07-13T07:22:12Z</time>
      </trkpt>
      <trkpt lat="37.1942410" lon="-2.9842090">
        <ele>1133.6</ele>
        <time>2020-07-13T07:22:14Z</time>
      </trkpt>
      <trkpt lat="37.1942170" lon="-2.9841560">
        <ele>1133.6</ele>
        <time>2020-07-13T07:22:15Z</time>
      </trkpt>
      <trkpt lat="37.1941200" lon="-2.9839000">
        <ele>1134.0</ele>
        <time>2020-07-13T07:22:20Z</time>
      </trkpt>
      <trkpt lat="37.1939950" lon="-2.9834280">
        <ele>1134.2</ele>
        <time>2020-07-13T07:22:28Z</time>
      </trkpt>
      <trkpt lat="37.1938880" lon="-2.9828940">
        <ele>1134.4</ele>
        <time>2020-07-13T07:22:36Z</time>
      </trkpt>
      <trkpt lat="37.1938400" lon="-2.9826770">
        <ele>1134.4</ele>
        <time>2020-07-13T07:22:39Z</time>
      </trkpt>
      <trkpt lat="37.1937120" lon="-2.9820870">
        <ele>1133.6</ele>
        <time>2020-07-13T07:22:47Z</time>
      </trkpt>
      <trkpt lat="37.1936750" lon="-2.9819180">
        <ele>1133.6</ele>
        <time>2020-07-13T07:22:49Z</time>
      </trkpt>
      <trkpt lat="37.1936430" lon="-2.9817780">
        <ele>1133.4</ele>
        <time>2020-07-13T07:22:51Z</time>
      </trkpt>
      <trkpt lat="37.1935640" lon="-2.9814160">
        <ele>1133.2</ele>
        <time>2020-07-13T07:22:56Z</time>
      </trkpt>
      <trkpt lat="37.1934520" lon="-2.9808650">
        <ele>1133.0</ele>
        <time>2020-07-13T07:23:03Z</time>
      </trkpt>
      <trkpt lat="37.1934060" lon="-2.9806260">
        <ele>1133.2</ele>
        <time>2020-07-13T07:23:06Z</time>
      </trkpt>
      <trkpt lat="37.1932780" lon="-2.9799600">
        <ele>1132.4</ele>
        <time>2020-07-13T07:23:14Z</time>
      </trkpt>
      <trkpt lat="37.1932640" lon="-2.9798750">
        <ele>1132.2</ele>
        <time>2020-07-13T07:23:15Z</time>
      </trkpt>
      <trkpt lat="37.1932350" lon="-2.9797080">
        <ele>1132.4</ele>
        <time>2020-07-13T07:23:17Z</time>
      </trkpt>
      <trkpt lat="37.1931870" lon="-2.9794540">
        <ele>1131.6</ele>
        <time>2020-07-13T07:23:20Z</time>
      </trkpt>
      <trkpt lat="37.1931530" lon="-2.9793110">
        <ele>1131.2</ele>
        <time>2020-07-13T07:23:22Z</time>
      </trkpt>
      <trkpt lat="37.1931360" lon="-2.9792360">
        <ele>1131.2</ele>
        <time>2020-07-13T07:23:23Z</time>
      </trkpt>
      <trkpt lat="37.1930760" lon="-2.9789440">
        <ele>1132.4</ele>
        <time>2020-07-13T07:23:27Z</time>
      </trkpt>
      <trkpt lat="37.1930000" lon="-2.9785720">
        <ele>1132.0</ele>
        <time>2020-07-13T07:23:32Z</time>
      </trkpt>
      <trkpt lat="37.1928650" lon="-2.9779170">
        <ele>1132.4</ele>
        <time>2020-07-13T07:23:41Z</time>
      </trkpt>
      <trkpt lat="37.1927200" lon="-2.9772290">
        <ele>1132.6</ele>
        <time>2020-07-13T07:23:50Z</time>
      </trkpt>
      <trkpt lat="37.1926820" lon="-2.9770470">
        <ele>1132.2</ele>
        <time>2020-07-13T07:23:52Z</time>
      </trkpt>
      <trkpt lat="37.1926250" lon="-2.9767730">
        <ele>1131.4</ele>
        <time>2020-07-13T07:23:55Z</time>
      </trkpt>
      <trkpt lat="37.1925950" lon="-2.9766270">
        <ele>1130.8</ele>
        <time>2020-07-13T07:23:57Z</time>
      </trkpt>
      <trkpt lat="37.1924980" lon="-2.9761560">
        <ele>1131.8</ele>
        <time>2020-07-13T07:24:03Z</time>
      </trkpt>
      <trkpt lat="37.1924050" lon="-2.9757020">
        <ele>1131.8</ele>
        <time>2020-07-13T07:24:09Z</time>
      </trkpt>
      <trkpt lat="37.1923730" lon="-2.9755520">
        <ele>1131.6</ele>
        <time>2020-07-13T07:24:11Z</time>
      </trkpt>
      <trkpt lat="37.1922630" lon="-2.9750220">
        <ele>1131.6</ele>
        <time>2020-07-13T07:24:18Z</time>
      </trkpt>
      <trkpt lat="37.1921780" lon="-2.9746030">
        <ele>1132.4</ele>
        <time>2020-07-13T07:24:24Z</time>
      </trkpt>
      <trkpt lat="37.1921490" lon="-2.9744660">
        <ele>1132.8</ele>
        <time>2020-07-13T07:24:26Z</time>
      </trkpt>
      <trkpt lat="37.1920800" lon="-2.9741160">
        <ele>1132.6</ele>
        <time>2020-07-13T07:24:31Z</time>
      </trkpt>
      <trkpt lat="37.1920080" lon="-2.9737540">
        <ele>1133.6</ele>
        <time>2020-07-13T07:24:36Z</time>
      </trkpt>
      <trkpt lat="37.1919930" lon="-2.9736740">
        <ele>1133.6</ele>
        <time>2020-07-13T07:24:37Z</time>
      </trkpt>
      <trkpt lat="37.1918490" lon="-2.9729520">
        <ele>1134.0</ele>
        <time>2020-07-13T07:24:47Z</time>
      </trkpt>
      <trkpt lat="37.1918340" lon="-2.9728770">
        <ele>1134.0</ele>
        <time>2020-07-13T07:24:48Z</time>
      </trkpt>
      <trkpt lat="37.1917160" lon="-2.9723110">
        <ele>1134.6</ele>
        <time>2020-07-13T07:24:56Z</time>
      </trkpt>
      <trkpt lat="37.1916880" lon="-2.9721720">
        <ele>1134.8</ele>
        <time>2020-07-13T07:24:58Z</time>
      </trkpt>
      <trkpt lat="37.1916040" lon="-2.9717660">
        <ele>1135.6</ele>
        <time>2020-07-13T07:25:04Z</time>
      </trkpt>
      <trkpt lat="37.1915320" lon="-2.9714190">
        <ele>1136.0</ele>
        <time>2020-07-13T07:25:09Z</time>
      </trkpt>
      <trkpt lat="37.1914740" lon="-2.9710710">
        <ele>1136.4</ele>
        <time>2020-07-13T07:25:14Z</time>
      </trkpt>
      <trkpt lat="37.1914440" lon="-2.9709410">
        <ele>1136.8</ele>
        <time>2020-07-13T07:25:16Z</time>
      </trkpt>
      <trkpt lat="37.1914290" lon="-2.9708690">
        <ele>1136.8</ele>
        <time>2020-07-13T07:25:17Z</time>
      </trkpt>
      <trkpt lat="37.1913520" lon="-2.9704660">
        <ele>1137.8</ele>
        <time>2020-07-13T07:25:23Z</time>
      </trkpt>
      <trkpt lat="37.1912570" lon="-2.9699690">
        <ele>1137.6</ele>
        <time>2020-07-13T07:25:30Z</time>
      </trkpt>
      <trkpt lat="37.1911210" lon="-2.9692890">
        <ele>1137.8</ele>
        <time>2020-07-13T07:25:39Z</time>
      </trkpt>
      <trkpt lat="37.1910150" lon="-2.9688400">
        <ele>1138.8</ele>
        <time>2020-07-13T07:25:46Z</time>
      </trkpt>
      <trkpt lat="37.1909980" lon="-2.9687630">
        <ele>1139.0</ele>
        <time>2020-07-13T07:25:47Z</time>
      </trkpt>
      <trkpt lat="37.1909280" lon="-2.9684280">
        <ele>1139.6</ele>
        <time>2020-07-13T07:25:52Z</time>
      </trkpt>
      <trkpt lat="37.1909120" lon="-2.9683610">
        <ele>1139.8</ele>
        <time>2020-07-13T07:25:53Z</time>
      </trkpt>
      <trkpt lat="37.1908600" lon="-2.9681060">
        <ele>1140.8</ele>
        <time>2020-07-13T07:25:57Z</time>
      </trkpt>
      <trkpt lat="37.1908470" lon="-2.9680490">
        <ele>1141.2</ele>
        <time>2020-07-13T07:25:58Z</time>
      </trkpt>
      <trkpt lat="37.1907240" lon="-2.9674850">
        <ele>1142.2</ele>
        <time>2020-07-13T07:26:07Z</time>
      </trkpt>
      <trkpt lat="37.1906280" lon="-2.9670430">
        <ele>1143.2</ele>
        <time>2020-07-13T07:26:14Z</time>
      </trkpt>
      <trkpt lat="37.1905730" lon="-2.9667930">
        <ele>1144.0</ele>
        <time>2020-07-13T07:26:18Z</time>
      </trkpt>
      <trkpt lat="37.1905320" lon="-2.9666080">
        <ele>1144.4</ele>
        <time>2020-07-13T07:26:21Z</time>
      </trkpt>
      <trkpt lat="37.1904360" lon="-2.9661450">
        <ele>1144.6</ele>
        <time>2020-07-13T07:26:28Z</time>
      </trkpt>
      <trkpt lat="37.1903170" lon="-2.9655000">
        <ele>1144.8</ele>
        <time>2020-07-13T07:26:37Z</time>
      </trkpt>
      <trkpt lat="37.1901950" lon="-2.9648560">
        <ele>1145.4</ele>
        <time>2020-07-13T07:26:46Z</time>
      </trkpt>
      <trkpt lat="37.1901690" lon="-2.9647010">
        <ele>1145.8</ele>
        <time>2020-07-13T07:26:48Z</time>
      </trkpt>
      <trkpt lat="37.1900910" lon="-2.9642600">
        <ele>1145.8</ele>
        <time>2020-07-13T07:26:54Z</time>
      </trkpt>
      <trkpt lat="37.1900730" lon="-2.9641850">
        <ele>1145.8</ele>
        <time>2020-07-13T07:26:55Z</time>
      </trkpt>
      <trkpt lat="37.1899300" lon="-2.9635540">
        <ele>1146.0</ele>
        <time>2020-07-13T07:27:03Z</time>
      </trkpt>
      <trkpt lat="37.1898900" lon="-2.9633900">
        <ele>1145.8</ele>
        <time>2020-07-13T07:27:05Z</time>
      </trkpt>
      <trkpt lat="37.1897260" lon="-2.9627440">
        <ele>1145.8</ele>
        <time>2020-07-13T07:27:13Z</time>
      </trkpt>
      <trkpt lat="37.1897060" lon="-2.9626740">
        <ele>1145.8</ele>
        <time>2020-07-13T07:27:14Z</time>
      </trkpt>
      <trkpt lat="37.1895790" lon="-2.9622490">
        <ele>1146.6</ele>
        <time>2020-07-13T07:27:20Z</time>
      </trkpt>
      <trkpt lat="37.1894680" lon="-2.9618700">
        <ele>1146.6</ele>
        <time>2020-07-13T07:27:25Z</time>
      </trkpt>
      <trkpt lat="37.1892910" lon="-2.9613830">
        <ele>1146.8</ele>
        <time>2020-07-13T07:27:32Z</time>
      </trkpt>
      <trkpt lat="37.1892230" lon="-2.9612190">
        <ele>1147.6</ele>
        <time>2020-07-13T07:27:35Z</time>
      </trkpt>
      <trkpt lat="37.1891620" lon="-2.9610730">
        <ele>1148.6</ele>
        <time>2020-07-13T07:27:38Z</time>
      </trkpt>
      <trkpt lat="37.1890520" lon="-2.9608370">
        <ele>1149.6</ele>
        <time>2020-07-13T07:27:43Z</time>
      </trkpt>
      <trkpt lat="37.1889890" lon="-2.9607000">
        <ele>1150.8</ele>
        <time>2020-07-13T07:27:46Z</time>
      </trkpt>
      <trkpt lat="37.1889240" lon="-2.9605510">
        <ele>1151.6</ele>
        <time>2020-07-13T07:27:49Z</time>
      </trkpt>
      <trkpt lat="37.1889010" lon="-2.9605020">
        <ele>1151.8</ele>
        <time>2020-07-13T07:27:50Z</time>
      </trkpt>
      <trkpt lat="37.1887930" lon="-2.9602560">
        <ele>1152.8</ele>
        <time>2020-07-13T07:27:55Z</time>
      </trkpt>
      <trkpt lat="37.1886760" lon="-2.9599860">
        <ele>1153.4</ele>
        <time>2020-07-13T07:28:00Z</time>
      </trkpt>
      <trkpt lat="37.1884850" lon="-2.9595260">
        <ele>1154.0</ele>
        <time>2020-07-13T07:28:08Z</time>
      </trkpt>
      <trkpt lat="37.1884130" lon="-2.9593450">
        <ele>1154.0</ele>
        <time>2020-07-13T07:28:11Z</time>
      </trkpt>
      <trkpt lat="37.1881960" lon="-2.9588070">
        <ele>1153.8</ele>
        <time>2020-07-13T07:28:19Z</time>
      </trkpt>
      <trkpt lat="37.1881690" lon="-2.9587360">
        <ele>1153.6</ele>
        <time>2020-07-13T07:28:20Z</time>
      </trkpt>
      <trkpt lat="37.1880570" lon="-2.9584520">
        <ele>1153.6</ele>
        <time>2020-07-13T07:28:24Z</time>
      </trkpt>
      <trkpt lat="37.1879760" lon="-2.9582370">
        <ele>1153.6</ele>
        <time>2020-07-13T07:28:27Z</time>
      </trkpt>
      <trkpt lat="37.1878790" lon="-2.9579420">
        <ele>1153.0</ele>
        <time>2020-07-13T07:28:31Z</time>
      </trkpt>
      <trkpt lat="37.1878550" lon="-2.9578650">
        <ele>1153.0</ele>
        <time>2020-07-13T07:28:32Z</time>
      </trkpt>
      <trkpt lat="37.1877530" lon="-2.9574700">
        <ele>1153.4</ele>
        <time>2020-07-13T07:28:37Z</time>
      </trkpt>
      <trkpt lat="37.1877100" lon="-2.9572300">
        <ele>1153.6</ele>
        <time>2020-07-13T07:28:40Z</time>
      </trkpt>
      <trkpt lat="37.1876980" lon="-2.9571550">
        <ele>1153.6</ele>
        <time>2020-07-13T07:28:41Z</time>
      </trkpt>
      <trkpt lat="37.1876630" lon="-2.9568890">
        <ele>1153.2</ele>
        <time>2020-07-13T07:28:44Z</time>
      </trkpt>
      <trkpt lat="37.1876460" lon="-2.9567060">
        <ele>1152.8</ele>
        <time>2020-07-13T07:28:46Z</time>
      </trkpt>
      <trkpt lat="37.1876420" lon="-2.9566180">
        <ele>1152.4</ele>
        <time>2020-07-13T07:28:47Z</time>
      </trkpt>
      <trkpt lat="37.1876540" lon="-2.9563760">
        <ele>1151.6</ele>
        <time>2020-07-13T07:28:50Z</time>
      </trkpt>
      <trkpt lat="37.1876760" lon="-2.9562080">
        <ele>1152.0</ele>
        <time>2020-07-13T07:28:52Z</time>
      </trkpt>
      <trkpt lat="37.1877090" lon="-2.9560220">
        <ele>1151.8</ele>
        <time>2020-07-13T07:28:54Z</time>
      </trkpt>
      <trkpt lat="37.1877620" lon="-2.9558440">
        <ele>1151.4</ele>
        <time>2020-07-13T07:28:56Z</time>
      </trkpt>
      <trkpt lat="37.1878080" lon="-2.9557590">
        <ele>1150.8</ele>
        <time>2020-07-13T07:28:57Z</time>
      </trkpt>
      <trkpt lat="37.1878680" lon="-2.9557020">
        <ele>1150.4</ele>
        <time>2020-07-13T07:28:58Z</time>
      </trkpt>
      <trkpt lat="37.1880340" lon="-2.9556500">
        <ele>1149.6</ele>
        <time>2020-07-13T07:29:00Z</time>
      </trkpt>
      <trkpt lat="37.1881130" lon="-2.9556380">
        <ele>1149.2</ele>
        <time>2020-07-13T07:29:01Z</time>
      </trkpt>
      <trkpt lat="37.1881970" lon="-2.9556240">
        <ele>1148.8</ele>
        <time>2020-07-13T07:29:02Z</time>
      </trkpt>
      <trkpt lat="37.1883500" lon="-2.9555970">
        <ele>1147.8</ele>
        <time>2020-07-13T07:29:04Z</time>
      </trkpt>
      <trkpt lat="37.1884900" lon="-2.9555660">
        <ele>1146.8</ele>
        <time>2020-07-13T07:29:06Z</time>
      </trkpt>
      <trkpt lat="37.1885540" lon="-2.9555530">
        <ele>1146.2</ele>
        <time>2020-07-13T07:29:07Z</time>
      </trkpt>
      <trkpt lat="37.1886470" lon="-2.9555290">
        <ele>1145.0</ele>
        <time>2020-07-13T07:29:09Z</time>
      </trkpt>
      <trkpt lat="37.1886700" lon="-2.9555000">
        <ele>1144.6</ele>
        <time>2020-07-13T07:29:10Z</time>
      </trkpt>
      <trkpt lat="37.1886500" lon="-2.9554200">
        <ele>1144.2</ele>
        <time>2020-07-13T07:29:12Z</time>
      </trkpt>
      <trkpt lat="37.1885420" lon="-2.9553510">
        <ele>1143.8</ele>
        <time>2020-07-13T07:29:15Z</time>
      </trkpt>
      <trkpt lat="37.1884570" lon="-2.9553220">
        <ele>1143.8</ele>
        <time>2020-07-13T07:29:17Z</time>
      </trkpt>
      <trkpt lat="37.1883680" lon="-2.9552840">
        <ele>1144.2</ele>
        <time>2020-07-13T07:29:19Z</time>
      </trkpt>
      <trkpt lat="37.1883260" lon="-2.9552590">
        <ele>1144.4</ele>
        <time>2020-07-13T07:29:20Z</time>
      </trkpt>
      <trkpt lat="37.1882850" lon="-2.9552350">
        <ele>1144.6</ele>
        <time>2020-07-13T07:29:21Z</time>
      </trkpt>
      <trkpt lat="37.1882400" lon="-2.9552150">
        <ele>1144.8</ele>
        <time>2020-07-13T07:29:22Z</time>
      </trkpt>
      <trkpt lat="37.1881460" lon="-2.9551830">
        <ele>1145.4</ele>
        <time>2020-07-13T07:29:24Z</time>
      </trkpt>
      <trkpt lat="37.1880580" lon="-2.9551730">
        <ele>1145.8</ele>
        <time>2020-07-13T07:29:26Z</time>
      </trkpt>
      <trkpt lat="37.1880100" lon="-2.9551870">
        <ele>1146.0</ele>
        <time>2020-07-13T07:29:27Z</time>
      </trkpt>
      <trkpt lat="37.1878850" lon="-2.9552930">
        <ele>1146.8</ele>
        <time>2020-07-13T07:29:30Z</time>
      </trkpt>
      <trkpt lat="37.1878490" lon="-2.9553340">
        <ele>1147.2</ele>
        <time>2020-07-13T07:29:31Z</time>
      </trkpt>
      <trkpt lat="37.1877580" lon="-2.9553990">
        <ele>1147.4</ele>
        <time>2020-07-13T07:29:33Z</time>
      </trkpt>
      <trkpt lat="37.1877140" lon="-2.9554200">
        <ele>1147.6</ele>
        <time>2020-07-13T07:29:34Z</time>
      </trkpt>
      <trkpt lat="37.1876160" lon="-2.9554350">
        <ele>1147.6</ele>
        <time>2020-07-13T07:29:36Z</time>
      </trkpt>
      <trkpt lat="37.1874430" lon="-2.9553380">
        <ele>1148.4</ele>
        <time>2020-07-13T07:29:40Z</time>
      </trkpt>
      <trkpt lat="37.1872370" lon="-2.9552800">
        <ele>1149.0</ele>
        <time>2020-07-13T07:29:44Z</time>
      </trkpt>
      <trkpt lat="37.1870820" lon="-2.9553030">
        <ele>1149.4</ele>
        <time>2020-07-13T07:29:47Z</time>
      </trkpt>
      <trkpt lat="37.1870360" lon="-2.9553170">
        <ele>1149.6</ele>
        <time>2020-07-13T07:29:48Z</time>
      </trkpt>
      <trkpt lat="37.1868760" lon="-2.9553770">
        <ele>1150.6</ele>
        <time>2020-07-13T07:29:52Z</time>
      </trkpt>
      <trkpt lat="37.1867660" lon="-2.9554230">
        <ele>1151.6</ele>
        <time>2020-07-13T07:29:55Z</time>
      </trkpt>
      <trkpt lat="37.1865870" lon="-2.9554980">
        <ele>1152.6</ele>
        <time>2020-07-13T07:30:00Z</time>
      </trkpt>
      <trkpt lat="37.1865450" lon="-2.9555110">
        <ele>1153.0</ele>
        <time>2020-07-13T07:30:01Z</time>
      </trkpt>
      <trkpt lat="37.1863720" lon="-2.9555650">
        <ele>1154.0</ele>
        <time>2020-07-13T07:30:05Z</time>
      </trkpt>
      <trkpt lat="37.1862930" lon="-2.9556100">
        <ele>1154.4</ele>
        <time>2020-07-13T07:30:07Z</time>
      </trkpt>
      <trkpt lat="37.1862100" lon="-2.9557410">
        <ele>1155.0</ele>
        <time>2020-07-13T07:30:10Z</time>
      </trkpt>
      <trkpt lat="37.1861900" lon="-2.9557940">
        <ele>1155.2</ele>
        <time>2020-07-13T07:30:11Z</time>
      </trkpt>
      <trkpt lat="37.1861660" lon="-2.9558500">
        <ele>1155.4</ele>
        <time>2020-07-13T07:30:12Z</time>
      </trkpt>
      <trkpt lat="37.1861350" lon="-2.9558960">
        <ele>1155.6</ele>
        <time>2020-07-13T07:30:13Z</time>
      </trkpt>
      <trkpt lat="37.1860260" lon="-2.9560010">
        <ele>1156.2</ele>
        <time>2020-07-13T07:30:16Z</time>
      </trkpt>
      <trkpt lat="37.1858350" lon="-2.9560320">
        <ele>1156.8</ele>
        <time>2020-07-13T07:30:20Z</time>
      </trkpt>
      <trkpt lat="37.1857490" lon="-2.9559890">
        <ele>1157.2</ele>
        <time>2020-07-13T07:30:22Z</time>
      </trkpt>
      <trkpt lat="37.1856720" lon="-2.9559210">
        <ele>1157.4</ele>
        <time>2020-07-13T07:30:24Z</time>
      </trkpt>
      <trkpt lat="37.1856270" lon="-2.9559000">
        <ele>1157.6</ele>
        <time>2020-07-13T07:30:25Z</time>
      </trkpt>
      <trkpt lat="37.1854680" lon="-2.9558910">
        <ele>1158.0</ele>
        <time>2020-07-13T07:30:28Z</time>
      </trkpt>
      <trkpt lat="37.1853620" lon="-2.9559020">
        <ele>1158.0</ele>
        <time>2020-07-13T07:30:30Z</time>
      </trkpt>
      <trkpt lat="37.1853160" lon="-2.9559110">
        <ele>1158.2</ele>
        <time>2020-07-13T07:30:31Z</time>
      </trkpt>
      <trkpt lat="37.1851810" lon="-2.9559310">
        <ele>1158.8</ele>
        <time>2020-07-13T07:30:34Z</time>
      </trkpt>
      <trkpt lat="37.1850900" lon="-2.9559350">
        <ele>1159.2</ele>
        <time>2020-07-13T07:30:36Z</time>
      </trkpt>
      <trkpt lat="37.1849550" lon="-2.9559190">
        <ele>1160.2</ele>
        <time>2020-07-13T07:30:39Z</time>
      </trkpt>
      <trkpt lat="37.1848710" lon="-2.9558960">
        <ele>1160.8</ele>
        <time>2020-07-13T07:30:41Z</time>
      </trkpt>
      <trkpt lat="37.1848240" lon="-2.9558830">
        <ele>1161.2</ele>
        <time>2020-07-13T07:30:42Z</time>
      </trkpt>
      <trkpt lat="37.1846540" lon="-2.9558310">
        <ele>1162.4</ele>
        <time>2020-07-13T07:30:46Z</time>
      </trkpt>
      <trkpt lat="37.1844720" lon="-2.9557780">
        <ele>1163.6</ele>
        <time>2020-07-13T07:30:50Z</time>
      </trkpt>
      <trkpt lat="37.1842960" lon="-2.9557170">
        <ele>1164.6</ele>
        <time>2020-07-13T07:30:54Z</time>
      </trkpt>
      <trkpt lat="37.1841200" lon="-2.9556540">
        <ele>1165.8</ele>
        <time>2020-07-13T07:30:58Z</time>
      </trkpt>
      <trkpt lat="37.1838820" lon="-2.9555740">
        <ele>1166.6</ele>
        <time>2020-07-13T07:31:03Z</time>
      </trkpt>
      <trkpt lat="37.1837840" lon="-2.9555430">
        <ele>1166.8</ele>
        <time>2020-07-13T07:31:05Z</time>
      </trkpt>
      <trkpt lat="37.1834250" lon="-2.9554240">
        <ele>1167.6</ele>
        <time>2020-07-13T07:31:12Z</time>
      </trkpt>
      <trkpt lat="37.1832240" lon="-2.9553580">
        <ele>1167.8</ele>
        <time>2020-07-13T07:31:16Z</time>
      </trkpt>
      <trkpt lat="37.1828800" lon="-2.9552500">
        <ele>1168.4</ele>
        <time>2020-07-13T07:31:22Z</time>
      </trkpt>
      <trkpt lat="37.1825860" lon="-2.9551520">
        <ele>1169.0</ele>
        <time>2020-07-13T07:31:27Z</time>
      </trkpt>
      <trkpt lat="37.1822160" lon="-2.9550310">
        <ele>1169.2</ele>
        <time>2020-07-13T07:31:33Z</time>
      </trkpt>
      <trkpt lat="37.1817790" lon="-2.9548910">
        <ele>1169.6</ele>
        <time>2020-07-13T07:31:40Z</time>
      </trkpt>
      <trkpt lat="37.1815220" lon="-2.9548030">
        <ele>1170.0</ele>
        <time>2020-07-13T07:31:44Z</time>
      </trkpt>
      <trkpt lat="37.1814020" lon="-2.9547660">
        <ele>1170.2</ele>
        <time>2020-07-13T07:31:46Z</time>
      </trkpt>
      <trkpt lat="37.1809530" lon="-2.9546190">
        <ele>1170.4</ele>
        <time>2020-07-13T07:31:53Z</time>
      </trkpt>
      <trkpt lat="37.1807630" lon="-2.9545540">
        <ele>1170.6</ele>
        <time>2020-07-13T07:31:56Z</time>
      </trkpt>
      <trkpt lat="37.1805670" lon="-2.9544940">
        <ele>1170.6</ele>
        <time>2020-07-13T07:31:59Z</time>
      </trkpt>
      <trkpt lat="37.1803120" lon="-2.9544120">
        <ele>1170.8</ele>
        <time>2020-07-13T07:32:03Z</time>
      </trkpt>
      <trkpt lat="37.1801830" lon="-2.9543710">
        <ele>1171.0</ele>
        <time>2020-07-13T07:32:05Z</time>
      </trkpt>
      <trkpt lat="37.1799840" lon="-2.9543000">
        <ele>1171.2</ele>
        <time>2020-07-13T07:32:08Z</time>
      </trkpt>
      <trkpt lat="37.1794000" lon="-2.9541120">
        <ele>1171.6</ele>
        <time>2020-07-13T07:32:17Z</time>
      </trkpt>
      <trkpt lat="37.1792690" lon="-2.9540690">
        <ele>1171.6</ele>
        <time>2020-07-13T07:32:19Z</time>
      </trkpt>
      <trkpt lat="37.1789420" lon="-2.9539640">
        <ele>1172.0</ele>
        <time>2020-07-13T07:32:24Z</time>
      </trkpt>
      <trkpt lat="37.1785910" lon="-2.9538550">
        <ele>1172.0</ele>
        <time>2020-07-13T07:32:29Z</time>
      </trkpt>
      <trkpt lat="37.1781530" lon="-2.9537160">
        <ele>1171.6</ele>
        <time>2020-07-13T07:32:35Z</time>
      </trkpt>
      <trkpt lat="37.1780060" lon="-2.9536650">
        <ele>1171.4</ele>
        <time>2020-07-13T07:32:37Z</time>
      </trkpt>
      <trkpt lat="37.1778610" lon="-2.9536120">
        <ele>1171.2</ele>
        <time>2020-07-13T07:32:39Z</time>
      </trkpt>
      <trkpt lat="37.1777910" lon="-2.9535870">
        <ele>1171.0</ele>
        <time>2020-07-13T07:32:40Z</time>
      </trkpt>
      <trkpt lat="37.1776460" lon="-2.9535380">
        <ele>1170.8</ele>
        <time>2020-07-13T07:32:42Z</time>
      </trkpt>
      <trkpt lat="37.1772610" lon="-2.9534070">
        <ele>1170.4</ele>
        <time>2020-07-13T07:32:47Z</time>
      </trkpt>
      <trkpt lat="37.1771020" lon="-2.9533530">
        <ele>1170.2</ele>
        <time>2020-07-13T07:32:49Z</time>
      </trkpt>
      <trkpt lat="37.1768810" lon="-2.9532690">
        <ele>1170.0</ele>
        <time>2020-07-13T07:32:52Z</time>
      </trkpt>
      <trkpt lat="37.1768040" lon="-2.9532360">
        <ele>1169.8</ele>
        <time>2020-07-13T07:32:53Z</time>
      </trkpt>
      <trkpt lat="37.1764200" lon="-2.9530690">
        <ele>1168.8</ele>
        <time>2020-07-13T07:32:58Z</time>
      </trkpt>
      <trkpt lat="37.1762480" lon="-2.9529940">
        <ele>1168.4</ele>
        <time>2020-07-13T07:33:00Z</time>
      </trkpt>
      <trkpt lat="37.1759800" lon="-2.9528880">
        <ele>1167.6</ele>
        <time>2020-07-13T07:33:03Z</time>
      </trkpt>
      <trkpt lat="37.1758000" lon="-2.9528090">
        <ele>1166.8</ele>
        <time>2020-07-13T07:33:05Z</time>
      </trkpt>
      <trkpt lat="37.1757150" lon="-2.9527710">
        <ele>1166.2</ele>
        <time>2020-07-13T07:33:06Z</time>
      </trkpt>
      <trkpt lat="37.1756270" lon="-2.9527250">
        <ele>1166.0</ele>
        <time>2020-07-13T07:33:07Z</time>
      </trkpt>
      <trkpt lat="37.1752150" lon="-2.9525580">
        <ele>1165.4</ele>
        <time>2020-07-13T07:33:12Z</time>
      </trkpt>
      <trkpt lat="37.1750430" lon="-2.9525060">
        <ele>1165.4</ele>
        <time>2020-07-13T07:33:14Z</time>
      </trkpt>
      <trkpt lat="37.1749560" lon="-2.9524890">
        <ele>1165.2</ele>
        <time>2020-07-13T07:33:15Z</time>
      </trkpt>
      <trkpt lat="37.1746970" lon="-2.9524810">
        <ele>1164.8</ele>
        <time>2020-07-13T07:33:18Z</time>
      </trkpt>
      <trkpt lat="37.1743580" lon="-2.9525010">
        <ele>1164.8</ele>
        <time>2020-07-13T07:33:22Z</time>
      </trkpt>
      <trkpt lat="37.1741860" lon="-2.9525140">
        <ele>1165.0</ele>
        <time>2020-07-13T07:33:24Z</time>
      </trkpt>
      <trkpt lat="37.1739440" lon="-2.9525350">
        <ele>1165.0</ele>
        <time>2020-07-13T07:33:27Z</time>
      </trkpt>
      <trkpt lat="37.1737010" lon="-2.9525580">
        <ele>1165.0</ele>
        <time>2020-07-13T07:33:30Z</time>
      </trkpt>
      <trkpt lat="37.1732270" lon="-2.9525890">
        <ele>1165.0</ele>
        <time>2020-07-13T07:33:36Z</time>
      </trkpt>
      <trkpt lat="37.1726860" lon="-2.9526250">
        <ele>1165.2</ele>
        <time>2020-07-13T07:33:43Z</time>
      </trkpt>
      <trkpt lat="37.1725370" lon="-2.9526330">
        <ele>1165.2</ele>
        <time>2020-07-13T07:33:45Z</time>
      </trkpt>
      <trkpt lat="37.1720490" lon="-2.9526780">
        <ele>1165.8</ele>
        <time>2020-07-13T07:33:52Z</time>
      </trkpt>
      <trkpt lat="37.1718330" lon="-2.9526960">
        <ele>1166.0</ele>
        <time>2020-07-13T07:33:55Z</time>
      </trkpt>
      <trkpt lat="37.1717660" lon="-2.9527030">
        <ele>1166.2</ele>
        <time>2020-07-13T07:33:56Z</time>
      </trkpt>
      <trkpt lat="37.1715590" lon="-2.9527170">
        <ele>1166.6</ele>
        <time>2020-07-13T07:33:59Z</time>
      </trkpt>
      <trkpt lat="37.1713560" lon="-2.9527360">
        <ele>1167.0</ele>
        <time>2020-07-13T07:34:02Z</time>
      </trkpt>
      <trkpt lat="37.1710220" lon="-2.9527570">
        <ele>1167.2</ele>
        <time>2020-07-13T07:34:07Z</time>
      </trkpt>
      <trkpt lat="37.1706210" lon="-2.9527830">
        <ele>1168.0</ele>
        <time>2020-07-13T07:34:13Z</time>
      </trkpt>
      <trkpt lat="37.1704930" lon="-2.9527910">
        <ele>1168.2</ele>
        <time>2020-07-13T07:34:15Z</time>
      </trkpt>
      <trkpt lat="37.1701540" lon="-2.9527360">
        <ele>1168.6</ele>
        <time>2020-07-13T07:34:20Z</time>
      </trkpt>
      <trkpt lat="37.1699720" lon="-2.9526450">
        <ele>1169.2</ele>
        <time>2020-07-13T07:34:23Z</time>
      </trkpt>
      <trkpt lat="37.1699120" lon="-2.9526010">
        <ele>1169.2</ele>
        <time>2020-07-13T07:34:24Z</time>
      </trkpt>
      <trkpt lat="37.1698580" lon="-2.9525510">
        <ele>1169.4</ele>
        <time>2020-07-13T07:34:25Z</time>
      </trkpt>
      <trkpt lat="37.1697180" lon="-2.9523780">
        <ele>1169.8</ele>
        <time>2020-07-13T07:34:28Z</time>
      </trkpt>
      <trkpt lat="37.1696370" lon="-2.9522400">
        <ele>1170.2</ele>
        <time>2020-07-13T07:34:30Z</time>
      </trkpt>
      <trkpt lat="37.1695730" lon="-2.9520990">
        <ele>1170.4</ele>
        <time>2020-07-13T07:34:32Z</time>
      </trkpt>
      <trkpt lat="37.1694560" lon="-2.9518130">
        <ele>1171.0</ele>
        <time>2020-07-13T07:34:36Z</time>
      </trkpt>
      <trkpt lat="37.1693040" lon="-2.9514460">
        <ele>1171.4</ele>
        <time>2020-07-13T07:34:41Z</time>
      </trkpt>
      <trkpt lat="37.1692520" lon="-2.9512800">
        <ele>1171.4</ele>
        <time>2020-07-13T07:34:43Z</time>
      </trkpt>
      <trkpt lat="37.1692490" lon="-2.9511950">
        <ele>1171.4</ele>
        <time>2020-07-13T07:34:44Z</time>
      </trkpt>
      <trkpt lat="37.1693350" lon="-2.9509930">
        <ele>1171.6</ele>
        <time>2020-07-13T07:34:47Z</time>
      </trkpt>
      <trkpt lat="37.1694990" lon="-2.9509020">
        <ele>1172.0</ele>
        <time>2020-07-13T07:34:50Z</time>
      </trkpt>
      <trkpt lat="37.1695520" lon="-2.9508870">
        <ele>1172.2</ele>
        <time>2020-07-13T07:34:51Z</time>
      </trkpt>
      <trkpt lat="37.1696050" lon="-2.9508690">
        <ele>1172.6</ele>
        <time>2020-07-13T07:34:52Z</time>
      </trkpt>
      <trkpt lat="37.1698120" lon="-2.9507980">
        <ele>1173.8</ele>
        <time>2020-07-13T07:34:56Z</time>
      </trkpt>
      <trkpt lat="37.1699120" lon="-2.9507700">
        <ele>1174.2</ele>
        <time>2020-07-13T07:34:58Z</time>
      </trkpt>
      <trkpt lat="37.1700130" lon="-2.9507380">
        <ele>1174.8</ele>
        <time>2020-07-13T07:35:00Z</time>
      </trkpt>
      <trkpt lat="37.1702490" lon="-2.9506740">
        <ele>1176.0</ele>
        <time>2020-07-13T07:35:05Z</time>
      </trkpt>
      <trkpt lat="37.1703410" lon="-2.9506510">
        <ele>1176.4</ele>
        <time>2020-07-13T07:35:07Z</time>
      </trkpt>
      <trkpt lat="37.1704760" lon="-2.9506170">
        <ele>1177.2</ele>
        <time>2020-07-13T07:35:10Z</time>
      </trkpt>
      <trkpt lat="37.1706970" lon="-2.9505430">
        <ele>1178.4</ele>
        <time>2020-07-13T07:35:15Z</time>
      </trkpt>
      <trkpt lat="37.1707840" lon="-2.9504980">
        <ele>1179.0</ele>
        <time>2020-07-13T07:35:17Z</time>
      </trkpt>
      <trkpt lat="37.1709000" lon="-2.9504070">
        <ele>1179.6</ele>
        <time>2020-07-13T07:35:20Z</time>
      </trkpt>
      <trkpt lat="37.1710000" lon="-2.9502990">
        <ele>1180.2</ele>
        <time>2020-07-13T07:35:23Z</time>
      </trkpt>
      <trkpt lat="37.1710570" lon="-2.9502090">
        <ele>1180.8</ele>
        <time>2020-07-13T07:35:25Z</time>
      </trkpt>
      <trkpt lat="37.1711480" lon="-2.9500160">
        <ele>1181.8</ele>
        <time>2020-07-13T07:35:29Z</time>
      </trkpt>
      <trkpt lat="37.1712250" lon="-2.9497930">
        <ele>1182.8</ele>
        <time>2020-07-13T07:35:33Z</time>
      </trkpt>
      <trkpt lat="37.1712710" lon="-2.9496100">
        <ele>1183.0</ele>
        <time>2020-07-13T07:35:36Z</time>
      </trkpt>
      <trkpt lat="37.1714380" lon="-2.9489730">
        <ele>1183.2</ele>
        <time>2020-07-13T07:35:45Z</time>
      </trkpt>
      <trkpt lat="37.1715890" lon="-2.9484330">
        <ele>1182.2</ele>
        <time>2020-07-13T07:35:51Z</time>
      </trkpt>
      <trkpt lat="37.1716720" lon="-2.9481370">
        <ele>1181.6</ele>
        <time>2020-07-13T07:35:54Z</time>
      </trkpt>
      <trkpt lat="37.1718030" lon="-2.9476680">
        <ele>1181.0</ele>
        <time>2020-07-13T07:35:59Z</time>
      </trkpt>
      <trkpt lat="37.1719070" lon="-2.9472960">
        <ele>1180.8</ele>
        <time>2020-07-13T07:36:03Z</time>
      </trkpt>
      <trkpt lat="37.1719790" lon="-2.9470320">
        <ele>1180.6</ele>
        <time>2020-07-13T07:36:06Z</time>
      </trkpt>
      <trkpt lat="37.1720300" lon="-2.9468450">
        <ele>1180.8</ele>
        <time>2020-07-13T07:36:08Z</time>
      </trkpt>
      <trkpt lat="37.1721030" lon="-2.9465830">
        <ele>1181.0</ele>
        <time>2020-07-13T07:36:11Z</time>
      </trkpt>
      <trkpt lat="37.1721860" lon="-2.9463120">
        <ele>1180.6</ele>
        <time>2020-07-13T07:36:14Z</time>
      </trkpt>
      <trkpt lat="37.1722320" lon="-2.9461400">
        <ele>1180.4</ele>
        <time>2020-07-13T07:36:16Z</time>
      </trkpt>
      <trkpt lat="37.1722740" lon="-2.9459460">
        <ele>1180.4</ele>
        <time>2020-07-13T07:36:18Z</time>
      </trkpt>
      <trkpt lat="37.1723220" lon="-2.9456670">
        <ele>1180.4</ele>
        <time>2020-07-13T07:36:21Z</time>
      </trkpt>
      <trkpt lat="37.1723520" lon="-2.9452670">
        <ele>1180.0</ele>
        <time>2020-07-13T07:36:25Z</time>
      </trkpt>
      <trkpt lat="37.1723540" lon="-2.9450720">
        <ele>1179.8</ele>
        <time>2020-07-13T07:36:27Z</time>
      </trkpt>
      <trkpt lat="37.1723660" lon="-2.9445810">
        <ele>1179.4</ele>
        <time>2020-07-13T07:36:32Z</time>
      </trkpt>
      <trkpt lat="37.1723670" lon="-2.9444770">
        <ele>1179.4</ele>
        <time>2020-07-13T07:36:33Z</time>
      </trkpt>
      <trkpt lat="37.1723750" lon="-2.9441890">
        <ele>1179.0</ele>
        <time>2020-07-13T07:36:36Z</time>
      </trkpt>
      <trkpt lat="37.1723770" lon="-2.9440820">
        <ele>1179.0</ele>
        <time>2020-07-13T07:36:37Z</time>
      </trkpt>
      <trkpt lat="37.1723920" lon="-2.9433700">
        <ele>1178.4</ele>
        <time>2020-07-13T07:36:44Z</time>
      </trkpt>
      <trkpt lat="37.1723980" lon="-2.9429680">
        <ele>1178.4</ele>
        <time>2020-07-13T07:36:48Z</time>
      </trkpt>
      <trkpt lat="37.1724110" lon="-2.9423830">
        <ele>1178.2</ele>
        <time>2020-07-13T07:36:54Z</time>
      </trkpt>
      <trkpt lat="37.1724230" lon="-2.9418970">
        <ele>1178.0</ele>
        <time>2020-07-13T07:36:59Z</time>
      </trkpt>
      <trkpt lat="37.1724040" lon="-2.9411420">
        <ele>1178.0</ele>
        <time>2020-07-13T07:37:07Z</time>
      </trkpt>
      <trkpt lat="37.1723910" lon="-2.9410450">
        <ele>1178.0</ele>
        <time>2020-07-13T07:37:08Z</time>
      </trkpt>
      <trkpt lat="37.1723220" lon="-2.9406750">
        <ele>1178.0</ele>
        <time>2020-07-13T07:37:12Z</time>
      </trkpt>
      <trkpt lat="37.1722660" lon="-2.9404010">
        <ele>1178.2</ele>
        <time>2020-07-13T07:37:15Z</time>
      </trkpt>
      <trkpt lat="37.1721380" lon="-2.9397370">
        <ele>1178.8</ele>
        <time>2020-07-13T07:37:23Z</time>
      </trkpt>
      <trkpt lat="37.1721110" lon="-2.9395950">
        <ele>1178.8</ele>
        <time>2020-07-13T07:37:24Z</time>
      </trkpt>
      <trkpt lat="37.1719700" lon="-2.9388840">
        <ele>1179.0</ele>
        <time>2020-07-13T07:37:32Z</time>
      </trkpt>
      <trkpt lat="37.1718910" lon="-2.9386220">
        <ele>1179.2</ele>
        <time>2020-07-13T07:37:35Z</time>
      </trkpt>
      <trkpt lat="37.1717840" lon="-2.9383720">
        <ele>1179.4</ele>
        <time>2020-07-13T07:37:38Z</time>
      </trkpt>
      <trkpt lat="37.1716680" lon="-2.9381370">
        <ele>1179.6</ele>
        <time>2020-07-13T07:37:41Z</time>
      </trkpt>
      <trkpt lat="37.1713620" lon="-2.9375170">
        <ele>1180.0</ele>
        <time>2020-07-13T07:37:49Z</time>
      </trkpt>
      <trkpt lat="37.1713260" lon="-2.9374400">
        <ele>1180.0</ele>
        <time>2020-07-13T07:37:50Z</time>
      </trkpt>
      <trkpt lat="37.1711740" lon="-2.9371360">
        <ele>1180.4</ele>
        <time>2020-07-13T07:37:54Z</time>
      </trkpt>
      <trkpt lat="37.1709880" lon="-2.9367560">
        <ele>1180.8</ele>
        <time>2020-07-13T07:37:59Z</time>
      </trkpt>
      <trkpt lat="37.1706870" lon="-2.9361380">
        <ele>1181.4</ele>
        <time>2020-07-13T07:38:07Z</time>
      </trkpt>
      <trkpt lat="37.1706460" lon="-2.9360560">
        <ele>1181.4</ele>
        <time>2020-07-13T07:38:08Z</time>
      </trkpt>
      <trkpt lat="37.1706050" lon="-2.9359760">
        <ele>1181.4</ele>
        <time>2020-07-13T07:38:09Z</time>
      </trkpt>
      <trkpt lat="37.1702930" lon="-2.9353270">
        <ele>1181.2</ele>
        <time>2020-07-13T07:38:17Z</time>
      </trkpt>
      <trkpt lat="37.1700580" lon="-2.9348330">
        <ele>1181.4</ele>
        <time>2020-07-13T07:38:23Z</time>
      </trkpt>
      <trkpt lat="37.1698960" lon="-2.9344990">
        <ele>1181.4</ele>
        <time>2020-07-13T07:38:27Z</time>
      </trkpt>
      <trkpt lat="37.1697440" lon="-2.9341760">
        <ele>1181.4</ele>
        <time>2020-07-13T07:38:31Z</time>
      </trkpt>
      <trkpt lat="37.1694570" lon="-2.9335920">
        <ele>1181.4</ele>
        <time>2020-07-13T07:38:38Z</time>
      </trkpt>
      <trkpt lat="37.1693380" lon="-2.9333470">
        <ele>1181.4</ele>
        <time>2020-07-13T07:38:41Z</time>
      </trkpt>
      <trkpt lat="37.1690590" lon="-2.9327520">
        <ele>1181.6</ele>
        <time>2020-07-13T07:38:48Z</time>
      </trkpt>
      <trkpt lat="37.1689000" lon="-2.9324290">
        <ele>1182.0</ele>
        <time>2020-07-13T07:38:52Z</time>
      </trkpt>
      <trkpt lat="37.1686130" lon="-2.9318350">
        <ele>1181.6</ele>
        <time>2020-07-13T07:38:59Z</time>
      </trkpt>
      <trkpt lat="37.1683660" lon="-2.9313350">
        <ele>1182.0</ele>
        <time>2020-07-13T07:39:05Z</time>
      </trkpt>
      <trkpt lat="37.1680910" lon="-2.9307530">
        <ele>1182.2</ele>
        <time>2020-07-13T07:39:12Z</time>
      </trkpt>
      <trkpt lat="37.1679380" lon="-2.9304400">
        <ele>1182.2</ele>
        <time>2020-07-13T07:39:16Z</time>
      </trkpt>
      <trkpt lat="37.1678620" lon="-2.9302810">
        <ele>1182.4</ele>
        <time>2020-07-13T07:39:18Z</time>
      </trkpt>
      <trkpt lat="37.1677550" lon="-2.9300790">
        <ele>1183.0</ele>
        <time>2020-07-13T07:39:21Z</time>
      </trkpt>
      <trkpt lat="37.1677120" lon="-2.9300170">
        <ele>1183.6</ele>
        <time>2020-07-13T07:39:22Z</time>
      </trkpt>
      <trkpt lat="37.1676090" lon="-2.9299190">
        <ele>1184.2</ele>
        <time>2020-07-13T07:39:24Z</time>
      </trkpt>
      <trkpt lat="37.1675000" lon="-2.9298550">
        <ele>1184.6</ele>
        <time>2020-07-13T07:39:26Z</time>
      </trkpt>
      <trkpt lat="37.1673780" lon="-2.9298280">
        <ele>1185.4</ele>
        <time>2020-07-13T07:39:28Z</time>
      </trkpt>
      <trkpt lat="37.1673200" lon="-2.9298210">
        <ele>1185.8</ele>
        <time>2020-07-13T07:39:29Z</time>
      </trkpt>
      <trkpt lat="37.1672610" lon="-2.9298380">
        <ele>1186.0</ele>
        <time>2020-07-13T07:39:30Z</time>
      </trkpt>
      <trkpt lat="37.1670990" lon="-2.9299180">
        <ele>1187.0</ele>
        <time>2020-07-13T07:39:33Z</time>
      </trkpt>
      <trkpt lat="37.1670500" lon="-2.9299480">
        <ele>1187.2</ele>
        <time>2020-07-13T07:39:34Z</time>
      </trkpt>
      <trkpt lat="37.1668910" lon="-2.9300400">
        <ele>1188.0</ele>
        <time>2020-07-13T07:39:37Z</time>
      </trkpt>
      <trkpt lat="37.1666470" lon="-2.9301860">
        <ele>1189.2</ele>
        <time>2020-07-13T07:39:42Z</time>
      </trkpt>
      <trkpt lat="37.1665510" lon="-2.9302430">
        <ele>1189.6</ele>
        <time>2020-07-13T07:39:44Z</time>
      </trkpt>
      <trkpt lat="37.1664060" lon="-2.9303200">
        <ele>1190.2</ele>
        <time>2020-07-13T07:39:47Z</time>
      </trkpt>
      <trkpt lat="37.1662050" lon="-2.9303900">
        <ele>1191.4</ele>
        <time>2020-07-13T07:39:51Z</time>
      </trkpt>
      <trkpt lat="37.1661530" lon="-2.9303900">
        <ele>1191.6</ele>
        <time>2020-07-13T07:39:52Z</time>
      </trkpt>
      <trkpt lat="37.1659540" lon="-2.9302690">
        <ele>1192.6</ele>
        <time>2020-07-13T07:39:56Z</time>
      </trkpt>
      <trkpt lat="37.1658990" lon="-2.9300390">
        <ele>1193.0</ele>
        <time>2020-07-13T07:39:59Z</time>
      </trkpt>
      <trkpt lat="37.1659400" lon="-2.9298030">
        <ele>1193.0</ele>
        <time>2020-07-13T07:40:02Z</time>
      </trkpt>
      <trkpt lat="37.1659610" lon="-2.9297190">
        <ele>1193.0</ele>
        <time>2020-07-13T07:40:03Z</time>
      </trkpt>
      <trkpt lat="37.1661160" lon="-2.9291410">
        <ele>1193.0</ele>
        <time>2020-07-13T07:40:10Z</time>
      </trkpt>
      <trkpt lat="37.1663020" lon="-2.9284400">
        <ele>1192.8</ele>
        <time>2020-07-13T07:40:18Z</time>
      </trkpt>
      <trkpt lat="37.1663430" lon="-2.9282680">
        <ele>1192.8</ele>
        <time>2020-07-13T07:40:20Z</time>
      </trkpt>
      <trkpt lat="37.1664510" lon="-2.9278440">
        <ele>1192.8</ele>
        <time>2020-07-13T07:40:25Z</time>
      </trkpt>
      <trkpt lat="37.1664920" lon="-2.9276740">
        <ele>1192.8</ele>
        <time>2020-07-13T07:40:27Z</time>
      </trkpt>
      <trkpt lat="37.1665090" lon="-2.9274920">
        <ele>1192.6</ele>
        <time>2020-07-13T07:40:29Z</time>
      </trkpt>
      <trkpt lat="37.1664510" lon="-2.9273210">
        <ele>1192.6</ele>
        <time>2020-07-13T07:40:31Z</time>
      </trkpt>
      <trkpt lat="37.1662550" lon="-2.9271800">
        <ele>1192.6</ele>
        <time>2020-07-13T07:40:34Z</time>
      </trkpt>
      <trkpt lat="37.1661100" lon="-2.9271210">
        <ele>1192.8</ele>
        <time>2020-07-13T07:40:36Z</time>
      </trkpt>
      <trkpt lat="37.1658840" lon="-2.9270290">
        <ele>1192.8</ele>
        <time>2020-07-13T07:40:39Z</time>
      </trkpt>
      <trkpt lat="37.1657420" lon="-2.9269740">
        <ele>1192.8</ele>
        <time>2020-07-13T07:40:41Z</time>
      </trkpt>
      <trkpt lat="37.1652940" lon="-2.9268060">
        <ele>1193.0</ele>
        <time>2020-07-13T07:40:47Z</time>
      </trkpt>
      <trkpt lat="37.1649990" lon="-2.9267050">
        <ele>1192.6</ele>
        <time>2020-07-13T07:40:51Z</time>
      </trkpt>
      <trkpt lat="37.1648360" lon="-2.9266930">
        <ele>1192.6</ele>
        <time>2020-07-13T07:40:53Z</time>
      </trkpt>
      <trkpt lat="37.1646760" lon="-2.9267200">
        <ele>1192.8</ele>
        <time>2020-07-13T07:40:55Z</time>
      </trkpt>
      <trkpt lat="37.1645190" lon="-2.9267610">
        <ele>1192.8</ele>
        <time>2020-07-13T07:40:57Z</time>
      </trkpt>
      <trkpt lat="37.1643570" lon="-2.9267710">
        <ele>1192.6</ele>
        <time>2020-07-13T07:40:59Z</time>
      </trkpt>
      <trkpt lat="37.1642760" lon="-2.9267430">
        <ele>1192.6</ele>
        <time>2020-07-13T07:41:00Z</time>
      </trkpt>
      <trkpt lat="37.1640900" lon="-2.9265250">
        <ele>1192.6</ele>
        <time>2020-07-13T07:41:03Z</time>
      </trkpt>
      <trkpt lat="37.1639610" lon="-2.9261490">
        <ele>1192.8</ele>
        <time>2020-07-13T07:41:07Z</time>
      </trkpt>
      <trkpt lat="37.1640500" lon="-2.9258640">
        <ele>1192.8</ele>
        <time>2020-07-13T07:41:10Z</time>
      </trkpt>
      <trkpt lat="37.1641570" lon="-2.9257010">
        <ele>1192.6</ele>
        <time>2020-07-13T07:41:12Z</time>
      </trkpt>
      <trkpt lat="37.1643170" lon="-2.9254670">
        <ele>1192.6</ele>
        <time>2020-07-13T07:41:15Z</time>
      </trkpt>
      <trkpt lat="37.1644520" lon="-2.9252120">
        <ele>1192.4</ele>
        <time>2020-07-13T07:41:18Z</time>
      </trkpt>
      <trkpt lat="37.1644760" lon="-2.9250060">
        <ele>1192.2</ele>
        <time>2020-07-13T07:41:20Z</time>
      </trkpt>
      <trkpt lat="37.1643880" lon="-2.9247280">
        <ele>1192.2</ele>
        <time>2020-07-13T07:41:23Z</time>
      </trkpt>
      <trkpt lat="37.1642110" lon="-2.9245020">
        <ele>1192.2</ele>
        <time>2020-07-13T07:41:26Z</time>
      </trkpt>
      <trkpt lat="37.1639390" lon="-2.9241250">
        <ele>1192.2</ele>
        <time>2020-07-13T07:41:31Z</time>
      </trkpt>
      <trkpt lat="37.1639080" lon="-2.9240230">
        <ele>1192.2</ele>
        <time>2020-07-13T07:41:32Z</time>
      </trkpt>
      <trkpt lat="37.1639350" lon="-2.9237290">
        <ele>1192.0</ele>
        <time>2020-07-13T07:41:35Z</time>
      </trkpt>
      <trkpt lat="37.1640990" lon="-2.9235190">
        <ele>1191.8</ele>
        <time>2020-07-13T07:41:38Z</time>
      </trkpt>
      <trkpt lat="37.1643290" lon="-2.9234630">
        <ele>1191.8</ele>
        <time>2020-07-13T07:41:41Z</time>
      </trkpt>
      <trkpt lat="37.1644150" lon="-2.9234540">
        <ele>1191.6</ele>
        <time>2020-07-13T07:41:42Z</time>
      </trkpt>
      <trkpt lat="37.1646660" lon="-2.9234300">
        <ele>1191.6</ele>
        <time>2020-07-13T07:41:45Z</time>
      </trkpt>
      <trkpt lat="37.1649250" lon="-2.9234040">
        <ele>1191.4</ele>
        <time>2020-07-13T07:41:48Z</time>
      </trkpt>
      <trkpt lat="37.1653560" lon="-2.9233260">
        <ele>1191.0</ele>
        <time>2020-07-13T07:41:53Z</time>
      </trkpt>
      <trkpt lat="37.1654300" lon="-2.9232720">
        <ele>1190.8</ele>
        <time>2020-07-13T07:41:54Z</time>
      </trkpt>
      <trkpt lat="37.1654940" lon="-2.9231970">
        <ele>1190.6</ele>
        <time>2020-07-13T07:41:55Z</time>
      </trkpt>
      <trkpt lat="37.1655600" lon="-2.9230010">
        <ele>1190.2</ele>
        <time>2020-07-13T07:41:57Z</time>
      </trkpt>
      <trkpt lat="37.1655500" lon="-2.9226660">
        <ele>1189.8</ele>
        <time>2020-07-13T07:42:00Z</time>
      </trkpt>
      <trkpt lat="37.1654950" lon="-2.9224450">
        <ele>1189.4</ele>
        <time>2020-07-13T07:42:02Z</time>
      </trkpt>
      <trkpt lat="37.1654480" lon="-2.9223460">
        <ele>1189.2</ele>
        <time>2020-07-13T07:42:03Z</time>
      </trkpt>
      <trkpt lat="37.1652310" lon="-2.9221310">
        <ele>1188.8</ele>
        <time>2020-07-13T07:42:06Z</time>
      </trkpt>
      <trkpt lat="37.1651350" lon="-2.9220940">
        <ele>1188.4</ele>
        <time>2020-07-13T07:42:07Z</time>
      </trkpt>
      <trkpt lat="37.1649540" lon="-2.9220570">
        <ele>1188.2</ele>
        <time>2020-07-13T07:42:09Z</time>
      </trkpt>
      <trkpt lat="37.1648740" lon="-2.9220250">
        <ele>1188.0</ele>
        <time>2020-07-13T07:42:10Z</time>
      </trkpt>
      <trkpt lat="37.1647500" lon="-2.9218690">
        <ele>1187.8</ele>
        <time>2020-07-13T07:42:12Z</time>
      </trkpt>
      <trkpt lat="37.1646680" lon="-2.9215570">
        <ele>1187.6</ele>
        <time>2020-07-13T07:42:15Z</time>
      </trkpt>
      <trkpt lat="37.1646460" lon="-2.9214610">
        <ele>1187.6</ele>
        <time>2020-07-13T07:42:16Z</time>
      </trkpt>
      <trkpt lat="37.1645930" lon="-2.9212370">
        <ele>1187.4</ele>
        <time>2020-07-13T07:42:18Z</time>
      </trkpt>
      <trkpt lat="37.1644220" lon="-2.9204820">
        <ele>1186.6</ele>
        <time>2020-07-13T07:42:25Z</time>
      </trkpt>
      <trkpt lat="37.1643770" lon="-2.9202660">
        <ele>1186.4</ele>
        <time>2020-07-13T07:42:27Z</time>
      </trkpt>
      <trkpt lat="37.1642150" lon="-2.9195260">
        <ele>1185.8</ele>
        <time>2020-07-13T07:42:34Z</time>
      </trkpt>
      <trkpt lat="37.1641900" lon="-2.9194180">
        <ele>1185.6</ele>
        <time>2020-07-13T07:42:35Z</time>
      </trkpt>
      <trkpt lat="37.1641550" lon="-2.9193210">
        <ele>1185.6</ele>
        <time>2020-07-13T07:42:36Z</time>
      </trkpt>
      <trkpt lat="37.1640980" lon="-2.9192310">
        <ele>1185.4</ele>
        <time>2020-07-13T07:42:37Z</time>
      </trkpt>
      <trkpt lat="37.1640240" lon="-2.9191630">
        <ele>1185.2</ele>
        <time>2020-07-13T07:42:38Z</time>
      </trkpt>
      <trkpt lat="37.1638540" lon="-2.9191200">
        <ele>1185.0</ele>
        <time>2020-07-13T07:42:40Z</time>
      </trkpt>
      <trkpt lat="37.1636170" lon="-2.9189920">
        <ele>1184.8</ele>
        <time>2020-07-13T07:42:43Z</time>
      </trkpt>
      <trkpt lat="37.1635700" lon="-2.9187890">
        <ele>1184.6</ele>
        <time>2020-07-13T07:42:45Z</time>
      </trkpt>
      <trkpt lat="37.1636410" lon="-2.9185890">
        <ele>1184.6</ele>
        <time>2020-07-13T07:42:47Z</time>
      </trkpt>
      <trkpt lat="37.1637420" lon="-2.9184140">
        <ele>1184.4</ele>
        <time>2020-07-13T07:42:49Z</time>
      </trkpt>
      <trkpt lat="37.1638440" lon="-2.9182460">
        <ele>1184.4</ele>
        <time>2020-07-13T07:42:51Z</time>
      </trkpt>
      <trkpt lat="37.1638950" lon="-2.9181650">
        <ele>1184.2</ele>
        <time>2020-07-13T07:42:52Z</time>
      </trkpt>
      <trkpt lat="37.1640770" lon="-2.9177840">
        <ele>1183.8</ele>
        <time>2020-07-13T07:42:56Z</time>
      </trkpt>
      <trkpt lat="37.1641040" lon="-2.9176770">
        <ele>1183.6</ele>
        <time>2020-07-13T07:42:57Z</time>
      </trkpt>
      <trkpt lat="37.1641140" lon="-2.9173460">
        <ele>1183.4</ele>
        <time>2020-07-13T07:43:00Z</time>
      </trkpt>
      <trkpt lat="37.1640650" lon="-2.9171350">
        <ele>1183.2</ele>
        <time>2020-07-13T07:43:02Z</time>
      </trkpt>
      <trkpt lat="37.1640210" lon="-2.9170290">
        <ele>1183.2</ele>
        <time>2020-07-13T07:43:03Z</time>
      </trkpt>
      <trkpt lat="37.1638540" lon="-2.9167620">
        <ele>1183.0</ele>
        <time>2020-07-13T07:43:06Z</time>
      </trkpt>
      <trkpt lat="37.1637930" lon="-2.9166720">
        <ele>1182.8</ele>
        <time>2020-07-13T07:43:07Z</time>
      </trkpt>
      <trkpt lat="37.1634970" lon="-2.9161160">
        <ele>1182.6</ele>
        <time>2020-07-13T07:43:13Z</time>
      </trkpt>
      <trkpt lat="37.1634650" lon="-2.9158900">
        <ele>1182.0</ele>
        <time>2020-07-13T07:43:15Z</time>
      </trkpt>
      <trkpt lat="37.1634640" lon="-2.9157880">
        <ele>1181.8</ele>
        <time>2020-07-13T07:43:16Z</time>
      </trkpt>
      <trkpt lat="37.1634700" lon="-2.9155480">
        <ele>1181.2</ele>
        <time>2020-07-13T07:43:18Z</time>
      </trkpt>
      <trkpt lat="37.1634770" lon="-2.9153240">
        <ele>1181.0</ele>
        <time>2020-07-13T07:43:20Z</time>
      </trkpt>
      <trkpt lat="37.1634790" lon="-2.9151050">
        <ele>1180.6</ele>
        <time>2020-07-13T07:43:22Z</time>
      </trkpt>
      <trkpt lat="37.1634640" lon="-2.9149790">
        <ele>1180.6</ele>
        <time>2020-07-13T07:43:23Z</time>
      </trkpt>
      <trkpt lat="37.1633990" lon="-2.9147780">
        <ele>1180.4</ele>
        <time>2020-07-13T07:43:25Z</time>
      </trkpt>
      <trkpt lat="37.1632710" lon="-2.9145640">
        <ele>1180.0</ele>
        <time>2020-07-13T07:43:27Z</time>
      </trkpt>
      <trkpt lat="37.1632070" lon="-2.9144800">
        <ele>1179.8</ele>
        <time>2020-07-13T07:43:28Z</time>
      </trkpt>
      <trkpt lat="37.1631380" lon="-2.9143850">
        <ele>1179.4</ele>
        <time>2020-07-13T07:43:29Z</time>
      </trkpt>
      <trkpt lat="37.1630300" lon="-2.9141870">
        <ele>1178.8</ele>
        <time>2020-07-13T07:43:31Z</time>
      </trkpt>
      <trkpt lat="37.1629600" lon="-2.9139470">
        <ele>1178.2</ele>
        <time>2020-07-13T07:43:33Z</time>
      </trkpt>
      <trkpt lat="37.1629330" lon="-2.9137000">
        <ele>1177.6</ele>
        <time>2020-07-13T07:43:35Z</time>
      </trkpt>
      <trkpt lat="37.1629410" lon="-2.9135810">
        <ele>1177.4</ele>
        <time>2020-07-13T07:43:36Z</time>
      </trkpt>
      <trkpt lat="37.1630490" lon="-2.9132190">
        <ele>1176.2</ele>
        <time>2020-07-13T07:43:39Z</time>
      </trkpt>
      <trkpt lat="37.1631500" lon="-2.9130060">
        <ele>1175.6</ele>
        <time>2020-07-13T07:43:41Z</time>
      </trkpt>
      <trkpt lat="37.1632610" lon="-2.9127760">
        <ele>1175.0</ele>
        <time>2020-07-13T07:43:43Z</time>
      </trkpt>
      <trkpt lat="37.1633130" lon="-2.9126650">
        <ele>1175.0</ele>
        <time>2020-07-13T07:43:44Z</time>
      </trkpt>
      <trkpt lat="37.1635270" lon="-2.9122080">
        <ele>1174.0</ele>
        <time>2020-07-13T07:43:48Z</time>
      </trkpt>
      <trkpt lat="37.1636620" lon="-2.9118280">
        <ele>1172.4</ele>
        <time>2020-07-13T07:43:51Z</time>
      </trkpt>
      <trkpt lat="37.1637450" lon="-2.9115620">
        <ele>1171.4</ele>
        <time>2020-07-13T07:43:53Z</time>
      </trkpt>
      <trkpt lat="37.1638670" lon="-2.9111550">
        <ele>1170.2</ele>
        <time>2020-07-13T07:43:56Z</time>
      </trkpt>
      <trkpt lat="37.1639600" lon="-2.9108850">
        <ele>1169.2</ele>
        <time>2020-07-13T07:43:58Z</time>
      </trkpt>
      <trkpt lat="37.1640150" lon="-2.9107500">
        <ele>1168.6</ele>
        <time>2020-07-13T07:43:59Z</time>
      </trkpt>
      <trkpt lat="37.1640770" lon="-2.9106230">
        <ele>1168.0</ele>
        <time>2020-07-13T07:44:00Z</time>
      </trkpt>
      <trkpt lat="37.1641450" lon="-2.9105200">
        <ele>1167.6</ele>
        <time>2020-07-13T07:44:01Z</time>
      </trkpt>
      <trkpt lat="37.1642330" lon="-2.9104120">
        <ele>1167.2</ele>
        <time>2020-07-13T07:44:02Z</time>
      </trkpt>
      <trkpt lat="37.1643230" lon="-2.9103190">
        <ele>1166.8</ele>
        <time>2020-07-13T07:44:03Z</time>
      </trkpt>
      <trkpt lat="37.1645130" lon="-2.9101380">
        <ele>1165.6</ele>
        <time>2020-07-13T07:44:05Z</time>
      </trkpt>
      <trkpt lat="37.1646030" lon="-2.9100510">
        <ele>1165.0</ele>
        <time>2020-07-13T07:44:06Z</time>
      </trkpt>
      <trkpt lat="37.1647030" lon="-2.9099530">
        <ele>1164.4</ele>
        <time>2020-07-13T07:44:07Z</time>
      </trkpt>
      <trkpt lat="37.1648910" lon="-2.9097680">
        <ele>1163.2</ele>
        <time>2020-07-13T07:44:09Z</time>
      </trkpt>
      <trkpt lat="37.1650730" lon="-2.9095900">
        <ele>1161.8</ele>
        <time>2020-07-13T07:44:11Z</time>
      </trkpt>
      <trkpt lat="37.1652560" lon="-2.9094120">
        <ele>1160.4</ele>
        <time>2020-07-13T07:44:13Z</time>
      </trkpt>
      <trkpt lat="37.1653260" lon="-2.9093160">
        <ele>1159.8</ele>
        <time>2020-07-13T07:44:14Z</time>
      </trkpt>
      <trkpt lat="37.1653720" lon="-2.9091970">
        <ele>1158.8</ele>
        <time>2020-07-13T07:44:15Z</time>
      </trkpt>
      <trkpt lat="37.1653860" lon="-2.9090880">
        <ele>1158.4</ele>
        <time>2020-07-13T07:44:16Z</time>
      </trkpt>
      <trkpt lat="37.1653260" lon="-2.9088210">
        <ele>1157.4</ele>
        <time>2020-07-13T07:44:18Z</time>
      </trkpt>
      <trkpt lat="37.1652520" lon="-2.9085810">
        <ele>1156.4</ele>
        <time>2020-07-13T07:44:20Z</time>
      </trkpt>
      <trkpt lat="37.1652310" lon="-2.9084640">
        <ele>1156.0</ele>
        <time>2020-07-13T07:44:21Z</time>
      </trkpt>
      <trkpt lat="37.1652400" lon="-2.9083340">
        <ele>1155.4</ele>
        <time>2020-07-13T07:44:22Z</time>
      </trkpt>
      <trkpt lat="37.1653630" lon="-2.9081070">
        <ele>1154.4</ele>
        <time>2020-07-13T07:44:24Z</time>
      </trkpt>
      <trkpt lat="37.1655720" lon="-2.9080300">
        <ele>1153.6</ele>
        <time>2020-07-13T07:44:26Z</time>
      </trkpt>
      <trkpt lat="37.1656890" lon="-2.9080180">
        <ele>1153.2</ele>
        <time>2020-07-13T07:44:27Z</time>
      </trkpt>
      <trkpt lat="37.1658030" lon="-2.9080050">
        <ele>1152.6</ele>
        <time>2020-07-13T07:44:28Z</time>
      </trkpt>
      <trkpt lat="37.1659290" lon="-2.9079880">
        <ele>1152.2</ele>
        <time>2020-07-13T07:44:29Z</time>
      </trkpt>
      <trkpt lat="37.1660510" lon="-2.9079780">
        <ele>1151.6</ele>
        <time>2020-07-13T07:44:30Z</time>
      </trkpt>
      <trkpt lat="37.1662980" lon="-2.9079490">
        <ele>1150.4</ele>
        <time>2020-07-13T07:44:32Z</time>
      </trkpt>
      <trkpt lat="37.1665420" lon="-2.9079200">
        <ele>1149.4</ele>
        <time>2020-07-13T07:44:34Z</time>
      </trkpt>
      <trkpt lat="37.1667990" lon="-2.9078880">
        <ele>1148.6</ele>
        <time>2020-07-13T07:44:36Z</time>
      </trkpt>
      <trkpt lat="37.1669360" lon="-2.9078700">
        <ele>1147.8</ele>
        <time>2020-07-13T07:44:37Z</time>
      </trkpt>
      <trkpt lat="37.1671940" lon="-2.9078380">
        <ele>1146.2</ele>
        <time>2020-07-13T07:44:39Z</time>
      </trkpt>
      <trkpt lat="37.1674330" lon="-2.9078080">
        <ele>1144.6</ele>
        <time>2020-07-13T07:44:41Z</time>
      </trkpt>
      <trkpt lat="37.1676800" lon="-2.9077410">
        <ele>1143.2</ele>
        <time>2020-07-13T07:44:43Z</time>
      </trkpt>
      <trkpt lat="37.1679040" lon="-2.9076210">
        <ele>1141.6</ele>
        <time>2020-07-13T07:44:45Z</time>
      </trkpt>
      <trkpt lat="37.1679920" lon="-2.9075430">
        <ele>1141.0</ele>
        <time>2020-07-13T07:44:46Z</time>
      </trkpt>
      <trkpt lat="37.1680940" lon="-2.9074330">
        <ele>1140.2</ele>
        <time>2020-07-13T07:44:47Z</time>
      </trkpt>
      <trkpt lat="37.1682440" lon="-2.9072040">
        <ele>1139.0</ele>
        <time>2020-07-13T07:44:49Z</time>
      </trkpt>
      <trkpt lat="37.1683420" lon="-2.9069480">
        <ele>1137.6</ele>
        <time>2020-07-13T07:44:51Z</time>
      </trkpt>
      <trkpt lat="37.1683780" lon="-2.9068070">
        <ele>1137.0</ele>
        <time>2020-07-13T07:44:52Z</time>
      </trkpt>
      <trkpt lat="37.1684010" lon="-2.9066720">
        <ele>1136.2</ele>
        <time>2020-07-13T07:44:53Z</time>
      </trkpt>
      <trkpt lat="37.1684220" lon="-2.9064280">
        <ele>1134.8</ele>
        <time>2020-07-13T07:44:55Z</time>
      </trkpt>
      <trkpt lat="37.1684170" lon="-2.9062030">
        <ele>1133.2</ele>
        <time>2020-07-13T07:44:57Z</time>
      </trkpt>
      <trkpt lat="37.1683940" lon="-2.9059730">
        <ele>1132.2</ele>
        <time>2020-07-13T07:44:59Z</time>
      </trkpt>
      <trkpt lat="37.1683500" lon="-2.9056090">
        <ele>1130.8</ele>
        <time>2020-07-13T07:45:02Z</time>
      </trkpt>
      <trkpt lat="37.1683210" lon="-2.9053550">
        <ele>1129.8</ele>
        <time>2020-07-13T07:45:04Z</time>
      </trkpt>
      <trkpt lat="37.1683040" lon="-2.9052150">
        <ele>1129.2</ele>
        <time>2020-07-13T07:45:05Z</time>
      </trkpt>
      <trkpt lat="37.1682880" lon="-2.9050840">
        <ele>1128.6</ele>
        <time>2020-07-13T07:45:06Z</time>
      </trkpt>
      <trkpt lat="37.1682550" lon="-2.9047890">
        <ele>1127.6</ele>
        <time>2020-07-13T07:45:08Z</time>
      </trkpt>
      <trkpt lat="37.1682260" lon="-2.9045050">
        <ele>1126.4</ele>
        <time>2020-07-13T07:45:10Z</time>
      </trkpt>
      <trkpt lat="37.1681970" lon="-2.9042180">
        <ele>1125.4</ele>
        <time>2020-07-13T07:45:12Z</time>
      </trkpt>
      <trkpt lat="37.1681850" lon="-2.9040820">
        <ele>1125.0</ele>
        <time>2020-07-13T07:45:13Z</time>
      </trkpt>
      <trkpt lat="37.1680940" lon="-2.9034420">
        <ele>1124.2</ele>
        <time>2020-07-13T07:45:18Z</time>
      </trkpt>
      <trkpt lat="37.1680240" lon="-2.9032270">
        <ele>1124.0</ele>
        <time>2020-07-13T07:45:20Z</time>
      </trkpt>
      <trkpt lat="37.1679690" lon="-2.9031470">
        <ele>1123.8</ele>
        <time>2020-07-13T07:45:21Z</time>
      </trkpt>
      <trkpt lat="37.1678830" lon="-2.9029520">
        <ele>1123.6</ele>
        <time>2020-07-13T07:45:23Z</time>
      </trkpt>
      <trkpt lat="37.1678790" lon="-2.9028420">
        <ele>1123.4</ele>
        <time>2020-07-13T07:45:24Z</time>
      </trkpt>
      <trkpt lat="37.1678620" lon="-2.9026680">
        <ele>1122.8</ele>
        <time>2020-07-13T07:45:26Z</time>
      </trkpt>
      <trkpt lat="37.1678390" lon="-2.9025870">
        <ele>1122.8</ele>
        <time>2020-07-13T07:45:27Z</time>
      </trkpt>
      <trkpt lat="37.1678180" lon="-2.9025210">
        <ele>1123.0</ele>
        <time>2020-07-13T07:45:28Z</time>
      </trkpt>
      <trkpt lat="37.1678010" lon="-2.9024530">
        <ele>1123.6</ele>
        <time>2020-07-13T07:45:29Z</time>
      </trkpt>
      <trkpt lat="37.1677860" lon="-2.9023820">
        <ele>1124.4</ele>
        <time>2020-07-13T07:45:30Z</time>
      </trkpt>
      <trkpt lat="37.1677700" lon="-2.9023130">
        <ele>1125.0</ele>
        <time>2020-07-13T07:45:31Z</time>
      </trkpt>
      <trkpt lat="37.1677560" lon="-2.9022320">
        <ele>1125.8</ele>
        <time>2020-07-13T07:45:32Z</time>
      </trkpt>
      <trkpt lat="37.1677410" lon="-2.9021570">
        <ele>1126.2</ele>
        <time>2020-07-13T07:45:33Z</time>
      </trkpt>
      <trkpt lat="37.1677030" lon="-2.9019880">
        <ele>1126.4</ele>
        <time>2020-07-13T07:45:35Z</time>
      </trkpt>
      <trkpt lat="37.1676470" lon="-2.9017120">
        <ele>1126.0</ele>
        <time>2020-07-13T07:45:38Z</time>
      </trkpt>
      <trkpt lat="37.1675690" lon="-2.9011580">
        <ele>1125.8</ele>
        <time>2020-07-13T07:45:44Z</time>
      </trkpt>
      <trkpt lat="37.1675150" lon="-2.9006780">
        <ele>1124.6</ele>
        <time>2020-07-13T07:45:48Z</time>
      </trkpt>
      <trkpt lat="37.1675040" lon="-2.9005480">
        <ele>1124.2</ele>
        <time>2020-07-13T07:45:49Z</time>
      </trkpt>
      <trkpt lat="37.1674890" lon="-2.9004240">
        <ele>1123.6</ele>
        <time>2020-07-13T07:45:50Z</time>
      </trkpt>
      <trkpt lat="37.1674640" lon="-2.9001770">
        <ele>1122.4</ele>
        <time>2020-07-13T07:45:52Z</time>
      </trkpt>
      <trkpt lat="37.1674270" lon="-2.8998950">
        <ele>1121.2</ele>
        <time>2020-07-13T07:45:54Z</time>
      </trkpt>
      <trkpt lat="37.1674100" lon="-2.8997390">
        <ele>1120.4</ele>
        <time>2020-07-13T07:45:55Z</time>
      </trkpt>
      <trkpt lat="37.1673980" lon="-2.8996060">
        <ele>1119.4</ele>
        <time>2020-07-13T07:45:56Z</time>
      </trkpt>
      <trkpt lat="37.1673790" lon="-2.8994850">
        <ele>1118.2</ele>
        <time>2020-07-13T07:45:57Z</time>
      </trkpt>
      <trkpt lat="37.1673580" lon="-2.8993980">
        <ele>1117.2</ele>
        <time>2020-07-13T07:45:58Z</time>
      </trkpt>
      <trkpt lat="37.1672910" lon="-2.8990600">
        <ele>1118.0</ele>
        <time>2020-07-13T07:46:02Z</time>
      </trkpt>
      <trkpt lat="37.1672780" lon="-2.8989700">
        <ele>1119.4</ele>
        <time>2020-07-13T07:46:03Z</time>
      </trkpt>
      <trkpt lat="37.1672590" lon="-2.8987550">
        <ele>1120.8</ele>
        <time>2020-07-13T07:46:05Z</time>
      </trkpt>
      <trkpt lat="37.1672470" lon="-2.8986380">
        <ele>1120.8</ele>
        <time>2020-07-13T07:46:06Z</time>
      </trkpt>
      <trkpt lat="37.1672070" lon="-2.8982570">
        <ele>1119.4</ele>
        <time>2020-07-13T07:46:09Z</time>
      </trkpt>
      <trkpt lat="37.1671720" lon="-2.8980600">
        <ele>1118.4</ele>
        <time>2020-07-13T07:46:11Z</time>
      </trkpt>
      <trkpt lat="37.1670780" lon="-2.8976940">
        <ele>1119.2</ele>
        <time>2020-07-13T07:46:15Z</time>
      </trkpt>
      <trkpt lat="37.1670550" lon="-2.8976020">
        <ele>1119.4</ele>
        <time>2020-07-13T07:46:16Z</time>
      </trkpt>
      <trkpt lat="37.1669910" lon="-2.8973420">
        <ele>1118.8</ele>
        <time>2020-07-13T07:46:18Z</time>
      </trkpt>
      <trkpt lat="37.1669440" lon="-2.8971000">
        <ele>1118.0</ele>
        <time>2020-07-13T07:46:20Z</time>
      </trkpt>
      <trkpt lat="37.1669120" lon="-2.8969520">
        <ele>1117.0</ele>
        <time>2020-07-13T07:46:21Z</time>
      </trkpt>
      <trkpt lat="37.1668340" lon="-2.8967300">
        <ele>1115.4</ele>
        <time>2020-07-13T07:46:23Z</time>
      </trkpt>
      <trkpt lat="37.1667810" lon="-2.8966250">
        <ele>1115.0</ele>
        <time>2020-07-13T07:46:24Z</time>
      </trkpt>
      <trkpt lat="37.1666400" lon="-2.8963070">
        <ele>1114.2</ele>
        <time>2020-07-13T07:46:27Z</time>
      </trkpt>
      <trkpt lat="37.1665360" lon="-2.8959570">
        <ele>1113.6</ele>
        <time>2020-07-13T07:46:30Z</time>
      </trkpt>
      <trkpt lat="37.1664860" lon="-2.8957030">
        <ele>1113.0</ele>
        <time>2020-07-13T07:46:32Z</time>
      </trkpt>
      <trkpt lat="37.1664570" lon="-2.8954410">
        <ele>1112.2</ele>
        <time>2020-07-13T07:46:34Z</time>
      </trkpt>
      <trkpt lat="37.1664500" lon="-2.8953100">
        <ele>1111.8</ele>
        <time>2020-07-13T07:46:35Z</time>
      </trkpt>
      <trkpt lat="37.1664600" lon="-2.8951750">
        <ele>1111.2</ele>
        <time>2020-07-13T07:46:36Z</time>
      </trkpt>
      <trkpt lat="37.1664720" lon="-2.8950450">
        <ele>1110.8</ele>
        <time>2020-07-13T07:46:37Z</time>
      </trkpt>
      <trkpt lat="37.1664900" lon="-2.8949130">
        <ele>1110.0</ele>
        <time>2020-07-13T07:46:38Z</time>
      </trkpt>
      <trkpt lat="37.1665140" lon="-2.8947890">
        <ele>1109.6</ele>
        <time>2020-07-13T07:46:39Z</time>
      </trkpt>
      <trkpt lat="37.1665800" lon="-2.8945380">
        <ele>1108.8</ele>
        <time>2020-07-13T07:46:41Z</time>
      </trkpt>
      <trkpt lat="37.1666180" lon="-2.8944150">
        <ele>1108.4</ele>
        <time>2020-07-13T07:46:42Z</time>
      </trkpt>
      <trkpt lat="37.1666970" lon="-2.8941650">
        <ele>1107.4</ele>
        <time>2020-07-13T07:46:44Z</time>
      </trkpt>
      <trkpt lat="37.1667790" lon="-2.8939120">
        <ele>1106.2</ele>
        <time>2020-07-13T07:46:46Z</time>
      </trkpt>
      <trkpt lat="37.1668600" lon="-2.8936530">
        <ele>1105.2</ele>
        <time>2020-07-13T07:46:48Z</time>
      </trkpt>
      <trkpt lat="37.1669430" lon="-2.8933850">
        <ele>1104.2</ele>
        <time>2020-07-13T07:46:50Z</time>
      </trkpt>
      <trkpt lat="37.1669940" lon="-2.8931920">
        <ele>1103.2</ele>
        <time>2020-07-13T07:46:52Z</time>
      </trkpt>
      <trkpt lat="37.1670250" lon="-2.8930140">
        <ele>1102.4</ele>
        <time>2020-07-13T07:46:53Z</time>
      </trkpt>
      <trkpt lat="37.1670860" lon="-2.8926570">
        <ele>1101.2</ele>
        <time>2020-07-13T07:46:55Z</time>
      </trkpt>
      <trkpt lat="37.1670950" lon="-2.8925020">
        <ele>1100.4</ele>
        <time>2020-07-13T07:46:56Z</time>
      </trkpt>
      <trkpt lat="37.1671040" lon="-2.8923460">
        <ele>1100.2</ele>
        <time>2020-07-13T07:46:57Z</time>
      </trkpt>
      <trkpt lat="37.1670970" lon="-2.8920280">
        <ele>1098.6</ele>
        <time>2020-07-13T07:46:59Z</time>
      </trkpt>
      <trkpt lat="37.1670680" lon="-2.8917030">
        <ele>1097.2</ele>
        <time>2020-07-13T07:47:01Z</time>
      </trkpt>
      <trkpt lat="37.1670220" lon="-2.8913960">
        <ele>1095.8</ele>
        <time>2020-07-13T07:47:03Z</time>
      </trkpt>
      <trkpt lat="37.1669810" lon="-2.8910780">
        <ele>1094.2</ele>
        <time>2020-07-13T07:47:05Z</time>
      </trkpt>
      <trkpt lat="37.1669650" lon="-2.8907590">
        <ele>1093.2</ele>
        <time>2020-07-13T07:47:07Z</time>
      </trkpt>
      <trkpt lat="37.1669840" lon="-2.8904360">
        <ele>1091.8</ele>
        <time>2020-07-13T07:47:09Z</time>
      </trkpt>
      <trkpt lat="37.1670140" lon="-2.8902920">
        <ele>1091.2</ele>
        <time>2020-07-13T07:47:10Z</time>
      </trkpt>
      <trkpt lat="37.1670670" lon="-2.8901360">
        <ele>1090.2</ele>
        <time>2020-07-13T07:47:11Z</time>
      </trkpt>
      <trkpt lat="37.1671840" lon="-2.8898540">
        <ele>1088.8</ele>
        <time>2020-07-13T07:47:13Z</time>
      </trkpt>
      <trkpt lat="37.1672590" lon="-2.8897250">
        <ele>1088.0</ele>
        <time>2020-07-13T07:47:14Z</time>
      </trkpt>
      <trkpt lat="37.1673380" lon="-2.8895990">
        <ele>1087.6</ele>
        <time>2020-07-13T07:47:15Z</time>
      </trkpt>
      <trkpt lat="37.1674370" lon="-2.8894930">
        <ele>1086.8</ele>
        <time>2020-07-13T07:47:16Z</time>
      </trkpt>
      <trkpt lat="37.1675360" lon="-2.8893940">
        <ele>1086.2</ele>
        <time>2020-07-13T07:47:17Z</time>
      </trkpt>
      <trkpt lat="37.1676370" lon="-2.8893010">
        <ele>1085.8</ele>
        <time>2020-07-13T07:47:18Z</time>
      </trkpt>
      <trkpt lat="37.1677510" lon="-2.8892320">
        <ele>1085.0</ele>
        <time>2020-07-13T07:47:19Z</time>
      </trkpt>
      <trkpt lat="37.1679780" lon="-2.8891140">
        <ele>1083.8</ele>
        <time>2020-07-13T07:47:21Z</time>
      </trkpt>
      <trkpt lat="37.1682540" lon="-2.8890780">
        <ele>1082.6</ele>
        <time>2020-07-13T07:47:23Z</time>
      </trkpt>
      <trkpt lat="37.1683900" lon="-2.8890600">
        <ele>1081.6</ele>
        <time>2020-07-13T07:47:24Z</time>
      </trkpt>
      <trkpt lat="37.1686590" lon="-2.8890040">
        <ele>1079.6</ele>
        <time>2020-07-13T07:47:26Z</time>
      </trkpt>
      <trkpt lat="37.1687790" lon="-2.8889610">
        <ele>1078.6</ele>
        <time>2020-07-13T07:47:27Z</time>
      </trkpt>
      <trkpt lat="37.1689030" lon="-2.8888900">
        <ele>1077.6</ele>
        <time>2020-07-13T07:47:28Z</time>
      </trkpt>
      <trkpt lat="37.1690030" lon="-2.8888030">
        <ele>1076.8</ele>
        <time>2020-07-13T07:47:29Z</time>
      </trkpt>
      <trkpt lat="37.1691760" lon="-2.8885840">
        <ele>1075.8</ele>
        <time>2020-07-13T07:47:31Z</time>
      </trkpt>
      <trkpt lat="37.1692860" lon="-2.8883180">
        <ele>1075.0</ele>
        <time>2020-07-13T07:47:33Z</time>
      </trkpt>
      <trkpt lat="37.1693200" lon="-2.8881830">
        <ele>1074.6</ele>
        <time>2020-07-13T07:47:34Z</time>
      </trkpt>
      <trkpt lat="37.1693910" lon="-2.8879210">
        <ele>1074.4</ele>
        <time>2020-07-13T07:47:36Z</time>
      </trkpt>
      <trkpt lat="37.1694260" lon="-2.8877900">
        <ele>1074.2</ele>
        <time>2020-07-13T07:47:37Z</time>
      </trkpt>
      <trkpt lat="37.1695080" lon="-2.8875330">
        <ele>1074.0</ele>
        <time>2020-07-13T07:47:39Z</time>
      </trkpt>
      <trkpt lat="37.1696160" lon="-2.8872820">
        <ele>1073.6</ele>
        <time>2020-07-13T07:47:41Z</time>
      </trkpt>
      <trkpt lat="37.1696700" lon="-2.8871550">
        <ele>1073.4</ele>
        <time>2020-07-13T07:47:42Z</time>
      </trkpt>
      <trkpt lat="37.1697670" lon="-2.8868970">
        <ele>1073.0</ele>
        <time>2020-07-13T07:47:44Z</time>
      </trkpt>
      <trkpt lat="37.1698100" lon="-2.8867640">
        <ele>1072.4</ele>
        <time>2020-07-13T07:47:45Z</time>
      </trkpt>
      <trkpt lat="37.1698400" lon="-2.8866250">
        <ele>1071.8</ele>
        <time>2020-07-13T07:47:46Z</time>
      </trkpt>
      <trkpt lat="37.1698700" lon="-2.8864860">
        <ele>1071.4</ele>
        <time>2020-07-13T07:47:47Z</time>
      </trkpt>
      <trkpt lat="37.1698910" lon="-2.8863440">
        <ele>1071.0</ele>
        <time>2020-07-13T07:47:48Z</time>
      </trkpt>
      <trkpt lat="37.1699230" lon="-2.8860590">
        <ele>1070.0</ele>
        <time>2020-07-13T07:47:50Z</time>
      </trkpt>
      <trkpt lat="37.1699280" lon="-2.8859280">
        <ele>1069.6</ele>
        <time>2020-07-13T07:47:51Z</time>
      </trkpt>
      <trkpt lat="37.1699150" lon="-2.8854920">
        <ele>1068.2</ele>
        <time>2020-07-13T07:47:54Z</time>
      </trkpt>
      <trkpt lat="37.1699040" lon="-2.8853510">
        <ele>1068.0</ele>
        <time>2020-07-13T07:47:55Z</time>
      </trkpt>
      <trkpt lat="37.1698820" lon="-2.8852140">
        <ele>1067.6</ele>
        <time>2020-07-13T07:47:56Z</time>
      </trkpt>
      <trkpt lat="37.1698600" lon="-2.8850740">
        <ele>1067.2</ele>
        <time>2020-07-13T07:47:57Z</time>
      </trkpt>
      <trkpt lat="37.1697960" lon="-2.8847990">
        <ele>1066.6</ele>
        <time>2020-07-13T07:47:59Z</time>
      </trkpt>
      <trkpt lat="37.1697220" lon="-2.8845290">
        <ele>1066.0</ele>
        <time>2020-07-13T07:48:01Z</time>
      </trkpt>
      <trkpt lat="37.1695650" lon="-2.8839900">
        <ele>1065.0</ele>
        <time>2020-07-13T07:48:05Z</time>
      </trkpt>
      <trkpt lat="37.1695310" lon="-2.8838680">
        <ele>1064.8</ele>
        <time>2020-07-13T07:48:06Z</time>
      </trkpt>
      <trkpt lat="37.1694380" lon="-2.8834510">
        <ele>1063.6</ele>
        <time>2020-07-13T07:48:09Z</time>
      </trkpt>
      <trkpt lat="37.1693910" lon="-2.8830260">
        <ele>1062.6</ele>
        <time>2020-07-13T07:48:12Z</time>
      </trkpt>
      <trkpt lat="37.1694000" lon="-2.8825970">
        <ele>1061.4</ele>
        <time>2020-07-13T07:48:15Z</time>
      </trkpt>
      <trkpt lat="37.1694100" lon="-2.8824700">
        <ele>1061.2</ele>
        <time>2020-07-13T07:48:16Z</time>
      </trkpt>
      <trkpt lat="37.1694400" lon="-2.8821640">
        <ele>1060.4</ele>
        <time>2020-07-13T07:48:18Z</time>
      </trkpt>
      <trkpt lat="37.1694890" lon="-2.8817340">
        <ele>1059.2</ele>
        <time>2020-07-13T07:48:21Z</time>
      </trkpt>
      <trkpt lat="37.1695120" lon="-2.8814240">
        <ele>1058.6</ele>
        <time>2020-07-13T07:48:23Z</time>
      </trkpt>
      <trkpt lat="37.1695170" lon="-2.8812730">
        <ele>1058.2</ele>
        <time>2020-07-13T07:48:24Z</time>
      </trkpt>
      <trkpt lat="37.1695100" lon="-2.8809620">
        <ele>1057.4</ele>
        <time>2020-07-13T07:48:26Z</time>
      </trkpt>
      <trkpt lat="37.1695010" lon="-2.8808140">
        <ele>1057.0</ele>
        <time>2020-07-13T07:48:27Z</time>
      </trkpt>
      <trkpt lat="37.1694870" lon="-2.8806820">
        <ele>1056.6</ele>
        <time>2020-07-13T07:48:28Z</time>
      </trkpt>
      <trkpt lat="37.1694570" lon="-2.8803740">
        <ele>1056.0</ele>
        <time>2020-07-13T07:48:30Z</time>
      </trkpt>
      <trkpt lat="37.1694420" lon="-2.8802290">
        <ele>1055.2</ele>
        <time>2020-07-13T07:48:31Z</time>
      </trkpt>
      <trkpt lat="37.1694040" lon="-2.8797910">
        <ele>1053.4</ele>
        <time>2020-07-13T07:48:34Z</time>
      </trkpt>
      <trkpt lat="37.1693990" lon="-2.8794960">
        <ele>1052.4</ele>
        <time>2020-07-13T07:48:36Z</time>
      </trkpt>
      <trkpt lat="37.1694200" lon="-2.8791970">
        <ele>1051.2</ele>
        <time>2020-07-13T07:48:38Z</time>
      </trkpt>
      <trkpt lat="37.1694890" lon="-2.8787600">
        <ele>1050.0</ele>
        <time>2020-07-13T07:48:41Z</time>
      </trkpt>
      <trkpt lat="37.1695820" lon="-2.8783010">
        <ele>1048.2</ele>
        <time>2020-07-13T07:48:44Z</time>
      </trkpt>
      <trkpt lat="37.1696670" lon="-2.8778540">
        <ele>1046.8</ele>
        <time>2020-07-13T07:48:47Z</time>
      </trkpt>
      <trkpt lat="37.1697230" lon="-2.8775540">
        <ele>1045.8</ele>
        <time>2020-07-13T07:48:49Z</time>
      </trkpt>
      <trkpt lat="37.1697510" lon="-2.8774040">
        <ele>1045.4</ele>
        <time>2020-07-13T07:48:50Z</time>
      </trkpt>
      <trkpt lat="37.1697800" lon="-2.8772640">
        <ele>1044.8</ele>
        <time>2020-07-13T07:48:51Z</time>
      </trkpt>
      <trkpt lat="37.1698080" lon="-2.8771100">
        <ele>1044.0</ele>
        <time>2020-07-13T07:48:52Z</time>
      </trkpt>
      <trkpt lat="37.1698710" lon="-2.8767980">
        <ele>1042.2</ele>
        <time>2020-07-13T07:48:54Z</time>
      </trkpt>
      <trkpt lat="37.1699290" lon="-2.8765140">
        <ele>1040.8</ele>
        <time>2020-07-13T07:48:56Z</time>
      </trkpt>
      <trkpt lat="37.1699860" lon="-2.8762130">
        <ele>1039.6</ele>
        <time>2020-07-13T07:48:58Z</time>
      </trkpt>
      <trkpt lat="37.1700150" lon="-2.8760520">
        <ele>1039.0</ele>
        <time>2020-07-13T07:48:59Z</time>
      </trkpt>
      <trkpt lat="37.1700420" lon="-2.8759000">
        <ele>1038.4</ele>
        <time>2020-07-13T07:49:00Z</time>
      </trkpt>
      <trkpt lat="37.1700850" lon="-2.8755980">
        <ele>1037.2</ele>
        <time>2020-07-13T07:49:02Z</time>
      </trkpt>
      <trkpt lat="37.1701230" lon="-2.8751420">
        <ele>1036.0</ele>
        <time>2020-07-13T07:49:05Z</time>
      </trkpt>
      <trkpt lat="37.1701270" lon="-2.8749840">
        <ele>1035.4</ele>
        <time>2020-07-13T07:49:06Z</time>
      </trkpt>
      <trkpt lat="37.1701280" lon="-2.8748280">
        <ele>1034.8</ele>
        <time>2020-07-13T07:49:07Z</time>
      </trkpt>
      <trkpt lat="37.1701170" lon="-2.8745170">
        <ele>1033.8</ele>
        <time>2020-07-13T07:49:09Z</time>
      </trkpt>
      <trkpt lat="37.1700900" lon="-2.8742210">
        <ele>1032.8</ele>
        <time>2020-07-13T07:49:11Z</time>
      </trkpt>
      <trkpt lat="37.1700650" lon="-2.8740510">
        <ele>1032.0</ele>
        <time>2020-07-13T07:49:12Z</time>
      </trkpt>
      <trkpt lat="37.1699780" lon="-2.8735920">
        <ele>1030.6</ele>
        <time>2020-07-13T07:49:15Z</time>
      </trkpt>
      <trkpt lat="37.1699470" lon="-2.8734570">
        <ele>1029.8</ele>
        <time>2020-07-13T07:49:16Z</time>
      </trkpt>
      <trkpt lat="37.1699050" lon="-2.8732870">
        <ele>1029.0</ele>
        <time>2020-07-13T07:49:17Z</time>
      </trkpt>
      <trkpt lat="37.1698240" lon="-2.8729850">
        <ele>1027.6</ele>
        <time>2020-07-13T07:49:19Z</time>
      </trkpt>
      <trkpt lat="37.1697420" lon="-2.8727060">
        <ele>1026.6</ele>
        <time>2020-07-13T07:49:21Z</time>
      </trkpt>
      <trkpt lat="37.1696970" lon="-2.8725560">
        <ele>1026.0</ele>
        <time>2020-07-13T07:49:22Z</time>
      </trkpt>
      <trkpt lat="37.1696150" lon="-2.8722830">
        <ele>1025.2</ele>
        <time>2020-07-13T07:49:24Z</time>
      </trkpt>
      <trkpt lat="37.1695330" lon="-2.8720120">
        <ele>1024.2</ele>
        <time>2020-07-13T07:49:26Z</time>
      </trkpt>
      <trkpt lat="37.1694500" lon="-2.8717290">
        <ele>1023.2</ele>
        <time>2020-07-13T07:49:28Z</time>
      </trkpt>
      <trkpt lat="37.1694120" lon="-2.8715840">
        <ele>1022.6</ele>
        <time>2020-07-13T07:49:29Z</time>
      </trkpt>
      <trkpt lat="37.1693800" lon="-2.8714440">
        <ele>1022.4</ele>
        <time>2020-07-13T07:49:30Z</time>
      </trkpt>
      <trkpt lat="37.1692940" lon="-2.8710320">
        <ele>1021.4</ele>
        <time>2020-07-13T07:49:33Z</time>
      </trkpt>
      <trkpt lat="37.1692480" lon="-2.8706130">
        <ele>1020.0</ele>
        <time>2020-07-13T07:49:36Z</time>
      </trkpt>
      <trkpt lat="37.1692420" lon="-2.8703200">
        <ele>1018.6</ele>
        <time>2020-07-13T07:49:38Z</time>
      </trkpt>
      <trkpt lat="37.1692570" lon="-2.8700300">
        <ele>1017.6</ele>
        <time>2020-07-13T07:49:40Z</time>
      </trkpt>
      <trkpt lat="37.1692940" lon="-2.8697190">
        <ele>1016.6</ele>
        <time>2020-07-13T07:49:42Z</time>
      </trkpt>
      <trkpt lat="37.1693150" lon="-2.8695740">
        <ele>1015.8</ele>
        <time>2020-07-13T07:49:43Z</time>
      </trkpt>
      <trkpt lat="37.1693390" lon="-2.8694290">
        <ele>1015.4</ele>
        <time>2020-07-13T07:49:44Z</time>
      </trkpt>
      <trkpt lat="37.1693930" lon="-2.8691420">
        <ele>1014.4</ele>
        <time>2020-07-13T07:49:46Z</time>
      </trkpt>
      <trkpt lat="37.1694790" lon="-2.8687040">
        <ele>1013.0</ele>
        <time>2020-07-13T07:49:49Z</time>
      </trkpt>
      <trkpt lat="37.1695370" lon="-2.8684170">
        <ele>1012.4</ele>
        <time>2020-07-13T07:49:51Z</time>
      </trkpt>
      <trkpt lat="37.1696020" lon="-2.8681050">
        <ele>1011.0</ele>
        <time>2020-07-13T07:49:53Z</time>
      </trkpt>
      <trkpt lat="37.1696910" lon="-2.8676600">
        <ele>1009.8</ele>
        <time>2020-07-13T07:49:56Z</time>
      </trkpt>
      <trkpt lat="37.1697480" lon="-2.8673560">
        <ele>1008.4</ele>
        <time>2020-07-13T07:49:58Z</time>
      </trkpt>
      <trkpt lat="37.1698030" lon="-2.8670650">
        <ele>1006.8</ele>
        <time>2020-07-13T07:50:00Z</time>
      </trkpt>
      <trkpt lat="37.1698620" lon="-2.8667610">
        <ele>1005.0</ele>
        <time>2020-07-13T07:50:02Z</time>
      </trkpt>
      <trkpt lat="37.1699230" lon="-2.8664550">
        <ele>1003.6</ele>
        <time>2020-07-13T07:50:04Z</time>
      </trkpt>
      <trkpt lat="37.1699810" lon="-2.8661560">
        <ele>1002.4</ele>
        <time>2020-07-13T07:50:06Z</time>
      </trkpt>
      <trkpt lat="37.1700550" lon="-2.8657020">
        <ele>1001.0</ele>
        <time>2020-07-13T07:50:09Z</time>
      </trkpt>
      <trkpt lat="37.1700780" lon="-2.8655530">
        <ele>1000.6</ele>
        <time>2020-07-13T07:50:10Z</time>
      </trkpt>
      <trkpt lat="37.1701020" lon="-2.8653900">
        <ele>1000.0</ele>
        <time>2020-07-13T07:50:11Z</time>
      </trkpt>
      <trkpt lat="37.1701420" lon="-2.8650850">
        <ele>998.6</ele>
        <time>2020-07-13T07:50:13Z</time>
      </trkpt>
      <trkpt lat="37.1701740" lon="-2.8647750">
        <ele>997.4</ele>
        <time>2020-07-13T07:50:15Z</time>
      </trkpt>
      <trkpt lat="37.1701970" lon="-2.8644570">
        <ele>996.0</ele>
        <time>2020-07-13T07:50:17Z</time>
      </trkpt>
      <trkpt lat="37.1702080" lon="-2.8642970">
        <ele>995.0</ele>
        <time>2020-07-13T07:50:18Z</time>
      </trkpt>
      <trkpt lat="37.1702300" lon="-2.8638220">
        <ele>993.2</ele>
        <time>2020-07-13T07:50:21Z</time>
      </trkpt>
      <trkpt lat="37.1702360" lon="-2.8634920">
        <ele>991.6</ele>
        <time>2020-07-13T07:50:23Z</time>
      </trkpt>
      <trkpt lat="37.1702350" lon="-2.8630230">
        <ele>990.0</ele>
        <time>2020-07-13T07:50:26Z</time>
      </trkpt>
      <trkpt lat="37.1702270" lon="-2.8627180">
        <ele>988.8</ele>
        <time>2020-07-13T07:50:28Z</time>
      </trkpt>
      <trkpt lat="37.1702200" lon="-2.8624130">
        <ele>987.6</ele>
        <time>2020-07-13T07:50:30Z</time>
      </trkpt>
      <trkpt lat="37.1702110" lon="-2.8621100">
        <ele>986.0</ele>
        <time>2020-07-13T07:50:32Z</time>
      </trkpt>
      <trkpt lat="37.1702040" lon="-2.8618040">
        <ele>984.6</ele>
        <time>2020-07-13T07:50:34Z</time>
      </trkpt>
      <trkpt lat="37.1701980" lon="-2.8614970">
        <ele>983.0</ele>
        <time>2020-07-13T07:50:36Z</time>
      </trkpt>
      <trkpt lat="37.1701870" lon="-2.8611870">
        <ele>981.6</ele>
        <time>2020-07-13T07:50:38Z</time>
      </trkpt>
      <trkpt lat="37.1701650" lon="-2.8607110">
        <ele>980.2</ele>
        <time>2020-07-13T07:50:41Z</time>
      </trkpt>
      <trkpt lat="37.1701520" lon="-2.8603940">
        <ele>979.2</ele>
        <time>2020-07-13T07:50:43Z</time>
      </trkpt>
      <trkpt lat="37.1701370" lon="-2.8600800">
        <ele>978.0</ele>
        <time>2020-07-13T07:50:45Z</time>
      </trkpt>
      <trkpt lat="37.1701260" lon="-2.8599290">
        <ele>977.0</ele>
        <time>2020-07-13T07:50:46Z</time>
      </trkpt>
      <trkpt lat="37.1701030" lon="-2.8596150">
        <ele>975.4</ele>
        <time>2020-07-13T07:50:48Z</time>
      </trkpt>
      <trkpt lat="37.1700880" lon="-2.8594570">
        <ele>974.6</ele>
        <time>2020-07-13T07:50:49Z</time>
      </trkpt>
      <trkpt lat="37.1700720" lon="-2.8593000">
        <ele>974.0</ele>
        <time>2020-07-13T07:50:50Z</time>
      </trkpt>
      <trkpt lat="37.1700210" lon="-2.8589940">
        <ele>972.2</ele>
        <time>2020-07-13T07:50:52Z</time>
      </trkpt>
      <trkpt lat="37.1699410" lon="-2.8586880">
        <ele>971.0</ele>
        <time>2020-07-13T07:50:54Z</time>
      </trkpt>
      <trkpt lat="37.1698390" lon="-2.8584030">
        <ele>969.6</ele>
        <time>2020-07-13T07:50:56Z</time>
      </trkpt>
      <trkpt lat="37.1697140" lon="-2.8581360">
        <ele>968.6</ele>
        <time>2020-07-13T07:50:58Z</time>
      </trkpt>
      <trkpt lat="37.1696480" lon="-2.8580040">
        <ele>968.0</ele>
        <time>2020-07-13T07:50:59Z</time>
      </trkpt>
      <trkpt lat="37.1695830" lon="-2.8578810">
        <ele>967.4</ele>
        <time>2020-07-13T07:51:00Z</time>
      </trkpt>
      <trkpt lat="37.1694460" lon="-2.8576260">
        <ele>966.4</ele>
        <time>2020-07-13T07:51:02Z</time>
      </trkpt>
      <trkpt lat="37.1693180" lon="-2.8573630">
        <ele>965.0</ele>
        <time>2020-07-13T07:51:04Z</time>
      </trkpt>
      <trkpt lat="37.1691980" lon="-2.8570940">
        <ele>963.6</ele>
        <time>2020-07-13T07:51:06Z</time>
      </trkpt>
      <trkpt lat="37.1691430" lon="-2.8569560">
        <ele>962.8</ele>
        <time>2020-07-13T07:51:07Z</time>
      </trkpt>
      <trkpt lat="37.1690940" lon="-2.8568140">
        <ele>962.4</ele>
        <time>2020-07-13T07:51:08Z</time>
      </trkpt>
      <trkpt lat="37.1690170" lon="-2.8565330">
        <ele>961.4</ele>
        <time>2020-07-13T07:51:10Z</time>
      </trkpt>
      <trkpt lat="37.1689550" lon="-2.8562230">
        <ele>960.2</ele>
        <time>2020-07-13T07:51:12Z</time>
      </trkpt>
      <trkpt lat="37.1689050" lon="-2.8559160">
        <ele>958.6</ele>
        <time>2020-07-13T07:51:14Z</time>
      </trkpt>
      <trkpt lat="37.1688610" lon="-2.8556050">
        <ele>957.4</ele>
        <time>2020-07-13T07:51:16Z</time>
      </trkpt>
      <trkpt lat="37.1688160" lon="-2.8552970">
        <ele>956.0</ele>
        <time>2020-07-13T07:51:18Z</time>
      </trkpt>
      <trkpt lat="37.1687680" lon="-2.8549890">
        <ele>954.8</ele>
        <time>2020-07-13T07:51:20Z</time>
      </trkpt>
      <trkpt lat="37.1686880" lon="-2.8545360">
        <ele>953.6</ele>
        <time>2020-07-13T07:51:23Z</time>
      </trkpt>
      <trkpt lat="37.1686440" lon="-2.8543760">
        <ele>953.0</ele>
        <time>2020-07-13T07:51:24Z</time>
      </trkpt>
      <trkpt lat="37.1686030" lon="-2.8542250">
        <ele>952.6</ele>
        <time>2020-07-13T07:51:25Z</time>
      </trkpt>
      <trkpt lat="37.1685440" lon="-2.8540800">
        <ele>951.6</ele>
        <time>2020-07-13T07:51:26Z</time>
      </trkpt>
      <trkpt lat="37.1684860" lon="-2.8539350">
        <ele>950.6</ele>
        <time>2020-07-13T07:51:27Z</time>
      </trkpt>
      <trkpt lat="37.1684140" lon="-2.8537980">
        <ele>950.0</ele>
        <time>2020-07-13T07:51:28Z</time>
      </trkpt>
      <trkpt lat="37.1683440" lon="-2.8536590">
        <ele>948.8</ele>
        <time>2020-07-13T07:51:29Z</time>
      </trkpt>
      <trkpt lat="37.1682010" lon="-2.8533950">
        <ele>947.2</ele>
        <time>2020-07-13T07:51:31Z</time>
      </trkpt>
      <trkpt lat="37.1680630" lon="-2.8531480">
        <ele>946.2</ele>
        <time>2020-07-13T07:51:33Z</time>
      </trkpt>
      <trkpt lat="37.1679250" lon="-2.8528960">
        <ele>945.2</ele>
        <time>2020-07-13T07:51:35Z</time>
      </trkpt>
      <trkpt lat="37.1677290" lon="-2.8525190">
        <ele>943.8</ele>
        <time>2020-07-13T07:51:38Z</time>
      </trkpt>
      <trkpt lat="37.1676720" lon="-2.8523920">
        <ele>943.6</ele>
        <time>2020-07-13T07:51:39Z</time>
      </trkpt>
      <trkpt lat="37.1675720" lon="-2.8521290">
        <ele>942.8</ele>
        <time>2020-07-13T07:51:41Z</time>
      </trkpt>
      <trkpt lat="37.1674950" lon="-2.8518610">
        <ele>942.0</ele>
        <time>2020-07-13T07:51:43Z</time>
      </trkpt>
      <trkpt lat="37.1674610" lon="-2.8517250">
        <ele>941.6</ele>
        <time>2020-07-13T07:51:44Z</time>
      </trkpt>
      <trkpt lat="37.1673540" lon="-2.8510400">
        <ele>940.2</ele>
        <time>2020-07-13T07:51:49Z</time>
      </trkpt>
      <trkpt lat="37.1672880" lon="-2.8504940">
        <ele>938.8</ele>
        <time>2020-07-13T07:51:53Z</time>
      </trkpt>
      <trkpt lat="37.1672110" lon="-2.8498610">
        <ele>937.8</ele>
        <time>2020-07-13T07:51:58Z</time>
      </trkpt>
      <trkpt lat="37.1671590" lon="-2.8494380">
        <ele>937.0</ele>
        <time>2020-07-13T07:52:01Z</time>
      </trkpt>
      <trkpt lat="37.1671420" lon="-2.8493070">
        <ele>936.6</ele>
        <time>2020-07-13T07:52:02Z</time>
      </trkpt>
      <trkpt lat="37.1670620" lon="-2.8486530">
        <ele>935.8</ele>
        <time>2020-07-13T07:52:07Z</time>
      </trkpt>
      <trkpt lat="37.1670460" lon="-2.8485250">
        <ele>935.6</ele>
        <time>2020-07-13T07:52:08Z</time>
      </trkpt>
      <trkpt lat="37.1669700" lon="-2.8479050">
        <ele>934.8</ele>
        <time>2020-07-13T07:52:13Z</time>
      </trkpt>
      <trkpt lat="37.1669000" lon="-2.8473150">
        <ele>934.6</ele>
        <time>2020-07-13T07:52:18Z</time>
      </trkpt>
      <trkpt lat="37.1668090" lon="-2.8466130">
        <ele>934.6</ele>
        <time>2020-07-13T07:52:24Z</time>
      </trkpt>
      <trkpt lat="37.1667940" lon="-2.8464990">
        <ele>934.6</ele>
        <time>2020-07-13T07:52:25Z</time>
      </trkpt>
      <trkpt lat="37.1667480" lon="-2.8461590">
        <ele>934.6</ele>
        <time>2020-07-13T07:52:28Z</time>
      </trkpt>
      <trkpt lat="37.1666930" lon="-2.8458320">
        <ele>935.0</ele>
        <time>2020-07-13T07:52:31Z</time>
      </trkpt>
      <trkpt lat="37.1666410" lon="-2.8456220">
        <ele>935.0</ele>
        <time>2020-07-13T07:52:33Z</time>
      </trkpt>
      <trkpt lat="37.1665320" lon="-2.8453250">
        <ele>934.6</ele>
        <time>2020-07-13T07:52:36Z</time>
      </trkpt>
      <trkpt lat="37.1664370" lon="-2.8451460">
        <ele>934.6</ele>
        <time>2020-07-13T07:52:38Z</time>
      </trkpt>
      <trkpt lat="37.1661270" lon="-2.8447750">
        <ele>934.6</ele>
        <time>2020-07-13T07:52:43Z</time>
      </trkpt>
      <trkpt lat="37.1656750" lon="-2.8443060">
        <ele>934.6</ele>
        <time>2020-07-13T07:52:50Z</time>
      </trkpt>
      <trkpt lat="37.1654870" lon="-2.8440960">
        <ele>934.0</ele>
        <time>2020-07-13T07:52:53Z</time>
      </trkpt>
      <trkpt lat="37.1652530" lon="-2.8437890">
        <ele>933.6</ele>
        <time>2020-07-13T07:52:57Z</time>
      </trkpt>
      <trkpt lat="37.1652050" lon="-2.8436990">
        <ele>933.4</ele>
        <time>2020-07-13T07:52:58Z</time>
      </trkpt>
      <trkpt lat="37.1651600" lon="-2.8436080">
        <ele>933.2</ele>
        <time>2020-07-13T07:52:59Z</time>
      </trkpt>
      <trkpt lat="37.1650860" lon="-2.8434180">
        <ele>933.0</ele>
        <time>2020-07-13T07:53:01Z</time>
      </trkpt>
      <trkpt lat="37.1650070" lon="-2.8431230">
        <ele>932.6</ele>
        <time>2020-07-13T07:53:04Z</time>
      </trkpt>
      <trkpt lat="37.1649600" lon="-2.8428260">
        <ele>932.2</ele>
        <time>2020-07-13T07:53:07Z</time>
      </trkpt>
      <trkpt lat="37.1649450" lon="-2.8426320">
        <ele>931.8</ele>
        <time>2020-07-13T07:53:09Z</time>
      </trkpt>
      <trkpt lat="37.1649290" lon="-2.8424410">
        <ele>931.8</ele>
        <time>2020-07-13T07:53:11Z</time>
      </trkpt>
      <trkpt lat="37.1649220" lon="-2.8423500">
        <ele>931.6</ele>
        <time>2020-07-13T07:53:12Z</time>
      </trkpt>
      <trkpt lat="37.1649130" lon="-2.8422540">
        <ele>931.6</ele>
        <time>2020-07-13T07:53:13Z</time>
      </trkpt>
      <trkpt lat="37.1648980" lon="-2.8420730">
        <ele>931.2</ele>
        <time>2020-07-13T07:53:15Z</time>
      </trkpt>
      <trkpt lat="37.1648840" lon="-2.8419010">
        <ele>930.8</ele>
        <time>2020-07-13T07:53:17Z</time>
      </trkpt>
      <trkpt lat="37.1648680" lon="-2.8417410">
        <ele>930.4</ele>
        <time>2020-07-13T07:53:19Z</time>
      </trkpt>
      <trkpt lat="37.1648400" lon="-2.8415170">
        <ele>930.2</ele>
        <time>2020-07-13T07:53:22Z</time>
      </trkpt>
      <trkpt lat="37.1647790" lon="-2.8412550">
        <ele>929.8</ele>
        <time>2020-07-13T07:53:26Z</time>
      </trkpt>
      <trkpt lat="37.1647410" lon="-2.8411390">
        <ele>929.6</ele>
        <time>2020-07-13T07:53:28Z</time>
      </trkpt>
      <trkpt lat="37.1646760" lon="-2.8409790">
        <ele>929.4</ele>
        <time>2020-07-13T07:53:31Z</time>
      </trkpt>
      <trkpt lat="37.1646500" lon="-2.8409300">
        <ele>929.2</ele>
        <time>2020-07-13T07:53:32Z</time>
      </trkpt>
      <trkpt lat="37.1646220" lon="-2.8408800">
        <ele>929.0</ele>
        <time>2020-07-13T07:53:33Z</time>
      </trkpt>
      <trkpt lat="37.1645130" lon="-2.8407170">
        <ele>928.6</ele>
        <time>2020-07-13T07:53:36Z</time>
      </trkpt>
      <trkpt lat="37.1644290" lon="-2.8406080">
        <ele>928.2</ele>
        <time>2020-07-13T07:53:38Z</time>
      </trkpt>
      <trkpt lat="37.1642750" lon="-2.8404570">
        <ele>928.0</ele>
        <time>2020-07-13T07:53:41Z</time>
      </trkpt>
      <trkpt lat="37.1640960" lon="-2.8403210">
        <ele>927.4</ele>
        <time>2020-07-13T07:53:44Z</time>
      </trkpt>
      <trkpt lat="37.1639650" lon="-2.8402450">
        <ele>927.2</ele>
        <time>2020-07-13T07:53:46Z</time>
      </trkpt>
      <trkpt lat="37.1635460" lon="-2.8400420">
        <ele>926.6</ele>
        <time>2020-07-13T07:53:52Z</time>
      </trkpt>
      <trkpt lat="37.1631940" lon="-2.8398720">
        <ele>926.2</ele>
        <time>2020-07-13T07:53:57Z</time>
      </trkpt>
      <trkpt lat="37.1629540" lon="-2.8397210">
        <ele>925.8</ele>
        <time>2020-07-13T07:54:01Z</time>
      </trkpt>
      <trkpt lat="37.1627460" lon="-2.8395410">
        <ele>925.8</ele>
        <time>2020-07-13T07:54:04Z</time>
      </trkpt>
      <trkpt lat="37.1626380" lon="-2.8394120">
        <ele>926.0</ele>
        <time>2020-07-13T07:54:06Z</time>
      </trkpt>
      <trkpt lat="37.1623790" lon="-2.8389510">
        <ele>925.6</ele>
        <time>2020-07-13T07:54:12Z</time>
      </trkpt>
      <trkpt lat="37.1622490" lon="-2.8386090">
        <ele>925.4</ele>
        <time>2020-07-13T07:54:16Z</time>
      </trkpt>
      <trkpt lat="37.1621880" lon="-2.8384290">
        <ele>925.2</ele>
        <time>2020-07-13T07:54:18Z</time>
      </trkpt>
      <trkpt lat="37.1621560" lon="-2.8383380">
        <ele>925.0</ele>
        <time>2020-07-13T07:54:19Z</time>
      </trkpt>
      <trkpt lat="37.1619470" lon="-2.8377750">
        <ele>924.0</ele>
        <time>2020-07-13T07:54:25Z</time>
      </trkpt>
      <trkpt lat="37.1618100" lon="-2.8373980">
        <ele>923.6</ele>
        <time>2020-07-13T07:54:29Z</time>
      </trkpt>
      <trkpt lat="37.1616790" lon="-2.8370360">
        <ele>923.0</ele>
        <time>2020-07-13T07:54:33Z</time>
      </trkpt>
      <trkpt lat="37.1615410" lon="-2.8365810">
        <ele>922.0</ele>
        <time>2020-07-13T07:54:38Z</time>
      </trkpt>
      <trkpt lat="37.1615160" lon="-2.8364890">
        <ele>922.0</ele>
        <time>2020-07-13T07:54:39Z</time>
      </trkpt>
      <trkpt lat="37.1613700" lon="-2.8358330">
        <ele>921.6</ele>
        <time>2020-07-13T07:54:46Z</time>
      </trkpt>
      <trkpt lat="37.1613520" lon="-2.8357390">
        <ele>921.4</ele>
        <time>2020-07-13T07:54:47Z</time>
      </trkpt>
      <trkpt lat="37.1612930" lon="-2.8352460">
        <ele>920.8</ele>
        <time>2020-07-13T07:54:52Z</time>
      </trkpt>
      <trkpt lat="37.1612780" lon="-2.8349440">
        <ele>920.8</ele>
        <time>2020-07-13T07:54:55Z</time>
      </trkpt>
      <trkpt lat="37.1612670" lon="-2.8344400">
        <ele>919.8</ele>
        <time>2020-07-13T07:55:00Z</time>
      </trkpt>
      <trkpt lat="37.1612520" lon="-2.8338470">
        <ele>918.8</ele>
        <time>2020-07-13T07:55:06Z</time>
      </trkpt>
      <trkpt lat="37.1612430" lon="-2.8337510">
        <ele>918.8</ele>
        <time>2020-07-13T07:55:07Z</time>
      </trkpt>
      <trkpt lat="37.1612190" lon="-2.8335630">
        <ele>918.4</ele>
        <time>2020-07-13T07:55:09Z</time>
      </trkpt>
      <trkpt lat="37.1611870" lon="-2.8333860">
        <ele>918.2</ele>
        <time>2020-07-13T07:55:11Z</time>
      </trkpt>
      <trkpt lat="37.1611620" lon="-2.8333180">
        <ele>918.2</ele>
        <time>2020-07-13T07:55:12Z</time>
      </trkpt>
      <trkpt lat="37.1610450" lon="-2.8331560">
        <ele>917.6</ele>
        <time>2020-07-13T07:55:15Z</time>
      </trkpt>
      <trkpt lat="37.1609930" lon="-2.8331310">
        <ele>917.4</ele>
        <time>2020-07-13T07:55:16Z</time>
      </trkpt>
      <trkpt lat="37.1608550" lon="-2.8330550">
        <ele>917.0</ele>
        <time>2020-07-13T07:55:19Z</time>
      </trkpt>
      <trkpt lat="37.1607810" lon="-2.8330550">
        <ele>916.8</ele>
        <time>2020-07-13T07:55:21Z</time>
      </trkpt>
      <trkpt lat="37.1607740" lon="-2.8331000">
        <ele>916.8</ele>
        <time>2020-07-13T07:55:22Z</time>
      </trkpt>
      <trkpt lat="37.1607670" lon="-2.8331180">
        <ele>917.0</ele>
        <time>2020-07-13T07:55:23Z</time>
      </trkpt>
      <trkpt lat="37.1607670" lon="-2.8331180">
        <ele>917.0</ele>
        <time>2020-07-13T07:55:24Z</time>
      </trkpt>
      <trkpt lat="37.1607860" lon="-2.8331180">
        <ele>918.4</ele>
        <time>2020-07-13T08:20:49Z</time>
      </trkpt>
      <trkpt lat="37.1607920" lon="-2.8331010">
        <ele>918.4</ele>
        <time>2020-07-13T08:20:50Z</time>
      </trkpt>
      <trkpt lat="37.1607960" lon="-2.8330850">
        <ele>918.6</ele>
        <time>2020-07-13T08:20:51Z</time>
      </trkpt>
      <trkpt lat="37.1608370" lon="-2.8330520">
        <ele>918.4</ele>
        <time>2020-07-13T08:20:54Z</time>
      </trkpt>
      <trkpt lat="37.1608560" lon="-2.8330560">
        <ele>918.4</ele>
        <time>2020-07-13T08:20:55Z</time>
      </trkpt>
      <trkpt lat="37.1609090" lon="-2.8330820">
        <ele>918.2</ele>
        <time>2020-07-13T08:20:58Z</time>
      </trkpt>
      <trkpt lat="37.1609760" lon="-2.8331210">
        <ele>918.2</ele>
        <time>2020-07-13T08:21:01Z</time>
      </trkpt>
      <trkpt lat="37.1611290" lon="-2.8332000">
        <ele>918.0</ele>
        <time>2020-07-13T08:21:07Z</time>
      </trkpt>
      <trkpt lat="37.1611890" lon="-2.8331450">
        <ele>917.8</ele>
        <time>2020-07-13T08:21:10Z</time>
      </trkpt>
      <trkpt lat="37.1612010" lon="-2.8331140">
        <ele>917.8</ele>
        <time>2020-07-13T08:21:11Z</time>
      </trkpt>
      <trkpt lat="37.1612270" lon="-2.8329710">
        <ele>917.6</ele>
        <time>2020-07-13T08:21:14Z</time>
      </trkpt>
      <trkpt lat="37.1612260" lon="-2.8329170">
        <ele>917.4</ele>
        <time>2020-07-13T08:21:15Z</time>
      </trkpt>
      <trkpt lat="37.1612230" lon="-2.8328630">
        <ele>917.4</ele>
        <time>2020-07-13T08:21:16Z</time>
      </trkpt>
      <trkpt lat="37.1612080" lon="-2.8324930">
        <ele>917.0</ele>
        <time>2020-07-13T08:21:22Z</time>
      </trkpt>
      <trkpt lat="37.1611950" lon="-2.8322220">
        <ele>916.6</ele>
        <time>2020-07-13T08:21:26Z</time>
      </trkpt>
      <trkpt lat="37.1611910" lon="-2.8321450">
        <ele>916.6</ele>
        <time>2020-07-13T08:21:27Z</time>
      </trkpt>
      <trkpt lat="37.1611870" lon="-2.8319190">
        <ele>916.2</ele>
        <time>2020-07-13T08:21:30Z</time>
      </trkpt>
      <trkpt lat="37.1611760" lon="-2.8315980">
        <ele>915.6</ele>
        <time>2020-07-13T08:21:34Z</time>
      </trkpt>
      <trkpt lat="37.1611640" lon="-2.8312590">
        <ele>915.0</ele>
        <time>2020-07-13T08:21:38Z</time>
      </trkpt>
      <trkpt lat="37.1611530" lon="-2.8310060">
        <ele>914.4</ele>
        <time>2020-07-13T08:21:41Z</time>
      </trkpt>
      <trkpt lat="37.1611220" lon="-2.8304710">
        <ele>913.4</ele>
        <time>2020-07-13T08:21:47Z</time>
      </trkpt>
      <trkpt lat="37.1610420" lon="-2.8299610">
        <ele>912.4</ele>
        <time>2020-07-13T08:21:53Z</time>
      </trkpt>
      <trkpt lat="37.1610000" lon="-2.8297890">
        <ele>912.2</ele>
        <time>2020-07-13T08:21:55Z</time>
      </trkpt>
      <trkpt lat="37.1608270" lon="-2.8293090">
        <ele>911.4</ele>
        <time>2020-07-13T08:22:01Z</time>
      </trkpt>
      <trkpt lat="37.1607880" lon="-2.8292290">
        <ele>911.2</ele>
        <time>2020-07-13T08:22:02Z</time>
      </trkpt>
      <trkpt lat="37.1607090" lon="-2.8290800">
        <ele>910.8</ele>
        <time>2020-07-13T08:22:04Z</time>
      </trkpt>
      <trkpt lat="37.1605790" lon="-2.8288690">
        <ele>910.4</ele>
        <time>2020-07-13T08:22:07Z</time>
      </trkpt>
      <trkpt lat="37.1604400" lon="-2.8286700">
        <ele>909.8</ele>
        <time>2020-07-13T08:22:10Z</time>
      </trkpt>
      <trkpt lat="37.1600900" lon="-2.8282370">
        <ele>909.2</ele>
        <time>2020-07-13T08:22:17Z</time>
      </trkpt>
      <trkpt lat="37.1598870" lon="-2.8279830">
        <ele>908.8</ele>
        <time>2020-07-13T08:22:21Z</time>
      </trkpt>
      <trkpt lat="37.1595100" lon="-2.8274470">
        <ele>908.4</ele>
        <time>2020-07-13T08:22:29Z</time>
      </trkpt>
      <trkpt lat="37.1594650" lon="-2.8273700">
        <ele>908.2</ele>
        <time>2020-07-13T08:22:30Z</time>
      </trkpt>
      <trkpt lat="37.1594260" lon="-2.8273020">
        <ele>908.2</ele>
        <time>2020-07-13T08:22:31Z</time>
      </trkpt>
      <trkpt lat="37.1591430" lon="-2.8266820">
        <ele>907.4</ele>
        <time>2020-07-13T08:22:39Z</time>
      </trkpt>
      <trkpt lat="37.1590840" lon="-2.8265210">
        <ele>907.0</ele>
        <time>2020-07-13T08:22:41Z</time>
      </trkpt>
      <trkpt lat="37.1588960" lon="-2.8258990">
        <ele>906.2</ele>
        <time>2020-07-13T08:22:48Z</time>
      </trkpt>
      <trkpt lat="37.1588470" lon="-2.8257210">
        <ele>906.0</ele>
        <time>2020-07-13T08:22:50Z</time>
      </trkpt>
      <trkpt lat="37.1586730" lon="-2.8251000">
        <ele>905.0</ele>
        <time>2020-07-13T08:22:57Z</time>
      </trkpt>
      <trkpt lat="37.1585960" lon="-2.8248240">
        <ele>904.4</ele>
        <time>2020-07-13T08:23:00Z</time>
      </trkpt>
      <trkpt lat="37.1585450" lon="-2.8246370">
        <ele>903.8</ele>
        <time>2020-07-13T08:23:02Z</time>
      </trkpt>
      <trkpt lat="37.1584180" lon="-2.8241630">
        <ele>902.8</ele>
        <time>2020-07-13T08:23:07Z</time>
      </trkpt>
      <trkpt lat="37.1583440" lon="-2.8238880">
        <ele>902.0</ele>
        <time>2020-07-13T08:23:10Z</time>
      </trkpt>
      <trkpt lat="37.1583210" lon="-2.8238030">
        <ele>901.8</ele>
        <time>2020-07-13T08:23:11Z</time>
      </trkpt>
      <trkpt lat="37.1582110" lon="-2.8234020">
        <ele>900.6</ele>
        <time>2020-07-13T08:23:15Z</time>
      </trkpt>
      <trkpt lat="37.1580750" lon="-2.8229030">
        <ele>899.6</ele>
        <time>2020-07-13T08:23:20Z</time>
      </trkpt>
      <trkpt lat="37.1580220" lon="-2.8226980">
        <ele>899.2</ele>
        <time>2020-07-13T08:23:22Z</time>
      </trkpt>
      <trkpt lat="37.1579450" lon="-2.8223810">
        <ele>898.4</ele>
        <time>2020-07-13T08:23:25Z</time>
      </trkpt>
      <trkpt lat="37.1578740" lon="-2.8220520">
        <ele>897.4</ele>
        <time>2020-07-13T08:23:28Z</time>
      </trkpt>
      <trkpt lat="37.1578070" lon="-2.8217210">
        <ele>896.4</ele>
        <time>2020-07-13T08:23:31Z</time>
      </trkpt>
      <trkpt lat="37.1577850" lon="-2.8216000">
        <ele>896.0</ele>
        <time>2020-07-13T08:23:32Z</time>
      </trkpt>
      <trkpt lat="37.1577280" lon="-2.8212620">
        <ele>895.2</ele>
        <time>2020-07-13T08:23:35Z</time>
      </trkpt>
      <trkpt lat="37.1576760" lon="-2.8209090">
        <ele>894.2</ele>
        <time>2020-07-13T08:23:38Z</time>
      </trkpt>
      <trkpt lat="37.1576300" lon="-2.8205740">
        <ele>892.8</ele>
        <time>2020-07-13T08:23:41Z</time>
      </trkpt>
      <trkpt lat="37.1576110" lon="-2.8204400">
        <ele>892.6</ele>
        <time>2020-07-13T08:23:42Z</time>
      </trkpt>
      <trkpt lat="37.1575780" lon="-2.8201990">
        <ele>891.6</ele>
        <time>2020-07-13T08:23:44Z</time>
      </trkpt>
      <trkpt lat="37.1575270" lon="-2.8198330">
        <ele>890.6</ele>
        <time>2020-07-13T08:23:47Z</time>
      </trkpt>
      <trkpt lat="37.1574920" lon="-2.8195730">
        <ele>889.4</ele>
        <time>2020-07-13T08:23:49Z</time>
      </trkpt>
      <trkpt lat="37.1574570" lon="-2.8193260">
        <ele>888.2</ele>
        <time>2020-07-13T08:23:51Z</time>
      </trkpt>
      <trkpt lat="37.1574220" lon="-2.8190710">
        <ele>887.0</ele>
        <time>2020-07-13T08:23:53Z</time>
      </trkpt>
      <trkpt lat="37.1573700" lon="-2.8186880">
        <ele>886.0</ele>
        <time>2020-07-13T08:23:56Z</time>
      </trkpt>
      <trkpt lat="37.1573160" lon="-2.8183020">
        <ele>884.6</ele>
        <time>2020-07-13T08:23:59Z</time>
      </trkpt>
      <trkpt lat="37.1572630" lon="-2.8179220">
        <ele>883.4</ele>
        <time>2020-07-13T08:24:02Z</time>
      </trkpt>
      <trkpt lat="37.1572030" lon="-2.8174390">
        <ele>882.2</ele>
        <time>2020-07-13T08:24:06Z</time>
      </trkpt>
      <trkpt lat="37.1571650" lon="-2.8169300">
        <ele>880.6</ele>
        <time>2020-07-13T08:24:10Z</time>
      </trkpt>
      <trkpt lat="37.1571620" lon="-2.8168300">
        <ele>880.2</ele>
        <time>2020-07-13T08:24:11Z</time>
      </trkpt>
      <trkpt lat="37.1571590" lon="-2.8165620">
        <ele>879.4</ele>
        <time>2020-07-13T08:24:13Z</time>
      </trkpt>
      <trkpt lat="37.1571740" lon="-2.8160810">
        <ele>878.0</ele>
        <time>2020-07-13T08:24:17Z</time>
      </trkpt>
      <trkpt lat="37.1571830" lon="-2.8159470">
        <ele>877.6</ele>
        <time>2020-07-13T08:24:18Z</time>
      </trkpt>
      <trkpt lat="37.1571990" lon="-2.8156930">
        <ele>876.8</ele>
        <time>2020-07-13T08:24:20Z</time>
      </trkpt>
      <trkpt lat="37.1572250" lon="-2.8151750">
        <ele>875.8</ele>
        <time>2020-07-13T08:24:24Z</time>
      </trkpt>
      <trkpt lat="37.1572310" lon="-2.8146600">
        <ele>874.4</ele>
        <time>2020-07-13T08:24:28Z</time>
      </trkpt>
      <trkpt lat="37.1571980" lon="-2.8141700">
        <ele>873.2</ele>
        <time>2020-07-13T08:24:32Z</time>
      </trkpt>
      <trkpt lat="37.1571670" lon="-2.8139260">
        <ele>872.4</ele>
        <time>2020-07-13T08:24:34Z</time>
      </trkpt>
      <trkpt lat="37.1571520" lon="-2.8138170">
        <ele>872.0</ele>
        <time>2020-07-13T08:24:35Z</time>
      </trkpt>
      <trkpt lat="37.1570830" lon="-2.8134460">
        <ele>870.8</ele>
        <time>2020-07-13T08:24:38Z</time>
      </trkpt>
      <trkpt lat="37.1570000" lon="-2.8131140">
        <ele>869.8</ele>
        <time>2020-07-13T08:24:41Z</time>
      </trkpt>
      <trkpt lat="37.1568920" lon="-2.8127540">
        <ele>868.6</ele>
        <time>2020-07-13T08:24:44Z</time>
      </trkpt>
      <trkpt lat="37.1567770" lon="-2.8124030">
        <ele>867.8</ele>
        <time>2020-07-13T08:24:47Z</time>
      </trkpt>
      <trkpt lat="37.1567320" lon="-2.8122720">
        <ele>867.6</ele>
        <time>2020-07-13T08:24:48Z</time>
      </trkpt>
      <trkpt lat="37.1566930" lon="-2.8121570">
        <ele>867.2</ele>
        <time>2020-07-13T08:24:49Z</time>
      </trkpt>
      <trkpt lat="37.1565750" lon="-2.8118120">
        <ele>866.2</ele>
        <time>2020-07-13T08:24:52Z</time>
      </trkpt>
      <trkpt lat="37.1564590" lon="-2.8114710">
        <ele>864.8</ele>
        <time>2020-07-13T08:24:55Z</time>
      </trkpt>
      <trkpt lat="37.1563410" lon="-2.8111170">
        <ele>863.6</ele>
        <time>2020-07-13T08:24:58Z</time>
      </trkpt>
      <trkpt lat="37.1562760" lon="-2.8109140">
        <ele>863.0</ele>
        <time>2020-07-13T08:25:00Z</time>
      </trkpt>
      <trkpt lat="37.1561910" lon="-2.8106420">
        <ele>862.6</ele>
        <time>2020-07-13T08:25:02Z</time>
      </trkpt>
      <trkpt lat="37.1560840" lon="-2.8103010">
        <ele>861.6</ele>
        <time>2020-07-13T08:25:05Z</time>
      </trkpt>
      <trkpt lat="37.1559770" lon="-2.8099330">
        <ele>860.4</ele>
        <time>2020-07-13T08:25:08Z</time>
      </trkpt>
      <trkpt lat="37.1559390" lon="-2.8098030">
        <ele>860.0</ele>
        <time>2020-07-13T08:25:09Z</time>
      </trkpt>
      <trkpt lat="37.1558800" lon="-2.8095840">
        <ele>859.4</ele>
        <time>2020-07-13T08:25:11Z</time>
      </trkpt>
      <trkpt lat="37.1557240" lon="-2.8089870">
        <ele>858.0</ele>
        <time>2020-07-13T08:25:16Z</time>
      </trkpt>
      <trkpt lat="37.1556640" lon="-2.8087500">
        <ele>857.6</ele>
        <time>2020-07-13T08:25:18Z</time>
      </trkpt>
      <trkpt lat="37.1555490" lon="-2.8083060">
        <ele>856.8</ele>
        <time>2020-07-13T08:25:22Z</time>
      </trkpt>
      <trkpt lat="37.1554150" lon="-2.8077630">
        <ele>855.8</ele>
        <time>2020-07-13T08:25:27Z</time>
      </trkpt>
      <trkpt lat="37.1553890" lon="-2.8076590">
        <ele>855.8</ele>
        <time>2020-07-13T08:25:28Z</time>
      </trkpt>
      <trkpt lat="37.1552840" lon="-2.8072510">
        <ele>855.6</ele>
        <time>2020-07-13T08:25:32Z</time>
      </trkpt>
      <trkpt lat="37.1551370" lon="-2.8067450">
        <ele>855.2</ele>
        <time>2020-07-13T08:25:37Z</time>
      </trkpt>
      <trkpt lat="37.1550750" lon="-2.8065530">
        <ele>855.0</ele>
        <time>2020-07-13T08:25:39Z</time>
      </trkpt>
      <trkpt lat="37.1549750" lon="-2.8062740">
        <ele>854.8</ele>
        <time>2020-07-13T08:25:42Z</time>
      </trkpt>
      <trkpt lat="37.1549020" lon="-2.8060990">
        <ele>854.8</ele>
        <time>2020-07-13T08:25:44Z</time>
      </trkpt>
      <trkpt lat="37.1548620" lon="-2.8060080">
        <ele>854.8</ele>
        <time>2020-07-13T08:25:45Z</time>
      </trkpt>
      <trkpt lat="37.1546220" lon="-2.8055140">
        <ele>854.6</ele>
        <time>2020-07-13T08:25:51Z</time>
      </trkpt>
      <trkpt lat="37.1545330" lon="-2.8053510">
        <ele>854.6</ele>
        <time>2020-07-13T08:25:53Z</time>
      </trkpt>
      <trkpt lat="37.1542080" lon="-2.8047910">
        <ele>854.4</ele>
        <time>2020-07-13T08:26:00Z</time>
      </trkpt>
      <trkpt lat="37.1540180" lon="-2.8044860">
        <ele>854.0</ele>
        <time>2020-07-13T08:26:04Z</time>
      </trkpt>
      <trkpt lat="37.1537680" lon="-2.8040900">
        <ele>854.0</ele>
        <time>2020-07-13T08:26:09Z</time>
      </trkpt>
      <trkpt lat="37.1535750" lon="-2.8037710">
        <ele>854.0</ele>
        <time>2020-07-13T08:26:13Z</time>
      </trkpt>
      <trkpt lat="37.1533870" lon="-2.8034510">
        <ele>853.8</ele>
        <time>2020-07-13T08:26:17Z</time>
      </trkpt>
      <trkpt lat="37.1530810" lon="-2.8028760">
        <ele>853.0</ele>
        <time>2020-07-13T08:26:24Z</time>
      </trkpt>
      <trkpt lat="37.1530070" lon="-2.8027130">
        <ele>852.6</ele>
        <time>2020-07-13T08:26:26Z</time>
      </trkpt>
      <trkpt lat="37.1528160" lon="-2.8022730">
        <ele>852.0</ele>
        <time>2020-07-13T08:26:31Z</time>
      </trkpt>
      <trkpt lat="37.1527020" lon="-2.8019990">
        <ele>851.6</ele>
        <time>2020-07-13T08:26:34Z</time>
      </trkpt>
      <trkpt lat="37.1526650" lon="-2.8019090">
        <ele>851.6</ele>
        <time>2020-07-13T08:26:35Z</time>
      </trkpt>
      <trkpt lat="37.1524430" lon="-2.8013490">
        <ele>850.6</ele>
        <time>2020-07-13T08:26:41Z</time>
      </trkpt>
      <trkpt lat="37.1523990" lon="-2.8012410">
        <ele>850.4</ele>
        <time>2020-07-13T08:26:42Z</time>
      </trkpt>
      <trkpt lat="37.1522820" lon="-2.8009550">
        <ele>849.8</ele>
        <time>2020-07-13T08:26:45Z</time>
      </trkpt>
      <trkpt lat="37.1522060" lon="-2.8007700">
        <ele>849.4</ele>
        <time>2020-07-13T08:26:47Z</time>
      </trkpt>
      <trkpt lat="37.1519610" lon="-2.8002090">
        <ele>848.4</ele>
        <time>2020-07-13T08:26:53Z</time>
      </trkpt>
      <trkpt lat="37.1517870" lon="-2.7998320">
        <ele>847.4</ele>
        <time>2020-07-13T08:26:57Z</time>
      </trkpt>
      <trkpt lat="37.1517420" lon="-2.7997370">
        <ele>847.4</ele>
        <time>2020-07-13T08:26:58Z</time>
      </trkpt>
      <trkpt lat="37.1515650" lon="-2.7993760">
        <ele>846.8</ele>
        <time>2020-07-13T08:27:02Z</time>
      </trkpt>
      <trkpt lat="37.1514430" lon="-2.7991160">
        <ele>846.2</ele>
        <time>2020-07-13T08:27:05Z</time>
      </trkpt>
      <trkpt lat="37.1512330" lon="-2.7987760">
        <ele>845.6</ele>
        <time>2020-07-13T08:27:09Z</time>
      </trkpt>
      <trkpt lat="37.1511830" lon="-2.7986930">
        <ele>845.6</ele>
        <time>2020-07-13T08:27:10Z</time>
      </trkpt>
      <trkpt lat="37.1510820" lon="-2.7985280">
        <ele>845.0</ele>
        <time>2020-07-13T08:27:12Z</time>
      </trkpt>
      <trkpt lat="37.1509860" lon="-2.7983670">
        <ele>844.8</ele>
        <time>2020-07-13T08:27:14Z</time>
      </trkpt>
      <trkpt lat="37.1508460" lon="-2.7981370">
        <ele>844.4</ele>
        <time>2020-07-13T08:27:17Z</time>
      </trkpt>
      <trkpt lat="37.1506040" lon="-2.7977480">
        <ele>844.0</ele>
        <time>2020-07-13T08:27:22Z</time>
      </trkpt>
      <trkpt lat="37.1504650" lon="-2.7975260">
        <ele>844.0</ele>
        <time>2020-07-13T08:27:25Z</time>
      </trkpt>
      <trkpt lat="37.1504260" lon="-2.7974590">
        <ele>843.8</ele>
        <time>2020-07-13T08:27:26Z</time>
      </trkpt>
      <trkpt lat="37.1500790" lon="-2.7968930">
        <ele>843.2</ele>
        <time>2020-07-13T08:27:34Z</time>
      </trkpt>
      <trkpt lat="37.1500080" lon="-2.7967750">
        <ele>843.0</ele>
        <time>2020-07-13T08:27:36Z</time>
      </trkpt>
      <trkpt lat="37.1499640" lon="-2.7966950">
        <ele>843.0</ele>
        <time>2020-07-13T08:27:37Z</time>
      </trkpt>
      <trkpt lat="37.1499170" lon="-2.7965530">
        <ele>842.8</ele>
        <time>2020-07-13T08:27:39Z</time>
      </trkpt>
      <trkpt lat="37.1499350" lon="-2.7964840">
        <ele>842.8</ele>
        <time>2020-07-13T08:27:40Z</time>
      </trkpt>
      <trkpt lat="37.1500340" lon="-2.7963950">
        <ele>842.8</ele>
        <time>2020-07-13T08:27:42Z</time>
      </trkpt>
      <trkpt lat="37.1501580" lon="-2.7963590">
        <ele>842.6</ele>
        <time>2020-07-13T08:27:44Z</time>
      </trkpt>
      <trkpt lat="37.1502820" lon="-2.7963130">
        <ele>842.2</ele>
        <time>2020-07-13T08:27:46Z</time>
      </trkpt>
      <trkpt lat="37.1504710" lon="-2.7961810">
        <ele>841.8</ele>
        <time>2020-07-13T08:27:49Z</time>
      </trkpt>
      <trkpt lat="37.1505380" lon="-2.7961260">
        <ele>841.6</ele>
        <time>2020-07-13T08:27:50Z</time>
      </trkpt>
      <trkpt lat="37.1507300" lon="-2.7959370">
        <ele>840.8</ele>
        <time>2020-07-13T08:27:53Z</time>
      </trkpt>
      <trkpt lat="37.1508640" lon="-2.7957870">
        <ele>840.0</ele>
        <time>2020-07-13T08:27:55Z</time>
      </trkpt>
      <trkpt lat="37.1509250" lon="-2.7957170">
        <ele>839.6</ele>
        <time>2020-07-13T08:27:56Z</time>
      </trkpt>
      <trkpt lat="37.1511230" lon="-2.7954880">
        <ele>838.6</ele>
        <time>2020-07-13T08:27:59Z</time>
      </trkpt>
      <trkpt lat="37.1514090" lon="-2.7951940">
        <ele>837.4</ele>
        <time>2020-07-13T08:28:03Z</time>
      </trkpt>
      <trkpt lat="37.1517610" lon="-2.7948380">
        <ele>836.6</ele>
        <time>2020-07-13T08:28:08Z</time>
      </trkpt>
      <trkpt lat="37.1518360" lon="-2.7947720">
        <ele>836.2</ele>
        <time>2020-07-13T08:28:09Z</time>
      </trkpt>
      <trkpt lat="37.1519800" lon="-2.7946500">
        <ele>835.6</ele>
        <time>2020-07-13T08:28:11Z</time>
      </trkpt>
      <trkpt lat="37.1520680" lon="-2.7945800">
        <ele>835.2</ele>
        <time>2020-07-13T08:28:12Z</time>
      </trkpt>
      <trkpt lat="37.1523610" lon="-2.7943420">
        <ele>834.0</ele>
        <time>2020-07-13T08:28:16Z</time>
      </trkpt>
      <trkpt lat="37.1524290" lon="-2.7942820">
        <ele>833.8</ele>
        <time>2020-07-13T08:28:17Z</time>
      </trkpt>
      <trkpt lat="37.1527510" lon="-2.7940250">
        <ele>833.6</ele>
        <time>2020-07-13T08:28:22Z</time>
      </trkpt>
      <trkpt lat="37.1528060" lon="-2.7939930">
        <ele>833.6</ele>
        <time>2020-07-13T08:28:23Z</time>
      </trkpt>
      <trkpt lat="37.1529750" lon="-2.7939080">
        <ele>833.8</ele>
        <time>2020-07-13T08:28:26Z</time>
      </trkpt>
      <trkpt lat="37.1530310" lon="-2.7938760">
        <ele>833.8</ele>
        <time>2020-07-13T08:28:27Z</time>
      </trkpt>
      <trkpt lat="37.1530760" lon="-2.7938330">
        <ele>834.0</ele>
        <time>2020-07-13T08:28:28Z</time>
      </trkpt>
      <trkpt lat="37.1531020" lon="-2.7937720">
        <ele>834.2</ele>
        <time>2020-07-13T08:28:29Z</time>
      </trkpt>
      <trkpt lat="37.1530840" lon="-2.7935180">
        <ele>834.2</ele>
        <time>2020-07-13T08:28:32Z</time>
      </trkpt>
      <trkpt lat="37.1530140" lon="-2.7931620">
        <ele>833.6</ele>
        <time>2020-07-13T08:28:36Z</time>
      </trkpt>
      <trkpt lat="37.1530090" lon="-2.7930620">
        <ele>833.4</ele>
        <time>2020-07-13T08:28:37Z</time>
      </trkpt>
      <trkpt lat="37.1530280" lon="-2.7929670">
        <ele>833.4</ele>
        <time>2020-07-13T08:28:38Z</time>
      </trkpt>
      <trkpt lat="37.1531350" lon="-2.7928300">
        <ele>832.8</ele>
        <time>2020-07-13T08:28:40Z</time>
      </trkpt>
      <trkpt lat="37.1532720" lon="-2.7927490">
        <ele>832.2</ele>
        <time>2020-07-13T08:28:42Z</time>
      </trkpt>
      <trkpt lat="37.1534030" lon="-2.7926810">
        <ele>832.0</ele>
        <time>2020-07-13T08:28:44Z</time>
      </trkpt>
      <trkpt lat="37.1535840" lon="-2.7925980">
        <ele>832.0</ele>
        <time>2020-07-13T08:28:47Z</time>
      </trkpt>
      <trkpt lat="37.1537030" lon="-2.7925430">
        <ele>832.4</ele>
        <time>2020-07-13T08:28:49Z</time>
      </trkpt>
      <trkpt lat="37.1538110" lon="-2.7924930">
        <ele>832.8</ele>
        <time>2020-07-13T08:28:51Z</time>
      </trkpt>
      <trkpt lat="37.1539210" lon="-2.7924360">
        <ele>833.4</ele>
        <time>2020-07-13T08:28:53Z</time>
      </trkpt>
      <trkpt lat="37.1540350" lon="-2.7923810">
        <ele>834.0</ele>
        <time>2020-07-13T08:28:55Z</time>
      </trkpt>
      <trkpt lat="37.1541940" lon="-2.7923120">
        <ele>834.8</ele>
        <time>2020-07-13T08:28:58Z</time>
      </trkpt>
      <trkpt lat="37.1542410" lon="-2.7922900">
        <ele>835.0</ele>
        <time>2020-07-13T08:28:59Z</time>
      </trkpt>
      <trkpt lat="37.1543900" lon="-2.7922240">
        <ele>835.6</ele>
        <time>2020-07-13T08:29:02Z</time>
      </trkpt>
      <trkpt lat="37.1545680" lon="-2.7921400">
        <ele>836.2</ele>
        <time>2020-07-13T08:29:06Z</time>
      </trkpt>
      <trkpt lat="37.1546140" lon="-2.7921180">
        <ele>836.4</ele>
        <time>2020-07-13T08:29:07Z</time>
      </trkpt>
      <trkpt lat="37.1547700" lon="-2.7920440">
        <ele>837.0</ele>
        <time>2020-07-13T08:29:11Z</time>
      </trkpt>
      <trkpt lat="37.1548580" lon="-2.7920070">
        <ele>837.2</ele>
        <time>2020-07-13T08:29:13Z</time>
      </trkpt>
      <trkpt lat="37.1549780" lon="-2.7919440">
        <ele>837.8</ele>
        <time>2020-07-13T08:29:16Z</time>
      </trkpt>
      <trkpt lat="37.1550620" lon="-2.7919050">
        <ele>838.4</ele>
        <time>2020-07-13T08:29:18Z</time>
      </trkpt>
      <trkpt lat="37.1552230" lon="-2.7918240">
        <ele>839.2</ele>
        <time>2020-07-13T08:29:22Z</time>
      </trkpt>
      <trkpt lat="37.1553030" lon="-2.7917850">
        <ele>839.6</ele>
        <time>2020-07-13T08:29:24Z</time>
      </trkpt>
      <trkpt lat="37.1554160" lon="-2.7917110">
        <ele>839.8</ele>
        <time>2020-07-13T08:29:27Z</time>
      </trkpt>
      <trkpt lat="37.1555120" lon="-2.7915350">
        <ele>840.4</ele>
        <time>2020-07-13T08:29:31Z</time>
      </trkpt>
      <trkpt lat="37.1555330" lon="-2.7913570">
        <ele>840.6</ele>
        <time>2020-07-13T08:29:34Z</time>
      </trkpt>
      <trkpt lat="37.1555350" lon="-2.7913010">
        <ele>840.6</ele>
        <time>2020-07-13T08:29:35Z</time>
      </trkpt>
      <trkpt lat="37.1555360" lon="-2.7911820">
        <ele>840.8</ele>
        <time>2020-07-13T08:29:37Z</time>
      </trkpt>
      <trkpt lat="37.1555430" lon="-2.7911270">
        <ele>840.8</ele>
        <time>2020-07-13T08:29:38Z</time>
      </trkpt>
      <trkpt lat="37.1556020" lon="-2.7909540">
        <ele>841.0</ele>
        <time>2020-07-13T08:29:42Z</time>
      </trkpt>
      <trkpt lat="37.1556520" lon="-2.7908980">
        <ele>841.6</ele>
        <time>2020-07-13T08:29:44Z</time>
      </trkpt>
      <trkpt lat="37.1557050" lon="-2.7908540">
        <ele>842.4</ele>
        <time>2020-07-13T08:29:46Z</time>
      </trkpt>
      <trkpt lat="37.1557340" lon="-2.7908320">
        <ele>842.6</ele>
        <time>2020-07-13T08:29:47Z</time>
      </trkpt>
      <trkpt lat="37.1557630" lon="-2.7908100">
        <ele>843.0</ele>
        <time>2020-07-13T08:29:48Z</time>
      </trkpt>
      <trkpt lat="37.1559120" lon="-2.7907370">
        <ele>844.2</ele>
        <time>2020-07-13T08:29:53Z</time>
      </trkpt>
      <trkpt lat="37.1560810" lon="-2.7906470">
        <ele>845.4</ele>
        <time>2020-07-13T08:29:59Z</time>
      </trkpt>
      <trkpt lat="37.1561130" lon="-2.7906300">
        <ele>845.6</ele>
        <time>2020-07-13T08:30:00Z</time>
      </trkpt>
      <trkpt lat="37.1561990" lon="-2.7905780">
        <ele>846.6</ele>
        <time>2020-07-13T08:30:03Z</time>
      </trkpt>
      <trkpt lat="37.1563360" lon="-2.7905040">
        <ele>847.6</ele>
        <time>2020-07-13T08:30:08Z</time>
      </trkpt>
      <trkpt lat="37.1563620" lon="-2.7904930">
        <ele>847.8</ele>
        <time>2020-07-13T08:30:09Z</time>
      </trkpt>
      <trkpt lat="37.1564670" lon="-2.7904360">
        <ele>848.6</ele>
        <time>2020-07-13T08:30:13Z</time>
      </trkpt>
      <trkpt lat="37.1565980" lon="-2.7903740">
        <ele>849.8</ele>
        <time>2020-07-13T08:30:18Z</time>
      </trkpt>
      <trkpt lat="37.1567490" lon="-2.7902900">
        <ele>851.0</ele>
        <time>2020-07-13T08:30:24Z</time>
      </trkpt>
      <trkpt lat="37.1568510" lon="-2.7902430">
        <ele>852.2</ele>
        <time>2020-07-13T08:30:28Z</time>
      </trkpt>
      <trkpt lat="37.1569860" lon="-2.7901990">
        <ele>853.2</ele>
        <time>2020-07-13T08:30:33Z</time>
      </trkpt>
      <trkpt lat="37.1571390" lon="-2.7901640">
        <ele>854.0</ele>
        <time>2020-07-13T08:30:38Z</time>
      </trkpt>
      <trkpt lat="37.1572020" lon="-2.7901540">
        <ele>854.4</ele>
        <time>2020-07-13T08:30:40Z</time>
      </trkpt>
      <trkpt lat="37.1573600" lon="-2.7901340">
        <ele>855.6</ele>
        <time>2020-07-13T08:30:45Z</time>
      </trkpt>
      <trkpt lat="37.1574600" lon="-2.7901250">
        <ele>856.0</ele>
        <time>2020-07-13T08:30:48Z</time>
      </trkpt>
      <trkpt lat="37.1575930" lon="-2.7901070">
        <ele>856.6</ele>
        <time>2020-07-13T08:30:52Z</time>
      </trkpt>
      <trkpt lat="37.1578250" lon="-2.7900720">
        <ele>857.6</ele>
        <time>2020-07-13T08:30:59Z</time>
      </trkpt>
      <trkpt lat="37.1578600" lon="-2.7900670">
        <ele>857.8</ele>
        <time>2020-07-13T08:31:00Z</time>
      </trkpt>
      <trkpt lat="37.1580960" lon="-2.7900370">
        <ele>859.0</ele>
        <time>2020-07-13T08:31:07Z</time>
      </trkpt>
      <trkpt lat="37.1582940" lon="-2.7900060">
        <ele>860.0</ele>
        <time>2020-07-13T08:31:13Z</time>
      </trkpt>
      <trkpt lat="37.1584620" lon="-2.7899880">
        <ele>860.8</ele>
        <time>2020-07-13T08:31:18Z</time>
      </trkpt>
      <trkpt lat="37.1585300" lon="-2.7899840">
        <ele>861.0</ele>
        <time>2020-07-13T08:31:20Z</time>
      </trkpt>
      <trkpt lat="37.1586280" lon="-2.7899660">
        <ele>861.4</ele>
        <time>2020-07-13T08:31:23Z</time>
      </trkpt>
      <trkpt lat="37.1587640" lon="-2.7899480">
        <ele>862.0</ele>
        <time>2020-07-13T08:31:27Z</time>
      </trkpt>
      <trkpt lat="37.1588960" lon="-2.7899300">
        <ele>863.2</ele>
        <time>2020-07-13T08:31:31Z</time>
      </trkpt>
      <trkpt lat="37.1589640" lon="-2.7899210">
        <ele>863.8</ele>
        <time>2020-07-13T08:31:33Z</time>
      </trkpt>
      <trkpt lat="37.1590950" lon="-2.7899000">
        <ele>864.4</ele>
        <time>2020-07-13T08:31:37Z</time>
      </trkpt>
      <trkpt lat="37.1592890" lon="-2.7898680">
        <ele>865.6</ele>
        <time>2020-07-13T08:31:43Z</time>
      </trkpt>
      <trkpt lat="37.1593840" lon="-2.7898520">
        <ele>866.0</ele>
        <time>2020-07-13T08:31:46Z</time>
      </trkpt>
      <trkpt lat="37.1595500" lon="-2.7898200">
        <ele>866.6</ele>
        <time>2020-07-13T08:31:51Z</time>
      </trkpt>
      <trkpt lat="37.1597210" lon="-2.7897940">
        <ele>867.6</ele>
        <time>2020-07-13T08:31:56Z</time>
      </trkpt>
      <trkpt lat="37.1597590" lon="-2.7897870">
        <ele>867.8</ele>
        <time>2020-07-13T08:31:57Z</time>
      </trkpt>
      <trkpt lat="37.1599700" lon="-2.7897570">
        <ele>868.6</ele>
        <time>2020-07-13T08:32:03Z</time>
      </trkpt>
      <trkpt lat="37.1601450" lon="-2.7897250">
        <ele>869.2</ele>
        <time>2020-07-13T08:32:08Z</time>
      </trkpt>
      <trkpt lat="37.1602820" lon="-2.7897010">
        <ele>869.8</ele>
        <time>2020-07-13T08:32:12Z</time>
      </trkpt>
      <trkpt lat="37.1604850" lon="-2.7896690">
        <ele>870.8</ele>
        <time>2020-07-13T08:32:18Z</time>
      </trkpt>
      <trkpt lat="37.1605530" lon="-2.7896580">
        <ele>871.2</ele>
        <time>2020-07-13T08:32:20Z</time>
      </trkpt>
      <trkpt lat="37.1606500" lon="-2.7896450">
        <ele>871.8</ele>
        <time>2020-07-13T08:32:23Z</time>
      </trkpt>
      <trkpt lat="37.1608790" lon="-2.7896060">
        <ele>873.2</ele>
        <time>2020-07-13T08:32:30Z</time>
      </trkpt>
      <trkpt lat="37.1609090" lon="-2.7896010">
        <ele>873.4</ele>
        <time>2020-07-13T08:32:31Z</time>
      </trkpt>
      <trkpt lat="37.1610740" lon="-2.7895750">
        <ele>874.4</ele>
        <time>2020-07-13T08:32:36Z</time>
      </trkpt>
      <trkpt lat="37.1612420" lon="-2.7895530">
        <ele>875.2</ele>
        <time>2020-07-13T08:32:41Z</time>
      </trkpt>
      <trkpt lat="37.1612810" lon="-2.7895450">
        <ele>875.4</ele>
        <time>2020-07-13T08:32:42Z</time>
      </trkpt>
      <trkpt lat="37.1615250" lon="-2.7895070">
        <ele>876.4</ele>
        <time>2020-07-13T08:32:49Z</time>
      </trkpt>
      <trkpt lat="37.1615910" lon="-2.7894950">
        <ele>876.8</ele>
        <time>2020-07-13T08:32:51Z</time>
      </trkpt>
      <trkpt lat="37.1616930" lon="-2.7894790">
        <ele>877.6</ele>
        <time>2020-07-13T08:32:54Z</time>
      </trkpt>
      <trkpt lat="37.1618550" lon="-2.7894540">
        <ele>878.6</ele>
        <time>2020-07-13T08:32:59Z</time>
      </trkpt>
      <trkpt lat="37.1619550" lon="-2.7894370">
        <ele>879.0</ele>
        <time>2020-07-13T08:33:02Z</time>
      </trkpt>
      <trkpt lat="37.1620490" lon="-2.7894260">
        <ele>879.6</ele>
        <time>2020-07-13T08:33:05Z</time>
      </trkpt>
      <trkpt lat="37.1622360" lon="-2.7893890">
        <ele>880.6</ele>
        <time>2020-07-13T08:33:11Z</time>
      </trkpt>
      <trkpt lat="37.1622720" lon="-2.7893840">
        <ele>880.8</ele>
        <time>2020-07-13T08:33:12Z</time>
      </trkpt>
      <trkpt lat="37.1624290" lon="-2.7893620">
        <ele>881.8</ele>
        <time>2020-07-13T08:33:17Z</time>
      </trkpt>
      <trkpt lat="37.1625280" lon="-2.7893480">
        <ele>882.4</ele>
        <time>2020-07-13T08:33:20Z</time>
      </trkpt>
      <trkpt lat="37.1626570" lon="-2.7893250">
        <ele>882.8</ele>
        <time>2020-07-13T08:33:24Z</time>
      </trkpt>
      <trkpt lat="37.1628130" lon="-2.7893050">
        <ele>883.8</ele>
        <time>2020-07-13T08:33:29Z</time>
      </trkpt>
      <trkpt lat="37.1628460" lon="-2.7893000">
        <ele>884.0</ele>
        <time>2020-07-13T08:33:30Z</time>
      </trkpt>
      <trkpt lat="37.1631060" lon="-2.7892580">
        <ele>885.2</ele>
        <time>2020-07-13T08:33:38Z</time>
      </trkpt>
      <trkpt lat="37.1631380" lon="-2.7892540">
        <ele>885.4</ele>
        <time>2020-07-13T08:33:39Z</time>
      </trkpt>
      <trkpt lat="37.1632670" lon="-2.7892380">
        <ele>886.2</ele>
        <time>2020-07-13T08:33:43Z</time>
      </trkpt>
      <trkpt lat="37.1634610" lon="-2.7892060">
        <ele>887.2</ele>
        <time>2020-07-13T08:33:49Z</time>
      </trkpt>
      <trkpt lat="37.1636640" lon="-2.7891770">
        <ele>888.2</ele>
        <time>2020-07-13T08:33:55Z</time>
      </trkpt>
      <trkpt lat="37.1637680" lon="-2.7891620">
        <ele>888.6</ele>
        <time>2020-07-13T08:33:58Z</time>
      </trkpt>
      <trkpt lat="37.1638660" lon="-2.7891430">
        <ele>889.4</ele>
        <time>2020-07-13T08:34:01Z</time>
      </trkpt>
      <trkpt lat="37.1640720" lon="-2.7891100">
        <ele>890.4</ele>
        <time>2020-07-13T08:34:07Z</time>
      </trkpt>
      <trkpt lat="37.1641060" lon="-2.7891050">
        <ele>890.6</ele>
        <time>2020-07-13T08:34:08Z</time>
      </trkpt>
      <trkpt lat="37.1642740" lon="-2.7890800">
        <ele>891.4</ele>
        <time>2020-07-13T08:34:13Z</time>
      </trkpt>
      <trkpt lat="37.1644380" lon="-2.7890510">
        <ele>892.2</ele>
        <time>2020-07-13T08:34:18Z</time>
      </trkpt>
      <trkpt lat="37.1645030" lon="-2.7890430">
        <ele>892.6</ele>
        <time>2020-07-13T08:34:20Z</time>
      </trkpt>
      <trkpt lat="37.1646970" lon="-2.7890140">
        <ele>893.8</ele>
        <time>2020-07-13T08:34:26Z</time>
      </trkpt>
      <trkpt lat="37.1647630" lon="-2.7890000">
        <ele>894.2</ele>
        <time>2020-07-13T08:34:28Z</time>
      </trkpt>
      <trkpt lat="37.1648920" lon="-2.7889810">
        <ele>894.8</ele>
        <time>2020-07-13T08:34:32Z</time>
      </trkpt>
      <trkpt lat="37.1650890" lon="-2.7889510">
        <ele>896.0</ele>
        <time>2020-07-13T08:34:38Z</time>
      </trkpt>
      <trkpt lat="37.1651840" lon="-2.7889360">
        <ele>896.4</ele>
        <time>2020-07-13T08:34:41Z</time>
      </trkpt>
      <trkpt lat="37.1653210" lon="-2.7889160">
        <ele>897.2</ele>
        <time>2020-07-13T08:34:45Z</time>
      </trkpt>
      <trkpt lat="37.1654860" lon="-2.7888880">
        <ele>898.2</ele>
        <time>2020-07-13T08:34:50Z</time>
      </trkpt>
      <trkpt lat="37.1655180" lon="-2.7888830">
        <ele>898.4</ele>
        <time>2020-07-13T08:34:51Z</time>
      </trkpt>
      <trkpt lat="37.1656840" lon="-2.7888580">
        <ele>899.2</ele>
        <time>2020-07-13T08:34:56Z</time>
      </trkpt>
      <trkpt lat="37.1658800" lon="-2.7888220">
        <ele>900.0</ele>
        <time>2020-07-13T08:35:02Z</time>
      </trkpt>
      <trkpt lat="37.1659120" lon="-2.7888140">
        <ele>900.2</ele>
        <time>2020-07-13T08:35:03Z</time>
      </trkpt>
      <trkpt lat="37.1661100" lon="-2.7887830">
        <ele>901.4</ele>
        <time>2020-07-13T08:35:09Z</time>
      </trkpt>
      <trkpt lat="37.1661420" lon="-2.7887790">
        <ele>901.6</ele>
        <time>2020-07-13T08:35:10Z</time>
      </trkpt>
      <trkpt lat="37.1663030" lon="-2.7887530">
        <ele>902.4</ele>
        <time>2020-07-13T08:35:15Z</time>
      </trkpt>
      <trkpt lat="37.1664640" lon="-2.7887310">
        <ele>903.4</ele>
        <time>2020-07-13T08:35:20Z</time>
      </trkpt>
      <trkpt lat="37.1665340" lon="-2.7887130">
        <ele>903.6</ele>
        <time>2020-07-13T08:35:22Z</time>
      </trkpt>
      <trkpt lat="37.1667010" lon="-2.7886380">
        <ele>904.4</ele>
        <time>2020-07-13T08:35:27Z</time>
      </trkpt>
      <trkpt lat="37.1667330" lon="-2.7886190">
        <ele>904.6</ele>
        <time>2020-07-13T08:35:28Z</time>
      </trkpt>
      <trkpt lat="37.1668740" lon="-2.7884900">
        <ele>905.8</ele>
        <time>2020-07-13T08:35:33Z</time>
      </trkpt>
      <trkpt lat="37.1669280" lon="-2.7884330">
        <ele>906.2</ele>
        <time>2020-07-13T08:35:35Z</time>
      </trkpt>
      <trkpt lat="37.1670460" lon="-2.7883100">
        <ele>906.8</ele>
        <time>2020-07-13T08:35:39Z</time>
      </trkpt>
      <trkpt lat="37.1673150" lon="-2.7880280">
        <ele>908.0</ele>
        <time>2020-07-13T08:35:48Z</time>
      </trkpt>
      <trkpt lat="37.1673470" lon="-2.7879960">
        <ele>908.0</ele>
        <time>2020-07-13T08:35:49Z</time>
      </trkpt>
      <trkpt lat="37.1675640" lon="-2.7877700">
        <ele>909.0</ele>
        <time>2020-07-13T08:35:56Z</time>
      </trkpt>
      <trkpt lat="37.1676850" lon="-2.7876220">
        <ele>909.4</ele>
        <time>2020-07-13T08:36:00Z</time>
      </trkpt>
      <trkpt lat="37.1677480" lon="-2.7873730">
        <ele>910.0</ele>
        <time>2020-07-13T08:36:05Z</time>
      </trkpt>
      <trkpt lat="37.1677390" lon="-2.7873190">
        <ele>910.0</ele>
        <time>2020-07-13T08:36:06Z</time>
      </trkpt>
      <trkpt lat="37.1676820" lon="-2.7871690">
        <ele>910.4</ele>
        <time>2020-07-13T08:36:09Z</time>
      </trkpt>
      <trkpt lat="37.1676590" lon="-2.7871240">
        <ele>910.6</ele>
        <time>2020-07-13T08:36:10Z</time>
      </trkpt>
      <trkpt lat="37.1676100" lon="-2.7870330">
        <ele>911.0</ele>
        <time>2020-07-13T08:36:12Z</time>
      </trkpt>
      <trkpt lat="37.1674990" lon="-2.7868080">
        <ele>912.0</ele>
        <time>2020-07-13T08:36:17Z</time>
      </trkpt>
      <trkpt lat="37.1674810" lon="-2.7867560">
        <ele>912.2</ele>
        <time>2020-07-13T08:36:18Z</time>
      </trkpt>
      <trkpt lat="37.1674520" lon="-2.7865030">
        <ele>913.2</ele>
        <time>2020-07-13T08:36:23Z</time>
      </trkpt>
      <trkpt lat="37.1674550" lon="-2.7864460">
        <ele>913.4</ele>
        <time>2020-07-13T08:36:24Z</time>
      </trkpt>
      <trkpt lat="37.1674950" lon="-2.7861720">
        <ele>914.4</ele>
        <time>2020-07-13T08:36:29Z</time>
      </trkpt>
      <trkpt lat="37.1675220" lon="-2.7859890">
        <ele>914.6</ele>
        <time>2020-07-13T08:36:32Z</time>
      </trkpt>
      <trkpt lat="37.1675330" lon="-2.7857950">
        <ele>914.4</ele>
        <time>2020-07-13T08:36:35Z</time>
      </trkpt>
      <trkpt lat="37.1675120" lon="-2.7855760">
        <ele>914.2</ele>
        <time>2020-07-13T08:36:38Z</time>
      </trkpt>
      <trkpt lat="37.1674360" lon="-2.7851070">
        <ele>913.4</ele>
        <time>2020-07-13T08:36:44Z</time>
      </trkpt>
      <trkpt lat="37.1674240" lon="-2.7850260">
        <ele>913.2</ele>
        <time>2020-07-13T08:36:45Z</time>
      </trkpt>
      <trkpt lat="37.1674120" lon="-2.7849420">
        <ele>913.0</ele>
        <time>2020-07-13T08:36:46Z</time>
      </trkpt>
      <trkpt lat="37.1673870" lon="-2.7847580">
        <ele>912.8</ele>
        <time>2020-07-13T08:36:48Z</time>
      </trkpt>
      <trkpt lat="37.1673570" lon="-2.7844980">
        <ele>912.4</ele>
        <time>2020-07-13T08:36:51Z</time>
      </trkpt>
      <trkpt lat="37.1673510" lon="-2.7843200">
        <ele>912.0</ele>
        <time>2020-07-13T08:36:53Z</time>
      </trkpt>
      <trkpt lat="37.1673510" lon="-2.7842260">
        <ele>912.0</ele>
        <time>2020-07-13T08:36:54Z</time>
      </trkpt>
      <trkpt lat="37.1673530" lon="-2.7840570">
        <ele>912.0</ele>
        <time>2020-07-13T08:36:56Z</time>
      </trkpt>
      <trkpt lat="37.1673200" lon="-2.7835340">
        <ele>911.8</ele>
        <time>2020-07-13T08:37:02Z</time>
      </trkpt>
      <trkpt lat="37.1672970" lon="-2.7831680">
        <ele>912.0</ele>
        <time>2020-07-13T08:37:07Z</time>
      </trkpt>
      <trkpt lat="37.1673160" lon="-2.7829580">
        <ele>912.6</ele>
        <time>2020-07-13T08:37:10Z</time>
      </trkpt>
      <trkpt lat="37.1673250" lon="-2.7828160">
        <ele>913.0</ele>
        <time>2020-07-13T08:37:12Z</time>
      </trkpt>
      <trkpt lat="37.1673250" lon="-2.7825860">
        <ele>913.6</ele>
        <time>2020-07-13T08:37:15Z</time>
      </trkpt>
      <trkpt lat="37.1673030" lon="-2.7824180">
        <ele>913.8</ele>
        <time>2020-07-13T08:37:17Z</time>
      </trkpt>
      <trkpt lat="37.1672420" lon="-2.7822450">
        <ele>913.4</ele>
        <time>2020-07-13T08:37:19Z</time>
      </trkpt>
      <trkpt lat="37.1670600" lon="-2.7820100">
        <ele>912.8</ele>
        <time>2020-07-13T08:37:22Z</time>
      </trkpt>
      <trkpt lat="37.1670010" lon="-2.7819520">
        <ele>912.4</ele>
        <time>2020-07-13T08:37:23Z</time>
      </trkpt>
      <trkpt lat="37.1669260" lon="-2.7818850">
        <ele>912.0</ele>
        <time>2020-07-13T08:37:24Z</time>
      </trkpt>
      <trkpt lat="37.1666960" lon="-2.7816880">
        <ele>910.6</ele>
        <time>2020-07-13T08:37:27Z</time>
      </trkpt>
      <trkpt lat="37.1666170" lon="-2.7816220">
        <ele>910.0</ele>
        <time>2020-07-13T08:37:28Z</time>
      </trkpt>
      <trkpt lat="37.1664610" lon="-2.7814940">
        <ele>909.2</ele>
        <time>2020-07-13T08:37:30Z</time>
      </trkpt>
      <trkpt lat="37.1662860" lon="-2.7813560">
        <ele>908.0</ele>
        <time>2020-07-13T08:37:32Z</time>
      </trkpt>
      <trkpt lat="37.1661100" lon="-2.7812290">
        <ele>907.2</ele>
        <time>2020-07-13T08:37:34Z</time>
      </trkpt>
      <trkpt lat="37.1660290" lon="-2.7811800">
        <ele>906.8</ele>
        <time>2020-07-13T08:37:35Z</time>
      </trkpt>
      <trkpt lat="37.1659340" lon="-2.7811370">
        <ele>906.4</ele>
        <time>2020-07-13T08:37:36Z</time>
      </trkpt>
      <trkpt lat="37.1657290" lon="-2.7810760">
        <ele>905.6</ele>
        <time>2020-07-13T08:37:38Z</time>
      </trkpt>
      <trkpt lat="37.1655000" lon="-2.7809800">
        <ele>904.0</ele>
        <time>2020-07-13T08:37:41Z</time>
      </trkpt>
      <trkpt lat="37.1654440" lon="-2.7808950">
        <ele>903.2</ele>
        <time>2020-07-13T08:37:42Z</time>
      </trkpt>
      <trkpt lat="37.1654340" lon="-2.7808140">
        <ele>902.6</ele>
        <time>2020-07-13T08:37:43Z</time>
      </trkpt>
      <trkpt lat="37.1654430" lon="-2.7807240">
        <ele>902.0</ele>
        <time>2020-07-13T08:37:44Z</time>
      </trkpt>
      <trkpt lat="37.1654660" lon="-2.7806420">
        <ele>901.4</ele>
        <time>2020-07-13T08:37:45Z</time>
      </trkpt>
      <trkpt lat="37.1654980" lon="-2.7804660">
        <ele>900.6</ele>
        <time>2020-07-13T08:37:47Z</time>
      </trkpt>
      <trkpt lat="37.1655050" lon="-2.7802650">
        <ele>900.6</ele>
        <time>2020-07-13T08:37:49Z</time>
      </trkpt>
      <trkpt lat="37.1655070" lon="-2.7801760">
        <ele>900.6</ele>
        <time>2020-07-13T08:37:50Z</time>
      </trkpt>
      <trkpt lat="37.1655100" lon="-2.7799640">
        <ele>900.4</ele>
        <time>2020-07-13T08:37:52Z</time>
      </trkpt>
      <trkpt lat="37.1655100" lon="-2.7798730">
        <ele>900.2</ele>
        <time>2020-07-13T08:37:53Z</time>
      </trkpt>
      <trkpt lat="37.1655160" lon="-2.7794340">
        <ele>899.8</ele>
        <time>2020-07-13T08:37:57Z</time>
      </trkpt>
      <trkpt lat="37.1655450" lon="-2.7791260">
        <ele>899.6</ele>
        <time>2020-07-13T08:38:00Z</time>
      </trkpt>
      <trkpt lat="37.1656890" lon="-2.7788640">
        <ele>899.2</ele>
        <time>2020-07-13T08:38:03Z</time>
      </trkpt>
      <trkpt lat="37.1659370" lon="-2.7787720">
        <ele>898.2</ele>
        <time>2020-07-13T08:38:06Z</time>
      </trkpt>
      <trkpt lat="37.1660420" lon="-2.7788070">
        <ele>897.8</ele>
        <time>2020-07-13T08:38:07Z</time>
      </trkpt>
      <trkpt lat="37.1662350" lon="-2.7788960">
        <ele>896.8</ele>
        <time>2020-07-13T08:38:09Z</time>
      </trkpt>
      <trkpt lat="37.1664210" lon="-2.7789540">
        <ele>896.0</ele>
        <time>2020-07-13T08:38:11Z</time>
      </trkpt>
      <trkpt lat="37.1665490" lon="-2.7789520">
        <ele>895.4</ele>
        <time>2020-07-13T08:38:12Z</time>
      </trkpt>
      <trkpt lat="37.1666420" lon="-2.7789020">
        <ele>894.8</ele>
        <time>2020-07-13T08:38:13Z</time>
      </trkpt>
      <trkpt lat="37.1667040" lon="-2.7788090">
        <ele>894.2</ele>
        <time>2020-07-13T08:38:14Z</time>
      </trkpt>
      <trkpt lat="37.1667250" lon="-2.7786840">
        <ele>893.6</ele>
        <time>2020-07-13T08:38:15Z</time>
      </trkpt>
      <trkpt lat="37.1667060" lon="-2.7785690">
        <ele>893.0</ele>
        <time>2020-07-13T08:38:16Z</time>
      </trkpt>
      <trkpt lat="37.1666550" lon="-2.7784430">
        <ele>892.0</ele>
        <time>2020-07-13T08:38:17Z</time>
      </trkpt>
      <trkpt lat="37.1665810" lon="-2.7783190">
        <ele>891.2</ele>
        <time>2020-07-13T08:38:18Z</time>
      </trkpt>
      <trkpt lat="37.1664390" lon="-2.7781080">
        <ele>889.8</ele>
        <time>2020-07-13T08:38:20Z</time>
      </trkpt>
      <trkpt lat="37.1662820" lon="-2.7778580">
        <ele>888.4</ele>
        <time>2020-07-13T08:38:22Z</time>
      </trkpt>
      <trkpt lat="37.1662210" lon="-2.7777460">
        <ele>887.4</ele>
        <time>2020-07-13T08:38:23Z</time>
      </trkpt>
      <trkpt lat="37.1661080" lon="-2.7774700">
        <ele>885.6</ele>
        <time>2020-07-13T08:38:25Z</time>
      </trkpt>
      <trkpt lat="37.1660250" lon="-2.7771660">
        <ele>883.8</ele>
        <time>2020-07-13T08:38:27Z</time>
      </trkpt>
      <trkpt lat="37.1659740" lon="-2.7768890">
        <ele>882.4</ele>
        <time>2020-07-13T08:38:29Z</time>
      </trkpt>
      <trkpt lat="37.1659420" lon="-2.7765970">
        <ele>881.2</ele>
        <time>2020-07-13T08:38:31Z</time>
      </trkpt>
      <trkpt lat="37.1659140" lon="-2.7763000">
        <ele>880.2</ele>
        <time>2020-07-13T08:38:33Z</time>
      </trkpt>
      <trkpt lat="37.1659000" lon="-2.7761620">
        <ele>880.0</ele>
        <time>2020-07-13T08:38:34Z</time>
      </trkpt>
      <trkpt lat="37.1658590" lon="-2.7757610">
        <ele>879.0</ele>
        <time>2020-07-13T08:38:37Z</time>
      </trkpt>
      <trkpt lat="37.1658210" lon="-2.7754130">
        <ele>879.0</ele>
        <time>2020-07-13T08:38:40Z</time>
      </trkpt>
      <trkpt lat="37.1657680" lon="-2.7750920">
        <ele>879.2</ele>
        <time>2020-07-13T08:38:43Z</time>
      </trkpt>
      <trkpt lat="37.1657250" lon="-2.7749100">
        <ele>879.4</ele>
        <time>2020-07-13T08:38:45Z</time>
      </trkpt>
      <trkpt lat="37.1656760" lon="-2.7747270">
        <ele>880.0</ele>
        <time>2020-07-13T08:38:47Z</time>
      </trkpt>
      <trkpt lat="37.1656490" lon="-2.7746280">
        <ele>880.2</ele>
        <time>2020-07-13T08:38:48Z</time>
      </trkpt>
      <trkpt lat="37.1656030" lon="-2.7744530">
        <ele>880.6</ele>
        <time>2020-07-13T08:38:50Z</time>
      </trkpt>
      <trkpt lat="37.1655420" lon="-2.7741590">
        <ele>881.0</ele>
        <time>2020-07-13T08:38:53Z</time>
      </trkpt>
      <trkpt lat="37.1654540" lon="-2.7735770">
        <ele>880.0</ele>
        <time>2020-07-13T08:38:58Z</time>
      </trkpt>
      <trkpt lat="37.1654100" lon="-2.7732420">
        <ele>879.2</ele>
        <time>2020-07-13T08:39:01Z</time>
      </trkpt>
      <trkpt lat="37.1653230" lon="-2.7726300">
        <ele>878.2</ele>
        <time>2020-07-13T08:39:07Z</time>
      </trkpt>
      <trkpt lat="37.1653100" lon="-2.7725450">
        <ele>878.2</ele>
        <time>2020-07-13T08:39:08Z</time>
      </trkpt>
      <trkpt lat="37.1652370" lon="-2.7720950">
        <ele>879.2</ele>
        <time>2020-07-13T08:39:14Z</time>
      </trkpt>
      <trkpt lat="37.1652260" lon="-2.7720340">
        <ele>879.6</ele>
        <time>2020-07-13T08:39:15Z</time>
      </trkpt>
      <trkpt lat="37.1652050" lon="-2.7719090">
        <ele>880.4</ele>
        <time>2020-07-13T08:39:17Z</time>
      </trkpt>
      <trkpt lat="37.1651840" lon="-2.7717310">
        <ele>881.2</ele>
        <time>2020-07-13T08:39:20Z</time>
      </trkpt>
      <trkpt lat="37.1651830" lon="-2.7716710">
        <ele>881.4</ele>
        <time>2020-07-13T08:39:21Z</time>
      </trkpt>
      <trkpt lat="37.1651820" lon="-2.7716130">
        <ele>881.6</ele>
        <time>2020-07-13T08:39:22Z</time>
      </trkpt>
      <trkpt lat="37.1652080" lon="-2.7712500">
        <ele>882.8</ele>
        <time>2020-07-13T08:39:28Z</time>
      </trkpt>
      <trkpt lat="37.1652170" lon="-2.7711270">
        <ele>883.0</ele>
        <time>2020-07-13T08:39:30Z</time>
      </trkpt>
      <trkpt lat="37.1652350" lon="-2.7708140">
        <ele>883.8</ele>
        <time>2020-07-13T08:39:35Z</time>
      </trkpt>
      <trkpt lat="37.1652280" lon="-2.7706350">
        <ele>884.2</ele>
        <time>2020-07-13T08:39:38Z</time>
      </trkpt>
      <trkpt lat="37.1651460" lon="-2.7702300">
        <ele>884.8</ele>
        <time>2020-07-13T08:39:44Z</time>
      </trkpt>
      <trkpt lat="37.1651320" lon="-2.7701600">
        <ele>885.0</ele>
        <time>2020-07-13T08:39:45Z</time>
      </trkpt>
      <trkpt lat="37.1651110" lon="-2.7700050">
        <ele>885.0</ele>
        <time>2020-07-13T08:39:47Z</time>
      </trkpt>
      <trkpt lat="37.1651050" lon="-2.7697540">
        <ele>885.0</ele>
        <time>2020-07-13T08:39:50Z</time>
      </trkpt>
      <trkpt lat="37.1651780" lon="-2.7693560">
        <ele>884.2</ele>
        <time>2020-07-13T08:39:54Z</time>
      </trkpt>
      <trkpt lat="37.1652130" lon="-2.7692560">
        <ele>883.6</ele>
        <time>2020-07-13T08:39:55Z</time>
      </trkpt>
      <trkpt lat="37.1652660" lon="-2.7691480">
        <ele>883.0</ele>
        <time>2020-07-13T08:39:56Z</time>
      </trkpt>
      <trkpt lat="37.1653210" lon="-2.7690460">
        <ele>882.6</ele>
        <time>2020-07-13T08:39:57Z</time>
      </trkpt>
      <trkpt lat="37.1654430" lon="-2.7688560">
        <ele>881.4</ele>
        <time>2020-07-13T08:39:59Z</time>
      </trkpt>
      <trkpt lat="37.1655890" lon="-2.7686360">
        <ele>879.8</ele>
        <time>2020-07-13T08:40:01Z</time>
      </trkpt>
      <trkpt lat="37.1656490" lon="-2.7685160">
        <ele>879.2</ele>
        <time>2020-07-13T08:40:02Z</time>
      </trkpt>
      <trkpt lat="37.1656950" lon="-2.7683870">
        <ele>878.8</ele>
        <time>2020-07-13T08:40:03Z</time>
      </trkpt>
      <trkpt lat="37.1657350" lon="-2.7682530">
        <ele>878.0</ele>
        <time>2020-07-13T08:40:04Z</time>
      </trkpt>
      <trkpt lat="37.1657490" lon="-2.7681260">
        <ele>877.6</ele>
        <time>2020-07-13T08:40:05Z</time>
      </trkpt>
      <trkpt lat="37.1657490" lon="-2.7679770">
        <ele>877.0</ele>
        <time>2020-07-13T08:40:06Z</time>
      </trkpt>
      <trkpt lat="37.1657240" lon="-2.7678270">
        <ele>876.2</ele>
        <time>2020-07-13T08:40:07Z</time>
      </trkpt>
      <trkpt lat="37.1656990" lon="-2.7676910">
        <ele>875.4</ele>
        <time>2020-07-13T08:40:08Z</time>
      </trkpt>
      <trkpt lat="37.1656510" lon="-2.7675700">
        <ele>875.0</ele>
        <time>2020-07-13T08:40:09Z</time>
      </trkpt>
      <trkpt lat="37.1655310" lon="-2.7673530">
        <ele>874.2</ele>
        <time>2020-07-13T08:40:11Z</time>
      </trkpt>
      <trkpt lat="37.1654080" lon="-2.7671530">
        <ele>873.8</ele>
        <time>2020-07-13T08:40:13Z</time>
      </trkpt>
      <trkpt lat="37.1651180" lon="-2.7666720">
        <ele>872.8</ele>
        <time>2020-07-13T08:40:18Z</time>
      </trkpt>
      <trkpt lat="37.1650650" lon="-2.7665770">
        <ele>872.6</ele>
        <time>2020-07-13T08:40:19Z</time>
      </trkpt>
      <trkpt lat="37.1647720" lon="-2.7659790">
        <ele>871.8</ele>
        <time>2020-07-13T08:40:25Z</time>
      </trkpt>
      <trkpt lat="37.1647210" lon="-2.7658690">
        <ele>871.6</ele>
        <time>2020-07-13T08:40:26Z</time>
      </trkpt>
      <trkpt lat="37.1646730" lon="-2.7657640">
        <ele>871.2</ele>
        <time>2020-07-13T08:40:27Z</time>
      </trkpt>
      <trkpt lat="37.1644760" lon="-2.7653360">
        <ele>870.4</ele>
        <time>2020-07-13T08:40:31Z</time>
      </trkpt>
      <trkpt lat="37.1642560" lon="-2.7648640">
        <ele>869.0</ele>
        <time>2020-07-13T08:40:35Z</time>
      </trkpt>
      <trkpt lat="37.1641300" lon="-2.7646020">
        <ele>867.6</ele>
        <time>2020-07-13T08:40:37Z</time>
      </trkpt>
      <trkpt lat="37.1640030" lon="-2.7643570">
        <ele>865.8</ele>
        <time>2020-07-13T08:40:39Z</time>
      </trkpt>
      <trkpt lat="37.1639300" lon="-2.7642510">
        <ele>865.0</ele>
        <time>2020-07-13T08:40:40Z</time>
      </trkpt>
      <trkpt lat="37.1638480" lon="-2.7641670">
        <ele>864.2</ele>
        <time>2020-07-13T08:40:41Z</time>
      </trkpt>
      <trkpt lat="37.1636420" lon="-2.7639870">
        <ele>862.8</ele>
        <time>2020-07-13T08:40:43Z</time>
      </trkpt>
      <trkpt lat="37.1634540" lon="-2.7638250">
        <ele>861.8</ele>
        <time>2020-07-13T08:40:45Z</time>
      </trkpt>
      <trkpt lat="37.1631830" lon="-2.7635440">
        <ele>860.4</ele>
        <time>2020-07-13T08:40:48Z</time>
      </trkpt>
      <trkpt lat="37.1631060" lon="-2.7634310">
        <ele>860.0</ele>
        <time>2020-07-13T08:40:49Z</time>
      </trkpt>
      <trkpt lat="37.1629800" lon="-2.7631830">
        <ele>859.0</ele>
        <time>2020-07-13T08:40:51Z</time>
      </trkpt>
      <trkpt lat="37.1628910" lon="-2.7629150">
        <ele>858.2</ele>
        <time>2020-07-13T08:40:53Z</time>
      </trkpt>
      <trkpt lat="37.1628520" lon="-2.7627790">
        <ele>857.8</ele>
        <time>2020-07-13T08:40:54Z</time>
      </trkpt>
      <trkpt lat="37.1627630" lon="-2.7623940">
        <ele>856.4</ele>
        <time>2020-07-13T08:40:57Z</time>
      </trkpt>
      <trkpt lat="37.1627070" lon="-2.7621700">
        <ele>855.6</ele>
        <time>2020-07-13T08:40:59Z</time>
      </trkpt>
      <trkpt lat="37.1626780" lon="-2.7620560">
        <ele>855.4</ele>
        <time>2020-07-13T08:41:00Z</time>
      </trkpt>
      <trkpt lat="37.1626140" lon="-2.7617740">
        <ele>855.4</ele>
        <time>2020-07-13T08:41:03Z</time>
      </trkpt>
      <trkpt lat="37.1625840" lon="-2.7615220">
        <ele>855.8</ele>
        <time>2020-07-13T08:41:06Z</time>
      </trkpt>
      <trkpt lat="37.1625860" lon="-2.7614420">
        <ele>856.4</ele>
        <time>2020-07-13T08:41:07Z</time>
      </trkpt>
      <trkpt lat="37.1625940" lon="-2.7613640">
        <ele>857.0</ele>
        <time>2020-07-13T08:41:08Z</time>
      </trkpt>
      <trkpt lat="37.1626300" lon="-2.7612270">
        <ele>857.8</ele>
        <time>2020-07-13T08:41:10Z</time>
      </trkpt>
      <trkpt lat="37.1627090" lon="-2.7611080">
        <ele>858.4</ele>
        <time>2020-07-13T08:41:12Z</time>
      </trkpt>
      <trkpt lat="37.1627590" lon="-2.7610550">
        <ele>859.0</ele>
        <time>2020-07-13T08:41:13Z</time>
      </trkpt>
      <trkpt lat="37.1628630" lon="-2.7609600">
        <ele>859.4</ele>
        <time>2020-07-13T08:41:15Z</time>
      </trkpt>
      <trkpt lat="37.1629920" lon="-2.7608960">
        <ele>859.4</ele>
        <time>2020-07-13T08:41:17Z</time>
      </trkpt>
      <trkpt lat="37.1630620" lon="-2.7608770">
        <ele>859.4</ele>
        <time>2020-07-13T08:41:18Z</time>
      </trkpt>
      <trkpt lat="37.1632870" lon="-2.7608600">
        <ele>859.4</ele>
        <time>2020-07-13T08:41:21Z</time>
      </trkpt>
      <trkpt lat="37.1634380" lon="-2.7608800">
        <ele>859.2</ele>
        <time>2020-07-13T08:41:23Z</time>
      </trkpt>
      <trkpt lat="37.1640390" lon="-2.7610410">
        <ele>858.8</ele>
        <time>2020-07-13T08:41:31Z</time>
      </trkpt>
      <trkpt lat="37.1644120" lon="-2.7610530">
        <ele>859.4</ele>
        <time>2020-07-13T08:41:36Z</time>
      </trkpt>
      <trkpt lat="37.1644790" lon="-2.7610260">
        <ele>859.6</ele>
        <time>2020-07-13T08:41:37Z</time>
      </trkpt>
      <trkpt lat="37.1645710" lon="-2.7609080">
        <ele>859.8</ele>
        <time>2020-07-13T08:41:39Z</time>
      </trkpt>
      <trkpt lat="37.1646020" lon="-2.7608390">
        <ele>859.8</ele>
        <time>2020-07-13T08:41:40Z</time>
      </trkpt>
      <trkpt lat="37.1646030" lon="-2.7607650">
        <ele>859.8</ele>
        <time>2020-07-13T08:41:41Z</time>
      </trkpt>
      <trkpt lat="37.1645790" lon="-2.7606860">
        <ele>859.8</ele>
        <time>2020-07-13T08:41:42Z</time>
      </trkpt>
      <trkpt lat="37.1645110" lon="-2.7605750">
        <ele>860.2</ele>
        <time>2020-07-13T08:41:44Z</time>
      </trkpt>
      <trkpt lat="37.1644700" lon="-2.7605290">
        <ele>860.4</ele>
        <time>2020-07-13T08:41:45Z</time>
      </trkpt>
      <trkpt lat="37.1644310" lon="-2.7604990">
        <ele>860.8</ele>
        <time>2020-07-13T08:41:46Z</time>
      </trkpt>
      <trkpt lat="37.1643900" lon="-2.7604670">
        <ele>861.6</ele>
        <time>2020-07-13T08:41:47Z</time>
      </trkpt>
      <trkpt lat="37.1642820" lon="-2.7603860">
        <ele>862.6</ele>
        <time>2020-07-13T08:41:50Z</time>
      </trkpt>
      <trkpt lat="37.1641790" lon="-2.7603060">
        <ele>863.8</ele>
        <time>2020-07-13T08:41:53Z</time>
      </trkpt>
      <trkpt lat="37.1640500" lon="-2.7602060">
        <ele>864.8</ele>
        <time>2020-07-13T08:41:57Z</time>
      </trkpt>
      <trkpt lat="37.1639570" lon="-2.7601460">
        <ele>865.4</ele>
        <time>2020-07-13T08:42:00Z</time>
      </trkpt>
      <trkpt lat="37.1638920" lon="-2.7601060">
        <ele>866.0</ele>
        <time>2020-07-13T08:42:02Z</time>
      </trkpt>
      <trkpt lat="37.1637380" lon="-2.7600240">
        <ele>867.2</ele>
        <time>2020-07-13T08:42:07Z</time>
      </trkpt>
      <trkpt lat="37.1636500" lon="-2.7599890">
        <ele>868.2</ele>
        <time>2020-07-13T08:42:10Z</time>
      </trkpt>
      <trkpt lat="37.1636180" lon="-2.7599780">
        <ele>868.6</ele>
        <time>2020-07-13T08:42:11Z</time>
      </trkpt>
      <trkpt lat="37.1634770" lon="-2.7599280">
        <ele>869.6</ele>
        <time>2020-07-13T08:42:16Z</time>
      </trkpt>
      <trkpt lat="37.1633340" lon="-2.7598810">
        <ele>870.8</ele>
        <time>2020-07-13T08:42:21Z</time>
      </trkpt>
      <trkpt lat="37.1631500" lon="-2.7597900">
        <ele>872.0</ele>
        <time>2020-07-13T08:42:28Z</time>
      </trkpt>
      <trkpt lat="37.1630510" lon="-2.7597180">
        <ele>873.0</ele>
        <time>2020-07-13T08:42:32Z</time>
      </trkpt>
      <trkpt lat="37.1629730" lon="-2.7596250">
        <ele>874.2</ele>
        <time>2020-07-13T08:42:36Z</time>
      </trkpt>
      <trkpt lat="37.1629380" lon="-2.7595280">
        <ele>875.0</ele>
        <time>2020-07-13T08:42:39Z</time>
      </trkpt>
      <trkpt lat="37.1629330" lon="-2.7594940">
        <ele>875.2</ele>
        <time>2020-07-13T08:42:40Z</time>
      </trkpt>
      <trkpt lat="37.1629540" lon="-2.7594340">
        <ele>875.8</ele>
        <time>2020-07-13T08:42:42Z</time>
      </trkpt>
      <trkpt lat="37.1629700" lon="-2.7594080">
        <ele>875.8</ele>
        <time>2020-07-13T08:42:43Z</time>
      </trkpt>
      <trkpt lat="37.1630090" lon="-2.7593630">
        <ele>876.2</ele>
        <time>2020-07-13T08:42:45Z</time>
      </trkpt>
      <trkpt lat="37.1631180" lon="-2.7593410">
        <ele>877.2</ele>
        <time>2020-07-13T08:42:49Z</time>
      </trkpt>
      <trkpt lat="37.1631720" lon="-2.7593500">
        <ele>877.4</ele>
        <time>2020-07-13T08:42:51Z</time>
      </trkpt>
      <trkpt lat="37.1632570" lon="-2.7593780">
        <ele>878.6</ele>
        <time>2020-07-13T08:42:54Z</time>
      </trkpt>
      <trkpt lat="37.1633660" lon="-2.7594170">
        <ele>879.8</ele>
        <time>2020-07-13T08:42:58Z</time>
      </trkpt>
      <trkpt lat="37.1635760" lon="-2.7594370">
        <ele>880.8</ele>
        <time>2020-07-13T08:43:05Z</time>
      </trkpt>
      <trkpt lat="37.1636950" lon="-2.7594230">
        <ele>881.4</ele>
        <time>2020-07-13T08:43:09Z</time>
      </trkpt>
      <trkpt lat="37.1638190" lon="-2.7594080">
        <ele>882.0</ele>
        <time>2020-07-13T08:43:13Z</time>
      </trkpt>
      <trkpt lat="37.1640340" lon="-2.7593610">
        <ele>882.8</ele>
        <time>2020-07-13T08:43:20Z</time>
      </trkpt>
      <trkpt lat="37.1640680" lon="-2.7593510">
        <ele>883.0</ele>
        <time>2020-07-13T08:43:21Z</time>
      </trkpt>
      <trkpt lat="37.1642270" lon="-2.7593130">
        <ele>883.6</ele>
        <time>2020-07-13T08:43:26Z</time>
      </trkpt>
      <trkpt lat="37.1643200" lon="-2.7592940">
        <ele>884.0</ele>
        <time>2020-07-13T08:43:29Z</time>
      </trkpt>
      <trkpt lat="37.1644140" lon="-2.7592720">
        <ele>884.6</ele>
        <time>2020-07-13T08:43:32Z</time>
      </trkpt>
      <trkpt lat="37.1645720" lon="-2.7592340">
        <ele>885.2</ele>
        <time>2020-07-13T08:43:37Z</time>
      </trkpt>
      <trkpt lat="37.1647770" lon="-2.7591800">
        <ele>886.2</ele>
        <time>2020-07-13T08:43:44Z</time>
      </trkpt>
      <trkpt lat="37.1649030" lon="-2.7591190">
        <ele>887.4</ele>
        <time>2020-07-13T08:43:49Z</time>
      </trkpt>
      <trkpt lat="37.1649620" lon="-2.7590570">
        <ele>887.8</ele>
        <time>2020-07-13T08:43:52Z</time>
      </trkpt>
      <trkpt lat="37.1649950" lon="-2.7590090">
        <ele>888.6</ele>
        <time>2020-07-13T08:43:54Z</time>
      </trkpt>
      <trkpt lat="37.1650270" lon="-2.7588970">
        <ele>889.8</ele>
        <time>2020-07-13T08:43:58Z</time>
      </trkpt>
      <trkpt lat="37.1650090" lon="-2.7587790">
        <ele>890.8</ele>
        <time>2020-07-13T08:44:02Z</time>
      </trkpt>
      <trkpt lat="37.1649980" lon="-2.7587510">
        <ele>891.2</ele>
        <time>2020-07-13T08:44:03Z</time>
      </trkpt>
      <trkpt lat="37.1649540" lon="-2.7586750">
        <ele>891.8</ele>
        <time>2020-07-13T08:44:06Z</time>
      </trkpt>
      <trkpt lat="37.1648740" lon="-2.7585760">
        <ele>892.8</ele>
        <time>2020-07-13T08:44:10Z</time>
      </trkpt>
      <trkpt lat="37.1648480" lon="-2.7585600">
        <ele>893.0</ele>
        <time>2020-07-13T08:44:11Z</time>
      </trkpt>
      <trkpt lat="37.1647230" lon="-2.7584900">
        <ele>894.0</ele>
        <time>2020-07-13T08:44:16Z</time>
      </trkpt>
      <trkpt lat="37.1646960" lon="-2.7584790">
        <ele>894.4</ele>
        <time>2020-07-13T08:44:17Z</time>
      </trkpt>
      <trkpt lat="37.1645960" lon="-2.7584380">
        <ele>895.2</ele>
        <time>2020-07-13T08:44:21Z</time>
      </trkpt>
      <trkpt lat="37.1644680" lon="-2.7583950">
        <ele>896.4</ele>
        <time>2020-07-13T08:44:26Z</time>
      </trkpt>
      <trkpt lat="37.1644430" lon="-2.7583870">
        <ele>896.6</ele>
        <time>2020-07-13T08:44:27Z</time>
      </trkpt>
      <trkpt lat="37.1643440" lon="-2.7583500">
        <ele>897.4</ele>
        <time>2020-07-13T08:44:31Z</time>
      </trkpt>
      <trkpt lat="37.1642480" lon="-2.7583020">
        <ele>898.2</ele>
        <time>2020-07-13T08:44:35Z</time>
      </trkpt>
      <trkpt lat="37.1641980" lon="-2.7582710">
        <ele>898.6</ele>
        <time>2020-07-13T08:44:37Z</time>
      </trkpt>
      <trkpt lat="37.1640660" lon="-2.7581620">
        <ele>899.6</ele>
        <time>2020-07-13T08:44:43Z</time>
      </trkpt>
      <trkpt lat="37.1640260" lon="-2.7581150">
        <ele>900.0</ele>
        <time>2020-07-13T08:44:45Z</time>
      </trkpt>
      <trkpt lat="37.1639580" lon="-2.7580030">
        <ele>900.8</ele>
        <time>2020-07-13T08:44:49Z</time>
      </trkpt>
      <trkpt lat="37.1639280" lon="-2.7578950">
        <ele>901.4</ele>
        <time>2020-07-13T08:44:52Z</time>
      </trkpt>
      <trkpt lat="37.1639180" lon="-2.7577130">
        <ele>902.0</ele>
        <time>2020-07-13T08:44:56Z</time>
      </trkpt>
      <trkpt lat="37.1639240" lon="-2.7576620">
        <ele>902.0</ele>
        <time>2020-07-13T08:44:57Z</time>
      </trkpt>
      <trkpt lat="37.1639480" lon="-2.7575550">
        <ele>902.2</ele>
        <time>2020-07-13T08:44:59Z</time>
      </trkpt>
      <trkpt lat="37.1639930" lon="-2.7574460">
        <ele>902.2</ele>
        <time>2020-07-13T08:45:01Z</time>
      </trkpt>
      <trkpt lat="37.1640240" lon="-2.7573940">
        <ele>902.2</ele>
        <time>2020-07-13T08:45:02Z</time>
      </trkpt>
      <trkpt lat="37.1641430" lon="-2.7572540">
        <ele>902.2</ele>
        <time>2020-07-13T08:45:05Z</time>
      </trkpt>
      <trkpt lat="37.1642600" lon="-2.7571540">
        <ele>901.8</ele>
        <time>2020-07-13T08:45:07Z</time>
      </trkpt>
      <trkpt lat="37.1643780" lon="-2.7570490">
        <ele>901.4</ele>
        <time>2020-07-13T08:45:09Z</time>
      </trkpt>
      <trkpt lat="37.1645060" lon="-2.7569300">
        <ele>900.8</ele>
        <time>2020-07-13T08:45:11Z</time>
      </trkpt>
      <trkpt lat="37.1646350" lon="-2.7567870">
        <ele>900.2</ele>
        <time>2020-07-13T08:45:13Z</time>
      </trkpt>
      <trkpt lat="37.1646980" lon="-2.7567060">
        <ele>899.8</ele>
        <time>2020-07-13T08:45:14Z</time>
      </trkpt>
      <trkpt lat="37.1648750" lon="-2.7564210">
        <ele>898.6</ele>
        <time>2020-07-13T08:45:17Z</time>
      </trkpt>
      <trkpt lat="37.1649270" lon="-2.7563180">
        <ele>898.2</ele>
        <time>2020-07-13T08:45:18Z</time>
      </trkpt>
      <trkpt lat="37.1650180" lon="-2.7561130">
        <ele>897.4</ele>
        <time>2020-07-13T08:45:20Z</time>
      </trkpt>
      <trkpt lat="37.1650940" lon="-2.7559360">
        <ele>897.0</ele>
        <time>2020-07-13T08:45:22Z</time>
      </trkpt>
      <trkpt lat="37.1652410" lon="-2.7555400">
        <ele>898.4</ele>
        <time>2020-07-13T08:45:27Z</time>
      </trkpt>
      <trkpt lat="37.1652910" lon="-2.7554190">
        <ele>899.2</ele>
        <time>2020-07-13T08:45:29Z</time>
      </trkpt>
      <trkpt lat="37.1653110" lon="-2.7553730">
        <ele>899.4</ele>
        <time>2020-07-13T08:45:30Z</time>
      </trkpt>
      <trkpt lat="37.1653470" lon="-2.7552870">
        <ele>900.2</ele>
        <time>2020-07-13T08:45:32Z</time>
      </trkpt>
      <trkpt lat="37.1653600" lon="-2.7552500">
        <ele>900.6</ele>
        <time>2020-07-13T08:45:33Z</time>
      </trkpt>
      <trkpt lat="37.1653920" lon="-2.7551450">
        <ele>901.8</ele>
        <time>2020-07-13T08:45:36Z</time>
      </trkpt>
      <trkpt lat="37.1654280" lon="-2.7550540">
        <ele>902.8</ele>
        <time>2020-07-13T08:45:39Z</time>
      </trkpt>
      <trkpt lat="37.1654760" lon="-2.7549350">
        <ele>903.8</ele>
        <time>2020-07-13T08:45:43Z</time>
      </trkpt>
      <trkpt lat="37.1655190" lon="-2.7548220">
        <ele>905.0</ele>
        <time>2020-07-13T08:45:47Z</time>
      </trkpt>
      <trkpt lat="37.1655290" lon="-2.7547930">
        <ele>905.2</ele>
        <time>2020-07-13T08:45:48Z</time>
      </trkpt>
      <trkpt lat="37.1655720" lon="-2.7546790">
        <ele>906.0</ele>
        <time>2020-07-13T08:45:52Z</time>
      </trkpt>
      <trkpt lat="37.1656200" lon="-2.7544950">
        <ele>907.0</ele>
        <time>2020-07-13T08:45:58Z</time>
      </trkpt>
      <trkpt lat="37.1656400" lon="-2.7543210">
        <ele>908.2</ele>
        <time>2020-07-13T08:46:03Z</time>
      </trkpt>
      <trkpt lat="37.1656370" lon="-2.7542230">
        <ele>908.6</ele>
        <time>2020-07-13T08:46:06Z</time>
      </trkpt>
      <trkpt lat="37.1656190" lon="-2.7541320">
        <ele>909.2</ele>
        <time>2020-07-13T08:46:09Z</time>
      </trkpt>
      <trkpt lat="37.1655860" lon="-2.7540150">
        <ele>910.4</ele>
        <time>2020-07-13T08:46:13Z</time>
      </trkpt>
      <trkpt lat="37.1655650" lon="-2.7539580">
        <ele>910.6</ele>
        <time>2020-07-13T08:46:15Z</time>
      </trkpt>
      <trkpt lat="37.1655290" lon="-2.7538750">
        <ele>911.4</ele>
        <time>2020-07-13T08:46:18Z</time>
      </trkpt>
      <trkpt lat="37.1654750" lon="-2.7537450">
        <ele>912.8</ele>
        <time>2020-07-13T08:46:23Z</time>
      </trkpt>
      <trkpt lat="37.1654310" lon="-2.7536420">
        <ele>914.0</ele>
        <time>2020-07-13T08:46:27Z</time>
      </trkpt>
      <trkpt lat="37.1653990" lon="-2.7535300">
        <ele>915.0</ele>
        <time>2020-07-13T08:46:31Z</time>
      </trkpt>
      <trkpt lat="37.1653940" lon="-2.7535020">
        <ele>915.4</ele>
        <time>2020-07-13T08:46:32Z</time>
      </trkpt>
      <trkpt lat="37.1653820" lon="-2.7534150">
        <ele>916.2</ele>
        <time>2020-07-13T08:46:35Z</time>
      </trkpt>
      <trkpt lat="37.1653740" lon="-2.7532860">
        <ele>917.2</ele>
        <time>2020-07-13T08:46:39Z</time>
      </trkpt>
      <trkpt lat="37.1653750" lon="-2.7532180">
        <ele>917.6</ele>
        <time>2020-07-13T08:46:41Z</time>
      </trkpt>
      <trkpt lat="37.1653790" lon="-2.7531020">
        <ele>918.4</ele>
        <time>2020-07-13T08:46:44Z</time>
      </trkpt>
      <trkpt lat="37.1654140" lon="-2.7529060">
        <ele>919.0</ele>
        <time>2020-07-13T08:46:49Z</time>
      </trkpt>
      <trkpt lat="37.1654550" lon="-2.7527980">
        <ele>919.4</ele>
        <time>2020-07-13T08:46:52Z</time>
      </trkpt>
      <trkpt lat="37.1655450" lon="-2.7526210">
        <ele>920.0</ele>
        <time>2020-07-13T08:46:57Z</time>
      </trkpt>
      <trkpt lat="37.1656560" lon="-2.7524630">
        <ele>920.4</ele>
        <time>2020-07-13T08:47:02Z</time>
      </trkpt>
      <trkpt lat="37.1657520" lon="-2.7523730">
        <ele>920.8</ele>
        <time>2020-07-13T08:47:05Z</time>
      </trkpt>
      <trkpt lat="37.1657930" lon="-2.7523520">
        <ele>921.0</ele>
        <time>2020-07-13T08:47:06Z</time>
      </trkpt>
      <trkpt lat="37.1658740" lon="-2.7523160">
        <ele>921.2</ele>
        <time>2020-07-13T08:47:08Z</time>
      </trkpt>
      <trkpt lat="37.1659650" lon="-2.7523000">
        <ele>921.4</ele>
        <time>2020-07-13T08:47:10Z</time>
      </trkpt>
      <trkpt lat="37.1660180" lon="-2.7523090">
        <ele>921.4</ele>
        <time>2020-07-13T08:47:11Z</time>
      </trkpt>
      <trkpt lat="37.1661810" lon="-2.7523480">
        <ele>921.4</ele>
        <time>2020-07-13T08:47:14Z</time>
      </trkpt>
      <trkpt lat="37.1665830" lon="-2.7524810">
        <ele>921.0</ele>
        <time>2020-07-13T08:47:21Z</time>
      </trkpt>
      <trkpt lat="37.1666300" lon="-2.7524910">
        <ele>920.8</ele>
        <time>2020-07-13T08:47:22Z</time>
      </trkpt>
      <trkpt lat="37.1667930" lon="-2.7525280">
        <ele>920.8</ele>
        <time>2020-07-13T08:47:24Z</time>
      </trkpt>
      <trkpt lat="37.1669290" lon="-2.7525510">
        <ele>920.6</ele>
        <time>2020-07-13T08:47:26Z</time>
      </trkpt>
      <trkpt lat="37.1670750" lon="-2.7525640">
        <ele>920.6</ele>
        <time>2020-07-13T08:47:28Z</time>
      </trkpt>
      <trkpt lat="37.1672180" lon="-2.7525530">
        <ele>920.6</ele>
        <time>2020-07-13T08:47:30Z</time>
      </trkpt>
      <trkpt lat="37.1674090" lon="-2.7524220">
        <ele>920.4</ele>
        <time>2020-07-13T08:47:33Z</time>
      </trkpt>
      <trkpt lat="37.1675230" lon="-2.7521890">
        <ele>920.0</ele>
        <time>2020-07-13T08:47:36Z</time>
      </trkpt>
      <trkpt lat="37.1675540" lon="-2.7518050">
        <ele>919.6</ele>
        <time>2020-07-13T08:47:40Z</time>
      </trkpt>
      <trkpt lat="37.1674730" lon="-2.7515540">
        <ele>919.6</ele>
        <time>2020-07-13T08:47:43Z</time>
      </trkpt>
      <trkpt lat="37.1674000" lon="-2.7514210">
        <ele>919.8</ele>
        <time>2020-07-13T08:47:45Z</time>
      </trkpt>
      <trkpt lat="37.1672950" lon="-2.7512610">
        <ele>920.2</ele>
        <time>2020-07-13T08:47:48Z</time>
      </trkpt>
      <trkpt lat="37.1672120" lon="-2.7511280">
        <ele>921.0</ele>
        <time>2020-07-13T08:47:51Z</time>
      </trkpt>
      <trkpt lat="37.1671650" lon="-2.7510460">
        <ele>921.8</ele>
        <time>2020-07-13T08:47:53Z</time>
      </trkpt>
      <trkpt lat="37.1671440" lon="-2.7510060">
        <ele>922.2</ele>
        <time>2020-07-13T08:47:54Z</time>
      </trkpt>
      <trkpt lat="37.1671130" lon="-2.7509410">
        <ele>923.0</ele>
        <time>2020-07-13T08:47:56Z</time>
      </trkpt>
      <trkpt lat="37.1670730" lon="-2.7508390">
        <ele>924.0</ele>
        <time>2020-07-13T08:47:59Z</time>
      </trkpt>
      <trkpt lat="37.1670530" lon="-2.7507740">
        <ele>924.8</ele>
        <time>2020-07-13T08:48:01Z</time>
      </trkpt>
      <trkpt lat="37.1670380" lon="-2.7507050">
        <ele>925.4</ele>
        <time>2020-07-13T08:48:03Z</time>
      </trkpt>
      <trkpt lat="37.1670210" lon="-2.7505710">
        <ele>926.4</ele>
        <time>2020-07-13T08:48:07Z</time>
      </trkpt>
      <trkpt lat="37.1670170" lon="-2.7504690">
        <ele>927.2</ele>
        <time>2020-07-13T08:48:10Z</time>
      </trkpt>
      <trkpt lat="37.1670190" lon="-2.7504390">
        <ele>927.4</ele>
        <time>2020-07-13T08:48:11Z</time>
      </trkpt>
      <trkpt lat="37.1670610" lon="-2.7502310">
        <ele>928.4</ele>
        <time>2020-07-13T08:48:17Z</time>
      </trkpt>
      <trkpt lat="37.1670750" lon="-2.7501920">
        <ele>928.6</ele>
        <time>2020-07-13T08:48:18Z</time>
      </trkpt>
      <trkpt lat="37.1671690" lon="-2.7500340">
        <ele>929.6</ele>
        <time>2020-07-13T08:48:23Z</time>
      </trkpt>
      <trkpt lat="37.1672200" lon="-2.7499800">
        <ele>929.8</ele>
        <time>2020-07-13T08:48:25Z</time>
      </trkpt>
      <trkpt lat="37.1674110" lon="-2.7498150">
        <ele>930.8</ele>
        <time>2020-07-13T08:48:32Z</time>
      </trkpt>
      <trkpt lat="37.1674920" lon="-2.7497520">
        <ele>931.2</ele>
        <time>2020-07-13T08:48:35Z</time>
      </trkpt>
      <trkpt lat="37.1675740" lon="-2.7496910">
        <ele>931.8</ele>
        <time>2020-07-13T08:48:38Z</time>
      </trkpt>
      <trkpt lat="37.1677090" lon="-2.7496000">
        <ele>932.8</ele>
        <time>2020-07-13T08:48:43Z</time>
      </trkpt>
      <trkpt lat="37.1677650" lon="-2.7495630">
        <ele>933.2</ele>
        <time>2020-07-13T08:48:45Z</time>
      </trkpt>
      <trkpt lat="37.1678790" lon="-2.7495010">
        <ele>934.0</ele>
        <time>2020-07-13T08:48:49Z</time>
      </trkpt>
      <trkpt lat="37.1680520" lon="-2.7494160">
        <ele>935.0</ele>
        <time>2020-07-13T08:48:55Z</time>
      </trkpt>
      <trkpt lat="37.1682190" lon="-2.7493200">
        <ele>935.8</ele>
        <time>2020-07-13T08:49:01Z</time>
      </trkpt>
      <trkpt lat="37.1682490" lon="-2.7493020">
        <ele>936.0</ele>
        <time>2020-07-13T08:49:02Z</time>
      </trkpt>
      <trkpt lat="37.1683640" lon="-2.7492410">
        <ele>936.8</ele>
        <time>2020-07-13T08:49:06Z</time>
      </trkpt>
      <trkpt lat="37.1684260" lon="-2.7492090">
        <ele>937.0</ele>
        <time>2020-07-13T08:49:08Z</time>
      </trkpt>
      <trkpt lat="37.1685980" lon="-2.7490960">
        <ele>938.0</ele>
        <time>2020-07-13T08:49:14Z</time>
      </trkpt>
      <trkpt lat="37.1686810" lon="-2.7490170">
        <ele>938.6</ele>
        <time>2020-07-13T08:49:17Z</time>
      </trkpt>
      <trkpt lat="37.1687720" lon="-2.7488730">
        <ele>939.2</ele>
        <time>2020-07-13T08:49:21Z</time>
      </trkpt>
      <trkpt lat="37.1688050" lon="-2.7487930">
        <ele>939.6</ele>
        <time>2020-07-13T08:49:23Z</time>
      </trkpt>
      <trkpt lat="37.1688290" lon="-2.7486640">
        <ele>940.4</ele>
        <time>2020-07-13T08:49:26Z</time>
      </trkpt>
      <trkpt lat="37.1688390" lon="-2.7485300">
        <ele>941.2</ele>
        <time>2020-07-13T08:49:29Z</time>
      </trkpt>
      <trkpt lat="37.1688410" lon="-2.7484430">
        <ele>941.6</ele>
        <time>2020-07-13T08:49:31Z</time>
      </trkpt>
      <trkpt lat="37.1688360" lon="-2.7481750">
        <ele>942.6</ele>
        <time>2020-07-13T08:49:37Z</time>
      </trkpt>
      <trkpt lat="37.1688310" lon="-2.7480010">
        <ele>943.2</ele>
        <time>2020-07-13T08:49:41Z</time>
      </trkpt>
      <trkpt lat="37.1688210" lon="-2.7478600">
        <ele>943.6</ele>
        <time>2020-07-13T08:49:44Z</time>
      </trkpt>
      <trkpt lat="37.1687970" lon="-2.7475290">
        <ele>944.6</ele>
        <time>2020-07-13T08:49:51Z</time>
      </trkpt>
      <trkpt lat="37.1687570" lon="-2.7470290">
        <ele>945.6</ele>
        <time>2020-07-13T08:50:00Z</time>
      </trkpt>
      <trkpt lat="37.1687610" lon="-2.7469090">
        <ele>945.8</ele>
        <time>2020-07-13T08:50:02Z</time>
      </trkpt>
      <trkpt lat="37.1687930" lon="-2.7467220">
        <ele>945.8</ele>
        <time>2020-07-13T08:50:05Z</time>
      </trkpt>
      <trkpt lat="37.1688150" lon="-2.7466590">
        <ele>945.8</ele>
        <time>2020-07-13T08:50:06Z</time>
      </trkpt>
      <trkpt lat="37.1689860" lon="-2.7464230">
        <ele>945.2</ele>
        <time>2020-07-13T08:50:10Z</time>
      </trkpt>
      <trkpt lat="37.1691150" lon="-2.7463260">
        <ele>944.8</ele>
        <time>2020-07-13T08:50:12Z</time>
      </trkpt>
      <trkpt lat="37.1691860" lon="-2.7462750">
        <ele>944.6</ele>
        <time>2020-07-13T08:50:13Z</time>
      </trkpt>
      <trkpt lat="37.1692590" lon="-2.7462230">
        <ele>944.4</ele>
        <time>2020-07-13T08:50:14Z</time>
      </trkpt>
      <trkpt lat="37.1695590" lon="-2.7459590">
        <ele>943.2</ele>
        <time>2020-07-13T08:50:18Z</time>
      </trkpt>
      <trkpt lat="37.1696270" lon="-2.7458670">
        <ele>942.8</ele>
        <time>2020-07-13T08:50:19Z</time>
      </trkpt>
      <trkpt lat="37.1697310" lon="-2.7456610">
        <ele>942.0</ele>
        <time>2020-07-13T08:50:21Z</time>
      </trkpt>
      <trkpt lat="37.1698010" lon="-2.7454290">
        <ele>941.2</ele>
        <time>2020-07-13T08:50:23Z</time>
      </trkpt>
      <trkpt lat="37.1698260" lon="-2.7453050">
        <ele>940.8</ele>
        <time>2020-07-13T08:50:24Z</time>
      </trkpt>
      <trkpt lat="37.1698460" lon="-2.7451880">
        <ele>940.4</ele>
        <time>2020-07-13T08:50:25Z</time>
      </trkpt>
      <trkpt lat="37.1698960" lon="-2.7448650">
        <ele>939.8</ele>
        <time>2020-07-13T08:50:28Z</time>
      </trkpt>
      <trkpt lat="37.1699610" lon="-2.7443900">
        <ele>941.2</ele>
        <time>2020-07-13T08:50:33Z</time>
      </trkpt>
      <trkpt lat="37.1699830" lon="-2.7442240">
        <ele>941.8</ele>
        <time>2020-07-13T08:50:35Z</time>
      </trkpt>
      <trkpt lat="37.1700260" lon="-2.7438990">
        <ele>942.6</ele>
        <time>2020-07-13T08:50:39Z</time>
      </trkpt>
      <trkpt lat="37.1700530" lon="-2.7436910">
        <ele>943.0</ele>
        <time>2020-07-13T08:50:42Z</time>
      </trkpt>
      <trkpt lat="37.1700980" lon="-2.7433400">
        <ele>944.4</ele>
        <time>2020-07-13T08:50:48Z</time>
      </trkpt>
      <trkpt lat="37.1701040" lon="-2.7432880">
        <ele>944.6</ele>
        <time>2020-07-13T08:50:49Z</time>
      </trkpt>
      <trkpt lat="37.1701190" lon="-2.7431390">
        <ele>945.4</ele>
        <time>2020-07-13T08:50:52Z</time>
      </trkpt>
      <trkpt lat="37.1701320" lon="-2.7429560">
        <ele>946.6</ele>
        <time>2020-07-13T08:50:56Z</time>
      </trkpt>
      <trkpt lat="37.1701310" lon="-2.7429050">
        <ele>946.8</ele>
        <time>2020-07-13T08:50:57Z</time>
      </trkpt>
      <trkpt lat="37.1701060" lon="-2.7427330">
        <ele>947.6</ele>
        <time>2020-07-13T08:51:01Z</time>
      </trkpt>
      <trkpt lat="37.1700650" lon="-2.7426060">
        <ele>948.2</ele>
        <time>2020-07-13T08:51:04Z</time>
      </trkpt>
      <trkpt lat="37.1700350" lon="-2.7425300">
        <ele>948.6</ele>
        <time>2020-07-13T08:51:06Z</time>
      </trkpt>
      <trkpt lat="37.1699390" lon="-2.7423370">
        <ele>949.8</ele>
        <time>2020-07-13T08:51:11Z</time>
      </trkpt>
      <trkpt lat="37.1698690" lon="-2.7422250">
        <ele>950.6</ele>
        <time>2020-07-13T08:51:14Z</time>
      </trkpt>
      <trkpt lat="37.1698450" lon="-2.7421910">
        <ele>951.0</ele>
        <time>2020-07-13T08:51:15Z</time>
      </trkpt>
      <trkpt lat="37.1696280" lon="-2.7419600">
        <ele>952.0</ele>
        <time>2020-07-13T08:51:23Z</time>
      </trkpt>
      <trkpt lat="37.1694150" lon="-2.7417800">
        <ele>953.2</ele>
        <time>2020-07-13T08:51:31Z</time>
      </trkpt>
      <trkpt lat="37.1693880" lon="-2.7417570">
        <ele>953.4</ele>
        <time>2020-07-13T08:51:32Z</time>
      </trkpt>
      <trkpt lat="37.1692720" lon="-2.7416510">
        <ele>954.4</ele>
        <time>2020-07-13T08:51:37Z</time>
      </trkpt>
      <trkpt lat="37.1691340" lon="-2.7415320">
        <ele>955.4</ele>
        <time>2020-07-13T08:51:43Z</time>
      </trkpt>
      <trkpt lat="37.1691120" lon="-2.7415110">
        <ele>955.6</ele>
        <time>2020-07-13T08:51:44Z</time>
      </trkpt>
      <trkpt lat="37.1690190" lon="-2.7414220">
        <ele>956.6</ele>
        <time>2020-07-13T08:51:48Z</time>
      </trkpt>
      <trkpt lat="37.1688920" lon="-2.7412380">
        <ele>957.4</ele>
        <time>2020-07-13T08:51:54Z</time>
      </trkpt>
      <trkpt lat="37.1688630" lon="-2.7411690">
        <ele>957.6</ele>
        <time>2020-07-13T08:51:56Z</time>
      </trkpt>
      <trkpt lat="37.1688220" lon="-2.7409790">
        <ele>958.6</ele>
        <time>2020-07-13T08:52:01Z</time>
      </trkpt>
      <trkpt lat="37.1688220" lon="-2.7409390">
        <ele>958.8</ele>
        <time>2020-07-13T08:52:02Z</time>
      </trkpt>
      <trkpt lat="37.1688520" lon="-2.7407490">
        <ele>959.6</ele>
        <time>2020-07-13T08:52:07Z</time>
      </trkpt>
      <trkpt lat="37.1688640" lon="-2.7407130">
        <ele>959.8</ele>
        <time>2020-07-13T08:52:08Z</time>
      </trkpt>
      <trkpt lat="37.1689630" lon="-2.7405100">
        <ele>961.0</ele>
        <time>2020-07-13T08:52:14Z</time>
      </trkpt>
      <trkpt lat="37.1689850" lon="-2.7404770">
        <ele>961.2</ele>
        <time>2020-07-13T08:52:15Z</time>
      </trkpt>
      <trkpt lat="37.1690710" lon="-2.7403580">
        <ele>962.2</ele>
        <time>2020-07-13T08:52:19Z</time>
      </trkpt>
      <trkpt lat="37.1691980" lon="-2.7401820">
        <ele>963.2</ele>
        <time>2020-07-13T08:52:25Z</time>
      </trkpt>
      <trkpt lat="37.1692430" lon="-2.7401230">
        <ele>963.4</ele>
        <time>2020-07-13T08:52:27Z</time>
      </trkpt>
      <trkpt lat="37.1693540" lon="-2.7399780">
        <ele>964.2</ele>
        <time>2020-07-13T08:52:32Z</time>
      </trkpt>
      <trkpt lat="37.1695020" lon="-2.7398210">
        <ele>965.2</ele>
        <time>2020-07-13T08:52:38Z</time>
      </trkpt>
      <trkpt lat="37.1695320" lon="-2.7398020">
        <ele>965.4</ele>
        <time>2020-07-13T08:52:39Z</time>
      </trkpt>
      <trkpt lat="37.1697230" lon="-2.7397170">
        <ele>966.2</ele>
        <time>2020-07-13T08:52:45Z</time>
      </trkpt>
      <trkpt lat="37.1698240" lon="-2.7396960">
        <ele>966.8</ele>
        <time>2020-07-13T08:52:48Z</time>
      </trkpt>
      <trkpt lat="37.1699620" lon="-2.7396860">
        <ele>967.4</ele>
        <time>2020-07-13T08:52:52Z</time>
      </trkpt>
      <trkpt lat="37.1701640" lon="-2.7396880">
        <ele>968.6</ele>
        <time>2020-07-13T08:52:58Z</time>
      </trkpt>
      <trkpt lat="37.1701950" lon="-2.7396920">
        <ele>968.8</ele>
        <time>2020-07-13T08:52:59Z</time>
      </trkpt>
      <trkpt lat="37.1703320" lon="-2.7397130">
        <ele>969.6</ele>
        <time>2020-07-13T08:53:03Z</time>
      </trkpt>
      <trkpt lat="37.1705030" lon="-2.7397680">
        <ele>970.8</ele>
        <time>2020-07-13T08:53:08Z</time>
      </trkpt>
      <trkpt lat="37.1705390" lon="-2.7397810">
        <ele>970.8</ele>
        <time>2020-07-13T08:53:09Z</time>
      </trkpt>
      <trkpt lat="37.1708070" lon="-2.7399030">
        <ele>971.8</ele>
        <time>2020-07-13T08:53:16Z</time>
      </trkpt>
      <trkpt lat="37.1710570" lon="-2.7399530">
        <ele>972.6</ele>
        <time>2020-07-13T08:53:22Z</time>
      </trkpt>
      <trkpt lat="37.1711350" lon="-2.7399730">
        <ele>973.0</ele>
        <time>2020-07-13T08:53:24Z</time>
      </trkpt>
      <trkpt lat="37.1713280" lon="-2.7400340">
        <ele>974.2</ele>
        <time>2020-07-13T08:53:29Z</time>
      </trkpt>
      <trkpt lat="37.1714500" lon="-2.7400660">
        <ele>974.6</ele>
        <time>2020-07-13T08:53:32Z</time>
      </trkpt>
      <trkpt lat="37.1716130" lon="-2.7400610">
        <ele>975.2</ele>
        <time>2020-07-13T08:53:36Z</time>
      </trkpt>
      <trkpt lat="37.1717020" lon="-2.7400300">
        <ele>975.6</ele>
        <time>2020-07-13T08:53:38Z</time>
      </trkpt>
      <trkpt lat="37.1718650" lon="-2.7399500">
        <ele>976.2</ele>
        <time>2020-07-13T08:53:42Z</time>
      </trkpt>
      <trkpt lat="37.1720790" lon="-2.7398480">
        <ele>976.8</ele>
        <time>2020-07-13T08:53:47Z</time>
      </trkpt>
      <trkpt lat="37.1721700" lon="-2.7397910">
        <ele>977.0</ele>
        <time>2020-07-13T08:53:49Z</time>
      </trkpt>
      <trkpt lat="37.1722390" lon="-2.7397060">
        <ele>977.2</ele>
        <time>2020-07-13T08:53:51Z</time>
      </trkpt>
      <trkpt lat="37.1722710" lon="-2.7396470">
        <ele>977.4</ele>
        <time>2020-07-13T08:53:52Z</time>
      </trkpt>
      <trkpt lat="37.1723210" lon="-2.7395340">
        <ele>977.4</ele>
        <time>2020-07-13T08:53:54Z</time>
      </trkpt>
      <trkpt lat="37.1724210" lon="-2.7392440">
        <ele>977.8</ele>
        <time>2020-07-13T08:53:59Z</time>
      </trkpt>
      <trkpt lat="37.1725410" lon="-2.7389530">
        <ele>978.2</ele>
        <time>2020-07-13T08:54:04Z</time>
      </trkpt>
      <trkpt lat="37.1726520" lon="-2.7387290">
        <ele>978.2</ele>
        <time>2020-07-13T08:54:08Z</time>
      </trkpt>
      <trkpt lat="37.1726850" lon="-2.7386750">
        <ele>978.4</ele>
        <time>2020-07-13T08:54:09Z</time>
      </trkpt>
      <trkpt lat="37.1727210" lon="-2.7386280">
        <ele>978.4</ele>
        <time>2020-07-13T08:54:10Z</time>
      </trkpt>
      <trkpt lat="37.1728600" lon="-2.7385270">
        <ele>978.4</ele>
        <time>2020-07-13T08:54:13Z</time>
      </trkpt>
      <trkpt lat="37.1729660" lon="-2.7384840">
        <ele>978.6</ele>
        <time>2020-07-13T08:54:15Z</time>
      </trkpt>
      <trkpt lat="37.1732310" lon="-2.7384170">
        <ele>978.8</ele>
        <time>2020-07-13T08:54:20Z</time>
      </trkpt>
      <trkpt lat="37.1734440" lon="-2.7383660">
        <ele>979.4</ele>
        <time>2020-07-13T08:54:24Z</time>
      </trkpt>
      <trkpt lat="37.1739210" lon="-2.7382560">
        <ele>980.4</ele>
        <time>2020-07-13T08:54:33Z</time>
      </trkpt>
      <trkpt lat="37.1741680" lon="-2.7382070">
        <ele>981.4</ele>
        <time>2020-07-13T08:54:38Z</time>
      </trkpt>
      <trkpt lat="37.1742600" lon="-2.7382140">
        <ele>981.8</ele>
        <time>2020-07-13T08:54:40Z</time>
      </trkpt>
      <trkpt lat="37.1742920" lon="-2.7382270">
        <ele>981.8</ele>
        <time>2020-07-13T08:54:41Z</time>
      </trkpt>
      <trkpt lat="37.1743960" lon="-2.7383290">
        <ele>982.6</ele>
        <time>2020-07-13T08:54:44Z</time>
      </trkpt>
      <trkpt lat="37.1744180" lon="-2.7383720">
        <ele>983.0</ele>
        <time>2020-07-13T08:54:45Z</time>
      </trkpt>
      <trkpt lat="37.1744560" lon="-2.7384580">
        <ele>983.4</ele>
        <time>2020-07-13T08:54:47Z</time>
      </trkpt>
      <trkpt lat="37.1744740" lon="-2.7385040">
        <ele>983.6</ele>
        <time>2020-07-13T08:54:48Z</time>
      </trkpt>
      <trkpt lat="37.1744980" lon="-2.7386390">
        <ele>984.2</ele>
        <time>2020-07-13T08:54:51Z</time>
      </trkpt>
      <trkpt lat="37.1745000" lon="-2.7387350">
        <ele>984.8</ele>
        <time>2020-07-13T08:54:53Z</time>
      </trkpt>
      <trkpt lat="37.1744930" lon="-2.7389210">
        <ele>986.0</ele>
        <time>2020-07-13T08:54:57Z</time>
      </trkpt>
      <trkpt lat="37.1744870" lon="-2.7389670">
        <ele>986.4</ele>
        <time>2020-07-13T08:54:58Z</time>
      </trkpt>
      <trkpt lat="37.1744820" lon="-2.7391070">
        <ele>987.2</ele>
        <time>2020-07-13T08:55:01Z</time>
      </trkpt>
      <trkpt lat="37.1744790" lon="-2.7392940">
        <ele>987.8</ele>
        <time>2020-07-13T08:55:05Z</time>
      </trkpt>
      <trkpt lat="37.1745030" lon="-2.7393860">
        <ele>988.2</ele>
        <time>2020-07-13T08:55:07Z</time>
      </trkpt>
      <trkpt lat="37.1745360" lon="-2.7394640">
        <ele>988.6</ele>
        <time>2020-07-13T08:55:09Z</time>
      </trkpt>
      <trkpt lat="37.1745790" lon="-2.7395220">
        <ele>989.2</ele>
        <time>2020-07-13T08:55:11Z</time>
      </trkpt>
      <trkpt lat="37.1746720" lon="-2.7395910">
        <ele>989.6</ele>
        <time>2020-07-13T08:55:14Z</time>
      </trkpt>
      <trkpt lat="37.1747650" lon="-2.7396100">
        <ele>990.4</ele>
        <time>2020-07-13T08:55:17Z</time>
      </trkpt>
      <trkpt lat="37.1748220" lon="-2.7395960">
        <ele>991.2</ele>
        <time>2020-07-13T08:55:19Z</time>
      </trkpt>
      <trkpt lat="37.1748490" lon="-2.7395830">
        <ele>991.6</ele>
        <time>2020-07-13T08:55:20Z</time>
      </trkpt>
      <trkpt lat="37.1749380" lon="-2.7395050">
        <ele>992.8</ele>
        <time>2020-07-13T08:55:24Z</time>
      </trkpt>
      <trkpt lat="37.1749550" lon="-2.7394780">
        <ele>993.2</ele>
        <time>2020-07-13T08:55:25Z</time>
      </trkpt>
      <trkpt lat="37.1750110" lon="-2.7393850">
        <ele>993.8</ele>
        <time>2020-07-13T08:55:28Z</time>
      </trkpt>
      <trkpt lat="37.1750950" lon="-2.7392160">
        <ele>994.8</ele>
        <time>2020-07-13T08:55:33Z</time>
      </trkpt>
      <trkpt lat="37.1751790" lon="-2.7390510">
        <ele>996.0</ele>
        <time>2020-07-13T08:55:38Z</time>
      </trkpt>
      <trkpt lat="37.1752650" lon="-2.7388870">
        <ele>997.2</ele>
        <time>2020-07-13T08:55:43Z</time>
      </trkpt>
      <trkpt lat="37.1752980" lon="-2.7388230">
        <ele>997.8</ele>
        <time>2020-07-13T08:55:45Z</time>
      </trkpt>
      <trkpt lat="37.1753390" lon="-2.7387190">
        <ele>998.2</ele>
        <time>2020-07-13T08:55:48Z</time>
      </trkpt>
      <trkpt lat="37.1754060" lon="-2.7385940">
        <ele>999.0</ele>
        <time>2020-07-13T08:55:52Z</time>
      </trkpt>
      <trkpt lat="37.1754380" lon="-2.7385330">
        <ele>999.4</ele>
        <time>2020-07-13T08:55:54Z</time>
      </trkpt>
      <trkpt lat="37.1755610" lon="-2.7383710">
        <ele>1000.6</ele>
        <time>2020-07-13T08:56:00Z</time>
      </trkpt>
      <trkpt lat="37.1756870" lon="-2.7382910">
        <ele>1001.8</ele>
        <time>2020-07-13T08:56:05Z</time>
      </trkpt>
      <trkpt lat="37.1757430" lon="-2.7382750">
        <ele>1002.6</ele>
        <time>2020-07-13T08:56:07Z</time>
      </trkpt>
      <trkpt lat="37.1757690" lon="-2.7382700">
        <ele>1003.0</ele>
        <time>2020-07-13T08:56:08Z</time>
      </trkpt>
      <trkpt lat="37.1758990" lon="-2.7382890">
        <ele>1004.0</ele>
        <time>2020-07-13T08:56:13Z</time>
      </trkpt>
      <trkpt lat="37.1759240" lon="-2.7383040">
        <ele>1004.2</ele>
        <time>2020-07-13T08:56:14Z</time>
      </trkpt>
      <trkpt lat="37.1760180" lon="-2.7383780">
        <ele>1005.2</ele>
        <time>2020-07-13T08:56:18Z</time>
      </trkpt>
      <trkpt lat="37.1760820" lon="-2.7384830">
        <ele>1005.8</ele>
        <time>2020-07-13T08:56:22Z</time>
      </trkpt>
      <trkpt lat="37.1761100" lon="-2.7385790">
        <ele>1006.4</ele>
        <time>2020-07-13T08:56:25Z</time>
      </trkpt>
      <trkpt lat="37.1761160" lon="-2.7387100">
        <ele>1007.2</ele>
        <time>2020-07-13T08:56:29Z</time>
      </trkpt>
      <trkpt lat="37.1761100" lon="-2.7387490">
        <ele>1007.4</ele>
        <time>2020-07-13T08:56:30Z</time>
      </trkpt>
      <trkpt lat="37.1760660" lon="-2.7389070">
        <ele>1008.6</ele>
        <time>2020-07-13T08:56:35Z</time>
      </trkpt>
      <trkpt lat="37.1760540" lon="-2.7389360">
        <ele>1008.6</ele>
        <time>2020-07-13T08:56:36Z</time>
      </trkpt>
      <trkpt lat="37.1759800" lon="-2.7390750">
        <ele>1009.6</ele>
        <time>2020-07-13T08:56:41Z</time>
      </trkpt>
      <trkpt lat="37.1759100" lon="-2.7391950">
        <ele>1010.4</ele>
        <time>2020-07-13T08:56:45Z</time>
      </trkpt>
      <trkpt lat="37.1758780" lon="-2.7392530">
        <ele>1010.8</ele>
        <time>2020-07-13T08:56:47Z</time>
      </trkpt>
      <trkpt lat="37.1757640" lon="-2.7394520">
        <ele>1011.8</ele>
        <time>2020-07-13T08:56:53Z</time>
      </trkpt>
      <trkpt lat="37.1757390" lon="-2.7394920">
        <ele>1012.0</ele>
        <time>2020-07-13T08:56:54Z</time>
      </trkpt>
      <trkpt lat="37.1756170" lon="-2.7396880">
        <ele>1012.0</ele>
        <time>2020-07-13T08:56:59Z</time>
      </trkpt>
      <trkpt lat="37.1754980" lon="-2.7398960">
        <ele>1012.4</ele>
        <time>2020-07-13T08:57:04Z</time>
      </trkpt>
      <trkpt lat="37.1754780" lon="-2.7399330">
        <ele>1012.4</ele>
        <time>2020-07-13T08:57:05Z</time>
      </trkpt>
      <trkpt lat="37.1753890" lon="-2.7400980">
        <ele>1012.4</ele>
        <time>2020-07-13T08:57:09Z</time>
      </trkpt>
      <trkpt lat="37.1753070" lon="-2.7402490">
        <ele>1013.0</ele>
        <time>2020-07-13T08:57:13Z</time>
      </trkpt>
      <trkpt lat="37.1752570" lon="-2.7403600">
        <ele>1013.6</ele>
        <time>2020-07-13T08:57:16Z</time>
      </trkpt>
      <trkpt lat="37.1752210" lon="-2.7404900">
        <ele>1014.2</ele>
        <time>2020-07-13T08:57:19Z</time>
      </trkpt>
      <trkpt lat="37.1752170" lon="-2.7406160">
        <ele>1014.6</ele>
        <time>2020-07-13T08:57:22Z</time>
      </trkpt>
      <trkpt lat="37.1752610" lon="-2.7407570">
        <ele>1015.4</ele>
        <time>2020-07-13T08:57:26Z</time>
      </trkpt>
      <trkpt lat="37.1752820" lon="-2.7407930">
        <ele>1015.6</ele>
        <time>2020-07-13T08:57:27Z</time>
      </trkpt>
      <trkpt lat="37.1753650" lon="-2.7408880">
        <ele>1016.4</ele>
        <time>2020-07-13T08:57:31Z</time>
      </trkpt>
      <trkpt lat="37.1754310" lon="-2.7409280">
        <ele>1017.0</ele>
        <time>2020-07-13T08:57:33Z</time>
      </trkpt>
      <trkpt lat="37.1755170" lon="-2.7409510">
        <ele>1017.6</ele>
        <time>2020-07-13T08:57:36Z</time>
      </trkpt>
      <trkpt lat="37.1756120" lon="-2.7409450">
        <ele>1018.4</ele>
        <time>2020-07-13T08:57:39Z</time>
      </trkpt>
      <trkpt lat="37.1756420" lon="-2.7409380">
        <ele>1018.8</ele>
        <time>2020-07-13T08:57:40Z</time>
      </trkpt>
      <trkpt lat="37.1757820" lon="-2.7408620">
        <ele>1020.0</ele>
        <time>2020-07-13T08:57:45Z</time>
      </trkpt>
      <trkpt lat="37.1758060" lon="-2.7408470">
        <ele>1020.2</ele>
        <time>2020-07-13T08:57:46Z</time>
      </trkpt>
      <trkpt lat="37.1759170" lon="-2.7407860">
        <ele>1021.0</ele>
        <time>2020-07-13T08:57:50Z</time>
      </trkpt>
      <trkpt lat="37.1760570" lon="-2.7407380">
        <ele>1022.2</ele>
        <time>2020-07-13T08:57:55Z</time>
      </trkpt>
      <trkpt lat="37.1762170" lon="-2.7407490">
        <ele>1023.2</ele>
        <time>2020-07-13T08:58:00Z</time>
      </trkpt>
      <trkpt lat="37.1762790" lon="-2.7407730">
        <ele>1023.6</ele>
        <time>2020-07-13T08:58:02Z</time>
      </trkpt>
      <trkpt lat="37.1764140" lon="-2.7408740">
        <ele>1024.2</ele>
        <time>2020-07-13T08:58:07Z</time>
      </trkpt>
      <trkpt lat="37.1764640" lon="-2.7409300">
        <ele>1024.8</ele>
        <time>2020-07-13T08:58:09Z</time>
      </trkpt>
      <trkpt lat="37.1765510" lon="-2.7410080">
        <ele>1025.4</ele>
        <time>2020-07-13T08:58:12Z</time>
      </trkpt>
      <trkpt lat="37.1766640" lon="-2.7411210">
        <ele>1026.0</ele>
        <time>2020-07-13T08:58:16Z</time>
      </trkpt>
      <trkpt lat="37.1767530" lon="-2.7412180">
        <ele>1026.4</ele>
        <time>2020-07-13T08:58:19Z</time>
      </trkpt>
      <trkpt lat="37.1768860" lon="-2.7413710">
        <ele>1027.4</ele>
        <time>2020-07-13T08:58:24Z</time>
      </trkpt>
      <trkpt lat="37.1769140" lon="-2.7414020">
        <ele>1027.6</ele>
        <time>2020-07-13T08:58:25Z</time>
      </trkpt>
      <trkpt lat="37.1771040" lon="-2.7415330">
        <ele>1028.4</ele>
        <time>2020-07-13T08:58:31Z</time>
      </trkpt>
      <trkpt lat="37.1771450" lon="-2.7415490">
        <ele>1028.6</ele>
        <time>2020-07-13T08:58:32Z</time>
      </trkpt>
      <trkpt lat="37.1773170" lon="-2.7415620">
        <ele>1029.6</ele>
        <time>2020-07-13T08:58:37Z</time>
      </trkpt>
      <trkpt lat="37.1773500" lon="-2.7415590">
        <ele>1030.0</ele>
        <time>2020-07-13T08:58:38Z</time>
      </trkpt>
      <trkpt lat="37.1774790" lon="-2.7415420">
        <ele>1030.8</ele>
        <time>2020-07-13T08:58:42Z</time>
      </trkpt>
      <trkpt lat="37.1776810" lon="-2.7415180">
        <ele>1032.0</ele>
        <time>2020-07-13T08:58:48Z</time>
      </trkpt>
      <trkpt lat="37.1779370" lon="-2.7414840">
        <ele>1033.0</ele>
        <time>2020-07-13T08:58:55Z</time>
      </trkpt>
      <trkpt lat="37.1780460" lon="-2.7414690">
        <ele>1033.6</ele>
        <time>2020-07-13T08:58:58Z</time>
      </trkpt>
      <trkpt lat="37.1781170" lon="-2.7414620">
        <ele>1034.2</ele>
        <time>2020-07-13T08:59:00Z</time>
      </trkpt>
      <trkpt lat="37.1783180" lon="-2.7414460">
        <ele>1035.2</ele>
        <time>2020-07-13T08:59:06Z</time>
      </trkpt>
      <trkpt lat="37.1784240" lon="-2.7414580">
        <ele>1035.8</ele>
        <time>2020-07-13T08:59:09Z</time>
      </trkpt>
      <trkpt lat="37.1785260" lon="-2.7414890">
        <ele>1036.2</ele>
        <time>2020-07-13T08:59:12Z</time>
      </trkpt>
      <trkpt lat="37.1786490" lon="-2.7415620">
        <ele>1036.8</ele>
        <time>2020-07-13T08:59:16Z</time>
      </trkpt>
      <trkpt lat="37.1787340" lon="-2.7416520">
        <ele>1037.4</ele>
        <time>2020-07-13T08:59:19Z</time>
      </trkpt>
      <trkpt lat="37.1788110" lon="-2.7417510">
        <ele>1038.0</ele>
        <time>2020-07-13T08:59:22Z</time>
      </trkpt>
      <trkpt lat="37.1788640" lon="-2.7418140">
        <ele>1038.4</ele>
        <time>2020-07-13T08:59:24Z</time>
      </trkpt>
      <trkpt lat="37.1790210" lon="-2.7420110">
        <ele>1039.2</ele>
        <time>2020-07-13T08:59:30Z</time>
      </trkpt>
      <trkpt lat="37.1790790" lon="-2.7420740">
        <ele>1039.4</ele>
        <time>2020-07-13T08:59:32Z</time>
      </trkpt>
      <trkpt lat="37.1793120" lon="-2.7422460">
        <ele>1040.4</ele>
        <time>2020-07-13T08:59:39Z</time>
      </trkpt>
      <trkpt lat="37.1795280" lon="-2.7423000">
        <ele>1041.6</ele>
        <time>2020-07-13T08:59:45Z</time>
      </trkpt>
      <trkpt lat="37.1795960" lon="-2.7423120">
        <ele>1042.2</ele>
        <time>2020-07-13T08:59:47Z</time>
      </trkpt>
      <trkpt lat="37.1796720" lon="-2.7423280">
        <ele>1042.6</ele>
        <time>2020-07-13T08:59:49Z</time>
      </trkpt>
      <trkpt lat="37.1799280" lon="-2.7423750">
        <ele>1043.8</ele>
        <time>2020-07-13T08:59:56Z</time>
      </trkpt>
      <trkpt lat="37.1800400" lon="-2.7423980">
        <ele>1044.2</ele>
        <time>2020-07-13T08:59:59Z</time>
      </trkpt>
      <trkpt lat="37.1801870" lon="-2.7424250">
        <ele>1045.0</ele>
        <time>2020-07-13T09:00:03Z</time>
      </trkpt>
      <trkpt lat="37.1803370" lon="-2.7424360">
        <ele>1045.8</ele>
        <time>2020-07-13T09:00:07Z</time>
      </trkpt>
      <trkpt lat="37.1803730" lon="-2.7424360">
        <ele>1046.0</ele>
        <time>2020-07-13T09:00:08Z</time>
      </trkpt>
      <trkpt lat="37.1805810" lon="-2.7424230">
        <ele>1047.2</ele>
        <time>2020-07-13T09:00:14Z</time>
      </trkpt>
      <trkpt lat="37.1806480" lon="-2.7424140">
        <ele>1047.6</ele>
        <time>2020-07-13T09:00:16Z</time>
      </trkpt>
      <trkpt lat="37.1807930" lon="-2.7423970">
        <ele>1048.2</ele>
        <time>2020-07-13T09:00:20Z</time>
      </trkpt>
      <trkpt lat="37.1809600" lon="-2.7423830">
        <ele>1049.0</ele>
        <time>2020-07-13T09:00:25Z</time>
      </trkpt>
      <trkpt lat="37.1810270" lon="-2.7423790">
        <ele>1049.4</ele>
        <time>2020-07-13T09:00:27Z</time>
      </trkpt>
      <trkpt lat="37.1812310" lon="-2.7424120">
        <ele>1050.6</ele>
        <time>2020-07-13T09:00:33Z</time>
      </trkpt>
      <trkpt lat="37.1812630" lon="-2.7424240">
        <ele>1050.8</ele>
        <time>2020-07-13T09:00:34Z</time>
      </trkpt>
      <trkpt lat="37.1814140" lon="-2.7424860">
        <ele>1051.6</ele>
        <time>2020-07-13T09:00:39Z</time>
      </trkpt>
      <trkpt lat="37.1815360" lon="-2.7425300">
        <ele>1052.6</ele>
        <time>2020-07-13T09:00:43Z</time>
      </trkpt>
      <trkpt lat="37.1815670" lon="-2.7425380">
        <ele>1052.8</ele>
        <time>2020-07-13T09:00:44Z</time>
      </trkpt>
      <trkpt lat="37.1817450" lon="-2.7426140">
        <ele>1053.8</ele>
        <time>2020-07-13T09:00:50Z</time>
      </trkpt>
      <trkpt lat="37.1817700" lon="-2.7426240">
        <ele>1054.0</ele>
        <time>2020-07-13T09:00:51Z</time>
      </trkpt>
      <trkpt lat="37.1818850" lon="-2.7426730">
        <ele>1055.2</ele>
        <time>2020-07-13T09:00:55Z</time>
      </trkpt>
      <trkpt lat="37.1819970" lon="-2.7427190">
        <ele>1056.4</ele>
        <time>2020-07-13T09:00:59Z</time>
      </trkpt>
      <trkpt lat="37.1820810" lon="-2.7427630">
        <ele>1057.0</ele>
        <time>2020-07-13T09:01:02Z</time>
      </trkpt>
      <trkpt lat="37.1821340" lon="-2.7427970">
        <ele>1057.4</ele>
        <time>2020-07-13T09:01:04Z</time>
      </trkpt>
      <trkpt lat="37.1822890" lon="-2.7429280">
        <ele>1058.6</ele>
        <time>2020-07-13T09:01:10Z</time>
      </trkpt>
      <trkpt lat="37.1824210" lon="-2.7430610">
        <ele>1059.8</ele>
        <time>2020-07-13T09:01:16Z</time>
      </trkpt>
      <trkpt lat="37.1824960" lon="-2.7431280">
        <ele>1060.4</ele>
        <time>2020-07-13T09:01:19Z</time>
      </trkpt>
      <trkpt lat="37.1825370" lon="-2.7431720">
        <ele>1061.0</ele>
        <time>2020-07-13T09:01:21Z</time>
      </trkpt>
      <trkpt lat="37.1826460" lon="-2.7432920">
        <ele>1062.0</ele>
        <time>2020-07-13T09:01:26Z</time>
      </trkpt>
      <trkpt lat="37.1826700" lon="-2.7433160">
        <ele>1062.2</ele>
        <time>2020-07-13T09:01:27Z</time>
      </trkpt>
      <trkpt lat="37.1827810" lon="-2.7434340">
        <ele>1063.2</ele>
        <time>2020-07-13T09:01:32Z</time>
      </trkpt>
      <trkpt lat="37.1829130" lon="-2.7435730">
        <ele>1064.2</ele>
        <time>2020-07-13T09:01:38Z</time>
      </trkpt>
      <trkpt lat="37.1829620" lon="-2.7436130">
        <ele>1064.6</ele>
        <time>2020-07-13T09:01:40Z</time>
      </trkpt>
      <trkpt lat="37.1830320" lon="-2.7436810">
        <ele>1065.2</ele>
        <time>2020-07-13T09:01:43Z</time>
      </trkpt>
      <trkpt lat="37.1831500" lon="-2.7438040">
        <ele>1066.4</ele>
        <time>2020-07-13T09:01:48Z</time>
      </trkpt>
      <trkpt lat="37.1832520" lon="-2.7438890">
        <ele>1067.2</ele>
        <time>2020-07-13T09:01:52Z</time>
      </trkpt>
      <trkpt lat="37.1833040" lon="-2.7439250">
        <ele>1067.4</ele>
        <time>2020-07-13T09:01:54Z</time>
      </trkpt>
      <trkpt lat="37.1834710" lon="-2.7440170">
        <ele>1068.6</ele>
        <time>2020-07-13T09:02:00Z</time>
      </trkpt>
      <trkpt lat="37.1836270" lon="-2.7441090">
        <ele>1069.8</ele>
        <time>2020-07-13T09:02:06Z</time>
      </trkpt>
      <trkpt lat="37.1837250" lon="-2.7441960">
        <ele>1071.0</ele>
        <time>2020-07-13T09:02:10Z</time>
      </trkpt>
      <trkpt lat="37.1838430" lon="-2.7444290">
        <ele>1072.0</ele>
        <time>2020-07-13T09:02:17Z</time>
      </trkpt>
      <trkpt lat="37.1839040" lon="-2.7446340">
        <ele>1073.0</ele>
        <time>2020-07-13T09:02:23Z</time>
      </trkpt>
      <trkpt lat="37.1839220" lon="-2.7447050">
        <ele>1073.6</ele>
        <time>2020-07-13T09:02:25Z</time>
      </trkpt>
      <trkpt lat="37.1839380" lon="-2.7447750">
        <ele>1074.2</ele>
        <time>2020-07-13T09:02:27Z</time>
      </trkpt>
      <trkpt lat="37.1839750" lon="-2.7449100">
        <ele>1075.4</ele>
        <time>2020-07-13T09:02:31Z</time>
      </trkpt>
      <trkpt lat="37.1840030" lon="-2.7449840">
        <ele>1075.6</ele>
        <time>2020-07-13T09:02:33Z</time>
      </trkpt>
      <trkpt lat="37.1840870" lon="-2.7451510">
        <ele>1076.6</ele>
        <time>2020-07-13T09:02:38Z</time>
      </trkpt>
      <trkpt lat="37.1841350" lon="-2.7452010">
        <ele>1077.2</ele>
        <time>2020-07-13T09:02:40Z</time>
      </trkpt>
      <trkpt lat="37.1842160" lon="-2.7452570">
        <ele>1077.8</ele>
        <time>2020-07-13T09:02:43Z</time>
      </trkpt>
      <trkpt lat="37.1843050" lon="-2.7452830">
        <ele>1078.2</ele>
        <time>2020-07-13T09:02:46Z</time>
      </trkpt>
      <trkpt lat="37.1843670" lon="-2.7452930">
        <ele>1078.8</ele>
        <time>2020-07-13T09:02:48Z</time>
      </trkpt>
      <trkpt lat="37.1844890" lon="-2.7453050">
        <ele>1080.2</ele>
        <time>2020-07-13T09:02:52Z</time>
      </trkpt>
      <trkpt lat="37.1845820" lon="-2.7453270">
        <ele>1081.0</ele>
        <time>2020-07-13T09:02:55Z</time>
      </trkpt>
      <trkpt lat="37.1846120" lon="-2.7453370">
        <ele>1081.4</ele>
        <time>2020-07-13T09:02:56Z</time>
      </trkpt>
      <trkpt lat="37.1847550" lon="-2.7454130">
        <ele>1082.4</ele>
        <time>2020-07-13T09:03:01Z</time>
      </trkpt>
      <trkpt lat="37.1847810" lon="-2.7454380">
        <ele>1082.4</ele>
        <time>2020-07-13T09:03:02Z</time>
      </trkpt>
      <trkpt lat="37.1848660" lon="-2.7455870">
        <ele>1083.4</ele>
        <time>2020-07-13T09:03:07Z</time>
      </trkpt>
      <trkpt lat="37.1848780" lon="-2.7456210">
        <ele>1083.8</ele>
        <time>2020-07-13T09:03:08Z</time>
      </trkpt>
      <trkpt lat="37.1848950" lon="-2.7457240">
        <ele>1084.8</ele>
        <time>2020-07-13T09:03:11Z</time>
      </trkpt>
      <trkpt lat="37.1849040" lon="-2.7458670">
        <ele>1085.8</ele>
        <time>2020-07-13T09:03:15Z</time>
      </trkpt>
      <trkpt lat="37.1848950" lon="-2.7460390">
        <ele>1087.0</ele>
        <time>2020-07-13T09:03:20Z</time>
      </trkpt>
      <trkpt lat="37.1848980" lon="-2.7462560">
        <ele>1087.8</ele>
        <time>2020-07-13T09:03:26Z</time>
      </trkpt>
      <trkpt lat="37.1849060" lon="-2.7463300">
        <ele>1088.0</ele>
        <time>2020-07-13T09:03:28Z</time>
      </trkpt>
      <trkpt lat="37.1849450" lon="-2.7464600">
        <ele>1089.2</ele>
        <time>2020-07-13T09:03:32Z</time>
      </trkpt>
      <trkpt lat="37.1849640" lon="-2.7464980">
        <ele>1089.6</ele>
        <time>2020-07-13T09:03:33Z</time>
      </trkpt>
      <trkpt lat="37.1850440" lon="-2.7465930">
        <ele>1090.4</ele>
        <time>2020-07-13T09:03:37Z</time>
      </trkpt>
      <trkpt lat="37.1850920" lon="-2.7466260">
        <ele>1090.8</ele>
        <time>2020-07-13T09:03:39Z</time>
      </trkpt>
      <trkpt lat="37.1851920" lon="-2.7466550">
        <ele>1091.4</ele>
        <time>2020-07-13T09:03:43Z</time>
      </trkpt>
      <trkpt lat="37.1852400" lon="-2.7466550">
        <ele>1091.8</ele>
        <time>2020-07-13T09:03:45Z</time>
      </trkpt>
      <trkpt lat="37.1853300" lon="-2.7466310">
        <ele>1092.4</ele>
        <time>2020-07-13T09:03:49Z</time>
      </trkpt>
      <trkpt lat="37.1854060" lon="-2.7465810">
        <ele>1093.4</ele>
        <time>2020-07-13T09:03:53Z</time>
      </trkpt>
      <trkpt lat="37.1854230" lon="-2.7465610">
        <ele>1093.6</ele>
        <time>2020-07-13T09:03:54Z</time>
      </trkpt>
      <trkpt lat="37.1854710" lon="-2.7464990">
        <ele>1094.8</ele>
        <time>2020-07-13T09:03:57Z</time>
      </trkpt>
      <trkpt lat="37.1855020" lon="-2.7464190">
        <ele>1095.6</ele>
        <time>2020-07-13T09:04:00Z</time>
      </trkpt>
      <trkpt lat="37.1855150" lon="-2.7463590">
        <ele>1095.8</ele>
        <time>2020-07-13T09:04:02Z</time>
      </trkpt>
      <trkpt lat="37.1855160" lon="-2.7462040">
        <ele>1097.0</ele>
        <time>2020-07-13T09:04:07Z</time>
      </trkpt>
      <trkpt lat="37.1854950" lon="-2.7460640">
        <ele>1098.2</ele>
        <time>2020-07-13T09:04:12Z</time>
      </trkpt>
      <trkpt lat="37.1854740" lon="-2.7459580">
        <ele>1099.0</ele>
        <time>2020-07-13T09:04:16Z</time>
      </trkpt>
      <trkpt lat="37.1854690" lon="-2.7459290">
        <ele>1099.4</ele>
        <time>2020-07-13T09:04:17Z</time>
      </trkpt>
      <trkpt lat="37.1854440" lon="-2.7457830">
        <ele>1100.4</ele>
        <time>2020-07-13T09:04:22Z</time>
      </trkpt>
      <trkpt lat="37.1854400" lon="-2.7457150">
        <ele>1100.8</ele>
        <time>2020-07-13T09:04:24Z</time>
      </trkpt>
      <trkpt lat="37.1854400" lon="-2.7456140">
        <ele>1101.4</ele>
        <time>2020-07-13T09:04:27Z</time>
      </trkpt>
      <trkpt lat="37.1854530" lon="-2.7454820">
        <ele>1102.0</ele>
        <time>2020-07-13T09:04:31Z</time>
      </trkpt>
      <trkpt lat="37.1854790" lon="-2.7453520">
        <ele>1102.6</ele>
        <time>2020-07-13T09:04:35Z</time>
      </trkpt>
      <trkpt lat="37.1855240" lon="-2.7451970">
        <ele>1103.8</ele>
        <time>2020-07-13T09:04:40Z</time>
      </trkpt>
      <trkpt lat="37.1855700" lon="-2.7450190">
        <ele>1104.8</ele>
        <time>2020-07-13T09:04:46Z</time>
      </trkpt>
      <trkpt lat="37.1855990" lon="-2.7448850">
        <ele>1105.6</ele>
        <time>2020-07-13T09:04:50Z</time>
      </trkpt>
      <trkpt lat="37.1856150" lon="-2.7448180">
        <ele>1105.8</ele>
        <time>2020-07-13T09:04:52Z</time>
      </trkpt>
      <trkpt lat="37.1856560" lon="-2.7445920">
        <ele>1106.6</ele>
        <time>2020-07-13T09:04:59Z</time>
      </trkpt>
      <trkpt lat="37.1856560" lon="-2.7445570">
        <ele>1106.8</ele>
        <time>2020-07-13T09:05:00Z</time>
      </trkpt>
      <trkpt lat="37.1856470" lon="-2.7444350">
        <ele>1107.8</ele>
        <time>2020-07-13T09:05:04Z</time>
      </trkpt>
      <trkpt lat="37.1856360" lon="-2.7443460">
        <ele>1108.8</ele>
        <time>2020-07-13T09:05:07Z</time>
      </trkpt>
      <trkpt lat="37.1856310" lon="-2.7443170">
        <ele>1109.0</ele>
        <time>2020-07-13T09:05:08Z</time>
      </trkpt>
      <trkpt lat="37.1856100" lon="-2.7441740">
        <ele>1110.0</ele>
        <time>2020-07-13T09:05:13Z</time>
      </trkpt>
      <trkpt lat="37.1855940" lon="-2.7440570">
        <ele>1110.8</ele>
        <time>2020-07-13T09:05:17Z</time>
      </trkpt>
      <trkpt lat="37.1855880" lon="-2.7439950">
        <ele>1111.0</ele>
        <time>2020-07-13T09:05:19Z</time>
      </trkpt>
      <trkpt lat="37.1855830" lon="-2.7438720">
        <ele>1112.0</ele>
        <time>2020-07-13T09:05:23Z</time>
      </trkpt>
      <trkpt lat="37.1856000" lon="-2.7437350">
        <ele>1113.0</ele>
        <time>2020-07-13T09:05:27Z</time>
      </trkpt>
      <trkpt lat="37.1856070" lon="-2.7437020">
        <ele>1113.2</ele>
        <time>2020-07-13T09:05:28Z</time>
      </trkpt>
      <trkpt lat="37.1856460" lon="-2.7435410">
        <ele>1114.4</ele>
        <time>2020-07-13T09:05:33Z</time>
      </trkpt>
      <trkpt lat="37.1856720" lon="-2.7434470">
        <ele>1114.8</ele>
        <time>2020-07-13T09:05:36Z</time>
      </trkpt>
      <trkpt lat="37.1857350" lon="-2.7432620">
        <ele>1115.6</ele>
        <time>2020-07-13T09:05:42Z</time>
      </trkpt>
      <trkpt lat="37.1857960" lon="-2.7431180">
        <ele>1116.6</ele>
        <time>2020-07-13T09:05:47Z</time>
      </trkpt>
      <trkpt lat="37.1858090" lon="-2.7430880">
        <ele>1116.8</ele>
        <time>2020-07-13T09:05:48Z</time>
      </trkpt>
      <trkpt lat="37.1858940" lon="-2.7429100">
        <ele>1117.8</ele>
        <time>2020-07-13T09:05:54Z</time>
      </trkpt>
      <trkpt lat="37.1859500" lon="-2.7427960">
        <ele>1118.2</ele>
        <time>2020-07-13T09:05:58Z</time>
      </trkpt>
      <trkpt lat="37.1860040" lon="-2.7426830">
        <ele>1118.8</ele>
        <time>2020-07-13T09:06:02Z</time>
      </trkpt>
      <trkpt lat="37.1860750" lon="-2.7425390">
        <ele>1120.0</ele>
        <time>2020-07-13T09:06:07Z</time>
      </trkpt>
      <trkpt lat="37.1861200" lon="-2.7424570">
        <ele>1120.6</ele>
        <time>2020-07-13T09:06:10Z</time>
      </trkpt>
      <trkpt lat="37.1861470" lon="-2.7424010">
        <ele>1121.2</ele>
        <time>2020-07-13T09:06:12Z</time>
      </trkpt>
      <trkpt lat="37.1862180" lon="-2.7422600">
        <ele>1122.4</ele>
        <time>2020-07-13T09:06:17Z</time>
      </trkpt>
      <trkpt lat="37.1862330" lon="-2.7422290">
        <ele>1122.6</ele>
        <time>2020-07-13T09:06:18Z</time>
      </trkpt>
      <trkpt lat="37.1862720" lon="-2.7421080">
        <ele>1123.4</ele>
        <time>2020-07-13T09:06:22Z</time>
      </trkpt>
      <trkpt lat="37.1862770" lon="-2.7420060">
        <ele>1124.0</ele>
        <time>2020-07-13T09:06:25Z</time>
      </trkpt>
      <trkpt lat="37.1862610" lon="-2.7419070">
        <ele>1124.6</ele>
        <time>2020-07-13T09:06:28Z</time>
      </trkpt>
      <trkpt lat="37.1862180" lon="-2.7417970">
        <ele>1125.6</ele>
        <time>2020-07-13T09:06:32Z</time>
      </trkpt>
      <trkpt lat="37.1861000" lon="-2.7416780">
        <ele>1126.8</ele>
        <time>2020-07-13T09:06:38Z</time>
      </trkpt>
      <trkpt lat="37.1859820" lon="-2.7416420">
        <ele>1128.0</ele>
        <time>2020-07-13T09:06:43Z</time>
      </trkpt>
      <trkpt lat="37.1859300" lon="-2.7416470">
        <ele>1128.4</ele>
        <time>2020-07-13T09:06:45Z</time>
      </trkpt>
      <trkpt lat="37.1858530" lon="-2.7416600">
        <ele>1129.2</ele>
        <time>2020-07-13T09:06:48Z</time>
      </trkpt>
      <trkpt lat="37.1857530" lon="-2.7416870">
        <ele>1130.2</ele>
        <time>2020-07-13T09:06:52Z</time>
      </trkpt>
      <trkpt lat="37.1856980" lon="-2.7416990">
        <ele>1131.0</ele>
        <time>2020-07-13T09:06:54Z</time>
      </trkpt>
      <trkpt lat="37.1856460" lon="-2.7417130">
        <ele>1131.4</ele>
        <time>2020-07-13T09:06:56Z</time>
      </trkpt>
      <trkpt lat="37.1855240" lon="-2.7417520">
        <ele>1132.4</ele>
        <time>2020-07-13T09:07:01Z</time>
      </trkpt>
      <trkpt lat="37.1854690" lon="-2.7417630">
        <ele>1132.8</ele>
        <time>2020-07-13T09:07:03Z</time>
      </trkpt>
      <trkpt lat="37.1853670" lon="-2.7417860">
        <ele>1133.6</ele>
        <time>2020-07-13T09:07:07Z</time>
      </trkpt>
      <trkpt lat="37.1852670" lon="-2.7417950">
        <ele>1134.6</ele>
        <time>2020-07-13T09:07:11Z</time>
      </trkpt>
      <trkpt lat="37.1852380" lon="-2.7417920">
        <ele>1134.8</ele>
        <time>2020-07-13T09:07:12Z</time>
      </trkpt>
      <trkpt lat="37.1851370" lon="-2.7417650">
        <ele>1135.8</ele>
        <time>2020-07-13T09:07:16Z</time>
      </trkpt>
      <trkpt lat="37.1850400" lon="-2.7417030">
        <ele>1136.4</ele>
        <time>2020-07-13T09:07:20Z</time>
      </trkpt>
      <trkpt lat="37.1849980" lon="-2.7416600">
        <ele>1136.8</ele>
        <time>2020-07-13T09:07:22Z</time>
      </trkpt>
      <trkpt lat="37.1849230" lon="-2.7415180">
        <ele>1137.6</ele>
        <time>2020-07-13T09:07:27Z</time>
      </trkpt>
      <trkpt lat="37.1849140" lon="-2.7414850">
        <ele>1138.0</ele>
        <time>2020-07-13T09:07:28Z</time>
      </trkpt>
      <trkpt lat="37.1849010" lon="-2.7413040">
        <ele>1139.0</ele>
        <time>2020-07-13T09:07:33Z</time>
      </trkpt>
      <trkpt lat="37.1849050" lon="-2.7412690">
        <ele>1139.2</ele>
        <time>2020-07-13T09:07:34Z</time>
      </trkpt>
      <trkpt lat="37.1849510" lon="-2.7410930">
        <ele>1140.2</ele>
        <time>2020-07-13T09:07:39Z</time>
      </trkpt>
      <trkpt lat="37.1849760" lon="-2.7410340">
        <ele>1140.4</ele>
        <time>2020-07-13T09:07:41Z</time>
      </trkpt>
      <trkpt lat="37.1850390" lon="-2.7409150">
        <ele>1141.2</ele>
        <time>2020-07-13T09:07:45Z</time>
      </trkpt>
      <trkpt lat="37.1851260" lon="-2.7407820">
        <ele>1142.4</ele>
        <time>2020-07-13T09:07:50Z</time>
      </trkpt>
      <trkpt lat="37.1852340" lon="-2.7406200">
        <ele>1143.6</ele>
        <time>2020-07-13T09:07:56Z</time>
      </trkpt>
      <trkpt lat="37.1853210" lon="-2.7404840">
        <ele>1144.8</ele>
        <time>2020-07-13T09:08:01Z</time>
      </trkpt>
      <trkpt lat="37.1854500" lon="-2.7402960">
        <ele>1145.8</ele>
        <time>2020-07-13T09:08:08Z</time>
      </trkpt>
      <trkpt lat="37.1855380" lon="-2.7401590">
        <ele>1147.0</ele>
        <time>2020-07-13T09:08:13Z</time>
      </trkpt>
      <trkpt lat="37.1856260" lon="-2.7400270">
        <ele>1148.2</ele>
        <time>2020-07-13T09:08:18Z</time>
      </trkpt>
      <trkpt lat="37.1856420" lon="-2.7399990">
        <ele>1148.4</ele>
        <time>2020-07-13T09:08:19Z</time>
      </trkpt>
      <trkpt lat="37.1857070" lon="-2.7398830">
        <ele>1149.2</ele>
        <time>2020-07-13T09:08:23Z</time>
      </trkpt>
      <trkpt lat="37.1857960" lon="-2.7397070">
        <ele>1150.2</ele>
        <time>2020-07-13T09:08:29Z</time>
      </trkpt>
      <trkpt lat="37.1858300" lon="-2.7394750">
        <ele>1151.4</ele>
        <time>2020-07-13T09:08:36Z</time>
      </trkpt>
      <trkpt lat="37.1858250" lon="-2.7394400">
        <ele>1151.6</ele>
        <time>2020-07-13T09:08:37Z</time>
      </trkpt>
      <trkpt lat="37.1857830" lon="-2.7392910">
        <ele>1152.6</ele>
        <time>2020-07-13T09:08:42Z</time>
      </trkpt>
      <trkpt lat="37.1857530" lon="-2.7392090">
        <ele>1153.2</ele>
        <time>2020-07-13T09:08:45Z</time>
      </trkpt>
      <trkpt lat="37.1857350" lon="-2.7391590">
        <ele>1154.0</ele>
        <time>2020-07-13T09:08:47Z</time>
      </trkpt>
      <trkpt lat="37.1856930" lon="-2.7390550">
        <ele>1155.0</ele>
        <time>2020-07-13T09:08:51Z</time>
      </trkpt>
      <trkpt lat="37.1856300" lon="-2.7389120">
        <ele>1155.8</ele>
        <time>2020-07-13T09:08:56Z</time>
      </trkpt>
      <trkpt lat="37.1856170" lon="-2.7388810">
        <ele>1156.0</ele>
        <time>2020-07-13T09:08:57Z</time>
      </trkpt>
      <trkpt lat="37.1855630" lon="-2.7387340">
        <ele>1157.0</ele>
        <time>2020-07-13T09:09:02Z</time>
      </trkpt>
      <trkpt lat="37.1855360" lon="-2.7386090">
        <ele>1158.2</ele>
        <time>2020-07-13T09:09:06Z</time>
      </trkpt>
      <trkpt lat="37.1855520" lon="-2.7383540">
        <ele>1159.2</ele>
        <time>2020-07-13T09:09:14Z</time>
      </trkpt>
      <trkpt lat="37.1856460" lon="-2.7381930">
        <ele>1160.2</ele>
        <time>2020-07-13T09:09:20Z</time>
      </trkpt>
      <trkpt lat="37.1856860" lon="-2.7381470">
        <ele>1160.8</ele>
        <time>2020-07-13T09:09:22Z</time>
      </trkpt>
      <trkpt lat="37.1857700" lon="-2.7380630">
        <ele>1161.4</ele>
        <time>2020-07-13T09:09:26Z</time>
      </trkpt>
      <trkpt lat="37.1858840" lon="-2.7379700">
        <ele>1162.2</ele>
        <time>2020-07-13T09:09:31Z</time>
      </trkpt>
      <trkpt lat="37.1859100" lon="-2.7379550">
        <ele>1162.4</ele>
        <time>2020-07-13T09:09:32Z</time>
      </trkpt>
      <trkpt lat="37.1860620" lon="-2.7378350">
        <ele>1163.2</ele>
        <time>2020-07-13T09:09:39Z</time>
      </trkpt>
      <trkpt lat="37.1860840" lon="-2.7378200">
        <ele>1163.4</ele>
        <time>2020-07-13T09:09:40Z</time>
      </trkpt>
      <trkpt lat="37.1861880" lon="-2.7377450">
        <ele>1164.6</ele>
        <time>2020-07-13T09:09:45Z</time>
      </trkpt>
      <trkpt lat="37.1862520" lon="-2.7377060">
        <ele>1165.2</ele>
        <time>2020-07-13T09:09:48Z</time>
      </trkpt>
      <trkpt lat="37.1863140" lon="-2.7376580">
        <ele>1165.8</ele>
        <time>2020-07-13T09:09:51Z</time>
      </trkpt>
      <trkpt lat="37.1864350" lon="-2.7375770">
        <ele>1166.6</ele>
        <time>2020-07-13T09:09:56Z</time>
      </trkpt>
      <trkpt lat="37.1865100" lon="-2.7375330">
        <ele>1167.0</ele>
        <time>2020-07-13T09:09:59Z</time>
      </trkpt>
      <trkpt lat="37.1866310" lon="-2.7374600">
        <ele>1168.0</ele>
        <time>2020-07-13T09:10:04Z</time>
      </trkpt>
      <trkpt lat="37.1866790" lon="-2.7374350">
        <ele>1168.4</ele>
        <time>2020-07-13T09:10:06Z</time>
      </trkpt>
      <trkpt lat="37.1867820" lon="-2.7373950">
        <ele>1169.2</ele>
        <time>2020-07-13T09:10:10Z</time>
      </trkpt>
      <trkpt lat="37.1869340" lon="-2.7373560">
        <ele>1170.2</ele>
        <time>2020-07-13T09:10:16Z</time>
      </trkpt>
      <trkpt lat="37.1871470" lon="-2.7373090">
        <ele>1171.2</ele>
        <time>2020-07-13T09:10:24Z</time>
      </trkpt>
      <trkpt lat="37.1872270" lon="-2.7372970">
        <ele>1172.0</ele>
        <time>2020-07-13T09:10:27Z</time>
      </trkpt>
      <trkpt lat="37.1872550" lon="-2.7372910">
        <ele>1172.2</ele>
        <time>2020-07-13T09:10:28Z</time>
      </trkpt>
      <trkpt lat="37.1874220" lon="-2.7372450">
        <ele>1173.6</ele>
        <time>2020-07-13T09:10:34Z</time>
      </trkpt>
      <trkpt lat="37.1874480" lon="-2.7372350">
        <ele>1173.8</ele>
        <time>2020-07-13T09:10:35Z</time>
      </trkpt>
      <trkpt lat="37.1875910" lon="-2.7371790">
        <ele>1174.6</ele>
        <time>2020-07-13T09:10:40Z</time>
      </trkpt>
      <trkpt lat="37.1877540" lon="-2.7370990">
        <ele>1175.4</ele>
        <time>2020-07-13T09:10:46Z</time>
      </trkpt>
      <trkpt lat="37.1877820" lon="-2.7370850">
        <ele>1175.6</ele>
        <time>2020-07-13T09:10:47Z</time>
      </trkpt>
      <trkpt lat="37.1879260" lon="-2.7370110">
        <ele>1176.6</ele>
        <time>2020-07-13T09:10:52Z</time>
      </trkpt>
      <trkpt lat="37.1881210" lon="-2.7369010">
        <ele>1177.8</ele>
        <time>2020-07-13T09:10:59Z</time>
      </trkpt>
      <trkpt lat="37.1882920" lon="-2.7367510">
        <ele>1178.8</ele>
        <time>2020-07-13T09:11:06Z</time>
      </trkpt>
      <trkpt lat="37.1883400" lon="-2.7367010">
        <ele>1179.2</ele>
        <time>2020-07-13T09:11:08Z</time>
      </trkpt>
      <trkpt lat="37.1884300" lon="-2.7366020">
        <ele>1180.0</ele>
        <time>2020-07-13T09:11:12Z</time>
      </trkpt>
      <trkpt lat="37.1885560" lon="-2.7364540">
        <ele>1181.0</ele>
        <time>2020-07-13T09:11:18Z</time>
      </trkpt>
      <trkpt lat="37.1885780" lon="-2.7364320">
        <ele>1181.2</ele>
        <time>2020-07-13T09:11:19Z</time>
      </trkpt>
      <trkpt lat="37.1886920" lon="-2.7362980">
        <ele>1182.2</ele>
        <time>2020-07-13T09:11:25Z</time>
      </trkpt>
      <trkpt lat="37.1887300" lon="-2.7362590">
        <ele>1182.4</ele>
        <time>2020-07-13T09:11:27Z</time>
      </trkpt>
      <trkpt lat="37.1888070" lon="-2.7361810">
        <ele>1183.4</ele>
        <time>2020-07-13T09:11:31Z</time>
      </trkpt>
      <trkpt lat="37.1889160" lon="-2.7360730">
        <ele>1184.4</ele>
        <time>2020-07-13T09:11:36Z</time>
      </trkpt>
      <trkpt lat="37.1889430" lon="-2.7360510">
        <ele>1184.4</ele>
        <time>2020-07-13T09:11:37Z</time>
      </trkpt>
      <trkpt lat="37.1890680" lon="-2.7359580">
        <ele>1185.4</ele>
        <time>2020-07-13T09:11:42Z</time>
      </trkpt>
      <trkpt lat="37.1892260" lon="-2.7358700">
        <ele>1186.2</ele>
        <time>2020-07-13T09:11:48Z</time>
      </trkpt>
      <trkpt lat="37.1892530" lon="-2.7358570">
        <ele>1186.4</ele>
        <time>2020-07-13T09:11:49Z</time>
      </trkpt>
      <trkpt lat="37.1894120" lon="-2.7357800">
        <ele>1187.6</ele>
        <time>2020-07-13T09:11:55Z</time>
      </trkpt>
      <trkpt lat="37.1895360" lon="-2.7357020">
        <ele>1188.4</ele>
        <time>2020-07-13T09:12:00Z</time>
      </trkpt>
      <trkpt lat="37.1895850" lon="-2.7356700">
        <ele>1188.8</ele>
        <time>2020-07-13T09:12:02Z</time>
      </trkpt>
      <trkpt lat="37.1897140" lon="-2.7356000">
        <ele>1189.8</ele>
        <time>2020-07-13T09:12:07Z</time>
      </trkpt>
      <trkpt lat="37.1898460" lon="-2.7355280">
        <ele>1190.4</ele>
        <time>2020-07-13T09:12:12Z</time>
      </trkpt>
      <trkpt lat="37.1899000" lon="-2.7355000">
        <ele>1191.0</ele>
        <time>2020-07-13T09:12:14Z</time>
      </trkpt>
      <trkpt lat="37.1900270" lon="-2.7354340">
        <ele>1192.0</ele>
        <time>2020-07-13T09:12:19Z</time>
      </trkpt>
      <trkpt lat="37.1900770" lon="-2.7354070">
        <ele>1192.4</ele>
        <time>2020-07-13T09:12:21Z</time>
      </trkpt>
      <trkpt lat="37.1901900" lon="-2.7353610">
        <ele>1193.0</ele>
        <time>2020-07-13T09:12:25Z</time>
      </trkpt>
      <trkpt lat="37.1903090" lon="-2.7353460">
        <ele>1193.6</ele>
        <time>2020-07-13T09:12:29Z</time>
      </trkpt>
      <trkpt lat="37.1904810" lon="-2.7353890">
        <ele>1194.2</ele>
        <time>2020-07-13T09:12:35Z</time>
      </trkpt>
      <trkpt lat="37.1905330" lon="-2.7354070">
        <ele>1194.4</ele>
        <time>2020-07-13T09:12:37Z</time>
      </trkpt>
      <trkpt lat="37.1906960" lon="-2.7354780">
        <ele>1195.2</ele>
        <time>2020-07-13T09:12:42Z</time>
      </trkpt>
      <trkpt lat="37.1907930" lon="-2.7355000">
        <ele>1195.6</ele>
        <time>2020-07-13T09:12:45Z</time>
      </trkpt>
      <trkpt lat="37.1909590" lon="-2.7354900">
        <ele>1196.4</ele>
        <time>2020-07-13T09:12:50Z</time>
      </trkpt>
      <trkpt lat="37.1910200" lon="-2.7354640">
        <ele>1196.6</ele>
        <time>2020-07-13T09:12:52Z</time>
      </trkpt>
      <trkpt lat="37.1911920" lon="-2.7353480">
        <ele>1197.4</ele>
        <time>2020-07-13T09:12:58Z</time>
      </trkpt>
      <trkpt lat="37.1912420" lon="-2.7353030">
        <ele>1198.0</ele>
        <time>2020-07-13T09:13:00Z</time>
      </trkpt>
      <trkpt lat="37.1912900" lon="-2.7352580">
        <ele>1198.6</ele>
        <time>2020-07-13T09:13:02Z</time>
      </trkpt>
      <trkpt lat="37.1913540" lon="-2.7351670">
        <ele>1199.2</ele>
        <time>2020-07-13T09:13:05Z</time>
      </trkpt>
      <trkpt lat="37.1914040" lon="-2.7350610">
        <ele>1199.8</ele>
        <time>2020-07-13T09:13:08Z</time>
      </trkpt>
      <trkpt lat="37.1914470" lon="-2.7349010">
        <ele>1200.6</ele>
        <time>2020-07-13T09:13:12Z</time>
      </trkpt>
      <trkpt lat="37.1914670" lon="-2.7347690">
        <ele>1201.0</ele>
        <time>2020-07-13T09:13:15Z</time>
      </trkpt>
      <trkpt lat="37.1914950" lon="-2.7345590">
        <ele>1201.8</ele>
        <time>2020-07-13T09:13:20Z</time>
      </trkpt>
      <trkpt lat="37.1915000" lon="-2.7345190">
        <ele>1202.0</ele>
        <time>2020-07-13T09:13:21Z</time>
      </trkpt>
      <trkpt lat="37.1915200" lon="-2.7343150">
        <ele>1203.2</ele>
        <time>2020-07-13T09:13:26Z</time>
      </trkpt>
      <trkpt lat="37.1915540" lon="-2.7340130">
        <ele>1204.0</ele>
        <time>2020-07-13T09:13:33Z</time>
      </trkpt>
      <trkpt lat="37.1915630" lon="-2.7339240">
        <ele>1204.2</ele>
        <time>2020-07-13T09:13:35Z</time>
      </trkpt>
      <trkpt lat="37.1915610" lon="-2.7336900">
        <ele>1204.8</ele>
        <time>2020-07-13T09:13:40Z</time>
      </trkpt>
      <trkpt lat="37.1915020" lon="-2.7335780">
        <ele>1205.4</ele>
        <time>2020-07-13T09:13:43Z</time>
      </trkpt>
      <trkpt lat="37.1914490" lon="-2.7335180">
        <ele>1205.8</ele>
        <time>2020-07-13T09:13:45Z</time>
      </trkpt>
      <trkpt lat="37.1913660" lon="-2.7334430">
        <ele>1206.4</ele>
        <time>2020-07-13T09:13:48Z</time>
      </trkpt>
      <trkpt lat="37.1912250" lon="-2.7333400">
        <ele>1207.6</ele>
        <time>2020-07-13T09:13:53Z</time>
      </trkpt>
      <trkpt lat="37.1911950" lon="-2.7333200">
        <ele>1207.8</ele>
        <time>2020-07-13T09:13:54Z</time>
      </trkpt>
      <trkpt lat="37.1910810" lon="-2.7332430">
        <ele>1208.6</ele>
        <time>2020-07-13T09:13:58Z</time>
      </trkpt>
      <trkpt lat="37.1909400" lon="-2.7331590">
        <ele>1209.6</ele>
        <time>2020-07-13T09:14:03Z</time>
      </trkpt>
      <trkpt lat="37.1909120" lon="-2.7331440">
        <ele>1209.8</ele>
        <time>2020-07-13T09:14:04Z</time>
      </trkpt>
      <trkpt lat="37.1907750" lon="-2.7330730">
        <ele>1210.8</ele>
        <time>2020-07-13T09:14:09Z</time>
      </trkpt>
      <trkpt lat="37.1906690" lon="-2.7330190">
        <ele>1211.8</ele>
        <time>2020-07-13T09:14:13Z</time>
      </trkpt>
      <trkpt lat="37.1906420" lon="-2.7330050">
        <ele>1212.0</ele>
        <time>2020-07-13T09:14:14Z</time>
      </trkpt>
      <trkpt lat="37.1906170" lon="-2.7329920">
        <ele>1212.2</ele>
        <time>2020-07-13T09:14:15Z</time>
      </trkpt>
      <trkpt lat="37.1904790" lon="-2.7329190">
        <ele>1213.0</ele>
        <time>2020-07-13T09:14:20Z</time>
      </trkpt>
      <trkpt lat="37.1904230" lon="-2.7328920">
        <ele>1213.4</ele>
        <time>2020-07-13T09:14:22Z</time>
      </trkpt>
      <trkpt lat="37.1902850" lon="-2.7328290">
        <ele>1214.2</ele>
        <time>2020-07-13T09:14:27Z</time>
      </trkpt>
      <trkpt lat="37.1902320" lon="-2.7328010">
        <ele>1214.6</ele>
        <time>2020-07-13T09:14:29Z</time>
      </trkpt>
      <trkpt lat="37.1901510" lon="-2.7327590">
        <ele>1215.2</ele>
        <time>2020-07-13T09:14:32Z</time>
      </trkpt>
      <trkpt lat="37.1900160" lon="-2.7326920">
        <ele>1216.4</ele>
        <time>2020-07-13T09:14:37Z</time>
      </trkpt>
      <trkpt lat="37.1899370" lon="-2.7326480">
        <ele>1216.8</ele>
        <time>2020-07-13T09:14:40Z</time>
      </trkpt>
      <trkpt lat="37.1898300" lon="-2.7325870">
        <ele>1217.4</ele>
        <time>2020-07-13T09:14:44Z</time>
      </trkpt>
      <trkpt lat="37.1896670" lon="-2.7324650">
        <ele>1218.4</ele>
        <time>2020-07-13T09:14:50Z</time>
      </trkpt>
      <trkpt lat="37.1896430" lon="-2.7324440">
        <ele>1218.6</ele>
        <time>2020-07-13T09:14:51Z</time>
      </trkpt>
      <trkpt lat="37.1895490" lon="-2.7323370">
        <ele>1219.2</ele>
        <time>2020-07-13T09:14:55Z</time>
      </trkpt>
      <trkpt lat="37.1895300" lon="-2.7323110">
        <ele>1219.4</ele>
        <time>2020-07-13T09:14:56Z</time>
      </trkpt>
      <trkpt lat="37.1895100" lon="-2.7322800">
        <ele>1219.6</ele>
        <time>2020-07-13T09:14:57Z</time>
      </trkpt>
      <trkpt lat="37.1894900" lon="-2.7322500">
        <ele>1219.8</ele>
        <time>2020-07-13T09:14:58Z</time>
      </trkpt>
      <trkpt lat="37.1894280" lon="-2.7321240">
        <ele>1220.6</ele>
        <time>2020-07-13T09:15:02Z</time>
      </trkpt>
      <trkpt lat="37.1893920" lon="-2.7319840">
        <ele>1221.4</ele>
        <time>2020-07-13T09:15:06Z</time>
      </trkpt>
      <trkpt lat="37.1893780" lon="-2.7319100">
        <ele>1221.8</ele>
        <time>2020-07-13T09:15:08Z</time>
      </trkpt>
      <trkpt lat="37.1893770" lon="-2.7317360">
        <ele>1222.8</ele>
        <time>2020-07-13T09:15:13Z</time>
      </trkpt>
      <trkpt lat="37.1893820" lon="-2.7317010">
        <ele>1223.2</ele>
        <time>2020-07-13T09:15:14Z</time>
      </trkpt>
      <trkpt lat="37.1894070" lon="-2.7316130">
        <ele>1224.0</ele>
        <time>2020-07-13T09:15:17Z</time>
      </trkpt>
      <trkpt lat="37.1894650" lon="-2.7314990">
        <ele>1224.8</ele>
        <time>2020-07-13T09:15:21Z</time>
      </trkpt>
      <trkpt lat="37.1894840" lon="-2.7314720">
        <ele>1225.2</ele>
        <time>2020-07-13T09:15:22Z</time>
      </trkpt>
      <trkpt lat="37.1896400" lon="-2.7312970">
        <ele>1226.4</ele>
        <time>2020-07-13T09:15:29Z</time>
      </trkpt>
      <trkpt lat="37.1897760" lon="-2.7312340">
        <ele>1227.4</ele>
        <time>2020-07-13T09:15:34Z</time>
      </trkpt>
      <trkpt lat="37.1898840" lon="-2.7312020">
        <ele>1228.2</ele>
        <time>2020-07-13T09:15:38Z</time>
      </trkpt>
      <trkpt lat="37.1899390" lon="-2.7311970">
        <ele>1228.8</ele>
        <time>2020-07-13T09:15:40Z</time>
      </trkpt>
      <trkpt lat="37.1900500" lon="-2.7311960">
        <ele>1229.6</ele>
        <time>2020-07-13T09:15:44Z</time>
      </trkpt>
      <trkpt lat="37.1900780" lon="-2.7311990">
        <ele>1229.8</ele>
        <time>2020-07-13T09:15:45Z</time>
      </trkpt>
      <trkpt lat="37.1902420" lon="-2.7312430">
        <ele>1231.0</ele>
        <time>2020-07-13T09:15:51Z</time>
      </trkpt>
      <trkpt lat="37.1902700" lon="-2.7312520">
        <ele>1231.2</ele>
        <time>2020-07-13T09:15:52Z</time>
      </trkpt>
      <trkpt lat="37.1904280" lon="-2.7312990">
        <ele>1232.0</ele>
        <time>2020-07-13T09:15:58Z</time>
      </trkpt>
      <trkpt lat="37.1905300" lon="-2.7313350">
        <ele>1233.2</ele>
        <time>2020-07-13T09:16:02Z</time>
      </trkpt>
      <trkpt lat="37.1905570" lon="-2.7313480">
        <ele>1233.4</ele>
        <time>2020-07-13T09:16:03Z</time>
      </trkpt>
      <trkpt lat="37.1906570" lon="-2.7314000">
        <ele>1234.2</ele>
        <time>2020-07-13T09:16:07Z</time>
      </trkpt>
      <trkpt lat="37.1907940" lon="-2.7315070">
        <ele>1235.2</ele>
        <time>2020-07-13T09:16:13Z</time>
      </trkpt>
      <trkpt lat="37.1908170" lon="-2.7315260">
        <ele>1235.4</ele>
        <time>2020-07-13T09:16:14Z</time>
      </trkpt>
      <trkpt lat="37.1909730" lon="-2.7316530">
        <ele>1236.4</ele>
        <time>2020-07-13T09:16:21Z</time>
      </trkpt>
      <trkpt lat="37.1910620" lon="-2.7317330">
        <ele>1237.6</ele>
        <time>2020-07-13T09:16:25Z</time>
      </trkpt>
      <trkpt lat="37.1911680" lon="-2.7318270">
        <ele>1238.6</ele>
        <time>2020-07-13T09:16:30Z</time>
      </trkpt>
      <trkpt lat="37.1911880" lon="-2.7318450">
        <ele>1238.6</ele>
        <time>2020-07-13T09:16:31Z</time>
      </trkpt>
      <trkpt lat="37.1913150" lon="-2.7319500">
        <ele>1239.8</ele>
        <time>2020-07-13T09:16:37Z</time>
      </trkpt>
      <trkpt lat="37.1914190" lon="-2.7320230">
        <ele>1240.6</ele>
        <time>2020-07-13T09:16:42Z</time>
      </trkpt>
      <trkpt lat="37.1914680" lon="-2.7320310">
        <ele>1240.8</ele>
        <time>2020-07-13T09:16:44Z</time>
      </trkpt>
      <trkpt lat="37.1915850" lon="-2.7320200">
        <ele>1242.0</ele>
        <time>2020-07-13T09:16:49Z</time>
      </trkpt>
      <trkpt lat="37.1916920" lon="-2.7319700">
        <ele>1243.2</ele>
        <time>2020-07-13T09:16:54Z</time>
      </trkpt>
      <trkpt lat="37.1917740" lon="-2.7319120">
        <ele>1244.0</ele>
        <time>2020-07-13T09:16:58Z</time>
      </trkpt>
      <trkpt lat="37.1917930" lon="-2.7318980">
        <ele>1244.2</ele>
        <time>2020-07-13T09:16:59Z</time>
      </trkpt>
      <trkpt lat="37.1919140" lon="-2.7317980">
        <ele>1245.4</ele>
        <time>2020-07-13T09:17:05Z</time>
      </trkpt>
      <trkpt lat="37.1919830" lon="-2.7317450">
        <ele>1246.4</ele>
        <time>2020-07-13T09:17:08Z</time>
      </trkpt>
      <trkpt lat="37.1920070" lon="-2.7317300">
        <ele>1246.6</ele>
        <time>2020-07-13T09:17:09Z</time>
      </trkpt>
      <trkpt lat="37.1921170" lon="-2.7316450">
        <ele>1247.8</ele>
        <time>2020-07-13T09:17:14Z</time>
      </trkpt>
      <trkpt lat="37.1922030" lon="-2.7315680">
        <ele>1248.6</ele>
        <time>2020-07-13T09:17:18Z</time>
      </trkpt>
      <trkpt lat="37.1922250" lon="-2.7315480">
        <ele>1248.8</ele>
        <time>2020-07-13T09:17:19Z</time>
      </trkpt>
      <trkpt lat="37.1923590" lon="-2.7313930">
        <ele>1249.8</ele>
        <time>2020-07-13T09:17:26Z</time>
      </trkpt>
      <trkpt lat="37.1923760" lon="-2.7313670">
        <ele>1250.2</ele>
        <time>2020-07-13T09:17:27Z</time>
      </trkpt>
      <trkpt lat="37.1924420" lon="-2.7312180">
        <ele>1251.4</ele>
        <time>2020-07-13T09:17:32Z</time>
      </trkpt>
      <trkpt lat="37.1924800" lon="-2.7311330">
        <ele>1252.2</ele>
        <time>2020-07-13T09:17:35Z</time>
      </trkpt>
      <trkpt lat="37.1925090" lon="-2.7310760">
        <ele>1252.4</ele>
        <time>2020-07-13T09:17:37Z</time>
      </trkpt>
      <trkpt lat="37.1926110" lon="-2.7308680">
        <ele>1253.6</ele>
        <time>2020-07-13T09:17:44Z</time>
      </trkpt>
      <trkpt lat="37.1926390" lon="-2.7308100">
        <ele>1253.8</ele>
        <time>2020-07-13T09:17:46Z</time>
      </trkpt>
      <trkpt lat="37.1927110" lon="-2.7306610">
        <ele>1254.8</ele>
        <time>2020-07-13T09:17:51Z</time>
      </trkpt>
      <trkpt lat="37.1927750" lon="-2.7305090">
        <ele>1255.8</ele>
        <time>2020-07-13T09:17:56Z</time>
      </trkpt>
      <trkpt lat="37.1927880" lon="-2.7304760">
        <ele>1256.0</ele>
        <time>2020-07-13T09:17:57Z</time>
      </trkpt>
      <trkpt lat="37.1928590" lon="-2.7303280">
        <ele>1257.0</ele>
        <time>2020-07-13T09:18:02Z</time>
      </trkpt>
      <trkpt lat="37.1929380" lon="-2.7301500">
        <ele>1257.8</ele>
        <time>2020-07-13T09:18:08Z</time>
      </trkpt>
      <trkpt lat="37.1929650" lon="-2.7300920">
        <ele>1258.0</ele>
        <time>2020-07-13T09:18:10Z</time>
      </trkpt>
      <trkpt lat="37.1930310" lon="-2.7299460">
        <ele>1259.2</ele>
        <time>2020-07-13T09:18:15Z</time>
      </trkpt>
      <trkpt lat="37.1930720" lon="-2.7298570">
        <ele>1259.8</ele>
        <time>2020-07-13T09:18:18Z</time>
      </trkpt>
      <trkpt lat="37.1930990" lon="-2.7298010">
        <ele>1260.2</ele>
        <time>2020-07-13T09:18:20Z</time>
      </trkpt>
      <trkpt lat="37.1931840" lon="-2.7295920">
        <ele>1261.4</ele>
        <time>2020-07-13T09:18:27Z</time>
      </trkpt>
      <trkpt lat="37.1932090" lon="-2.7295330">
        <ele>1261.8</ele>
        <time>2020-07-13T09:18:29Z</time>
      </trkpt>
      <trkpt lat="37.1932760" lon="-2.7293810">
        <ele>1262.6</ele>
        <time>2020-07-13T09:18:34Z</time>
      </trkpt>
      <trkpt lat="37.1933320" lon="-2.7292590">
        <ele>1263.4</ele>
        <time>2020-07-13T09:18:38Z</time>
      </trkpt>
      <trkpt lat="37.1933450" lon="-2.7292290">
        <ele>1263.6</ele>
        <time>2020-07-13T09:18:39Z</time>
      </trkpt>
      <trkpt lat="37.1934190" lon="-2.7290620">
        <ele>1264.6</ele>
        <time>2020-07-13T09:18:44Z</time>
      </trkpt>
      <trkpt lat="37.1934590" lon="-2.7289640">
        <ele>1265.2</ele>
        <time>2020-07-13T09:18:47Z</time>
      </trkpt>
      <trkpt lat="37.1935200" lon="-2.7288770">
        <ele>1265.8</ele>
        <time>2020-07-13T09:18:50Z</time>
      </trkpt>
      <trkpt lat="37.1935910" lon="-2.7288120">
        <ele>1266.2</ele>
        <time>2020-07-13T09:18:53Z</time>
      </trkpt>
      <trkpt lat="37.1936660" lon="-2.7287500">
        <ele>1266.8</ele>
        <time>2020-07-13T09:18:56Z</time>
      </trkpt>
      <trkpt lat="37.1937860" lon="-2.7286570">
        <ele>1268.0</ele>
        <time>2020-07-13T09:19:01Z</time>
      </trkpt>
      <trkpt lat="37.1938830" lon="-2.7285890">
        <ele>1268.8</ele>
        <time>2020-07-13T09:19:05Z</time>
      </trkpt>
      <trkpt lat="37.1939060" lon="-2.7285690">
        <ele>1269.0</ele>
        <time>2020-07-13T09:19:06Z</time>
      </trkpt>
      <trkpt lat="37.1940720" lon="-2.7284390">
        <ele>1270.0</ele>
        <time>2020-07-13T09:19:13Z</time>
      </trkpt>
      <trkpt lat="37.1940960" lon="-2.7284220">
        <ele>1270.2</ele>
        <time>2020-07-13T09:19:14Z</time>
      </trkpt>
      <trkpt lat="37.1941900" lon="-2.7283560">
        <ele>1271.2</ele>
        <time>2020-07-13T09:19:18Z</time>
      </trkpt>
      <trkpt lat="37.1943170" lon="-2.7282950">
        <ele>1272.2</ele>
        <time>2020-07-13T09:19:23Z</time>
      </trkpt>
      <trkpt lat="37.1943450" lon="-2.7282860">
        <ele>1272.4</ele>
        <time>2020-07-13T09:19:24Z</time>
      </trkpt>
      <trkpt lat="37.1944480" lon="-2.7282530">
        <ele>1273.4</ele>
        <time>2020-07-13T09:19:28Z</time>
      </trkpt>
      <trkpt lat="37.1946050" lon="-2.7282190">
        <ele>1274.4</ele>
        <time>2020-07-13T09:19:34Z</time>
      </trkpt>
      <trkpt lat="37.1946310" lon="-2.7282150">
        <ele>1274.4</ele>
        <time>2020-07-13T09:19:35Z</time>
      </trkpt>
      <trkpt lat="37.1947910" lon="-2.7281920">
        <ele>1275.4</ele>
        <time>2020-07-13T09:19:41Z</time>
      </trkpt>
      <trkpt lat="37.1949140" lon="-2.7281640">
        <ele>1276.4</ele>
        <time>2020-07-13T09:19:46Z</time>
      </trkpt>
      <trkpt lat="37.1950620" lon="-2.7281240">
        <ele>1277.4</ele>
        <time>2020-07-13T09:19:51Z</time>
      </trkpt>
      <trkpt lat="37.1951350" lon="-2.7280830">
        <ele>1278.2</ele>
        <time>2020-07-13T09:19:54Z</time>
      </trkpt>
      <trkpt lat="37.1952270" lon="-2.7280020">
        <ele>1278.6</ele>
        <time>2020-07-13T09:19:58Z</time>
      </trkpt>
      <trkpt lat="37.1953220" lon="-2.7279010">
        <ele>1279.0</ele>
        <time>2020-07-13T09:20:02Z</time>
      </trkpt>
      <trkpt lat="37.1953670" lon="-2.7278480">
        <ele>1279.6</ele>
        <time>2020-07-13T09:20:04Z</time>
      </trkpt>
      <trkpt lat="37.1954630" lon="-2.7277390">
        <ele>1280.6</ele>
        <time>2020-07-13T09:20:08Z</time>
      </trkpt>
      <trkpt lat="37.1955670" lon="-2.7276280">
        <ele>1281.2</ele>
        <time>2020-07-13T09:20:12Z</time>
      </trkpt>
      <trkpt lat="37.1956700" lon="-2.7275090">
        <ele>1281.8</ele>
        <time>2020-07-13T09:20:16Z</time>
      </trkpt>
      <trkpt lat="37.1958960" lon="-2.7272700">
        <ele>1282.6</ele>
        <time>2020-07-13T09:20:24Z</time>
      </trkpt>
      <trkpt lat="37.1959270" lon="-2.7272410">
        <ele>1282.8</ele>
        <time>2020-07-13T09:20:25Z</time>
      </trkpt>
      <trkpt lat="37.1961700" lon="-2.7270860">
        <ele>1283.8</ele>
        <time>2020-07-13T09:20:32Z</time>
      </trkpt>
      <trkpt lat="37.1962500" lon="-2.7270650">
        <ele>1284.0</ele>
        <time>2020-07-13T09:20:34Z</time>
      </trkpt>
      <trkpt lat="37.1964090" lon="-2.7270470">
        <ele>1284.6</ele>
        <time>2020-07-13T09:20:38Z</time>
      </trkpt>
      <trkpt lat="37.1965270" lon="-2.7270490">
        <ele>1285.0</ele>
        <time>2020-07-13T09:20:41Z</time>
      </trkpt>
      <trkpt lat="37.1967050" lon="-2.7270940">
        <ele>1285.6</ele>
        <time>2020-07-13T09:20:46Z</time>
      </trkpt>
      <trkpt lat="37.1967710" lon="-2.7271260">
        <ele>1286.0</ele>
        <time>2020-07-13T09:20:48Z</time>
      </trkpt>
      <trkpt lat="37.1968860" lon="-2.7272040">
        <ele>1287.2</ele>
        <time>2020-07-13T09:20:52Z</time>
      </trkpt>
      <trkpt lat="37.1969100" lon="-2.7272260">
        <ele>1287.4</ele>
        <time>2020-07-13T09:20:53Z</time>
      </trkpt>
      <trkpt lat="37.1969880" lon="-2.7272950">
        <ele>1288.4</ele>
        <time>2020-07-13T09:20:56Z</time>
      </trkpt>
      <trkpt lat="37.1971290" lon="-2.7274530">
        <ele>1289.4</ele>
        <time>2020-07-13T09:21:02Z</time>
      </trkpt>
      <trkpt lat="37.1972280" lon="-2.7275740">
        <ele>1290.4</ele>
        <time>2020-07-13T09:21:07Z</time>
      </trkpt>
      <trkpt lat="37.1973060" lon="-2.7277120">
        <ele>1291.4</ele>
        <time>2020-07-13T09:21:11Z</time>
      </trkpt>
      <trkpt lat="37.1973240" lon="-2.7277470">
        <ele>1291.8</ele>
        <time>2020-07-13T09:21:12Z</time>
      </trkpt>
      <trkpt lat="37.1973840" lon="-2.7278700">
        <ele>1292.8</ele>
        <time>2020-07-13T09:21:16Z</time>
      </trkpt>
      <trkpt lat="37.1974570" lon="-2.7280470">
        <ele>1293.8</ele>
        <time>2020-07-13T09:21:21Z</time>
      </trkpt>
      <trkpt lat="37.1974760" lon="-2.7280850">
        <ele>1294.0</ele>
        <time>2020-07-13T09:21:22Z</time>
      </trkpt>
      <trkpt lat="37.1975760" lon="-2.7282960">
        <ele>1294.8</ele>
        <time>2020-07-13T09:21:28Z</time>
      </trkpt>
      <trkpt lat="37.1976170" lon="-2.7283560">
        <ele>1295.2</ele>
        <time>2020-07-13T09:21:30Z</time>
      </trkpt>
      <trkpt lat="37.1976880" lon="-2.7284300">
        <ele>1295.8</ele>
        <time>2020-07-13T09:21:33Z</time>
      </trkpt>
      <trkpt lat="37.1977950" lon="-2.7285040">
        <ele>1296.8</ele>
        <time>2020-07-13T09:21:37Z</time>
      </trkpt>
      <trkpt lat="37.1978220" lon="-2.7285200">
        <ele>1297.0</ele>
        <time>2020-07-13T09:21:38Z</time>
      </trkpt>
      <trkpt lat="37.1979590" lon="-2.7285900">
        <ele>1298.0</ele>
        <time>2020-07-13T09:21:43Z</time>
      </trkpt>
      <trkpt lat="37.1980890" lon="-2.7286600">
        <ele>1299.0</ele>
        <time>2020-07-13T09:21:48Z</time>
      </trkpt>
      <trkpt lat="37.1981150" lon="-2.7286730">
        <ele>1299.2</ele>
        <time>2020-07-13T09:21:49Z</time>
      </trkpt>
      <trkpt lat="37.1982450" lon="-2.7287390">
        <ele>1300.2</ele>
        <time>2020-07-13T09:21:54Z</time>
      </trkpt>
      <trkpt lat="37.1983750" lon="-2.7287990">
        <ele>1301.4</ele>
        <time>2020-07-13T09:21:59Z</time>
      </trkpt>
      <trkpt lat="37.1984020" lon="-2.7288110">
        <ele>1301.6</ele>
        <time>2020-07-13T09:22:00Z</time>
      </trkpt>
      <trkpt lat="37.1985330" lon="-2.7288640">
        <ele>1302.4</ele>
        <time>2020-07-13T09:22:05Z</time>
      </trkpt>
      <trkpt lat="37.1987230" lon="-2.7289220">
        <ele>1303.4</ele>
        <time>2020-07-13T09:22:12Z</time>
      </trkpt>
      <trkpt lat="37.1988560" lon="-2.7289260">
        <ele>1304.6</ele>
        <time>2020-07-13T09:22:17Z</time>
      </trkpt>
      <trkpt lat="37.1989360" lon="-2.7289140">
        <ele>1305.4</ele>
        <time>2020-07-13T09:22:20Z</time>
      </trkpt>
      <trkpt lat="37.1989610" lon="-2.7289100">
        <ele>1305.6</ele>
        <time>2020-07-13T09:22:21Z</time>
      </trkpt>
      <trkpt lat="37.1991220" lon="-2.7288730">
        <ele>1306.8</ele>
        <time>2020-07-13T09:22:27Z</time>
      </trkpt>
      <trkpt lat="37.1992680" lon="-2.7288380">
        <ele>1307.6</ele>
        <time>2020-07-13T09:22:33Z</time>
      </trkpt>
      <trkpt lat="37.1993080" lon="-2.7288290">
        <ele>1307.8</ele>
        <time>2020-07-13T09:22:34Z</time>
      </trkpt>
      <trkpt lat="37.1994270" lon="-2.7288230">
        <ele>1308.8</ele>
        <time>2020-07-13T09:22:38Z</time>
      </trkpt>
      <trkpt lat="37.1995090" lon="-2.7288230">
        <ele>1309.4</ele>
        <time>2020-07-13T09:22:41Z</time>
      </trkpt>
      <trkpt lat="37.1996100" lon="-2.7288540">
        <ele>1310.2</ele>
        <time>2020-07-13T09:22:44Z</time>
      </trkpt>
      <trkpt lat="37.1997210" lon="-2.7289230">
        <ele>1311.0</ele>
        <time>2020-07-13T09:22:48Z</time>
      </trkpt>
      <trkpt lat="37.1997460" lon="-2.7289450">
        <ele>1311.2</ele>
        <time>2020-07-13T09:22:49Z</time>
      </trkpt>
      <trkpt lat="37.1998830" lon="-2.7291260">
        <ele>1312.4</ele>
        <time>2020-07-13T09:22:56Z</time>
      </trkpt>
      <trkpt lat="37.1999600" lon="-2.7292850">
        <ele>1313.4</ele>
        <time>2020-07-13T09:23:00Z</time>
      </trkpt>
      <trkpt lat="37.2000290" lon="-2.7294150">
        <ele>1314.4</ele>
        <time>2020-07-13T09:23:04Z</time>
      </trkpt>
      <trkpt lat="37.2000510" lon="-2.7294400">
        <ele>1314.6</ele>
        <time>2020-07-13T09:23:05Z</time>
      </trkpt>
      <trkpt lat="37.2001680" lon="-2.7295240">
        <ele>1315.4</ele>
        <time>2020-07-13T09:23:09Z</time>
      </trkpt>
      <trkpt lat="37.2002260" lon="-2.7295340">
        <ele>1315.8</ele>
        <time>2020-07-13T09:23:11Z</time>
      </trkpt>
      <trkpt lat="37.2003380" lon="-2.7295040">
        <ele>1316.6</ele>
        <time>2020-07-13T09:23:15Z</time>
      </trkpt>
      <trkpt lat="37.2003610" lon="-2.7294940">
        <ele>1316.8</ele>
        <time>2020-07-13T09:23:16Z</time>
      </trkpt>
      <trkpt lat="37.2004810" lon="-2.7294250">
        <ele>1317.8</ele>
        <time>2020-07-13T09:23:21Z</time>
      </trkpt>
      <trkpt lat="37.2005550" lon="-2.7293750">
        <ele>1318.6</ele>
        <time>2020-07-13T09:23:24Z</time>
      </trkpt>
      <trkpt lat="37.2005800" lon="-2.7293530">
        <ele>1318.8</ele>
        <time>2020-07-13T09:23:25Z</time>
      </trkpt>
      <trkpt lat="37.2007180" lon="-2.7292580">
        <ele>1320.0</ele>
        <time>2020-07-13T09:23:30Z</time>
      </trkpt>
      <trkpt lat="37.2007420" lon="-2.7292370">
        <ele>1320.0</ele>
        <time>2020-07-13T09:23:31Z</time>
      </trkpt>
      <trkpt lat="37.2008830" lon="-2.7290840">
        <ele>1321.0</ele>
        <time>2020-07-13T09:23:37Z</time>
      </trkpt>
      <trkpt lat="37.2009290" lon="-2.7290320">
        <ele>1321.4</ele>
        <time>2020-07-13T09:23:39Z</time>
      </trkpt>
      <trkpt lat="37.2009970" lon="-2.7289500">
        <ele>1322.4</ele>
        <time>2020-07-13T09:23:42Z</time>
      </trkpt>
      <trkpt lat="37.2010750" lon="-2.7288290">
        <ele>1323.4</ele>
        <time>2020-07-13T09:23:46Z</time>
      </trkpt>
      <trkpt lat="37.2011310" lon="-2.7287310">
        <ele>1324.0</ele>
        <time>2020-07-13T09:23:49Z</time>
      </trkpt>
      <trkpt lat="37.2011670" lon="-2.7286700">
        <ele>1324.6</ele>
        <time>2020-07-13T09:23:51Z</time>
      </trkpt>
      <trkpt lat="37.2012700" lon="-2.7285200">
        <ele>1325.6</ele>
        <time>2020-07-13T09:23:56Z</time>
      </trkpt>
      <trkpt lat="37.2013330" lon="-2.7284300">
        <ele>1326.2</ele>
        <time>2020-07-13T09:23:59Z</time>
      </trkpt>
      <trkpt lat="37.2014070" lon="-2.7283460">
        <ele>1326.8</ele>
        <time>2020-07-13T09:24:02Z</time>
      </trkpt>
      <trkpt lat="37.2015430" lon="-2.7282530">
        <ele>1327.6</ele>
        <time>2020-07-13T09:24:07Z</time>
      </trkpt>
      <trkpt lat="37.2016080" lon="-2.7282470">
        <ele>1328.0</ele>
        <time>2020-07-13T09:24:09Z</time>
      </trkpt>
      <trkpt lat="37.2017060" lon="-2.7282710">
        <ele>1328.8</ele>
        <time>2020-07-13T09:24:12Z</time>
      </trkpt>
      <trkpt lat="37.2017660" lon="-2.7283020">
        <ele>1329.2</ele>
        <time>2020-07-13T09:24:14Z</time>
      </trkpt>
      <trkpt lat="37.2018700" lon="-2.7283930">
        <ele>1330.2</ele>
        <time>2020-07-13T09:24:18Z</time>
      </trkpt>
      <trkpt lat="37.2018920" lon="-2.7284200">
        <ele>1330.2</ele>
        <time>2020-07-13T09:24:19Z</time>
      </trkpt>
      <trkpt lat="37.2019700" lon="-2.7285880">
        <ele>1330.8</ele>
        <time>2020-07-13T09:24:24Z</time>
      </trkpt>
      <trkpt lat="37.2020150" lon="-2.7286890">
        <ele>1331.6</ele>
        <time>2020-07-13T09:24:27Z</time>
      </trkpt>
      <trkpt lat="37.2020770" lon="-2.7288190">
        <ele>1332.6</ele>
        <time>2020-07-13T09:24:31Z</time>
      </trkpt>
      <trkpt lat="37.2020960" lon="-2.7288510">
        <ele>1332.8</ele>
        <time>2020-07-13T09:24:32Z</time>
      </trkpt>
      <trkpt lat="37.2021790" lon="-2.7289890">
        <ele>1333.8</ele>
        <time>2020-07-13T09:24:37Z</time>
      </trkpt>
      <trkpt lat="37.2022650" lon="-2.7290600">
        <ele>1334.2</ele>
        <time>2020-07-13T09:24:41Z</time>
      </trkpt>
      <trkpt lat="37.2023470" lon="-2.7290720">
        <ele>1334.8</ele>
        <time>2020-07-13T09:24:44Z</time>
      </trkpt>
      <trkpt lat="37.2024310" lon="-2.7290760">
        <ele>1335.6</ele>
        <time>2020-07-13T09:24:47Z</time>
      </trkpt>
      <trkpt lat="37.2024610" lon="-2.7290770">
        <ele>1335.8</ele>
        <time>2020-07-13T09:24:48Z</time>
      </trkpt>
      <trkpt lat="37.2025800" lon="-2.7290520">
        <ele>1337.0</ele>
        <time>2020-07-13T09:24:52Z</time>
      </trkpt>
      <trkpt lat="37.2026350" lon="-2.7290370">
        <ele>1337.4</ele>
        <time>2020-07-13T09:24:54Z</time>
      </trkpt>
      <trkpt lat="37.2027350" lon="-2.7290160">
        <ele>1338.2</ele>
        <time>2020-07-13T09:24:58Z</time>
      </trkpt>
      <trkpt lat="37.2028530" lon="-2.7289950">
        <ele>1339.4</ele>
        <time>2020-07-13T09:25:02Z</time>
      </trkpt>
      <trkpt lat="37.2029590" lon="-2.7290000">
        <ele>1340.4</ele>
        <time>2020-07-13T09:25:06Z</time>
      </trkpt>
      <trkpt lat="37.2029880" lon="-2.7290110">
        <ele>1340.6</ele>
        <time>2020-07-13T09:25:07Z</time>
      </trkpt>
      <trkpt lat="37.2031100" lon="-2.7290900">
        <ele>1341.4</ele>
        <time>2020-07-13T09:25:12Z</time>
      </trkpt>
      <trkpt lat="37.2031500" lon="-2.7291340">
        <ele>1341.6</ele>
        <time>2020-07-13T09:25:14Z</time>
      </trkpt>
      <trkpt lat="37.2032190" lon="-2.7292340">
        <ele>1342.6</ele>
        <time>2020-07-13T09:25:18Z</time>
      </trkpt>
      <trkpt lat="37.2032460" lon="-2.7292930">
        <ele>1343.2</ele>
        <time>2020-07-13T09:25:20Z</time>
      </trkpt>
      <trkpt lat="37.2032700" lon="-2.7293510">
        <ele>1343.6</ele>
        <time>2020-07-13T09:25:22Z</time>
      </trkpt>
      <trkpt lat="37.2033410" lon="-2.7295240">
        <ele>1344.6</ele>
        <time>2020-07-13T09:25:28Z</time>
      </trkpt>
      <trkpt lat="37.2033730" lon="-2.7296160">
        <ele>1345.2</ele>
        <time>2020-07-13T09:25:31Z</time>
      </trkpt>
      <trkpt lat="37.2034160" lon="-2.7297380">
        <ele>1345.8</ele>
        <time>2020-07-13T09:25:35Z</time>
      </trkpt>
      <trkpt lat="37.2034640" lon="-2.7298570">
        <ele>1347.2</ele>
        <time>2020-07-13T09:25:39Z</time>
      </trkpt>
      <trkpt lat="37.2035460" lon="-2.7300210">
        <ele>1348.4</ele>
        <time>2020-07-13T09:25:45Z</time>
      </trkpt>
      <trkpt lat="37.2036340" lon="-2.7301390">
        <ele>1349.4</ele>
        <time>2020-07-13T09:25:50Z</time>
      </trkpt>
      <trkpt lat="37.2037170" lon="-2.7302070">
        <ele>1350.0</ele>
        <time>2020-07-13T09:25:54Z</time>
      </trkpt>
      <trkpt lat="37.2037570" lon="-2.7302340">
        <ele>1350.4</ele>
        <time>2020-07-13T09:25:56Z</time>
      </trkpt>
      <trkpt lat="37.2038680" lon="-2.7302910">
        <ele>1351.6</ele>
        <time>2020-07-13T09:26:01Z</time>
      </trkpt>
      <trkpt lat="37.2039380" lon="-2.7303150">
        <ele>1352.4</ele>
        <time>2020-07-13T09:26:04Z</time>
      </trkpt>
      <trkpt lat="37.2039850" lon="-2.7303280">
        <ele>1352.8</ele>
        <time>2020-07-13T09:26:06Z</time>
      </trkpt>
      <trkpt lat="37.2040850" lon="-2.7303470">
        <ele>1353.8</ele>
        <time>2020-07-13T09:26:10Z</time>
      </trkpt>
      <trkpt lat="37.2041340" lon="-2.7303560">
        <ele>1354.0</ele>
        <time>2020-07-13T09:26:12Z</time>
      </trkpt>
      <trkpt lat="37.2042550" lon="-2.7303830">
        <ele>1354.8</ele>
        <time>2020-07-13T09:26:17Z</time>
      </trkpt>
      <trkpt lat="37.2043500" lon="-2.7304130">
        <ele>1356.0</ele>
        <time>2020-07-13T09:26:21Z</time>
      </trkpt>
      <trkpt lat="37.2043750" lon="-2.7304180">
        <ele>1356.2</ele>
        <time>2020-07-13T09:26:22Z</time>
      </trkpt>
      <trkpt lat="37.2044720" lon="-2.7304430">
        <ele>1357.0</ele>
        <time>2020-07-13T09:26:26Z</time>
      </trkpt>
      <trkpt lat="37.2045900" lon="-2.7304940">
        <ele>1358.0</ele>
        <time>2020-07-13T09:26:31Z</time>
      </trkpt>
      <trkpt lat="37.2046130" lon="-2.7305120">
        <ele>1358.2</ele>
        <time>2020-07-13T09:26:32Z</time>
      </trkpt>
      <trkpt lat="37.2047160" lon="-2.7306480">
        <ele>1359.2</ele>
        <time>2020-07-13T09:26:38Z</time>
      </trkpt>
      <trkpt lat="37.2047390" lon="-2.7307080">
        <ele>1359.4</ele>
        <time>2020-07-13T09:26:40Z</time>
      </trkpt>
      <trkpt lat="37.2047530" lon="-2.7308050">
        <ele>1360.2</ele>
        <time>2020-07-13T09:26:43Z</time>
      </trkpt>
      <trkpt lat="37.2047370" lon="-2.7309030">
        <ele>1361.2</ele>
        <time>2020-07-13T09:26:46Z</time>
      </trkpt>
      <trkpt lat="37.2047290" lon="-2.7309360">
        <ele>1361.4</ele>
        <time>2020-07-13T09:26:47Z</time>
      </trkpt>
      <trkpt lat="37.2046700" lon="-2.7310830">
        <ele>1362.6</ele>
        <time>2020-07-13T09:26:52Z</time>
      </trkpt>
      <trkpt lat="37.2046320" lon="-2.7311260">
        <ele>1362.8</ele>
        <time>2020-07-13T09:26:54Z</time>
      </trkpt>
      <trkpt lat="37.2045180" lon="-2.7312010">
        <ele>1363.6</ele>
        <time>2020-07-13T09:26:59Z</time>
      </trkpt>
      <trkpt lat="37.2044650" lon="-2.7312090">
        <ele>1364.0</ele>
        <time>2020-07-13T09:27:01Z</time>
      </trkpt>
      <trkpt lat="37.2043540" lon="-2.7311760">
        <ele>1364.8</ele>
        <time>2020-07-13T09:27:05Z</time>
      </trkpt>
      <trkpt lat="37.2042970" lon="-2.7311490">
        <ele>1365.4</ele>
        <time>2020-07-13T09:27:07Z</time>
      </trkpt>
      <trkpt lat="37.2042450" lon="-2.7311190">
        <ele>1366.0</ele>
        <time>2020-07-13T09:27:09Z</time>
      </trkpt>
      <trkpt lat="37.2041200" lon="-2.7310310">
        <ele>1367.2</ele>
        <time>2020-07-13T09:27:14Z</time>
      </trkpt>
      <trkpt lat="37.2040710" lon="-2.7309940">
        <ele>1367.6</ele>
        <time>2020-07-13T09:27:16Z</time>
      </trkpt>
      <trkpt lat="37.2039500" lon="-2.7308910">
        <ele>1368.4</ele>
        <time>2020-07-13T09:27:21Z</time>
      </trkpt>
      <trkpt lat="37.2038640" lon="-2.7308260">
        <ele>1368.8</ele>
        <time>2020-07-13T09:27:24Z</time>
      </trkpt>
      <trkpt lat="37.2037020" lon="-2.7306870">
        <ele>1369.4</ele>
        <time>2020-07-13T09:27:29Z</time>
      </trkpt>
      <trkpt lat="37.2035840" lon="-2.7305890">
        <ele>1369.6</ele>
        <time>2020-07-13T09:27:32Z</time>
      </trkpt>
      <trkpt lat="37.2032140" lon="-2.7302870">
        <ele>1369.4</ele>
        <time>2020-07-13T09:27:40Z</time>
      </trkpt>
      <trkpt lat="37.2029340" lon="-2.7301590">
        <ele>1369.2</ele>
        <time>2020-07-13T09:27:45Z</time>
      </trkpt>
      <trkpt lat="37.2028780" lon="-2.7301600">
        <ele>1369.2</ele>
        <time>2020-07-13T09:27:46Z</time>
      </trkpt>
      <trkpt lat="37.2027030" lon="-2.7301970">
        <ele>1368.8</ele>
        <time>2020-07-13T09:27:49Z</time>
      </trkpt>
      <trkpt lat="37.2026020" lon="-2.7302280">
        <ele>1368.8</ele>
        <time>2020-07-13T09:27:51Z</time>
      </trkpt>
      <trkpt lat="37.2020840" lon="-2.7303900">
        <ele>1370.2</ele>
        <time>2020-07-13T09:28:01Z</time>
      </trkpt>
      <trkpt lat="37.2019880" lon="-2.7304210">
        <ele>1370.4</ele>
        <time>2020-07-13T09:28:03Z</time>
      </trkpt>
      <trkpt lat="37.2017800" lon="-2.7304980">
        <ele>1371.2</ele>
        <time>2020-07-13T09:28:08Z</time>
      </trkpt>
      <trkpt lat="37.2017120" lon="-2.7305220">
        <ele>1371.6</ele>
        <time>2020-07-13T09:28:10Z</time>
      </trkpt>
      <trkpt lat="37.2016220" lon="-2.7305590">
        <ele>1372.8</ele>
        <time>2020-07-13T09:28:13Z</time>
      </trkpt>
      <trkpt lat="37.2015640" lon="-2.7305840">
        <ele>1373.6</ele>
        <time>2020-07-13T09:28:15Z</time>
      </trkpt>
      <trkpt lat="37.2015380" lon="-2.7305960">
        <ele>1373.8</ele>
        <time>2020-07-13T09:28:16Z</time>
      </trkpt>
      <trkpt lat="37.2014020" lon="-2.7306650">
        <ele>1374.8</ele>
        <time>2020-07-13T09:28:21Z</time>
      </trkpt>
      <trkpt lat="37.2012780" lon="-2.7307350">
        <ele>1375.8</ele>
        <time>2020-07-13T09:28:26Z</time>
      </trkpt>
      <trkpt lat="37.2012530" lon="-2.7307490">
        <ele>1376.0</ele>
        <time>2020-07-13T09:28:27Z</time>
      </trkpt>
      <trkpt lat="37.2011380" lon="-2.7308190">
        <ele>1377.2</ele>
        <time>2020-07-13T09:28:32Z</time>
      </trkpt>
      <trkpt lat="37.2010500" lon="-2.7308800">
        <ele>1378.2</ele>
        <time>2020-07-13T09:28:36Z</time>
      </trkpt>
      <trkpt lat="37.2010250" lon="-2.7308960">
        <ele>1378.4</ele>
        <time>2020-07-13T09:28:37Z</time>
      </trkpt>
      <trkpt lat="37.2009310" lon="-2.7309510">
        <ele>1379.4</ele>
        <time>2020-07-13T09:28:41Z</time>
      </trkpt>
      <trkpt lat="37.2008550" lon="-2.7310000">
        <ele>1380.0</ele>
        <time>2020-07-13T09:28:44Z</time>
      </trkpt>
      <trkpt lat="37.2007860" lon="-2.7310420">
        <ele>1380.4</ele>
        <time>2020-07-13T09:28:47Z</time>
      </trkpt>
      <trkpt lat="37.2006680" lon="-2.7310990">
        <ele>1381.4</ele>
        <time>2020-07-13T09:28:52Z</time>
      </trkpt>
      <trkpt lat="37.2006470" lon="-2.7311100">
        <ele>1381.6</ele>
        <time>2020-07-13T09:28:53Z</time>
      </trkpt>
      <trkpt lat="37.2005280" lon="-2.7311520">
        <ele>1382.6</ele>
        <time>2020-07-13T09:28:58Z</time>
      </trkpt>
      <trkpt lat="37.2004570" lon="-2.7311700">
        <ele>1383.2</ele>
        <time>2020-07-13T09:29:01Z</time>
      </trkpt>
      <trkpt lat="37.2004120" lon="-2.7311860">
        <ele>1383.8</ele>
        <time>2020-07-13T09:29:03Z</time>
      </trkpt>
      <trkpt lat="37.2002790" lon="-2.7312180">
        <ele>1385.0</ele>
        <time>2020-07-13T09:29:09Z</time>
      </trkpt>
      <trkpt lat="37.2002560" lon="-2.7312230">
        <ele>1385.2</ele>
        <time>2020-07-13T09:29:10Z</time>
      </trkpt>
      <trkpt lat="37.2001650" lon="-2.7312440">
        <ele>1386.0</ele>
        <time>2020-07-13T09:29:14Z</time>
      </trkpt>
      <trkpt lat="37.1999660" lon="-2.7313000">
        <ele>1387.2</ele>
        <time>2020-07-13T09:29:22Z</time>
      </trkpt>
      <trkpt lat="37.1998510" lon="-2.7313700">
        <ele>1388.2</ele>
        <time>2020-07-13T09:29:27Z</time>
      </trkpt>
      <trkpt lat="37.1997710" lon="-2.7314410">
        <ele>1388.8</ele>
        <time>2020-07-13T09:29:31Z</time>
      </trkpt>
      <trkpt lat="37.1997150" lon="-2.7315000">
        <ele>1389.4</ele>
        <time>2020-07-13T09:29:34Z</time>
      </trkpt>
      <trkpt lat="37.1996080" lon="-2.7316280">
        <ele>1390.4</ele>
        <time>2020-07-13T09:29:40Z</time>
      </trkpt>
      <trkpt lat="37.1995410" lon="-2.7317240">
        <ele>1391.4</ele>
        <time>2020-07-13T09:29:44Z</time>
      </trkpt>
      <trkpt lat="37.1994710" lon="-2.7318140">
        <ele>1392.2</ele>
        <time>2020-07-13T09:29:48Z</time>
      </trkpt>
      <trkpt lat="37.1994540" lon="-2.7318400">
        <ele>1392.4</ele>
        <time>2020-07-13T09:29:49Z</time>
      </trkpt>
      <trkpt lat="37.1993600" lon="-2.7320010">
        <ele>1393.6</ele>
        <time>2020-07-13T09:29:55Z</time>
      </trkpt>
      <trkpt lat="37.1993120" lon="-2.7321150">
        <ele>1394.0</ele>
        <time>2020-07-13T09:29:59Z</time>
      </trkpt>
      <trkpt lat="37.1992570" lon="-2.7322210">
        <ele>1394.8</ele>
        <time>2020-07-13T09:30:03Z</time>
      </trkpt>
      <trkpt lat="37.1992170" lon="-2.7323020">
        <ele>1396.0</ele>
        <time>2020-07-13T09:30:06Z</time>
      </trkpt>
      <trkpt lat="37.1991860" lon="-2.7323540">
        <ele>1396.6</ele>
        <time>2020-07-13T09:30:08Z</time>
      </trkpt>
      <trkpt lat="37.1991510" lon="-2.7324060">
        <ele>1397.2</ele>
        <time>2020-07-13T09:30:10Z</time>
      </trkpt>
      <trkpt lat="37.1990500" lon="-2.7325160">
        <ele>1398.2</ele>
        <time>2020-07-13T09:30:15Z</time>
      </trkpt>
      <trkpt lat="37.1990030" lon="-2.7325490">
        <ele>1398.4</ele>
        <time>2020-07-13T09:30:17Z</time>
      </trkpt>
      <trkpt lat="37.1988910" lon="-2.7325980">
        <ele>1399.2</ele>
        <time>2020-07-13T09:30:21Z</time>
      </trkpt>
      <trkpt lat="37.1988110" lon="-2.7326270">
        <ele>1399.6</ele>
        <time>2020-07-13T09:30:24Z</time>
      </trkpt>
      <trkpt lat="37.1987150" lon="-2.7326620">
        <ele>1400.4</ele>
        <time>2020-07-13T09:30:28Z</time>
      </trkpt>
      <trkpt lat="37.1986180" lon="-2.7326880">
        <ele>1401.4</ele>
        <time>2020-07-13T09:30:32Z</time>
      </trkpt>
      <trkpt lat="37.1985720" lon="-2.7327000">
        <ele>1401.8</ele>
        <time>2020-07-13T09:30:34Z</time>
      </trkpt>
      <trkpt lat="37.1984740" lon="-2.7327300">
        <ele>1402.6</ele>
        <time>2020-07-13T09:30:38Z</time>
      </trkpt>
      <trkpt lat="37.1983500" lon="-2.7327690">
        <ele>1403.4</ele>
        <time>2020-07-13T09:30:43Z</time>
      </trkpt>
      <trkpt lat="37.1982700" lon="-2.7327970">
        <ele>1403.8</ele>
        <time>2020-07-13T09:30:46Z</time>
      </trkpt>
      <trkpt lat="37.1981620" lon="-2.7328260">
        <ele>1404.6</ele>
        <time>2020-07-13T09:30:50Z</time>
      </trkpt>
      <trkpt lat="37.1981340" lon="-2.7328320">
        <ele>1404.8</ele>
        <time>2020-07-13T09:30:51Z</time>
      </trkpt>
      <trkpt lat="37.1980030" lon="-2.7328760">
        <ele>1406.0</ele>
        <time>2020-07-13T09:30:56Z</time>
      </trkpt>
      <trkpt lat="37.1979520" lon="-2.7328920">
        <ele>1406.4</ele>
        <time>2020-07-13T09:30:58Z</time>
      </trkpt>
      <trkpt lat="37.1978220" lon="-2.7329380">
        <ele>1407.2</ele>
        <time>2020-07-13T09:31:03Z</time>
      </trkpt>
      <trkpt lat="37.1976840" lon="-2.7329810">
        <ele>1407.8</ele>
        <time>2020-07-13T09:31:08Z</time>
      </trkpt>
      <trkpt lat="37.1976340" lon="-2.7329970">
        <ele>1408.2</ele>
        <time>2020-07-13T09:31:10Z</time>
      </trkpt>
      <trkpt lat="37.1974740" lon="-2.7330450">
        <ele>1409.4</ele>
        <time>2020-07-13T09:31:16Z</time>
      </trkpt>
      <trkpt lat="37.1974470" lon="-2.7330550">
        <ele>1409.6</ele>
        <time>2020-07-13T09:31:17Z</time>
      </trkpt>
      <trkpt lat="37.1972850" lon="-2.7331170">
        <ele>1410.4</ele>
        <time>2020-07-13T09:31:23Z</time>
      </trkpt>
      <trkpt lat="37.1972010" lon="-2.7331390">
        <ele>1411.0</ele>
        <time>2020-07-13T09:31:26Z</time>
      </trkpt>
      <trkpt lat="37.1971210" lon="-2.7331760">
        <ele>1411.4</ele>
        <time>2020-07-13T09:31:29Z</time>
      </trkpt>
      <trkpt lat="37.1969700" lon="-2.7332700">
        <ele>1412.8</ele>
        <time>2020-07-13T09:31:35Z</time>
      </trkpt>
      <trkpt lat="37.1968400" lon="-2.7334050">
        <ele>1413.8</ele>
        <time>2020-07-13T09:31:41Z</time>
      </trkpt>
      <trkpt lat="37.1967910" lon="-2.7334910">
        <ele>1414.4</ele>
        <time>2020-07-13T09:31:44Z</time>
      </trkpt>
      <trkpt lat="37.1967570" lon="-2.7335820">
        <ele>1415.0</ele>
        <time>2020-07-13T09:31:47Z</time>
      </trkpt>
      <trkpt lat="37.1967110" lon="-2.7337370">
        <ele>1416.0</ele>
        <time>2020-07-13T09:31:52Z</time>
      </trkpt>
      <trkpt lat="37.1966630" lon="-2.7339350">
        <ele>1417.2</ele>
        <time>2020-07-13T09:31:58Z</time>
      </trkpt>
      <trkpt lat="37.1966440" lon="-2.7340030">
        <ele>1417.4</ele>
        <time>2020-07-13T09:32:00Z</time>
      </trkpt>
      <trkpt lat="37.1966000" lon="-2.7341860">
        <ele>1418.2</ele>
        <time>2020-07-13T09:32:05Z</time>
      </trkpt>
      <trkpt lat="37.1965830" lon="-2.7342590">
        <ele>1418.6</ele>
        <time>2020-07-13T09:32:07Z</time>
      </trkpt>
      <trkpt lat="37.1965590" lon="-2.7344030">
        <ele>1419.2</ele>
        <time>2020-07-13T09:32:11Z</time>
      </trkpt>
      <trkpt lat="37.1965300" lon="-2.7346280">
        <ele>1420.2</ele>
        <time>2020-07-13T09:32:17Z</time>
      </trkpt>
      <trkpt lat="37.1965160" lon="-2.7348250">
        <ele>1421.4</ele>
        <time>2020-07-13T09:32:22Z</time>
      </trkpt>
      <trkpt lat="37.1965110" lon="-2.7349830">
        <ele>1422.0</ele>
        <time>2020-07-13T09:32:26Z</time>
      </trkpt>
      <trkpt lat="37.1965150" lon="-2.7351080">
        <ele>1422.6</ele>
        <time>2020-07-13T09:32:29Z</time>
      </trkpt>
      <trkpt lat="37.1965190" lon="-2.7353070">
        <ele>1423.6</ele>
        <time>2020-07-13T09:32:34Z</time>
      </trkpt>
      <trkpt lat="37.1965190" lon="-2.7353460">
        <ele>1423.6</ele>
        <time>2020-07-13T09:32:35Z</time>
      </trkpt>
      <trkpt lat="37.1965140" lon="-2.7355410">
        <ele>1424.8</ele>
        <time>2020-07-13T09:32:40Z</time>
      </trkpt>
      <trkpt lat="37.1965240" lon="-2.7356990">
        <ele>1425.8</ele>
        <time>2020-07-13T09:32:44Z</time>
      </trkpt>
      <trkpt lat="37.1965260" lon="-2.7357330">
        <ele>1426.0</ele>
        <time>2020-07-13T09:32:45Z</time>
      </trkpt>
      <trkpt lat="37.1965250" lon="-2.7358870">
        <ele>1427.0</ele>
        <time>2020-07-13T09:32:49Z</time>
      </trkpt>
      <trkpt lat="37.1965060" lon="-2.7360790">
        <ele>1427.8</ele>
        <time>2020-07-13T09:32:54Z</time>
      </trkpt>
      <trkpt lat="37.1965010" lon="-2.7361160">
        <ele>1428.0</ele>
        <time>2020-07-13T09:32:55Z</time>
      </trkpt>
      <trkpt lat="37.1964750" lon="-2.7363460">
        <ele>1429.2</ele>
        <time>2020-07-13T09:33:01Z</time>
      </trkpt>
      <trkpt lat="37.1964540" lon="-2.7364950">
        <ele>1430.2</ele>
        <time>2020-07-13T09:33:05Z</time>
      </trkpt>
      <trkpt lat="37.1964480" lon="-2.7365360">
        <ele>1430.4</ele>
        <time>2020-07-13T09:33:06Z</time>
      </trkpt>
      <trkpt lat="37.1964060" lon="-2.7367600">
        <ele>1431.4</ele>
        <time>2020-07-13T09:33:12Z</time>
      </trkpt>
      <trkpt lat="37.1963880" lon="-2.7368710">
        <ele>1432.0</ele>
        <time>2020-07-13T09:33:15Z</time>
      </trkpt>
      <trkpt lat="37.1963750" lon="-2.7369870">
        <ele>1432.6</ele>
        <time>2020-07-13T09:33:18Z</time>
      </trkpt>
      <trkpt lat="37.1963530" lon="-2.7371510">
        <ele>1433.6</ele>
        <time>2020-07-13T09:33:22Z</time>
      </trkpt>
      <trkpt lat="37.1963610" lon="-2.7374550">
        <ele>1434.8</ele>
        <time>2020-07-13T09:33:29Z</time>
      </trkpt>
      <trkpt lat="37.1964380" lon="-2.7376380">
        <ele>1435.8</ele>
        <time>2020-07-13T09:33:34Z</time>
      </trkpt>
      <trkpt lat="37.1965530" lon="-2.7377870">
        <ele>1436.8</ele>
        <time>2020-07-13T09:33:40Z</time>
      </trkpt>
      <trkpt lat="37.1965730" lon="-2.7378130">
        <ele>1437.0</ele>
        <time>2020-07-13T09:33:41Z</time>
      </trkpt>
      <trkpt lat="37.1966730" lon="-2.7379310">
        <ele>1438.0</ele>
        <time>2020-07-13T09:33:46Z</time>
      </trkpt>
      <trkpt lat="37.1967830" lon="-2.7380480">
        <ele>1439.0</ele>
        <time>2020-07-13T09:33:51Z</time>
      </trkpt>
      <trkpt lat="37.1968030" lon="-2.7380710">
        <ele>1439.2</ele>
        <time>2020-07-13T09:33:52Z</time>
      </trkpt>
      <trkpt lat="37.1969920" lon="-2.7382370">
        <ele>1440.2</ele>
        <time>2020-07-13T09:34:00Z</time>
      </trkpt>
      <trkpt lat="37.1970440" lon="-2.7382680">
        <ele>1440.6</ele>
        <time>2020-07-13T09:34:02Z</time>
      </trkpt>
      <trkpt lat="37.1971770" lon="-2.7383200">
        <ele>1441.4</ele>
        <time>2020-07-13T09:34:07Z</time>
      </trkpt>
      <trkpt lat="37.1972860" lon="-2.7383450">
        <ele>1442.4</ele>
        <time>2020-07-13T09:34:11Z</time>
      </trkpt>
      <trkpt lat="37.1973140" lon="-2.7383510">
        <ele>1442.6</ele>
        <time>2020-07-13T09:34:12Z</time>
      </trkpt>
      <trkpt lat="37.1974500" lon="-2.7383880">
        <ele>1443.4</ele>
        <time>2020-07-13T09:34:17Z</time>
      </trkpt>
      <trkpt lat="37.1976070" lon="-2.7384330">
        <ele>1444.4</ele>
        <time>2020-07-13T09:34:23Z</time>
      </trkpt>
      <trkpt lat="37.1976340" lon="-2.7384410">
        <ele>1444.4</ele>
        <time>2020-07-13T09:34:24Z</time>
      </trkpt>
      <trkpt lat="37.1977880" lon="-2.7385090">
        <ele>1445.6</ele>
        <time>2020-07-13T09:34:30Z</time>
      </trkpt>
      <trkpt lat="37.1978420" lon="-2.7385430">
        <ele>1446.2</ele>
        <time>2020-07-13T09:34:32Z</time>
      </trkpt>
      <trkpt lat="37.1979110" lon="-2.7386060">
        <ele>1446.8</ele>
        <time>2020-07-13T09:34:35Z</time>
      </trkpt>
      <trkpt lat="37.1980500" lon="-2.7387440">
        <ele>1447.8</ele>
        <time>2020-07-13T09:34:41Z</time>
      </trkpt>
      <trkpt lat="37.1981780" lon="-2.7388890">
        <ele>1449.0</ele>
        <time>2020-07-13T09:34:47Z</time>
      </trkpt>
      <trkpt lat="37.1982190" lon="-2.7389390">
        <ele>1449.4</ele>
        <time>2020-07-13T09:34:49Z</time>
      </trkpt>
      <trkpt lat="37.1983000" lon="-2.7390440">
        <ele>1450.0</ele>
        <time>2020-07-13T09:34:53Z</time>
      </trkpt>
      <trkpt lat="37.1984220" lon="-2.7391960">
        <ele>1451.2</ele>
        <time>2020-07-13T09:34:59Z</time>
      </trkpt>
      <trkpt lat="37.1984410" lon="-2.7392180">
        <ele>1451.4</ele>
        <time>2020-07-13T09:35:00Z</time>
      </trkpt>
      <trkpt lat="37.1985730" lon="-2.7393660">
        <ele>1452.4</ele>
        <time>2020-07-13T09:35:06Z</time>
      </trkpt>
      <trkpt lat="37.1986550" lon="-2.7394670">
        <ele>1453.0</ele>
        <time>2020-07-13T09:35:10Z</time>
      </trkpt>
      <trkpt lat="37.1987230" lon="-2.7395540">
        <ele>1453.6</ele>
        <time>2020-07-13T09:35:13Z</time>
      </trkpt>
      <trkpt lat="37.1988520" lon="-2.7397300">
        <ele>1454.6</ele>
        <time>2020-07-13T09:35:19Z</time>
      </trkpt>
      <trkpt lat="37.1989780" lon="-2.7398770">
        <ele>1455.8</ele>
        <time>2020-07-13T09:35:24Z</time>
      </trkpt>
      <trkpt lat="37.1990240" lon="-2.7399330">
        <ele>1456.4</ele>
        <time>2020-07-13T09:35:26Z</time>
      </trkpt>
      <trkpt lat="37.1990940" lon="-2.7400150">
        <ele>1457.0</ele>
        <time>2020-07-13T09:35:29Z</time>
      </trkpt>
      <trkpt lat="37.1992040" lon="-2.7401560">
        <ele>1458.2</ele>
        <time>2020-07-13T09:35:34Z</time>
      </trkpt>
      <trkpt lat="37.1992260" lon="-2.7401840">
        <ele>1458.4</ele>
        <time>2020-07-13T09:35:35Z</time>
      </trkpt>
      <trkpt lat="37.1992980" lon="-2.7402690">
        <ele>1459.4</ele>
        <time>2020-07-13T09:35:38Z</time>
      </trkpt>
      <trkpt lat="37.1994090" lon="-2.7404050">
        <ele>1460.4</ele>
        <time>2020-07-13T09:35:43Z</time>
      </trkpt>
      <trkpt lat="37.1994520" lon="-2.7404550">
        <ele>1460.8</ele>
        <time>2020-07-13T09:35:45Z</time>
      </trkpt>
      <trkpt lat="37.1995210" lon="-2.7405340">
        <ele>1461.4</ele>
        <time>2020-07-13T09:35:48Z</time>
      </trkpt>
      <trkpt lat="37.1996480" lon="-2.7406950">
        <ele>1462.6</ele>
        <time>2020-07-13T09:35:54Z</time>
      </trkpt>
      <trkpt lat="37.1996690" lon="-2.7407200">
        <ele>1462.8</ele>
        <time>2020-07-13T09:35:55Z</time>
      </trkpt>
      <trkpt lat="37.1997790" lon="-2.7408580">
        <ele>1463.8</ele>
        <time>2020-07-13T09:36:00Z</time>
      </trkpt>
      <trkpt lat="37.1998910" lon="-2.7409910">
        <ele>1464.8</ele>
        <time>2020-07-13T09:36:05Z</time>
      </trkpt>
      <trkpt lat="37.1999140" lon="-2.7410190">
        <ele>1465.0</ele>
        <time>2020-07-13T09:36:06Z</time>
      </trkpt>
      <trkpt lat="37.2000260" lon="-2.7411500">
        <ele>1465.8</ele>
        <time>2020-07-13T09:36:11Z</time>
      </trkpt>
      <trkpt lat="37.2001120" lon="-2.7412590">
        <ele>1466.6</ele>
        <time>2020-07-13T09:36:15Z</time>
      </trkpt>
      <trkpt lat="37.2001570" lon="-2.7413200">
        <ele>1467.0</ele>
        <time>2020-07-13T09:36:17Z</time>
      </trkpt>
      <trkpt lat="37.2002910" lon="-2.7414860">
        <ele>1468.0</ele>
        <time>2020-07-13T09:36:23Z</time>
      </trkpt>
      <trkpt lat="37.2003590" lon="-2.7415730">
        <ele>1468.4</ele>
        <time>2020-07-13T09:36:26Z</time>
      </trkpt>
      <trkpt lat="37.2004590" lon="-2.7416830">
        <ele>1469.0</ele>
        <time>2020-07-13T09:36:30Z</time>
      </trkpt>
      <trkpt lat="37.2006440" lon="-2.7418360">
        <ele>1469.8</ele>
        <time>2020-07-13T09:36:36Z</time>
      </trkpt>
      <trkpt lat="37.2007410" lon="-2.7418910">
        <ele>1470.0</ele>
        <time>2020-07-13T09:36:39Z</time>
      </trkpt>
      <trkpt lat="37.2008760" lon="-2.7419360">
        <ele>1470.8</ele>
        <time>2020-07-13T09:36:43Z</time>
      </trkpt>
      <trkpt lat="37.2009390" lon="-2.7419530">
        <ele>1471.0</ele>
        <time>2020-07-13T09:36:45Z</time>
      </trkpt>
      <trkpt lat="37.2011620" lon="-2.7420060">
        <ele>1472.2</ele>
        <time>2020-07-13T09:36:52Z</time>
      </trkpt>
      <trkpt lat="37.2011910" lon="-2.7420130">
        <ele>1472.6</ele>
        <time>2020-07-13T09:36:53Z</time>
      </trkpt>
      <trkpt lat="37.2013110" lon="-2.7420400">
        <ele>1473.2</ele>
        <time>2020-07-13T09:36:57Z</time>
      </trkpt>
      <trkpt lat="37.2014590" lon="-2.7420680">
        <ele>1474.4</ele>
        <time>2020-07-13T09:37:02Z</time>
      </trkpt>
      <trkpt lat="37.2014870" lon="-2.7420720">
        <ele>1474.6</ele>
        <time>2020-07-13T09:37:03Z</time>
      </trkpt>
      <trkpt lat="37.2016060" lon="-2.7420780">
        <ele>1475.8</ele>
        <time>2020-07-13T09:37:07Z</time>
      </trkpt>
      <trkpt lat="37.2017230" lon="-2.7420750">
        <ele>1476.8</ele>
        <time>2020-07-13T09:37:11Z</time>
      </trkpt>
      <trkpt lat="37.2017520" lon="-2.7420720">
        <ele>1477.0</ele>
        <time>2020-07-13T09:37:12Z</time>
      </trkpt>
      <trkpt lat="37.2018950" lon="-2.7420580">
        <ele>1478.0</ele>
        <time>2020-07-13T09:37:17Z</time>
      </trkpt>
      <trkpt lat="37.2019890" lon="-2.7420360">
        <ele>1478.6</ele>
        <time>2020-07-13T09:37:20Z</time>
      </trkpt>
      <trkpt lat="37.2020540" lon="-2.7420140">
        <ele>1479.0</ele>
        <time>2020-07-13T09:37:22Z</time>
      </trkpt>
      <trkpt lat="37.2022560" lon="-2.7419470">
        <ele>1479.6</ele>
        <time>2020-07-13T09:37:28Z</time>
      </trkpt>
      <trkpt lat="37.2024000" lon="-2.7419140">
        <ele>1480.2</ele>
        <time>2020-07-13T09:37:32Z</time>
      </trkpt>
      <trkpt lat="37.2025570" lon="-2.7418930">
        <ele>1480.4</ele>
        <time>2020-07-13T09:37:36Z</time>
      </trkpt>
      <trkpt lat="37.2025980" lon="-2.7419000">
        <ele>1480.4</ele>
        <time>2020-07-13T09:37:37Z</time>
      </trkpt>
      <trkpt lat="37.2027560" lon="-2.7419780">
        <ele>1480.8</ele>
        <time>2020-07-13T09:37:41Z</time>
      </trkpt>
      <trkpt lat="37.2028470" lon="-2.7420860">
        <ele>1481.2</ele>
        <time>2020-07-13T09:37:44Z</time>
      </trkpt>
      <trkpt lat="37.2028640" lon="-2.7421260">
        <ele>1481.4</ele>
        <time>2020-07-13T09:37:45Z</time>
      </trkpt>
      <trkpt lat="37.2028930" lon="-2.7422290">
        <ele>1481.8</ele>
        <time>2020-07-13T09:37:47Z</time>
      </trkpt>
      <trkpt lat="37.2029310" lon="-2.7424260">
        <ele>1482.2</ele>
        <time>2020-07-13T09:37:51Z</time>
      </trkpt>
      <trkpt lat="37.2029360" lon="-2.7424750">
        <ele>1482.2</ele>
        <time>2020-07-13T09:37:52Z</time>
      </trkpt>
      <trkpt lat="37.2029870" lon="-2.7427780">
        <ele>1483.4</ele>
        <time>2020-07-13T09:37:59Z</time>
      </trkpt>
      <trkpt lat="37.2030270" lon="-2.7429790">
        <ele>1484.6</ele>
        <time>2020-07-13T09:38:04Z</time>
      </trkpt>
      <trkpt lat="37.2030670" lon="-2.7431320">
        <ele>1485.4</ele>
        <time>2020-07-13T09:38:08Z</time>
      </trkpt>
      <trkpt lat="37.2030730" lon="-2.7431710">
        <ele>1485.8</ele>
        <time>2020-07-13T09:38:09Z</time>
      </trkpt>
      <trkpt lat="37.2031250" lon="-2.7433090">
        <ele>1486.6</ele>
        <time>2020-07-13T09:38:13Z</time>
      </trkpt>
      <trkpt lat="37.2031440" lon="-2.7433390">
        <ele>1486.8</ele>
        <time>2020-07-13T09:38:14Z</time>
      </trkpt>
      <trkpt lat="37.2032320" lon="-2.7434410">
        <ele>1488.0</ele>
        <time>2020-07-13T09:38:18Z</time>
      </trkpt>
      <trkpt lat="37.2032600" lon="-2.7434580">
        <ele>1488.4</ele>
        <time>2020-07-13T09:38:19Z</time>
      </trkpt>
      <trkpt lat="37.2033590" lon="-2.7435060">
        <ele>1489.2</ele>
        <time>2020-07-13T09:38:23Z</time>
      </trkpt>
      <trkpt lat="37.2034590" lon="-2.7435340">
        <ele>1490.0</ele>
        <time>2020-07-13T09:38:27Z</time>
      </trkpt>
      <trkpt lat="37.2034830" lon="-2.7435420">
        <ele>1490.2</ele>
        <time>2020-07-13T09:38:28Z</time>
      </trkpt>
      <trkpt lat="37.2036090" lon="-2.7435780">
        <ele>1491.6</ele>
        <time>2020-07-13T09:38:33Z</time>
      </trkpt>
      <trkpt lat="37.2036840" lon="-2.7436050">
        <ele>1492.2</ele>
        <time>2020-07-13T09:38:36Z</time>
      </trkpt>
      <trkpt lat="37.2037330" lon="-2.7436210">
        <ele>1492.6</ele>
        <time>2020-07-13T09:38:38Z</time>
      </trkpt>
      <trkpt lat="37.2038570" lon="-2.7436540">
        <ele>1493.6</ele>
        <time>2020-07-13T09:38:43Z</time>
      </trkpt>
      <trkpt lat="37.2040110" lon="-2.7436920">
        <ele>1494.4</ele>
        <time>2020-07-13T09:38:49Z</time>
      </trkpt>
      <trkpt lat="37.2040340" lon="-2.7437000">
        <ele>1494.8</ele>
        <time>2020-07-13T09:38:50Z</time>
      </trkpt>
      <trkpt lat="37.2041590" lon="-2.7437310">
        <ele>1496.0</ele>
        <time>2020-07-13T09:38:55Z</time>
      </trkpt>
      <trkpt lat="37.2042350" lon="-2.7437510">
        <ele>1496.6</ele>
        <time>2020-07-13T09:38:58Z</time>
      </trkpt>
      <trkpt lat="37.2042830" lon="-2.7437630">
        <ele>1497.0</ele>
        <time>2020-07-13T09:39:00Z</time>
      </trkpt>
      <trkpt lat="37.2044120" lon="-2.7437730">
        <ele>1498.0</ele>
        <time>2020-07-13T09:39:05Z</time>
      </trkpt>
      <trkpt lat="37.2044410" lon="-2.7437730">
        <ele>1498.0</ele>
        <time>2020-07-13T09:39:06Z</time>
      </trkpt>
      <trkpt lat="37.2045680" lon="-2.7437710">
        <ele>1499.0</ele>
        <time>2020-07-13T09:39:11Z</time>
      </trkpt>
      <trkpt lat="37.2046680" lon="-2.7437690">
        <ele>1499.8</ele>
        <time>2020-07-13T09:39:15Z</time>
      </trkpt>
      <trkpt lat="37.2046960" lon="-2.7437690">
        <ele>1500.2</ele>
        <time>2020-07-13T09:39:16Z</time>
      </trkpt>
      <trkpt lat="37.2048480" lon="-2.7437780">
        <ele>1501.2</ele>
        <time>2020-07-13T09:39:22Z</time>
      </trkpt>
      <trkpt lat="37.2048980" lon="-2.7437810">
        <ele>1501.4</ele>
        <time>2020-07-13T09:39:24Z</time>
      </trkpt>
      <trkpt lat="37.2050220" lon="-2.7438030">
        <ele>1502.4</ele>
        <time>2020-07-13T09:39:29Z</time>
      </trkpt>
      <trkpt lat="37.2051210" lon="-2.7438210">
        <ele>1503.0</ele>
        <time>2020-07-13T09:39:33Z</time>
      </trkpt>
      <trkpt lat="37.2051710" lon="-2.7438390">
        <ele>1503.4</ele>
        <time>2020-07-13T09:39:35Z</time>
      </trkpt>
      <trkpt lat="37.2052890" lon="-2.7439150">
        <ele>1504.6</ele>
        <time>2020-07-13T09:39:40Z</time>
      </trkpt>
      <trkpt lat="37.2054500" lon="-2.7440280">
        <ele>1505.6</ele>
        <time>2020-07-13T09:39:47Z</time>
      </trkpt>
      <trkpt lat="37.2054910" lon="-2.7440630">
        <ele>1506.0</ele>
        <time>2020-07-13T09:39:49Z</time>
      </trkpt>
      <trkpt lat="37.2055940" lon="-2.7441630">
        <ele>1506.8</ele>
        <time>2020-07-13T09:39:54Z</time>
      </trkpt>
      <trkpt lat="37.2056950" lon="-2.7442610">
        <ele>1508.0</ele>
        <time>2020-07-13T09:39:59Z</time>
      </trkpt>
      <trkpt lat="37.2057760" lon="-2.7443410">
        <ele>1509.0</ele>
        <time>2020-07-13T09:40:03Z</time>
      </trkpt>
      <trkpt lat="37.2058640" lon="-2.7444170">
        <ele>1509.8</ele>
        <time>2020-07-13T09:40:07Z</time>
      </trkpt>
      <trkpt lat="37.2058840" lon="-2.7444350">
        <ele>1510.0</ele>
        <time>2020-07-13T09:40:08Z</time>
      </trkpt>
      <trkpt lat="37.2060020" lon="-2.7445610">
        <ele>1511.2</ele>
        <time>2020-07-13T09:40:14Z</time>
      </trkpt>
      <trkpt lat="37.2060180" lon="-2.7445820">
        <ele>1511.4</ele>
        <time>2020-07-13T09:40:15Z</time>
      </trkpt>
      <trkpt lat="37.2060900" lon="-2.7446840">
        <ele>1512.2</ele>
        <time>2020-07-13T09:40:19Z</time>
      </trkpt>
      <trkpt lat="37.2061800" lon="-2.7448030">
        <ele>1513.4</ele>
        <time>2020-07-13T09:40:24Z</time>
      </trkpt>
      <trkpt lat="37.2061960" lon="-2.7448290">
        <ele>1513.6</ele>
        <time>2020-07-13T09:40:25Z</time>
      </trkpt>
      <trkpt lat="37.2062480" lon="-2.7449500">
        <ele>1514.4</ele>
        <time>2020-07-13T09:40:29Z</time>
      </trkpt>
      <trkpt lat="37.2062870" lon="-2.7450750">
        <ele>1515.2</ele>
        <time>2020-07-13T09:40:33Z</time>
      </trkpt>
      <trkpt lat="37.2062970" lon="-2.7451060">
        <ele>1515.4</ele>
        <time>2020-07-13T09:40:34Z</time>
      </trkpt>
      <trkpt lat="37.2063400" lon="-2.7452970">
        <ele>1516.4</ele>
        <time>2020-07-13T09:40:40Z</time>
      </trkpt>
      <trkpt lat="37.2063530" lon="-2.7453630">
        <ele>1516.8</ele>
        <time>2020-07-13T09:40:42Z</time>
      </trkpt>
      <trkpt lat="37.2063800" lon="-2.7454910">
        <ele>1517.6</ele>
        <time>2020-07-13T09:40:46Z</time>
      </trkpt>
      <trkpt lat="37.2064200" lon="-2.7456830">
        <ele>1518.6</ele>
        <time>2020-07-13T09:40:52Z</time>
      </trkpt>
      <trkpt lat="37.2064250" lon="-2.7457150">
        <ele>1518.8</ele>
        <time>2020-07-13T09:40:53Z</time>
      </trkpt>
      <trkpt lat="37.2064930" lon="-2.7459270">
        <ele>1519.8</ele>
        <time>2020-07-13T09:41:00Z</time>
      </trkpt>
      <trkpt lat="37.2065660" lon="-2.7460580">
        <ele>1521.0</ele>
        <time>2020-07-13T09:41:05Z</time>
      </trkpt>
      <trkpt lat="37.2066220" lon="-2.7461210">
        <ele>1521.4</ele>
        <time>2020-07-13T09:41:08Z</time>
      </trkpt>
      <trkpt lat="37.2066880" lon="-2.7461760">
        <ele>1522.2</ele>
        <time>2020-07-13T09:41:11Z</time>
      </trkpt>
      <trkpt lat="37.2067640" lon="-2.7462190">
        <ele>1523.0</ele>
        <time>2020-07-13T09:41:14Z</time>
      </trkpt>
      <trkpt lat="37.2068160" lon="-2.7462400">
        <ele>1523.4</ele>
        <time>2020-07-13T09:41:16Z</time>
      </trkpt>
      <trkpt lat="37.2069690" lon="-2.7462850">
        <ele>1524.4</ele>
        <time>2020-07-13T09:41:22Z</time>
      </trkpt>
      <trkpt lat="37.2070300" lon="-2.7463020">
        <ele>1524.8</ele>
        <time>2020-07-13T09:41:24Z</time>
      </trkpt>
      <trkpt lat="37.2071080" lon="-2.7463300">
        <ele>1525.4</ele>
        <time>2020-07-13T09:41:27Z</time>
      </trkpt>
      <trkpt lat="37.2072470" lon="-2.7463750">
        <ele>1526.4</ele>
        <time>2020-07-13T09:41:32Z</time>
      </trkpt>
      <trkpt lat="37.2073280" lon="-2.7464100">
        <ele>1527.0</ele>
        <time>2020-07-13T09:41:35Z</time>
      </trkpt>
      <trkpt lat="37.2073790" lon="-2.7464430">
        <ele>1527.6</ele>
        <time>2020-07-13T09:41:37Z</time>
      </trkpt>
      <trkpt lat="37.2074910" lon="-2.7465580">
        <ele>1528.2</ele>
        <time>2020-07-13T09:41:42Z</time>
      </trkpt>
      <trkpt lat="37.2075310" lon="-2.7466120">
        <ele>1528.6</ele>
        <time>2020-07-13T09:41:44Z</time>
      </trkpt>
      <trkpt lat="37.2076100" lon="-2.7467180">
        <ele>1529.8</ele>
        <time>2020-07-13T09:41:48Z</time>
      </trkpt>
      <trkpt lat="37.2076770" lon="-2.7468350">
        <ele>1531.0</ele>
        <time>2020-07-13T09:41:52Z</time>
      </trkpt>
      <trkpt lat="37.2076920" lon="-2.7468670">
        <ele>1531.2</ele>
        <time>2020-07-13T09:41:53Z</time>
      </trkpt>
      <trkpt lat="37.2077540" lon="-2.7469880">
        <ele>1532.0</ele>
        <time>2020-07-13T09:41:57Z</time>
      </trkpt>
      <trkpt lat="37.2078560" lon="-2.7471930">
        <ele>1532.0</ele>
        <time>2020-07-13T09:42:03Z</time>
      </trkpt>
      <trkpt lat="37.2080070" lon="-2.7475040">
        <ele>1533.0</ele>
        <time>2020-07-13T09:42:11Z</time>
      </trkpt>
      <trkpt lat="37.2080270" lon="-2.7475440">
        <ele>1533.6</ele>
        <time>2020-07-13T09:42:12Z</time>
      </trkpt>
      <trkpt lat="37.2081060" lon="-2.7477100">
        <ele>1534.0</ele>
        <time>2020-07-13T09:42:16Z</time>
      </trkpt>
      <trkpt lat="37.2082120" lon="-2.7479220">
        <ele>1534.2</ele>
        <time>2020-07-13T09:42:21Z</time>
      </trkpt>
      <trkpt lat="37.2083810" lon="-2.7481600">
        <ele>1535.2</ele>
        <time>2020-07-13T09:42:27Z</time>
      </trkpt>
      <trkpt lat="37.2084460" lon="-2.7482340">
        <ele>1535.4</ele>
        <time>2020-07-13T09:42:29Z</time>
      </trkpt>
      <trkpt lat="37.2085760" lon="-2.7483730">
        <ele>1535.4</ele>
        <time>2020-07-13T09:42:33Z</time>
      </trkpt>
      <trkpt lat="37.2087370" lon="-2.7485390">
        <ele>1536.0</ele>
        <time>2020-07-13T09:42:38Z</time>
      </trkpt>
      <trkpt lat="37.2087960" lon="-2.7486010">
        <ele>1536.2</ele>
        <time>2020-07-13T09:42:40Z</time>
      </trkpt>
      <trkpt lat="37.2090300" lon="-2.7488710">
        <ele>1537.0</ele>
        <time>2020-07-13T09:42:48Z</time>
      </trkpt>
      <trkpt lat="37.2090580" lon="-2.7489080">
        <ele>1537.2</ele>
        <time>2020-07-13T09:42:49Z</time>
      </trkpt>
      <trkpt lat="37.2091840" lon="-2.7491410">
        <ele>1538.0</ele>
        <time>2020-07-13T09:42:55Z</time>
      </trkpt>
      <trkpt lat="37.2092010" lon="-2.7491830">
        <ele>1538.4</ele>
        <time>2020-07-13T09:42:56Z</time>
      </trkpt>
      <trkpt lat="37.2092660" lon="-2.7494220">
        <ele>1539.0</ele>
        <time>2020-07-13T09:43:02Z</time>
      </trkpt>
      <trkpt lat="37.2092850" lon="-2.7494930">
        <ele>1539.6</ele>
        <time>2020-07-13T09:43:04Z</time>
      </trkpt>
      <trkpt lat="37.2093290" lon="-2.7496750">
        <ele>1540.8</ele>
        <time>2020-07-13T09:43:09Z</time>
      </trkpt>
      <trkpt lat="37.2093460" lon="-2.7497510">
        <ele>1541.2</ele>
        <time>2020-07-13T09:43:11Z</time>
      </trkpt>
      <trkpt lat="37.2093640" lon="-2.7498650">
        <ele>1541.8</ele>
        <time>2020-07-13T09:43:14Z</time>
      </trkpt>
      <trkpt lat="37.2094110" lon="-2.7500520">
        <ele>1542.8</ele>
        <time>2020-07-13T09:43:19Z</time>
      </trkpt>
      <trkpt lat="37.2094220" lon="-2.7500860">
        <ele>1543.0</ele>
        <time>2020-07-13T09:43:20Z</time>
      </trkpt>
      <trkpt lat="37.2095420" lon="-2.7502740">
        <ele>1543.8</ele>
        <time>2020-07-13T09:43:26Z</time>
      </trkpt>
      <trkpt lat="37.2097130" lon="-2.7503450">
        <ele>1544.8</ele>
        <time>2020-07-13T09:43:32Z</time>
      </trkpt>
      <trkpt lat="37.2097390" lon="-2.7503480">
        <ele>1545.0</ele>
        <time>2020-07-13T09:43:33Z</time>
      </trkpt>
      <trkpt lat="37.2098230" lon="-2.7503400">
        <ele>1546.0</ele>
        <time>2020-07-13T09:43:36Z</time>
      </trkpt>
      <trkpt lat="37.2098740" lon="-2.7503190">
        <ele>1546.6</ele>
        <time>2020-07-13T09:43:38Z</time>
      </trkpt>
      <trkpt lat="37.2099220" lon="-2.7502920">
        <ele>1547.2</ele>
        <time>2020-07-13T09:43:40Z</time>
      </trkpt>
      <trkpt lat="37.2100090" lon="-2.7502000">
        <ele>1548.2</ele>
        <time>2020-07-13T09:43:44Z</time>
      </trkpt>
      <trkpt lat="37.2100250" lon="-2.7501770">
        <ele>1548.2</ele>
        <time>2020-07-13T09:43:45Z</time>
      </trkpt>
      <trkpt lat="37.2100820" lon="-2.7499810">
        <ele>1549.4</ele>
        <time>2020-07-13T09:43:51Z</time>
      </trkpt>
      <trkpt lat="37.2100520" lon="-2.7497730">
        <ele>1550.4</ele>
        <time>2020-07-13T09:43:57Z</time>
      </trkpt>
      <trkpt lat="37.2100390" lon="-2.7497380">
        <ele>1550.6</ele>
        <time>2020-07-13T09:43:58Z</time>
      </trkpt>
      <trkpt lat="37.2099950" lon="-2.7496330">
        <ele>1551.6</ele>
        <time>2020-07-13T09:44:01Z</time>
      </trkpt>
      <trkpt lat="37.2099180" lon="-2.7494710">
        <ele>1552.0</ele>
        <time>2020-07-13T09:44:06Z</time>
      </trkpt>
      <trkpt lat="37.2098370" lon="-2.7493150">
        <ele>1552.8</ele>
        <time>2020-07-13T09:44:11Z</time>
      </trkpt>
      <trkpt lat="37.2097590" lon="-2.7491650">
        <ele>1553.8</ele>
        <time>2020-07-13T09:44:16Z</time>
      </trkpt>
      <trkpt lat="37.2097410" lon="-2.7491340">
        <ele>1554.0</ele>
        <time>2020-07-13T09:44:17Z</time>
      </trkpt>
      <trkpt lat="37.2096530" lon="-2.7489540">
        <ele>1555.2</ele>
        <time>2020-07-13T09:44:23Z</time>
      </trkpt>
      <trkpt lat="37.2096040" lon="-2.7488650">
        <ele>1555.4</ele>
        <time>2020-07-13T09:44:26Z</time>
      </trkpt>
      <trkpt lat="37.2095250" lon="-2.7487170">
        <ele>1556.4</ele>
        <time>2020-07-13T09:44:31Z</time>
      </trkpt>
      <trkpt lat="37.2094420" lon="-2.7485310">
        <ele>1557.2</ele>
        <time>2020-07-13T09:44:37Z</time>
      </trkpt>
      <trkpt lat="37.2094270" lon="-2.7484990">
        <ele>1557.4</ele>
        <time>2020-07-13T09:44:38Z</time>
      </trkpt>
      <trkpt lat="37.2093490" lon="-2.7483460">
        <ele>1558.4</ele>
        <time>2020-07-13T09:44:43Z</time>
      </trkpt>
      <trkpt lat="37.2092860" lon="-2.7482220">
        <ele>1558.8</ele>
        <time>2020-07-13T09:44:47Z</time>
      </trkpt>
      <trkpt lat="37.2092400" lon="-2.7481320">
        <ele>1559.4</ele>
        <time>2020-07-13T09:44:50Z</time>
      </trkpt>
      <trkpt lat="37.2091440" lon="-2.7479460">
        <ele>1560.6</ele>
        <time>2020-07-13T09:44:56Z</time>
      </trkpt>
      <trkpt lat="37.2090400" lon="-2.7477350">
        <ele>1561.6</ele>
        <time>2020-07-13T09:45:03Z</time>
      </trkpt>
      <trkpt lat="37.2090130" lon="-2.7476760">
        <ele>1562.2</ele>
        <time>2020-07-13T09:45:05Z</time>
      </trkpt>
      <trkpt lat="37.2089430" lon="-2.7475310">
        <ele>1562.8</ele>
        <time>2020-07-13T09:45:10Z</time>
      </trkpt>
      <trkpt lat="37.2088830" lon="-2.7474100">
        <ele>1563.8</ele>
        <time>2020-07-13T09:45:14Z</time>
      </trkpt>
      <trkpt lat="37.2088560" lon="-2.7473510">
        <ele>1563.8</ele>
        <time>2020-07-13T09:45:16Z</time>
      </trkpt>
      <trkpt lat="37.2087930" lon="-2.7472260">
        <ele>1565.0</ele>
        <time>2020-07-13T09:45:20Z</time>
      </trkpt>
      <trkpt lat="37.2087610" lon="-2.7471630">
        <ele>1565.6</ele>
        <time>2020-07-13T09:45:22Z</time>
      </trkpt>
      <trkpt lat="37.2086870" lon="-2.7470150">
        <ele>1566.4</ele>
        <time>2020-07-13T09:45:27Z</time>
      </trkpt>
      <trkpt lat="37.2086320" lon="-2.7468960">
        <ele>1567.4</ele>
        <time>2020-07-13T09:45:31Z</time>
      </trkpt>
      <trkpt lat="37.2085440" lon="-2.7466950">
        <ele>1568.6</ele>
        <time>2020-07-13T09:45:38Z</time>
      </trkpt>
      <trkpt lat="37.2085030" lon="-2.7465760">
        <ele>1569.4</ele>
        <time>2020-07-13T09:45:42Z</time>
      </trkpt>
      <trkpt lat="37.2084950" lon="-2.7465450">
        <ele>1569.6</ele>
        <time>2020-07-13T09:45:43Z</time>
      </trkpt>
      <trkpt lat="37.2084460" lon="-2.7463610">
        <ele>1570.8</ele>
        <time>2020-07-13T09:45:49Z</time>
      </trkpt>
      <trkpt lat="37.2084210" lon="-2.7462700">
        <ele>1571.2</ele>
        <time>2020-07-13T09:45:52Z</time>
      </trkpt>
      <trkpt lat="37.2084030" lon="-2.7461780">
        <ele>1571.8</ele>
        <time>2020-07-13T09:45:55Z</time>
      </trkpt>
      <trkpt lat="37.2083830" lon="-2.7460220">
        <ele>1573.0</ele>
        <time>2020-07-13T09:46:00Z</time>
      </trkpt>
      <trkpt lat="37.2083780" lon="-2.7459590">
        <ele>1573.2</ele>
        <time>2020-07-13T09:46:02Z</time>
      </trkpt>
      <trkpt lat="37.2083730" lon="-2.7458370">
        <ele>1574.2</ele>
        <time>2020-07-13T09:46:06Z</time>
      </trkpt>
      <trkpt lat="37.2083780" lon="-2.7456370">
        <ele>1575.2</ele>
        <time>2020-07-13T09:46:12Z</time>
      </trkpt>
      <trkpt lat="37.2083820" lon="-2.7456010">
        <ele>1575.4</ele>
        <time>2020-07-13T09:46:13Z</time>
      </trkpt>
      <trkpt lat="37.2084320" lon="-2.7454020">
        <ele>1576.6</ele>
        <time>2020-07-13T09:46:19Z</time>
      </trkpt>
      <trkpt lat="37.2084430" lon="-2.7453720">
        <ele>1576.8</ele>
        <time>2020-07-13T09:46:20Z</time>
      </trkpt>
      <trkpt lat="37.2085040" lon="-2.7452210">
        <ele>1577.6</ele>
        <time>2020-07-13T09:46:25Z</time>
      </trkpt>
      <trkpt lat="37.2085830" lon="-2.7450760">
        <ele>1578.4</ele>
        <time>2020-07-13T09:46:30Z</time>
      </trkpt>
      <trkpt lat="37.2086000" lon="-2.7450450">
        <ele>1578.6</ele>
        <time>2020-07-13T09:46:31Z</time>
      </trkpt>
      <trkpt lat="37.2086680" lon="-2.7448560">
        <ele>1579.8</ele>
        <time>2020-07-13T09:46:37Z</time>
      </trkpt>
      <trkpt lat="37.2086780" lon="-2.7448250">
        <ele>1580.0</ele>
        <time>2020-07-13T09:46:38Z</time>
      </trkpt>
      <trkpt lat="37.2087290" lon="-2.7446360">
        <ele>1580.8</ele>
        <time>2020-07-13T09:46:44Z</time>
      </trkpt>
      <trkpt lat="37.2087630" lon="-2.7445150">
        <ele>1581.4</ele>
        <time>2020-07-13T09:46:48Z</time>
      </trkpt>
      <trkpt lat="37.2087720" lon="-2.7444860">
        <ele>1582.0</ele>
        <time>2020-07-13T09:46:49Z</time>
      </trkpt>
      <trkpt lat="37.2088120" lon="-2.7443640">
        <ele>1583.0</ele>
        <time>2020-07-13T09:46:53Z</time>
      </trkpt>
      <trkpt lat="37.2088800" lon="-2.7442220">
        <ele>1583.8</ele>
        <time>2020-07-13T09:46:58Z</time>
      </trkpt>
      <trkpt lat="37.2088980" lon="-2.7441960">
        <ele>1584.2</ele>
        <time>2020-07-13T09:46:59Z</time>
      </trkpt>
      <trkpt lat="37.2090540" lon="-2.7440630">
        <ele>1585.2</ele>
        <time>2020-07-13T09:47:06Z</time>
      </trkpt>
      <trkpt lat="37.2090800" lon="-2.7440500">
        <ele>1585.2</ele>
        <time>2020-07-13T09:47:07Z</time>
      </trkpt>
      <trkpt lat="37.2092430" lon="-2.7440060">
        <ele>1586.4</ele>
        <time>2020-07-13T09:47:13Z</time>
      </trkpt>
      <trkpt lat="37.2092700" lon="-2.7440000">
        <ele>1586.6</ele>
        <time>2020-07-13T09:47:14Z</time>
      </trkpt>
      <trkpt lat="37.2094100" lon="-2.7440120">
        <ele>1587.8</ele>
        <time>2020-07-13T09:47:19Z</time>
      </trkpt>
      <trkpt lat="37.2094650" lon="-2.7440170">
        <ele>1588.0</ele>
        <time>2020-07-13T09:47:21Z</time>
      </trkpt>
      <trkpt lat="37.2096030" lon="-2.7440420">
        <ele>1588.8</ele>
        <time>2020-07-13T09:47:26Z</time>
      </trkpt>
      <trkpt lat="37.2097450" lon="-2.7440710">
        <ele>1589.6</ele>
        <time>2020-07-13T09:47:32Z</time>
      </trkpt>
      <trkpt lat="37.2097710" lon="-2.7440770">
        <ele>1589.8</ele>
        <time>2020-07-13T09:47:33Z</time>
      </trkpt>
      <trkpt lat="37.2098970" lon="-2.7441060">
        <ele>1591.0</ele>
        <time>2020-07-13T09:47:38Z</time>
      </trkpt>
      <trkpt lat="37.2099440" lon="-2.7441250">
        <ele>1591.2</ele>
        <time>2020-07-13T09:47:40Z</time>
      </trkpt>
      <trkpt lat="37.2100420" lon="-2.7441680">
        <ele>1592.0</ele>
        <time>2020-07-13T09:47:44Z</time>
      </trkpt>
      <trkpt lat="37.2101500" lon="-2.7442170">
        <ele>1592.4</ele>
        <time>2020-07-13T09:47:48Z</time>
      </trkpt>
      <trkpt lat="37.2102530" lon="-2.7442500">
        <ele>1593.0</ele>
        <time>2020-07-13T09:47:52Z</time>
      </trkpt>
      <trkpt lat="37.2103540" lon="-2.7442970">
        <ele>1594.0</ele>
        <time>2020-07-13T09:47:56Z</time>
      </trkpt>
      <trkpt lat="37.2103810" lon="-2.7443070">
        <ele>1594.0</ele>
        <time>2020-07-13T09:47:57Z</time>
      </trkpt>
      <trkpt lat="37.2105030" lon="-2.7443650">
        <ele>1595.2</ele>
        <time>2020-07-13T09:48:02Z</time>
      </trkpt>
      <trkpt lat="37.2105970" lon="-2.7444100">
        <ele>1596.4</ele>
        <time>2020-07-13T09:48:06Z</time>
      </trkpt>
      <trkpt lat="37.2107560" lon="-2.7444400">
        <ele>1597.4</ele>
        <time>2020-07-13T09:48:12Z</time>
      </trkpt>
      <trkpt lat="37.2108400" lon="-2.7444490">
        <ele>1597.8</ele>
        <time>2020-07-13T09:48:15Z</time>
      </trkpt>
      <trkpt lat="37.2108940" lon="-2.7444530">
        <ele>1598.4</ele>
        <time>2020-07-13T09:48:17Z</time>
      </trkpt>
      <trkpt lat="37.2110250" lon="-2.7444430">
        <ele>1599.6</ele>
        <time>2020-07-13T09:48:22Z</time>
      </trkpt>
      <trkpt lat="37.2110800" lon="-2.7444300">
        <ele>1599.8</ele>
        <time>2020-07-13T09:48:24Z</time>
      </trkpt>
      <trkpt lat="37.2111930" lon="-2.7443890">
        <ele>1600.8</ele>
        <time>2020-07-13T09:48:28Z</time>
      </trkpt>
      <trkpt lat="37.2113070" lon="-2.7443450">
        <ele>1601.6</ele>
        <time>2020-07-13T09:48:32Z</time>
      </trkpt>
      <trkpt lat="37.2113590" lon="-2.7443210">
        <ele>1602.0</ele>
        <time>2020-07-13T09:48:34Z</time>
      </trkpt>
      <trkpt lat="37.2115110" lon="-2.7442380">
        <ele>1602.8</ele>
        <time>2020-07-13T09:48:40Z</time>
      </trkpt>
      <trkpt lat="37.2115650" lon="-2.7442110">
        <ele>1603.2</ele>
        <time>2020-07-13T09:48:42Z</time>
      </trkpt>
      <trkpt lat="37.2116650" lon="-2.7441580">
        <ele>1604.4</ele>
        <time>2020-07-13T09:48:46Z</time>
      </trkpt>
      <trkpt lat="37.2117190" lon="-2.7441350">
        <ele>1604.6</ele>
        <time>2020-07-13T09:48:48Z</time>
      </trkpt>
      <trkpt lat="37.2118160" lon="-2.7440830">
        <ele>1605.6</ele>
        <time>2020-07-13T09:48:52Z</time>
      </trkpt>
      <trkpt lat="37.2119460" lon="-2.7440160">
        <ele>1606.4</ele>
        <time>2020-07-13T09:48:57Z</time>
      </trkpt>
      <trkpt lat="37.2119710" lon="-2.7440060">
        <ele>1606.6</ele>
        <time>2020-07-13T09:48:58Z</time>
      </trkpt>
      <trkpt lat="37.2121520" lon="-2.7439240">
        <ele>1607.6</ele>
        <time>2020-07-13T09:49:05Z</time>
      </trkpt>
      <trkpt lat="37.2121780" lon="-2.7439110">
        <ele>1607.8</ele>
        <time>2020-07-13T09:49:06Z</time>
      </trkpt>
      <trkpt lat="37.2122590" lon="-2.7438730">
        <ele>1608.6</ele>
        <time>2020-07-13T09:49:09Z</time>
      </trkpt>
      <trkpt lat="37.2124400" lon="-2.7437920">
        <ele>1610.0</ele>
        <time>2020-07-13T09:49:16Z</time>
      </trkpt>
      <trkpt lat="37.2125180" lon="-2.7437600">
        <ele>1610.6</ele>
        <time>2020-07-13T09:49:19Z</time>
      </trkpt>
      <trkpt lat="37.2125880" lon="-2.7437240">
        <ele>1611.0</ele>
        <time>2020-07-13T09:49:22Z</time>
      </trkpt>
      <trkpt lat="37.2127550" lon="-2.7436300">
        <ele>1612.2</ele>
        <time>2020-07-13T09:49:29Z</time>
      </trkpt>
      <trkpt lat="37.2127800" lon="-2.7436140">
        <ele>1612.6</ele>
        <time>2020-07-13T09:49:30Z</time>
      </trkpt>
      <trkpt lat="37.2128960" lon="-2.7435480">
        <ele>1613.4</ele>
        <time>2020-07-13T09:49:35Z</time>
      </trkpt>
      <trkpt lat="37.2129910" lon="-2.7435010">
        <ele>1614.6</ele>
        <time>2020-07-13T09:49:39Z</time>
      </trkpt>
      <trkpt lat="37.2131120" lon="-2.7434420">
        <ele>1615.6</ele>
        <time>2020-07-13T09:49:44Z</time>
      </trkpt>
      <trkpt lat="37.2132290" lon="-2.7433880">
        <ele>1616.4</ele>
        <time>2020-07-13T09:49:49Z</time>
      </trkpt>
      <trkpt lat="37.2132760" lon="-2.7433710">
        <ele>1616.8</ele>
        <time>2020-07-13T09:49:51Z</time>
      </trkpt>
      <trkpt lat="37.2134360" lon="-2.7433360">
        <ele>1618.0</ele>
        <time>2020-07-13T09:49:57Z</time>
      </trkpt>
      <trkpt lat="37.2136040" lon="-2.7433310">
        <ele>1619.2</ele>
        <time>2020-07-13T09:50:03Z</time>
      </trkpt>
      <trkpt lat="37.2136860" lon="-2.7433440">
        <ele>1619.8</ele>
        <time>2020-07-13T09:50:06Z</time>
      </trkpt>
      <trkpt lat="37.2137670" lon="-2.7433740">
        <ele>1620.2</ele>
        <time>2020-07-13T09:50:09Z</time>
      </trkpt>
      <trkpt lat="37.2138690" lon="-2.7434240">
        <ele>1621.4</ele>
        <time>2020-07-13T09:50:13Z</time>
      </trkpt>
      <trkpt lat="37.2139180" lon="-2.7434550">
        <ele>1621.6</ele>
        <time>2020-07-13T09:50:15Z</time>
      </trkpt>
      <trkpt lat="37.2140110" lon="-2.7435230">
        <ele>1622.4</ele>
        <time>2020-07-13T09:50:19Z</time>
      </trkpt>
      <trkpt lat="37.2141200" lon="-2.7436200">
        <ele>1623.6</ele>
        <time>2020-07-13T09:50:24Z</time>
      </trkpt>
      <trkpt lat="37.2141380" lon="-2.7436450">
        <ele>1623.6</ele>
        <time>2020-07-13T09:50:25Z</time>
      </trkpt>
      <trkpt lat="37.2142390" lon="-2.7437960">
        <ele>1624.6</ele>
        <time>2020-07-13T09:50:31Z</time>
      </trkpt>
      <trkpt lat="37.2142900" lon="-2.7438680">
        <ele>1625.2</ele>
        <time>2020-07-13T09:50:34Z</time>
      </trkpt>
      <trkpt lat="37.2143260" lon="-2.7439120">
        <ele>1625.8</ele>
        <time>2020-07-13T09:50:36Z</time>
      </trkpt>
      <trkpt lat="37.2144370" lon="-2.7440300">
        <ele>1627.0</ele>
        <time>2020-07-13T09:50:42Z</time>
      </trkpt>
      <trkpt lat="37.2145430" lon="-2.7441380">
        <ele>1628.0</ele>
        <time>2020-07-13T09:50:48Z</time>
      </trkpt>
      <trkpt lat="37.2146150" lon="-2.7442130">
        <ele>1629.2</ele>
        <time>2020-07-13T09:50:52Z</time>
      </trkpt>
      <trkpt lat="37.2147090" lon="-2.7443070">
        <ele>1630.2</ele>
        <time>2020-07-13T09:50:57Z</time>
      </trkpt>
      <trkpt lat="37.2147270" lon="-2.7443270">
        <ele>1630.2</ele>
        <time>2020-07-13T09:50:58Z</time>
      </trkpt>
      <trkpt lat="37.2147990" lon="-2.7444060">
        <ele>1631.4</ele>
        <time>2020-07-13T09:51:02Z</time>
      </trkpt>
      <trkpt lat="37.2148690" lon="-2.7444810">
        <ele>1632.4</ele>
        <time>2020-07-13T09:51:06Z</time>
      </trkpt>
      <trkpt lat="37.2149640" lon="-2.7446110">
        <ele>1633.4</ele>
        <time>2020-07-13T09:51:12Z</time>
      </trkpt>
      <trkpt lat="37.2150090" lon="-2.7446770">
        <ele>1634.0</ele>
        <time>2020-07-13T09:51:15Z</time>
      </trkpt>
      <trkpt lat="37.2150360" lon="-2.7447230">
        <ele>1634.6</ele>
        <time>2020-07-13T09:51:17Z</time>
      </trkpt>
      <trkpt lat="37.2151100" lon="-2.7448360">
        <ele>1635.6</ele>
        <time>2020-07-13T09:51:22Z</time>
      </trkpt>
      <trkpt lat="37.2151350" lon="-2.7448850">
        <ele>1636.2</ele>
        <time>2020-07-13T09:51:24Z</time>
      </trkpt>
      <trkpt lat="37.2151560" lon="-2.7449360">
        <ele>1636.8</ele>
        <time>2020-07-13T09:51:26Z</time>
      </trkpt>
      <trkpt lat="37.2152100" lon="-2.7450980">
        <ele>1638.0</ele>
        <time>2020-07-13T09:51:32Z</time>
      </trkpt>
      <trkpt lat="37.2152270" lon="-2.7451520">
        <ele>1638.4</ele>
        <time>2020-07-13T09:51:34Z</time>
      </trkpt>
      <trkpt lat="37.2152590" lon="-2.7452770">
        <ele>1639.0</ele>
        <time>2020-07-13T09:51:38Z</time>
      </trkpt>
      <trkpt lat="37.2152770" lon="-2.7453650">
        <ele>1639.6</ele>
        <time>2020-07-13T09:51:41Z</time>
      </trkpt>
      <trkpt lat="37.2152940" lon="-2.7454570">
        <ele>1640.2</ele>
        <time>2020-07-13T09:51:44Z</time>
      </trkpt>
      <trkpt lat="37.2153310" lon="-2.7456320">
        <ele>1641.2</ele>
        <time>2020-07-13T09:51:50Z</time>
      </trkpt>
      <trkpt lat="37.2153410" lon="-2.7456590">
        <ele>1641.4</ele>
        <time>2020-07-13T09:51:51Z</time>
      </trkpt>
      <trkpt lat="37.2153960" lon="-2.7458030">
        <ele>1642.6</ele>
        <time>2020-07-13T09:51:56Z</time>
      </trkpt>
      <trkpt lat="37.2154650" lon="-2.7459420">
        <ele>1643.2</ele>
        <time>2020-07-13T09:52:01Z</time>
      </trkpt>
      <trkpt lat="37.2155020" lon="-2.7459910">
        <ele>1643.8</ele>
        <time>2020-07-13T09:52:03Z</time>
      </trkpt>
      <trkpt lat="37.2156060" lon="-2.7460900">
        <ele>1645.0</ele>
        <time>2020-07-13T09:52:08Z</time>
      </trkpt>
      <trkpt lat="37.2156360" lon="-2.7461100">
        <ele>1645.2</ele>
        <time>2020-07-13T09:52:09Z</time>
      </trkpt>
      <trkpt lat="37.2157670" lon="-2.7461700">
        <ele>1646.2</ele>
        <time>2020-07-13T09:52:14Z</time>
      </trkpt>
      <trkpt lat="37.2158760" lon="-2.7462030">
        <ele>1646.8</ele>
        <time>2020-07-13T09:52:18Z</time>
      </trkpt>
      <trkpt lat="37.2159280" lon="-2.7462170">
        <ele>1647.2</ele>
        <time>2020-07-13T09:52:20Z</time>
      </trkpt>
      <trkpt lat="37.2160360" lon="-2.7462340">
        <ele>1648.4</ele>
        <time>2020-07-13T09:52:24Z</time>
      </trkpt>
      <trkpt lat="37.2161180" lon="-2.7462460">
        <ele>1649.2</ele>
        <time>2020-07-13T09:52:27Z</time>
      </trkpt>
      <trkpt lat="37.2161440" lon="-2.7462510">
        <ele>1649.4</ele>
        <time>2020-07-13T09:52:28Z</time>
      </trkpt>
      <trkpt lat="37.2163490" lon="-2.7462880">
        <ele>1650.4</ele>
        <time>2020-07-13T09:52:35Z</time>
      </trkpt>
      <trkpt lat="37.2163780" lon="-2.7462940">
        <ele>1650.6</ele>
        <time>2020-07-13T09:52:36Z</time>
      </trkpt>
      <trkpt lat="37.2165620" lon="-2.7463250">
        <ele>1651.4</ele>
        <time>2020-07-13T09:52:42Z</time>
      </trkpt>
      <trkpt lat="37.2166510" lon="-2.7463400">
        <ele>1651.6</ele>
        <time>2020-07-13T09:52:45Z</time>
      </trkpt>
      <trkpt lat="37.2168260" lon="-2.7463630">
        <ele>1652.4</ele>
        <time>2020-07-13T09:52:51Z</time>
      </trkpt>
      <trkpt lat="37.2169190" lon="-2.7463480">
        <ele>1653.0</ele>
        <time>2020-07-13T09:52:54Z</time>
      </trkpt>
      <trkpt lat="37.2171470" lon="-2.7462480">
        <ele>1653.6</ele>
        <time>2020-07-13T09:53:02Z</time>
      </trkpt>
      <trkpt lat="37.2172300" lon="-2.7462020">
        <ele>1654.8</ele>
        <time>2020-07-13T09:53:05Z</time>
      </trkpt>
      <trkpt lat="37.2174260" lon="-2.7460940">
        <ele>1655.8</ele>
        <time>2020-07-13T09:53:12Z</time>
      </trkpt>
      <trkpt lat="37.2174520" lon="-2.7460790">
        <ele>1656.2</ele>
        <time>2020-07-13T09:53:13Z</time>
      </trkpt>
      <trkpt lat="37.2175870" lon="-2.7459950">
        <ele>1657.0</ele>
        <time>2020-07-13T09:53:18Z</time>
      </trkpt>
      <trkpt lat="37.2177170" lon="-2.7458850">
        <ele>1657.4</ele>
        <time>2020-07-13T09:53:23Z</time>
      </trkpt>
      <trkpt lat="37.2178560" lon="-2.7457310">
        <ele>1658.2</ele>
        <time>2020-07-13T09:53:29Z</time>
      </trkpt>
      <trkpt lat="37.2179220" lon="-2.7456510">
        <ele>1658.8</ele>
        <time>2020-07-13T09:53:32Z</time>
      </trkpt>
      <trkpt lat="37.2179850" lon="-2.7455630">
        <ele>1659.2</ele>
        <time>2020-07-13T09:53:35Z</time>
      </trkpt>
      <trkpt lat="37.2180710" lon="-2.7454440">
        <ele>1660.0</ele>
        <time>2020-07-13T09:53:39Z</time>
      </trkpt>
      <trkpt lat="37.2180910" lon="-2.7454170">
        <ele>1660.2</ele>
        <time>2020-07-13T09:53:40Z</time>
      </trkpt>
      <trkpt lat="37.2182410" lon="-2.7452230">
        <ele>1661.2</ele>
        <time>2020-07-13T09:53:47Z</time>
      </trkpt>
      <trkpt lat="37.2182860" lon="-2.7451710">
        <ele>1661.6</ele>
        <time>2020-07-13T09:53:49Z</time>
      </trkpt>
      <trkpt lat="37.2183960" lon="-2.7450470">
        <ele>1662.4</ele>
        <time>2020-07-13T09:53:54Z</time>
      </trkpt>
      <trkpt lat="37.2185030" lon="-2.7449240">
        <ele>1663.4</ele>
        <time>2020-07-13T09:53:59Z</time>
      </trkpt>
      <trkpt lat="37.2185260" lon="-2.7449020">
        <ele>1663.6</ele>
        <time>2020-07-13T09:54:00Z</time>
      </trkpt>
      <trkpt lat="37.2186070" lon="-2.7448060">
        <ele>1664.4</ele>
        <time>2020-07-13T09:54:04Z</time>
      </trkpt>
      <trkpt lat="37.2187150" lon="-2.7446900">
        <ele>1665.6</ele>
        <time>2020-07-13T09:54:09Z</time>
      </trkpt>
      <trkpt lat="37.2188560" lon="-2.7445690">
        <ele>1666.8</ele>
        <time>2020-07-13T09:54:15Z</time>
      </trkpt>
      <trkpt lat="37.2189120" lon="-2.7445460">
        <ele>1667.2</ele>
        <time>2020-07-13T09:54:17Z</time>
      </trkpt>
      <trkpt lat="37.2190010" lon="-2.7445220">
        <ele>1667.8</ele>
        <time>2020-07-13T09:54:20Z</time>
      </trkpt>
      <trkpt lat="37.2191500" lon="-2.7445270">
        <ele>1668.8</ele>
        <time>2020-07-13T09:54:25Z</time>
      </trkpt>
      <trkpt lat="37.2191790" lon="-2.7445320">
        <ele>1669.0</ele>
        <time>2020-07-13T09:54:26Z</time>
      </trkpt>
      <trkpt lat="37.2193020" lon="-2.7445560">
        <ele>1670.2</ele>
        <time>2020-07-13T09:54:30Z</time>
      </trkpt>
      <trkpt lat="37.2194510" lon="-2.7445790">
        <ele>1670.8</ele>
        <time>2020-07-13T09:54:35Z</time>
      </trkpt>
      <trkpt lat="37.2195140" lon="-2.7445920">
        <ele>1671.2</ele>
        <time>2020-07-13T09:54:37Z</time>
      </trkpt>
      <trkpt lat="37.2196920" lon="-2.7446240">
        <ele>1671.8</ele>
        <time>2020-07-13T09:54:43Z</time>
      </trkpt>
      <trkpt lat="37.2197480" lon="-2.7446280">
        <ele>1672.4</ele>
        <time>2020-07-13T09:54:45Z</time>
      </trkpt>
      <trkpt lat="37.2199290" lon="-2.7446320">
        <ele>1673.6</ele>
        <time>2020-07-13T09:54:51Z</time>
      </trkpt>
      <trkpt lat="37.2199600" lon="-2.7446300">
        <ele>1673.6</ele>
        <time>2020-07-13T09:54:52Z</time>
      </trkpt>
      <trkpt lat="37.2201110" lon="-2.7445740">
        <ele>1674.6</ele>
        <time>2020-07-13T09:54:57Z</time>
      </trkpt>
      <trkpt lat="37.2201360" lon="-2.7445540">
        <ele>1674.8</ele>
        <time>2020-07-13T09:54:58Z</time>
      </trkpt>
      <trkpt lat="37.2202040" lon="-2.7444690">
        <ele>1675.6</ele>
        <time>2020-07-13T09:55:01Z</time>
      </trkpt>
      <trkpt lat="37.2202510" lon="-2.7443640">
        <ele>1676.4</ele>
        <time>2020-07-13T09:55:04Z</time>
      </trkpt>
      <trkpt lat="37.2202610" lon="-2.7442280">
        <ele>1676.8</ele>
        <time>2020-07-13T09:55:07Z</time>
      </trkpt>
      <trkpt lat="37.2202540" lon="-2.7441460">
        <ele>1677.0</ele>
        <time>2020-07-13T09:55:09Z</time>
      </trkpt>
      <trkpt lat="37.2202470" lon="-2.7439220">
        <ele>1678.0</ele>
        <time>2020-07-13T09:55:14Z</time>
      </trkpt>
      <trkpt lat="37.2202520" lon="-2.7437470">
        <ele>1678.6</ele>
        <time>2020-07-13T09:55:18Z</time>
      </trkpt>
      <trkpt lat="37.2202770" lon="-2.7435740">
        <ele>1679.0</ele>
        <time>2020-07-13T09:55:22Z</time>
      </trkpt>
      <trkpt lat="37.2203210" lon="-2.7434100">
        <ele>1680.0</ele>
        <time>2020-07-13T09:55:26Z</time>
      </trkpt>
      <trkpt lat="37.2203410" lon="-2.7433300">
        <ele>1680.0</ele>
        <time>2020-07-13T09:55:28Z</time>
      </trkpt>
      <trkpt lat="37.2204130" lon="-2.7430930">
        <ele>1681.2</ele>
        <time>2020-07-13T09:55:34Z</time>
      </trkpt>
      <trkpt lat="37.2204320" lon="-2.7430150">
        <ele>1681.4</ele>
        <time>2020-07-13T09:55:36Z</time>
      </trkpt>
      <trkpt lat="37.2204940" lon="-2.7427900">
        <ele>1682.4</ele>
        <time>2020-07-13T09:55:42Z</time>
      </trkpt>
      <trkpt lat="37.2205200" lon="-2.7427220">
        <ele>1682.6</ele>
        <time>2020-07-13T09:55:44Z</time>
      </trkpt>
      <trkpt lat="37.2205650" lon="-2.7425820">
        <ele>1683.4</ele>
        <time>2020-07-13T09:55:48Z</time>
      </trkpt>
      <trkpt lat="37.2206130" lon="-2.7424360">
        <ele>1684.2</ele>
        <time>2020-07-13T09:55:52Z</time>
      </trkpt>
      <trkpt lat="37.2206370" lon="-2.7423620">
        <ele>1684.4</ele>
        <time>2020-07-13T09:55:54Z</time>
      </trkpt>
      <trkpt lat="37.2207560" lon="-2.7421010">
        <ele>1685.6</ele>
        <time>2020-07-13T09:56:02Z</time>
      </trkpt>
      <trkpt lat="37.2208980" lon="-2.7417990">
        <ele>1686.8</ele>
        <time>2020-07-13T09:56:11Z</time>
      </trkpt>
      <trkpt lat="37.2209120" lon="-2.7417600">
        <ele>1687.0</ele>
        <time>2020-07-13T09:56:12Z</time>
      </trkpt>
      <trkpt lat="37.2209480" lon="-2.7416090">
        <ele>1687.8</ele>
        <time>2020-07-13T09:56:16Z</time>
      </trkpt>
      <trkpt lat="37.2209530" lon="-2.7414860">
        <ele>1688.4</ele>
        <time>2020-07-13T09:56:19Z</time>
      </trkpt>
      <trkpt lat="37.2209380" lon="-2.7412980">
        <ele>1688.8</ele>
        <time>2020-07-13T09:56:24Z</time>
      </trkpt>
      <trkpt lat="37.2209270" lon="-2.7411510">
        <ele>1689.4</ele>
        <time>2020-07-13T09:56:28Z</time>
      </trkpt>
      <trkpt lat="37.2209130" lon="-2.7410420">
        <ele>1690.2</ele>
        <time>2020-07-13T09:56:31Z</time>
      </trkpt>
      <trkpt lat="37.2208870" lon="-2.7408620">
        <ele>1691.2</ele>
        <time>2020-07-13T09:56:36Z</time>
      </trkpt>
      <trkpt lat="37.2208820" lon="-2.7408230">
        <ele>1691.4</ele>
        <time>2020-07-13T09:56:37Z</time>
      </trkpt>
      <trkpt lat="37.2208610" lon="-2.7404930">
        <ele>1692.4</ele>
        <time>2020-07-13T09:56:46Z</time>
      </trkpt>
      <trkpt lat="37.2208460" lon="-2.7402620">
        <ele>1693.0</ele>
        <time>2020-07-13T09:56:52Z</time>
      </trkpt>
      <trkpt lat="37.2208420" lon="-2.7401820">
        <ele>1693.6</ele>
        <time>2020-07-13T09:56:54Z</time>
      </trkpt>
      <trkpt lat="37.2208350" lon="-2.7400740">
        <ele>1694.2</ele>
        <time>2020-07-13T09:56:57Z</time>
      </trkpt>
      <trkpt lat="37.2208080" lon="-2.7399530">
        <ele>1694.6</ele>
        <time>2020-07-13T09:57:00Z</time>
      </trkpt>
      <trkpt lat="37.2207910" lon="-2.7398170">
        <ele>1695.4</ele>
        <time>2020-07-13T09:57:03Z</time>
      </trkpt>
      <trkpt lat="37.2207850" lon="-2.7397000">
        <ele>1695.8</ele>
        <time>2020-07-13T09:57:06Z</time>
      </trkpt>
      <trkpt lat="37.2207930" lon="-2.7394740">
        <ele>1697.0</ele>
        <time>2020-07-13T09:57:12Z</time>
      </trkpt>
      <trkpt lat="37.2208580" lon="-2.7392670">
        <ele>1698.0</ele>
        <time>2020-07-13T09:57:18Z</time>
      </trkpt>
      <trkpt lat="37.2208930" lon="-2.7392070">
        <ele>1698.8</ele>
        <time>2020-07-13T09:57:20Z</time>
      </trkpt>
      <trkpt lat="37.2209310" lon="-2.7391510">
        <ele>1699.4</ele>
        <time>2020-07-13T09:57:22Z</time>
      </trkpt>
      <trkpt lat="37.2210740" lon="-2.7390130">
        <ele>1700.4</ele>
        <time>2020-07-13T09:57:28Z</time>
      </trkpt>
      <trkpt lat="37.2212590" lon="-2.7388650">
        <ele>1701.6</ele>
        <time>2020-07-13T09:57:35Z</time>
      </trkpt>
      <trkpt lat="37.2214070" lon="-2.7387710">
        <ele>1702.8</ele>
        <time>2020-07-13T09:57:40Z</time>
      </trkpt>
      <trkpt lat="37.2215490" lon="-2.7386480">
        <ele>1703.6</ele>
        <time>2020-07-13T09:57:45Z</time>
      </trkpt>
      <trkpt lat="37.2215930" lon="-2.7385910">
        <ele>1703.8</ele>
        <time>2020-07-13T09:57:47Z</time>
      </trkpt>
      <trkpt lat="37.2216780" lon="-2.7384300">
        <ele>1704.6</ele>
        <time>2020-07-13T09:57:52Z</time>
      </trkpt>
      <trkpt lat="37.2216930" lon="-2.7383970">
        <ele>1705.0</ele>
        <time>2020-07-13T09:57:53Z</time>
      </trkpt>
      <trkpt lat="37.2217300" lon="-2.7383410">
        <ele>1705.8</ele>
        <time>2020-07-13T09:57:59Z</time>
      </trkpt>
      <trkpt lat="37.2217670" lon="-2.7382850">
        <ele>1706.0</ele>
        <time>2020-07-13T09:58:00Z</time>
      </trkpt>
      <trkpt lat="37.2218410" lon="-2.7381720">
        <ele>1706.2</ele>
        <time>2020-07-13T09:58:01Z</time>
      </trkpt>
      <trkpt lat="37.2218630" lon="-2.7381440">
        <ele>1706.4</ele>
        <time>2020-07-13T09:58:02Z</time>
      </trkpt>
      <trkpt lat="37.2219310" lon="-2.7380750">
        <ele>1707.2</ele>
        <time>2020-07-13T09:58:05Z</time>
      </trkpt>
      <trkpt lat="37.2220130" lon="-2.7379750">
        <ele>1708.0</ele>
        <time>2020-07-13T09:58:09Z</time>
      </trkpt>
      <trkpt lat="37.2220370" lon="-2.7379470">
        <ele>1708.4</ele>
        <time>2020-07-13T09:58:10Z</time>
      </trkpt>
      <trkpt lat="37.2221660" lon="-2.7378070">
        <ele>1709.4</ele>
        <time>2020-07-13T09:58:16Z</time>
      </trkpt>
      <trkpt lat="37.2222110" lon="-2.7377640">
        <ele>1710.0</ele>
        <time>2020-07-13T09:58:18Z</time>
      </trkpt>
      <trkpt lat="37.2222700" lon="-2.7376940">
        <ele>1710.6</ele>
        <time>2020-07-13T09:58:21Z</time>
      </trkpt>
      <trkpt lat="37.2223750" lon="-2.7375270">
        <ele>1711.2</ele>
        <time>2020-07-13T09:58:27Z</time>
      </trkpt>
      <trkpt lat="37.2223980" lon="-2.7374600">
        <ele>1711.6</ele>
        <time>2020-07-13T09:58:29Z</time>
      </trkpt>
      <trkpt lat="37.2224320" lon="-2.7372540">
        <ele>1712.6</ele>
        <time>2020-07-13T09:58:35Z</time>
      </trkpt>
      <trkpt lat="37.2224460" lon="-2.7370740">
        <ele>1713.8</ele>
        <time>2020-07-13T09:58:40Z</time>
      </trkpt>
      <trkpt lat="37.2224610" lon="-2.7370040">
        <ele>1714.2</ele>
        <time>2020-07-13T09:58:42Z</time>
      </trkpt>
      <trkpt lat="37.2224900" lon="-2.7368710">
        <ele>1714.8</ele>
        <time>2020-07-13T09:58:46Z</time>
      </trkpt>
      <trkpt lat="37.2225580" lon="-2.7367130">
        <ele>1715.8</ele>
        <time>2020-07-13T09:58:51Z</time>
      </trkpt>
      <trkpt lat="37.2225780" lon="-2.7366880">
        <ele>1716.2</ele>
        <time>2020-07-13T09:58:52Z</time>
      </trkpt>
      <trkpt lat="37.2227110" lon="-2.7366120">
        <ele>1717.2</ele>
        <time>2020-07-13T09:58:57Z</time>
      </trkpt>
      <trkpt lat="37.2228750" lon="-2.7366480">
        <ele>1717.8</ele>
        <time>2020-07-13T09:59:03Z</time>
      </trkpt>
      <trkpt lat="37.2229000" lon="-2.7366660">
        <ele>1718.2</ele>
        <time>2020-07-13T09:59:04Z</time>
      </trkpt>
      <trkpt lat="37.2229840" lon="-2.7368110">
        <ele>1719.2</ele>
        <time>2020-07-13T09:59:09Z</time>
      </trkpt>
      <trkpt lat="37.2230050" lon="-2.7369530">
        <ele>1720.4</ele>
        <time>2020-07-13T09:59:13Z</time>
      </trkpt>
      <trkpt lat="37.2229960" lon="-2.7370550">
        <ele>1721.4</ele>
        <time>2020-07-13T09:59:16Z</time>
      </trkpt>
      <trkpt lat="37.2229480" lon="-2.7372280">
        <ele>1722.6</ele>
        <time>2020-07-13T09:59:21Z</time>
      </trkpt>
      <trkpt lat="37.2229020" lon="-2.7373240">
        <ele>1723.0</ele>
        <time>2020-07-13T09:59:24Z</time>
      </trkpt>
      <trkpt lat="37.2228390" lon="-2.7374360">
        <ele>1723.6</ele>
        <time>2020-07-13T09:59:28Z</time>
      </trkpt>
      <trkpt lat="37.2227320" lon="-2.7375940">
        <ele>1724.2</ele>
        <time>2020-07-13T09:59:34Z</time>
      </trkpt>
      <trkpt lat="37.2226780" lon="-2.7376740">
        <ele>1725.0</ele>
        <time>2020-07-13T09:59:37Z</time>
      </trkpt>
      <trkpt lat="37.2225950" lon="-2.7378130">
        <ele>1725.8</ele>
        <time>2020-07-13T09:59:42Z</time>
      </trkpt>
      <trkpt lat="37.2225770" lon="-2.7378410">
        <ele>1726.2</ele>
        <time>2020-07-13T09:59:43Z</time>
      </trkpt>
      <trkpt lat="37.2224750" lon="-2.7380850">
        <ele>1727.2</ele>
        <time>2020-07-13T09:59:51Z</time>
      </trkpt>
      <trkpt lat="37.2224060" lon="-2.7382370">
        <ele>1728.2</ele>
        <time>2020-07-13T09:59:56Z</time>
      </trkpt>
      <trkpt lat="37.2223390" lon="-2.7384320">
        <ele>1729.6</ele>
        <time>2020-07-13T10:00:02Z</time>
      </trkpt>
      <trkpt lat="37.2223310" lon="-2.7384660">
        <ele>1729.8</ele>
        <time>2020-07-13T10:00:03Z</time>
      </trkpt>
      <trkpt lat="37.2222860" lon="-2.7387420">
        <ele>1730.8</ele>
        <time>2020-07-13T10:00:11Z</time>
      </trkpt>
      <trkpt lat="37.2222740" lon="-2.7388150">
        <ele>1731.0</ele>
        <time>2020-07-13T10:00:13Z</time>
      </trkpt>
      <trkpt lat="37.2222570" lon="-2.7389570">
        <ele>1732.0</ele>
        <time>2020-07-13T10:00:17Z</time>
      </trkpt>
      <trkpt lat="37.2222290" lon="-2.7391270">
        <ele>1732.6</ele>
        <time>2020-07-13T10:00:22Z</time>
      </trkpt>
      <trkpt lat="37.2222050" lon="-2.7392340">
        <ele>1733.2</ele>
        <time>2020-07-13T10:00:25Z</time>
      </trkpt>
      <trkpt lat="37.2221790" lon="-2.7393770">
        <ele>1733.6</ele>
        <time>2020-07-13T10:00:29Z</time>
      </trkpt>
      <trkpt lat="37.2221610" lon="-2.7394850">
        <ele>1734.4</ele>
        <time>2020-07-13T10:00:32Z</time>
      </trkpt>
      <trkpt lat="37.2221320" lon="-2.7396940">
        <ele>1735.4</ele>
        <time>2020-07-13T10:00:38Z</time>
      </trkpt>
      <trkpt lat="37.2221250" lon="-2.7397280">
        <ele>1735.8</ele>
        <time>2020-07-13T10:00:39Z</time>
      </trkpt>
      <trkpt lat="37.2221100" lon="-2.7398310">
        <ele>1736.4</ele>
        <time>2020-07-13T10:00:42Z</time>
      </trkpt>
      <trkpt lat="37.2220670" lon="-2.7399950">
        <ele>1737.4</ele>
        <time>2020-07-13T10:00:47Z</time>
      </trkpt>
      <trkpt lat="37.2220580" lon="-2.7400290">
        <ele>1737.6</ele>
        <time>2020-07-13T10:00:48Z</time>
      </trkpt>
      <trkpt lat="37.2220250" lon="-2.7402370">
        <ele>1737.8</ele>
        <time>2020-07-13T10:00:55Z</time>
      </trkpt>
      <trkpt lat="37.2220190" lon="-2.7403640">
        <ele>1738.8</ele>
        <time>2020-07-13T10:00:59Z</time>
      </trkpt>
      <trkpt lat="37.2220300" lon="-2.7404560">
        <ele>1739.8</ele>
        <time>2020-07-13T10:01:02Z</time>
      </trkpt>
      <trkpt lat="37.2220340" lon="-2.7404880">
        <ele>1740.0</ele>
        <time>2020-07-13T10:01:03Z</time>
      </trkpt>
      <trkpt lat="37.2220900" lon="-2.7406890">
        <ele>1740.8</ele>
        <time>2020-07-13T10:01:09Z</time>
      </trkpt>
      <trkpt lat="37.2221200" lon="-2.7407490">
        <ele>1741.2</ele>
        <time>2020-07-13T10:01:11Z</time>
      </trkpt>
      <trkpt lat="37.2222460" lon="-2.7409470">
        <ele>1742.4</ele>
        <time>2020-07-13T10:01:18Z</time>
      </trkpt>
      <trkpt lat="37.2223720" lon="-2.7410930">
        <ele>1743.4</ele>
        <time>2020-07-13T10:01:24Z</time>
      </trkpt>
      <trkpt lat="37.2224120" lon="-2.7411420">
        <ele>1744.2</ele>
        <time>2020-07-13T10:01:26Z</time>
      </trkpt>
      <trkpt lat="37.2224510" lon="-2.7411930">
        <ele>1744.6</ele>
        <time>2020-07-13T10:01:28Z</time>
      </trkpt>
      <trkpt lat="37.2225670" lon="-2.7413510">
        <ele>1745.6</ele>
        <time>2020-07-13T10:01:34Z</time>
      </trkpt>
      <trkpt lat="37.2225810" lon="-2.7413840">
        <ele>1745.6</ele>
        <time>2020-07-13T10:01:35Z</time>
      </trkpt>
      <trkpt lat="37.2226210" lon="-2.7415900">
        <ele>1746.4</ele>
        <time>2020-07-13T10:01:41Z</time>
      </trkpt>
      <trkpt lat="37.2226180" lon="-2.7416280">
        <ele>1746.8</ele>
        <time>2020-07-13T10:01:42Z</time>
      </trkpt>
      <trkpt lat="37.2225870" lon="-2.7418030">
        <ele>1748.0</ele>
        <time>2020-07-13T10:01:47Z</time>
      </trkpt>
      <trkpt lat="37.2225780" lon="-2.7418380">
        <ele>1748.0</ele>
        <time>2020-07-13T10:01:48Z</time>
      </trkpt>
      <trkpt lat="37.2225380" lon="-2.7420100">
        <ele>1749.2</ele>
        <time>2020-07-13T10:01:53Z</time>
      </trkpt>
      <trkpt lat="37.2224930" lon="-2.7422190">
        <ele>1749.8</ele>
        <time>2020-07-13T10:01:59Z</time>
      </trkpt>
      <trkpt lat="37.2224620" lon="-2.7423210">
        <ele>1750.4</ele>
        <time>2020-07-13T10:02:02Z</time>
      </trkpt>
      <trkpt lat="37.2224060" lon="-2.7425120">
        <ele>1751.6</ele>
        <time>2020-07-13T10:02:08Z</time>
      </trkpt>
      <trkpt lat="37.2223790" lon="-2.7426030">
        <ele>1752.2</ele>
        <time>2020-07-13T10:02:11Z</time>
      </trkpt>
      <trkpt lat="37.2223650" lon="-2.7426660">
        <ele>1752.6</ele>
        <time>2020-07-13T10:02:13Z</time>
      </trkpt>
      <trkpt lat="37.2223180" lon="-2.7428500">
        <ele>1753.6</ele>
        <time>2020-07-13T10:02:19Z</time>
      </trkpt>
      <trkpt lat="37.2223010" lon="-2.7429050">
        <ele>1753.8</ele>
        <time>2020-07-13T10:02:21Z</time>
      </trkpt>
      <trkpt lat="37.2222730" lon="-2.7430550">
        <ele>1754.2</ele>
        <time>2020-07-13T10:02:26Z</time>
      </trkpt>
      <trkpt lat="37.2222640" lon="-2.7431500">
        <ele>1755.0</ele>
        <time>2020-07-13T10:02:29Z</time>
      </trkpt>
      <trkpt lat="37.2222580" lon="-2.7432790">
        <ele>1756.2</ele>
        <time>2020-07-13T10:02:33Z</time>
      </trkpt>
      <trkpt lat="37.2222600" lon="-2.7433500">
        <ele>1756.6</ele>
        <time>2020-07-13T10:02:35Z</time>
      </trkpt>
      <trkpt lat="37.2222750" lon="-2.7434920">
        <ele>1757.2</ele>
        <time>2020-07-13T10:02:39Z</time>
      </trkpt>
      <trkpt lat="37.2222980" lon="-2.7436180">
        <ele>1757.8</ele>
        <time>2020-07-13T10:02:43Z</time>
      </trkpt>
      <trkpt lat="37.2223260" lon="-2.7437080">
        <ele>1758.2</ele>
        <time>2020-07-13T10:02:46Z</time>
      </trkpt>
      <trkpt lat="37.2223720" lon="-2.7438420">
        <ele>1759.4</ele>
        <time>2020-07-13T10:02:50Z</time>
      </trkpt>
      <trkpt lat="37.2223950" lon="-2.7439050">
        <ele>1759.8</ele>
        <time>2020-07-13T10:02:52Z</time>
      </trkpt>
      <trkpt lat="37.2224390" lon="-2.7440460">
        <ele>1760.4</ele>
        <time>2020-07-13T10:02:56Z</time>
      </trkpt>
      <trkpt lat="37.2224920" lon="-2.7442200">
        <ele>1761.2</ele>
        <time>2020-07-13T10:03:01Z</time>
      </trkpt>
      <trkpt lat="37.2225150" lon="-2.7442920">
        <ele>1761.6</ele>
        <time>2020-07-13T10:03:03Z</time>
      </trkpt>
      <trkpt lat="37.2226160" lon="-2.7445700">
        <ele>1762.2</ele>
        <time>2020-07-13T10:03:11Z</time>
      </trkpt>
      <trkpt lat="37.2226420" lon="-2.7446420">
        <ele>1762.6</ele>
        <time>2020-07-13T10:03:13Z</time>
      </trkpt>
      <trkpt lat="37.2227200" lon="-2.7448470">
        <ele>1763.8</ele>
        <time>2020-07-13T10:03:19Z</time>
      </trkpt>
      <trkpt lat="37.2228060" lon="-2.7450090">
        <ele>1764.4</ele>
        <time>2020-07-13T10:03:24Z</time>
      </trkpt>
      <trkpt lat="37.2229440" lon="-2.7451800">
        <ele>1765.0</ele>
        <time>2020-07-13T10:03:30Z</time>
      </trkpt>
      <trkpt lat="37.2229870" lon="-2.7452390">
        <ele>1765.6</ele>
        <time>2020-07-13T10:03:32Z</time>
      </trkpt>
      <trkpt lat="37.2230230" lon="-2.7453020">
        <ele>1766.2</ele>
        <time>2020-07-13T10:03:34Z</time>
      </trkpt>
      <trkpt lat="37.2230720" lon="-2.7454880">
        <ele>1766.6</ele>
        <time>2020-07-13T10:03:39Z</time>
      </trkpt>
      <trkpt lat="37.2230600" lon="-2.7456450">
        <ele>1767.6</ele>
        <time>2020-07-13T10:03:43Z</time>
      </trkpt>
      <trkpt lat="37.2230380" lon="-2.7457560">
        <ele>1768.2</ele>
        <time>2020-07-13T10:03:46Z</time>
      </trkpt>
      <trkpt lat="37.2230180" lon="-2.7459120">
        <ele>1768.6</ele>
        <time>2020-07-13T10:03:50Z</time>
      </trkpt>
      <trkpt lat="37.2230090" lon="-2.7460190">
        <ele>1768.8</ele>
        <time>2020-07-13T10:03:53Z</time>
      </trkpt>
      <trkpt lat="37.2230030" lon="-2.7461530">
        <ele>1769.6</ele>
        <time>2020-07-13T10:03:57Z</time>
      </trkpt>
      <trkpt lat="37.2230040" lon="-2.7463150">
        <ele>1770.8</ele>
        <time>2020-07-13T10:04:02Z</time>
      </trkpt>
      <trkpt lat="37.2230090" lon="-2.7464740">
        <ele>1771.8</ele>
        <time>2020-07-13T10:04:07Z</time>
      </trkpt>
      <trkpt lat="37.2230170" lon="-2.7466670">
        <ele>1772.8</ele>
        <time>2020-07-13T10:04:13Z</time>
      </trkpt>
      <trkpt lat="37.2230170" lon="-2.7466990">
        <ele>1773.2</ele>
        <time>2020-07-13T10:04:14Z</time>
      </trkpt>
      <trkpt lat="37.2230230" lon="-2.7468590">
        <ele>1774.2</ele>
        <time>2020-07-13T10:04:19Z</time>
      </trkpt>
      <trkpt lat="37.2230260" lon="-2.7468900">
        <ele>1774.4</ele>
        <time>2020-07-13T10:04:20Z</time>
      </trkpt>
      <trkpt lat="37.2230560" lon="-2.7471080">
        <ele>1775.4</ele>
        <time>2020-07-13T10:04:27Z</time>
      </trkpt>
      <trkpt lat="37.2230870" lon="-2.7472240">
        <ele>1776.4</ele>
        <time>2020-07-13T10:04:31Z</time>
      </trkpt>
      <trkpt lat="37.2231000" lon="-2.7472530">
        <ele>1776.4</ele>
        <time>2020-07-13T10:04:32Z</time>
      </trkpt>
      <trkpt lat="37.2231920" lon="-2.7474110">
        <ele>1777.6</ele>
        <time>2020-07-13T10:04:38Z</time>
      </trkpt>
      <trkpt lat="37.2232700" lon="-2.7475130">
        <ele>1778.6</ele>
        <time>2020-07-13T10:04:42Z</time>
      </trkpt>
      <trkpt lat="37.2233350" lon="-2.7475750">
        <ele>1779.2</ele>
        <time>2020-07-13T10:04:45Z</time>
      </trkpt>
      <trkpt lat="37.2234020" lon="-2.7476350">
        <ele>1779.8</ele>
        <time>2020-07-13T10:04:48Z</time>
      </trkpt>
      <trkpt lat="37.2235270" lon="-2.7477640">
        <ele>1780.8</ele>
        <time>2020-07-13T10:04:54Z</time>
      </trkpt>
      <trkpt lat="37.2236180" lon="-2.7478890">
        <ele>1781.8</ele>
        <time>2020-07-13T10:04:59Z</time>
      </trkpt>
      <trkpt lat="37.2236760" lon="-2.7480310">
        <ele>1782.6</ele>
        <time>2020-07-13T10:05:04Z</time>
      </trkpt>
      <trkpt lat="37.2236870" lon="-2.7480990">
        <ele>1783.0</ele>
        <time>2020-07-13T10:05:06Z</time>
      </trkpt>
      <trkpt lat="37.2236680" lon="-2.7482400">
        <ele>1783.8</ele>
        <time>2020-07-13T10:05:10Z</time>
      </trkpt>
      <trkpt lat="37.2236600" lon="-2.7482730">
        <ele>1784.0</ele>
        <time>2020-07-13T10:05:11Z</time>
      </trkpt>
      <trkpt lat="37.2236000" lon="-2.7484700">
        <ele>1785.2</ele>
        <time>2020-07-13T10:05:17Z</time>
      </trkpt>
      <trkpt lat="37.2235910" lon="-2.7485020">
        <ele>1785.4</ele>
        <time>2020-07-13T10:05:18Z</time>
      </trkpt>
      <trkpt lat="37.2235230" lon="-2.7486980">
        <ele>1786.4</ele>
        <time>2020-07-13T10:05:24Z</time>
      </trkpt>
      <trkpt lat="37.2234980" lon="-2.7488000">
        <ele>1787.0</ele>
        <time>2020-07-13T10:05:27Z</time>
      </trkpt>
      <trkpt lat="37.2234850" lon="-2.7488700">
        <ele>1787.6</ele>
        <time>2020-07-13T10:05:29Z</time>
      </trkpt>
      <trkpt lat="37.2234650" lon="-2.7490770">
        <ele>1788.6</ele>
        <time>2020-07-13T10:05:35Z</time>
      </trkpt>
      <trkpt lat="37.2234660" lon="-2.7491110">
        <ele>1788.8</ele>
        <time>2020-07-13T10:05:36Z</time>
      </trkpt>
      <trkpt lat="37.2234740" lon="-2.7492210">
        <ele>1789.8</ele>
        <time>2020-07-13T10:05:39Z</time>
      </trkpt>
      <trkpt lat="37.2235230" lon="-2.7494250">
        <ele>1790.4</ele>
        <time>2020-07-13T10:05:45Z</time>
      </trkpt>
      <trkpt lat="37.2235580" lon="-2.7495220">
        <ele>1790.8</ele>
        <time>2020-07-13T10:05:48Z</time>
      </trkpt>
      <trkpt lat="37.2235940" lon="-2.7496160">
        <ele>1791.8</ele>
        <time>2020-07-13T10:05:51Z</time>
      </trkpt>
      <trkpt lat="37.2236080" lon="-2.7496450">
        <ele>1792.0</ele>
        <time>2020-07-13T10:05:52Z</time>
      </trkpt>
      <trkpt lat="37.2236720" lon="-2.7497620">
        <ele>1792.8</ele>
        <time>2020-07-13T10:05:56Z</time>
      </trkpt>
      <trkpt lat="37.2237330" lon="-2.7498430">
        <ele>1793.2</ele>
        <time>2020-07-13T10:05:59Z</time>
      </trkpt>
      <trkpt lat="37.2238310" lon="-2.7499750">
        <ele>1794.2</ele>
        <time>2020-07-13T10:06:04Z</time>
      </trkpt>
      <trkpt lat="37.2238490" lon="-2.7499960">
        <ele>1794.4</ele>
        <time>2020-07-13T10:06:05Z</time>
      </trkpt>
      <trkpt lat="37.2239520" lon="-2.7501240">
        <ele>1795.6</ele>
        <time>2020-07-13T10:06:10Z</time>
      </trkpt>
      <trkpt lat="37.2240620" lon="-2.7502380">
        <ele>1796.6</ele>
        <time>2020-07-13T10:06:15Z</time>
      </trkpt>
      <trkpt lat="37.2242260" lon="-2.7503740">
        <ele>1797.6</ele>
        <time>2020-07-13T10:06:22Z</time>
      </trkpt>
      <trkpt lat="37.2242770" lon="-2.7504020">
        <ele>1798.6</ele>
        <time>2020-07-13T10:06:24Z</time>
      </trkpt>
      <trkpt lat="37.2243240" lon="-2.7504270">
        <ele>1798.8</ele>
        <time>2020-07-13T10:06:26Z</time>
      </trkpt>
      <trkpt lat="37.2244880" lon="-2.7505230">
        <ele>1799.8</ele>
        <time>2020-07-13T10:06:33Z</time>
      </trkpt>
      <trkpt lat="37.2245370" lon="-2.7505520">
        <ele>1800.4</ele>
        <time>2020-07-13T10:06:35Z</time>
      </trkpt>
      <trkpt lat="37.2245920" lon="-2.7505800">
        <ele>1800.8</ele>
        <time>2020-07-13T10:06:37Z</time>
      </trkpt>
      <trkpt lat="37.2246940" lon="-2.7506240">
        <ele>1802.0</ele>
        <time>2020-07-13T10:06:41Z</time>
      </trkpt>
      <trkpt lat="37.2247220" lon="-2.7506360">
        <ele>1802.2</ele>
        <time>2020-07-13T10:06:42Z</time>
      </trkpt>
      <trkpt lat="37.2249500" lon="-2.7507300">
        <ele>1803.0</ele>
        <time>2020-07-13T10:06:51Z</time>
      </trkpt>
      <trkpt lat="37.2250300" lon="-2.7507480">
        <ele>1803.4</ele>
        <time>2020-07-13T10:06:54Z</time>
      </trkpt>
      <trkpt lat="37.2251040" lon="-2.7507660">
        <ele>1804.2</ele>
        <time>2020-07-13T10:06:57Z</time>
      </trkpt>
      <trkpt lat="37.2251990" lon="-2.7507960">
        <ele>1805.0</ele>
        <time>2020-07-13T10:07:01Z</time>
      </trkpt>
      <trkpt lat="37.2252500" lon="-2.7508070">
        <ele>1805.4</ele>
        <time>2020-07-13T10:07:03Z</time>
      </trkpt>
      <trkpt lat="37.2253500" lon="-2.7508270">
        <ele>1806.4</ele>
        <time>2020-07-13T10:07:07Z</time>
      </trkpt>
      <trkpt lat="37.2253740" lon="-2.7508350">
        <ele>1806.6</ele>
        <time>2020-07-13T10:07:08Z</time>
      </trkpt>
      <trkpt lat="37.2255410" lon="-2.7508780">
        <ele>1807.4</ele>
        <time>2020-07-13T10:07:15Z</time>
      </trkpt>
      <trkpt lat="37.2256740" lon="-2.7509020">
        <ele>1808.6</ele>
        <time>2020-07-13T10:07:20Z</time>
      </trkpt>
      <trkpt lat="37.2257270" lon="-2.7509130">
        <ele>1809.0</ele>
        <time>2020-07-13T10:07:22Z</time>
      </trkpt>
      <trkpt lat="37.2258400" lon="-2.7509260">
        <ele>1809.8</ele>
        <time>2020-07-13T10:07:26Z</time>
      </trkpt>
      <trkpt lat="37.2259800" lon="-2.7509520">
        <ele>1810.8</ele>
        <time>2020-07-13T10:07:31Z</time>
      </trkpt>
      <trkpt lat="37.2260370" lon="-2.7509620">
        <ele>1811.0</ele>
        <time>2020-07-13T10:07:33Z</time>
      </trkpt>
      <trkpt lat="37.2261480" lon="-2.7509800">
        <ele>1811.8</ele>
        <time>2020-07-13T10:07:37Z</time>
      </trkpt>
      <trkpt lat="37.2262330" lon="-2.7509990">
        <ele>1813.0</ele>
        <time>2020-07-13T10:07:40Z</time>
      </trkpt>
      <trkpt lat="37.2263210" lon="-2.7510180">
        <ele>1813.4</ele>
        <time>2020-07-13T10:07:43Z</time>
      </trkpt>
      <trkpt lat="37.2264400" lon="-2.7510390">
        <ele>1814.0</ele>
        <time>2020-07-13T10:07:47Z</time>
      </trkpt>
      <trkpt lat="37.2265870" lon="-2.7510880">
        <ele>1814.2</ele>
        <time>2020-07-13T10:07:52Z</time>
      </trkpt>
      <trkpt lat="37.2267280" lon="-2.7511750">
        <ele>1815.0</ele>
        <time>2020-07-13T10:07:57Z</time>
      </trkpt>
      <trkpt lat="37.2267800" lon="-2.7512220">
        <ele>1815.6</ele>
        <time>2020-07-13T10:07:59Z</time>
      </trkpt>
      <trkpt lat="37.2268600" lon="-2.7512940">
        <ele>1816.0</ele>
        <time>2020-07-13T10:08:02Z</time>
      </trkpt>
      <trkpt lat="37.2270140" lon="-2.7514500">
        <ele>1817.2</ele>
        <time>2020-07-13T10:08:08Z</time>
      </trkpt>
      <trkpt lat="37.2270620" lon="-2.7515000">
        <ele>1817.4</ele>
        <time>2020-07-13T10:08:10Z</time>
      </trkpt>
      <trkpt lat="37.2271990" lon="-2.7516500">
        <ele>1818.2</ele>
        <time>2020-07-13T10:08:16Z</time>
      </trkpt>
      <trkpt lat="37.2272700" lon="-2.7517380">
        <ele>1818.8</ele>
        <time>2020-07-13T10:08:19Z</time>
      </trkpt>
      <trkpt lat="37.2273660" lon="-2.7518530">
        <ele>1819.2</ele>
        <time>2020-07-13T10:08:23Z</time>
      </trkpt>
      <trkpt lat="37.2274290" lon="-2.7519450">
        <ele>1819.8</ele>
        <time>2020-07-13T10:08:26Z</time>
      </trkpt>
      <trkpt lat="37.2274730" lon="-2.7520070">
        <ele>1820.4</ele>
        <time>2020-07-13T10:08:28Z</time>
      </trkpt>
      <trkpt lat="37.2275460" lon="-2.7521400">
        <ele>1821.0</ele>
        <time>2020-07-13T10:08:32Z</time>
      </trkpt>
      <trkpt lat="37.2275940" lon="-2.7522320">
        <ele>1821.6</ele>
        <time>2020-07-13T10:08:35Z</time>
      </trkpt>
      <trkpt lat="37.2276910" lon="-2.7524460">
        <ele>1822.8</ele>
        <time>2020-07-13T10:08:42Z</time>
      </trkpt>
      <trkpt lat="37.2277010" lon="-2.7524790">
        <ele>1823.2</ele>
        <time>2020-07-13T10:08:43Z</time>
      </trkpt>
      <trkpt lat="37.2277270" lon="-2.7525430">
        <ele>1824.0</ele>
        <time>2020-07-13T10:08:45Z</time>
      </trkpt>
      <trkpt lat="37.2277970" lon="-2.7526980">
        <ele>1825.0</ele>
        <time>2020-07-13T10:08:50Z</time>
      </trkpt>
      <trkpt lat="37.2278090" lon="-2.7527270">
        <ele>1825.0</ele>
        <time>2020-07-13T10:08:51Z</time>
      </trkpt>
      <trkpt lat="37.2278780" lon="-2.7528850">
        <ele>1826.0</ele>
        <time>2020-07-13T10:08:56Z</time>
      </trkpt>
      <trkpt lat="37.2279490" lon="-2.7530440">
        <ele>1827.0</ele>
        <time>2020-07-13T10:09:01Z</time>
      </trkpt>
      <trkpt lat="37.2279660" lon="-2.7530780">
        <ele>1827.2</ele>
        <time>2020-07-13T10:09:02Z</time>
      </trkpt>
      <trkpt lat="37.2280130" lon="-2.7532070">
        <ele>1828.4</ele>
        <time>2020-07-13T10:09:06Z</time>
      </trkpt>
      <trkpt lat="37.2280610" lon="-2.7533330">
        <ele>1829.0</ele>
        <time>2020-07-13T10:09:10Z</time>
      </trkpt>
      <trkpt lat="37.2280830" lon="-2.7533990">
        <ele>1829.4</ele>
        <time>2020-07-13T10:09:12Z</time>
      </trkpt>
      <trkpt lat="37.2281550" lon="-2.7535920">
        <ele>1830.8</ele>
        <time>2020-07-13T10:09:18Z</time>
      </trkpt>
      <trkpt lat="37.2281670" lon="-2.7536250">
        <ele>1831.0</ele>
        <time>2020-07-13T10:09:19Z</time>
      </trkpt>
      <trkpt lat="37.2282380" lon="-2.7537960">
        <ele>1831.8</ele>
        <time>2020-07-13T10:09:24Z</time>
      </trkpt>
      <trkpt lat="37.2282680" lon="-2.7538580">
        <ele>1832.4</ele>
        <time>2020-07-13T10:09:26Z</time>
      </trkpt>
      <trkpt lat="37.2282970" lon="-2.7539260">
        <ele>1833.0</ele>
        <time>2020-07-13T10:09:28Z</time>
      </trkpt>
      <trkpt lat="37.2283690" lon="-2.7540970">
        <ele>1834.2</ele>
        <time>2020-07-13T10:09:33Z</time>
      </trkpt>
      <trkpt lat="37.2283820" lon="-2.7541280">
        <ele>1834.0</ele>
        <time>2020-07-13T10:09:34Z</time>
      </trkpt>
      <trkpt lat="37.2284510" lon="-2.7542960">
        <ele>1835.2</ele>
        <time>2020-07-13T10:09:39Z</time>
      </trkpt>
      <trkpt lat="37.2285290" lon="-2.7544930">
        <ele>1836.0</ele>
        <time>2020-07-13T10:09:45Z</time>
      </trkpt>
      <trkpt lat="37.2285550" lon="-2.7545590">
        <ele>1836.2</ele>
        <time>2020-07-13T10:09:47Z</time>
      </trkpt>
      <trkpt lat="37.2285930" lon="-2.7546570">
        <ele>1837.4</ele>
        <time>2020-07-13T10:09:50Z</time>
      </trkpt>
      <trkpt lat="37.2286740" lon="-2.7548510">
        <ele>1838.4</ele>
        <time>2020-07-13T10:09:56Z</time>
      </trkpt>
      <trkpt lat="37.2287840" lon="-2.7550700">
        <ele>1839.6</ele>
        <time>2020-07-13T10:10:03Z</time>
      </trkpt>
      <trkpt lat="37.2287980" lon="-2.7551000">
        <ele>1839.8</ele>
        <time>2020-07-13T10:10:04Z</time>
      </trkpt>
      <trkpt lat="37.2288510" lon="-2.7552350">
        <ele>1840.6</ele>
        <time>2020-07-13T10:10:08Z</time>
      </trkpt>
      <trkpt lat="37.2289430" lon="-2.7554630">
        <ele>1841.8</ele>
        <time>2020-07-13T10:10:15Z</time>
      </trkpt>
      <trkpt lat="37.2289540" lon="-2.7554910">
        <ele>1842.0</ele>
        <time>2020-07-13T10:10:16Z</time>
      </trkpt>
      <trkpt lat="37.2290090" lon="-2.7556230">
        <ele>1843.0</ele>
        <time>2020-07-13T10:10:20Z</time>
      </trkpt>
      <trkpt lat="37.2290890" lon="-2.7558220">
        <ele>1844.0</ele>
        <time>2020-07-13T10:10:26Z</time>
      </trkpt>
      <trkpt lat="37.2291340" lon="-2.7559230">
        <ele>1844.4</ele>
        <time>2020-07-13T10:10:29Z</time>
      </trkpt>
      <trkpt lat="37.2291890" lon="-2.7560580">
        <ele>1845.0</ele>
        <time>2020-07-13T10:10:33Z</time>
      </trkpt>
      <trkpt lat="37.2292480" lon="-2.7562030">
        <ele>1845.8</ele>
        <time>2020-07-13T10:10:37Z</time>
      </trkpt>
      <trkpt lat="37.2292980" lon="-2.7563200">
        <ele>1846.2</ele>
        <time>2020-07-13T10:10:40Z</time>
      </trkpt>
      <trkpt lat="37.2293810" lon="-2.7565120">
        <ele>1846.8</ele>
        <time>2020-07-13T10:10:44Z</time>
      </trkpt>
      <trkpt lat="37.2294980" lon="-2.7568030">
        <ele>1847.2</ele>
        <time>2020-07-13T10:10:50Z</time>
      </trkpt>
      <trkpt lat="37.2295980" lon="-2.7570390">
        <ele>1847.6</ele>
        <time>2020-07-13T10:10:55Z</time>
      </trkpt>
      <trkpt lat="37.2296550" lon="-2.7571830">
        <ele>1848.2</ele>
        <time>2020-07-13T10:10:58Z</time>
      </trkpt>
      <trkpt lat="37.2297390" lon="-2.7573810">
        <ele>1848.2</ele>
        <time>2020-07-13T10:11:02Z</time>
      </trkpt>
      <trkpt lat="37.2298000" lon="-2.7575360">
        <ele>1848.4</ele>
        <time>2020-07-13T10:11:05Z</time>
      </trkpt>
      <trkpt lat="37.2299200" lon="-2.7578340">
        <ele>1849.2</ele>
        <time>2020-07-13T10:11:11Z</time>
      </trkpt>
      <trkpt lat="37.2299980" lon="-2.7580240">
        <ele>1849.6</ele>
        <time>2020-07-13T10:11:15Z</time>
      </trkpt>
      <trkpt lat="37.2300770" lon="-2.7582350">
        <ele>1850.4</ele>
        <time>2020-07-13T10:11:20Z</time>
      </trkpt>
      <trkpt lat="37.2301270" lon="-2.7583500">
        <ele>1851.2</ele>
        <time>2020-07-13T10:11:23Z</time>
      </trkpt>
      <trkpt lat="37.2301430" lon="-2.7583880">
        <ele>1851.6</ele>
        <time>2020-07-13T10:11:24Z</time>
      </trkpt>
      <trkpt lat="37.2302280" lon="-2.7586130">
        <ele>1852.8</ele>
        <time>2020-07-13T10:11:30Z</time>
      </trkpt>
      <trkpt lat="37.2302800" lon="-2.7587630">
        <ele>1853.4</ele>
        <time>2020-07-13T10:11:34Z</time>
      </trkpt>
      <trkpt lat="37.2303100" lon="-2.7588390">
        <ele>1853.8</ele>
        <time>2020-07-13T10:11:36Z</time>
      </trkpt>
      <trkpt lat="37.2304100" lon="-2.7590650">
        <ele>1854.8</ele>
        <time>2020-07-13T10:11:42Z</time>
      </trkpt>
      <trkpt lat="37.2304250" lon="-2.7591000">
        <ele>1855.0</ele>
        <time>2020-07-13T10:11:43Z</time>
      </trkpt>
      <trkpt lat="37.2305220" lon="-2.7593030">
        <ele>1856.2</ele>
        <time>2020-07-13T10:11:49Z</time>
      </trkpt>
      <trkpt lat="37.2305870" lon="-2.7594400">
        <ele>1857.0</ele>
        <time>2020-07-13T10:11:53Z</time>
      </trkpt>
      <trkpt lat="37.2306030" lon="-2.7594750">
        <ele>1857.2</ele>
        <time>2020-07-13T10:11:54Z</time>
      </trkpt>
      <trkpt lat="37.2307080" lon="-2.7597380">
        <ele>1858.4</ele>
        <time>2020-07-13T10:12:01Z</time>
      </trkpt>
      <trkpt lat="37.2307400" lon="-2.7598220">
        <ele>1858.4</ele>
        <time>2020-07-13T10:12:03Z</time>
      </trkpt>
      <trkpt lat="37.2309170" lon="-2.7603110">
        <ele>1859.6</ele>
        <time>2020-07-13T10:12:15Z</time>
      </trkpt>
      <trkpt lat="37.2310370" lon="-2.7606760">
        <ele>1860.8</ele>
        <time>2020-07-13T10:12:24Z</time>
      </trkpt>
      <trkpt lat="37.2310490" lon="-2.7607160">
        <ele>1860.8</ele>
        <time>2020-07-13T10:12:25Z</time>
      </trkpt>
      <trkpt lat="37.2311410" lon="-2.7609780">
        <ele>1861.8</ele>
        <time>2020-07-13T10:12:32Z</time>
      </trkpt>
      <trkpt lat="37.2311650" lon="-2.7610470">
        <ele>1861.8</ele>
        <time>2020-07-13T10:12:34Z</time>
      </trkpt>
      <trkpt lat="37.2312200" lon="-2.7611860">
        <ele>1862.8</ele>
        <time>2020-07-13T10:12:38Z</time>
      </trkpt>
      <trkpt lat="37.2312940" lon="-2.7613660">
        <ele>1864.0</ele>
        <time>2020-07-13T10:12:43Z</time>
      </trkpt>
      <trkpt lat="37.2313980" lon="-2.7616100">
        <ele>1865.2</ele>
        <time>2020-07-13T10:12:50Z</time>
      </trkpt>
      <trkpt lat="37.2314510" lon="-2.7617520">
        <ele>1866.0</ele>
        <time>2020-07-13T10:12:54Z</time>
      </trkpt>
      <trkpt lat="37.2314650" lon="-2.7617850">
        <ele>1866.2</ele>
        <time>2020-07-13T10:12:55Z</time>
      </trkpt>
      <trkpt lat="37.2315380" lon="-2.7619510">
        <ele>1867.4</ele>
        <time>2020-07-13T10:13:00Z</time>
      </trkpt>
      <trkpt lat="37.2316180" lon="-2.7621110">
        <ele>1868.6</ele>
        <time>2020-07-13T10:13:05Z</time>
      </trkpt>
      <trkpt lat="37.2317090" lon="-2.7623110">
        <ele>1869.8</ele>
        <time>2020-07-13T10:13:11Z</time>
      </trkpt>
      <trkpt lat="37.2317600" lon="-2.7624270">
        <ele>1870.0</ele>
        <time>2020-07-13T10:13:14Z</time>
      </trkpt>
      <trkpt lat="37.2318770" lon="-2.7626990">
        <ele>1871.0</ele>
        <time>2020-07-13T10:13:20Z</time>
      </trkpt>
      <trkpt lat="37.2318980" lon="-2.7627450">
        <ele>1871.2</ele>
        <time>2020-07-13T10:13:21Z</time>
      </trkpt>
      <trkpt lat="37.2321390" lon="-2.7631430">
        <ele>1871.0</ele>
        <time>2020-07-13T10:13:29Z</time>
      </trkpt>
      <trkpt lat="37.2323960" lon="-2.7633820">
        <ele>1871.2</ele>
        <time>2020-07-13T10:13:35Z</time>
      </trkpt>
      <trkpt lat="37.2326980" lon="-2.7635780">
        <ele>1871.6</ele>
        <time>2020-07-13T10:13:41Z</time>
      </trkpt>
      <trkpt lat="37.2328090" lon="-2.7636480">
        <ele>1871.8</ele>
        <time>2020-07-13T10:13:43Z</time>
      </trkpt>
      <trkpt lat="37.2329130" lon="-2.7637150">
        <ele>1872.2</ele>
        <time>2020-07-13T10:13:45Z</time>
      </trkpt>
      <trkpt lat="37.2332710" lon="-2.7639430">
        <ele>1872.6</ele>
        <time>2020-07-13T10:13:52Z</time>
      </trkpt>
      <trkpt lat="37.2333800" lon="-2.7640100">
        <ele>1872.6</ele>
        <time>2020-07-13T10:13:54Z</time>
      </trkpt>
      <trkpt lat="37.2338390" lon="-2.7642920">
        <ele>1872.4</ele>
        <time>2020-07-13T10:14:03Z</time>
      </trkpt>
      <trkpt lat="37.2340760" lon="-2.7644200">
        <ele>1872.8</ele>
        <time>2020-07-13T10:14:07Z</time>
      </trkpt>
      <trkpt lat="37.2341870" lon="-2.7644710">
        <ele>1873.4</ele>
        <time>2020-07-13T10:14:09Z</time>
      </trkpt>
      <trkpt lat="37.2345310" lon="-2.7645800">
        <ele>1873.0</ele>
        <time>2020-07-13T10:14:15Z</time>
      </trkpt>
      <trkpt lat="37.2350550" lon="-2.7646610">
        <ele>1874.0</ele>
        <time>2020-07-13T10:14:24Z</time>
      </trkpt>
      <trkpt lat="37.2356130" lon="-2.7647370">
        <ele>1874.0</ele>
        <time>2020-07-13T10:14:34Z</time>
      </trkpt>
      <trkpt lat="37.2359300" lon="-2.7648250">
        <ele>1874.4</ele>
        <time>2020-07-13T10:14:40Z</time>
      </trkpt>
      <trkpt lat="37.2359820" lon="-2.7648500">
        <ele>1874.6</ele>
        <time>2020-07-13T10:14:41Z</time>
      </trkpt>
      <trkpt lat="37.2362130" lon="-2.7650230">
        <ele>1875.6</ele>
        <time>2020-07-13T10:14:46Z</time>
      </trkpt>
      <trkpt lat="37.2362580" lon="-2.7650760">
        <ele>1875.8</ele>
        <time>2020-07-13T10:14:47Z</time>
      </trkpt>
      <trkpt lat="37.2364430" lon="-2.7653420">
        <ele>1875.0</ele>
        <time>2020-07-13T10:14:52Z</time>
      </trkpt>
      <trkpt lat="37.2367060" lon="-2.7657970">
        <ele>1875.6</ele>
        <time>2020-07-13T10:15:00Z</time>
      </trkpt>
      <trkpt lat="37.2369270" lon="-2.7661880">
        <ele>1874.4</ele>
        <time>2020-07-13T10:15:07Z</time>
      </trkpt>
      <trkpt lat="37.2370520" lon="-2.7664170">
        <ele>1874.2</ele>
        <time>2020-07-13T10:15:11Z</time>
      </trkpt>
      <trkpt lat="37.2372790" lon="-2.7668590">
        <ele>1874.4</ele>
        <time>2020-07-13T10:15:17Z</time>
      </trkpt>
      <trkpt lat="37.2373630" lon="-2.7670330">
        <ele>1873.2</ele>
        <time>2020-07-13T10:15:19Z</time>
      </trkpt>
      <trkpt lat="37.2374940" lon="-2.7673100">
        <ele>1872.4</ele>
        <time>2020-07-13T10:15:22Z</time>
      </trkpt>
      <trkpt lat="37.2375390" lon="-2.7674180">
        <ele>1872.2</ele>
        <time>2020-07-13T10:15:23Z</time>
      </trkpt>
      <trkpt lat="37.2376300" lon="-2.7676210">
        <ele>1871.8</ele>
        <time>2020-07-13T10:15:25Z</time>
      </trkpt>
      <trkpt lat="37.2377380" lon="-2.7678230">
        <ele>1870.4</ele>
        <time>2020-07-13T10:15:27Z</time>
      </trkpt>
      <trkpt lat="37.2377890" lon="-2.7679250">
        <ele>1870.2</ele>
        <time>2020-07-13T10:15:28Z</time>
      </trkpt>
      <trkpt lat="37.2379020" lon="-2.7681530">
        <ele>1869.2</ele>
        <time>2020-07-13T10:15:30Z</time>
      </trkpt>
      <trkpt lat="37.2379510" lon="-2.7682620">
        <ele>1868.2</ele>
        <time>2020-07-13T10:15:31Z</time>
      </trkpt>
      <trkpt lat="37.2380630" lon="-2.7685070">
        <ele>1866.6</ele>
        <time>2020-07-13T10:15:33Z</time>
      </trkpt>
      <trkpt lat="37.2381150" lon="-2.7686130">
        <ele>1866.0</ele>
        <time>2020-07-13T10:15:34Z</time>
      </trkpt>
      <trkpt lat="37.2381760" lon="-2.7687270">
        <ele>1865.2</ele>
        <time>2020-07-13T10:15:35Z</time>
      </trkpt>
      <trkpt lat="37.2382320" lon="-2.7688210">
        <ele>1864.2</ele>
        <time>2020-07-13T10:15:36Z</time>
      </trkpt>
      <trkpt lat="37.2383600" lon="-2.7690050">
        <ele>1863.2</ele>
        <time>2020-07-13T10:15:38Z</time>
      </trkpt>
      <trkpt lat="37.2384250" lon="-2.7690820">
        <ele>1863.0</ele>
        <time>2020-07-13T10:15:39Z</time>
      </trkpt>
      <trkpt lat="37.2386570" lon="-2.7693560">
        <ele>1863.0</ele>
        <time>2020-07-13T10:15:43Z</time>
      </trkpt>
      <trkpt lat="37.2388440" lon="-2.7695480">
        <ele>1863.4</ele>
        <time>2020-07-13T10:15:47Z</time>
      </trkpt>
      <trkpt lat="37.2388840" lon="-2.7695880">
        <ele>1863.6</ele>
        <time>2020-07-13T10:15:48Z</time>
      </trkpt>
      <trkpt lat="37.2389620" lon="-2.7696660">
        <ele>1863.8</ele>
        <time>2020-07-13T10:15:50Z</time>
      </trkpt>
      <trkpt lat="37.2389940" lon="-2.7697050">
        <ele>1864.2</ele>
        <time>2020-07-13T10:15:51Z</time>
      </trkpt>
      <trkpt lat="37.2390530" lon="-2.7697970">
        <ele>1865.0</ele>
        <time>2020-07-13T10:15:53Z</time>
      </trkpt>
      <trkpt lat="37.2390750" lon="-2.7698500">
        <ele>1865.2</ele>
        <time>2020-07-13T10:15:54Z</time>
      </trkpt>
      <trkpt lat="37.2390970" lon="-2.7698980">
        <ele>1865.4</ele>
        <time>2020-07-13T10:15:55Z</time>
      </trkpt>
      <trkpt lat="37.2391160" lon="-2.7699550">
        <ele>1866.2</ele>
        <time>2020-07-13T10:15:59Z</time>
      </trkpt>
      <trkpt lat="37.2391350" lon="-2.7700130">
        <ele>1866.6</ele>
        <time>2020-07-13T10:16:00Z</time>
      </trkpt>
      <trkpt lat="37.2392100" lon="-2.7702430">
        <ele>1867.0</ele>
        <time>2020-07-13T10:16:02Z</time>
      </trkpt>
      <trkpt lat="37.2392410" lon="-2.7703780">
        <ele>1867.8</ele>
        <time>2020-07-13T10:16:05Z</time>
      </trkpt>
      <trkpt lat="37.2392760" lon="-2.7705440">
        <ele>1868.6</ele>
        <time>2020-07-13T10:16:09Z</time>
      </trkpt>
      <trkpt lat="37.2392890" lon="-2.7706220">
        <ele>1869.2</ele>
        <time>2020-07-13T10:16:11Z</time>
      </trkpt>
      <trkpt lat="37.2393440" lon="-2.7708790">
        <ele>1870.2</ele>
        <time>2020-07-13T10:16:18Z</time>
      </trkpt>
      <trkpt lat="37.2394110" lon="-2.7710950">
        <ele>1871.2</ele>
        <time>2020-07-13T10:16:24Z</time>
      </trkpt>
      <trkpt lat="37.2394250" lon="-2.7711230">
        <ele>1871.4</ele>
        <time>2020-07-13T10:16:25Z</time>
      </trkpt>
      <trkpt lat="37.2394610" lon="-2.7711770">
        <ele>1871.8</ele>
        <time>2020-07-13T10:16:27Z</time>
      </trkpt>
      <trkpt lat="37.2395210" lon="-2.7712610">
        <ele>1872.4</ele>
        <time>2020-07-13T10:16:30Z</time>
      </trkpt>
      <trkpt lat="37.2395920" lon="-2.7713300">
        <ele>1873.2</ele>
        <time>2020-07-13T10:16:33Z</time>
      </trkpt>
      <trkpt lat="37.2396440" lon="-2.7713750">
        <ele>1873.4</ele>
        <time>2020-07-13T10:16:35Z</time>
      </trkpt>
      <trkpt lat="37.2397820" lon="-2.7714560">
        <ele>1874.2</ele>
        <time>2020-07-13T10:16:40Z</time>
      </trkpt>
      <trkpt lat="37.2398340" lon="-2.7714930">
        <ele>1874.4</ele>
        <time>2020-07-13T10:16:42Z</time>
      </trkpt>
      <trkpt lat="37.2399320" lon="-2.7715540">
        <ele>1874.8</ele>
        <time>2020-07-13T10:16:46Z</time>
      </trkpt>
      <trkpt lat="37.2400270" lon="-2.7716190">
        <ele>1875.6</ele>
        <time>2020-07-13T10:16:50Z</time>
      </trkpt>
      <trkpt lat="37.2401560" lon="-2.7716940">
        <ele>1876.2</ele>
        <time>2020-07-13T10:16:55Z</time>
      </trkpt>
      <trkpt lat="37.2402540" lon="-2.7717570">
        <ele>1876.8</ele>
        <time>2020-07-13T10:16:59Z</time>
      </trkpt>
      <trkpt lat="37.2404010" lon="-2.7718450">
        <ele>1877.6</ele>
        <time>2020-07-13T10:17:05Z</time>
      </trkpt>
      <trkpt lat="37.2404240" lon="-2.7718600">
        <ele>1877.8</ele>
        <time>2020-07-13T10:17:06Z</time>
      </trkpt>
      <trkpt lat="37.2405690" lon="-2.7719560">
        <ele>1879.0</ele>
        <time>2020-07-13T10:17:12Z</time>
      </trkpt>
      <trkpt lat="37.2406200" lon="-2.7719850">
        <ele>1879.4</ele>
        <time>2020-07-13T10:17:14Z</time>
      </trkpt>
      <trkpt lat="37.2407690" lon="-2.7720830">
        <ele>1880.2</ele>
        <time>2020-07-13T10:17:20Z</time>
      </trkpt>
      <trkpt lat="37.2408430" lon="-2.7721310">
        <ele>1880.8</ele>
        <time>2020-07-13T10:17:23Z</time>
      </trkpt>
      <trkpt lat="37.2409910" lon="-2.7722230">
        <ele>1881.4</ele>
        <time>2020-07-13T10:17:29Z</time>
      </trkpt>
      <trkpt lat="37.2410380" lon="-2.7722520">
        <ele>1881.8</ele>
        <time>2020-07-13T10:17:31Z</time>
      </trkpt>
      <trkpt lat="37.2411100" lon="-2.7723040">
        <ele>1882.4</ele>
        <time>2020-07-13T10:17:34Z</time>
      </trkpt>
      <trkpt lat="37.2412810" lon="-2.7724390">
        <ele>1883.4</ele>
        <time>2020-07-13T10:17:41Z</time>
      </trkpt>
      <trkpt lat="37.2413080" lon="-2.7724610">
        <ele>1883.6</ele>
        <time>2020-07-13T10:17:42Z</time>
      </trkpt>
      <trkpt lat="37.2415420" lon="-2.7726490">
        <ele>1884.6</ele>
        <time>2020-07-13T10:17:51Z</time>
      </trkpt>
      <trkpt lat="37.2415690" lon="-2.7726730">
        <ele>1884.8</ele>
        <time>2020-07-13T10:17:52Z</time>
      </trkpt>
      <trkpt lat="37.2417240" lon="-2.7728070">
        <ele>1885.8</ele>
        <time>2020-07-13T10:17:58Z</time>
      </trkpt>
      <trkpt lat="37.2419080" lon="-2.7729690">
        <ele>1886.4</ele>
        <time>2020-07-13T10:18:05Z</time>
      </trkpt>
      <trkpt lat="37.2420560" lon="-2.7731000">
        <ele>1886.8</ele>
        <time>2020-07-13T10:18:11Z</time>
      </trkpt>
      <trkpt lat="37.2421570" lon="-2.7731860">
        <ele>1887.6</ele>
        <time>2020-07-13T10:18:15Z</time>
      </trkpt>
      <trkpt lat="37.2422270" lon="-2.7732520">
        <ele>1887.8</ele>
        <time>2020-07-13T10:18:18Z</time>
      </trkpt>
      <trkpt lat="37.2423740" lon="-2.7733630">
        <ele>1889.0</ele>
        <time>2020-07-13T10:18:24Z</time>
      </trkpt>
      <trkpt lat="37.2425580" lon="-2.7734380">
        <ele>1890.0</ele>
        <time>2020-07-13T10:18:31Z</time>
      </trkpt>
      <trkpt lat="37.2426450" lon="-2.7734330">
        <ele>1890.2</ele>
        <time>2020-07-13T10:18:34Z</time>
      </trkpt>
      <trkpt lat="37.2427670" lon="-2.7733870">
        <ele>1891.4</ele>
        <time>2020-07-13T10:18:38Z</time>
      </trkpt>
      <trkpt lat="37.2429460" lon="-2.7732680">
        <ele>1891.6</ele>
        <time>2020-07-13T10:18:44Z</time>
      </trkpt>
      <trkpt lat="37.2430650" lon="-2.7731490">
        <ele>1892.6</ele>
        <time>2020-07-13T10:18:49Z</time>
      </trkpt>
      <trkpt lat="37.2430910" lon="-2.7731290">
        <ele>1892.8</ele>
        <time>2020-07-13T10:18:50Z</time>
      </trkpt>
      <trkpt lat="37.2432100" lon="-2.7730320">
        <ele>1893.6</ele>
        <time>2020-07-13T10:18:55Z</time>
      </trkpt>
      <trkpt lat="37.2433070" lon="-2.7729640">
        <ele>1894.6</ele>
        <time>2020-07-13T10:18:59Z</time>
      </trkpt>
      <trkpt lat="37.2433340" lon="-2.7729530">
        <ele>1894.6</ele>
        <time>2020-07-13T10:19:00Z</time>
      </trkpt>
      <trkpt lat="37.2434670" lon="-2.7728990">
        <ele>1896.0</ele>
        <time>2020-07-13T10:19:05Z</time>
      </trkpt>
      <trkpt lat="37.2435460" lon="-2.7728780">
        <ele>1896.6</ele>
        <time>2020-07-13T10:19:08Z</time>
      </trkpt>
      <trkpt lat="37.2436210" lon="-2.7728690">
        <ele>1897.2</ele>
        <time>2020-07-13T10:19:11Z</time>
      </trkpt>
      <trkpt lat="37.2437260" lon="-2.7728870">
        <ele>1897.8</ele>
        <time>2020-07-13T10:19:15Z</time>
      </trkpt>
      <trkpt lat="37.2437760" lon="-2.7729100">
        <ele>1898.2</ele>
        <time>2020-07-13T10:19:17Z</time>
      </trkpt>
      <trkpt lat="37.2439180" lon="-2.7730090">
        <ele>1899.4</ele>
        <time>2020-07-13T10:19:23Z</time>
      </trkpt>
      <trkpt lat="37.2440020" lon="-2.7730870">
        <ele>1900.2</ele>
        <time>2020-07-13T10:19:27Z</time>
      </trkpt>
      <trkpt lat="37.2440220" lon="-2.7731040">
        <ele>1900.6</ele>
        <time>2020-07-13T10:19:28Z</time>
      </trkpt>
      <trkpt lat="37.2440900" lon="-2.7731680">
        <ele>1901.0</ele>
        <time>2020-07-13T10:19:31Z</time>
      </trkpt>
      <trkpt lat="37.2441770" lon="-2.7732570">
        <ele>1901.8</ele>
        <time>2020-07-13T10:19:35Z</time>
      </trkpt>
      <trkpt lat="37.2442700" lon="-2.7733270">
        <ele>1902.8</ele>
        <time>2020-07-13T10:19:39Z</time>
      </trkpt>
      <trkpt lat="37.2442910" lon="-2.7733390">
        <ele>1903.2</ele>
        <time>2020-07-13T10:19:40Z</time>
      </trkpt>
      <trkpt lat="37.2443640" lon="-2.7733600">
        <ele>1903.8</ele>
        <time>2020-07-13T10:19:43Z</time>
      </trkpt>
      <trkpt lat="37.2444610" lon="-2.7733760">
        <ele>1904.2</ele>
        <time>2020-07-13T10:19:47Z</time>
      </trkpt>
      <trkpt lat="37.2445360" lon="-2.7733720">
        <ele>1904.8</ele>
        <time>2020-07-13T10:19:50Z</time>
      </trkpt>
      <trkpt lat="37.2446390" lon="-2.7733490">
        <ele>1905.8</ele>
        <time>2020-07-13T10:19:54Z</time>
      </trkpt>
      <trkpt lat="37.2446880" lon="-2.7733360">
        <ele>1906.0</ele>
        <time>2020-07-13T10:19:56Z</time>
      </trkpt>
      <trkpt lat="37.2448360" lon="-2.7733100">
        <ele>1907.2</ele>
        <time>2020-07-13T10:20:02Z</time>
      </trkpt>
      <trkpt lat="37.2449850" lon="-2.7732900">
        <ele>1908.4</ele>
        <time>2020-07-13T10:20:08Z</time>
      </trkpt>
      <trkpt lat="37.2450560" lon="-2.7732820">
        <ele>1909.0</ele>
        <time>2020-07-13T10:20:11Z</time>
      </trkpt>
      <trkpt lat="37.2451340" lon="-2.7732760">
        <ele>1909.4</ele>
        <time>2020-07-13T10:20:14Z</time>
      </trkpt>
      <trkpt lat="37.2452680" lon="-2.7732870">
        <ele>1910.2</ele>
        <time>2020-07-13T10:20:19Z</time>
      </trkpt>
      <trkpt lat="37.2452940" lon="-2.7732910">
        <ele>1910.4</ele>
        <time>2020-07-13T10:20:20Z</time>
      </trkpt>
      <trkpt lat="37.2454180" lon="-2.7733060">
        <ele>1911.6</ele>
        <time>2020-07-13T10:20:25Z</time>
      </trkpt>
      <trkpt lat="37.2454660" lon="-2.7733150">
        <ele>1911.8</ele>
        <time>2020-07-13T10:20:27Z</time>
      </trkpt>
      <trkpt lat="37.2456000" lon="-2.7733770">
        <ele>1912.8</ele>
        <time>2020-07-13T10:20:33Z</time>
      </trkpt>
      <trkpt lat="37.2456420" lon="-2.7734110">
        <ele>1913.2</ele>
        <time>2020-07-13T10:20:35Z</time>
      </trkpt>
      <trkpt lat="37.2457080" lon="-2.7734580">
        <ele>1913.8</ele>
        <time>2020-07-13T10:20:38Z</time>
      </trkpt>
      <trkpt lat="37.2458360" lon="-2.7735400">
        <ele>1914.2</ele>
        <time>2020-07-13T10:20:44Z</time>
      </trkpt>
      <trkpt lat="37.2458760" lon="-2.7735680">
        <ele>1914.8</ele>
        <time>2020-07-13T10:20:46Z</time>
      </trkpt>
      <trkpt lat="37.2459900" lon="-2.7736780">
        <ele>1915.8</ele>
        <time>2020-07-13T10:20:52Z</time>
      </trkpt>
      <trkpt lat="37.2460520" lon="-2.7737250">
        <ele>1916.4</ele>
        <time>2020-07-13T10:20:55Z</time>
      </trkpt>
      <trkpt lat="37.2460960" lon="-2.7737490">
        <ele>1917.0</ele>
        <time>2020-07-13T10:20:57Z</time>
      </trkpt>
      <trkpt lat="37.2462420" lon="-2.7738590">
        <ele>1917.8</ele>
        <time>2020-07-13T10:21:04Z</time>
      </trkpt>
      <trkpt lat="37.2462850" lon="-2.7738800">
        <ele>1918.2</ele>
        <time>2020-07-13T10:21:06Z</time>
      </trkpt>
      <trkpt lat="37.2464040" lon="-2.7739260">
        <ele>1919.0</ele>
        <time>2020-07-13T10:21:11Z</time>
      </trkpt>
      <trkpt lat="37.2464530" lon="-2.7739380">
        <ele>1919.2</ele>
        <time>2020-07-13T10:21:13Z</time>
      </trkpt>
      <trkpt lat="37.2466220" lon="-2.7739730">
        <ele>1920.2</ele>
        <time>2020-07-13T10:21:20Z</time>
      </trkpt>
      <trkpt lat="37.2467340" lon="-2.7740210">
        <ele>1921.4</ele>
        <time>2020-07-13T10:21:25Z</time>
      </trkpt>
      <trkpt lat="37.2468270" lon="-2.7740690">
        <ele>1922.0</ele>
        <time>2020-07-13T10:21:29Z</time>
      </trkpt>
      <trkpt lat="37.2468670" lon="-2.7740960">
        <ele>1922.6</ele>
        <time>2020-07-13T10:21:31Z</time>
      </trkpt>
      <trkpt lat="37.2470050" lon="-2.7742220">
        <ele>1923.6</ele>
        <time>2020-07-13T10:21:38Z</time>
      </trkpt>
      <trkpt lat="37.2471240" lon="-2.7743620">
        <ele>1924.8</ele>
        <time>2020-07-13T10:21:44Z</time>
      </trkpt>
      <trkpt lat="37.2472340" lon="-2.7744950">
        <ele>1925.8</ele>
        <time>2020-07-13T10:21:50Z</time>
      </trkpt>
      <trkpt lat="37.2473030" lon="-2.7745870">
        <ele>1926.6</ele>
        <time>2020-07-13T10:21:54Z</time>
      </trkpt>
      <trkpt lat="37.2473370" lon="-2.7746320">
        <ele>1927.0</ele>
        <time>2020-07-13T10:21:56Z</time>
      </trkpt>
      <trkpt lat="37.2474260" lon="-2.7747520">
        <ele>1928.2</ele>
        <time>2020-07-13T10:22:01Z</time>
      </trkpt>
      <trkpt lat="37.2474640" lon="-2.7748030">
        <ele>1928.2</ele>
        <time>2020-07-13T10:22:03Z</time>
      </trkpt>
      <trkpt lat="37.2475890" lon="-2.7750150">
        <ele>1929.0</ele>
        <time>2020-07-13T10:22:11Z</time>
      </trkpt>
      <trkpt lat="37.2476060" lon="-2.7750410">
        <ele>1929.4</ele>
        <time>2020-07-13T10:22:12Z</time>
      </trkpt>
      <trkpt lat="37.2477180" lon="-2.7752160">
        <ele>1930.4</ele>
        <time>2020-07-13T10:22:19Z</time>
      </trkpt>
      <trkpt lat="37.2477500" lon="-2.7752570">
        <ele>1931.0</ele>
        <time>2020-07-13T10:22:21Z</time>
      </trkpt>
      <trkpt lat="37.2478020" lon="-2.7753170">
        <ele>1931.6</ele>
        <time>2020-07-13T10:22:24Z</time>
      </trkpt>
      <trkpt lat="37.2479060" lon="-2.7753850">
        <ele>1932.4</ele>
        <time>2020-07-13T10:22:29Z</time>
      </trkpt>
      <trkpt lat="37.2479500" lon="-2.7754030">
        <ele>1932.8</ele>
        <time>2020-07-13T10:22:31Z</time>
      </trkpt>
      <trkpt lat="37.2480470" lon="-2.7754300">
        <ele>1933.8</ele>
        <time>2020-07-13T10:22:35Z</time>
      </trkpt>
      <trkpt lat="37.2481510" lon="-2.7754320">
        <ele>1934.8</ele>
        <time>2020-07-13T10:22:39Z</time>
      </trkpt>
      <trkpt lat="37.2481770" lon="-2.7754250">
        <ele>1935.2</ele>
        <time>2020-07-13T10:22:40Z</time>
      </trkpt>
      <trkpt lat="37.2483220" lon="-2.7753740">
        <ele>1936.2</ele>
        <time>2020-07-13T10:22:45Z</time>
      </trkpt>
      <trkpt lat="37.2483680" lon="-2.7753360">
        <ele>1936.4</ele>
        <time>2020-07-13T10:22:47Z</time>
      </trkpt>
      <trkpt lat="37.2484610" lon="-2.7752230">
        <ele>1937.4</ele>
        <time>2020-07-13T10:22:52Z</time>
      </trkpt>
      <trkpt lat="37.2485070" lon="-2.7751460">
        <ele>1938.0</ele>
        <time>2020-07-13T10:22:55Z</time>
      </trkpt>
      <trkpt lat="37.2485230" lon="-2.7751230">
        <ele>1938.4</ele>
        <time>2020-07-13T10:22:56Z</time>
      </trkpt>
      <trkpt lat="37.2486020" lon="-2.7750020">
        <ele>1939.4</ele>
        <time>2020-07-13T10:23:01Z</time>
      </trkpt>
      <trkpt lat="37.2486990" lon="-2.7748960">
        <ele>1940.6</ele>
        <time>2020-07-13T10:23:06Z</time>
      </trkpt>
      <trkpt lat="37.2489130" lon="-2.7747690">
        <ele>1941.4</ele>
        <time>2020-07-13T10:23:15Z</time>
      </trkpt>
      <trkpt lat="37.2489370" lon="-2.7747650">
        <ele>1941.6</ele>
        <time>2020-07-13T10:23:16Z</time>
      </trkpt>
      <trkpt lat="37.2490750" lon="-2.7747500">
        <ele>1942.6</ele>
        <time>2020-07-13T10:23:21Z</time>
      </trkpt>
      <trkpt lat="37.2491310" lon="-2.7747450">
        <ele>1943.0</ele>
        <time>2020-07-13T10:23:23Z</time>
      </trkpt>
      <trkpt lat="37.2492620" lon="-2.7747570">
        <ele>1943.8</ele>
        <time>2020-07-13T10:23:28Z</time>
      </trkpt>
      <trkpt lat="37.2493700" lon="-2.7747710">
        <ele>1944.4</ele>
        <time>2020-07-13T10:23:32Z</time>
      </trkpt>
      <trkpt lat="37.2494720" lon="-2.7747640">
        <ele>1944.8</ele>
        <time>2020-07-13T10:23:36Z</time>
      </trkpt>
      <trkpt lat="37.2495790" lon="-2.7747640">
        <ele>1945.6</ele>
        <time>2020-07-13T10:23:40Z</time>
      </trkpt>
      <trkpt lat="37.2496550" lon="-2.7747690">
        <ele>1945.8</ele>
        <time>2020-07-13T10:23:43Z</time>
      </trkpt>
      <trkpt lat="37.2497660" lon="-2.7747690">
        <ele>1947.0</ele>
        <time>2020-07-13T10:23:47Z</time>
      </trkpt>
      <trkpt lat="37.2498190" lon="-2.7747640">
        <ele>1947.6</ele>
        <time>2020-07-13T10:23:49Z</time>
      </trkpt>
      <trkpt lat="37.2498680" lon="-2.7747600">
        <ele>1948.0</ele>
        <time>2020-07-13T10:23:51Z</time>
      </trkpt>
      <trkpt lat="37.2500460" lon="-2.7747260">
        <ele>1949.2</ele>
        <time>2020-07-13T10:23:58Z</time>
      </trkpt>
      <trkpt lat="37.2500980" lon="-2.7747190">
        <ele>1949.6</ele>
        <time>2020-07-13T10:24:00Z</time>
      </trkpt>
      <trkpt lat="37.2502260" lon="-2.7746940">
        <ele>1950.4</ele>
        <time>2020-07-13T10:24:05Z</time>
      </trkpt>
      <trkpt lat="37.2503520" lon="-2.7746610">
        <ele>1951.4</ele>
        <time>2020-07-13T10:24:10Z</time>
      </trkpt>
      <trkpt lat="37.2504020" lon="-2.7746420">
        <ele>1951.8</ele>
        <time>2020-07-13T10:24:12Z</time>
      </trkpt>
      <trkpt lat="37.2505250" lon="-2.7746230">
        <ele>1952.4</ele>
        <time>2020-07-13T10:24:17Z</time>
      </trkpt>
      <trkpt lat="37.2506020" lon="-2.7746160">
        <ele>1953.2</ele>
        <time>2020-07-13T10:24:20Z</time>
      </trkpt>
      <trkpt lat="37.2506490" lon="-2.7746080">
        <ele>1953.8</ele>
        <time>2020-07-13T10:24:22Z</time>
      </trkpt>
      <trkpt lat="37.2507500" lon="-2.7746080">
        <ele>1955.2</ele>
        <time>2020-07-13T10:24:26Z</time>
      </trkpt>
      <trkpt lat="37.2507970" lon="-2.7746180">
        <ele>1955.4</ele>
        <time>2020-07-13T10:24:28Z</time>
      </trkpt>
      <trkpt lat="37.2508980" lon="-2.7746390">
        <ele>1956.2</ele>
        <time>2020-07-13T10:24:32Z</time>
      </trkpt>
      <trkpt lat="37.2510370" lon="-2.7746790">
        <ele>1957.2</ele>
        <time>2020-07-13T10:24:38Z</time>
      </trkpt>
      <trkpt lat="37.2510620" lon="-2.7746860">
        <ele>1957.4</ele>
        <time>2020-07-13T10:24:39Z</time>
      </trkpt>
      <trkpt lat="37.2512140" lon="-2.7747390">
        <ele>1958.2</ele>
        <time>2020-07-13T10:24:45Z</time>
      </trkpt>
      <trkpt lat="37.2512370" lon="-2.7747420">
        <ele>1958.4</ele>
        <time>2020-07-13T10:24:46Z</time>
      </trkpt>
      <trkpt lat="37.2514140" lon="-2.7747540">
        <ele>1959.4</ele>
        <time>2020-07-13T10:24:53Z</time>
      </trkpt>
      <trkpt lat="37.2515770" lon="-2.7747480">
        <ele>1960.6</ele>
        <time>2020-07-13T10:25:00Z</time>
      </trkpt>
      <trkpt lat="37.2517430" lon="-2.7747310">
        <ele>1961.6</ele>
        <time>2020-07-13T10:25:07Z</time>
      </trkpt>
      <trkpt lat="37.2518140" lon="-2.7747350">
        <ele>1962.4</ele>
        <time>2020-07-13T10:25:10Z</time>
      </trkpt>
      <trkpt lat="37.2518380" lon="-2.7747350">
        <ele>1962.8</ele>
        <time>2020-07-13T10:25:11Z</time>
      </trkpt>
      <trkpt lat="37.2519820" lon="-2.7747360">
        <ele>1963.8</ele>
        <time>2020-07-13T10:25:17Z</time>
      </trkpt>
      <trkpt lat="37.2520550" lon="-2.7747420">
        <ele>1964.6</ele>
        <time>2020-07-13T10:25:20Z</time>
      </trkpt>
      <trkpt lat="37.2521010" lon="-2.7747390">
        <ele>1965.0</ele>
        <time>2020-07-13T10:25:22Z</time>
      </trkpt>
      <trkpt lat="37.2522490" lon="-2.7747450">
        <ele>1965.8</ele>
        <time>2020-07-13T10:25:28Z</time>
      </trkpt>
      <trkpt lat="37.2522750" lon="-2.7747450">
        <ele>1966.0</ele>
        <time>2020-07-13T10:25:29Z</time>
      </trkpt>
      <trkpt lat="37.2524230" lon="-2.7747400">
        <ele>1967.0</ele>
        <time>2020-07-13T10:25:35Z</time>
      </trkpt>
      <trkpt lat="37.2525450" lon="-2.7747360">
        <ele>1968.2</ele>
        <time>2020-07-13T10:25:40Z</time>
      </trkpt>
      <trkpt lat="37.2527910" lon="-2.7747410">
        <ele>1969.2</ele>
        <time>2020-07-13T10:25:50Z</time>
      </trkpt>
      <trkpt lat="37.2528140" lon="-2.7747420">
        <ele>1969.4</ele>
        <time>2020-07-13T10:25:51Z</time>
      </trkpt>
      <trkpt lat="37.2529390" lon="-2.7747540">
        <ele>1970.4</ele>
        <time>2020-07-13T10:25:56Z</time>
      </trkpt>
      <trkpt lat="37.2530180" lon="-2.7747540">
        <ele>1971.4</ele>
        <time>2020-07-13T10:25:59Z</time>
      </trkpt>
      <trkpt lat="37.2530440" lon="-2.7747560">
        <ele>1971.6</ele>
        <time>2020-07-13T10:26:00Z</time>
      </trkpt>
      <trkpt lat="37.2532010" lon="-2.7747810">
        <ele>1972.6</ele>
        <time>2020-07-13T10:26:06Z</time>
      </trkpt>
      <trkpt lat="37.2532560" lon="-2.7747880">
        <ele>1973.0</ele>
        <time>2020-07-13T10:26:08Z</time>
      </trkpt>
      <trkpt lat="37.2534420" lon="-2.7748060">
        <ele>1973.6</ele>
        <time>2020-07-13T10:26:15Z</time>
      </trkpt>
      <trkpt lat="37.2534670" lon="-2.7748160">
        <ele>1973.6</ele>
        <time>2020-07-13T10:26:16Z</time>
      </trkpt>
      <trkpt lat="37.2535770" lon="-2.7748670">
        <ele>1974.0</ele>
        <time>2020-07-13T10:26:20Z</time>
      </trkpt>
      <trkpt lat="37.2536120" lon="-2.7748930">
        <ele>1973.8</ele>
        <time>2020-07-13T10:26:22Z</time>
      </trkpt>
      <trkpt lat="37.2537240" lon="-2.7749650">
        <ele>1973.6</ele>
        <time>2020-07-13T10:26:26Z</time>
      </trkpt>
      <trkpt lat="37.2538050" lon="-2.7750380">
        <ele>1973.4</ele>
        <time>2020-07-13T10:26:29Z</time>
      </trkpt>
      <trkpt lat="37.2538610" lon="-2.7750800">
        <ele>1973.4</ele>
        <time>2020-07-13T10:26:31Z</time>
      </trkpt>
      <trkpt lat="37.2539200" lon="-2.7751280">
        <ele>1973.2</ele>
        <time>2020-07-13T10:26:33Z</time>
      </trkpt>
      <trkpt lat="37.2539780" lon="-2.7751710">
        <ele>1973.0</ele>
        <time>2020-07-13T10:26:35Z</time>
      </trkpt>
      <trkpt lat="37.2540090" lon="-2.7751870">
        <ele>1972.6</ele>
        <time>2020-07-13T10:26:36Z</time>
      </trkpt>
      <trkpt lat="37.2540410" lon="-2.7752100">
        <ele>1972.6</ele>
        <time>2020-07-13T10:26:37Z</time>
      </trkpt>
      <trkpt lat="37.2541210" lon="-2.7752650">
        <ele>1972.4</ele>
        <time>2020-07-13T10:26:40Z</time>
      </trkpt>
      <trkpt lat="37.2541390" lon="-2.7752750">
        <ele>1972.6</ele>
        <time>2020-07-13T10:26:41Z</time>
      </trkpt>
      <trkpt lat="37.2541580" lon="-2.7752860">
        <ele>1972.6</ele>
        <time>2020-07-13T10:26:45Z</time>
      </trkpt>
      <trkpt lat="37.2541570" lon="-2.7752890">
        <ele>1972.6</ele>
        <time>2020-07-13T10:26:46Z</time>
      </trkpt>
      <trkpt lat="37.2542570" lon="-2.7752970">
        <ele>1972.6</ele>
        <time>2020-07-13T10:31:06Z</time>
      </trkpt>
      <trkpt lat="37.2542690" lon="-2.7753080">
        <ele>1972.6</ele>
        <time>2020-07-13T10:31:07Z</time>
      </trkpt>
      <trkpt lat="37.2543100" lon="-2.7753410">
        <ele>1972.6</ele>
        <time>2020-07-13T10:31:09Z</time>
      </trkpt>
      <trkpt lat="37.2544120" lon="-2.7754290">
        <ele>1972.6</ele>
        <time>2020-07-13T10:31:13Z</time>
      </trkpt>
      <trkpt lat="37.2544480" lon="-2.7754480">
        <ele>1972.6</ele>
        <time>2020-07-13T10:31:14Z</time>
      </trkpt>
      <trkpt lat="37.2544830" lon="-2.7754700">
        <ele>1972.6</ele>
        <time>2020-07-13T10:31:15Z</time>
      </trkpt>
      <trkpt lat="37.2545570" lon="-2.7755190">
        <ele>1972.4</ele>
        <time>2020-07-13T10:31:17Z</time>
      </trkpt>
      <trkpt lat="37.2547190" lon="-2.7756230">
        <ele>1972.0</ele>
        <time>2020-07-13T10:31:21Z</time>
      </trkpt>
      <trkpt lat="37.2549010" lon="-2.7757390">
        <ele>1971.6</ele>
        <time>2020-07-13T10:31:25Z</time>
      </trkpt>
      <trkpt lat="37.2550370" lon="-2.7758330">
        <ele>1972.0</ele>
        <time>2020-07-13T10:31:28Z</time>
      </trkpt>
      <trkpt lat="37.2553280" lon="-2.7760210">
        <ele>1971.6</ele>
        <time>2020-07-13T10:31:34Z</time>
      </trkpt>
      <trkpt lat="37.2553770" lon="-2.7760560">
        <ele>1971.4</ele>
        <time>2020-07-13T10:31:35Z</time>
      </trkpt>
      <trkpt lat="37.2555230" lon="-2.7761450">
        <ele>1970.8</ele>
        <time>2020-07-13T10:31:38Z</time>
      </trkpt>
      <trkpt lat="37.2557190" lon="-2.7762730">
        <ele>1970.6</ele>
        <time>2020-07-13T10:31:42Z</time>
      </trkpt>
      <trkpt lat="37.2558230" lon="-2.7763340">
        <ele>1970.4</ele>
        <time>2020-07-13T10:31:44Z</time>
      </trkpt>
      <trkpt lat="37.2560780" lon="-2.7765080">
        <ele>1969.8</ele>
        <time>2020-07-13T10:31:49Z</time>
      </trkpt>
      <trkpt lat="37.2562260" lon="-2.7766030">
        <ele>1969.2</ele>
        <time>2020-07-13T10:31:52Z</time>
      </trkpt>
      <trkpt lat="37.2563710" lon="-2.7767000">
        <ele>1969.2</ele>
        <time>2020-07-13T10:31:55Z</time>
      </trkpt>
      <trkpt lat="37.2564710" lon="-2.7767560">
        <ele>1969.0</ele>
        <time>2020-07-13T10:31:57Z</time>
      </trkpt>
      <trkpt lat="37.2565160" lon="-2.7767900">
        <ele>1968.8</ele>
        <time>2020-07-13T10:31:58Z</time>
      </trkpt>
      <trkpt lat="37.2567590" lon="-2.7769500">
        <ele>1968.4</ele>
        <time>2020-07-13T10:32:02Z</time>
      </trkpt>
      <trkpt lat="37.2568190" lon="-2.7769960">
        <ele>1968.0</ele>
        <time>2020-07-13T10:32:03Z</time>
      </trkpt>
      <trkpt lat="37.2569410" lon="-2.7771000">
        <ele>1966.6</ele>
        <time>2020-07-13T10:32:05Z</time>
      </trkpt>
      <trkpt lat="37.2570560" lon="-2.7772310">
        <ele>1965.6</ele>
        <time>2020-07-13T10:32:07Z</time>
      </trkpt>
      <trkpt lat="37.2571070" lon="-2.7772980">
        <ele>1965.0</ele>
        <time>2020-07-13T10:32:08Z</time>
      </trkpt>
      <trkpt lat="37.2572560" lon="-2.7775060">
        <ele>1963.8</ele>
        <time>2020-07-13T10:32:11Z</time>
      </trkpt>
      <trkpt lat="37.2573530" lon="-2.7776440">
        <ele>1962.2</ele>
        <time>2020-07-13T10:32:13Z</time>
      </trkpt>
      <trkpt lat="37.2573960" lon="-2.7777120">
        <ele>1961.6</ele>
        <time>2020-07-13T10:32:14Z</time>
      </trkpt>
      <trkpt lat="37.2574390" lon="-2.7777780">
        <ele>1961.2</ele>
        <time>2020-07-13T10:32:15Z</time>
      </trkpt>
      <trkpt lat="37.2575680" lon="-2.7779720">
        <ele>1960.0</ele>
        <time>2020-07-13T10:32:18Z</time>
      </trkpt>
      <trkpt lat="37.2576610" lon="-2.7780900">
        <ele>1958.8</ele>
        <time>2020-07-13T10:32:20Z</time>
      </trkpt>
      <trkpt lat="37.2577930" lon="-2.7782720">
        <ele>1957.6</ele>
        <time>2020-07-13T10:32:23Z</time>
      </trkpt>
      <trkpt lat="37.2579210" lon="-2.7784520">
        <ele>1956.4</ele>
        <time>2020-07-13T10:32:26Z</time>
      </trkpt>
      <trkpt lat="37.2579670" lon="-2.7785140">
        <ele>1956.2</ele>
        <time>2020-07-13T10:32:27Z</time>
      </trkpt>
      <trkpt lat="37.2581070" lon="-2.7786930">
        <ele>1955.2</ele>
        <time>2020-07-13T10:32:30Z</time>
      </trkpt>
      <trkpt lat="37.2582120" lon="-2.7788260">
        <ele>1954.0</ele>
        <time>2020-07-13T10:32:32Z</time>
      </trkpt>
      <trkpt lat="37.2582700" lon="-2.7788860">
        <ele>1953.8</ele>
        <time>2020-07-13T10:32:33Z</time>
      </trkpt>
      <trkpt lat="37.2583970" lon="-2.7790040">
        <ele>1952.6</ele>
        <time>2020-07-13T10:32:35Z</time>
      </trkpt>
      <trkpt lat="37.2585350" lon="-2.7790920">
        <ele>1951.8</ele>
        <time>2020-07-13T10:32:37Z</time>
      </trkpt>
      <trkpt lat="37.2586050" lon="-2.7791230">
        <ele>1951.2</ele>
        <time>2020-07-13T10:32:38Z</time>
      </trkpt>
      <trkpt lat="37.2587540" lon="-2.7791770">
        <ele>1950.2</ele>
        <time>2020-07-13T10:32:40Z</time>
      </trkpt>
      <trkpt lat="37.2589230" lon="-2.7792370">
        <ele>1949.0</ele>
        <time>2020-07-13T10:32:42Z</time>
      </trkpt>
      <trkpt lat="37.2590880" lon="-2.7792960">
        <ele>1947.8</ele>
        <time>2020-07-13T10:32:44Z</time>
      </trkpt>
      <trkpt lat="37.2592460" lon="-2.7793540">
        <ele>1946.8</ele>
        <time>2020-07-13T10:32:46Z</time>
      </trkpt>
      <trkpt lat="37.2595150" lon="-2.7794520">
        <ele>1945.8</ele>
        <time>2020-07-13T10:32:49Z</time>
      </trkpt>
      <trkpt lat="37.2596860" lon="-2.7795160">
        <ele>1944.4</ele>
        <time>2020-07-13T10:32:51Z</time>
      </trkpt>
      <trkpt lat="37.2597720" lon="-2.7795510">
        <ele>1943.6</ele>
        <time>2020-07-13T10:32:52Z</time>
      </trkpt>
      <trkpt lat="37.2598610" lon="-2.7795860">
        <ele>1943.0</ele>
        <time>2020-07-13T10:32:53Z</time>
      </trkpt>
      <trkpt lat="37.2603310" lon="-2.7797580">
        <ele>1942.4</ele>
        <time>2020-07-13T10:32:59Z</time>
      </trkpt>
      <trkpt lat="37.2605370" lon="-2.7798350">
        <ele>1942.6</ele>
        <time>2020-07-13T10:33:02Z</time>
      </trkpt>
      <trkpt lat="37.2607020" lon="-2.7799140">
        <ele>1942.8</ele>
        <time>2020-07-13T10:33:05Z</time>
      </trkpt>
      <trkpt lat="37.2607960" lon="-2.7799410">
        <ele>1942.4</ele>
        <time>2020-07-13T10:33:07Z</time>
      </trkpt>
      <trkpt lat="37.2608730" lon="-2.7799710">
        <ele>1942.4</ele>
        <time>2020-07-13T10:33:10Z</time>
      </trkpt>
      <trkpt lat="37.2610080" lon="-2.7800160">
        <ele>1943.2</ele>
        <time>2020-07-13T10:33:13Z</time>
      </trkpt>
      <trkpt lat="37.2610390" lon="-2.7800300">
        <ele>1944.2</ele>
        <time>2020-07-13T10:33:14Z</time>
      </trkpt>
      <trkpt lat="37.2610950" lon="-2.7800590">
        <ele>1945.0</ele>
        <time>2020-07-13T10:33:16Z</time>
      </trkpt>
      <trkpt lat="37.2611270" lon="-2.7800760">
        <ele>1945.4</ele>
        <time>2020-07-13T10:33:17Z</time>
      </trkpt>
      <trkpt lat="37.2611870" lon="-2.7800990">
        <ele>1945.8</ele>
        <time>2020-07-13T10:33:19Z</time>
      </trkpt>
      <trkpt lat="37.2612430" lon="-2.7801210">
        <ele>1946.2</ele>
        <time>2020-07-13T10:33:21Z</time>
      </trkpt>
      <trkpt lat="37.2612730" lon="-2.7801320">
        <ele>1946.4</ele>
        <time>2020-07-13T10:33:22Z</time>
      </trkpt>
      <trkpt lat="37.2613310" lon="-2.7801530">
        <ele>1946.8</ele>
        <time>2020-07-13T10:33:24Z</time>
      </trkpt>
      <trkpt lat="37.2613850" lon="-2.7801750">
        <ele>1947.2</ele>
        <time>2020-07-13T10:33:26Z</time>
      </trkpt>
      <trkpt lat="37.2614150" lon="-2.7801880">
        <ele>1947.6</ele>
        <time>2020-07-13T10:33:27Z</time>
      </trkpt>
      <trkpt lat="37.2615170" lon="-2.7802320">
        <ele>1948.2</ele>
        <time>2020-07-13T10:33:31Z</time>
      </trkpt>
      <trkpt lat="37.2615940" lon="-2.7802640">
        <ele>1948.8</ele>
        <time>2020-07-13T10:33:34Z</time>
      </trkpt>
      <trkpt lat="37.2616740" lon="-2.7802880">
        <ele>1949.2</ele>
        <time>2020-07-13T10:33:37Z</time>
      </trkpt>
      <trkpt lat="37.2617240" lon="-2.7803090">
        <ele>1950.0</ele>
        <time>2020-07-13T10:33:39Z</time>
      </trkpt>
      <trkpt lat="37.2618280" lon="-2.7803590">
        <ele>1951.2</ele>
        <time>2020-07-13T10:33:43Z</time>
      </trkpt>
      <trkpt lat="37.2618820" lon="-2.7803800">
        <ele>1951.4</ele>
        <time>2020-07-13T10:33:45Z</time>
      </trkpt>
      <trkpt lat="37.2619770" lon="-2.7804170">
        <ele>1952.4</ele>
        <time>2020-07-13T10:33:49Z</time>
      </trkpt>
      <trkpt lat="37.2620230" lon="-2.7804340">
        <ele>1952.6</ele>
        <time>2020-07-13T10:33:51Z</time>
      </trkpt>
      <trkpt lat="37.2621350" lon="-2.7804760">
        <ele>1953.6</ele>
        <time>2020-07-13T10:33:56Z</time>
      </trkpt>
      <trkpt lat="37.2622050" lon="-2.7804880">
        <ele>1954.2</ele>
        <time>2020-07-13T10:33:59Z</time>
      </trkpt>
      <trkpt lat="37.2622690" lon="-2.7805230">
        <ele>1954.8</ele>
        <time>2020-07-13T10:34:02Z</time>
      </trkpt>
      <trkpt lat="37.2623380" lon="-2.7805450">
        <ele>1955.2</ele>
        <time>2020-07-13T10:34:05Z</time>
      </trkpt>
      <trkpt lat="37.2624300" lon="-2.7805820">
        <ele>1955.8</ele>
        <time>2020-07-13T10:34:09Z</time>
      </trkpt>
      <trkpt lat="37.2625250" lon="-2.7806240">
        <ele>1956.2</ele>
        <time>2020-07-13T10:34:13Z</time>
      </trkpt>
      <trkpt lat="37.2626440" lon="-2.7806700">
        <ele>1957.2</ele>
        <time>2020-07-13T10:34:18Z</time>
      </trkpt>
      <trkpt lat="37.2627230" lon="-2.7807080">
        <ele>1958.0</ele>
        <time>2020-07-13T10:34:21Z</time>
      </trkpt>
      <trkpt lat="37.2628220" lon="-2.7807540">
        <ele>1958.2</ele>
        <time>2020-07-13T10:34:24Z</time>
      </trkpt>
      <trkpt lat="37.2629280" lon="-2.7808210">
        <ele>1958.2</ele>
        <time>2020-07-13T10:34:27Z</time>
      </trkpt>
      <trkpt lat="37.2632050" lon="-2.7809640">
        <ele>1958.2</ele>
        <time>2020-07-13T10:34:33Z</time>
      </trkpt>
      <trkpt lat="37.2635430" lon="-2.7810740">
        <ele>1957.4</ele>
        <time>2020-07-13T10:34:39Z</time>
      </trkpt>
      <trkpt lat="37.2635980" lon="-2.7810790">
        <ele>1957.2</ele>
        <time>2020-07-13T10:34:40Z</time>
      </trkpt>
      <trkpt lat="37.2638830" lon="-2.7811040">
        <ele>1957.0</ele>
        <time>2020-07-13T10:34:45Z</time>
      </trkpt>
      <trkpt lat="37.2639920" lon="-2.7811310">
        <ele>1957.2</ele>
        <time>2020-07-13T10:34:47Z</time>
      </trkpt>
      <trkpt lat="37.2642100" lon="-2.7811940">
        <ele>1957.6</ele>
        <time>2020-07-13T10:34:51Z</time>
      </trkpt>
      <trkpt lat="37.2643850" lon="-2.7812420">
        <ele>1957.8</ele>
        <time>2020-07-13T10:34:54Z</time>
      </trkpt>
      <trkpt lat="37.2644420" lon="-2.7812540">
        <ele>1957.8</ele>
        <time>2020-07-13T10:34:55Z</time>
      </trkpt>
      <trkpt lat="37.2646730" lon="-2.7812730">
        <ele>1957.6</ele>
        <time>2020-07-13T10:34:59Z</time>
      </trkpt>
      <trkpt lat="37.2648410" lon="-2.7812620">
        <ele>1957.8</ele>
        <time>2020-07-13T10:35:02Z</time>
      </trkpt>
      <trkpt lat="37.2652700" lon="-2.7811400">
        <ele>1957.6</ele>
        <time>2020-07-13T10:35:09Z</time>
      </trkpt>
      <trkpt lat="37.2656340" lon="-2.7809920">
        <ele>1956.6</ele>
        <time>2020-07-13T10:35:14Z</time>
      </trkpt>
      <trkpt lat="37.2657140" lon="-2.7809750">
        <ele>1956.4</ele>
        <time>2020-07-13T10:35:15Z</time>
      </trkpt>
      <trkpt lat="37.2658740" lon="-2.7809580">
        <ele>1956.0</ele>
        <time>2020-07-13T10:35:17Z</time>
      </trkpt>
      <trkpt lat="37.2661080" lon="-2.7809580">
        <ele>1955.8</ele>
        <time>2020-07-13T10:35:20Z</time>
      </trkpt>
      <trkpt lat="37.2666690" lon="-2.7809490">
        <ele>1955.8</ele>
        <time>2020-07-13T10:35:28Z</time>
      </trkpt>
      <trkpt lat="37.2670540" lon="-2.7808320">
        <ele>1956.2</ele>
        <time>2020-07-13T10:35:34Z</time>
      </trkpt>
      <trkpt lat="37.2675090" lon="-2.7807130">
        <ele>1955.2</ele>
        <time>2020-07-13T10:35:40Z</time>
      </trkpt>
      <trkpt lat="37.2675920" lon="-2.7806950">
        <ele>1955.0</ele>
        <time>2020-07-13T10:35:41Z</time>
      </trkpt>
      <trkpt lat="37.2679560" lon="-2.7806110">
        <ele>1953.6</ele>
        <time>2020-07-13T10:35:45Z</time>
      </trkpt>
      <trkpt lat="37.2681490" lon="-2.7805690">
        <ele>1952.4</ele>
        <time>2020-07-13T10:35:47Z</time>
      </trkpt>
      <trkpt lat="37.2683550" lon="-2.7805720">
        <ele>1951.2</ele>
        <time>2020-07-13T10:35:49Z</time>
      </trkpt>
      <trkpt lat="37.2684560" lon="-2.7806050">
        <ele>1950.6</ele>
        <time>2020-07-13T10:35:50Z</time>
      </trkpt>
      <trkpt lat="37.2686330" lon="-2.7807240">
        <ele>1949.8</ele>
        <time>2020-07-13T10:35:52Z</time>
      </trkpt>
      <trkpt lat="37.2687130" lon="-2.7808100">
        <ele>1949.6</ele>
        <time>2020-07-13T10:35:53Z</time>
      </trkpt>
      <trkpt lat="37.2688960" lon="-2.7811010">
        <ele>1948.6</ele>
        <time>2020-07-13T10:35:56Z</time>
      </trkpt>
      <trkpt lat="37.2689740" lon="-2.7813150">
        <ele>1948.0</ele>
        <time>2020-07-13T10:35:58Z</time>
      </trkpt>
      <trkpt lat="37.2690320" lon="-2.7815390">
        <ele>1947.6</ele>
        <time>2020-07-13T10:36:00Z</time>
      </trkpt>
      <trkpt lat="37.2690990" lon="-2.7820610">
        <ele>1947.4</ele>
        <time>2020-07-13T10:36:05Z</time>
      </trkpt>
      <trkpt lat="37.2690960" lon="-2.7823650">
        <ele>1947.6</ele>
        <time>2020-07-13T10:36:08Z</time>
      </trkpt>
      <trkpt lat="37.2691050" lon="-2.7826670">
        <ele>1947.6</ele>
        <time>2020-07-13T10:36:11Z</time>
      </trkpt>
      <trkpt lat="37.2691600" lon="-2.7832840">
        <ele>1947.4</ele>
        <time>2020-07-13T10:36:17Z</time>
      </trkpt>
      <trkpt lat="37.2691880" lon="-2.7833830">
        <ele>1947.4</ele>
        <time>2020-07-13T10:36:18Z</time>
      </trkpt>
      <trkpt lat="37.2693270" lon="-2.7837780">
        <ele>1946.6</ele>
        <time>2020-07-13T10:36:22Z</time>
      </trkpt>
      <trkpt lat="37.2693750" lon="-2.7838770">
        <ele>1946.2</ele>
        <time>2020-07-13T10:36:23Z</time>
      </trkpt>
      <trkpt lat="37.2695030" lon="-2.7841600">
        <ele>1945.6</ele>
        <time>2020-07-13T10:36:26Z</time>
      </trkpt>
      <trkpt lat="37.2695260" lon="-2.7842750">
        <ele>1945.4</ele>
        <time>2020-07-13T10:36:27Z</time>
      </trkpt>
      <trkpt lat="37.2695170" lon="-2.7843830">
        <ele>1945.0</ele>
        <time>2020-07-13T10:36:28Z</time>
      </trkpt>
      <trkpt lat="37.2694300" lon="-2.7845960">
        <ele>1944.4</ele>
        <time>2020-07-13T10:36:30Z</time>
      </trkpt>
      <trkpt lat="37.2693820" lon="-2.7846790">
        <ele>1944.0</ele>
        <time>2020-07-13T10:36:31Z</time>
      </trkpt>
      <trkpt lat="37.2692690" lon="-2.7848480">
        <ele>1943.4</ele>
        <time>2020-07-13T10:36:33Z</time>
      </trkpt>
      <trkpt lat="37.2692160" lon="-2.7849320">
        <ele>1943.2</ele>
        <time>2020-07-13T10:36:34Z</time>
      </trkpt>
      <trkpt lat="37.2691170" lon="-2.7851070">
        <ele>1942.8</ele>
        <time>2020-07-13T10:36:36Z</time>
      </trkpt>
      <trkpt lat="37.2690010" lon="-2.7853990">
        <ele>1942.4</ele>
        <time>2020-07-13T10:36:39Z</time>
      </trkpt>
      <trkpt lat="37.2689230" lon="-2.7855910">
        <ele>1942.0</ele>
        <time>2020-07-13T10:36:41Z</time>
      </trkpt>
      <trkpt lat="37.2688790" lon="-2.7856940">
        <ele>1941.8</ele>
        <time>2020-07-13T10:36:42Z</time>
      </trkpt>
      <trkpt lat="37.2687220" lon="-2.7860840">
        <ele>1940.8</ele>
        <time>2020-07-13T10:36:46Z</time>
      </trkpt>
      <trkpt lat="37.2686910" lon="-2.7861990">
        <ele>1940.4</ele>
        <time>2020-07-13T10:36:47Z</time>
      </trkpt>
      <trkpt lat="37.2686800" lon="-2.7862980">
        <ele>1940.2</ele>
        <time>2020-07-13T10:36:48Z</time>
      </trkpt>
      <trkpt lat="37.2686650" lon="-2.7865210">
        <ele>1939.6</ele>
        <time>2020-07-13T10:36:50Z</time>
      </trkpt>
      <trkpt lat="37.2686640" lon="-2.7866290">
        <ele>1939.4</ele>
        <time>2020-07-13T10:36:51Z</time>
      </trkpt>
      <trkpt lat="37.2686680" lon="-2.7867450">
        <ele>1939.2</ele>
        <time>2020-07-13T10:36:52Z</time>
      </trkpt>
      <trkpt lat="37.2686870" lon="-2.7869710">
        <ele>1938.8</ele>
        <time>2020-07-13T10:36:54Z</time>
      </trkpt>
      <trkpt lat="37.2686980" lon="-2.7870810">
        <ele>1938.6</ele>
        <time>2020-07-13T10:36:55Z</time>
      </trkpt>
      <trkpt lat="37.2687060" lon="-2.7871840">
        <ele>1938.4</ele>
        <time>2020-07-13T10:36:56Z</time>
      </trkpt>
      <trkpt lat="37.2687150" lon="-2.7873000">
        <ele>1938.0</ele>
        <time>2020-07-13T10:36:57Z</time>
      </trkpt>
      <trkpt lat="37.2687390" lon="-2.7875180">
        <ele>1937.8</ele>
        <time>2020-07-13T10:36:59Z</time>
      </trkpt>
      <trkpt lat="37.2688270" lon="-2.7879370">
        <ele>1937.0</ele>
        <time>2020-07-13T10:37:03Z</time>
      </trkpt>
      <trkpt lat="37.2689210" lon="-2.7881230">
        <ele>1936.6</ele>
        <time>2020-07-13T10:37:05Z</time>
      </trkpt>
      <trkpt lat="37.2689850" lon="-2.7881980">
        <ele>1936.6</ele>
        <time>2020-07-13T10:37:06Z</time>
      </trkpt>
      <trkpt lat="37.2692370" lon="-2.7883860">
        <ele>1936.2</ele>
        <time>2020-07-13T10:37:09Z</time>
      </trkpt>
      <trkpt lat="37.2693250" lon="-2.7884280">
        <ele>1935.8</ele>
        <time>2020-07-13T10:37:10Z</time>
      </trkpt>
      <trkpt lat="37.2695160" lon="-2.7885020">
        <ele>1935.0</ele>
        <time>2020-07-13T10:37:12Z</time>
      </trkpt>
      <trkpt lat="37.2696150" lon="-2.7885300">
        <ele>1934.4</ele>
        <time>2020-07-13T10:37:13Z</time>
      </trkpt>
      <trkpt lat="37.2698290" lon="-2.7885660">
        <ele>1933.0</ele>
        <time>2020-07-13T10:37:15Z</time>
      </trkpt>
      <trkpt lat="37.2700520" lon="-2.7885720">
        <ele>1931.6</ele>
        <time>2020-07-13T10:37:17Z</time>
      </trkpt>
      <trkpt lat="37.2702800" lon="-2.7885790">
        <ele>1930.4</ele>
        <time>2020-07-13T10:37:19Z</time>
      </trkpt>
      <trkpt lat="37.2705020" lon="-2.7885840">
        <ele>1929.2</ele>
        <time>2020-07-13T10:37:21Z</time>
      </trkpt>
      <trkpt lat="37.2708620" lon="-2.7886350">
        <ele>1927.8</ele>
        <time>2020-07-13T10:37:24Z</time>
      </trkpt>
      <trkpt lat="37.2710970" lon="-2.7886890">
        <ele>1926.8</ele>
        <time>2020-07-13T10:37:26Z</time>
      </trkpt>
      <trkpt lat="37.2712250" lon="-2.7887220">
        <ele>1926.0</ele>
        <time>2020-07-13T10:37:27Z</time>
      </trkpt>
      <trkpt lat="37.2715900" lon="-2.7888150">
        <ele>1924.4</ele>
        <time>2020-07-13T10:37:30Z</time>
      </trkpt>
      <trkpt lat="37.2717070" lon="-2.7888390">
        <ele>1923.8</ele>
        <time>2020-07-13T10:37:31Z</time>
      </trkpt>
      <trkpt lat="37.2718360" lon="-2.7888630">
        <ele>1923.0</ele>
        <time>2020-07-13T10:37:32Z</time>
      </trkpt>
      <trkpt lat="37.2719530" lon="-2.7888780">
        <ele>1922.4</ele>
        <time>2020-07-13T10:37:33Z</time>
      </trkpt>
      <trkpt lat="37.2720590" lon="-2.7888800">
        <ele>1921.6</ele>
        <time>2020-07-13T10:37:34Z</time>
      </trkpt>
      <trkpt lat="37.2721790" lon="-2.7888670">
        <ele>1920.8</ele>
        <time>2020-07-13T10:37:35Z</time>
      </trkpt>
      <trkpt lat="37.2722710" lon="-2.7888390">
        <ele>1920.2</ele>
        <time>2020-07-13T10:37:36Z</time>
      </trkpt>
      <trkpt lat="37.2724500" lon="-2.7887360">
        <ele>1919.0</ele>
        <time>2020-07-13T10:37:38Z</time>
      </trkpt>
      <trkpt lat="37.2726260" lon="-2.7886070">
        <ele>1917.8</ele>
        <time>2020-07-13T10:37:40Z</time>
      </trkpt>
      <trkpt lat="37.2728130" lon="-2.7884730">
        <ele>1916.6</ele>
        <time>2020-07-13T10:37:42Z</time>
      </trkpt>
      <trkpt lat="37.2730060" lon="-2.7883440">
        <ele>1915.6</ele>
        <time>2020-07-13T10:37:44Z</time>
      </trkpt>
      <trkpt lat="37.2731010" lon="-2.7882770">
        <ele>1915.2</ele>
        <time>2020-07-13T10:37:45Z</time>
      </trkpt>
      <trkpt lat="37.2733660" lon="-2.7880230">
        <ele>1913.8</ele>
        <time>2020-07-13T10:37:48Z</time>
      </trkpt>
      <trkpt lat="37.2734400" lon="-2.7879070">
        <ele>1913.2</ele>
        <time>2020-07-13T10:37:49Z</time>
      </trkpt>
      <trkpt lat="37.2734970" lon="-2.7877880">
        <ele>1912.8</ele>
        <time>2020-07-13T10:37:50Z</time>
      </trkpt>
      <trkpt lat="37.2735920" lon="-2.7875430">
        <ele>1911.8</ele>
        <time>2020-07-13T10:37:52Z</time>
      </trkpt>
      <trkpt lat="37.2736380" lon="-2.7874170">
        <ele>1911.4</ele>
        <time>2020-07-13T10:37:53Z</time>
      </trkpt>
      <trkpt lat="37.2737220" lon="-2.7871580">
        <ele>1910.0</ele>
        <time>2020-07-13T10:37:55Z</time>
      </trkpt>
      <trkpt lat="37.2737750" lon="-2.7868900">
        <ele>1908.6</ele>
        <time>2020-07-13T10:37:57Z</time>
      </trkpt>
      <trkpt lat="37.2737960" lon="-2.7867670">
        <ele>1908.0</ele>
        <time>2020-07-13T10:37:58Z</time>
      </trkpt>
      <trkpt lat="37.2738240" lon="-2.7866240">
        <ele>1907.6</ele>
        <time>2020-07-13T10:37:59Z</time>
      </trkpt>
      <trkpt lat="37.2738480" lon="-2.7864920">
        <ele>1906.8</ele>
        <time>2020-07-13T10:38:00Z</time>
      </trkpt>
      <trkpt lat="37.2739070" lon="-2.7862350">
        <ele>1906.0</ele>
        <time>2020-07-13T10:38:02Z</time>
      </trkpt>
      <trkpt lat="37.2739410" lon="-2.7861210">
        <ele>1905.6</ele>
        <time>2020-07-13T10:38:03Z</time>
      </trkpt>
      <trkpt lat="37.2739880" lon="-2.7860080">
        <ele>1905.4</ele>
        <time>2020-07-13T10:38:04Z</time>
      </trkpt>
      <trkpt lat="37.2742420" lon="-2.7858230">
        <ele>1905.0</ele>
        <time>2020-07-13T10:38:07Z</time>
      </trkpt>
      <trkpt lat="37.2744450" lon="-2.7858490">
        <ele>1904.6</ele>
        <time>2020-07-13T10:38:09Z</time>
      </trkpt>
      <trkpt lat="37.2745390" lon="-2.7858450">
        <ele>1904.4</ele>
        <time>2020-07-13T10:38:10Z</time>
      </trkpt>
      <trkpt lat="37.2748510" lon="-2.7857160">
        <ele>1903.6</ele>
        <time>2020-07-13T10:38:13Z</time>
      </trkpt>
      <trkpt lat="37.2749520" lon="-2.7856440">
        <ele>1903.4</ele>
        <time>2020-07-13T10:38:14Z</time>
      </trkpt>
      <trkpt lat="37.2750480" lon="-2.7855710">
        <ele>1902.8</ele>
        <time>2020-07-13T10:38:15Z</time>
      </trkpt>
      <trkpt lat="37.2751250" lon="-2.7854980">
        <ele>1902.2</ele>
        <time>2020-07-13T10:38:16Z</time>
      </trkpt>
      <trkpt lat="37.2751990" lon="-2.7853940">
        <ele>1901.6</ele>
        <time>2020-07-13T10:38:17Z</time>
      </trkpt>
      <trkpt lat="37.2752380" lon="-2.7852820">
        <ele>1901.0</ele>
        <time>2020-07-13T10:38:18Z</time>
      </trkpt>
      <trkpt lat="37.2752620" lon="-2.7851530">
        <ele>1900.2</ele>
        <time>2020-07-13T10:38:19Z</time>
      </trkpt>
      <trkpt lat="37.2752750" lon="-2.7850280">
        <ele>1899.8</ele>
        <time>2020-07-13T10:38:20Z</time>
      </trkpt>
      <trkpt lat="37.2752930" lon="-2.7849020">
        <ele>1899.2</ele>
        <time>2020-07-13T10:38:21Z</time>
      </trkpt>
      <trkpt lat="37.2753150" lon="-2.7847820">
        <ele>1898.6</ele>
        <time>2020-07-13T10:38:22Z</time>
      </trkpt>
      <trkpt lat="37.2753480" lon="-2.7846500">
        <ele>1898.0</ele>
        <time>2020-07-13T10:38:23Z</time>
      </trkpt>
      <trkpt lat="37.2753960" lon="-2.7845250">
        <ele>1897.6</ele>
        <time>2020-07-13T10:38:24Z</time>
      </trkpt>
      <trkpt lat="37.2754580" lon="-2.7844270">
        <ele>1897.2</ele>
        <time>2020-07-13T10:38:25Z</time>
      </trkpt>
      <trkpt lat="37.2755430" lon="-2.7843370">
        <ele>1896.8</ele>
        <time>2020-07-13T10:38:26Z</time>
      </trkpt>
      <trkpt lat="37.2757430" lon="-2.7842070">
        <ele>1895.8</ele>
        <time>2020-07-13T10:38:28Z</time>
      </trkpt>
      <trkpt lat="37.2758480" lon="-2.7841540">
        <ele>1895.2</ele>
        <time>2020-07-13T10:38:29Z</time>
      </trkpt>
      <trkpt lat="37.2759620" lon="-2.7840960">
        <ele>1894.6</ele>
        <time>2020-07-13T10:38:30Z</time>
      </trkpt>
      <trkpt lat="37.2761790" lon="-2.7840010">
        <ele>1893.4</ele>
        <time>2020-07-13T10:38:32Z</time>
      </trkpt>
      <trkpt lat="37.2765210" lon="-2.7838860">
        <ele>1892.2</ele>
        <time>2020-07-13T10:38:35Z</time>
      </trkpt>
      <trkpt lat="37.2766480" lon="-2.7838850">
        <ele>1891.6</ele>
        <time>2020-07-13T10:38:36Z</time>
      </trkpt>
      <trkpt lat="37.2767680" lon="-2.7838900">
        <ele>1891.2</ele>
        <time>2020-07-13T10:38:37Z</time>
      </trkpt>
      <trkpt lat="37.2768810" lon="-2.7839300">
        <ele>1890.6</ele>
        <time>2020-07-13T10:38:38Z</time>
      </trkpt>
      <trkpt lat="37.2771090" lon="-2.7840410">
        <ele>1889.2</ele>
        <time>2020-07-13T10:38:40Z</time>
      </trkpt>
      <trkpt lat="37.2774330" lon="-2.7841730">
        <ele>1888.0</ele>
        <time>2020-07-13T10:38:43Z</time>
      </trkpt>
      <trkpt lat="37.2775360" lon="-2.7841730">
        <ele>1887.8</ele>
        <time>2020-07-13T10:38:44Z</time>
      </trkpt>
      <trkpt lat="37.2776360" lon="-2.7841560">
        <ele>1887.2</ele>
        <time>2020-07-13T10:38:45Z</time>
      </trkpt>
      <trkpt lat="37.2777290" lon="-2.7841140">
        <ele>1886.8</ele>
        <time>2020-07-13T10:38:46Z</time>
      </trkpt>
      <trkpt lat="37.2779120" lon="-2.7839740">
        <ele>1885.8</ele>
        <time>2020-07-13T10:38:48Z</time>
      </trkpt>
      <trkpt lat="37.2779910" lon="-2.7838840">
        <ele>1885.2</ele>
        <time>2020-07-13T10:38:49Z</time>
      </trkpt>
      <trkpt lat="37.2781130" lon="-2.7836780">
        <ele>1884.2</ele>
        <time>2020-07-13T10:38:51Z</time>
      </trkpt>
      <trkpt lat="37.2782440" lon="-2.7832970">
        <ele>1882.6</ele>
        <time>2020-07-13T10:38:54Z</time>
      </trkpt>
      <trkpt lat="37.2782710" lon="-2.7830240">
        <ele>1881.4</ele>
        <time>2020-07-13T10:38:56Z</time>
      </trkpt>
      <trkpt lat="37.2782650" lon="-2.7828740">
        <ele>1880.8</ele>
        <time>2020-07-13T10:38:57Z</time>
      </trkpt>
      <trkpt lat="37.2782540" lon="-2.7827340">
        <ele>1880.2</ele>
        <time>2020-07-13T10:38:58Z</time>
      </trkpt>
      <trkpt lat="37.2782540" lon="-2.7825880">
        <ele>1879.6</ele>
        <time>2020-07-13T10:38:59Z</time>
      </trkpt>
      <trkpt lat="37.2782860" lon="-2.7824320">
        <ele>1879.0</ele>
        <time>2020-07-13T10:39:00Z</time>
      </trkpt>
      <trkpt lat="37.2783440" lon="-2.7823090">
        <ele>1878.4</ele>
        <time>2020-07-13T10:39:01Z</time>
      </trkpt>
      <trkpt lat="37.2784240" lon="-2.7821760">
        <ele>1877.2</ele>
        <time>2020-07-13T10:39:02Z</time>
      </trkpt>
      <trkpt lat="37.2785840" lon="-2.7819530">
        <ele>1875.8</ele>
        <time>2020-07-13T10:39:04Z</time>
      </trkpt>
      <trkpt lat="37.2788100" lon="-2.7818220">
        <ele>1874.6</ele>
        <time>2020-07-13T10:39:06Z</time>
      </trkpt>
      <trkpt lat="37.2789270" lon="-2.7817720">
        <ele>1874.2</ele>
        <time>2020-07-13T10:39:07Z</time>
      </trkpt>
      <trkpt lat="37.2791440" lon="-2.7816970">
        <ele>1872.6</ele>
        <time>2020-07-13T10:39:09Z</time>
      </trkpt>
      <trkpt lat="37.2792360" lon="-2.7816180">
        <ele>1871.8</ele>
        <time>2020-07-13T10:39:10Z</time>
      </trkpt>
      <trkpt lat="37.2793090" lon="-2.7815260">
        <ele>1871.0</ele>
        <time>2020-07-13T10:39:11Z</time>
      </trkpt>
      <trkpt lat="37.2794580" lon="-2.7812960">
        <ele>1869.6</ele>
        <time>2020-07-13T10:39:13Z</time>
      </trkpt>
      <trkpt lat="37.2796020" lon="-2.7810650">
        <ele>1868.4</ele>
        <time>2020-07-13T10:39:15Z</time>
      </trkpt>
      <trkpt lat="37.2797470" lon="-2.7808410">
        <ele>1867.2</ele>
        <time>2020-07-13T10:39:17Z</time>
      </trkpt>
      <trkpt lat="37.2798960" lon="-2.7806070">
        <ele>1866.0</ele>
        <time>2020-07-13T10:39:19Z</time>
      </trkpt>
      <trkpt lat="37.2800440" lon="-2.7803850">
        <ele>1864.6</ele>
        <time>2020-07-13T10:39:21Z</time>
      </trkpt>
      <trkpt lat="37.2802010" lon="-2.7802050">
        <ele>1863.2</ele>
        <time>2020-07-13T10:39:23Z</time>
      </trkpt>
      <trkpt lat="37.2803940" lon="-2.7801010">
        <ele>1861.6</ele>
        <time>2020-07-13T10:39:25Z</time>
      </trkpt>
      <trkpt lat="37.2805910" lon="-2.7800710">
        <ele>1860.6</ele>
        <time>2020-07-13T10:39:27Z</time>
      </trkpt>
      <trkpt lat="37.2806770" lon="-2.7800640">
        <ele>1859.6</ele>
        <time>2020-07-13T10:39:28Z</time>
      </trkpt>
      <trkpt lat="37.2807570" lon="-2.7800610">
        <ele>1858.8</ele>
        <time>2020-07-13T10:39:29Z</time>
      </trkpt>
      <trkpt lat="37.2809830" lon="-2.7800810">
        <ele>1857.6</ele>
        <time>2020-07-13T10:39:32Z</time>
      </trkpt>
      <trkpt lat="37.2811820" lon="-2.7800940">
        <ele>1856.8</ele>
        <time>2020-07-13T10:39:35Z</time>
      </trkpt>
      <trkpt lat="37.2812450" lon="-2.7801120">
        <ele>1856.2</ele>
        <time>2020-07-13T10:39:36Z</time>
      </trkpt>
      <trkpt lat="37.2813610" lon="-2.7801510">
        <ele>1856.6</ele>
        <time>2020-07-13T10:39:38Z</time>
      </trkpt>
      <trkpt lat="37.2814580" lon="-2.7802050">
        <ele>1857.2</ele>
        <time>2020-07-13T10:39:40Z</time>
      </trkpt>
      <trkpt lat="37.2814990" lon="-2.7802270">
        <ele>1857.2</ele>
        <time>2020-07-13T10:39:41Z</time>
      </trkpt>
      <trkpt lat="37.2815850" lon="-2.7802770">
        <ele>1857.2</ele>
        <time>2020-07-13T10:39:43Z</time>
      </trkpt>
      <trkpt lat="37.2817060" lon="-2.7803760">
        <ele>1856.4</ele>
        <time>2020-07-13T10:39:46Z</time>
      </trkpt>
      <trkpt lat="37.2819100" lon="-2.7805400">
        <ele>1856.6</ele>
        <time>2020-07-13T10:39:51Z</time>
      </trkpt>
      <trkpt lat="37.2821130" lon="-2.7807140">
        <ele>1857.0</ele>
        <time>2020-07-13T10:39:56Z</time>
      </trkpt>
      <trkpt lat="37.2822380" lon="-2.7808150">
        <ele>1856.8</ele>
        <time>2020-07-13T10:39:59Z</time>
      </trkpt>
      <trkpt lat="37.2824010" lon="-2.7809440">
        <ele>1857.6</ele>
        <time>2020-07-13T10:40:03Z</time>
      </trkpt>
      <trkpt lat="37.2824750" lon="-2.7810200">
        <ele>1857.8</ele>
        <time>2020-07-13T10:40:05Z</time>
      </trkpt>
      <trkpt lat="37.2826520" lon="-2.7812180">
        <ele>1857.8</ele>
        <time>2020-07-13T10:40:10Z</time>
      </trkpt>
      <trkpt lat="37.2827110" lon="-2.7813180">
        <ele>1857.8</ele>
        <time>2020-07-13T10:40:12Z</time>
      </trkpt>
      <trkpt lat="37.2827320" lon="-2.7813720">
        <ele>1857.6</ele>
        <time>2020-07-13T10:40:13Z</time>
      </trkpt>
      <trkpt lat="37.2827710" lon="-2.7815470">
        <ele>1857.0</ele>
        <time>2020-07-13T10:40:16Z</time>
      </trkpt>
      <trkpt lat="37.2827880" lon="-2.7816650">
        <ele>1857.0</ele>
        <time>2020-07-13T10:40:18Z</time>
      </trkpt>
      <trkpt lat="37.2827810" lon="-2.7818500">
        <ele>1856.6</ele>
        <time>2020-07-13T10:40:21Z</time>
      </trkpt>
      <trkpt lat="37.2827650" lon="-2.7819770">
        <ele>1856.6</ele>
        <time>2020-07-13T10:40:23Z</time>
      </trkpt>
      <trkpt lat="37.2827590" lon="-2.7822210">
        <ele>1857.0</ele>
        <time>2020-07-13T10:40:27Z</time>
      </trkpt>
      <trkpt lat="37.2827490" lon="-2.7823220">
        <ele>1856.8</ele>
        <time>2020-07-13T10:40:29Z</time>
      </trkpt>
      <trkpt lat="37.2827440" lon="-2.7824330">
        <ele>1856.8</ele>
        <time>2020-07-13T10:40:31Z</time>
      </trkpt>
      <trkpt lat="37.2827190" lon="-2.7826750">
        <ele>1856.6</ele>
        <time>2020-07-13T10:40:35Z</time>
      </trkpt>
      <trkpt lat="37.2826710" lon="-2.7831320">
        <ele>1857.0</ele>
        <time>2020-07-13T10:40:42Z</time>
      </trkpt>
      <trkpt lat="37.2826640" lon="-2.7831940">
        <ele>1856.8</ele>
        <time>2020-07-13T10:40:43Z</time>
      </trkpt>
      <trkpt lat="37.2826800" lon="-2.7835180">
        <ele>1856.8</ele>
        <time>2020-07-13T10:40:48Z</time>
      </trkpt>
      <trkpt lat="37.2827000" lon="-2.7835830">
        <ele>1856.8</ele>
        <time>2020-07-13T10:40:49Z</time>
      </trkpt>
      <trkpt lat="37.2827940" lon="-2.7837270">
        <ele>1856.6</ele>
        <time>2020-07-13T10:40:52Z</time>
      </trkpt>
      <trkpt lat="37.2828370" lon="-2.7837590">
        <ele>1856.4</ele>
        <time>2020-07-13T10:40:53Z</time>
      </trkpt>
      <trkpt lat="37.2828800" lon="-2.7837920">
        <ele>1856.0</ele>
        <time>2020-07-13T10:40:54Z</time>
      </trkpt>
      <trkpt lat="37.2829680" lon="-2.7838520">
        <ele>1855.8</ele>
        <time>2020-07-13T10:40:56Z</time>
      </trkpt>
      <trkpt lat="37.2831020" lon="-2.7839430">
        <ele>1855.6</ele>
        <time>2020-07-13T10:40:59Z</time>
      </trkpt>
      <trkpt lat="37.2831940" lon="-2.7840000">
        <ele>1855.2</ele>
        <time>2020-07-13T10:41:01Z</time>
      </trkpt>
      <trkpt lat="37.2832400" lon="-2.7840380">
        <ele>1855.2</ele>
        <time>2020-07-13T10:41:02Z</time>
      </trkpt>
      <trkpt lat="37.2833360" lon="-2.7840970">
        <ele>1854.8</ele>
        <time>2020-07-13T10:41:04Z</time>
      </trkpt>
      <trkpt lat="37.2834280" lon="-2.7841590">
        <ele>1854.4</ele>
        <time>2020-07-13T10:41:06Z</time>
      </trkpt>
      <trkpt lat="37.2835300" lon="-2.7842220">
        <ele>1854.4</ele>
        <time>2020-07-13T10:41:08Z</time>
      </trkpt>
      <trkpt lat="37.2838810" lon="-2.7844710">
        <ele>1854.6</ele>
        <time>2020-07-13T10:41:15Z</time>
      </trkpt>
      <trkpt lat="37.2839320" lon="-2.7845000">
        <ele>1854.8</ele>
        <time>2020-07-13T10:41:16Z</time>
      </trkpt>
      <trkpt lat="37.2840940" lon="-2.7846140">
        <ele>1853.4</ele>
        <time>2020-07-13T10:41:19Z</time>
      </trkpt>
      <trkpt lat="37.2841510" lon="-2.7846430">
        <ele>1853.0</ele>
        <time>2020-07-13T10:41:20Z</time>
      </trkpt>
      <trkpt lat="37.2843270" lon="-2.7846940">
        <ele>1852.2</ele>
        <time>2020-07-13T10:41:23Z</time>
      </trkpt>
      <trkpt lat="37.2844500" lon="-2.7847130">
        <ele>1851.4</ele>
        <time>2020-07-13T10:41:25Z</time>
      </trkpt>
      <trkpt lat="37.2846870" lon="-2.7846990">
        <ele>1851.6</ele>
        <time>2020-07-13T10:41:29Z</time>
      </trkpt>
      <trkpt lat="37.2847460" lon="-2.7846810">
        <ele>1851.8</ele>
        <time>2020-07-13T10:41:30Z</time>
      </trkpt>
      <trkpt lat="37.2849050" lon="-2.7845920">
        <ele>1851.2</ele>
        <time>2020-07-13T10:41:33Z</time>
      </trkpt>
      <trkpt lat="37.2850990" lon="-2.7844500">
        <ele>1850.2</ele>
        <time>2020-07-13T10:41:37Z</time>
      </trkpt>
      <trkpt lat="37.2851440" lon="-2.7844150">
        <ele>1850.0</ele>
        <time>2020-07-13T10:41:38Z</time>
      </trkpt>
      <trkpt lat="37.2851930" lon="-2.7843830">
        <ele>1850.0</ele>
        <time>2020-07-13T10:41:39Z</time>
      </trkpt>
      <trkpt lat="37.2855830" lon="-2.7841120">
        <ele>1849.4</ele>
        <time>2020-07-13T10:41:47Z</time>
      </trkpt>
      <trkpt lat="37.2857320" lon="-2.7840070">
        <ele>1849.6</ele>
        <time>2020-07-13T10:41:50Z</time>
      </trkpt>
      <trkpt lat="37.2860460" lon="-2.7838440">
        <ele>1849.6</ele>
        <time>2020-07-13T10:41:56Z</time>
      </trkpt>
      <trkpt lat="37.2862120" lon="-2.7837920">
        <ele>1849.2</ele>
        <time>2020-07-13T10:41:59Z</time>
      </trkpt>
      <trkpt lat="37.2864400" lon="-2.7837430">
        <ele>1849.0</ele>
        <time>2020-07-13T10:42:03Z</time>
      </trkpt>
      <trkpt lat="37.2865460" lon="-2.7837220">
        <ele>1849.2</ele>
        <time>2020-07-13T10:42:05Z</time>
      </trkpt>
      <trkpt lat="37.2868200" lon="-2.7836720">
        <ele>1849.0</ele>
        <time>2020-07-13T10:42:10Z</time>
      </trkpt>
      <trkpt lat="37.2868700" lon="-2.7836650">
        <ele>1849.0</ele>
        <time>2020-07-13T10:42:11Z</time>
      </trkpt>
      <trkpt lat="37.2870950" lon="-2.7836190">
        <ele>1848.8</ele>
        <time>2020-07-13T10:42:15Z</time>
      </trkpt>
      <trkpt lat="37.2874890" lon="-2.7835590">
        <ele>1848.0</ele>
        <time>2020-07-13T10:42:22Z</time>
      </trkpt>
      <trkpt lat="37.2875450" lon="-2.7835560">
        <ele>1847.6</ele>
        <time>2020-07-13T10:42:23Z</time>
      </trkpt>
      <trkpt lat="37.2876090" lon="-2.7835640">
        <ele>1847.4</ele>
        <time>2020-07-13T10:42:24Z</time>
      </trkpt>
      <trkpt lat="37.2877180" lon="-2.7835930">
        <ele>1846.8</ele>
        <time>2020-07-13T10:42:26Z</time>
      </trkpt>
      <trkpt lat="37.2878250" lon="-2.7836380">
        <ele>1846.8</ele>
        <time>2020-07-13T10:42:28Z</time>
      </trkpt>
      <trkpt lat="37.2878740" lon="-2.7836680">
        <ele>1846.8</ele>
        <time>2020-07-13T10:42:29Z</time>
      </trkpt>
      <trkpt lat="37.2880760" lon="-2.7838150">
        <ele>1846.8</ele>
        <time>2020-07-13T10:42:33Z</time>
      </trkpt>
      <trkpt lat="37.2884400" lon="-2.7841140">
        <ele>1846.6</ele>
        <time>2020-07-13T10:42:40Z</time>
      </trkpt>
      <trkpt lat="37.2884840" lon="-2.7841550">
        <ele>1846.8</ele>
        <time>2020-07-13T10:42:41Z</time>
      </trkpt>
      <trkpt lat="37.2886760" lon="-2.7843370">
        <ele>1846.6</ele>
        <time>2020-07-13T10:42:45Z</time>
      </trkpt>
      <trkpt lat="37.2887120" lon="-2.7843640">
        <ele>1846.6</ele>
        <time>2020-07-13T10:42:46Z</time>
      </trkpt>
      <trkpt lat="37.2888710" lon="-2.7844670">
        <ele>1846.2</ele>
        <time>2020-07-13T10:42:49Z</time>
      </trkpt>
      <trkpt lat="37.2890430" lon="-2.7844980">
        <ele>1846.4</ele>
        <time>2020-07-13T10:42:52Z</time>
      </trkpt>
      <trkpt lat="37.2893390" lon="-2.7844460">
        <ele>1846.2</ele>
        <time>2020-07-13T10:42:57Z</time>
      </trkpt>
      <trkpt lat="37.2893930" lon="-2.7844290">
        <ele>1846.0</ele>
        <time>2020-07-13T10:42:58Z</time>
      </trkpt>
      <trkpt lat="37.2896310" lon="-2.7843450">
        <ele>1847.0</ele>
        <time>2020-07-13T10:43:03Z</time>
      </trkpt>
      <trkpt lat="37.2896720" lon="-2.7843280">
        <ele>1847.0</ele>
        <time>2020-07-13T10:43:04Z</time>
      </trkpt>
      <trkpt lat="37.2898280" lon="-2.7842730">
        <ele>1847.0</ele>
        <time>2020-07-13T10:43:08Z</time>
      </trkpt>
      <trkpt lat="37.2899320" lon="-2.7842510">
        <ele>1847.8</ele>
        <time>2020-07-13T10:43:11Z</time>
      </trkpt>
      <trkpt lat="37.2899570" lon="-2.7842460">
        <ele>1848.0</ele>
        <time>2020-07-13T10:43:12Z</time>
      </trkpt>
      <trkpt lat="37.2900990" lon="-2.7842330">
        <ele>1848.4</ele>
        <time>2020-07-13T10:43:15Z</time>
      </trkpt>
      <trkpt lat="37.2902210" lon="-2.7842150">
        <ele>1848.8</ele>
        <time>2020-07-13T10:43:18Z</time>
      </trkpt>
      <trkpt lat="37.2902610" lon="-2.7842080">
        <ele>1849.2</ele>
        <time>2020-07-13T10:43:19Z</time>
      </trkpt>
      <trkpt lat="37.2903970" lon="-2.7841890">
        <ele>1850.2</ele>
        <time>2020-07-13T10:43:23Z</time>
      </trkpt>
      <trkpt lat="37.2906050" lon="-2.7841460">
        <ele>1849.4</ele>
        <time>2020-07-13T10:43:28Z</time>
      </trkpt>
      <trkpt lat="37.2907670" lon="-2.7840190">
        <ele>1849.0</ele>
        <time>2020-07-13T10:43:33Z</time>
      </trkpt>
      <trkpt lat="37.2908560" lon="-2.7838300">
        <ele>1850.4</ele>
        <time>2020-07-13T10:43:38Z</time>
      </trkpt>
      <trkpt lat="37.2908680" lon="-2.7837880">
        <ele>1850.6</ele>
        <time>2020-07-13T10:43:39Z</time>
      </trkpt>
      <trkpt lat="37.2909150" lon="-2.7835810">
        <ele>1851.4</ele>
        <time>2020-07-13T10:43:44Z</time>
      </trkpt>
      <trkpt lat="37.2909700" lon="-2.7833760">
        <ele>1852.0</ele>
        <time>2020-07-13T10:43:49Z</time>
      </trkpt>
      <trkpt lat="37.2910270" lon="-2.7832190">
        <ele>1852.6</ele>
        <time>2020-07-13T10:43:53Z</time>
      </trkpt>
      <trkpt lat="37.2911520" lon="-2.7829970">
        <ele>1852.8</ele>
        <time>2020-07-13T10:43:59Z</time>
      </trkpt>
      <trkpt lat="37.2912860" lon="-2.7827940">
        <ele>1853.6</ele>
        <time>2020-07-13T10:44:05Z</time>
      </trkpt>
      <trkpt lat="37.2913610" lon="-2.7826960">
        <ele>1853.8</ele>
        <time>2020-07-13T10:44:08Z</time>
      </trkpt>
      <trkpt lat="37.2915660" lon="-2.7825090">
        <ele>1854.8</ele>
        <time>2020-07-13T10:44:15Z</time>
      </trkpt>
      <trkpt lat="37.2915960" lon="-2.7824870">
        <ele>1854.8</ele>
        <time>2020-07-13T10:44:16Z</time>
      </trkpt>
      <trkpt lat="37.2918530" lon="-2.7823430">
        <ele>1855.0</ele>
        <time>2020-07-13T10:44:23Z</time>
      </trkpt>
      <trkpt lat="37.2921450" lon="-2.7821790">
        <ele>1855.8</ele>
        <time>2020-07-13T10:44:31Z</time>
      </trkpt>
      <trkpt lat="37.2922870" lon="-2.7821070">
        <ele>1856.4</ele>
        <time>2020-07-13T10:44:35Z</time>
      </trkpt>
      <trkpt lat="37.2924310" lon="-2.7820330">
        <ele>1856.8</ele>
        <time>2020-07-13T10:44:39Z</time>
      </trkpt>
      <trkpt lat="37.2926510" lon="-2.7819240">
        <ele>1857.2</ele>
        <time>2020-07-13T10:44:45Z</time>
      </trkpt>
      <trkpt lat="37.2929340" lon="-2.7817760">
        <ele>1858.0</ele>
        <time>2020-07-13T10:44:53Z</time>
      </trkpt>
      <trkpt lat="37.2929700" lon="-2.7817560">
        <ele>1858.0</ele>
        <time>2020-07-13T10:44:54Z</time>
      </trkpt>
      <trkpt lat="37.2931980" lon="-2.7816360">
        <ele>1858.8</ele>
        <time>2020-07-13T10:45:00Z</time>
      </trkpt>
      <trkpt lat="37.2932780" lon="-2.7816000">
        <ele>1859.0</ele>
        <time>2020-07-13T10:45:02Z</time>
      </trkpt>
      <trkpt lat="37.2933600" lon="-2.7815620">
        <ele>1859.0</ele>
        <time>2020-07-13T10:45:04Z</time>
      </trkpt>
      <trkpt lat="37.2934440" lon="-2.7815330">
        <ele>1859.0</ele>
        <time>2020-07-13T10:45:06Z</time>
      </trkpt>
      <trkpt lat="37.2936730" lon="-2.7814760">
        <ele>1859.0</ele>
        <time>2020-07-13T10:45:11Z</time>
      </trkpt>
      <trkpt lat="37.2939560" lon="-2.7814460">
        <ele>1859.0</ele>
        <time>2020-07-13T10:45:17Z</time>
      </trkpt>
      <trkpt lat="37.2940050" lon="-2.7814500">
        <ele>1859.0</ele>
        <time>2020-07-13T10:45:18Z</time>
      </trkpt>
      <trkpt lat="37.2941510" lon="-2.7814810">
        <ele>1859.4</ele>
        <time>2020-07-13T10:45:21Z</time>
      </trkpt>
      <trkpt lat="37.2943420" lon="-2.7815480">
        <ele>1859.6</ele>
        <time>2020-07-13T10:45:25Z</time>
      </trkpt>
      <trkpt lat="37.2943950" lon="-2.7815560">
        <ele>1859.6</ele>
        <time>2020-07-13T10:45:26Z</time>
      </trkpt>
      <trkpt lat="37.2946110" lon="-2.7816120">
        <ele>1859.6</ele>
        <time>2020-07-13T10:45:30Z</time>
      </trkpt>
      <trkpt lat="37.2946680" lon="-2.7816140">
        <ele>1859.4</ele>
        <time>2020-07-13T10:45:31Z</time>
      </trkpt>
      <trkpt lat="37.2948390" lon="-2.7815960">
        <ele>1859.4</ele>
        <time>2020-07-13T10:45:34Z</time>
      </trkpt>
      <trkpt lat="37.2949550" lon="-2.7815620">
        <ele>1860.0</ele>
        <time>2020-07-13T10:45:36Z</time>
      </trkpt>
      <trkpt lat="37.2952520" lon="-2.7814480">
        <ele>1859.0</ele>
        <time>2020-07-13T10:45:41Z</time>
      </trkpt>
      <trkpt lat="37.2955320" lon="-2.7812810">
        <ele>1857.8</ele>
        <time>2020-07-13T10:45:46Z</time>
      </trkpt>
      <trkpt lat="37.2956410" lon="-2.7812060">
        <ele>1857.6</ele>
        <time>2020-07-13T10:45:48Z</time>
      </trkpt>
      <trkpt lat="37.2959130" lon="-2.7810400">
        <ele>1857.6</ele>
        <time>2020-07-13T10:45:53Z</time>
      </trkpt>
      <trkpt lat="37.2960280" lon="-2.7809940">
        <ele>1857.8</ele>
        <time>2020-07-13T10:45:55Z</time>
      </trkpt>
      <trkpt lat="37.2960870" lon="-2.7809830">
        <ele>1857.6</ele>
        <time>2020-07-13T10:45:56Z</time>
      </trkpt>
      <trkpt lat="37.2962630" lon="-2.7809610">
        <ele>1857.4</ele>
        <time>2020-07-13T10:45:59Z</time>
      </trkpt>
      <trkpt lat="37.2963770" lon="-2.7809590">
        <ele>1856.4</ele>
        <time>2020-07-13T10:46:01Z</time>
      </trkpt>
      <trkpt lat="37.2964860" lon="-2.7809480">
        <ele>1855.8</ele>
        <time>2020-07-13T10:46:03Z</time>
      </trkpt>
      <trkpt lat="37.2965900" lon="-2.7809130">
        <ele>1855.0</ele>
        <time>2020-07-13T10:46:05Z</time>
      </trkpt>
      <trkpt lat="37.2967300" lon="-2.7807850">
        <ele>1855.2</ele>
        <time>2020-07-13T10:46:08Z</time>
      </trkpt>
      <trkpt lat="37.2969530" lon="-2.7805620">
        <ele>1855.6</ele>
        <time>2020-07-13T10:46:13Z</time>
      </trkpt>
      <trkpt lat="37.2971340" lon="-2.7803950">
        <ele>1855.4</ele>
        <time>2020-07-13T10:46:17Z</time>
      </trkpt>
      <trkpt lat="37.2972670" lon="-2.7802790">
        <ele>1855.8</ele>
        <time>2020-07-13T10:46:20Z</time>
      </trkpt>
      <trkpt lat="37.2973520" lon="-2.7802130">
        <ele>1856.0</ele>
        <time>2020-07-13T10:46:22Z</time>
      </trkpt>
      <trkpt lat="37.2973950" lon="-2.7801830">
        <ele>1856.2</ele>
        <time>2020-07-13T10:46:23Z</time>
      </trkpt>
      <trkpt lat="37.2974390" lon="-2.7801550">
        <ele>1856.2</ele>
        <time>2020-07-13T10:46:24Z</time>
      </trkpt>
      <trkpt lat="37.2975350" lon="-2.7801190">
        <ele>1857.0</ele>
        <time>2020-07-13T10:46:26Z</time>
      </trkpt>
      <trkpt lat="37.2976940" lon="-2.7801420">
        <ele>1857.6</ele>
        <time>2020-07-13T10:46:29Z</time>
      </trkpt>
      <trkpt lat="37.2977470" lon="-2.7801620">
        <ele>1857.2</ele>
        <time>2020-07-13T10:46:30Z</time>
      </trkpt>
      <trkpt lat="37.2977930" lon="-2.7802080">
        <ele>1857.0</ele>
        <time>2020-07-13T10:46:31Z</time>
      </trkpt>
      <trkpt lat="37.2978890" lon="-2.7802960">
        <ele>1856.8</ele>
        <time>2020-07-13T10:46:33Z</time>
      </trkpt>
      <trkpt lat="37.2979370" lon="-2.7803400">
        <ele>1856.6</ele>
        <time>2020-07-13T10:46:34Z</time>
      </trkpt>
      <trkpt lat="37.2980540" lon="-2.7804050">
        <ele>1856.0</ele>
        <time>2020-07-13T10:46:36Z</time>
      </trkpt>
      <trkpt lat="37.2981210" lon="-2.7804120">
        <ele>1855.8</ele>
        <time>2020-07-13T10:46:37Z</time>
      </trkpt>
      <trkpt lat="37.2983050" lon="-2.7803380">
        <ele>1855.8</ele>
        <time>2020-07-13T10:46:40Z</time>
      </trkpt>
      <trkpt lat="37.2983590" lon="-2.7802960">
        <ele>1855.4</ele>
        <time>2020-07-13T10:46:41Z</time>
      </trkpt>
      <trkpt lat="37.2984640" lon="-2.7802020">
        <ele>1855.0</ele>
        <time>2020-07-13T10:46:43Z</time>
      </trkpt>
      <trkpt lat="37.2985120" lon="-2.7801540">
        <ele>1855.2</ele>
        <time>2020-07-13T10:46:44Z</time>
      </trkpt>
      <trkpt lat="37.2987050" lon="-2.7799670">
        <ele>1855.0</ele>
        <time>2020-07-13T10:46:48Z</time>
      </trkpt>
      <trkpt lat="37.2987510" lon="-2.7799220">
        <ele>1854.0</ele>
        <time>2020-07-13T10:46:49Z</time>
      </trkpt>
      <trkpt lat="37.2988860" lon="-2.7797910">
        <ele>1854.2</ele>
        <time>2020-07-13T10:46:52Z</time>
      </trkpt>
      <trkpt lat="37.2990170" lon="-2.7796590">
        <ele>1854.4</ele>
        <time>2020-07-13T10:46:55Z</time>
      </trkpt>
      <trkpt lat="37.2990700" lon="-2.7796190">
        <ele>1854.0</ele>
        <time>2020-07-13T10:46:56Z</time>
      </trkpt>
      <trkpt lat="37.2991750" lon="-2.7795390">
        <ele>1854.2</ele>
        <time>2020-07-13T10:46:58Z</time>
      </trkpt>
      <trkpt lat="37.2992270" lon="-2.7795130">
        <ele>1854.2</ele>
        <time>2020-07-13T10:46:59Z</time>
      </trkpt>
      <trkpt lat="37.2992960" lon="-2.7794900">
        <ele>1854.2</ele>
        <time>2020-07-13T10:47:00Z</time>
      </trkpt>
      <trkpt lat="37.2994320" lon="-2.7794620">
        <ele>1853.8</ele>
        <time>2020-07-13T10:47:02Z</time>
      </trkpt>
      <trkpt lat="37.2995040" lon="-2.7794540">
        <ele>1853.2</ele>
        <time>2020-07-13T10:47:03Z</time>
      </trkpt>
      <trkpt lat="37.2995770" lon="-2.7794410">
        <ele>1852.6</ele>
        <time>2020-07-13T10:47:04Z</time>
      </trkpt>
      <trkpt lat="37.2996460" lon="-2.7794330">
        <ele>1852.4</ele>
        <time>2020-07-13T10:47:05Z</time>
      </trkpt>
      <trkpt lat="37.2998800" lon="-2.7793990">
        <ele>1851.2</ele>
        <time>2020-07-13T10:47:08Z</time>
      </trkpt>
      <trkpt lat="37.3001660" lon="-2.7793600">
        <ele>1850.2</ele>
        <time>2020-07-13T10:47:12Z</time>
      </trkpt>
      <trkpt lat="37.3002980" lon="-2.7793480">
        <ele>1850.6</ele>
        <time>2020-07-13T10:47:14Z</time>
      </trkpt>
      <trkpt lat="37.3004190" lon="-2.7793310">
        <ele>1850.0</ele>
        <time>2020-07-13T10:47:16Z</time>
      </trkpt>
      <trkpt lat="37.3005580" lon="-2.7793220">
        <ele>1850.4</ele>
        <time>2020-07-13T10:47:18Z</time>
      </trkpt>
      <trkpt lat="37.3006240" lon="-2.7793140">
        <ele>1850.2</ele>
        <time>2020-07-13T10:47:19Z</time>
      </trkpt>
      <trkpt lat="37.3006880" lon="-2.7793060">
        <ele>1850.4</ele>
        <time>2020-07-13T10:47:20Z</time>
      </trkpt>
      <trkpt lat="37.3009320" lon="-2.7792740">
        <ele>1850.2</ele>
        <time>2020-07-13T10:47:24Z</time>
      </trkpt>
      <trkpt lat="37.3010520" lon="-2.7792640">
        <ele>1849.6</ele>
        <time>2020-07-13T10:47:26Z</time>
      </trkpt>
      <trkpt lat="37.3011820" lon="-2.7792520">
        <ele>1849.2</ele>
        <time>2020-07-13T10:47:28Z</time>
      </trkpt>
      <trkpt lat="37.3013930" lon="-2.7792370">
        <ele>1848.8</ele>
        <time>2020-07-13T10:47:31Z</time>
      </trkpt>
      <trkpt lat="37.3016180" lon="-2.7792070">
        <ele>1847.8</ele>
        <time>2020-07-13T10:47:34Z</time>
      </trkpt>
      <trkpt lat="37.3018680" lon="-2.7791750">
        <ele>1846.6</ele>
        <time>2020-07-13T10:47:37Z</time>
      </trkpt>
      <trkpt lat="37.3020310" lon="-2.7791530">
        <ele>1845.4</ele>
        <time>2020-07-13T10:47:39Z</time>
      </trkpt>
      <trkpt lat="37.3021200" lon="-2.7791450">
        <ele>1844.4</ele>
        <time>2020-07-13T10:47:40Z</time>
      </trkpt>
      <trkpt lat="37.3022890" lon="-2.7791350">
        <ele>1843.4</ele>
        <time>2020-07-13T10:47:42Z</time>
      </trkpt>
      <trkpt lat="37.3024600" lon="-2.7791180">
        <ele>1841.6</ele>
        <time>2020-07-13T10:47:44Z</time>
      </trkpt>
      <trkpt lat="37.3026280" lon="-2.7790910">
        <ele>1840.2</ele>
        <time>2020-07-13T10:47:46Z</time>
      </trkpt>
      <trkpt lat="37.3027260" lon="-2.7790790">
        <ele>1839.6</ele>
        <time>2020-07-13T10:47:47Z</time>
      </trkpt>
      <trkpt lat="37.3028160" lon="-2.7790690">
        <ele>1839.0</ele>
        <time>2020-07-13T10:47:48Z</time>
      </trkpt>
      <trkpt lat="37.3030730" lon="-2.7790440">
        <ele>1837.8</ele>
        <time>2020-07-13T10:47:51Z</time>
      </trkpt>
      <trkpt lat="37.3032440" lon="-2.7790180">
        <ele>1836.4</ele>
        <time>2020-07-13T10:47:53Z</time>
      </trkpt>
      <trkpt lat="37.3034160" lon="-2.7789620">
        <ele>1836.4</ele>
        <time>2020-07-13T10:47:55Z</time>
      </trkpt>
      <trkpt lat="37.3034990" lon="-2.7789230">
        <ele>1836.2</ele>
        <time>2020-07-13T10:47:56Z</time>
      </trkpt>
      <trkpt lat="37.3038270" lon="-2.7787750">
        <ele>1835.6</ele>
        <time>2020-07-13T10:48:00Z</time>
      </trkpt>
      <trkpt lat="37.3039110" lon="-2.7787490">
        <ele>1835.2</ele>
        <time>2020-07-13T10:48:01Z</time>
      </trkpt>
      <trkpt lat="37.3040680" lon="-2.7786950">
        <ele>1833.8</ele>
        <time>2020-07-13T10:48:03Z</time>
      </trkpt>
      <trkpt lat="37.3041950" lon="-2.7786150">
        <ele>1833.0</ele>
        <time>2020-07-13T10:48:05Z</time>
      </trkpt>
      <trkpt lat="37.3042480" lon="-2.7785450">
        <ele>1832.4</ele>
        <time>2020-07-13T10:48:06Z</time>
      </trkpt>
      <trkpt lat="37.3043150" lon="-2.7783730">
        <ele>1832.0</ele>
        <time>2020-07-13T10:48:08Z</time>
      </trkpt>
      <trkpt lat="37.3043360" lon="-2.7782760">
        <ele>1831.4</ele>
        <time>2020-07-13T10:48:09Z</time>
      </trkpt>
      <trkpt lat="37.3043570" lon="-2.7781720">
        <ele>1831.0</ele>
        <time>2020-07-13T10:48:10Z</time>
      </trkpt>
      <trkpt lat="37.3043920" lon="-2.7780690">
        <ele>1830.6</ele>
        <time>2020-07-13T10:48:11Z</time>
      </trkpt>
      <trkpt lat="37.3044400" lon="-2.7779770">
        <ele>1830.2</ele>
        <time>2020-07-13T10:48:12Z</time>
      </trkpt>
      <trkpt lat="37.3046360" lon="-2.7777550">
        <ele>1829.2</ele>
        <time>2020-07-13T10:48:15Z</time>
      </trkpt>
      <trkpt lat="37.3047070" lon="-2.7777040">
        <ele>1828.8</ele>
        <time>2020-07-13T10:48:16Z</time>
      </trkpt>
      <trkpt lat="37.3048590" lon="-2.7776010">
        <ele>1827.8</ele>
        <time>2020-07-13T10:48:18Z</time>
      </trkpt>
      <trkpt lat="37.3050700" lon="-2.7774720">
        <ele>1826.6</ele>
        <time>2020-07-13T10:48:21Z</time>
      </trkpt>
      <trkpt lat="37.3055180" lon="-2.7772100">
        <ele>1825.6</ele>
        <time>2020-07-13T10:48:28Z</time>
      </trkpt>
      <trkpt lat="37.3055810" lon="-2.7771880">
        <ele>1825.8</ele>
        <time>2020-07-13T10:48:29Z</time>
      </trkpt>
      <trkpt lat="37.3057010" lon="-2.7771680">
        <ele>1825.6</ele>
        <time>2020-07-13T10:48:31Z</time>
      </trkpt>
      <trkpt lat="37.3058160" lon="-2.7771970">
        <ele>1825.6</ele>
        <time>2020-07-13T10:48:33Z</time>
      </trkpt>
      <trkpt lat="37.3059790" lon="-2.7772840">
        <ele>1825.0</ele>
        <time>2020-07-13T10:48:36Z</time>
      </trkpt>
      <trkpt lat="37.3060780" lon="-2.7773590">
        <ele>1825.2</ele>
        <time>2020-07-13T10:48:38Z</time>
      </trkpt>
      <trkpt lat="37.3061230" lon="-2.7774040">
        <ele>1825.4</ele>
        <time>2020-07-13T10:48:39Z</time>
      </trkpt>
      <trkpt lat="37.3062140" lon="-2.7774920">
        <ele>1825.4</ele>
        <time>2020-07-13T10:48:41Z</time>
      </trkpt>
      <trkpt lat="37.3063110" lon="-2.7775740">
        <ele>1825.8</ele>
        <time>2020-07-13T10:48:43Z</time>
      </trkpt>
      <trkpt lat="37.3065100" lon="-2.7777310">
        <ele>1825.4</ele>
        <time>2020-07-13T10:48:47Z</time>
      </trkpt>
      <trkpt lat="37.3066160" lon="-2.7778130">
        <ele>1824.6</ele>
        <time>2020-07-13T10:48:49Z</time>
      </trkpt>
      <trkpt lat="37.3070250" lon="-2.7781250">
        <ele>1823.6</ele>
        <time>2020-07-13T10:48:56Z</time>
      </trkpt>
      <trkpt lat="37.3070930" lon="-2.7781610">
        <ele>1823.2</ele>
        <time>2020-07-13T10:48:57Z</time>
      </trkpt>
      <trkpt lat="37.3072320" lon="-2.7782120">
        <ele>1822.2</ele>
        <time>2020-07-13T10:48:59Z</time>
      </trkpt>
      <trkpt lat="37.3073890" lon="-2.7782360">
        <ele>1821.2</ele>
        <time>2020-07-13T10:49:01Z</time>
      </trkpt>
      <trkpt lat="37.3074640" lon="-2.7782390">
        <ele>1820.8</ele>
        <time>2020-07-13T10:49:02Z</time>
      </trkpt>
      <trkpt lat="37.3075310" lon="-2.7782180">
        <ele>1821.0</ele>
        <time>2020-07-13T10:49:03Z</time>
      </trkpt>
      <trkpt lat="37.3076470" lon="-2.7781180">
        <ele>1820.4</ele>
        <time>2020-07-13T10:49:05Z</time>
      </trkpt>
      <trkpt lat="37.3076970" lon="-2.7780330">
        <ele>1819.8</ele>
        <time>2020-07-13T10:49:06Z</time>
      </trkpt>
      <trkpt lat="37.3077840" lon="-2.7778690">
        <ele>1819.0</ele>
        <time>2020-07-13T10:49:08Z</time>
      </trkpt>
      <trkpt lat="37.3078250" lon="-2.7777870">
        <ele>1818.4</ele>
        <time>2020-07-13T10:49:09Z</time>
      </trkpt>
      <trkpt lat="37.3079300" lon="-2.7775250">
        <ele>1817.2</ele>
        <time>2020-07-13T10:49:12Z</time>
      </trkpt>
      <trkpt lat="37.3079880" lon="-2.7773370">
        <ele>1817.0</ele>
        <time>2020-07-13T10:49:14Z</time>
      </trkpt>
      <trkpt lat="37.3080440" lon="-2.7771360">
        <ele>1815.8</ele>
        <time>2020-07-13T10:49:16Z</time>
      </trkpt>
      <trkpt lat="37.3081100" lon="-2.7769100">
        <ele>1814.4</ele>
        <time>2020-07-13T10:49:18Z</time>
      </trkpt>
      <trkpt lat="37.3081430" lon="-2.7767970">
        <ele>1813.4</ele>
        <time>2020-07-13T10:49:19Z</time>
      </trkpt>
      <trkpt lat="37.3081760" lon="-2.7766850">
        <ele>1813.0</ele>
        <time>2020-07-13T10:49:20Z</time>
      </trkpt>
      <trkpt lat="37.3082140" lon="-2.7765680">
        <ele>1812.4</ele>
        <time>2020-07-13T10:49:21Z</time>
      </trkpt>
      <trkpt lat="37.3083240" lon="-2.7762210">
        <ele>1810.6</ele>
        <time>2020-07-13T10:49:24Z</time>
      </trkpt>
      <trkpt lat="37.3084680" lon="-2.7757710">
        <ele>1809.8</ele>
        <time>2020-07-13T10:49:28Z</time>
      </trkpt>
      <trkpt lat="37.3085690" lon="-2.7754440">
        <ele>1809.0</ele>
        <time>2020-07-13T10:49:31Z</time>
      </trkpt>
      <trkpt lat="37.3086570" lon="-2.7751320">
        <ele>1807.8</ele>
        <time>2020-07-13T10:49:34Z</time>
      </trkpt>
      <trkpt lat="37.3087150" lon="-2.7749360">
        <ele>1807.0</ele>
        <time>2020-07-13T10:49:36Z</time>
      </trkpt>
      <trkpt lat="37.3087680" lon="-2.7747580">
        <ele>1806.6</ele>
        <time>2020-07-13T10:49:38Z</time>
      </trkpt>
      <trkpt lat="37.3088200" lon="-2.7744990">
        <ele>1807.0</ele>
        <time>2020-07-13T10:49:41Z</time>
      </trkpt>
      <trkpt lat="37.3088450" lon="-2.7743320">
        <ele>1807.4</ele>
        <time>2020-07-13T10:49:43Z</time>
      </trkpt>
      <trkpt lat="37.3088690" lon="-2.7741710">
        <ele>1807.4</ele>
        <time>2020-07-13T10:49:45Z</time>
      </trkpt>
      <trkpt lat="37.3089100" lon="-2.7738840">
        <ele>1807.4</ele>
        <time>2020-07-13T10:49:49Z</time>
      </trkpt>
      <trkpt lat="37.3089440" lon="-2.7736590">
        <ele>1807.8</ele>
        <time>2020-07-13T10:49:53Z</time>
      </trkpt>
      <trkpt lat="37.3089810" lon="-2.7734110">
        <ele>1807.6</ele>
        <time>2020-07-13T10:49:56Z</time>
      </trkpt>
      <trkpt lat="37.3090150" lon="-2.7731500">
        <ele>1808.0</ele>
        <time>2020-07-13T10:50:00Z</time>
      </trkpt>
      <trkpt lat="37.3090280" lon="-2.7730880">
        <ele>1808.0</ele>
        <time>2020-07-13T10:50:01Z</time>
      </trkpt>
      <trkpt lat="37.3091000" lon="-2.7728730">
        <ele>1808.0</ele>
        <time>2020-07-13T10:50:05Z</time>
      </trkpt>
      <trkpt lat="37.3091300" lon="-2.7728280">
        <ele>1808.4</ele>
        <time>2020-07-13T10:50:06Z</time>
      </trkpt>
      <trkpt lat="37.3092970" lon="-2.7726660">
        <ele>1808.0</ele>
        <time>2020-07-13T10:50:10Z</time>
      </trkpt>
      <trkpt lat="37.3093430" lon="-2.7726400">
        <ele>1807.8</ele>
        <time>2020-07-13T10:50:11Z</time>
      </trkpt>
      <trkpt lat="37.3095920" lon="-2.7725010">
        <ele>1806.4</ele>
        <time>2020-07-13T10:50:15Z</time>
      </trkpt>
      <trkpt lat="37.3097990" lon="-2.7723930">
        <ele>1805.2</ele>
        <time>2020-07-13T10:50:18Z</time>
      </trkpt>
      <trkpt lat="37.3100080" lon="-2.7722830">
        <ele>1804.0</ele>
        <time>2020-07-13T10:50:21Z</time>
      </trkpt>
      <trkpt lat="37.3100810" lon="-2.7722430">
        <ele>1804.0</ele>
        <time>2020-07-13T10:50:22Z</time>
      </trkpt>
      <trkpt lat="37.3101560" lon="-2.7722010">
        <ele>1802.8</ele>
        <time>2020-07-13T10:50:23Z</time>
      </trkpt>
      <trkpt lat="37.3103750" lon="-2.7720840">
        <ele>1801.6</ele>
        <time>2020-07-13T10:50:26Z</time>
      </trkpt>
      <trkpt lat="37.3105240" lon="-2.7720260">
        <ele>1800.6</ele>
        <time>2020-07-13T10:50:28Z</time>
      </trkpt>
      <trkpt lat="37.3106030" lon="-2.7720200">
        <ele>1800.2</ele>
        <time>2020-07-13T10:50:29Z</time>
      </trkpt>
      <trkpt lat="37.3107580" lon="-2.7720300">
        <ele>1799.4</ele>
        <time>2020-07-13T10:50:31Z</time>
      </trkpt>
      <trkpt lat="37.3109040" lon="-2.7720680">
        <ele>1798.8</ele>
        <time>2020-07-13T10:50:33Z</time>
      </trkpt>
      <trkpt lat="37.3110250" lon="-2.7721040">
        <ele>1798.0</ele>
        <time>2020-07-13T10:50:35Z</time>
      </trkpt>
      <trkpt lat="37.3111210" lon="-2.7721140">
        <ele>1797.4</ele>
        <time>2020-07-13T10:50:36Z</time>
      </trkpt>
      <trkpt lat="37.3112600" lon="-2.7720750">
        <ele>1796.6</ele>
        <time>2020-07-13T10:50:38Z</time>
      </trkpt>
      <trkpt lat="37.3113850" lon="-2.7719790">
        <ele>1795.6</ele>
        <time>2020-07-13T10:50:40Z</time>
      </trkpt>
      <trkpt lat="37.3114250" lon="-2.7718960">
        <ele>1795.2</ele>
        <time>2020-07-13T10:50:41Z</time>
      </trkpt>
      <trkpt lat="37.3114600" lon="-2.7718120">
        <ele>1794.4</ele>
        <time>2020-07-13T10:50:42Z</time>
      </trkpt>
      <trkpt lat="37.3114950" lon="-2.7716250">
        <ele>1793.6</ele>
        <time>2020-07-13T10:50:44Z</time>
      </trkpt>
      <trkpt lat="37.3115050" lon="-2.7715270">
        <ele>1793.2</ele>
        <time>2020-07-13T10:50:45Z</time>
      </trkpt>
      <trkpt lat="37.3115020" lon="-2.7713300">
        <ele>1792.2</ele>
        <time>2020-07-13T10:50:47Z</time>
      </trkpt>
      <trkpt lat="37.3114900" lon="-2.7711270">
        <ele>1791.0</ele>
        <time>2020-07-13T10:50:49Z</time>
      </trkpt>
      <trkpt lat="37.3114850" lon="-2.7710120">
        <ele>1790.8</ele>
        <time>2020-07-13T10:50:50Z</time>
      </trkpt>
      <trkpt lat="37.3114740" lon="-2.7707930">
        <ele>1789.6</ele>
        <time>2020-07-13T10:50:52Z</time>
      </trkpt>
      <trkpt lat="37.3114610" lon="-2.7705850">
        <ele>1789.0</ele>
        <time>2020-07-13T10:50:54Z</time>
      </trkpt>
      <trkpt lat="37.3114540" lon="-2.7703770">
        <ele>1787.8</ele>
        <time>2020-07-13T10:50:56Z</time>
      </trkpt>
      <trkpt lat="37.3114660" lon="-2.7701490">
        <ele>1786.4</ele>
        <time>2020-07-13T10:50:58Z</time>
      </trkpt>
      <trkpt lat="37.3114790" lon="-2.7700360">
        <ele>1785.6</ele>
        <time>2020-07-13T10:50:59Z</time>
      </trkpt>
      <trkpt lat="37.3114950" lon="-2.7699070">
        <ele>1785.0</ele>
        <time>2020-07-13T10:51:00Z</time>
      </trkpt>
      <trkpt lat="37.3115080" lon="-2.7697950">
        <ele>1783.8</ele>
        <time>2020-07-13T10:51:01Z</time>
      </trkpt>
      <trkpt lat="37.3115350" lon="-2.7695400">
        <ele>1782.2</ele>
        <time>2020-07-13T10:51:03Z</time>
      </trkpt>
      <trkpt lat="37.3115590" lon="-2.7693090">
        <ele>1780.4</ele>
        <time>2020-07-13T10:51:05Z</time>
      </trkpt>
      <trkpt lat="37.3115740" lon="-2.7691890">
        <ele>1779.6</ele>
        <time>2020-07-13T10:51:06Z</time>
      </trkpt>
      <trkpt lat="37.3115880" lon="-2.7690650">
        <ele>1778.8</ele>
        <time>2020-07-13T10:51:07Z</time>
      </trkpt>
      <trkpt lat="37.3116220" lon="-2.7688450">
        <ele>1777.6</ele>
        <time>2020-07-13T10:51:09Z</time>
      </trkpt>
      <trkpt lat="37.3116590" lon="-2.7686450">
        <ele>1776.4</ele>
        <time>2020-07-13T10:51:11Z</time>
      </trkpt>
      <trkpt lat="37.3116850" lon="-2.7685260">
        <ele>1775.8</ele>
        <time>2020-07-13T10:51:12Z</time>
      </trkpt>
      <trkpt lat="37.3117110" lon="-2.7684210">
        <ele>1774.8</ele>
        <time>2020-07-13T10:51:13Z</time>
      </trkpt>
      <trkpt lat="37.3117920" lon="-2.7681170">
        <ele>1773.6</ele>
        <time>2020-07-13T10:51:16Z</time>
      </trkpt>
      <trkpt lat="37.3118650" lon="-2.7679040">
        <ele>1772.8</ele>
        <time>2020-07-13T10:51:18Z</time>
      </trkpt>
      <trkpt lat="37.3119060" lon="-2.7678040">
        <ele>1772.2</ele>
        <time>2020-07-13T10:51:19Z</time>
      </trkpt>
      <trkpt lat="37.3120640" lon="-2.7675220">
        <ele>1770.2</ele>
        <time>2020-07-13T10:51:22Z</time>
      </trkpt>
      <trkpt lat="37.3121780" lon="-2.7673240">
        <ele>1768.4</ele>
        <time>2020-07-13T10:51:24Z</time>
      </trkpt>
      <trkpt lat="37.3122910" lon="-2.7671380">
        <ele>1767.2</ele>
        <time>2020-07-13T10:51:26Z</time>
      </trkpt>
      <trkpt lat="37.3124130" lon="-2.7669740">
        <ele>1766.2</ele>
        <time>2020-07-13T10:51:28Z</time>
      </trkpt>
      <trkpt lat="37.3124870" lon="-2.7669160">
        <ele>1765.8</ele>
        <time>2020-07-13T10:51:29Z</time>
      </trkpt>
      <trkpt lat="37.3126380" lon="-2.7668290">
        <ele>1765.0</ele>
        <time>2020-07-13T10:51:31Z</time>
      </trkpt>
      <trkpt lat="37.3127180" lon="-2.7668180">
        <ele>1764.4</ele>
        <time>2020-07-13T10:51:32Z</time>
      </trkpt>
      <trkpt lat="37.3128660" lon="-2.7668560">
        <ele>1764.0</ele>
        <time>2020-07-13T10:51:34Z</time>
      </trkpt>
      <trkpt lat="37.3129680" lon="-2.7669890">
        <ele>1763.8</ele>
        <time>2020-07-13T10:51:36Z</time>
      </trkpt>
      <trkpt lat="37.3130460" lon="-2.7672550">
        <ele>1763.4</ele>
        <time>2020-07-13T10:51:39Z</time>
      </trkpt>
      <trkpt lat="37.3130680" lon="-2.7673400">
        <ele>1763.2</ele>
        <time>2020-07-13T10:51:40Z</time>
      </trkpt>
      <trkpt lat="37.3131040" lon="-2.7675180">
        <ele>1762.8</ele>
        <time>2020-07-13T10:51:42Z</time>
      </trkpt>
      <trkpt lat="37.3131140" lon="-2.7676970">
        <ele>1762.0</ele>
        <time>2020-07-13T10:51:44Z</time>
      </trkpt>
      <trkpt lat="37.3131120" lon="-2.7677870">
        <ele>1762.4</ele>
        <time>2020-07-13T10:51:45Z</time>
      </trkpt>
      <trkpt lat="37.3130780" lon="-2.7681730">
        <ele>1763.0</ele>
        <time>2020-07-13T10:51:49Z</time>
      </trkpt>
      <trkpt lat="37.3130590" lon="-2.7683620">
        <ele>1762.2</ele>
        <time>2020-07-13T10:51:51Z</time>
      </trkpt>
      <trkpt lat="37.3130470" lon="-2.7684650">
        <ele>1761.4</ele>
        <time>2020-07-13T10:51:52Z</time>
      </trkpt>
      <trkpt lat="37.3130150" lon="-2.7687690">
        <ele>1760.4</ele>
        <time>2020-07-13T10:51:55Z</time>
      </trkpt>
      <trkpt lat="37.3130170" lon="-2.7689740">
        <ele>1759.4</ele>
        <time>2020-07-13T10:51:57Z</time>
      </trkpt>
      <trkpt lat="37.3130200" lon="-2.7690830">
        <ele>1758.6</ele>
        <time>2020-07-13T10:51:58Z</time>
      </trkpt>
      <trkpt lat="37.3130220" lon="-2.7691920">
        <ele>1757.8</ele>
        <time>2020-07-13T10:51:59Z</time>
      </trkpt>
      <trkpt lat="37.3130300" lon="-2.7694050">
        <ele>1756.8</ele>
        <time>2020-07-13T10:52:01Z</time>
      </trkpt>
      <trkpt lat="37.3130620" lon="-2.7699310">
        <ele>1756.2</ele>
        <time>2020-07-13T10:52:06Z</time>
      </trkpt>
      <trkpt lat="37.3130740" lon="-2.7701410">
        <ele>1755.2</ele>
        <time>2020-07-13T10:52:08Z</time>
      </trkpt>
      <trkpt lat="37.3130880" lon="-2.7703420">
        <ele>1753.6</ele>
        <time>2020-07-13T10:52:10Z</time>
      </trkpt>
      <trkpt lat="37.3130940" lon="-2.7705460">
        <ele>1752.0</ele>
        <time>2020-07-13T10:52:12Z</time>
      </trkpt>
      <trkpt lat="37.3131070" lon="-2.7707520">
        <ele>1751.2</ele>
        <time>2020-07-13T10:52:14Z</time>
      </trkpt>
      <trkpt lat="37.3131270" lon="-2.7709500">
        <ele>1750.4</ele>
        <time>2020-07-13T10:52:16Z</time>
      </trkpt>
      <trkpt lat="37.3131440" lon="-2.7710490">
        <ele>1749.6</ele>
        <time>2020-07-13T10:52:17Z</time>
      </trkpt>
      <trkpt lat="37.3131640" lon="-2.7711390">
        <ele>1748.8</ele>
        <time>2020-07-13T10:52:18Z</time>
      </trkpt>
      <trkpt lat="37.3131930" lon="-2.7712310">
        <ele>1748.0</ele>
        <time>2020-07-13T10:52:19Z</time>
      </trkpt>
      <trkpt lat="37.3132770" lon="-2.7713910">
        <ele>1747.6</ele>
        <time>2020-07-13T10:52:21Z</time>
      </trkpt>
      <trkpt lat="37.3133940" lon="-2.7715230">
        <ele>1747.2</ele>
        <time>2020-07-13T10:52:23Z</time>
      </trkpt>
      <trkpt lat="37.3135270" lon="-2.7716460">
        <ele>1746.4</ele>
        <time>2020-07-13T10:52:25Z</time>
      </trkpt>
      <trkpt lat="37.3136630" lon="-2.7717640">
        <ele>1745.2</ele>
        <time>2020-07-13T10:52:27Z</time>
      </trkpt>
      <trkpt lat="37.3138010" lon="-2.7718740">
        <ele>1743.8</ele>
        <time>2020-07-13T10:52:29Z</time>
      </trkpt>
      <trkpt lat="37.3140040" lon="-2.7720310">
        <ele>1742.8</ele>
        <time>2020-07-13T10:52:32Z</time>
      </trkpt>
      <trkpt lat="37.3140750" lon="-2.7720810">
        <ele>1742.6</ele>
        <time>2020-07-13T10:52:33Z</time>
      </trkpt>
      <trkpt lat="37.3142990" lon="-2.7722040">
        <ele>1741.0</ele>
        <time>2020-07-13T10:52:36Z</time>
      </trkpt>
      <trkpt lat="37.3143770" lon="-2.7722230">
        <ele>1740.6</ele>
        <time>2020-07-13T10:52:37Z</time>
      </trkpt>
      <trkpt lat="37.3145370" lon="-2.7722120">
        <ele>1739.2</ele>
        <time>2020-07-13T10:52:39Z</time>
      </trkpt>
      <trkpt lat="37.3146180" lon="-2.7721890">
        <ele>1739.0</ele>
        <time>2020-07-13T10:52:40Z</time>
      </trkpt>
      <trkpt lat="37.3147030" lon="-2.7721460">
        <ele>1738.0</ele>
        <time>2020-07-13T10:52:41Z</time>
      </trkpt>
      <trkpt lat="37.3148690" lon="-2.7720650">
        <ele>1736.6</ele>
        <time>2020-07-13T10:52:43Z</time>
      </trkpt>
      <trkpt lat="37.3149530" lon="-2.7720240">
        <ele>1736.0</ele>
        <time>2020-07-13T10:52:44Z</time>
      </trkpt>
      <trkpt lat="37.3150320" lon="-2.7719860">
        <ele>1735.6</ele>
        <time>2020-07-13T10:52:45Z</time>
      </trkpt>
      <trkpt lat="37.3151940" lon="-2.7719110">
        <ele>1734.4</ele>
        <time>2020-07-13T10:52:47Z</time>
      </trkpt>
      <trkpt lat="37.3152730" lon="-2.7718810">
        <ele>1734.0</ele>
        <time>2020-07-13T10:52:48Z</time>
      </trkpt>
      <trkpt lat="37.3153530" lon="-2.7718610">
        <ele>1733.2</ele>
        <time>2020-07-13T10:52:49Z</time>
      </trkpt>
      <trkpt lat="37.3155240" lon="-2.7718510">
        <ele>1732.0</ele>
        <time>2020-07-13T10:52:51Z</time>
      </trkpt>
      <trkpt lat="37.3156080" lon="-2.7718540">
        <ele>1731.2</ele>
        <time>2020-07-13T10:52:52Z</time>
      </trkpt>
      <trkpt lat="37.3157070" lon="-2.7718580">
        <ele>1730.6</ele>
        <time>2020-07-13T10:52:53Z</time>
      </trkpt>
      <trkpt lat="37.3158910" lon="-2.7718680">
        <ele>1729.4</ele>
        <time>2020-07-13T10:52:55Z</time>
      </trkpt>
      <trkpt lat="37.3159910" lon="-2.7718730">
        <ele>1727.6</ele>
        <time>2020-07-13T10:52:56Z</time>
      </trkpt>
      <trkpt lat="37.3161810" lon="-2.7718810">
        <ele>1725.8</ele>
        <time>2020-07-13T10:52:58Z</time>
      </trkpt>
      <trkpt lat="37.3163580" lon="-2.7718640">
        <ele>1724.6</ele>
        <time>2020-07-13T10:53:00Z</time>
      </trkpt>
      <trkpt lat="37.3163970" lon="-2.7718600">
        <ele>1724.6</ele>
        <time>2020-07-13T10:53:01Z</time>
      </trkpt>
      <trkpt lat="37.3166520" lon="-2.7718450">
        <ele>1723.6</ele>
        <time>2020-07-13T10:53:03Z</time>
      </trkpt>
      <trkpt lat="37.3170160" lon="-2.7718900">
        <ele>1722.2</ele>
        <time>2020-07-13T10:53:07Z</time>
      </trkpt>
      <trkpt lat="37.3171960" lon="-2.7719240">
        <ele>1720.6</ele>
        <time>2020-07-13T10:53:09Z</time>
      </trkpt>
      <trkpt lat="37.3173710" lon="-2.7719570">
        <ele>1719.6</ele>
        <time>2020-07-13T10:53:11Z</time>
      </trkpt>
      <trkpt lat="37.3176270" lon="-2.7720200">
        <ele>1718.2</ele>
        <time>2020-07-13T10:53:14Z</time>
      </trkpt>
      <trkpt lat="37.3177110" lon="-2.7720460">
        <ele>1717.8</ele>
        <time>2020-07-13T10:53:15Z</time>
      </trkpt>
      <trkpt lat="37.3178730" lon="-2.7721390">
        <ele>1716.2</ele>
        <time>2020-07-13T10:53:17Z</time>
      </trkpt>
      <trkpt lat="37.3180380" lon="-2.7722480">
        <ele>1714.8</ele>
        <time>2020-07-13T10:53:19Z</time>
      </trkpt>
      <trkpt lat="37.3182830" lon="-2.7724150">
        <ele>1713.2</ele>
        <time>2020-07-13T10:53:22Z</time>
      </trkpt>
      <trkpt lat="37.3183650" lon="-2.7724550">
        <ele>1712.2</ele>
        <time>2020-07-13T10:53:23Z</time>
      </trkpt>
      <trkpt lat="37.3185360" lon="-2.7725240">
        <ele>1711.0</ele>
        <time>2020-07-13T10:53:25Z</time>
      </trkpt>
      <trkpt lat="37.3186250" lon="-2.7725380">
        <ele>1709.8</ele>
        <time>2020-07-13T10:53:26Z</time>
      </trkpt>
      <trkpt lat="37.3188950" lon="-2.7725790">
        <ele>1708.2</ele>
        <time>2020-07-13T10:53:29Z</time>
      </trkpt>
      <trkpt lat="37.3190700" lon="-2.7726170">
        <ele>1707.4</ele>
        <time>2020-07-13T10:53:31Z</time>
      </trkpt>
      <trkpt lat="37.3191510" lon="-2.7726410">
        <ele>1706.8</ele>
        <time>2020-07-13T10:53:32Z</time>
      </trkpt>
      <trkpt lat="37.3193280" lon="-2.7727030">
        <ele>1705.6</ele>
        <time>2020-07-13T10:53:35Z</time>
      </trkpt>
      <trkpt lat="37.3195030" lon="-2.7728080">
        <ele>1704.4</ele>
        <time>2020-07-13T10:53:37Z</time>
      </trkpt>
      <trkpt lat="37.3195570" lon="-2.7728630">
        <ele>1704.0</ele>
        <time>2020-07-13T10:53:38Z</time>
      </trkpt>
      <trkpt lat="37.3195930" lon="-2.7729390">
        <ele>1703.6</ele>
        <time>2020-07-13T10:53:39Z</time>
      </trkpt>
      <trkpt lat="37.3196250" lon="-2.7730290">
        <ele>1702.8</ele>
        <time>2020-07-13T10:53:40Z</time>
      </trkpt>
      <trkpt lat="37.3196460" lon="-2.7731050">
        <ele>1702.4</ele>
        <time>2020-07-13T10:53:41Z</time>
      </trkpt>
      <trkpt lat="37.3196810" lon="-2.7733130">
        <ele>1701.4</ele>
        <time>2020-07-13T10:53:43Z</time>
      </trkpt>
      <trkpt lat="37.3196800" lon="-2.7735100">
        <ele>1701.2</ele>
        <time>2020-07-13T10:53:45Z</time>
      </trkpt>
      <trkpt lat="37.3196760" lon="-2.7736070">
        <ele>1700.8</ele>
        <time>2020-07-13T10:53:46Z</time>
      </trkpt>
      <trkpt lat="37.3196730" lon="-2.7737140">
        <ele>1700.4</ele>
        <time>2020-07-13T10:53:47Z</time>
      </trkpt>
      <trkpt lat="37.3196610" lon="-2.7740400">
        <ele>1699.2</ele>
        <time>2020-07-13T10:53:50Z</time>
      </trkpt>
      <trkpt lat="37.3196520" lon="-2.7741420">
        <ele>1698.4</ele>
        <time>2020-07-13T10:53:51Z</time>
      </trkpt>
      <trkpt lat="37.3196190" lon="-2.7743620">
        <ele>1697.8</ele>
        <time>2020-07-13T10:53:53Z</time>
      </trkpt>
      <trkpt lat="37.3195710" lon="-2.7745910">
        <ele>1696.8</ele>
        <time>2020-07-13T10:53:55Z</time>
      </trkpt>
      <trkpt lat="37.3195460" lon="-2.7746940">
        <ele>1696.4</ele>
        <time>2020-07-13T10:53:56Z</time>
      </trkpt>
      <trkpt lat="37.3195040" lon="-2.7749120">
        <ele>1694.8</ele>
        <time>2020-07-13T10:53:58Z</time>
      </trkpt>
      <trkpt lat="37.3194870" lon="-2.7750010">
        <ele>1693.6</ele>
        <time>2020-07-13T10:53:59Z</time>
      </trkpt>
      <trkpt lat="37.3194490" lon="-2.7752050">
        <ele>1691.8</ele>
        <time>2020-07-13T10:54:01Z</time>
      </trkpt>
      <trkpt lat="37.3194310" lon="-2.7753110">
        <ele>1690.8</ele>
        <time>2020-07-13T10:54:02Z</time>
      </trkpt>
      <trkpt lat="37.3193800" lon="-2.7756030">
        <ele>1688.8</ele>
        <time>2020-07-13T10:54:05Z</time>
      </trkpt>
      <trkpt lat="37.3193550" lon="-2.7758080">
        <ele>1688.4</ele>
        <time>2020-07-13T10:54:07Z</time>
      </trkpt>
      <trkpt lat="37.3193560" lon="-2.7760050">
        <ele>1687.6</ele>
        <time>2020-07-13T10:54:09Z</time>
      </trkpt>
      <trkpt lat="37.3193620" lon="-2.7761970">
        <ele>1686.6</ele>
        <time>2020-07-13T10:54:11Z</time>
      </trkpt>
      <trkpt lat="37.3193700" lon="-2.7763130">
        <ele>1685.6</ele>
        <time>2020-07-13T10:54:12Z</time>
      </trkpt>
      <trkpt lat="37.3193810" lon="-2.7764200">
        <ele>1684.8</ele>
        <time>2020-07-13T10:54:13Z</time>
      </trkpt>
      <trkpt lat="37.3193910" lon="-2.7765350">
        <ele>1683.6</ele>
        <time>2020-07-13T10:54:14Z</time>
      </trkpt>
      <trkpt lat="37.3194100" lon="-2.7767440">
        <ele>1682.6</ele>
        <time>2020-07-13T10:54:16Z</time>
      </trkpt>
      <trkpt lat="37.3194350" lon="-2.7769400">
        <ele>1681.6</ele>
        <time>2020-07-13T10:54:18Z</time>
      </trkpt>
      <trkpt lat="37.3194460" lon="-2.7770370">
        <ele>1680.6</ele>
        <time>2020-07-13T10:54:19Z</time>
      </trkpt>
      <trkpt lat="37.3194730" lon="-2.7772000">
        <ele>1679.4</ele>
        <time>2020-07-13T10:54:21Z</time>
      </trkpt>
      <trkpt lat="37.3195600" lon="-2.7772750">
        <ele>1678.0</ele>
        <time>2020-07-13T10:54:23Z</time>
      </trkpt>
      <trkpt lat="37.3196590" lon="-2.7771930">
        <ele>1676.8</ele>
        <time>2020-07-13T10:54:25Z</time>
      </trkpt>
      <trkpt lat="37.3196680" lon="-2.7770290">
        <ele>1675.8</ele>
        <time>2020-07-13T10:54:27Z</time>
      </trkpt>
      <trkpt lat="37.3196570" lon="-2.7769380">
        <ele>1675.4</ele>
        <time>2020-07-13T10:54:28Z</time>
      </trkpt>
      <trkpt lat="37.3196490" lon="-2.7768460">
        <ele>1675.0</ele>
        <time>2020-07-13T10:54:29Z</time>
      </trkpt>
      <trkpt lat="37.3196620" lon="-2.7766370">
        <ele>1674.2</ele>
        <time>2020-07-13T10:54:31Z</time>
      </trkpt>
      <trkpt lat="37.3197140" lon="-2.7764190">
        <ele>1673.0</ele>
        <time>2020-07-13T10:54:33Z</time>
      </trkpt>
      <trkpt lat="37.3197770" lon="-2.7762070">
        <ele>1672.2</ele>
        <time>2020-07-13T10:54:35Z</time>
      </trkpt>
      <trkpt lat="37.3198130" lon="-2.7760940">
        <ele>1671.8</ele>
        <time>2020-07-13T10:54:36Z</time>
      </trkpt>
      <trkpt lat="37.3199500" lon="-2.7757380">
        <ele>1670.4</ele>
        <time>2020-07-13T10:54:39Z</time>
      </trkpt>
      <trkpt lat="37.3200020" lon="-2.7756220">
        <ele>1669.8</ele>
        <time>2020-07-13T10:54:40Z</time>
      </trkpt>
      <trkpt lat="37.3200510" lon="-2.7755180">
        <ele>1669.0</ele>
        <time>2020-07-13T10:54:41Z</time>
      </trkpt>
      <trkpt lat="37.3201780" lon="-2.7752740">
        <ele>1667.2</ele>
        <time>2020-07-13T10:54:43Z</time>
      </trkpt>
      <trkpt lat="37.3203130" lon="-2.7750440">
        <ele>1665.4</ele>
        <time>2020-07-13T10:54:45Z</time>
      </trkpt>
      <trkpt lat="37.3203810" lon="-2.7749370">
        <ele>1664.6</ele>
        <time>2020-07-13T10:54:46Z</time>
      </trkpt>
      <trkpt lat="37.3204520" lon="-2.7748210">
        <ele>1664.0</ele>
        <time>2020-07-13T10:54:47Z</time>
      </trkpt>
      <trkpt lat="37.3205990" lon="-2.7745840">
        <ele>1662.4</ele>
        <time>2020-07-13T10:54:49Z</time>
      </trkpt>
      <trkpt lat="37.3207510" lon="-2.7743300">
        <ele>1660.6</ele>
        <time>2020-07-13T10:54:51Z</time>
      </trkpt>
      <trkpt lat="37.3208220" lon="-2.7742060">
        <ele>1659.6</ele>
        <time>2020-07-13T10:54:52Z</time>
      </trkpt>
      <trkpt lat="37.3209570" lon="-2.7739620">
        <ele>1658.0</ele>
        <time>2020-07-13T10:54:54Z</time>
      </trkpt>
      <trkpt lat="37.3210310" lon="-2.7738290">
        <ele>1657.0</ele>
        <time>2020-07-13T10:54:55Z</time>
      </trkpt>
      <trkpt lat="37.3211820" lon="-2.7735950">
        <ele>1655.4</ele>
        <time>2020-07-13T10:54:57Z</time>
      </trkpt>
      <trkpt lat="37.3213460" lon="-2.7734020">
        <ele>1654.2</ele>
        <time>2020-07-13T10:54:59Z</time>
      </trkpt>
      <trkpt lat="37.3214480" lon="-2.7733130">
        <ele>1653.6</ele>
        <time>2020-07-13T10:55:00Z</time>
      </trkpt>
      <trkpt lat="37.3215370" lon="-2.7732380">
        <ele>1652.8</ele>
        <time>2020-07-13T10:55:01Z</time>
      </trkpt>
      <trkpt lat="37.3216230" lon="-2.7731290">
        <ele>1652.0</ele>
        <time>2020-07-13T10:55:02Z</time>
      </trkpt>
      <trkpt lat="37.3216950" lon="-2.7730210">
        <ele>1651.0</ele>
        <time>2020-07-13T10:55:03Z</time>
      </trkpt>
      <trkpt lat="37.3218330" lon="-2.7728100">
        <ele>1649.2</ele>
        <time>2020-07-13T10:55:05Z</time>
      </trkpt>
      <trkpt lat="37.3218830" lon="-2.7726890">
        <ele>1648.6</ele>
        <time>2020-07-13T10:55:06Z</time>
      </trkpt>
      <trkpt lat="37.3219190" lon="-2.7725510">
        <ele>1648.0</ele>
        <time>2020-07-13T10:55:07Z</time>
      </trkpt>
      <trkpt lat="37.3219740" lon="-2.7721580">
        <ele>1646.8</ele>
        <time>2020-07-13T10:55:10Z</time>
      </trkpt>
      <trkpt lat="37.3219860" lon="-2.7720440">
        <ele>1646.4</ele>
        <time>2020-07-13T10:55:11Z</time>
      </trkpt>
      <trkpt lat="37.3220140" lon="-2.7717660">
        <ele>1645.2</ele>
        <time>2020-07-13T10:55:13Z</time>
      </trkpt>
      <trkpt lat="37.3220940" lon="-2.7713860">
        <ele>1644.2</ele>
        <time>2020-07-13T10:55:16Z</time>
      </trkpt>
      <trkpt lat="37.3221420" lon="-2.7712640">
        <ele>1643.6</ele>
        <time>2020-07-13T10:55:17Z</time>
      </trkpt>
      <trkpt lat="37.3222890" lon="-2.7710560">
        <ele>1642.8</ele>
        <time>2020-07-13T10:55:19Z</time>
      </trkpt>
      <trkpt lat="37.3223930" lon="-2.7710010">
        <ele>1642.6</ele>
        <time>2020-07-13T10:55:20Z</time>
      </trkpt>
      <trkpt lat="37.3226120" lon="-2.7710010">
        <ele>1642.0</ele>
        <time>2020-07-13T10:55:22Z</time>
      </trkpt>
      <trkpt lat="37.3227050" lon="-2.7710200">
        <ele>1641.8</ele>
        <time>2020-07-13T10:55:23Z</time>
      </trkpt>
      <trkpt lat="37.3228930" lon="-2.7709770">
        <ele>1641.0</ele>
        <time>2020-07-13T10:55:25Z</time>
      </trkpt>
      <trkpt lat="37.3230270" lon="-2.7708240">
        <ele>1641.0</ele>
        <time>2020-07-13T10:55:27Z</time>
      </trkpt>
      <trkpt lat="37.3230860" lon="-2.7705130">
        <ele>1640.6</ele>
        <time>2020-07-13T10:55:30Z</time>
      </trkpt>
      <trkpt lat="37.3230160" lon="-2.7702010">
        <ele>1639.8</ele>
        <time>2020-07-13T10:55:33Z</time>
      </trkpt>
      <trkpt lat="37.3229790" lon="-2.7701020">
        <ele>1639.4</ele>
        <time>2020-07-13T10:55:34Z</time>
      </trkpt>
      <trkpt lat="37.3229430" lon="-2.7700040">
        <ele>1639.0</ele>
        <time>2020-07-13T10:55:35Z</time>
      </trkpt>
      <trkpt lat="37.3228580" lon="-2.7697910">
        <ele>1638.6</ele>
        <time>2020-07-13T10:55:37Z</time>
      </trkpt>
      <trkpt lat="37.3228100" lon="-2.7696880">
        <ele>1638.4</ele>
        <time>2020-07-13T10:55:38Z</time>
      </trkpt>
      <trkpt lat="37.3227080" lon="-2.7693160">
        <ele>1638.0</ele>
        <time>2020-07-13T10:55:41Z</time>
      </trkpt>
      <trkpt lat="37.3227180" lon="-2.7692010">
        <ele>1637.4</ele>
        <time>2020-07-13T10:55:42Z</time>
      </trkpt>
      <trkpt lat="37.3227420" lon="-2.7690610">
        <ele>1637.0</ele>
        <time>2020-07-13T10:55:43Z</time>
      </trkpt>
      <trkpt lat="37.3228000" lon="-2.7688120">
        <ele>1635.8</ele>
        <time>2020-07-13T10:55:45Z</time>
      </trkpt>
      <trkpt lat="37.3228320" lon="-2.7686790">
        <ele>1635.2</ele>
        <time>2020-07-13T10:55:46Z</time>
      </trkpt>
      <trkpt lat="37.3228630" lon="-2.7685450">
        <ele>1634.4</ele>
        <time>2020-07-13T10:55:47Z</time>
      </trkpt>
      <trkpt lat="37.3229230" lon="-2.7682640">
        <ele>1632.6</ele>
        <time>2020-07-13T10:55:49Z</time>
      </trkpt>
      <trkpt lat="37.3229670" lon="-2.7679700">
        <ele>1631.2</ele>
        <time>2020-07-13T10:55:51Z</time>
      </trkpt>
      <trkpt lat="37.3229730" lon="-2.7678320">
        <ele>1630.4</ele>
        <time>2020-07-13T10:55:52Z</time>
      </trkpt>
      <trkpt lat="37.3229670" lon="-2.7676720">
        <ele>1629.8</ele>
        <time>2020-07-13T10:55:53Z</time>
      </trkpt>
      <trkpt lat="37.3229160" lon="-2.7673770">
        <ele>1628.4</ele>
        <time>2020-07-13T10:55:55Z</time>
      </trkpt>
      <trkpt lat="37.3228740" lon="-2.7672220">
        <ele>1627.6</ele>
        <time>2020-07-13T10:55:56Z</time>
      </trkpt>
      <trkpt lat="37.3228290" lon="-2.7670750">
        <ele>1626.8</ele>
        <time>2020-07-13T10:55:57Z</time>
      </trkpt>
      <trkpt lat="37.3227370" lon="-2.7667870">
        <ele>1625.6</ele>
        <time>2020-07-13T10:55:59Z</time>
      </trkpt>
      <trkpt lat="37.3226930" lon="-2.7666510">
        <ele>1625.0</ele>
        <time>2020-07-13T10:56:00Z</time>
      </trkpt>
      <trkpt lat="37.3226470" lon="-2.7665060">
        <ele>1624.2</ele>
        <time>2020-07-13T10:56:01Z</time>
      </trkpt>
      <trkpt lat="37.3226100" lon="-2.7663690">
        <ele>1623.0</ele>
        <time>2020-07-13T10:56:02Z</time>
      </trkpt>
      <trkpt lat="37.3225850" lon="-2.7662270">
        <ele>1622.2</ele>
        <time>2020-07-13T10:56:03Z</time>
      </trkpt>
      <trkpt lat="37.3225750" lon="-2.7660890">
        <ele>1621.6</ele>
        <time>2020-07-13T10:56:04Z</time>
      </trkpt>
      <trkpt lat="37.3225760" lon="-2.7657830">
        <ele>1620.2</ele>
        <time>2020-07-13T10:56:06Z</time>
      </trkpt>
      <trkpt lat="37.3225730" lon="-2.7656360">
        <ele>1619.2</ele>
        <time>2020-07-13T10:56:07Z</time>
      </trkpt>
      <trkpt lat="37.3225610" lon="-2.7654950">
        <ele>1618.2</ele>
        <time>2020-07-13T10:56:08Z</time>
      </trkpt>
      <trkpt lat="37.3225390" lon="-2.7653500">
        <ele>1617.2</ele>
        <time>2020-07-13T10:56:09Z</time>
      </trkpt>
      <trkpt lat="37.3225140" lon="-2.7652310">
        <ele>1616.2</ele>
        <time>2020-07-13T10:56:10Z</time>
      </trkpt>
      <trkpt lat="37.3224690" lon="-2.7649590">
        <ele>1614.2</ele>
        <time>2020-07-13T10:56:12Z</time>
      </trkpt>
      <trkpt lat="37.3224960" lon="-2.7647000">
        <ele>1612.6</ele>
        <time>2020-07-13T10:56:14Z</time>
      </trkpt>
      <trkpt lat="37.3225270" lon="-2.7645800">
        <ele>1611.8</ele>
        <time>2020-07-13T10:56:15Z</time>
      </trkpt>
      <trkpt lat="37.3225680" lon="-2.7644570">
        <ele>1611.2</ele>
        <time>2020-07-13T10:56:16Z</time>
      </trkpt>
      <trkpt lat="37.3226750" lon="-2.7642120">
        <ele>1610.0</ele>
        <time>2020-07-13T10:56:18Z</time>
      </trkpt>
      <trkpt lat="37.3227420" lon="-2.7640980">
        <ele>1609.4</ele>
        <time>2020-07-13T10:56:19Z</time>
      </trkpt>
      <trkpt lat="37.3228090" lon="-2.7640080">
        <ele>1608.8</ele>
        <time>2020-07-13T10:56:20Z</time>
      </trkpt>
      <trkpt lat="37.3229610" lon="-2.7638890">
        <ele>1607.4</ele>
        <time>2020-07-13T10:56:22Z</time>
      </trkpt>
      <trkpt lat="37.3231330" lon="-2.7638630">
        <ele>1606.2</ele>
        <time>2020-07-13T10:56:24Z</time>
      </trkpt>
      <trkpt lat="37.3232180" lon="-2.7638740">
        <ele>1605.6</ele>
        <time>2020-07-13T10:56:25Z</time>
      </trkpt>
      <trkpt lat="37.3233080" lon="-2.7639020">
        <ele>1605.0</ele>
        <time>2020-07-13T10:56:26Z</time>
      </trkpt>
      <trkpt lat="37.3234500" lon="-2.7640270">
        <ele>1603.8</ele>
        <time>2020-07-13T10:56:28Z</time>
      </trkpt>
      <trkpt lat="37.3235530" lon="-2.7642380">
        <ele>1602.2</ele>
        <time>2020-07-13T10:56:30Z</time>
      </trkpt>
      <trkpt lat="37.3235860" lon="-2.7643710">
        <ele>1601.6</ele>
        <time>2020-07-13T10:56:31Z</time>
      </trkpt>
      <trkpt lat="37.3236100" lon="-2.7645040">
        <ele>1600.6</ele>
        <time>2020-07-13T10:56:32Z</time>
      </trkpt>
      <trkpt lat="37.3236560" lon="-2.7647700">
        <ele>1599.4</ele>
        <time>2020-07-13T10:56:34Z</time>
      </trkpt>
      <trkpt lat="37.3236760" lon="-2.7649060">
        <ele>1598.4</ele>
        <time>2020-07-13T10:56:35Z</time>
      </trkpt>
      <trkpt lat="37.3236980" lon="-2.7651920">
        <ele>1597.0</ele>
        <time>2020-07-13T10:56:37Z</time>
      </trkpt>
      <trkpt lat="37.3236710" lon="-2.7654770">
        <ele>1595.6</ele>
        <time>2020-07-13T10:56:39Z</time>
      </trkpt>
      <trkpt lat="37.3236600" lon="-2.7655940">
        <ele>1595.2</ele>
        <time>2020-07-13T10:56:40Z</time>
      </trkpt>
      <trkpt lat="37.3236560" lon="-2.7657460">
        <ele>1594.6</ele>
        <time>2020-07-13T10:56:41Z</time>
      </trkpt>
      <trkpt lat="37.3236970" lon="-2.7659570">
        <ele>1593.4</ele>
        <time>2020-07-13T10:56:43Z</time>
      </trkpt>
      <trkpt lat="37.3238060" lon="-2.7661270">
        <ele>1591.8</ele>
        <time>2020-07-13T10:56:45Z</time>
      </trkpt>
      <trkpt lat="37.3238730" lon="-2.7662090">
        <ele>1591.4</ele>
        <time>2020-07-13T10:56:46Z</time>
      </trkpt>
      <trkpt lat="37.3239470" lon="-2.7662960">
        <ele>1590.4</ele>
        <time>2020-07-13T10:56:47Z</time>
      </trkpt>
      <trkpt lat="37.3241820" lon="-2.7665370">
        <ele>1589.0</ele>
        <time>2020-07-13T10:56:50Z</time>
      </trkpt>
      <trkpt lat="37.3242860" lon="-2.7665960">
        <ele>1588.4</ele>
        <time>2020-07-13T10:56:51Z</time>
      </trkpt>
      <trkpt lat="37.3243810" lon="-2.7666260">
        <ele>1587.8</ele>
        <time>2020-07-13T10:56:52Z</time>
      </trkpt>
      <trkpt lat="37.3245970" lon="-2.7666100">
        <ele>1586.0</ele>
        <time>2020-07-13T10:56:54Z</time>
      </trkpt>
      <trkpt lat="37.3248110" lon="-2.7665500">
        <ele>1584.8</ele>
        <time>2020-07-13T10:56:56Z</time>
      </trkpt>
      <trkpt lat="37.3250240" lon="-2.7665090">
        <ele>1583.4</ele>
        <time>2020-07-13T10:56:58Z</time>
      </trkpt>
      <trkpt lat="37.3252500" lon="-2.7664810">
        <ele>1582.0</ele>
        <time>2020-07-13T10:57:00Z</time>
      </trkpt>
      <trkpt lat="37.3254760" lon="-2.7663720">
        <ele>1580.6</ele>
        <time>2020-07-13T10:57:02Z</time>
      </trkpt>
      <trkpt lat="37.3256730" lon="-2.7662100">
        <ele>1579.0</ele>
        <time>2020-07-13T10:57:04Z</time>
      </trkpt>
      <trkpt lat="37.3258910" lon="-2.7660570">
        <ele>1577.4</ele>
        <time>2020-07-13T10:57:06Z</time>
      </trkpt>
      <trkpt lat="37.3261070" lon="-2.7659320">
        <ele>1575.8</ele>
        <time>2020-07-13T10:57:08Z</time>
      </trkpt>
      <trkpt lat="37.3262990" lon="-2.7658370">
        <ele>1574.6</ele>
        <time>2020-07-13T10:57:10Z</time>
      </trkpt>
      <trkpt lat="37.3264800" lon="-2.7657080">
        <ele>1573.2</ele>
        <time>2020-07-13T10:57:12Z</time>
      </trkpt>
      <trkpt lat="37.3265530" lon="-2.7656310">
        <ele>1572.6</ele>
        <time>2020-07-13T10:57:13Z</time>
      </trkpt>
      <trkpt lat="37.3266200" lon="-2.7655550">
        <ele>1572.0</ele>
        <time>2020-07-13T10:57:14Z</time>
      </trkpt>
      <trkpt lat="37.3267540" lon="-2.7654130">
        <ele>1570.8</ele>
        <time>2020-07-13T10:57:16Z</time>
      </trkpt>
      <trkpt lat="37.3268310" lon="-2.7653450">
        <ele>1570.0</ele>
        <time>2020-07-13T10:57:17Z</time>
      </trkpt>
      <trkpt lat="37.3269110" lon="-2.7653070">
        <ele>1569.2</ele>
        <time>2020-07-13T10:57:18Z</time>
      </trkpt>
      <trkpt lat="37.3270910" lon="-2.7653240">
        <ele>1568.0</ele>
        <time>2020-07-13T10:57:20Z</time>
      </trkpt>
      <trkpt lat="37.3272550" lon="-2.7654420">
        <ele>1566.8</ele>
        <time>2020-07-13T10:57:22Z</time>
      </trkpt>
      <trkpt lat="37.3273240" lon="-2.7655420">
        <ele>1566.0</ele>
        <time>2020-07-13T10:57:23Z</time>
      </trkpt>
      <trkpt lat="37.3273840" lon="-2.7656510">
        <ele>1565.2</ele>
        <time>2020-07-13T10:57:24Z</time>
      </trkpt>
      <trkpt lat="37.3274430" lon="-2.7657600">
        <ele>1564.4</ele>
        <time>2020-07-13T10:57:25Z</time>
      </trkpt>
      <trkpt lat="37.3275100" lon="-2.7658830">
        <ele>1563.6</ele>
        <time>2020-07-13T10:57:26Z</time>
      </trkpt>
      <trkpt lat="37.3275740" lon="-2.7659910">
        <ele>1563.0</ele>
        <time>2020-07-13T10:57:27Z</time>
      </trkpt>
      <trkpt lat="37.3276280" lon="-2.7660820">
        <ele>1562.2</ele>
        <time>2020-07-13T10:57:28Z</time>
      </trkpt>
      <trkpt lat="37.3277320" lon="-2.7662620">
        <ele>1560.4</ele>
        <time>2020-07-13T10:57:30Z</time>
      </trkpt>
      <trkpt lat="37.3277790" lon="-2.7663420">
        <ele>1559.6</ele>
        <time>2020-07-13T10:57:31Z</time>
      </trkpt>
      <trkpt lat="37.3278260" lon="-2.7664110">
        <ele>1558.8</ele>
        <time>2020-07-13T10:57:32Z</time>
      </trkpt>
      <trkpt lat="37.3279170" lon="-2.7665600">
        <ele>1557.6</ele>
        <time>2020-07-13T10:57:34Z</time>
      </trkpt>
      <trkpt lat="37.3280290" lon="-2.7667260">
        <ele>1556.4</ele>
        <time>2020-07-13T10:57:36Z</time>
      </trkpt>
      <trkpt lat="37.3280900" lon="-2.7668020">
        <ele>1555.8</ele>
        <time>2020-07-13T10:57:37Z</time>
      </trkpt>
      <trkpt lat="37.3281660" lon="-2.7668770">
        <ele>1555.0</ele>
        <time>2020-07-13T10:57:38Z</time>
      </trkpt>
      <trkpt lat="37.3282490" lon="-2.7669320">
        <ele>1554.6</ele>
        <time>2020-07-13T10:57:39Z</time>
      </trkpt>
      <trkpt lat="37.3284270" lon="-2.7669780">
        <ele>1553.6</ele>
        <time>2020-07-13T10:57:41Z</time>
      </trkpt>
      <trkpt lat="37.3285160" lon="-2.7669580">
        <ele>1553.0</ele>
        <time>2020-07-13T10:57:42Z</time>
      </trkpt>
      <trkpt lat="37.3286000" lon="-2.7669090">
        <ele>1552.4</ele>
        <time>2020-07-13T10:57:43Z</time>
      </trkpt>
      <trkpt lat="37.3286810" lon="-2.7668290">
        <ele>1551.8</ele>
        <time>2020-07-13T10:57:44Z</time>
      </trkpt>
      <trkpt lat="37.3287440" lon="-2.7667360">
        <ele>1551.0</ele>
        <time>2020-07-13T10:57:45Z</time>
      </trkpt>
      <trkpt lat="37.3288190" lon="-2.7664960">
        <ele>1549.6</ele>
        <time>2020-07-13T10:57:47Z</time>
      </trkpt>
      <trkpt lat="37.3288140" lon="-2.7662770">
        <ele>1548.0</ele>
        <time>2020-07-13T10:57:49Z</time>
      </trkpt>
      <trkpt lat="37.3287870" lon="-2.7661850">
        <ele>1547.6</ele>
        <time>2020-07-13T10:57:50Z</time>
      </trkpt>
      <trkpt lat="37.3287400" lon="-2.7660850">
        <ele>1547.0</ele>
        <time>2020-07-13T10:57:51Z</time>
      </trkpt>
      <trkpt lat="37.3286230" lon="-2.7659110">
        <ele>1545.8</ele>
        <time>2020-07-13T10:57:53Z</time>
      </trkpt>
      <trkpt lat="37.3284290" lon="-2.7656430">
        <ele>1544.4</ele>
        <time>2020-07-13T10:57:56Z</time>
      </trkpt>
      <trkpt lat="37.3283720" lon="-2.7655370">
        <ele>1543.8</ele>
        <time>2020-07-13T10:57:57Z</time>
      </trkpt>
      <trkpt lat="37.3283280" lon="-2.7654270">
        <ele>1542.8</ele>
        <time>2020-07-13T10:57:58Z</time>
      </trkpt>
      <trkpt lat="37.3282510" lon="-2.7651690">
        <ele>1540.8</ele>
        <time>2020-07-13T10:58:00Z</time>
      </trkpt>
      <trkpt lat="37.3281690" lon="-2.7648890">
        <ele>1539.0</ele>
        <time>2020-07-13T10:58:02Z</time>
      </trkpt>
      <trkpt lat="37.3281340" lon="-2.7647650">
        <ele>1538.2</ele>
        <time>2020-07-13T10:58:03Z</time>
      </trkpt>
      <trkpt lat="37.3280980" lon="-2.7646360">
        <ele>1537.6</ele>
        <time>2020-07-13T10:58:04Z</time>
      </trkpt>
      <trkpt lat="37.3280710" lon="-2.7645040">
        <ele>1536.8</ele>
        <time>2020-07-13T10:58:05Z</time>
      </trkpt>
      <trkpt lat="37.3280630" lon="-2.7643550">
        <ele>1536.2</ele>
        <time>2020-07-13T10:58:06Z</time>
      </trkpt>
      <trkpt lat="37.3280760" lon="-2.7642180">
        <ele>1535.6</ele>
        <time>2020-07-13T10:58:07Z</time>
      </trkpt>
      <trkpt lat="37.3281250" lon="-2.7639410">
        <ele>1534.4</ele>
        <time>2020-07-13T10:58:09Z</time>
      </trkpt>
      <trkpt lat="37.3281800" lon="-2.7636520">
        <ele>1533.4</ele>
        <time>2020-07-13T10:58:11Z</time>
      </trkpt>
      <trkpt lat="37.3282080" lon="-2.7635160">
        <ele>1532.6</ele>
        <time>2020-07-13T10:58:12Z</time>
      </trkpt>
      <trkpt lat="37.3282380" lon="-2.7633910">
        <ele>1531.8</ele>
        <time>2020-07-13T10:58:13Z</time>
      </trkpt>
      <trkpt lat="37.3282820" lon="-2.7632710">
        <ele>1530.8</ele>
        <time>2020-07-13T10:58:14Z</time>
      </trkpt>
      <trkpt lat="37.3283370" lon="-2.7631780">
        <ele>1530.2</ele>
        <time>2020-07-13T10:58:15Z</time>
      </trkpt>
      <trkpt lat="37.3284130" lon="-2.7631000">
        <ele>1529.2</ele>
        <time>2020-07-13T10:58:16Z</time>
      </trkpt>
      <trkpt lat="37.3285090" lon="-2.7630520">
        <ele>1528.2</ele>
        <time>2020-07-13T10:58:17Z</time>
      </trkpt>
      <trkpt lat="37.3285970" lon="-2.7630460">
        <ele>1527.0</ele>
        <time>2020-07-13T10:58:18Z</time>
      </trkpt>
      <trkpt lat="37.3286930" lon="-2.7630680">
        <ele>1526.4</ele>
        <time>2020-07-13T10:58:19Z</time>
      </trkpt>
      <trkpt lat="37.3287740" lon="-2.7631220">
        <ele>1525.2</ele>
        <time>2020-07-13T10:58:20Z</time>
      </trkpt>
      <trkpt lat="37.3288470" lon="-2.7632140">
        <ele>1524.4</ele>
        <time>2020-07-13T10:58:21Z</time>
      </trkpt>
      <trkpt lat="37.3288960" lon="-2.7633210">
        <ele>1523.6</ele>
        <time>2020-07-13T10:58:22Z</time>
      </trkpt>
      <trkpt lat="37.3289360" lon="-2.7634580">
        <ele>1522.6</ele>
        <time>2020-07-13T10:58:23Z</time>
      </trkpt>
      <trkpt lat="37.3289620" lon="-2.7635980">
        <ele>1521.4</ele>
        <time>2020-07-13T10:58:24Z</time>
      </trkpt>
      <trkpt lat="37.3289960" lon="-2.7638780">
        <ele>1519.8</ele>
        <time>2020-07-13T10:58:26Z</time>
      </trkpt>
      <trkpt lat="37.3290050" lon="-2.7640190">
        <ele>1518.8</ele>
        <time>2020-07-13T10:58:27Z</time>
      </trkpt>
      <trkpt lat="37.3290070" lon="-2.7642940">
        <ele>1517.6</ele>
        <time>2020-07-13T10:58:29Z</time>
      </trkpt>
      <trkpt lat="37.3290120" lon="-2.7644140">
        <ele>1516.8</ele>
        <time>2020-07-13T10:58:30Z</time>
      </trkpt>
      <trkpt lat="37.3290330" lon="-2.7645520">
        <ele>1515.8</ele>
        <time>2020-07-13T10:58:31Z</time>
      </trkpt>
      <trkpt lat="37.3291040" lon="-2.7647810">
        <ele>1514.2</ele>
        <time>2020-07-13T10:58:33Z</time>
      </trkpt>
      <trkpt lat="37.3291700" lon="-2.7648740">
        <ele>1513.4</ele>
        <time>2020-07-13T10:58:34Z</time>
      </trkpt>
      <trkpt lat="37.3292520" lon="-2.7649410">
        <ele>1512.6</ele>
        <time>2020-07-13T10:58:35Z</time>
      </trkpt>
      <trkpt lat="37.3293500" lon="-2.7649820">
        <ele>1512.2</ele>
        <time>2020-07-13T10:58:36Z</time>
      </trkpt>
      <trkpt lat="37.3294510" lon="-2.7650060">
        <ele>1511.4</ele>
        <time>2020-07-13T10:58:37Z</time>
      </trkpt>
      <trkpt lat="37.3295550" lon="-2.7650250">
        <ele>1511.0</ele>
        <time>2020-07-13T10:58:38Z</time>
      </trkpt>
      <trkpt lat="37.3296620" lon="-2.7650400">
        <ele>1510.0</ele>
        <time>2020-07-13T10:58:39Z</time>
      </trkpt>
      <trkpt lat="37.3297590" lon="-2.7650500">
        <ele>1509.2</ele>
        <time>2020-07-13T10:58:40Z</time>
      </trkpt>
      <trkpt lat="37.3298880" lon="-2.7650620">
        <ele>1508.6</ele>
        <time>2020-07-13T10:58:41Z</time>
      </trkpt>
      <trkpt lat="37.3301280" lon="-2.7650860">
        <ele>1507.0</ele>
        <time>2020-07-13T10:58:43Z</time>
      </trkpt>
      <trkpt lat="37.3303600" lon="-2.7651110">
        <ele>1505.2</ele>
        <time>2020-07-13T10:58:45Z</time>
      </trkpt>
      <trkpt lat="37.3304750" lon="-2.7651230">
        <ele>1504.4</ele>
        <time>2020-07-13T10:58:46Z</time>
      </trkpt>
      <trkpt lat="37.3305980" lon="-2.7651350">
        <ele>1503.2</ele>
        <time>2020-07-13T10:58:47Z</time>
      </trkpt>
      <trkpt lat="37.3307020" lon="-2.7651500">
        <ele>1502.2</ele>
        <time>2020-07-13T10:58:48Z</time>
      </trkpt>
      <trkpt lat="37.3308110" lon="-2.7651830">
        <ele>1501.4</ele>
        <time>2020-07-13T10:58:49Z</time>
      </trkpt>
      <trkpt lat="37.3309020" lon="-2.7652350">
        <ele>1500.2</ele>
        <time>2020-07-13T10:58:50Z</time>
      </trkpt>
      <trkpt lat="37.3309880" lon="-2.7653200">
        <ele>1499.2</ele>
        <time>2020-07-13T10:58:51Z</time>
      </trkpt>
      <trkpt lat="37.3310470" lon="-2.7654220">
        <ele>1498.2</ele>
        <time>2020-07-13T10:58:52Z</time>
      </trkpt>
      <trkpt lat="37.3310910" lon="-2.7655500">
        <ele>1497.6</ele>
        <time>2020-07-13T10:58:53Z</time>
      </trkpt>
      <trkpt lat="37.3311110" lon="-2.7656810">
        <ele>1496.8</ele>
        <time>2020-07-13T10:58:54Z</time>
      </trkpt>
      <trkpt lat="37.3311150" lon="-2.7658060">
        <ele>1496.0</ele>
        <time>2020-07-13T10:58:55Z</time>
      </trkpt>
      <trkpt lat="37.3311150" lon="-2.7659500">
        <ele>1495.6</ele>
        <time>2020-07-13T10:58:56Z</time>
      </trkpt>
      <trkpt lat="37.3311100" lon="-2.7660860">
        <ele>1495.0</ele>
        <time>2020-07-13T10:58:57Z</time>
      </trkpt>
      <trkpt lat="37.3311040" lon="-2.7662160">
        <ele>1494.8</ele>
        <time>2020-07-13T10:58:58Z</time>
      </trkpt>
      <trkpt lat="37.3310860" lon="-2.7664980">
        <ele>1494.0</ele>
        <time>2020-07-13T10:59:00Z</time>
      </trkpt>
      <trkpt lat="37.3310570" lon="-2.7669480">
        <ele>1492.4</ele>
        <time>2020-07-13T10:59:03Z</time>
      </trkpt>
      <trkpt lat="37.3310390" lon="-2.7672470">
        <ele>1491.0</ele>
        <time>2020-07-13T10:59:05Z</time>
      </trkpt>
      <trkpt lat="37.3310250" lon="-2.7674080">
        <ele>1489.8</ele>
        <time>2020-07-13T10:59:06Z</time>
      </trkpt>
      <trkpt lat="37.3310190" lon="-2.7677110">
        <ele>1488.4</ele>
        <time>2020-07-13T10:59:08Z</time>
      </trkpt>
      <trkpt lat="37.3310460" lon="-2.7679990">
        <ele>1486.8</ele>
        <time>2020-07-13T10:59:10Z</time>
      </trkpt>
      <trkpt lat="37.3310950" lon="-2.7683180">
        <ele>1485.2</ele>
        <time>2020-07-13T10:59:12Z</time>
      </trkpt>
      <trkpt lat="37.3311420" lon="-2.7686160">
        <ele>1483.8</ele>
        <time>2020-07-13T10:59:14Z</time>
      </trkpt>
      <trkpt lat="37.3311680" lon="-2.7687550">
        <ele>1483.2</ele>
        <time>2020-07-13T10:59:15Z</time>
      </trkpt>
      <trkpt lat="37.3311940" lon="-2.7689010">
        <ele>1482.8</ele>
        <time>2020-07-13T10:59:16Z</time>
      </trkpt>
      <trkpt lat="37.3312480" lon="-2.7691870">
        <ele>1481.6</ele>
        <time>2020-07-13T10:59:18Z</time>
      </trkpt>
      <trkpt lat="37.3312820" lon="-2.7693120">
        <ele>1481.2</ele>
        <time>2020-07-13T10:59:19Z</time>
      </trkpt>
      <trkpt lat="37.3313200" lon="-2.7694200">
        <ele>1480.8</ele>
        <time>2020-07-13T10:59:20Z</time>
      </trkpt>
      <trkpt lat="37.3313750" lon="-2.7695210">
        <ele>1480.6</ele>
        <time>2020-07-13T10:59:21Z</time>
      </trkpt>
      <trkpt lat="37.3315350" lon="-2.7696660">
        <ele>1480.0</ele>
        <time>2020-07-13T10:59:23Z</time>
      </trkpt>
      <trkpt lat="37.3316320" lon="-2.7697070">
        <ele>1479.4</ele>
        <time>2020-07-13T10:59:24Z</time>
      </trkpt>
      <trkpt lat="37.3318390" lon="-2.7697430">
        <ele>1477.8</ele>
        <time>2020-07-13T10:59:26Z</time>
      </trkpt>
      <trkpt lat="37.3319480" lon="-2.7697460">
        <ele>1477.0</ele>
        <time>2020-07-13T10:59:27Z</time>
      </trkpt>
      <trkpt lat="37.3320520" lon="-2.7697510">
        <ele>1475.8</ele>
        <time>2020-07-13T10:59:28Z</time>
      </trkpt>
      <trkpt lat="37.3322780" lon="-2.7697570">
        <ele>1474.2</ele>
        <time>2020-07-13T10:59:30Z</time>
      </trkpt>
      <trkpt lat="37.3323920" lon="-2.7697470">
        <ele>1473.4</ele>
        <time>2020-07-13T10:59:31Z</time>
      </trkpt>
      <trkpt lat="37.3324960" lon="-2.7697190">
        <ele>1472.6</ele>
        <time>2020-07-13T10:59:32Z</time>
      </trkpt>
      <trkpt lat="37.3326870" lon="-2.7696090">
        <ele>1471.6</ele>
        <time>2020-07-13T10:59:34Z</time>
      </trkpt>
      <trkpt lat="37.3327680" lon="-2.7695050">
        <ele>1470.6</ele>
        <time>2020-07-13T10:59:35Z</time>
      </trkpt>
      <trkpt lat="37.3328560" lon="-2.7694060">
        <ele>1469.8</ele>
        <time>2020-07-13T10:59:36Z</time>
      </trkpt>
      <trkpt lat="37.3329390" lon="-2.7693130">
        <ele>1469.2</ele>
        <time>2020-07-13T10:59:37Z</time>
      </trkpt>
      <trkpt lat="37.3330210" lon="-2.7692240">
        <ele>1468.4</ele>
        <time>2020-07-13T10:59:38Z</time>
      </trkpt>
      <trkpt lat="37.3332010" lon="-2.7690420">
        <ele>1467.2</ele>
        <time>2020-07-13T10:59:40Z</time>
      </trkpt>
      <trkpt lat="37.3333070" lon="-2.7689600">
        <ele>1466.2</ele>
        <time>2020-07-13T10:59:41Z</time>
      </trkpt>
      <trkpt lat="37.3334100" lon="-2.7688830">
        <ele>1465.8</ele>
        <time>2020-07-13T10:59:42Z</time>
      </trkpt>
      <trkpt lat="37.3336120" lon="-2.7687300">
        <ele>1464.8</ele>
        <time>2020-07-13T10:59:44Z</time>
      </trkpt>
      <trkpt lat="37.3336910" lon="-2.7686520">
        <ele>1464.2</ele>
        <time>2020-07-13T10:59:45Z</time>
      </trkpt>
      <trkpt lat="37.3337610" lon="-2.7685550">
        <ele>1463.4</ele>
        <time>2020-07-13T10:59:46Z</time>
      </trkpt>
      <trkpt lat="37.3338560" lon="-2.7682990">
        <ele>1461.6</ele>
        <time>2020-07-13T10:59:48Z</time>
      </trkpt>
      <trkpt lat="37.3338750" lon="-2.7681760">
        <ele>1460.6</ele>
        <time>2020-07-13T10:59:49Z</time>
      </trkpt>
      <trkpt lat="37.3338910" lon="-2.7680420">
        <ele>1459.6</ele>
        <time>2020-07-13T10:59:50Z</time>
      </trkpt>
      <trkpt lat="37.3339340" lon="-2.7677590">
        <ele>1458.0</ele>
        <time>2020-07-13T10:59:52Z</time>
      </trkpt>
      <trkpt lat="37.3339710" lon="-2.7676160">
        <ele>1457.4</ele>
        <time>2020-07-13T10:59:53Z</time>
      </trkpt>
      <trkpt lat="37.3340160" lon="-2.7674700">
        <ele>1456.6</ele>
        <time>2020-07-13T10:59:54Z</time>
      </trkpt>
      <trkpt lat="37.3341080" lon="-2.7671870">
        <ele>1455.2</ele>
        <time>2020-07-13T10:59:56Z</time>
      </trkpt>
      <trkpt lat="37.3341970" lon="-2.7669140">
        <ele>1454.0</ele>
        <time>2020-07-13T10:59:58Z</time>
      </trkpt>
      <trkpt lat="37.3343180" lon="-2.7664780">
        <ele>1452.4</ele>
        <time>2020-07-13T11:00:01Z</time>
      </trkpt>
      <trkpt lat="37.3343370" lon="-2.7663330">
        <ele>1451.4</ele>
        <time>2020-07-13T11:00:02Z</time>
      </trkpt>
      <trkpt lat="37.3343500" lon="-2.7661980">
        <ele>1450.8</ele>
        <time>2020-07-13T11:00:03Z</time>
      </trkpt>
      <trkpt lat="37.3343660" lon="-2.7660670">
        <ele>1450.2</ele>
        <time>2020-07-13T11:00:04Z</time>
      </trkpt>
      <trkpt lat="37.3344000" lon="-2.7659410">
        <ele>1449.6</ele>
        <time>2020-07-13T11:00:05Z</time>
      </trkpt>
      <trkpt lat="37.3344610" lon="-2.7658310">
        <ele>1449.0</ele>
        <time>2020-07-13T11:00:06Z</time>
      </trkpt>
      <trkpt lat="37.3345350" lon="-2.7657560">
        <ele>1448.2</ele>
        <time>2020-07-13T11:00:07Z</time>
      </trkpt>
      <trkpt lat="37.3346180" lon="-2.7657130">
        <ele>1447.6</ele>
        <time>2020-07-13T11:00:08Z</time>
      </trkpt>
      <trkpt lat="37.3347160" lon="-2.7657020">
        <ele>1446.8</ele>
        <time>2020-07-13T11:00:09Z</time>
      </trkpt>
      <trkpt lat="37.3348030" lon="-2.7657130">
        <ele>1446.0</ele>
        <time>2020-07-13T11:00:10Z</time>
      </trkpt>
      <trkpt lat="37.3349050" lon="-2.7657590">
        <ele>1444.8</ele>
        <time>2020-07-13T11:00:11Z</time>
      </trkpt>
      <trkpt lat="37.3349800" lon="-2.7658390">
        <ele>1443.8</ele>
        <time>2020-07-13T11:00:12Z</time>
      </trkpt>
      <trkpt lat="37.3350320" lon="-2.7659460">
        <ele>1442.4</ele>
        <time>2020-07-13T11:00:13Z</time>
      </trkpt>
      <trkpt lat="37.3350710" lon="-2.7660650">
        <ele>1441.8</ele>
        <time>2020-07-13T11:00:14Z</time>
      </trkpt>
      <trkpt lat="37.3351050" lon="-2.7661810">
        <ele>1441.2</ele>
        <time>2020-07-13T11:00:15Z</time>
      </trkpt>
      <trkpt lat="37.3351770" lon="-2.7664350">
        <ele>1440.0</ele>
        <time>2020-07-13T11:00:17Z</time>
      </trkpt>
      <trkpt lat="37.3352560" lon="-2.7666590">
        <ele>1439.0</ele>
        <time>2020-07-13T11:00:19Z</time>
      </trkpt>
      <trkpt lat="37.3353130" lon="-2.7667470">
        <ele>1438.2</ele>
        <time>2020-07-13T11:00:20Z</time>
      </trkpt>
      <trkpt lat="37.3353890" lon="-2.7668200">
        <ele>1437.6</ele>
        <time>2020-07-13T11:00:21Z</time>
      </trkpt>
      <trkpt lat="37.3355710" lon="-2.7669190">
        <ele>1436.2</ele>
        <time>2020-07-13T11:00:23Z</time>
      </trkpt>
      <trkpt lat="37.3357460" lon="-2.7669420">
        <ele>1435.2</ele>
        <time>2020-07-13T11:00:25Z</time>
      </trkpt>
      <trkpt lat="37.3358470" lon="-2.7669190">
        <ele>1434.4</ele>
        <time>2020-07-13T11:00:26Z</time>
      </trkpt>
      <trkpt lat="37.3359400" lon="-2.7668800">
        <ele>1433.8</ele>
        <time>2020-07-13T11:00:27Z</time>
      </trkpt>
      <trkpt lat="37.3360280" lon="-2.7668390">
        <ele>1433.4</ele>
        <time>2020-07-13T11:00:28Z</time>
      </trkpt>
      <trkpt lat="37.3361310" lon="-2.7668000">
        <ele>1433.0</ele>
        <time>2020-07-13T11:00:29Z</time>
      </trkpt>
      <trkpt lat="37.3362240" lon="-2.7667760">
        <ele>1432.6</ele>
        <time>2020-07-13T11:00:30Z</time>
      </trkpt>
      <trkpt lat="37.3364330" lon="-2.7667370">
        <ele>1431.0</ele>
        <time>2020-07-13T11:00:32Z</time>
      </trkpt>
      <trkpt lat="37.3366330" lon="-2.7666960">
        <ele>1429.6</ele>
        <time>2020-07-13T11:00:34Z</time>
      </trkpt>
      <trkpt lat="37.3368480" lon="-2.7666280">
        <ele>1428.2</ele>
        <time>2020-07-13T11:00:36Z</time>
      </trkpt>
      <trkpt lat="37.3370560" lon="-2.7665380">
        <ele>1426.8</ele>
        <time>2020-07-13T11:00:38Z</time>
      </trkpt>
      <trkpt lat="37.3372500" lon="-2.7664290">
        <ele>1425.6</ele>
        <time>2020-07-13T11:00:40Z</time>
      </trkpt>
      <trkpt lat="37.3373720" lon="-2.7663480">
        <ele>1424.8</ele>
        <time>2020-07-13T11:00:41Z</time>
      </trkpt>
      <trkpt lat="37.3374760" lon="-2.7662740">
        <ele>1423.8</ele>
        <time>2020-07-13T11:00:42Z</time>
      </trkpt>
      <trkpt lat="37.3375750" lon="-2.7662010">
        <ele>1422.8</ele>
        <time>2020-07-13T11:00:43Z</time>
      </trkpt>
      <trkpt lat="37.3377740" lon="-2.7660380">
        <ele>1421.2</ele>
        <time>2020-07-13T11:00:45Z</time>
      </trkpt>
      <trkpt lat="37.3378650" lon="-2.7659390">
        <ele>1420.6</ele>
        <time>2020-07-13T11:00:46Z</time>
      </trkpt>
      <trkpt lat="37.3379560" lon="-2.7658220">
        <ele>1420.0</ele>
        <time>2020-07-13T11:00:47Z</time>
      </trkpt>
      <trkpt lat="37.3380980" lon="-2.7655860">
        <ele>1418.8</ele>
        <time>2020-07-13T11:00:49Z</time>
      </trkpt>
      <trkpt lat="37.3381960" lon="-2.7653270">
        <ele>1417.8</ele>
        <time>2020-07-13T11:00:51Z</time>
      </trkpt>
      <trkpt lat="37.3382200" lon="-2.7651950">
        <ele>1416.8</ele>
        <time>2020-07-13T11:00:52Z</time>
      </trkpt>
      <trkpt lat="37.3382340" lon="-2.7650410">
        <ele>1415.8</ele>
        <time>2020-07-13T11:00:53Z</time>
      </trkpt>
      <trkpt lat="37.3382230" lon="-2.7647580">
        <ele>1413.6</ele>
        <time>2020-07-13T11:00:55Z</time>
      </trkpt>
      <trkpt lat="37.3381980" lon="-2.7646020">
        <ele>1412.6</ele>
        <time>2020-07-13T11:00:56Z</time>
      </trkpt>
      <trkpt lat="37.3381340" lon="-2.7643380">
        <ele>1411.0</ele>
        <time>2020-07-13T11:00:58Z</time>
      </trkpt>
      <trkpt lat="37.3381010" lon="-2.7642000">
        <ele>1410.2</ele>
        <time>2020-07-13T11:00:59Z</time>
      </trkpt>
      <trkpt lat="37.3380860" lon="-2.7640800">
        <ele>1409.4</ele>
        <time>2020-07-13T11:01:00Z</time>
      </trkpt>
      <trkpt lat="37.3381150" lon="-2.7638240">
        <ele>1407.8</ele>
        <time>2020-07-13T11:01:02Z</time>
      </trkpt>
      <trkpt lat="37.3382320" lon="-2.7636360">
        <ele>1406.0</ele>
        <time>2020-07-13T11:01:04Z</time>
      </trkpt>
      <trkpt lat="37.3384120" lon="-2.7635130">
        <ele>1404.8</ele>
        <time>2020-07-13T11:01:06Z</time>
      </trkpt>
      <trkpt lat="37.3384990" lon="-2.7634490">
        <ele>1404.2</ele>
        <time>2020-07-13T11:01:07Z</time>
      </trkpt>
      <trkpt lat="37.3386310" lon="-2.7632700">
        <ele>1403.4</ele>
        <time>2020-07-13T11:01:09Z</time>
      </trkpt>
      <trkpt lat="37.3386860" lon="-2.7631660">
        <ele>1403.2</ele>
        <time>2020-07-13T11:01:10Z</time>
      </trkpt>
      <trkpt lat="37.3387150" lon="-2.7630340">
        <ele>1402.8</ele>
        <time>2020-07-13T11:01:11Z</time>
      </trkpt>
      <trkpt lat="37.3387450" lon="-2.7629040">
        <ele>1402.2</ele>
        <time>2020-07-13T11:01:12Z</time>
      </trkpt>
      <trkpt lat="37.3387700" lon="-2.7627740">
        <ele>1401.8</ele>
        <time>2020-07-13T11:01:13Z</time>
      </trkpt>
      <trkpt lat="37.3387930" lon="-2.7626320">
        <ele>1401.0</ele>
        <time>2020-07-13T11:01:14Z</time>
      </trkpt>
      <trkpt lat="37.3388430" lon="-2.7623620">
        <ele>1399.2</ele>
        <time>2020-07-13T11:01:16Z</time>
      </trkpt>
      <trkpt lat="37.3388870" lon="-2.7621250">
        <ele>1397.6</ele>
        <time>2020-07-13T11:01:18Z</time>
      </trkpt>
      <trkpt lat="37.3389300" lon="-2.7618870">
        <ele>1396.0</ele>
        <time>2020-07-13T11:01:20Z</time>
      </trkpt>
      <trkpt lat="37.3389740" lon="-2.7616500">
        <ele>1394.8</ele>
        <time>2020-07-13T11:01:21Z</time>
      </trkpt>
      <trkpt lat="37.3389820" lon="-2.7615130">
        <ele>1393.8</ele>
        <time>2020-07-13T11:01:22Z</time>
      </trkpt>
      <trkpt lat="37.3389810" lon="-2.7613640">
        <ele>1392.8</ele>
        <time>2020-07-13T11:01:23Z</time>
      </trkpt>
      <trkpt lat="37.3389650" lon="-2.7610690">
        <ele>1391.6</ele>
        <time>2020-07-13T11:01:25Z</time>
      </trkpt>
      <trkpt lat="37.3389600" lon="-2.7607540">
        <ele>1390.4</ele>
        <time>2020-07-13T11:01:27Z</time>
      </trkpt>
      <trkpt lat="37.3390130" lon="-2.7604560">
        <ele>1389.0</ele>
        <time>2020-07-13T11:01:29Z</time>
      </trkpt>
      <trkpt lat="37.3390740" lon="-2.7601680">
        <ele>1388.0</ele>
        <time>2020-07-13T11:01:31Z</time>
      </trkpt>
      <trkpt lat="37.3391520" lon="-2.7597390">
        <ele>1386.6</ele>
        <time>2020-07-13T11:01:34Z</time>
      </trkpt>
      <trkpt lat="37.3391680" lon="-2.7595930">
        <ele>1386.2</ele>
        <time>2020-07-13T11:01:35Z</time>
      </trkpt>
      <trkpt lat="37.3391700" lon="-2.7594350">
        <ele>1385.0</ele>
        <time>2020-07-13T11:01:36Z</time>
      </trkpt>
      <trkpt lat="37.3391580" lon="-2.7592850">
        <ele>1384.0</ele>
        <time>2020-07-13T11:01:37Z</time>
      </trkpt>
      <trkpt lat="37.3391390" lon="-2.7591440">
        <ele>1383.0</ele>
        <time>2020-07-13T11:01:38Z</time>
      </trkpt>
      <trkpt lat="37.3391000" lon="-2.7588800">
        <ele>1380.4</ele>
        <time>2020-07-13T11:01:40Z</time>
      </trkpt>
      <trkpt lat="37.3391090" lon="-2.7587310">
        <ele>1379.6</ele>
        <time>2020-07-13T11:01:41Z</time>
      </trkpt>
      <trkpt lat="37.3391430" lon="-2.7586090">
        <ele>1378.8</ele>
        <time>2020-07-13T11:01:42Z</time>
      </trkpt>
      <trkpt lat="37.3392480" lon="-2.7583790">
        <ele>1377.2</ele>
        <time>2020-07-13T11:01:44Z</time>
      </trkpt>
      <trkpt lat="37.3393030" lon="-2.7582710">
        <ele>1376.4</ele>
        <time>2020-07-13T11:01:45Z</time>
      </trkpt>
      <trkpt lat="37.3393600" lon="-2.7581520">
        <ele>1375.4</ele>
        <time>2020-07-13T11:01:46Z</time>
      </trkpt>
      <trkpt lat="37.3394700" lon="-2.7579030">
        <ele>1374.0</ele>
        <time>2020-07-13T11:01:48Z</time>
      </trkpt>
      <trkpt lat="37.3395540" lon="-2.7576560">
        <ele>1372.6</ele>
        <time>2020-07-13T11:01:50Z</time>
      </trkpt>
      <trkpt lat="37.3396640" lon="-2.7572980">
        <ele>1371.6</ele>
        <time>2020-07-13T11:01:53Z</time>
      </trkpt>
      <trkpt lat="37.3397460" lon="-2.7571030">
        <ele>1371.4</ele>
        <time>2020-07-13T11:01:55Z</time>
      </trkpt>
      <trkpt lat="37.3399400" lon="-2.7568630">
        <ele>1371.6</ele>
        <time>2020-07-13T11:01:58Z</time>
      </trkpt>
      <trkpt lat="37.3400840" lon="-2.7567440">
        <ele>1371.8</ele>
        <time>2020-07-13T11:02:00Z</time>
      </trkpt>
      <trkpt lat="37.3402340" lon="-2.7566220">
        <ele>1372.0</ele>
        <time>2020-07-13T11:02:02Z</time>
      </trkpt>
      <trkpt lat="37.3403030" lon="-2.7565660">
        <ele>1372.0</ele>
        <time>2020-07-13T11:02:03Z</time>
      </trkpt>
      <trkpt lat="37.3404410" lon="-2.7564470">
        <ele>1372.0</ele>
        <time>2020-07-13T11:02:05Z</time>
      </trkpt>
      <trkpt lat="37.3405830" lon="-2.7563160">
        <ele>1371.8</ele>
        <time>2020-07-13T11:02:07Z</time>
      </trkpt>
      <trkpt lat="37.3407070" lon="-2.7561730">
        <ele>1371.6</ele>
        <time>2020-07-13T11:02:09Z</time>
      </trkpt>
      <trkpt lat="37.3407550" lon="-2.7560990">
        <ele>1371.6</ele>
        <time>2020-07-13T11:02:10Z</time>
      </trkpt>
      <trkpt lat="37.3408480" lon="-2.7558040">
        <ele>1371.6</ele>
        <time>2020-07-13T11:02:13Z</time>
      </trkpt>
      <trkpt lat="37.3408240" lon="-2.7555120">
        <ele>1371.6</ele>
        <time>2020-07-13T11:02:16Z</time>
      </trkpt>
      <trkpt lat="37.3408070" lon="-2.7554150">
        <ele>1371.8</ele>
        <time>2020-07-13T11:02:17Z</time>
      </trkpt>
      <trkpt lat="37.3407450" lon="-2.7550630">
        <ele>1371.6</ele>
        <time>2020-07-13T11:02:21Z</time>
      </trkpt>
      <trkpt lat="37.3407360" lon="-2.7548900">
        <ele>1371.8</ele>
        <time>2020-07-13T11:02:23Z</time>
      </trkpt>
      <trkpt lat="37.3408320" lon="-2.7545600">
        <ele>1372.0</ele>
        <time>2020-07-13T11:02:27Z</time>
      </trkpt>
      <trkpt lat="37.3410300" lon="-2.7543970">
        <ele>1371.6</ele>
        <time>2020-07-13T11:02:30Z</time>
      </trkpt>
      <trkpt lat="37.3411180" lon="-2.7543510">
        <ele>1371.4</ele>
        <time>2020-07-13T11:02:31Z</time>
      </trkpt>
      <trkpt lat="37.3413790" lon="-2.7542170">
        <ele>1370.4</ele>
        <time>2020-07-13T11:02:34Z</time>
      </trkpt>
      <trkpt lat="37.3414740" lon="-2.7541730">
        <ele>1370.0</ele>
        <time>2020-07-13T11:02:35Z</time>
      </trkpt>
      <trkpt lat="37.3416710" lon="-2.7540750">
        <ele>1369.0</ele>
        <time>2020-07-13T11:02:37Z</time>
      </trkpt>
      <trkpt lat="37.3418570" lon="-2.7539470">
        <ele>1367.6</ele>
        <time>2020-07-13T11:02:39Z</time>
      </trkpt>
      <trkpt lat="37.3419280" lon="-2.7538640">
        <ele>1366.8</ele>
        <time>2020-07-13T11:02:40Z</time>
      </trkpt>
      <trkpt lat="37.3420060" lon="-2.7537430">
        <ele>1366.4</ele>
        <time>2020-07-13T11:02:41Z</time>
      </trkpt>
      <trkpt lat="37.3421350" lon="-2.7535050">
        <ele>1364.8</ele>
        <time>2020-07-13T11:02:43Z</time>
      </trkpt>
      <trkpt lat="37.3422610" lon="-2.7532450">
        <ele>1363.0</ele>
        <time>2020-07-13T11:02:45Z</time>
      </trkpt>
      <trkpt lat="37.3423260" lon="-2.7531100">
        <ele>1361.6</ele>
        <time>2020-07-13T11:02:46Z</time>
      </trkpt>
      <trkpt lat="37.3423960" lon="-2.7529650">
        <ele>1360.6</ele>
        <time>2020-07-13T11:02:47Z</time>
      </trkpt>
      <trkpt lat="37.3424660" lon="-2.7528250">
        <ele>1359.6</ele>
        <time>2020-07-13T11:02:48Z</time>
      </trkpt>
      <trkpt lat="37.3425340" lon="-2.7526840">
        <ele>1358.8</ele>
        <time>2020-07-13T11:02:49Z</time>
      </trkpt>
      <trkpt lat="37.3426590" lon="-2.7523940">
        <ele>1357.0</ele>
        <time>2020-07-13T11:02:51Z</time>
      </trkpt>
      <trkpt lat="37.3427520" lon="-2.7520890">
        <ele>1355.0</ele>
        <time>2020-07-13T11:02:53Z</time>
      </trkpt>
      <trkpt lat="37.3428120" lon="-2.7517660">
        <ele>1353.2</ele>
        <time>2020-07-13T11:02:55Z</time>
      </trkpt>
      <trkpt lat="37.3428460" lon="-2.7514300">
        <ele>1351.6</ele>
        <time>2020-07-13T11:02:57Z</time>
      </trkpt>
      <trkpt lat="37.3428600" lon="-2.7511090">
        <ele>1350.0</ele>
        <time>2020-07-13T11:02:59Z</time>
      </trkpt>
      <trkpt lat="37.3428980" lon="-2.7507960">
        <ele>1349.2</ele>
        <time>2020-07-13T11:03:01Z</time>
      </trkpt>
      <trkpt lat="37.3429360" lon="-2.7506440">
        <ele>1348.6</ele>
        <time>2020-07-13T11:03:02Z</time>
      </trkpt>
      <trkpt lat="37.3430240" lon="-2.7503530">
        <ele>1347.2</ele>
        <time>2020-07-13T11:03:04Z</time>
      </trkpt>
      <trkpt lat="37.3431190" lon="-2.7500440">
        <ele>1345.4</ele>
        <time>2020-07-13T11:03:06Z</time>
      </trkpt>
      <trkpt lat="37.3432040" lon="-2.7497480">
        <ele>1343.2</ele>
        <time>2020-07-13T11:03:08Z</time>
      </trkpt>
      <trkpt lat="37.3432690" lon="-2.7494600">
        <ele>1341.8</ele>
        <time>2020-07-13T11:03:10Z</time>
      </trkpt>
      <trkpt lat="37.3433240" lon="-2.7491360">
        <ele>1340.2</ele>
        <time>2020-07-13T11:03:12Z</time>
      </trkpt>
      <trkpt lat="37.3433780" lon="-2.7488270">
        <ele>1338.8</ele>
        <time>2020-07-13T11:03:14Z</time>
      </trkpt>
      <trkpt lat="37.3434490" lon="-2.7485470">
        <ele>1337.2</ele>
        <time>2020-07-13T11:03:16Z</time>
      </trkpt>
      <trkpt lat="37.3435120" lon="-2.7484130">
        <ele>1336.4</ele>
        <time>2020-07-13T11:03:17Z</time>
      </trkpt>
      <trkpt lat="37.3435860" lon="-2.7483040">
        <ele>1335.8</ele>
        <time>2020-07-13T11:03:18Z</time>
      </trkpt>
      <trkpt lat="37.3437630" lon="-2.7481040">
        <ele>1334.6</ele>
        <time>2020-07-13T11:03:20Z</time>
      </trkpt>
      <trkpt lat="37.3438660" lon="-2.7479990">
        <ele>1334.2</ele>
        <time>2020-07-13T11:03:21Z</time>
      </trkpt>
      <trkpt lat="37.3440640" lon="-2.7477940">
        <ele>1333.0</ele>
        <time>2020-07-13T11:03:23Z</time>
      </trkpt>
      <trkpt lat="37.3442610" lon="-2.7475950">
        <ele>1331.4</ele>
        <time>2020-07-13T11:03:25Z</time>
      </trkpt>
      <trkpt lat="37.3444740" lon="-2.7473850">
        <ele>1329.8</ele>
        <time>2020-07-13T11:03:27Z</time>
      </trkpt>
      <trkpt lat="37.3445700" lon="-2.7472890">
        <ele>1329.0</ele>
        <time>2020-07-13T11:03:28Z</time>
      </trkpt>
      <trkpt lat="37.3446860" lon="-2.7471750">
        <ele>1327.8</ele>
        <time>2020-07-13T11:03:29Z</time>
      </trkpt>
      <trkpt lat="37.3449000" lon="-2.7469640">
        <ele>1325.8</ele>
        <time>2020-07-13T11:03:31Z</time>
      </trkpt>
      <trkpt lat="37.3450090" lon="-2.7468610">
        <ele>1324.6</ele>
        <time>2020-07-13T11:03:32Z</time>
      </trkpt>
      <trkpt lat="37.3451150" lon="-2.7467630">
        <ele>1323.6</ele>
        <time>2020-07-13T11:03:33Z</time>
      </trkpt>
      <trkpt lat="37.3452200" lon="-2.7466710">
        <ele>1322.4</ele>
        <time>2020-07-13T11:03:34Z</time>
      </trkpt>
      <trkpt lat="37.3453220" lon="-2.7465890">
        <ele>1321.4</ele>
        <time>2020-07-13T11:03:35Z</time>
      </trkpt>
      <trkpt lat="37.3455430" lon="-2.7464550">
        <ele>1319.2</ele>
        <time>2020-07-13T11:03:37Z</time>
      </trkpt>
      <trkpt lat="37.3456600" lon="-2.7464050">
        <ele>1318.4</ele>
        <time>2020-07-13T11:03:38Z</time>
      </trkpt>
      <trkpt lat="37.3457800" lon="-2.7463610">
        <ele>1317.4</ele>
        <time>2020-07-13T11:03:39Z</time>
      </trkpt>
      <trkpt lat="37.3460290" lon="-2.7462740">
        <ele>1316.0</ele>
        <time>2020-07-13T11:03:41Z</time>
      </trkpt>
      <trkpt lat="37.3462590" lon="-2.7461910">
        <ele>1315.0</ele>
        <time>2020-07-13T11:03:43Z</time>
      </trkpt>
      <trkpt lat="37.3463760" lon="-2.7461450">
        <ele>1314.4</ele>
        <time>2020-07-13T11:03:44Z</time>
      </trkpt>
      <trkpt lat="37.3465930" lon="-2.7460360">
        <ele>1312.6</ele>
        <time>2020-07-13T11:03:46Z</time>
      </trkpt>
      <trkpt lat="37.3467040" lon="-2.7459560">
        <ele>1311.4</ele>
        <time>2020-07-13T11:03:47Z</time>
      </trkpt>
      <trkpt lat="37.3467950" lon="-2.7458730">
        <ele>1310.0</ele>
        <time>2020-07-13T11:03:48Z</time>
      </trkpt>
      <trkpt lat="37.3468850" lon="-2.7457720">
        <ele>1308.6</ele>
        <time>2020-07-13T11:03:49Z</time>
      </trkpt>
      <trkpt lat="37.3469560" lon="-2.7456740">
        <ele>1307.2</ele>
        <time>2020-07-13T11:03:50Z</time>
      </trkpt>
      <trkpt lat="37.3470270" lon="-2.7455530">
        <ele>1306.0</ele>
        <time>2020-07-13T11:03:51Z</time>
      </trkpt>
      <trkpt lat="37.3470790" lon="-2.7454380">
        <ele>1304.8</ele>
        <time>2020-07-13T11:03:52Z</time>
      </trkpt>
      <trkpt lat="37.3471200" lon="-2.7452970">
        <ele>1303.8</ele>
        <time>2020-07-13T11:03:53Z</time>
      </trkpt>
      <trkpt lat="37.3471360" lon="-2.7451600">
        <ele>1302.8</ele>
        <time>2020-07-13T11:03:54Z</time>
      </trkpt>
      <trkpt lat="37.3471370" lon="-2.7450250">
        <ele>1301.6</ele>
        <time>2020-07-13T11:03:55Z</time>
      </trkpt>
      <trkpt lat="37.3471290" lon="-2.7448690">
        <ele>1300.8</ele>
        <time>2020-07-13T11:03:56Z</time>
      </trkpt>
      <trkpt lat="37.3471170" lon="-2.7447160">
        <ele>1300.0</ele>
        <time>2020-07-13T11:03:57Z</time>
      </trkpt>
      <trkpt lat="37.3470940" lon="-2.7444030">
        <ele>1298.2</ele>
        <time>2020-07-13T11:03:59Z</time>
      </trkpt>
      <trkpt lat="37.3470840" lon="-2.7442520">
        <ele>1297.0</ele>
        <time>2020-07-13T11:04:00Z</time>
      </trkpt>
      <trkpt lat="37.3470710" lon="-2.7440800">
        <ele>1296.0</ele>
        <time>2020-07-13T11:04:01Z</time>
      </trkpt>
      <trkpt lat="37.3470570" lon="-2.7439140">
        <ele>1295.0</ele>
        <time>2020-07-13T11:04:02Z</time>
      </trkpt>
      <trkpt lat="37.3470290" lon="-2.7435910">
        <ele>1293.4</ele>
        <time>2020-07-13T11:04:04Z</time>
      </trkpt>
      <trkpt lat="37.3469980" lon="-2.7432620">
        <ele>1292.2</ele>
        <time>2020-07-13T11:04:06Z</time>
      </trkpt>
      <trkpt lat="37.3469480" lon="-2.7429660">
        <ele>1290.8</ele>
        <time>2020-07-13T11:04:08Z</time>
      </trkpt>
      <trkpt lat="37.3469030" lon="-2.7428270">
        <ele>1289.8</ele>
        <time>2020-07-13T11:04:09Z</time>
      </trkpt>
      <trkpt lat="37.3468500" lon="-2.7427180">
        <ele>1288.8</ele>
        <time>2020-07-13T11:04:10Z</time>
      </trkpt>
      <trkpt lat="37.3467610" lon="-2.7425900">
        <ele>1287.4</ele>
        <time>2020-07-13T11:04:11Z</time>
      </trkpt>
      <trkpt lat="37.3466690" lon="-2.7424900">
        <ele>1286.4</ele>
        <time>2020-07-13T11:04:12Z</time>
      </trkpt>
      <trkpt lat="37.3465730" lon="-2.7423970">
        <ele>1285.2</ele>
        <time>2020-07-13T11:04:13Z</time>
      </trkpt>
      <trkpt lat="37.3463880" lon="-2.7422120">
        <ele>1283.2</ele>
        <time>2020-07-13T11:04:15Z</time>
      </trkpt>
      <trkpt lat="37.3462080" lon="-2.7420000">
        <ele>1282.0</ele>
        <time>2020-07-13T11:04:17Z</time>
      </trkpt>
      <trkpt lat="37.3461400" lon="-2.7418900">
        <ele>1281.6</ele>
        <time>2020-07-13T11:04:18Z</time>
      </trkpt>
      <trkpt lat="37.3460840" lon="-2.7417570">
        <ele>1281.2</ele>
        <time>2020-07-13T11:04:19Z</time>
      </trkpt>
      <trkpt lat="37.3460500" lon="-2.7416300">
        <ele>1280.8</ele>
        <time>2020-07-13T11:04:20Z</time>
      </trkpt>
      <trkpt lat="37.3460060" lon="-2.7413410">
        <ele>1280.0</ele>
        <time>2020-07-13T11:04:22Z</time>
      </trkpt>
      <trkpt lat="37.3459950" lon="-2.7411940">
        <ele>1279.6</ele>
        <time>2020-07-13T11:04:23Z</time>
      </trkpt>
      <trkpt lat="37.3460190" lon="-2.7409300">
        <ele>1278.4</ele>
        <time>2020-07-13T11:04:25Z</time>
      </trkpt>
      <trkpt lat="37.3461360" lon="-2.7407120">
        <ele>1277.2</ele>
        <time>2020-07-13T11:04:27Z</time>
      </trkpt>
      <trkpt lat="37.3463890" lon="-2.7404860">
        <ele>1275.6</ele>
        <time>2020-07-13T11:04:30Z</time>
      </trkpt>
      <trkpt lat="37.3465800" lon="-2.7403320">
        <ele>1274.0</ele>
        <time>2020-07-13T11:04:32Z</time>
      </trkpt>
      <trkpt lat="37.3467610" lon="-2.7401940">
        <ele>1273.0</ele>
        <time>2020-07-13T11:04:34Z</time>
      </trkpt>
      <trkpt lat="37.3469670" lon="-2.7400700">
        <ele>1272.0</ele>
        <time>2020-07-13T11:04:36Z</time>
      </trkpt>
      <trkpt lat="37.3470750" lon="-2.7400380">
        <ele>1271.4</ele>
        <time>2020-07-13T11:04:37Z</time>
      </trkpt>
      <trkpt lat="37.3471860" lon="-2.7400220">
        <ele>1270.8</ele>
        <time>2020-07-13T11:04:38Z</time>
      </trkpt>
      <trkpt lat="37.3473950" lon="-2.7400040">
        <ele>1269.4</ele>
        <time>2020-07-13T11:04:40Z</time>
      </trkpt>
      <trkpt lat="37.3475200" lon="-2.7399900">
        <ele>1268.6</ele>
        <time>2020-07-13T11:04:41Z</time>
      </trkpt>
      <trkpt lat="37.3476290" lon="-2.7399780">
        <ele>1267.8</ele>
        <time>2020-07-13T11:04:42Z</time>
      </trkpt>
      <trkpt lat="37.3478450" lon="-2.7399430">
        <ele>1266.8</ele>
        <time>2020-07-13T11:04:44Z</time>
      </trkpt>
      <trkpt lat="37.3481520" lon="-2.7398530">
        <ele>1266.0</ele>
        <time>2020-07-13T11:04:47Z</time>
      </trkpt>
      <trkpt lat="37.3482480" lon="-2.7397960">
        <ele>1265.4</ele>
        <time>2020-07-13T11:04:48Z</time>
      </trkpt>
      <trkpt lat="37.3484260" lon="-2.7396590">
        <ele>1264.6</ele>
        <time>2020-07-13T11:04:50Z</time>
      </trkpt>
      <trkpt lat="37.3485190" lon="-2.7395700">
        <ele>1264.0</ele>
        <time>2020-07-13T11:04:51Z</time>
      </trkpt>
      <trkpt lat="37.3486770" lon="-2.7393760">
        <ele>1262.8</ele>
        <time>2020-07-13T11:04:53Z</time>
      </trkpt>
      <trkpt lat="37.3487490" lon="-2.7392670">
        <ele>1262.4</ele>
        <time>2020-07-13T11:04:54Z</time>
      </trkpt>
      <trkpt lat="37.3488100" lon="-2.7391580">
        <ele>1261.6</ele>
        <time>2020-07-13T11:04:55Z</time>
      </trkpt>
      <trkpt lat="37.3489130" lon="-2.7389110">
        <ele>1260.4</ele>
        <time>2020-07-13T11:04:57Z</time>
      </trkpt>
      <trkpt lat="37.3489530" lon="-2.7387850">
        <ele>1259.6</ele>
        <time>2020-07-13T11:04:58Z</time>
      </trkpt>
      <trkpt lat="37.3489900" lon="-2.7386710">
        <ele>1259.0</ele>
        <time>2020-07-13T11:04:59Z</time>
      </trkpt>
      <trkpt lat="37.3490460" lon="-2.7385280">
        <ele>1258.0</ele>
        <time>2020-07-13T11:05:00Z</time>
      </trkpt>
      <trkpt lat="37.3491140" lon="-2.7384050">
        <ele>1257.4</ele>
        <time>2020-07-13T11:05:01Z</time>
      </trkpt>
      <trkpt lat="37.3492800" lon="-2.7382180">
        <ele>1256.0</ele>
        <time>2020-07-13T11:05:03Z</time>
      </trkpt>
      <trkpt lat="37.3493690" lon="-2.7381440">
        <ele>1255.6</ele>
        <time>2020-07-13T11:05:04Z</time>
      </trkpt>
      <trkpt lat="37.3494650" lon="-2.7380700">
        <ele>1254.8</ele>
        <time>2020-07-13T11:05:05Z</time>
      </trkpt>
      <trkpt lat="37.3496620" lon="-2.7379210">
        <ele>1253.8</ele>
        <time>2020-07-13T11:05:07Z</time>
      </trkpt>
      <trkpt lat="37.3498510" lon="-2.7377750">
        <ele>1252.2</ele>
        <time>2020-07-13T11:05:09Z</time>
      </trkpt>
      <trkpt lat="37.3501340" lon="-2.7375480">
        <ele>1251.0</ele>
        <time>2020-07-13T11:05:12Z</time>
      </trkpt>
      <trkpt lat="37.3504880" lon="-2.7372660">
        <ele>1249.8</ele>
        <time>2020-07-13T11:05:16Z</time>
      </trkpt>
      <trkpt lat="37.3505890" lon="-2.7372070">
        <ele>1249.2</ele>
        <time>2020-07-13T11:05:17Z</time>
      </trkpt>
      <trkpt lat="37.3506850" lon="-2.7371690">
        <ele>1248.8</ele>
        <time>2020-07-13T11:05:18Z</time>
      </trkpt>
      <trkpt lat="37.3507940" lon="-2.7371500">
        <ele>1248.4</ele>
        <time>2020-07-13T11:05:19Z</time>
      </trkpt>
      <trkpt lat="37.3510020" lon="-2.7371810">
        <ele>1247.4</ele>
        <time>2020-07-13T11:05:21Z</time>
      </trkpt>
      <trkpt lat="37.3511040" lon="-2.7372110">
        <ele>1247.0</ele>
        <time>2020-07-13T11:05:22Z</time>
      </trkpt>
      <trkpt lat="37.3514060" lon="-2.7373170">
        <ele>1245.8</ele>
        <time>2020-07-13T11:05:25Z</time>
      </trkpt>
      <trkpt lat="37.3516120" lon="-2.7373760">
        <ele>1245.2</ele>
        <time>2020-07-13T11:05:27Z</time>
      </trkpt>
      <trkpt lat="37.3517010" lon="-2.7373810">
        <ele>1245.0</ele>
        <time>2020-07-13T11:05:28Z</time>
      </trkpt>
      <trkpt lat="37.3517980" lon="-2.7373640">
        <ele>1244.6</ele>
        <time>2020-07-13T11:05:29Z</time>
      </trkpt>
      <trkpt lat="37.3518830" lon="-2.7373270">
        <ele>1244.6</ele>
        <time>2020-07-13T11:05:30Z</time>
      </trkpt>
      <trkpt lat="37.3521110" lon="-2.7371360">
        <ele>1244.0</ele>
        <time>2020-07-13T11:05:33Z</time>
      </trkpt>
      <trkpt lat="37.3522670" lon="-2.7368760">
        <ele>1243.6</ele>
        <time>2020-07-13T11:05:36Z</time>
      </trkpt>
      <trkpt lat="37.3523170" lon="-2.7367830">
        <ele>1243.4</ele>
        <time>2020-07-13T11:05:37Z</time>
      </trkpt>
      <trkpt lat="37.3524130" lon="-2.7365970">
        <ele>1243.4</ele>
        <time>2020-07-13T11:05:39Z</time>
      </trkpt>
      <trkpt lat="37.3526800" lon="-2.7360980">
        <ele>1242.2</ele>
        <time>2020-07-13T11:05:44Z</time>
      </trkpt>
      <trkpt lat="37.3527350" lon="-2.7360000">
        <ele>1241.8</ele>
        <time>2020-07-13T11:05:45Z</time>
      </trkpt>
      <trkpt lat="37.3528510" lon="-2.7357890">
        <ele>1240.6</ele>
        <time>2020-07-13T11:05:47Z</time>
      </trkpt>
      <trkpt lat="37.3529650" lon="-2.7355750">
        <ele>1239.6</ele>
        <time>2020-07-13T11:05:49Z</time>
      </trkpt>
      <trkpt lat="37.3531100" lon="-2.7352530">
        <ele>1238.8</ele>
        <time>2020-07-13T11:05:52Z</time>
      </trkpt>
      <trkpt lat="37.3531450" lon="-2.7351260">
        <ele>1238.6</ele>
        <time>2020-07-13T11:05:53Z</time>
      </trkpt>
      <trkpt lat="37.3531920" lon="-2.7347420">
        <ele>1238.0</ele>
        <time>2020-07-13T11:05:56Z</time>
      </trkpt>
      <trkpt lat="37.3532040" lon="-2.7346060">
        <ele>1237.6</ele>
        <time>2020-07-13T11:05:57Z</time>
      </trkpt>
      <trkpt lat="37.3532140" lon="-2.7344830">
        <ele>1237.0</ele>
        <time>2020-07-13T11:05:58Z</time>
      </trkpt>
      <trkpt lat="37.3532340" lon="-2.7341940">
        <ele>1235.4</ele>
        <time>2020-07-13T11:06:00Z</time>
      </trkpt>
      <trkpt lat="37.3532530" lon="-2.7338970">
        <ele>1234.0</ele>
        <time>2020-07-13T11:06:02Z</time>
      </trkpt>
      <trkpt lat="37.3532650" lon="-2.7336200">
        <ele>1232.4</ele>
        <time>2020-07-13T11:06:04Z</time>
      </trkpt>
      <trkpt lat="37.3532810" lon="-2.7333300">
        <ele>1230.6</ele>
        <time>2020-07-13T11:06:06Z</time>
      </trkpt>
      <trkpt lat="37.3532960" lon="-2.7330570">
        <ele>1229.0</ele>
        <time>2020-07-13T11:06:08Z</time>
      </trkpt>
      <trkpt lat="37.3533100" lon="-2.7327880">
        <ele>1227.8</ele>
        <time>2020-07-13T11:06:10Z</time>
      </trkpt>
      <trkpt lat="37.3533410" lon="-2.7324920">
        <ele>1226.6</ele>
        <time>2020-07-13T11:06:12Z</time>
      </trkpt>
      <trkpt lat="37.3533760" lon="-2.7323570">
        <ele>1226.0</ele>
        <time>2020-07-13T11:06:13Z</time>
      </trkpt>
      <trkpt lat="37.3534280" lon="-2.7322230">
        <ele>1225.0</ele>
        <time>2020-07-13T11:06:14Z</time>
      </trkpt>
      <trkpt lat="37.3534840" lon="-2.7321050">
        <ele>1224.6</ele>
        <time>2020-07-13T11:06:15Z</time>
      </trkpt>
      <trkpt lat="37.3535480" lon="-2.7319810">
        <ele>1223.8</ele>
        <time>2020-07-13T11:06:16Z</time>
      </trkpt>
      <trkpt lat="37.3536870" lon="-2.7317180">
        <ele>1222.4</ele>
        <time>2020-07-13T11:06:18Z</time>
      </trkpt>
      <trkpt lat="37.3538230" lon="-2.7314660">
        <ele>1221.4</ele>
        <time>2020-07-13T11:06:20Z</time>
      </trkpt>
      <trkpt lat="37.3538960" lon="-2.7313320">
        <ele>1220.8</ele>
        <time>2020-07-13T11:06:21Z</time>
      </trkpt>
      <trkpt lat="37.3539600" lon="-2.7312190">
        <ele>1219.8</ele>
        <time>2020-07-13T11:06:22Z</time>
      </trkpt>
      <trkpt lat="37.3540320" lon="-2.7311010">
        <ele>1218.6</ele>
        <time>2020-07-13T11:06:23Z</time>
      </trkpt>
      <trkpt lat="37.3541070" lon="-2.7309990">
        <ele>1217.6</ele>
        <time>2020-07-13T11:06:24Z</time>
      </trkpt>
      <trkpt lat="37.3541850" lon="-2.7309250">
        <ele>1216.0</ele>
        <time>2020-07-13T11:06:25Z</time>
      </trkpt>
      <trkpt lat="37.3542810" lon="-2.7308780">
        <ele>1215.0</ele>
        <time>2020-07-13T11:06:26Z</time>
      </trkpt>
      <trkpt lat="37.3543720" lon="-2.7308720">
        <ele>1214.0</ele>
        <time>2020-07-13T11:06:27Z</time>
      </trkpt>
      <trkpt lat="37.3544580" lon="-2.7309010">
        <ele>1213.2</ele>
        <time>2020-07-13T11:06:28Z</time>
      </trkpt>
      <trkpt lat="37.3545490" lon="-2.7309690">
        <ele>1212.6</ele>
        <time>2020-07-13T11:06:29Z</time>
      </trkpt>
      <trkpt lat="37.3546140" lon="-2.7310530">
        <ele>1212.0</ele>
        <time>2020-07-13T11:06:30Z</time>
      </trkpt>
      <trkpt lat="37.3547190" lon="-2.7312770">
        <ele>1210.8</ele>
        <time>2020-07-13T11:06:32Z</time>
      </trkpt>
      <trkpt lat="37.3547620" lon="-2.7313960">
        <ele>1210.2</ele>
        <time>2020-07-13T11:06:33Z</time>
      </trkpt>
      <trkpt lat="37.3548480" lon="-2.7316280">
        <ele>1209.6</ele>
        <time>2020-07-13T11:06:35Z</time>
      </trkpt>
      <trkpt lat="37.3549620" lon="-2.7318570">
        <ele>1209.0</ele>
        <time>2020-07-13T11:06:37Z</time>
      </trkpt>
      <trkpt lat="37.3550420" lon="-2.7319350">
        <ele>1208.6</ele>
        <time>2020-07-13T11:06:38Z</time>
      </trkpt>
      <trkpt lat="37.3551390" lon="-2.7319910">
        <ele>1208.4</ele>
        <time>2020-07-13T11:06:39Z</time>
      </trkpt>
      <trkpt lat="37.3553490" lon="-2.7320390">
        <ele>1207.6</ele>
        <time>2020-07-13T11:06:41Z</time>
      </trkpt>
      <trkpt lat="37.3554560" lon="-2.7320490">
        <ele>1207.0</ele>
        <time>2020-07-13T11:06:42Z</time>
      </trkpt>
      <trkpt lat="37.3556610" lon="-2.7320680">
        <ele>1206.0</ele>
        <time>2020-07-13T11:06:44Z</time>
      </trkpt>
      <trkpt lat="37.3558690" lon="-2.7321030">
        <ele>1204.8</ele>
        <time>2020-07-13T11:06:46Z</time>
      </trkpt>
      <trkpt lat="37.3559840" lon="-2.7321340">
        <ele>1204.0</ele>
        <time>2020-07-13T11:06:47Z</time>
      </trkpt>
      <trkpt lat="37.3560860" lon="-2.7321800">
        <ele>1203.2</ele>
        <time>2020-07-13T11:06:48Z</time>
      </trkpt>
      <trkpt lat="37.3562760" lon="-2.7323340">
        <ele>1202.4</ele>
        <time>2020-07-13T11:06:50Z</time>
      </trkpt>
      <trkpt lat="37.3563720" lon="-2.7324360">
        <ele>1201.8</ele>
        <time>2020-07-13T11:06:51Z</time>
      </trkpt>
      <trkpt lat="37.3565570" lon="-2.7326410">
        <ele>1200.4</ele>
        <time>2020-07-13T11:06:53Z</time>
      </trkpt>
      <trkpt lat="37.3567430" lon="-2.7328380">
        <ele>1198.6</ele>
        <time>2020-07-13T11:06:55Z</time>
      </trkpt>
      <trkpt lat="37.3568480" lon="-2.7329350">
        <ele>1197.8</ele>
        <time>2020-07-13T11:06:56Z</time>
      </trkpt>
      <trkpt lat="37.3569490" lon="-2.7330180">
        <ele>1197.2</ele>
        <time>2020-07-13T11:06:57Z</time>
      </trkpt>
      <trkpt lat="37.3572440" lon="-2.7331990">
        <ele>1196.2</ele>
        <time>2020-07-13T11:07:00Z</time>
      </trkpt>
      <trkpt lat="37.3573470" lon="-2.7332450">
        <ele>1195.8</ele>
        <time>2020-07-13T11:07:01Z</time>
      </trkpt>
      <trkpt lat="37.3577290" lon="-2.7333590">
        <ele>1195.0</ele>
        <time>2020-07-13T11:07:05Z</time>
      </trkpt>
      <trkpt lat="37.3579210" lon="-2.7334060">
        <ele>1195.2</ele>
        <time>2020-07-13T11:07:07Z</time>
      </trkpt>
      <trkpt lat="37.3581830" lon="-2.7334730">
        <ele>1195.2</ele>
        <time>2020-07-13T11:07:10Z</time>
      </trkpt>
      <trkpt lat="37.3584580" lon="-2.7335370">
        <ele>1194.8</ele>
        <time>2020-07-13T11:07:13Z</time>
      </trkpt>
      <trkpt lat="37.3589580" lon="-2.7336680">
        <ele>1194.8</ele>
        <time>2020-07-13T11:07:19Z</time>
      </trkpt>
      <trkpt lat="37.3591170" lon="-2.7337130">
        <ele>1194.8</ele>
        <time>2020-07-13T11:07:21Z</time>
      </trkpt>
      <trkpt lat="37.3591920" lon="-2.7337310">
        <ele>1194.8</ele>
        <time>2020-07-13T11:07:22Z</time>
      </trkpt>
      <trkpt lat="37.3592750" lon="-2.7337510">
        <ele>1194.6</ele>
        <time>2020-07-13T11:07:23Z</time>
      </trkpt>
      <trkpt lat="37.3593580" lon="-2.7337730">
        <ele>1194.6</ele>
        <time>2020-07-13T11:07:24Z</time>
      </trkpt>
      <trkpt lat="37.3595200" lon="-2.7338160">
        <ele>1194.6</ele>
        <time>2020-07-13T11:07:26Z</time>
      </trkpt>
      <trkpt lat="37.3597650" lon="-2.7338800">
        <ele>1194.6</ele>
        <time>2020-07-13T11:07:29Z</time>
      </trkpt>
      <trkpt lat="37.3599270" lon="-2.7339220">
        <ele>1194.4</ele>
        <time>2020-07-13T11:07:31Z</time>
      </trkpt>
      <trkpt lat="37.3602430" lon="-2.7339960">
        <ele>1194.4</ele>
        <time>2020-07-13T11:07:35Z</time>
      </trkpt>
      <trkpt lat="37.3604930" lon="-2.7340090">
        <ele>1194.0</ele>
        <time>2020-07-13T11:07:38Z</time>
      </trkpt>
      <trkpt lat="37.3608290" lon="-2.7339520">
        <ele>1193.6</ele>
        <time>2020-07-13T11:07:42Z</time>
      </trkpt>
      <trkpt lat="37.3609130" lon="-2.7339340">
        <ele>1193.6</ele>
        <time>2020-07-13T11:07:43Z</time>
      </trkpt>
      <trkpt lat="37.3614450" lon="-2.7338180">
        <ele>1192.4</ele>
        <time>2020-07-13T11:07:49Z</time>
      </trkpt>
      <trkpt lat="37.3617310" lon="-2.7337510">
        <ele>1191.0</ele>
        <time>2020-07-13T11:07:52Z</time>
      </trkpt>
      <trkpt lat="37.3619420" lon="-2.7337020">
        <ele>1189.4</ele>
        <time>2020-07-13T11:07:54Z</time>
      </trkpt>
      <trkpt lat="37.3621570" lon="-2.7336510">
        <ele>1188.4</ele>
        <time>2020-07-13T11:07:56Z</time>
      </trkpt>
      <trkpt lat="37.3623720" lon="-2.7336010">
        <ele>1187.4</ele>
        <time>2020-07-13T11:07:58Z</time>
      </trkpt>
      <trkpt lat="37.3626060" lon="-2.7335500">
        <ele>1186.0</ele>
        <time>2020-07-13T11:08:00Z</time>
      </trkpt>
      <trkpt lat="37.3628410" lon="-2.7334990">
        <ele>1184.6</ele>
        <time>2020-07-13T11:08:02Z</time>
      </trkpt>
      <trkpt lat="37.3631590" lon="-2.7334270">
        <ele>1183.6</ele>
        <time>2020-07-13T11:08:05Z</time>
      </trkpt>
      <trkpt lat="37.3632680" lon="-2.7334020">
        <ele>1183.4</ele>
        <time>2020-07-13T11:08:06Z</time>
      </trkpt>
      <trkpt lat="37.3637510" lon="-2.7332890">
        <ele>1182.6</ele>
        <time>2020-07-13T11:08:11Z</time>
      </trkpt>
      <trkpt lat="37.3640320" lon="-2.7332210">
        <ele>1181.8</ele>
        <time>2020-07-13T11:08:14Z</time>
      </trkpt>
      <trkpt lat="37.3643060" lon="-2.7331590">
        <ele>1181.6</ele>
        <time>2020-07-13T11:08:17Z</time>
      </trkpt>
      <trkpt lat="37.3647440" lon="-2.7330010">
        <ele>1181.2</ele>
        <time>2020-07-13T11:08:22Z</time>
      </trkpt>
      <trkpt lat="37.3651820" lon="-2.7328050">
        <ele>1181.0</ele>
        <time>2020-07-13T11:08:27Z</time>
      </trkpt>
      <trkpt lat="37.3655160" lon="-2.7326480">
        <ele>1181.0</ele>
        <time>2020-07-13T11:08:31Z</time>
      </trkpt>
      <trkpt lat="37.3658570" lon="-2.7324890">
        <ele>1180.4</ele>
        <time>2020-07-13T11:08:35Z</time>
      </trkpt>
      <trkpt lat="37.3662320" lon="-2.7323090">
        <ele>1179.4</ele>
        <time>2020-07-13T11:08:39Z</time>
      </trkpt>
      <trkpt lat="37.3663170" lon="-2.7322680">
        <ele>1179.0</ele>
        <time>2020-07-13T11:08:40Z</time>
      </trkpt>
      <trkpt lat="37.3667040" lon="-2.7320920">
        <ele>1177.8</ele>
        <time>2020-07-13T11:08:44Z</time>
      </trkpt>
      <trkpt lat="37.3668940" lon="-2.7320010">
        <ele>1176.8</ele>
        <time>2020-07-13T11:08:46Z</time>
      </trkpt>
      <trkpt lat="37.3670870" lon="-2.7319010">
        <ele>1176.0</ele>
        <time>2020-07-13T11:08:48Z</time>
      </trkpt>
      <trkpt lat="37.3671770" lon="-2.7318480">
        <ele>1175.8</ele>
        <time>2020-07-13T11:08:49Z</time>
      </trkpt>
      <trkpt lat="37.3675130" lon="-2.7315870">
        <ele>1175.0</ele>
        <time>2020-07-13T11:08:53Z</time>
      </trkpt>
      <trkpt lat="37.3675890" lon="-2.7315130">
        <ele>1174.8</ele>
        <time>2020-07-13T11:08:54Z</time>
      </trkpt>
      <trkpt lat="37.3680150" lon="-2.7310900">
        <ele>1174.2</ele>
        <time>2020-07-13T11:09:00Z</time>
      </trkpt>
      <trkpt lat="37.3683600" lon="-2.7307490">
        <ele>1173.6</ele>
        <time>2020-07-13T11:09:05Z</time>
      </trkpt>
      <trkpt lat="37.3685550" lon="-2.7305110">
        <ele>1173.0</ele>
        <time>2020-07-13T11:09:08Z</time>
      </trkpt>
      <trkpt lat="37.3686140" lon="-2.7304200">
        <ele>1172.6</ele>
        <time>2020-07-13T11:09:09Z</time>
      </trkpt>
      <trkpt lat="37.3688070" lon="-2.7300470">
        <ele>1171.6</ele>
        <time>2020-07-13T11:09:13Z</time>
      </trkpt>
      <trkpt lat="37.3688490" lon="-2.7299490">
        <ele>1171.4</ele>
        <time>2020-07-13T11:09:14Z</time>
      </trkpt>
      <trkpt lat="37.3690240" lon="-2.7295040">
        <ele>1171.8</ele>
        <time>2020-07-13T11:09:19Z</time>
      </trkpt>
      <trkpt lat="37.3692780" lon="-2.7288600">
        <ele>1171.8</ele>
        <time>2020-07-13T11:09:27Z</time>
      </trkpt>
      <trkpt lat="37.3693390" lon="-2.7287040">
        <ele>1172.0</ele>
        <time>2020-07-13T11:09:29Z</time>
      </trkpt>
      <trkpt lat="37.3694000" lon="-2.7285470">
        <ele>1172.4</ele>
        <time>2020-07-13T11:09:31Z</time>
      </trkpt>
      <trkpt lat="37.3696080" lon="-2.7280250">
        <ele>1172.4</ele>
        <time>2020-07-13T11:09:37Z</time>
      </trkpt>
      <trkpt lat="37.3697220" lon="-2.7277390">
        <ele>1171.2</ele>
        <time>2020-07-13T11:09:40Z</time>
      </trkpt>
      <trkpt lat="37.3698530" lon="-2.7274120">
        <ele>1170.0</ele>
        <time>2020-07-13T11:09:43Z</time>
      </trkpt>
      <trkpt lat="37.3698920" lon="-2.7273110">
        <ele>1169.6</ele>
        <time>2020-07-13T11:09:44Z</time>
      </trkpt>
      <trkpt lat="37.3699770" lon="-2.7270970">
        <ele>1168.8</ele>
        <time>2020-07-13T11:09:46Z</time>
      </trkpt>
      <trkpt lat="37.3700680" lon="-2.7268710">
        <ele>1167.8</ele>
        <time>2020-07-13T11:09:48Z</time>
      </trkpt>
      <trkpt lat="37.3702020" lon="-2.7265410">
        <ele>1166.8</ele>
        <time>2020-07-13T11:09:51Z</time>
      </trkpt>
      <trkpt lat="37.3702430" lon="-2.7264370">
        <ele>1166.6</ele>
        <time>2020-07-13T11:09:52Z</time>
      </trkpt>
      <trkpt lat="37.3703340" lon="-2.7262000">
        <ele>1166.0</ele>
        <time>2020-07-13T11:09:54Z</time>
      </trkpt>
      <trkpt lat="37.3704250" lon="-2.7259660">
        <ele>1165.6</ele>
        <time>2020-07-13T11:09:56Z</time>
      </trkpt>
      <trkpt lat="37.3704720" lon="-2.7258490">
        <ele>1165.2</ele>
        <time>2020-07-13T11:09:57Z</time>
      </trkpt>
      <trkpt lat="37.3705710" lon="-2.7256040">
        <ele>1164.0</ele>
        <time>2020-07-13T11:09:59Z</time>
      </trkpt>
      <trkpt lat="37.3706700" lon="-2.7253560">
        <ele>1162.2</ele>
        <time>2020-07-13T11:10:01Z</time>
      </trkpt>
      <trkpt lat="37.3707190" lon="-2.7252320">
        <ele>1161.2</ele>
        <time>2020-07-13T11:10:02Z</time>
      </trkpt>
      <trkpt lat="37.3707670" lon="-2.7251050">
        <ele>1160.4</ele>
        <time>2020-07-13T11:10:03Z</time>
      </trkpt>
      <trkpt lat="37.3708130" lon="-2.7249830">
        <ele>1159.4</ele>
        <time>2020-07-13T11:10:04Z</time>
      </trkpt>
      <trkpt lat="37.3709610" lon="-2.7245970">
        <ele>1157.6</ele>
        <time>2020-07-13T11:10:07Z</time>
      </trkpt>
      <trkpt lat="37.3711020" lon="-2.7242430">
        <ele>1156.6</ele>
        <time>2020-07-13T11:10:10Z</time>
      </trkpt>
      <trkpt lat="37.3711540" lon="-2.7241070">
        <ele>1156.4</ele>
        <time>2020-07-13T11:10:11Z</time>
      </trkpt>
      <trkpt lat="37.3712440" lon="-2.7238730">
        <ele>1155.6</ele>
        <time>2020-07-13T11:10:13Z</time>
      </trkpt>
      <trkpt lat="37.3713640" lon="-2.7235570">
        <ele>1154.2</ele>
        <time>2020-07-13T11:10:16Z</time>
      </trkpt>
      <trkpt lat="37.3714070" lon="-2.7234450">
        <ele>1154.0</ele>
        <time>2020-07-13T11:10:17Z</time>
      </trkpt>
      <trkpt lat="37.3715190" lon="-2.7231550">
        <ele>1153.2</ele>
        <time>2020-07-13T11:10:20Z</time>
      </trkpt>
      <trkpt lat="37.3715570" lon="-2.7230570">
        <ele>1153.2</ele>
        <time>2020-07-13T11:10:21Z</time>
      </trkpt>
      <trkpt lat="37.3716240" lon="-2.7228780">
        <ele>1153.2</ele>
        <time>2020-07-13T11:10:23Z</time>
      </trkpt>
      <trkpt lat="37.3716580" lon="-2.7227870">
        <ele>1153.2</ele>
        <time>2020-07-13T11:10:24Z</time>
      </trkpt>
      <trkpt lat="37.3717210" lon="-2.7226150">
        <ele>1153.6</ele>
        <time>2020-07-13T11:10:26Z</time>
      </trkpt>
      <trkpt lat="37.3718980" lon="-2.7221960">
        <ele>1153.6</ele>
        <time>2020-07-13T11:10:31Z</time>
      </trkpt>
      <trkpt lat="37.3720010" lon="-2.7219300">
        <ele>1153.4</ele>
        <time>2020-07-13T11:10:34Z</time>
      </trkpt>
      <trkpt lat="37.3721860" lon="-2.7214530">
        <ele>1152.0</ele>
        <time>2020-07-13T11:10:39Z</time>
      </trkpt>
      <trkpt lat="37.3722220" lon="-2.7213640">
        <ele>1151.4</ele>
        <time>2020-07-13T11:10:40Z</time>
      </trkpt>
      <trkpt lat="37.3723090" lon="-2.7211430">
        <ele>1150.4</ele>
        <time>2020-07-13T11:10:42Z</time>
      </trkpt>
      <trkpt lat="37.3723980" lon="-2.7209330">
        <ele>1149.2</ele>
        <time>2020-07-13T11:10:44Z</time>
      </trkpt>
      <trkpt lat="37.3724510" lon="-2.7208380">
        <ele>1148.8</ele>
        <time>2020-07-13T11:10:45Z</time>
      </trkpt>
      <trkpt lat="37.3725180" lon="-2.7207440">
        <ele>1148.4</ele>
        <time>2020-07-13T11:10:46Z</time>
      </trkpt>
      <trkpt lat="37.3725990" lon="-2.7206530">
        <ele>1148.0</ele>
        <time>2020-07-13T11:10:47Z</time>
      </trkpt>
      <trkpt lat="37.3727690" lon="-2.7204930">
        <ele>1146.6</ele>
        <time>2020-07-13T11:10:49Z</time>
      </trkpt>
      <trkpt lat="37.3728520" lon="-2.7204170">
        <ele>1146.2</ele>
        <time>2020-07-13T11:10:50Z</time>
      </trkpt>
      <trkpt lat="37.3729440" lon="-2.7203300">
        <ele>1145.4</ele>
        <time>2020-07-13T11:10:51Z</time>
      </trkpt>
      <trkpt lat="37.3731240" lon="-2.7201590">
        <ele>1144.4</ele>
        <time>2020-07-13T11:10:53Z</time>
      </trkpt>
      <trkpt lat="37.3733040" lon="-2.7199930">
        <ele>1143.2</ele>
        <time>2020-07-13T11:10:55Z</time>
      </trkpt>
      <trkpt lat="37.3734980" lon="-2.7198160">
        <ele>1142.2</ele>
        <time>2020-07-13T11:10:57Z</time>
      </trkpt>
      <trkpt lat="37.3735870" lon="-2.7197320">
        <ele>1141.8</ele>
        <time>2020-07-13T11:10:58Z</time>
      </trkpt>
      <trkpt lat="37.3737770" lon="-2.7195550">
        <ele>1140.6</ele>
        <time>2020-07-13T11:11:00Z</time>
      </trkpt>
      <trkpt lat="37.3741480" lon="-2.7192030">
        <ele>1139.2</ele>
        <time>2020-07-13T11:11:04Z</time>
      </trkpt>
      <trkpt lat="37.3743320" lon="-2.7190260">
        <ele>1138.0</ele>
        <time>2020-07-13T11:11:06Z</time>
      </trkpt>
      <trkpt lat="37.3745070" lon="-2.7188560">
        <ele>1136.0</ele>
        <time>2020-07-13T11:11:08Z</time>
      </trkpt>
      <trkpt lat="37.3745950" lon="-2.7187720">
        <ele>1134.8</ele>
        <time>2020-07-13T11:11:09Z</time>
      </trkpt>
      <trkpt lat="37.3746710" lon="-2.7186980">
        <ele>1133.6</ele>
        <time>2020-07-13T11:11:10Z</time>
      </trkpt>
      <trkpt lat="37.3748540" lon="-2.7185230">
        <ele>1132.0</ele>
        <time>2020-07-13T11:11:12Z</time>
      </trkpt>
      <trkpt lat="37.3750330" lon="-2.7183820">
        <ele>1130.8</ele>
        <time>2020-07-13T11:11:14Z</time>
      </trkpt>
      <trkpt lat="37.3751270" lon="-2.7183350">
        <ele>1130.0</ele>
        <time>2020-07-13T11:11:15Z</time>
      </trkpt>
      <trkpt lat="37.3752340" lon="-2.7182990">
        <ele>1129.8</ele>
        <time>2020-07-13T11:11:16Z</time>
      </trkpt>
      <trkpt lat="37.3754620" lon="-2.7182410">
        <ele>1128.6</ele>
        <time>2020-07-13T11:11:18Z</time>
      </trkpt>
      <trkpt lat="37.3755800" lon="-2.7182140">
        <ele>1127.8</ele>
        <time>2020-07-13T11:11:19Z</time>
      </trkpt>
      <trkpt lat="37.3756900" lon="-2.7181900">
        <ele>1127.4</ele>
        <time>2020-07-13T11:11:20Z</time>
      </trkpt>
      <trkpt lat="37.3759270" lon="-2.7181380">
        <ele>1126.2</ele>
        <time>2020-07-13T11:11:22Z</time>
      </trkpt>
      <trkpt lat="37.3761650" lon="-2.7180690">
        <ele>1125.4</ele>
        <time>2020-07-13T11:11:24Z</time>
      </trkpt>
      <trkpt lat="37.3762660" lon="-2.7180150">
        <ele>1125.0</ele>
        <time>2020-07-13T11:11:25Z</time>
      </trkpt>
      <trkpt lat="37.3764580" lon="-2.7178460">
        <ele>1124.0</ele>
        <time>2020-07-13T11:11:27Z</time>
      </trkpt>
      <trkpt lat="37.3765310" lon="-2.7177650">
        <ele>1123.4</ele>
        <time>2020-07-13T11:11:28Z</time>
      </trkpt>
      <trkpt lat="37.3766200" lon="-2.7176670">
        <ele>1122.8</ele>
        <time>2020-07-13T11:11:29Z</time>
      </trkpt>
      <trkpt lat="37.3768640" lon="-2.7174590">
        <ele>1121.6</ele>
        <time>2020-07-13T11:11:32Z</time>
      </trkpt>
      <trkpt lat="37.3771250" lon="-2.7173620">
        <ele>1121.4</ele>
        <time>2020-07-13T11:11:35Z</time>
      </trkpt>
      <trkpt lat="37.3772240" lon="-2.7173450">
        <ele>1121.4</ele>
        <time>2020-07-13T11:11:36Z</time>
      </trkpt>
      <trkpt lat="37.3775160" lon="-2.7173040">
        <ele>1120.6</ele>
        <time>2020-07-13T11:11:39Z</time>
      </trkpt>
      <trkpt lat="37.3777190" lon="-2.7172800">
        <ele>1120.0</ele>
        <time>2020-07-13T11:11:41Z</time>
      </trkpt>
      <trkpt lat="37.3779250" lon="-2.7172600">
        <ele>1119.4</ele>
        <time>2020-07-13T11:11:43Z</time>
      </trkpt>
      <trkpt lat="37.3782490" lon="-2.7172140">
        <ele>1118.0</ele>
        <time>2020-07-13T11:11:46Z</time>
      </trkpt>
      <trkpt lat="37.3784760" lon="-2.7171740">
        <ele>1117.0</ele>
        <time>2020-07-13T11:11:48Z</time>
      </trkpt>
      <trkpt lat="37.3785830" lon="-2.7171440">
        <ele>1116.4</ele>
        <time>2020-07-13T11:11:49Z</time>
      </trkpt>
      <trkpt lat="37.3788830" lon="-2.7170140">
        <ele>1115.4</ele>
        <time>2020-07-13T11:11:52Z</time>
      </trkpt>
      <trkpt lat="37.3791660" lon="-2.7168590">
        <ele>1114.0</ele>
        <time>2020-07-13T11:11:55Z</time>
      </trkpt>
      <trkpt lat="37.3794470" lon="-2.7167270">
        <ele>1113.2</ele>
        <time>2020-07-13T11:11:58Z</time>
      </trkpt>
      <trkpt lat="37.3795510" lon="-2.7166990">
        <ele>1113.2</ele>
        <time>2020-07-13T11:11:59Z</time>
      </trkpt>
      <trkpt lat="37.3796500" lon="-2.7166850">
        <ele>1112.8</ele>
        <time>2020-07-13T11:12:00Z</time>
      </trkpt>
      <trkpt lat="37.3798520" lon="-2.7166840">
        <ele>1112.2</ele>
        <time>2020-07-13T11:12:02Z</time>
      </trkpt>
      <trkpt lat="37.3799560" lon="-2.7166920">
        <ele>1111.6</ele>
        <time>2020-07-13T11:12:03Z</time>
      </trkpt>
      <trkpt lat="37.3803060" lon="-2.7167170">
        <ele>1110.4</ele>
        <time>2020-07-13T11:12:07Z</time>
      </trkpt>
      <trkpt lat="37.3807550" lon="-2.7167250">
        <ele>1109.0</ele>
        <time>2020-07-13T11:12:11Z</time>
      </trkpt>
      <trkpt lat="37.3808560" lon="-2.7167150">
        <ele>1108.6</ele>
        <time>2020-07-13T11:12:12Z</time>
      </trkpt>
      <trkpt lat="37.3810620" lon="-2.7166870">
        <ele>1107.8</ele>
        <time>2020-07-13T11:12:14Z</time>
      </trkpt>
      <trkpt lat="37.3811600" lon="-2.7166730">
        <ele>1107.6</ele>
        <time>2020-07-13T11:12:15Z</time>
      </trkpt>
      <trkpt lat="37.3814840" lon="-2.7166280">
        <ele>1106.8</ele>
        <time>2020-07-13T11:12:18Z</time>
      </trkpt>
      <trkpt lat="37.3815950" lon="-2.7166140">
        <ele>1106.4</ele>
        <time>2020-07-13T11:12:19Z</time>
      </trkpt>
      <trkpt lat="37.3820590" lon="-2.7165870">
        <ele>1105.6</ele>
        <time>2020-07-13T11:12:23Z</time>
      </trkpt>
      <trkpt lat="37.3823030" lon="-2.7165850">
        <ele>1104.6</ele>
        <time>2020-07-13T11:12:25Z</time>
      </trkpt>
      <trkpt lat="37.3824370" lon="-2.7165850">
        <ele>1104.2</ele>
        <time>2020-07-13T11:12:26Z</time>
      </trkpt>
      <trkpt lat="37.3826880" lon="-2.7165790">
        <ele>1103.0</ele>
        <time>2020-07-13T11:12:28Z</time>
      </trkpt>
      <trkpt lat="37.3829490" lon="-2.7165590">
        <ele>1101.8</ele>
        <time>2020-07-13T11:12:30Z</time>
      </trkpt>
      <trkpt lat="37.3830840" lon="-2.7165360">
        <ele>1101.0</ele>
        <time>2020-07-13T11:12:31Z</time>
      </trkpt>
      <trkpt lat="37.3832040" lon="-2.7165010">
        <ele>1100.2</ele>
        <time>2020-07-13T11:12:32Z</time>
      </trkpt>
      <trkpt lat="37.3833210" lon="-2.7164560">
        <ele>1099.2</ele>
        <time>2020-07-13T11:12:33Z</time>
      </trkpt>
      <trkpt lat="37.3834270" lon="-2.7164100">
        <ele>1098.0</ele>
        <time>2020-07-13T11:12:34Z</time>
      </trkpt>
      <trkpt lat="37.3835340" lon="-2.7163580">
        <ele>1097.2</ele>
        <time>2020-07-13T11:12:35Z</time>
      </trkpt>
      <trkpt lat="37.3836470" lon="-2.7163020">
        <ele>1096.4</ele>
        <time>2020-07-13T11:12:36Z</time>
      </trkpt>
      <trkpt lat="37.3842290" lon="-2.7160020">
        <ele>1095.2</ele>
        <time>2020-07-13T11:12:42Z</time>
      </trkpt>
      <trkpt lat="37.3847570" lon="-2.7157310">
        <ele>1094.4</ele>
        <time>2020-07-13T11:12:48Z</time>
      </trkpt>
      <trkpt lat="37.3848440" lon="-2.7156900">
        <ele>1094.4</ele>
        <time>2020-07-13T11:12:49Z</time>
      </trkpt>
      <trkpt lat="37.3850150" lon="-2.7156170">
        <ele>1094.2</ele>
        <time>2020-07-13T11:12:51Z</time>
      </trkpt>
      <trkpt lat="37.3854470" lon="-2.7154600">
        <ele>1093.2</ele>
        <time>2020-07-13T11:12:56Z</time>
      </trkpt>
      <trkpt lat="37.3855390" lon="-2.7154310">
        <ele>1092.8</ele>
        <time>2020-07-13T11:12:57Z</time>
      </trkpt>
      <trkpt lat="37.3858140" lon="-2.7153400">
        <ele>1091.4</ele>
        <time>2020-07-13T11:13:00Z</time>
      </trkpt>
      <trkpt lat="37.3861040" lon="-2.7152000">
        <ele>1089.8</ele>
        <time>2020-07-13T11:13:03Z</time>
      </trkpt>
      <trkpt lat="37.3862860" lon="-2.7150850">
        <ele>1088.8</ele>
        <time>2020-07-13T11:13:05Z</time>
      </trkpt>
      <trkpt lat="37.3864830" lon="-2.7149550">
        <ele>1087.4</ele>
        <time>2020-07-13T11:13:07Z</time>
      </trkpt>
      <trkpt lat="37.3867620" lon="-2.7147700">
        <ele>1086.0</ele>
        <time>2020-07-13T11:13:10Z</time>
      </trkpt>
      <trkpt lat="37.3868740" lon="-2.7146970">
        <ele>1085.6</ele>
        <time>2020-07-13T11:13:11Z</time>
      </trkpt>
      <trkpt lat="37.3870740" lon="-2.7145680">
        <ele>1084.6</ele>
        <time>2020-07-13T11:13:13Z</time>
      </trkpt>
      <trkpt lat="37.3872770" lon="-2.7144380">
        <ele>1083.4</ele>
        <time>2020-07-13T11:13:15Z</time>
      </trkpt>
      <trkpt lat="37.3874950" lon="-2.7143170">
        <ele>1082.0</ele>
        <time>2020-07-13T11:13:17Z</time>
      </trkpt>
      <trkpt lat="37.3876050" lon="-2.7142660">
        <ele>1080.8</ele>
        <time>2020-07-13T11:13:18Z</time>
      </trkpt>
      <trkpt lat="37.3877180" lon="-2.7142230">
        <ele>1080.0</ele>
        <time>2020-07-13T11:13:19Z</time>
      </trkpt>
      <trkpt lat="37.3878270" lon="-2.7141950">
        <ele>1079.2</ele>
        <time>2020-07-13T11:13:20Z</time>
      </trkpt>
      <trkpt lat="37.3880670" lon="-2.7141840">
        <ele>1077.2</ele>
        <time>2020-07-13T11:13:22Z</time>
      </trkpt>
      <trkpt lat="37.3883210" lon="-2.7142190">
        <ele>1075.4</ele>
        <time>2020-07-13T11:13:24Z</time>
      </trkpt>
      <trkpt lat="37.3885680" lon="-2.7142670">
        <ele>1073.6</ele>
        <time>2020-07-13T11:13:26Z</time>
      </trkpt>
      <trkpt lat="37.3886940" lon="-2.7142950">
        <ele>1073.0</ele>
        <time>2020-07-13T11:13:27Z</time>
      </trkpt>
      <trkpt lat="37.3888050" lon="-2.7143210">
        <ele>1072.4</ele>
        <time>2020-07-13T11:13:28Z</time>
      </trkpt>
      <trkpt lat="37.3890630" lon="-2.7143790">
        <ele>1071.2</ele>
        <time>2020-07-13T11:13:30Z</time>
      </trkpt>
      <trkpt lat="37.3894330" lon="-2.7144580">
        <ele>1070.0</ele>
        <time>2020-07-13T11:13:33Z</time>
      </trkpt>
      <trkpt lat="37.3897870" lon="-2.7145370">
        <ele>1068.6</ele>
        <time>2020-07-13T11:13:36Z</time>
      </trkpt>
      <trkpt lat="37.3901240" lon="-2.7146160">
        <ele>1067.0</ele>
        <time>2020-07-13T11:13:39Z</time>
      </trkpt>
      <trkpt lat="37.3903440" lon="-2.7146680">
        <ele>1066.0</ele>
        <time>2020-07-13T11:13:41Z</time>
      </trkpt>
      <trkpt lat="37.3904530" lon="-2.7146940">
        <ele>1065.6</ele>
        <time>2020-07-13T11:13:42Z</time>
      </trkpt>
      <trkpt lat="37.3906780" lon="-2.7147480">
        <ele>1065.0</ele>
        <time>2020-07-13T11:13:44Z</time>
      </trkpt>
      <trkpt lat="37.3907820" lon="-2.7147730">
        <ele>1064.4</ele>
        <time>2020-07-13T11:13:45Z</time>
      </trkpt>
      <trkpt lat="37.3910120" lon="-2.7148280">
        <ele>1063.4</ele>
        <time>2020-07-13T11:13:47Z</time>
      </trkpt>
      <trkpt lat="37.3912580" lon="-2.7148860">
        <ele>1062.2</ele>
        <time>2020-07-13T11:13:49Z</time>
      </trkpt>
      <trkpt lat="37.3916100" lon="-2.7149700">
        <ele>1060.6</ele>
        <time>2020-07-13T11:13:52Z</time>
      </trkpt>
      <trkpt lat="37.3919790" lon="-2.7150560">
        <ele>1059.6</ele>
        <time>2020-07-13T11:13:55Z</time>
      </trkpt>
      <trkpt lat="37.3922350" lon="-2.7151170">
        <ele>1058.4</ele>
        <time>2020-07-13T11:13:57Z</time>
      </trkpt>
      <trkpt lat="37.3924810" lon="-2.7151730">
        <ele>1056.6</ele>
        <time>2020-07-13T11:13:59Z</time>
      </trkpt>
      <trkpt lat="37.3925950" lon="-2.7152000">
        <ele>1055.4</ele>
        <time>2020-07-13T11:14:00Z</time>
      </trkpt>
      <trkpt lat="37.3928450" lon="-2.7152590">
        <ele>1053.8</ele>
        <time>2020-07-13T11:14:02Z</time>
      </trkpt>
      <trkpt lat="37.3930770" lon="-2.7153120">
        <ele>1052.6</ele>
        <time>2020-07-13T11:14:04Z</time>
      </trkpt>
      <trkpt lat="37.3933240" lon="-2.7153690">
        <ele>1051.4</ele>
        <time>2020-07-13T11:14:06Z</time>
      </trkpt>
      <trkpt lat="37.3935630" lon="-2.7154240">
        <ele>1050.0</ele>
        <time>2020-07-13T11:14:08Z</time>
      </trkpt>
      <trkpt lat="37.3939280" lon="-2.7155120">
        <ele>1048.8</ele>
        <time>2020-07-13T11:14:11Z</time>
      </trkpt>
      <trkpt lat="37.3944040" lon="-2.7156230">
        <ele>1047.6</ele>
        <time>2020-07-13T11:14:15Z</time>
      </trkpt>
      <trkpt lat="37.3947720" lon="-2.7157110">
        <ele>1046.4</ele>
        <time>2020-07-13T11:14:18Z</time>
      </trkpt>
      <trkpt lat="37.3951320" lon="-2.7157870">
        <ele>1044.6</ele>
        <time>2020-07-13T11:14:21Z</time>
      </trkpt>
      <trkpt lat="37.3953680" lon="-2.7158400">
        <ele>1043.6</ele>
        <time>2020-07-13T11:14:23Z</time>
      </trkpt>
      <trkpt lat="37.3954820" lon="-2.7158670">
        <ele>1042.6</ele>
        <time>2020-07-13T11:14:24Z</time>
      </trkpt>
      <trkpt lat="37.3955910" lon="-2.7158920">
        <ele>1042.0</ele>
        <time>2020-07-13T11:14:25Z</time>
      </trkpt>
      <trkpt lat="37.3958240" lon="-2.7159470">
        <ele>1040.8</ele>
        <time>2020-07-13T11:14:27Z</time>
      </trkpt>
      <trkpt lat="37.3961470" lon="-2.7160250">
        <ele>1039.8</ele>
        <time>2020-07-13T11:14:30Z</time>
      </trkpt>
      <trkpt lat="37.3964780" lon="-2.7161040">
        <ele>1038.6</ele>
        <time>2020-07-13T11:14:33Z</time>
      </trkpt>
      <trkpt lat="37.3968000" lon="-2.7161800">
        <ele>1038.0</ele>
        <time>2020-07-13T11:14:36Z</time>
      </trkpt>
      <trkpt lat="37.3970150" lon="-2.7162320">
        <ele>1037.6</ele>
        <time>2020-07-13T11:14:38Z</time>
      </trkpt>
      <trkpt lat="37.3971240" lon="-2.7162570">
        <ele>1037.4</ele>
        <time>2020-07-13T11:14:39Z</time>
      </trkpt>
      <trkpt lat="37.3974580" lon="-2.7163380">
        <ele>1036.8</ele>
        <time>2020-07-13T11:14:42Z</time>
      </trkpt>
      <trkpt lat="37.3976860" lon="-2.7163930">
        <ele>1035.8</ele>
        <time>2020-07-13T11:14:44Z</time>
      </trkpt>
      <trkpt lat="37.3979020" lon="-2.7164480">
        <ele>1034.8</ele>
        <time>2020-07-13T11:14:46Z</time>
      </trkpt>
      <trkpt lat="37.3981340" lon="-2.7165020">
        <ele>1033.8</ele>
        <time>2020-07-13T11:14:48Z</time>
      </trkpt>
      <trkpt lat="37.3982450" lon="-2.7165280">
        <ele>1033.4</ele>
        <time>2020-07-13T11:14:49Z</time>
      </trkpt>
      <trkpt lat="37.3984720" lon="-2.7165750">
        <ele>1031.8</ele>
        <time>2020-07-13T11:14:51Z</time>
      </trkpt>
      <trkpt lat="37.3985780" lon="-2.7165970">
        <ele>1031.4</ele>
        <time>2020-07-13T11:14:52Z</time>
      </trkpt>
      <trkpt lat="37.3986900" lon="-2.7166220">
        <ele>1030.8</ele>
        <time>2020-07-13T11:14:53Z</time>
      </trkpt>
      <trkpt lat="37.3992330" lon="-2.7167530">
        <ele>1029.8</ele>
        <time>2020-07-13T11:14:58Z</time>
      </trkpt>
      <trkpt lat="37.3993460" lon="-2.7167800">
        <ele>1029.6</ele>
        <time>2020-07-13T11:14:59Z</time>
      </trkpt>
      <trkpt lat="37.3995590" lon="-2.7168280">
        <ele>1029.0</ele>
        <time>2020-07-13T11:15:01Z</time>
      </trkpt>
      <trkpt lat="37.3996630" lon="-2.7168540">
        <ele>1028.4</ele>
        <time>2020-07-13T11:15:02Z</time>
      </trkpt>
      <trkpt lat="37.3999660" lon="-2.7169320">
        <ele>1027.0</ele>
        <time>2020-07-13T11:15:05Z</time>
      </trkpt>
      <trkpt lat="37.4002830" lon="-2.7170060">
        <ele>1025.6</ele>
        <time>2020-07-13T11:15:08Z</time>
      </trkpt>
      <trkpt lat="37.4003890" lon="-2.7170330">
        <ele>1025.0</ele>
        <time>2020-07-13T11:15:09Z</time>
      </trkpt>
      <trkpt lat="37.4006040" lon="-2.7170840">
        <ele>1024.0</ele>
        <time>2020-07-13T11:15:11Z</time>
      </trkpt>
      <trkpt lat="37.4008190" lon="-2.7171360">
        <ele>1022.6</ele>
        <time>2020-07-13T11:15:13Z</time>
      </trkpt>
      <trkpt lat="37.4012650" lon="-2.7172370">
        <ele>1021.6</ele>
        <time>2020-07-13T11:15:17Z</time>
      </trkpt>
      <trkpt lat="37.4015930" lon="-2.7173150">
        <ele>1020.8</ele>
        <time>2020-07-13T11:15:20Z</time>
      </trkpt>
      <trkpt lat="37.4017110" lon="-2.7173440">
        <ele>1020.8</ele>
        <time>2020-07-13T11:15:21Z</time>
      </trkpt>
      <trkpt lat="37.4019290" lon="-2.7173960">
        <ele>1020.0</ele>
        <time>2020-07-13T11:15:23Z</time>
      </trkpt>
      <trkpt lat="37.4022720" lon="-2.7174760">
        <ele>1018.8</ele>
        <time>2020-07-13T11:15:26Z</time>
      </trkpt>
      <trkpt lat="37.4024960" lon="-2.7175270">
        <ele>1017.6</ele>
        <time>2020-07-13T11:15:28Z</time>
      </trkpt>
      <trkpt lat="37.4027260" lon="-2.7175790">
        <ele>1016.4</ele>
        <time>2020-07-13T11:15:30Z</time>
      </trkpt>
      <trkpt lat="37.4029610" lon="-2.7176320">
        <ele>1015.2</ele>
        <time>2020-07-13T11:15:32Z</time>
      </trkpt>
      <trkpt lat="37.4031840" lon="-2.7176820">
        <ele>1014.4</ele>
        <time>2020-07-13T11:15:34Z</time>
      </trkpt>
      <trkpt lat="37.4032960" lon="-2.7177070">
        <ele>1014.0</ele>
        <time>2020-07-13T11:15:35Z</time>
      </trkpt>
      <trkpt lat="37.4036260" lon="-2.7177820">
        <ele>1013.4</ele>
        <time>2020-07-13T11:15:38Z</time>
      </trkpt>
      <trkpt lat="37.4038730" lon="-2.7178400">
        <ele>1013.0</ele>
        <time>2020-07-13T11:15:41Z</time>
      </trkpt>
      <trkpt lat="37.4039740" lon="-2.7178630">
        <ele>1012.8</ele>
        <time>2020-07-13T11:15:42Z</time>
      </trkpt>
      <trkpt lat="37.4045720" lon="-2.7180020">
        <ele>1012.4</ele>
        <time>2020-07-13T11:15:48Z</time>
      </trkpt>
      <trkpt lat="37.4046640" lon="-2.7180240">
        <ele>1012.2</ele>
        <time>2020-07-13T11:15:49Z</time>
      </trkpt>
      <trkpt lat="37.4049380" lon="-2.7180860">
        <ele>1011.6</ele>
        <time>2020-07-13T11:15:52Z</time>
      </trkpt>
      <trkpt lat="37.4054830" lon="-2.7182090">
        <ele>1011.2</ele>
        <time>2020-07-13T11:15:58Z</time>
      </trkpt>
      <trkpt lat="37.4059400" lon="-2.7183210">
        <ele>1010.6</ele>
        <time>2020-07-13T11:16:03Z</time>
      </trkpt>
      <trkpt lat="37.4063810" lon="-2.7184300">
        <ele>1010.0</ele>
        <time>2020-07-13T11:16:08Z</time>
      </trkpt>
      <trkpt lat="37.4065560" lon="-2.7184690">
        <ele>1009.6</ele>
        <time>2020-07-13T11:16:10Z</time>
      </trkpt>
      <trkpt lat="37.4071500" lon="-2.7186010">
        <ele>1009.6</ele>
        <time>2020-07-13T11:16:17Z</time>
      </trkpt>
      <trkpt lat="37.4073220" lon="-2.7186420">
        <ele>1009.2</ele>
        <time>2020-07-13T11:16:19Z</time>
      </trkpt>
      <trkpt lat="37.4079150" lon="-2.7187830">
        <ele>1009.0</ele>
        <time>2020-07-13T11:16:26Z</time>
      </trkpt>
      <trkpt lat="37.4080030" lon="-2.7188040">
        <ele>1009.2</ele>
        <time>2020-07-13T11:16:27Z</time>
      </trkpt>
      <trkpt lat="37.4084110" lon="-2.7188980">
        <ele>1008.6</ele>
        <time>2020-07-13T11:16:32Z</time>
      </trkpt>
      <trkpt lat="37.4086680" lon="-2.7189620">
        <ele>1007.8</ele>
        <time>2020-07-13T11:16:35Z</time>
      </trkpt>
      <trkpt lat="37.4088290" lon="-2.7190020">
        <ele>1007.4</ele>
        <time>2020-07-13T11:16:37Z</time>
      </trkpt>
      <trkpt lat="37.4092950" lon="-2.7191070">
        <ele>1006.4</ele>
        <time>2020-07-13T11:16:42Z</time>
      </trkpt>
      <trkpt lat="37.4094710" lon="-2.7191480">
        <ele>1005.6</ele>
        <time>2020-07-13T11:16:44Z</time>
      </trkpt>
      <trkpt lat="37.4096400" lon="-2.7191860">
        <ele>1005.2</ele>
        <time>2020-07-13T11:16:46Z</time>
      </trkpt>
      <trkpt lat="37.4097300" lon="-2.7192060">
        <ele>1005.0</ele>
        <time>2020-07-13T11:16:47Z</time>
      </trkpt>
      <trkpt lat="37.4101900" lon="-2.7193190">
        <ele>1003.8</ele>
        <time>2020-07-13T11:16:52Z</time>
      </trkpt>
      <trkpt lat="37.4102780" lon="-2.7193380">
        <ele>1003.6</ele>
        <time>2020-07-13T11:16:53Z</time>
      </trkpt>
      <trkpt lat="37.4105540" lon="-2.7194040">
        <ele>1002.2</ele>
        <time>2020-07-13T11:16:56Z</time>
      </trkpt>
      <trkpt lat="37.4107470" lon="-2.7194470">
        <ele>1001.6</ele>
        <time>2020-07-13T11:16:58Z</time>
      </trkpt>
      <trkpt lat="37.4108350" lon="-2.7194690">
        <ele>1001.2</ele>
        <time>2020-07-13T11:16:59Z</time>
      </trkpt>
      <trkpt lat="37.4112190" lon="-2.7195590">
        <ele>1000.0</ele>
        <time>2020-07-13T11:17:03Z</time>
      </trkpt>
      <trkpt lat="37.4117840" lon="-2.7196840">
        <ele>998.8</ele>
        <time>2020-07-13T11:17:09Z</time>
      </trkpt>
      <trkpt lat="37.4121680" lon="-2.7197500">
        <ele>998.0</ele>
        <time>2020-07-13T11:17:13Z</time>
      </trkpt>
      <trkpt lat="37.4124520" lon="-2.7197870">
        <ele>997.6</ele>
        <time>2020-07-13T11:17:16Z</time>
      </trkpt>
      <trkpt lat="37.4127480" lon="-2.7198210">
        <ele>997.0</ele>
        <time>2020-07-13T11:17:19Z</time>
      </trkpt>
      <trkpt lat="37.4129360" lon="-2.7198450">
        <ele>996.6</ele>
        <time>2020-07-13T11:17:21Z</time>
      </trkpt>
      <trkpt lat="37.4131300" lon="-2.7198690">
        <ele>996.0</ele>
        <time>2020-07-13T11:17:23Z</time>
      </trkpt>
      <trkpt lat="37.4133260" lon="-2.7198920">
        <ele>995.8</ele>
        <time>2020-07-13T11:17:25Z</time>
      </trkpt>
      <trkpt lat="37.4136960" lon="-2.7199360">
        <ele>995.4</ele>
        <time>2020-07-13T11:17:29Z</time>
      </trkpt>
      <trkpt lat="37.4142650" lon="-2.7200030">
        <ele>994.4</ele>
        <time>2020-07-13T11:17:35Z</time>
      </trkpt>
      <trkpt lat="37.4146490" lon="-2.7200500">
        <ele>993.4</ele>
        <time>2020-07-13T11:17:39Z</time>
      </trkpt>
      <trkpt lat="37.4148340" lon="-2.7200620">
        <ele>992.2</ele>
        <time>2020-07-13T11:17:41Z</time>
      </trkpt>
      <trkpt lat="37.4150450" lon="-2.7200480">
        <ele>991.6</ele>
        <time>2020-07-13T11:17:43Z</time>
      </trkpt>
      <trkpt lat="37.4151450" lon="-2.7200240">
        <ele>991.4</ele>
        <time>2020-07-13T11:17:44Z</time>
      </trkpt>
      <trkpt lat="37.4152450" lon="-2.7199940">
        <ele>991.2</ele>
        <time>2020-07-13T11:17:45Z</time>
      </trkpt>
      <trkpt lat="37.4154480" lon="-2.7199250">
        <ele>990.2</ele>
        <time>2020-07-13T11:17:47Z</time>
      </trkpt>
      <trkpt lat="37.4155590" lon="-2.7198860">
        <ele>989.6</ele>
        <time>2020-07-13T11:17:48Z</time>
      </trkpt>
      <trkpt lat="37.4157660" lon="-2.7198190">
        <ele>988.2</ele>
        <time>2020-07-13T11:17:50Z</time>
      </trkpt>
      <trkpt lat="37.4159910" lon="-2.7197910">
        <ele>986.6</ele>
        <time>2020-07-13T11:17:52Z</time>
      </trkpt>
      <trkpt lat="37.4161000" lon="-2.7197990">
        <ele>986.2</ele>
        <time>2020-07-13T11:17:53Z</time>
      </trkpt>
      <trkpt lat="37.4162220" lon="-2.7198160">
        <ele>985.4</ele>
        <time>2020-07-13T11:17:54Z</time>
      </trkpt>
      <trkpt lat="37.4164530" lon="-2.7198620">
        <ele>984.0</ele>
        <time>2020-07-13T11:17:56Z</time>
      </trkpt>
      <trkpt lat="37.4167030" lon="-2.7199150">
        <ele>982.8</ele>
        <time>2020-07-13T11:17:58Z</time>
      </trkpt>
      <trkpt lat="37.4168210" lon="-2.7199380">
        <ele>981.8</ele>
        <time>2020-07-13T11:17:59Z</time>
      </trkpt>
      <trkpt lat="37.4169500" lon="-2.7199650">
        <ele>980.6</ele>
        <time>2020-07-13T11:18:00Z</time>
      </trkpt>
      <trkpt lat="37.4171990" lon="-2.7200180">
        <ele>978.8</ele>
        <time>2020-07-13T11:18:02Z</time>
      </trkpt>
      <trkpt lat="37.4173240" lon="-2.7200440">
        <ele>977.8</ele>
        <time>2020-07-13T11:18:03Z</time>
      </trkpt>
      <trkpt lat="37.4175700" lon="-2.7200980">
        <ele>976.2</ele>
        <time>2020-07-13T11:18:05Z</time>
      </trkpt>
      <trkpt lat="37.4178300" lon="-2.7201540">
        <ele>974.8</ele>
        <time>2020-07-13T11:18:07Z</time>
      </trkpt>
      <trkpt lat="37.4179570" lon="-2.7201820">
        <ele>974.2</ele>
        <time>2020-07-13T11:18:08Z</time>
      </trkpt>
      <trkpt lat="37.4180800" lon="-2.7202080">
        <ele>973.4</ele>
        <time>2020-07-13T11:18:09Z</time>
      </trkpt>
      <trkpt lat="37.4183270" lon="-2.7202610">
        <ele>971.8</ele>
        <time>2020-07-13T11:18:11Z</time>
      </trkpt>
      <trkpt lat="37.4185900" lon="-2.7203170">
        <ele>970.2</ele>
        <time>2020-07-13T11:18:13Z</time>
      </trkpt>
      <trkpt lat="37.4188350" lon="-2.7203710">
        <ele>968.4</ele>
        <time>2020-07-13T11:18:15Z</time>
      </trkpt>
      <trkpt lat="37.4193170" lon="-2.7204780">
        <ele>967.2</ele>
        <time>2020-07-13T11:18:19Z</time>
      </trkpt>
      <trkpt lat="37.4196660" lon="-2.7205550">
        <ele>966.0</ele>
        <time>2020-07-13T11:18:22Z</time>
      </trkpt>
      <trkpt lat="37.4198880" lon="-2.7206060">
        <ele>965.4</ele>
        <time>2020-07-13T11:18:24Z</time>
      </trkpt>
      <trkpt lat="37.4201070" lon="-2.7206560">
        <ele>965.0</ele>
        <time>2020-07-13T11:18:26Z</time>
      </trkpt>
      <trkpt lat="37.4202220" lon="-2.7206820">
        <ele>965.0</ele>
        <time>2020-07-13T11:18:27Z</time>
      </trkpt>
      <trkpt lat="37.4203320" lon="-2.7207070">
        <ele>964.8</ele>
        <time>2020-07-13T11:18:28Z</time>
      </trkpt>
      <trkpt lat="37.4207580" lon="-2.7207990">
        <ele>963.8</ele>
        <time>2020-07-13T11:18:32Z</time>
      </trkpt>
      <trkpt lat="37.4210570" lon="-2.7208660">
        <ele>962.6</ele>
        <time>2020-07-13T11:18:35Z</time>
      </trkpt>
      <trkpt lat="37.4211610" lon="-2.7208860">
        <ele>962.4</ele>
        <time>2020-07-13T11:18:36Z</time>
      </trkpt>
      <trkpt lat="37.4213660" lon="-2.7209250">
        <ele>962.2</ele>
        <time>2020-07-13T11:18:38Z</time>
      </trkpt>
      <trkpt lat="37.4216480" lon="-2.7209830">
        <ele>962.2</ele>
        <time>2020-07-13T11:18:41Z</time>
      </trkpt>
      <trkpt lat="37.4219450" lon="-2.7210420">
        <ele>961.6</ele>
        <time>2020-07-13T11:18:44Z</time>
      </trkpt>
      <trkpt lat="37.4221320" lon="-2.7210820">
        <ele>961.0</ele>
        <time>2020-07-13T11:18:46Z</time>
      </trkpt>
      <trkpt lat="37.4225150" lon="-2.7211650">
        <ele>960.4</ele>
        <time>2020-07-13T11:18:50Z</time>
      </trkpt>
      <trkpt lat="37.4227960" lon="-2.7212310">
        <ele>959.8</ele>
        <time>2020-07-13T11:18:53Z</time>
      </trkpt>
      <trkpt lat="37.4232660" lon="-2.7213310">
        <ele>959.4</ele>
        <time>2020-07-13T11:18:58Z</time>
      </trkpt>
      <trkpt lat="37.4233530" lon="-2.7213510">
        <ele>959.4</ele>
        <time>2020-07-13T11:18:59Z</time>
      </trkpt>
      <trkpt lat="37.4239170" lon="-2.7214460">
        <ele>958.2</ele>
        <time>2020-07-13T11:19:05Z</time>
      </trkpt>
      <trkpt lat="37.4240200" lon="-2.7214390">
        <ele>958.0</ele>
        <time>2020-07-13T11:19:06Z</time>
      </trkpt>
      <trkpt lat="37.4242290" lon="-2.7213820">
        <ele>957.0</ele>
        <time>2020-07-13T11:19:08Z</time>
      </trkpt>
      <trkpt lat="37.4243300" lon="-2.7213350">
        <ele>956.6</ele>
        <time>2020-07-13T11:19:09Z</time>
      </trkpt>
      <trkpt lat="37.4244280" lon="-2.7212740">
        <ele>956.0</ele>
        <time>2020-07-13T11:19:10Z</time>
      </trkpt>
      <trkpt lat="37.4246150" lon="-2.7211210">
        <ele>954.8</ele>
        <time>2020-07-13T11:19:12Z</time>
      </trkpt>
      <trkpt lat="37.4247090" lon="-2.7210360">
        <ele>954.2</ele>
        <time>2020-07-13T11:19:13Z</time>
      </trkpt>
      <trkpt lat="37.4248030" lon="-2.7209520">
        <ele>953.6</ele>
        <time>2020-07-13T11:19:14Z</time>
      </trkpt>
      <trkpt lat="37.4249880" lon="-2.7207810">
        <ele>952.2</ele>
        <time>2020-07-13T11:19:16Z</time>
      </trkpt>
      <trkpt lat="37.4251800" lon="-2.7206010">
        <ele>950.8</ele>
        <time>2020-07-13T11:19:18Z</time>
      </trkpt>
      <trkpt lat="37.4252760" lon="-2.7205170">
        <ele>950.0</ele>
        <time>2020-07-13T11:19:19Z</time>
      </trkpt>
      <trkpt lat="37.4253580" lon="-2.7204440">
        <ele>949.6</ele>
        <time>2020-07-13T11:19:20Z</time>
      </trkpt>
      <trkpt lat="37.4256520" lon="-2.7201810">
        <ele>948.0</ele>
        <time>2020-07-13T11:19:23Z</time>
      </trkpt>
      <trkpt lat="37.4259440" lon="-2.7199300">
        <ele>946.6</ele>
        <time>2020-07-13T11:19:26Z</time>
      </trkpt>
      <trkpt lat="37.4261420" lon="-2.7197540">
        <ele>945.2</ele>
        <time>2020-07-13T11:19:28Z</time>
      </trkpt>
      <trkpt lat="37.4262350" lon="-2.7196710">
        <ele>944.2</ele>
        <time>2020-07-13T11:19:29Z</time>
      </trkpt>
      <trkpt lat="37.4264290" lon="-2.7194980">
        <ele>942.4</ele>
        <time>2020-07-13T11:19:31Z</time>
      </trkpt>
      <trkpt lat="37.4266320" lon="-2.7193150">
        <ele>941.0</ele>
        <time>2020-07-13T11:19:33Z</time>
      </trkpt>
      <trkpt lat="37.4268210" lon="-2.7191430">
        <ele>939.6</ele>
        <time>2020-07-13T11:19:35Z</time>
      </trkpt>
      <trkpt lat="37.4270220" lon="-2.7189640">
        <ele>938.4</ele>
        <time>2020-07-13T11:19:37Z</time>
      </trkpt>
      <trkpt lat="37.4272060" lon="-2.7187990">
        <ele>937.6</ele>
        <time>2020-07-13T11:19:39Z</time>
      </trkpt>
      <trkpt lat="37.4272950" lon="-2.7187190">
        <ele>937.2</ele>
        <time>2020-07-13T11:19:40Z</time>
      </trkpt>
      <trkpt lat="37.4277190" lon="-2.7183390">
        <ele>936.2</ele>
        <time>2020-07-13T11:19:45Z</time>
      </trkpt>
      <trkpt lat="37.4277990" lon="-2.7182650">
        <ele>935.8</ele>
        <time>2020-07-13T11:19:46Z</time>
      </trkpt>
      <trkpt lat="37.4279720" lon="-2.7181020">
        <ele>935.0</ele>
        <time>2020-07-13T11:19:48Z</time>
      </trkpt>
      <trkpt lat="37.4282240" lon="-2.7178740">
        <ele>933.4</ele>
        <time>2020-07-13T11:19:51Z</time>
      </trkpt>
      <trkpt lat="37.4284030" lon="-2.7177210">
        <ele>932.4</ele>
        <time>2020-07-13T11:19:53Z</time>
      </trkpt>
      <trkpt lat="37.4285010" lon="-2.7176350">
        <ele>931.8</ele>
        <time>2020-07-13T11:19:54Z</time>
      </trkpt>
      <trkpt lat="37.4285860" lon="-2.7175560">
        <ele>931.4</ele>
        <time>2020-07-13T11:19:55Z</time>
      </trkpt>
      <trkpt lat="37.4286670" lon="-2.7174780">
        <ele>931.0</ele>
        <time>2020-07-13T11:19:56Z</time>
      </trkpt>
      <trkpt lat="37.4288450" lon="-2.7172900">
        <ele>930.0</ele>
        <time>2020-07-13T11:19:58Z</time>
      </trkpt>
      <trkpt lat="37.4289870" lon="-2.7170880">
        <ele>929.4</ele>
        <time>2020-07-13T11:20:00Z</time>
      </trkpt>
      <trkpt lat="37.4291150" lon="-2.7168680">
        <ele>928.6</ele>
        <time>2020-07-13T11:20:02Z</time>
      </trkpt>
      <trkpt lat="37.4292870" lon="-2.7165590">
        <ele>927.8</ele>
        <time>2020-07-13T11:20:05Z</time>
      </trkpt>
      <trkpt lat="37.4293440" lon="-2.7164580">
        <ele>927.8</ele>
        <time>2020-07-13T11:20:06Z</time>
      </trkpt>
      <trkpt lat="37.4294100" lon="-2.7163490">
        <ele>927.6</ele>
        <time>2020-07-13T11:20:07Z</time>
      </trkpt>
      <trkpt lat="37.4295560" lon="-2.7161590">
        <ele>926.6</ele>
        <time>2020-07-13T11:20:09Z</time>
      </trkpt>
      <trkpt lat="37.4296410" lon="-2.7160750">
        <ele>926.2</ele>
        <time>2020-07-13T11:20:10Z</time>
      </trkpt>
      <trkpt lat="37.4298310" lon="-2.7159330">
        <ele>924.8</ele>
        <time>2020-07-13T11:20:12Z</time>
      </trkpt>
      <trkpt lat="37.4300460" lon="-2.7158180">
        <ele>923.4</ele>
        <time>2020-07-13T11:20:14Z</time>
      </trkpt>
      <trkpt lat="37.4302610" lon="-2.7157340">
        <ele>922.0</ele>
        <time>2020-07-13T11:20:16Z</time>
      </trkpt>
      <trkpt lat="37.4305070" lon="-2.7156890">
        <ele>920.8</ele>
        <time>2020-07-13T11:20:18Z</time>
      </trkpt>
      <trkpt lat="37.4307500" lon="-2.7157110">
        <ele>919.4</ele>
        <time>2020-07-13T11:20:20Z</time>
      </trkpt>
      <trkpt lat="37.4308630" lon="-2.7157340">
        <ele>919.0</ele>
        <time>2020-07-13T11:20:21Z</time>
      </trkpt>
      <trkpt lat="37.4309940" lon="-2.7157630">
        <ele>918.2</ele>
        <time>2020-07-13T11:20:22Z</time>
      </trkpt>
      <trkpt lat="37.4312450" lon="-2.7158150">
        <ele>917.0</ele>
        <time>2020-07-13T11:20:24Z</time>
      </trkpt>
      <trkpt lat="37.4314840" lon="-2.7158660">
        <ele>915.6</ele>
        <time>2020-07-13T11:20:26Z</time>
      </trkpt>
      <trkpt lat="37.4317540" lon="-2.7159270">
        <ele>914.0</ele>
        <time>2020-07-13T11:20:28Z</time>
      </trkpt>
      <trkpt lat="37.4318780" lon="-2.7159530">
        <ele>913.0</ele>
        <time>2020-07-13T11:20:29Z</time>
      </trkpt>
      <trkpt lat="37.4321330" lon="-2.7160100">
        <ele>911.6</ele>
        <time>2020-07-13T11:20:31Z</time>
      </trkpt>
      <trkpt lat="37.4324030" lon="-2.7160700">
        <ele>909.8</ele>
        <time>2020-07-13T11:20:33Z</time>
      </trkpt>
      <trkpt lat="37.4326560" lon="-2.7161210">
        <ele>908.6</ele>
        <time>2020-07-13T11:20:35Z</time>
      </trkpt>
      <trkpt lat="37.4329190" lon="-2.7161680">
        <ele>907.4</ele>
        <time>2020-07-13T11:20:37Z</time>
      </trkpt>
      <trkpt lat="37.4331760" lon="-2.7162090">
        <ele>906.0</ele>
        <time>2020-07-13T11:20:39Z</time>
      </trkpt>
      <trkpt lat="37.4334160" lon="-2.7162130">
        <ele>904.6</ele>
        <time>2020-07-13T11:20:41Z</time>
      </trkpt>
      <trkpt lat="37.4335530" lon="-2.7161940">
        <ele>903.8</ele>
        <time>2020-07-13T11:20:42Z</time>
      </trkpt>
      <trkpt lat="37.4336740" lon="-2.7161680">
        <ele>903.2</ele>
        <time>2020-07-13T11:20:43Z</time>
      </trkpt>
      <trkpt lat="37.4339180" lon="-2.7161060">
        <ele>901.2</ele>
        <time>2020-07-13T11:20:45Z</time>
      </trkpt>
      <trkpt lat="37.4341630" lon="-2.7160490">
        <ele>899.4</ele>
        <time>2020-07-13T11:20:47Z</time>
      </trkpt>
      <trkpt lat="37.4342940" lon="-2.7160180">
        <ele>898.4</ele>
        <time>2020-07-13T11:20:48Z</time>
      </trkpt>
      <trkpt lat="37.4344280" lon="-2.7159850">
        <ele>897.4</ele>
        <time>2020-07-13T11:20:49Z</time>
      </trkpt>
      <trkpt lat="37.4346860" lon="-2.7159190">
        <ele>896.0</ele>
        <time>2020-07-13T11:20:51Z</time>
      </trkpt>
      <trkpt lat="37.4349540" lon="-2.7158510">
        <ele>894.0</ele>
        <time>2020-07-13T11:20:53Z</time>
      </trkpt>
      <trkpt lat="37.4352090" lon="-2.7157750">
        <ele>892.0</ele>
        <time>2020-07-13T11:20:55Z</time>
      </trkpt>
      <trkpt lat="37.4353190" lon="-2.7157330">
        <ele>891.2</ele>
        <time>2020-07-13T11:20:56Z</time>
      </trkpt>
      <trkpt lat="37.4354390" lon="-2.7156840">
        <ele>890.0</ele>
        <time>2020-07-13T11:20:57Z</time>
      </trkpt>
      <trkpt lat="37.4356600" lon="-2.7155680">
        <ele>888.4</ele>
        <time>2020-07-13T11:20:59Z</time>
      </trkpt>
      <trkpt lat="37.4358700" lon="-2.7154410">
        <ele>887.0</ele>
        <time>2020-07-13T11:21:01Z</time>
      </trkpt>
      <trkpt lat="37.4361830" lon="-2.7152280">
        <ele>885.4</ele>
        <time>2020-07-13T11:21:04Z</time>
      </trkpt>
      <trkpt lat="37.4363820" lon="-2.7150860">
        <ele>884.2</ele>
        <time>2020-07-13T11:21:06Z</time>
      </trkpt>
      <trkpt lat="37.4364940" lon="-2.7150020">
        <ele>883.4</ele>
        <time>2020-07-13T11:21:07Z</time>
      </trkpt>
      <trkpt lat="37.4365990" lon="-2.7149230">
        <ele>882.8</ele>
        <time>2020-07-13T11:21:08Z</time>
      </trkpt>
      <trkpt lat="37.4367960" lon="-2.7147850">
        <ele>881.6</ele>
        <time>2020-07-13T11:21:10Z</time>
      </trkpt>
      <trkpt lat="37.4371160" lon="-2.7145970">
        <ele>880.4</ele>
        <time>2020-07-13T11:21:13Z</time>
      </trkpt>
      <trkpt lat="37.4372280" lon="-2.7145700">
        <ele>879.8</ele>
        <time>2020-07-13T11:21:14Z</time>
      </trkpt>
      <trkpt lat="37.4373510" lon="-2.7145650">
        <ele>879.2</ele>
        <time>2020-07-13T11:21:15Z</time>
      </trkpt>
      <trkpt lat="37.4375770" lon="-2.7146030">
        <ele>877.6</ele>
        <time>2020-07-13T11:21:17Z</time>
      </trkpt>
      <trkpt lat="37.4377870" lon="-2.7146870">
        <ele>876.0</ele>
        <time>2020-07-13T11:21:19Z</time>
      </trkpt>
      <trkpt lat="37.4378860" lon="-2.7147470">
        <ele>875.2</ele>
        <time>2020-07-13T11:21:20Z</time>
      </trkpt>
      <trkpt lat="37.4379770" lon="-2.7148180">
        <ele>874.8</ele>
        <time>2020-07-13T11:21:21Z</time>
      </trkpt>
      <trkpt lat="37.4381480" lon="-2.7149940">
        <ele>873.6</ele>
        <time>2020-07-13T11:21:23Z</time>
      </trkpt>
      <trkpt lat="37.4382940" lon="-2.7152080">
        <ele>872.2</ele>
        <time>2020-07-13T11:21:25Z</time>
      </trkpt>
      <trkpt lat="37.4383530" lon="-2.7153120">
        <ele>871.6</ele>
        <time>2020-07-13T11:21:26Z</time>
      </trkpt>
      <trkpt lat="37.4384150" lon="-2.7154310">
        <ele>871.4</ele>
        <time>2020-07-13T11:21:27Z</time>
      </trkpt>
      <trkpt lat="37.4384710" lon="-2.7155450">
        <ele>871.0</ele>
        <time>2020-07-13T11:21:28Z</time>
      </trkpt>
      <trkpt lat="37.4385800" lon="-2.7157690">
        <ele>870.8</ele>
        <time>2020-07-13T11:21:30Z</time>
      </trkpt>
      <trkpt lat="37.4386700" lon="-2.7159550">
        <ele>870.8</ele>
        <time>2020-07-13T11:21:32Z</time>
      </trkpt>
      <trkpt lat="37.4388440" lon="-2.7163080">
        <ele>870.2</ele>
        <time>2020-07-13T11:21:35Z</time>
      </trkpt>
      <trkpt lat="37.4390180" lon="-2.7166170">
        <ele>869.8</ele>
        <time>2020-07-13T11:21:38Z</time>
      </trkpt>
      <trkpt lat="37.4391890" lon="-2.7169170">
        <ele>869.2</ele>
        <time>2020-07-13T11:21:41Z</time>
      </trkpt>
      <trkpt lat="37.4393660" lon="-2.7172080">
        <ele>868.8</ele>
        <time>2020-07-13T11:21:44Z</time>
      </trkpt>
      <trkpt lat="37.4394820" lon="-2.7174020">
        <ele>868.6</ele>
        <time>2020-07-13T11:21:46Z</time>
      </trkpt>
      <trkpt lat="37.4397160" lon="-2.7177790">
        <ele>868.0</ele>
        <time>2020-07-13T11:21:50Z</time>
      </trkpt>
      <trkpt lat="37.4398380" lon="-2.7179400">
        <ele>867.8</ele>
        <time>2020-07-13T11:21:52Z</time>
      </trkpt>
      <trkpt lat="37.4399700" lon="-2.7180850">
        <ele>867.6</ele>
        <time>2020-07-13T11:21:54Z</time>
      </trkpt>
      <trkpt lat="37.4401800" lon="-2.7182770">
        <ele>868.0</ele>
        <time>2020-07-13T11:21:57Z</time>
      </trkpt>
      <trkpt lat="37.4403900" lon="-2.7184580">
        <ele>868.2</ele>
        <time>2020-07-13T11:22:00Z</time>
      </trkpt>
      <trkpt lat="37.4405330" lon="-2.7185780">
        <ele>868.2</ele>
        <time>2020-07-13T11:22:02Z</time>
      </trkpt>
      <trkpt lat="37.4407410" lon="-2.7187550">
        <ele>868.2</ele>
        <time>2020-07-13T11:22:05Z</time>
      </trkpt>
      <trkpt lat="37.4408160" lon="-2.7188150">
        <ele>868.2</ele>
        <time>2020-07-13T11:22:06Z</time>
      </trkpt>
      <trkpt lat="37.4410470" lon="-2.7190010">
        <ele>868.0</ele>
        <time>2020-07-13T11:22:09Z</time>
      </trkpt>
      <trkpt lat="37.4414210" lon="-2.7193100">
        <ele>867.8</ele>
        <time>2020-07-13T11:22:14Z</time>
      </trkpt>
      <trkpt lat="37.4414970" lon="-2.7193700">
        <ele>867.6</ele>
        <time>2020-07-13T11:22:15Z</time>
      </trkpt>
      <trkpt lat="37.4417770" lon="-2.7196280">
        <ele>867.4</ele>
        <time>2020-07-13T11:22:19Z</time>
      </trkpt>
      <trkpt lat="37.4418800" lon="-2.7197900">
        <ele>867.4</ele>
        <time>2020-07-13T11:22:21Z</time>
      </trkpt>
      <trkpt lat="37.4421960" lon="-2.7204440">
        <ele>866.6</ele>
        <time>2020-07-13T11:22:28Z</time>
      </trkpt>
      <trkpt lat="37.4422380" lon="-2.7205280">
        <ele>866.6</ele>
        <time>2020-07-13T11:22:29Z</time>
      </trkpt>
      <trkpt lat="37.4424950" lon="-2.7210720">
        <ele>866.8</ele>
        <time>2020-07-13T11:22:35Z</time>
      </trkpt>
      <trkpt lat="37.4427950" lon="-2.7216460">
        <ele>866.8</ele>
        <time>2020-07-13T11:22:42Z</time>
      </trkpt>
      <trkpt lat="37.4428330" lon="-2.7217080">
        <ele>866.8</ele>
        <time>2020-07-13T11:22:43Z</time>
      </trkpt>
      <trkpt lat="37.4429580" lon="-2.7218630">
        <ele>866.8</ele>
        <time>2020-07-13T11:22:46Z</time>
      </trkpt>
      <trkpt lat="37.4430060" lon="-2.7219010">
        <ele>866.8</ele>
        <time>2020-07-13T11:22:47Z</time>
      </trkpt>
      <trkpt lat="37.4430540" lon="-2.7219190">
        <ele>866.8</ele>
        <time>2020-07-13T11:22:48Z</time>
      </trkpt>
      <trkpt lat="37.4432000" lon="-2.7218630">
        <ele>866.2</ele>
        <time>2020-07-13T11:22:51Z</time>
      </trkpt>
      <trkpt lat="37.4432580" lon="-2.7218250">
        <ele>866.2</ele>
        <time>2020-07-13T11:22:52Z</time>
      </trkpt>
      <trkpt lat="37.4434900" lon="-2.7216490">
        <ele>865.6</ele>
        <time>2020-07-13T11:22:56Z</time>
      </trkpt>
      <trkpt lat="37.4435600" lon="-2.7215930">
        <ele>865.4</ele>
        <time>2020-07-13T11:22:57Z</time>
      </trkpt>
      <trkpt lat="37.4438820" lon="-2.7213220">
        <ele>864.6</ele>
        <time>2020-07-13T11:23:02Z</time>
      </trkpt>
      <trkpt lat="37.4439360" lon="-2.7212740">
        <ele>864.4</ele>
        <time>2020-07-13T11:23:03Z</time>
      </trkpt>
      <trkpt lat="37.4439830" lon="-2.7212270">
        <ele>864.2</ele>
        <time>2020-07-13T11:23:04Z</time>
      </trkpt>
      <trkpt lat="37.4440640" lon="-2.7211520">
        <ele>863.8</ele>
        <time>2020-07-13T11:23:06Z</time>
      </trkpt>
      <trkpt lat="37.4441020" lon="-2.7211280">
        <ele>863.8</ele>
        <time>2020-07-13T11:23:07Z</time>
      </trkpt>
      <trkpt lat="37.4441400" lon="-2.7211090">
        <ele>863.4</ele>
        <time>2020-07-13T11:23:09Z</time>
      </trkpt>
      <trkpt lat="37.4441350" lon="-2.7211110">
        <ele>863.0</ele>
        <time>2020-07-13T11:23:10Z</time>
      </trkpt>
      <trkpt lat="37.4441440" lon="-2.7211080">
        <ele>862.8</ele>
        <time>2020-07-13T11:23:11Z</time>
      </trkpt>
      <trkpt lat="37.4441680" lon="-2.7210780">
        <ele>862.2</ele>
        <time>2020-07-13T11:23:38Z</time>
      </trkpt>
      <trkpt lat="37.4441870" lon="-2.7210790">
        <ele>862.0</ele>
        <time>2020-07-13T11:23:39Z</time>
      </trkpt>
      <trkpt lat="37.4442050" lon="-2.7210810">
        <ele>862.0</ele>
        <time>2020-07-13T11:23:40Z</time>
      </trkpt>
      <trkpt lat="37.4442270" lon="-2.7211060">
        <ele>862.0</ele>
        <time>2020-07-13T11:23:41Z</time>
      </trkpt>
      <trkpt lat="37.4442760" lon="-2.7211650">
        <ele>862.2</ele>
        <time>2020-07-13T11:23:43Z</time>
      </trkpt>
      <trkpt lat="37.4442990" lon="-2.7212090">
        <ele>862.0</ele>
        <time>2020-07-13T11:23:44Z</time>
      </trkpt>
      <trkpt lat="37.4443470" lon="-2.7213110">
        <ele>862.2</ele>
        <time>2020-07-13T11:23:46Z</time>
      </trkpt>
      <trkpt lat="37.4444550" lon="-2.7214860">
        <ele>862.2</ele>
        <time>2020-07-13T11:23:49Z</time>
      </trkpt>
      <trkpt lat="37.4445340" lon="-2.7216190">
        <ele>862.4</ele>
        <time>2020-07-13T11:23:51Z</time>
      </trkpt>
      <trkpt lat="37.4446040" lon="-2.7217730">
        <ele>862.2</ele>
        <time>2020-07-13T11:23:53Z</time>
      </trkpt>
      <trkpt lat="37.4446700" lon="-2.7219280">
        <ele>862.4</ele>
        <time>2020-07-13T11:23:55Z</time>
      </trkpt>
      <trkpt lat="37.4448460" lon="-2.7223660">
        <ele>862.6</ele>
        <time>2020-07-13T11:24:01Z</time>
      </trkpt>
      <trkpt lat="37.4450030" lon="-2.7227760">
        <ele>862.4</ele>
        <time>2020-07-13T11:24:06Z</time>
      </trkpt>
      <trkpt lat="37.4450700" lon="-2.7229550">
        <ele>862.4</ele>
        <time>2020-07-13T11:24:08Z</time>
      </trkpt>
      <trkpt lat="37.4451740" lon="-2.7232050">
        <ele>862.4</ele>
        <time>2020-07-13T11:24:11Z</time>
      </trkpt>
      <trkpt lat="37.4454130" lon="-2.7237420">
        <ele>862.0</ele>
        <time>2020-07-13T11:24:17Z</time>
      </trkpt>
      <trkpt lat="37.4457090" lon="-2.7243820">
        <ele>861.2</ele>
        <time>2020-07-13T11:24:24Z</time>
      </trkpt>
      <trkpt lat="37.4458340" lon="-2.7246580">
        <ele>861.0</ele>
        <time>2020-07-13T11:24:27Z</time>
      </trkpt>
      <trkpt lat="37.4459180" lon="-2.7248330">
        <ele>861.0</ele>
        <time>2020-07-13T11:24:29Z</time>
      </trkpt>
      <trkpt lat="37.4461390" lon="-2.7252860">
        <ele>860.6</ele>
        <time>2020-07-13T11:24:34Z</time>
      </trkpt>
      <trkpt lat="37.4462720" lon="-2.7255590">
        <ele>860.0</ele>
        <time>2020-07-13T11:24:37Z</time>
      </trkpt>
      <trkpt lat="37.4463660" lon="-2.7257520">
        <ele>859.8</ele>
        <time>2020-07-13T11:24:39Z</time>
      </trkpt>
      <trkpt lat="37.4464080" lon="-2.7258370">
        <ele>859.2</ele>
        <time>2020-07-13T11:24:43Z</time>
      </trkpt>
      <trkpt lat="37.4464500" lon="-2.7259230">
        <ele>858.8</ele>
        <time>2020-07-13T11:24:44Z</time>
      </trkpt>
      <trkpt lat="37.4468690" lon="-2.7267780">
        <ele>857.8</ele>
        <time>2020-07-13T11:24:49Z</time>
      </trkpt>
      <trkpt lat="37.4469150" lon="-2.7268680">
        <ele>857.8</ele>
        <time>2020-07-13T11:24:50Z</time>
      </trkpt>
      <trkpt lat="37.4472380" lon="-2.7275110">
        <ele>857.0</ele>
        <time>2020-07-13T11:24:57Z</time>
      </trkpt>
      <trkpt lat="37.4474120" lon="-2.7278680">
        <ele>856.8</ele>
        <time>2020-07-13T11:25:01Z</time>
      </trkpt>
      <trkpt lat="37.4477390" lon="-2.7284860">
        <ele>856.8</ele>
        <time>2020-07-13T11:25:08Z</time>
      </trkpt>
      <trkpt lat="37.4478750" lon="-2.7287120">
        <ele>857.0</ele>
        <time>2020-07-13T11:25:11Z</time>
      </trkpt>
      <trkpt lat="37.4481330" lon="-2.7291400">
        <ele>858.0</ele>
        <time>2020-07-13T11:25:17Z</time>
      </trkpt>
      <trkpt lat="37.4482150" lon="-2.7292770">
        <ele>858.6</ele>
        <time>2020-07-13T11:25:19Z</time>
      </trkpt>
      <trkpt lat="37.4482880" lon="-2.7294040">
        <ele>859.2</ele>
        <time>2020-07-13T11:25:21Z</time>
      </trkpt>
      <trkpt lat="37.4484000" lon="-2.7295900">
        <ele>860.0</ele>
        <time>2020-07-13T11:25:24Z</time>
      </trkpt>
      <trkpt lat="37.4484350" lon="-2.7296470">
        <ele>860.2</ele>
        <time>2020-07-13T11:25:25Z</time>
      </trkpt>
      <trkpt lat="37.4485440" lon="-2.7298210">
        <ele>861.2</ele>
        <time>2020-07-13T11:25:28Z</time>
      </trkpt>
      <trkpt lat="37.4485790" lon="-2.7298730">
        <ele>861.4</ele>
        <time>2020-07-13T11:25:29Z</time>
      </trkpt>
      <trkpt lat="37.4486920" lon="-2.7300450">
        <ele>862.2</ele>
        <time>2020-07-13T11:25:32Z</time>
      </trkpt>
      <trkpt lat="37.4487650" lon="-2.7301530">
        <ele>862.6</ele>
        <time>2020-07-13T11:25:34Z</time>
      </trkpt>
      <trkpt lat="37.4488790" lon="-2.7303130">
        <ele>863.8</ele>
        <time>2020-07-13T11:25:37Z</time>
      </trkpt>
      <trkpt lat="37.4489940" lon="-2.7304740">
        <ele>865.0</ele>
        <time>2020-07-13T11:25:40Z</time>
      </trkpt>
      <trkpt lat="37.4491120" lon="-2.7306360">
        <ele>866.0</ele>
        <time>2020-07-13T11:25:43Z</time>
      </trkpt>
      <trkpt lat="37.4492660" lon="-2.7308460">
        <ele>867.4</ele>
        <time>2020-07-13T11:25:47Z</time>
      </trkpt>
      <trkpt lat="37.4493110" lon="-2.7309020">
        <ele>867.6</ele>
        <time>2020-07-13T11:25:48Z</time>
      </trkpt>
      <trkpt lat="37.4493900" lon="-2.7309980">
        <ele>868.4</ele>
        <time>2020-07-13T11:25:50Z</time>
      </trkpt>
      <trkpt lat="37.4495840" lon="-2.7312510">
        <ele>869.4</ele>
        <time>2020-07-13T11:25:55Z</time>
      </trkpt>
      <trkpt lat="37.4496620" lon="-2.7313450">
        <ele>869.6</ele>
        <time>2020-07-13T11:25:57Z</time>
      </trkpt>
      <trkpt lat="37.4498110" lon="-2.7315390">
        <ele>870.6</ele>
        <time>2020-07-13T11:26:01Z</time>
      </trkpt>
      <trkpt lat="37.4500040" lon="-2.7317850">
        <ele>871.4</ele>
        <time>2020-07-13T11:26:06Z</time>
      </trkpt>
      <trkpt lat="37.4500840" lon="-2.7318860">
        <ele>871.6</ele>
        <time>2020-07-13T11:26:08Z</time>
      </trkpt>
      <trkpt lat="37.4504450" lon="-2.7323480">
        <ele>872.2</ele>
        <time>2020-07-13T11:26:17Z</time>
      </trkpt>
      <trkpt lat="37.4508240" lon="-2.7328480">
        <ele>872.0</ele>
        <time>2020-07-13T11:26:26Z</time>
      </trkpt>
      <trkpt lat="37.4509540" lon="-2.7330140">
        <ele>872.0</ele>
        <time>2020-07-13T11:26:29Z</time>
      </trkpt>
      <trkpt lat="37.4511590" lon="-2.7332830">
        <ele>872.0</ele>
        <time>2020-07-13T11:26:34Z</time>
      </trkpt>
      <trkpt lat="37.4513190" lon="-2.7334480">
        <ele>872.0</ele>
        <time>2020-07-13T11:26:38Z</time>
      </trkpt>
      <trkpt lat="37.4514150" lon="-2.7334650">
        <ele>872.2</ele>
        <time>2020-07-13T11:26:40Z</time>
      </trkpt>
      <trkpt lat="37.4515030" lon="-2.7334360">
        <ele>872.2</ele>
        <time>2020-07-13T11:26:42Z</time>
      </trkpt>
      <trkpt lat="37.4515810" lon="-2.7333790">
        <ele>872.0</ele>
        <time>2020-07-13T11:26:44Z</time>
      </trkpt>
      <trkpt lat="37.4516380" lon="-2.7333010">
        <ele>872.0</ele>
        <time>2020-07-13T11:26:46Z</time>
      </trkpt>
      <trkpt lat="37.4516550" lon="-2.7332110">
        <ele>872.0</ele>
        <time>2020-07-13T11:26:48Z</time>
      </trkpt>
      <trkpt lat="37.4516550" lon="-2.7331810">
        <ele>872.2</ele>
        <time>2020-07-13T11:26:49Z</time>
      </trkpt>
      <trkpt lat="37.4516550" lon="-2.7331770">
        <ele>872.2</ele>
        <time>2020-07-13T11:26:50Z</time>
      </trkpt>
      <trkpt lat="37.4516530" lon="-2.7331830">
        <ele>872.6</ele>
        <time>2020-07-13T11:26:52Z</time>
      </trkpt>
      <trkpt lat="37.4517120" lon="-2.7331940">
        <ele>872.8</ele>
        <time>2020-07-13T11:39:57Z</time>
      </trkpt>
      <trkpt lat="37.4517090" lon="-2.7332100">
        <ele>872.6</ele>
        <time>2020-07-13T11:39:58Z</time>
      </trkpt>
      <trkpt lat="37.4517120" lon="-2.7332530">
        <ele>872.6</ele>
        <time>2020-07-13T11:40:00Z</time>
      </trkpt>
      <trkpt lat="37.4517910" lon="-2.7333480">
        <ele>872.6</ele>
        <time>2020-07-13T11:40:04Z</time>
      </trkpt>
      <trkpt lat="37.4518770" lon="-2.7334420">
        <ele>872.6</ele>
        <time>2020-07-13T11:40:07Z</time>
      </trkpt>
      <trkpt lat="37.4519470" lon="-2.7335070">
        <ele>872.6</ele>
        <time>2020-07-13T11:40:09Z</time>
      </trkpt>
      <trkpt lat="37.4519790" lon="-2.7335510">
        <ele>872.6</ele>
        <time>2020-07-13T11:40:10Z</time>
      </trkpt>
      <trkpt lat="37.4520280" lon="-2.7336520">
        <ele>872.4</ele>
        <time>2020-07-13T11:40:12Z</time>
      </trkpt>
      <trkpt lat="37.4520430" lon="-2.7337070">
        <ele>872.6</ele>
        <time>2020-07-13T11:40:13Z</time>
      </trkpt>
      <trkpt lat="37.4520450" lon="-2.7339820">
        <ele>873.0</ele>
        <time>2020-07-13T11:40:18Z</time>
      </trkpt>
      <trkpt lat="37.4520380" lon="-2.7340330">
        <ele>873.0</ele>
        <time>2020-07-13T11:40:19Z</time>
      </trkpt>
      <trkpt lat="37.4520120" lon="-2.7342310">
        <ele>873.0</ele>
        <time>2020-07-13T11:40:23Z</time>
      </trkpt>
      <trkpt lat="37.4520300" lon="-2.7343370">
        <ele>872.8</ele>
        <time>2020-07-13T11:40:25Z</time>
      </trkpt>
      <trkpt lat="37.4521280" lon="-2.7344810">
        <ele>872.8</ele>
        <time>2020-07-13T11:40:28Z</time>
      </trkpt>
      <trkpt lat="37.4522760" lon="-2.7346920">
        <ele>872.8</ele>
        <time>2020-07-13T11:40:32Z</time>
      </trkpt>
      <trkpt lat="37.4523940" lon="-2.7348520">
        <ele>873.0</ele>
        <time>2020-07-13T11:40:35Z</time>
      </trkpt>
      <trkpt lat="37.4527460" lon="-2.7353940">
        <ele>872.8</ele>
        <time>2020-07-13T11:40:44Z</time>
      </trkpt>
      <trkpt lat="37.4528650" lon="-2.7355700">
        <ele>872.8</ele>
        <time>2020-07-13T11:40:47Z</time>
      </trkpt>
      <trkpt lat="37.4531660" lon="-2.7359920">
        <ele>872.8</ele>
        <time>2020-07-13T11:40:54Z</time>
      </trkpt>
      <trkpt lat="37.4533290" lon="-2.7362240">
        <ele>872.8</ele>
        <time>2020-07-13T11:40:58Z</time>
      </trkpt>
      <trkpt lat="37.4537040" lon="-2.7367150">
        <ele>872.6</ele>
        <time>2020-07-13T11:41:07Z</time>
      </trkpt>
      <trkpt lat="37.4538820" lon="-2.7367360">
        <ele>872.6</ele>
        <time>2020-07-13T11:41:10Z</time>
      </trkpt>
      <trkpt lat="37.4541030" lon="-2.7368840">
        <ele>872.6</ele>
        <time>2020-07-13T11:41:14Z</time>
      </trkpt>
      <trkpt lat="37.4541510" lon="-2.7371160">
        <ele>872.8</ele>
        <time>2020-07-13T11:41:17Z</time>
      </trkpt>
      <trkpt lat="37.4541530" lon="-2.7372940">
        <ele>872.8</ele>
        <time>2020-07-13T11:41:19Z</time>
      </trkpt>
      <trkpt lat="37.4541680" lon="-2.7373830">
        <ele>872.8</ele>
        <time>2020-07-13T11:41:20Z</time>
      </trkpt>
      <trkpt lat="37.4542000" lon="-2.7374530">
        <ele>872.8</ele>
        <time>2020-07-13T11:41:21Z</time>
      </trkpt>
      <trkpt lat="37.4543800" lon="-2.7377310">
        <ele>872.4</ele>
        <time>2020-07-13T11:41:25Z</time>
      </trkpt>
      <trkpt lat="37.4546210" lon="-2.7380700">
        <ele>872.2</ele>
        <time>2020-07-13T11:41:30Z</time>
      </trkpt>
      <trkpt lat="37.4549170" lon="-2.7384920">
        <ele>872.0</ele>
        <time>2020-07-13T11:41:36Z</time>
      </trkpt>
      <trkpt lat="37.4552890" lon="-2.7390030">
        <ele>871.8</ele>
        <time>2020-07-13T11:41:43Z</time>
      </trkpt>
      <trkpt lat="37.4553430" lon="-2.7390760">
        <ele>871.6</ele>
        <time>2020-07-13T11:41:44Z</time>
      </trkpt>
      <trkpt lat="37.4555020" lon="-2.7392960">
        <ele>871.8</ele>
        <time>2020-07-13T11:41:47Z</time>
      </trkpt>
      <trkpt lat="37.4558960" lon="-2.7398400">
        <ele>871.6</ele>
        <time>2020-07-13T11:41:54Z</time>
      </trkpt>
      <trkpt lat="37.4562470" lon="-2.7402830">
        <ele>871.2</ele>
        <time>2020-07-13T11:42:00Z</time>
      </trkpt>
      <trkpt lat="37.4566600" lon="-2.7407730">
        <ele>871.0</ele>
        <time>2020-07-13T11:42:07Z</time>
      </trkpt>
      <trkpt lat="37.4569970" lon="-2.7411380">
        <ele>871.0</ele>
        <time>2020-07-13T11:42:12Z</time>
      </trkpt>
      <trkpt lat="37.4574390" lon="-2.7416150">
        <ele>871.0</ele>
        <time>2020-07-13T11:42:19Z</time>
      </trkpt>
      <trkpt lat="37.4574930" lon="-2.7416720">
        <ele>870.8</ele>
        <time>2020-07-13T11:42:25Z</time>
      </trkpt>
      <trkpt lat="37.4575460" lon="-2.7417290">
        <ele>870.6</ele>
        <time>2020-07-13T11:42:26Z</time>
      </trkpt>
      <trkpt lat="37.4582940" lon="-2.7425280">
        <ele>870.0</ele>
        <time>2020-07-13T11:42:33Z</time>
      </trkpt>
      <trkpt lat="37.4586750" lon="-2.7429330">
        <ele>869.8</ele>
        <time>2020-07-13T11:42:39Z</time>
      </trkpt>
      <trkpt lat="37.4589280" lon="-2.7432040">
        <ele>869.6</ele>
        <time>2020-07-13T11:42:43Z</time>
      </trkpt>
      <trkpt lat="37.4593840" lon="-2.7436700">
        <ele>869.0</ele>
        <time>2020-07-13T11:42:50Z</time>
      </trkpt>
      <trkpt lat="37.4595190" lon="-2.7438010">
        <ele>868.8</ele>
        <time>2020-07-13T11:42:52Z</time>
      </trkpt>
      <trkpt lat="37.4599160" lon="-2.7442040">
        <ele>868.6</ele>
        <time>2020-07-13T11:42:58Z</time>
      </trkpt>
      <trkpt lat="37.4602540" lon="-2.7445630">
        <ele>868.2</ele>
        <time>2020-07-13T11:43:03Z</time>
      </trkpt>
      <trkpt lat="37.4607140" lon="-2.7450540">
        <ele>868.0</ele>
        <time>2020-07-13T11:43:10Z</time>
      </trkpt>
      <trkpt lat="37.4611100" lon="-2.7454870">
        <ele>867.6</ele>
        <time>2020-07-13T11:43:16Z</time>
      </trkpt>
      <trkpt lat="37.4613150" lon="-2.7457070">
        <ele>867.4</ele>
        <time>2020-07-13T11:43:19Z</time>
      </trkpt>
      <trkpt lat="37.4617680" lon="-2.7462040">
        <ele>867.0</ele>
        <time>2020-07-13T11:43:26Z</time>
      </trkpt>
      <trkpt lat="37.4619000" lon="-2.7463590">
        <ele>866.8</ele>
        <time>2020-07-13T11:43:28Z</time>
      </trkpt>
      <trkpt lat="37.4622840" lon="-2.7467990">
        <ele>866.4</ele>
        <time>2020-07-13T11:43:34Z</time>
      </trkpt>
      <trkpt lat="37.4626100" lon="-2.7471430">
        <ele>866.2</ele>
        <time>2020-07-13T11:43:39Z</time>
      </trkpt>
      <trkpt lat="37.4630630" lon="-2.7476120">
        <ele>866.0</ele>
        <time>2020-07-13T11:43:46Z</time>
      </trkpt>
      <trkpt lat="37.4632550" lon="-2.7478360">
        <ele>866.0</ele>
        <time>2020-07-13T11:43:49Z</time>
      </trkpt>
      <trkpt lat="37.4636630" lon="-2.7483720">
        <ele>865.6</ele>
        <time>2020-07-13T11:43:56Z</time>
      </trkpt>
      <trkpt lat="37.4637240" lon="-2.7484510">
        <ele>865.4</ele>
        <time>2020-07-13T11:43:57Z</time>
      </trkpt>
      <trkpt lat="37.4641330" lon="-2.7489960">
        <ele>865.2</ele>
        <time>2020-07-13T11:44:04Z</time>
      </trkpt>
      <trkpt lat="37.4642370" lon="-2.7491370">
        <ele>865.2</ele>
        <time>2020-07-13T11:44:06Z</time>
      </trkpt>
      <trkpt lat="37.4646410" lon="-2.7496720">
        <ele>865.0</ele>
        <time>2020-07-13T11:44:13Z</time>
      </trkpt>
      <trkpt lat="37.4649160" lon="-2.7500600">
        <ele>865.2</ele>
        <time>2020-07-13T11:44:18Z</time>
      </trkpt>
      <trkpt lat="37.4651850" lon="-2.7504520">
        <ele>865.2</ele>
        <time>2020-07-13T11:44:23Z</time>
      </trkpt>
      <trkpt lat="37.4654070" lon="-2.7507610">
        <ele>865.2</ele>
        <time>2020-07-13T11:44:27Z</time>
      </trkpt>
      <trkpt lat="37.4657920" lon="-2.7512790">
        <ele>865.4</ele>
        <time>2020-07-13T11:44:34Z</time>
      </trkpt>
      <trkpt lat="37.4660090" lon="-2.7515680">
        <ele>865.4</ele>
        <time>2020-07-13T11:44:38Z</time>
      </trkpt>
      <trkpt lat="37.4663790" lon="-2.7520750">
        <ele>865.8</ele>
        <time>2020-07-13T11:44:45Z</time>
      </trkpt>
      <trkpt lat="37.4665340" lon="-2.7522900">
        <ele>865.6</ele>
        <time>2020-07-13T11:44:48Z</time>
      </trkpt>
      <trkpt lat="37.4669430" lon="-2.7528550">
        <ele>865.8</ele>
        <time>2020-07-13T11:44:56Z</time>
      </trkpt>
      <trkpt lat="37.4672600" lon="-2.7532920">
        <ele>866.0</ele>
        <time>2020-07-13T11:45:02Z</time>
      </trkpt>
      <trkpt lat="37.4676280" lon="-2.7538000">
        <ele>865.8</ele>
        <time>2020-07-13T11:45:09Z</time>
      </trkpt>
      <trkpt lat="37.4679440" lon="-2.7542340">
        <ele>865.8</ele>
        <time>2020-07-13T11:45:15Z</time>
      </trkpt>
      <trkpt lat="37.4683180" lon="-2.7547550">
        <ele>865.8</ele>
        <time>2020-07-13T11:45:22Z</time>
      </trkpt>
      <trkpt lat="37.4686480" lon="-2.7552080">
        <ele>865.2</ele>
        <time>2020-07-13T11:45:28Z</time>
      </trkpt>
      <trkpt lat="37.4690380" lon="-2.7557410">
        <ele>865.2</ele>
        <time>2020-07-13T11:45:35Z</time>
      </trkpt>
      <trkpt lat="37.4694300" lon="-2.7562940">
        <ele>864.8</ele>
        <time>2020-07-13T11:45:42Z</time>
      </trkpt>
      <trkpt lat="37.4697990" lon="-2.7568280">
        <ele>864.8</ele>
        <time>2020-07-13T11:45:49Z</time>
      </trkpt>
      <trkpt lat="37.4699520" lon="-2.7570470">
        <ele>864.8</ele>
        <time>2020-07-13T11:45:52Z</time>
      </trkpt>
      <trkpt lat="37.4702040" lon="-2.7573980">
        <ele>865.4</ele>
        <time>2020-07-13T11:45:57Z</time>
      </trkpt>
      <trkpt lat="37.4704070" lon="-2.7576670">
        <ele>865.8</ele>
        <time>2020-07-13T11:46:01Z</time>
      </trkpt>
      <trkpt lat="37.4704610" lon="-2.7577360">
        <ele>865.8</ele>
        <time>2020-07-13T11:46:02Z</time>
      </trkpt>
      <trkpt lat="37.4706750" lon="-2.7580090">
        <ele>866.6</ele>
        <time>2020-07-13T11:46:06Z</time>
      </trkpt>
      <trkpt lat="37.4709150" lon="-2.7583100">
        <ele>866.4</ele>
        <time>2020-07-13T11:46:10Z</time>
      </trkpt>
      <trkpt lat="37.4712410" lon="-2.7587120">
        <ele>865.4</ele>
        <time>2020-07-13T11:46:15Z</time>
      </trkpt>
      <trkpt lat="37.4713700" lon="-2.7588710">
        <ele>865.0</ele>
        <time>2020-07-13T11:46:17Z</time>
      </trkpt>
      <trkpt lat="37.4715880" lon="-2.7591400">
        <ele>864.4</ele>
        <time>2020-07-13T11:46:20Z</time>
      </trkpt>
      <trkpt lat="37.4718760" lon="-2.7594930">
        <ele>863.2</ele>
        <time>2020-07-13T11:46:24Z</time>
      </trkpt>
      <trkpt lat="37.4720900" lon="-2.7597460">
        <ele>862.2</ele>
        <time>2020-07-13T11:46:27Z</time>
      </trkpt>
      <trkpt lat="37.4721610" lon="-2.7598280">
        <ele>862.0</ele>
        <time>2020-07-13T11:46:28Z</time>
      </trkpt>
      <trkpt lat="37.4725310" lon="-2.7602350">
        <ele>861.4</ele>
        <time>2020-07-13T11:46:33Z</time>
      </trkpt>
      <trkpt lat="37.4729060" lon="-2.7606190">
        <ele>860.8</ele>
        <time>2020-07-13T11:46:38Z</time>
      </trkpt>
      <trkpt lat="37.4734030" lon="-2.7610830">
        <ele>860.2</ele>
        <time>2020-07-13T11:46:44Z</time>
      </trkpt>
      <trkpt lat="37.4736620" lon="-2.7613090">
        <ele>859.8</ele>
        <time>2020-07-13T11:46:47Z</time>
      </trkpt>
      <trkpt lat="37.4737330" lon="-2.7613680">
        <ele>859.8</ele>
        <time>2020-07-13T11:46:48Z</time>
      </trkpt>
      <trkpt lat="37.4741830" lon="-2.7617280">
        <ele>859.0</ele>
        <time>2020-07-13T11:46:53Z</time>
      </trkpt>
      <trkpt lat="37.4743730" lon="-2.7618780">
        <ele>858.8</ele>
        <time>2020-07-13T11:46:55Z</time>
      </trkpt>
      <trkpt lat="37.4745510" lon="-2.7620120">
        <ele>858.4</ele>
        <time>2020-07-13T11:46:57Z</time>
      </trkpt>
      <trkpt lat="37.4746340" lon="-2.7620770">
        <ele>858.2</ele>
        <time>2020-07-13T11:46:58Z</time>
      </trkpt>
      <trkpt lat="37.4749730" lon="-2.7623400">
        <ele>857.6</ele>
        <time>2020-07-13T11:47:02Z</time>
      </trkpt>
      <trkpt lat="37.4754960" lon="-2.7627450">
        <ele>856.6</ele>
        <time>2020-07-13T11:47:08Z</time>
      </trkpt>
      <trkpt lat="37.4755840" lon="-2.7628140">
        <ele>856.4</ele>
        <time>2020-07-13T11:47:09Z</time>
      </trkpt>
      <trkpt lat="37.4758440" lon="-2.7630130">
        <ele>855.4</ele>
        <time>2020-07-13T11:47:12Z</time>
      </trkpt>
      <trkpt lat="37.4761110" lon="-2.7632210">
        <ele>854.0</ele>
        <time>2020-07-13T11:47:15Z</time>
      </trkpt>
      <trkpt lat="37.4763880" lon="-2.7634340">
        <ele>853.0</ele>
        <time>2020-07-13T11:47:18Z</time>
      </trkpt>
      <trkpt lat="37.4764740" lon="-2.7635010">
        <ele>853.0</ele>
        <time>2020-07-13T11:47:19Z</time>
      </trkpt>
      <trkpt lat="37.4768380" lon="-2.7637820">
        <ele>851.8</ele>
        <time>2020-07-13T11:47:23Z</time>
      </trkpt>
      <trkpt lat="37.4771200" lon="-2.7640020">
        <ele>850.8</ele>
        <time>2020-07-13T11:47:26Z</time>
      </trkpt>
      <trkpt lat="37.4775190" lon="-2.7643130">
        <ele>849.4</ele>
        <time>2020-07-13T11:47:30Z</time>
      </trkpt>
      <trkpt lat="37.4777940" lon="-2.7645290">
        <ele>848.0</ele>
        <time>2020-07-13T11:47:33Z</time>
      </trkpt>
      <trkpt lat="37.4782440" lon="-2.7648810">
        <ele>847.0</ele>
        <time>2020-07-13T11:47:38Z</time>
      </trkpt>
      <trkpt lat="37.4783320" lon="-2.7649490">
        <ele>846.8</ele>
        <time>2020-07-13T11:47:39Z</time>
      </trkpt>
      <trkpt lat="37.4788700" lon="-2.7652520">
        <ele>846.2</ele>
        <time>2020-07-13T11:47:45Z</time>
      </trkpt>
      <trkpt lat="37.4793990" lon="-2.7654040">
        <ele>846.0</ele>
        <time>2020-07-13T11:47:51Z</time>
      </trkpt>
      <trkpt lat="37.4795040" lon="-2.7654340">
        <ele>846.0</ele>
        <time>2020-07-13T11:47:52Z</time>
      </trkpt>
      <trkpt lat="37.4796740" lon="-2.7654790">
        <ele>845.8</ele>
        <time>2020-07-13T11:47:54Z</time>
      </trkpt>
      <trkpt lat="37.4801900" lon="-2.7656300">
        <ele>845.6</ele>
        <time>2020-07-13T11:48:00Z</time>
      </trkpt>
      <trkpt lat="37.4803480" lon="-2.7656840">
        <ele>845.6</ele>
        <time>2020-07-13T11:48:02Z</time>
      </trkpt>
      <trkpt lat="37.4807610" lon="-2.7659130">
        <ele>845.8</ele>
        <time>2020-07-13T11:48:08Z</time>
      </trkpt>
      <trkpt lat="37.4809490" lon="-2.7660760">
        <ele>846.0</ele>
        <time>2020-07-13T11:48:11Z</time>
      </trkpt>
      <trkpt lat="37.4810710" lon="-2.7661700">
        <ele>845.8</ele>
        <time>2020-07-13T11:48:13Z</time>
      </trkpt>
      <trkpt lat="37.4811290" lon="-2.7662150">
        <ele>845.8</ele>
        <time>2020-07-13T11:48:14Z</time>
      </trkpt>
      <trkpt lat="37.4814750" lon="-2.7665080">
        <ele>845.8</ele>
        <time>2020-07-13T11:48:21Z</time>
      </trkpt>
      <trkpt lat="37.4815270" lon="-2.7665550">
        <ele>846.0</ele>
        <time>2020-07-13T11:48:22Z</time>
      </trkpt>
      <trkpt lat="37.4817230" lon="-2.7667100">
        <ele>846.4</ele>
        <time>2020-07-13T11:48:26Z</time>
      </trkpt>
      <trkpt lat="37.4819300" lon="-2.7668700">
        <ele>846.8</ele>
        <time>2020-07-13T11:48:30Z</time>
      </trkpt>
      <trkpt lat="37.4820710" lon="-2.7669820">
        <ele>847.0</ele>
        <time>2020-07-13T11:48:33Z</time>
      </trkpt>
      <trkpt lat="37.4822520" lon="-2.7671300">
        <ele>847.4</ele>
        <time>2020-07-13T11:48:37Z</time>
      </trkpt>
      <trkpt lat="37.4824860" lon="-2.7673230">
        <ele>847.8</ele>
        <time>2020-07-13T11:48:42Z</time>
      </trkpt>
      <trkpt lat="37.4825270" lon="-2.7673610">
        <ele>848.0</ele>
        <time>2020-07-13T11:48:43Z</time>
      </trkpt>
      <trkpt lat="37.4826930" lon="-2.7674940">
        <ele>848.4</ele>
        <time>2020-07-13T11:48:47Z</time>
      </trkpt>
      <trkpt lat="37.4830410" lon="-2.7677790">
        <ele>848.8</ele>
        <time>2020-07-13T11:48:54Z</time>
      </trkpt>
      <trkpt lat="37.4831320" lon="-2.7678500">
        <ele>849.0</ele>
        <time>2020-07-13T11:48:56Z</time>
      </trkpt>
      <trkpt lat="37.4833860" lon="-2.7681070">
        <ele>849.4</ele>
        <time>2020-07-13T11:49:02Z</time>
      </trkpt>
      <trkpt lat="37.4834080" lon="-2.7681720">
        <ele>849.4</ele>
        <time>2020-07-13T11:49:03Z</time>
      </trkpt>
      <trkpt lat="37.4834340" lon="-2.7683660">
        <ele>849.8</ele>
        <time>2020-07-13T11:49:06Z</time>
      </trkpt>
      <trkpt lat="37.4834430" lon="-2.7684230">
        <ele>850.0</ele>
        <time>2020-07-13T11:49:07Z</time>
      </trkpt>
      <trkpt lat="37.4834570" lon="-2.7684750">
        <ele>850.2</ele>
        <time>2020-07-13T11:49:08Z</time>
      </trkpt>
      <trkpt lat="37.4835000" lon="-2.7686180">
        <ele>851.0</ele>
        <time>2020-07-13T11:49:11Z</time>
      </trkpt>
      <trkpt lat="37.4835320" lon="-2.7687170">
        <ele>851.6</ele>
        <time>2020-07-13T11:49:13Z</time>
      </trkpt>
      <trkpt lat="37.4835600" lon="-2.7688170">
        <ele>852.4</ele>
        <time>2020-07-13T11:49:15Z</time>
      </trkpt>
      <trkpt lat="37.4835670" lon="-2.7688640">
        <ele>852.6</ele>
        <time>2020-07-13T11:49:16Z</time>
      </trkpt>
      <trkpt lat="37.4835960" lon="-2.7690710">
        <ele>853.6</ele>
        <time>2020-07-13T11:49:20Z</time>
      </trkpt>
      <trkpt lat="37.4835900" lon="-2.7692040">
        <ele>854.8</ele>
        <time>2020-07-13T11:49:23Z</time>
      </trkpt>
      <trkpt lat="37.4835590" lon="-2.7692860">
        <ele>855.4</ele>
        <time>2020-07-13T11:49:25Z</time>
      </trkpt>
      <trkpt lat="37.4835310" lon="-2.7693110">
        <ele>855.8</ele>
        <time>2020-07-13T11:49:26Z</time>
      </trkpt>
      <trkpt lat="37.4834990" lon="-2.7693090">
        <ele>856.0</ele>
        <time>2020-07-13T11:49:27Z</time>
      </trkpt>
      <trkpt lat="37.4834850" lon="-2.7692780">
        <ele>856.2</ele>
        <time>2020-07-13T11:49:28Z</time>
      </trkpt>
      <trkpt lat="37.4834760" lon="-2.7692180">
        <ele>856.6</ele>
        <time>2020-07-13T11:49:31Z</time>
      </trkpt>
      <trkpt lat="37.4834780" lon="-2.7692180">
        <ele>856.8</ele>
        <time>2020-07-13T11:49:33Z</time>
      </trkpt>
      <trkpt lat="37.4834800" lon="-2.7692170">
        <ele>857.0</ele>
        <time>2020-07-13T11:49:34Z</time>
      </trkpt>
      <trkpt lat="37.4831530" lon="-2.7691720">
        <ele>838.2</ele>
        <time>2020-07-14T04:57:32Z</time>
      </trkpt>
      <trkpt lat="37.4831450" lon="-2.7691370">
        <ele>838.4</ele>
        <time>2020-07-14T04:57:33Z</time>
      </trkpt>
      <trkpt lat="37.4831750" lon="-2.7689640">
        <ele>838.2</ele>
        <time>2020-07-14T04:57:37Z</time>
      </trkpt>
      <trkpt lat="37.4832390" lon="-2.7688580">
        <ele>838.0</ele>
        <time>2020-07-14T04:57:39Z</time>
      </trkpt>
      <trkpt lat="37.4832690" lon="-2.7687410">
        <ele>837.6</ele>
        <time>2020-07-14T04:57:41Z</time>
      </trkpt>
      <trkpt lat="37.4832720" lon="-2.7686800">
        <ele>837.4</ele>
        <time>2020-07-14T04:57:42Z</time>
      </trkpt>
      <trkpt lat="37.4832690" lon="-2.7686190">
        <ele>837.0</ele>
        <time>2020-07-14T04:57:43Z</time>
      </trkpt>
      <trkpt lat="37.4833020" lon="-2.7684530">
        <ele>835.8</ele>
        <time>2020-07-14T04:57:46Z</time>
      </trkpt>
      <trkpt lat="37.4833330" lon="-2.7683970">
        <ele>835.4</ele>
        <time>2020-07-14T04:57:47Z</time>
      </trkpt>
      <trkpt lat="37.4833460" lon="-2.7683410">
        <ele>835.0</ele>
        <time>2020-07-14T04:57:48Z</time>
      </trkpt>
      <trkpt lat="37.4833510" lon="-2.7683110">
        <ele>834.6</ele>
        <time>2020-07-14T04:57:49Z</time>
      </trkpt>
      <trkpt lat="37.4833550" lon="-2.7682820">
        <ele>833.6</ele>
        <time>2020-07-14T04:57:51Z</time>
      </trkpt>
      <trkpt lat="37.4833600" lon="-2.7682520">
        <ele>833.2</ele>
        <time>2020-07-14T04:57:52Z</time>
      </trkpt>
      <trkpt lat="37.4833890" lon="-2.7680750">
        <ele>832.4</ele>
        <time>2020-07-14T04:57:54Z</time>
      </trkpt>
      <trkpt lat="37.4834100" lon="-2.7680970">
        <ele>832.0</ele>
        <time>2020-07-14T04:57:55Z</time>
      </trkpt>
      <trkpt lat="37.4834470" lon="-2.7681530">
        <ele>831.6</ele>
        <time>2020-07-14T04:57:57Z</time>
      </trkpt>
      <trkpt lat="37.4835980" lon="-2.7682990">
        <ele>831.4</ele>
        <time>2020-07-14T04:58:02Z</time>
      </trkpt>
      <trkpt lat="37.4836830" lon="-2.7683890">
        <ele>831.4</ele>
        <time>2020-07-14T04:58:05Z</time>
      </trkpt>
      <trkpt lat="37.4838680" lon="-2.7685720">
        <ele>831.6</ele>
        <time>2020-07-14T04:58:11Z</time>
      </trkpt>
      <trkpt lat="37.4838680" lon="-2.7685720">
        <ele>831.8</ele>
        <time>2020-07-14T04:58:14Z</time>
      </trkpt>
      <trkpt lat="37.4841930" lon="-2.7688720">
        <ele>832.0</ele>
        <time>2020-07-14T04:58:21Z</time>
      </trkpt>
      <trkpt lat="37.4842500" lon="-2.7689560">
        <ele>832.0</ele>
        <time>2020-07-14T04:58:24Z</time>
      </trkpt>
      <trkpt lat="37.4843120" lon="-2.7690380">
        <ele>832.2</ele>
        <time>2020-07-14T04:58:27Z</time>
      </trkpt>
      <trkpt lat="37.4848510" lon="-2.7693010">
        <ele>832.4</ele>
        <time>2020-07-14T04:58:31Z</time>
      </trkpt>
      <trkpt lat="37.4848940" lon="-2.7693360">
        <ele>832.6</ele>
        <time>2020-07-14T04:58:32Z</time>
      </trkpt>
      <trkpt lat="37.4850140" lon="-2.7694360">
        <ele>832.6</ele>
        <time>2020-07-14T04:58:35Z</time>
      </trkpt>
      <trkpt lat="37.4851730" lon="-2.7695720">
        <ele>832.8</ele>
        <time>2020-07-14T04:58:39Z</time>
      </trkpt>
      <trkpt lat="37.4854910" lon="-2.7698390">
        <ele>833.2</ele>
        <time>2020-07-14T04:58:47Z</time>
      </trkpt>
      <trkpt lat="37.4855300" lon="-2.7698710">
        <ele>833.2</ele>
        <time>2020-07-14T04:58:48Z</time>
      </trkpt>
      <trkpt lat="37.4859160" lon="-2.7701470">
        <ele>833.6</ele>
        <time>2020-07-14T04:58:57Z</time>
      </trkpt>
      <trkpt lat="37.4861430" lon="-2.7703190">
        <ele>833.8</ele>
        <time>2020-07-14T04:59:03Z</time>
      </trkpt>
      <trkpt lat="37.4862550" lon="-2.7704080">
        <ele>834.2</ele>
        <time>2020-07-14T04:59:06Z</time>
      </trkpt>
      <trkpt lat="37.4863750" lon="-2.7704940">
        <ele>834.6</ele>
        <time>2020-07-14T04:59:09Z</time>
      </trkpt>
      <trkpt lat="37.4866770" lon="-2.7707320">
        <ele>835.0</ele>
        <time>2020-07-14T04:59:17Z</time>
      </trkpt>
      <trkpt lat="37.4867170" lon="-2.7707590">
        <ele>835.0</ele>
        <time>2020-07-14T04:59:18Z</time>
      </trkpt>
      <trkpt lat="37.4867960" lon="-2.7708160">
        <ele>835.2</ele>
        <time>2020-07-14T04:59:20Z</time>
      </trkpt>
      <trkpt lat="37.4868330" lon="-2.7708520">
        <ele>835.4</ele>
        <time>2020-07-14T04:59:21Z</time>
      </trkpt>
      <trkpt lat="37.4868590" lon="-2.7708750">
        <ele>835.4</ele>
        <time>2020-07-14T04:59:22Z</time>
      </trkpt>
      <trkpt lat="37.4871380" lon="-2.7710770">
        <ele>835.6</ele>
        <time>2020-07-14T04:59:29Z</time>
      </trkpt>
      <trkpt lat="37.4874590" lon="-2.7713160">
        <ele>836.0</ele>
        <time>2020-07-14T04:59:37Z</time>
      </trkpt>
      <trkpt lat="37.4875460" lon="-2.7713860">
        <ele>835.8</ele>
        <time>2020-07-14T04:59:39Z</time>
      </trkpt>
      <trkpt lat="37.4878900" lon="-2.7716520">
        <ele>835.2</ele>
        <time>2020-07-14T04:59:46Z</time>
      </trkpt>
      <trkpt lat="37.4880580" lon="-2.7717740">
        <ele>834.6</ele>
        <time>2020-07-14T04:59:49Z</time>
      </trkpt>
      <trkpt lat="37.4881690" lon="-2.7718550">
        <ele>834.4</ele>
        <time>2020-07-14T04:59:51Z</time>
      </trkpt>
      <trkpt lat="37.4882790" lon="-2.7719400">
        <ele>834.2</ele>
        <time>2020-07-14T04:59:53Z</time>
      </trkpt>
      <trkpt lat="37.4883340" lon="-2.7719840">
        <ele>834.0</ele>
        <time>2020-07-14T04:59:54Z</time>
      </trkpt>
      <trkpt lat="37.4885440" lon="-2.7721660">
        <ele>833.4</ele>
        <time>2020-07-14T04:59:58Z</time>
      </trkpt>
      <trkpt lat="37.4886890" lon="-2.7722730">
        <ele>833.0</ele>
        <time>2020-07-14T05:00:01Z</time>
      </trkpt>
      <trkpt lat="37.4887310" lon="-2.7722970">
        <ele>832.8</ele>
        <time>2020-07-14T05:00:02Z</time>
      </trkpt>
      <trkpt lat="37.4887700" lon="-2.7723270">
        <ele>832.6</ele>
        <time>2020-07-14T05:00:03Z</time>
      </trkpt>
      <trkpt lat="37.4888890" lon="-2.7723940">
        <ele>832.2</ele>
        <time>2020-07-14T05:00:06Z</time>
      </trkpt>
      <trkpt lat="37.4889790" lon="-2.7724290">
        <ele>832.0</ele>
        <time>2020-07-14T05:00:08Z</time>
      </trkpt>
      <trkpt lat="37.4892170" lon="-2.7724270">
        <ele>831.4</ele>
        <time>2020-07-14T05:00:12Z</time>
      </trkpt>
      <trkpt lat="37.4892640" lon="-2.7724370">
        <ele>831.2</ele>
        <time>2020-07-14T05:00:13Z</time>
      </trkpt>
      <trkpt lat="37.4893020" lon="-2.7724500">
        <ele>830.6</ele>
        <time>2020-07-14T05:00:14Z</time>
      </trkpt>
      <trkpt lat="37.4893420" lon="-2.7724620">
        <ele>830.2</ele>
        <time>2020-07-14T05:00:15Z</time>
      </trkpt>
      <trkpt lat="37.4894040" lon="-2.7724930">
        <ele>829.4</ele>
        <time>2020-07-14T05:00:17Z</time>
      </trkpt>
      <trkpt lat="37.4894540" lon="-2.7725200">
        <ele>828.6</ele>
        <time>2020-07-14T05:00:19Z</time>
      </trkpt>
      <trkpt lat="37.4894850" lon="-2.7725330">
        <ele>828.4</ele>
        <time>2020-07-14T05:00:20Z</time>
      </trkpt>
      <trkpt lat="37.4895520" lon="-2.7726350">
        <ele>827.8</ele>
        <time>2020-07-14T05:00:24Z</time>
      </trkpt>
      <trkpt lat="37.4895270" lon="-2.7726980">
        <ele>827.8</ele>
        <time>2020-07-14T05:00:26Z</time>
      </trkpt>
      <trkpt lat="37.4894960" lon="-2.7727590">
        <ele>827.8</ele>
        <time>2020-07-14T05:00:28Z</time>
      </trkpt>
      <trkpt lat="37.4894670" lon="-2.7728550">
        <ele>828.0</ele>
        <time>2020-07-14T05:00:31Z</time>
      </trkpt>
      <trkpt lat="37.4894530" lon="-2.7728900">
        <ele>828.2</ele>
        <time>2020-07-14T05:00:32Z</time>
      </trkpt>
      <trkpt lat="37.4894300" lon="-2.7730100">
        <ele>828.8</ele>
        <time>2020-07-14T05:00:37Z</time>
      </trkpt>
      <trkpt lat="37.4894210" lon="-2.7730190">
        <ele>829.0</ele>
        <time>2020-07-14T05:00:38Z</time>
      </trkpt>
      <trkpt lat="37.4893820" lon="-2.7730830">
        <ele>829.6</ele>
        <time>2020-07-14T05:00:41Z</time>
      </trkpt>
      <trkpt lat="37.4893610" lon="-2.7731160">
        <ele>829.8</ele>
        <time>2020-07-14T05:00:42Z</time>
      </trkpt>
      <trkpt lat="37.4893220" lon="-2.7731680">
        <ele>830.2</ele>
        <time>2020-07-14T05:00:44Z</time>
      </trkpt>
      <trkpt lat="37.4892860" lon="-2.7732120">
        <ele>830.6</ele>
        <time>2020-07-14T05:00:46Z</time>
      </trkpt>
      <trkpt lat="37.4892440" lon="-2.7732800">
        <ele>830.8</ele>
        <time>2020-07-14T05:00:48Z</time>
      </trkpt>
      <trkpt lat="37.4892090" lon="-2.7733360">
        <ele>831.2</ele>
        <time>2020-07-14T05:00:50Z</time>
      </trkpt>
      <trkpt lat="37.4891920" lon="-2.7733600">
        <ele>831.4</ele>
        <time>2020-07-14T05:00:51Z</time>
      </trkpt>
      <trkpt lat="37.4891750" lon="-2.7733850">
        <ele>831.6</ele>
        <time>2020-07-14T05:00:52Z</time>
      </trkpt>
      <trkpt lat="37.4891660" lon="-2.7734200">
        <ele>832.0</ele>
        <time>2020-07-14T05:00:54Z</time>
      </trkpt>
      <trkpt lat="37.4891660" lon="-2.7734270">
        <ele>832.2</ele>
        <time>2020-07-14T05:00:56Z</time>
      </trkpt>
      <trkpt lat="37.4891680" lon="-2.7734560">
        <ele>832.4</ele>
        <time>2020-07-14T05:00:57Z</time>
      </trkpt>
      <trkpt lat="37.4891940" lon="-2.7734950">
        <ele>832.8</ele>
        <time>2020-07-14T05:00:59Z</time>
      </trkpt>
      <trkpt lat="37.4892050" lon="-2.7735460">
        <ele>833.0</ele>
        <time>2020-07-14T05:01:02Z</time>
      </trkpt>
      <trkpt lat="37.4892700" lon="-2.7736130">
        <ele>833.8</ele>
        <time>2020-07-14T05:01:06Z</time>
      </trkpt>
      <trkpt lat="37.4892900" lon="-2.7736260">
        <ele>834.0</ele>
        <time>2020-07-14T05:01:07Z</time>
      </trkpt>
      <trkpt lat="37.4893620" lon="-2.7736550">
        <ele>834.6</ele>
        <time>2020-07-14T05:01:12Z</time>
      </trkpt>
      <trkpt lat="37.4893830" lon="-2.7736390">
        <ele>834.6</ele>
        <time>2020-07-14T05:01:13Z</time>
      </trkpt>
      <trkpt lat="37.4894230" lon="-2.7736500">
        <ele>834.6</ele>
        <time>2020-07-14T05:01:15Z</time>
      </trkpt>
      <trkpt lat="37.4895010" lon="-2.7736670">
        <ele>834.2</ele>
        <time>2020-07-14T05:01:20Z</time>
      </trkpt>
      <trkpt lat="37.4896370" lon="-2.7736710">
        <ele>833.8</ele>
        <time>2020-07-14T05:01:26Z</time>
      </trkpt>
      <trkpt lat="37.4897680" lon="-2.7736960">
        <ele>833.2</ele>
        <time>2020-07-14T05:01:30Z</time>
      </trkpt>
      <trkpt lat="37.4898590" lon="-2.7737240">
        <ele>833.0</ele>
        <time>2020-07-14T05:01:33Z</time>
      </trkpt>
      <trkpt lat="37.4898780" lon="-2.7737110">
        <ele>832.8</ele>
        <time>2020-07-14T05:01:34Z</time>
      </trkpt>
      <trkpt lat="37.4898980" lon="-2.7737010">
        <ele>832.6</ele>
        <time>2020-07-14T05:01:35Z</time>
      </trkpt>
      <trkpt lat="37.4899230" lon="-2.7736920">
        <ele>832.4</ele>
        <time>2020-07-14T05:01:37Z</time>
      </trkpt>
      <trkpt lat="37.4899160" lon="-2.7736950">
        <ele>832.2</ele>
        <time>2020-07-14T05:01:38Z</time>
      </trkpt>
      <trkpt lat="37.4899530" lon="-2.7736710">
        <ele>831.8</ele>
        <time>2020-07-14T05:01:43Z</time>
      </trkpt>
      <trkpt lat="37.4899610" lon="-2.7736490">
        <ele>831.8</ele>
        <time>2020-07-14T05:01:44Z</time>
      </trkpt>
      <trkpt lat="37.4900460" lon="-2.7735710">
        <ele>831.6</ele>
        <time>2020-07-14T05:01:47Z</time>
      </trkpt>
      <trkpt lat="37.4900730" lon="-2.7735500">
        <ele>831.4</ele>
        <time>2020-07-14T05:01:48Z</time>
      </trkpt>
      <trkpt lat="37.4900900" lon="-2.7735160">
        <ele>831.2</ele>
        <time>2020-07-14T05:01:49Z</time>
      </trkpt>
      <trkpt lat="37.4901070" lon="-2.7734890">
        <ele>830.8</ele>
        <time>2020-07-14T05:01:51Z</time>
      </trkpt>
      <trkpt lat="37.4900910" lon="-2.7734660">
        <ele>830.4</ele>
        <time>2020-07-14T05:01:52Z</time>
      </trkpt>
      <trkpt lat="37.4900720" lon="-2.7734320">
        <ele>830.2</ele>
        <time>2020-07-14T05:01:54Z</time>
      </trkpt>
      <trkpt lat="37.4900170" lon="-2.7733060">
        <ele>830.4</ele>
        <time>2020-07-14T05:01:58Z</time>
      </trkpt>
      <trkpt lat="37.4899970" lon="-2.7732640">
        <ele>830.6</ele>
        <time>2020-07-14T05:01:59Z</time>
      </trkpt>
      <trkpt lat="37.4898950" lon="-2.7729810">
        <ele>831.0</ele>
        <time>2020-07-14T05:02:05Z</time>
      </trkpt>
      <trkpt lat="37.4898640" lon="-2.7729250">
        <ele>831.0</ele>
        <time>2020-07-14T05:02:06Z</time>
      </trkpt>
      <trkpt lat="37.4898130" lon="-2.7727660">
        <ele>830.6</ele>
        <time>2020-07-14T05:02:09Z</time>
      </trkpt>
      <trkpt lat="37.4896990" lon="-2.7726960">
        <ele>829.6</ele>
        <time>2020-07-14T05:02:13Z</time>
      </trkpt>
      <trkpt lat="37.4896630" lon="-2.7726860">
        <ele>829.4</ele>
        <time>2020-07-14T05:02:14Z</time>
      </trkpt>
      <trkpt lat="37.4895180" lon="-2.7726170">
        <ele>828.2</ele>
        <time>2020-07-14T05:02:18Z</time>
      </trkpt>
      <trkpt lat="37.4894660" lon="-2.7725960">
        <ele>827.8</ele>
        <time>2020-07-14T05:02:20Z</time>
      </trkpt>
      <trkpt lat="37.4893830" lon="-2.7725770">
        <ele>827.8</ele>
        <time>2020-07-14T05:02:22Z</time>
      </trkpt>
      <trkpt lat="37.4893150" lon="-2.7725610">
        <ele>828.2</ele>
        <time>2020-07-14T05:02:24Z</time>
      </trkpt>
      <trkpt lat="37.4892780" lon="-2.7725690">
        <ele>828.4</ele>
        <time>2020-07-14T05:02:25Z</time>
      </trkpt>
      <trkpt lat="37.4891230" lon="-2.7725640">
        <ele>829.4</ele>
        <time>2020-07-14T05:02:29Z</time>
      </trkpt>
      <trkpt lat="37.4890510" lon="-2.7725770">
        <ele>829.6</ele>
        <time>2020-07-14T05:02:31Z</time>
      </trkpt>
      <trkpt lat="37.4889590" lon="-2.7725410">
        <ele>830.4</ele>
        <time>2020-07-14T05:02:34Z</time>
      </trkpt>
      <trkpt lat="37.4889010" lon="-2.7725030">
        <ele>830.8</ele>
        <time>2020-07-14T05:02:36Z</time>
      </trkpt>
      <trkpt lat="37.4888120" lon="-2.7724270">
        <ele>831.6</ele>
        <time>2020-07-14T05:02:39Z</time>
      </trkpt>
      <trkpt lat="37.4887220" lon="-2.7723400">
        <ele>832.0</ele>
        <time>2020-07-14T05:02:42Z</time>
      </trkpt>
      <trkpt lat="37.4886870" lon="-2.7723160">
        <ele>832.2</ele>
        <time>2020-07-14T05:02:43Z</time>
      </trkpt>
      <trkpt lat="37.4885630" lon="-2.7722100">
        <ele>832.4</ele>
        <time>2020-07-14T05:02:47Z</time>
      </trkpt>
      <trkpt lat="37.4884990" lon="-2.7721490">
        <ele>832.6</ele>
        <time>2020-07-14T05:02:49Z</time>
      </trkpt>
      <trkpt lat="37.4883660" lon="-2.7720370">
        <ele>833.0</ele>
        <time>2020-07-14T05:02:53Z</time>
      </trkpt>
      <trkpt lat="37.4880840" lon="-2.7718160">
        <ele>833.6</ele>
        <time>2020-07-14T05:03:01Z</time>
      </trkpt>
      <trkpt lat="37.4879820" lon="-2.7717260">
        <ele>834.0</ele>
        <time>2020-07-14T05:03:04Z</time>
      </trkpt>
      <trkpt lat="37.4877040" lon="-2.7715000">
        <ele>834.8</ele>
        <time>2020-07-14T05:03:12Z</time>
      </trkpt>
      <trkpt lat="37.4876030" lon="-2.7714210">
        <ele>835.0</ele>
        <time>2020-07-14T05:03:15Z</time>
      </trkpt>
      <trkpt lat="37.4873670" lon="-2.7711900">
        <ele>835.8</ele>
        <time>2020-07-14T05:03:23Z</time>
      </trkpt>
      <trkpt lat="37.4873630" lon="-2.7711110">
        <ele>835.8</ele>
        <time>2020-07-14T05:03:25Z</time>
      </trkpt>
      <trkpt lat="37.4873680" lon="-2.7710670">
        <ele>836.0</ele>
        <time>2020-07-14T05:03:26Z</time>
      </trkpt>
      <trkpt lat="37.4873930" lon="-2.7708310">
        <ele>835.8</ele>
        <time>2020-07-14T05:03:30Z</time>
      </trkpt>
      <trkpt lat="37.4873950" lon="-2.7707600">
        <ele>835.4</ele>
        <time>2020-07-14T05:03:31Z</time>
      </trkpt>
      <trkpt lat="37.4874080" lon="-2.7706290">
        <ele>834.8</ele>
        <time>2020-07-14T05:03:33Z</time>
      </trkpt>
      <trkpt lat="37.4874200" lon="-2.7705650">
        <ele>834.2</ele>
        <time>2020-07-14T05:03:34Z</time>
      </trkpt>
      <trkpt lat="37.4874230" lon="-2.7705250">
        <ele>834.2</ele>
        <time>2020-07-14T05:03:35Z</time>
      </trkpt>
      <trkpt lat="37.4874350" lon="-2.7703990">
        <ele>833.8</ele>
        <time>2020-07-14T05:03:36Z</time>
      </trkpt>
      <trkpt lat="37.4874560" lon="-2.7702220">
        <ele>833.0</ele>
        <time>2020-07-14T05:03:38Z</time>
      </trkpt>
      <trkpt lat="37.4874730" lon="-2.7700720">
        <ele>831.8</ele>
        <time>2020-07-14T05:03:40Z</time>
      </trkpt>
      <trkpt lat="37.4874930" lon="-2.7699100">
        <ele>830.6</ele>
        <time>2020-07-14T05:03:42Z</time>
      </trkpt>
      <trkpt lat="37.4875110" lon="-2.7697470">
        <ele>829.2</ele>
        <time>2020-07-14T05:03:44Z</time>
      </trkpt>
      <trkpt lat="37.4875290" lon="-2.7695820">
        <ele>828.4</ele>
        <time>2020-07-14T05:03:46Z</time>
      </trkpt>
      <trkpt lat="37.4875380" lon="-2.7694940">
        <ele>828.0</ele>
        <time>2020-07-14T05:03:47Z</time>
      </trkpt>
      <trkpt lat="37.4875590" lon="-2.7693240">
        <ele>827.2</ele>
        <time>2020-07-14T05:03:49Z</time>
      </trkpt>
      <trkpt lat="37.4875640" lon="-2.7692600">
        <ele>826.6</ele>
        <time>2020-07-14T05:03:50Z</time>
      </trkpt>
      <trkpt lat="37.4875730" lon="-2.7691440">
        <ele>825.2</ele>
        <time>2020-07-14T05:03:52Z</time>
      </trkpt>
      <trkpt lat="37.4875780" lon="-2.7690950">
        <ele>824.6</ele>
        <time>2020-07-14T05:03:53Z</time>
      </trkpt>
      <trkpt lat="37.4875840" lon="-2.7690380">
        <ele>823.8</ele>
        <time>2020-07-14T05:03:54Z</time>
      </trkpt>
      <trkpt lat="37.4876030" lon="-2.7689820">
        <ele>823.2</ele>
        <time>2020-07-14T05:03:55Z</time>
      </trkpt>
      <trkpt lat="37.4876180" lon="-2.7689210">
        <ele>822.6</ele>
        <time>2020-07-14T05:03:56Z</time>
      </trkpt>
      <trkpt lat="37.4876520" lon="-2.7688010">
        <ele>821.8</ele>
        <time>2020-07-14T05:03:58Z</time>
      </trkpt>
      <trkpt lat="37.4876710" lon="-2.7687450">
        <ele>821.6</ele>
        <time>2020-07-14T05:03:59Z</time>
      </trkpt>
      <trkpt lat="37.4876870" lon="-2.7686800">
        <ele>821.4</ele>
        <time>2020-07-14T05:04:00Z</time>
      </trkpt>
      <trkpt lat="37.4877610" lon="-2.7683450">
        <ele>821.2</ele>
        <time>2020-07-14T05:04:05Z</time>
      </trkpt>
      <trkpt lat="37.4877800" lon="-2.7683030">
        <ele>821.0</ele>
        <time>2020-07-14T05:04:06Z</time>
      </trkpt>
      <trkpt lat="37.4878600" lon="-2.7682870">
        <ele>820.8</ele>
        <time>2020-07-14T05:04:08Z</time>
      </trkpt>
      <trkpt lat="37.4879460" lon="-2.7682960">
        <ele>820.4</ele>
        <time>2020-07-14T05:04:10Z</time>
      </trkpt>
      <trkpt lat="37.4880990" lon="-2.7682960">
        <ele>820.0</ele>
        <time>2020-07-14T05:04:13Z</time>
      </trkpt>
      <trkpt lat="37.4884320" lon="-2.7682950">
        <ele>819.4</ele>
        <time>2020-07-14T05:04:19Z</time>
      </trkpt>
      <trkpt lat="37.4885450" lon="-2.7683010">
        <ele>819.2</ele>
        <time>2020-07-14T05:04:21Z</time>
      </trkpt>
      <trkpt lat="37.4888420" lon="-2.7683040">
        <ele>818.4</ele>
        <time>2020-07-14T05:04:26Z</time>
      </trkpt>
      <trkpt lat="37.4890290" lon="-2.7683050">
        <ele>818.0</ele>
        <time>2020-07-14T05:04:29Z</time>
      </trkpt>
      <trkpt lat="37.4893040" lon="-2.7682980">
        <ele>817.2</ele>
        <time>2020-07-14T05:04:33Z</time>
      </trkpt>
      <trkpt lat="37.4894450" lon="-2.7682840">
        <ele>816.6</ele>
        <time>2020-07-14T05:04:35Z</time>
      </trkpt>
      <trkpt lat="37.4895280" lon="-2.7682780">
        <ele>816.4</ele>
        <time>2020-07-14T05:04:36Z</time>
      </trkpt>
      <trkpt lat="37.4895980" lon="-2.7682770">
        <ele>816.0</ele>
        <time>2020-07-14T05:04:37Z</time>
      </trkpt>
      <trkpt lat="37.4901050" lon="-2.7682200">
        <ele>815.0</ele>
        <time>2020-07-14T05:04:44Z</time>
      </trkpt>
      <trkpt lat="37.4905210" lon="-2.7681640">
        <ele>814.0</ele>
        <time>2020-07-14T05:04:51Z</time>
      </trkpt>
      <trkpt lat="37.4906940" lon="-2.7681390">
        <ele>813.8</ele>
        <time>2020-07-14T05:04:54Z</time>
      </trkpt>
      <trkpt lat="37.4908780" lon="-2.7681070">
        <ele>813.4</ele>
        <time>2020-07-14T05:04:57Z</time>
      </trkpt>
      <trkpt lat="37.4913050" lon="-2.7680370">
        <ele>813.0</ele>
        <time>2020-07-14T05:05:04Z</time>
      </trkpt>
      <trkpt lat="37.4913670" lon="-2.7680270">
        <ele>812.8</ele>
        <time>2020-07-14T05:05:05Z</time>
      </trkpt>
      <trkpt lat="37.4914780" lon="-2.7680070">
        <ele>812.6</ele>
        <time>2020-07-14T05:05:07Z</time>
      </trkpt>
      <trkpt lat="37.4915610" lon="-2.7680130">
        <ele>812.4</ele>
        <time>2020-07-14T05:05:09Z</time>
      </trkpt>
      <trkpt lat="37.4915840" lon="-2.7680370">
        <ele>812.4</ele>
        <time>2020-07-14T05:05:10Z</time>
      </trkpt>
      <trkpt lat="37.4915960" lon="-2.7681450">
        <ele>812.4</ele>
        <time>2020-07-14T05:05:13Z</time>
      </trkpt>
      <trkpt lat="37.4915840" lon="-2.7682630">
        <ele>812.6</ele>
        <time>2020-07-14T05:05:16Z</time>
      </trkpt>
      <trkpt lat="37.4915760" lon="-2.7683080">
        <ele>812.8</ele>
        <time>2020-07-14T05:05:17Z</time>
      </trkpt>
      <trkpt lat="37.4915940" lon="-2.7684240">
        <ele>813.0</ele>
        <time>2020-07-14T05:05:20Z</time>
      </trkpt>
      <trkpt lat="37.4916250" lon="-2.7684470">
        <ele>813.2</ele>
        <time>2020-07-14T05:05:21Z</time>
      </trkpt>
      <trkpt lat="37.4916950" lon="-2.7684350">
        <ele>813.4</ele>
        <time>2020-07-14T05:05:24Z</time>
      </trkpt>
      <trkpt lat="37.4917880" lon="-2.7683450">
        <ele>813.6</ele>
        <time>2020-07-14T05:05:27Z</time>
      </trkpt>
      <trkpt lat="37.4918170" lon="-2.7683080">
        <ele>813.6</ele>
        <time>2020-07-14T05:05:28Z</time>
      </trkpt>
      <trkpt lat="37.4919490" lon="-2.7681280">
        <ele>813.0</ele>
        <time>2020-07-14T05:05:32Z</time>
      </trkpt>
      <trkpt lat="37.4920470" lon="-2.7679940">
        <ele>812.6</ele>
        <time>2020-07-14T05:05:35Z</time>
      </trkpt>
      <trkpt lat="37.4921090" lon="-2.7679020">
        <ele>812.4</ele>
        <time>2020-07-14T05:05:37Z</time>
      </trkpt>
      <trkpt lat="37.4922050" lon="-2.7677650">
        <ele>811.8</ele>
        <time>2020-07-14T05:05:40Z</time>
      </trkpt>
      <trkpt lat="37.4922320" lon="-2.7677110">
        <ele>811.6</ele>
        <time>2020-07-14T05:05:41Z</time>
      </trkpt>
      <trkpt lat="37.4923770" lon="-2.7677220">
        <ele>811.0</ele>
        <time>2020-07-14T05:05:44Z</time>
      </trkpt>
      <trkpt lat="37.4924040" lon="-2.7678350">
        <ele>810.4</ele>
        <time>2020-07-14T05:05:46Z</time>
      </trkpt>
      <trkpt lat="37.4923960" lon="-2.7678960">
        <ele>810.2</ele>
        <time>2020-07-14T05:05:47Z</time>
      </trkpt>
      <trkpt lat="37.4924020" lon="-2.7681060">
        <ele>810.2</ele>
        <time>2020-07-14T05:05:51Z</time>
      </trkpt>
      <trkpt lat="37.4924410" lon="-2.7682050">
        <ele>810.6</ele>
        <time>2020-07-14T05:05:53Z</time>
      </trkpt>
      <trkpt lat="37.4925610" lon="-2.7684890">
        <ele>811.2</ele>
        <time>2020-07-14T05:05:59Z</time>
      </trkpt>
      <trkpt lat="37.4925960" lon="-2.7685880">
        <ele>811.4</ele>
        <time>2020-07-14T05:06:01Z</time>
      </trkpt>
      <trkpt lat="37.4926520" lon="-2.7687310">
        <ele>811.6</ele>
        <time>2020-07-14T05:06:04Z</time>
      </trkpt>
      <trkpt lat="37.4927020" lon="-2.7688230">
        <ele>811.8</ele>
        <time>2020-07-14T05:06:06Z</time>
      </trkpt>
      <trkpt lat="37.4927850" lon="-2.7690070">
        <ele>812.6</ele>
        <time>2020-07-14T05:06:10Z</time>
      </trkpt>
      <trkpt lat="37.4928920" lon="-2.7692390">
        <ele>813.0</ele>
        <time>2020-07-14T05:06:15Z</time>
      </trkpt>
      <trkpt lat="37.4930350" lon="-2.7695260">
        <ele>813.6</ele>
        <time>2020-07-14T05:06:22Z</time>
      </trkpt>
      <trkpt lat="37.4930520" lon="-2.7695530">
        <ele>813.6</ele>
        <time>2020-07-14T05:06:23Z</time>
      </trkpt>
      <trkpt lat="37.4931720" lon="-2.7696890">
        <ele>813.8</ele>
        <time>2020-07-14T05:06:28Z</time>
      </trkpt>
      <trkpt lat="37.4931720" lon="-2.7698590">
        <ele>814.0</ele>
        <time>2020-07-14T05:06:32Z</time>
      </trkpt>
      <trkpt lat="37.4931180" lon="-2.7701000">
        <ele>814.6</ele>
        <time>2020-07-14T05:06:37Z</time>
      </trkpt>
      <trkpt lat="37.4931020" lon="-2.7701440">
        <ele>814.8</ele>
        <time>2020-07-14T05:06:38Z</time>
      </trkpt>
      <trkpt lat="37.4929820" lon="-2.7704480">
        <ele>815.4</ele>
        <time>2020-07-14T05:06:45Z</time>
      </trkpt>
      <trkpt lat="37.4929220" lon="-2.7705740">
        <ele>815.8</ele>
        <time>2020-07-14T05:06:48Z</time>
      </trkpt>
      <trkpt lat="37.4928690" lon="-2.7706930">
        <ele>816.0</ele>
        <time>2020-07-14T05:06:51Z</time>
      </trkpt>
      <trkpt lat="37.4928370" lon="-2.7707870">
        <ele>816.2</ele>
        <time>2020-07-14T05:06:53Z</time>
      </trkpt>
      <trkpt lat="37.4927960" lon="-2.7709030">
        <ele>816.6</ele>
        <time>2020-07-14T05:06:56Z</time>
      </trkpt>
      <trkpt lat="37.4927800" lon="-2.7709370">
        <ele>816.8</ele>
        <time>2020-07-14T05:06:57Z</time>
      </trkpt>
      <trkpt lat="37.4927750" lon="-2.7710300">
        <ele>817.0</ele>
        <time>2020-07-14T05:07:00Z</time>
      </trkpt>
      <trkpt lat="37.4928670" lon="-2.7711470">
        <ele>817.2</ele>
        <time>2020-07-14T05:07:03Z</time>
      </trkpt>
      <trkpt lat="37.4929620" lon="-2.7712760">
        <ele>816.6</ele>
        <time>2020-07-14T05:07:06Z</time>
      </trkpt>
      <trkpt lat="37.4930230" lon="-2.7713410">
        <ele>816.4</ele>
        <time>2020-07-14T05:07:08Z</time>
      </trkpt>
      <trkpt lat="37.4931220" lon="-2.7714390">
        <ele>816.4</ele>
        <time>2020-07-14T05:07:11Z</time>
      </trkpt>
      <trkpt lat="37.4931910" lon="-2.7715170">
        <ele>816.4</ele>
        <time>2020-07-14T05:07:13Z</time>
      </trkpt>
      <trkpt lat="37.4932200" lon="-2.7715610">
        <ele>816.4</ele>
        <time>2020-07-14T05:07:14Z</time>
      </trkpt>
      <trkpt lat="37.4932920" lon="-2.7716460">
        <ele>816.4</ele>
        <time>2020-07-14T05:07:16Z</time>
      </trkpt>
      <trkpt lat="37.4933380" lon="-2.7716940">
        <ele>816.4</ele>
        <time>2020-07-14T05:07:17Z</time>
      </trkpt>
      <trkpt lat="37.4934180" lon="-2.7717770">
        <ele>816.2</ele>
        <time>2020-07-14T05:07:19Z</time>
      </trkpt>
      <trkpt lat="37.4935300" lon="-2.7719130">
        <ele>815.8</ele>
        <time>2020-07-14T05:07:22Z</time>
      </trkpt>
      <trkpt lat="37.4935700" lon="-2.7719590">
        <ele>815.6</ele>
        <time>2020-07-14T05:07:23Z</time>
      </trkpt>
      <trkpt lat="37.4936090" lon="-2.7719980">
        <ele>815.6</ele>
        <time>2020-07-14T05:07:24Z</time>
      </trkpt>
      <trkpt lat="37.4937570" lon="-2.7721590">
        <ele>815.4</ele>
        <time>2020-07-14T05:07:28Z</time>
      </trkpt>
      <trkpt lat="37.4938120" lon="-2.7722320">
        <ele>815.2</ele>
        <time>2020-07-14T05:07:30Z</time>
      </trkpt>
      <trkpt lat="37.4938490" lon="-2.7722700">
        <ele>815.0</ele>
        <time>2020-07-14T05:07:31Z</time>
      </trkpt>
      <trkpt lat="37.4939640" lon="-2.7723650">
        <ele>815.0</ele>
        <time>2020-07-14T05:07:34Z</time>
      </trkpt>
      <trkpt lat="37.4940320" lon="-2.7724420">
        <ele>814.6</ele>
        <time>2020-07-14T05:07:38Z</time>
      </trkpt>
      <trkpt lat="37.4940260" lon="-2.7724360">
        <ele>814.4</ele>
        <time>2020-07-14T05:07:39Z</time>
      </trkpt>
      <trkpt lat="37.4940520" lon="-2.7724890">
        <ele>814.4</ele>
        <time>2020-07-14T05:07:42Z</time>
      </trkpt>
      <trkpt lat="37.4940810" lon="-2.7725190">
        <ele>814.4</ele>
        <time>2020-07-14T05:07:44Z</time>
      </trkpt>
      <trkpt lat="37.4941340" lon="-2.7725160">
        <ele>814.4</ele>
        <time>2020-07-14T05:07:46Z</time>
      </trkpt>
      <trkpt lat="37.4941650" lon="-2.7724870">
        <ele>814.4</ele>
        <time>2020-07-14T05:07:47Z</time>
      </trkpt>
      <trkpt lat="37.4942600" lon="-2.7723790">
        <ele>814.2</ele>
        <time>2020-07-14T05:07:50Z</time>
      </trkpt>
      <trkpt lat="37.4943550" lon="-2.7722960">
        <ele>814.0</ele>
        <time>2020-07-14T05:07:52Z</time>
      </trkpt>
      <trkpt lat="37.4945280" lon="-2.7721500">
        <ele>813.4</ele>
        <time>2020-07-14T05:07:55Z</time>
      </trkpt>
      <trkpt lat="37.4946600" lon="-2.7720540">
        <ele>812.6</ele>
        <time>2020-07-14T05:07:57Z</time>
      </trkpt>
      <trkpt lat="37.4947240" lon="-2.7720100">
        <ele>812.2</ele>
        <time>2020-07-14T05:07:58Z</time>
      </trkpt>
      <trkpt lat="37.4949430" lon="-2.7718790">
        <ele>811.2</ele>
        <time>2020-07-14T05:08:01Z</time>
      </trkpt>
      <trkpt lat="37.4950880" lon="-2.7718150">
        <ele>810.8</ele>
        <time>2020-07-14T05:08:03Z</time>
      </trkpt>
      <trkpt lat="37.4954620" lon="-2.7716950">
        <ele>810.0</ele>
        <time>2020-07-14T05:08:08Z</time>
      </trkpt>
      <trkpt lat="37.4955300" lon="-2.7716810">
        <ele>810.0</ele>
        <time>2020-07-14T05:08:09Z</time>
      </trkpt>
      <trkpt lat="37.4957190" lon="-2.7716000">
        <ele>809.6</ele>
        <time>2020-07-14T05:08:12Z</time>
      </trkpt>
      <trkpt lat="37.4958290" lon="-2.7715060">
        <ele>809.4</ele>
        <time>2020-07-14T05:08:14Z</time>
      </trkpt>
      <trkpt lat="37.4959300" lon="-2.7714160">
        <ele>809.2</ele>
        <time>2020-07-14T05:08:16Z</time>
      </trkpt>
      <trkpt lat="37.4960660" lon="-2.7714170">
        <ele>809.0</ele>
        <time>2020-07-14T05:08:18Z</time>
      </trkpt>
      <trkpt lat="37.4961200" lon="-2.7714670">
        <ele>809.0</ele>
        <time>2020-07-14T05:08:19Z</time>
      </trkpt>
      <trkpt lat="37.4961560" lon="-2.7715290">
        <ele>808.8</ele>
        <time>2020-07-14T05:08:20Z</time>
      </trkpt>
      <trkpt lat="37.4962270" lon="-2.7716560">
        <ele>808.8</ele>
        <time>2020-07-14T05:08:22Z</time>
      </trkpt>
      <trkpt lat="37.4962720" lon="-2.7717130">
        <ele>808.6</ele>
        <time>2020-07-14T05:08:23Z</time>
      </trkpt>
      <trkpt lat="37.4963230" lon="-2.7717640">
        <ele>808.6</ele>
        <time>2020-07-14T05:08:24Z</time>
      </trkpt>
      <trkpt lat="37.4964970" lon="-2.7718870">
        <ele>808.0</ele>
        <time>2020-07-14T05:08:27Z</time>
      </trkpt>
      <trkpt lat="37.4965570" lon="-2.7719290">
        <ele>807.8</ele>
        <time>2020-07-14T05:08:28Z</time>
      </trkpt>
      <trkpt lat="37.4968140" lon="-2.7721240">
        <ele>806.8</ele>
        <time>2020-07-14T05:08:32Z</time>
      </trkpt>
      <trkpt lat="37.4970140" lon="-2.7722750">
        <ele>806.4</ele>
        <time>2020-07-14T05:08:35Z</time>
      </trkpt>
      <trkpt lat="37.4972290" lon="-2.7724330">
        <ele>805.6</ele>
        <time>2020-07-14T05:08:38Z</time>
      </trkpt>
      <trkpt lat="37.4975110" lon="-2.7726300">
        <ele>804.6</ele>
        <time>2020-07-14T05:08:42Z</time>
      </trkpt>
      <trkpt lat="37.4976540" lon="-2.7727180">
        <ele>804.2</ele>
        <time>2020-07-14T05:08:44Z</time>
      </trkpt>
      <trkpt lat="37.4980280" lon="-2.7729060">
        <ele>803.4</ele>
        <time>2020-07-14T05:08:49Z</time>
      </trkpt>
      <trkpt lat="37.4981880" lon="-2.7729690">
        <ele>803.0</ele>
        <time>2020-07-14T05:08:51Z</time>
      </trkpt>
      <trkpt lat="37.4985550" lon="-2.7730940">
        <ele>802.4</ele>
        <time>2020-07-14T05:08:56Z</time>
      </trkpt>
      <trkpt lat="37.4988310" lon="-2.7731840">
        <ele>802.0</ele>
        <time>2020-07-14T05:09:00Z</time>
      </trkpt>
      <trkpt lat="37.4991730" lon="-2.7732580">
        <ele>801.6</ele>
        <time>2020-07-14T05:09:05Z</time>
      </trkpt>
      <trkpt lat="37.4993160" lon="-2.7732800">
        <ele>801.8</ele>
        <time>2020-07-14T05:09:07Z</time>
      </trkpt>
      <trkpt lat="37.4993830" lon="-2.7732880">
        <ele>801.8</ele>
        <time>2020-07-14T05:09:08Z</time>
      </trkpt>
      <trkpt lat="37.4999660" lon="-2.7733240">
        <ele>801.6</ele>
        <time>2020-07-14T05:09:17Z</time>
      </trkpt>
      <trkpt lat="37.5002440" lon="-2.7733360">
        <ele>801.4</ele>
        <time>2020-07-14T05:09:21Z</time>
      </trkpt>
      <trkpt lat="37.5004390" lon="-2.7733440">
        <ele>801.2</ele>
        <time>2020-07-14T05:09:24Z</time>
      </trkpt>
      <trkpt lat="37.5006370" lon="-2.7733440">
        <ele>801.0</ele>
        <time>2020-07-14T05:09:27Z</time>
      </trkpt>
      <trkpt lat="37.5011040" lon="-2.7733290">
        <ele>800.4</ele>
        <time>2020-07-14T05:09:34Z</time>
      </trkpt>
      <trkpt lat="37.5011630" lon="-2.7733230">
        <ele>800.2</ele>
        <time>2020-07-14T05:09:35Z</time>
      </trkpt>
      <trkpt lat="37.5013040" lon="-2.7733000">
        <ele>800.0</ele>
        <time>2020-07-14T05:09:37Z</time>
      </trkpt>
      <trkpt lat="37.5019040" lon="-2.7731750">
        <ele>799.4</ele>
        <time>2020-07-14T05:09:46Z</time>
      </trkpt>
      <trkpt lat="37.5019640" lon="-2.7731640">
        <ele>799.4</ele>
        <time>2020-07-14T05:09:47Z</time>
      </trkpt>
      <trkpt lat="37.5021630" lon="-2.7731150">
        <ele>799.2</ele>
        <time>2020-07-14T05:09:50Z</time>
      </trkpt>
      <trkpt lat="37.5023650" lon="-2.7730750">
        <ele>798.8</ele>
        <time>2020-07-14T05:09:53Z</time>
      </trkpt>
      <trkpt lat="37.5024890" lon="-2.7730520">
        <ele>798.4</ele>
        <time>2020-07-14T05:09:55Z</time>
      </trkpt>
      <trkpt lat="37.5026880" lon="-2.7730120">
        <ele>798.0</ele>
        <time>2020-07-14T05:09:58Z</time>
      </trkpt>
      <trkpt lat="37.5028200" lon="-2.7729830">
        <ele>797.8</ele>
        <time>2020-07-14T05:10:00Z</time>
      </trkpt>
      <trkpt lat="37.5029510" lon="-2.7729530">
        <ele>797.4</ele>
        <time>2020-07-14T05:10:02Z</time>
      </trkpt>
      <trkpt lat="37.5030690" lon="-2.7729090">
        <ele>797.2</ele>
        <time>2020-07-14T05:10:04Z</time>
      </trkpt>
      <trkpt lat="37.5031270" lon="-2.7728730">
        <ele>797.2</ele>
        <time>2020-07-14T05:10:05Z</time>
      </trkpt>
      <trkpt lat="37.5032880" lon="-2.7727630">
        <ele>797.0</ele>
        <time>2020-07-14T05:10:08Z</time>
      </trkpt>
      <trkpt lat="37.5033460" lon="-2.7727760">
        <ele>796.8</ele>
        <time>2020-07-14T05:10:09Z</time>
      </trkpt>
      <trkpt lat="37.5034520" lon="-2.7729160">
        <ele>796.6</ele>
        <time>2020-07-14T05:10:12Z</time>
      </trkpt>
      <trkpt lat="37.5036130" lon="-2.7730280">
        <ele>797.2</ele>
        <time>2020-07-14T05:10:16Z</time>
      </trkpt>
      <trkpt lat="37.5036610" lon="-2.7730490">
        <ele>797.4</ele>
        <time>2020-07-14T05:10:17Z</time>
      </trkpt>
      <trkpt lat="37.5037560" lon="-2.7730800">
        <ele>797.8</ele>
        <time>2020-07-14T05:10:19Z</time>
      </trkpt>
      <trkpt lat="37.5038020" lon="-2.7730900">
        <ele>798.0</ele>
        <time>2020-07-14T05:10:20Z</time>
      </trkpt>
      <trkpt lat="37.5038520" lon="-2.7731040">
        <ele>798.2</ele>
        <time>2020-07-14T05:10:21Z</time>
      </trkpt>
      <trkpt lat="37.5040010" lon="-2.7731440">
        <ele>798.4</ele>
        <time>2020-07-14T05:10:24Z</time>
      </trkpt>
      <trkpt lat="37.5042910" lon="-2.7732260">
        <ele>799.0</ele>
        <time>2020-07-14T05:10:30Z</time>
      </trkpt>
      <trkpt lat="37.5044370" lon="-2.7732740">
        <ele>799.4</ele>
        <time>2020-07-14T05:10:33Z</time>
      </trkpt>
      <trkpt lat="37.5046320" lon="-2.7733270">
        <ele>799.8</ele>
        <time>2020-07-14T05:10:37Z</time>
      </trkpt>
      <trkpt lat="37.5047770" lon="-2.7733660">
        <ele>800.0</ele>
        <time>2020-07-14T05:10:40Z</time>
      </trkpt>
      <trkpt lat="37.5048170" lon="-2.7733770">
        <ele>800.2</ele>
        <time>2020-07-14T05:10:41Z</time>
      </trkpt>
      <trkpt lat="37.5049220" lon="-2.7733920">
        <ele>800.4</ele>
        <time>2020-07-14T05:10:43Z</time>
      </trkpt>
      <trkpt lat="37.5051080" lon="-2.7734050">
        <ele>800.8</ele>
        <time>2020-07-14T05:10:47Z</time>
      </trkpt>
      <trkpt lat="37.5051530" lon="-2.7733980">
        <ele>800.8</ele>
        <time>2020-07-14T05:10:48Z</time>
      </trkpt>
      <trkpt lat="37.5052360" lon="-2.7733770">
        <ele>801.2</ele>
        <time>2020-07-14T05:10:50Z</time>
      </trkpt>
      <trkpt lat="37.5053150" lon="-2.7733500">
        <ele>801.4</ele>
        <time>2020-07-14T05:10:52Z</time>
      </trkpt>
      <trkpt lat="37.5054890" lon="-2.7732820">
        <ele>802.2</ele>
        <time>2020-07-14T05:10:57Z</time>
      </trkpt>
      <trkpt lat="37.5055490" lon="-2.7732560">
        <ele>803.0</ele>
        <time>2020-07-14T05:10:59Z</time>
      </trkpt>
      <trkpt lat="37.5055780" lon="-2.7732420">
        <ele>803.4</ele>
        <time>2020-07-14T05:11:00Z</time>
      </trkpt>
      <trkpt lat="37.5056750" lon="-2.7732230">
        <ele>804.4</ele>
        <time>2020-07-14T05:11:03Z</time>
      </trkpt>
      <trkpt lat="37.5057080" lon="-2.7732170">
        <ele>804.8</ele>
        <time>2020-07-14T05:11:04Z</time>
      </trkpt>
      <trkpt lat="37.5058030" lon="-2.7732070">
        <ele>805.4</ele>
        <time>2020-07-14T05:11:07Z</time>
      </trkpt>
      <trkpt lat="37.5059630" lon="-2.7732080">
        <ele>806.4</ele>
        <time>2020-07-14T05:11:12Z</time>
      </trkpt>
      <trkpt lat="37.5059950" lon="-2.7732120">
        <ele>806.6</ele>
        <time>2020-07-14T05:11:13Z</time>
      </trkpt>
      <trkpt lat="37.5061920" lon="-2.7732450">
        <ele>807.6</ele>
        <time>2020-07-14T05:11:19Z</time>
      </trkpt>
      <trkpt lat="37.5062570" lon="-2.7732630">
        <ele>807.8</ele>
        <time>2020-07-14T05:11:21Z</time>
      </trkpt>
      <trkpt lat="37.5064410" lon="-2.7733270">
        <ele>808.8</ele>
        <time>2020-07-14T05:11:27Z</time>
      </trkpt>
      <trkpt lat="37.5065320" lon="-2.7733540">
        <ele>809.4</ele>
        <time>2020-07-14T05:11:30Z</time>
      </trkpt>
      <trkpt lat="37.5066270" lon="-2.7733690">
        <ele>810.0</ele>
        <time>2020-07-14T05:11:33Z</time>
      </trkpt>
      <trkpt lat="37.5067990" lon="-2.7733820">
        <ele>810.8</ele>
        <time>2020-07-14T05:11:38Z</time>
      </trkpt>
      <trkpt lat="37.5069030" lon="-2.7733760">
        <ele>811.0</ele>
        <time>2020-07-14T05:11:41Z</time>
      </trkpt>
      <trkpt lat="37.5070720" lon="-2.7733720">
        <ele>811.4</ele>
        <time>2020-07-14T05:11:45Z</time>
      </trkpt>
      <trkpt lat="37.5073390" lon="-2.7732980">
        <ele>811.8</ele>
        <time>2020-07-14T05:11:52Z</time>
      </trkpt>
      <trkpt lat="37.5074040" lon="-2.7732530">
        <ele>812.2</ele>
        <time>2020-07-14T05:11:54Z</time>
      </trkpt>
      <trkpt lat="37.5075480" lon="-2.7731280">
        <ele>813.2</ele>
        <time>2020-07-14T05:11:59Z</time>
      </trkpt>
      <trkpt lat="37.5076590" lon="-2.7730240">
        <ele>814.2</ele>
        <time>2020-07-14T05:12:03Z</time>
      </trkpt>
      <trkpt lat="37.5077980" lon="-2.7729000">
        <ele>815.4</ele>
        <time>2020-07-14T05:12:08Z</time>
      </trkpt>
      <trkpt lat="37.5078230" lon="-2.7728710">
        <ele>815.6</ele>
        <time>2020-07-14T05:12:09Z</time>
      </trkpt>
      <trkpt lat="37.5079360" lon="-2.7727650">
        <ele>816.6</ele>
        <time>2020-07-14T05:12:13Z</time>
      </trkpt>
      <trkpt lat="37.5080870" lon="-2.7726390">
        <ele>817.6</ele>
        <time>2020-07-14T05:12:18Z</time>
      </trkpt>
      <trkpt lat="37.5081170" lon="-2.7726120">
        <ele>817.8</ele>
        <time>2020-07-14T05:12:19Z</time>
      </trkpt>
      <trkpt lat="37.5084750" lon="-2.7722900">
        <ele>818.4</ele>
        <time>2020-07-14T05:12:30Z</time>
      </trkpt>
      <trkpt lat="37.5087070" lon="-2.7721710">
        <ele>818.6</ele>
        <time>2020-07-14T05:12:35Z</time>
      </trkpt>
      <trkpt lat="37.5087730" lon="-2.7721620">
        <ele>818.6</ele>
        <time>2020-07-14T05:12:36Z</time>
      </trkpt>
      <trkpt lat="37.5090070" lon="-2.7722160">
        <ele>818.0</ele>
        <time>2020-07-14T05:12:40Z</time>
      </trkpt>
      <trkpt lat="37.5092070" lon="-2.7723760">
        <ele>817.8</ele>
        <time>2020-07-14T05:12:44Z</time>
      </trkpt>
      <trkpt lat="37.5092470" lon="-2.7724220">
        <ele>817.8</ele>
        <time>2020-07-14T05:12:45Z</time>
      </trkpt>
      <trkpt lat="37.5094820" lon="-2.7727180">
        <ele>818.2</ele>
        <time>2020-07-14T05:12:51Z</time>
      </trkpt>
      <trkpt lat="37.5095200" lon="-2.7727680">
        <ele>818.4</ele>
        <time>2020-07-14T05:12:52Z</time>
      </trkpt>
      <trkpt lat="37.5096560" lon="-2.7729560">
        <ele>818.6</ele>
        <time>2020-07-14T05:12:56Z</time>
      </trkpt>
      <trkpt lat="37.5097200" lon="-2.7730570">
        <ele>818.8</ele>
        <time>2020-07-14T05:12:58Z</time>
      </trkpt>
      <trkpt lat="37.5097540" lon="-2.7731020">
        <ele>818.8</ele>
        <time>2020-07-14T05:12:59Z</time>
      </trkpt>
      <trkpt lat="37.5098370" lon="-2.7731890">
        <ele>818.8</ele>
        <time>2020-07-14T05:13:01Z</time>
      </trkpt>
      <trkpt lat="37.5100000" lon="-2.7732710">
        <ele>819.2</ele>
        <time>2020-07-14T05:13:04Z</time>
      </trkpt>
      <trkpt lat="37.5100560" lon="-2.7732910">
        <ele>819.2</ele>
        <time>2020-07-14T05:13:05Z</time>
      </trkpt>
      <trkpt lat="37.5103530" lon="-2.7733860">
        <ele>818.4</ele>
        <time>2020-07-14T05:13:09Z</time>
      </trkpt>
      <trkpt lat="37.5105160" lon="-2.7734380">
        <ele>817.4</ele>
        <time>2020-07-14T05:13:11Z</time>
      </trkpt>
      <trkpt lat="37.5108030" lon="-2.7735200">
        <ele>816.0</ele>
        <time>2020-07-14T05:13:14Z</time>
      </trkpt>
      <trkpt lat="37.5110920" lon="-2.7735860">
        <ele>814.6</ele>
        <time>2020-07-14T05:13:17Z</time>
      </trkpt>
      <trkpt lat="37.5113360" lon="-2.7736320">
        <ele>813.2</ele>
        <time>2020-07-14T05:13:19Z</time>
      </trkpt>
      <trkpt lat="37.5114390" lon="-2.7736510">
        <ele>812.2</ele>
        <time>2020-07-14T05:13:20Z</time>
      </trkpt>
      <trkpt lat="37.5115540" lon="-2.7736770">
        <ele>811.4</ele>
        <time>2020-07-14T05:13:21Z</time>
      </trkpt>
      <trkpt lat="37.5116610" lon="-2.7737060">
        <ele>810.6</ele>
        <time>2020-07-14T05:13:22Z</time>
      </trkpt>
      <trkpt lat="37.5117600" lon="-2.7737380">
        <ele>809.8</ele>
        <time>2020-07-14T05:13:23Z</time>
      </trkpt>
      <trkpt lat="37.5119620" lon="-2.7738080">
        <ele>808.8</ele>
        <time>2020-07-14T05:13:25Z</time>
      </trkpt>
      <trkpt lat="37.5120650" lon="-2.7738400">
        <ele>808.2</ele>
        <time>2020-07-14T05:13:26Z</time>
      </trkpt>
      <trkpt lat="37.5123450" lon="-2.7739030">
        <ele>807.8</ele>
        <time>2020-07-14T05:13:29Z</time>
      </trkpt>
      <trkpt lat="37.5124360" lon="-2.7739150">
        <ele>807.8</ele>
        <time>2020-07-14T05:13:30Z</time>
      </trkpt>
      <trkpt lat="37.5125310" lon="-2.7739280">
        <ele>807.8</ele>
        <time>2020-07-14T05:13:31Z</time>
      </trkpt>
      <trkpt lat="37.5128630" lon="-2.7739760">
        <ele>807.2</ele>
        <time>2020-07-14T05:13:35Z</time>
      </trkpt>
      <trkpt lat="37.5132020" lon="-2.7740100">
        <ele>807.0</ele>
        <time>2020-07-14T05:13:39Z</time>
      </trkpt>
      <trkpt lat="37.5133680" lon="-2.7740260">
        <ele>807.2</ele>
        <time>2020-07-14T05:13:41Z</time>
      </trkpt>
      <trkpt lat="37.5135400" lon="-2.7740390">
        <ele>807.0</ele>
        <time>2020-07-14T05:13:43Z</time>
      </trkpt>
      <trkpt lat="37.5137810" lon="-2.7740580">
        <ele>807.2</ele>
        <time>2020-07-14T05:13:46Z</time>
      </trkpt>
      <trkpt lat="37.5140990" lon="-2.7740660">
        <ele>807.6</ele>
        <time>2020-07-14T05:13:50Z</time>
      </trkpt>
      <trkpt lat="37.5145840" lon="-2.7740700">
        <ele>807.0</ele>
        <time>2020-07-14T05:13:56Z</time>
      </trkpt>
      <trkpt lat="37.5148190" lon="-2.7740720">
        <ele>806.6</ele>
        <time>2020-07-14T05:13:59Z</time>
      </trkpt>
      <trkpt lat="37.5154040" lon="-2.7740920">
        <ele>806.0</ele>
        <time>2020-07-14T05:14:06Z</time>
      </trkpt>
      <trkpt lat="37.5155740" lon="-2.7741040">
        <ele>805.6</ele>
        <time>2020-07-14T05:14:08Z</time>
      </trkpt>
      <trkpt lat="37.5159180" lon="-2.7741380">
        <ele>804.6</ele>
        <time>2020-07-14T05:14:12Z</time>
      </trkpt>
      <trkpt lat="37.5163340" lon="-2.7742240">
        <ele>803.8</ele>
        <time>2020-07-14T05:14:17Z</time>
      </trkpt>
      <trkpt lat="37.5165020" lon="-2.7742680">
        <ele>803.6</ele>
        <time>2020-07-14T05:14:19Z</time>
      </trkpt>
      <trkpt lat="37.5170610" lon="-2.7743990">
        <ele>802.8</ele>
        <time>2020-07-14T05:14:26Z</time>
      </trkpt>
      <trkpt lat="37.5171350" lon="-2.7744140">
        <ele>802.8</ele>
        <time>2020-07-14T05:14:27Z</time>
      </trkpt>
      <trkpt lat="37.5175220" lon="-2.7745070">
        <ele>802.6</ele>
        <time>2020-07-14T05:14:32Z</time>
      </trkpt>
      <trkpt lat="37.5179010" lon="-2.7745920">
        <ele>802.2</ele>
        <time>2020-07-14T05:14:37Z</time>
      </trkpt>
      <trkpt lat="37.5180540" lon="-2.7745960">
        <ele>802.2</ele>
        <time>2020-07-14T05:14:39Z</time>
      </trkpt>
      <trkpt lat="37.5182000" lon="-2.7745650">
        <ele>802.2</ele>
        <time>2020-07-14T05:14:41Z</time>
      </trkpt>
      <trkpt lat="37.5185490" lon="-2.7743820">
        <ele>802.0</ele>
        <time>2020-07-14T05:14:46Z</time>
      </trkpt>
      <trkpt lat="37.5189880" lon="-2.7741010">
        <ele>802.2</ele>
        <time>2020-07-14T05:14:53Z</time>
      </trkpt>
      <trkpt lat="37.5193420" lon="-2.7740290">
        <ele>802.6</ele>
        <time>2020-07-14T05:14:58Z</time>
      </trkpt>
      <trkpt lat="37.5197940" lon="-2.7740600">
        <ele>802.0</ele>
        <time>2020-07-14T05:15:04Z</time>
      </trkpt>
      <trkpt lat="37.5201180" lon="-2.7741510">
        <ele>801.4</ele>
        <time>2020-07-14T05:15:08Z</time>
      </trkpt>
      <trkpt lat="37.5202820" lon="-2.7742070">
        <ele>801.0</ele>
        <time>2020-07-14T05:15:10Z</time>
      </trkpt>
      <trkpt lat="37.5205420" lon="-2.7742860">
        <ele>800.0</ele>
        <time>2020-07-14T05:15:13Z</time>
      </trkpt>
      <trkpt lat="37.5207090" lon="-2.7743360">
        <ele>799.2</ele>
        <time>2020-07-14T05:15:15Z</time>
      </trkpt>
      <trkpt lat="37.5207970" lon="-2.7743630">
        <ele>798.6</ele>
        <time>2020-07-14T05:15:16Z</time>
      </trkpt>
      <trkpt lat="37.5212140" lon="-2.7744820">
        <ele>797.8</ele>
        <time>2020-07-14T05:15:21Z</time>
      </trkpt>
      <trkpt lat="37.5215470" lon="-2.7745430">
        <ele>797.6</ele>
        <time>2020-07-14T05:15:25Z</time>
      </trkpt>
      <trkpt lat="37.5218870" lon="-2.7745750">
        <ele>797.0</ele>
        <time>2020-07-14T05:15:29Z</time>
      </trkpt>
      <trkpt lat="37.5222310" lon="-2.7745940">
        <ele>796.6</ele>
        <time>2020-07-14T05:15:33Z</time>
      </trkpt>
      <trkpt lat="37.5227960" lon="-2.7746000">
        <ele>796.0</ele>
        <time>2020-07-14T05:15:40Z</time>
      </trkpt>
      <trkpt lat="37.5233380" lon="-2.7746590">
        <ele>795.8</ele>
        <time>2020-07-14T05:15:47Z</time>
      </trkpt>
      <trkpt lat="37.5237940" lon="-2.7747590">
        <ele>795.6</ele>
        <time>2020-07-14T05:15:53Z</time>
      </trkpt>
      <trkpt lat="37.5241900" lon="-2.7748810">
        <ele>795.4</ele>
        <time>2020-07-14T05:15:58Z</time>
      </trkpt>
      <trkpt lat="37.5243370" lon="-2.7749640">
        <ele>795.0</ele>
        <time>2020-07-14T05:16:00Z</time>
      </trkpt>
      <trkpt lat="37.5244710" lon="-2.7750910">
        <ele>794.6</ele>
        <time>2020-07-14T05:16:02Z</time>
      </trkpt>
      <trkpt lat="37.5245330" lon="-2.7751550">
        <ele>794.4</ele>
        <time>2020-07-14T05:16:03Z</time>
      </trkpt>
      <trkpt lat="37.5248710" lon="-2.7754330">
        <ele>793.8</ele>
        <time>2020-07-14T05:16:08Z</time>
      </trkpt>
      <trkpt lat="37.5249470" lon="-2.7754670">
        <ele>793.6</ele>
        <time>2020-07-14T05:16:09Z</time>
      </trkpt>
      <trkpt lat="37.5251850" lon="-2.7755480">
        <ele>793.4</ele>
        <time>2020-07-14T05:16:12Z</time>
      </trkpt>
      <trkpt lat="37.5253550" lon="-2.7755890">
        <ele>793.0</ele>
        <time>2020-07-14T05:16:14Z</time>
      </trkpt>
      <trkpt lat="37.5256210" lon="-2.7756790">
        <ele>792.2</ele>
        <time>2020-07-14T05:16:17Z</time>
      </trkpt>
      <trkpt lat="37.5258200" lon="-2.7757680">
        <ele>791.4</ele>
        <time>2020-07-14T05:16:19Z</time>
      </trkpt>
      <trkpt lat="37.5259140" lon="-2.7758170">
        <ele>791.0</ele>
        <time>2020-07-14T05:16:20Z</time>
      </trkpt>
      <trkpt lat="37.5261200" lon="-2.7759250">
        <ele>789.6</ele>
        <time>2020-07-14T05:16:22Z</time>
      </trkpt>
      <trkpt lat="37.5262230" lon="-2.7759810">
        <ele>788.6</ele>
        <time>2020-07-14T05:16:23Z</time>
      </trkpt>
      <trkpt lat="37.5264250" lon="-2.7760960">
        <ele>786.8</ele>
        <time>2020-07-14T05:16:25Z</time>
      </trkpt>
      <trkpt lat="37.5265310" lon="-2.7761340">
        <ele>786.0</ele>
        <time>2020-07-14T05:16:26Z</time>
      </trkpt>
      <trkpt lat="37.5266300" lon="-2.7761460">
        <ele>785.2</ele>
        <time>2020-07-14T05:16:27Z</time>
      </trkpt>
      <trkpt lat="37.5267320" lon="-2.7761390">
        <ele>784.8</ele>
        <time>2020-07-14T05:16:28Z</time>
      </trkpt>
      <trkpt lat="37.5269060" lon="-2.7760710">
        <ele>783.8</ele>
        <time>2020-07-14T05:16:30Z</time>
      </trkpt>
      <trkpt lat="37.5269930" lon="-2.7760260">
        <ele>783.8</ele>
        <time>2020-07-14T05:16:31Z</time>
      </trkpt>
      <trkpt lat="37.5274000" lon="-2.7759220">
        <ele>784.4</ele>
        <time>2020-07-14T05:16:36Z</time>
      </trkpt>
      <trkpt lat="37.5276300" lon="-2.7758900">
        <ele>785.0</ele>
        <time>2020-07-14T05:16:39Z</time>
      </trkpt>
      <trkpt lat="37.5279120" lon="-2.7758500">
        <ele>785.8</ele>
        <time>2020-07-14T05:16:43Z</time>
      </trkpt>
      <trkpt lat="37.5279880" lon="-2.7758430">
        <ele>786.0</ele>
        <time>2020-07-14T05:16:44Z</time>
      </trkpt>
      <trkpt lat="37.5283320" lon="-2.7758110">
        <ele>786.0</ele>
        <time>2020-07-14T05:16:48Z</time>
      </trkpt>
      <trkpt lat="37.5286230" lon="-2.7758020">
        <ele>784.6</ele>
        <time>2020-07-14T05:16:51Z</time>
      </trkpt>
      <trkpt lat="37.5289370" lon="-2.7758180">
        <ele>783.2</ele>
        <time>2020-07-14T05:16:54Z</time>
      </trkpt>
      <trkpt lat="37.5291540" lon="-2.7758480">
        <ele>782.0</ele>
        <time>2020-07-14T05:16:56Z</time>
      </trkpt>
      <trkpt lat="37.5293710" lon="-2.7758780">
        <ele>780.6</ele>
        <time>2020-07-14T05:16:58Z</time>
      </trkpt>
      <trkpt lat="37.5296900" lon="-2.7759300">
        <ele>779.4</ele>
        <time>2020-07-14T05:17:01Z</time>
      </trkpt>
      <trkpt lat="37.5299010" lon="-2.7759590">
        <ele>778.2</ele>
        <time>2020-07-14T05:17:03Z</time>
      </trkpt>
      <trkpt lat="37.5301980" lon="-2.7759970">
        <ele>777.0</ele>
        <time>2020-07-14T05:17:06Z</time>
      </trkpt>
      <trkpt lat="37.5303900" lon="-2.7760180">
        <ele>776.8</ele>
        <time>2020-07-14T05:17:08Z</time>
      </trkpt>
      <trkpt lat="37.5309400" lon="-2.7760870">
        <ele>776.2</ele>
        <time>2020-07-14T05:17:14Z</time>
      </trkpt>
      <trkpt lat="37.5311190" lon="-2.7761130">
        <ele>776.0</ele>
        <time>2020-07-14T05:17:16Z</time>
      </trkpt>
      <trkpt lat="37.5312970" lon="-2.7761370">
        <ele>775.6</ele>
        <time>2020-07-14T05:17:18Z</time>
      </trkpt>
      <trkpt lat="37.5316430" lon="-2.7761840">
        <ele>775.4</ele>
        <time>2020-07-14T05:17:22Z</time>
      </trkpt>
      <trkpt lat="37.5318880" lon="-2.7761740">
        <ele>775.4</ele>
        <time>2020-07-14T05:17:25Z</time>
      </trkpt>
      <trkpt lat="37.5322210" lon="-2.7761280">
        <ele>775.0</ele>
        <time>2020-07-14T05:17:29Z</time>
      </trkpt>
      <trkpt lat="37.5324760" lon="-2.7760430">
        <ele>774.2</ele>
        <time>2020-07-14T05:17:32Z</time>
      </trkpt>
      <trkpt lat="37.5326450" lon="-2.7759450">
        <ele>773.8</ele>
        <time>2020-07-14T05:17:34Z</time>
      </trkpt>
      <trkpt lat="37.5329020" lon="-2.7758160">
        <ele>773.0</ele>
        <time>2020-07-14T05:17:37Z</time>
      </trkpt>
      <trkpt lat="37.5329980" lon="-2.7757960">
        <ele>772.6</ele>
        <time>2020-07-14T05:17:38Z</time>
      </trkpt>
      <trkpt lat="37.5331780" lon="-2.7757900">
        <ele>772.0</ele>
        <time>2020-07-14T05:17:40Z</time>
      </trkpt>
      <trkpt lat="37.5332700" lon="-2.7757930">
        <ele>771.4</ele>
        <time>2020-07-14T05:17:41Z</time>
      </trkpt>
      <trkpt lat="37.5338180" lon="-2.7758070">
        <ele>770.6</ele>
        <time>2020-07-14T05:17:47Z</time>
      </trkpt>
      <trkpt lat="37.5339130" lon="-2.7758080">
        <ele>770.4</ele>
        <time>2020-07-14T05:17:48Z</time>
      </trkpt>
      <trkpt lat="37.5344610" lon="-2.7758050">
        <ele>769.6</ele>
        <time>2020-07-14T05:17:54Z</time>
      </trkpt>
      <trkpt lat="37.5345470" lon="-2.7758020">
        <ele>769.4</ele>
        <time>2020-07-14T05:17:55Z</time>
      </trkpt>
      <trkpt lat="37.5349080" lon="-2.7757860">
        <ele>768.8</ele>
        <time>2020-07-14T05:17:59Z</time>
      </trkpt>
      <trkpt lat="37.5351760" lon="-2.7757430">
        <ele>768.2</ele>
        <time>2020-07-14T05:18:02Z</time>
      </trkpt>
      <trkpt lat="37.5353460" lon="-2.7756670">
        <ele>768.0</ele>
        <time>2020-07-14T05:18:04Z</time>
      </trkpt>
      <trkpt lat="37.5356070" lon="-2.7755970">
        <ele>767.6</ele>
        <time>2020-07-14T05:18:07Z</time>
      </trkpt>
      <trkpt lat="37.5357930" lon="-2.7755940">
        <ele>767.4</ele>
        <time>2020-07-14T05:18:09Z</time>
      </trkpt>
      <trkpt lat="37.5359710" lon="-2.7756030">
        <ele>767.0</ele>
        <time>2020-07-14T05:18:11Z</time>
      </trkpt>
      <trkpt lat="37.5362500" lon="-2.7756200">
        <ele>766.0</ele>
        <time>2020-07-14T05:18:14Z</time>
      </trkpt>
      <trkpt lat="37.5365170" lon="-2.7756380">
        <ele>765.6</ele>
        <time>2020-07-14T05:18:17Z</time>
      </trkpt>
      <trkpt lat="37.5367910" lon="-2.7756320">
        <ele>765.0</ele>
        <time>2020-07-14T05:18:20Z</time>
      </trkpt>
      <trkpt lat="37.5368860" lon="-2.7756090">
        <ele>764.8</ele>
        <time>2020-07-14T05:18:21Z</time>
      </trkpt>
      <trkpt lat="37.5369760" lon="-2.7755790">
        <ele>764.6</ele>
        <time>2020-07-14T05:18:22Z</time>
      </trkpt>
      <trkpt lat="37.5375250" lon="-2.7753560">
        <ele>763.6</ele>
        <time>2020-07-14T05:18:28Z</time>
      </trkpt>
      <trkpt lat="37.5376140" lon="-2.7753150">
        <ele>763.2</ele>
        <time>2020-07-14T05:18:29Z</time>
      </trkpt>
      <trkpt lat="37.5380460" lon="-2.7751030">
        <ele>762.6</ele>
        <time>2020-07-14T05:18:34Z</time>
      </trkpt>
      <trkpt lat="37.5381480" lon="-2.7750720">
        <ele>762.4</ele>
        <time>2020-07-14T05:18:35Z</time>
      </trkpt>
      <trkpt lat="37.5385200" lon="-2.7750500">
        <ele>761.6</ele>
        <time>2020-07-14T05:18:39Z</time>
      </trkpt>
      <trkpt lat="37.5386160" lon="-2.7750560">
        <ele>761.4</ele>
        <time>2020-07-14T05:18:40Z</time>
      </trkpt>
      <trkpt lat="37.5389970" lon="-2.7750920">
        <ele>760.2</ele>
        <time>2020-07-14T05:18:44Z</time>
      </trkpt>
      <trkpt lat="37.5391820" lon="-2.7751130">
        <ele>759.8</ele>
        <time>2020-07-14T05:18:46Z</time>
      </trkpt>
      <trkpt lat="37.5392850" lon="-2.7751210">
        <ele>759.6</ele>
        <time>2020-07-14T05:18:47Z</time>
      </trkpt>
      <trkpt lat="37.5393770" lon="-2.7751290">
        <ele>759.2</ele>
        <time>2020-07-14T05:18:48Z</time>
      </trkpt>
      <trkpt lat="37.5397480" lon="-2.7751580">
        <ele>758.2</ele>
        <time>2020-07-14T05:18:52Z</time>
      </trkpt>
      <trkpt lat="37.5399400" lon="-2.7751370">
        <ele>757.8</ele>
        <time>2020-07-14T05:18:54Z</time>
      </trkpt>
      <trkpt lat="37.5402340" lon="-2.7750550">
        <ele>756.6</ele>
        <time>2020-07-14T05:18:57Z</time>
      </trkpt>
      <trkpt lat="37.5404190" lon="-2.7749760">
        <ele>756.0</ele>
        <time>2020-07-14T05:18:59Z</time>
      </trkpt>
      <trkpt lat="37.5405170" lon="-2.7749300">
        <ele>755.6</ele>
        <time>2020-07-14T05:19:00Z</time>
      </trkpt>
      <trkpt lat="37.5407950" lon="-2.7747930">
        <ele>754.6</ele>
        <time>2020-07-14T05:19:03Z</time>
      </trkpt>
      <trkpt lat="37.5410820" lon="-2.7747000">
        <ele>754.0</ele>
        <time>2020-07-14T05:19:06Z</time>
      </trkpt>
      <trkpt lat="37.5413720" lon="-2.7747060">
        <ele>753.4</ele>
        <time>2020-07-14T05:19:09Z</time>
      </trkpt>
      <trkpt lat="37.5414650" lon="-2.7747300">
        <ele>753.4</ele>
        <time>2020-07-14T05:19:10Z</time>
      </trkpt>
      <trkpt lat="37.5417950" lon="-2.7749000">
        <ele>753.4</ele>
        <time>2020-07-14T05:19:14Z</time>
      </trkpt>
      <trkpt lat="37.5423030" lon="-2.7752900">
        <ele>752.6</ele>
        <time>2020-07-14T05:19:21Z</time>
      </trkpt>
      <trkpt lat="37.5424520" lon="-2.7753810">
        <ele>752.4</ele>
        <time>2020-07-14T05:19:23Z</time>
      </trkpt>
      <trkpt lat="37.5426860" lon="-2.7754730">
        <ele>752.2</ele>
        <time>2020-07-14T05:19:26Z</time>
      </trkpt>
      <trkpt lat="37.5432490" lon="-2.7755960">
        <ele>752.0</ele>
        <time>2020-07-14T05:19:33Z</time>
      </trkpt>
      <trkpt lat="37.5437870" lon="-2.7757010">
        <ele>751.6</ele>
        <time>2020-07-14T05:19:40Z</time>
      </trkpt>
      <trkpt lat="37.5440270" lon="-2.7757470">
        <ele>751.4</ele>
        <time>2020-07-14T05:19:43Z</time>
      </trkpt>
      <trkpt lat="37.5441840" lon="-2.7757740">
        <ele>751.4</ele>
        <time>2020-07-14T05:19:45Z</time>
      </trkpt>
      <trkpt lat="37.5443440" lon="-2.7758000">
        <ele>751.4</ele>
        <time>2020-07-14T05:19:47Z</time>
      </trkpt>
      <trkpt lat="37.5444230" lon="-2.7758130">
        <ele>751.4</ele>
        <time>2020-07-14T05:19:48Z</time>
      </trkpt>
      <trkpt lat="37.5448870" lon="-2.7758980">
        <ele>751.0</ele>
        <time>2020-07-14T05:19:54Z</time>
      </trkpt>
      <trkpt lat="37.5449670" lon="-2.7759100">
        <ele>751.0</ele>
        <time>2020-07-14T05:19:55Z</time>
      </trkpt>
      <trkpt lat="37.5453460" lon="-2.7759220">
        <ele>750.8</ele>
        <time>2020-07-14T05:20:00Z</time>
      </trkpt>
      <trkpt lat="37.5454920" lon="-2.7758970">
        <ele>750.6</ele>
        <time>2020-07-14T05:20:02Z</time>
      </trkpt>
      <trkpt lat="37.5459450" lon="-2.7758020">
        <ele>750.8</ele>
        <time>2020-07-14T05:20:08Z</time>
      </trkpt>
      <trkpt lat="37.5462410" lon="-2.7757570">
        <ele>751.0</ele>
        <time>2020-07-14T05:20:12Z</time>
      </trkpt>
      <trkpt lat="37.5464560" lon="-2.7757290">
        <ele>750.8</ele>
        <time>2020-07-14T05:20:15Z</time>
      </trkpt>
      <trkpt lat="37.5466770" lon="-2.7757120">
        <ele>750.8</ele>
        <time>2020-07-14T05:20:18Z</time>
      </trkpt>
      <trkpt lat="37.5472570" lon="-2.7757130">
        <ele>750.8</ele>
        <time>2020-07-14T05:20:26Z</time>
      </trkpt>
      <trkpt lat="37.5474000" lon="-2.7757190">
        <ele>750.8</ele>
        <time>2020-07-14T05:20:28Z</time>
      </trkpt>
      <trkpt lat="37.5480030" lon="-2.7757060">
        <ele>750.6</ele>
        <time>2020-07-14T05:20:36Z</time>
      </trkpt>
      <trkpt lat="37.5481550" lon="-2.7756720">
        <ele>750.4</ele>
        <time>2020-07-14T05:20:38Z</time>
      </trkpt>
      <trkpt lat="37.5482270" lon="-2.7756480">
        <ele>750.2</ele>
        <time>2020-07-14T05:20:39Z</time>
      </trkpt>
      <trkpt lat="37.5487680" lon="-2.7754720">
        <ele>749.6</ele>
        <time>2020-07-14T05:20:46Z</time>
      </trkpt>
      <trkpt lat="37.5488480" lon="-2.7754680">
        <ele>749.6</ele>
        <time>2020-07-14T05:20:47Z</time>
      </trkpt>
      <trkpt lat="37.5490930" lon="-2.7754990">
        <ele>749.2</ele>
        <time>2020-07-14T05:20:50Z</time>
      </trkpt>
      <trkpt lat="37.5492630" lon="-2.7755560">
        <ele>749.0</ele>
        <time>2020-07-14T05:20:52Z</time>
      </trkpt>
      <trkpt lat="37.5494510" lon="-2.7756390">
        <ele>748.0</ele>
        <time>2020-07-14T05:20:54Z</time>
      </trkpt>
      <trkpt lat="37.5496470" lon="-2.7757460">
        <ele>747.0</ele>
        <time>2020-07-14T05:20:56Z</time>
      </trkpt>
      <trkpt lat="37.5498260" lon="-2.7758680">
        <ele>745.4</ele>
        <time>2020-07-14T05:20:58Z</time>
      </trkpt>
      <trkpt lat="37.5499910" lon="-2.7759630">
        <ele>744.2</ele>
        <time>2020-07-14T05:21:00Z</time>
      </trkpt>
      <trkpt lat="37.5500610" lon="-2.7759960">
        <ele>743.6</ele>
        <time>2020-07-14T05:21:01Z</time>
      </trkpt>
      <trkpt lat="37.5503100" lon="-2.7760620">
        <ele>745.6</ele>
        <time>2020-07-14T05:21:05Z</time>
      </trkpt>
      <trkpt lat="37.5504270" lon="-2.7760760">
        <ele>746.8</ele>
        <time>2020-07-14T05:21:07Z</time>
      </trkpt>
      <trkpt lat="37.5506040" lon="-2.7760810">
        <ele>747.8</ele>
        <time>2020-07-14T05:21:10Z</time>
      </trkpt>
      <trkpt lat="37.5506700" lon="-2.7760810">
        <ele>748.0</ele>
        <time>2020-07-14T05:21:11Z</time>
      </trkpt>
      <trkpt lat="37.5508000" lon="-2.7760820">
        <ele>748.4</ele>
        <time>2020-07-14T05:21:13Z</time>
      </trkpt>
      <trkpt lat="37.5512020" lon="-2.7760960">
        <ele>748.6</ele>
        <time>2020-07-14T05:21:19Z</time>
      </trkpt>
      <trkpt lat="37.5512730" lon="-2.7760940">
        <ele>748.6</ele>
        <time>2020-07-14T05:21:20Z</time>
      </trkpt>
      <trkpt lat="37.5518170" lon="-2.7761360">
        <ele>748.6</ele>
        <time>2020-07-14T05:21:28Z</time>
      </trkpt>
      <trkpt lat="37.5523560" lon="-2.7762520">
        <ele>748.4</ele>
        <time>2020-07-14T05:21:36Z</time>
      </trkpt>
      <trkpt lat="37.5525510" lon="-2.7763080">
        <ele>748.6</ele>
        <time>2020-07-14T05:21:39Z</time>
      </trkpt>
      <trkpt lat="37.5528840" lon="-2.7763920">
        <ele>749.0</ele>
        <time>2020-07-14T05:21:44Z</time>
      </trkpt>
      <trkpt lat="37.5534260" lon="-2.7765070">
        <ele>748.8</ele>
        <time>2020-07-14T05:21:52Z</time>
      </trkpt>
      <trkpt lat="37.5539720" lon="-2.7766140">
        <ele>749.2</ele>
        <time>2020-07-14T05:22:00Z</time>
      </trkpt>
      <trkpt lat="37.5542390" lon="-2.7766720">
        <ele>749.6</ele>
        <time>2020-07-14T05:22:04Z</time>
      </trkpt>
      <trkpt lat="37.5548240" lon="-2.7767890">
        <ele>749.4</ele>
        <time>2020-07-14T05:22:12Z</time>
      </trkpt>
      <trkpt lat="37.5550440" lon="-2.7768300">
        <ele>749.2</ele>
        <time>2020-07-14T05:22:15Z</time>
      </trkpt>
      <trkpt lat="37.5556340" lon="-2.7769430">
        <ele>748.6</ele>
        <time>2020-07-14T05:22:23Z</time>
      </trkpt>
      <trkpt lat="37.5558600" lon="-2.7769750">
        <ele>748.4</ele>
        <time>2020-07-14T05:22:26Z</time>
      </trkpt>
      <trkpt lat="37.5559380" lon="-2.7769810">
        <ele>748.4</ele>
        <time>2020-07-14T05:22:27Z</time>
      </trkpt>
      <trkpt lat="37.5560920" lon="-2.7769860">
        <ele>747.8</ele>
        <time>2020-07-14T05:22:29Z</time>
      </trkpt>
      <trkpt lat="37.5563470" lon="-2.7769590">
        <ele>747.2</ele>
        <time>2020-07-14T05:22:32Z</time>
      </trkpt>
      <trkpt lat="37.5564370" lon="-2.7769470">
        <ele>746.8</ele>
        <time>2020-07-14T05:22:33Z</time>
      </trkpt>
      <trkpt lat="37.5566210" lon="-2.7769210">
        <ele>746.2</ele>
        <time>2020-07-14T05:22:35Z</time>
      </trkpt>
      <trkpt lat="37.5567160" lon="-2.7769100">
        <ele>745.6</ele>
        <time>2020-07-14T05:22:36Z</time>
      </trkpt>
      <trkpt lat="37.5568110" lon="-2.7768980">
        <ele>744.8</ele>
        <time>2020-07-14T05:22:37Z</time>
      </trkpt>
      <trkpt lat="37.5569090" lon="-2.7768830">
        <ele>744.2</ele>
        <time>2020-07-14T05:22:38Z</time>
      </trkpt>
      <trkpt lat="37.5570960" lon="-2.7768500">
        <ele>743.4</ele>
        <time>2020-07-14T05:22:40Z</time>
      </trkpt>
      <trkpt lat="37.5572890" lon="-2.7768220">
        <ele>743.0</ele>
        <time>2020-07-14T05:22:42Z</time>
      </trkpt>
      <trkpt lat="37.5574750" lon="-2.7768210">
        <ele>742.2</ele>
        <time>2020-07-14T05:22:44Z</time>
      </trkpt>
      <trkpt lat="37.5575730" lon="-2.7768280">
        <ele>742.0</ele>
        <time>2020-07-14T05:22:45Z</time>
      </trkpt>
      <trkpt lat="37.5576600" lon="-2.7768380">
        <ele>741.4</ele>
        <time>2020-07-14T05:22:46Z</time>
      </trkpt>
      <trkpt lat="37.5579290" lon="-2.7768770">
        <ele>741.4</ele>
        <time>2020-07-14T05:22:49Z</time>
      </trkpt>
      <trkpt lat="37.5581860" lon="-2.7769160">
        <ele>741.0</ele>
        <time>2020-07-14T05:22:52Z</time>
      </trkpt>
      <trkpt lat="37.5583510" lon="-2.7769450">
        <ele>740.2</ele>
        <time>2020-07-14T05:22:54Z</time>
      </trkpt>
      <trkpt lat="37.5587580" lon="-2.7770080">
        <ele>739.6</ele>
        <time>2020-07-14T05:22:59Z</time>
      </trkpt>
      <trkpt lat="37.5588440" lon="-2.7770110">
        <ele>739.6</ele>
        <time>2020-07-14T05:23:00Z</time>
      </trkpt>
      <trkpt lat="37.5591800" lon="-2.7770000">
        <ele>739.0</ele>
        <time>2020-07-14T05:23:04Z</time>
      </trkpt>
      <trkpt lat="37.5594040" lon="-2.7769530">
        <ele>739.0</ele>
        <time>2020-07-14T05:23:07Z</time>
      </trkpt>
      <trkpt lat="37.5596570" lon="-2.7768720">
        <ele>738.8</ele>
        <time>2020-07-14T05:23:11Z</time>
      </trkpt>
      <trkpt lat="37.5597990" lon="-2.7768620">
        <ele>738.4</ele>
        <time>2020-07-14T05:23:13Z</time>
      </trkpt>
      <trkpt lat="37.5599500" lon="-2.7768660">
        <ele>737.8</ele>
        <time>2020-07-14T05:23:15Z</time>
      </trkpt>
      <trkpt lat="37.5600200" lon="-2.7768790">
        <ele>737.6</ele>
        <time>2020-07-14T05:23:16Z</time>
      </trkpt>
      <trkpt lat="37.5601890" lon="-2.7768960">
        <ele>736.8</ele>
        <time>2020-07-14T05:23:18Z</time>
      </trkpt>
      <trkpt lat="37.5604450" lon="-2.7768950">
        <ele>735.6</ele>
        <time>2020-07-14T05:23:21Z</time>
      </trkpt>
      <trkpt lat="37.5606290" lon="-2.7768770">
        <ele>735.4</ele>
        <time>2020-07-14T05:23:23Z</time>
      </trkpt>
      <trkpt lat="37.5607150" lon="-2.7768560">
        <ele>735.2</ele>
        <time>2020-07-14T05:23:24Z</time>
      </trkpt>
      <trkpt lat="37.5608960" lon="-2.7768000">
        <ele>734.8</ele>
        <time>2020-07-14T05:23:26Z</time>
      </trkpt>
      <trkpt lat="37.5609830" lon="-2.7767680">
        <ele>734.4</ele>
        <time>2020-07-14T05:23:27Z</time>
      </trkpt>
      <trkpt lat="37.5612360" lon="-2.7766740">
        <ele>733.2</ele>
        <time>2020-07-14T05:23:30Z</time>
      </trkpt>
      <trkpt lat="37.5615570" lon="-2.7765630">
        <ele>732.4</ele>
        <time>2020-07-14T05:23:34Z</time>
      </trkpt>
      <trkpt lat="37.5616440" lon="-2.7765260">
        <ele>732.2</ele>
        <time>2020-07-14T05:23:35Z</time>
      </trkpt>
      <trkpt lat="37.5617180" lon="-2.7764830">
        <ele>731.8</ele>
        <time>2020-07-14T05:23:36Z</time>
      </trkpt>
      <trkpt lat="37.5618590" lon="-2.7763840">
        <ele>731.6</ele>
        <time>2020-07-14T05:23:38Z</time>
      </trkpt>
      <trkpt lat="37.5623700" lon="-2.7760330">
        <ele>731.4</ele>
        <time>2020-07-14T05:23:45Z</time>
      </trkpt>
      <trkpt lat="37.5624300" lon="-2.7759950">
        <ele>731.2</ele>
        <time>2020-07-14T05:23:46Z</time>
      </trkpt>
      <trkpt lat="37.5625300" lon="-2.7759350">
        <ele>731.0</ele>
        <time>2020-07-14T05:23:47Z</time>
      </trkpt>
      <trkpt lat="37.5628810" lon="-2.7757400">
        <ele>729.8</ele>
        <time>2020-07-14T05:23:51Z</time>
      </trkpt>
      <trkpt lat="37.5629750" lon="-2.7757070">
        <ele>729.4</ele>
        <time>2020-07-14T05:23:52Z</time>
      </trkpt>
      <trkpt lat="37.5630860" lon="-2.7756840">
        <ele>728.8</ele>
        <time>2020-07-14T05:23:53Z</time>
      </trkpt>
      <trkpt lat="37.5633020" lon="-2.7756630">
        <ele>727.6</ele>
        <time>2020-07-14T05:23:55Z</time>
      </trkpt>
      <trkpt lat="37.5634100" lon="-2.7756570">
        <ele>727.2</ele>
        <time>2020-07-14T05:23:56Z</time>
      </trkpt>
      <trkpt lat="37.5635100" lon="-2.7756560">
        <ele>726.4</ele>
        <time>2020-07-14T05:23:57Z</time>
      </trkpt>
      <trkpt lat="37.5636800" lon="-2.7756660">
        <ele>725.2</ele>
        <time>2020-07-14T05:23:59Z</time>
      </trkpt>
      <trkpt lat="37.5638390" lon="-2.7756800">
        <ele>723.6</ele>
        <time>2020-07-14T05:24:01Z</time>
      </trkpt>
      <trkpt lat="37.5639550" lon="-2.7756930">
        <ele>722.8</ele>
        <time>2020-07-14T05:24:03Z</time>
      </trkpt>
      <trkpt lat="37.5639940" lon="-2.7756970">
        <ele>722.6</ele>
        <time>2020-07-14T05:24:04Z</time>
      </trkpt>
      <trkpt lat="37.5640760" lon="-2.7757190">
        <ele>722.0</ele>
        <time>2020-07-14T05:24:06Z</time>
      </trkpt>
      <trkpt lat="37.5641140" lon="-2.7757460">
        <ele>721.6</ele>
        <time>2020-07-14T05:24:07Z</time>
      </trkpt>
      <trkpt lat="37.5641490" lon="-2.7757850">
        <ele>721.2</ele>
        <time>2020-07-14T05:24:08Z</time>
      </trkpt>
      <trkpt lat="37.5642490" lon="-2.7759380">
        <ele>720.4</ele>
        <time>2020-07-14T05:24:11Z</time>
      </trkpt>
      <trkpt lat="37.5642890" lon="-2.7759940">
        <ele>720.2</ele>
        <time>2020-07-14T05:24:12Z</time>
      </trkpt>
      <trkpt lat="37.5643710" lon="-2.7760930">
        <ele>720.0</ele>
        <time>2020-07-14T05:24:14Z</time>
      </trkpt>
      <trkpt lat="37.5645230" lon="-2.7762290">
        <ele>720.0</ele>
        <time>2020-07-14T05:24:17Z</time>
      </trkpt>
      <trkpt lat="37.5648120" lon="-2.7763760">
        <ele>720.0</ele>
        <time>2020-07-14T05:24:22Z</time>
      </trkpt>
      <trkpt lat="37.5651900" lon="-2.7764980">
        <ele>720.0</ele>
        <time>2020-07-14T05:24:28Z</time>
      </trkpt>
      <trkpt lat="37.5653830" lon="-2.7765580">
        <ele>720.2</ele>
        <time>2020-07-14T05:24:31Z</time>
      </trkpt>
      <trkpt lat="37.5656410" lon="-2.7766370">
        <ele>720.2</ele>
        <time>2020-07-14T05:24:35Z</time>
      </trkpt>
      <trkpt lat="37.5658330" lon="-2.7766970">
        <ele>720.2</ele>
        <time>2020-07-14T05:24:38Z</time>
      </trkpt>
      <trkpt lat="37.5660250" lon="-2.7767460">
        <ele>720.2</ele>
        <time>2020-07-14T05:24:41Z</time>
      </trkpt>
      <trkpt lat="37.5662920" lon="-2.7767950">
        <ele>720.2</ele>
        <time>2020-07-14T05:24:45Z</time>
      </trkpt>
      <trkpt lat="37.5666260" lon="-2.7768140">
        <ele>720.2</ele>
        <time>2020-07-14T05:24:50Z</time>
      </trkpt>
      <trkpt lat="37.5670960" lon="-2.7767470">
        <ele>720.2</ele>
        <time>2020-07-14T05:24:57Z</time>
      </trkpt>
      <trkpt lat="37.5676310" lon="-2.7766170">
        <ele>720.4</ele>
        <time>2020-07-14T05:25:05Z</time>
      </trkpt>
      <trkpt lat="37.5676950" lon="-2.7766000">
        <ele>720.4</ele>
        <time>2020-07-14T05:25:06Z</time>
      </trkpt>
      <trkpt lat="37.5682310" lon="-2.7764650">
        <ele>720.4</ele>
        <time>2020-07-14T05:25:14Z</time>
      </trkpt>
      <trkpt lat="37.5683620" lon="-2.7764360">
        <ele>720.4</ele>
        <time>2020-07-14T05:25:16Z</time>
      </trkpt>
      <trkpt lat="37.5688990" lon="-2.7763000">
        <ele>720.2</ele>
        <time>2020-07-14T05:25:24Z</time>
      </trkpt>
      <trkpt lat="37.5694410" lon="-2.7761620">
        <ele>720.6</ele>
        <time>2020-07-14T05:25:32Z</time>
      </trkpt>
      <trkpt lat="37.5696370" lon="-2.7760890">
        <ele>720.4</ele>
        <time>2020-07-14T05:25:35Z</time>
      </trkpt>
      <trkpt lat="37.5701580" lon="-2.7758940">
        <ele>720.4</ele>
        <time>2020-07-14T05:25:43Z</time>
      </trkpt>
      <trkpt lat="37.5702890" lon="-2.7758480">
        <ele>720.4</ele>
        <time>2020-07-14T05:25:45Z</time>
      </trkpt>
      <trkpt lat="37.5708250" lon="-2.7756560">
        <ele>720.4</ele>
        <time>2020-07-14T05:25:53Z</time>
      </trkpt>
      <trkpt lat="37.5711510" lon="-2.7755380">
        <ele>720.4</ele>
        <time>2020-07-14T05:25:58Z</time>
      </trkpt>
      <trkpt lat="37.5714870" lon="-2.7754260">
        <ele>720.6</ele>
        <time>2020-07-14T05:26:03Z</time>
      </trkpt>
      <trkpt lat="37.5720180" lon="-2.7752280">
        <ele>720.6</ele>
        <time>2020-07-14T05:26:11Z</time>
      </trkpt>
      <trkpt lat="37.5723110" lon="-2.7750210">
        <ele>720.6</ele>
        <time>2020-07-14T05:26:16Z</time>
      </trkpt>
      <trkpt lat="37.5725530" lon="-2.7747020">
        <ele>720.6</ele>
        <time>2020-07-14T05:26:21Z</time>
      </trkpt>
      <trkpt lat="37.5727190" lon="-2.7743130">
        <ele>720.6</ele>
        <time>2020-07-14T05:26:26Z</time>
      </trkpt>
      <trkpt lat="37.5728400" lon="-2.7737980">
        <ele>720.8</ele>
        <time>2020-07-14T05:26:32Z</time>
      </trkpt>
      <trkpt lat="37.5729310" lon="-2.7734680">
        <ele>720.8</ele>
        <time>2020-07-14T05:26:36Z</time>
      </trkpt>
      <trkpt lat="37.5730080" lon="-2.7733240">
        <ele>720.8</ele>
        <time>2020-07-14T05:26:38Z</time>
      </trkpt>
      <trkpt lat="37.5732150" lon="-2.7730970">
        <ele>720.6</ele>
        <time>2020-07-14T05:26:42Z</time>
      </trkpt>
      <trkpt lat="37.5734490" lon="-2.7729770">
        <ele>720.6</ele>
        <time>2020-07-14T05:26:46Z</time>
      </trkpt>
      <trkpt lat="37.5737330" lon="-2.7729660">
        <ele>720.8</ele>
        <time>2020-07-14T05:26:50Z</time>
      </trkpt>
      <trkpt lat="37.5739200" lon="-2.7730380">
        <ele>720.6</ele>
        <time>2020-07-14T05:26:53Z</time>
      </trkpt>
      <trkpt lat="37.5740410" lon="-2.7731080">
        <ele>720.6</ele>
        <time>2020-07-14T05:26:55Z</time>
      </trkpt>
      <trkpt lat="37.5745600" lon="-2.7734560">
        <ele>720.8</ele>
        <time>2020-07-14T05:27:04Z</time>
      </trkpt>
      <trkpt lat="37.5750290" lon="-2.7737630">
        <ele>720.8</ele>
        <time>2020-07-14T05:27:12Z</time>
      </trkpt>
      <trkpt lat="37.5753960" lon="-2.7739920">
        <ele>720.6</ele>
        <time>2020-07-14T05:27:18Z</time>
      </trkpt>
      <trkpt lat="37.5757420" lon="-2.7740610">
        <ele>720.8</ele>
        <time>2020-07-14T05:27:23Z</time>
      </trkpt>
      <trkpt lat="37.5758130" lon="-2.7740520">
        <ele>720.8</ele>
        <time>2020-07-14T05:27:24Z</time>
      </trkpt>
      <trkpt lat="37.5760310" lon="-2.7739940">
        <ele>721.0</ele>
        <time>2020-07-14T05:27:27Z</time>
      </trkpt>
      <trkpt lat="37.5765830" lon="-2.7738460">
        <ele>720.8</ele>
        <time>2020-07-14T05:27:35Z</time>
      </trkpt>
      <trkpt lat="37.5770650" lon="-2.7737880">
        <ele>721.0</ele>
        <time>2020-07-14T05:27:42Z</time>
      </trkpt>
      <trkpt lat="37.5771310" lon="-2.7738030">
        <ele>721.0</ele>
        <time>2020-07-14T05:27:43Z</time>
      </trkpt>
      <trkpt lat="37.5773180" lon="-2.7738820">
        <ele>721.0</ele>
        <time>2020-07-14T05:27:46Z</time>
      </trkpt>
      <trkpt lat="37.5774920" lon="-2.7740140">
        <ele>720.8</ele>
        <time>2020-07-14T05:27:49Z</time>
      </trkpt>
      <trkpt lat="37.5775990" lon="-2.7741240">
        <ele>720.8</ele>
        <time>2020-07-14T05:27:51Z</time>
      </trkpt>
      <trkpt lat="37.5779210" lon="-2.7745490">
        <ele>720.8</ele>
        <time>2020-07-14T05:27:58Z</time>
      </trkpt>
      <trkpt lat="37.5783220" lon="-2.7751000">
        <ele>721.0</ele>
        <time>2020-07-14T05:28:07Z</time>
      </trkpt>
      <trkpt lat="37.5786360" lon="-2.7753990">
        <ele>721.0</ele>
        <time>2020-07-14T05:28:13Z</time>
      </trkpt>
      <trkpt lat="37.5788950" lon="-2.7755000">
        <ele>721.0</ele>
        <time>2020-07-14T05:28:17Z</time>
      </trkpt>
      <trkpt lat="37.5789610" lon="-2.7755150">
        <ele>721.0</ele>
        <time>2020-07-14T05:28:18Z</time>
      </trkpt>
      <trkpt lat="37.5794320" lon="-2.7755800">
        <ele>720.8</ele>
        <time>2020-07-14T05:28:25Z</time>
      </trkpt>
      <trkpt lat="37.5799030" lon="-2.7756480">
        <ele>721.0</ele>
        <time>2020-07-14T05:28:32Z</time>
      </trkpt>
      <trkpt lat="37.5804980" lon="-2.7757360">
        <ele>721.2</ele>
        <time>2020-07-14T05:28:41Z</time>
      </trkpt>
      <trkpt lat="37.5806320" lon="-2.7757520">
        <ele>721.2</ele>
        <time>2020-07-14T05:28:43Z</time>
      </trkpt>
      <trkpt lat="37.5812260" lon="-2.7758660">
        <ele>721.2</ele>
        <time>2020-07-14T05:28:52Z</time>
      </trkpt>
      <trkpt lat="37.5817400" lon="-2.7760660">
        <ele>721.0</ele>
        <time>2020-07-14T05:29:00Z</time>
      </trkpt>
      <trkpt lat="37.5822370" lon="-2.7762810">
        <ele>721.0</ele>
        <time>2020-07-14T05:29:08Z</time>
      </trkpt>
      <trkpt lat="37.5826840" lon="-2.7763920">
        <ele>721.2</ele>
        <time>2020-07-14T05:29:15Z</time>
      </trkpt>
      <trkpt lat="37.5830670" lon="-2.7764590">
        <ele>721.2</ele>
        <time>2020-07-14T05:29:21Z</time>
      </trkpt>
      <trkpt lat="37.5833820" lon="-2.7765200">
        <ele>721.4</ele>
        <time>2020-07-14T05:29:26Z</time>
      </trkpt>
      <trkpt lat="37.5839000" lon="-2.7765630">
        <ele>721.2</ele>
        <time>2020-07-14T05:29:34Z</time>
      </trkpt>
      <trkpt lat="37.5842920" lon="-2.7764670">
        <ele>721.0</ele>
        <time>2020-07-14T05:29:40Z</time>
      </trkpt>
      <trkpt lat="37.5845500" lon="-2.7763930">
        <ele>721.2</ele>
        <time>2020-07-14T05:29:44Z</time>
      </trkpt>
      <trkpt lat="37.5846840" lon="-2.7764010">
        <ele>721.2</ele>
        <time>2020-07-14T05:29:46Z</time>
      </trkpt>
      <trkpt lat="37.5849330" lon="-2.7765320">
        <ele>721.2</ele>
        <time>2020-07-14T05:29:50Z</time>
      </trkpt>
      <trkpt lat="37.5850910" lon="-2.7767780">
        <ele>721.2</ele>
        <time>2020-07-14T05:29:54Z</time>
      </trkpt>
      <trkpt lat="37.5851470" lon="-2.7769270">
        <ele>721.4</ele>
        <time>2020-07-14T05:29:56Z</time>
      </trkpt>
      <trkpt lat="37.5852520" lon="-2.7772190">
        <ele>721.4</ele>
        <time>2020-07-14T05:30:00Z</time>
      </trkpt>
      <trkpt lat="37.5852760" lon="-2.7772730">
        <ele>721.4</ele>
        <time>2020-07-14T05:30:01Z</time>
      </trkpt>
      <trkpt lat="37.5853320" lon="-2.7773930">
        <ele>721.4</ele>
        <time>2020-07-14T05:30:04Z</time>
      </trkpt>
      <trkpt lat="37.5853280" lon="-2.7774210">
        <ele>721.2</ele>
        <time>2020-07-14T05:30:05Z</time>
      </trkpt>
      <trkpt lat="37.5853070" lon="-2.7773990">
        <ele>721.2</ele>
        <time>2020-07-14T05:30:07Z</time>
      </trkpt>
      <trkpt lat="37.5852930" lon="-2.7773610">
        <ele>721.2</ele>
        <time>2020-07-14T05:30:09Z</time>
      </trkpt>
      <trkpt lat="37.5852500" lon="-2.7772200">
        <ele>721.2</ele>
        <time>2020-07-14T05:30:13Z</time>
      </trkpt>
      <trkpt lat="37.5852050" lon="-2.7770810">
        <ele>721.2</ele>
        <time>2020-07-14T05:30:16Z</time>
      </trkpt>
      <trkpt lat="37.5851680" lon="-2.7769720">
        <ele>721.4</ele>
        <time>2020-07-14T05:30:18Z</time>
      </trkpt>
      <trkpt lat="37.5851270" lon="-2.7768600">
        <ele>721.4</ele>
        <time>2020-07-14T05:30:20Z</time>
      </trkpt>
      <trkpt lat="37.5850510" lon="-2.7766820">
        <ele>721.4</ele>
        <time>2020-07-14T05:30:23Z</time>
      </trkpt>
      <trkpt lat="37.5848450" lon="-2.7764580">
        <ele>721.4</ele>
        <time>2020-07-14T05:30:28Z</time>
      </trkpt>
      <trkpt lat="37.5847500" lon="-2.7764070">
        <ele>721.4</ele>
        <time>2020-07-14T05:30:30Z</time>
      </trkpt>
      <trkpt lat="37.5846730" lon="-2.7763420">
        <ele>721.4</ele>
        <time>2020-07-14T05:30:32Z</time>
      </trkpt>
      <trkpt lat="37.5846620" lon="-2.7762930">
        <ele>721.4</ele>
        <time>2020-07-14T05:30:33Z</time>
      </trkpt>
      <trkpt lat="37.5847210" lon="-2.7762070">
        <ele>721.2</ele>
        <time>2020-07-14T05:30:35Z</time>
      </trkpt>
      <trkpt lat="37.5848980" lon="-2.7761420">
        <ele>720.6</ele>
        <time>2020-07-14T05:30:38Z</time>
      </trkpt>
      <trkpt lat="37.5849610" lon="-2.7761540">
        <ele>719.8</ele>
        <time>2020-07-14T05:30:39Z</time>
      </trkpt>
      <trkpt lat="37.5851130" lon="-2.7762120">
        <ele>718.6</ele>
        <time>2020-07-14T05:30:41Z</time>
      </trkpt>
      <trkpt lat="37.5852850" lon="-2.7762710">
        <ele>716.4</ele>
        <time>2020-07-14T05:30:43Z</time>
      </trkpt>
      <trkpt lat="37.5854720" lon="-2.7763020">
        <ele>715.0</ele>
        <time>2020-07-14T05:30:45Z</time>
      </trkpt>
      <trkpt lat="37.5856810" lon="-2.7762770">
        <ele>713.0</ele>
        <time>2020-07-14T05:30:47Z</time>
      </trkpt>
      <trkpt lat="37.5857860" lon="-2.7762430">
        <ele>711.8</ele>
        <time>2020-07-14T05:30:48Z</time>
      </trkpt>
      <trkpt lat="37.5858900" lon="-2.7762040">
        <ele>710.8</ele>
        <time>2020-07-14T05:30:49Z</time>
      </trkpt>
      <trkpt lat="37.5860080" lon="-2.7761540">
        <ele>709.6</ele>
        <time>2020-07-14T05:30:50Z</time>
      </trkpt>
      <trkpt lat="37.5861210" lon="-2.7760980">
        <ele>708.4</ele>
        <time>2020-07-14T05:30:51Z</time>
      </trkpt>
      <trkpt lat="37.5862270" lon="-2.7760350">
        <ele>707.4</ele>
        <time>2020-07-14T05:30:52Z</time>
      </trkpt>
      <trkpt lat="37.5863450" lon="-2.7759550">
        <ele>706.4</ele>
        <time>2020-07-14T05:30:53Z</time>
      </trkpt>
      <trkpt lat="37.5864520" lon="-2.7758800">
        <ele>705.2</ele>
        <time>2020-07-14T05:30:54Z</time>
      </trkpt>
      <trkpt lat="37.5866850" lon="-2.7757140">
        <ele>703.4</ele>
        <time>2020-07-14T05:30:56Z</time>
      </trkpt>
      <trkpt lat="37.5869070" lon="-2.7755510">
        <ele>701.6</ele>
        <time>2020-07-14T05:30:58Z</time>
      </trkpt>
      <trkpt lat="37.5871320" lon="-2.7753520">
        <ele>700.0</ele>
        <time>2020-07-14T05:31:00Z</time>
      </trkpt>
      <trkpt lat="37.5873100" lon="-2.7751090">
        <ele>698.4</ele>
        <time>2020-07-14T05:31:02Z</time>
      </trkpt>
      <trkpt lat="37.5874480" lon="-2.7748830">
        <ele>697.4</ele>
        <time>2020-07-14T05:31:04Z</time>
      </trkpt>
      <trkpt lat="37.5876360" lon="-2.7745970">
        <ele>696.4</ele>
        <time>2020-07-14T05:31:06Z</time>
      </trkpt>
      <trkpt lat="37.5877330" lon="-2.7744990">
        <ele>695.8</ele>
        <time>2020-07-14T05:31:07Z</time>
      </trkpt>
      <trkpt lat="37.5879390" lon="-2.7743590">
        <ele>694.6</ele>
        <time>2020-07-14T05:31:09Z</time>
      </trkpt>
      <trkpt lat="37.5880420" lon="-2.7742900">
        <ele>693.8</ele>
        <time>2020-07-14T05:31:10Z</time>
      </trkpt>
      <trkpt lat="37.5881440" lon="-2.7742120">
        <ele>693.2</ele>
        <time>2020-07-14T05:31:11Z</time>
      </trkpt>
      <trkpt lat="37.5883930" lon="-2.7739890">
        <ele>692.6</ele>
        <time>2020-07-14T05:31:14Z</time>
      </trkpt>
      <trkpt lat="37.5887720" lon="-2.7736790">
        <ele>693.6</ele>
        <time>2020-07-14T05:31:19Z</time>
      </trkpt>
      <trkpt lat="37.5889750" lon="-2.7735210">
        <ele>694.2</ele>
        <time>2020-07-14T05:31:22Z</time>
      </trkpt>
      <trkpt lat="37.5890890" lon="-2.7733990">
        <ele>694.6</ele>
        <time>2020-07-14T05:31:24Z</time>
      </trkpt>
      <trkpt lat="37.5891380" lon="-2.7733200">
        <ele>695.0</ele>
        <time>2020-07-14T05:31:25Z</time>
      </trkpt>
      <trkpt lat="37.5892340" lon="-2.7731550">
        <ele>695.4</ele>
        <time>2020-07-14T05:31:27Z</time>
      </trkpt>
      <trkpt lat="37.5893470" lon="-2.7729980">
        <ele>695.2</ele>
        <time>2020-07-14T05:31:29Z</time>
      </trkpt>
      <trkpt lat="37.5894230" lon="-2.7729210">
        <ele>695.0</ele>
        <time>2020-07-14T05:31:30Z</time>
      </trkpt>
      <trkpt lat="37.5895860" lon="-2.7727850">
        <ele>694.0</ele>
        <time>2020-07-14T05:31:32Z</time>
      </trkpt>
      <trkpt lat="37.5897400" lon="-2.7726790">
        <ele>693.0</ele>
        <time>2020-07-14T05:31:34Z</time>
      </trkpt>
      <trkpt lat="37.5898630" lon="-2.7726150">
        <ele>692.4</ele>
        <time>2020-07-14T05:31:35Z</time>
      </trkpt>
      <trkpt lat="37.5899610" lon="-2.7725830">
        <ele>691.6</ele>
        <time>2020-07-14T05:31:36Z</time>
      </trkpt>
      <trkpt lat="37.5901570" lon="-2.7725450">
        <ele>690.4</ele>
        <time>2020-07-14T05:31:38Z</time>
      </trkpt>
      <trkpt lat="37.5902470" lon="-2.7725340">
        <ele>690.0</ele>
        <time>2020-07-14T05:31:39Z</time>
      </trkpt>
      <trkpt lat="37.5906440" lon="-2.7724740">
        <ele>689.0</ele>
        <time>2020-07-14T05:31:43Z</time>
      </trkpt>
      <trkpt lat="37.5909350" lon="-2.7724630">
        <ele>688.0</ele>
        <time>2020-07-14T05:31:46Z</time>
      </trkpt>
      <trkpt lat="37.5912310" lon="-2.7724910">
        <ele>687.0</ele>
        <time>2020-07-14T05:31:49Z</time>
      </trkpt>
      <trkpt lat="37.5914200" lon="-2.7725350">
        <ele>686.4</ele>
        <time>2020-07-14T05:31:51Z</time>
      </trkpt>
      <trkpt lat="37.5918430" lon="-2.7727060">
        <ele>686.0</ele>
        <time>2020-07-14T05:31:56Z</time>
      </trkpt>
      <trkpt lat="37.5919300" lon="-2.7727390">
        <ele>685.8</ele>
        <time>2020-07-14T05:31:57Z</time>
      </trkpt>
      <trkpt lat="37.5923590" lon="-2.7729190">
        <ele>685.6</ele>
        <time>2020-07-14T05:32:02Z</time>
      </trkpt>
      <trkpt lat="37.5924440" lon="-2.7729880">
        <ele>685.2</ele>
        <time>2020-07-14T05:32:03Z</time>
      </trkpt>
      <trkpt lat="37.5926160" lon="-2.7731680">
        <ele>684.6</ele>
        <time>2020-07-14T05:32:05Z</time>
      </trkpt>
      <trkpt lat="37.5927100" lon="-2.7732690">
        <ele>684.0</ele>
        <time>2020-07-14T05:32:06Z</time>
      </trkpt>
      <trkpt lat="37.5927970" lon="-2.7733630">
        <ele>683.2</ele>
        <time>2020-07-14T05:32:07Z</time>
      </trkpt>
      <trkpt lat="37.5929090" lon="-2.7734840">
        <ele>682.0</ele>
        <time>2020-07-14T05:32:08Z</time>
      </trkpt>
      <trkpt lat="37.5931040" lon="-2.7736870">
        <ele>680.0</ele>
        <time>2020-07-14T05:32:10Z</time>
      </trkpt>
      <trkpt lat="37.5932080" lon="-2.7737890">
        <ele>678.2</ele>
        <time>2020-07-14T05:32:11Z</time>
      </trkpt>
      <trkpt lat="37.5932990" lon="-2.7738680">
        <ele>676.4</ele>
        <time>2020-07-14T05:32:12Z</time>
      </trkpt>
      <trkpt lat="37.5933980" lon="-2.7739350">
        <ele>677.8</ele>
        <time>2020-07-14T05:32:13Z</time>
      </trkpt>
      <trkpt lat="37.5934950" lon="-2.7739740">
        <ele>677.0</ele>
        <time>2020-07-14T05:32:14Z</time>
      </trkpt>
      <trkpt lat="37.5936100" lon="-2.7739930">
        <ele>676.0</ele>
        <time>2020-07-14T05:32:15Z</time>
      </trkpt>
      <trkpt lat="37.5938310" lon="-2.7739810">
        <ele>674.4</ele>
        <time>2020-07-14T05:32:17Z</time>
      </trkpt>
      <trkpt lat="37.5940470" lon="-2.7739200">
        <ele>673.0</ele>
        <time>2020-07-14T05:32:19Z</time>
      </trkpt>
      <trkpt lat="37.5941610" lon="-2.7738620">
        <ele>672.2</ele>
        <time>2020-07-14T05:32:20Z</time>
      </trkpt>
      <trkpt lat="37.5942590" lon="-2.7737990">
        <ele>671.6</ele>
        <time>2020-07-14T05:32:21Z</time>
      </trkpt>
      <trkpt lat="37.5943600" lon="-2.7737310">
        <ele>671.0</ele>
        <time>2020-07-14T05:32:22Z</time>
      </trkpt>
      <trkpt lat="37.5944720" lon="-2.7736670">
        <ele>670.2</ele>
        <time>2020-07-14T05:32:23Z</time>
      </trkpt>
      <trkpt lat="37.5945770" lon="-2.7736240">
        <ele>669.6</ele>
        <time>2020-07-14T05:32:24Z</time>
      </trkpt>
      <trkpt lat="37.5946970" lon="-2.7735950">
        <ele>669.0</ele>
        <time>2020-07-14T05:32:25Z</time>
      </trkpt>
      <trkpt lat="37.5949220" lon="-2.7735680">
        <ele>668.0</ele>
        <time>2020-07-14T05:32:27Z</time>
      </trkpt>
      <trkpt lat="37.5951260" lon="-2.7735860">
        <ele>667.0</ele>
        <time>2020-07-14T05:32:29Z</time>
      </trkpt>
      <trkpt lat="37.5952250" lon="-2.7736340">
        <ele>666.8</ele>
        <time>2020-07-14T05:32:30Z</time>
      </trkpt>
      <trkpt lat="37.5953830" lon="-2.7737850">
        <ele>665.6</ele>
        <time>2020-07-14T05:32:32Z</time>
      </trkpt>
      <trkpt lat="37.5954600" lon="-2.7738690">
        <ele>665.4</ele>
        <time>2020-07-14T05:32:33Z</time>
      </trkpt>
      <trkpt lat="37.5957810" lon="-2.7741320">
        <ele>665.0</ele>
        <time>2020-07-14T05:32:37Z</time>
      </trkpt>
      <trkpt lat="37.5960400" lon="-2.7742290">
        <ele>665.6</ele>
        <time>2020-07-14T05:32:40Z</time>
      </trkpt>
      <trkpt lat="37.5961360" lon="-2.7742660">
        <ele>665.4</ele>
        <time>2020-07-14T05:32:41Z</time>
      </trkpt>
      <trkpt lat="37.5964180" lon="-2.7743820">
        <ele>664.4</ele>
        <time>2020-07-14T05:32:44Z</time>
      </trkpt>
      <trkpt lat="37.5966170" lon="-2.7744630">
        <ele>663.2</ele>
        <time>2020-07-14T05:32:46Z</time>
      </trkpt>
      <trkpt lat="37.5968150" lon="-2.7745400">
        <ele>662.4</ele>
        <time>2020-07-14T05:32:48Z</time>
      </trkpt>
      <trkpt lat="37.5970100" lon="-2.7746120">
        <ele>662.2</ele>
        <time>2020-07-14T05:32:50Z</time>
      </trkpt>
      <trkpt lat="37.5973210" lon="-2.7746750">
        <ele>661.2</ele>
        <time>2020-07-14T05:32:53Z</time>
      </trkpt>
      <trkpt lat="37.5974210" lon="-2.7746760">
        <ele>660.6</ele>
        <time>2020-07-14T05:32:54Z</time>
      </trkpt>
      <trkpt lat="37.5976250" lon="-2.7746690">
        <ele>659.8</ele>
        <time>2020-07-14T05:32:56Z</time>
      </trkpt>
      <trkpt lat="37.5978190" lon="-2.7746580">
        <ele>658.8</ele>
        <time>2020-07-14T05:32:58Z</time>
      </trkpt>
      <trkpt lat="37.5980120" lon="-2.7746630">
        <ele>657.8</ele>
        <time>2020-07-14T05:33:00Z</time>
      </trkpt>
      <trkpt lat="37.5981070" lon="-2.7746760">
        <ele>657.6</ele>
        <time>2020-07-14T05:33:01Z</time>
      </trkpt>
      <trkpt lat="37.5981980" lon="-2.7747070">
        <ele>657.2</ele>
        <time>2020-07-14T05:33:02Z</time>
      </trkpt>
      <trkpt lat="37.5982880" lon="-2.7747550">
        <ele>656.6</ele>
        <time>2020-07-14T05:33:03Z</time>
      </trkpt>
      <trkpt lat="37.5983610" lon="-2.7748120">
        <ele>656.2</ele>
        <time>2020-07-14T05:33:04Z</time>
      </trkpt>
      <trkpt lat="37.5985100" lon="-2.7749820">
        <ele>655.2</ele>
        <time>2020-07-14T05:33:06Z</time>
      </trkpt>
      <trkpt lat="37.5985720" lon="-2.7750660">
        <ele>654.6</ele>
        <time>2020-07-14T05:33:07Z</time>
      </trkpt>
      <trkpt lat="37.5987030" lon="-2.7752120">
        <ele>654.0</ele>
        <time>2020-07-14T05:33:09Z</time>
      </trkpt>
      <trkpt lat="37.5987750" lon="-2.7752750">
        <ele>653.8</ele>
        <time>2020-07-14T05:33:10Z</time>
      </trkpt>
      <trkpt lat="37.5990000" lon="-2.7754460">
        <ele>653.4</ele>
        <time>2020-07-14T05:33:13Z</time>
      </trkpt>
      <trkpt lat="37.5991410" lon="-2.7755490">
        <ele>653.2</ele>
        <time>2020-07-14T05:33:15Z</time>
      </trkpt>
      <trkpt lat="37.5992760" lon="-2.7756460">
        <ele>653.0</ele>
        <time>2020-07-14T05:33:17Z</time>
      </trkpt>
      <trkpt lat="37.5994030" lon="-2.7757280">
        <ele>653.0</ele>
        <time>2020-07-14T05:33:19Z</time>
      </trkpt>
      <trkpt lat="37.5996910" lon="-2.7758670">
        <ele>653.2</ele>
        <time>2020-07-14T05:33:23Z</time>
      </trkpt>
      <trkpt lat="37.5999250" lon="-2.7759280">
        <ele>653.0</ele>
        <time>2020-07-14T05:33:26Z</time>
      </trkpt>
      <trkpt lat="37.6001640" lon="-2.7759890">
        <ele>652.2</ele>
        <time>2020-07-14T05:33:29Z</time>
      </trkpt>
      <trkpt lat="37.6003290" lon="-2.7760580">
        <ele>651.6</ele>
        <time>2020-07-14T05:33:31Z</time>
      </trkpt>
      <trkpt lat="37.6004860" lon="-2.7761520">
        <ele>650.8</ele>
        <time>2020-07-14T05:33:33Z</time>
      </trkpt>
      <trkpt lat="37.6005590" lon="-2.7761940">
        <ele>650.6</ele>
        <time>2020-07-14T05:33:34Z</time>
      </trkpt>
      <trkpt lat="37.6007420" lon="-2.7762710">
        <ele>649.8</ele>
        <time>2020-07-14T05:33:36Z</time>
      </trkpt>
      <trkpt lat="37.6008330" lon="-2.7762930">
        <ele>649.2</ele>
        <time>2020-07-14T05:33:37Z</time>
      </trkpt>
      <trkpt lat="37.6009240" lon="-2.7763050">
        <ele>648.8</ele>
        <time>2020-07-14T05:33:38Z</time>
      </trkpt>
      <trkpt lat="37.6010800" lon="-2.7762790">
        <ele>647.8</ele>
        <time>2020-07-14T05:33:40Z</time>
      </trkpt>
      <trkpt lat="37.6011560" lon="-2.7762300">
        <ele>647.2</ele>
        <time>2020-07-14T05:33:41Z</time>
      </trkpt>
      <trkpt lat="37.6012290" lon="-2.7761620">
        <ele>646.6</ele>
        <time>2020-07-14T05:33:42Z</time>
      </trkpt>
      <trkpt lat="37.6013080" lon="-2.7760880">
        <ele>645.8</ele>
        <time>2020-07-14T05:33:43Z</time>
      </trkpt>
      <trkpt lat="37.6013920" lon="-2.7760170">
        <ele>645.0</ele>
        <time>2020-07-14T05:33:44Z</time>
      </trkpt>
      <trkpt lat="37.6014880" lon="-2.7759430">
        <ele>643.8</ele>
        <time>2020-07-14T05:33:45Z</time>
      </trkpt>
      <trkpt lat="37.6015760" lon="-2.7758810">
        <ele>642.6</ele>
        <time>2020-07-14T05:33:46Z</time>
      </trkpt>
      <trkpt lat="37.6016790" lon="-2.7758020">
        <ele>641.6</ele>
        <time>2020-07-14T05:33:47Z</time>
      </trkpt>
      <trkpt lat="37.6017670" lon="-2.7757240">
        <ele>640.4</ele>
        <time>2020-07-14T05:33:48Z</time>
      </trkpt>
      <trkpt lat="37.6018520" lon="-2.7756420">
        <ele>639.6</ele>
        <time>2020-07-14T05:33:49Z</time>
      </trkpt>
      <trkpt lat="37.6019450" lon="-2.7755520">
        <ele>638.8</ele>
        <time>2020-07-14T05:33:50Z</time>
      </trkpt>
      <trkpt lat="37.6021170" lon="-2.7753850">
        <ele>637.6</ele>
        <time>2020-07-14T05:33:52Z</time>
      </trkpt>
      <trkpt lat="37.6022950" lon="-2.7752190">
        <ele>636.6</ele>
        <time>2020-07-14T05:33:54Z</time>
      </trkpt>
      <trkpt lat="37.6024710" lon="-2.7750610">
        <ele>635.6</ele>
        <time>2020-07-14T05:33:56Z</time>
      </trkpt>
      <trkpt lat="37.6025540" lon="-2.7749880">
        <ele>635.0</ele>
        <time>2020-07-14T05:33:57Z</time>
      </trkpt>
      <trkpt lat="37.6026320" lon="-2.7749180">
        <ele>634.8</ele>
        <time>2020-07-14T05:33:58Z</time>
      </trkpt>
      <trkpt lat="37.6027930" lon="-2.7747730">
        <ele>634.4</ele>
        <time>2020-07-14T05:34:00Z</time>
      </trkpt>
      <trkpt lat="37.6031670" lon="-2.7744420">
        <ele>633.8</ele>
        <time>2020-07-14T05:34:05Z</time>
      </trkpt>
      <trkpt lat="37.6035390" lon="-2.7740990">
        <ele>633.6</ele>
        <time>2020-07-14T05:34:11Z</time>
      </trkpt>
      <trkpt lat="37.6036220" lon="-2.7740350">
        <ele>633.8</ele>
        <time>2020-07-14T05:34:13Z</time>
      </trkpt>
      <trkpt lat="37.6037050" lon="-2.7739880">
        <ele>634.0</ele>
        <time>2020-07-14T05:34:15Z</time>
      </trkpt>
      <trkpt lat="37.6037810" lon="-2.7739470">
        <ele>634.6</ele>
        <time>2020-07-14T05:34:18Z</time>
      </trkpt>
      <trkpt lat="37.6037940" lon="-2.7739400">
        <ele>634.6</ele>
        <time>2020-07-14T05:34:19Z</time>
      </trkpt>
      <trkpt lat="37.6039090" lon="-2.7739550">
        <ele>634.6</ele>
        <time>2020-07-14T05:34:24Z</time>
      </trkpt>
      <trkpt lat="37.6039930" lon="-2.7741430">
        <ele>634.4</ele>
        <time>2020-07-14T05:34:28Z</time>
      </trkpt>
      <trkpt lat="37.6040090" lon="-2.7742010">
        <ele>634.4</ele>
        <time>2020-07-14T05:34:29Z</time>
      </trkpt>
      <trkpt lat="37.6041130" lon="-2.7744910">
        <ele>633.6</ele>
        <time>2020-07-14T05:34:34Z</time>
      </trkpt>
      <trkpt lat="37.6042230" lon="-2.7747490">
        <ele>633.4</ele>
        <time>2020-07-14T05:34:38Z</time>
      </trkpt>
      <trkpt lat="37.6043510" lon="-2.7750640">
        <ele>633.2</ele>
        <time>2020-07-14T05:34:43Z</time>
      </trkpt>
      <trkpt lat="37.6044190" lon="-2.7751830">
        <ele>632.8</ele>
        <time>2020-07-14T05:34:45Z</time>
      </trkpt>
      <trkpt lat="37.6045630" lon="-2.7753010">
        <ele>632.8</ele>
        <time>2020-07-14T05:34:48Z</time>
      </trkpt>
      <trkpt lat="37.6047270" lon="-2.7752950">
        <ele>632.8</ele>
        <time>2020-07-14T05:34:51Z</time>
      </trkpt>
      <trkpt lat="37.6048300" lon="-2.7752520">
        <ele>632.8</ele>
        <time>2020-07-14T05:34:53Z</time>
      </trkpt>
      <trkpt lat="37.6050410" lon="-2.7751760">
        <ele>633.0</ele>
        <time>2020-07-14T05:34:57Z</time>
      </trkpt>
      <trkpt lat="37.6051920" lon="-2.7751260">
        <ele>633.2</ele>
        <time>2020-07-14T05:35:00Z</time>
      </trkpt>
      <trkpt lat="37.6053720" lon="-2.7750520">
        <ele>633.6</ele>
        <time>2020-07-14T05:35:04Z</time>
      </trkpt>
      <trkpt lat="37.6054170" lon="-2.7750230">
        <ele>633.8</ele>
        <time>2020-07-14T05:35:05Z</time>
      </trkpt>
      <trkpt lat="37.6055680" lon="-2.7749070">
        <ele>634.0</ele>
        <time>2020-07-14T05:35:09Z</time>
      </trkpt>
      <trkpt lat="37.6056480" lon="-2.7748640">
        <ele>634.2</ele>
        <time>2020-07-14T05:35:11Z</time>
      </trkpt>
      <trkpt lat="37.6056900" lon="-2.7748480">
        <ele>634.4</ele>
        <time>2020-07-14T05:35:12Z</time>
      </trkpt>
      <trkpt lat="37.6058150" lon="-2.7748190">
        <ele>634.8</ele>
        <time>2020-07-14T05:35:15Z</time>
      </trkpt>
      <trkpt lat="37.6059400" lon="-2.7748010">
        <ele>635.2</ele>
        <time>2020-07-14T05:35:18Z</time>
      </trkpt>
      <trkpt lat="37.6060220" lon="-2.7747840">
        <ele>635.6</ele>
        <time>2020-07-14T05:35:20Z</time>
      </trkpt>
      <trkpt lat="37.6062560" lon="-2.7746850">
        <ele>636.2</ele>
        <time>2020-07-14T05:35:26Z</time>
      </trkpt>
      <trkpt lat="37.6063590" lon="-2.7746160">
        <ele>636.6</ele>
        <time>2020-07-14T05:35:29Z</time>
      </trkpt>
      <trkpt lat="37.6065620" lon="-2.7744890">
        <ele>637.2</ele>
        <time>2020-07-14T05:35:35Z</time>
      </trkpt>
      <trkpt lat="37.6067430" lon="-2.7744380">
        <ele>637.6</ele>
        <time>2020-07-14T05:35:40Z</time>
      </trkpt>
      <trkpt lat="37.6068200" lon="-2.7744210">
        <ele>638.0</ele>
        <time>2020-07-14T05:35:42Z</time>
      </trkpt>
      <trkpt lat="37.6070030" lon="-2.7743900">
        <ele>639.0</ele>
        <time>2020-07-14T05:35:47Z</time>
      </trkpt>
      <trkpt lat="37.6071680" lon="-2.7743310">
        <ele>639.6</ele>
        <time>2020-07-14T05:35:52Z</time>
      </trkpt>
      <trkpt lat="37.6072140" lon="-2.7742770">
        <ele>640.0</ele>
        <time>2020-07-14T05:35:54Z</time>
      </trkpt>
      <trkpt lat="37.6072360" lon="-2.7742050">
        <ele>640.4</ele>
        <time>2020-07-14T05:35:56Z</time>
      </trkpt>
      <trkpt lat="37.6072150" lon="-2.7740900">
        <ele>641.0</ele>
        <time>2020-07-14T05:35:59Z</time>
      </trkpt>
      <trkpt lat="37.6071980" lon="-2.7740530">
        <ele>641.4</ele>
        <time>2020-07-14T05:36:00Z</time>
      </trkpt>
      <trkpt lat="37.6070710" lon="-2.7737320">
        <ele>642.0</ele>
        <time>2020-07-14T05:36:08Z</time>
      </trkpt>
      <trkpt lat="37.6070570" lon="-2.7736960">
        <ele>642.2</ele>
        <time>2020-07-14T05:36:09Z</time>
      </trkpt>
      <trkpt lat="37.6069460" lon="-2.7733850">
        <ele>643.0</ele>
        <time>2020-07-14T05:36:16Z</time>
      </trkpt>
      <trkpt lat="37.6069140" lon="-2.7732910">
        <ele>643.2</ele>
        <time>2020-07-14T05:36:18Z</time>
      </trkpt>
      <trkpt lat="37.6068250" lon="-2.7729130">
        <ele>644.4</ele>
        <time>2020-07-14T05:36:26Z</time>
      </trkpt>
      <trkpt lat="37.6067650" lon="-2.7725260">
        <ele>645.4</ele>
        <time>2020-07-14T05:36:34Z</time>
      </trkpt>
      <trkpt lat="37.6067500" lon="-2.7724280">
        <ele>645.8</ele>
        <time>2020-07-14T05:36:36Z</time>
      </trkpt>
      <trkpt lat="37.6067120" lon="-2.7722290">
        <ele>646.6</ele>
        <time>2020-07-14T05:36:40Z</time>
      </trkpt>
      <trkpt lat="37.6066780" lon="-2.7720770">
        <ele>647.2</ele>
        <time>2020-07-14T05:36:43Z</time>
      </trkpt>
      <trkpt lat="37.6066490" lon="-2.7719300">
        <ele>647.8</ele>
        <time>2020-07-14T05:36:46Z</time>
      </trkpt>
      <trkpt lat="37.6065870" lon="-2.7715520">
        <ele>648.6</ele>
        <time>2020-07-14T05:36:53Z</time>
      </trkpt>
      <trkpt lat="37.6065490" lon="-2.7712180">
        <ele>648.0</ele>
        <time>2020-07-14T05:36:58Z</time>
      </trkpt>
      <trkpt lat="37.6065210" lon="-2.7710220">
        <ele>647.6</ele>
        <time>2020-07-14T05:37:01Z</time>
      </trkpt>
      <trkpt lat="37.6064980" lon="-2.7708660">
        <ele>647.2</ele>
        <time>2020-07-14T05:37:04Z</time>
      </trkpt>
      <trkpt lat="37.6064310" lon="-2.7706090">
        <ele>647.2</ele>
        <time>2020-07-14T05:37:08Z</time>
      </trkpt>
      <trkpt lat="37.6063190" lon="-2.7702470">
        <ele>647.6</ele>
        <time>2020-07-14T05:37:14Z</time>
      </trkpt>
      <trkpt lat="37.6062410" lon="-2.7700010">
        <ele>647.8</ele>
        <time>2020-07-14T05:37:18Z</time>
      </trkpt>
      <trkpt lat="37.6060830" lon="-2.7694820">
        <ele>648.8</ele>
        <time>2020-07-14T05:37:27Z</time>
      </trkpt>
      <trkpt lat="37.6059820" lon="-2.7691560">
        <ele>649.8</ele>
        <time>2020-07-14T05:37:33Z</time>
      </trkpt>
      <trkpt lat="37.6058790" lon="-2.7688210">
        <ele>650.6</ele>
        <time>2020-07-14T05:37:39Z</time>
      </trkpt>
      <trkpt lat="37.6057140" lon="-2.7682750">
        <ele>650.8</ele>
        <time>2020-07-14T05:37:48Z</time>
      </trkpt>
      <trkpt lat="37.6056770" lon="-2.7681560">
        <ele>651.0</ele>
        <time>2020-07-14T05:37:50Z</time>
      </trkpt>
      <trkpt lat="37.6055320" lon="-2.7676700">
        <ele>651.6</ele>
        <time>2020-07-14T05:37:58Z</time>
      </trkpt>
      <trkpt lat="37.6054720" lon="-2.7674720">
        <ele>651.6</ele>
        <time>2020-07-14T05:38:01Z</time>
      </trkpt>
      <trkpt lat="37.6052590" lon="-2.7667680">
        <ele>651.0</ele>
        <time>2020-07-14T05:38:11Z</time>
      </trkpt>
      <trkpt lat="37.6052380" lon="-2.7667000">
        <ele>651.0</ele>
        <time>2020-07-14T05:38:12Z</time>
      </trkpt>
      <trkpt lat="37.6050280" lon="-2.7660220">
        <ele>651.4</ele>
        <time>2020-07-14T05:38:22Z</time>
      </trkpt>
      <trkpt lat="37.6048230" lon="-2.7653280">
        <ele>651.6</ele>
        <time>2020-07-14T05:38:32Z</time>
      </trkpt>
      <trkpt lat="37.6047870" lon="-2.7651960">
        <ele>651.8</ele>
        <time>2020-07-14T05:38:34Z</time>
      </trkpt>
      <trkpt lat="37.6046770" lon="-2.7648520">
        <ele>652.0</ele>
        <time>2020-07-14T05:38:39Z</time>
      </trkpt>
      <trkpt lat="37.6045740" lon="-2.7645250">
        <ele>652.4</ele>
        <time>2020-07-14T05:38:44Z</time>
      </trkpt>
      <trkpt lat="37.6043810" lon="-2.7638780">
        <ele>652.8</ele>
        <time>2020-07-14T05:38:54Z</time>
      </trkpt>
      <trkpt lat="37.6043590" lon="-2.7638010">
        <ele>652.8</ele>
        <time>2020-07-14T05:38:55Z</time>
      </trkpt>
      <trkpt lat="37.6041770" lon="-2.7632010">
        <ele>651.8</ele>
        <time>2020-07-14T05:39:03Z</time>
      </trkpt>
      <trkpt lat="37.6041550" lon="-2.7631330">
        <ele>651.8</ele>
        <time>2020-07-14T05:39:04Z</time>
      </trkpt>
      <trkpt lat="37.6040620" lon="-2.7628120">
        <ele>651.4</ele>
        <time>2020-07-14T05:39:08Z</time>
      </trkpt>
      <trkpt lat="37.6039730" lon="-2.7624800">
        <ele>650.8</ele>
        <time>2020-07-14T05:39:12Z</time>
      </trkpt>
      <trkpt lat="37.6039530" lon="-2.7623860">
        <ele>650.6</ele>
        <time>2020-07-14T05:39:13Z</time>
      </trkpt>
      <trkpt lat="37.6039290" lon="-2.7621950">
        <ele>650.2</ele>
        <time>2020-07-14T05:39:15Z</time>
      </trkpt>
      <trkpt lat="37.6039290" lon="-2.7620040">
        <ele>649.6</ele>
        <time>2020-07-14T05:39:17Z</time>
      </trkpt>
      <trkpt lat="37.6039330" lon="-2.7618310">
        <ele>649.0</ele>
        <time>2020-07-14T05:39:19Z</time>
      </trkpt>
      <trkpt lat="37.6038990" lon="-2.7615830">
        <ele>648.6</ele>
        <time>2020-07-14T05:39:22Z</time>
      </trkpt>
      <trkpt lat="37.6038810" lon="-2.7615060">
        <ele>648.4</ele>
        <time>2020-07-14T05:39:23Z</time>
      </trkpt>
      <trkpt lat="37.6038220" lon="-2.7612670">
        <ele>649.2</ele>
        <time>2020-07-14T05:39:27Z</time>
      </trkpt>
      <trkpt lat="37.6037950" lon="-2.7611750">
        <ele>649.8</ele>
        <time>2020-07-14T05:39:29Z</time>
      </trkpt>
      <trkpt lat="37.6037650" lon="-2.7610450">
        <ele>651.0</ele>
        <time>2020-07-14T05:39:32Z</time>
      </trkpt>
      <trkpt lat="37.6037570" lon="-2.7610020">
        <ele>651.4</ele>
        <time>2020-07-14T05:39:33Z</time>
      </trkpt>
      <trkpt lat="37.6037460" lon="-2.7609200">
        <ele>652.0</ele>
        <time>2020-07-14T05:39:35Z</time>
      </trkpt>
      <trkpt lat="37.6037370" lon="-2.7607880">
        <ele>653.0</ele>
        <time>2020-07-14T05:39:38Z</time>
      </trkpt>
      <trkpt lat="37.6037330" lon="-2.7607450">
        <ele>653.4</ele>
        <time>2020-07-14T05:39:39Z</time>
      </trkpt>
      <trkpt lat="37.6037280" lon="-2.7606490">
        <ele>653.8</ele>
        <time>2020-07-14T05:39:41Z</time>
      </trkpt>
      <trkpt lat="37.6037250" lon="-2.7605020">
        <ele>654.4</ele>
        <time>2020-07-14T05:39:44Z</time>
      </trkpt>
      <trkpt lat="37.6037230" lon="-2.7604460">
        <ele>654.4</ele>
        <time>2020-07-14T05:39:45Z</time>
      </trkpt>
      <trkpt lat="37.6037140" lon="-2.7602880">
        <ele>654.8</ele>
        <time>2020-07-14T05:39:48Z</time>
      </trkpt>
      <trkpt lat="37.6036930" lon="-2.7597760">
        <ele>655.2</ele>
        <time>2020-07-14T05:39:57Z</time>
      </trkpt>
      <trkpt lat="37.6036560" lon="-2.7591610">
        <ele>655.4</ele>
        <time>2020-07-14T05:40:07Z</time>
      </trkpt>
      <trkpt lat="37.6036140" lon="-2.7589040">
        <ele>656.6</ele>
        <time>2020-07-14T05:40:12Z</time>
      </trkpt>
      <trkpt lat="37.6035810" lon="-2.7587440">
        <ele>657.6</ele>
        <time>2020-07-14T05:40:15Z</time>
      </trkpt>
      <trkpt lat="37.6035680" lon="-2.7586890">
        <ele>657.8</ele>
        <time>2020-07-14T05:40:16Z</time>
      </trkpt>
      <trkpt lat="37.6034660" lon="-2.7581800">
        <ele>657.8</ele>
        <time>2020-07-14T05:40:24Z</time>
      </trkpt>
      <trkpt lat="37.6033650" lon="-2.7577070">
        <ele>657.6</ele>
        <time>2020-07-14T05:40:31Z</time>
      </trkpt>
      <trkpt lat="37.6033000" lon="-2.7575230">
        <ele>657.6</ele>
        <time>2020-07-14T05:40:34Z</time>
      </trkpt>
      <trkpt lat="37.6031160" lon="-2.7570140">
        <ele>658.0</ele>
        <time>2020-07-14T05:40:42Z</time>
      </trkpt>
      <trkpt lat="37.6029640" lon="-2.7564240">
        <ele>658.0</ele>
        <time>2020-07-14T05:40:50Z</time>
      </trkpt>
      <trkpt lat="37.6029470" lon="-2.7562900">
        <ele>658.2</ele>
        <time>2020-07-14T05:40:52Z</time>
      </trkpt>
      <trkpt lat="37.6029250" lon="-2.7560480">
        <ele>657.8</ele>
        <time>2020-07-14T05:40:55Z</time>
      </trkpt>
      <trkpt lat="37.6028170" lon="-2.7557150">
        <ele>657.0</ele>
        <time>2020-07-14T05:40:59Z</time>
      </trkpt>
      <trkpt lat="37.6027580" lon="-2.7555520">
        <ele>656.6</ele>
        <time>2020-07-14T05:41:01Z</time>
      </trkpt>
      <trkpt lat="37.6027150" lon="-2.7553510">
        <ele>656.8</ele>
        <time>2020-07-14T05:41:04Z</time>
      </trkpt>
      <trkpt lat="37.6026980" lon="-2.7551010">
        <ele>658.2</ele>
        <time>2020-07-14T05:41:08Z</time>
      </trkpt>
      <trkpt lat="37.6026930" lon="-2.7549240">
        <ele>659.2</ele>
        <time>2020-07-14T05:41:11Z</time>
      </trkpt>
      <trkpt lat="37.6026930" lon="-2.7546360">
        <ele>660.4</ele>
        <time>2020-07-14T05:41:16Z</time>
      </trkpt>
      <trkpt lat="37.6027110" lon="-2.7543940">
        <ele>661.0</ele>
        <time>2020-07-14T05:41:20Z</time>
      </trkpt>
      <trkpt lat="37.6027500" lon="-2.7541520">
        <ele>661.4</ele>
        <time>2020-07-14T05:41:24Z</time>
      </trkpt>
      <trkpt lat="37.6028020" lon="-2.7538830">
        <ele>661.6</ele>
        <time>2020-07-14T05:41:28Z</time>
      </trkpt>
      <trkpt lat="37.6029310" lon="-2.7532170">
        <ele>662.2</ele>
        <time>2020-07-14T05:41:38Z</time>
      </trkpt>
      <trkpt lat="37.6029420" lon="-2.7531590">
        <ele>662.2</ele>
        <time>2020-07-14T05:41:39Z</time>
      </trkpt>
      <trkpt lat="37.6029640" lon="-2.7530320">
        <ele>662.4</ele>
        <time>2020-07-14T05:41:41Z</time>
      </trkpt>
      <trkpt lat="37.6030520" lon="-2.7524490">
        <ele>663.0</ele>
        <time>2020-07-14T05:41:50Z</time>
      </trkpt>
      <trkpt lat="37.6031050" lon="-2.7518360">
        <ele>663.4</ele>
        <time>2020-07-14T05:41:59Z</time>
      </trkpt>
      <trkpt lat="37.6031100" lon="-2.7516920">
        <ele>663.4</ele>
        <time>2020-07-14T05:42:01Z</time>
      </trkpt>
      <trkpt lat="37.6031100" lon="-2.7510810">
        <ele>664.0</ele>
        <time>2020-07-14T05:42:10Z</time>
      </trkpt>
      <trkpt lat="37.6031010" lon="-2.7506480">
        <ele>664.2</ele>
        <time>2020-07-14T05:42:16Z</time>
      </trkpt>
      <trkpt lat="37.6030830" lon="-2.7502850">
        <ele>664.2</ele>
        <time>2020-07-14T05:42:21Z</time>
      </trkpt>
      <trkpt lat="37.6030650" lon="-2.7499330">
        <ele>664.6</ele>
        <time>2020-07-14T05:42:26Z</time>
      </trkpt>
      <trkpt lat="37.6030540" lon="-2.7494630">
        <ele>664.6</ele>
        <time>2020-07-14T05:42:32Z</time>
      </trkpt>
      <trkpt lat="37.6030680" lon="-2.7489030">
        <ele>663.2</ele>
        <time>2020-07-14T05:42:38Z</time>
      </trkpt>
      <trkpt lat="37.6031740" lon="-2.7485100">
        <ele>662.0</ele>
        <time>2020-07-14T05:42:42Z</time>
      </trkpt>
      <trkpt lat="37.6034350" lon="-2.7479000">
        <ele>661.0</ele>
        <time>2020-07-14T05:42:49Z</time>
      </trkpt>
      <trkpt lat="37.6035940" lon="-2.7475910">
        <ele>661.2</ele>
        <time>2020-07-14T05:42:53Z</time>
      </trkpt>
      <trkpt lat="37.6037550" lon="-2.7472870">
        <ele>661.0</ele>
        <time>2020-07-14T05:42:57Z</time>
      </trkpt>
      <trkpt lat="37.6037950" lon="-2.7472120">
        <ele>660.8</ele>
        <time>2020-07-14T05:42:58Z</time>
      </trkpt>
      <trkpt lat="37.6041130" lon="-2.7466600">
        <ele>661.2</ele>
        <time>2020-07-14T05:43:06Z</time>
      </trkpt>
      <trkpt lat="37.6043800" lon="-2.7463410">
        <ele>661.4</ele>
        <time>2020-07-14T05:43:12Z</time>
      </trkpt>
      <trkpt lat="37.6048050" lon="-2.7459630">
        <ele>661.6</ele>
        <time>2020-07-14T05:43:21Z</time>
      </trkpt>
      <trkpt lat="37.6048440" lon="-2.7459230">
        <ele>661.8</ele>
        <time>2020-07-14T05:43:22Z</time>
      </trkpt>
      <trkpt lat="37.6049330" lon="-2.7458460">
        <ele>662.2</ele>
        <time>2020-07-14T05:43:24Z</time>
      </trkpt>
      <trkpt lat="37.6050660" lon="-2.7457520">
        <ele>662.8</ele>
        <time>2020-07-14T05:43:27Z</time>
      </trkpt>
      <trkpt lat="37.6051070" lon="-2.7457250">
        <ele>663.2</ele>
        <time>2020-07-14T05:43:28Z</time>
      </trkpt>
      <trkpt lat="37.6052340" lon="-2.7456610">
        <ele>664.0</ele>
        <time>2020-07-14T05:43:31Z</time>
      </trkpt>
      <trkpt lat="37.6053530" lon="-2.7456010">
        <ele>664.8</ele>
        <time>2020-07-14T05:43:34Z</time>
      </trkpt>
      <trkpt lat="37.6053990" lon="-2.7455730">
        <ele>665.2</ele>
        <time>2020-07-14T05:43:35Z</time>
      </trkpt>
      <trkpt lat="37.6056770" lon="-2.7454530">
        <ele>666.0</ele>
        <time>2020-07-14T05:43:41Z</time>
      </trkpt>
      <trkpt lat="37.6057280" lon="-2.7454450">
        <ele>666.0</ele>
        <time>2020-07-14T05:43:42Z</time>
      </trkpt>
      <trkpt lat="37.6059920" lon="-2.7453900">
        <ele>666.0</ele>
        <time>2020-07-14T05:43:47Z</time>
      </trkpt>
      <trkpt lat="37.6060860" lon="-2.7453200">
        <ele>666.0</ele>
        <time>2020-07-14T05:43:49Z</time>
      </trkpt>
      <trkpt lat="37.6061950" lon="-2.7451600">
        <ele>665.8</ele>
        <time>2020-07-14T05:43:52Z</time>
      </trkpt>
      <trkpt lat="37.6062280" lon="-2.7451020">
        <ele>665.8</ele>
        <time>2020-07-14T05:43:53Z</time>
      </trkpt>
      <trkpt lat="37.6063710" lon="-2.7448870">
        <ele>665.8</ele>
        <time>2020-07-14T05:43:57Z</time>
      </trkpt>
      <trkpt lat="37.6064580" lon="-2.7447980">
        <ele>666.0</ele>
        <time>2020-07-14T05:43:59Z</time>
      </trkpt>
      <trkpt lat="37.6067740" lon="-2.7445370">
        <ele>666.0</ele>
        <time>2020-07-14T05:44:05Z</time>
      </trkpt>
      <trkpt lat="37.6072240" lon="-2.7442200">
        <ele>665.6</ele>
        <time>2020-07-14T05:44:13Z</time>
      </trkpt>
      <trkpt lat="37.6072790" lon="-2.7442010">
        <ele>665.6</ele>
        <time>2020-07-14T05:44:14Z</time>
      </trkpt>
      <trkpt lat="37.6075580" lon="-2.7441140">
        <ele>666.2</ele>
        <time>2020-07-14T05:44:19Z</time>
      </trkpt>
      <trkpt lat="37.6076030" lon="-2.7440810">
        <ele>666.4</ele>
        <time>2020-07-14T05:44:20Z</time>
      </trkpt>
      <trkpt lat="37.6077660" lon="-2.7438980">
        <ele>667.0</ele>
        <time>2020-07-14T05:44:24Z</time>
      </trkpt>
      <trkpt lat="37.6078100" lon="-2.7438410">
        <ele>667.2</ele>
        <time>2020-07-14T05:44:25Z</time>
      </trkpt>
      <trkpt lat="37.6078530" lon="-2.7437850">
        <ele>667.2</ele>
        <time>2020-07-14T05:44:26Z</time>
      </trkpt>
      <trkpt lat="37.6081500" lon="-2.7434500">
        <ele>666.8</ele>
        <time>2020-07-14T05:44:32Z</time>
      </trkpt>
      <trkpt lat="37.6084030" lon="-2.7432500">
        <ele>666.2</ele>
        <time>2020-07-14T05:44:36Z</time>
      </trkpt>
      <trkpt lat="37.6086550" lon="-2.7430740">
        <ele>665.6</ele>
        <time>2020-07-14T05:44:40Z</time>
      </trkpt>
      <trkpt lat="37.6091170" lon="-2.7427850">
        <ele>666.2</ele>
        <time>2020-07-14T05:44:48Z</time>
      </trkpt>
      <trkpt lat="37.6096290" lon="-2.7425100">
        <ele>667.0</ele>
        <time>2020-07-14T05:44:57Z</time>
      </trkpt>
      <trkpt lat="37.6098740" lon="-2.7422490">
        <ele>667.2</ele>
        <time>2020-07-14T05:45:02Z</time>
      </trkpt>
      <trkpt lat="37.6099610" lon="-2.7421490">
        <ele>667.2</ele>
        <time>2020-07-14T05:45:04Z</time>
      </trkpt>
      <trkpt lat="37.6102310" lon="-2.7417910">
        <ele>667.4</ele>
        <time>2020-07-14T05:45:10Z</time>
      </trkpt>
      <trkpt lat="37.6103690" lon="-2.7415840">
        <ele>667.4</ele>
        <time>2020-07-14T05:45:13Z</time>
      </trkpt>
      <trkpt lat="37.6106350" lon="-2.7411790">
        <ele>667.0</ele>
        <time>2020-07-14T05:45:19Z</time>
      </trkpt>
      <trkpt lat="37.6110070" lon="-2.7406300">
        <ele>666.8</ele>
        <time>2020-07-14T05:45:27Z</time>
      </trkpt>
      <trkpt lat="37.6111340" lon="-2.7404290">
        <ele>666.8</ele>
        <time>2020-07-14T05:45:30Z</time>
      </trkpt>
      <trkpt lat="37.6113950" lon="-2.7399880">
        <ele>667.4</ele>
        <time>2020-07-14T05:45:37Z</time>
      </trkpt>
      <trkpt lat="37.6115350" lon="-2.7398410">
        <ele>668.0</ele>
        <time>2020-07-14T05:45:40Z</time>
      </trkpt>
      <trkpt lat="37.6116470" lon="-2.7397540">
        <ele>668.0</ele>
        <time>2020-07-14T05:45:42Z</time>
      </trkpt>
      <trkpt lat="37.6117670" lon="-2.7396920">
        <ele>668.0</ele>
        <time>2020-07-14T05:45:44Z</time>
      </trkpt>
      <trkpt lat="37.6119010" lon="-2.7396700">
        <ele>667.8</ele>
        <time>2020-07-14T05:45:46Z</time>
      </trkpt>
      <trkpt lat="37.6120420" lon="-2.7396900">
        <ele>667.8</ele>
        <time>2020-07-14T05:45:48Z</time>
      </trkpt>
      <trkpt lat="37.6121850" lon="-2.7397250">
        <ele>667.6</ele>
        <time>2020-07-14T05:45:50Z</time>
      </trkpt>
      <trkpt lat="37.6124910" lon="-2.7397820">
        <ele>666.8</ele>
        <time>2020-07-14T05:45:54Z</time>
      </trkpt>
      <trkpt lat="37.6125730" lon="-2.7397650">
        <ele>666.6</ele>
        <time>2020-07-14T05:45:55Z</time>
      </trkpt>
      <trkpt lat="37.6126460" lon="-2.7397270">
        <ele>666.2</ele>
        <time>2020-07-14T05:45:56Z</time>
      </trkpt>
      <trkpt lat="37.6127590" lon="-2.7396100">
        <ele>665.8</ele>
        <time>2020-07-14T05:45:58Z</time>
      </trkpt>
      <trkpt lat="37.6128640" lon="-2.7393540">
        <ele>665.4</ele>
        <time>2020-07-14T05:46:01Z</time>
      </trkpt>
      <trkpt lat="37.6128850" lon="-2.7392720">
        <ele>665.4</ele>
        <time>2020-07-14T05:46:02Z</time>
      </trkpt>
      <trkpt lat="37.6129060" lon="-2.7391830">
        <ele>665.2</ele>
        <time>2020-07-14T05:46:03Z</time>
      </trkpt>
      <trkpt lat="37.6129820" lon="-2.7388770">
        <ele>666.4</ele>
        <time>2020-07-14T05:46:07Z</time>
      </trkpt>
      <trkpt lat="37.6130450" lon="-2.7385860">
        <ele>667.4</ele>
        <time>2020-07-14T05:46:11Z</time>
      </trkpt>
      <trkpt lat="37.6131070" lon="-2.7383020">
        <ele>668.0</ele>
        <time>2020-07-14T05:46:15Z</time>
      </trkpt>
      <trkpt lat="37.6131220" lon="-2.7382350">
        <ele>668.0</ele>
        <time>2020-07-14T05:46:16Z</time>
      </trkpt>
      <trkpt lat="37.6131690" lon="-2.7380250">
        <ele>668.4</ele>
        <time>2020-07-14T05:46:19Z</time>
      </trkpt>
      <trkpt lat="37.6132450" lon="-2.7376700">
        <ele>669.0</ele>
        <time>2020-07-14T05:46:24Z</time>
      </trkpt>
      <trkpt lat="37.6132770" lon="-2.7375260">
        <ele>669.0</ele>
        <time>2020-07-14T05:46:26Z</time>
      </trkpt>
      <trkpt lat="37.6133370" lon="-2.7372620">
        <ele>669.6</ele>
        <time>2020-07-14T05:46:30Z</time>
      </trkpt>
      <trkpt lat="37.6133860" lon="-2.7370230">
        <ele>670.4</ele>
        <time>2020-07-14T05:46:34Z</time>
      </trkpt>
      <trkpt lat="37.6134000" lon="-2.7369500">
        <ele>670.6</ele>
        <time>2020-07-14T05:46:35Z</time>
      </trkpt>
      <trkpt lat="37.6134170" lon="-2.7367540">
        <ele>671.2</ele>
        <time>2020-07-14T05:46:38Z</time>
      </trkpt>
      <trkpt lat="37.6134210" lon="-2.7366140">
        <ele>671.4</ele>
        <time>2020-07-14T05:46:40Z</time>
      </trkpt>
      <trkpt lat="37.6134240" lon="-2.7360870">
        <ele>671.4</ele>
        <time>2020-07-14T05:46:47Z</time>
      </trkpt>
      <trkpt lat="37.6134340" lon="-2.7360120">
        <ele>671.2</ele>
        <time>2020-07-14T05:46:48Z</time>
      </trkpt>
      <trkpt lat="37.6135050" lon="-2.7355890">
        <ele>671.4</ele>
        <time>2020-07-14T05:46:54Z</time>
      </trkpt>
      <trkpt lat="37.6135300" lon="-2.7354540">
        <ele>671.6</ele>
        <time>2020-07-14T05:46:56Z</time>
      </trkpt>
      <trkpt lat="37.6136140" lon="-2.7350650">
        <ele>672.4</ele>
        <time>2020-07-14T05:47:02Z</time>
      </trkpt>
      <trkpt lat="37.6136400" lon="-2.7349450">
        <ele>672.6</ele>
        <time>2020-07-14T05:47:04Z</time>
      </trkpt>
      <trkpt lat="37.6137550" lon="-2.7346260">
        <ele>673.2</ele>
        <time>2020-07-14T05:47:09Z</time>
      </trkpt>
      <trkpt lat="37.6139620" lon="-2.7342070">
        <ele>672.8</ele>
        <time>2020-07-14T05:47:15Z</time>
      </trkpt>
      <trkpt lat="37.6139860" lon="-2.7341310">
        <ele>672.6</ele>
        <time>2020-07-14T05:47:16Z</time>
      </trkpt>
      <trkpt lat="37.6140550" lon="-2.7337760">
        <ele>671.8</ele>
        <time>2020-07-14T05:47:20Z</time>
      </trkpt>
      <trkpt lat="37.6140720" lon="-2.7336840">
        <ele>671.6</ele>
        <time>2020-07-14T05:47:21Z</time>
      </trkpt>
      <trkpt lat="37.6141680" lon="-2.7331260">
        <ele>670.6</ele>
        <time>2020-07-14T05:47:27Z</time>
      </trkpt>
      <trkpt lat="37.6141980" lon="-2.7329440">
        <ele>670.4</ele>
        <time>2020-07-14T05:47:29Z</time>
      </trkpt>
      <trkpt lat="37.6142530" lon="-2.7326730">
        <ele>670.2</ele>
        <time>2020-07-14T05:47:32Z</time>
      </trkpt>
      <trkpt lat="37.6142910" lon="-2.7325080">
        <ele>670.2</ele>
        <time>2020-07-14T05:47:34Z</time>
      </trkpt>
      <trkpt lat="37.6143510" lon="-2.7322290">
        <ele>670.2</ele>
        <time>2020-07-14T05:47:37Z</time>
      </trkpt>
      <trkpt lat="37.6144840" lon="-2.7315260">
        <ele>669.6</ele>
        <time>2020-07-14T05:47:45Z</time>
      </trkpt>
      <trkpt lat="37.6145300" lon="-2.7312720">
        <ele>669.6</ele>
        <time>2020-07-14T05:47:48Z</time>
      </trkpt>
      <trkpt lat="37.6146720" lon="-2.7305450">
        <ele>669.8</ele>
        <time>2020-07-14T05:47:57Z</time>
      </trkpt>
      <trkpt lat="37.6147170" lon="-2.7303930">
        <ele>669.8</ele>
        <time>2020-07-14T05:47:59Z</time>
      </trkpt>
      <trkpt lat="37.6148880" lon="-2.7300580">
        <ele>670.0</ele>
        <time>2020-07-14T05:48:04Z</time>
      </trkpt>
      <trkpt lat="37.6149430" lon="-2.7299920">
        <ele>670.0</ele>
        <time>2020-07-14T05:48:05Z</time>
      </trkpt>
      <trkpt lat="37.6150630" lon="-2.7299410">
        <ele>669.8</ele>
        <time>2020-07-14T05:48:07Z</time>
      </trkpt>
      <trkpt lat="37.6152740" lon="-2.7299770">
        <ele>669.8</ele>
        <time>2020-07-14T05:48:10Z</time>
      </trkpt>
      <trkpt lat="37.6153550" lon="-2.7299960">
        <ele>669.6</ele>
        <time>2020-07-14T05:48:11Z</time>
      </trkpt>
      <trkpt lat="37.6154380" lon="-2.7299950">
        <ele>669.2</ele>
        <time>2020-07-14T05:48:12Z</time>
      </trkpt>
      <trkpt lat="37.6155900" lon="-2.7299340">
        <ele>668.4</ele>
        <time>2020-07-14T05:48:14Z</time>
      </trkpt>
      <trkpt lat="37.6156920" lon="-2.7297870">
        <ele>667.4</ele>
        <time>2020-07-14T05:48:16Z</time>
      </trkpt>
      <trkpt lat="37.6157140" lon="-2.7297020">
        <ele>667.2</ele>
        <time>2020-07-14T05:48:17Z</time>
      </trkpt>
      <trkpt lat="37.6157120" lon="-2.7295380">
        <ele>667.0</ele>
        <time>2020-07-14T05:48:19Z</time>
      </trkpt>
      <trkpt lat="37.6156900" lon="-2.7293750">
        <ele>667.4</ele>
        <time>2020-07-14T05:48:21Z</time>
      </trkpt>
      <trkpt lat="37.6156690" lon="-2.7292100">
        <ele>667.8</ele>
        <time>2020-07-14T05:48:23Z</time>
      </trkpt>
      <trkpt lat="37.6156520" lon="-2.7290380">
        <ele>668.0</ele>
        <time>2020-07-14T05:48:25Z</time>
      </trkpt>
      <trkpt lat="37.6156200" lon="-2.7287800">
        <ele>668.2</ele>
        <time>2020-07-14T05:48:28Z</time>
      </trkpt>
      <trkpt lat="37.6156040" lon="-2.7286950">
        <ele>668.4</ele>
        <time>2020-07-14T05:48:29Z</time>
      </trkpt>
      <trkpt lat="37.6155530" lon="-2.7285330">
        <ele>668.4</ele>
        <time>2020-07-14T05:48:31Z</time>
      </trkpt>
      <trkpt lat="37.6153970" lon="-2.7282700">
        <ele>668.4</ele>
        <time>2020-07-14T05:48:35Z</time>
      </trkpt>
      <trkpt lat="37.6152910" lon="-2.7280860">
        <ele>668.6</ele>
        <time>2020-07-14T05:48:38Z</time>
      </trkpt>
      <trkpt lat="37.6152490" lon="-2.7279590">
        <ele>669.2</ele>
        <time>2020-07-14T05:48:40Z</time>
      </trkpt>
      <trkpt lat="37.6152310" lon="-2.7278850">
        <ele>669.6</ele>
        <time>2020-07-14T05:48:41Z</time>
      </trkpt>
      <trkpt lat="37.6152180" lon="-2.7278220">
        <ele>669.8</ele>
        <time>2020-07-14T05:48:42Z</time>
      </trkpt>
      <trkpt lat="37.6151660" lon="-2.7274950">
        <ele>670.2</ele>
        <time>2020-07-14T05:48:46Z</time>
      </trkpt>
      <trkpt lat="37.6151310" lon="-2.7273060">
        <ele>669.8</ele>
        <time>2020-07-14T05:48:48Z</time>
      </trkpt>
      <trkpt lat="37.6150360" lon="-2.7271460">
        <ele>668.8</ele>
        <time>2020-07-14T05:48:50Z</time>
      </trkpt>
      <trkpt lat="37.6149660" lon="-2.7270750">
        <ele>668.2</ele>
        <time>2020-07-14T05:48:51Z</time>
      </trkpt>
      <trkpt lat="37.6149040" lon="-2.7270180">
        <ele>667.6</ele>
        <time>2020-07-14T05:48:52Z</time>
      </trkpt>
      <trkpt lat="37.6148130" lon="-2.7269320">
        <ele>666.8</ele>
        <time>2020-07-14T05:48:53Z</time>
      </trkpt>
      <trkpt lat="37.6147420" lon="-2.7268610">
        <ele>666.2</ele>
        <time>2020-07-14T05:48:54Z</time>
      </trkpt>
      <trkpt lat="37.6146600" lon="-2.7267700">
        <ele>665.4</ele>
        <time>2020-07-14T05:48:55Z</time>
      </trkpt>
      <trkpt lat="37.6146030" lon="-2.7266720">
        <ele>664.4</ele>
        <time>2020-07-14T05:48:56Z</time>
      </trkpt>
      <trkpt lat="37.6145670" lon="-2.7265560">
        <ele>663.6</ele>
        <time>2020-07-14T05:48:57Z</time>
      </trkpt>
      <trkpt lat="37.6145660" lon="-2.7263290">
        <ele>662.4</ele>
        <time>2020-07-14T05:48:59Z</time>
      </trkpt>
      <trkpt lat="37.6146020" lon="-2.7260880">
        <ele>661.4</ele>
        <time>2020-07-14T05:49:01Z</time>
      </trkpt>
      <trkpt lat="37.6146560" lon="-2.7257830">
        <ele>660.6</ele>
        <time>2020-07-14T05:49:04Z</time>
      </trkpt>
      <trkpt lat="37.6147770" lon="-2.7251250">
        <ele>661.4</ele>
        <time>2020-07-14T05:49:11Z</time>
      </trkpt>
      <trkpt lat="37.6147810" lon="-2.7248690">
        <ele>662.6</ele>
        <time>2020-07-14T05:49:15Z</time>
      </trkpt>
      <trkpt lat="37.6147560" lon="-2.7247700">
        <ele>663.8</ele>
        <time>2020-07-14T05:49:17Z</time>
      </trkpt>
      <trkpt lat="37.6147390" lon="-2.7247190">
        <ele>664.4</ele>
        <time>2020-07-14T05:49:18Z</time>
      </trkpt>
      <trkpt lat="37.6147230" lon="-2.7246780">
        <ele>665.0</ele>
        <time>2020-07-14T05:49:19Z</time>
      </trkpt>
      <trkpt lat="37.6147020" lon="-2.7246250">
        <ele>665.4</ele>
        <time>2020-07-14T05:49:20Z</time>
      </trkpt>
      <trkpt lat="37.6146660" lon="-2.7245280">
        <ele>666.0</ele>
        <time>2020-07-14T05:49:22Z</time>
      </trkpt>
      <trkpt lat="37.6146260" lon="-2.7243340">
        <ele>666.8</ele>
        <time>2020-07-14T05:49:25Z</time>
      </trkpt>
      <trkpt lat="37.6146170" lon="-2.7242700">
        <ele>666.8</ele>
        <time>2020-07-14T05:49:26Z</time>
      </trkpt>
      <trkpt lat="37.6146150" lon="-2.7242090">
        <ele>667.0</ele>
        <time>2020-07-14T05:49:27Z</time>
      </trkpt>
      <trkpt lat="37.6146140" lon="-2.7241530">
        <ele>667.2</ele>
        <time>2020-07-14T05:49:28Z</time>
      </trkpt>
      <trkpt lat="37.6146130" lon="-2.7239140">
        <ele>668.2</ele>
        <time>2020-07-14T05:49:32Z</time>
      </trkpt>
      <trkpt lat="37.6146050" lon="-2.7238590">
        <ele>668.6</ele>
        <time>2020-07-14T05:49:33Z</time>
      </trkpt>
      <trkpt lat="37.6145800" lon="-2.7237510">
        <ele>669.4</ele>
        <time>2020-07-14T05:49:35Z</time>
      </trkpt>
      <trkpt lat="37.6145420" lon="-2.7236460">
        <ele>670.2</ele>
        <time>2020-07-14T05:49:37Z</time>
      </trkpt>
      <trkpt lat="37.6144980" lon="-2.7235420">
        <ele>670.6</ele>
        <time>2020-07-14T05:49:39Z</time>
      </trkpt>
      <trkpt lat="37.6143470" lon="-2.7231790">
        <ele>670.8</ele>
        <time>2020-07-14T05:49:45Z</time>
      </trkpt>
      <trkpt lat="37.6141670" lon="-2.7225970">
        <ele>671.2</ele>
        <time>2020-07-14T05:49:54Z</time>
      </trkpt>
      <trkpt lat="37.6141380" lon="-2.7224480">
        <ele>671.2</ele>
        <time>2020-07-14T05:49:56Z</time>
      </trkpt>
      <trkpt lat="37.6141530" lon="-2.7222280">
        <ele>671.4</ele>
        <time>2020-07-14T05:49:59Z</time>
      </trkpt>
      <trkpt lat="37.6141660" lon="-2.7221500">
        <ele>671.4</ele>
        <time>2020-07-14T05:50:00Z</time>
      </trkpt>
      <trkpt lat="37.6141890" lon="-2.7219230">
        <ele>671.4</ele>
        <time>2020-07-14T05:50:03Z</time>
      </trkpt>
      <trkpt lat="37.6141750" lon="-2.7218620">
        <ele>671.4</ele>
        <time>2020-07-14T05:50:04Z</time>
      </trkpt>
      <trkpt lat="37.6140440" lon="-2.7216890">
        <ele>671.4</ele>
        <time>2020-07-14T05:50:07Z</time>
      </trkpt>
      <trkpt lat="37.6139920" lon="-2.7216390">
        <ele>671.4</ele>
        <time>2020-07-14T05:50:08Z</time>
      </trkpt>
      <trkpt lat="37.6139500" lon="-2.7215890">
        <ele>671.4</ele>
        <time>2020-07-14T05:50:09Z</time>
      </trkpt>
      <trkpt lat="37.6138540" lon="-2.7213920">
        <ele>671.6</ele>
        <time>2020-07-14T05:50:12Z</time>
      </trkpt>
      <trkpt lat="37.6138360" lon="-2.7213220">
        <ele>671.6</ele>
        <time>2020-07-14T05:50:13Z</time>
      </trkpt>
      <trkpt lat="37.6138210" lon="-2.7212530">
        <ele>671.6</ele>
        <time>2020-07-14T05:50:14Z</time>
      </trkpt>
      <trkpt lat="37.6137680" lon="-2.7209550">
        <ele>672.2</ele>
        <time>2020-07-14T05:50:18Z</time>
      </trkpt>
      <trkpt lat="37.6137120" lon="-2.7205490">
        <ele>672.4</ele>
        <time>2020-07-14T05:50:23Z</time>
      </trkpt>
      <trkpt lat="37.6136690" lon="-2.7203850">
        <ele>672.2</ele>
        <time>2020-07-14T05:50:25Z</time>
      </trkpt>
      <trkpt lat="37.6134820" lon="-2.7199390">
        <ele>672.2</ele>
        <time>2020-07-14T05:50:31Z</time>
      </trkpt>
      <trkpt lat="37.6133310" lon="-2.7195780">
        <ele>672.4</ele>
        <time>2020-07-14T05:50:36Z</time>
      </trkpt>
      <trkpt lat="37.6132370" lon="-2.7192830">
        <ele>672.6</ele>
        <time>2020-07-14T05:50:40Z</time>
      </trkpt>
      <trkpt lat="37.6131270" lon="-2.7187230">
        <ele>673.2</ele>
        <time>2020-07-14T05:50:47Z</time>
      </trkpt>
      <trkpt lat="37.6130290" lon="-2.7179750">
        <ele>673.6</ele>
        <time>2020-07-14T05:50:56Z</time>
      </trkpt>
      <trkpt lat="37.6130230" lon="-2.7178940">
        <ele>673.6</ele>
        <time>2020-07-14T05:50:57Z</time>
      </trkpt>
      <trkpt lat="37.6130170" lon="-2.7178120">
        <ele>673.6</ele>
        <time>2020-07-14T05:50:58Z</time>
      </trkpt>
      <trkpt lat="37.6129820" lon="-2.7170860">
        <ele>674.4</ele>
        <time>2020-07-14T05:51:07Z</time>
      </trkpt>
      <trkpt lat="37.6129680" lon="-2.7166990">
        <ele>674.8</ele>
        <time>2020-07-14T05:51:12Z</time>
      </trkpt>
      <trkpt lat="37.6129540" lon="-2.7163280">
        <ele>675.2</ele>
        <time>2020-07-14T05:51:17Z</time>
      </trkpt>
      <trkpt lat="37.6129650" lon="-2.7161870">
        <ele>675.6</ele>
        <time>2020-07-14T05:51:19Z</time>
      </trkpt>
      <trkpt lat="37.6130400" lon="-2.7159960">
        <ele>675.8</ele>
        <time>2020-07-14T05:51:22Z</time>
      </trkpt>
      <trkpt lat="37.6130870" lon="-2.7159400">
        <ele>675.8</ele>
        <time>2020-07-14T05:51:23Z</time>
      </trkpt>
      <trkpt lat="37.6131320" lon="-2.7158930">
        <ele>676.0</ele>
        <time>2020-07-14T05:51:24Z</time>
      </trkpt>
      <trkpt lat="37.6131830" lon="-2.7158280">
        <ele>676.0</ele>
        <time>2020-07-14T05:51:25Z</time>
      </trkpt>
      <trkpt lat="37.6132180" lon="-2.7157460">
        <ele>675.8</ele>
        <time>2020-07-14T05:51:26Z</time>
      </trkpt>
      <trkpt lat="37.6132180" lon="-2.7155600">
        <ele>675.2</ele>
        <time>2020-07-14T05:51:28Z</time>
      </trkpt>
      <trkpt lat="37.6131780" lon="-2.7154760">
        <ele>674.8</ele>
        <time>2020-07-14T05:51:29Z</time>
      </trkpt>
      <trkpt lat="37.6131250" lon="-2.7154010">
        <ele>674.2</ele>
        <time>2020-07-14T05:51:30Z</time>
      </trkpt>
      <trkpt lat="37.6130210" lon="-2.7152740">
        <ele>673.6</ele>
        <time>2020-07-14T05:51:32Z</time>
      </trkpt>
      <trkpt lat="37.6129780" lon="-2.7152010">
        <ele>673.4</ele>
        <time>2020-07-14T05:51:33Z</time>
      </trkpt>
      <trkpt lat="37.6129540" lon="-2.7151350">
        <ele>673.6</ele>
        <time>2020-07-14T05:51:34Z</time>
      </trkpt>
      <trkpt lat="37.6129320" lon="-2.7148660">
        <ele>673.8</ele>
        <time>2020-07-14T05:51:37Z</time>
      </trkpt>
      <trkpt lat="37.6129360" lon="-2.7147780">
        <ele>673.8</ele>
        <time>2020-07-14T05:51:38Z</time>
      </trkpt>
      <trkpt lat="37.6129620" lon="-2.7142860">
        <ele>673.8</ele>
        <time>2020-07-14T05:51:44Z</time>
      </trkpt>
      <trkpt lat="37.6129650" lon="-2.7140810">
        <ele>674.6</ele>
        <time>2020-07-14T05:51:47Z</time>
      </trkpt>
      <trkpt lat="37.6129680" lon="-2.7139560">
        <ele>675.2</ele>
        <time>2020-07-14T05:51:49Z</time>
      </trkpt>
      <trkpt lat="37.6129720" lon="-2.7138950">
        <ele>675.6</ele>
        <time>2020-07-14T05:51:50Z</time>
      </trkpt>
      <trkpt lat="37.6129760" lon="-2.7138390">
        <ele>675.8</ele>
        <time>2020-07-14T05:51:51Z</time>
      </trkpt>
      <trkpt lat="37.6129830" lon="-2.7137310">
        <ele>676.6</ele>
        <time>2020-07-14T05:51:53Z</time>
      </trkpt>
      <trkpt lat="37.6129900" lon="-2.7136840">
        <ele>677.0</ele>
        <time>2020-07-14T05:51:54Z</time>
      </trkpt>
      <trkpt lat="37.6130100" lon="-2.7135850">
        <ele>677.8</ele>
        <time>2020-07-14T05:51:56Z</time>
      </trkpt>
      <trkpt lat="37.6130200" lon="-2.7135380">
        <ele>678.4</ele>
        <time>2020-07-14T05:51:57Z</time>
      </trkpt>
      <trkpt lat="37.6130440" lon="-2.7134510">
        <ele>679.0</ele>
        <time>2020-07-14T05:51:59Z</time>
      </trkpt>
      <trkpt lat="37.6130760" lon="-2.7133510">
        <ele>679.6</ele>
        <time>2020-07-14T05:52:01Z</time>
      </trkpt>
      <trkpt lat="37.6131280" lon="-2.7132080">
        <ele>680.2</ele>
        <time>2020-07-14T05:52:04Z</time>
      </trkpt>
      <trkpt lat="37.6131780" lon="-2.7130900">
        <ele>680.6</ele>
        <time>2020-07-14T05:52:06Z</time>
      </trkpt>
      <trkpt lat="37.6133670" lon="-2.7126400">
        <ele>681.2</ele>
        <time>2020-07-14T05:52:14Z</time>
      </trkpt>
      <trkpt lat="37.6134470" lon="-2.7122520">
        <ele>681.6</ele>
        <time>2020-07-14T05:52:20Z</time>
      </trkpt>
      <trkpt lat="37.6134420" lon="-2.7119920">
        <ele>681.6</ele>
        <time>2020-07-14T05:52:24Z</time>
      </trkpt>
      <trkpt lat="37.6134230" lon="-2.7117870">
        <ele>682.0</ele>
        <time>2020-07-14T05:52:27Z</time>
      </trkpt>
      <trkpt lat="37.6133800" lon="-2.7112880">
        <ele>681.4</ele>
        <time>2020-07-14T05:52:33Z</time>
      </trkpt>
      <trkpt lat="37.6133610" lon="-2.7110700">
        <ele>680.6</ele>
        <time>2020-07-14T05:52:35Z</time>
      </trkpt>
      <trkpt lat="37.6133470" lon="-2.7108450">
        <ele>679.4</ele>
        <time>2020-07-14T05:52:37Z</time>
      </trkpt>
      <trkpt lat="37.6133460" lon="-2.7107270">
        <ele>678.6</ele>
        <time>2020-07-14T05:52:38Z</time>
      </trkpt>
      <trkpt lat="37.6133490" lon="-2.7106180">
        <ele>678.0</ele>
        <time>2020-07-14T05:52:39Z</time>
      </trkpt>
      <trkpt lat="37.6133810" lon="-2.7102870">
        <ele>677.2</ele>
        <time>2020-07-14T05:52:42Z</time>
      </trkpt>
      <trkpt lat="37.6133970" lon="-2.7101830">
        <ele>677.0</ele>
        <time>2020-07-14T05:52:43Z</time>
      </trkpt>
      <trkpt lat="37.6134150" lon="-2.7100860">
        <ele>676.8</ele>
        <time>2020-07-14T05:52:44Z</time>
      </trkpt>
      <trkpt lat="37.6134890" lon="-2.7097890">
        <ele>676.6</ele>
        <time>2020-07-14T05:52:47Z</time>
      </trkpt>
      <trkpt lat="37.6135620" lon="-2.7096340">
        <ele>676.4</ele>
        <time>2020-07-14T05:52:49Z</time>
      </trkpt>
      <trkpt lat="37.6136890" lon="-2.7095260">
        <ele>676.4</ele>
        <time>2020-07-14T05:52:51Z</time>
      </trkpt>
      <trkpt lat="37.6137530" lon="-2.7095030">
        <ele>676.2</ele>
        <time>2020-07-14T05:52:52Z</time>
      </trkpt>
      <trkpt lat="37.6139060" lon="-2.7094640">
        <ele>676.4</ele>
        <time>2020-07-14T05:52:54Z</time>
      </trkpt>
      <trkpt lat="37.6141290" lon="-2.7093770">
        <ele>676.4</ele>
        <time>2020-07-14T05:52:57Z</time>
      </trkpt>
      <trkpt lat="37.6141990" lon="-2.7093280">
        <ele>676.2</ele>
        <time>2020-07-14T05:52:58Z</time>
      </trkpt>
      <trkpt lat="37.6142620" lon="-2.7092560">
        <ele>676.0</ele>
        <time>2020-07-14T05:52:59Z</time>
      </trkpt>
      <trkpt lat="37.6143090" lon="-2.7091600">
        <ele>675.8</ele>
        <time>2020-07-14T05:53:00Z</time>
      </trkpt>
      <trkpt lat="37.6143300" lon="-2.7088610">
        <ele>674.8</ele>
        <time>2020-07-14T05:53:03Z</time>
      </trkpt>
      <trkpt lat="37.6142220" lon="-2.7086710">
        <ele>674.6</ele>
        <time>2020-07-14T05:53:06Z</time>
      </trkpt>
      <trkpt lat="37.6140830" lon="-2.7086450">
        <ele>675.4</ele>
        <time>2020-07-14T05:53:09Z</time>
      </trkpt>
      <trkpt lat="37.6140390" lon="-2.7086470">
        <ele>675.8</ele>
        <time>2020-07-14T05:53:10Z</time>
      </trkpt>
      <trkpt lat="37.6139950" lon="-2.7086500">
        <ele>676.2</ele>
        <time>2020-07-14T05:53:11Z</time>
      </trkpt>
      <trkpt lat="37.6139080" lon="-2.7086580">
        <ele>677.0</ele>
        <time>2020-07-14T05:53:13Z</time>
      </trkpt>
      <trkpt lat="37.6138640" lon="-2.7086580">
        <ele>677.2</ele>
        <time>2020-07-14T05:53:14Z</time>
      </trkpt>
      <trkpt lat="37.6138160" lon="-2.7086510">
        <ele>677.4</ele>
        <time>2020-07-14T05:53:15Z</time>
      </trkpt>
      <trkpt lat="37.6137710" lon="-2.7086390">
        <ele>677.6</ele>
        <time>2020-07-14T05:53:16Z</time>
      </trkpt>
      <trkpt lat="37.6136460" lon="-2.7085430">
        <ele>678.2</ele>
        <time>2020-07-14T05:53:19Z</time>
      </trkpt>
      <trkpt lat="37.6136200" lon="-2.7084890">
        <ele>678.2</ele>
        <time>2020-07-14T05:53:20Z</time>
      </trkpt>
      <trkpt lat="37.6135960" lon="-2.7082840">
        <ele>678.2</ele>
        <time>2020-07-14T05:53:23Z</time>
      </trkpt>
      <trkpt lat="37.6136110" lon="-2.7081360">
        <ele>678.0</ele>
        <time>2020-07-14T05:53:25Z</time>
      </trkpt>
      <trkpt lat="37.6136480" lon="-2.7078360">
        <ele>677.8</ele>
        <time>2020-07-14T05:53:29Z</time>
      </trkpt>
      <trkpt lat="37.6137240" lon="-2.7071800">
        <ele>677.2</ele>
        <time>2020-07-14T05:53:37Z</time>
      </trkpt>
      <trkpt lat="37.6137990" lon="-2.7067850">
        <ele>676.8</ele>
        <time>2020-07-14T05:53:42Z</time>
      </trkpt>
      <trkpt lat="37.6137980" lon="-2.7066210">
        <ele>676.8</ele>
        <time>2020-07-14T05:53:44Z</time>
      </trkpt>
      <trkpt lat="37.6137720" lon="-2.7064640">
        <ele>676.8</ele>
        <time>2020-07-14T05:53:46Z</time>
      </trkpt>
      <trkpt lat="37.6137530" lon="-2.7063080">
        <ele>676.8</ele>
        <time>2020-07-14T05:53:48Z</time>
      </trkpt>
      <trkpt lat="37.6137540" lon="-2.7062310">
        <ele>676.8</ele>
        <time>2020-07-14T05:53:49Z</time>
      </trkpt>
      <trkpt lat="37.6138300" lon="-2.7057510">
        <ele>677.2</ele>
        <time>2020-07-14T05:53:55Z</time>
      </trkpt>
      <trkpt lat="37.6138720" lon="-2.7055020">
        <ele>677.0</ele>
        <time>2020-07-14T05:53:58Z</time>
      </trkpt>
      <trkpt lat="37.6138690" lon="-2.7053180">
        <ele>676.8</ele>
        <time>2020-07-14T05:54:00Z</time>
      </trkpt>
      <trkpt lat="37.6138290" lon="-2.7047090">
        <ele>676.4</ele>
        <time>2020-07-14T05:54:07Z</time>
      </trkpt>
      <trkpt lat="37.6138480" lon="-2.7046320">
        <ele>676.4</ele>
        <time>2020-07-14T05:54:08Z</time>
      </trkpt>
      <trkpt lat="37.6139440" lon="-2.7044090">
        <ele>676.6</ele>
        <time>2020-07-14T05:54:11Z</time>
      </trkpt>
      <trkpt lat="37.6139800" lon="-2.7043370">
        <ele>676.6</ele>
        <time>2020-07-14T05:54:12Z</time>
      </trkpt>
      <trkpt lat="37.6142170" lon="-2.7037910">
        <ele>677.2</ele>
        <time>2020-07-14T05:54:20Z</time>
      </trkpt>
      <trkpt lat="37.6144550" lon="-2.7032470">
        <ele>677.6</ele>
        <time>2020-07-14T05:54:28Z</time>
      </trkpt>
      <trkpt lat="37.6146210" lon="-2.7028630">
        <ele>678.4</ele>
        <time>2020-07-14T05:54:34Z</time>
      </trkpt>
      <trkpt lat="37.6146730" lon="-2.7027250">
        <ele>678.6</ele>
        <time>2020-07-14T05:54:36Z</time>
      </trkpt>
      <trkpt lat="37.6147270" lon="-2.7025410">
        <ele>679.0</ele>
        <time>2020-07-14T05:54:39Z</time>
      </trkpt>
      <trkpt lat="37.6147600" lon="-2.7024130">
        <ele>679.4</ele>
        <time>2020-07-14T05:54:41Z</time>
      </trkpt>
      <trkpt lat="37.6148050" lon="-2.7022280">
        <ele>680.2</ele>
        <time>2020-07-14T05:54:44Z</time>
      </trkpt>
      <trkpt lat="37.6148350" lon="-2.7021010">
        <ele>680.6</ele>
        <time>2020-07-14T05:54:46Z</time>
      </trkpt>
      <trkpt lat="37.6149380" lon="-2.7017880">
        <ele>681.2</ele>
        <time>2020-07-14T05:54:51Z</time>
      </trkpt>
      <trkpt lat="37.6150490" lon="-2.7015760">
        <ele>681.6</ele>
        <time>2020-07-14T05:54:55Z</time>
      </trkpt>
      <trkpt lat="37.6151970" lon="-2.7013340">
        <ele>682.0</ele>
        <time>2020-07-14T05:55:00Z</time>
      </trkpt>
      <trkpt lat="37.6153200" lon="-2.7011480">
        <ele>682.8</ele>
        <time>2020-07-14T05:55:05Z</time>
      </trkpt>
      <trkpt lat="37.6153460" lon="-2.7011270">
        <ele>682.8</ele>
        <time>2020-07-14T05:55:06Z</time>
      </trkpt>
      <trkpt lat="37.6154900" lon="-2.7011090">
        <ele>683.6</ele>
        <time>2020-07-14T05:55:11Z</time>
      </trkpt>
      <trkpt lat="37.6155150" lon="-2.7011150">
        <ele>683.8</ele>
        <time>2020-07-14T05:55:12Z</time>
      </trkpt>
      <trkpt lat="37.6156520" lon="-2.7011570">
        <ele>685.0</ele>
        <time>2020-07-14T05:55:17Z</time>
      </trkpt>
      <trkpt lat="37.6157320" lon="-2.7011820">
        <ele>685.6</ele>
        <time>2020-07-14T05:55:20Z</time>
      </trkpt>
      <trkpt lat="37.6157820" lon="-2.7011980">
        <ele>686.0</ele>
        <time>2020-07-14T05:55:22Z</time>
      </trkpt>
      <trkpt lat="37.6159130" lon="-2.7012350">
        <ele>687.0</ele>
        <time>2020-07-14T05:55:27Z</time>
      </trkpt>
      <trkpt lat="37.6159890" lon="-2.7012570">
        <ele>687.8</ele>
        <time>2020-07-14T05:55:30Z</time>
      </trkpt>
      <trkpt lat="37.6160400" lon="-2.7012740">
        <ele>688.2</ele>
        <time>2020-07-14T05:55:32Z</time>
      </trkpt>
      <trkpt lat="37.6161400" lon="-2.7013090">
        <ele>689.2</ele>
        <time>2020-07-14T05:55:36Z</time>
      </trkpt>
      <trkpt lat="37.6161640" lon="-2.7013150">
        <ele>689.6</ele>
        <time>2020-07-14T05:55:37Z</time>
      </trkpt>
      <trkpt lat="37.6162840" lon="-2.7013430">
        <ele>690.6</ele>
        <time>2020-07-14T05:55:42Z</time>
      </trkpt>
      <trkpt lat="37.6163520" lon="-2.7013710">
        <ele>691.2</ele>
        <time>2020-07-14T05:55:45Z</time>
      </trkpt>
      <trkpt lat="37.6163940" lon="-2.7013930">
        <ele>691.8</ele>
        <time>2020-07-14T05:55:47Z</time>
      </trkpt>
      <trkpt lat="37.6164990" lon="-2.7014450">
        <ele>693.0</ele>
        <time>2020-07-14T05:55:52Z</time>
      </trkpt>
      <trkpt lat="37.6165220" lon="-2.7014560">
        <ele>693.4</ele>
        <time>2020-07-14T05:55:53Z</time>
      </trkpt>
      <trkpt lat="37.6165810" lon="-2.7014890">
        <ele>694.2</ele>
        <time>2020-07-14T05:55:56Z</time>
      </trkpt>
      <trkpt lat="37.6166560" lon="-2.7015400">
        <ele>695.2</ele>
        <time>2020-07-14T05:56:00Z</time>
      </trkpt>
      <trkpt lat="37.6167240" lon="-2.7015910">
        <ele>696.2</ele>
        <time>2020-07-14T05:56:04Z</time>
      </trkpt>
      <trkpt lat="37.6167440" lon="-2.7016070">
        <ele>696.4</ele>
        <time>2020-07-14T05:56:05Z</time>
      </trkpt>
      <trkpt lat="37.6168350" lon="-2.7016760">
        <ele>697.6</ele>
        <time>2020-07-14T05:56:10Z</time>
      </trkpt>
      <trkpt lat="37.6168750" lon="-2.7017040">
        <ele>698.2</ele>
        <time>2020-07-14T05:56:12Z</time>
      </trkpt>
      <trkpt lat="37.6169100" lon="-2.7017330">
        <ele>698.8</ele>
        <time>2020-07-14T05:56:14Z</time>
      </trkpt>
      <trkpt lat="37.6169890" lon="-2.7017900">
        <ele>700.0</ele>
        <time>2020-07-14T05:56:18Z</time>
      </trkpt>
      <trkpt lat="37.6170590" lon="-2.7018440">
        <ele>701.0</ele>
        <time>2020-07-14T05:56:22Z</time>
      </trkpt>
      <trkpt lat="37.6170790" lon="-2.7018600">
        <ele>701.2</ele>
        <time>2020-07-14T05:56:23Z</time>
      </trkpt>
      <trkpt lat="37.6171670" lon="-2.7019250">
        <ele>702.2</ele>
        <time>2020-07-14T05:56:28Z</time>
      </trkpt>
      <trkpt lat="37.6172240" lon="-2.7019560">
        <ele>703.0</ele>
        <time>2020-07-14T05:56:31Z</time>
      </trkpt>
      <trkpt lat="37.6172610" lon="-2.7019760">
        <ele>703.6</ele>
        <time>2020-07-14T05:56:33Z</time>
      </trkpt>
      <trkpt lat="37.6173280" lon="-2.7020140">
        <ele>704.6</ele>
        <time>2020-07-14T05:56:37Z</time>
      </trkpt>
      <trkpt lat="37.6173630" lon="-2.7020260">
        <ele>705.2</ele>
        <time>2020-07-14T05:56:39Z</time>
      </trkpt>
      <trkpt lat="37.6174220" lon="-2.7020490">
        <ele>705.8</ele>
        <time>2020-07-14T05:56:42Z</time>
      </trkpt>
      <trkpt lat="37.6175120" lon="-2.7020900">
        <ele>707.0</ele>
        <time>2020-07-14T05:56:47Z</time>
      </trkpt>
      <trkpt lat="37.6175890" lon="-2.7021040">
        <ele>708.0</ele>
        <time>2020-07-14T05:56:51Z</time>
      </trkpt>
      <trkpt lat="37.6176670" lon="-2.7021200">
        <ele>709.0</ele>
        <time>2020-07-14T05:56:55Z</time>
      </trkpt>
      <trkpt lat="37.6177470" lon="-2.7021190">
        <ele>710.2</ele>
        <time>2020-07-14T05:56:59Z</time>
      </trkpt>
      <trkpt lat="37.6178540" lon="-2.7021250">
        <ele>711.4</ele>
        <time>2020-07-14T05:57:04Z</time>
      </trkpt>
      <trkpt lat="37.6179470" lon="-2.7021380">
        <ele>712.4</ele>
        <time>2020-07-14T05:57:08Z</time>
      </trkpt>
      <trkpt lat="37.6180610" lon="-2.7021460">
        <ele>713.6</ele>
        <time>2020-07-14T05:57:13Z</time>
      </trkpt>
      <trkpt lat="37.6180820" lon="-2.7021490">
        <ele>713.8</ele>
        <time>2020-07-14T05:57:14Z</time>
      </trkpt>
      <trkpt lat="37.6181530" lon="-2.7021540">
        <ele>714.8</ele>
        <time>2020-07-14T05:57:17Z</time>
      </trkpt>
      <trkpt lat="37.6182670" lon="-2.7021720">
        <ele>716.0</ele>
        <time>2020-07-14T05:57:22Z</time>
      </trkpt>
      <trkpt lat="37.6183870" lon="-2.7021930">
        <ele>717.0</ele>
        <time>2020-07-14T05:57:27Z</time>
      </trkpt>
      <trkpt lat="37.6184580" lon="-2.7022050">
        <ele>717.6</ele>
        <time>2020-07-14T05:57:30Z</time>
      </trkpt>
      <trkpt lat="37.6185050" lon="-2.7022090">
        <ele>718.0</ele>
        <time>2020-07-14T05:57:32Z</time>
      </trkpt>
      <trkpt lat="37.6186740" lon="-2.7022420">
        <ele>719.0</ele>
        <time>2020-07-14T05:57:39Z</time>
      </trkpt>
      <trkpt lat="37.6187000" lon="-2.7022440">
        <ele>719.2</ele>
        <time>2020-07-14T05:57:40Z</time>
      </trkpt>
      <trkpt lat="37.6187960" lon="-2.7022690">
        <ele>720.2</ele>
        <time>2020-07-14T05:57:44Z</time>
      </trkpt>
      <trkpt lat="37.6189500" lon="-2.7023220">
        <ele>721.2</ele>
        <time>2020-07-14T05:57:50Z</time>
      </trkpt>
      <trkpt lat="37.6189760" lon="-2.7023300">
        <ele>721.2</ele>
        <time>2020-07-14T05:57:51Z</time>
      </trkpt>
      <trkpt lat="37.6191300" lon="-2.7023880">
        <ele>722.4</ele>
        <time>2020-07-14T05:57:57Z</time>
      </trkpt>
      <trkpt lat="37.6192340" lon="-2.7024250">
        <ele>723.0</ele>
        <time>2020-07-14T05:58:01Z</time>
      </trkpt>
      <trkpt lat="37.6193410" lon="-2.7024660">
        <ele>723.6</ele>
        <time>2020-07-14T05:58:05Z</time>
      </trkpt>
      <trkpt lat="37.6194500" lon="-2.7025110">
        <ele>724.8</ele>
        <time>2020-07-14T05:58:09Z</time>
      </trkpt>
      <trkpt lat="37.6195960" lon="-2.7025740">
        <ele>725.4</ele>
        <time>2020-07-14T05:58:14Z</time>
      </trkpt>
      <trkpt lat="37.6196570" lon="-2.7025990">
        <ele>725.8</ele>
        <time>2020-07-14T05:58:16Z</time>
      </trkpt>
      <trkpt lat="37.6199160" lon="-2.7026980">
        <ele>726.8</ele>
        <time>2020-07-14T05:58:24Z</time>
      </trkpt>
      <trkpt lat="37.6199550" lon="-2.7027120">
        <ele>726.8</ele>
        <time>2020-07-14T05:58:25Z</time>
      </trkpt>
      <trkpt lat="37.6202230" lon="-2.7028250">
        <ele>727.8</ele>
        <time>2020-07-14T05:58:32Z</time>
      </trkpt>
      <trkpt lat="37.6202990" lon="-2.7028590">
        <ele>727.8</ele>
        <time>2020-07-14T05:58:34Z</time>
      </trkpt>
      <trkpt lat="37.6206480" lon="-2.7030110">
        <ele>728.2</ele>
        <time>2020-07-14T05:58:42Z</time>
      </trkpt>
      <trkpt lat="37.6206920" lon="-2.7030300">
        <ele>728.4</ele>
        <time>2020-07-14T05:58:43Z</time>
      </trkpt>
      <trkpt lat="37.6208700" lon="-2.7031060">
        <ele>729.0</ele>
        <time>2020-07-14T05:58:47Z</time>
      </trkpt>
      <trkpt lat="37.6211410" lon="-2.7032270">
        <ele>729.2</ele>
        <time>2020-07-14T05:58:53Z</time>
      </trkpt>
      <trkpt lat="37.6212330" lon="-2.7032680">
        <ele>729.4</ele>
        <time>2020-07-14T05:58:55Z</time>
      </trkpt>
      <trkpt lat="37.6214690" lon="-2.7033740">
        <ele>729.6</ele>
        <time>2020-07-14T05:59:00Z</time>
      </trkpt>
      <trkpt lat="37.6218190" lon="-2.7035280">
        <ele>729.6</ele>
        <time>2020-07-14T05:59:07Z</time>
      </trkpt>
      <trkpt lat="37.6220920" lon="-2.7036470">
        <ele>729.4</ele>
        <time>2020-07-14T05:59:12Z</time>
      </trkpt>
      <trkpt lat="37.6223800" lon="-2.7037750">
        <ele>729.2</ele>
        <time>2020-07-14T05:59:17Z</time>
      </trkpt>
      <trkpt lat="37.6228030" lon="-2.7040240">
        <ele>728.6</ele>
        <time>2020-07-14T05:59:24Z</time>
      </trkpt>
      <trkpt lat="37.6231320" lon="-2.7043040">
        <ele>727.8</ele>
        <time>2020-07-14T05:59:29Z</time>
      </trkpt>
      <trkpt lat="37.6232010" lon="-2.7043740">
        <ele>727.6</ele>
        <time>2020-07-14T05:59:30Z</time>
      </trkpt>
      <trkpt lat="37.6234610" lon="-2.7046900">
        <ele>726.4</ele>
        <time>2020-07-14T05:59:34Z</time>
      </trkpt>
      <trkpt lat="37.6235370" lon="-2.7047950">
        <ele>725.8</ele>
        <time>2020-07-14T05:59:35Z</time>
      </trkpt>
      <trkpt lat="37.6236050" lon="-2.7048950">
        <ele>725.4</ele>
        <time>2020-07-14T05:59:36Z</time>
      </trkpt>
      <trkpt lat="37.6237400" lon="-2.7051080">
        <ele>723.8</ele>
        <time>2020-07-14T05:59:38Z</time>
      </trkpt>
      <trkpt lat="37.6238810" lon="-2.7053160">
        <ele>722.4</ele>
        <time>2020-07-14T05:59:40Z</time>
      </trkpt>
      <trkpt lat="37.6240510" lon="-2.7055260">
        <ele>721.0</ele>
        <time>2020-07-14T05:59:42Z</time>
      </trkpt>
      <trkpt lat="37.6242230" lon="-2.7057080">
        <ele>720.0</ele>
        <time>2020-07-14T05:59:44Z</time>
      </trkpt>
      <trkpt lat="37.6243200" lon="-2.7057960">
        <ele>719.4</ele>
        <time>2020-07-14T05:59:45Z</time>
      </trkpt>
      <trkpt lat="37.6245040" lon="-2.7059420">
        <ele>718.4</ele>
        <time>2020-07-14T05:59:47Z</time>
      </trkpt>
      <trkpt lat="37.6246800" lon="-2.7060510">
        <ele>718.0</ele>
        <time>2020-07-14T05:59:49Z</time>
      </trkpt>
      <trkpt lat="37.6250680" lon="-2.7062800">
        <ele>718.2</ele>
        <time>2020-07-14T05:59:54Z</time>
      </trkpt>
      <trkpt lat="37.6253970" lon="-2.7064720">
        <ele>718.4</ele>
        <time>2020-07-14T05:59:59Z</time>
      </trkpt>
      <trkpt lat="37.6254630" lon="-2.7065050">
        <ele>718.4</ele>
        <time>2020-07-14T06:00:00Z</time>
      </trkpt>
      <trkpt lat="37.6255200" lon="-2.7065390">
        <ele>718.8</ele>
        <time>2020-07-14T06:00:01Z</time>
      </trkpt>
      <trkpt lat="37.6256710" lon="-2.7066380">
        <ele>719.2</ele>
        <time>2020-07-14T06:00:04Z</time>
      </trkpt>
      <trkpt lat="37.6257260" lon="-2.7066720">
        <ele>719.6</ele>
        <time>2020-07-14T06:00:05Z</time>
      </trkpt>
      <trkpt lat="37.6258180" lon="-2.7067280">
        <ele>720.2</ele>
        <time>2020-07-14T06:00:07Z</time>
      </trkpt>
      <trkpt lat="37.6258630" lon="-2.7067540">
        <ele>720.6</ele>
        <time>2020-07-14T06:00:08Z</time>
      </trkpt>
      <trkpt lat="37.6259470" lon="-2.7067920">
        <ele>721.2</ele>
        <time>2020-07-14T06:00:10Z</time>
      </trkpt>
      <trkpt lat="37.6260340" lon="-2.7068230">
        <ele>721.6</ele>
        <time>2020-07-14T06:00:12Z</time>
      </trkpt>
      <trkpt lat="37.6260770" lon="-2.7068340">
        <ele>721.8</ele>
        <time>2020-07-14T06:00:13Z</time>
      </trkpt>
      <trkpt lat="37.6261190" lon="-2.7068380">
        <ele>722.0</ele>
        <time>2020-07-14T06:00:14Z</time>
      </trkpt>
      <trkpt lat="37.6262580" lon="-2.7068430">
        <ele>723.2</ele>
        <time>2020-07-14T06:00:17Z</time>
      </trkpt>
      <trkpt lat="37.6263030" lon="-2.7068420">
        <ele>723.4</ele>
        <time>2020-07-14T06:00:18Z</time>
      </trkpt>
      <trkpt lat="37.6264810" lon="-2.7068420">
        <ele>724.2</ele>
        <time>2020-07-14T06:00:22Z</time>
      </trkpt>
      <trkpt lat="37.6267000" lon="-2.7068460">
        <ele>725.2</ele>
        <time>2020-07-14T06:00:27Z</time>
      </trkpt>
      <trkpt lat="37.6267410" lon="-2.7068460">
        <ele>725.2</ele>
        <time>2020-07-14T06:00:28Z</time>
      </trkpt>
      <trkpt lat="37.6267850" lon="-2.7068450">
        <ele>725.4</ele>
        <time>2020-07-14T06:00:29Z</time>
      </trkpt>
      <trkpt lat="37.6270110" lon="-2.7068440">
        <ele>726.2</ele>
        <time>2020-07-14T06:00:35Z</time>
      </trkpt>
      <trkpt lat="37.6271420" lon="-2.7068450">
        <ele>726.4</ele>
        <time>2020-07-14T06:00:37Z</time>
      </trkpt>
      <trkpt lat="37.6273620" lon="-2.7068440">
        <ele>727.4</ele>
        <time>2020-07-14T06:00:42Z</time>
      </trkpt>
      <trkpt lat="37.6274050" lon="-2.7068440">
        <ele>727.6</ele>
        <time>2020-07-14T06:00:43Z</time>
      </trkpt>
      <trkpt lat="37.6277570" lon="-2.7068420">
        <ele>728.8</ele>
        <time>2020-07-14T06:00:51Z</time>
      </trkpt>
      <trkpt lat="37.6279330" lon="-2.7068370">
        <ele>729.2</ele>
        <time>2020-07-14T06:00:55Z</time>
      </trkpt>
      <trkpt lat="37.6281450" lon="-2.7068200">
        <ele>729.8</ele>
        <time>2020-07-14T06:01:00Z</time>
      </trkpt>
      <trkpt lat="37.6283080" lon="-2.7067970">
        <ele>730.6</ele>
        <time>2020-07-14T06:01:04Z</time>
      </trkpt>
      <trkpt lat="37.6283850" lon="-2.7067790">
        <ele>730.8</ele>
        <time>2020-07-14T06:01:06Z</time>
      </trkpt>
      <trkpt lat="37.6286440" lon="-2.7067060">
        <ele>732.0</ele>
        <time>2020-07-14T06:01:12Z</time>
      </trkpt>
      <trkpt lat="37.6287360" lon="-2.7066780">
        <ele>732.2</ele>
        <time>2020-07-14T06:01:14Z</time>
      </trkpt>
      <trkpt lat="37.6290830" lon="-2.7065680">
        <ele>732.2</ele>
        <time>2020-07-14T06:01:20Z</time>
      </trkpt>
      <trkpt lat="37.6295240" lon="-2.7064410">
        <ele>730.8</ele>
        <time>2020-07-14T06:01:26Z</time>
      </trkpt>
      <trkpt lat="37.6297710" lon="-2.7063630">
        <ele>729.4</ele>
        <time>2020-07-14T06:01:29Z</time>
      </trkpt>
      <trkpt lat="37.6300500" lon="-2.7062780">
        <ele>728.0</ele>
        <time>2020-07-14T06:01:32Z</time>
      </trkpt>
      <trkpt lat="37.6303330" lon="-2.7061870">
        <ele>726.8</ele>
        <time>2020-07-14T06:01:35Z</time>
      </trkpt>
      <trkpt lat="37.6306330" lon="-2.7060680">
        <ele>725.6</ele>
        <time>2020-07-14T06:01:38Z</time>
      </trkpt>
      <trkpt lat="37.6307260" lon="-2.7060190">
        <ele>725.0</ele>
        <time>2020-07-14T06:01:39Z</time>
      </trkpt>
      <trkpt lat="37.6308260" lon="-2.7059600">
        <ele>724.4</ele>
        <time>2020-07-14T06:01:40Z</time>
      </trkpt>
      <trkpt lat="37.6310200" lon="-2.7058270">
        <ele>723.4</ele>
        <time>2020-07-14T06:01:42Z</time>
      </trkpt>
      <trkpt lat="37.6311970" lon="-2.7056740">
        <ele>722.6</ele>
        <time>2020-07-14T06:01:44Z</time>
      </trkpt>
      <trkpt lat="37.6312900" lon="-2.7055820">
        <ele>722.2</ele>
        <time>2020-07-14T06:01:45Z</time>
      </trkpt>
      <trkpt lat="37.6315420" lon="-2.7052810">
        <ele>720.8</ele>
        <time>2020-07-14T06:01:48Z</time>
      </trkpt>
      <trkpt lat="37.6316140" lon="-2.7051790">
        <ele>720.0</ele>
        <time>2020-07-14T06:01:49Z</time>
      </trkpt>
      <trkpt lat="37.6316890" lon="-2.7050630">
        <ele>719.4</ele>
        <time>2020-07-14T06:01:50Z</time>
      </trkpt>
      <trkpt lat="37.6318080" lon="-2.7048470">
        <ele>718.2</ele>
        <time>2020-07-14T06:01:52Z</time>
      </trkpt>
      <trkpt lat="37.6318650" lon="-2.7047260">
        <ele>718.0</ele>
        <time>2020-07-14T06:01:53Z</time>
      </trkpt>
      <trkpt lat="37.6320640" lon="-2.7041630">
        <ele>717.4</ele>
        <time>2020-07-14T06:01:58Z</time>
      </trkpt>
      <trkpt lat="37.6322330" lon="-2.7034950">
        <ele>717.2</ele>
        <time>2020-07-14T06:02:04Z</time>
      </trkpt>
      <trkpt lat="37.6324200" lon="-2.7031100">
        <ele>717.4</ele>
        <time>2020-07-14T06:02:08Z</time>
      </trkpt>
      <trkpt lat="37.6326700" lon="-2.7028240">
        <ele>717.4</ele>
        <time>2020-07-14T06:02:12Z</time>
      </trkpt>
      <trkpt lat="37.6330370" lon="-2.7025920">
        <ele>717.2</ele>
        <time>2020-07-14T06:02:17Z</time>
      </trkpt>
      <trkpt lat="37.6335640" lon="-2.7023230">
        <ele>716.8</ele>
        <time>2020-07-14T06:02:24Z</time>
      </trkpt>
      <trkpt lat="37.6336450" lon="-2.7022810">
        <ele>716.8</ele>
        <time>2020-07-14T06:02:25Z</time>
      </trkpt>
      <trkpt lat="37.6341780" lon="-2.7020100">
        <ele>716.2</ele>
        <time>2020-07-14T06:02:32Z</time>
      </trkpt>
      <trkpt lat="37.6344010" lon="-2.7018910">
        <ele>716.2</ele>
        <time>2020-07-14T06:02:35Z</time>
      </trkpt>
      <trkpt lat="37.6345470" lon="-2.7018140">
        <ele>716.0</ele>
        <time>2020-07-14T06:02:37Z</time>
      </trkpt>
      <trkpt lat="37.6350570" lon="-2.7015530">
        <ele>715.8</ele>
        <time>2020-07-14T06:02:44Z</time>
      </trkpt>
      <trkpt lat="37.6355660" lon="-2.7012960">
        <ele>715.6</ele>
        <time>2020-07-14T06:02:51Z</time>
      </trkpt>
      <trkpt lat="37.6360720" lon="-2.7010390">
        <ele>715.2</ele>
        <time>2020-07-14T06:02:58Z</time>
      </trkpt>
      <trkpt lat="37.6361530" lon="-2.7009970">
        <ele>715.0</ele>
        <time>2020-07-14T06:02:59Z</time>
      </trkpt>
      <trkpt lat="37.6363260" lon="-2.7009080">
        <ele>714.6</ele>
        <time>2020-07-14T06:03:01Z</time>
      </trkpt>
      <trkpt lat="37.6365070" lon="-2.7008150">
        <ele>713.8</ele>
        <time>2020-07-14T06:03:03Z</time>
      </trkpt>
      <trkpt lat="37.6367090" lon="-2.7007120">
        <ele>712.8</ele>
        <time>2020-07-14T06:03:05Z</time>
      </trkpt>
      <trkpt lat="37.6368130" lon="-2.7006590">
        <ele>712.2</ele>
        <time>2020-07-14T06:03:06Z</time>
      </trkpt>
      <trkpt lat="37.6369180" lon="-2.7006070">
        <ele>711.4</ele>
        <time>2020-07-14T06:03:07Z</time>
      </trkpt>
      <trkpt lat="37.6371320" lon="-2.7004980">
        <ele>710.0</ele>
        <time>2020-07-14T06:03:09Z</time>
      </trkpt>
      <trkpt lat="37.6373670" lon="-2.7003780">
        <ele>708.6</ele>
        <time>2020-07-14T06:03:11Z</time>
      </trkpt>
      <trkpt lat="37.6374870" lon="-2.7003140">
        <ele>708.2</ele>
        <time>2020-07-14T06:03:12Z</time>
      </trkpt>
      <trkpt lat="37.6376040" lon="-2.7002490">
        <ele>707.6</ele>
        <time>2020-07-14T06:03:13Z</time>
      </trkpt>
      <trkpt lat="37.6378310" lon="-2.7000960">
        <ele>705.8</ele>
        <time>2020-07-14T06:03:15Z</time>
      </trkpt>
      <trkpt lat="37.6379290" lon="-2.7000130">
        <ele>704.6</ele>
        <time>2020-07-14T06:03:16Z</time>
      </trkpt>
      <trkpt lat="37.6380430" lon="-2.6999010">
        <ele>703.4</ele>
        <time>2020-07-14T06:03:17Z</time>
      </trkpt>
      <trkpt lat="37.6381360" lon="-2.6997960">
        <ele>702.2</ele>
        <time>2020-07-14T06:03:18Z</time>
      </trkpt>
      <trkpt lat="37.6382240" lon="-2.6996860">
        <ele>700.8</ele>
        <time>2020-07-14T06:03:19Z</time>
      </trkpt>
      <trkpt lat="37.6383140" lon="-2.6995650">
        <ele>700.0</ele>
        <time>2020-07-14T06:03:20Z</time>
      </trkpt>
      <trkpt lat="37.6383960" lon="-2.6994500">
        <ele>699.2</ele>
        <time>2020-07-14T06:03:21Z</time>
      </trkpt>
      <trkpt lat="37.6385560" lon="-2.6992200">
        <ele>698.0</ele>
        <time>2020-07-14T06:03:23Z</time>
      </trkpt>
      <trkpt lat="37.6387070" lon="-2.6989990">
        <ele>697.0</ele>
        <time>2020-07-14T06:03:25Z</time>
      </trkpt>
      <trkpt lat="37.6387750" lon="-2.6988960">
        <ele>696.6</ele>
        <time>2020-07-14T06:03:26Z</time>
      </trkpt>
      <trkpt lat="37.6390520" lon="-2.6984390">
        <ele>697.8</ele>
        <time>2020-07-14T06:03:31Z</time>
      </trkpt>
      <trkpt lat="37.6390930" lon="-2.6983540">
        <ele>698.2</ele>
        <time>2020-07-14T06:03:32Z</time>
      </trkpt>
      <trkpt lat="37.6391600" lon="-2.6982030">
        <ele>698.8</ele>
        <time>2020-07-14T06:03:34Z</time>
      </trkpt>
      <trkpt lat="37.6391970" lon="-2.6981170">
        <ele>699.2</ele>
        <time>2020-07-14T06:03:35Z</time>
      </trkpt>
      <trkpt lat="37.6392270" lon="-2.6980450">
        <ele>699.6</ele>
        <time>2020-07-14T06:03:36Z</time>
      </trkpt>
      <trkpt lat="37.6392840" lon="-2.6979070">
        <ele>700.2</ele>
        <time>2020-07-14T06:03:38Z</time>
      </trkpt>
      <trkpt lat="37.6393100" lon="-2.6978480">
        <ele>700.6</ele>
        <time>2020-07-14T06:03:39Z</time>
      </trkpt>
      <trkpt lat="37.6393680" lon="-2.6977160">
        <ele>701.8</ele>
        <time>2020-07-14T06:03:41Z</time>
      </trkpt>
      <trkpt lat="37.6394190" lon="-2.6975980">
        <ele>702.6</ele>
        <time>2020-07-14T06:03:43Z</time>
      </trkpt>
      <trkpt lat="37.6394410" lon="-2.6975470">
        <ele>703.2</ele>
        <time>2020-07-14T06:03:44Z</time>
      </trkpt>
      <trkpt lat="37.6395260" lon="-2.6973330">
        <ele>704.4</ele>
        <time>2020-07-14T06:03:48Z</time>
      </trkpt>
      <trkpt lat="37.6395650" lon="-2.6972350">
        <ele>705.0</ele>
        <time>2020-07-14T06:03:50Z</time>
      </trkpt>
      <trkpt lat="37.6396020" lon="-2.6971410">
        <ele>705.6</ele>
        <time>2020-07-14T06:03:52Z</time>
      </trkpt>
      <trkpt lat="37.6396630" lon="-2.6969990">
        <ele>706.2</ele>
        <time>2020-07-14T06:03:55Z</time>
      </trkpt>
      <trkpt lat="37.6396850" lon="-2.6969520">
        <ele>706.6</ele>
        <time>2020-07-14T06:03:56Z</time>
      </trkpt>
      <trkpt lat="37.6397650" lon="-2.6967770">
        <ele>707.4</ele>
        <time>2020-07-14T06:04:00Z</time>
      </trkpt>
      <trkpt lat="37.6397860" lon="-2.6967360">
        <ele>707.8</ele>
        <time>2020-07-14T06:04:01Z</time>
      </trkpt>
      <trkpt lat="37.6398770" lon="-2.6965840">
        <ele>709.0</ele>
        <time>2020-07-14T06:04:05Z</time>
      </trkpt>
      <trkpt lat="37.6400050" lon="-2.6964130">
        <ele>710.2</ele>
        <time>2020-07-14T06:04:10Z</time>
      </trkpt>
      <trkpt lat="37.6401190" lon="-2.6962880">
        <ele>711.2</ele>
        <time>2020-07-14T06:04:14Z</time>
      </trkpt>
      <trkpt lat="37.6403150" lon="-2.6961190">
        <ele>712.2</ele>
        <time>2020-07-14T06:04:20Z</time>
      </trkpt>
      <trkpt lat="37.6403500" lon="-2.6960910">
        <ele>712.4</ele>
        <time>2020-07-14T06:04:21Z</time>
      </trkpt>
      <trkpt lat="37.6407010" lon="-2.6958380">
        <ele>713.0</ele>
        <time>2020-07-14T06:04:30Z</time>
      </trkpt>
      <trkpt lat="37.6410420" lon="-2.6956030">
        <ele>713.4</ele>
        <time>2020-07-14T06:04:38Z</time>
      </trkpt>
      <trkpt lat="37.6412130" lon="-2.6954830">
        <ele>713.6</ele>
        <time>2020-07-14T06:04:42Z</time>
      </trkpt>
      <trkpt lat="37.6415070" lon="-2.6952780">
        <ele>714.2</ele>
        <time>2020-07-14T06:04:49Z</time>
      </trkpt>
      <trkpt lat="37.6416770" lon="-2.6951530">
        <ele>714.4</ele>
        <time>2020-07-14T06:04:53Z</time>
      </trkpt>
      <trkpt lat="37.6418040" lon="-2.6950600">
        <ele>714.6</ele>
        <time>2020-07-14T06:04:56Z</time>
      </trkpt>
      <trkpt lat="37.6420660" lon="-2.6948750">
        <ele>715.0</ele>
        <time>2020-07-14T06:05:02Z</time>
      </trkpt>
      <trkpt lat="37.6423340" lon="-2.6946700">
        <ele>715.4</ele>
        <time>2020-07-14T06:05:08Z</time>
      </trkpt>
      <trkpt lat="37.6424220" lon="-2.6946000">
        <ele>715.4</ele>
        <time>2020-07-14T06:05:10Z</time>
      </trkpt>
      <trkpt lat="37.6426480" lon="-2.6943880">
        <ele>715.6</ele>
        <time>2020-07-14T06:05:15Z</time>
      </trkpt>
      <trkpt lat="37.6426910" lon="-2.6943480">
        <ele>715.6</ele>
        <time>2020-07-14T06:05:16Z</time>
      </trkpt>
      <trkpt lat="37.6429260" lon="-2.6941140">
        <ele>715.8</ele>
        <time>2020-07-14T06:05:21Z</time>
      </trkpt>
      <trkpt lat="37.6430620" lon="-2.6939680">
        <ele>716.0</ele>
        <time>2020-07-14T06:05:24Z</time>
      </trkpt>
      <trkpt lat="37.6434880" lon="-2.6935160">
        <ele>716.2</ele>
        <time>2020-07-14T06:05:33Z</time>
      </trkpt>
      <trkpt lat="37.6435290" lon="-2.6934720">
        <ele>716.2</ele>
        <time>2020-07-14T06:05:34Z</time>
      </trkpt>
      <trkpt lat="37.6439680" lon="-2.6930070">
        <ele>716.2</ele>
        <time>2020-07-14T06:05:43Z</time>
      </trkpt>
      <trkpt lat="37.6444010" lon="-2.6925300">
        <ele>716.0</ele>
        <time>2020-07-14T06:05:52Z</time>
      </trkpt>
      <trkpt lat="37.6444440" lon="-2.6924890">
        <ele>716.0</ele>
        <time>2020-07-14T06:05:53Z</time>
      </trkpt>
      <trkpt lat="37.6447310" lon="-2.6921830">
        <ele>716.4</ele>
        <time>2020-07-14T06:05:59Z</time>
      </trkpt>
      <trkpt lat="37.6448810" lon="-2.6920350">
        <ele>716.6</ele>
        <time>2020-07-14T06:06:02Z</time>
      </trkpt>
      <trkpt lat="37.6451620" lon="-2.6917290">
        <ele>716.8</ele>
        <time>2020-07-14T06:06:08Z</time>
      </trkpt>
      <trkpt lat="37.6455970" lon="-2.6912600">
        <ele>716.8</ele>
        <time>2020-07-14T06:06:17Z</time>
      </trkpt>
      <trkpt lat="37.6457510" lon="-2.6911000">
        <ele>716.8</ele>
        <time>2020-07-14T06:06:20Z</time>
      </trkpt>
      <trkpt lat="37.6462040" lon="-2.6906200">
        <ele>717.0</ele>
        <time>2020-07-14T06:06:29Z</time>
      </trkpt>
      <trkpt lat="37.6463090" lon="-2.6905110">
        <ele>717.2</ele>
        <time>2020-07-14T06:06:31Z</time>
      </trkpt>
      <trkpt lat="37.6467680" lon="-2.6900260">
        <ele>717.4</ele>
        <time>2020-07-14T06:06:40Z</time>
      </trkpt>
      <trkpt lat="37.6469720" lon="-2.6898120">
        <ele>717.4</ele>
        <time>2020-07-14T06:06:44Z</time>
      </trkpt>
      <trkpt lat="37.6470250" lon="-2.6897540">
        <ele>717.6</ele>
        <time>2020-07-14T06:06:45Z</time>
      </trkpt>
      <trkpt lat="37.6473710" lon="-2.6893620">
        <ele>717.6</ele>
        <time>2020-07-14T06:06:52Z</time>
      </trkpt>
      <trkpt lat="37.6474710" lon="-2.6892260">
        <ele>717.6</ele>
        <time>2020-07-14T06:06:54Z</time>
      </trkpt>
      <trkpt lat="37.6476580" lon="-2.6888700">
        <ele>716.4</ele>
        <time>2020-07-14T06:06:58Z</time>
      </trkpt>
      <trkpt lat="37.6477390" lon="-2.6886400">
        <ele>715.4</ele>
        <time>2020-07-14T06:07:00Z</time>
      </trkpt>
      <trkpt lat="37.6477970" lon="-2.6883940">
        <ele>714.2</ele>
        <time>2020-07-14T06:07:02Z</time>
      </trkpt>
      <trkpt lat="37.6478430" lon="-2.6881410">
        <ele>712.8</ele>
        <time>2020-07-14T06:07:04Z</time>
      </trkpt>
      <trkpt lat="37.6478910" lon="-2.6878510">
        <ele>711.4</ele>
        <time>2020-07-14T06:07:06Z</time>
      </trkpt>
      <trkpt lat="37.6479380" lon="-2.6875630">
        <ele>710.0</ele>
        <time>2020-07-14T06:07:08Z</time>
      </trkpt>
      <trkpt lat="37.6479890" lon="-2.6872690">
        <ele>708.4</ele>
        <time>2020-07-14T06:07:10Z</time>
      </trkpt>
      <trkpt lat="37.6480490" lon="-2.6869600">
        <ele>707.0</ele>
        <time>2020-07-14T06:07:12Z</time>
      </trkpt>
      <trkpt lat="37.6481340" lon="-2.6866860">
        <ele>705.8</ele>
        <time>2020-07-14T06:07:14Z</time>
      </trkpt>
      <trkpt lat="37.6482640" lon="-2.6864060">
        <ele>704.2</ele>
        <time>2020-07-14T06:07:16Z</time>
      </trkpt>
      <trkpt lat="37.6484110" lon="-2.6861650">
        <ele>703.2</ele>
        <time>2020-07-14T06:07:18Z</time>
      </trkpt>
      <trkpt lat="37.6485560" lon="-2.6859640">
        <ele>701.8</ele>
        <time>2020-07-14T06:07:20Z</time>
      </trkpt>
      <trkpt lat="37.6487080" lon="-2.6857950">
        <ele>701.0</ele>
        <time>2020-07-14T06:07:22Z</time>
      </trkpt>
      <trkpt lat="37.6490110" lon="-2.6855530">
        <ele>701.2</ele>
        <time>2020-07-14T06:07:26Z</time>
      </trkpt>
      <trkpt lat="37.6491380" lon="-2.6854840">
        <ele>701.8</ele>
        <time>2020-07-14T06:07:28Z</time>
      </trkpt>
      <trkpt lat="37.6492610" lon="-2.6854250">
        <ele>702.4</ele>
        <time>2020-07-14T06:07:30Z</time>
      </trkpt>
      <trkpt lat="37.6493190" lon="-2.6854000">
        <ele>702.8</ele>
        <time>2020-07-14T06:07:31Z</time>
      </trkpt>
      <trkpt lat="37.6494310" lon="-2.6853580">
        <ele>703.4</ele>
        <time>2020-07-14T06:07:33Z</time>
      </trkpt>
      <trkpt lat="37.6495300" lon="-2.6853210">
        <ele>703.8</ele>
        <time>2020-07-14T06:07:35Z</time>
      </trkpt>
      <trkpt lat="37.6496260" lon="-2.6852860">
        <ele>704.2</ele>
        <time>2020-07-14T06:07:37Z</time>
      </trkpt>
      <trkpt lat="37.6497160" lon="-2.6852470">
        <ele>704.6</ele>
        <time>2020-07-14T06:07:39Z</time>
      </trkpt>
      <trkpt lat="37.6497590" lon="-2.6852250">
        <ele>705.0</ele>
        <time>2020-07-14T06:07:40Z</time>
      </trkpt>
      <trkpt lat="37.6498870" lon="-2.6851500">
        <ele>706.0</ele>
        <time>2020-07-14T06:07:43Z</time>
      </trkpt>
      <trkpt lat="37.6499230" lon="-2.6851260">
        <ele>706.4</ele>
        <time>2020-07-14T06:07:44Z</time>
      </trkpt>
      <trkpt lat="37.6500370" lon="-2.6850390">
        <ele>707.2</ele>
        <time>2020-07-14T06:07:47Z</time>
      </trkpt>
      <trkpt lat="37.6501740" lon="-2.6849170">
        <ele>708.2</ele>
        <time>2020-07-14T06:07:51Z</time>
      </trkpt>
      <trkpt lat="37.6502870" lon="-2.6847920">
        <ele>709.0</ele>
        <time>2020-07-14T06:07:55Z</time>
      </trkpt>
      <trkpt lat="37.6503150" lon="-2.6847650">
        <ele>709.4</ele>
        <time>2020-07-14T06:07:56Z</time>
      </trkpt>
      <trkpt lat="37.6503860" lon="-2.6846780">
        <ele>710.0</ele>
        <time>2020-07-14T06:07:59Z</time>
      </trkpt>
      <trkpt lat="37.6504360" lon="-2.6846150">
        <ele>710.6</ele>
        <time>2020-07-14T06:08:01Z</time>
      </trkpt>
      <trkpt lat="37.6505560" lon="-2.6844630">
        <ele>711.6</ele>
        <time>2020-07-14T06:08:06Z</time>
      </trkpt>
      <trkpt lat="37.6505810" lon="-2.6844340">
        <ele>711.8</ele>
        <time>2020-07-14T06:08:07Z</time>
      </trkpt>
      <trkpt lat="37.6507160" lon="-2.6842870">
        <ele>712.8</ele>
        <time>2020-07-14T06:08:12Z</time>
      </trkpt>
      <trkpt lat="37.6508240" lon="-2.6841640">
        <ele>713.6</ele>
        <time>2020-07-14T06:08:16Z</time>
      </trkpt>
      <trkpt lat="37.6508830" lon="-2.6840990">
        <ele>714.0</ele>
        <time>2020-07-14T06:08:18Z</time>
      </trkpt>
      <trkpt lat="37.6510750" lon="-2.6838770">
        <ele>715.2</ele>
        <time>2020-07-14T06:08:25Z</time>
      </trkpt>
      <trkpt lat="37.6511030" lon="-2.6838450">
        <ele>715.4</ele>
        <time>2020-07-14T06:08:26Z</time>
      </trkpt>
      <trkpt lat="37.6511850" lon="-2.6837480">
        <ele>716.2</ele>
        <time>2020-07-14T06:08:29Z</time>
      </trkpt>
      <trkpt lat="37.6514680" lon="-2.6834240">
        <ele>717.2</ele>
        <time>2020-07-14T06:08:38Z</time>
      </trkpt>
      <trkpt lat="37.6515310" lon="-2.6833510">
        <ele>717.2</ele>
        <time>2020-07-14T06:08:40Z</time>
      </trkpt>
      <trkpt lat="37.6518110" lon="-2.6830310">
        <ele>717.8</ele>
        <time>2020-07-14T06:08:48Z</time>
      </trkpt>
      <trkpt lat="37.6520320" lon="-2.6827930">
        <ele>718.2</ele>
        <time>2020-07-14T06:08:54Z</time>
      </trkpt>
      <trkpt lat="37.6520720" lon="-2.6827490">
        <ele>718.2</ele>
        <time>2020-07-14T06:08:55Z</time>
      </trkpt>
      <trkpt lat="37.6523050" lon="-2.6825080">
        <ele>718.6</ele>
        <time>2020-07-14T06:09:01Z</time>
      </trkpt>
      <trkpt lat="37.6525900" lon="-2.6822240">
        <ele>719.0</ele>
        <time>2020-07-14T06:09:08Z</time>
      </trkpt>
      <trkpt lat="37.6527160" lon="-2.6820950">
        <ele>719.2</ele>
        <time>2020-07-14T06:09:11Z</time>
      </trkpt>
      <trkpt lat="37.6527570" lon="-2.6820490">
        <ele>719.4</ele>
        <time>2020-07-14T06:09:12Z</time>
      </trkpt>
      <trkpt lat="37.6531280" lon="-2.6816810">
        <ele>719.6</ele>
        <time>2020-07-14T06:09:20Z</time>
      </trkpt>
      <trkpt lat="37.6535740" lon="-2.6812320">
        <ele>719.4</ele>
        <time>2020-07-14T06:09:29Z</time>
      </trkpt>
      <trkpt lat="37.6536290" lon="-2.6811780">
        <ele>719.4</ele>
        <time>2020-07-14T06:09:30Z</time>
      </trkpt>
      <trkpt lat="37.6539430" lon="-2.6808560">
        <ele>719.2</ele>
        <time>2020-07-14T06:09:36Z</time>
      </trkpt>
      <trkpt lat="37.6541490" lon="-2.6806500">
        <ele>719.0</ele>
        <time>2020-07-14T06:09:40Z</time>
      </trkpt>
      <trkpt lat="37.6546010" lon="-2.6802530">
        <ele>718.8</ele>
        <time>2020-07-14T06:09:48Z</time>
      </trkpt>
      <trkpt lat="37.6546610" lon="-2.6802090">
        <ele>719.0</ele>
        <time>2020-07-14T06:09:49Z</time>
      </trkpt>
      <trkpt lat="37.6551680" lon="-2.6799080">
        <ele>718.8</ele>
        <time>2020-07-14T06:09:57Z</time>
      </trkpt>
      <trkpt lat="37.6556780" lon="-2.6796350">
        <ele>719.0</ele>
        <time>2020-07-14T06:10:05Z</time>
      </trkpt>
      <trkpt lat="37.6558660" lon="-2.6795340">
        <ele>719.0</ele>
        <time>2020-07-14T06:10:08Z</time>
      </trkpt>
      <trkpt lat="37.6563730" lon="-2.6792680">
        <ele>719.0</ele>
        <time>2020-07-14T06:10:16Z</time>
      </trkpt>
      <trkpt lat="37.6565020" lon="-2.6792010">
        <ele>719.0</ele>
        <time>2020-07-14T06:10:18Z</time>
      </trkpt>
      <trkpt lat="37.6570100" lon="-2.6789500">
        <ele>719.4</ele>
        <time>2020-07-14T06:10:26Z</time>
      </trkpt>
      <trkpt lat="37.6571980" lon="-2.6788630">
        <ele>719.4</ele>
        <time>2020-07-14T06:10:29Z</time>
      </trkpt>
      <trkpt lat="37.6577160" lon="-2.6786420">
        <ele>719.4</ele>
        <time>2020-07-14T06:10:37Z</time>
      </trkpt>
      <trkpt lat="37.6579080" lon="-2.6785620">
        <ele>719.6</ele>
        <time>2020-07-14T06:10:40Z</time>
      </trkpt>
      <trkpt lat="37.6579760" lon="-2.6785340">
        <ele>719.6</ele>
        <time>2020-07-14T06:10:41Z</time>
      </trkpt>
      <trkpt lat="37.6585640" lon="-2.6783020">
        <ele>719.6</ele>
        <time>2020-07-14T06:10:50Z</time>
      </trkpt>
      <trkpt lat="37.6586360" lon="-2.6782720">
        <ele>719.6</ele>
        <time>2020-07-14T06:10:51Z</time>
      </trkpt>
      <trkpt lat="37.6591580" lon="-2.6780610">
        <ele>719.8</ele>
        <time>2020-07-14T06:10:59Z</time>
      </trkpt>
      <trkpt lat="37.6592990" lon="-2.6780060">
        <ele>719.8</ele>
        <time>2020-07-14T06:11:01Z</time>
      </trkpt>
      <trkpt lat="37.6598300" lon="-2.6777980">
        <ele>719.8</ele>
        <time>2020-07-14T06:11:09Z</time>
      </trkpt>
      <trkpt lat="37.6600540" lon="-2.6777140">
        <ele>720.0</ele>
        <time>2020-07-14T06:11:13Z</time>
      </trkpt>
      <trkpt lat="37.6606180" lon="-2.6775400">
        <ele>719.8</ele>
        <time>2020-07-14T06:11:21Z</time>
      </trkpt>
      <trkpt lat="37.6606850" lon="-2.6775220">
        <ele>719.8</ele>
        <time>2020-07-14T06:11:22Z</time>
      </trkpt>
      <trkpt lat="37.6610180" lon="-2.6774430">
        <ele>718.8</ele>
        <time>2020-07-14T06:11:26Z</time>
      </trkpt>
      <trkpt lat="37.6612030" lon="-2.6773930">
        <ele>718.0</ele>
        <time>2020-07-14T06:11:28Z</time>
      </trkpt>
      <trkpt lat="37.6613870" lon="-2.6773390">
        <ele>717.4</ele>
        <time>2020-07-14T06:11:30Z</time>
      </trkpt>
      <trkpt lat="37.6614820" lon="-2.6773090">
        <ele>717.0</ele>
        <time>2020-07-14T06:11:31Z</time>
      </trkpt>
      <trkpt lat="37.6616810" lon="-2.6772390">
        <ele>716.0</ele>
        <time>2020-07-14T06:11:33Z</time>
      </trkpt>
      <trkpt lat="37.6617720" lon="-2.6772050">
        <ele>715.6</ele>
        <time>2020-07-14T06:11:34Z</time>
      </trkpt>
      <trkpt lat="37.6619660" lon="-2.6771270">
        <ele>714.8</ele>
        <time>2020-07-14T06:11:36Z</time>
      </trkpt>
      <trkpt lat="37.6620630" lon="-2.6770860">
        <ele>714.4</ele>
        <time>2020-07-14T06:11:37Z</time>
      </trkpt>
      <trkpt lat="37.6623670" lon="-2.6769490">
        <ele>713.0</ele>
        <time>2020-07-14T06:11:40Z</time>
      </trkpt>
      <trkpt lat="37.6625700" lon="-2.6768420">
        <ele>711.6</ele>
        <time>2020-07-14T06:11:42Z</time>
      </trkpt>
      <trkpt lat="37.6626570" lon="-2.6767890">
        <ele>710.8</ele>
        <time>2020-07-14T06:11:43Z</time>
      </trkpt>
      <trkpt lat="37.6627450" lon="-2.6767290">
        <ele>710.2</ele>
        <time>2020-07-14T06:11:44Z</time>
      </trkpt>
      <trkpt lat="37.6630870" lon="-2.6764610">
        <ele>709.4</ele>
        <time>2020-07-14T06:11:48Z</time>
      </trkpt>
      <trkpt lat="37.6634840" lon="-2.6762280">
        <ele>709.8</ele>
        <time>2020-07-14T06:11:53Z</time>
      </trkpt>
      <trkpt lat="37.6637120" lon="-2.6761540">
        <ele>710.4</ele>
        <time>2020-07-14T06:11:56Z</time>
      </trkpt>
      <trkpt lat="37.6638500" lon="-2.6761190">
        <ele>710.8</ele>
        <time>2020-07-14T06:11:58Z</time>
      </trkpt>
      <trkpt lat="37.6639750" lon="-2.6760930">
        <ele>711.2</ele>
        <time>2020-07-14T06:12:00Z</time>
      </trkpt>
      <trkpt lat="37.6641520" lon="-2.6760590">
        <ele>712.0</ele>
        <time>2020-07-14T06:12:03Z</time>
      </trkpt>
      <trkpt lat="37.6642000" lon="-2.6760510">
        <ele>712.4</ele>
        <time>2020-07-14T06:12:04Z</time>
      </trkpt>
      <trkpt lat="37.6642480" lon="-2.6760400">
        <ele>713.0</ele>
        <time>2020-07-14T06:12:05Z</time>
      </trkpt>
      <trkpt lat="37.6643050" lon="-2.6760250">
        <ele>713.6</ele>
        <time>2020-07-14T06:12:06Z</time>
      </trkpt>
      <trkpt lat="37.6643970" lon="-2.6760080">
        <ele>714.4</ele>
        <time>2020-07-14T06:12:08Z</time>
      </trkpt>
      <trkpt lat="37.6644490" lon="-2.6760000">
        <ele>714.8</ele>
        <time>2020-07-14T06:12:09Z</time>
      </trkpt>
      <trkpt lat="37.6645350" lon="-2.6759860">
        <ele>715.6</ele>
        <time>2020-07-14T06:12:11Z</time>
      </trkpt>
      <trkpt lat="37.6645830" lon="-2.6759730">
        <ele>716.0</ele>
        <time>2020-07-14T06:12:12Z</time>
      </trkpt>
      <trkpt lat="37.6647110" lon="-2.6759520">
        <ele>717.0</ele>
        <time>2020-07-14T06:12:15Z</time>
      </trkpt>
      <trkpt lat="37.6648820" lon="-2.6759170">
        <ele>718.2</ele>
        <time>2020-07-14T06:12:19Z</time>
      </trkpt>
      <trkpt lat="37.6650180" lon="-2.6758970">
        <ele>719.2</ele>
        <time>2020-07-14T06:12:22Z</time>
      </trkpt>
      <trkpt lat="37.6650600" lon="-2.6758900">
        <ele>719.6</ele>
        <time>2020-07-14T06:12:23Z</time>
      </trkpt>
      <trkpt lat="37.6652460" lon="-2.6758590">
        <ele>720.6</ele>
        <time>2020-07-14T06:12:27Z</time>
      </trkpt>
      <trkpt lat="37.6654680" lon="-2.6758130">
        <ele>721.8</ele>
        <time>2020-07-14T06:12:32Z</time>
      </trkpt>
      <trkpt lat="37.6656600" lon="-2.6757690">
        <ele>722.2</ele>
        <time>2020-07-14T06:12:36Z</time>
      </trkpt>
      <trkpt lat="37.6661740" lon="-2.6756670">
        <ele>722.8</ele>
        <time>2020-07-14T06:12:46Z</time>
      </trkpt>
      <trkpt lat="37.6662240" lon="-2.6756570">
        <ele>722.8</ele>
        <time>2020-07-14T06:12:47Z</time>
      </trkpt>
      <trkpt lat="37.6666570" lon="-2.6755730">
        <ele>723.2</ele>
        <time>2020-07-14T06:12:55Z</time>
      </trkpt>
      <trkpt lat="37.6672280" lon="-2.6754650">
        <ele>723.6</ele>
        <time>2020-07-14T06:13:05Z</time>
      </trkpt>
      <trkpt lat="37.6677440" lon="-2.6753670">
        <ele>723.6</ele>
        <time>2020-07-14T06:13:13Z</time>
      </trkpt>
      <trkpt lat="37.6681140" lon="-2.6753240">
        <ele>723.0</ele>
        <time>2020-07-14T06:13:18Z</time>
      </trkpt>
      <trkpt lat="37.6682750" lon="-2.6753150">
        <ele>722.4</ele>
        <time>2020-07-14T06:13:20Z</time>
      </trkpt>
      <trkpt lat="37.6684580" lon="-2.6753140">
        <ele>721.8</ele>
        <time>2020-07-14T06:13:22Z</time>
      </trkpt>
      <trkpt lat="37.6685460" lon="-2.6753150">
        <ele>721.4</ele>
        <time>2020-07-14T06:13:23Z</time>
      </trkpt>
      <trkpt lat="37.6688400" lon="-2.6753100">
        <ele>720.4</ele>
        <time>2020-07-14T06:13:26Z</time>
      </trkpt>
      <trkpt lat="37.6690390" lon="-2.6753040">
        <ele>719.4</ele>
        <time>2020-07-14T06:13:28Z</time>
      </trkpt>
      <trkpt lat="37.6691310" lon="-2.6753030">
        <ele>719.2</ele>
        <time>2020-07-14T06:13:29Z</time>
      </trkpt>
      <trkpt lat="37.6692360" lon="-2.6753020">
        <ele>718.8</ele>
        <time>2020-07-14T06:13:30Z</time>
      </trkpt>
      <trkpt lat="37.6694510" lon="-2.6752980">
        <ele>717.8</ele>
        <time>2020-07-14T06:13:32Z</time>
      </trkpt>
      <trkpt lat="37.6695550" lon="-2.6752950">
        <ele>717.4</ele>
        <time>2020-07-14T06:13:33Z</time>
      </trkpt>
      <trkpt lat="37.6696600" lon="-2.6752890">
        <ele>716.8</ele>
        <time>2020-07-14T06:13:34Z</time>
      </trkpt>
      <trkpt lat="37.6697540" lon="-2.6752740">
        <ele>716.4</ele>
        <time>2020-07-14T06:13:35Z</time>
      </trkpt>
      <trkpt lat="37.6698700" lon="-2.6752370">
        <ele>715.8</ele>
        <time>2020-07-14T06:13:36Z</time>
      </trkpt>
      <trkpt lat="37.6699680" lon="-2.6751820">
        <ele>715.4</ele>
        <time>2020-07-14T06:13:37Z</time>
      </trkpt>
      <trkpt lat="37.6701290" lon="-2.6750220">
        <ele>714.4</ele>
        <time>2020-07-14T06:13:39Z</time>
      </trkpt>
      <trkpt lat="37.6701960" lon="-2.6749450">
        <ele>714.0</ele>
        <time>2020-07-14T06:13:40Z</time>
      </trkpt>
      <trkpt lat="37.6705800" lon="-2.6745030">
        <ele>714.6</ele>
        <time>2020-07-14T06:13:46Z</time>
      </trkpt>
      <trkpt lat="37.6706910" lon="-2.6743700">
        <ele>715.2</ele>
        <time>2020-07-14T06:13:48Z</time>
      </trkpt>
      <trkpt lat="37.6709680" lon="-2.6740770">
        <ele>715.8</ele>
        <time>2020-07-14T06:13:53Z</time>
      </trkpt>
      <trkpt lat="37.6710330" lon="-2.6740260">
        <ele>716.0</ele>
        <time>2020-07-14T06:13:54Z</time>
      </trkpt>
      <trkpt lat="37.6711670" lon="-2.6739420">
        <ele>716.2</ele>
        <time>2020-07-14T06:13:56Z</time>
      </trkpt>
      <trkpt lat="37.6713030" lon="-2.6738690">
        <ele>716.2</ele>
        <time>2020-07-14T06:13:58Z</time>
      </trkpt>
      <trkpt lat="37.6716580" lon="-2.6737540">
        <ele>716.2</ele>
        <time>2020-07-14T06:14:03Z</time>
      </trkpt>
      <trkpt lat="37.6720720" lon="-2.6736290">
        <ele>716.2</ele>
        <time>2020-07-14T06:14:09Z</time>
      </trkpt>
      <trkpt lat="37.6724110" lon="-2.6735280">
        <ele>716.2</ele>
        <time>2020-07-14T06:14:14Z</time>
      </trkpt>
      <trkpt lat="37.6729550" lon="-2.6733660">
        <ele>716.4</ele>
        <time>2020-07-14T06:14:22Z</time>
      </trkpt>
      <trkpt lat="37.6731550" lon="-2.6733070">
        <ele>716.4</ele>
        <time>2020-07-14T06:14:25Z</time>
      </trkpt>
      <trkpt lat="37.6736900" lon="-2.6731470">
        <ele>716.8</ele>
        <time>2020-07-14T06:14:33Z</time>
      </trkpt>
      <trkpt lat="37.6740210" lon="-2.6730760">
        <ele>717.0</ele>
        <time>2020-07-14T06:14:38Z</time>
      </trkpt>
      <trkpt lat="37.6742900" lon="-2.6730860">
        <ele>717.2</ele>
        <time>2020-07-14T06:14:42Z</time>
      </trkpt>
      <trkpt lat="37.6744230" lon="-2.6731050">
        <ele>717.4</ele>
        <time>2020-07-14T06:14:44Z</time>
      </trkpt>
      <trkpt lat="37.6749700" lon="-2.6732090">
        <ele>716.6</ele>
        <time>2020-07-14T06:14:52Z</time>
      </trkpt>
      <trkpt lat="37.6755550" lon="-2.6733110">
        <ele>717.4</ele>
        <time>2020-07-14T06:15:01Z</time>
      </trkpt>
      <trkpt lat="37.6756700" lon="-2.6733290">
        <ele>717.6</ele>
        <time>2020-07-14T06:15:03Z</time>
      </trkpt>
      <trkpt lat="37.6758280" lon="-2.6733560">
        <ele>718.4</ele>
        <time>2020-07-14T06:15:06Z</time>
      </trkpt>
      <trkpt lat="37.6759720" lon="-2.6733880">
        <ele>719.4</ele>
        <time>2020-07-14T06:15:09Z</time>
      </trkpt>
      <trkpt lat="37.6760180" lon="-2.6733940">
        <ele>719.6</ele>
        <time>2020-07-14T06:15:10Z</time>
      </trkpt>
      <trkpt lat="37.6761610" lon="-2.6734180">
        <ele>720.6</ele>
        <time>2020-07-14T06:15:13Z</time>
      </trkpt>
      <trkpt lat="37.6762030" lon="-2.6734280">
        <ele>720.8</ele>
        <time>2020-07-14T06:15:14Z</time>
      </trkpt>
      <trkpt lat="37.6762950" lon="-2.6734410">
        <ele>721.6</ele>
        <time>2020-07-14T06:15:16Z</time>
      </trkpt>
      <trkpt lat="37.6763810" lon="-2.6734490">
        <ele>722.0</ele>
        <time>2020-07-14T06:15:18Z</time>
      </trkpt>
      <trkpt lat="37.6765440" lon="-2.6734740">
        <ele>723.2</ele>
        <time>2020-07-14T06:15:22Z</time>
      </trkpt>
      <trkpt lat="37.6766600" lon="-2.6734930">
        <ele>723.8</ele>
        <time>2020-07-14T06:15:25Z</time>
      </trkpt>
      <trkpt lat="37.6767040" lon="-2.6734940">
        <ele>724.0</ele>
        <time>2020-07-14T06:15:26Z</time>
      </trkpt>
      <trkpt lat="37.6767450" lon="-2.6734950">
        <ele>724.2</ele>
        <time>2020-07-14T06:15:27Z</time>
      </trkpt>
      <trkpt lat="37.6768990" lon="-2.6734850">
        <ele>725.6</ele>
        <time>2020-07-14T06:15:31Z</time>
      </trkpt>
      <trkpt lat="37.6769380" lon="-2.6734700">
        <ele>725.8</ele>
        <time>2020-07-14T06:15:32Z</time>
      </trkpt>
      <trkpt lat="37.6770790" lon="-2.6734140">
        <ele>726.6</ele>
        <time>2020-07-14T06:15:36Z</time>
      </trkpt>
      <trkpt lat="37.6771870" lon="-2.6733630">
        <ele>727.2</ele>
        <time>2020-07-14T06:15:39Z</time>
      </trkpt>
      <trkpt lat="37.6772610" lon="-2.6733170">
        <ele>727.8</ele>
        <time>2020-07-14T06:15:41Z</time>
      </trkpt>
      <trkpt lat="37.6774100" lon="-2.6732330">
        <ele>729.0</ele>
        <time>2020-07-14T06:15:45Z</time>
      </trkpt>
      <trkpt lat="37.6774480" lon="-2.6732100">
        <ele>729.2</ele>
        <time>2020-07-14T06:15:46Z</time>
      </trkpt>
      <trkpt lat="37.6775990" lon="-2.6731260">
        <ele>730.0</ele>
        <time>2020-07-14T06:15:50Z</time>
      </trkpt>
      <trkpt lat="37.6777940" lon="-2.6730150">
        <ele>731.0</ele>
        <time>2020-07-14T06:15:55Z</time>
      </trkpt>
      <trkpt lat="37.6778340" lon="-2.6729860">
        <ele>731.2</ele>
        <time>2020-07-14T06:15:56Z</time>
      </trkpt>
      <trkpt lat="37.6781680" lon="-2.6728010">
        <ele>731.8</ele>
        <time>2020-07-14T06:16:04Z</time>
      </trkpt>
      <trkpt lat="37.6783800" lon="-2.6726790">
        <ele>732.2</ele>
        <time>2020-07-14T06:16:09Z</time>
      </trkpt>
      <trkpt lat="37.6785960" lon="-2.6725570">
        <ele>732.6</ele>
        <time>2020-07-14T06:16:14Z</time>
      </trkpt>
      <trkpt lat="37.6789470" lon="-2.6723650">
        <ele>733.2</ele>
        <time>2020-07-14T06:16:22Z</time>
      </trkpt>
      <trkpt lat="37.6792070" lon="-2.6722160">
        <ele>733.6</ele>
        <time>2020-07-14T06:16:28Z</time>
      </trkpt>
      <trkpt lat="37.6794230" lon="-2.6720880">
        <ele>734.4</ele>
        <time>2020-07-14T06:16:33Z</time>
      </trkpt>
      <trkpt lat="37.6796920" lon="-2.6719330">
        <ele>734.8</ele>
        <time>2020-07-14T06:16:39Z</time>
      </trkpt>
      <trkpt lat="37.6797810" lon="-2.6718780">
        <ele>734.8</ele>
        <time>2020-07-14T06:16:41Z</time>
      </trkpt>
      <trkpt lat="37.6800550" lon="-2.6717050">
        <ele>735.4</ele>
        <time>2020-07-14T06:16:47Z</time>
      </trkpt>
      <trkpt lat="37.6803150" lon="-2.6715200">
        <ele>736.0</ele>
        <time>2020-07-14T06:16:53Z</time>
      </trkpt>
      <trkpt lat="37.6804810" lon="-2.6713750">
        <ele>736.4</ele>
        <time>2020-07-14T06:16:57Z</time>
      </trkpt>
      <trkpt lat="37.6807410" lon="-2.6711560">
        <ele>737.0</ele>
        <time>2020-07-14T06:17:03Z</time>
      </trkpt>
      <trkpt lat="37.6810440" lon="-2.6708900">
        <ele>736.4</ele>
        <time>2020-07-14T06:17:09Z</time>
      </trkpt>
      <trkpt lat="37.6811560" lon="-2.6707920">
        <ele>736.4</ele>
        <time>2020-07-14T06:17:11Z</time>
      </trkpt>
      <trkpt lat="37.6814680" lon="-2.6705250">
        <ele>735.4</ele>
        <time>2020-07-14T06:17:16Z</time>
      </trkpt>
      <trkpt lat="37.6815280" lon="-2.6704710">
        <ele>735.2</ele>
        <time>2020-07-14T06:17:17Z</time>
      </trkpt>
      <trkpt lat="37.6815980" lon="-2.6704060">
        <ele>735.2</ele>
        <time>2020-07-14T06:17:18Z</time>
      </trkpt>
      <trkpt lat="37.6817920" lon="-2.6702110">
        <ele>734.2</ele>
        <time>2020-07-14T06:17:21Z</time>
      </trkpt>
      <trkpt lat="37.6821130" lon="-2.6698600">
        <ele>733.0</ele>
        <time>2020-07-14T06:17:26Z</time>
      </trkpt>
      <trkpt lat="37.6825300" lon="-2.6693580">
        <ele>732.0</ele>
        <time>2020-07-14T06:17:33Z</time>
      </trkpt>
      <trkpt lat="37.6825850" lon="-2.6692950">
        <ele>732.2</ele>
        <time>2020-07-14T06:17:34Z</time>
      </trkpt>
      <trkpt lat="37.6828870" lon="-2.6689380">
        <ele>732.6</ele>
        <time>2020-07-14T06:17:40Z</time>
      </trkpt>
      <trkpt lat="37.6830310" lon="-2.6687680">
        <ele>733.0</ele>
        <time>2020-07-14T06:17:43Z</time>
      </trkpt>
      <trkpt lat="37.6832090" lon="-2.6685600">
        <ele>733.6</ele>
        <time>2020-07-14T06:17:47Z</time>
      </trkpt>
      <trkpt lat="37.6832980" lon="-2.6684550">
        <ele>733.8</ele>
        <time>2020-07-14T06:17:49Z</time>
      </trkpt>
      <trkpt lat="37.6833400" lon="-2.6684060">
        <ele>734.0</ele>
        <time>2020-07-14T06:17:50Z</time>
      </trkpt>
      <trkpt lat="37.6836920" lon="-2.6679930">
        <ele>734.8</ele>
        <time>2020-07-14T06:17:58Z</time>
      </trkpt>
      <trkpt lat="37.6837320" lon="-2.6679470">
        <ele>735.0</ele>
        <time>2020-07-14T06:17:59Z</time>
      </trkpt>
      <trkpt lat="37.6837820" lon="-2.6678920">
        <ele>735.0</ele>
        <time>2020-07-14T06:18:00Z</time>
      </trkpt>
      <trkpt lat="37.6839250" lon="-2.6677270">
        <ele>735.2</ele>
        <time>2020-07-14T06:18:03Z</time>
      </trkpt>
      <trkpt lat="37.6841590" lon="-2.6674600">
        <ele>735.6</ele>
        <time>2020-07-14T06:18:08Z</time>
      </trkpt>
      <trkpt lat="37.6845780" lon="-2.6669810">
        <ele>735.6</ele>
        <time>2020-07-14T06:18:17Z</time>
      </trkpt>
      <trkpt lat="37.6847190" lon="-2.6668210">
        <ele>735.6</ele>
        <time>2020-07-14T06:18:20Z</time>
      </trkpt>
      <trkpt lat="37.6851380" lon="-2.6663410">
        <ele>736.0</ele>
        <time>2020-07-14T06:18:29Z</time>
      </trkpt>
      <trkpt lat="37.6852930" lon="-2.6661870">
        <ele>736.0</ele>
        <time>2020-07-14T06:18:32Z</time>
      </trkpt>
      <trkpt lat="37.6856870" lon="-2.6659250">
        <ele>736.4</ele>
        <time>2020-07-14T06:18:39Z</time>
      </trkpt>
      <trkpt lat="37.6862250" lon="-2.6656870">
        <ele>735.8</ele>
        <time>2020-07-14T06:18:47Z</time>
      </trkpt>
      <trkpt lat="37.6863050" lon="-2.6656540">
        <ele>735.6</ele>
        <time>2020-07-14T06:18:48Z</time>
      </trkpt>
      <trkpt lat="37.6865420" lon="-2.6655500">
        <ele>734.8</ele>
        <time>2020-07-14T06:18:51Z</time>
      </trkpt>
      <trkpt lat="37.6867890" lon="-2.6654270">
        <ele>733.8</ele>
        <time>2020-07-14T06:18:54Z</time>
      </trkpt>
      <trkpt lat="37.6868690" lon="-2.6653880">
        <ele>733.4</ele>
        <time>2020-07-14T06:18:55Z</time>
      </trkpt>
      <trkpt lat="37.6871380" lon="-2.6652660">
        <ele>732.4</ele>
        <time>2020-07-14T06:18:58Z</time>
      </trkpt>
      <trkpt lat="37.6874140" lon="-2.6652020">
        <ele>731.4</ele>
        <time>2020-07-14T06:19:01Z</time>
      </trkpt>
      <trkpt lat="37.6875050" lon="-2.6651890">
        <ele>731.2</ele>
        <time>2020-07-14T06:19:02Z</time>
      </trkpt>
      <trkpt lat="37.6880280" lon="-2.6651410">
        <ele>730.6</ele>
        <time>2020-07-14T06:19:08Z</time>
      </trkpt>
      <trkpt lat="37.6884430" lon="-2.6651870">
        <ele>730.2</ele>
        <time>2020-07-14T06:19:13Z</time>
      </trkpt>
      <trkpt lat="37.6886870" lon="-2.6652670">
        <ele>730.2</ele>
        <time>2020-07-14T06:19:16Z</time>
      </trkpt>
      <trkpt lat="37.6889360" lon="-2.6653060">
        <ele>729.8</ele>
        <time>2020-07-14T06:19:19Z</time>
      </trkpt>
      <trkpt lat="37.6891790" lon="-2.6652720">
        <ele>729.6</ele>
        <time>2020-07-14T06:19:22Z</time>
      </trkpt>
      <trkpt lat="37.6892500" lon="-2.6652490">
        <ele>729.6</ele>
        <time>2020-07-14T06:19:23Z</time>
      </trkpt>
      <trkpt lat="37.6894710" lon="-2.6651210">
        <ele>729.4</ele>
        <time>2020-07-14T06:19:26Z</time>
      </trkpt>
      <trkpt lat="37.6895390" lon="-2.6650750">
        <ele>729.4</ele>
        <time>2020-07-14T06:19:27Z</time>
      </trkpt>
      <trkpt lat="37.6900650" lon="-2.6647200">
        <ele>729.4</ele>
        <time>2020-07-14T06:19:35Z</time>
      </trkpt>
      <trkpt lat="37.6902690" lon="-2.6645900">
        <ele>729.4</ele>
        <time>2020-07-14T06:19:38Z</time>
      </trkpt>
      <trkpt lat="37.6907960" lon="-2.6642850">
        <ele>729.6</ele>
        <time>2020-07-14T06:19:46Z</time>
      </trkpt>
      <trkpt lat="37.6913040" lon="-2.6640010">
        <ele>729.8</ele>
        <time>2020-07-14T06:19:54Z</time>
      </trkpt>
      <trkpt lat="37.6914870" lon="-2.6638800">
        <ele>729.8</ele>
        <time>2020-07-14T06:19:57Z</time>
      </trkpt>
      <trkpt lat="37.6917910" lon="-2.6635820">
        <ele>730.4</ele>
        <time>2020-07-14T06:20:03Z</time>
      </trkpt>
      <trkpt lat="37.6921260" lon="-2.6632140">
        <ele>731.2</ele>
        <time>2020-07-14T06:20:10Z</time>
      </trkpt>
      <trkpt lat="37.6922250" lon="-2.6631040">
        <ele>731.2</ele>
        <time>2020-07-14T06:20:12Z</time>
      </trkpt>
      <trkpt lat="37.6925460" lon="-2.6627330">
        <ele>732.2</ele>
        <time>2020-07-14T06:20:19Z</time>
      </trkpt>
      <trkpt lat="37.6925860" lon="-2.6626760">
        <ele>732.2</ele>
        <time>2020-07-14T06:20:20Z</time>
      </trkpt>
      <trkpt lat="37.6927910" lon="-2.6622980">
        <ele>732.8</ele>
        <time>2020-07-14T06:20:26Z</time>
      </trkpt>
      <trkpt lat="37.6929370" lon="-2.6619840">
        <ele>733.2</ele>
        <time>2020-07-14T06:20:31Z</time>
      </trkpt>
      <trkpt lat="37.6931010" lon="-2.6617030">
        <ele>734.0</ele>
        <time>2020-07-14T06:20:36Z</time>
      </trkpt>
      <trkpt lat="37.6931800" lon="-2.6616030">
        <ele>734.4</ele>
        <time>2020-07-14T06:20:38Z</time>
      </trkpt>
      <trkpt lat="37.6934510" lon="-2.6613180">
        <ele>735.0</ele>
        <time>2020-07-14T06:20:44Z</time>
      </trkpt>
      <trkpt lat="37.6938750" lon="-2.6608880">
        <ele>735.2</ele>
        <time>2020-07-14T06:20:53Z</time>
      </trkpt>
      <trkpt lat="37.6940210" lon="-2.6607650">
        <ele>735.4</ele>
        <time>2020-07-14T06:20:56Z</time>
      </trkpt>
      <trkpt lat="37.6942660" lon="-2.6606380">
        <ele>736.4</ele>
        <time>2020-07-14T06:21:01Z</time>
      </trkpt>
      <trkpt lat="37.6943150" lon="-2.6606210">
        <ele>736.6</ele>
        <time>2020-07-14T06:21:02Z</time>
      </trkpt>
      <trkpt lat="37.6945090" lon="-2.6605650">
        <ele>737.6</ele>
        <time>2020-07-14T06:21:06Z</time>
      </trkpt>
      <trkpt lat="37.6946890" lon="-2.6605180">
        <ele>738.8</ele>
        <time>2020-07-14T06:21:10Z</time>
      </trkpt>
      <trkpt lat="37.6947310" lon="-2.6605040">
        <ele>739.0</ele>
        <time>2020-07-14T06:21:11Z</time>
      </trkpt>
      <trkpt lat="37.6949000" lon="-2.6604550">
        <ele>739.8</ele>
        <time>2020-07-14T06:21:15Z</time>
      </trkpt>
      <trkpt lat="37.6951030" lon="-2.6603940">
        <ele>740.8</ele>
        <time>2020-07-14T06:21:20Z</time>
      </trkpt>
      <trkpt lat="37.6951860" lon="-2.6603710">
        <ele>741.4</ele>
        <time>2020-07-14T06:21:22Z</time>
      </trkpt>
      <trkpt lat="37.6952660" lon="-2.6603480">
        <ele>741.8</ele>
        <time>2020-07-14T06:21:24Z</time>
      </trkpt>
      <trkpt lat="37.6954280" lon="-2.6602970">
        <ele>743.0</ele>
        <time>2020-07-14T06:21:28Z</time>
      </trkpt>
      <trkpt lat="37.6955480" lon="-2.6602600">
        <ele>743.6</ele>
        <time>2020-07-14T06:21:31Z</time>
      </trkpt>
      <trkpt lat="37.6956270" lon="-2.6602300">
        <ele>744.2</ele>
        <time>2020-07-14T06:21:33Z</time>
      </trkpt>
      <trkpt lat="37.6958230" lon="-2.6601250">
        <ele>745.2</ele>
        <time>2020-07-14T06:21:38Z</time>
      </trkpt>
      <trkpt lat="37.6958950" lon="-2.6600720">
        <ele>745.8</ele>
        <time>2020-07-14T06:21:40Z</time>
      </trkpt>
      <trkpt lat="37.6960130" lon="-2.6599850">
        <ele>746.4</ele>
        <time>2020-07-14T06:21:43Z</time>
      </trkpt>
      <trkpt lat="37.6962380" lon="-2.6598070">
        <ele>747.6</ele>
        <time>2020-07-14T06:21:49Z</time>
      </trkpt>
      <trkpt lat="37.6963570" lon="-2.6597160">
        <ele>748.0</ele>
        <time>2020-07-14T06:21:52Z</time>
      </trkpt>
      <trkpt lat="37.6966360" lon="-2.6595020">
        <ele>748.6</ele>
        <time>2020-07-14T06:21:59Z</time>
      </trkpt>
      <trkpt lat="37.6968010" lon="-2.6593730">
        <ele>749.0</ele>
        <time>2020-07-14T06:22:03Z</time>
      </trkpt>
      <trkpt lat="37.6970900" lon="-2.6591510">
        <ele>749.6</ele>
        <time>2020-07-14T06:22:10Z</time>
      </trkpt>
      <trkpt lat="37.6972740" lon="-2.6590070">
        <ele>749.8</ele>
        <time>2020-07-14T06:22:14Z</time>
      </trkpt>
      <trkpt lat="37.6975520" lon="-2.6588280">
        <ele>749.4</ele>
        <time>2020-07-14T06:22:19Z</time>
      </trkpt>
      <trkpt lat="37.6976160" lon="-2.6588030">
        <ele>749.4</ele>
        <time>2020-07-14T06:22:20Z</time>
      </trkpt>
      <trkpt lat="37.6979320" lon="-2.6587270">
        <ele>748.4</ele>
        <time>2020-07-14T06:22:24Z</time>
      </trkpt>
      <trkpt lat="37.6980130" lon="-2.6587150">
        <ele>748.2</ele>
        <time>2020-07-14T06:22:25Z</time>
      </trkpt>
      <trkpt lat="37.6982910" lon="-2.6587000">
        <ele>747.2</ele>
        <time>2020-07-14T06:22:28Z</time>
      </trkpt>
      <trkpt lat="37.6984820" lon="-2.6587070">
        <ele>746.4</ele>
        <time>2020-07-14T06:22:30Z</time>
      </trkpt>
      <trkpt lat="37.6985910" lon="-2.6587040">
        <ele>745.8</ele>
        <time>2020-07-14T06:22:31Z</time>
      </trkpt>
      <trkpt lat="37.6988020" lon="-2.6586610">
        <ele>744.6</ele>
        <time>2020-07-14T06:22:33Z</time>
      </trkpt>
      <trkpt lat="37.6989050" lon="-2.6586200">
        <ele>743.8</ele>
        <time>2020-07-14T06:22:34Z</time>
      </trkpt>
      <trkpt lat="37.6989910" lon="-2.6585680">
        <ele>743.2</ele>
        <time>2020-07-14T06:22:35Z</time>
      </trkpt>
      <trkpt lat="37.6991700" lon="-2.6584090">
        <ele>742.4</ele>
        <time>2020-07-14T06:22:37Z</time>
      </trkpt>
      <trkpt lat="37.6992460" lon="-2.6583210">
        <ele>742.0</ele>
        <time>2020-07-14T06:22:38Z</time>
      </trkpt>
      <trkpt lat="37.6993170" lon="-2.6582310">
        <ele>741.8</ele>
        <time>2020-07-14T06:22:39Z</time>
      </trkpt>
      <trkpt lat="37.6994450" lon="-2.6580530">
        <ele>741.6</ele>
        <time>2020-07-14T06:22:41Z</time>
      </trkpt>
      <trkpt lat="37.6997740" lon="-2.6574900">
        <ele>741.4</ele>
        <time>2020-07-14T06:22:47Z</time>
      </trkpt>
      <trkpt lat="37.6998950" lon="-2.6569930">
        <ele>741.4</ele>
        <time>2020-07-14T06:22:52Z</time>
      </trkpt>
      <trkpt lat="37.6999070" lon="-2.6565940">
        <ele>742.8</ele>
        <time>2020-07-14T06:22:57Z</time>
      </trkpt>
      <trkpt lat="37.6999010" lon="-2.6565280">
        <ele>743.2</ele>
        <time>2020-07-14T06:22:58Z</time>
      </trkpt>
      <trkpt lat="37.6998880" lon="-2.6564000">
        <ele>744.2</ele>
        <time>2020-07-14T06:23:00Z</time>
      </trkpt>
      <trkpt lat="37.6998820" lon="-2.6562040">
        <ele>745.4</ele>
        <time>2020-07-14T06:23:03Z</time>
      </trkpt>
      <trkpt lat="37.6998780" lon="-2.6560150">
        <ele>746.2</ele>
        <time>2020-07-14T06:23:06Z</time>
      </trkpt>
      <trkpt lat="37.6998830" lon="-2.6559520">
        <ele>746.6</ele>
        <time>2020-07-14T06:23:07Z</time>
      </trkpt>
      <trkpt lat="37.6999050" lon="-2.6558260">
        <ele>747.2</ele>
        <time>2020-07-14T06:23:09Z</time>
      </trkpt>
      <trkpt lat="37.6999160" lon="-2.6557680">
        <ele>747.4</ele>
        <time>2020-07-14T06:23:10Z</time>
      </trkpt>
      <trkpt lat="37.6999500" lon="-2.6556370">
        <ele>747.8</ele>
        <time>2020-07-14T06:23:12Z</time>
      </trkpt>
      <trkpt lat="37.7000390" lon="-2.6553730">
        <ele>748.6</ele>
        <time>2020-07-14T06:23:16Z</time>
      </trkpt>
      <trkpt lat="37.7000800" lon="-2.6552410">
        <ele>749.0</ele>
        <time>2020-07-14T06:23:18Z</time>
      </trkpt>
      <trkpt lat="37.7002100" lon="-2.6548730">
        <ele>750.0</ele>
        <time>2020-07-14T06:23:24Z</time>
      </trkpt>
      <trkpt lat="37.7002300" lon="-2.6548140">
        <ele>750.0</ele>
        <time>2020-07-14T06:23:25Z</time>
      </trkpt>
      <trkpt lat="37.7004190" lon="-2.6543950">
        <ele>750.6</ele>
        <time>2020-07-14T06:23:32Z</time>
      </trkpt>
      <trkpt lat="37.7006970" lon="-2.6540500">
        <ele>751.2</ele>
        <time>2020-07-14T06:23:39Z</time>
      </trkpt>
      <trkpt lat="37.7010450" lon="-2.6537870">
        <ele>751.4</ele>
        <time>2020-07-14T06:23:46Z</time>
      </trkpt>
      <trkpt lat="37.7014030" lon="-2.6535340">
        <ele>751.6</ele>
        <time>2020-07-14T06:23:53Z</time>
      </trkpt>
      <trkpt lat="37.7017680" lon="-2.6532710">
        <ele>751.8</ele>
        <time>2020-07-14T06:24:00Z</time>
      </trkpt>
      <trkpt lat="37.7019740" lon="-2.6531200">
        <ele>752.2</ele>
        <time>2020-07-14T06:24:04Z</time>
      </trkpt>
      <trkpt lat="37.7022710" lon="-2.6529020">
        <ele>752.6</ele>
        <time>2020-07-14T06:24:10Z</time>
      </trkpt>
      <trkpt lat="37.7024200" lon="-2.6527840">
        <ele>752.6</ele>
        <time>2020-07-14T06:24:13Z</time>
      </trkpt>
      <trkpt lat="37.7026130" lon="-2.6526300">
        <ele>753.0</ele>
        <time>2020-07-14T06:24:17Z</time>
      </trkpt>
      <trkpt lat="37.7029520" lon="-2.6523520">
        <ele>753.2</ele>
        <time>2020-07-14T06:24:24Z</time>
      </trkpt>
      <trkpt lat="37.7030460" lon="-2.6522720">
        <ele>753.4</ele>
        <time>2020-07-14T06:24:26Z</time>
      </trkpt>
      <trkpt lat="37.7035310" lon="-2.6518790">
        <ele>753.8</ele>
        <time>2020-07-14T06:24:36Z</time>
      </trkpt>
      <trkpt lat="37.7039710" lon="-2.6515290">
        <ele>754.2</ele>
        <time>2020-07-14T06:24:45Z</time>
      </trkpt>
      <trkpt lat="37.7042130" lon="-2.6513330">
        <ele>754.4</ele>
        <time>2020-07-14T06:24:50Z</time>
      </trkpt>
      <trkpt lat="37.7046910" lon="-2.6509420">
        <ele>755.2</ele>
        <time>2020-07-14T06:25:00Z</time>
      </trkpt>
      <trkpt lat="37.7051650" lon="-2.6505620">
        <ele>755.6</ele>
        <time>2020-07-14T06:25:10Z</time>
      </trkpt>
      <trkpt lat="37.7053230" lon="-2.6504570">
        <ele>755.8</ele>
        <time>2020-07-14T06:25:13Z</time>
      </trkpt>
      <trkpt lat="37.7058450" lon="-2.6501270">
        <ele>755.4</ele>
        <time>2020-07-14T06:25:22Z</time>
      </trkpt>
      <trkpt lat="37.7063410" lon="-2.6498130">
        <ele>754.4</ele>
        <time>2020-07-14T06:25:30Z</time>
      </trkpt>
      <trkpt lat="37.7065180" lon="-2.6497050">
        <ele>754.4</ele>
        <time>2020-07-14T06:25:33Z</time>
      </trkpt>
      <trkpt lat="37.7067440" lon="-2.6495630">
        <ele>754.8</ele>
        <time>2020-07-14T06:25:37Z</time>
      </trkpt>
      <trkpt lat="37.7068970" lon="-2.6494700">
        <ele>755.4</ele>
        <time>2020-07-14T06:25:40Z</time>
      </trkpt>
      <trkpt lat="37.7069480" lon="-2.6494410">
        <ele>755.6</ele>
        <time>2020-07-14T06:25:41Z</time>
      </trkpt>
      <trkpt lat="37.7071450" lon="-2.6493220">
        <ele>756.4</ele>
        <time>2020-07-14T06:25:45Z</time>
      </trkpt>
      <trkpt lat="37.7073910" lon="-2.6492040">
        <ele>757.2</ele>
        <time>2020-07-14T06:25:50Z</time>
      </trkpt>
      <trkpt lat="37.7074420" lon="-2.6491800">
        <ele>757.4</ele>
        <time>2020-07-14T06:25:51Z</time>
      </trkpt>
      <trkpt lat="37.7076880" lon="-2.6490770">
        <ele>758.4</ele>
        <time>2020-07-14T06:25:56Z</time>
      </trkpt>
      <trkpt lat="37.7078380" lon="-2.6490210">
        <ele>758.8</ele>
        <time>2020-07-14T06:25:59Z</time>
      </trkpt>
      <trkpt lat="37.7083500" lon="-2.6487980">
        <ele>758.6</ele>
        <time>2020-07-14T06:26:08Z</time>
      </trkpt>
      <trkpt lat="37.7087980" lon="-2.6485110">
        <ele>757.8</ele>
        <time>2020-07-14T06:26:15Z</time>
      </trkpt>
      <trkpt lat="37.7089250" lon="-2.6483850">
        <ele>757.4</ele>
        <time>2020-07-14T06:26:17Z</time>
      </trkpt>
      <trkpt lat="37.7091190" lon="-2.6481610">
        <ele>756.4</ele>
        <time>2020-07-14T06:26:20Z</time>
      </trkpt>
      <trkpt lat="37.7091860" lon="-2.6480680">
        <ele>756.0</ele>
        <time>2020-07-14T06:26:21Z</time>
      </trkpt>
      <trkpt lat="37.7093590" lon="-2.6477630">
        <ele>754.6</ele>
        <time>2020-07-14T06:26:24Z</time>
      </trkpt>
      <trkpt lat="37.7094620" lon="-2.6475250">
        <ele>753.6</ele>
        <time>2020-07-14T06:26:26Z</time>
      </trkpt>
      <trkpt lat="37.7095520" lon="-2.6472710">
        <ele>752.4</ele>
        <time>2020-07-14T06:26:28Z</time>
      </trkpt>
      <trkpt lat="37.7095930" lon="-2.6471510">
        <ele>751.8</ele>
        <time>2020-07-14T06:26:29Z</time>
      </trkpt>
      <trkpt lat="37.7096370" lon="-2.6470180">
        <ele>751.2</ele>
        <time>2020-07-14T06:26:30Z</time>
      </trkpt>
      <trkpt lat="37.7097280" lon="-2.6467440">
        <ele>750.0</ele>
        <time>2020-07-14T06:26:32Z</time>
      </trkpt>
      <trkpt lat="37.7098190" lon="-2.6464650">
        <ele>748.4</ele>
        <time>2020-07-14T06:26:34Z</time>
      </trkpt>
      <trkpt lat="37.7099090" lon="-2.6461870">
        <ele>747.4</ele>
        <time>2020-07-14T06:26:36Z</time>
      </trkpt>
      <trkpt lat="37.7100060" lon="-2.6458980">
        <ele>745.8</ele>
        <time>2020-07-14T06:26:38Z</time>
      </trkpt>
      <trkpt lat="37.7101010" lon="-2.6456120">
        <ele>744.2</ele>
        <time>2020-07-14T06:26:40Z</time>
      </trkpt>
      <trkpt lat="37.7102010" lon="-2.6453110">
        <ele>742.8</ele>
        <time>2020-07-14T06:26:42Z</time>
      </trkpt>
      <trkpt lat="37.7102930" lon="-2.6450320">
        <ele>741.2</ele>
        <time>2020-07-14T06:26:44Z</time>
      </trkpt>
      <trkpt lat="37.7103880" lon="-2.6447380">
        <ele>740.0</ele>
        <time>2020-07-14T06:26:46Z</time>
      </trkpt>
      <trkpt lat="37.7105170" lon="-2.6443210">
        <ele>738.8</ele>
        <time>2020-07-14T06:26:49Z</time>
      </trkpt>
      <trkpt lat="37.7105990" lon="-2.6440650">
        <ele>738.2</ele>
        <time>2020-07-14T06:26:51Z</time>
      </trkpt>
      <trkpt lat="37.7108160" lon="-2.6433700">
        <ele>738.0</ele>
        <time>2020-07-14T06:26:57Z</time>
      </trkpt>
      <trkpt lat="37.7110600" lon="-2.6427770">
        <ele>738.0</ele>
        <time>2020-07-14T06:27:03Z</time>
      </trkpt>
      <trkpt lat="37.7112520" lon="-2.6425970">
        <ele>738.2</ele>
        <time>2020-07-14T06:27:06Z</time>
      </trkpt>
      <trkpt lat="37.7113230" lon="-2.6425490">
        <ele>738.4</ele>
        <time>2020-07-14T06:27:07Z</time>
      </trkpt>
      <trkpt lat="37.7117320" lon="-2.6422750">
        <ele>738.8</ele>
        <time>2020-07-14T06:27:13Z</time>
      </trkpt>
      <trkpt lat="37.7122290" lon="-2.6419460">
        <ele>739.2</ele>
        <time>2020-07-14T06:27:21Z</time>
      </trkpt>
      <trkpt lat="37.7122880" lon="-2.6419070">
        <ele>739.2</ele>
        <time>2020-07-14T06:27:22Z</time>
      </trkpt>
      <trkpt lat="37.7125720" lon="-2.6417180">
        <ele>739.8</ele>
        <time>2020-07-14T06:27:27Z</time>
      </trkpt>
      <trkpt lat="37.7127810" lon="-2.6415720">
        <ele>740.2</ele>
        <time>2020-07-14T06:27:31Z</time>
      </trkpt>
      <trkpt lat="37.7128780" lon="-2.6415000">
        <ele>740.6</ele>
        <time>2020-07-14T06:27:33Z</time>
      </trkpt>
      <trkpt lat="37.7129730" lon="-2.6414370">
        <ele>740.8</ele>
        <time>2020-07-14T06:27:35Z</time>
      </trkpt>
      <trkpt lat="37.7130340" lon="-2.6413940">
        <ele>741.0</ele>
        <time>2020-07-14T06:27:36Z</time>
      </trkpt>
      <trkpt lat="37.7132830" lon="-2.6412190">
        <ele>741.6</ele>
        <time>2020-07-14T06:27:41Z</time>
      </trkpt>
      <trkpt lat="37.7133850" lon="-2.6411490">
        <ele>742.0</ele>
        <time>2020-07-14T06:27:43Z</time>
      </trkpt>
      <trkpt lat="37.7134830" lon="-2.6410850">
        <ele>742.4</ele>
        <time>2020-07-14T06:27:45Z</time>
      </trkpt>
      <trkpt lat="37.7137250" lon="-2.6409240">
        <ele>743.0</ele>
        <time>2020-07-14T06:27:50Z</time>
      </trkpt>
      <trkpt lat="37.7139190" lon="-2.6407950">
        <ele>743.6</ele>
        <time>2020-07-14T06:27:54Z</time>
      </trkpt>
      <trkpt lat="37.7141020" lon="-2.6406730">
        <ele>744.2</ele>
        <time>2020-07-14T06:27:58Z</time>
      </trkpt>
      <trkpt lat="37.7143730" lon="-2.6404840">
        <ele>744.8</ele>
        <time>2020-07-14T06:28:04Z</time>
      </trkpt>
      <trkpt lat="37.7145090" lon="-2.6403920">
        <ele>745.2</ele>
        <time>2020-07-14T06:28:07Z</time>
      </trkpt>
      <trkpt lat="37.7148360" lon="-2.6401750">
        <ele>746.0</ele>
        <time>2020-07-14T06:28:14Z</time>
      </trkpt>
      <trkpt lat="37.7150810" lon="-2.6400480">
        <ele>746.2</ele>
        <time>2020-07-14T06:28:19Z</time>
      </trkpt>
      <trkpt lat="37.7152340" lon="-2.6399880">
        <ele>746.4</ele>
        <time>2020-07-14T06:28:22Z</time>
      </trkpt>
      <trkpt lat="37.7155520" lon="-2.6399430">
        <ele>746.8</ele>
        <time>2020-07-14T06:28:28Z</time>
      </trkpt>
      <trkpt lat="37.7159880" lon="-2.6399400">
        <ele>747.2</ele>
        <time>2020-07-14T06:28:36Z</time>
      </trkpt>
      <trkpt lat="37.7161550" lon="-2.6399420">
        <ele>747.2</ele>
        <time>2020-07-14T06:28:39Z</time>
      </trkpt>
      <trkpt lat="37.7162110" lon="-2.6399420">
        <ele>747.2</ele>
        <time>2020-07-14T06:28:40Z</time>
      </trkpt>
      <trkpt lat="37.7166670" lon="-2.6399330">
        <ele>747.6</ele>
        <time>2020-07-14T06:28:48Z</time>
      </trkpt>
      <trkpt lat="37.7169360" lon="-2.6399030">
        <ele>748.0</ele>
        <time>2020-07-14T06:28:53Z</time>
      </trkpt>
      <trkpt lat="37.7171510" lon="-2.6398640">
        <ele>748.2</ele>
        <time>2020-07-14T06:28:57Z</time>
      </trkpt>
      <trkpt lat="37.7172040" lon="-2.6398510">
        <ele>748.4</ele>
        <time>2020-07-14T06:28:58Z</time>
      </trkpt>
      <trkpt lat="37.7174180" lon="-2.6397930">
        <ele>749.0</ele>
        <time>2020-07-14T06:29:02Z</time>
      </trkpt>
      <trkpt lat="37.7176290" lon="-2.6397400">
        <ele>749.4</ele>
        <time>2020-07-14T06:29:06Z</time>
      </trkpt>
      <trkpt lat="37.7180340" lon="-2.6396380">
        <ele>750.6</ele>
        <time>2020-07-14T06:29:14Z</time>
      </trkpt>
      <trkpt lat="37.7183910" lon="-2.6395250">
        <ele>751.2</ele>
        <time>2020-07-14T06:29:21Z</time>
      </trkpt>
      <trkpt lat="37.7184860" lon="-2.6394820">
        <ele>751.4</ele>
        <time>2020-07-14T06:29:23Z</time>
      </trkpt>
      <trkpt lat="37.7185820" lon="-2.6394240">
        <ele>751.6</ele>
        <time>2020-07-14T06:29:25Z</time>
      </trkpt>
      <trkpt lat="37.7187470" lon="-2.6393050">
        <ele>752.0</ele>
        <time>2020-07-14T06:29:29Z</time>
      </trkpt>
      <trkpt lat="37.7190050" lon="-2.6390440">
        <ele>752.8</ele>
        <time>2020-07-14T06:29:35Z</time>
      </trkpt>
      <trkpt lat="37.7190480" lon="-2.6389950">
        <ele>752.8</ele>
        <time>2020-07-14T06:29:36Z</time>
      </trkpt>
      <trkpt lat="37.7194170" lon="-2.6385330">
        <ele>753.8</ele>
        <time>2020-07-14T06:29:46Z</time>
      </trkpt>
      <trkpt lat="37.7194530" lon="-2.6384810">
        <ele>753.8</ele>
        <time>2020-07-14T06:29:47Z</time>
      </trkpt>
      <trkpt lat="37.7197340" lon="-2.6380910">
        <ele>753.4</ele>
        <time>2020-07-14T06:29:54Z</time>
      </trkpt>
      <trkpt lat="37.7198940" lon="-2.6378680">
        <ele>753.4</ele>
        <time>2020-07-14T06:29:58Z</time>
      </trkpt>
      <trkpt lat="37.7200050" lon="-2.6376930">
        <ele>753.4</ele>
        <time>2020-07-14T06:30:01Z</time>
      </trkpt>
      <trkpt lat="37.7200860" lon="-2.6374950">
        <ele>753.6</ele>
        <time>2020-07-14T06:30:04Z</time>
      </trkpt>
      <trkpt lat="37.7202420" lon="-2.6370970">
        <ele>753.8</ele>
        <time>2020-07-14T06:30:10Z</time>
      </trkpt>
      <trkpt lat="37.7203370" lon="-2.6368800">
        <ele>754.0</ele>
        <time>2020-07-14T06:30:13Z</time>
      </trkpt>
      <trkpt lat="37.7205650" lon="-2.6363670">
        <ele>753.2</ele>
        <time>2020-07-14T06:30:20Z</time>
      </trkpt>
      <trkpt lat="37.7206640" lon="-2.6358680">
        <ele>753.0</ele>
        <time>2020-07-14T06:30:26Z</time>
      </trkpt>
      <trkpt lat="37.7206610" lon="-2.6357820">
        <ele>753.0</ele>
        <time>2020-07-14T06:30:27Z</time>
      </trkpt>
      <trkpt lat="37.7206240" lon="-2.6356180">
        <ele>753.0</ele>
        <time>2020-07-14T06:30:29Z</time>
      </trkpt>
      <trkpt lat="37.7205680" lon="-2.6354490">
        <ele>753.0</ele>
        <time>2020-07-14T06:30:31Z</time>
      </trkpt>
      <trkpt lat="37.7204810" lon="-2.6352030">
        <ele>752.8</ele>
        <time>2020-07-14T06:30:34Z</time>
      </trkpt>
      <trkpt lat="37.7204330" lon="-2.6350430">
        <ele>752.6</ele>
        <time>2020-07-14T06:30:36Z</time>
      </trkpt>
      <trkpt lat="37.7203710" lon="-2.6346210">
        <ele>752.4</ele>
        <time>2020-07-14T06:30:41Z</time>
      </trkpt>
      <trkpt lat="37.7203120" lon="-2.6339330">
        <ele>752.6</ele>
        <time>2020-07-14T06:30:49Z</time>
      </trkpt>
      <trkpt lat="37.7203000" lon="-2.6337650">
        <ele>752.6</ele>
        <time>2020-07-14T06:30:51Z</time>
      </trkpt>
      <trkpt lat="37.7202750" lon="-2.6330310">
        <ele>752.8</ele>
        <time>2020-07-14T06:31:00Z</time>
      </trkpt>
      <trkpt lat="37.7203710" lon="-2.6326580">
        <ele>753.0</ele>
        <time>2020-07-14T06:31:05Z</time>
      </trkpt>
      <trkpt lat="37.7205220" lon="-2.6323490">
        <ele>753.8</ele>
        <time>2020-07-14T06:31:10Z</time>
      </trkpt>
      <trkpt lat="37.7205510" lon="-2.6322950">
        <ele>754.0</ele>
        <time>2020-07-14T06:31:11Z</time>
      </trkpt>
      <trkpt lat="37.7206430" lon="-2.6321370">
        <ele>754.8</ele>
        <time>2020-07-14T06:31:14Z</time>
      </trkpt>
      <trkpt lat="37.7207310" lon="-2.6319940">
        <ele>755.6</ele>
        <time>2020-07-14T06:31:17Z</time>
      </trkpt>
      <trkpt lat="37.7207850" lon="-2.6318960">
        <ele>756.0</ele>
        <time>2020-07-14T06:31:19Z</time>
      </trkpt>
      <trkpt lat="37.7208080" lon="-2.6318540">
        <ele>756.4</ele>
        <time>2020-07-14T06:31:20Z</time>
      </trkpt>
      <trkpt lat="37.7208840" lon="-2.6317160">
        <ele>757.2</ele>
        <time>2020-07-14T06:31:23Z</time>
      </trkpt>
      <trkpt lat="37.7209590" lon="-2.6315870">
        <ele>758.0</ele>
        <time>2020-07-14T06:31:26Z</time>
      </trkpt>
      <trkpt lat="37.7209860" lon="-2.6315440">
        <ele>758.2</ele>
        <time>2020-07-14T06:31:27Z</time>
      </trkpt>
      <trkpt lat="37.7210740" lon="-2.6313880">
        <ele>759.4</ele>
        <time>2020-07-14T06:31:31Z</time>
      </trkpt>
      <trkpt lat="37.7211650" lon="-2.6312510">
        <ele>760.4</ele>
        <time>2020-07-14T06:31:35Z</time>
      </trkpt>
      <trkpt lat="37.7211930" lon="-2.6312130">
        <ele>760.8</ele>
        <time>2020-07-14T06:31:36Z</time>
      </trkpt>
      <trkpt lat="37.7213200" lon="-2.6310520">
        <ele>761.8</ele>
        <time>2020-07-14T06:31:41Z</time>
      </trkpt>
      <trkpt lat="37.7214400" lon="-2.6309440">
        <ele>762.8</ele>
        <time>2020-07-14T06:31:45Z</time>
      </trkpt>
      <trkpt lat="37.7214740" lon="-2.6309130">
        <ele>763.0</ele>
        <time>2020-07-14T06:31:46Z</time>
      </trkpt>
      <trkpt lat="37.7216680" lon="-2.6307510">
        <ele>764.2</ele>
        <time>2020-07-14T06:31:52Z</time>
      </trkpt>
      <trkpt lat="37.7217400" lon="-2.6306900">
        <ele>764.4</ele>
        <time>2020-07-14T06:31:54Z</time>
      </trkpt>
      <trkpt lat="37.7221100" lon="-2.6303890">
        <ele>764.6</ele>
        <time>2020-07-14T06:32:03Z</time>
      </trkpt>
      <trkpt lat="37.7224120" lon="-2.6301190">
        <ele>764.0</ele>
        <time>2020-07-14T06:32:09Z</time>
      </trkpt>
      <trkpt lat="37.7225980" lon="-2.6298750">
        <ele>763.4</ele>
        <time>2020-07-14T06:32:13Z</time>
      </trkpt>
      <trkpt lat="37.7226340" lon="-2.6298040">
        <ele>763.2</ele>
        <time>2020-07-14T06:32:14Z</time>
      </trkpt>
      <trkpt lat="37.7226890" lon="-2.6296540">
        <ele>763.2</ele>
        <time>2020-07-14T06:32:16Z</time>
      </trkpt>
      <trkpt lat="37.7227720" lon="-2.6294430">
        <ele>763.2</ele>
        <time>2020-07-14T06:32:19Z</time>
      </trkpt>
      <trkpt lat="37.7229960" lon="-2.6288610">
        <ele>764.0</ele>
        <time>2020-07-14T06:32:28Z</time>
      </trkpt>
      <trkpt lat="37.7230180" lon="-2.6288020">
        <ele>764.2</ele>
        <time>2020-07-14T06:32:29Z</time>
      </trkpt>
      <trkpt lat="37.7232190" lon="-2.6282910">
        <ele>765.2</ele>
        <time>2020-07-14T06:32:37Z</time>
      </trkpt>
      <trkpt lat="37.7232780" lon="-2.6281590">
        <ele>765.4</ele>
        <time>2020-07-14T06:32:39Z</time>
      </trkpt>
      <trkpt lat="37.7234470" lon="-2.6278070">
        <ele>765.0</ele>
        <time>2020-07-14T06:32:44Z</time>
      </trkpt>
      <trkpt lat="37.7235360" lon="-2.6276540">
        <ele>764.6</ele>
        <time>2020-07-14T06:32:46Z</time>
      </trkpt>
      <trkpt lat="37.7235780" lon="-2.6275790">
        <ele>764.2</ele>
        <time>2020-07-14T06:32:47Z</time>
      </trkpt>
      <trkpt lat="37.7237300" lon="-2.6273360">
        <ele>763.2</ele>
        <time>2020-07-14T06:32:50Z</time>
      </trkpt>
      <trkpt lat="37.7237860" lon="-2.6272530">
        <ele>763.0</ele>
        <time>2020-07-14T06:32:51Z</time>
      </trkpt>
      <trkpt lat="37.7238380" lon="-2.6271750">
        <ele>762.4</ele>
        <time>2020-07-14T06:32:52Z</time>
      </trkpt>
      <trkpt lat="37.7239790" lon="-2.6269460">
        <ele>762.0</ele>
        <time>2020-07-14T06:32:55Z</time>
      </trkpt>
      <trkpt lat="37.7240290" lon="-2.6268550">
        <ele>761.8</ele>
        <time>2020-07-14T06:32:56Z</time>
      </trkpt>
      <trkpt lat="37.7241480" lon="-2.6266120">
        <ele>761.6</ele>
        <time>2020-07-14T06:32:59Z</time>
      </trkpt>
      <trkpt lat="37.7244480" lon="-2.6259860">
        <ele>761.4</ele>
        <time>2020-07-14T06:33:07Z</time>
      </trkpt>
      <trkpt lat="37.7245290" lon="-2.6258170">
        <ele>761.4</ele>
        <time>2020-07-14T06:33:09Z</time>
      </trkpt>
      <trkpt lat="37.7247850" lon="-2.6252980">
        <ele>761.4</ele>
        <time>2020-07-14T06:33:16Z</time>
      </trkpt>
      <trkpt lat="37.7248900" lon="-2.6250790">
        <ele>761.6</ele>
        <time>2020-07-14T06:33:19Z</time>
      </trkpt>
      <trkpt lat="37.7251900" lon="-2.6244380">
        <ele>762.0</ele>
        <time>2020-07-14T06:33:28Z</time>
      </trkpt>
      <trkpt lat="37.7252520" lon="-2.6243070">
        <ele>762.0</ele>
        <time>2020-07-14T06:33:30Z</time>
      </trkpt>
      <trkpt lat="37.7255480" lon="-2.6236880">
        <ele>762.6</ele>
        <time>2020-07-14T06:33:39Z</time>
      </trkpt>
      <trkpt lat="37.7256470" lon="-2.6234810">
        <ele>762.6</ele>
        <time>2020-07-14T06:33:42Z</time>
      </trkpt>
      <trkpt lat="37.7257410" lon="-2.6232840">
        <ele>762.8</ele>
        <time>2020-07-14T06:33:45Z</time>
      </trkpt>
      <trkpt lat="37.7260020" lon="-2.6227270">
        <ele>763.2</ele>
        <time>2020-07-14T06:33:53Z</time>
      </trkpt>
      <trkpt lat="37.7262940" lon="-2.6220870">
        <ele>763.2</ele>
        <time>2020-07-14T06:34:02Z</time>
      </trkpt>
      <trkpt lat="37.7263550" lon="-2.6219450">
        <ele>763.2</ele>
        <time>2020-07-14T06:34:04Z</time>
      </trkpt>
      <trkpt lat="37.7266310" lon="-2.6213230">
        <ele>763.4</ele>
        <time>2020-07-14T06:34:13Z</time>
      </trkpt>
      <trkpt lat="37.7266950" lon="-2.6211930">
        <ele>763.6</ele>
        <time>2020-07-14T06:34:15Z</time>
      </trkpt>
      <trkpt lat="37.7268340" lon="-2.6209280">
        <ele>763.6</ele>
        <time>2020-07-14T06:34:19Z</time>
      </trkpt>
      <trkpt lat="37.7269290" lon="-2.6207690">
        <ele>763.8</ele>
        <time>2020-07-14T06:34:22Z</time>
      </trkpt>
      <trkpt lat="37.7269600" lon="-2.6207210">
        <ele>764.0</ele>
        <time>2020-07-14T06:34:23Z</time>
      </trkpt>
      <trkpt lat="37.7270500" lon="-2.6205930">
        <ele>765.0</ele>
        <time>2020-07-14T06:34:26Z</time>
      </trkpt>
      <trkpt lat="37.7271240" lon="-2.6204870">
        <ele>765.8</ele>
        <time>2020-07-14T06:34:29Z</time>
      </trkpt>
      <trkpt lat="37.7271490" lon="-2.6204510">
        <ele>766.2</ele>
        <time>2020-07-14T06:34:30Z</time>
      </trkpt>
      <trkpt lat="37.7272450" lon="-2.6203150">
        <ele>767.2</ele>
        <time>2020-07-14T06:34:34Z</time>
      </trkpt>
      <trkpt lat="37.7273340" lon="-2.6201840">
        <ele>768.2</ele>
        <time>2020-07-14T06:34:38Z</time>
      </trkpt>
      <trkpt lat="37.7273560" lon="-2.6201540">
        <ele>768.4</ele>
        <time>2020-07-14T06:34:39Z</time>
      </trkpt>
      <trkpt lat="37.7274620" lon="-2.6200070">
        <ele>769.8</ele>
        <time>2020-07-14T06:34:44Z</time>
      </trkpt>
      <trkpt lat="37.7275490" lon="-2.6198920">
        <ele>771.0</ele>
        <time>2020-07-14T06:34:48Z</time>
      </trkpt>
      <trkpt lat="37.7275690" lon="-2.6198630">
        <ele>771.2</ele>
        <time>2020-07-14T06:34:49Z</time>
      </trkpt>
      <trkpt lat="37.7276450" lon="-2.6197690">
        <ele>772.0</ele>
        <time>2020-07-14T06:34:52Z</time>
      </trkpt>
      <trkpt lat="37.7277370" lon="-2.6196550">
        <ele>773.2</ele>
        <time>2020-07-14T06:34:56Z</time>
      </trkpt>
      <trkpt lat="37.7277870" lon="-2.6196000">
        <ele>773.8</ele>
        <time>2020-07-14T06:34:58Z</time>
      </trkpt>
      <trkpt lat="37.7278400" lon="-2.6195420">
        <ele>774.4</ele>
        <time>2020-07-14T06:35:00Z</time>
      </trkpt>
      <trkpt lat="37.7280230" lon="-2.6193940">
        <ele>775.4</ele>
        <time>2020-07-14T06:35:06Z</time>
      </trkpt>
      <trkpt lat="37.7280550" lon="-2.6193720">
        <ele>775.6</ele>
        <time>2020-07-14T06:35:07Z</time>
      </trkpt>
      <trkpt lat="37.7283480" lon="-2.6191910">
        <ele>776.6</ele>
        <time>2020-07-14T06:35:16Z</time>
      </trkpt>
      <trkpt lat="37.7283830" lon="-2.6191680">
        <ele>776.8</ele>
        <time>2020-07-14T06:35:17Z</time>
      </trkpt>
      <trkpt lat="37.7285750" lon="-2.6190410">
        <ele>777.8</ele>
        <time>2020-07-14T06:35:23Z</time>
      </trkpt>
      <trkpt lat="37.7286930" lon="-2.6189600">
        <ele>778.6</ele>
        <time>2020-07-14T06:35:27Z</time>
      </trkpt>
      <trkpt lat="37.7287190" lon="-2.6189410">
        <ele>778.8</ele>
        <time>2020-07-14T06:35:28Z</time>
      </trkpt>
      <trkpt lat="37.7288410" lon="-2.6188290">
        <ele>780.0</ele>
        <time>2020-07-14T06:35:33Z</time>
      </trkpt>
      <trkpt lat="37.7289120" lon="-2.6187650">
        <ele>780.8</ele>
        <time>2020-07-14T06:35:36Z</time>
      </trkpt>
      <trkpt lat="37.7289600" lon="-2.6187180">
        <ele>781.4</ele>
        <time>2020-07-14T06:35:38Z</time>
      </trkpt>
      <trkpt lat="37.7290940" lon="-2.6185930">
        <ele>782.4</ele>
        <time>2020-07-14T06:35:43Z</time>
      </trkpt>
      <trkpt lat="37.7291480" lon="-2.6185390">
        <ele>782.8</ele>
        <time>2020-07-14T06:35:45Z</time>
      </trkpt>
      <trkpt lat="37.7292290" lon="-2.6184600">
        <ele>783.6</ele>
        <time>2020-07-14T06:35:48Z</time>
      </trkpt>
      <trkpt lat="37.7294430" lon="-2.6182510">
        <ele>784.6</ele>
        <time>2020-07-14T06:35:55Z</time>
      </trkpt>
      <trkpt lat="37.7295170" lon="-2.6181820">
        <ele>784.8</ele>
        <time>2020-07-14T06:35:57Z</time>
      </trkpt>
      <trkpt lat="37.7297280" lon="-2.6180000">
        <ele>784.4</ele>
        <time>2020-07-14T06:36:02Z</time>
      </trkpt>
      <trkpt lat="37.7300120" lon="-2.6177750">
        <ele>784.2</ele>
        <time>2020-07-14T06:36:08Z</time>
      </trkpt>
      <trkpt lat="37.7302040" lon="-2.6176210">
        <ele>784.2</ele>
        <time>2020-07-14T06:36:12Z</time>
      </trkpt>
      <trkpt lat="37.7303530" lon="-2.6175000">
        <ele>784.0</ele>
        <time>2020-07-14T06:36:15Z</time>
      </trkpt>
      <trkpt lat="37.7305320" lon="-2.6173060">
        <ele>784.0</ele>
        <time>2020-07-14T06:36:19Z</time>
      </trkpt>
      <trkpt lat="37.7306420" lon="-2.6171190">
        <ele>784.0</ele>
        <time>2020-07-14T06:36:22Z</time>
      </trkpt>
      <trkpt lat="37.7306880" lon="-2.6169810">
        <ele>784.0</ele>
        <time>2020-07-14T06:36:24Z</time>
      </trkpt>
      <trkpt lat="37.7307190" lon="-2.6167600">
        <ele>784.2</ele>
        <time>2020-07-14T06:36:27Z</time>
      </trkpt>
      <trkpt lat="37.7307220" lon="-2.6166250">
        <ele>784.4</ele>
        <time>2020-07-14T06:36:29Z</time>
      </trkpt>
      <trkpt lat="37.7307250" lon="-2.6162070">
        <ele>785.4</ele>
        <time>2020-07-14T06:36:35Z</time>
      </trkpt>
      <trkpt lat="37.7307340" lon="-2.6161370">
        <ele>785.6</ele>
        <time>2020-07-14T06:36:36Z</time>
      </trkpt>
      <trkpt lat="37.7307430" lon="-2.6160690">
        <ele>785.8</ele>
        <time>2020-07-14T06:36:37Z</time>
      </trkpt>
      <trkpt lat="37.7308400" lon="-2.6153640">
        <ele>786.6</ele>
        <time>2020-07-14T06:36:47Z</time>
      </trkpt>
      <trkpt lat="37.7308500" lon="-2.6152960">
        <ele>786.8</ele>
        <time>2020-07-14T06:36:53Z</time>
      </trkpt>
      <trkpt lat="37.7308600" lon="-2.6152270">
        <ele>786.8</ele>
        <time>2020-07-14T06:36:54Z</time>
      </trkpt>
      <trkpt lat="37.7309590" lon="-2.6145410">
        <ele>787.2</ele>
        <time>2020-07-14T06:36:59Z</time>
      </trkpt>
      <trkpt lat="37.7310530" lon="-2.6139250">
        <ele>787.6</ele>
        <time>2020-07-14T06:37:08Z</time>
      </trkpt>
      <trkpt lat="37.7310640" lon="-2.6138610">
        <ele>787.6</ele>
        <time>2020-07-14T06:37:09Z</time>
      </trkpt>
      <trkpt lat="37.7311910" lon="-2.6134480">
        <ele>787.6</ele>
        <time>2020-07-14T06:37:15Z</time>
      </trkpt>
      <trkpt lat="37.7313800" lon="-2.6129600">
        <ele>787.4</ele>
        <time>2020-07-14T06:37:22Z</time>
      </trkpt>
      <trkpt lat="37.7314340" lon="-2.6128220">
        <ele>787.4</ele>
        <time>2020-07-14T06:37:24Z</time>
      </trkpt>
      <trkpt lat="37.7316010" lon="-2.6124900">
        <ele>787.6</ele>
        <time>2020-07-14T06:37:29Z</time>
      </trkpt>
      <trkpt lat="37.7316920" lon="-2.6123810">
        <ele>787.8</ele>
        <time>2020-07-14T06:37:31Z</time>
      </trkpt>
      <trkpt lat="37.7320010" lon="-2.6121300">
        <ele>787.8</ele>
        <time>2020-07-14T06:37:37Z</time>
      </trkpt>
      <trkpt lat="37.7320530" lon="-2.6120920">
        <ele>788.0</ele>
        <time>2020-07-14T06:37:38Z</time>
      </trkpt>
      <trkpt lat="37.7324410" lon="-2.6118130">
        <ele>788.6</ele>
        <time>2020-07-14T06:37:46Z</time>
      </trkpt>
      <trkpt lat="37.7325320" lon="-2.6117490">
        <ele>789.0</ele>
        <time>2020-07-14T06:37:48Z</time>
      </trkpt>
      <trkpt lat="37.7328270" lon="-2.6115330">
        <ele>789.8</ele>
        <time>2020-07-14T06:37:55Z</time>
      </trkpt>
      <trkpt lat="37.7328690" lon="-2.6115050">
        <ele>790.0</ele>
        <time>2020-07-14T06:37:56Z</time>
      </trkpt>
      <trkpt lat="37.7331020" lon="-2.6113310">
        <ele>791.0</ele>
        <time>2020-07-14T06:38:02Z</time>
      </trkpt>
      <trkpt lat="37.7331390" lon="-2.6113030">
        <ele>791.2</ele>
        <time>2020-07-14T06:38:03Z</time>
      </trkpt>
      <trkpt lat="37.7333220" lon="-2.6111660">
        <ele>792.2</ele>
        <time>2020-07-14T06:38:08Z</time>
      </trkpt>
      <trkpt lat="37.7334350" lon="-2.6110790">
        <ele>792.6</ele>
        <time>2020-07-14T06:38:11Z</time>
      </trkpt>
      <trkpt lat="37.7335460" lon="-2.6109970">
        <ele>793.2</ele>
        <time>2020-07-14T06:38:14Z</time>
      </trkpt>
      <trkpt lat="37.7335860" lon="-2.6109680">
        <ele>793.2</ele>
        <time>2020-07-14T06:38:15Z</time>
      </trkpt>
      <trkpt lat="37.7337350" lon="-2.6108610">
        <ele>794.0</ele>
        <time>2020-07-14T06:38:19Z</time>
      </trkpt>
      <trkpt lat="37.7338110" lon="-2.6108000">
        <ele>794.2</ele>
        <time>2020-07-14T06:38:21Z</time>
      </trkpt>
      <trkpt lat="37.7340420" lon="-2.6106550">
        <ele>795.4</ele>
        <time>2020-07-14T06:38:27Z</time>
      </trkpt>
      <trkpt lat="37.7340820" lon="-2.6106350">
        <ele>795.6</ele>
        <time>2020-07-14T06:38:28Z</time>
      </trkpt>
      <trkpt lat="37.7343080" lon="-2.6105560">
        <ele>796.4</ele>
        <time>2020-07-14T06:38:34Z</time>
      </trkpt>
      <trkpt lat="37.7343510" lon="-2.6105450">
        <ele>796.6</ele>
        <time>2020-07-14T06:38:35Z</time>
      </trkpt>
      <trkpt lat="37.7345850" lon="-2.6104950">
        <ele>797.6</ele>
        <time>2020-07-14T06:38:41Z</time>
      </trkpt>
      <trkpt lat="37.7347430" lon="-2.6104630">
        <ele>798.0</ele>
        <time>2020-07-14T06:38:45Z</time>
      </trkpt>
      <trkpt lat="37.7349330" lon="-2.6104210">
        <ele>798.6</ele>
        <time>2020-07-14T06:38:50Z</time>
      </trkpt>
      <trkpt lat="37.7350360" lon="-2.6104020">
        <ele>799.2</ele>
        <time>2020-07-14T06:38:53Z</time>
      </trkpt>
      <trkpt lat="37.7352240" lon="-2.6103640">
        <ele>799.8</ele>
        <time>2020-07-14T06:38:58Z</time>
      </trkpt>
      <trkpt lat="37.7354090" lon="-2.6103240">
        <ele>800.6</ele>
        <time>2020-07-14T06:39:03Z</time>
      </trkpt>
      <trkpt lat="37.7354830" lon="-2.6103090">
        <ele>800.8</ele>
        <time>2020-07-14T06:39:05Z</time>
      </trkpt>
      <trkpt lat="37.7357790" lon="-2.6102500">
        <ele>802.0</ele>
        <time>2020-07-14T06:39:13Z</time>
      </trkpt>
      <trkpt lat="37.7358120" lon="-2.6102420">
        <ele>802.0</ele>
        <time>2020-07-14T06:39:14Z</time>
      </trkpt>
      <trkpt lat="37.7360270" lon="-2.6101980">
        <ele>803.0</ele>
        <time>2020-07-14T06:39:20Z</time>
      </trkpt>
      <trkpt lat="37.7361650" lon="-2.6101680">
        <ele>803.8</ele>
        <time>2020-07-14T06:39:24Z</time>
      </trkpt>
      <trkpt lat="37.7362360" lon="-2.6101530">
        <ele>804.2</ele>
        <time>2020-07-14T06:39:26Z</time>
      </trkpt>
      <trkpt lat="37.7364440" lon="-2.6101050">
        <ele>805.2</ele>
        <time>2020-07-14T06:39:32Z</time>
      </trkpt>
      <trkpt lat="37.7365090" lon="-2.6100890">
        <ele>805.4</ele>
        <time>2020-07-14T06:39:34Z</time>
      </trkpt>
      <trkpt lat="37.7366530" lon="-2.6100630">
        <ele>806.2</ele>
        <time>2020-07-14T06:39:38Z</time>
      </trkpt>
      <trkpt lat="37.7368260" lon="-2.6100240">
        <ele>807.4</ele>
        <time>2020-07-14T06:39:43Z</time>
      </trkpt>
      <trkpt lat="37.7370720" lon="-2.6099750">
        <ele>808.6</ele>
        <time>2020-07-14T06:39:50Z</time>
      </trkpt>
      <trkpt lat="37.7371390" lon="-2.6099630">
        <ele>808.8</ele>
        <time>2020-07-14T06:39:52Z</time>
      </trkpt>
      <trkpt lat="37.7372440" lon="-2.6099440">
        <ele>809.6</ele>
        <time>2020-07-14T06:39:55Z</time>
      </trkpt>
      <trkpt lat="37.7374790" lon="-2.6098890">
        <ele>810.6</ele>
        <time>2020-07-14T06:40:02Z</time>
      </trkpt>
      <trkpt lat="37.7375130" lon="-2.6098820">
        <ele>810.8</ele>
        <time>2020-07-14T06:40:03Z</time>
      </trkpt>
      <trkpt lat="37.7376490" lon="-2.6098560">
        <ele>811.8</ele>
        <time>2020-07-14T06:40:07Z</time>
      </trkpt>
      <trkpt lat="37.7378150" lon="-2.6098140">
        <ele>813.0</ele>
        <time>2020-07-14T06:40:12Z</time>
      </trkpt>
      <trkpt lat="37.7379130" lon="-2.6097810">
        <ele>813.4</ele>
        <time>2020-07-14T06:40:15Z</time>
      </trkpt>
      <trkpt lat="37.7380070" lon="-2.6097440">
        <ele>814.0</ele>
        <time>2020-07-14T06:40:18Z</time>
      </trkpt>
      <trkpt lat="37.7381590" lon="-2.6096770">
        <ele>815.0</ele>
        <time>2020-07-14T06:40:23Z</time>
      </trkpt>
      <trkpt lat="37.7381870" lon="-2.6096630">
        <ele>815.2</ele>
        <time>2020-07-14T06:40:24Z</time>
      </trkpt>
      <trkpt lat="37.7383320" lon="-2.6095820">
        <ele>816.2</ele>
        <time>2020-07-14T06:40:29Z</time>
      </trkpt>
      <trkpt lat="37.7384780" lon="-2.6095010">
        <ele>817.2</ele>
        <time>2020-07-14T06:40:34Z</time>
      </trkpt>
      <trkpt lat="37.7386100" lon="-2.6094070">
        <ele>818.4</ele>
        <time>2020-07-14T06:40:39Z</time>
      </trkpt>
      <trkpt lat="37.7387190" lon="-2.6093340">
        <ele>819.0</ele>
        <time>2020-07-14T06:40:43Z</time>
      </trkpt>
      <trkpt lat="37.7387690" lon="-2.6092950">
        <ele>819.4</ele>
        <time>2020-07-14T06:40:45Z</time>
      </trkpt>
      <trkpt lat="37.7388930" lon="-2.6091970">
        <ele>820.6</ele>
        <time>2020-07-14T06:40:50Z</time>
      </trkpt>
      <trkpt lat="37.7389900" lon="-2.6091100">
        <ele>821.4</ele>
        <time>2020-07-14T06:40:54Z</time>
      </trkpt>
      <trkpt lat="37.7390170" lon="-2.6090860">
        <ele>821.6</ele>
        <time>2020-07-14T06:40:55Z</time>
      </trkpt>
      <trkpt lat="37.7391430" lon="-2.6089790">
        <ele>822.6</ele>
        <time>2020-07-14T06:41:00Z</time>
      </trkpt>
      <trkpt lat="37.7392430" lon="-2.6088910">
        <ele>823.4</ele>
        <time>2020-07-14T06:41:04Z</time>
      </trkpt>
      <trkpt lat="37.7392990" lon="-2.6088430">
        <ele>823.8</ele>
        <time>2020-07-14T06:41:06Z</time>
      </trkpt>
      <trkpt lat="37.7394560" lon="-2.6087180">
        <ele>824.8</ele>
        <time>2020-07-14T06:41:12Z</time>
      </trkpt>
      <trkpt lat="37.7395320" lon="-2.6086530">
        <ele>825.6</ele>
        <time>2020-07-14T06:41:15Z</time>
      </trkpt>
      <trkpt lat="37.7395820" lon="-2.6086080">
        <ele>826.0</ele>
        <time>2020-07-14T06:41:17Z</time>
      </trkpt>
      <trkpt lat="37.7397020" lon="-2.6085030">
        <ele>827.0</ele>
        <time>2020-07-14T06:41:22Z</time>
      </trkpt>
      <trkpt lat="37.7398020" lon="-2.6084180">
        <ele>827.8</ele>
        <time>2020-07-14T06:41:26Z</time>
      </trkpt>
      <trkpt lat="37.7398490" lon="-2.6083780">
        <ele>828.2</ele>
        <time>2020-07-14T06:41:28Z</time>
      </trkpt>
      <trkpt lat="37.7399970" lon="-2.6082550">
        <ele>829.4</ele>
        <time>2020-07-14T06:41:34Z</time>
      </trkpt>
      <trkpt lat="37.7400250" lon="-2.6082300">
        <ele>829.6</ele>
        <time>2020-07-14T06:41:35Z</time>
      </trkpt>
      <trkpt lat="37.7401170" lon="-2.6081530">
        <ele>830.4</ele>
        <time>2020-07-14T06:41:39Z</time>
      </trkpt>
      <trkpt lat="37.7402800" lon="-2.6080160">
        <ele>831.6</ele>
        <time>2020-07-14T06:41:46Z</time>
      </trkpt>
      <trkpt lat="37.7404170" lon="-2.6078980">
        <ele>832.6</ele>
        <time>2020-07-14T06:41:52Z</time>
      </trkpt>
      <trkpt lat="37.7405290" lon="-2.6078030">
        <ele>833.6</ele>
        <time>2020-07-14T06:41:57Z</time>
      </trkpt>
      <trkpt lat="37.7406480" lon="-2.6077020">
        <ele>834.8</ele>
        <time>2020-07-14T06:42:02Z</time>
      </trkpt>
      <trkpt lat="37.7407430" lon="-2.6076190">
        <ele>835.4</ele>
        <time>2020-07-14T06:42:06Z</time>
      </trkpt>
      <trkpt lat="37.7407890" lon="-2.6075750">
        <ele>835.8</ele>
        <time>2020-07-14T06:42:08Z</time>
      </trkpt>
      <trkpt lat="37.7409310" lon="-2.6074490">
        <ele>837.0</ele>
        <time>2020-07-14T06:42:14Z</time>
      </trkpt>
      <trkpt lat="37.7409800" lon="-2.6074120">
        <ele>837.4</ele>
        <time>2020-07-14T06:42:16Z</time>
      </trkpt>
      <trkpt lat="37.7410730" lon="-2.6073280">
        <ele>838.2</ele>
        <time>2020-07-14T06:42:20Z</time>
      </trkpt>
      <trkpt lat="37.7411970" lon="-2.6072290">
        <ele>839.0</ele>
        <time>2020-07-14T06:42:25Z</time>
      </trkpt>
      <trkpt lat="37.7412210" lon="-2.6072110">
        <ele>839.2</ele>
        <time>2020-07-14T06:42:26Z</time>
      </trkpt>
      <trkpt lat="37.7413660" lon="-2.6070870">
        <ele>840.2</ele>
        <time>2020-07-14T06:42:32Z</time>
      </trkpt>
      <trkpt lat="37.7414620" lon="-2.6070060">
        <ele>841.0</ele>
        <time>2020-07-14T06:42:36Z</time>
      </trkpt>
      <trkpt lat="37.7415100" lon="-2.6069640">
        <ele>841.4</ele>
        <time>2020-07-14T06:42:38Z</time>
      </trkpt>
      <trkpt lat="37.7416590" lon="-2.6068350">
        <ele>842.6</ele>
        <time>2020-07-14T06:42:44Z</time>
      </trkpt>
      <trkpt lat="37.7417410" lon="-2.6067690">
        <ele>843.0</ele>
        <time>2020-07-14T06:42:47Z</time>
      </trkpt>
      <trkpt lat="37.7418830" lon="-2.6066530">
        <ele>843.6</ele>
        <time>2020-07-14T06:42:52Z</time>
      </trkpt>
      <trkpt lat="37.7420090" lon="-2.6065500">
        <ele>844.0</ele>
        <time>2020-07-14T06:42:56Z</time>
      </trkpt>
      <trkpt lat="37.7422160" lon="-2.6063760">
        <ele>844.4</ele>
        <time>2020-07-14T06:43:02Z</time>
      </trkpt>
      <trkpt lat="37.7422830" lon="-2.6063190">
        <ele>844.4</ele>
        <time>2020-07-14T06:43:04Z</time>
      </trkpt>
      <trkpt lat="37.7424350" lon="-2.6061890">
        <ele>844.6</ele>
        <time>2020-07-14T06:43:08Z</time>
      </trkpt>
      <trkpt lat="37.7426910" lon="-2.6059380">
        <ele>845.0</ele>
        <time>2020-07-14T06:43:15Z</time>
      </trkpt>
      <trkpt lat="37.7429480" lon="-2.6055640">
        <ele>845.6</ele>
        <time>2020-07-14T06:43:23Z</time>
      </trkpt>
      <trkpt lat="37.7429760" lon="-2.6055150">
        <ele>845.8</ele>
        <time>2020-07-14T06:43:24Z</time>
      </trkpt>
      <trkpt lat="37.7431870" lon="-2.6050580">
        <ele>846.4</ele>
        <time>2020-07-14T06:43:32Z</time>
      </trkpt>
      <trkpt lat="37.7433520" lon="-2.6046470">
        <ele>846.8</ele>
        <time>2020-07-14T06:43:39Z</time>
      </trkpt>
      <trkpt lat="37.7434210" lon="-2.6044630">
        <ele>846.8</ele>
        <time>2020-07-14T06:43:42Z</time>
      </trkpt>
      <trkpt lat="37.7436610" lon="-2.6038530">
        <ele>847.6</ele>
        <time>2020-07-14T06:43:52Z</time>
      </trkpt>
      <trkpt lat="37.7437530" lon="-2.6036040">
        <ele>847.8</ele>
        <time>2020-07-14T06:43:56Z</time>
      </trkpt>
      <trkpt lat="37.7438950" lon="-2.6032220">
        <ele>848.2</ele>
        <time>2020-07-14T06:44:02Z</time>
      </trkpt>
      <trkpt lat="37.7440100" lon="-2.6029120">
        <ele>848.8</ele>
        <time>2020-07-14T06:44:07Z</time>
      </trkpt>
      <trkpt lat="37.7441740" lon="-2.6024830">
        <ele>849.2</ele>
        <time>2020-07-14T06:44:14Z</time>
      </trkpt>
      <trkpt lat="37.7443700" lon="-2.6019530">
        <ele>850.0</ele>
        <time>2020-07-14T06:44:23Z</time>
      </trkpt>
      <trkpt lat="37.7443890" lon="-2.6019030">
        <ele>850.0</ele>
        <time>2020-07-14T06:44:24Z</time>
      </trkpt>
      <trkpt lat="37.7445060" lon="-2.6015950">
        <ele>851.2</ele>
        <time>2020-07-14T06:44:30Z</time>
      </trkpt>
      <trkpt lat="37.7445750" lon="-2.6014180">
        <ele>852.0</ele>
        <time>2020-07-14T06:44:34Z</time>
      </trkpt>
      <trkpt lat="37.7445920" lon="-2.6013700">
        <ele>852.2</ele>
        <time>2020-07-14T06:44:35Z</time>
      </trkpt>
      <trkpt lat="37.7446470" lon="-2.6012140">
        <ele>853.4</ele>
        <time>2020-07-14T06:44:39Z</time>
      </trkpt>
      <trkpt lat="37.7446910" lon="-2.6011030">
        <ele>854.2</ele>
        <time>2020-07-14T06:44:42Z</time>
      </trkpt>
      <trkpt lat="37.7447040" lon="-2.6010670">
        <ele>854.4</ele>
        <time>2020-07-14T06:44:43Z</time>
      </trkpt>
      <trkpt lat="37.7447660" lon="-2.6009010">
        <ele>855.6</ele>
        <time>2020-07-14T06:44:48Z</time>
      </trkpt>
      <trkpt lat="37.7448190" lon="-2.6007820">
        <ele>856.6</ele>
        <time>2020-07-14T06:44:52Z</time>
      </trkpt>
      <trkpt lat="37.7448860" lon="-2.6006230">
        <ele>857.8</ele>
        <time>2020-07-14T06:44:57Z</time>
      </trkpt>
      <trkpt lat="37.7449520" lon="-2.6004940">
        <ele>858.6</ele>
        <time>2020-07-14T06:45:01Z</time>
      </trkpt>
      <trkpt lat="37.7449670" lon="-2.6004620">
        <ele>858.8</ele>
        <time>2020-07-14T06:45:02Z</time>
      </trkpt>
      <trkpt lat="37.7450450" lon="-2.6003070">
        <ele>859.6</ele>
        <time>2020-07-14T06:45:07Z</time>
      </trkpt>
      <trkpt lat="37.7450600" lon="-2.6002780">
        <ele>859.8</ele>
        <time>2020-07-14T06:45:08Z</time>
      </trkpt>
      <trkpt lat="37.7450760" lon="-2.6002510">
        <ele>860.0</ele>
        <time>2020-07-14T06:45:09Z</time>
      </trkpt>
      <trkpt lat="37.7451470" lon="-2.6001350">
        <ele>861.0</ele>
        <time>2020-07-14T06:45:13Z</time>
      </trkpt>
      <trkpt lat="37.7452440" lon="-2.6000020">
        <ele>862.2</ele>
        <time>2020-07-14T06:45:18Z</time>
      </trkpt>
      <trkpt lat="37.7452830" lon="-2.5999510">
        <ele>862.6</ele>
        <time>2020-07-14T06:45:20Z</time>
      </trkpt>
      <trkpt lat="37.7453440" lon="-2.5998800">
        <ele>863.2</ele>
        <time>2020-07-14T06:45:23Z</time>
      </trkpt>
      <trkpt lat="37.7454470" lon="-2.5997680">
        <ele>864.2</ele>
        <time>2020-07-14T06:45:28Z</time>
      </trkpt>
      <trkpt lat="37.7454690" lon="-2.5997450">
        <ele>864.4</ele>
        <time>2020-07-14T06:45:29Z</time>
      </trkpt>
      <trkpt lat="37.7455700" lon="-2.5996260">
        <ele>865.2</ele>
        <time>2020-07-14T06:45:34Z</time>
      </trkpt>
      <trkpt lat="37.7456760" lon="-2.5995190">
        <ele>866.2</ele>
        <time>2020-07-14T06:45:39Z</time>
      </trkpt>
      <trkpt lat="37.7456970" lon="-2.5994970">
        <ele>866.2</ele>
        <time>2020-07-14T06:45:40Z</time>
      </trkpt>
      <trkpt lat="37.7458030" lon="-2.5993820">
        <ele>867.4</ele>
        <time>2020-07-14T06:45:45Z</time>
      </trkpt>
      <trkpt lat="37.7458900" lon="-2.5992900">
        <ele>868.0</ele>
        <time>2020-07-14T06:45:49Z</time>
      </trkpt>
      <trkpt lat="37.7459340" lon="-2.5992410">
        <ele>868.4</ele>
        <time>2020-07-14T06:45:51Z</time>
      </trkpt>
      <trkpt lat="37.7460450" lon="-2.5991250">
        <ele>869.6</ele>
        <time>2020-07-14T06:45:56Z</time>
      </trkpt>
      <trkpt lat="37.7460910" lon="-2.5990820">
        <ele>870.0</ele>
        <time>2020-07-14T06:45:58Z</time>
      </trkpt>
      <trkpt lat="37.7461800" lon="-2.5989860">
        <ele>870.8</ele>
        <time>2020-07-14T06:46:02Z</time>
      </trkpt>
      <trkpt lat="37.7462840" lon="-2.5988690">
        <ele>871.8</ele>
        <time>2020-07-14T06:46:07Z</time>
      </trkpt>
      <trkpt lat="37.7464150" lon="-2.5987360">
        <ele>873.0</ele>
        <time>2020-07-14T06:46:13Z</time>
      </trkpt>
      <trkpt lat="37.7464580" lon="-2.5986890">
        <ele>873.4</ele>
        <time>2020-07-14T06:46:15Z</time>
      </trkpt>
      <trkpt lat="37.7465240" lon="-2.5986120">
        <ele>874.0</ele>
        <time>2020-07-14T06:46:18Z</time>
      </trkpt>
      <trkpt lat="37.7465950" lon="-2.5985390">
        <ele>874.8</ele>
        <time>2020-07-14T06:46:21Z</time>
      </trkpt>
      <trkpt lat="37.7466410" lon="-2.5984920">
        <ele>875.2</ele>
        <time>2020-07-14T06:46:23Z</time>
      </trkpt>
      <trkpt lat="37.7467970" lon="-2.5983340">
        <ele>876.4</ele>
        <time>2020-07-14T06:46:30Z</time>
      </trkpt>
      <trkpt lat="37.7468390" lon="-2.5982890">
        <ele>876.8</ele>
        <time>2020-07-14T06:46:32Z</time>
      </trkpt>
      <trkpt lat="37.7469030" lon="-2.5982220">
        <ele>877.4</ele>
        <time>2020-07-14T06:46:35Z</time>
      </trkpt>
      <trkpt lat="37.7469900" lon="-2.5981280">
        <ele>878.4</ele>
        <time>2020-07-14T06:46:39Z</time>
      </trkpt>
      <trkpt lat="37.7470810" lon="-2.5980390">
        <ele>879.2</ele>
        <time>2020-07-14T06:46:43Z</time>
      </trkpt>
      <trkpt lat="37.7471030" lon="-2.5980150">
        <ele>879.4</ele>
        <time>2020-07-14T06:46:44Z</time>
      </trkpt>
      <trkpt lat="37.7472140" lon="-2.5979010">
        <ele>880.6</ele>
        <time>2020-07-14T06:46:49Z</time>
      </trkpt>
      <trkpt lat="37.7473000" lon="-2.5978080">
        <ele>881.2</ele>
        <time>2020-07-14T06:46:53Z</time>
      </trkpt>
      <trkpt lat="37.7473440" lon="-2.5977630">
        <ele>881.6</ele>
        <time>2020-07-14T06:46:55Z</time>
      </trkpt>
      <trkpt lat="37.7474640" lon="-2.5976440">
        <ele>882.8</ele>
        <time>2020-07-14T06:47:00Z</time>
      </trkpt>
      <trkpt lat="37.7475340" lon="-2.5975720">
        <ele>883.4</ele>
        <time>2020-07-14T06:47:03Z</time>
      </trkpt>
      <trkpt lat="37.7475760" lon="-2.5975220">
        <ele>883.8</ele>
        <time>2020-07-14T06:47:05Z</time>
      </trkpt>
      <trkpt lat="37.7477240" lon="-2.5973710">
        <ele>884.6</ele>
        <time>2020-07-14T06:47:11Z</time>
      </trkpt>
      <trkpt lat="37.7477500" lon="-2.5973440">
        <ele>884.8</ele>
        <time>2020-07-14T06:47:12Z</time>
      </trkpt>
      <trkpt lat="37.7479070" lon="-2.5971840">
        <ele>885.6</ele>
        <time>2020-07-14T06:47:18Z</time>
      </trkpt>
      <trkpt lat="37.7479910" lon="-2.5971000">
        <ele>885.8</ele>
        <time>2020-07-14T06:47:21Z</time>
      </trkpt>
      <trkpt lat="37.7480470" lon="-2.5970420">
        <ele>886.0</ele>
        <time>2020-07-14T06:47:23Z</time>
      </trkpt>
      <trkpt lat="37.7482230" lon="-2.5968410">
        <ele>886.4</ele>
        <time>2020-07-14T06:47:29Z</time>
      </trkpt>
      <trkpt lat="37.7483190" lon="-2.5967310">
        <ele>886.4</ele>
        <time>2020-07-14T06:47:32Z</time>
      </trkpt>
      <trkpt lat="37.7484480" lon="-2.5965820">
        <ele>886.6</ele>
        <time>2020-07-14T06:47:36Z</time>
      </trkpt>
      <trkpt lat="37.7486010" lon="-2.5963820">
        <ele>886.8</ele>
        <time>2020-07-14T06:47:41Z</time>
      </trkpt>
      <trkpt lat="37.7486320" lon="-2.5963370">
        <ele>886.8</ele>
        <time>2020-07-14T06:47:42Z</time>
      </trkpt>
      <trkpt lat="37.7488330" lon="-2.5960120">
        <ele>887.2</ele>
        <time>2020-07-14T06:47:49Z</time>
      </trkpt>
      <trkpt lat="37.7488600" lon="-2.5959660">
        <ele>887.2</ele>
        <time>2020-07-14T06:47:50Z</time>
      </trkpt>
      <trkpt lat="37.7490380" lon="-2.5955990">
        <ele>887.6</ele>
        <time>2020-07-14T06:47:57Z</time>
      </trkpt>
      <trkpt lat="37.7490880" lon="-2.5954800">
        <ele>887.6</ele>
        <time>2020-07-14T06:47:59Z</time>
      </trkpt>
      <trkpt lat="37.7491730" lon="-2.5952450">
        <ele>887.8</ele>
        <time>2020-07-14T06:48:03Z</time>
      </trkpt>
      <trkpt lat="37.7493230" lon="-2.5947570">
        <ele>888.2</ele>
        <time>2020-07-14T06:48:11Z</time>
      </trkpt>
      <trkpt lat="37.7495250" lon="-2.5940580">
        <ele>888.8</ele>
        <time>2020-07-14T06:48:22Z</time>
      </trkpt>
      <trkpt lat="37.7495460" lon="-2.5940000">
        <ele>889.0</ele>
        <time>2020-07-14T06:48:23Z</time>
      </trkpt>
      <trkpt lat="37.7495700" lon="-2.5939360">
        <ele>889.0</ele>
        <time>2020-07-14T06:48:24Z</time>
      </trkpt>
      <trkpt lat="37.7498200" lon="-2.5933980">
        <ele>889.4</ele>
        <time>2020-07-14T06:48:33Z</time>
      </trkpt>
      <trkpt lat="37.7501030" lon="-2.5929640">
        <ele>890.0</ele>
        <time>2020-07-14T06:48:41Z</time>
      </trkpt>
      <trkpt lat="37.7501440" lon="-2.5929110">
        <ele>890.0</ele>
        <time>2020-07-14T06:48:42Z</time>
      </trkpt>
      <trkpt lat="37.7505420" lon="-2.5925080">
        <ele>890.4</ele>
        <time>2020-07-14T06:48:51Z</time>
      </trkpt>
      <trkpt lat="37.7510010" lon="-2.5922000">
        <ele>890.8</ele>
        <time>2020-07-14T06:49:00Z</time>
      </trkpt>
      <trkpt lat="37.7512220" lon="-2.5920910">
        <ele>891.0</ele>
        <time>2020-07-14T06:49:04Z</time>
      </trkpt>
      <trkpt lat="37.7516080" lon="-2.5919250">
        <ele>891.2</ele>
        <time>2020-07-14T06:49:11Z</time>
      </trkpt>
      <trkpt lat="37.7520040" lon="-2.5917500">
        <ele>891.4</ele>
        <time>2020-07-14T06:49:18Z</time>
      </trkpt>
      <trkpt lat="37.7524900" lon="-2.5915340">
        <ele>892.0</ele>
        <time>2020-07-14T06:49:26Z</time>
      </trkpt>
      <trkpt lat="37.7525510" lon="-2.5915070">
        <ele>892.0</ele>
        <time>2020-07-14T06:49:27Z</time>
      </trkpt>
      <trkpt lat="37.7526740" lon="-2.5914520">
        <ele>892.0</ele>
        <time>2020-07-14T06:49:29Z</time>
      </trkpt>
      <trkpt lat="37.7530010" lon="-2.5913060">
        <ele>892.4</ele>
        <time>2020-07-14T06:49:34Z</time>
      </trkpt>
      <trkpt lat="37.7532640" lon="-2.5911950">
        <ele>892.6</ele>
        <time>2020-07-14T06:49:38Z</time>
      </trkpt>
      <trkpt lat="37.7537020" lon="-2.5909780">
        <ele>893.2</ele>
        <time>2020-07-14T06:49:45Z</time>
      </trkpt>
      <trkpt lat="37.7539540" lon="-2.5908290">
        <ele>893.2</ele>
        <time>2020-07-14T06:49:49Z</time>
      </trkpt>
      <trkpt lat="37.7544250" lon="-2.5904760">
        <ele>893.6</ele>
        <time>2020-07-14T06:49:57Z</time>
      </trkpt>
      <trkpt lat="37.7545380" lon="-2.5903860">
        <ele>893.4</ele>
        <time>2020-07-14T06:49:59Z</time>
      </trkpt>
      <trkpt lat="37.7549940" lon="-2.5900330">
        <ele>893.2</ele>
        <time>2020-07-14T06:50:07Z</time>
      </trkpt>
      <trkpt lat="37.7551040" lon="-2.5899480">
        <ele>893.4</ele>
        <time>2020-07-14T06:50:09Z</time>
      </trkpt>
      <trkpt lat="37.7555840" lon="-2.5895770">
        <ele>893.8</ele>
        <time>2020-07-14T06:50:18Z</time>
      </trkpt>
      <trkpt lat="37.7556350" lon="-2.5895370">
        <ele>893.8</ele>
        <time>2020-07-14T06:50:19Z</time>
      </trkpt>
      <trkpt lat="37.7558390" lon="-2.5893760">
        <ele>894.2</ele>
        <time>2020-07-14T06:50:23Z</time>
      </trkpt>
      <trkpt lat="37.7561130" lon="-2.5891630">
        <ele>894.6</ele>
        <time>2020-07-14T06:50:28Z</time>
      </trkpt>
      <trkpt lat="37.7565140" lon="-2.5888570">
        <ele>893.4</ele>
        <time>2020-07-14T06:50:34Z</time>
      </trkpt>
      <trkpt lat="37.7566590" lon="-2.5887430">
        <ele>892.8</ele>
        <time>2020-07-14T06:50:36Z</time>
      </trkpt>
      <trkpt lat="37.7569520" lon="-2.5885210">
        <ele>891.8</ele>
        <time>2020-07-14T06:50:40Z</time>
      </trkpt>
      <trkpt lat="37.7570270" lon="-2.5884640">
        <ele>891.6</ele>
        <time>2020-07-14T06:50:41Z</time>
      </trkpt>
      <trkpt lat="37.7571740" lon="-2.5883500">
        <ele>891.2</ele>
        <time>2020-07-14T06:50:43Z</time>
      </trkpt>
      <trkpt lat="37.7576140" lon="-2.5880130">
        <ele>891.8</ele>
        <time>2020-07-14T06:50:50Z</time>
      </trkpt>
      <trkpt lat="37.7577890" lon="-2.5878950">
        <ele>892.2</ele>
        <time>2020-07-14T06:50:53Z</time>
      </trkpt>
      <trkpt lat="37.7579800" lon="-2.5878180">
        <ele>892.8</ele>
        <time>2020-07-14T06:50:56Z</time>
      </trkpt>
      <trkpt lat="37.7580370" lon="-2.5878060">
        <ele>893.0</ele>
        <time>2020-07-14T06:50:57Z</time>
      </trkpt>
      <trkpt lat="37.7584430" lon="-2.5877800">
        <ele>893.0</ele>
        <time>2020-07-14T06:51:02Z</time>
      </trkpt>
      <trkpt lat="37.7588630" lon="-2.5877700">
        <ele>891.6</ele>
        <time>2020-07-14T06:51:07Z</time>
      </trkpt>
      <trkpt lat="37.7591980" lon="-2.5877670">
        <ele>890.6</ele>
        <time>2020-07-14T06:51:11Z</time>
      </trkpt>
      <trkpt lat="37.7593720" lon="-2.5877630">
        <ele>890.2</ele>
        <time>2020-07-14T06:51:13Z</time>
      </trkpt>
      <trkpt lat="37.7594600" lon="-2.5877610">
        <ele>890.0</ele>
        <time>2020-07-14T06:51:14Z</time>
      </trkpt>
      <trkpt lat="37.7596330" lon="-2.5877490">
        <ele>889.4</ele>
        <time>2020-07-14T06:51:16Z</time>
      </trkpt>
      <trkpt lat="37.7599140" lon="-2.5877320">
        <ele>888.6</ele>
        <time>2020-07-14T06:51:19Z</time>
      </trkpt>
      <trkpt lat="37.7600010" lon="-2.5877270">
        <ele>888.2</ele>
        <time>2020-07-14T06:51:20Z</time>
      </trkpt>
      <trkpt lat="37.7601880" lon="-2.5877210">
        <ele>887.6</ele>
        <time>2020-07-14T06:51:22Z</time>
      </trkpt>
      <trkpt lat="37.7602830" lon="-2.5877170">
        <ele>887.2</ele>
        <time>2020-07-14T06:51:23Z</time>
      </trkpt>
      <trkpt lat="37.7607460" lon="-2.5876990">
        <ele>886.2</ele>
        <time>2020-07-14T06:51:28Z</time>
      </trkpt>
      <trkpt lat="37.7608350" lon="-2.5876960">
        <ele>886.0</ele>
        <time>2020-07-14T06:51:29Z</time>
      </trkpt>
      <trkpt lat="37.7614570" lon="-2.5876770">
        <ele>885.4</ele>
        <time>2020-07-14T06:51:36Z</time>
      </trkpt>
      <trkpt lat="37.7617080" lon="-2.5876680">
        <ele>885.2</ele>
        <time>2020-07-14T06:51:39Z</time>
      </trkpt>
      <trkpt lat="37.7622210" lon="-2.5876510">
        <ele>885.8</ele>
        <time>2020-07-14T06:51:46Z</time>
      </trkpt>
      <trkpt lat="37.7624640" lon="-2.5876100">
        <ele>886.8</ele>
        <time>2020-07-14T06:51:50Z</time>
      </trkpt>
      <trkpt lat="37.7625800" lon="-2.5875620">
        <ele>887.4</ele>
        <time>2020-07-14T06:51:52Z</time>
      </trkpt>
      <trkpt lat="37.7626850" lon="-2.5874820">
        <ele>887.8</ele>
        <time>2020-07-14T06:51:54Z</time>
      </trkpt>
      <trkpt lat="37.7627680" lon="-2.5873720">
        <ele>888.0</ele>
        <time>2020-07-14T06:51:56Z</time>
      </trkpt>
      <trkpt lat="37.7628090" lon="-2.5873090">
        <ele>888.2</ele>
        <time>2020-07-14T06:51:57Z</time>
      </trkpt>
      <trkpt lat="37.7628850" lon="-2.5871710">
        <ele>888.4</ele>
        <time>2020-07-14T06:51:59Z</time>
      </trkpt>
      <trkpt lat="37.7630040" lon="-2.5869480">
        <ele>888.4</ele>
        <time>2020-07-14T06:52:02Z</time>
      </trkpt>
      <trkpt lat="37.7632850" lon="-2.5863980">
        <ele>887.8</ele>
        <time>2020-07-14T06:52:09Z</time>
      </trkpt>
      <trkpt lat="37.7634040" lon="-2.5861520">
        <ele>887.4</ele>
        <time>2020-07-14T06:52:12Z</time>
      </trkpt>
      <trkpt lat="37.7634450" lon="-2.5860690">
        <ele>887.4</ele>
        <time>2020-07-14T06:52:13Z</time>
      </trkpt>
      <trkpt lat="37.7637790" lon="-2.5854240">
        <ele>886.6</ele>
        <time>2020-07-14T06:52:21Z</time>
      </trkpt>
      <trkpt lat="37.7638850" lon="-2.5852950">
        <ele>886.4</ele>
        <time>2020-07-14T06:52:23Z</time>
      </trkpt>
      <trkpt lat="37.7641080" lon="-2.5851880">
        <ele>886.2</ele>
        <time>2020-07-14T06:52:26Z</time>
      </trkpt>
      <trkpt lat="37.7643570" lon="-2.5851780">
        <ele>886.0</ele>
        <time>2020-07-14T06:52:29Z</time>
      </trkpt>
      <trkpt lat="37.7644450" lon="-2.5851760">
        <ele>885.6</ele>
        <time>2020-07-14T06:52:30Z</time>
      </trkpt>
      <trkpt lat="37.7646280" lon="-2.5851660">
        <ele>885.0</ele>
        <time>2020-07-14T06:52:32Z</time>
      </trkpt>
      <trkpt lat="37.7650010" lon="-2.5851510">
        <ele>883.8</ele>
        <time>2020-07-14T06:52:36Z</time>
      </trkpt>
      <trkpt lat="37.7651860" lon="-2.5851430">
        <ele>883.4</ele>
        <time>2020-07-14T06:52:38Z</time>
      </trkpt>
      <trkpt lat="37.7655400" lon="-2.5851340">
        <ele>882.8</ele>
        <time>2020-07-14T06:52:42Z</time>
      </trkpt>
      <trkpt lat="37.7658720" lon="-2.5851100">
        <ele>882.4</ele>
        <time>2020-07-14T06:52:46Z</time>
      </trkpt>
      <trkpt lat="37.7664250" lon="-2.5849980">
        <ele>883.0</ele>
        <time>2020-07-14T06:52:53Z</time>
      </trkpt>
      <trkpt lat="37.7670250" lon="-2.5848560">
        <ele>883.4</ele>
        <time>2020-07-14T06:53:01Z</time>
      </trkpt>
      <trkpt lat="37.7671650" lon="-2.5848240">
        <ele>883.4</ele>
        <time>2020-07-14T06:53:03Z</time>
      </trkpt>
      <trkpt lat="37.7673660" lon="-2.5847760">
        <ele>883.8</ele>
        <time>2020-07-14T06:53:06Z</time>
      </trkpt>
      <trkpt lat="37.7677730" lon="-2.5846770">
        <ele>884.6</ele>
        <time>2020-07-14T06:53:12Z</time>
      </trkpt>
      <trkpt lat="37.7680950" lon="-2.5845990">
        <ele>884.8</ele>
        <time>2020-07-14T06:53:17Z</time>
      </trkpt>
      <trkpt lat="37.7683310" lon="-2.5845450">
        <ele>885.4</ele>
        <time>2020-07-14T06:53:21Z</time>
      </trkpt>
      <trkpt lat="37.7685000" lon="-2.5845010">
        <ele>886.0</ele>
        <time>2020-07-14T06:53:24Z</time>
      </trkpt>
      <trkpt lat="37.7687100" lon="-2.5844510">
        <ele>887.0</ele>
        <time>2020-07-14T06:53:28Z</time>
      </trkpt>
      <trkpt lat="37.7688100" lon="-2.5844280">
        <ele>887.4</ele>
        <time>2020-07-14T06:53:30Z</time>
      </trkpt>
      <trkpt lat="37.7690110" lon="-2.5843720">
        <ele>888.2</ele>
        <time>2020-07-14T06:53:34Z</time>
      </trkpt>
      <trkpt lat="37.7692040" lon="-2.5843000">
        <ele>889.2</ele>
        <time>2020-07-14T06:53:38Z</time>
      </trkpt>
      <trkpt lat="37.7692490" lon="-2.5842720">
        <ele>889.4</ele>
        <time>2020-07-14T06:53:39Z</time>
      </trkpt>
      <trkpt lat="37.7694400" lon="-2.5840560">
        <ele>890.4</ele>
        <time>2020-07-14T06:53:44Z</time>
      </trkpt>
      <trkpt lat="37.7694650" lon="-2.5840050">
        <ele>890.6</ele>
        <time>2020-07-14T06:53:45Z</time>
      </trkpt>
      <trkpt lat="37.7694910" lon="-2.5839470">
        <ele>890.8</ele>
        <time>2020-07-14T06:53:46Z</time>
      </trkpt>
      <trkpt lat="37.7695710" lon="-2.5837050">
        <ele>891.6</ele>
        <time>2020-07-14T06:53:50Z</time>
      </trkpt>
      <trkpt lat="37.7695890" lon="-2.5836420">
        <ele>891.8</ele>
        <time>2020-07-14T06:53:51Z</time>
      </trkpt>
      <trkpt lat="37.7696620" lon="-2.5833120">
        <ele>892.8</ele>
        <time>2020-07-14T06:53:57Z</time>
      </trkpt>
      <trkpt lat="37.7697310" lon="-2.5830410">
        <ele>894.0</ele>
        <time>2020-07-14T06:54:02Z</time>
      </trkpt>
      <trkpt lat="37.7697800" lon="-2.5828470">
        <ele>894.8</ele>
        <time>2020-07-14T06:54:06Z</time>
      </trkpt>
      <trkpt lat="37.7698010" lon="-2.5827570">
        <ele>895.2</ele>
        <time>2020-07-14T06:54:08Z</time>
      </trkpt>
      <trkpt lat="37.7698560" lon="-2.5825430">
        <ele>896.2</ele>
        <time>2020-07-14T06:54:13Z</time>
      </trkpt>
      <trkpt lat="37.7698780" lon="-2.5824610">
        <ele>896.8</ele>
        <time>2020-07-14T06:54:15Z</time>
      </trkpt>
      <trkpt lat="37.7699210" lon="-2.5823360">
        <ele>897.4</ele>
        <time>2020-07-14T06:54:18Z</time>
      </trkpt>
      <trkpt lat="37.7700140" lon="-2.5822010">
        <ele>898.4</ele>
        <time>2020-07-14T06:54:22Z</time>
      </trkpt>
      <trkpt lat="37.7701960" lon="-2.5820630">
        <ele>899.6</ele>
        <time>2020-07-14T06:54:28Z</time>
      </trkpt>
      <trkpt lat="37.7702280" lon="-2.5820450">
        <ele>899.8</ele>
        <time>2020-07-14T06:54:29Z</time>
      </trkpt>
      <trkpt lat="37.7703950" lon="-2.5819420">
        <ele>900.6</ele>
        <time>2020-07-14T06:54:34Z</time>
      </trkpt>
      <trkpt lat="37.7706300" lon="-2.5817970">
        <ele>901.6</ele>
        <time>2020-07-14T06:54:41Z</time>
      </trkpt>
      <trkpt lat="37.7709030" lon="-2.5816350">
        <ele>902.6</ele>
        <time>2020-07-14T06:54:49Z</time>
      </trkpt>
      <trkpt lat="37.7709700" lon="-2.5815930">
        <ele>902.8</ele>
        <time>2020-07-14T06:54:51Z</time>
      </trkpt>
      <trkpt lat="37.7711790" lon="-2.5814660">
        <ele>903.6</ele>
        <time>2020-07-14T06:54:57Z</time>
      </trkpt>
      <trkpt lat="37.7712860" lon="-2.5814040">
        <ele>904.0</ele>
        <time>2020-07-14T06:55:00Z</time>
      </trkpt>
      <trkpt lat="37.7715040" lon="-2.5812730">
        <ele>904.6</ele>
        <time>2020-07-14T06:55:06Z</time>
      </trkpt>
      <trkpt lat="37.7716780" lon="-2.5811640">
        <ele>905.4</ele>
        <time>2020-07-14T06:55:11Z</time>
      </trkpt>
      <trkpt lat="37.7717870" lon="-2.5810980">
        <ele>905.8</ele>
        <time>2020-07-14T06:55:14Z</time>
      </trkpt>
      <trkpt lat="37.7720370" lon="-2.5809510">
        <ele>907.0</ele>
        <time>2020-07-14T06:55:21Z</time>
      </trkpt>
      <trkpt lat="37.7720730" lon="-2.5809320">
        <ele>907.0</ele>
        <time>2020-07-14T06:55:22Z</time>
      </trkpt>
      <trkpt lat="37.7723050" lon="-2.5808510">
        <ele>908.0</ele>
        <time>2020-07-14T06:55:28Z</time>
      </trkpt>
      <trkpt lat="37.7723840" lon="-2.5808400">
        <ele>908.2</ele>
        <time>2020-07-14T06:55:30Z</time>
      </trkpt>
      <trkpt lat="37.7726820" lon="-2.5808520">
        <ele>909.0</ele>
        <time>2020-07-14T06:55:37Z</time>
      </trkpt>
      <trkpt lat="37.7727290" lon="-2.5808540">
        <ele>909.2</ele>
        <time>2020-07-14T06:55:38Z</time>
      </trkpt>
      <trkpt lat="37.7729930" lon="-2.5808710">
        <ele>909.2</ele>
        <time>2020-07-14T06:55:43Z</time>
      </trkpt>
      <trkpt lat="37.7731090" lon="-2.5808820">
        <ele>909.0</ele>
        <time>2020-07-14T06:55:45Z</time>
      </trkpt>
      <trkpt lat="37.7733100" lon="-2.5808980">
        <ele>908.6</ele>
        <time>2020-07-14T06:55:48Z</time>
      </trkpt>
      <trkpt lat="37.7735270" lon="-2.5809150">
        <ele>908.2</ele>
        <time>2020-07-14T06:55:51Z</time>
      </trkpt>
      <trkpt lat="37.7736010" lon="-2.5809220">
        <ele>908.0</ele>
        <time>2020-07-14T06:55:52Z</time>
      </trkpt>
      <trkpt lat="37.7738340" lon="-2.5809440">
        <ele>907.4</ele>
        <time>2020-07-14T06:55:55Z</time>
      </trkpt>
      <trkpt lat="37.7740810" lon="-2.5809670">
        <ele>906.8</ele>
        <time>2020-07-14T06:55:58Z</time>
      </trkpt>
      <trkpt lat="37.7741650" lon="-2.5809730">
        <ele>906.6</ele>
        <time>2020-07-14T06:55:59Z</time>
      </trkpt>
      <trkpt lat="37.7744770" lon="-2.5809960">
        <ele>906.4</ele>
        <time>2020-07-14T06:56:03Z</time>
      </trkpt>
      <trkpt lat="37.7746810" lon="-2.5810140">
        <ele>906.6</ele>
        <time>2020-07-14T06:56:06Z</time>
      </trkpt>
      <trkpt lat="37.7748880" lon="-2.5810300">
        <ele>907.0</ele>
        <time>2020-07-14T06:56:10Z</time>
      </trkpt>
      <trkpt lat="37.7750590" lon="-2.5810430">
        <ele>907.4</ele>
        <time>2020-07-14T06:56:12Z</time>
      </trkpt>
      <trkpt lat="37.7751820" lon="-2.5810530">
        <ele>907.8</ele>
        <time>2020-07-14T06:56:14Z</time>
      </trkpt>
      <trkpt lat="37.7754740" lon="-2.5810800">
        <ele>908.6</ele>
        <time>2020-07-14T06:56:19Z</time>
      </trkpt>
      <trkpt lat="37.7755920" lon="-2.5810890">
        <ele>909.0</ele>
        <time>2020-07-14T06:56:21Z</time>
      </trkpt>
      <trkpt lat="37.7757680" lon="-2.5811020">
        <ele>909.4</ele>
        <time>2020-07-14T06:56:24Z</time>
      </trkpt>
      <trkpt lat="37.7761150" lon="-2.5811330">
        <ele>910.0</ele>
        <time>2020-07-14T06:56:30Z</time>
      </trkpt>
      <trkpt lat="37.7762290" lon="-2.5811410">
        <ele>910.2</ele>
        <time>2020-07-14T06:56:32Z</time>
      </trkpt>
      <trkpt lat="37.7764960" lon="-2.5811650">
        <ele>911.2</ele>
        <time>2020-07-14T06:56:37Z</time>
      </trkpt>
      <trkpt lat="37.7767460" lon="-2.5811880">
        <ele>912.0</ele>
        <time>2020-07-14T06:56:42Z</time>
      </trkpt>
      <trkpt lat="37.7768470" lon="-2.5811970">
        <ele>912.2</ele>
        <time>2020-07-14T06:56:44Z</time>
      </trkpt>
      <trkpt lat="37.7772690" lon="-2.5812270">
        <ele>913.0</ele>
        <time>2020-07-14T06:56:52Z</time>
      </trkpt>
      <trkpt lat="37.7774830" lon="-2.5812440">
        <ele>913.4</ele>
        <time>2020-07-14T06:56:56Z</time>
      </trkpt>
      <trkpt lat="37.7778060" lon="-2.5812690">
        <ele>913.8</ele>
        <time>2020-07-14T06:57:02Z</time>
      </trkpt>
      <trkpt lat="37.7782420" lon="-2.5812930">
        <ele>914.4</ele>
        <time>2020-07-14T06:57:10Z</time>
      </trkpt>
      <trkpt lat="37.7783700" lon="-2.5812920">
        <ele>914.6</ele>
        <time>2020-07-14T06:57:12Z</time>
      </trkpt>
      <trkpt lat="37.7786810" lon="-2.5812300">
        <ele>914.8</ele>
        <time>2020-07-14T06:57:17Z</time>
      </trkpt>
      <trkpt lat="37.7787420" lon="-2.5811930">
        <ele>914.8</ele>
        <time>2020-07-14T06:57:18Z</time>
      </trkpt>
      <trkpt lat="37.7789460" lon="-2.5809850">
        <ele>914.8</ele>
        <time>2020-07-14T06:57:22Z</time>
      </trkpt>
      <trkpt lat="37.7789930" lon="-2.5809230">
        <ele>914.8</ele>
        <time>2020-07-14T06:57:23Z</time>
      </trkpt>
      <trkpt lat="37.7792940" lon="-2.5805020">
        <ele>914.4</ele>
        <time>2020-07-14T06:57:29Z</time>
      </trkpt>
      <trkpt lat="37.7795960" lon="-2.5800780">
        <ele>914.0</ele>
        <time>2020-07-14T06:57:35Z</time>
      </trkpt>
      <trkpt lat="37.7798010" lon="-2.5797870">
        <ele>913.6</ele>
        <time>2020-07-14T06:57:39Z</time>
      </trkpt>
      <trkpt lat="37.7800000" lon="-2.5795060">
        <ele>913.6</ele>
        <time>2020-07-14T06:57:43Z</time>
      </trkpt>
      <trkpt lat="37.7803410" lon="-2.5791360">
        <ele>913.8</ele>
        <time>2020-07-14T06:57:49Z</time>
      </trkpt>
      <trkpt lat="37.7806050" lon="-2.5789230">
        <ele>913.4</ele>
        <time>2020-07-14T06:57:53Z</time>
      </trkpt>
      <trkpt lat="37.7809450" lon="-2.5786530">
        <ele>912.8</ele>
        <time>2020-07-14T06:57:58Z</time>
      </trkpt>
      <trkpt lat="37.7811590" lon="-2.5784750">
        <ele>912.4</ele>
        <time>2020-07-14T06:58:01Z</time>
      </trkpt>
      <trkpt lat="37.7812340" lon="-2.5784100">
        <ele>912.2</ele>
        <time>2020-07-14T06:58:02Z</time>
      </trkpt>
      <trkpt lat="37.7815370" lon="-2.5781560">
        <ele>911.4</ele>
        <time>2020-07-14T06:58:06Z</time>
      </trkpt>
      <trkpt lat="37.7816180" lon="-2.5780910">
        <ele>911.0</ele>
        <time>2020-07-14T06:58:07Z</time>
      </trkpt>
      <trkpt lat="37.7819470" lon="-2.5778810">
        <ele>910.0</ele>
        <time>2020-07-14T06:58:11Z</time>
      </trkpt>
      <trkpt lat="37.7820420" lon="-2.5778510">
        <ele>909.8</ele>
        <time>2020-07-14T06:58:12Z</time>
      </trkpt>
      <trkpt lat="37.7822930" lon="-2.5778290">
        <ele>909.2</ele>
        <time>2020-07-14T06:58:15Z</time>
      </trkpt>
      <trkpt lat="37.7823750" lon="-2.5778220">
        <ele>909.2</ele>
        <time>2020-07-14T06:58:16Z</time>
      </trkpt>
      <trkpt lat="37.7827350" lon="-2.5777060">
        <ele>910.0</ele>
        <time>2020-07-14T06:58:21Z</time>
      </trkpt>
      <trkpt lat="37.7829850" lon="-2.5775580">
        <ele>910.4</ele>
        <time>2020-07-14T06:58:25Z</time>
      </trkpt>
      <trkpt lat="37.7831230" lon="-2.5774680">
        <ele>911.0</ele>
        <time>2020-07-14T06:58:27Z</time>
      </trkpt>
      <trkpt lat="37.7831860" lon="-2.5774230">
        <ele>911.0</ele>
        <time>2020-07-14T06:58:28Z</time>
      </trkpt>
      <trkpt lat="37.7833240" lon="-2.5773260">
        <ele>911.2</ele>
        <time>2020-07-14T06:58:30Z</time>
      </trkpt>
      <trkpt lat="37.7838170" lon="-2.5769800">
        <ele>910.4</ele>
        <time>2020-07-14T06:58:37Z</time>
      </trkpt>
      <trkpt lat="37.7842060" lon="-2.5767940">
        <ele>910.8</ele>
        <time>2020-07-14T06:58:43Z</time>
      </trkpt>
      <trkpt lat="37.7845520" lon="-2.5766880">
        <ele>912.2</ele>
        <time>2020-07-14T06:58:49Z</time>
      </trkpt>
      <trkpt lat="37.7847660" lon="-2.5766210">
        <ele>913.0</ele>
        <time>2020-07-14T06:58:53Z</time>
      </trkpt>
      <trkpt lat="37.7848210" lon="-2.5766050">
        <ele>913.2</ele>
        <time>2020-07-14T06:58:54Z</time>
      </trkpt>
      <trkpt lat="37.7850370" lon="-2.5765420">
        <ele>914.0</ele>
        <time>2020-07-14T06:58:58Z</time>
      </trkpt>
      <trkpt lat="37.7850900" lon="-2.5765270">
        <ele>914.2</ele>
        <time>2020-07-14T06:58:59Z</time>
      </trkpt>
      <trkpt lat="37.7853280" lon="-2.5764560">
        <ele>915.0</ele>
        <time>2020-07-14T06:59:03Z</time>
      </trkpt>
      <trkpt lat="37.7855100" lon="-2.5764060">
        <ele>915.2</ele>
        <time>2020-07-14T06:59:06Z</time>
      </trkpt>
      <trkpt lat="37.7860390" lon="-2.5763110">
        <ele>915.0</ele>
        <time>2020-07-14T06:59:14Z</time>
      </trkpt>
      <trkpt lat="37.7866210" lon="-2.5763020">
        <ele>914.2</ele>
        <time>2020-07-14T06:59:22Z</time>
      </trkpt>
      <trkpt lat="37.7870460" lon="-2.5763050">
        <ele>915.4</ele>
        <time>2020-07-14T06:59:29Z</time>
      </trkpt>
      <trkpt lat="37.7873480" lon="-2.5763400">
        <ele>916.4</ele>
        <time>2020-07-14T06:59:34Z</time>
      </trkpt>
      <trkpt lat="37.7874780" lon="-2.5763720">
        <ele>916.8</ele>
        <time>2020-07-14T06:59:36Z</time>
      </trkpt>
      <trkpt lat="37.7879000" lon="-2.5765270">
        <ele>915.6</ele>
        <time>2020-07-14T06:59:42Z</time>
      </trkpt>
      <trkpt lat="37.7879730" lon="-2.5765490">
        <ele>915.4</ele>
        <time>2020-07-14T06:59:43Z</time>
      </trkpt>
      <trkpt lat="37.7882780" lon="-2.5765830">
        <ele>914.8</ele>
        <time>2020-07-14T06:59:47Z</time>
      </trkpt>
      <trkpt lat="37.7884350" lon="-2.5765530">
        <ele>914.4</ele>
        <time>2020-07-14T06:59:49Z</time>
      </trkpt>
      <trkpt lat="37.7886540" lon="-2.5764890">
        <ele>914.0</ele>
        <time>2020-07-14T06:59:52Z</time>
      </trkpt>
      <trkpt lat="37.7890100" lon="-2.5763770">
        <ele>914.0</ele>
        <time>2020-07-14T06:59:57Z</time>
      </trkpt>
      <trkpt lat="37.7892920" lon="-2.5762900">
        <ele>913.8</ele>
        <time>2020-07-14T07:00:01Z</time>
      </trkpt>
      <trkpt lat="37.7893650" lon="-2.5762660">
        <ele>913.8</ele>
        <time>2020-07-14T07:00:02Z</time>
      </trkpt>
      <trkpt lat="37.7896620" lon="-2.5761640">
        <ele>913.2</ele>
        <time>2020-07-14T07:00:06Z</time>
      </trkpt>
      <trkpt lat="37.7901750" lon="-2.5759890">
        <ele>912.8</ele>
        <time>2020-07-14T07:00:13Z</time>
      </trkpt>
      <trkpt lat="37.7907590" lon="-2.5757840">
        <ele>912.4</ele>
        <time>2020-07-14T07:00:21Z</time>
      </trkpt>
      <trkpt lat="37.7909030" lon="-2.5757320">
        <ele>912.2</ele>
        <time>2020-07-14T07:00:23Z</time>
      </trkpt>
      <trkpt lat="37.7910500" lon="-2.5756900">
        <ele>912.2</ele>
        <time>2020-07-14T07:00:25Z</time>
      </trkpt>
      <trkpt lat="37.7916270" lon="-2.5755540">
        <ele>911.2</ele>
        <time>2020-07-14T07:00:32Z</time>
      </trkpt>
      <trkpt lat="37.7919820" lon="-2.5755100">
        <ele>910.0</ele>
        <time>2020-07-14T07:00:36Z</time>
      </trkpt>
      <trkpt lat="37.7923230" lon="-2.5754910">
        <ele>909.6</ele>
        <time>2020-07-14T07:00:40Z</time>
      </trkpt>
      <trkpt lat="37.7927460" lon="-2.5754430">
        <ele>909.0</ele>
        <time>2020-07-14T07:00:45Z</time>
      </trkpt>
      <trkpt lat="37.7929920" lon="-2.5753720">
        <ele>909.0</ele>
        <time>2020-07-14T07:00:48Z</time>
      </trkpt>
      <trkpt lat="37.7932840" lon="-2.5751930">
        <ele>908.6</ele>
        <time>2020-07-14T07:00:52Z</time>
      </trkpt>
      <trkpt lat="37.7935860" lon="-2.5748570">
        <ele>908.4</ele>
        <time>2020-07-14T07:00:57Z</time>
      </trkpt>
      <trkpt lat="37.7938100" lon="-2.5744340">
        <ele>908.2</ele>
        <time>2020-07-14T07:01:02Z</time>
      </trkpt>
      <trkpt lat="37.7941430" lon="-2.5737710">
        <ele>908.0</ele>
        <time>2020-07-14T07:01:10Z</time>
      </trkpt>
      <trkpt lat="37.7941950" lon="-2.5736930">
        <ele>908.0</ele>
        <time>2020-07-14T07:01:11Z</time>
      </trkpt>
      <trkpt lat="37.7945620" lon="-2.5731920">
        <ele>908.4</ele>
        <time>2020-07-14T07:01:18Z</time>
      </trkpt>
      <trkpt lat="37.7946180" lon="-2.5731260">
        <ele>908.4</ele>
        <time>2020-07-14T07:01:19Z</time>
      </trkpt>
      <trkpt lat="37.7950780" lon="-2.5726110">
        <ele>908.4</ele>
        <time>2020-07-14T07:01:27Z</time>
      </trkpt>
      <trkpt lat="37.7951370" lon="-2.5725550">
        <ele>908.2</ele>
        <time>2020-07-14T07:01:28Z</time>
      </trkpt>
      <trkpt lat="37.7953560" lon="-2.5724100">
        <ele>908.0</ele>
        <time>2020-07-14T07:01:31Z</time>
      </trkpt>
      <trkpt lat="37.7954320" lon="-2.5723770">
        <ele>907.8</ele>
        <time>2020-07-14T07:01:32Z</time>
      </trkpt>
      <trkpt lat="37.7959000" lon="-2.5722350">
        <ele>907.6</ele>
        <time>2020-07-14T07:01:38Z</time>
      </trkpt>
      <trkpt lat="37.7963400" lon="-2.5720360">
        <ele>907.6</ele>
        <time>2020-07-14T07:01:44Z</time>
      </trkpt>
      <trkpt lat="37.7967290" lon="-2.5717010">
        <ele>907.2</ele>
        <time>2020-07-14T07:01:50Z</time>
      </trkpt>
      <trkpt lat="37.7970540" lon="-2.5712620">
        <ele>907.4</ele>
        <time>2020-07-14T07:01:56Z</time>
      </trkpt>
      <trkpt lat="37.7974200" lon="-2.5707240">
        <ele>907.0</ele>
        <time>2020-07-14T07:02:03Z</time>
      </trkpt>
      <trkpt lat="37.7975240" lon="-2.5705810">
        <ele>906.8</ele>
        <time>2020-07-14T07:02:05Z</time>
      </trkpt>
      <trkpt lat="37.7975820" lon="-2.5705020">
        <ele>906.8</ele>
        <time>2020-07-14T07:02:06Z</time>
      </trkpt>
      <trkpt lat="37.7979730" lon="-2.5699980">
        <ele>907.0</ele>
        <time>2020-07-14T07:02:13Z</time>
      </trkpt>
      <trkpt lat="37.7981300" lon="-2.5697930">
        <ele>907.0</ele>
        <time>2020-07-14T07:02:16Z</time>
      </trkpt>
      <trkpt lat="37.7985390" lon="-2.5692470">
        <ele>907.8</ele>
        <time>2020-07-14T07:02:24Z</time>
      </trkpt>
      <trkpt lat="37.7985810" lon="-2.5691820">
        <ele>908.0</ele>
        <time>2020-07-14T07:02:25Z</time>
      </trkpt>
      <trkpt lat="37.7987480" lon="-2.5689100">
        <ele>908.8</ele>
        <time>2020-07-14T07:02:29Z</time>
      </trkpt>
      <trkpt lat="37.7988260" lon="-2.5687660">
        <ele>909.0</ele>
        <time>2020-07-14T07:02:31Z</time>
      </trkpt>
      <trkpt lat="37.7988950" lon="-2.5686230">
        <ele>909.2</ele>
        <time>2020-07-14T07:02:33Z</time>
      </trkpt>
      <trkpt lat="37.7989300" lon="-2.5685520">
        <ele>909.4</ele>
        <time>2020-07-14T07:02:34Z</time>
      </trkpt>
      <trkpt lat="37.7990590" lon="-2.5682450">
        <ele>910.0</ele>
        <time>2020-07-14T07:02:38Z</time>
      </trkpt>
      <trkpt lat="37.7991080" lon="-2.5681000">
        <ele>910.2</ele>
        <time>2020-07-14T07:02:40Z</time>
      </trkpt>
      <trkpt lat="37.7992510" lon="-2.5675890">
        <ele>911.2</ele>
        <time>2020-07-14T07:02:47Z</time>
      </trkpt>
      <trkpt lat="37.7994000" lon="-2.5670910">
        <ele>912.4</ele>
        <time>2020-07-14T07:02:54Z</time>
      </trkpt>
      <trkpt lat="37.7994400" lon="-2.5669510">
        <ele>912.6</ele>
        <time>2020-07-14T07:02:56Z</time>
      </trkpt>
      <trkpt lat="37.7996120" lon="-2.5663130">
        <ele>913.4</ele>
        <time>2020-07-14T07:03:05Z</time>
      </trkpt>
      <trkpt lat="37.7996310" lon="-2.5662380">
        <ele>913.6</ele>
        <time>2020-07-14T07:03:06Z</time>
      </trkpt>
      <trkpt lat="37.7998200" lon="-2.5655190">
        <ele>914.4</ele>
        <time>2020-07-14T07:03:16Z</time>
      </trkpt>
      <trkpt lat="37.7998430" lon="-2.5654390">
        <ele>914.6</ele>
        <time>2020-07-14T07:03:17Z</time>
      </trkpt>
      <trkpt lat="37.8000260" lon="-2.5649970">
        <ele>915.0</ele>
        <time>2020-07-14T07:03:23Z</time>
      </trkpt>
      <trkpt lat="37.8003350" lon="-2.5643390">
        <ele>915.4</ele>
        <time>2020-07-14T07:03:32Z</time>
      </trkpt>
      <trkpt lat="37.8003680" lon="-2.5642660">
        <ele>915.4</ele>
        <time>2020-07-14T07:03:33Z</time>
      </trkpt>
      <trkpt lat="37.8004000" lon="-2.5641980">
        <ele>915.6</ele>
        <time>2020-07-14T07:03:34Z</time>
      </trkpt>
      <trkpt lat="37.8006720" lon="-2.5636290">
        <ele>915.8</ele>
        <time>2020-07-14T07:03:42Z</time>
      </trkpt>
      <trkpt lat="37.8007030" lon="-2.5635590">
        <ele>915.8</ele>
        <time>2020-07-14T07:03:43Z</time>
      </trkpt>
      <trkpt lat="37.8009590" lon="-2.5630210">
        <ele>916.6</ele>
        <time>2020-07-14T07:03:51Z</time>
      </trkpt>
      <trkpt lat="37.8010510" lon="-2.5628190">
        <ele>916.8</ele>
        <time>2020-07-14T07:03:54Z</time>
      </trkpt>
      <trkpt lat="37.8012470" lon="-2.5622580">
        <ele>917.6</ele>
        <time>2020-07-14T07:04:02Z</time>
      </trkpt>
      <trkpt lat="37.8012590" lon="-2.5621830">
        <ele>917.6</ele>
        <time>2020-07-14T07:04:03Z</time>
      </trkpt>
      <trkpt lat="37.8013470" lon="-2.5618230">
        <ele>918.6</ele>
        <time>2020-07-14T07:04:08Z</time>
      </trkpt>
      <trkpt lat="37.8013720" lon="-2.5617540">
        <ele>918.8</ele>
        <time>2020-07-14T07:04:09Z</time>
      </trkpt>
      <trkpt lat="37.8013960" lon="-2.5616860">
        <ele>919.0</ele>
        <time>2020-07-14T07:04:10Z</time>
      </trkpt>
      <trkpt lat="37.8016220" lon="-2.5612220">
        <ele>920.0</ele>
        <time>2020-07-14T07:04:17Z</time>
      </trkpt>
      <trkpt lat="37.8018490" lon="-2.5608100">
        <ele>921.0</ele>
        <time>2020-07-14T07:04:24Z</time>
      </trkpt>
      <trkpt lat="37.8019410" lon="-2.5606500">
        <ele>921.4</ele>
        <time>2020-07-14T07:04:27Z</time>
      </trkpt>
      <trkpt lat="37.8020230" lon="-2.5604940">
        <ele>922.0</ele>
        <time>2020-07-14T07:04:30Z</time>
      </trkpt>
      <trkpt lat="37.8021900" lon="-2.5601900">
        <ele>923.0</ele>
        <time>2020-07-14T07:04:36Z</time>
      </trkpt>
      <trkpt lat="37.8022130" lon="-2.5601400">
        <ele>923.2</ele>
        <time>2020-07-14T07:04:37Z</time>
      </trkpt>
      <trkpt lat="37.8023210" lon="-2.5598990">
        <ele>924.2</ele>
        <time>2020-07-14T07:04:42Z</time>
      </trkpt>
      <trkpt lat="37.8023580" lon="-2.5597980">
        <ele>924.6</ele>
        <time>2020-07-14T07:04:44Z</time>
      </trkpt>
      <trkpt lat="37.8024090" lon="-2.5596490">
        <ele>925.2</ele>
        <time>2020-07-14T07:04:47Z</time>
      </trkpt>
      <trkpt lat="37.8024820" lon="-2.5593950">
        <ele>926.4</ele>
        <time>2020-07-14T07:04:52Z</time>
      </trkpt>
      <trkpt lat="37.8025090" lon="-2.5592850">
        <ele>927.0</ele>
        <time>2020-07-14T07:04:54Z</time>
      </trkpt>
      <trkpt lat="37.8025300" lon="-2.5591790">
        <ele>927.6</ele>
        <time>2020-07-14T07:04:56Z</time>
      </trkpt>
      <trkpt lat="37.8025770" lon="-2.5589770">
        <ele>928.6</ele>
        <time>2020-07-14T07:05:00Z</time>
      </trkpt>
      <trkpt lat="37.8026240" lon="-2.5588190">
        <ele>929.2</ele>
        <time>2020-07-14T07:05:03Z</time>
      </trkpt>
      <trkpt lat="37.8026580" lon="-2.5587190">
        <ele>929.6</ele>
        <time>2020-07-14T07:05:05Z</time>
      </trkpt>
      <trkpt lat="37.8027240" lon="-2.5585590">
        <ele>930.2</ele>
        <time>2020-07-14T07:05:08Z</time>
      </trkpt>
      <trkpt lat="37.8028080" lon="-2.5584160">
        <ele>930.4</ele>
        <time>2020-07-14T07:05:11Z</time>
      </trkpt>
      <trkpt lat="37.8029700" lon="-2.5581820">
        <ele>930.8</ele>
        <time>2020-07-14T07:05:16Z</time>
      </trkpt>
      <trkpt lat="37.8031320" lon="-2.5579380">
        <ele>931.0</ele>
        <time>2020-07-14T07:05:21Z</time>
      </trkpt>
      <trkpt lat="37.8034680" lon="-2.5574640">
        <ele>931.6</ele>
        <time>2020-07-14T07:05:31Z</time>
      </trkpt>
      <trkpt lat="37.8035430" lon="-2.5573670">
        <ele>931.8</ele>
        <time>2020-07-14T07:05:33Z</time>
      </trkpt>
      <trkpt lat="37.8036880" lon="-2.5571710">
        <ele>932.0</ele>
        <time>2020-07-14T07:05:37Z</time>
      </trkpt>
      <trkpt lat="37.8037240" lon="-2.5571190">
        <ele>932.0</ele>
        <time>2020-07-14T07:05:38Z</time>
      </trkpt>
      <trkpt lat="37.8038740" lon="-2.5569180">
        <ele>932.2</ele>
        <time>2020-07-14T07:05:42Z</time>
      </trkpt>
      <trkpt lat="37.8040240" lon="-2.5567170">
        <ele>932.2</ele>
        <time>2020-07-14T07:05:46Z</time>
      </trkpt>
      <trkpt lat="37.8041410" lon="-2.5565640">
        <ele>932.4</ele>
        <time>2020-07-14T07:05:49Z</time>
      </trkpt>
      <trkpt lat="37.8044060" lon="-2.5562030">
        <ele>932.8</ele>
        <time>2020-07-14T07:05:56Z</time>
      </trkpt>
      <trkpt lat="37.8045540" lon="-2.5559910">
        <ele>933.0</ele>
        <time>2020-07-14T07:06:00Z</time>
      </trkpt>
      <trkpt lat="37.8048570" lon="-2.5555560">
        <ele>933.4</ele>
        <time>2020-07-14T07:06:08Z</time>
      </trkpt>
      <trkpt lat="37.8049220" lon="-2.5554440">
        <ele>933.4</ele>
        <time>2020-07-14T07:06:10Z</time>
      </trkpt>
      <trkpt lat="37.8051720" lon="-2.5549440">
        <ele>933.8</ele>
        <time>2020-07-14T07:06:18Z</time>
      </trkpt>
      <trkpt lat="37.8052010" lon="-2.5548810">
        <ele>933.8</ele>
        <time>2020-07-14T07:06:19Z</time>
      </trkpt>
      <trkpt lat="37.8054840" lon="-2.5542480">
        <ele>934.4</ele>
        <time>2020-07-14T07:06:29Z</time>
      </trkpt>
      <trkpt lat="37.8057650" lon="-2.5535920">
        <ele>934.6</ele>
        <time>2020-07-14T07:06:39Z</time>
      </trkpt>
      <trkpt lat="37.8057920" lon="-2.5535330">
        <ele>934.8</ele>
        <time>2020-07-14T07:06:40Z</time>
      </trkpt>
      <trkpt lat="37.8058240" lon="-2.5534680">
        <ele>934.8</ele>
        <time>2020-07-14T07:06:41Z</time>
      </trkpt>
      <trkpt lat="37.8060760" lon="-2.5529480">
        <ele>935.2</ele>
        <time>2020-07-14T07:06:49Z</time>
      </trkpt>
      <trkpt lat="37.8063590" lon="-2.5523700">
        <ele>935.4</ele>
        <time>2020-07-14T07:06:58Z</time>
      </trkpt>
      <trkpt lat="37.8066340" lon="-2.5517760">
        <ele>935.8</ele>
        <time>2020-07-14T07:07:07Z</time>
      </trkpt>
      <trkpt lat="37.8066630" lon="-2.5517110">
        <ele>935.8</ele>
        <time>2020-07-14T07:07:08Z</time>
      </trkpt>
      <trkpt lat="37.8069330" lon="-2.5510510">
        <ele>936.4</ele>
        <time>2020-07-14T07:07:18Z</time>
      </trkpt>
      <trkpt lat="37.8071520" lon="-2.5505360">
        <ele>936.8</ele>
        <time>2020-07-14T07:07:26Z</time>
      </trkpt>
      <trkpt lat="37.8071820" lon="-2.5504760">
        <ele>937.0</ele>
        <time>2020-07-14T07:07:27Z</time>
      </trkpt>
      <trkpt lat="37.8073030" lon="-2.5502320">
        <ele>937.4</ele>
        <time>2020-07-14T07:07:31Z</time>
      </trkpt>
      <trkpt lat="37.8074540" lon="-2.5498340">
        <ele>937.6</ele>
        <time>2020-07-14T07:07:37Z</time>
      </trkpt>
      <trkpt lat="37.8075500" lon="-2.5493140">
        <ele>937.6</ele>
        <time>2020-07-14T07:07:44Z</time>
      </trkpt>
      <trkpt lat="37.8075950" lon="-2.5487090">
        <ele>937.8</ele>
        <time>2020-07-14T07:07:52Z</time>
      </trkpt>
      <trkpt lat="37.8076140" lon="-2.5484910">
        <ele>938.0</ele>
        <time>2020-07-14T07:07:55Z</time>
      </trkpt>
      <trkpt lat="37.8076410" lon="-2.5481230">
        <ele>938.2</ele>
        <time>2020-07-14T07:08:00Z</time>
      </trkpt>
      <trkpt lat="37.8076740" lon="-2.5478270">
        <ele>938.2</ele>
        <time>2020-07-14T07:08:04Z</time>
      </trkpt>
      <trkpt lat="37.8076930" lon="-2.5476030">
        <ele>938.2</ele>
        <time>2020-07-14T07:08:07Z</time>
      </trkpt>
      <trkpt lat="37.8076980" lon="-2.5473190">
        <ele>938.4</ele>
        <time>2020-07-14T07:08:11Z</time>
      </trkpt>
      <trkpt lat="37.8077040" lon="-2.5471040">
        <ele>938.4</ele>
        <time>2020-07-14T07:08:14Z</time>
      </trkpt>
      <trkpt lat="37.8077540" lon="-2.5464300">
        <ele>939.0</ele>
        <time>2020-07-14T07:08:24Z</time>
      </trkpt>
      <trkpt lat="37.8077630" lon="-2.5463750">
        <ele>939.0</ele>
        <time>2020-07-14T07:08:25Z</time>
      </trkpt>
      <trkpt lat="37.8077820" lon="-2.5462070">
        <ele>939.0</ele>
        <time>2020-07-14T07:08:28Z</time>
      </trkpt>
      <trkpt lat="37.8078030" lon="-2.5460610">
        <ele>939.0</ele>
        <time>2020-07-14T07:08:31Z</time>
      </trkpt>
      <trkpt lat="37.8078480" lon="-2.5458930">
        <ele>939.0</ele>
        <time>2020-07-14T07:08:35Z</time>
      </trkpt>
      <trkpt lat="37.8078250" lon="-2.5458360">
        <ele>939.2</ele>
        <time>2020-07-14T07:08:37Z</time>
      </trkpt>
      <trkpt lat="37.8078360" lon="-2.5458510">
        <ele>939.2</ele>
        <time>2020-07-14T07:08:38Z</time>
      </trkpt>
      <trkpt lat="37.8078370" lon="-2.5458370">
        <ele>939.2</ele>
        <time>2020-07-14T07:08:39Z</time>
      </trkpt>
      <trkpt lat="37.8079310" lon="-2.5457680">
        <ele>939.0</ele>
        <time>2020-07-14T07:09:45Z</time>
      </trkpt>
      <trkpt lat="37.8079270" lon="-2.5457460">
        <ele>939.0</ele>
        <time>2020-07-14T07:09:46Z</time>
      </trkpt>
      <trkpt lat="37.8079190" lon="-2.5457250">
        <ele>939.0</ele>
        <time>2020-07-14T07:09:47Z</time>
      </trkpt>
      <trkpt lat="37.8078740" lon="-2.5456300">
        <ele>939.0</ele>
        <time>2020-07-14T07:09:51Z</time>
      </trkpt>
      <trkpt lat="37.8078720" lon="-2.5456020">
        <ele>939.0</ele>
        <time>2020-07-14T07:09:52Z</time>
      </trkpt>
      <trkpt lat="37.8078780" lon="-2.5455890">
        <ele>939.0</ele>
        <time>2020-07-14T07:09:53Z</time>
      </trkpt>
      <trkpt lat="37.8079090" lon="-2.5455950">
        <ele>939.2</ele>
        <time>2020-07-14T07:09:56Z</time>
      </trkpt>
      <trkpt lat="37.8078240" lon="-2.5458280">
        <ele>938.4</ele>
        <time>2020-07-14T07:30:36Z</time>
      </trkpt>
      <trkpt lat="37.8078210" lon="-2.5458280">
        <ele>938.4</ele>
        <time>2020-07-14T07:30:37Z</time>
      </trkpt>
      <trkpt lat="37.8078820" lon="-2.5457410">
        <ele>938.4</ele>
        <time>2020-07-14T07:30:45Z</time>
      </trkpt>
      <trkpt lat="37.8078940" lon="-2.5457480">
        <ele>938.4</ele>
        <time>2020-07-14T07:30:46Z</time>
      </trkpt>
      <trkpt lat="37.8079790" lon="-2.5457600">
        <ele>938.4</ele>
        <time>2020-07-14T07:30:50Z</time>
      </trkpt>
      <trkpt lat="37.8080450" lon="-2.5457440">
        <ele>938.4</ele>
        <time>2020-07-14T07:30:52Z</time>
      </trkpt>
      <trkpt lat="37.8081580" lon="-2.5457200">
        <ele>938.4</ele>
        <time>2020-07-14T07:30:55Z</time>
      </trkpt>
      <trkpt lat="37.8082370" lon="-2.5457010">
        <ele>938.6</ele>
        <time>2020-07-14T07:30:57Z</time>
      </trkpt>
      <trkpt lat="37.8083230" lon="-2.5456790">
        <ele>938.8</ele>
        <time>2020-07-14T07:30:59Z</time>
      </trkpt>
      <trkpt lat="37.8084170" lon="-2.5456470">
        <ele>938.8</ele>
        <time>2020-07-14T07:31:01Z</time>
      </trkpt>
      <trkpt lat="37.8084620" lon="-2.5456270">
        <ele>939.0</ele>
        <time>2020-07-14T07:31:02Z</time>
      </trkpt>
      <trkpt lat="37.8085490" lon="-2.5455870">
        <ele>939.0</ele>
        <time>2020-07-14T07:31:04Z</time>
      </trkpt>
      <trkpt lat="37.8087250" lon="-2.5455120">
        <ele>939.6</ele>
        <time>2020-07-14T07:31:08Z</time>
      </trkpt>
      <trkpt lat="37.8087600" lon="-2.5454960">
        <ele>939.6</ele>
        <time>2020-07-14T07:31:09Z</time>
      </trkpt>
      <trkpt lat="37.8090420" lon="-2.5453620">
        <ele>939.8</ele>
        <time>2020-07-14T07:31:16Z</time>
      </trkpt>
      <trkpt lat="37.8091350" lon="-2.5453200">
        <ele>940.0</ele>
        <time>2020-07-14T07:31:18Z</time>
      </trkpt>
      <trkpt lat="37.8093650" lon="-2.5452240">
        <ele>940.2</ele>
        <time>2020-07-14T07:31:23Z</time>
      </trkpt>
      <trkpt lat="37.8097800" lon="-2.5450500">
        <ele>940.4</ele>
        <time>2020-07-14T07:31:32Z</time>
      </trkpt>
      <trkpt lat="37.8101950" lon="-2.5449470">
        <ele>941.0</ele>
        <time>2020-07-14T07:31:41Z</time>
      </trkpt>
      <trkpt lat="37.8102420" lon="-2.5449380">
        <ele>941.0</ele>
        <time>2020-07-14T07:31:42Z</time>
      </trkpt>
      <trkpt lat="37.8103760" lon="-2.5449190">
        <ele>941.2</ele>
        <time>2020-07-14T07:31:45Z</time>
      </trkpt>
      <trkpt lat="37.8105070" lon="-2.5449610">
        <ele>941.2</ele>
        <time>2020-07-14T07:31:48Z</time>
      </trkpt>
      <trkpt lat="37.8106340" lon="-2.5451340">
        <ele>941.8</ele>
        <time>2020-07-14T07:31:52Z</time>
      </trkpt>
      <trkpt lat="37.8106630" lon="-2.5451920">
        <ele>941.8</ele>
        <time>2020-07-14T07:31:53Z</time>
      </trkpt>
      <trkpt lat="37.8108140" lon="-2.5455560">
        <ele>941.2</ele>
        <time>2020-07-14T07:31:59Z</time>
      </trkpt>
      <trkpt lat="37.8109130" lon="-2.5458130">
        <ele>941.2</ele>
        <time>2020-07-14T07:32:03Z</time>
      </trkpt>
      <trkpt lat="37.8110900" lon="-2.5462560">
        <ele>941.0</ele>
        <time>2020-07-14T07:32:10Z</time>
      </trkpt>
      <trkpt lat="37.8111160" lon="-2.5463220">
        <ele>940.8</ele>
        <time>2020-07-14T07:32:11Z</time>
      </trkpt>
      <trkpt lat="37.8112860" lon="-2.5467890">
        <ele>940.0</ele>
        <time>2020-07-14T07:32:18Z</time>
      </trkpt>
      <trkpt lat="37.8113890" lon="-2.5470520">
        <ele>940.0</ele>
        <time>2020-07-14T07:32:22Z</time>
      </trkpt>
      <trkpt lat="37.8114150" lon="-2.5471210">
        <ele>939.8</ele>
        <time>2020-07-14T07:32:23Z</time>
      </trkpt>
      <trkpt lat="37.8115900" lon="-2.5475900">
        <ele>939.6</ele>
        <time>2020-07-14T07:32:30Z</time>
      </trkpt>
      <trkpt lat="37.8117260" lon="-2.5479950">
        <ele>939.4</ele>
        <time>2020-07-14T07:32:36Z</time>
      </trkpt>
      <trkpt lat="37.8119320" lon="-2.5486140">
        <ele>939.2</ele>
        <time>2020-07-14T07:32:45Z</time>
      </trkpt>
      <trkpt lat="37.8120690" lon="-2.5489370">
        <ele>938.8</ele>
        <time>2020-07-14T07:32:50Z</time>
      </trkpt>
      <trkpt lat="37.8121790" lon="-2.5491900">
        <ele>938.8</ele>
        <time>2020-07-14T07:32:54Z</time>
      </trkpt>
      <trkpt lat="37.8124680" lon="-2.5498240">
        <ele>938.8</ele>
        <time>2020-07-14T07:33:04Z</time>
      </trkpt>
      <trkpt lat="37.8125030" lon="-2.5498930">
        <ele>938.8</ele>
        <time>2020-07-14T07:33:05Z</time>
      </trkpt>
      <trkpt lat="37.8127910" lon="-2.5504250">
        <ele>938.8</ele>
        <time>2020-07-14T07:33:14Z</time>
      </trkpt>
      <trkpt lat="37.8130450" lon="-2.5509240">
        <ele>938.4</ele>
        <time>2020-07-14T07:33:22Z</time>
      </trkpt>
      <trkpt lat="37.8133280" lon="-2.5515240">
        <ele>938.2</ele>
        <time>2020-07-14T07:33:31Z</time>
      </trkpt>
      <trkpt lat="37.8133580" lon="-2.5515920">
        <ele>938.2</ele>
        <time>2020-07-14T07:33:32Z</time>
      </trkpt>
      <trkpt lat="37.8134140" lon="-2.5517170">
        <ele>937.8</ele>
        <time>2020-07-14T07:33:34Z</time>
      </trkpt>
      <trkpt lat="37.8135940" lon="-2.5522060">
        <ele>938.0</ele>
        <time>2020-07-14T07:33:41Z</time>
      </trkpt>
      <trkpt lat="37.8136960" lon="-2.5524830">
        <ele>937.8</ele>
        <time>2020-07-14T07:33:45Z</time>
      </trkpt>
      <trkpt lat="37.8138780" lon="-2.5529790">
        <ele>937.8</ele>
        <time>2020-07-14T07:33:52Z</time>
      </trkpt>
      <trkpt lat="37.8140570" lon="-2.5534480">
        <ele>938.2</ele>
        <time>2020-07-14T07:33:59Z</time>
      </trkpt>
      <trkpt lat="37.8141590" lon="-2.5537140">
        <ele>938.2</ele>
        <time>2020-07-14T07:34:03Z</time>
      </trkpt>
      <trkpt lat="37.8143340" lon="-2.5541780">
        <ele>938.6</ele>
        <time>2020-07-14T07:34:10Z</time>
      </trkpt>
      <trkpt lat="37.8144100" lon="-2.5543800">
        <ele>938.8</ele>
        <time>2020-07-14T07:34:13Z</time>
      </trkpt>
      <trkpt lat="37.8144860" lon="-2.5545800">
        <ele>939.0</ele>
        <time>2020-07-14T07:34:16Z</time>
      </trkpt>
      <trkpt lat="37.8145660" lon="-2.5547850">
        <ele>939.2</ele>
        <time>2020-07-14T07:34:19Z</time>
      </trkpt>
      <trkpt lat="37.8146490" lon="-2.5549880">
        <ele>939.4</ele>
        <time>2020-07-14T07:34:22Z</time>
      </trkpt>
      <trkpt lat="37.8146750" lon="-2.5550540">
        <ele>939.4</ele>
        <time>2020-07-14T07:34:23Z</time>
      </trkpt>
      <trkpt lat="37.8148480" lon="-2.5554890">
        <ele>940.0</ele>
        <time>2020-07-14T07:34:30Z</time>
      </trkpt>
      <trkpt lat="37.8149190" lon="-2.5556630">
        <ele>940.2</ele>
        <time>2020-07-14T07:34:33Z</time>
      </trkpt>
      <trkpt lat="37.8150540" lon="-2.5560020">
        <ele>941.0</ele>
        <time>2020-07-14T07:34:39Z</time>
      </trkpt>
      <trkpt lat="37.8151230" lon="-2.5561760">
        <ele>941.2</ele>
        <time>2020-07-14T07:34:42Z</time>
      </trkpt>
      <trkpt lat="37.8152850" lon="-2.5565580">
        <ele>941.8</ele>
        <time>2020-07-14T07:34:49Z</time>
      </trkpt>
      <trkpt lat="37.8153320" lon="-2.5566660">
        <ele>942.0</ele>
        <time>2020-07-14T07:34:51Z</time>
      </trkpt>
      <trkpt lat="37.8155310" lon="-2.5571410">
        <ele>943.0</ele>
        <time>2020-07-14T07:35:00Z</time>
      </trkpt>
      <trkpt lat="37.8155510" lon="-2.5571940">
        <ele>943.2</ele>
        <time>2020-07-14T07:35:01Z</time>
      </trkpt>
      <trkpt lat="37.8156500" lon="-2.5575490">
        <ele>944.0</ele>
        <time>2020-07-14T07:35:07Z</time>
      </trkpt>
      <trkpt lat="37.8156650" lon="-2.5576110">
        <ele>944.0</ele>
        <time>2020-07-14T07:35:08Z</time>
      </trkpt>
      <trkpt lat="37.8156790" lon="-2.5576660">
        <ele>944.2</ele>
        <time>2020-07-14T07:35:09Z</time>
      </trkpt>
      <trkpt lat="37.8157680" lon="-2.5581590">
        <ele>945.0</ele>
        <time>2020-07-14T07:35:17Z</time>
      </trkpt>
      <trkpt lat="37.8157760" lon="-2.5582200">
        <ele>945.2</ele>
        <time>2020-07-14T07:35:18Z</time>
      </trkpt>
      <trkpt lat="37.8158620" lon="-2.5587460">
        <ele>946.2</ele>
        <time>2020-07-14T07:35:27Z</time>
      </trkpt>
      <trkpt lat="37.8158740" lon="-2.5588060">
        <ele>946.4</ele>
        <time>2020-07-14T07:35:28Z</time>
      </trkpt>
      <trkpt lat="37.8159990" lon="-2.5593120">
        <ele>947.0</ele>
        <time>2020-07-14T07:35:37Z</time>
      </trkpt>
      <trkpt lat="37.8160270" lon="-2.5594150">
        <ele>947.2</ele>
        <time>2020-07-14T07:35:39Z</time>
      </trkpt>
      <trkpt lat="37.8161320" lon="-2.5597830">
        <ele>948.4</ele>
        <time>2020-07-14T07:35:46Z</time>
      </trkpt>
      <trkpt lat="37.8161750" lon="-2.5599390">
        <ele>948.8</ele>
        <time>2020-07-14T07:35:49Z</time>
      </trkpt>
      <trkpt lat="37.8162260" lon="-2.5601640">
        <ele>949.4</ele>
        <time>2020-07-14T07:35:53Z</time>
      </trkpt>
      <trkpt lat="37.8162690" lon="-2.5604380">
        <ele>949.8</ele>
        <time>2020-07-14T07:35:58Z</time>
      </trkpt>
      <trkpt lat="37.8163240" lon="-2.5607800">
        <ele>950.4</ele>
        <time>2020-07-14T07:36:04Z</time>
      </trkpt>
      <trkpt lat="37.8163640" lon="-2.5610260">
        <ele>950.8</ele>
        <time>2020-07-14T07:36:08Z</time>
      </trkpt>
      <trkpt lat="37.8164290" lon="-2.5614330">
        <ele>951.6</ele>
        <time>2020-07-14T07:36:15Z</time>
      </trkpt>
      <trkpt lat="37.8164640" lon="-2.5616500">
        <ele>952.2</ele>
        <time>2020-07-14T07:36:19Z</time>
      </trkpt>
      <trkpt lat="37.8164940" lon="-2.5618570">
        <ele>952.6</ele>
        <time>2020-07-14T07:36:23Z</time>
      </trkpt>
      <trkpt lat="37.8165370" lon="-2.5621450">
        <ele>953.6</ele>
        <time>2020-07-14T07:36:29Z</time>
      </trkpt>
      <trkpt lat="37.8165460" lon="-2.5621950">
        <ele>953.8</ele>
        <time>2020-07-14T07:36:30Z</time>
      </trkpt>
      <trkpt lat="37.8165880" lon="-2.5624420">
        <ele>954.8</ele>
        <time>2020-07-14T07:36:35Z</time>
      </trkpt>
      <trkpt lat="37.8166340" lon="-2.5627130">
        <ele>955.2</ele>
        <time>2020-07-14T07:36:40Z</time>
      </trkpt>
      <trkpt lat="37.8166910" lon="-2.5630340">
        <ele>955.8</ele>
        <time>2020-07-14T07:36:46Z</time>
      </trkpt>
      <trkpt lat="37.8167400" lon="-2.5633420">
        <ele>956.6</ele>
        <time>2020-07-14T07:36:52Z</time>
      </trkpt>
      <trkpt lat="37.8167540" lon="-2.5634410">
        <ele>956.8</ele>
        <time>2020-07-14T07:36:54Z</time>
      </trkpt>
      <trkpt lat="37.8168020" lon="-2.5637420">
        <ele>957.6</ele>
        <time>2020-07-14T07:37:00Z</time>
      </trkpt>
      <trkpt lat="37.8168290" lon="-2.5638860">
        <ele>958.0</ele>
        <time>2020-07-14T07:37:03Z</time>
      </trkpt>
      <trkpt lat="37.8168720" lon="-2.5641340">
        <ele>958.8</ele>
        <time>2020-07-14T07:37:08Z</time>
      </trkpt>
      <trkpt lat="37.8168800" lon="-2.5641770">
        <ele>959.0</ele>
        <time>2020-07-14T07:37:09Z</time>
      </trkpt>
      <trkpt lat="37.8168890" lon="-2.5642300">
        <ele>959.0</ele>
        <time>2020-07-14T07:37:10Z</time>
      </trkpt>
      <trkpt lat="37.8169570" lon="-2.5645760">
        <ele>960.0</ele>
        <time>2020-07-14T07:37:17Z</time>
      </trkpt>
      <trkpt lat="37.8169700" lon="-2.5646230">
        <ele>960.2</ele>
        <time>2020-07-14T07:37:18Z</time>
      </trkpt>
      <trkpt lat="37.8171060" lon="-2.5649490">
        <ele>961.0</ele>
        <time>2020-07-14T07:37:25Z</time>
      </trkpt>
      <trkpt lat="37.8171290" lon="-2.5649920">
        <ele>961.2</ele>
        <time>2020-07-14T07:37:26Z</time>
      </trkpt>
      <trkpt lat="37.8172950" lon="-2.5652800">
        <ele>962.2</ele>
        <time>2020-07-14T07:37:33Z</time>
      </trkpt>
      <trkpt lat="37.8173160" lon="-2.5653200">
        <ele>962.4</ele>
        <time>2020-07-14T07:37:34Z</time>
      </trkpt>
      <trkpt lat="37.8175340" lon="-2.5657050">
        <ele>963.4</ele>
        <time>2020-07-14T07:37:43Z</time>
      </trkpt>
      <trkpt lat="37.8177790" lon="-2.5661320">
        <ele>964.4</ele>
        <time>2020-07-14T07:37:53Z</time>
      </trkpt>
      <trkpt lat="37.8178510" lon="-2.5662560">
        <ele>964.6</ele>
        <time>2020-07-14T07:37:56Z</time>
      </trkpt>
      <trkpt lat="37.8179830" lon="-2.5664870">
        <ele>965.6</ele>
        <time>2020-07-14T07:38:02Z</time>
      </trkpt>
      <trkpt lat="37.8180410" lon="-2.5665970">
        <ele>966.0</ele>
        <time>2020-07-14T07:38:05Z</time>
      </trkpt>
      <trkpt lat="37.8180990" lon="-2.5667060">
        <ele>966.6</ele>
        <time>2020-07-14T07:38:08Z</time>
      </trkpt>
      <trkpt lat="37.8182000" lon="-2.5668770">
        <ele>967.6</ele>
        <time>2020-07-14T07:38:13Z</time>
      </trkpt>
      <trkpt lat="37.8182180" lon="-2.5669090">
        <ele>967.8</ele>
        <time>2020-07-14T07:38:14Z</time>
      </trkpt>
      <trkpt lat="37.8183130" lon="-2.5670800">
        <ele>968.8</ele>
        <time>2020-07-14T07:38:19Z</time>
      </trkpt>
      <trkpt lat="37.8183500" lon="-2.5671460">
        <ele>969.2</ele>
        <time>2020-07-14T07:38:21Z</time>
      </trkpt>
      <trkpt lat="37.8184060" lon="-2.5672460">
        <ele>969.8</ele>
        <time>2020-07-14T07:38:24Z</time>
      </trkpt>
      <trkpt lat="37.8185160" lon="-2.5674450">
        <ele>971.0</ele>
        <time>2020-07-14T07:38:30Z</time>
      </trkpt>
      <trkpt lat="37.8185500" lon="-2.5675080">
        <ele>971.4</ele>
        <time>2020-07-14T07:38:32Z</time>
      </trkpt>
      <trkpt lat="37.8185950" lon="-2.5676030">
        <ele>972.0</ele>
        <time>2020-07-14T07:38:35Z</time>
      </trkpt>
      <trkpt lat="37.8186630" lon="-2.5677130">
        <ele>972.8</ele>
        <time>2020-07-14T07:38:39Z</time>
      </trkpt>
      <trkpt lat="37.8186960" lon="-2.5677720">
        <ele>973.2</ele>
        <time>2020-07-14T07:38:41Z</time>
      </trkpt>
      <trkpt lat="37.8187710" lon="-2.5679020">
        <ele>974.2</ele>
        <time>2020-07-14T07:38:46Z</time>
      </trkpt>
      <trkpt lat="37.8187860" lon="-2.5679290">
        <ele>974.4</ele>
        <time>2020-07-14T07:38:47Z</time>
      </trkpt>
      <trkpt lat="37.8188420" lon="-2.5680350">
        <ele>975.2</ele>
        <time>2020-07-14T07:38:51Z</time>
      </trkpt>
      <trkpt lat="37.8189040" lon="-2.5681480">
        <ele>975.8</ele>
        <time>2020-07-14T07:38:55Z</time>
      </trkpt>
      <trkpt lat="37.8189350" lon="-2.5682030">
        <ele>976.4</ele>
        <time>2020-07-14T07:38:57Z</time>
      </trkpt>
      <trkpt lat="37.8189900" lon="-2.5683150">
        <ele>977.4</ele>
        <time>2020-07-14T07:39:01Z</time>
      </trkpt>
      <trkpt lat="37.8190200" lon="-2.5683690">
        <ele>977.8</ele>
        <time>2020-07-14T07:39:03Z</time>
      </trkpt>
      <trkpt lat="37.8190650" lon="-2.5684480">
        <ele>978.6</ele>
        <time>2020-07-14T07:39:06Z</time>
      </trkpt>
      <trkpt lat="37.8191360" lon="-2.5685830">
        <ele>979.6</ele>
        <time>2020-07-14T07:39:11Z</time>
      </trkpt>
      <trkpt lat="37.8191970" lon="-2.5686860">
        <ele>980.4</ele>
        <time>2020-07-14T07:39:15Z</time>
      </trkpt>
      <trkpt lat="37.8192270" lon="-2.5687400">
        <ele>981.0</ele>
        <time>2020-07-14T07:39:17Z</time>
      </trkpt>
      <trkpt lat="37.8193070" lon="-2.5688690">
        <ele>982.0</ele>
        <time>2020-07-14T07:39:22Z</time>
      </trkpt>
      <trkpt lat="37.8193660" lon="-2.5689810">
        <ele>982.8</ele>
        <time>2020-07-14T07:39:26Z</time>
      </trkpt>
      <trkpt lat="37.8193970" lon="-2.5690400">
        <ele>983.2</ele>
        <time>2020-07-14T07:39:28Z</time>
      </trkpt>
      <trkpt lat="37.8195440" lon="-2.5693020">
        <ele>984.2</ele>
        <time>2020-07-14T07:39:36Z</time>
      </trkpt>
      <trkpt lat="37.8195640" lon="-2.5693360">
        <ele>984.4</ele>
        <time>2020-07-14T07:39:37Z</time>
      </trkpt>
      <trkpt lat="37.8197860" lon="-2.5697210">
        <ele>985.2</ele>
        <time>2020-07-14T07:39:47Z</time>
      </trkpt>
      <trkpt lat="37.8198090" lon="-2.5697640">
        <ele>985.2</ele>
        <time>2020-07-14T07:39:48Z</time>
      </trkpt>
      <trkpt lat="37.8199450" lon="-2.5700040">
        <ele>986.0</ele>
        <time>2020-07-14T07:39:54Z</time>
      </trkpt>
      <trkpt lat="37.8200130" lon="-2.5701130">
        <ele>986.4</ele>
        <time>2020-07-14T07:39:57Z</time>
      </trkpt>
      <trkpt lat="37.8201350" lon="-2.5703210">
        <ele>987.6</ele>
        <time>2020-07-14T07:40:03Z</time>
      </trkpt>
      <trkpt lat="37.8202110" lon="-2.5704570">
        <ele>988.2</ele>
        <time>2020-07-14T07:40:07Z</time>
      </trkpt>
      <trkpt lat="37.8202280" lon="-2.5704910">
        <ele>988.6</ele>
        <time>2020-07-14T07:40:08Z</time>
      </trkpt>
      <trkpt lat="37.8203260" lon="-2.5706670">
        <ele>989.6</ele>
        <time>2020-07-14T07:40:13Z</time>
      </trkpt>
      <trkpt lat="37.8203480" lon="-2.5707050">
        <ele>989.8</ele>
        <time>2020-07-14T07:40:14Z</time>
      </trkpt>
      <trkpt lat="37.8205460" lon="-2.5710430">
        <ele>990.6</ele>
        <time>2020-07-14T07:40:22Z</time>
      </trkpt>
      <trkpt lat="37.8205710" lon="-2.5710870">
        <ele>990.8</ele>
        <time>2020-07-14T07:40:23Z</time>
      </trkpt>
      <trkpt lat="37.8206870" lon="-2.5712960">
        <ele>991.0</ele>
        <time>2020-07-14T07:40:28Z</time>
      </trkpt>
      <trkpt lat="37.8207560" lon="-2.5714150">
        <ele>991.4</ele>
        <time>2020-07-14T07:40:31Z</time>
      </trkpt>
      <trkpt lat="37.8208200" lon="-2.5715180">
        <ele>991.8</ele>
        <time>2020-07-14T07:40:34Z</time>
      </trkpt>
      <trkpt lat="37.8209220" lon="-2.5716970">
        <ele>992.8</ele>
        <time>2020-07-14T07:40:39Z</time>
      </trkpt>
      <trkpt lat="37.8210280" lon="-2.5718770">
        <ele>994.0</ele>
        <time>2020-07-14T07:40:44Z</time>
      </trkpt>
      <trkpt lat="37.8211280" lon="-2.5720540">
        <ele>994.6</ele>
        <time>2020-07-14T07:40:48Z</time>
      </trkpt>
      <trkpt lat="37.8212710" lon="-2.5723070">
        <ele>994.6</ele>
        <time>2020-07-14T07:40:52Z</time>
      </trkpt>
      <trkpt lat="37.8214160" lon="-2.5725530">
        <ele>994.0</ele>
        <time>2020-07-14T07:40:55Z</time>
      </trkpt>
      <trkpt lat="37.8215180" lon="-2.5727280">
        <ele>993.4</ele>
        <time>2020-07-14T07:40:57Z</time>
      </trkpt>
      <trkpt lat="37.8215750" lon="-2.5728220">
        <ele>992.8</ele>
        <time>2020-07-14T07:40:58Z</time>
      </trkpt>
      <trkpt lat="37.8216770" lon="-2.5730010">
        <ele>991.4</ele>
        <time>2020-07-14T07:41:00Z</time>
      </trkpt>
      <trkpt lat="37.8218630" lon="-2.5733270">
        <ele>990.6</ele>
        <time>2020-07-14T07:41:04Z</time>
      </trkpt>
      <trkpt lat="37.8220810" lon="-2.5737050">
        <ele>991.0</ele>
        <time>2020-07-14T07:41:09Z</time>
      </trkpt>
      <trkpt lat="37.8221620" lon="-2.5738530">
        <ele>991.2</ele>
        <time>2020-07-14T07:41:11Z</time>
      </trkpt>
      <trkpt lat="37.8223870" lon="-2.5742550">
        <ele>992.0</ele>
        <time>2020-07-14T07:41:17Z</time>
      </trkpt>
      <trkpt lat="37.8225310" lon="-2.5745020">
        <ele>992.6</ele>
        <time>2020-07-14T07:41:21Z</time>
      </trkpt>
      <trkpt lat="37.8226730" lon="-2.5747430">
        <ele>993.2</ele>
        <time>2020-07-14T07:41:25Z</time>
      </trkpt>
      <trkpt lat="37.8227750" lon="-2.5749130">
        <ele>993.8</ele>
        <time>2020-07-14T07:41:28Z</time>
      </trkpt>
      <trkpt lat="37.8229450" lon="-2.5751970">
        <ele>994.6</ele>
        <time>2020-07-14T07:41:33Z</time>
      </trkpt>
      <trkpt lat="37.8229780" lon="-2.5752530">
        <ele>994.6</ele>
        <time>2020-07-14T07:41:34Z</time>
      </trkpt>
      <trkpt lat="37.8230170" lon="-2.5753160">
        <ele>994.8</ele>
        <time>2020-07-14T07:41:35Z</time>
      </trkpt>
      <trkpt lat="37.8232260" lon="-2.5756870">
        <ele>995.2</ele>
        <time>2020-07-14T07:41:41Z</time>
      </trkpt>
      <trkpt lat="37.8234260" lon="-2.5760350">
        <ele>995.8</ele>
        <time>2020-07-14T07:41:47Z</time>
      </trkpt>
      <trkpt lat="37.8235920" lon="-2.5763170">
        <ele>996.2</ele>
        <time>2020-07-14T07:41:52Z</time>
      </trkpt>
      <trkpt lat="37.8237170" lon="-2.5765370">
        <ele>996.6</ele>
        <time>2020-07-14T07:41:56Z</time>
      </trkpt>
      <trkpt lat="37.8238110" lon="-2.5766940">
        <ele>996.8</ele>
        <time>2020-07-14T07:41:59Z</time>
      </trkpt>
      <trkpt lat="37.8238460" lon="-2.5767490">
        <ele>997.0</ele>
        <time>2020-07-14T07:42:00Z</time>
      </trkpt>
      <trkpt lat="37.8240860" lon="-2.5771730">
        <ele>997.8</ele>
        <time>2020-07-14T07:42:08Z</time>
      </trkpt>
      <trkpt lat="37.8241780" lon="-2.5773310">
        <ele>998.0</ele>
        <time>2020-07-14T07:42:11Z</time>
      </trkpt>
      <trkpt lat="37.8243590" lon="-2.5776370">
        <ele>998.6</ele>
        <time>2020-07-14T07:42:17Z</time>
      </trkpt>
      <trkpt lat="37.8244710" lon="-2.5778270">
        <ele>999.0</ele>
        <time>2020-07-14T07:42:21Z</time>
      </trkpt>
      <trkpt lat="37.8245490" lon="-2.5779630">
        <ele>999.4</ele>
        <time>2020-07-14T07:42:24Z</time>
      </trkpt>
      <trkpt lat="37.8245740" lon="-2.5780070">
        <ele>999.6</ele>
        <time>2020-07-14T07:42:25Z</time>
      </trkpt>
      <trkpt lat="37.8246200" lon="-2.5780870">
        <ele>1000.2</ele>
        <time>2020-07-14T07:42:27Z</time>
      </trkpt>
      <trkpt lat="37.8247070" lon="-2.5782380">
        <ele>1001.4</ele>
        <time>2020-07-14T07:42:31Z</time>
      </trkpt>
      <trkpt lat="37.8247490" lon="-2.5783050">
        <ele>1002.0</ele>
        <time>2020-07-14T07:42:33Z</time>
      </trkpt>
      <trkpt lat="37.8248110" lon="-2.5784040">
        <ele>1002.6</ele>
        <time>2020-07-14T07:42:36Z</time>
      </trkpt>
      <trkpt lat="37.8249160" lon="-2.5785960">
        <ele>1003.6</ele>
        <time>2020-07-14T07:42:42Z</time>
      </trkpt>
      <trkpt lat="37.8250200" lon="-2.5787820">
        <ele>1004.8</ele>
        <time>2020-07-14T07:42:48Z</time>
      </trkpt>
      <trkpt lat="37.8250520" lon="-2.5788410">
        <ele>1005.4</ele>
        <time>2020-07-14T07:42:50Z</time>
      </trkpt>
      <trkpt lat="37.8251040" lon="-2.5789240">
        <ele>1006.0</ele>
        <time>2020-07-14T07:42:53Z</time>
      </trkpt>
      <trkpt lat="37.8251900" lon="-2.5790580">
        <ele>1007.0</ele>
        <time>2020-07-14T07:42:58Z</time>
      </trkpt>
      <trkpt lat="37.8252060" lon="-2.5790870">
        <ele>1007.2</ele>
        <time>2020-07-14T07:42:59Z</time>
      </trkpt>
      <trkpt lat="37.8253270" lon="-2.5792980">
        <ele>1008.2</ele>
        <time>2020-07-14T07:43:06Z</time>
      </trkpt>
      <trkpt lat="37.8254320" lon="-2.5794770">
        <ele>1009.4</ele>
        <time>2020-07-14T07:43:12Z</time>
      </trkpt>
      <trkpt lat="37.8254820" lon="-2.5795640">
        <ele>1010.2</ele>
        <time>2020-07-14T07:43:15Z</time>
      </trkpt>
      <trkpt lat="37.8255140" lon="-2.5796220">
        <ele>1010.6</ele>
        <time>2020-07-14T07:43:17Z</time>
      </trkpt>
      <trkpt lat="37.8255910" lon="-2.5797630">
        <ele>1011.8</ele>
        <time>2020-07-14T07:43:22Z</time>
      </trkpt>
      <trkpt lat="37.8256060" lon="-2.5797920">
        <ele>1012.0</ele>
        <time>2020-07-14T07:43:23Z</time>
      </trkpt>
      <trkpt lat="37.8256520" lon="-2.5799450">
        <ele>1012.8</ele>
        <time>2020-07-14T07:43:28Z</time>
      </trkpt>
      <trkpt lat="37.8256560" lon="-2.5799790">
        <ele>1013.0</ele>
        <time>2020-07-14T07:43:29Z</time>
      </trkpt>
      <trkpt lat="37.8256530" lon="-2.5801600">
        <ele>1014.0</ele>
        <time>2020-07-14T07:43:34Z</time>
      </trkpt>
      <trkpt lat="37.8256320" lon="-2.5802790">
        <ele>1014.8</ele>
        <time>2020-07-14T07:43:37Z</time>
      </trkpt>
      <trkpt lat="37.8256240" lon="-2.5803160">
        <ele>1015.0</ele>
        <time>2020-07-14T07:43:38Z</time>
      </trkpt>
      <trkpt lat="37.8255850" lon="-2.5804970">
        <ele>1016.2</ele>
        <time>2020-07-14T07:43:43Z</time>
      </trkpt>
      <trkpt lat="37.8255520" lon="-2.5806340">
        <ele>1016.8</ele>
        <time>2020-07-14T07:43:47Z</time>
      </trkpt>
      <trkpt lat="37.8255240" lon="-2.5807390">
        <ele>1017.4</ele>
        <time>2020-07-14T07:43:50Z</time>
      </trkpt>
      <trkpt lat="37.8254880" lon="-2.5809080">
        <ele>1017.8</ele>
        <time>2020-07-14T07:43:54Z</time>
      </trkpt>
      <trkpt lat="37.8253950" lon="-2.5812840">
        <ele>1017.6</ele>
        <time>2020-07-14T07:44:00Z</time>
      </trkpt>
      <trkpt lat="37.8253310" lon="-2.5816030">
        <ele>1017.0</ele>
        <time>2020-07-14T07:44:04Z</time>
      </trkpt>
      <trkpt lat="37.8253120" lon="-2.5817840">
        <ele>1016.6</ele>
        <time>2020-07-14T07:44:06Z</time>
      </trkpt>
      <trkpt lat="37.8253320" lon="-2.5820470">
        <ele>1016.2</ele>
        <time>2020-07-14T07:44:09Z</time>
      </trkpt>
      <trkpt lat="37.8253460" lon="-2.5821470">
        <ele>1016.2</ele>
        <time>2020-07-14T07:44:10Z</time>
      </trkpt>
      <trkpt lat="37.8253830" lon="-2.5824130">
        <ele>1016.2</ele>
        <time>2020-07-14T07:44:13Z</time>
      </trkpt>
      <trkpt lat="37.8254490" lon="-2.5828450">
        <ele>1016.2</ele>
        <time>2020-07-14T07:44:18Z</time>
      </trkpt>
      <trkpt lat="37.8254620" lon="-2.5829250">
        <ele>1016.2</ele>
        <time>2020-07-14T07:44:19Z</time>
      </trkpt>
      <trkpt lat="37.8255180" lon="-2.5832840">
        <ele>1016.2</ele>
        <time>2020-07-14T07:44:23Z</time>
      </trkpt>
      <trkpt lat="37.8256040" lon="-2.5838270">
        <ele>1015.6</ele>
        <time>2020-07-14T07:44:29Z</time>
      </trkpt>
      <trkpt lat="37.8256640" lon="-2.5842040">
        <ele>1015.2</ele>
        <time>2020-07-14T07:44:33Z</time>
      </trkpt>
      <trkpt lat="37.8257400" lon="-2.5846870">
        <ele>1014.8</ele>
        <time>2020-07-14T07:44:38Z</time>
      </trkpt>
      <trkpt lat="37.8257820" lon="-2.5849790">
        <ele>1014.4</ele>
        <time>2020-07-14T07:44:41Z</time>
      </trkpt>
      <trkpt lat="37.8258120" lon="-2.5851840">
        <ele>1014.2</ele>
        <time>2020-07-14T07:44:43Z</time>
      </trkpt>
      <trkpt lat="37.8259180" lon="-2.5858960">
        <ele>1013.6</ele>
        <time>2020-07-14T07:44:50Z</time>
      </trkpt>
      <trkpt lat="37.8259320" lon="-2.5859890">
        <ele>1013.6</ele>
        <time>2020-07-14T07:44:51Z</time>
      </trkpt>
      <trkpt lat="37.8259920" lon="-2.5864150">
        <ele>1013.2</ele>
        <time>2020-07-14T07:44:55Z</time>
      </trkpt>
      <trkpt lat="37.8260730" lon="-2.5869290">
        <ele>1012.6</ele>
        <time>2020-07-14T07:45:00Z</time>
      </trkpt>
      <trkpt lat="37.8262090" lon="-2.5875980">
        <ele>1012.6</ele>
        <time>2020-07-14T07:45:07Z</time>
      </trkpt>
      <trkpt lat="37.8262310" lon="-2.5876860">
        <ele>1012.6</ele>
        <time>2020-07-14T07:45:08Z</time>
      </trkpt>
      <trkpt lat="37.8263630" lon="-2.5881220">
        <ele>1013.2</ele>
        <time>2020-07-14T07:45:13Z</time>
      </trkpt>
      <trkpt lat="37.8264650" lon="-2.5883710">
        <ele>1013.0</ele>
        <time>2020-07-14T07:45:16Z</time>
      </trkpt>
      <trkpt lat="37.8267820" lon="-2.5889900">
        <ele>1013.0</ele>
        <time>2020-07-14T07:45:24Z</time>
      </trkpt>
      <trkpt lat="37.8268360" lon="-2.5890580">
        <ele>1013.0</ele>
        <time>2020-07-14T07:45:25Z</time>
      </trkpt>
      <trkpt lat="37.8270080" lon="-2.5892160">
        <ele>1013.2</ele>
        <time>2020-07-14T07:45:28Z</time>
      </trkpt>
      <trkpt lat="37.8270650" lon="-2.5892560">
        <ele>1013.2</ele>
        <time>2020-07-14T07:45:29Z</time>
      </trkpt>
      <trkpt lat="37.8275630" lon="-2.5895630">
        <ele>1013.6</ele>
        <time>2020-07-14T07:45:37Z</time>
      </trkpt>
      <trkpt lat="37.8280540" lon="-2.5898920">
        <ele>1013.4</ele>
        <time>2020-07-14T07:45:45Z</time>
      </trkpt>
      <trkpt lat="37.8281130" lon="-2.5899400">
        <ele>1013.4</ele>
        <time>2020-07-14T07:45:46Z</time>
      </trkpt>
      <trkpt lat="37.8285290" lon="-2.5902940">
        <ele>1014.0</ele>
        <time>2020-07-14T07:45:54Z</time>
      </trkpt>
      <trkpt lat="37.8285850" lon="-2.5903430">
        <ele>1014.0</ele>
        <time>2020-07-14T07:45:55Z</time>
      </trkpt>
      <trkpt lat="37.8286830" lon="-2.5904310">
        <ele>1014.2</ele>
        <time>2020-07-14T07:45:57Z</time>
      </trkpt>
      <trkpt lat="37.8289020" lon="-2.5906070">
        <ele>1014.6</ele>
        <time>2020-07-14T07:46:01Z</time>
      </trkpt>
      <trkpt lat="37.8290300" lon="-2.5906510">
        <ele>1014.8</ele>
        <time>2020-07-14T07:46:03Z</time>
      </trkpt>
      <trkpt lat="37.8292320" lon="-2.5906250">
        <ele>1015.2</ele>
        <time>2020-07-14T07:46:06Z</time>
      </trkpt>
      <trkpt lat="37.8293050" lon="-2.5906070">
        <ele>1015.2</ele>
        <time>2020-07-14T07:46:07Z</time>
      </trkpt>
      <trkpt lat="37.8297070" lon="-2.5904910">
        <ele>1015.0</ele>
        <time>2020-07-14T07:46:13Z</time>
      </trkpt>
      <trkpt lat="37.8298980" lon="-2.5904160">
        <ele>1014.8</ele>
        <time>2020-07-14T07:46:16Z</time>
      </trkpt>
      <trkpt lat="37.8304460" lon="-2.5901390">
        <ele>1015.0</ele>
        <time>2020-07-14T07:46:25Z</time>
      </trkpt>
      <trkpt lat="37.8305590" lon="-2.5900800">
        <ele>1015.0</ele>
        <time>2020-07-14T07:46:27Z</time>
      </trkpt>
      <trkpt lat="37.8308950" lon="-2.5899130">
        <ele>1015.2</ele>
        <time>2020-07-14T07:46:33Z</time>
      </trkpt>
      <trkpt lat="37.8310080" lon="-2.5898670">
        <ele>1015.2</ele>
        <time>2020-07-14T07:46:35Z</time>
      </trkpt>
      <trkpt lat="37.8310720" lon="-2.5898550">
        <ele>1015.4</ele>
        <time>2020-07-14T07:46:36Z</time>
      </trkpt>
      <trkpt lat="37.8313170" lon="-2.5898260">
        <ele>1015.4</ele>
        <time>2020-07-14T07:46:40Z</time>
      </trkpt>
      <trkpt lat="37.8317410" lon="-2.5897190">
        <ele>1015.4</ele>
        <time>2020-07-14T07:46:47Z</time>
      </trkpt>
      <trkpt lat="37.8321890" lon="-2.5894890">
        <ele>1015.8</ele>
        <time>2020-07-14T07:46:55Z</time>
      </trkpt>
      <trkpt lat="37.8322530" lon="-2.5894770">
        <ele>1015.8</ele>
        <time>2020-07-14T07:46:56Z</time>
      </trkpt>
      <trkpt lat="37.8325120" lon="-2.5894750">
        <ele>1015.8</ele>
        <time>2020-07-14T07:47:00Z</time>
      </trkpt>
      <trkpt lat="37.8330380" lon="-2.5894850">
        <ele>1015.6</ele>
        <time>2020-07-14T07:47:08Z</time>
      </trkpt>
      <trkpt lat="37.8330940" lon="-2.5894690">
        <ele>1015.6</ele>
        <time>2020-07-14T07:47:09Z</time>
      </trkpt>
      <trkpt lat="37.8333370" lon="-2.5893510">
        <ele>1015.6</ele>
        <time>2020-07-14T07:47:13Z</time>
      </trkpt>
      <trkpt lat="37.8338760" lon="-2.5890580">
        <ele>1015.6</ele>
        <time>2020-07-14T07:47:22Z</time>
      </trkpt>
      <trkpt lat="37.8339370" lon="-2.5890290">
        <ele>1015.6</ele>
        <time>2020-07-14T07:47:23Z</time>
      </trkpt>
      <trkpt lat="37.8343820" lon="-2.5888870">
        <ele>1015.4</ele>
        <time>2020-07-14T07:47:30Z</time>
      </trkpt>
      <trkpt lat="37.8344450" lon="-2.5888830">
        <ele>1015.4</ele>
        <time>2020-07-14T07:47:31Z</time>
      </trkpt>
      <trkpt lat="37.8346360" lon="-2.5889120">
        <ele>1015.6</ele>
        <time>2020-07-14T07:47:34Z</time>
      </trkpt>
      <trkpt lat="37.8352340" lon="-2.5890170">
        <ele>1015.6</ele>
        <time>2020-07-14T07:47:43Z</time>
      </trkpt>
      <trkpt lat="37.8355600" lon="-2.5889350">
        <ele>1015.4</ele>
        <time>2020-07-14T07:47:48Z</time>
      </trkpt>
      <trkpt lat="37.8361300" lon="-2.5887270">
        <ele>1015.4</ele>
        <time>2020-07-14T07:47:57Z</time>
      </trkpt>
      <trkpt lat="37.8361930" lon="-2.5886930">
        <ele>1015.4</ele>
        <time>2020-07-14T07:47:58Z</time>
      </trkpt>
      <trkpt lat="37.8366480" lon="-2.5883680">
        <ele>1015.4</ele>
        <time>2020-07-14T07:48:06Z</time>
      </trkpt>
      <trkpt lat="37.8371780" lon="-2.5880270">
        <ele>1015.2</ele>
        <time>2020-07-14T07:48:15Z</time>
      </trkpt>
      <trkpt lat="37.8376870" lon="-2.5877900">
        <ele>1015.0</ele>
        <time>2020-07-14T07:48:23Z</time>
      </trkpt>
      <trkpt lat="37.8378750" lon="-2.5877060">
        <ele>1015.0</ele>
        <time>2020-07-14T07:48:26Z</time>
      </trkpt>
      <trkpt lat="37.8384380" lon="-2.5874860">
        <ele>1015.0</ele>
        <time>2020-07-14T07:48:35Z</time>
      </trkpt>
      <trkpt lat="37.8387710" lon="-2.5874680">
        <ele>1015.0</ele>
        <time>2020-07-14T07:48:40Z</time>
      </trkpt>
      <trkpt lat="37.8388380" lon="-2.5874510">
        <ele>1015.0</ele>
        <time>2020-07-14T07:48:41Z</time>
      </trkpt>
      <trkpt lat="37.8390210" lon="-2.5873580">
        <ele>1015.0</ele>
        <time>2020-07-14T07:48:44Z</time>
      </trkpt>
      <trkpt lat="37.8390810" lon="-2.5873160">
        <ele>1015.0</ele>
        <time>2020-07-14T07:48:45Z</time>
      </trkpt>
      <trkpt lat="37.8393550" lon="-2.5870780">
        <ele>1014.8</ele>
        <time>2020-07-14T07:48:50Z</time>
      </trkpt>
      <trkpt lat="37.8396920" lon="-2.5868240">
        <ele>1015.0</ele>
        <time>2020-07-14T07:48:56Z</time>
      </trkpt>
      <trkpt lat="37.8399870" lon="-2.5866400">
        <ele>1014.6</ele>
        <time>2020-07-14T07:49:01Z</time>
      </trkpt>
      <trkpt lat="37.8401130" lon="-2.5866000">
        <ele>1014.8</ele>
        <time>2020-07-14T07:49:03Z</time>
      </trkpt>
      <trkpt lat="37.8403210" lon="-2.5865840">
        <ele>1015.0</ele>
        <time>2020-07-14T07:49:06Z</time>
      </trkpt>
      <trkpt lat="37.8404550" lon="-2.5865910">
        <ele>1014.8</ele>
        <time>2020-07-14T07:49:08Z</time>
      </trkpt>
      <trkpt lat="37.8406650" lon="-2.5865830">
        <ele>1014.8</ele>
        <time>2020-07-14T07:49:11Z</time>
      </trkpt>
      <trkpt lat="37.8407950" lon="-2.5865420">
        <ele>1014.6</ele>
        <time>2020-07-14T07:49:13Z</time>
      </trkpt>
      <trkpt lat="37.8409760" lon="-2.5864330">
        <ele>1014.4</ele>
        <time>2020-07-14T07:49:16Z</time>
      </trkpt>
      <trkpt lat="37.8410380" lon="-2.5864000">
        <ele>1014.4</ele>
        <time>2020-07-14T07:49:17Z</time>
      </trkpt>
      <trkpt lat="37.8412540" lon="-2.5863660">
        <ele>1014.4</ele>
        <time>2020-07-14T07:49:20Z</time>
      </trkpt>
      <trkpt lat="37.8413930" lon="-2.5864390">
        <ele>1014.2</ele>
        <time>2020-07-14T07:49:22Z</time>
      </trkpt>
      <trkpt lat="37.8414570" lon="-2.5865120">
        <ele>1014.0</ele>
        <time>2020-07-14T07:49:23Z</time>
      </trkpt>
      <trkpt lat="37.8415950" lon="-2.5867860">
        <ele>1012.8</ele>
        <time>2020-07-14T07:49:26Z</time>
      </trkpt>
      <trkpt lat="37.8416380" lon="-2.5868860">
        <ele>1012.2</ele>
        <time>2020-07-14T07:49:27Z</time>
      </trkpt>
      <trkpt lat="37.8416860" lon="-2.5869950">
        <ele>1011.6</ele>
        <time>2020-07-14T07:49:28Z</time>
      </trkpt>
      <trkpt lat="37.8417800" lon="-2.5872050">
        <ele>1010.4</ele>
        <time>2020-07-14T07:49:30Z</time>
      </trkpt>
      <trkpt lat="37.8418840" lon="-2.5874040">
        <ele>1009.4</ele>
        <time>2020-07-14T07:49:32Z</time>
      </trkpt>
      <trkpt lat="37.8419400" lon="-2.5874880">
        <ele>1009.0</ele>
        <time>2020-07-14T07:49:33Z</time>
      </trkpt>
      <trkpt lat="37.8423000" lon="-2.5879450">
        <ele>1009.0</ele>
        <time>2020-07-14T07:49:39Z</time>
      </trkpt>
      <trkpt lat="37.8425480" lon="-2.5882570">
        <ele>1009.4</ele>
        <time>2020-07-14T07:49:44Z</time>
      </trkpt>
      <trkpt lat="37.8426820" lon="-2.5884090">
        <ele>1010.4</ele>
        <time>2020-07-14T07:49:47Z</time>
      </trkpt>
      <trkpt lat="37.8427260" lon="-2.5884520">
        <ele>1010.6</ele>
        <time>2020-07-14T07:49:48Z</time>
      </trkpt>
      <trkpt lat="37.8428160" lon="-2.5885270">
        <ele>1011.4</ele>
        <time>2020-07-14T07:49:50Z</time>
      </trkpt>
      <trkpt lat="37.8429160" lon="-2.5885750">
        <ele>1011.8</ele>
        <time>2020-07-14T07:49:52Z</time>
      </trkpt>
      <trkpt lat="37.8430070" lon="-2.5885930">
        <ele>1012.2</ele>
        <time>2020-07-14T07:49:54Z</time>
      </trkpt>
      <trkpt lat="37.8430540" lon="-2.5885950">
        <ele>1012.4</ele>
        <time>2020-07-14T07:49:55Z</time>
      </trkpt>
      <trkpt lat="37.8431280" lon="-2.5885960">
        <ele>1013.0</ele>
        <time>2020-07-14T07:49:57Z</time>
      </trkpt>
      <trkpt lat="37.8432640" lon="-2.5885800">
        <ele>1013.6</ele>
        <time>2020-07-14T07:50:00Z</time>
      </trkpt>
      <trkpt lat="37.8434300" lon="-2.5885510">
        <ele>1014.2</ele>
        <time>2020-07-14T07:50:04Z</time>
      </trkpt>
      <trkpt lat="37.8435140" lon="-2.5885330">
        <ele>1014.6</ele>
        <time>2020-07-14T07:50:06Z</time>
      </trkpt>
      <trkpt lat="37.8436760" lon="-2.5885070">
        <ele>1015.2</ele>
        <time>2020-07-14T07:50:10Z</time>
      </trkpt>
      <trkpt lat="37.8437950" lon="-2.5884880">
        <ele>1015.6</ele>
        <time>2020-07-14T07:50:13Z</time>
      </trkpt>
      <trkpt lat="37.8439850" lon="-2.5884610">
        <ele>1016.4</ele>
        <time>2020-07-14T07:50:18Z</time>
      </trkpt>
      <trkpt lat="37.8441640" lon="-2.5884580">
        <ele>1017.2</ele>
        <time>2020-07-14T07:50:23Z</time>
      </trkpt>
      <trkpt lat="37.8442360" lon="-2.5884620">
        <ele>1017.6</ele>
        <time>2020-07-14T07:50:25Z</time>
      </trkpt>
      <trkpt lat="37.8444110" lon="-2.5884880">
        <ele>1018.6</ele>
        <time>2020-07-14T07:50:30Z</time>
      </trkpt>
      <trkpt lat="37.8446410" lon="-2.5885280">
        <ele>1019.6</ele>
        <time>2020-07-14T07:50:37Z</time>
      </trkpt>
      <trkpt lat="37.8447000" lon="-2.5885450">
        <ele>1020.0</ele>
        <time>2020-07-14T07:50:39Z</time>
      </trkpt>
      <trkpt lat="37.8448200" lon="-2.5886030">
        <ele>1020.8</ele>
        <time>2020-07-14T07:50:43Z</time>
      </trkpt>
      <trkpt lat="37.8449080" lon="-2.5886570">
        <ele>1021.2</ele>
        <time>2020-07-14T07:50:46Z</time>
      </trkpt>
      <trkpt lat="37.8450260" lon="-2.5887340">
        <ele>1021.8</ele>
        <time>2020-07-14T07:50:50Z</time>
      </trkpt>
      <trkpt lat="37.8452400" lon="-2.5888490">
        <ele>1023.0</ele>
        <time>2020-07-14T07:50:57Z</time>
      </trkpt>
      <trkpt lat="37.8452760" lon="-2.5888570">
        <ele>1023.0</ele>
        <time>2020-07-14T07:50:58Z</time>
      </trkpt>
      <trkpt lat="37.8454490" lon="-2.5888330">
        <ele>1023.8</ele>
        <time>2020-07-14T07:51:03Z</time>
      </trkpt>
      <trkpt lat="37.8455120" lon="-2.5887950">
        <ele>1024.0</ele>
        <time>2020-07-14T07:51:05Z</time>
      </trkpt>
      <trkpt lat="37.8456560" lon="-2.5887060">
        <ele>1025.2</ele>
        <time>2020-07-14T07:51:10Z</time>
      </trkpt>
      <trkpt lat="37.8456860" lon="-2.5886910">
        <ele>1025.4</ele>
        <time>2020-07-14T07:51:11Z</time>
      </trkpt>
      <trkpt lat="37.8457840" lon="-2.5886540">
        <ele>1026.2</ele>
        <time>2020-07-14T07:51:14Z</time>
      </trkpt>
      <trkpt lat="37.8458970" lon="-2.5886320">
        <ele>1026.8</ele>
        <time>2020-07-14T07:51:17Z</time>
      </trkpt>
      <trkpt lat="37.8460080" lon="-2.5886320">
        <ele>1027.2</ele>
        <time>2020-07-14T07:51:20Z</time>
      </trkpt>
      <trkpt lat="37.8462300" lon="-2.5886560">
        <ele>1027.8</ele>
        <time>2020-07-14T07:51:26Z</time>
      </trkpt>
      <trkpt lat="37.8463370" lon="-2.5886720">
        <ele>1028.4</ele>
        <time>2020-07-14T07:51:29Z</time>
      </trkpt>
      <trkpt lat="37.8465650" lon="-2.5887080">
        <ele>1029.2</ele>
        <time>2020-07-14T07:51:35Z</time>
      </trkpt>
      <trkpt lat="37.8466060" lon="-2.5887140">
        <ele>1029.4</ele>
        <time>2020-07-14T07:51:36Z</time>
      </trkpt>
      <trkpt lat="37.8466470" lon="-2.5887210">
        <ele>1029.4</ele>
        <time>2020-07-14T07:51:37Z</time>
      </trkpt>
      <trkpt lat="37.8470470" lon="-2.5887780">
        <ele>1029.8</ele>
        <time>2020-07-14T07:51:46Z</time>
      </trkpt>
      <trkpt lat="37.8472800" lon="-2.5888030">
        <ele>1029.8</ele>
        <time>2020-07-14T07:51:51Z</time>
      </trkpt>
      <trkpt lat="37.8475610" lon="-2.5888400">
        <ele>1030.2</ele>
        <time>2020-07-14T07:51:57Z</time>
      </trkpt>
      <trkpt lat="37.8476580" lon="-2.5888540">
        <ele>1030.4</ele>
        <time>2020-07-14T07:51:59Z</time>
      </trkpt>
      <trkpt lat="37.8478980" lon="-2.5888820">
        <ele>1030.6</ele>
        <time>2020-07-14T07:52:04Z</time>
      </trkpt>
      <trkpt lat="37.8481350" lon="-2.5889130">
        <ele>1030.8</ele>
        <time>2020-07-14T07:52:09Z</time>
      </trkpt>
      <trkpt lat="37.8483800" lon="-2.5889500">
        <ele>1031.0</ele>
        <time>2020-07-14T07:52:14Z</time>
      </trkpt>
      <trkpt lat="37.8486750" lon="-2.5889910">
        <ele>1031.4</ele>
        <time>2020-07-14T07:52:20Z</time>
      </trkpt>
      <trkpt lat="37.8487180" lon="-2.5889970">
        <ele>1031.4</ele>
        <time>2020-07-14T07:52:21Z</time>
      </trkpt>
      <trkpt lat="37.8489920" lon="-2.5890310">
        <ele>1032.0</ele>
        <time>2020-07-14T07:52:27Z</time>
      </trkpt>
      <trkpt lat="37.8491220" lon="-2.5890490">
        <ele>1032.4</ele>
        <time>2020-07-14T07:52:30Z</time>
      </trkpt>
      <trkpt lat="37.8492820" lon="-2.5890710">
        <ele>1033.2</ele>
        <time>2020-07-14T07:52:34Z</time>
      </trkpt>
      <trkpt lat="37.8494040" lon="-2.5890890">
        <ele>1033.6</ele>
        <time>2020-07-14T07:52:37Z</time>
      </trkpt>
      <trkpt lat="37.8494790" lon="-2.5890970">
        <ele>1034.0</ele>
        <time>2020-07-14T07:52:39Z</time>
      </trkpt>
      <trkpt lat="37.8496380" lon="-2.5891180">
        <ele>1034.6</ele>
        <time>2020-07-14T07:52:43Z</time>
      </trkpt>
      <trkpt lat="37.8498330" lon="-2.5891460">
        <ele>1035.6</ele>
        <time>2020-07-14T07:52:48Z</time>
      </trkpt>
      <trkpt lat="37.8498720" lon="-2.5891490">
        <ele>1035.8</ele>
        <time>2020-07-14T07:52:49Z</time>
      </trkpt>
      <trkpt lat="37.8501880" lon="-2.5891770">
        <ele>1036.2</ele>
        <time>2020-07-14T07:52:57Z</time>
      </trkpt>
      <trkpt lat="37.8502620" lon="-2.5891850">
        <ele>1036.6</ele>
        <time>2020-07-14T07:52:59Z</time>
      </trkpt>
      <trkpt lat="37.8503010" lon="-2.5891880">
        <ele>1036.8</ele>
        <time>2020-07-14T07:53:00Z</time>
      </trkpt>
      <trkpt lat="37.8504440" lon="-2.5892050">
        <ele>1037.8</ele>
        <time>2020-07-14T07:53:04Z</time>
      </trkpt>
      <trkpt lat="37.8505970" lon="-2.5892260">
        <ele>1038.2</ele>
        <time>2020-07-14T07:53:08Z</time>
      </trkpt>
      <trkpt lat="37.8507840" lon="-2.5892510">
        <ele>1039.0</ele>
        <time>2020-07-14T07:53:13Z</time>
      </trkpt>
      <trkpt lat="37.8509680" lon="-2.5892800">
        <ele>1039.8</ele>
        <time>2020-07-14T07:53:18Z</time>
      </trkpt>
      <trkpt lat="37.8510820" lon="-2.5892960">
        <ele>1040.0</ele>
        <time>2020-07-14T07:53:21Z</time>
      </trkpt>
      <trkpt lat="37.8513350" lon="-2.5893320">
        <ele>1040.8</ele>
        <time>2020-07-14T07:53:27Z</time>
      </trkpt>
      <trkpt lat="37.8514680" lon="-2.5893500">
        <ele>1041.4</ele>
        <time>2020-07-14T07:53:30Z</time>
      </trkpt>
      <trkpt lat="37.8517690" lon="-2.5893910">
        <ele>1041.2</ele>
        <time>2020-07-14T07:53:37Z</time>
      </trkpt>
      <trkpt lat="37.8519690" lon="-2.5894160">
        <ele>1042.0</ele>
        <time>2020-07-14T07:53:42Z</time>
      </trkpt>
      <trkpt lat="37.8520430" lon="-2.5894230">
        <ele>1042.4</ele>
        <time>2020-07-14T07:53:44Z</time>
      </trkpt>
      <trkpt lat="37.8520830" lon="-2.5894290">
        <ele>1042.8</ele>
        <time>2020-07-14T07:53:45Z</time>
      </trkpt>
      <trkpt lat="37.8524860" lon="-2.5894830">
        <ele>1043.6</ele>
        <time>2020-07-14T07:53:54Z</time>
      </trkpt>
      <trkpt lat="37.8528700" lon="-2.5895470">
        <ele>1044.0</ele>
        <time>2020-07-14T07:54:02Z</time>
      </trkpt>
      <trkpt lat="37.8533030" lon="-2.5897480">
        <ele>1044.0</ele>
        <time>2020-07-14T07:54:11Z</time>
      </trkpt>
      <trkpt lat="37.8535870" lon="-2.5898970">
        <ele>1044.2</ele>
        <time>2020-07-14T07:54:17Z</time>
      </trkpt>
      <trkpt lat="37.8538200" lon="-2.5900120">
        <ele>1044.2</ele>
        <time>2020-07-14T07:54:22Z</time>
      </trkpt>
      <trkpt lat="37.8541460" lon="-2.5901750">
        <ele>1044.6</ele>
        <time>2020-07-14T07:54:29Z</time>
      </trkpt>
      <trkpt lat="37.8543780" lon="-2.5903080">
        <ele>1044.8</ele>
        <time>2020-07-14T07:54:34Z</time>
      </trkpt>
      <trkpt lat="37.8548880" lon="-2.5905650">
        <ele>1045.0</ele>
        <time>2020-07-14T07:54:44Z</time>
      </trkpt>
      <trkpt lat="37.8551860" lon="-2.5907420">
        <ele>1045.0</ele>
        <time>2020-07-14T07:54:50Z</time>
      </trkpt>
      <trkpt lat="37.8553220" lon="-2.5908510">
        <ele>1045.4</ele>
        <time>2020-07-14T07:54:53Z</time>
      </trkpt>
      <trkpt lat="37.8556720" lon="-2.5912240">
        <ele>1045.4</ele>
        <time>2020-07-14T07:55:01Z</time>
      </trkpt>
      <trkpt lat="37.8560770" lon="-2.5916980">
        <ele>1044.2</ele>
        <time>2020-07-14T07:55:10Z</time>
      </trkpt>
      <trkpt lat="37.8561220" lon="-2.5917510">
        <ele>1044.2</ele>
        <time>2020-07-14T07:55:11Z</time>
      </trkpt>
      <trkpt lat="37.8564430" lon="-2.5921120">
        <ele>1044.4</ele>
        <time>2020-07-14T07:55:18Z</time>
      </trkpt>
      <trkpt lat="37.8565350" lon="-2.5922070">
        <ele>1044.2</ele>
        <time>2020-07-14T07:55:20Z</time>
      </trkpt>
      <trkpt lat="37.8565810" lon="-2.5922450">
        <ele>1044.2</ele>
        <time>2020-07-14T07:55:21Z</time>
      </trkpt>
      <trkpt lat="37.8567440" lon="-2.5923240">
        <ele>1044.6</ele>
        <time>2020-07-14T07:55:24Z</time>
      </trkpt>
      <trkpt lat="37.8569730" lon="-2.5923140">
        <ele>1045.0</ele>
        <time>2020-07-14T07:55:28Z</time>
      </trkpt>
      <trkpt lat="37.8573490" lon="-2.5922060">
        <ele>1045.2</ele>
        <time>2020-07-14T07:55:35Z</time>
      </trkpt>
      <trkpt lat="37.8574520" lon="-2.5921820">
        <ele>1045.6</ele>
        <time>2020-07-14T07:55:37Z</time>
      </trkpt>
      <trkpt lat="37.8575010" lon="-2.5921710">
        <ele>1045.8</ele>
        <time>2020-07-14T07:55:38Z</time>
      </trkpt>
      <trkpt lat="37.8577300" lon="-2.5921060">
        <ele>1046.6</ele>
        <time>2020-07-14T07:55:43Z</time>
      </trkpt>
      <trkpt lat="37.8577720" lon="-2.5920950">
        <ele>1046.8</ele>
        <time>2020-07-14T07:55:44Z</time>
      </trkpt>
      <trkpt lat="37.8579520" lon="-2.5920550">
        <ele>1047.2</ele>
        <time>2020-07-14T07:55:48Z</time>
      </trkpt>
      <trkpt lat="37.8581240" lon="-2.5920170">
        <ele>1048.0</ele>
        <time>2020-07-14T07:55:52Z</time>
      </trkpt>
      <trkpt lat="37.8581670" lon="-2.5920100">
        <ele>1048.2</ele>
        <time>2020-07-14T07:55:53Z</time>
      </trkpt>
      <trkpt lat="37.8583730" lon="-2.5919740">
        <ele>1049.2</ele>
        <time>2020-07-14T07:55:58Z</time>
      </trkpt>
      <trkpt lat="37.8585360" lon="-2.5919480">
        <ele>1050.2</ele>
        <time>2020-07-14T07:56:02Z</time>
      </trkpt>
      <trkpt lat="37.8587890" lon="-2.5919490">
        <ele>1051.2</ele>
        <time>2020-07-14T07:56:08Z</time>
      </trkpt>
      <trkpt lat="37.8588750" lon="-2.5919720">
        <ele>1051.6</ele>
        <time>2020-07-14T07:56:10Z</time>
      </trkpt>
      <trkpt lat="37.8591130" lon="-2.5920970">
        <ele>1052.2</ele>
        <time>2020-07-14T07:56:16Z</time>
      </trkpt>
      <trkpt lat="37.8591520" lon="-2.5921220">
        <ele>1052.4</ele>
        <time>2020-07-14T07:56:17Z</time>
      </trkpt>
      <trkpt lat="37.8591910" lon="-2.5921460">
        <ele>1052.6</ele>
        <time>2020-07-14T07:56:18Z</time>
      </trkpt>
      <trkpt lat="37.8593870" lon="-2.5922770">
        <ele>1053.4</ele>
        <time>2020-07-14T07:56:23Z</time>
      </trkpt>
      <trkpt lat="37.8595900" lon="-2.5924130">
        <ele>1053.6</ele>
        <time>2020-07-14T07:56:28Z</time>
      </trkpt>
      <trkpt lat="37.8600430" lon="-2.5927260">
        <ele>1054.4</ele>
        <time>2020-07-14T07:56:39Z</time>
      </trkpt>
      <trkpt lat="37.8603240" lon="-2.5929160">
        <ele>1054.8</ele>
        <time>2020-07-14T07:56:45Z</time>
      </trkpt>
      <trkpt lat="37.8605220" lon="-2.5930480">
        <ele>1054.4</ele>
        <time>2020-07-14T07:56:49Z</time>
      </trkpt>
      <trkpt lat="37.8607330" lon="-2.5931910">
        <ele>1053.8</ele>
        <time>2020-07-14T07:56:53Z</time>
      </trkpt>
      <trkpt lat="37.8608860" lon="-2.5932980">
        <ele>1053.8</ele>
        <time>2020-07-14T07:56:56Z</time>
      </trkpt>
      <trkpt lat="37.8610380" lon="-2.5934040">
        <ele>1053.6</ele>
        <time>2020-07-14T07:56:59Z</time>
      </trkpt>
      <trkpt lat="37.8611440" lon="-2.5934780">
        <ele>1053.8</ele>
        <time>2020-07-14T07:57:01Z</time>
      </trkpt>
      <trkpt lat="37.8612890" lon="-2.5935770">
        <ele>1054.2</ele>
        <time>2020-07-14T07:57:04Z</time>
      </trkpt>
      <trkpt lat="37.8614770" lon="-2.5936980">
        <ele>1053.8</ele>
        <time>2020-07-14T07:57:08Z</time>
      </trkpt>
      <trkpt lat="37.8617230" lon="-2.5938780">
        <ele>1054.8</ele>
        <time>2020-07-14T07:57:14Z</time>
      </trkpt>
      <trkpt lat="37.8618030" lon="-2.5939440">
        <ele>1055.4</ele>
        <time>2020-07-14T07:57:16Z</time>
      </trkpt>
      <trkpt lat="37.8618780" lon="-2.5940120">
        <ele>1055.8</ele>
        <time>2020-07-14T07:57:18Z</time>
      </trkpt>
      <trkpt lat="37.8619800" lon="-2.5941130">
        <ele>1056.0</ele>
        <time>2020-07-14T07:57:21Z</time>
      </trkpt>
      <trkpt lat="37.8621210" lon="-2.5942470">
        <ele>1056.8</ele>
        <time>2020-07-14T07:57:25Z</time>
      </trkpt>
      <trkpt lat="37.8622260" lon="-2.5943430">
        <ele>1057.8</ele>
        <time>2020-07-14T07:57:28Z</time>
      </trkpt>
      <trkpt lat="37.8622580" lon="-2.5943730">
        <ele>1057.8</ele>
        <time>2020-07-14T07:57:29Z</time>
      </trkpt>
      <trkpt lat="37.8624960" lon="-2.5946090">
        <ele>1058.6</ele>
        <time>2020-07-14T07:57:36Z</time>
      </trkpt>
      <trkpt lat="37.8625310" lon="-2.5946400">
        <ele>1059.0</ele>
        <time>2020-07-14T07:57:37Z</time>
      </trkpt>
      <trkpt lat="37.8627070" lon="-2.5947950">
        <ele>1059.4</ele>
        <time>2020-07-14T07:57:42Z</time>
      </trkpt>
      <trkpt lat="37.8628500" lon="-2.5949320">
        <ele>1059.8</ele>
        <time>2020-07-14T07:57:46Z</time>
      </trkpt>
      <trkpt lat="37.8629230" lon="-2.5950010">
        <ele>1060.0</ele>
        <time>2020-07-14T07:57:48Z</time>
      </trkpt>
      <trkpt lat="37.8632140" lon="-2.5952880">
        <ele>1060.6</ele>
        <time>2020-07-14T07:57:56Z</time>
      </trkpt>
      <trkpt lat="37.8634230" lon="-2.5954780">
        <ele>1060.8</ele>
        <time>2020-07-14T07:58:01Z</time>
      </trkpt>
      <trkpt lat="37.8635550" lon="-2.5955960">
        <ele>1060.6</ele>
        <time>2020-07-14T07:58:04Z</time>
      </trkpt>
      <trkpt lat="37.8637430" lon="-2.5957790">
        <ele>1060.2</ele>
        <time>2020-07-14T07:58:08Z</time>
      </trkpt>
      <trkpt lat="37.8639390" lon="-2.5959710">
        <ele>1060.0</ele>
        <time>2020-07-14T07:58:12Z</time>
      </trkpt>
      <trkpt lat="37.8641460" lon="-2.5961760">
        <ele>1059.4</ele>
        <time>2020-07-14T07:58:16Z</time>
      </trkpt>
      <trkpt lat="37.8642560" lon="-2.5962770">
        <ele>1059.0</ele>
        <time>2020-07-14T07:58:18Z</time>
      </trkpt>
      <trkpt lat="37.8644170" lon="-2.5964200">
        <ele>1059.2</ele>
        <time>2020-07-14T07:58:21Z</time>
      </trkpt>
      <trkpt lat="37.8646840" lon="-2.5966730">
        <ele>1058.8</ele>
        <time>2020-07-14T07:58:26Z</time>
      </trkpt>
      <trkpt lat="37.8648910" lon="-2.5968650">
        <ele>1058.8</ele>
        <time>2020-07-14T07:58:30Z</time>
      </trkpt>
      <trkpt lat="37.8653440" lon="-2.5972970">
        <ele>1058.8</ele>
        <time>2020-07-14T07:58:39Z</time>
      </trkpt>
      <trkpt lat="37.8654440" lon="-2.5973890">
        <ele>1059.0</ele>
        <time>2020-07-14T07:58:41Z</time>
      </trkpt>
      <trkpt lat="37.8658780" lon="-2.5978050">
        <ele>1059.0</ele>
        <time>2020-07-14T07:58:50Z</time>
      </trkpt>
      <trkpt lat="37.8659740" lon="-2.5978960">
        <ele>1059.2</ele>
        <time>2020-07-14T07:58:52Z</time>
      </trkpt>
      <trkpt lat="37.8663480" lon="-2.5982510">
        <ele>1060.2</ele>
        <time>2020-07-14T07:59:00Z</time>
      </trkpt>
      <trkpt lat="37.8665310" lon="-2.5984090">
        <ele>1060.4</ele>
        <time>2020-07-14T07:59:04Z</time>
      </trkpt>
      <trkpt lat="37.8669720" lon="-2.5988400">
        <ele>1060.8</ele>
        <time>2020-07-14T07:59:14Z</time>
      </trkpt>
      <trkpt lat="37.8674150" lon="-2.5992630">
        <ele>1060.8</ele>
        <time>2020-07-14T07:59:24Z</time>
      </trkpt>
      <trkpt lat="37.8676760" lon="-2.5995070">
        <ele>1061.2</ele>
        <time>2020-07-14T07:59:30Z</time>
      </trkpt>
      <trkpt lat="37.8677980" lon="-2.5996290">
        <ele>1061.6</ele>
        <time>2020-07-14T07:59:33Z</time>
      </trkpt>
      <trkpt lat="37.8680940" lon="-2.5999070">
        <ele>1061.6</ele>
        <time>2020-07-14T07:59:40Z</time>
      </trkpt>
      <trkpt lat="37.8684490" lon="-2.6002570">
        <ele>1062.2</ele>
        <time>2020-07-14T07:59:49Z</time>
      </trkpt>
      <trkpt lat="37.8685310" lon="-2.6003330">
        <ele>1062.8</ele>
        <time>2020-07-14T07:59:51Z</time>
      </trkpt>
      <trkpt lat="37.8688520" lon="-2.6006390">
        <ele>1063.0</ele>
        <time>2020-07-14T07:59:59Z</time>
      </trkpt>
      <trkpt lat="37.8688950" lon="-2.6006800">
        <ele>1063.2</ele>
        <time>2020-07-14T08:00:00Z</time>
      </trkpt>
      <trkpt lat="37.8691410" lon="-2.6008970">
        <ele>1063.6</ele>
        <time>2020-07-14T08:00:06Z</time>
      </trkpt>
      <trkpt lat="37.8695060" lon="-2.6012320">
        <ele>1064.0</ele>
        <time>2020-07-14T08:00:15Z</time>
      </trkpt>
      <trkpt lat="37.8696720" lon="-2.6013880">
        <ele>1064.4</ele>
        <time>2020-07-14T08:00:19Z</time>
      </trkpt>
      <trkpt lat="37.8698440" lon="-2.6015540">
        <ele>1064.6</ele>
        <time>2020-07-14T08:00:23Z</time>
      </trkpt>
      <trkpt lat="37.8698830" lon="-2.6015920">
        <ele>1064.8</ele>
        <time>2020-07-14T08:00:24Z</time>
      </trkpt>
      <trkpt lat="37.8700970" lon="-2.6017950">
        <ele>1065.4</ele>
        <time>2020-07-14T08:00:29Z</time>
      </trkpt>
      <trkpt lat="37.8701850" lon="-2.6018800">
        <ele>1065.8</ele>
        <time>2020-07-14T08:00:31Z</time>
      </trkpt>
      <trkpt lat="37.8705940" lon="-2.6022740">
        <ele>1065.8</ele>
        <time>2020-07-14T08:00:41Z</time>
      </trkpt>
      <trkpt lat="37.8706330" lon="-2.6023110">
        <ele>1065.8</ele>
        <time>2020-07-14T08:00:42Z</time>
      </trkpt>
      <trkpt lat="37.8708330" lon="-2.6024970">
        <ele>1066.6</ele>
        <time>2020-07-14T08:00:47Z</time>
      </trkpt>
      <trkpt lat="37.8709910" lon="-2.6026420">
        <ele>1066.8</ele>
        <time>2020-07-14T08:00:51Z</time>
      </trkpt>
      <trkpt lat="37.8713830" lon="-2.6030200">
        <ele>1067.8</ele>
        <time>2020-07-14T08:01:01Z</time>
      </trkpt>
      <trkpt lat="37.8714560" lon="-2.6030860">
        <ele>1067.8</ele>
        <time>2020-07-14T08:01:03Z</time>
      </trkpt>
      <trkpt lat="37.8716850" lon="-2.6033160">
        <ele>1069.0</ele>
        <time>2020-07-14T08:01:10Z</time>
      </trkpt>
      <trkpt lat="37.8717140" lon="-2.6033430">
        <ele>1069.0</ele>
        <time>2020-07-14T08:01:11Z</time>
      </trkpt>
      <trkpt lat="37.8718830" lon="-2.6035010">
        <ele>1070.2</ele>
        <time>2020-07-14T08:01:17Z</time>
      </trkpt>
      <trkpt lat="37.8719860" lon="-2.6036060">
        <ele>1071.2</ele>
        <time>2020-07-14T08:01:21Z</time>
      </trkpt>
      <trkpt lat="37.8720130" lon="-2.6036330">
        <ele>1071.4</ele>
        <time>2020-07-14T08:01:22Z</time>
      </trkpt>
      <trkpt lat="37.8721150" lon="-2.6037280">
        <ele>1072.4</ele>
        <time>2020-07-14T08:01:26Z</time>
      </trkpt>
      <trkpt lat="37.8722360" lon="-2.6038460">
        <ele>1073.4</ele>
        <time>2020-07-14T08:01:31Z</time>
      </trkpt>
      <trkpt lat="37.8723580" lon="-2.6039680">
        <ele>1074.6</ele>
        <time>2020-07-14T08:01:36Z</time>
      </trkpt>
      <trkpt lat="37.8724590" lon="-2.6040610">
        <ele>1075.6</ele>
        <time>2020-07-14T08:01:40Z</time>
      </trkpt>
      <trkpt lat="37.8726070" lon="-2.6041810">
        <ele>1076.8</ele>
        <time>2020-07-14T08:01:46Z</time>
      </trkpt>
      <trkpt lat="37.8726280" lon="-2.6042020">
        <ele>1077.0</ele>
        <time>2020-07-14T08:01:47Z</time>
      </trkpt>
      <trkpt lat="37.8726950" lon="-2.6042640">
        <ele>1077.8</ele>
        <time>2020-07-14T08:01:50Z</time>
      </trkpt>
      <trkpt lat="37.8728350" lon="-2.6044070">
        <ele>1079.0</ele>
        <time>2020-07-14T08:01:57Z</time>
      </trkpt>
      <trkpt lat="37.8729550" lon="-2.6045320">
        <ele>1080.2</ele>
        <time>2020-07-14T08:02:03Z</time>
      </trkpt>
      <trkpt lat="37.8730130" lon="-2.6045970">
        <ele>1080.6</ele>
        <time>2020-07-14T08:02:06Z</time>
      </trkpt>
      <trkpt lat="37.8730740" lon="-2.6046480">
        <ele>1081.2</ele>
        <time>2020-07-14T08:02:09Z</time>
      </trkpt>
      <trkpt lat="37.8731770" lon="-2.6047430">
        <ele>1082.0</ele>
        <time>2020-07-14T08:02:14Z</time>
      </trkpt>
      <trkpt lat="37.8732200" lon="-2.6047820">
        <ele>1082.4</ele>
        <time>2020-07-14T08:02:16Z</time>
      </trkpt>
      <trkpt lat="37.8733030" lon="-2.6048610">
        <ele>1083.4</ele>
        <time>2020-07-14T08:02:20Z</time>
      </trkpt>
      <trkpt lat="37.8733860" lon="-2.6049380">
        <ele>1084.0</ele>
        <time>2020-07-14T08:02:24Z</time>
      </trkpt>
      <trkpt lat="37.8734520" lon="-2.6049900">
        <ele>1084.6</ele>
        <time>2020-07-14T08:02:27Z</time>
      </trkpt>
      <trkpt lat="37.8735570" lon="-2.6050880">
        <ele>1085.6</ele>
        <time>2020-07-14T08:02:32Z</time>
      </trkpt>
      <trkpt lat="37.8736420" lon="-2.6051680">
        <ele>1086.6</ele>
        <time>2020-07-14T08:02:36Z</time>
      </trkpt>
      <trkpt lat="37.8738090" lon="-2.6053370">
        <ele>1087.8</ele>
        <time>2020-07-14T08:02:44Z</time>
      </trkpt>
      <trkpt lat="37.8739180" lon="-2.6054430">
        <ele>1089.0</ele>
        <time>2020-07-14T08:02:49Z</time>
      </trkpt>
      <trkpt lat="37.8741010" lon="-2.6056160">
        <ele>1090.0</ele>
        <time>2020-07-14T08:02:56Z</time>
      </trkpt>
      <trkpt lat="37.8741630" lon="-2.6056750">
        <ele>1090.2</ele>
        <time>2020-07-14T08:02:58Z</time>
      </trkpt>
      <trkpt lat="37.8743340" lon="-2.6058370">
        <ele>1090.2</ele>
        <time>2020-07-14T08:03:03Z</time>
      </trkpt>
      <trkpt lat="37.8744880" lon="-2.6059820">
        <ele>1090.0</ele>
        <time>2020-07-14T08:03:07Z</time>
      </trkpt>
      <trkpt lat="37.8746560" lon="-2.6061310">
        <ele>1089.8</ele>
        <time>2020-07-14T08:03:11Z</time>
      </trkpt>
      <trkpt lat="37.8747810" lon="-2.6062520">
        <ele>1089.4</ele>
        <time>2020-07-14T08:03:14Z</time>
      </trkpt>
      <trkpt lat="37.8748250" lon="-2.6062930">
        <ele>1089.2</ele>
        <time>2020-07-14T08:03:15Z</time>
      </trkpt>
      <trkpt lat="37.8749580" lon="-2.6064220">
        <ele>1089.2</ele>
        <time>2020-07-14T08:03:18Z</time>
      </trkpt>
      <trkpt lat="37.8750850" lon="-2.6065520">
        <ele>1089.2</ele>
        <time>2020-07-14T08:03:21Z</time>
      </trkpt>
      <trkpt lat="37.8751770" lon="-2.6066360">
        <ele>1089.2</ele>
        <time>2020-07-14T08:03:23Z</time>
      </trkpt>
      <trkpt lat="37.8752210" lon="-2.6066770">
        <ele>1088.8</ele>
        <time>2020-07-14T08:03:24Z</time>
      </trkpt>
      <trkpt lat="37.8754040" lon="-2.6068590">
        <ele>1088.8</ele>
        <time>2020-07-14T08:03:28Z</time>
      </trkpt>
      <trkpt lat="37.8755890" lon="-2.6070350">
        <ele>1088.6</ele>
        <time>2020-07-14T08:03:32Z</time>
      </trkpt>
      <trkpt lat="37.8759140" lon="-2.6073330">
        <ele>1088.8</ele>
        <time>2020-07-14T08:03:39Z</time>
      </trkpt>
      <trkpt lat="37.8761780" lon="-2.6075880">
        <ele>1088.6</ele>
        <time>2020-07-14T08:03:45Z</time>
      </trkpt>
      <trkpt lat="37.8763760" lon="-2.6077830">
        <ele>1089.8</ele>
        <time>2020-07-14T08:03:50Z</time>
      </trkpt>
      <trkpt lat="37.8764150" lon="-2.6078200">
        <ele>1089.8</ele>
        <time>2020-07-14T08:03:51Z</time>
      </trkpt>
      <trkpt lat="37.8764940" lon="-2.6078990">
        <ele>1089.8</ele>
        <time>2020-07-14T08:03:53Z</time>
      </trkpt>
      <trkpt lat="37.8767130" lon="-2.6081040">
        <ele>1090.8</ele>
        <time>2020-07-14T08:03:59Z</time>
      </trkpt>
      <trkpt lat="37.8768200" lon="-2.6082090">
        <ele>1091.8</ele>
        <time>2020-07-14T08:04:02Z</time>
      </trkpt>
      <trkpt lat="37.8768510" lon="-2.6082400">
        <ele>1092.0</ele>
        <time>2020-07-14T08:04:03Z</time>
      </trkpt>
      <trkpt lat="37.8770650" lon="-2.6084200">
        <ele>1092.4</ele>
        <time>2020-07-14T08:04:09Z</time>
      </trkpt>
      <trkpt lat="37.8770960" lon="-2.6084530">
        <ele>1092.6</ele>
        <time>2020-07-14T08:04:10Z</time>
      </trkpt>
      <trkpt lat="37.8771290" lon="-2.6084850">
        <ele>1093.0</ele>
        <time>2020-07-14T08:04:11Z</time>
      </trkpt>
      <trkpt lat="37.8772910" lon="-2.6086450">
        <ele>1093.8</ele>
        <time>2020-07-14T08:04:16Z</time>
      </trkpt>
      <trkpt lat="37.8773800" lon="-2.6087310">
        <ele>1094.2</ele>
        <time>2020-07-14T08:04:19Z</time>
      </trkpt>
      <trkpt lat="37.8775900" lon="-2.6089360">
        <ele>1095.4</ele>
        <time>2020-07-14T08:04:26Z</time>
      </trkpt>
      <trkpt lat="37.8777940" lon="-2.6091340">
        <ele>1096.4</ele>
        <time>2020-07-14T08:04:33Z</time>
      </trkpt>
      <trkpt lat="37.8779090" lon="-2.6092470">
        <ele>1097.0</ele>
        <time>2020-07-14T08:04:37Z</time>
      </trkpt>
      <trkpt lat="37.8779970" lon="-2.6093240">
        <ele>1097.4</ele>
        <time>2020-07-14T08:04:40Z</time>
      </trkpt>
      <trkpt lat="37.8782240" lon="-2.6095470">
        <ele>1098.4</ele>
        <time>2020-07-14T08:04:48Z</time>
      </trkpt>
      <trkpt lat="37.8782810" lon="-2.6096010">
        <ele>1098.8</ele>
        <time>2020-07-14T08:04:50Z</time>
      </trkpt>
      <trkpt lat="37.8783890" lon="-2.6097100">
        <ele>1099.4</ele>
        <time>2020-07-14T08:04:54Z</time>
      </trkpt>
      <trkpt lat="37.8785810" lon="-2.6098880">
        <ele>1100.4</ele>
        <time>2020-07-14T08:05:01Z</time>
      </trkpt>
      <trkpt lat="37.8786080" lon="-2.6099110">
        <ele>1100.6</ele>
        <time>2020-07-14T08:05:02Z</time>
      </trkpt>
      <trkpt lat="37.8787670" lon="-2.6100620">
        <ele>1101.6</ele>
        <time>2020-07-14T08:05:08Z</time>
      </trkpt>
      <trkpt lat="37.8788970" lon="-2.6101890">
        <ele>1102.4</ele>
        <time>2020-07-14T08:05:13Z</time>
      </trkpt>
      <trkpt lat="37.8789750" lon="-2.6102630">
        <ele>1102.8</ele>
        <time>2020-07-14T08:05:16Z</time>
      </trkpt>
      <trkpt lat="37.8791070" lon="-2.6103850">
        <ele>1103.4</ele>
        <time>2020-07-14T08:05:21Z</time>
      </trkpt>
      <trkpt lat="37.8791900" lon="-2.6104670">
        <ele>1103.8</ele>
        <time>2020-07-14T08:05:24Z</time>
      </trkpt>
      <trkpt lat="37.8793250" lon="-2.6106060">
        <ele>1104.6</ele>
        <time>2020-07-14T08:05:29Z</time>
      </trkpt>
      <trkpt lat="37.8793840" lon="-2.6106590">
        <ele>1105.0</ele>
        <time>2020-07-14T08:05:31Z</time>
      </trkpt>
      <trkpt lat="37.8794120" lon="-2.6106840">
        <ele>1105.2</ele>
        <time>2020-07-14T08:05:32Z</time>
      </trkpt>
      <trkpt lat="37.8795920" lon="-2.6108380">
        <ele>1106.0</ele>
        <time>2020-07-14T08:05:38Z</time>
      </trkpt>
      <trkpt lat="37.8796760" lon="-2.6109200">
        <ele>1106.6</ele>
        <time>2020-07-14T08:05:41Z</time>
      </trkpt>
      <trkpt lat="37.8797840" lon="-2.6110270">
        <ele>1107.2</ele>
        <time>2020-07-14T08:05:45Z</time>
      </trkpt>
      <trkpt lat="37.8799170" lon="-2.6111640">
        <ele>1107.8</ele>
        <time>2020-07-14T08:05:50Z</time>
      </trkpt>
      <trkpt lat="37.8799990" lon="-2.6112370">
        <ele>1108.2</ele>
        <time>2020-07-14T08:05:53Z</time>
      </trkpt>
      <trkpt lat="37.8801610" lon="-2.6113750">
        <ele>1109.2</ele>
        <time>2020-07-14T08:05:59Z</time>
      </trkpt>
      <trkpt lat="37.8801890" lon="-2.6114030">
        <ele>1109.4</ele>
        <time>2020-07-14T08:06:00Z</time>
      </trkpt>
      <trkpt lat="37.8803930" lon="-2.6116140">
        <ele>1110.6</ele>
        <time>2020-07-14T08:06:08Z</time>
      </trkpt>
      <trkpt lat="37.8805690" lon="-2.6117860">
        <ele>1111.6</ele>
        <time>2020-07-14T08:06:15Z</time>
      </trkpt>
      <trkpt lat="37.8806400" lon="-2.6118630">
        <ele>1112.2</ele>
        <time>2020-07-14T08:06:18Z</time>
      </trkpt>
      <trkpt lat="37.8806940" lon="-2.6119010">
        <ele>1112.6</ele>
        <time>2020-07-14T08:06:20Z</time>
      </trkpt>
      <trkpt lat="37.8807920" lon="-2.6119860">
        <ele>1113.6</ele>
        <time>2020-07-14T08:06:24Z</time>
      </trkpt>
      <trkpt lat="37.8808180" lon="-2.6120080">
        <ele>1113.6</ele>
        <time>2020-07-14T08:06:25Z</time>
      </trkpt>
      <trkpt lat="37.8809580" lon="-2.6121340">
        <ele>1114.8</ele>
        <time>2020-07-14T08:06:31Z</time>
      </trkpt>
      <trkpt lat="37.8810220" lon="-2.6122020">
        <ele>1115.4</ele>
        <time>2020-07-14T08:06:34Z</time>
      </trkpt>
      <trkpt lat="37.8810710" lon="-2.6122410">
        <ele>1115.8</ele>
        <time>2020-07-14T08:06:36Z</time>
      </trkpt>
      <trkpt lat="37.8811830" lon="-2.6123540">
        <ele>1117.0</ele>
        <time>2020-07-14T08:06:41Z</time>
      </trkpt>
      <trkpt lat="37.8812740" lon="-2.6124370">
        <ele>1118.2</ele>
        <time>2020-07-14T08:06:45Z</time>
      </trkpt>
      <trkpt lat="37.8813960" lon="-2.6125410">
        <ele>1119.0</ele>
        <time>2020-07-14T08:06:50Z</time>
      </trkpt>
      <trkpt lat="37.8814780" lon="-2.6126030">
        <ele>1119.2</ele>
        <time>2020-07-14T08:06:54Z</time>
      </trkpt>
      <trkpt lat="37.8816150" lon="-2.6126930">
        <ele>1120.2</ele>
        <time>2020-07-14T08:06:59Z</time>
      </trkpt>
      <trkpt lat="37.8816390" lon="-2.6127070">
        <ele>1120.4</ele>
        <time>2020-07-14T08:07:00Z</time>
      </trkpt>
      <trkpt lat="37.8817270" lon="-2.6127640">
        <ele>1121.2</ele>
        <time>2020-07-14T08:07:03Z</time>
      </trkpt>
      <trkpt lat="37.8818980" lon="-2.6128600">
        <ele>1121.6</ele>
        <time>2020-07-14T08:07:08Z</time>
      </trkpt>
      <trkpt lat="37.8822100" lon="-2.6130490">
        <ele>1121.6</ele>
        <time>2020-07-14T08:07:16Z</time>
      </trkpt>
      <trkpt lat="37.8825210" lon="-2.6132380">
        <ele>1121.6</ele>
        <time>2020-07-14T08:07:23Z</time>
      </trkpt>
      <trkpt lat="37.8826110" lon="-2.6132900">
        <ele>1121.2</ele>
        <time>2020-07-14T08:07:25Z</time>
      </trkpt>
      <trkpt lat="37.8827990" lon="-2.6133980">
        <ele>1121.2</ele>
        <time>2020-07-14T08:07:29Z</time>
      </trkpt>
      <trkpt lat="37.8829320" lon="-2.6134660">
        <ele>1121.8</ele>
        <time>2020-07-14T08:07:32Z</time>
      </trkpt>
      <trkpt lat="37.8829700" lon="-2.6134980">
        <ele>1121.8</ele>
        <time>2020-07-14T08:07:33Z</time>
      </trkpt>
      <trkpt lat="37.8831080" lon="-2.6136350">
        <ele>1122.4</ele>
        <time>2020-07-14T08:07:37Z</time>
      </trkpt>
      <trkpt lat="37.8831950" lon="-2.6137350">
        <ele>1122.8</ele>
        <time>2020-07-14T08:07:40Z</time>
      </trkpt>
      <trkpt lat="37.8832600" lon="-2.6138180">
        <ele>1123.6</ele>
        <time>2020-07-14T08:07:42Z</time>
      </trkpt>
      <trkpt lat="37.8834230" lon="-2.6140340">
        <ele>1124.2</ele>
        <time>2020-07-14T08:07:48Z</time>
      </trkpt>
      <trkpt lat="37.8834730" lon="-2.6141020">
        <ele>1124.8</ele>
        <time>2020-07-14T08:07:50Z</time>
      </trkpt>
      <trkpt lat="37.8835760" lon="-2.6142340">
        <ele>1125.8</ele>
        <time>2020-07-14T08:07:54Z</time>
      </trkpt>
      <trkpt lat="37.8836520" lon="-2.6143330">
        <ele>1126.4</ele>
        <time>2020-07-14T08:07:57Z</time>
      </trkpt>
      <trkpt lat="37.8837830" lon="-2.6144920">
        <ele>1126.8</ele>
        <time>2020-07-14T08:08:02Z</time>
      </trkpt>
      <trkpt lat="37.8838840" lon="-2.6146180">
        <ele>1127.8</ele>
        <time>2020-07-14T08:08:06Z</time>
      </trkpt>
      <trkpt lat="37.8839340" lon="-2.6146780">
        <ele>1128.0</ele>
        <time>2020-07-14T08:08:08Z</time>
      </trkpt>
      <trkpt lat="37.8840720" lon="-2.6148470">
        <ele>1129.0</ele>
        <time>2020-07-14T08:08:13Z</time>
      </trkpt>
      <trkpt lat="37.8841990" lon="-2.6150070">
        <ele>1129.2</ele>
        <time>2020-07-14T08:08:17Z</time>
      </trkpt>
      <trkpt lat="37.8845140" lon="-2.6153650">
        <ele>1129.4</ele>
        <time>2020-07-14T08:08:26Z</time>
      </trkpt>
      <trkpt lat="37.8848400" lon="-2.6157130">
        <ele>1129.6</ele>
        <time>2020-07-14T08:08:34Z</time>
      </trkpt>
      <trkpt lat="37.8849630" lon="-2.6158460">
        <ele>1129.6</ele>
        <time>2020-07-14T08:08:37Z</time>
      </trkpt>
      <trkpt lat="37.8851280" lon="-2.6160070">
        <ele>1129.8</ele>
        <time>2020-07-14T08:08:41Z</time>
      </trkpt>
      <trkpt lat="37.8851690" lon="-2.6160470">
        <ele>1130.2</ele>
        <time>2020-07-14T08:08:42Z</time>
      </trkpt>
      <trkpt lat="37.8853220" lon="-2.6162160">
        <ele>1129.8</ele>
        <time>2020-07-14T08:08:46Z</time>
      </trkpt>
      <trkpt lat="37.8856610" lon="-2.6165840">
        <ele>1130.8</ele>
        <time>2020-07-14T08:08:55Z</time>
      </trkpt>
      <trkpt lat="37.8858720" lon="-2.6168080">
        <ele>1131.2</ele>
        <time>2020-07-14T08:09:01Z</time>
      </trkpt>
      <trkpt lat="37.8859660" lon="-2.6169100">
        <ele>1131.8</ele>
        <time>2020-07-14T08:09:04Z</time>
      </trkpt>
      <trkpt lat="37.8860950" lon="-2.6170460">
        <ele>1132.0</ele>
        <time>2020-07-14T08:09:08Z</time>
      </trkpt>
      <trkpt lat="37.8861260" lon="-2.6170810">
        <ele>1132.2</ele>
        <time>2020-07-14T08:09:09Z</time>
      </trkpt>
      <trkpt lat="37.8862180" lon="-2.6171790">
        <ele>1132.6</ele>
        <time>2020-07-14T08:09:12Z</time>
      </trkpt>
      <trkpt lat="37.8863360" lon="-2.6173100">
        <ele>1133.6</ele>
        <time>2020-07-14T08:09:16Z</time>
      </trkpt>
      <trkpt lat="37.8864320" lon="-2.6174140">
        <ele>1134.6</ele>
        <time>2020-07-14T08:09:19Z</time>
      </trkpt>
      <trkpt lat="37.8865000" lon="-2.6174890">
        <ele>1135.0</ele>
        <time>2020-07-14T08:09:21Z</time>
      </trkpt>
      <trkpt lat="37.8867410" lon="-2.6177500">
        <ele>1135.2</ele>
        <time>2020-07-14T08:09:28Z</time>
      </trkpt>
      <trkpt lat="37.8870850" lon="-2.6181150">
        <ele>1135.0</ele>
        <time>2020-07-14T08:09:37Z</time>
      </trkpt>
      <trkpt lat="37.8872920" lon="-2.6183250">
        <ele>1134.8</ele>
        <time>2020-07-14T08:09:42Z</time>
      </trkpt>
      <trkpt lat="37.8874950" lon="-2.6185380">
        <ele>1134.8</ele>
        <time>2020-07-14T08:09:47Z</time>
      </trkpt>
      <trkpt lat="37.8875740" lon="-2.6186240">
        <ele>1134.8</ele>
        <time>2020-07-14T08:09:49Z</time>
      </trkpt>
      <trkpt lat="37.8878120" lon="-2.6189130">
        <ele>1134.8</ele>
        <time>2020-07-14T08:09:55Z</time>
      </trkpt>
      <trkpt lat="37.8878640" lon="-2.6189710">
        <ele>1134.8</ele>
        <time>2020-07-14T08:09:56Z</time>
      </trkpt>
      <trkpt lat="37.8881520" lon="-2.6192900">
        <ele>1133.6</ele>
        <time>2020-07-14T08:10:01Z</time>
      </trkpt>
      <trkpt lat="37.8883530" lon="-2.6195100">
        <ele>1132.0</ele>
        <time>2020-07-14T08:10:04Z</time>
      </trkpt>
      <trkpt lat="37.8885040" lon="-2.6196800">
        <ele>1130.8</ele>
        <time>2020-07-14T08:10:06Z</time>
      </trkpt>
      <trkpt lat="37.8885800" lon="-2.6197660">
        <ele>1130.0</ele>
        <time>2020-07-14T08:10:07Z</time>
      </trkpt>
      <trkpt lat="37.8886610" lon="-2.6198530">
        <ele>1129.4</ele>
        <time>2020-07-14T08:10:08Z</time>
      </trkpt>
      <trkpt lat="37.8888140" lon="-2.6200230">
        <ele>1128.6</ele>
        <time>2020-07-14T08:10:10Z</time>
      </trkpt>
      <trkpt lat="37.8889070" lon="-2.6201310">
        <ele>1127.8</ele>
        <time>2020-07-14T08:10:11Z</time>
      </trkpt>
      <trkpt lat="37.8890820" lon="-2.6203210">
        <ele>1126.4</ele>
        <time>2020-07-14T08:10:13Z</time>
      </trkpt>
      <trkpt lat="37.8892480" lon="-2.6205070">
        <ele>1125.2</ele>
        <time>2020-07-14T08:10:15Z</time>
      </trkpt>
      <trkpt lat="37.8894210" lon="-2.6206910">
        <ele>1124.4</ele>
        <time>2020-07-14T08:10:17Z</time>
      </trkpt>
      <trkpt lat="37.8894970" lon="-2.6207780">
        <ele>1124.0</ele>
        <time>2020-07-14T08:10:18Z</time>
      </trkpt>
      <trkpt lat="37.8895680" lon="-2.6208610">
        <ele>1123.6</ele>
        <time>2020-07-14T08:10:19Z</time>
      </trkpt>
      <trkpt lat="37.8896320" lon="-2.6209330">
        <ele>1123.0</ele>
        <time>2020-07-14T08:10:20Z</time>
      </trkpt>
      <trkpt lat="37.8898170" lon="-2.6211410">
        <ele>1122.6</ele>
        <time>2020-07-14T08:10:23Z</time>
      </trkpt>
      <trkpt lat="37.8899800" lon="-2.6213160">
        <ele>1123.8</ele>
        <time>2020-07-14T08:10:26Z</time>
      </trkpt>
      <trkpt lat="37.8900390" lon="-2.6213690">
        <ele>1124.4</ele>
        <time>2020-07-14T08:10:27Z</time>
      </trkpt>
      <trkpt lat="37.8901640" lon="-2.6214630">
        <ele>1124.6</ele>
        <time>2020-07-14T08:10:29Z</time>
      </trkpt>
      <trkpt lat="37.8905180" lon="-2.6216970">
        <ele>1123.4</ele>
        <time>2020-07-14T08:10:34Z</time>
      </trkpt>
      <trkpt lat="37.8905950" lon="-2.6217480">
        <ele>1123.2</ele>
        <time>2020-07-14T08:10:35Z</time>
      </trkpt>
      <trkpt lat="37.8908310" lon="-2.6219060">
        <ele>1122.2</ele>
        <time>2020-07-14T08:10:38Z</time>
      </trkpt>
      <trkpt lat="37.8910580" lon="-2.6220580">
        <ele>1121.2</ele>
        <time>2020-07-14T08:10:41Z</time>
      </trkpt>
      <trkpt lat="37.8911320" lon="-2.6221060">
        <ele>1121.0</ele>
        <time>2020-07-14T08:10:42Z</time>
      </trkpt>
      <trkpt lat="37.8912020" lon="-2.6221540">
        <ele>1120.8</ele>
        <time>2020-07-14T08:10:43Z</time>
      </trkpt>
      <trkpt lat="37.8913330" lon="-2.6222430">
        <ele>1119.4</ele>
        <time>2020-07-14T08:10:45Z</time>
      </trkpt>
      <trkpt lat="37.8915900" lon="-2.6224120">
        <ele>1119.0</ele>
        <time>2020-07-14T08:10:49Z</time>
      </trkpt>
      <trkpt lat="37.8919370" lon="-2.6226380">
        <ele>1119.2</ele>
        <time>2020-07-14T08:10:55Z</time>
      </trkpt>
      <trkpt lat="37.8920000" lon="-2.6226780">
        <ele>1119.4</ele>
        <time>2020-07-14T08:10:56Z</time>
      </trkpt>
      <trkpt lat="37.8921130" lon="-2.6227540">
        <ele>1119.2</ele>
        <time>2020-07-14T08:10:58Z</time>
      </trkpt>
      <trkpt lat="37.8922330" lon="-2.6228410">
        <ele>1119.2</ele>
        <time>2020-07-14T08:11:00Z</time>
      </trkpt>
      <trkpt lat="37.8924640" lon="-2.6229840">
        <ele>1119.4</ele>
        <time>2020-07-14T08:11:04Z</time>
      </trkpt>
      <trkpt lat="37.8926700" lon="-2.6231250">
        <ele>1119.2</ele>
        <time>2020-07-14T08:11:08Z</time>
      </trkpt>
      <trkpt lat="37.8928230" lon="-2.6232190">
        <ele>1118.8</ele>
        <time>2020-07-14T08:11:11Z</time>
      </trkpt>
      <trkpt lat="37.8930110" lon="-2.6232870">
        <ele>1118.0</ele>
        <time>2020-07-14T08:11:14Z</time>
      </trkpt>
      <trkpt lat="37.8931430" lon="-2.6232900">
        <ele>1117.8</ele>
        <time>2020-07-14T08:11:16Z</time>
      </trkpt>
      <trkpt lat="37.8932830" lon="-2.6232720">
        <ele>1117.8</ele>
        <time>2020-07-14T08:11:18Z</time>
      </trkpt>
      <trkpt lat="37.8935050" lon="-2.6232390">
        <ele>1117.0</ele>
        <time>2020-07-14T08:11:21Z</time>
      </trkpt>
      <trkpt lat="37.8935760" lon="-2.6232320">
        <ele>1116.6</ele>
        <time>2020-07-14T08:11:22Z</time>
      </trkpt>
      <trkpt lat="37.8938180" lon="-2.6231990">
        <ele>1115.6</ele>
        <time>2020-07-14T08:11:25Z</time>
      </trkpt>
      <trkpt lat="37.8941640" lon="-2.6231500">
        <ele>1114.0</ele>
        <time>2020-07-14T08:11:29Z</time>
      </trkpt>
      <trkpt lat="37.8943330" lon="-2.6231300">
        <ele>1112.6</ele>
        <time>2020-07-14T08:11:31Z</time>
      </trkpt>
      <trkpt lat="37.8945530" lon="-2.6230860">
        <ele>1111.2</ele>
        <time>2020-07-14T08:11:34Z</time>
      </trkpt>
      <trkpt lat="37.8946460" lon="-2.6230570">
        <ele>1111.2</ele>
        <time>2020-07-14T08:11:35Z</time>
      </trkpt>
      <trkpt lat="37.8948330" lon="-2.6229870">
        <ele>1110.6</ele>
        <time>2020-07-14T08:11:37Z</time>
      </trkpt>
      <trkpt lat="37.8949280" lon="-2.6229500">
        <ele>1110.2</ele>
        <time>2020-07-14T08:11:38Z</time>
      </trkpt>
      <trkpt lat="37.8952250" lon="-2.6228370">
        <ele>1108.8</ele>
        <time>2020-07-14T08:11:41Z</time>
      </trkpt>
      <trkpt lat="37.8954170" lon="-2.6227690">
        <ele>1107.6</ele>
        <time>2020-07-14T08:11:43Z</time>
      </trkpt>
      <trkpt lat="37.8955860" lon="-2.6226690">
        <ele>1106.4</ele>
        <time>2020-07-14T08:11:45Z</time>
      </trkpt>
      <trkpt lat="37.8956570" lon="-2.6225950">
        <ele>1105.6</ele>
        <time>2020-07-14T08:11:46Z</time>
      </trkpt>
      <trkpt lat="37.8957270" lon="-2.6225100">
        <ele>1105.0</ele>
        <time>2020-07-14T08:11:47Z</time>
      </trkpt>
      <trkpt lat="37.8958840" lon="-2.6223930">
        <ele>1103.4</ele>
        <time>2020-07-14T08:11:49Z</time>
      </trkpt>
      <trkpt lat="37.8959720" lon="-2.6223920">
        <ele>1102.4</ele>
        <time>2020-07-14T08:11:50Z</time>
      </trkpt>
      <trkpt lat="37.8961350" lon="-2.6224900">
        <ele>1100.8</ele>
        <time>2020-07-14T08:11:52Z</time>
      </trkpt>
      <trkpt lat="37.8962670" lon="-2.6226200">
        <ele>1100.0</ele>
        <time>2020-07-14T08:11:54Z</time>
      </trkpt>
      <trkpt lat="37.8963960" lon="-2.6227350">
        <ele>1099.8</ele>
        <time>2020-07-14T08:11:56Z</time>
      </trkpt>
      <trkpt lat="37.8964610" lon="-2.6227880">
        <ele>1099.8</ele>
        <time>2020-07-14T08:11:57Z</time>
      </trkpt>
      <trkpt lat="37.8966600" lon="-2.6229060">
        <ele>1099.4</ele>
        <time>2020-07-14T08:12:00Z</time>
      </trkpt>
      <trkpt lat="37.8967380" lon="-2.6229010">
        <ele>1099.4</ele>
        <time>2020-07-14T08:12:01Z</time>
      </trkpt>
      <trkpt lat="37.8968520" lon="-2.6227870">
        <ele>1099.4</ele>
        <time>2020-07-14T08:12:03Z</time>
      </trkpt>
      <trkpt lat="37.8969350" lon="-2.6226410">
        <ele>1098.8</ele>
        <time>2020-07-14T08:12:05Z</time>
      </trkpt>
      <trkpt lat="37.8970250" lon="-2.6224770">
        <ele>1098.6</ele>
        <time>2020-07-14T08:12:07Z</time>
      </trkpt>
      <trkpt lat="37.8972100" lon="-2.6221320">
        <ele>1098.6</ele>
        <time>2020-07-14T08:12:11Z</time>
      </trkpt>
      <trkpt lat="37.8973160" lon="-2.6219690">
        <ele>1097.6</ele>
        <time>2020-07-14T08:12:13Z</time>
      </trkpt>
      <trkpt lat="37.8973710" lon="-2.6219010">
        <ele>1097.4</ele>
        <time>2020-07-14T08:12:14Z</time>
      </trkpt>
      <trkpt lat="37.8975060" lon="-2.6217730">
        <ele>1096.8</ele>
        <time>2020-07-14T08:12:16Z</time>
      </trkpt>
      <trkpt lat="37.8975810" lon="-2.6217210">
        <ele>1096.8</ele>
        <time>2020-07-14T08:12:17Z</time>
      </trkpt>
      <trkpt lat="37.8977980" lon="-2.6216410">
        <ele>1096.6</ele>
        <time>2020-07-14T08:12:20Z</time>
      </trkpt>
      <trkpt lat="37.8978740" lon="-2.6216230">
        <ele>1096.4</ele>
        <time>2020-07-14T08:12:21Z</time>
      </trkpt>
      <trkpt lat="37.8979410" lon="-2.6216100">
        <ele>1096.4</ele>
        <time>2020-07-14T08:12:22Z</time>
      </trkpt>
      <trkpt lat="37.8982760" lon="-2.6215710">
        <ele>1096.4</ele>
        <time>2020-07-14T08:12:27Z</time>
      </trkpt>
      <trkpt lat="37.8985770" lon="-2.6215340">
        <ele>1097.4</ele>
        <time>2020-07-14T08:12:32Z</time>
      </trkpt>
      <trkpt lat="37.8987490" lon="-2.6215090">
        <ele>1098.0</ele>
        <time>2020-07-14T08:12:35Z</time>
      </trkpt>
      <trkpt lat="37.8989710" lon="-2.6214850">
        <ele>1098.2</ele>
        <time>2020-07-14T08:12:39Z</time>
      </trkpt>
      <trkpt lat="37.8992340" lon="-2.6214610">
        <ele>1098.2</ele>
        <time>2020-07-14T08:12:44Z</time>
      </trkpt>
      <trkpt lat="37.8992820" lon="-2.6214550">
        <ele>1098.4</ele>
        <time>2020-07-14T08:12:45Z</time>
      </trkpt>
      <trkpt lat="37.8995340" lon="-2.6214710">
        <ele>1098.8</ele>
        <time>2020-07-14T08:12:50Z</time>
      </trkpt>
      <trkpt lat="37.8995860" lon="-2.6214920">
        <ele>1099.0</ele>
        <time>2020-07-14T08:12:51Z</time>
      </trkpt>
      <trkpt lat="37.8997610" lon="-2.6216100">
        <ele>1099.2</ele>
        <time>2020-07-14T08:12:55Z</time>
      </trkpt>
      <trkpt lat="37.8998510" lon="-2.6216850">
        <ele>1099.2</ele>
        <time>2020-07-14T08:12:57Z</time>
      </trkpt>
      <trkpt lat="37.8999300" lon="-2.6217720">
        <ele>1099.4</ele>
        <time>2020-07-14T08:12:59Z</time>
      </trkpt>
      <trkpt lat="37.9000310" lon="-2.6219330">
        <ele>1099.2</ele>
        <time>2020-07-14T08:13:02Z</time>
      </trkpt>
      <trkpt lat="37.9000900" lon="-2.6221230">
        <ele>1099.0</ele>
        <time>2020-07-14T08:13:05Z</time>
      </trkpt>
      <trkpt lat="37.9001210" lon="-2.6222560">
        <ele>1099.0</ele>
        <time>2020-07-14T08:13:07Z</time>
      </trkpt>
      <trkpt lat="37.9001340" lon="-2.6223930">
        <ele>1099.0</ele>
        <time>2020-07-14T08:13:09Z</time>
      </trkpt>
      <trkpt lat="37.9001270" lon="-2.6225900">
        <ele>1099.2</ele>
        <time>2020-07-14T08:13:12Z</time>
      </trkpt>
      <trkpt lat="37.9001270" lon="-2.6226430">
        <ele>1099.4</ele>
        <time>2020-07-14T08:13:13Z</time>
      </trkpt>
      <trkpt lat="37.9001270" lon="-2.6227020">
        <ele>1099.4</ele>
        <time>2020-07-14T08:13:14Z</time>
      </trkpt>
      <trkpt lat="37.9001390" lon="-2.6228100">
        <ele>1099.8</ele>
        <time>2020-07-14T08:13:16Z</time>
      </trkpt>
      <trkpt lat="37.9001630" lon="-2.6229150">
        <ele>1100.2</ele>
        <time>2020-07-14T08:13:18Z</time>
      </trkpt>
      <trkpt lat="37.9001800" lon="-2.6229630">
        <ele>1100.8</ele>
        <time>2020-07-14T08:13:19Z</time>
      </trkpt>
      <trkpt lat="37.9002770" lon="-2.6232240">
        <ele>1101.6</ele>
        <time>2020-07-14T08:13:24Z</time>
      </trkpt>
      <trkpt lat="37.9002960" lon="-2.6232750">
        <ele>1101.8</ele>
        <time>2020-07-14T08:13:25Z</time>
      </trkpt>
      <trkpt lat="37.9004790" lon="-2.6236580">
        <ele>1102.2</ele>
        <time>2020-07-14T08:13:32Z</time>
      </trkpt>
      <trkpt lat="37.9005170" lon="-2.6237050">
        <ele>1102.0</ele>
        <time>2020-07-14T08:13:33Z</time>
      </trkpt>
      <trkpt lat="37.9006490" lon="-2.6238220">
        <ele>1101.8</ele>
        <time>2020-07-14T08:13:36Z</time>
      </trkpt>
      <trkpt lat="37.9007730" lon="-2.6239460">
        <ele>1102.0</ele>
        <time>2020-07-14T08:13:39Z</time>
      </trkpt>
      <trkpt lat="37.9010310" lon="-2.6242840">
        <ele>1102.0</ele>
        <time>2020-07-14T08:13:46Z</time>
      </trkpt>
      <trkpt lat="37.9012570" lon="-2.6244950">
        <ele>1102.0</ele>
        <time>2020-07-14T08:13:51Z</time>
      </trkpt>
      <trkpt lat="37.9013080" lon="-2.6245180">
        <ele>1102.0</ele>
        <time>2020-07-14T08:13:52Z</time>
      </trkpt>
      <trkpt lat="37.9014750" lon="-2.6245490">
        <ele>1102.2</ele>
        <time>2020-07-14T08:13:55Z</time>
      </trkpt>
      <trkpt lat="37.9015360" lon="-2.6245490">
        <ele>1102.2</ele>
        <time>2020-07-14T08:13:56Z</time>
      </trkpt>
      <trkpt lat="37.9018790" lon="-2.6244930">
        <ele>1102.2</ele>
        <time>2020-07-14T08:14:02Z</time>
      </trkpt>
      <trkpt lat="37.9019330" lon="-2.6244700">
        <ele>1102.0</ele>
        <time>2020-07-14T08:14:03Z</time>
      </trkpt>
      <trkpt lat="37.9023210" lon="-2.6243180">
        <ele>1102.6</ele>
        <time>2020-07-14T08:14:10Z</time>
      </trkpt>
      <trkpt lat="37.9027140" lon="-2.6242730">
        <ele>1102.0</ele>
        <time>2020-07-14T08:14:16Z</time>
      </trkpt>
      <trkpt lat="37.9028610" lon="-2.6242640">
        <ele>1101.8</ele>
        <time>2020-07-14T08:14:18Z</time>
      </trkpt>
      <trkpt lat="37.9029980" lon="-2.6241970">
        <ele>1101.6</ele>
        <time>2020-07-14T08:14:20Z</time>
      </trkpt>
      <trkpt lat="37.9032590" lon="-2.6239850">
        <ele>1100.4</ele>
        <time>2020-07-14T08:14:24Z</time>
      </trkpt>
      <trkpt lat="37.9034090" lon="-2.6240450">
        <ele>1099.4</ele>
        <time>2020-07-14T08:14:26Z</time>
      </trkpt>
      <trkpt lat="37.9034560" lon="-2.6241190">
        <ele>1099.0</ele>
        <time>2020-07-14T08:14:27Z</time>
      </trkpt>
      <trkpt lat="37.9034830" lon="-2.6241920">
        <ele>1099.0</ele>
        <time>2020-07-14T08:14:28Z</time>
      </trkpt>
      <trkpt lat="37.9035330" lon="-2.6243560">
        <ele>1099.0</ele>
        <time>2020-07-14T08:14:30Z</time>
      </trkpt>
      <trkpt lat="37.9036030" lon="-2.6245080">
        <ele>1099.4</ele>
        <time>2020-07-14T08:14:32Z</time>
      </trkpt>
      <trkpt lat="37.9037900" lon="-2.6247230">
        <ele>1099.8</ele>
        <time>2020-07-14T08:14:36Z</time>
      </trkpt>
      <trkpt lat="37.9040440" lon="-2.6250020">
        <ele>1099.8</ele>
        <time>2020-07-14T08:14:42Z</time>
      </trkpt>
      <trkpt lat="37.9041120" lon="-2.6250990">
        <ele>1100.2</ele>
        <time>2020-07-14T08:14:44Z</time>
      </trkpt>
      <trkpt lat="37.9042110" lon="-2.6252420">
        <ele>1101.2</ele>
        <time>2020-07-14T08:14:47Z</time>
      </trkpt>
      <trkpt lat="37.9042760" lon="-2.6253450">
        <ele>1101.2</ele>
        <time>2020-07-14T08:14:49Z</time>
      </trkpt>
      <trkpt lat="37.9044560" lon="-2.6257030">
        <ele>1100.6</ele>
        <time>2020-07-14T08:14:55Z</time>
      </trkpt>
      <trkpt lat="37.9046470" lon="-2.6257320">
        <ele>1100.4</ele>
        <time>2020-07-14T08:14:58Z</time>
      </trkpt>
      <trkpt lat="37.9047860" lon="-2.6256430">
        <ele>1100.0</ele>
        <time>2020-07-14T08:15:00Z</time>
      </trkpt>
      <trkpt lat="37.9048610" lon="-2.6255950">
        <ele>1099.8</ele>
        <time>2020-07-14T08:15:01Z</time>
      </trkpt>
      <trkpt lat="37.9049350" lon="-2.6255520">
        <ele>1099.6</ele>
        <time>2020-07-14T08:15:02Z</time>
      </trkpt>
      <trkpt lat="37.9050030" lon="-2.6255250">
        <ele>1099.4</ele>
        <time>2020-07-14T08:15:03Z</time>
      </trkpt>
      <trkpt lat="37.9050660" lon="-2.6254860">
        <ele>1098.8</ele>
        <time>2020-07-14T08:15:04Z</time>
      </trkpt>
      <trkpt lat="37.9051200" lon="-2.6254280">
        <ele>1098.2</ele>
        <time>2020-07-14T08:15:05Z</time>
      </trkpt>
      <trkpt lat="37.9051620" lon="-2.6252460">
        <ele>1097.2</ele>
        <time>2020-07-14T08:15:07Z</time>
      </trkpt>
      <trkpt lat="37.9051660" lon="-2.6250500">
        <ele>1096.0</ele>
        <time>2020-07-14T08:15:09Z</time>
      </trkpt>
      <trkpt lat="37.9052020" lon="-2.6249680">
        <ele>1095.6</ele>
        <time>2020-07-14T08:15:10Z</time>
      </trkpt>
      <trkpt lat="37.9052690" lon="-2.6248960">
        <ele>1095.2</ele>
        <time>2020-07-14T08:15:11Z</time>
      </trkpt>
      <trkpt lat="37.9053420" lon="-2.6248810">
        <ele>1094.4</ele>
        <time>2020-07-14T08:15:12Z</time>
      </trkpt>
      <trkpt lat="37.9054140" lon="-2.6249020">
        <ele>1094.2</ele>
        <time>2020-07-14T08:15:13Z</time>
      </trkpt>
      <trkpt lat="37.9055920" lon="-2.6250180">
        <ele>1093.6</ele>
        <time>2020-07-14T08:15:16Z</time>
      </trkpt>
      <trkpt lat="37.9057390" lon="-2.6251930">
        <ele>1094.2</ele>
        <time>2020-07-14T08:15:19Z</time>
      </trkpt>
      <trkpt lat="37.9058310" lon="-2.6253040">
        <ele>1093.8</ele>
        <time>2020-07-14T08:15:21Z</time>
      </trkpt>
      <trkpt lat="37.9058800" lon="-2.6253410">
        <ele>1093.6</ele>
        <time>2020-07-14T08:15:22Z</time>
      </trkpt>
      <trkpt lat="37.9060100" lon="-2.6253820">
        <ele>1093.4</ele>
        <time>2020-07-14T08:15:24Z</time>
      </trkpt>
      <trkpt lat="37.9061550" lon="-2.6253880">
        <ele>1093.4</ele>
        <time>2020-07-14T08:15:26Z</time>
      </trkpt>
      <trkpt lat="37.9062760" lon="-2.6254130">
        <ele>1093.0</ele>
        <time>2020-07-14T08:15:28Z</time>
      </trkpt>
      <trkpt lat="37.9063450" lon="-2.6254510">
        <ele>1092.8</ele>
        <time>2020-07-14T08:15:29Z</time>
      </trkpt>
      <trkpt lat="37.9064970" lon="-2.6255990">
        <ele>1093.0</ele>
        <time>2020-07-14T08:15:32Z</time>
      </trkpt>
      <trkpt lat="37.9065450" lon="-2.6256370">
        <ele>1093.0</ele>
        <time>2020-07-14T08:15:33Z</time>
      </trkpt>
      <trkpt lat="37.9065980" lon="-2.6256690">
        <ele>1093.0</ele>
        <time>2020-07-14T08:15:34Z</time>
      </trkpt>
      <trkpt lat="37.9068030" lon="-2.6257080">
        <ele>1092.8</ele>
        <time>2020-07-14T08:15:37Z</time>
      </trkpt>
      <trkpt lat="37.9069930" lon="-2.6256840">
        <ele>1092.6</ele>
        <time>2020-07-14T08:15:40Z</time>
      </trkpt>
      <trkpt lat="37.9071540" lon="-2.6256510">
        <ele>1092.6</ele>
        <time>2020-07-14T08:15:42Z</time>
      </trkpt>
      <trkpt lat="37.9072300" lon="-2.6256240">
        <ele>1092.4</ele>
        <time>2020-07-14T08:15:43Z</time>
      </trkpt>
      <trkpt lat="37.9073720" lon="-2.6255480">
        <ele>1092.0</ele>
        <time>2020-07-14T08:15:45Z</time>
      </trkpt>
      <trkpt lat="37.9074450" lon="-2.6254960">
        <ele>1091.6</ele>
        <time>2020-07-14T08:15:46Z</time>
      </trkpt>
      <trkpt lat="37.9075640" lon="-2.6253640">
        <ele>1091.0</ele>
        <time>2020-07-14T08:15:48Z</time>
      </trkpt>
      <trkpt lat="37.9076200" lon="-2.6253000">
        <ele>1090.6</ele>
        <time>2020-07-14T08:15:49Z</time>
      </trkpt>
      <trkpt lat="37.9076810" lon="-2.6252440">
        <ele>1090.4</ele>
        <time>2020-07-14T08:15:50Z</time>
      </trkpt>
      <trkpt lat="37.9078320" lon="-2.6251710">
        <ele>1090.0</ele>
        <time>2020-07-14T08:15:52Z</time>
      </trkpt>
      <trkpt lat="37.9079040" lon="-2.6251500">
        <ele>1090.2</ele>
        <time>2020-07-14T08:15:53Z</time>
      </trkpt>
      <trkpt lat="37.9081420" lon="-2.6251210">
        <ele>1089.8</ele>
        <time>2020-07-14T08:15:56Z</time>
      </trkpt>
      <trkpt lat="37.9082960" lon="-2.6251220">
        <ele>1089.2</ele>
        <time>2020-07-14T08:15:58Z</time>
      </trkpt>
      <trkpt lat="37.9083710" lon="-2.6251240">
        <ele>1088.8</ele>
        <time>2020-07-14T08:15:59Z</time>
      </trkpt>
      <trkpt lat="37.9087230" lon="-2.6251060">
        <ele>1088.4</ele>
        <time>2020-07-14T08:16:04Z</time>
      </trkpt>
      <trkpt lat="37.9089670" lon="-2.6250710">
        <ele>1089.0</ele>
        <time>2020-07-14T08:16:08Z</time>
      </trkpt>
      <trkpt lat="37.9090770" lon="-2.6250540">
        <ele>1089.2</ele>
        <time>2020-07-14T08:16:10Z</time>
      </trkpt>
      <trkpt lat="37.9091290" lon="-2.6250590">
        <ele>1089.6</ele>
        <time>2020-07-14T08:16:11Z</time>
      </trkpt>
      <trkpt lat="37.9091830" lon="-2.6250580">
        <ele>1090.0</ele>
        <time>2020-07-14T08:16:12Z</time>
      </trkpt>
      <trkpt lat="37.9093400" lon="-2.6250440">
        <ele>1090.6</ele>
        <time>2020-07-14T08:16:15Z</time>
      </trkpt>
      <trkpt lat="37.9095560" lon="-2.6250230">
        <ele>1090.2</ele>
        <time>2020-07-14T08:16:19Z</time>
      </trkpt>
      <trkpt lat="37.9097480" lon="-2.6250000">
        <ele>1091.2</ele>
        <time>2020-07-14T08:16:23Z</time>
      </trkpt>
      <trkpt lat="37.9097990" lon="-2.6249950">
        <ele>1091.4</ele>
        <time>2020-07-14T08:16:24Z</time>
      </trkpt>
      <trkpt lat="37.9099810" lon="-2.6249750">
        <ele>1091.4</ele>
        <time>2020-07-14T08:16:28Z</time>
      </trkpt>
      <trkpt lat="37.9101600" lon="-2.6249640">
        <ele>1091.8</ele>
        <time>2020-07-14T08:16:32Z</time>
      </trkpt>
      <trkpt lat="37.9102050" lon="-2.6249620">
        <ele>1092.0</ele>
        <time>2020-07-14T08:16:33Z</time>
      </trkpt>
      <trkpt lat="37.9102820" lon="-2.6249570">
        <ele>1092.2</ele>
        <time>2020-07-14T08:16:35Z</time>
      </trkpt>
      <trkpt lat="37.9104680" lon="-2.6249340">
        <ele>1092.6</ele>
        <time>2020-07-14T08:16:39Z</time>
      </trkpt>
      <trkpt lat="37.9105970" lon="-2.6249160">
        <ele>1093.0</ele>
        <time>2020-07-14T08:16:42Z</time>
      </trkpt>
      <trkpt lat="37.9107200" lon="-2.6248980">
        <ele>1093.4</ele>
        <time>2020-07-14T08:16:45Z</time>
      </trkpt>
      <trkpt lat="37.9109720" lon="-2.6248670">
        <ele>1094.4</ele>
        <time>2020-07-14T08:16:51Z</time>
      </trkpt>
      <trkpt lat="37.9110580" lon="-2.6248690">
        <ele>1094.4</ele>
        <time>2020-07-14T08:16:53Z</time>
      </trkpt>
      <trkpt lat="37.9111450" lon="-2.6248610">
        <ele>1094.4</ele>
        <time>2020-07-14T08:16:55Z</time>
      </trkpt>
      <trkpt lat="37.9112830" lon="-2.6248420">
        <ele>1094.6</ele>
        <time>2020-07-14T08:16:58Z</time>
      </trkpt>
      <trkpt lat="37.9115980" lon="-2.6248240">
        <ele>1095.2</ele>
        <time>2020-07-14T08:17:05Z</time>
      </trkpt>
      <trkpt lat="37.9118020" lon="-2.6247970">
        <ele>1095.6</ele>
        <time>2020-07-14T08:17:10Z</time>
      </trkpt>
      <trkpt lat="37.9118790" lon="-2.6247910">
        <ele>1096.2</ele>
        <time>2020-07-14T08:17:12Z</time>
      </trkpt>
      <trkpt lat="37.9119490" lon="-2.6247790">
        <ele>1096.6</ele>
        <time>2020-07-14T08:17:14Z</time>
      </trkpt>
      <trkpt lat="37.9121250" lon="-2.6247630">
        <ele>1097.4</ele>
        <time>2020-07-14T08:17:19Z</time>
      </trkpt>
      <trkpt lat="37.9121590" lon="-2.6247640">
        <ele>1097.6</ele>
        <time>2020-07-14T08:17:20Z</time>
      </trkpt>
      <trkpt lat="37.9121980" lon="-2.6247600">
        <ele>1097.6</ele>
        <time>2020-07-14T08:17:21Z</time>
      </trkpt>
      <trkpt lat="37.9123580" lon="-2.6247450">
        <ele>1098.8</ele>
        <time>2020-07-14T08:17:25Z</time>
      </trkpt>
      <trkpt lat="37.9124000" lon="-2.6247440">
        <ele>1098.8</ele>
        <time>2020-07-14T08:17:26Z</time>
      </trkpt>
      <trkpt lat="37.9126230" lon="-2.6247260">
        <ele>1100.0</ele>
        <time>2020-07-14T08:17:32Z</time>
      </trkpt>
      <trkpt lat="37.9126980" lon="-2.6247200">
        <ele>1100.2</ele>
        <time>2020-07-14T08:17:34Z</time>
      </trkpt>
      <trkpt lat="37.9129920" lon="-2.6246870">
        <ele>1100.8</ele>
        <time>2020-07-14T08:17:42Z</time>
      </trkpt>
      <trkpt lat="37.9130680" lon="-2.6246800">
        <ele>1101.0</ele>
        <time>2020-07-14T08:17:44Z</time>
      </trkpt>
      <trkpt lat="37.9133090" lon="-2.6246710">
        <ele>1101.6</ele>
        <time>2020-07-14T08:17:50Z</time>
      </trkpt>
      <trkpt lat="37.9136520" lon="-2.6246420">
        <ele>1101.8</ele>
        <time>2020-07-14T08:17:58Z</time>
      </trkpt>
      <trkpt lat="37.9138290" lon="-2.6246320">
        <ele>1102.0</ele>
        <time>2020-07-14T08:18:02Z</time>
      </trkpt>
      <trkpt lat="37.9140490" lon="-2.6245970">
        <ele>1102.2</ele>
        <time>2020-07-14T08:18:07Z</time>
      </trkpt>
      <trkpt lat="37.9140930" lon="-2.6245890">
        <ele>1102.2</ele>
        <time>2020-07-14T08:18:08Z</time>
      </trkpt>
      <trkpt lat="37.9143130" lon="-2.6245720">
        <ele>1102.6</ele>
        <time>2020-07-14T08:18:13Z</time>
      </trkpt>
      <trkpt lat="37.9143960" lon="-2.6246010">
        <ele>1103.0</ele>
        <time>2020-07-14T08:18:15Z</time>
      </trkpt>
      <trkpt lat="37.9144410" lon="-2.6246190">
        <ele>1103.2</ele>
        <time>2020-07-14T08:18:16Z</time>
      </trkpt>
      <trkpt lat="37.9147680" lon="-2.6247530">
        <ele>1103.0</ele>
        <time>2020-07-14T08:18:23Z</time>
      </trkpt>
      <trkpt lat="37.9148280" lon="-2.6247570">
        <ele>1103.0</ele>
        <time>2020-07-14T08:18:24Z</time>
      </trkpt>
      <trkpt lat="37.9149920" lon="-2.6247440">
        <ele>1102.8</ele>
        <time>2020-07-14T08:18:27Z</time>
      </trkpt>
      <trkpt lat="37.9153400" lon="-2.6246790">
        <ele>1102.4</ele>
        <time>2020-07-14T08:18:33Z</time>
      </trkpt>
      <trkpt lat="37.9154510" lon="-2.6246570">
        <ele>1102.0</ele>
        <time>2020-07-14T08:18:35Z</time>
      </trkpt>
      <trkpt lat="37.9157880" lon="-2.6245760">
        <ele>1102.0</ele>
        <time>2020-07-14T08:18:41Z</time>
      </trkpt>
      <trkpt lat="37.9158410" lon="-2.6245650">
        <ele>1102.0</ele>
        <time>2020-07-14T08:18:42Z</time>
      </trkpt>
      <trkpt lat="37.9160310" lon="-2.6245180">
        <ele>1102.4</ele>
        <time>2020-07-14T08:18:46Z</time>
      </trkpt>
      <trkpt lat="37.9161270" lon="-2.6244970">
        <ele>1102.6</ele>
        <time>2020-07-14T08:18:48Z</time>
      </trkpt>
      <trkpt lat="37.9162180" lon="-2.6244810">
        <ele>1103.0</ele>
        <time>2020-07-14T08:18:50Z</time>
      </trkpt>
      <trkpt lat="37.9163130" lon="-2.6244590">
        <ele>1103.6</ele>
        <time>2020-07-14T08:18:52Z</time>
      </trkpt>
      <trkpt lat="37.9164020" lon="-2.6244390">
        <ele>1104.0</ele>
        <time>2020-07-14T08:18:54Z</time>
      </trkpt>
      <trkpt lat="37.9164950" lon="-2.6244190">
        <ele>1104.2</ele>
        <time>2020-07-14T08:18:56Z</time>
      </trkpt>
      <trkpt lat="37.9168720" lon="-2.6243490">
        <ele>1104.8</ele>
        <time>2020-07-14T08:19:03Z</time>
      </trkpt>
      <trkpt lat="37.9170950" lon="-2.6242850">
        <ele>1105.0</ele>
        <time>2020-07-14T08:19:07Z</time>
      </trkpt>
      <trkpt lat="37.9173710" lon="-2.6242190">
        <ele>1105.2</ele>
        <time>2020-07-14T08:19:12Z</time>
      </trkpt>
      <trkpt lat="37.9177740" lon="-2.6241260">
        <ele>1106.2</ele>
        <time>2020-07-14T08:19:20Z</time>
      </trkpt>
      <trkpt lat="37.9178240" lon="-2.6241140">
        <ele>1106.2</ele>
        <time>2020-07-14T08:19:21Z</time>
      </trkpt>
      <trkpt lat="37.9181520" lon="-2.6240380">
        <ele>1107.2</ele>
        <time>2020-07-14T08:19:28Z</time>
      </trkpt>
      <trkpt lat="37.9183430" lon="-2.6239950">
        <ele>1107.6</ele>
        <time>2020-07-14T08:19:32Z</time>
      </trkpt>
      <trkpt lat="37.9187910" lon="-2.6239130">
        <ele>1108.2</ele>
        <time>2020-07-14T08:19:41Z</time>
      </trkpt>
      <trkpt lat="37.9188990" lon="-2.6238950">
        <ele>1108.4</ele>
        <time>2020-07-14T08:19:43Z</time>
      </trkpt>
      <trkpt lat="37.9192690" lon="-2.6238450">
        <ele>1108.4</ele>
        <time>2020-07-14T08:19:50Z</time>
      </trkpt>
      <trkpt lat="37.9193270" lon="-2.6238390">
        <ele>1108.2</ele>
        <time>2020-07-14T08:19:51Z</time>
      </trkpt>
      <trkpt lat="37.9196990" lon="-2.6237760">
        <ele>1108.6</ele>
        <time>2020-07-14T08:19:58Z</time>
      </trkpt>
      <trkpt lat="37.9201440" lon="-2.6237060">
        <ele>1109.2</ele>
        <time>2020-07-14T08:20:06Z</time>
      </trkpt>
      <trkpt lat="37.9203050" lon="-2.6236810">
        <ele>1109.4</ele>
        <time>2020-07-14T08:20:09Z</time>
      </trkpt>
      <trkpt lat="37.9206750" lon="-2.6236230">
        <ele>1110.0</ele>
        <time>2020-07-14T08:20:16Z</time>
      </trkpt>
      <trkpt lat="37.9209290" lon="-2.6235820">
        <ele>1110.4</ele>
        <time>2020-07-14T08:20:21Z</time>
      </trkpt>
      <trkpt lat="37.9210880" lon="-2.6235550">
        <ele>1110.8</ele>
        <time>2020-07-14T08:20:24Z</time>
      </trkpt>
      <trkpt lat="37.9213600" lon="-2.6235180">
        <ele>1111.4</ele>
        <time>2020-07-14T08:20:29Z</time>
      </trkpt>
      <trkpt lat="37.9215770" lon="-2.6234890">
        <ele>1111.8</ele>
        <time>2020-07-14T08:20:33Z</time>
      </trkpt>
      <trkpt lat="37.9219780" lon="-2.6234190">
        <ele>1112.4</ele>
        <time>2020-07-14T08:20:41Z</time>
      </trkpt>
      <trkpt lat="37.9220290" lon="-2.6234060">
        <ele>1112.6</ele>
        <time>2020-07-14T08:20:42Z</time>
      </trkpt>
      <trkpt lat="37.9223060" lon="-2.6232910">
        <ele>1113.2</ele>
        <time>2020-07-14T08:20:48Z</time>
      </trkpt>
      <trkpt lat="37.9225860" lon="-2.6231520">
        <ele>1113.6</ele>
        <time>2020-07-14T08:20:54Z</time>
      </trkpt>
      <trkpt lat="37.9227790" lon="-2.6230600">
        <ele>1114.0</ele>
        <time>2020-07-14T08:20:58Z</time>
      </trkpt>
      <trkpt lat="37.9232540" lon="-2.6228220">
        <ele>1114.4</ele>
        <time>2020-07-14T08:21:08Z</time>
      </trkpt>
      <trkpt lat="37.9235380" lon="-2.6226820">
        <ele>1114.6</ele>
        <time>2020-07-14T08:21:14Z</time>
      </trkpt>
      <trkpt lat="37.9237220" lon="-2.6226100">
        <ele>1114.8</ele>
        <time>2020-07-14T08:21:18Z</time>
      </trkpt>
      <trkpt lat="37.9239420" lon="-2.6225550">
        <ele>1115.6</ele>
        <time>2020-07-14T08:21:23Z</time>
      </trkpt>
      <trkpt lat="37.9239860" lon="-2.6225410">
        <ele>1115.6</ele>
        <time>2020-07-14T08:21:24Z</time>
      </trkpt>
      <trkpt lat="37.9240250" lon="-2.6225340">
        <ele>1116.0</ele>
        <time>2020-07-14T08:21:25Z</time>
      </trkpt>
      <trkpt lat="37.9241910" lon="-2.6225080">
        <ele>1116.8</ele>
        <time>2020-07-14T08:21:29Z</time>
      </trkpt>
      <trkpt lat="37.9242760" lon="-2.6224830">
        <ele>1117.2</ele>
        <time>2020-07-14T08:21:31Z</time>
      </trkpt>
      <trkpt lat="37.9245550" lon="-2.6224230">
        <ele>1117.8</ele>
        <time>2020-07-14T08:21:37Z</time>
      </trkpt>
      <trkpt lat="37.9246030" lon="-2.6224150">
        <ele>1117.8</ele>
        <time>2020-07-14T08:21:38Z</time>
      </trkpt>
      <trkpt lat="37.9249620" lon="-2.6222910">
        <ele>1118.6</ele>
        <time>2020-07-14T08:21:46Z</time>
      </trkpt>
      <trkpt lat="37.9250010" lon="-2.6222640">
        <ele>1118.6</ele>
        <time>2020-07-14T08:21:47Z</time>
      </trkpt>
      <trkpt lat="37.9250400" lon="-2.6222300">
        <ele>1118.8</ele>
        <time>2020-07-14T08:21:48Z</time>
      </trkpt>
      <trkpt lat="37.9251760" lon="-2.6220870">
        <ele>1119.4</ele>
        <time>2020-07-14T08:21:52Z</time>
      </trkpt>
      <trkpt lat="37.9252620" lon="-2.6219900">
        <ele>1120.0</ele>
        <time>2020-07-14T08:21:55Z</time>
      </trkpt>
      <trkpt lat="37.9253640" lon="-2.6218780">
        <ele>1120.8</ele>
        <time>2020-07-14T08:21:59Z</time>
      </trkpt>
      <trkpt lat="37.9253880" lon="-2.6218500">
        <ele>1121.2</ele>
        <time>2020-07-14T08:22:00Z</time>
      </trkpt>
      <trkpt lat="37.9254850" lon="-2.6217410">
        <ele>1122.2</ele>
        <time>2020-07-14T08:22:04Z</time>
      </trkpt>
      <trkpt lat="37.9255490" lon="-2.6216550">
        <ele>1122.8</ele>
        <time>2020-07-14T08:22:07Z</time>
      </trkpt>
      <trkpt lat="37.9255860" lon="-2.6215910">
        <ele>1123.2</ele>
        <time>2020-07-14T08:22:09Z</time>
      </trkpt>
      <trkpt lat="37.9256580" lon="-2.6214550">
        <ele>1124.2</ele>
        <time>2020-07-14T08:22:13Z</time>
      </trkpt>
      <trkpt lat="37.9256950" lon="-2.6213920">
        <ele>1124.8</ele>
        <time>2020-07-14T08:22:15Z</time>
      </trkpt>
      <trkpt lat="37.9257520" lon="-2.6212940">
        <ele>1125.4</ele>
        <time>2020-07-14T08:22:18Z</time>
      </trkpt>
      <trkpt lat="37.9258520" lon="-2.6211550">
        <ele>1126.4</ele>
        <time>2020-07-14T08:22:23Z</time>
      </trkpt>
      <trkpt lat="37.9258750" lon="-2.6211300">
        <ele>1126.8</ele>
        <time>2020-07-14T08:22:24Z</time>
      </trkpt>
      <trkpt lat="37.9260810" lon="-2.6209080">
        <ele>1127.8</ele>
        <time>2020-07-14T08:22:32Z</time>
      </trkpt>
      <trkpt lat="37.9261130" lon="-2.6208760">
        <ele>1127.8</ele>
        <time>2020-07-14T08:22:33Z</time>
      </trkpt>
      <trkpt lat="37.9264250" lon="-2.6205910">
        <ele>1127.8</ele>
        <time>2020-07-14T08:22:42Z</time>
      </trkpt>
      <trkpt lat="37.9265910" lon="-2.6204330">
        <ele>1128.0</ele>
        <time>2020-07-14T08:22:47Z</time>
      </trkpt>
      <trkpt lat="37.9267210" lon="-2.6203090">
        <ele>1128.6</ele>
        <time>2020-07-14T08:22:51Z</time>
      </trkpt>
      <trkpt lat="37.9267810" lon="-2.6202470">
        <ele>1128.8</ele>
        <time>2020-07-14T08:22:53Z</time>
      </trkpt>
      <trkpt lat="37.9269380" lon="-2.6200390">
        <ele>1129.8</ele>
        <time>2020-07-14T08:22:59Z</time>
      </trkpt>
      <trkpt lat="37.9269850" lon="-2.6199670">
        <ele>1130.2</ele>
        <time>2020-07-14T08:23:01Z</time>
      </trkpt>
      <trkpt lat="37.9270520" lon="-2.6198620">
        <ele>1131.0</ele>
        <time>2020-07-14T08:23:04Z</time>
      </trkpt>
      <trkpt lat="37.9271850" lon="-2.6196430">
        <ele>1132.2</ele>
        <time>2020-07-14T08:23:10Z</time>
      </trkpt>
      <trkpt lat="37.9273950" lon="-2.6193050">
        <ele>1133.0</ele>
        <time>2020-07-14T08:23:18Z</time>
      </trkpt>
      <trkpt lat="37.9275320" lon="-2.6190940">
        <ele>1133.2</ele>
        <time>2020-07-14T08:23:23Z</time>
      </trkpt>
      <trkpt lat="37.9276760" lon="-2.6188740">
        <ele>1133.6</ele>
        <time>2020-07-14T08:23:28Z</time>
      </trkpt>
      <trkpt lat="37.9279400" lon="-2.6185410">
        <ele>1134.4</ele>
        <time>2020-07-14T08:23:36Z</time>
      </trkpt>
      <trkpt lat="37.9279800" lon="-2.6185070">
        <ele>1134.4</ele>
        <time>2020-07-14T08:23:37Z</time>
      </trkpt>
      <trkpt lat="37.9282130" lon="-2.6183590">
        <ele>1134.2</ele>
        <time>2020-07-14T08:23:42Z</time>
      </trkpt>
      <trkpt lat="37.9283070" lon="-2.6182990">
        <ele>1134.4</ele>
        <time>2020-07-14T08:23:44Z</time>
      </trkpt>
      <trkpt lat="37.9286210" lon="-2.6181330">
        <ele>1134.8</ele>
        <time>2020-07-14T08:23:51Z</time>
      </trkpt>
      <trkpt lat="37.9287440" lon="-2.6180950">
        <ele>1135.2</ele>
        <time>2020-07-14T08:23:54Z</time>
      </trkpt>
      <trkpt lat="37.9287830" lon="-2.6180880">
        <ele>1135.4</ele>
        <time>2020-07-14T08:23:55Z</time>
      </trkpt>
      <trkpt lat="37.9289140" lon="-2.6180780">
        <ele>1135.8</ele>
        <time>2020-07-14T08:23:58Z</time>
      </trkpt>
      <trkpt lat="37.9290320" lon="-2.6180740">
        <ele>1136.6</ele>
        <time>2020-07-14T08:24:01Z</time>
      </trkpt>
      <trkpt lat="37.9292120" lon="-2.6180720">
        <ele>1137.8</ele>
        <time>2020-07-14T08:24:06Z</time>
      </trkpt>
      <trkpt lat="37.9293830" lon="-2.6180570">
        <ele>1139.0</ele>
        <time>2020-07-14T08:24:11Z</time>
      </trkpt>
      <trkpt lat="37.9294850" lon="-2.6180510">
        <ele>1139.8</ele>
        <time>2020-07-14T08:24:14Z</time>
      </trkpt>
      <trkpt lat="37.9295530" lon="-2.6180410">
        <ele>1140.2</ele>
        <time>2020-07-14T08:24:16Z</time>
      </trkpt>
      <trkpt lat="37.9297590" lon="-2.6180160">
        <ele>1141.4</ele>
        <time>2020-07-14T08:24:22Z</time>
      </trkpt>
      <trkpt lat="37.9297890" lon="-2.6180110">
        <ele>1141.6</ele>
        <time>2020-07-14T08:24:23Z</time>
      </trkpt>
      <trkpt lat="37.9299280" lon="-2.6179700">
        <ele>1142.6</ele>
        <time>2020-07-14T08:24:27Z</time>
      </trkpt>
      <trkpt lat="37.9300190" lon="-2.6179310">
        <ele>1143.4</ele>
        <time>2020-07-14T08:24:30Z</time>
      </trkpt>
      <trkpt lat="37.9300820" lon="-2.6178960">
        <ele>1143.8</ele>
        <time>2020-07-14T08:24:32Z</time>
      </trkpt>
      <trkpt lat="37.9302410" lon="-2.6178590">
        <ele>1144.6</ele>
        <time>2020-07-14T08:24:37Z</time>
      </trkpt>
      <trkpt lat="37.9302750" lon="-2.6178600">
        <ele>1144.8</ele>
        <time>2020-07-14T08:24:38Z</time>
      </trkpt>
      <trkpt lat="37.9304680" lon="-2.6178950">
        <ele>1146.0</ele>
        <time>2020-07-14T08:24:44Z</time>
      </trkpt>
      <trkpt lat="37.9306590" lon="-2.6179580">
        <ele>1147.0</ele>
        <time>2020-07-14T08:24:50Z</time>
      </trkpt>
      <trkpt lat="37.9307510" lon="-2.6180040">
        <ele>1147.6</ele>
        <time>2020-07-14T08:24:53Z</time>
      </trkpt>
      <trkpt lat="37.9308290" lon="-2.6180730">
        <ele>1148.2</ele>
        <time>2020-07-14T08:24:56Z</time>
      </trkpt>
      <trkpt lat="37.9308890" lon="-2.6181480">
        <ele>1148.8</ele>
        <time>2020-07-14T08:24:59Z</time>
      </trkpt>
      <trkpt lat="37.9309670" lon="-2.6182530">
        <ele>1149.4</ele>
        <time>2020-07-14T08:25:03Z</time>
      </trkpt>
      <trkpt lat="37.9310380" lon="-2.6183490">
        <ele>1150.6</ele>
        <time>2020-07-14T08:25:07Z</time>
      </trkpt>
      <trkpt lat="37.9311360" lon="-2.6184640">
        <ele>1151.6</ele>
        <time>2020-07-14T08:25:12Z</time>
      </trkpt>
      <trkpt lat="37.9311980" lon="-2.6185290">
        <ele>1152.2</ele>
        <time>2020-07-14T08:25:15Z</time>
      </trkpt>
      <trkpt lat="37.9312690" lon="-2.6186000">
        <ele>1152.8</ele>
        <time>2020-07-14T08:25:18Z</time>
      </trkpt>
      <trkpt lat="37.9313860" lon="-2.6186820">
        <ele>1153.8</ele>
        <time>2020-07-14T08:25:23Z</time>
      </trkpt>
      <trkpt lat="37.9314100" lon="-2.6186900">
        <ele>1153.8</ele>
        <time>2020-07-14T08:25:24Z</time>
      </trkpt>
      <trkpt lat="37.9315350" lon="-2.6187200">
        <ele>1155.2</ele>
        <time>2020-07-14T08:25:29Z</time>
      </trkpt>
      <trkpt lat="37.9315900" lon="-2.6187230">
        <ele>1155.8</ele>
        <time>2020-07-14T08:25:31Z</time>
      </trkpt>
      <trkpt lat="37.9316430" lon="-2.6187230">
        <ele>1156.2</ele>
        <time>2020-07-14T08:25:33Z</time>
      </trkpt>
      <trkpt lat="37.9317670" lon="-2.6187130">
        <ele>1157.2</ele>
        <time>2020-07-14T08:25:38Z</time>
      </trkpt>
      <trkpt lat="37.9318650" lon="-2.6187030">
        <ele>1157.8</ele>
        <time>2020-07-14T08:25:42Z</time>
      </trkpt>
      <trkpt lat="37.9319390" lon="-2.6186930">
        <ele>1158.4</ele>
        <time>2020-07-14T08:25:45Z</time>
      </trkpt>
      <trkpt lat="37.9320420" lon="-2.6186790">
        <ele>1159.4</ele>
        <time>2020-07-14T08:25:49Z</time>
      </trkpt>
      <trkpt lat="37.9320960" lon="-2.6186740">
        <ele>1159.8</ele>
        <time>2020-07-14T08:25:51Z</time>
      </trkpt>
      <trkpt lat="37.9322370" lon="-2.6186410">
        <ele>1160.4</ele>
        <time>2020-07-14T08:25:56Z</time>
      </trkpt>
      <trkpt lat="37.9323260" lon="-2.6186070">
        <ele>1160.8</ele>
        <time>2020-07-14T08:25:59Z</time>
      </trkpt>
      <trkpt lat="37.9325280" lon="-2.6184540">
        <ele>1161.0</ele>
        <time>2020-07-14T08:26:05Z</time>
      </trkpt>
      <trkpt lat="37.9326020" lon="-2.6183630">
        <ele>1161.0</ele>
        <time>2020-07-14T08:26:07Z</time>
      </trkpt>
      <trkpt lat="37.9326750" lon="-2.6181790">
        <ele>1160.6</ele>
        <time>2020-07-14T08:26:10Z</time>
      </trkpt>
      <trkpt lat="37.9327180" lon="-2.6179350">
        <ele>1160.2</ele>
        <time>2020-07-14T08:26:13Z</time>
      </trkpt>
      <trkpt lat="37.9327560" lon="-2.6177730">
        <ele>1159.8</ele>
        <time>2020-07-14T08:26:15Z</time>
      </trkpt>
      <trkpt lat="37.9327930" lon="-2.6176910">
        <ele>1159.4</ele>
        <time>2020-07-14T08:26:16Z</time>
      </trkpt>
      <trkpt lat="37.9329230" lon="-2.6176050">
        <ele>1159.2</ele>
        <time>2020-07-14T08:26:18Z</time>
      </trkpt>
      <trkpt lat="37.9330550" lon="-2.6176580">
        <ele>1158.6</ele>
        <time>2020-07-14T08:26:20Z</time>
      </trkpt>
      <trkpt lat="37.9331350" lon="-2.6177930">
        <ele>1158.4</ele>
        <time>2020-07-14T08:26:22Z</time>
      </trkpt>
      <trkpt lat="37.9331550" lon="-2.6178580">
        <ele>1158.2</ele>
        <time>2020-07-14T08:26:23Z</time>
      </trkpt>
      <trkpt lat="37.9331750" lon="-2.6179240">
        <ele>1158.4</ele>
        <time>2020-07-14T08:26:24Z</time>
      </trkpt>
      <trkpt lat="37.9332530" lon="-2.6181360">
        <ele>1159.4</ele>
        <time>2020-07-14T08:26:28Z</time>
      </trkpt>
      <trkpt lat="37.9332710" lon="-2.6181780">
        <ele>1159.6</ele>
        <time>2020-07-14T08:26:29Z</time>
      </trkpt>
      <trkpt lat="37.9333340" lon="-2.6183240">
        <ele>1160.6</ele>
        <time>2020-07-14T08:26:33Z</time>
      </trkpt>
      <trkpt lat="37.9333530" lon="-2.6183550">
        <ele>1161.0</ele>
        <time>2020-07-14T08:26:34Z</time>
      </trkpt>
      <trkpt lat="37.9333990" lon="-2.6184470">
        <ele>1161.8</ele>
        <time>2020-07-14T08:26:37Z</time>
      </trkpt>
      <trkpt lat="37.9334560" lon="-2.6185740">
        <ele>1162.8</ele>
        <time>2020-07-14T08:26:41Z</time>
      </trkpt>
      <trkpt lat="37.9334690" lon="-2.6186040">
        <ele>1163.0</ele>
        <time>2020-07-14T08:26:42Z</time>
      </trkpt>
      <trkpt lat="37.9335310" lon="-2.6187300">
        <ele>1164.0</ele>
        <time>2020-07-14T08:26:46Z</time>
      </trkpt>
      <trkpt lat="37.9335920" lon="-2.6188530">
        <ele>1164.6</ele>
        <time>2020-07-14T08:26:50Z</time>
      </trkpt>
      <trkpt lat="37.9336290" lon="-2.6189180">
        <ele>1165.0</ele>
        <time>2020-07-14T08:26:52Z</time>
      </trkpt>
      <trkpt lat="37.9337040" lon="-2.6190230">
        <ele>1166.0</ele>
        <time>2020-07-14T08:26:56Z</time>
      </trkpt>
      <trkpt lat="37.9337240" lon="-2.6190460">
        <ele>1166.4</ele>
        <time>2020-07-14T08:26:57Z</time>
      </trkpt>
      <trkpt lat="37.9338120" lon="-2.6191330">
        <ele>1167.2</ele>
        <time>2020-07-14T08:27:01Z</time>
      </trkpt>
      <trkpt lat="37.9339200" lon="-2.6191790">
        <ele>1168.2</ele>
        <time>2020-07-14T08:27:05Z</time>
      </trkpt>
      <trkpt lat="37.9340880" lon="-2.6191840">
        <ele>1169.2</ele>
        <time>2020-07-14T08:27:10Z</time>
      </trkpt>
      <trkpt lat="37.9342010" lon="-2.6191730">
        <ele>1169.4</ele>
        <time>2020-07-14T08:27:13Z</time>
      </trkpt>
      <trkpt lat="37.9343680" lon="-2.6191130">
        <ele>1169.6</ele>
        <time>2020-07-14T08:27:17Z</time>
      </trkpt>
      <trkpt lat="37.9344750" lon="-2.6189170">
        <ele>1169.2</ele>
        <time>2020-07-14T08:27:20Z</time>
      </trkpt>
      <trkpt lat="37.9345810" lon="-2.6186470">
        <ele>1168.2</ele>
        <time>2020-07-14T08:27:23Z</time>
      </trkpt>
      <trkpt lat="37.9346200" lon="-2.6185500">
        <ele>1167.8</ele>
        <time>2020-07-14T08:27:24Z</time>
      </trkpt>
      <trkpt lat="37.9346810" lon="-2.6184030">
        <ele>1167.2</ele>
        <time>2020-07-14T08:27:26Z</time>
      </trkpt>
      <trkpt lat="37.9348400" lon="-2.6181380">
        <ele>1166.0</ele>
        <time>2020-07-14T08:27:28Z</time>
      </trkpt>
      <trkpt lat="37.9350130" lon="-2.6180170">
        <ele>1164.6</ele>
        <time>2020-07-14T08:27:30Z</time>
      </trkpt>
      <trkpt lat="37.9351090" lon="-2.6179610">
        <ele>1163.8</ele>
        <time>2020-07-14T08:27:31Z</time>
      </trkpt>
      <trkpt lat="37.9352000" lon="-2.6179110">
        <ele>1163.0</ele>
        <time>2020-07-14T08:27:32Z</time>
      </trkpt>
      <trkpt lat="37.9353800" lon="-2.6178140">
        <ele>1161.6</ele>
        <time>2020-07-14T08:27:34Z</time>
      </trkpt>
      <trkpt lat="37.9355570" lon="-2.6177310">
        <ele>1160.8</ele>
        <time>2020-07-14T08:27:36Z</time>
      </trkpt>
      <trkpt lat="37.9356430" lon="-2.6176910">
        <ele>1160.4</ele>
        <time>2020-07-14T08:27:37Z</time>
      </trkpt>
      <trkpt lat="37.9357270" lon="-2.6176510">
        <ele>1160.2</ele>
        <time>2020-07-14T08:27:38Z</time>
      </trkpt>
      <trkpt lat="37.9358870" lon="-2.6175800">
        <ele>1159.8</ele>
        <time>2020-07-14T08:27:40Z</time>
      </trkpt>
      <trkpt lat="37.9360570" lon="-2.6175150">
        <ele>1159.6</ele>
        <time>2020-07-14T08:27:42Z</time>
      </trkpt>
      <trkpt lat="37.9362140" lon="-2.6174630">
        <ele>1159.6</ele>
        <time>2020-07-14T08:27:44Z</time>
      </trkpt>
      <trkpt lat="37.9362830" lon="-2.6174370">
        <ele>1159.4</ele>
        <time>2020-07-14T08:27:45Z</time>
      </trkpt>
      <trkpt lat="37.9367140" lon="-2.6172820">
        <ele>1160.0</ele>
        <time>2020-07-14T08:27:51Z</time>
      </trkpt>
      <trkpt lat="37.9369420" lon="-2.6171970">
        <ele>1160.4</ele>
        <time>2020-07-14T08:27:55Z</time>
      </trkpt>
      <trkpt lat="37.9370490" lon="-2.6171640">
        <ele>1160.6</ele>
        <time>2020-07-14T08:27:57Z</time>
      </trkpt>
      <trkpt lat="37.9372020" lon="-2.6171370">
        <ele>1161.4</ele>
        <time>2020-07-14T08:28:00Z</time>
      </trkpt>
      <trkpt lat="37.9372590" lon="-2.6171370">
        <ele>1161.6</ele>
        <time>2020-07-14T08:28:01Z</time>
      </trkpt>
      <trkpt lat="37.9373700" lon="-2.6171490">
        <ele>1162.2</ele>
        <time>2020-07-14T08:28:03Z</time>
      </trkpt>
      <trkpt lat="37.9377010" lon="-2.6172320">
        <ele>1162.6</ele>
        <time>2020-07-14T08:28:09Z</time>
      </trkpt>
      <trkpt lat="37.9380840" lon="-2.6173360">
        <ele>1162.4</ele>
        <time>2020-07-14T08:28:16Z</time>
      </trkpt>
      <trkpt lat="37.9381820" lon="-2.6173610">
        <ele>1162.4</ele>
        <time>2020-07-14T08:28:18Z</time>
      </trkpt>
      <trkpt lat="37.9384170" lon="-2.6174250">
        <ele>1162.6</ele>
        <time>2020-07-14T08:28:23Z</time>
      </trkpt>
      <trkpt lat="37.9384630" lon="-2.6174370">
        <ele>1162.6</ele>
        <time>2020-07-14T08:28:24Z</time>
      </trkpt>
      <trkpt lat="37.9386060" lon="-2.6174860">
        <ele>1163.4</ele>
        <time>2020-07-14T08:28:27Z</time>
      </trkpt>
      <trkpt lat="37.9387470" lon="-2.6175340">
        <ele>1163.8</ele>
        <time>2020-07-14T08:28:30Z</time>
      </trkpt>
      <trkpt lat="37.9387960" lon="-2.6175530">
        <ele>1163.8</ele>
        <time>2020-07-14T08:28:31Z</time>
      </trkpt>
      <trkpt lat="37.9389280" lon="-2.6176130">
        <ele>1164.2</ele>
        <time>2020-07-14T08:28:34Z</time>
      </trkpt>
      <trkpt lat="37.9390560" lon="-2.6176720">
        <ele>1164.8</ele>
        <time>2020-07-14T08:28:37Z</time>
      </trkpt>
      <trkpt lat="37.9390910" lon="-2.6176820">
        <ele>1165.0</ele>
        <time>2020-07-14T08:28:38Z</time>
      </trkpt>
      <trkpt lat="37.9392120" lon="-2.6177210">
        <ele>1165.8</ele>
        <time>2020-07-14T08:28:41Z</time>
      </trkpt>
      <trkpt lat="37.9393560" lon="-2.6177600">
        <ele>1166.8</ele>
        <time>2020-07-14T08:28:45Z</time>
      </trkpt>
      <trkpt lat="37.9394250" lon="-2.6177760">
        <ele>1167.2</ele>
        <time>2020-07-14T08:28:47Z</time>
      </trkpt>
      <trkpt lat="37.9395320" lon="-2.6177890">
        <ele>1167.8</ele>
        <time>2020-07-14T08:28:50Z</time>
      </trkpt>
      <trkpt lat="37.9397470" lon="-2.6177780">
        <ele>1169.0</ele>
        <time>2020-07-14T08:28:56Z</time>
      </trkpt>
      <trkpt lat="37.9400290" lon="-2.6176960">
        <ele>1169.8</ele>
        <time>2020-07-14T08:29:03Z</time>
      </trkpt>
      <trkpt lat="37.9403250" lon="-2.6174980">
        <ele>1170.0</ele>
        <time>2020-07-14T08:29:10Z</time>
      </trkpt>
      <trkpt lat="37.9406970" lon="-2.6172680">
        <ele>1170.0</ele>
        <time>2020-07-14T08:29:18Z</time>
      </trkpt>
      <trkpt lat="37.9407900" lon="-2.6172290">
        <ele>1170.2</ele>
        <time>2020-07-14T08:29:20Z</time>
      </trkpt>
      <trkpt lat="37.9409300" lon="-2.6171730">
        <ele>1170.4</ele>
        <time>2020-07-14T08:29:23Z</time>
      </trkpt>
      <trkpt lat="37.9411970" lon="-2.6170680">
        <ele>1171.0</ele>
        <time>2020-07-14T08:29:29Z</time>
      </trkpt>
      <trkpt lat="37.9412430" lon="-2.6170520">
        <ele>1171.2</ele>
        <time>2020-07-14T08:29:30Z</time>
      </trkpt>
      <trkpt lat="37.9415570" lon="-2.6169380">
        <ele>1172.2</ele>
        <time>2020-07-14T08:29:37Z</time>
      </trkpt>
      <trkpt lat="37.9416010" lon="-2.6169240">
        <ele>1172.4</ele>
        <time>2020-07-14T08:29:38Z</time>
      </trkpt>
      <trkpt lat="37.9420590" lon="-2.6167500">
        <ele>1173.2</ele>
        <time>2020-07-14T08:29:48Z</time>
      </trkpt>
      <trkpt lat="37.9422530" lon="-2.6166800">
        <ele>1173.4</ele>
        <time>2020-07-14T08:29:52Z</time>
      </trkpt>
      <trkpt lat="37.9425470" lon="-2.6165700">
        <ele>1173.6</ele>
        <time>2020-07-14T08:29:58Z</time>
      </trkpt>
      <trkpt lat="37.9429720" lon="-2.6164210">
        <ele>1174.2</ele>
        <time>2020-07-14T08:30:07Z</time>
      </trkpt>
      <trkpt lat="37.9430560" lon="-2.6163960">
        <ele>1174.2</ele>
        <time>2020-07-14T08:30:09Z</time>
      </trkpt>
      <trkpt lat="37.9432980" lon="-2.6163110">
        <ele>1175.2</ele>
        <time>2020-07-14T08:30:15Z</time>
      </trkpt>
      <trkpt lat="37.9434210" lon="-2.6162660">
        <ele>1175.8</ele>
        <time>2020-07-14T08:30:18Z</time>
      </trkpt>
      <trkpt lat="37.9435350" lon="-2.6162230">
        <ele>1176.4</ele>
        <time>2020-07-14T08:30:21Z</time>
      </trkpt>
      <trkpt lat="37.9436780" lon="-2.6161670">
        <ele>1177.0</ele>
        <time>2020-07-14T08:30:25Z</time>
      </trkpt>
      <trkpt lat="37.9437490" lon="-2.6161360">
        <ele>1177.4</ele>
        <time>2020-07-14T08:30:27Z</time>
      </trkpt>
      <trkpt lat="37.9439480" lon="-2.6160550">
        <ele>1178.6</ele>
        <time>2020-07-14T08:30:33Z</time>
      </trkpt>
      <trkpt lat="37.9440090" lon="-2.6160360">
        <ele>1179.2</ele>
        <time>2020-07-14T08:30:35Z</time>
      </trkpt>
      <trkpt lat="37.9440780" lon="-2.6160130">
        <ele>1179.8</ele>
        <time>2020-07-14T08:30:37Z</time>
      </trkpt>
      <trkpt lat="37.9441980" lon="-2.6159600">
        <ele>1180.8</ele>
        <time>2020-07-14T08:30:41Z</time>
      </trkpt>
      <trkpt lat="37.9443150" lon="-2.6159170">
        <ele>1181.6</ele>
        <time>2020-07-14T08:30:45Z</time>
      </trkpt>
      <trkpt lat="37.9443460" lon="-2.6159090">
        <ele>1181.8</ele>
        <time>2020-07-14T08:30:46Z</time>
      </trkpt>
      <trkpt lat="37.9445300" lon="-2.6158800">
        <ele>1182.8</ele>
        <time>2020-07-14T08:30:52Z</time>
      </trkpt>
      <trkpt lat="37.9445890" lon="-2.6158720">
        <ele>1183.2</ele>
        <time>2020-07-14T08:30:54Z</time>
      </trkpt>
      <trkpt lat="37.9447000" lon="-2.6158640">
        <ele>1184.0</ele>
        <time>2020-07-14T08:30:58Z</time>
      </trkpt>
      <trkpt lat="37.9448010" lon="-2.6158660">
        <ele>1185.0</ele>
        <time>2020-07-14T08:31:02Z</time>
      </trkpt>
      <trkpt lat="37.9448290" lon="-2.6158630">
        <ele>1185.2</ele>
        <time>2020-07-14T08:31:03Z</time>
      </trkpt>
      <trkpt lat="37.9449720" lon="-2.6158080">
        <ele>1186.2</ele>
        <time>2020-07-14T08:31:08Z</time>
      </trkpt>
      <trkpt lat="37.9449960" lon="-2.6157930">
        <ele>1186.4</ele>
        <time>2020-07-14T08:31:09Z</time>
      </trkpt>
      <trkpt lat="37.9450940" lon="-2.6157130">
        <ele>1187.2</ele>
        <time>2020-07-14T08:31:13Z</time>
      </trkpt>
      <trkpt lat="37.9451730" lon="-2.6156420">
        <ele>1188.0</ele>
        <time>2020-07-14T08:31:16Z</time>
      </trkpt>
      <trkpt lat="37.9452250" lon="-2.6155950">
        <ele>1188.2</ele>
        <time>2020-07-14T08:31:18Z</time>
      </trkpt>
      <trkpt lat="37.9454050" lon="-2.6154630">
        <ele>1189.4</ele>
        <time>2020-07-14T08:31:25Z</time>
      </trkpt>
      <trkpt lat="37.9455370" lon="-2.6153920">
        <ele>1190.6</ele>
        <time>2020-07-14T08:31:30Z</time>
      </trkpt>
      <trkpt lat="37.9456210" lon="-2.6153620">
        <ele>1191.2</ele>
        <time>2020-07-14T08:31:33Z</time>
      </trkpt>
      <trkpt lat="37.9457020" lon="-2.6153290">
        <ele>1191.8</ele>
        <time>2020-07-14T08:31:36Z</time>
      </trkpt>
      <trkpt lat="37.9458070" lon="-2.6152740">
        <ele>1192.8</ele>
        <time>2020-07-14T08:31:40Z</time>
      </trkpt>
      <trkpt lat="37.9458340" lon="-2.6152610">
        <ele>1193.0</ele>
        <time>2020-07-14T08:31:41Z</time>
      </trkpt>
      <trkpt lat="37.9459670" lon="-2.6151960">
        <ele>1194.0</ele>
        <time>2020-07-14T08:31:46Z</time>
      </trkpt>
      <trkpt lat="37.9460650" lon="-2.6151390">
        <ele>1194.8</ele>
        <time>2020-07-14T08:31:50Z</time>
      </trkpt>
      <trkpt lat="37.9460920" lon="-2.6151250">
        <ele>1195.0</ele>
        <time>2020-07-14T08:31:51Z</time>
      </trkpt>
      <trkpt lat="37.9462460" lon="-2.6150530">
        <ele>1196.2</ele>
        <time>2020-07-14T08:31:57Z</time>
      </trkpt>
      <trkpt lat="37.9462710" lon="-2.6150420">
        <ele>1196.4</ele>
        <time>2020-07-14T08:31:58Z</time>
      </trkpt>
      <trkpt lat="37.9463790" lon="-2.6150070">
        <ele>1197.2</ele>
        <time>2020-07-14T08:32:02Z</time>
      </trkpt>
      <trkpt lat="37.9464920" lon="-2.6149910">
        <ele>1198.2</ele>
        <time>2020-07-14T08:32:06Z</time>
      </trkpt>
      <trkpt lat="37.9465200" lon="-2.6149880">
        <ele>1198.4</ele>
        <time>2020-07-14T08:32:07Z</time>
      </trkpt>
      <trkpt lat="37.9466830" lon="-2.6149600">
        <ele>1199.4</ele>
        <time>2020-07-14T08:32:13Z</time>
      </trkpt>
      <trkpt lat="37.9467350" lon="-2.6149510">
        <ele>1199.8</ele>
        <time>2020-07-14T08:32:15Z</time>
      </trkpt>
      <trkpt lat="37.9468710" lon="-2.6149250">
        <ele>1200.8</ele>
        <time>2020-07-14T08:32:20Z</time>
      </trkpt>
      <trkpt lat="37.9469270" lon="-2.6149170">
        <ele>1201.2</ele>
        <time>2020-07-14T08:32:22Z</time>
      </trkpt>
      <trkpt lat="37.9469820" lon="-2.6149070">
        <ele>1201.8</ele>
        <time>2020-07-14T08:32:24Z</time>
      </trkpt>
      <trkpt lat="37.9471160" lon="-2.6148810">
        <ele>1202.8</ele>
        <time>2020-07-14T08:32:29Z</time>
      </trkpt>
      <trkpt lat="37.9472210" lon="-2.6148530">
        <ele>1203.6</ele>
        <time>2020-07-14T08:32:33Z</time>
      </trkpt>
      <trkpt lat="37.9472480" lon="-2.6148450">
        <ele>1203.8</ele>
        <time>2020-07-14T08:32:34Z</time>
      </trkpt>
      <trkpt lat="37.9474100" lon="-2.6147840">
        <ele>1205.0</ele>
        <time>2020-07-14T08:32:40Z</time>
      </trkpt>
      <trkpt lat="37.9475010" lon="-2.6147350">
        <ele>1205.6</ele>
        <time>2020-07-14T08:32:43Z</time>
      </trkpt>
      <trkpt lat="37.9477310" lon="-2.6145770">
        <ele>1206.0</ele>
        <time>2020-07-14T08:32:49Z</time>
      </trkpt>
      <trkpt lat="37.9479290" lon="-2.6143820">
        <ele>1205.2</ele>
        <time>2020-07-14T08:32:53Z</time>
      </trkpt>
      <trkpt lat="37.9481010" lon="-2.6142440">
        <ele>1204.4</ele>
        <time>2020-07-14T08:32:56Z</time>
      </trkpt>
      <trkpt lat="37.9482330" lon="-2.6142510">
        <ele>1204.2</ele>
        <time>2020-07-14T08:32:58Z</time>
      </trkpt>
      <trkpt lat="37.9483890" lon="-2.6143580">
        <ele>1204.2</ele>
        <time>2020-07-14T08:33:01Z</time>
      </trkpt>
      <trkpt lat="37.9484690" lon="-2.6144340">
        <ele>1204.4</ele>
        <time>2020-07-14T08:33:03Z</time>
      </trkpt>
      <trkpt lat="37.9485840" lon="-2.6145280">
        <ele>1205.0</ele>
        <time>2020-07-14T08:33:06Z</time>
      </trkpt>
      <trkpt lat="37.9487000" lon="-2.6145980">
        <ele>1205.8</ele>
        <time>2020-07-14T08:33:09Z</time>
      </trkpt>
      <trkpt lat="37.9487420" lon="-2.6146110">
        <ele>1206.2</ele>
        <time>2020-07-14T08:33:10Z</time>
      </trkpt>
      <trkpt lat="37.9488190" lon="-2.6146160">
        <ele>1206.8</ele>
        <time>2020-07-14T08:33:12Z</time>
      </trkpt>
      <trkpt lat="37.9488560" lon="-2.6146120">
        <ele>1207.2</ele>
        <time>2020-07-14T08:33:13Z</time>
      </trkpt>
      <trkpt lat="37.9489240" lon="-2.6146010">
        <ele>1207.8</ele>
        <time>2020-07-14T08:33:15Z</time>
      </trkpt>
      <trkpt lat="37.9489910" lon="-2.6145860">
        <ele>1208.4</ele>
        <time>2020-07-14T08:33:17Z</time>
      </trkpt>
      <trkpt lat="37.9490580" lon="-2.6145630">
        <ele>1208.8</ele>
        <time>2020-07-14T08:33:19Z</time>
      </trkpt>
      <trkpt lat="37.9491530" lon="-2.6145200">
        <ele>1209.4</ele>
        <time>2020-07-14T08:33:22Z</time>
      </trkpt>
      <trkpt lat="37.9492970" lon="-2.6144270">
        <ele>1210.6</ele>
        <time>2020-07-14T08:33:27Z</time>
      </trkpt>
      <trkpt lat="37.9493210" lon="-2.6144030">
        <ele>1210.8</ele>
        <time>2020-07-14T08:33:28Z</time>
      </trkpt>
      <trkpt lat="37.9495320" lon="-2.6142170">
        <ele>1211.6</ele>
        <time>2020-07-14T08:33:35Z</time>
      </trkpt>
      <trkpt lat="37.9495670" lon="-2.6141750">
        <ele>1211.6</ele>
        <time>2020-07-14T08:33:36Z</time>
      </trkpt>
      <trkpt lat="37.9497390" lon="-2.6139920">
        <ele>1211.4</ele>
        <time>2020-07-14T08:33:41Z</time>
      </trkpt>
      <trkpt lat="37.9498890" lon="-2.6138330">
        <ele>1211.2</ele>
        <time>2020-07-14T08:33:45Z</time>
      </trkpt>
      <trkpt lat="37.9500110" lon="-2.6136970">
        <ele>1211.0</ele>
        <time>2020-07-14T08:33:48Z</time>
      </trkpt>
      <trkpt lat="37.9502690" lon="-2.6134210">
        <ele>1211.0</ele>
        <time>2020-07-14T08:33:54Z</time>
      </trkpt>
      <trkpt lat="37.9504080" lon="-2.6132800">
        <ele>1211.0</ele>
        <time>2020-07-14T08:33:57Z</time>
      </trkpt>
      <trkpt lat="37.9504540" lon="-2.6132340">
        <ele>1211.0</ele>
        <time>2020-07-14T08:33:58Z</time>
      </trkpt>
      <trkpt lat="37.9507790" lon="-2.6129130">
        <ele>1210.8</ele>
        <time>2020-07-14T08:34:05Z</time>
      </trkpt>
      <trkpt lat="37.9510180" lon="-2.6126880">
        <ele>1211.0</ele>
        <time>2020-07-14T08:34:10Z</time>
      </trkpt>
      <trkpt lat="37.9512370" lon="-2.6124670">
        <ele>1211.2</ele>
        <time>2020-07-14T08:34:15Z</time>
      </trkpt>
      <trkpt lat="37.9514550" lon="-2.6122590">
        <ele>1211.8</ele>
        <time>2020-07-14T08:34:20Z</time>
      </trkpt>
      <trkpt lat="37.9515880" lon="-2.6121300">
        <ele>1212.2</ele>
        <time>2020-07-14T08:34:23Z</time>
      </trkpt>
      <trkpt lat="37.9519920" lon="-2.6117310">
        <ele>1212.8</ele>
        <time>2020-07-14T08:34:32Z</time>
      </trkpt>
      <trkpt lat="37.9520820" lon="-2.6116420">
        <ele>1213.0</ele>
        <time>2020-07-14T08:34:34Z</time>
      </trkpt>
      <trkpt lat="37.9523570" lon="-2.6112690">
        <ele>1213.2</ele>
        <time>2020-07-14T08:34:41Z</time>
      </trkpt>
      <trkpt lat="37.9523820" lon="-2.6112090">
        <ele>1213.4</ele>
        <time>2020-07-14T08:34:42Z</time>
      </trkpt>
      <trkpt lat="37.9525260" lon="-2.6109240">
        <ele>1213.8</ele>
        <time>2020-07-14T08:34:47Z</time>
      </trkpt>
      <trkpt lat="37.9526050" lon="-2.6108350">
        <ele>1214.0</ele>
        <time>2020-07-14T08:34:49Z</time>
      </trkpt>
      <trkpt lat="37.9527340" lon="-2.6107420">
        <ele>1214.6</ele>
        <time>2020-07-14T08:34:52Z</time>
      </trkpt>
      <trkpt lat="37.9528210" lon="-2.6106840">
        <ele>1214.8</ele>
        <time>2020-07-14T08:34:54Z</time>
      </trkpt>
      <trkpt lat="37.9530850" lon="-2.6105110">
        <ele>1215.4</ele>
        <time>2020-07-14T08:35:00Z</time>
      </trkpt>
      <trkpt lat="37.9532590" lon="-2.6103990">
        <ele>1216.0</ele>
        <time>2020-07-14T08:35:04Z</time>
      </trkpt>
      <trkpt lat="37.9533810" lon="-2.6103280">
        <ele>1216.2</ele>
        <time>2020-07-14T08:35:07Z</time>
      </trkpt>
      <trkpt lat="37.9534240" lon="-2.6103190">
        <ele>1216.4</ele>
        <time>2020-07-14T08:35:08Z</time>
      </trkpt>
      <trkpt lat="37.9536130" lon="-2.6102890">
        <ele>1217.0</ele>
        <time>2020-07-14T08:35:12Z</time>
      </trkpt>
      <trkpt lat="37.9537100" lon="-2.6102850">
        <ele>1217.2</ele>
        <time>2020-07-14T08:35:14Z</time>
      </trkpt>
      <trkpt lat="37.9538510" lon="-2.6103040">
        <ele>1217.6</ele>
        <time>2020-07-14T08:35:17Z</time>
      </trkpt>
      <trkpt lat="37.9539830" lon="-2.6103670">
        <ele>1218.2</ele>
        <time>2020-07-14T08:35:20Z</time>
      </trkpt>
      <trkpt lat="37.9542130" lon="-2.6105180">
        <ele>1219.4</ele>
        <time>2020-07-14T08:35:26Z</time>
      </trkpt>
      <trkpt lat="37.9542480" lon="-2.6105430">
        <ele>1219.6</ele>
        <time>2020-07-14T08:35:27Z</time>
      </trkpt>
      <trkpt lat="37.9543490" lon="-2.6106140">
        <ele>1220.4</ele>
        <time>2020-07-14T08:35:30Z</time>
      </trkpt>
      <trkpt lat="37.9545010" lon="-2.6106460">
        <ele>1221.4</ele>
        <time>2020-07-14T08:35:34Z</time>
      </trkpt>
      <trkpt lat="37.9545380" lon="-2.6106390">
        <ele>1221.6</ele>
        <time>2020-07-14T08:35:35Z</time>
      </trkpt>
      <trkpt lat="37.9546440" lon="-2.6105640">
        <ele>1222.2</ele>
        <time>2020-07-14T08:35:38Z</time>
      </trkpt>
      <trkpt lat="37.9546970" lon="-2.6104980">
        <ele>1222.8</ele>
        <time>2020-07-14T08:35:40Z</time>
      </trkpt>
      <trkpt lat="37.9547250" lon="-2.6104550">
        <ele>1223.0</ele>
        <time>2020-07-14T08:35:41Z</time>
      </trkpt>
      <trkpt lat="37.9547730" lon="-2.6103540">
        <ele>1223.2</ele>
        <time>2020-07-14T08:35:43Z</time>
      </trkpt>
      <trkpt lat="37.9548120" lon="-2.6102570">
        <ele>1223.6</ele>
        <time>2020-07-14T08:35:45Z</time>
      </trkpt>
      <trkpt lat="37.9548760" lon="-2.6101020">
        <ele>1223.8</ele>
        <time>2020-07-14T08:35:48Z</time>
      </trkpt>
      <trkpt lat="37.9549260" lon="-2.6100060">
        <ele>1223.8</ele>
        <time>2020-07-14T08:35:50Z</time>
      </trkpt>
      <trkpt lat="37.9550250" lon="-2.6098710">
        <ele>1224.0</ele>
        <time>2020-07-14T08:35:53Z</time>
      </trkpt>
      <trkpt lat="37.9551110" lon="-2.6098060">
        <ele>1224.0</ele>
        <time>2020-07-14T08:35:55Z</time>
      </trkpt>
      <trkpt lat="37.9553000" lon="-2.6097080">
        <ele>1224.0</ele>
        <time>2020-07-14T08:35:59Z</time>
      </trkpt>
      <trkpt lat="37.9554350" lon="-2.6096670">
        <ele>1224.2</ele>
        <time>2020-07-14T08:36:02Z</time>
      </trkpt>
      <trkpt lat="37.9557590" lon="-2.6095540">
        <ele>1224.4</ele>
        <time>2020-07-14T08:36:08Z</time>
      </trkpt>
      <trkpt lat="37.9558210" lon="-2.6095290">
        <ele>1224.4</ele>
        <time>2020-07-14T08:36:09Z</time>
      </trkpt>
      <trkpt lat="37.9560120" lon="-2.6094760">
        <ele>1223.6</ele>
        <time>2020-07-14T08:36:12Z</time>
      </trkpt>
      <trkpt lat="37.9561410" lon="-2.6094300">
        <ele>1223.2</ele>
        <time>2020-07-14T08:36:14Z</time>
      </trkpt>
      <trkpt lat="37.9562030" lon="-2.6094100">
        <ele>1223.0</ele>
        <time>2020-07-14T08:36:15Z</time>
      </trkpt>
      <trkpt lat="37.9562730" lon="-2.6093930">
        <ele>1222.8</ele>
        <time>2020-07-14T08:36:16Z</time>
      </trkpt>
      <trkpt lat="37.9564060" lon="-2.6093640">
        <ele>1222.4</ele>
        <time>2020-07-14T08:36:18Z</time>
      </trkpt>
      <trkpt lat="37.9565400" lon="-2.6093660">
        <ele>1222.0</ele>
        <time>2020-07-14T08:36:20Z</time>
      </trkpt>
      <trkpt lat="37.9566080" lon="-2.6093920">
        <ele>1221.8</ele>
        <time>2020-07-14T08:36:21Z</time>
      </trkpt>
      <trkpt lat="37.9567310" lon="-2.6094470">
        <ele>1221.8</ele>
        <time>2020-07-14T08:36:23Z</time>
      </trkpt>
      <trkpt lat="37.9567950" lon="-2.6094570">
        <ele>1221.6</ele>
        <time>2020-07-14T08:36:24Z</time>
      </trkpt>
      <trkpt lat="37.9568510" lon="-2.6094500">
        <ele>1221.6</ele>
        <time>2020-07-14T08:36:25Z</time>
      </trkpt>
      <trkpt lat="37.9570070" lon="-2.6093680">
        <ele>1221.6</ele>
        <time>2020-07-14T08:36:28Z</time>
      </trkpt>
      <trkpt lat="37.9570520" lon="-2.6093400">
        <ele>1221.8</ele>
        <time>2020-07-14T08:36:29Z</time>
      </trkpt>
      <trkpt lat="37.9570960" lon="-2.6093190">
        <ele>1221.8</ele>
        <time>2020-07-14T08:36:30Z</time>
      </trkpt>
      <trkpt lat="37.9571990" lon="-2.6092800">
        <ele>1222.2</ele>
        <time>2020-07-14T08:36:32Z</time>
      </trkpt>
      <trkpt lat="37.9572960" lon="-2.6092460">
        <ele>1222.6</ele>
        <time>2020-07-14T08:36:34Z</time>
      </trkpt>
      <trkpt lat="37.9573370" lon="-2.6092320">
        <ele>1222.8</ele>
        <time>2020-07-14T08:36:35Z</time>
      </trkpt>
      <trkpt lat="37.9575790" lon="-2.6091650">
        <ele>1223.4</ele>
        <time>2020-07-14T08:36:40Z</time>
      </trkpt>
      <trkpt lat="37.9577690" lon="-2.6091120">
        <ele>1223.8</ele>
        <time>2020-07-14T08:36:44Z</time>
      </trkpt>
      <trkpt lat="37.9579050" lon="-2.6090810">
        <ele>1224.0</ele>
        <time>2020-07-14T08:36:47Z</time>
      </trkpt>
      <trkpt lat="37.9580940" lon="-2.6091000">
        <ele>1224.6</ele>
        <time>2020-07-14T08:36:51Z</time>
      </trkpt>
      <trkpt lat="37.9581870" lon="-2.6091160">
        <ele>1224.8</ele>
        <time>2020-07-14T08:36:53Z</time>
      </trkpt>
      <trkpt lat="37.9585090" lon="-2.6091570">
        <ele>1225.4</ele>
        <time>2020-07-14T08:37:00Z</time>
      </trkpt>
      <trkpt lat="37.9586850" lon="-2.6091960">
        <ele>1226.0</ele>
        <time>2020-07-14T08:37:04Z</time>
      </trkpt>
      <trkpt lat="37.9588670" lon="-2.6092270">
        <ele>1226.6</ele>
        <time>2020-07-14T08:37:08Z</time>
      </trkpt>
      <trkpt lat="37.9590450" lon="-2.6092620">
        <ele>1227.2</ele>
        <time>2020-07-14T08:37:12Z</time>
      </trkpt>
      <trkpt lat="37.9592190" lon="-2.6093040">
        <ele>1227.8</ele>
        <time>2020-07-14T08:37:16Z</time>
      </trkpt>
      <trkpt lat="37.9593090" lon="-2.6093200">
        <ele>1228.0</ele>
        <time>2020-07-14T08:37:18Z</time>
      </trkpt>
      <trkpt lat="37.9593550" lon="-2.6093310">
        <ele>1228.2</ele>
        <time>2020-07-14T08:37:19Z</time>
      </trkpt>
      <trkpt lat="37.9596510" lon="-2.6093690">
        <ele>1229.0</ele>
        <time>2020-07-14T08:37:26Z</time>
      </trkpt>
      <trkpt lat="37.9597720" lon="-2.6093630">
        <ele>1229.2</ele>
        <time>2020-07-14T08:37:28Z</time>
      </trkpt>
      <trkpt lat="37.9599620" lon="-2.6093470">
        <ele>1229.6</ele>
        <time>2020-07-14T08:37:32Z</time>
      </trkpt>
      <trkpt lat="37.9600940" lon="-2.6093140">
        <ele>1229.8</ele>
        <time>2020-07-14T08:37:35Z</time>
      </trkpt>
      <trkpt lat="37.9605340" lon="-2.6092080">
        <ele>1230.2</ele>
        <time>2020-07-14T08:37:44Z</time>
      </trkpt>
      <trkpt lat="37.9605790" lon="-2.6091970">
        <ele>1230.4</ele>
        <time>2020-07-14T08:37:45Z</time>
      </trkpt>
      <trkpt lat="37.9608750" lon="-2.6091340">
        <ele>1230.8</ele>
        <time>2020-07-14T08:37:51Z</time>
      </trkpt>
      <trkpt lat="37.9609240" lon="-2.6091220">
        <ele>1230.8</ele>
        <time>2020-07-14T08:37:52Z</time>
      </trkpt>
      <trkpt lat="37.9612590" lon="-2.6090350">
        <ele>1231.2</ele>
        <time>2020-07-14T08:37:59Z</time>
      </trkpt>
      <trkpt lat="37.9613070" lon="-2.6090230">
        <ele>1231.4</ele>
        <time>2020-07-14T08:38:00Z</time>
      </trkpt>
      <trkpt lat="37.9614050" lon="-2.6090030">
        <ele>1231.4</ele>
        <time>2020-07-14T08:38:02Z</time>
      </trkpt>
      <trkpt lat="37.9614950" lon="-2.6089810">
        <ele>1231.6</ele>
        <time>2020-07-14T08:38:04Z</time>
      </trkpt>
      <trkpt lat="37.9616760" lon="-2.6089370">
        <ele>1232.2</ele>
        <time>2020-07-14T08:38:08Z</time>
      </trkpt>
      <trkpt lat="37.9618060" lon="-2.6089020">
        <ele>1232.4</ele>
        <time>2020-07-14T08:38:11Z</time>
      </trkpt>
      <trkpt lat="37.9619800" lon="-2.6088470">
        <ele>1232.8</ele>
        <time>2020-07-14T08:38:15Z</time>
      </trkpt>
      <trkpt lat="37.9621130" lon="-2.6087840">
        <ele>1233.4</ele>
        <time>2020-07-14T08:38:18Z</time>
      </trkpt>
      <trkpt lat="37.9621920" lon="-2.6087250">
        <ele>1233.6</ele>
        <time>2020-07-14T08:38:20Z</time>
      </trkpt>
      <trkpt lat="37.9622660" lon="-2.6086470">
        <ele>1234.0</ele>
        <time>2020-07-14T08:38:22Z</time>
      </trkpt>
      <trkpt lat="37.9623660" lon="-2.6085260">
        <ele>1234.4</ele>
        <time>2020-07-14T08:38:25Z</time>
      </trkpt>
      <trkpt lat="37.9623990" lon="-2.6084730">
        <ele>1234.6</ele>
        <time>2020-07-14T08:38:26Z</time>
      </trkpt>
      <trkpt lat="37.9626140" lon="-2.6080630">
        <ele>1235.4</ele>
        <time>2020-07-14T08:38:34Z</time>
      </trkpt>
      <trkpt lat="37.9627160" lon="-2.6078650">
        <ele>1235.6</ele>
        <time>2020-07-14T08:38:38Z</time>
      </trkpt>
      <trkpt lat="37.9628130" lon="-2.6076730">
        <ele>1236.2</ele>
        <time>2020-07-14T08:38:42Z</time>
      </trkpt>
      <trkpt lat="37.9628590" lon="-2.6075870">
        <ele>1236.6</ele>
        <time>2020-07-14T08:38:44Z</time>
      </trkpt>
      <trkpt lat="37.9629210" lon="-2.6074540">
        <ele>1237.2</ele>
        <time>2020-07-14T08:38:48Z</time>
      </trkpt>
      <trkpt lat="37.9630000" lon="-2.6073120">
        <ele>1237.6</ele>
        <time>2020-07-14T08:38:52Z</time>
      </trkpt>
      <trkpt lat="37.9630500" lon="-2.6072420">
        <ele>1237.8</ele>
        <time>2020-07-14T08:38:54Z</time>
      </trkpt>
      <trkpt lat="37.9631910" lon="-2.6070520">
        <ele>1238.4</ele>
        <time>2020-07-14T08:38:59Z</time>
      </trkpt>
      <trkpt lat="37.9632550" lon="-2.6069710">
        <ele>1238.6</ele>
        <time>2020-07-14T08:39:01Z</time>
      </trkpt>
      <trkpt lat="37.9632860" lon="-2.6069330">
        <ele>1238.6</ele>
        <time>2020-07-14T08:39:02Z</time>
      </trkpt>
      <trkpt lat="37.9635480" lon="-2.6065640">
        <ele>1239.8</ele>
        <time>2020-07-14T08:39:11Z</time>
      </trkpt>
      <trkpt lat="37.9639050" lon="-2.6060730">
        <ele>1240.6</ele>
        <time>2020-07-14T08:39:23Z</time>
      </trkpt>
      <trkpt lat="37.9639360" lon="-2.6060300">
        <ele>1240.8</ele>
        <time>2020-07-14T08:39:24Z</time>
      </trkpt>
      <trkpt lat="37.9641460" lon="-2.6057580">
        <ele>1241.6</ele>
        <time>2020-07-14T08:39:31Z</time>
      </trkpt>
      <trkpt lat="37.9642040" lon="-2.6056810">
        <ele>1241.8</ele>
        <time>2020-07-14T08:39:33Z</time>
      </trkpt>
      <trkpt lat="37.9644600" lon="-2.6053330">
        <ele>1242.4</ele>
        <time>2020-07-14T08:39:42Z</time>
      </trkpt>
      <trkpt lat="37.9645670" lon="-2.6051800">
        <ele>1243.0</ele>
        <time>2020-07-14T08:39:46Z</time>
      </trkpt>
      <trkpt lat="37.9647250" lon="-2.6049730">
        <ele>1243.8</ele>
        <time>2020-07-14T08:39:52Z</time>
      </trkpt>
      <trkpt lat="37.9648240" lon="-2.6048340">
        <ele>1244.0</ele>
        <time>2020-07-14T08:39:56Z</time>
      </trkpt>
      <trkpt lat="37.9648760" lon="-2.6047390">
        <ele>1244.2</ele>
        <time>2020-07-14T08:39:59Z</time>
      </trkpt>
      <trkpt lat="37.9648850" lon="-2.6046680">
        <ele>1244.4</ele>
        <time>2020-07-14T08:40:02Z</time>
      </trkpt>
      <trkpt lat="37.9648880" lon="-2.6046610">
        <ele>1244.4</ele>
        <time>2020-07-14T08:40:03Z</time>
      </trkpt>
      <trkpt lat="37.9648880" lon="-2.6046620">
        <ele>1244.6</ele>
        <time>2020-07-14T08:40:05Z</time>
      </trkpt>
      <trkpt lat="37.9649510" lon="-2.6046410">
        <ele>1244.0</ele>
        <time>2020-07-14T08:43:40Z</time>
      </trkpt>
      <trkpt lat="37.9649590" lon="-2.6046280">
        <ele>1244.0</ele>
        <time>2020-07-14T08:43:41Z</time>
      </trkpt>
      <trkpt lat="37.9650290" lon="-2.6044990">
        <ele>1244.2</ele>
        <time>2020-07-14T08:43:47Z</time>
      </trkpt>
      <trkpt lat="37.9651450" lon="-2.6043020">
        <ele>1244.6</ele>
        <time>2020-07-14T08:43:53Z</time>
      </trkpt>
      <trkpt lat="37.9652300" lon="-2.6041650">
        <ele>1244.8</ele>
        <time>2020-07-14T08:43:57Z</time>
      </trkpt>
      <trkpt lat="37.9653140" lon="-2.6040240">
        <ele>1245.0</ele>
        <time>2020-07-14T08:44:01Z</time>
      </trkpt>
      <trkpt lat="37.9653550" lon="-2.6039490">
        <ele>1245.2</ele>
        <time>2020-07-14T08:44:03Z</time>
      </trkpt>
      <trkpt lat="37.9654240" lon="-2.6038370">
        <ele>1245.4</ele>
        <time>2020-07-14T08:44:06Z</time>
      </trkpt>
      <trkpt lat="37.9654890" lon="-2.6037250">
        <ele>1245.8</ele>
        <time>2020-07-14T08:44:09Z</time>
      </trkpt>
      <trkpt lat="37.9655850" lon="-2.6035760">
        <ele>1246.2</ele>
        <time>2020-07-14T08:44:13Z</time>
      </trkpt>
      <trkpt lat="37.9658460" lon="-2.6032250">
        <ele>1246.6</ele>
        <time>2020-07-14T08:44:23Z</time>
      </trkpt>
      <trkpt lat="37.9659830" lon="-2.6030680">
        <ele>1247.2</ele>
        <time>2020-07-14T08:44:28Z</time>
      </trkpt>
      <trkpt lat="37.9661530" lon="-2.6028960">
        <ele>1247.8</ele>
        <time>2020-07-14T08:44:34Z</time>
      </trkpt>
      <trkpt lat="37.9663060" lon="-2.6026920">
        <ele>1248.2</ele>
        <time>2020-07-14T08:44:40Z</time>
      </trkpt>
      <trkpt lat="37.9663490" lon="-2.6026130">
        <ele>1248.6</ele>
        <time>2020-07-14T08:44:42Z</time>
      </trkpt>
      <trkpt lat="37.9664400" lon="-2.6023380">
        <ele>1249.0</ele>
        <time>2020-07-14T08:44:48Z</time>
      </trkpt>
      <trkpt lat="37.9664690" lon="-2.6021910">
        <ele>1249.4</ele>
        <time>2020-07-14T08:44:51Z</time>
      </trkpt>
      <trkpt lat="37.9665160" lon="-2.6019820">
        <ele>1249.6</ele>
        <time>2020-07-14T08:44:55Z</time>
      </trkpt>
      <trkpt lat="37.9665480" lon="-2.6018340">
        <ele>1249.8</ele>
        <time>2020-07-14T08:44:58Z</time>
      </trkpt>
      <trkpt lat="37.9666020" lon="-2.6015930">
        <ele>1250.4</ele>
        <time>2020-07-14T08:45:03Z</time>
      </trkpt>
      <trkpt lat="37.9666340" lon="-2.6014560">
        <ele>1251.0</ele>
        <time>2020-07-14T08:45:06Z</time>
      </trkpt>
      <trkpt lat="37.9666850" lon="-2.6012820">
        <ele>1251.6</ele>
        <time>2020-07-14T08:45:10Z</time>
      </trkpt>
      <trkpt lat="37.9667580" lon="-2.6011230">
        <ele>1252.4</ele>
        <time>2020-07-14T08:45:14Z</time>
      </trkpt>
      <trkpt lat="37.9668040" lon="-2.6010480">
        <ele>1252.6</ele>
        <time>2020-07-14T08:45:16Z</time>
      </trkpt>
      <trkpt lat="37.9669350" lon="-2.6008810">
        <ele>1253.2</ele>
        <time>2020-07-14T08:45:21Z</time>
      </trkpt>
      <trkpt lat="37.9670930" lon="-2.6007410">
        <ele>1253.6</ele>
        <time>2020-07-14T08:45:26Z</time>
      </trkpt>
      <trkpt lat="37.9671590" lon="-2.6006950">
        <ele>1253.8</ele>
        <time>2020-07-14T08:45:28Z</time>
      </trkpt>
      <trkpt lat="37.9674050" lon="-2.6005350">
        <ele>1254.6</ele>
        <time>2020-07-14T08:45:35Z</time>
      </trkpt>
      <trkpt lat="37.9675150" lon="-2.6004690">
        <ele>1255.0</ele>
        <time>2020-07-14T08:45:38Z</time>
      </trkpt>
      <trkpt lat="37.9678010" lon="-2.6002830">
        <ele>1255.6</ele>
        <time>2020-07-14T08:45:46Z</time>
      </trkpt>
      <trkpt lat="37.9678400" lon="-2.6002580">
        <ele>1255.8</ele>
        <time>2020-07-14T08:45:47Z</time>
      </trkpt>
      <trkpt lat="37.9679870" lon="-2.6001710">
        <ele>1256.0</ele>
        <time>2020-07-14T08:45:51Z</time>
      </trkpt>
      <trkpt lat="37.9680590" lon="-2.6001240">
        <ele>1256.2</ele>
        <time>2020-07-14T08:45:53Z</time>
      </trkpt>
      <trkpt lat="37.9682240" lon="-2.5999910">
        <ele>1257.0</ele>
        <time>2020-07-14T08:45:58Z</time>
      </trkpt>
      <trkpt lat="37.9682530" lon="-2.5999730">
        <ele>1257.0</ele>
        <time>2020-07-14T08:45:59Z</time>
      </trkpt>
      <trkpt lat="37.9684140" lon="-2.5998650">
        <ele>1257.6</ele>
        <time>2020-07-14T08:46:04Z</time>
      </trkpt>
      <trkpt lat="37.9685160" lon="-2.5997870">
        <ele>1258.0</ele>
        <time>2020-07-14T08:46:07Z</time>
      </trkpt>
      <trkpt lat="37.9686390" lon="-2.5996870">
        <ele>1258.4</ele>
        <time>2020-07-14T08:46:11Z</time>
      </trkpt>
      <trkpt lat="37.9687620" lon="-2.5995820">
        <ele>1259.0</ele>
        <time>2020-07-14T08:46:15Z</time>
      </trkpt>
      <trkpt lat="37.9687920" lon="-2.5995580">
        <ele>1259.2</ele>
        <time>2020-07-14T08:46:16Z</time>
      </trkpt>
      <trkpt lat="37.9688900" lon="-2.5994810">
        <ele>1259.8</ele>
        <time>2020-07-14T08:46:19Z</time>
      </trkpt>
      <trkpt lat="37.9689250" lon="-2.5994560">
        <ele>1260.0</ele>
        <time>2020-07-14T08:46:20Z</time>
      </trkpt>
      <trkpt lat="37.9690200" lon="-2.5993730">
        <ele>1260.6</ele>
        <time>2020-07-14T08:46:23Z</time>
      </trkpt>
      <trkpt lat="37.9691080" lon="-2.5993030">
        <ele>1261.2</ele>
        <time>2020-07-14T08:46:26Z</time>
      </trkpt>
      <trkpt lat="37.9691940" lon="-2.5992300">
        <ele>1261.4</ele>
        <time>2020-07-14T08:46:29Z</time>
      </trkpt>
      <trkpt lat="37.9693720" lon="-2.5990720">
        <ele>1262.2</ele>
        <time>2020-07-14T08:46:35Z</time>
      </trkpt>
      <trkpt lat="37.9695640" lon="-2.5988590">
        <ele>1263.4</ele>
        <time>2020-07-14T08:46:43Z</time>
      </trkpt>
      <trkpt lat="37.9696170" lon="-2.5987900">
        <ele>1263.8</ele>
        <time>2020-07-14T08:46:45Z</time>
      </trkpt>
      <trkpt lat="37.9696620" lon="-2.5987230">
        <ele>1264.4</ele>
        <time>2020-07-14T08:46:47Z</time>
      </trkpt>
      <trkpt lat="37.9697710" lon="-2.5985620">
        <ele>1265.4</ele>
        <time>2020-07-14T08:46:52Z</time>
      </trkpt>
      <trkpt lat="37.9698100" lon="-2.5985000">
        <ele>1265.6</ele>
        <time>2020-07-14T08:46:54Z</time>
      </trkpt>
      <trkpt lat="37.9699070" lon="-2.5983580">
        <ele>1266.6</ele>
        <time>2020-07-14T08:46:59Z</time>
      </trkpt>
      <trkpt lat="37.9699840" lon="-2.5982500">
        <ele>1267.6</ele>
        <time>2020-07-14T08:47:03Z</time>
      </trkpt>
      <trkpt lat="37.9700020" lon="-2.5982250">
        <ele>1267.8</ele>
        <time>2020-07-14T08:47:04Z</time>
      </trkpt>
      <trkpt lat="37.9700670" lon="-2.5981260">
        <ele>1268.6</ele>
        <time>2020-07-14T08:47:08Z</time>
      </trkpt>
      <trkpt lat="37.9701330" lon="-2.5980320">
        <ele>1269.4</ele>
        <time>2020-07-14T08:47:12Z</time>
      </trkpt>
      <trkpt lat="37.9701650" lon="-2.5979860">
        <ele>1269.6</ele>
        <time>2020-07-14T08:47:14Z</time>
      </trkpt>
      <trkpt lat="37.9702390" lon="-2.5978680">
        <ele>1270.8</ele>
        <time>2020-07-14T08:47:19Z</time>
      </trkpt>
      <trkpt lat="37.9702550" lon="-2.5978450">
        <ele>1271.2</ele>
        <time>2020-07-14T08:47:20Z</time>
      </trkpt>
      <trkpt lat="37.9703210" lon="-2.5977520">
        <ele>1272.0</ele>
        <time>2020-07-14T08:47:24Z</time>
      </trkpt>
      <trkpt lat="37.9703890" lon="-2.5976620">
        <ele>1272.8</ele>
        <time>2020-07-14T08:47:28Z</time>
      </trkpt>
      <trkpt lat="37.9704200" lon="-2.5976180">
        <ele>1273.2</ele>
        <time>2020-07-14T08:47:30Z</time>
      </trkpt>
      <trkpt lat="37.9705010" lon="-2.5975130">
        <ele>1274.2</ele>
        <time>2020-07-14T08:47:35Z</time>
      </trkpt>
      <trkpt lat="37.9705540" lon="-2.5974560">
        <ele>1274.6</ele>
        <time>2020-07-14T08:47:38Z</time>
      </trkpt>
      <trkpt lat="37.9706400" lon="-2.5973790">
        <ele>1275.4</ele>
        <time>2020-07-14T08:47:42Z</time>
      </trkpt>
      <trkpt lat="37.9706640" lon="-2.5973610">
        <ele>1275.6</ele>
        <time>2020-07-14T08:47:43Z</time>
      </trkpt>
      <trkpt lat="37.9707360" lon="-2.5973150">
        <ele>1276.4</ele>
        <time>2020-07-14T08:47:46Z</time>
      </trkpt>
      <trkpt lat="37.9708270" lon="-2.5972590">
        <ele>1277.4</ele>
        <time>2020-07-14T08:47:50Z</time>
      </trkpt>
      <trkpt lat="37.9708530" lon="-2.5972490">
        <ele>1277.6</ele>
        <time>2020-07-14T08:47:51Z</time>
      </trkpt>
      <trkpt lat="37.9709690" lon="-2.5971960">
        <ele>1278.6</ele>
        <time>2020-07-14T08:47:56Z</time>
      </trkpt>
      <trkpt lat="37.9710600" lon="-2.5971590">
        <ele>1279.4</ele>
        <time>2020-07-14T08:48:00Z</time>
      </trkpt>
      <trkpt lat="37.9711100" lon="-2.5971450">
        <ele>1279.8</ele>
        <time>2020-07-14T08:48:02Z</time>
      </trkpt>
      <trkpt lat="37.9712290" lon="-2.5971110">
        <ele>1280.8</ele>
        <time>2020-07-14T08:48:07Z</time>
      </trkpt>
      <trkpt lat="37.9713790" lon="-2.5970840">
        <ele>1282.0</ele>
        <time>2020-07-14T08:48:13Z</time>
      </trkpt>
      <trkpt lat="37.9714770" lon="-2.5970640">
        <ele>1282.6</ele>
        <time>2020-07-14T08:48:17Z</time>
      </trkpt>
      <trkpt lat="37.9715520" lon="-2.5970400">
        <ele>1283.0</ele>
        <time>2020-07-14T08:48:20Z</time>
      </trkpt>
      <trkpt lat="37.9717010" lon="-2.5969500">
        <ele>1284.2</ele>
        <time>2020-07-14T08:48:26Z</time>
      </trkpt>
      <trkpt lat="37.9718080" lon="-2.5968580">
        <ele>1285.4</ele>
        <time>2020-07-14T08:48:31Z</time>
      </trkpt>
      <trkpt lat="37.9719080" lon="-2.5967540">
        <ele>1286.2</ele>
        <time>2020-07-14T08:48:36Z</time>
      </trkpt>
      <trkpt lat="37.9719460" lon="-2.5967080">
        <ele>1286.4</ele>
        <time>2020-07-14T08:48:38Z</time>
      </trkpt>
      <trkpt lat="37.9720180" lon="-2.5966270">
        <ele>1287.2</ele>
        <time>2020-07-14T08:48:42Z</time>
      </trkpt>
      <trkpt lat="37.9720720" lon="-2.5965640">
        <ele>1287.6</ele>
        <time>2020-07-14T08:48:45Z</time>
      </trkpt>
      <trkpt lat="37.9721310" lon="-2.5964990">
        <ele>1288.0</ele>
        <time>2020-07-14T08:48:48Z</time>
      </trkpt>
      <trkpt lat="37.9722030" lon="-2.5964410">
        <ele>1288.6</ele>
        <time>2020-07-14T08:48:51Z</time>
      </trkpt>
      <trkpt lat="37.9722900" lon="-2.5963760">
        <ele>1289.2</ele>
        <time>2020-07-14T08:48:55Z</time>
      </trkpt>
      <trkpt lat="37.9723680" lon="-2.5963350">
        <ele>1290.0</ele>
        <time>2020-07-14T08:48:58Z</time>
      </trkpt>
      <trkpt lat="37.9724780" lon="-2.5962990">
        <ele>1290.8</ele>
        <time>2020-07-14T08:49:02Z</time>
      </trkpt>
      <trkpt lat="37.9725070" lon="-2.5962870">
        <ele>1291.0</ele>
        <time>2020-07-14T08:49:03Z</time>
      </trkpt>
      <trkpt lat="37.9726850" lon="-2.5962370">
        <ele>1292.0</ele>
        <time>2020-07-14T08:49:09Z</time>
      </trkpt>
      <trkpt lat="37.9727440" lon="-2.5962300">
        <ele>1292.2</ele>
        <time>2020-07-14T08:49:11Z</time>
      </trkpt>
      <trkpt lat="37.9729300" lon="-2.5961910">
        <ele>1293.0</ele>
        <time>2020-07-14T08:49:17Z</time>
      </trkpt>
      <trkpt lat="37.9729930" lon="-2.5961710">
        <ele>1293.2</ele>
        <time>2020-07-14T08:49:19Z</time>
      </trkpt>
      <trkpt lat="37.9731390" lon="-2.5960920">
        <ele>1294.0</ele>
        <time>2020-07-14T08:49:24Z</time>
      </trkpt>
      <trkpt lat="37.9732260" lon="-2.5960310">
        <ele>1294.4</ele>
        <time>2020-07-14T08:49:27Z</time>
      </trkpt>
      <trkpt lat="37.9733400" lon="-2.5959330">
        <ele>1294.8</ele>
        <time>2020-07-14T08:49:31Z</time>
      </trkpt>
      <trkpt lat="37.9734670" lon="-2.5957950">
        <ele>1295.4</ele>
        <time>2020-07-14T08:49:36Z</time>
      </trkpt>
      <trkpt lat="37.9735320" lon="-2.5956910">
        <ele>1296.0</ele>
        <time>2020-07-14T08:49:39Z</time>
      </trkpt>
      <trkpt lat="37.9735860" lon="-2.5955720">
        <ele>1296.6</ele>
        <time>2020-07-14T08:49:42Z</time>
      </trkpt>
      <trkpt lat="37.9736900" lon="-2.5953230">
        <ele>1297.2</ele>
        <time>2020-07-14T08:49:48Z</time>
      </trkpt>
      <trkpt lat="37.9737760" lon="-2.5951760">
        <ele>1297.6</ele>
        <time>2020-07-14T08:49:52Z</time>
      </trkpt>
      <trkpt lat="37.9738910" lon="-2.5950620">
        <ele>1298.2</ele>
        <time>2020-07-14T08:49:56Z</time>
      </trkpt>
      <trkpt lat="37.9739910" lon="-2.5950110">
        <ele>1298.6</ele>
        <time>2020-07-14T08:49:59Z</time>
      </trkpt>
      <trkpt lat="37.9741350" lon="-2.5949740">
        <ele>1299.0</ele>
        <time>2020-07-14T08:50:03Z</time>
      </trkpt>
      <trkpt lat="37.9743540" lon="-2.5949160">
        <ele>1299.6</ele>
        <time>2020-07-14T08:50:09Z</time>
      </trkpt>
      <trkpt lat="37.9744650" lon="-2.5948930">
        <ele>1300.0</ele>
        <time>2020-07-14T08:50:12Z</time>
      </trkpt>
      <trkpt lat="37.9747570" lon="-2.5948260">
        <ele>1300.8</ele>
        <time>2020-07-14T08:50:20Z</time>
      </trkpt>
      <trkpt lat="37.9747960" lon="-2.5948160">
        <ele>1300.8</ele>
        <time>2020-07-14T08:50:21Z</time>
      </trkpt>
      <trkpt lat="37.9750500" lon="-2.5947720">
        <ele>1301.8</ele>
        <time>2020-07-14T08:50:28Z</time>
      </trkpt>
      <trkpt lat="37.9751230" lon="-2.5947590">
        <ele>1302.0</ele>
        <time>2020-07-14T08:50:30Z</time>
      </trkpt>
      <trkpt lat="37.9754660" lon="-2.5947070">
        <ele>1302.8</ele>
        <time>2020-07-14T08:50:39Z</time>
      </trkpt>
      <trkpt lat="37.9755000" lon="-2.5947020">
        <ele>1302.8</ele>
        <time>2020-07-14T08:50:40Z</time>
      </trkpt>
      <trkpt lat="37.9758560" lon="-2.5946560">
        <ele>1303.8</ele>
        <time>2020-07-14T08:50:50Z</time>
      </trkpt>
      <trkpt lat="37.9758820" lon="-2.5946610">
        <ele>1304.0</ele>
        <time>2020-07-14T08:50:51Z</time>
      </trkpt>
      <trkpt lat="37.9760230" lon="-2.5946670">
        <ele>1304.8</ele>
        <time>2020-07-14T08:50:55Z</time>
      </trkpt>
      <trkpt lat="37.9761890" lon="-2.5947040">
        <ele>1305.4</ele>
        <time>2020-07-14T08:51:00Z</time>
      </trkpt>
      <trkpt lat="37.9762860" lon="-2.5947320">
        <ele>1306.0</ele>
        <time>2020-07-14T08:51:03Z</time>
      </trkpt>
      <trkpt lat="37.9764380" lon="-2.5947860">
        <ele>1306.4</ele>
        <time>2020-07-14T08:51:08Z</time>
      </trkpt>
      <trkpt lat="37.9765290" lon="-2.5948080">
        <ele>1307.0</ele>
        <time>2020-07-14T08:51:11Z</time>
      </trkpt>
      <trkpt lat="37.9766430" lon="-2.5948370">
        <ele>1307.8</ele>
        <time>2020-07-14T08:51:15Z</time>
      </trkpt>
      <trkpt lat="37.9766740" lon="-2.5948470">
        <ele>1308.2</ele>
        <time>2020-07-14T08:51:16Z</time>
      </trkpt>
      <trkpt lat="37.9767840" lon="-2.5948760">
        <ele>1309.0</ele>
        <time>2020-07-14T08:51:20Z</time>
      </trkpt>
      <trkpt lat="37.9768140" lon="-2.5948850">
        <ele>1309.4</ele>
        <time>2020-07-14T08:51:21Z</time>
      </trkpt>
      <trkpt lat="37.9768670" lon="-2.5949000">
        <ele>1309.8</ele>
        <time>2020-07-14T08:51:23Z</time>
      </trkpt>
      <trkpt lat="37.9769720" lon="-2.5949280">
        <ele>1310.6</ele>
        <time>2020-07-14T08:51:27Z</time>
      </trkpt>
      <trkpt lat="37.9770750" lon="-2.5949550">
        <ele>1311.2</ele>
        <time>2020-07-14T08:51:31Z</time>
      </trkpt>
      <trkpt lat="37.9771210" lon="-2.5949740">
        <ele>1311.6</ele>
        <time>2020-07-14T08:51:33Z</time>
      </trkpt>
      <trkpt lat="37.9772460" lon="-2.5950110">
        <ele>1312.8</ele>
        <time>2020-07-14T08:51:38Z</time>
      </trkpt>
      <trkpt lat="37.9773770" lon="-2.5950490">
        <ele>1313.8</ele>
        <time>2020-07-14T08:51:43Z</time>
      </trkpt>
      <trkpt lat="37.9774550" lon="-2.5950680">
        <ele>1314.4</ele>
        <time>2020-07-14T08:51:46Z</time>
      </trkpt>
      <trkpt lat="37.9775070" lon="-2.5950760">
        <ele>1315.0</ele>
        <time>2020-07-14T08:51:48Z</time>
      </trkpt>
      <trkpt lat="37.9776640" lon="-2.5950780">
        <ele>1316.0</ele>
        <time>2020-07-14T08:51:54Z</time>
      </trkpt>
      <trkpt lat="37.9777150" lon="-2.5950720">
        <ele>1316.4</ele>
        <time>2020-07-14T08:51:56Z</time>
      </trkpt>
      <trkpt lat="37.9777900" lon="-2.5950670">
        <ele>1317.0</ele>
        <time>2020-07-14T08:51:59Z</time>
      </trkpt>
      <trkpt lat="37.9779350" lon="-2.5950570">
        <ele>1318.2</ele>
        <time>2020-07-14T08:52:05Z</time>
      </trkpt>
      <trkpt lat="37.9779880" lon="-2.5950500">
        <ele>1318.6</ele>
        <time>2020-07-14T08:52:07Z</time>
      </trkpt>
      <trkpt lat="37.9780850" lon="-2.5950290">
        <ele>1319.2</ele>
        <time>2020-07-14T08:52:11Z</time>
      </trkpt>
      <trkpt lat="37.9782290" lon="-2.5949980">
        <ele>1320.2</ele>
        <time>2020-07-14T08:52:17Z</time>
      </trkpt>
      <trkpt lat="37.9783650" lon="-2.5949490">
        <ele>1321.4</ele>
        <time>2020-07-14T08:52:23Z</time>
      </trkpt>
      <trkpt lat="37.9783860" lon="-2.5949390">
        <ele>1321.6</ele>
        <time>2020-07-14T08:52:24Z</time>
      </trkpt>
      <trkpt lat="37.9784810" lon="-2.5948860">
        <ele>1322.6</ele>
        <time>2020-07-14T08:52:29Z</time>
      </trkpt>
      <trkpt lat="37.9785180" lon="-2.5948620">
        <ele>1323.0</ele>
        <time>2020-07-14T08:52:31Z</time>
      </trkpt>
      <trkpt lat="37.9785890" lon="-2.5948060">
        <ele>1323.8</ele>
        <time>2020-07-14T08:52:35Z</time>
      </trkpt>
      <trkpt lat="37.9786530" lon="-2.5947630">
        <ele>1324.2</ele>
        <time>2020-07-14T08:52:38Z</time>
      </trkpt>
      <trkpt lat="37.9787120" lon="-2.5947230">
        <ele>1324.8</ele>
        <time>2020-07-14T08:52:41Z</time>
      </trkpt>
      <trkpt lat="37.9788130" lon="-2.5946540">
        <ele>1325.8</ele>
        <time>2020-07-14T08:52:46Z</time>
      </trkpt>
      <trkpt lat="37.9788330" lon="-2.5946420">
        <ele>1326.0</ele>
        <time>2020-07-14T08:52:47Z</time>
      </trkpt>
      <trkpt lat="37.9789390" lon="-2.5945960">
        <ele>1326.8</ele>
        <time>2020-07-14T08:52:51Z</time>
      </trkpt>
      <trkpt lat="37.9789930" lon="-2.5945830">
        <ele>1327.2</ele>
        <time>2020-07-14T08:52:53Z</time>
      </trkpt>
      <trkpt lat="37.9791020" lon="-2.5945620">
        <ele>1328.0</ele>
        <time>2020-07-14T08:52:57Z</time>
      </trkpt>
      <trkpt lat="37.9792580" lon="-2.5945300">
        <ele>1329.2</ele>
        <time>2020-07-14T08:53:03Z</time>
      </trkpt>
      <trkpt lat="37.9793890" lon="-2.5945050">
        <ele>1330.2</ele>
        <time>2020-07-14T08:53:08Z</time>
      </trkpt>
      <trkpt lat="37.9794960" lon="-2.5944920">
        <ele>1331.0</ele>
        <time>2020-07-14T08:53:12Z</time>
      </trkpt>
      <trkpt lat="37.9795490" lon="-2.5944850">
        <ele>1331.4</ele>
        <time>2020-07-14T08:53:14Z</time>
      </trkpt>
      <trkpt lat="37.9797360" lon="-2.5944540">
        <ele>1332.6</ele>
        <time>2020-07-14T08:53:21Z</time>
      </trkpt>
      <trkpt lat="37.9797610" lon="-2.5944500">
        <ele>1332.8</ele>
        <time>2020-07-14T08:53:22Z</time>
      </trkpt>
      <trkpt lat="37.9798670" lon="-2.5944270">
        <ele>1333.6</ele>
        <time>2020-07-14T08:53:26Z</time>
      </trkpt>
      <trkpt lat="37.9800020" lon="-2.5943810">
        <ele>1334.6</ele>
        <time>2020-07-14T08:53:31Z</time>
      </trkpt>
      <trkpt lat="37.9800300" lon="-2.5943660">
        <ele>1334.8</ele>
        <time>2020-07-14T08:53:32Z</time>
      </trkpt>
      <trkpt lat="37.9801510" lon="-2.5942710">
        <ele>1335.8</ele>
        <time>2020-07-14T08:53:37Z</time>
      </trkpt>
      <trkpt lat="37.9802110" lon="-2.5942050">
        <ele>1336.2</ele>
        <time>2020-07-14T08:53:40Z</time>
      </trkpt>
      <trkpt lat="37.9802740" lon="-2.5941370">
        <ele>1336.8</ele>
        <time>2020-07-14T08:53:43Z</time>
      </trkpt>
      <trkpt lat="37.9803770" lon="-2.5940240">
        <ele>1337.8</ele>
        <time>2020-07-14T08:53:48Z</time>
      </trkpt>
      <trkpt lat="37.9804470" lon="-2.5939600">
        <ele>1338.4</ele>
        <time>2020-07-14T08:53:51Z</time>
      </trkpt>
      <trkpt lat="37.9805300" lon="-2.5939210">
        <ele>1338.8</ele>
        <time>2020-07-14T08:53:54Z</time>
      </trkpt>
      <trkpt lat="37.9806190" lon="-2.5939070">
        <ele>1339.4</ele>
        <time>2020-07-14T08:53:57Z</time>
      </trkpt>
      <trkpt lat="37.9807350" lon="-2.5939400">
        <ele>1340.0</ele>
        <time>2020-07-14T08:54:01Z</time>
      </trkpt>
      <trkpt lat="37.9807860" lon="-2.5939740">
        <ele>1340.6</ele>
        <time>2020-07-14T08:54:03Z</time>
      </trkpt>
      <trkpt lat="37.9808250" lon="-2.5940160">
        <ele>1341.0</ele>
        <time>2020-07-14T08:54:05Z</time>
      </trkpt>
      <trkpt lat="37.9808670" lon="-2.5941160">
        <ele>1341.8</ele>
        <time>2020-07-14T08:54:08Z</time>
      </trkpt>
      <trkpt lat="37.9808810" lon="-2.5941810">
        <ele>1342.2</ele>
        <time>2020-07-14T08:54:10Z</time>
      </trkpt>
      <trkpt lat="37.9808660" lon="-2.5943590">
        <ele>1343.2</ele>
        <time>2020-07-14T08:54:15Z</time>
      </trkpt>
      <trkpt lat="37.9808510" lon="-2.5943950">
        <ele>1343.6</ele>
        <time>2020-07-14T08:54:16Z</time>
      </trkpt>
      <trkpt lat="37.9807670" lon="-2.5945480">
        <ele>1344.8</ele>
        <time>2020-07-14T08:54:21Z</time>
      </trkpt>
      <trkpt lat="37.9807520" lon="-2.5945790">
        <ele>1345.0</ele>
        <time>2020-07-14T08:54:22Z</time>
      </trkpt>
      <trkpt lat="37.9806740" lon="-2.5947010">
        <ele>1345.8</ele>
        <time>2020-07-14T08:54:26Z</time>
      </trkpt>
      <trkpt lat="37.9806330" lon="-2.5947640">
        <ele>1346.0</ele>
        <time>2020-07-14T08:54:28Z</time>
      </trkpt>
      <trkpt lat="37.9805160" lon="-2.5949870">
        <ele>1346.8</ele>
        <time>2020-07-14T08:54:34Z</time>
      </trkpt>
      <trkpt lat="37.9804520" lon="-2.5951000">
        <ele>1347.0</ele>
        <time>2020-07-14T08:54:37Z</time>
      </trkpt>
      <trkpt lat="37.9802820" lon="-2.5953340">
        <ele>1347.8</ele>
        <time>2020-07-14T08:54:44Z</time>
      </trkpt>
      <trkpt lat="37.9802260" lon="-2.5954000">
        <ele>1348.0</ele>
        <time>2020-07-14T08:54:46Z</time>
      </trkpt>
      <trkpt lat="37.9800340" lon="-2.5956010">
        <ele>1348.8</ele>
        <time>2020-07-14T08:54:53Z</time>
      </trkpt>
      <trkpt lat="37.9800070" lon="-2.5956340">
        <ele>1349.0</ele>
        <time>2020-07-14T08:54:54Z</time>
      </trkpt>
      <trkpt lat="37.9798480" lon="-2.5958110">
        <ele>1349.8</ele>
        <time>2020-07-14T08:55:00Z</time>
      </trkpt>
      <trkpt lat="37.9796650" lon="-2.5960170">
        <ele>1351.0</ele>
        <time>2020-07-14T08:55:07Z</time>
      </trkpt>
      <trkpt lat="37.9795220" lon="-2.5961850">
        <ele>1352.0</ele>
        <time>2020-07-14T08:55:13Z</time>
      </trkpt>
      <trkpt lat="37.9794990" lon="-2.5962120">
        <ele>1352.2</ele>
        <time>2020-07-14T08:55:14Z</time>
      </trkpt>
      <trkpt lat="37.9793790" lon="-2.5963320">
        <ele>1353.2</ele>
        <time>2020-07-14T08:55:19Z</time>
      </trkpt>
      <trkpt lat="37.9793090" lon="-2.5964040">
        <ele>1354.0</ele>
        <time>2020-07-14T08:55:22Z</time>
      </trkpt>
      <trkpt lat="37.9792860" lon="-2.5964310">
        <ele>1354.2</ele>
        <time>2020-07-14T08:55:23Z</time>
      </trkpt>
      <trkpt lat="37.9791710" lon="-2.5966000">
        <ele>1355.0</ele>
        <time>2020-07-14T08:55:28Z</time>
      </trkpt>
      <trkpt lat="37.9791280" lon="-2.5966660">
        <ele>1355.4</ele>
        <time>2020-07-14T08:55:30Z</time>
      </trkpt>
      <trkpt lat="37.9790040" lon="-2.5968700">
        <ele>1356.6</ele>
        <time>2020-07-14T08:55:36Z</time>
      </trkpt>
      <trkpt lat="37.9789670" lon="-2.5969380">
        <ele>1356.8</ele>
        <time>2020-07-14T08:55:38Z</time>
      </trkpt>
      <trkpt lat="37.9788940" lon="-2.5970830">
        <ele>1357.8</ele>
        <time>2020-07-14T08:55:42Z</time>
      </trkpt>
      <trkpt lat="37.9788580" lon="-2.5972000">
        <ele>1358.4</ele>
        <time>2020-07-14T08:55:45Z</time>
      </trkpt>
      <trkpt lat="37.9788610" lon="-2.5973340">
        <ele>1358.8</ele>
        <time>2020-07-14T08:55:48Z</time>
      </trkpt>
      <trkpt lat="37.9788850" lon="-2.5974100">
        <ele>1359.2</ele>
        <time>2020-07-14T08:55:50Z</time>
      </trkpt>
      <trkpt lat="37.9789480" lon="-2.5975060">
        <ele>1360.0</ele>
        <time>2020-07-14T08:55:53Z</time>
      </trkpt>
      <trkpt lat="37.9790000" lon="-2.5975470">
        <ele>1360.6</ele>
        <time>2020-07-14T08:55:55Z</time>
      </trkpt>
      <trkpt lat="37.9790660" lon="-2.5975690">
        <ele>1361.2</ele>
        <time>2020-07-14T08:55:57Z</time>
      </trkpt>
      <trkpt lat="37.9791590" lon="-2.5975610">
        <ele>1361.8</ele>
        <time>2020-07-14T08:56:00Z</time>
      </trkpt>
      <trkpt lat="37.9791920" lon="-2.5975450">
        <ele>1362.2</ele>
        <time>2020-07-14T08:56:01Z</time>
      </trkpt>
      <trkpt lat="37.9792920" lon="-2.5974530">
        <ele>1363.0</ele>
        <time>2020-07-14T08:56:05Z</time>
      </trkpt>
      <trkpt lat="37.9793160" lon="-2.5974180">
        <ele>1363.2</ele>
        <time>2020-07-14T08:56:06Z</time>
      </trkpt>
      <trkpt lat="37.9794070" lon="-2.5972400">
        <ele>1364.0</ele>
        <time>2020-07-14T08:56:11Z</time>
      </trkpt>
      <trkpt lat="37.9794420" lon="-2.5971600">
        <ele>1364.6</ele>
        <time>2020-07-14T08:56:13Z</time>
      </trkpt>
      <trkpt lat="37.9796060" lon="-2.5968850">
        <ele>1365.8</ele>
        <time>2020-07-14T08:56:21Z</time>
      </trkpt>
      <trkpt lat="37.9797450" lon="-2.5967650">
        <ele>1366.8</ele>
        <time>2020-07-14T08:56:26Z</time>
      </trkpt>
      <trkpt lat="37.9797770" lon="-2.5967510">
        <ele>1367.2</ele>
        <time>2020-07-14T08:56:27Z</time>
      </trkpt>
      <trkpt lat="37.9799080" lon="-2.5967130">
        <ele>1368.0</ele>
        <time>2020-07-14T08:56:31Z</time>
      </trkpt>
      <trkpt lat="37.9800320" lon="-2.5966730">
        <ele>1368.6</ele>
        <time>2020-07-14T08:56:35Z</time>
      </trkpt>
      <trkpt lat="37.9801020" lon="-2.5966500">
        <ele>1369.0</ele>
        <time>2020-07-14T08:56:37Z</time>
      </trkpt>
      <trkpt lat="37.9802870" lon="-2.5965540">
        <ele>1370.0</ele>
        <time>2020-07-14T08:56:43Z</time>
      </trkpt>
      <trkpt lat="37.9803420" lon="-2.5965150">
        <ele>1370.4</ele>
        <time>2020-07-14T08:56:45Z</time>
      </trkpt>
      <trkpt lat="37.9804220" lon="-2.5964540">
        <ele>1371.0</ele>
        <time>2020-07-14T08:56:48Z</time>
      </trkpt>
      <trkpt lat="37.9805260" lon="-2.5963660">
        <ele>1372.0</ele>
        <time>2020-07-14T08:56:52Z</time>
      </trkpt>
      <trkpt lat="37.9805770" lon="-2.5963240">
        <ele>1372.6</ele>
        <time>2020-07-14T08:56:54Z</time>
      </trkpt>
      <trkpt lat="37.9806590" lon="-2.5962680">
        <ele>1373.2</ele>
        <time>2020-07-14T08:56:57Z</time>
      </trkpt>
      <trkpt lat="37.9808210" lon="-2.5961480">
        <ele>1374.2</ele>
        <time>2020-07-14T08:57:03Z</time>
      </trkpt>
      <trkpt lat="37.9810080" lon="-2.5960180">
        <ele>1375.2</ele>
        <time>2020-07-14T08:57:10Z</time>
      </trkpt>
      <trkpt lat="37.9811400" lon="-2.5959180">
        <ele>1376.2</ele>
        <time>2020-07-14T08:57:15Z</time>
      </trkpt>
      <trkpt lat="37.9811700" lon="-2.5958970">
        <ele>1376.4</ele>
        <time>2020-07-14T08:57:16Z</time>
      </trkpt>
      <trkpt lat="37.9813670" lon="-2.5957540">
        <ele>1377.6</ele>
        <time>2020-07-14T08:57:23Z</time>
      </trkpt>
      <trkpt lat="37.9815100" lon="-2.5956560">
        <ele>1378.6</ele>
        <time>2020-07-14T08:57:28Z</time>
      </trkpt>
      <trkpt lat="37.9816650" lon="-2.5955840">
        <ele>1379.8</ele>
        <time>2020-07-14T08:57:33Z</time>
      </trkpt>
      <trkpt lat="37.9816970" lon="-2.5955720">
        <ele>1380.0</ele>
        <time>2020-07-14T08:57:34Z</time>
      </trkpt>
      <trkpt lat="37.9818520" lon="-2.5955230">
        <ele>1380.8</ele>
        <time>2020-07-14T08:57:39Z</time>
      </trkpt>
      <trkpt lat="37.9820310" lon="-2.5954670">
        <ele>1381.8</ele>
        <time>2020-07-14T08:57:45Z</time>
      </trkpt>
      <trkpt lat="37.9820630" lon="-2.5954540">
        <ele>1382.0</ele>
        <time>2020-07-14T08:57:46Z</time>
      </trkpt>
      <trkpt lat="37.9822420" lon="-2.5953970">
        <ele>1383.0</ele>
        <time>2020-07-14T08:57:52Z</time>
      </trkpt>
      <trkpt lat="37.9823660" lon="-2.5953830">
        <ele>1383.8</ele>
        <time>2020-07-14T08:57:56Z</time>
      </trkpt>
      <trkpt lat="37.9823960" lon="-2.5953850">
        <ele>1384.0</ele>
        <time>2020-07-14T08:57:57Z</time>
      </trkpt>
      <trkpt lat="37.9825150" lon="-2.5954380">
        <ele>1384.8</ele>
        <time>2020-07-14T08:58:01Z</time>
      </trkpt>
      <trkpt lat="37.9825750" lon="-2.5954690">
        <ele>1385.2</ele>
        <time>2020-07-14T08:58:03Z</time>
      </trkpt>
      <trkpt lat="37.9827580" lon="-2.5955400">
        <ele>1386.0</ele>
        <time>2020-07-14T08:58:09Z</time>
      </trkpt>
      <trkpt lat="37.9828520" lon="-2.5955500">
        <ele>1386.4</ele>
        <time>2020-07-14T08:58:12Z</time>
      </trkpt>
      <trkpt lat="37.9829730" lon="-2.5955440">
        <ele>1387.2</ele>
        <time>2020-07-14T08:58:16Z</time>
      </trkpt>
      <trkpt lat="37.9830000" lon="-2.5955430">
        <ele>1387.6</ele>
        <time>2020-07-14T08:58:17Z</time>
      </trkpt>
      <trkpt lat="37.9831700" lon="-2.5955330">
        <ele>1388.8</ele>
        <time>2020-07-14T08:58:23Z</time>
      </trkpt>
      <trkpt lat="37.9832280" lon="-2.5955310">
        <ele>1389.0</ele>
        <time>2020-07-14T08:58:25Z</time>
      </trkpt>
      <trkpt lat="37.9833420" lon="-2.5955250">
        <ele>1389.8</ele>
        <time>2020-07-14T08:58:29Z</time>
      </trkpt>
      <trkpt lat="37.9834560" lon="-2.5955170">
        <ele>1390.6</ele>
        <time>2020-07-14T08:58:33Z</time>
      </trkpt>
      <trkpt lat="37.9835080" lon="-2.5955110">
        <ele>1390.8</ele>
        <time>2020-07-14T08:58:35Z</time>
      </trkpt>
      <trkpt lat="37.9836450" lon="-2.5954980">
        <ele>1391.8</ele>
        <time>2020-07-14T08:58:40Z</time>
      </trkpt>
      <trkpt lat="37.9837010" lon="-2.5954930">
        <ele>1392.2</ele>
        <time>2020-07-14T08:58:42Z</time>
      </trkpt>
      <trkpt lat="37.9838090" lon="-2.5954910">
        <ele>1393.0</ele>
        <time>2020-07-14T08:58:46Z</time>
      </trkpt>
      <trkpt lat="37.9839450" lon="-2.5954770">
        <ele>1394.0</ele>
        <time>2020-07-14T08:58:51Z</time>
      </trkpt>
      <trkpt lat="37.9840850" lon="-2.5954660">
        <ele>1395.0</ele>
        <time>2020-07-14T08:58:56Z</time>
      </trkpt>
      <trkpt lat="37.9841650" lon="-2.5954540">
        <ele>1395.6</ele>
        <time>2020-07-14T08:58:59Z</time>
      </trkpt>
      <trkpt lat="37.9842490" lon="-2.5954460">
        <ele>1396.0</ele>
        <time>2020-07-14T08:59:02Z</time>
      </trkpt>
      <trkpt lat="37.9843790" lon="-2.5954110">
        <ele>1397.2</ele>
        <time>2020-07-14T08:59:07Z</time>
      </trkpt>
      <trkpt lat="37.9844300" lon="-2.5953890">
        <ele>1397.6</ele>
        <time>2020-07-14T08:59:09Z</time>
      </trkpt>
      <trkpt lat="37.9845260" lon="-2.5953370">
        <ele>1398.4</ele>
        <time>2020-07-14T08:59:13Z</time>
      </trkpt>
      <trkpt lat="37.9846490" lon="-2.5952730">
        <ele>1399.4</ele>
        <time>2020-07-14T08:59:18Z</time>
      </trkpt>
      <trkpt lat="37.9846980" lon="-2.5952570">
        <ele>1399.8</ele>
        <time>2020-07-14T08:59:20Z</time>
      </trkpt>
      <trkpt lat="37.9848050" lon="-2.5952190">
        <ele>1400.4</ele>
        <time>2020-07-14T08:59:24Z</time>
      </trkpt>
      <trkpt lat="37.9849630" lon="-2.5951760">
        <ele>1401.6</ele>
        <time>2020-07-14T08:59:30Z</time>
      </trkpt>
      <trkpt lat="37.9849940" lon="-2.5951720">
        <ele>1401.8</ele>
        <time>2020-07-14T08:59:31Z</time>
      </trkpt>
      <trkpt lat="37.9851370" lon="-2.5951490">
        <ele>1402.6</ele>
        <time>2020-07-14T08:59:36Z</time>
      </trkpt>
      <trkpt lat="37.9853080" lon="-2.5951300">
        <ele>1403.8</ele>
        <time>2020-07-14T08:59:42Z</time>
      </trkpt>
      <trkpt lat="37.9853370" lon="-2.5951270">
        <ele>1404.0</ele>
        <time>2020-07-14T08:59:43Z</time>
      </trkpt>
      <trkpt lat="37.9854810" lon="-2.5951170">
        <ele>1405.0</ele>
        <time>2020-07-14T08:59:48Z</time>
      </trkpt>
      <trkpt lat="37.9855980" lon="-2.5950990">
        <ele>1406.0</ele>
        <time>2020-07-14T08:59:52Z</time>
      </trkpt>
      <trkpt lat="37.9856260" lon="-2.5950930">
        <ele>1406.2</ele>
        <time>2020-07-14T08:59:53Z</time>
      </trkpt>
      <trkpt lat="37.9858130" lon="-2.5950800">
        <ele>1407.0</ele>
        <time>2020-07-14T08:59:59Z</time>
      </trkpt>
      <trkpt lat="37.9859480" lon="-2.5950640">
        <ele>1407.6</ele>
        <time>2020-07-14T09:00:03Z</time>
      </trkpt>
      <trkpt lat="37.9862540" lon="-2.5950390">
        <ele>1408.0</ele>
        <time>2020-07-14T09:00:11Z</time>
      </trkpt>
      <trkpt lat="37.9863770" lon="-2.5950290">
        <ele>1408.2</ele>
        <time>2020-07-14T09:00:14Z</time>
      </trkpt>
      <trkpt lat="37.9865360" lon="-2.5950220">
        <ele>1408.4</ele>
        <time>2020-07-14T09:00:18Z</time>
      </trkpt>
      <trkpt lat="37.9866970" lon="-2.5949960">
        <ele>1408.8</ele>
        <time>2020-07-14T09:00:22Z</time>
      </trkpt>
      <trkpt lat="37.9868920" lon="-2.5949680">
        <ele>1409.2</ele>
        <time>2020-07-14T09:00:27Z</time>
      </trkpt>
      <trkpt lat="37.9870280" lon="-2.5949280">
        <ele>1409.6</ele>
        <time>2020-07-14T09:00:31Z</time>
      </trkpt>
      <trkpt lat="37.9871290" lon="-2.5948180">
        <ele>1410.4</ele>
        <time>2020-07-14T09:00:35Z</time>
      </trkpt>
      <trkpt lat="37.9871470" lon="-2.5947790">
        <ele>1410.6</ele>
        <time>2020-07-14T09:00:36Z</time>
      </trkpt>
      <trkpt lat="37.9871840" lon="-2.5946710">
        <ele>1411.4</ele>
        <time>2020-07-14T09:00:39Z</time>
      </trkpt>
      <trkpt lat="37.9871940" lon="-2.5946420">
        <ele>1411.6</ele>
        <time>2020-07-14T09:00:40Z</time>
      </trkpt>
      <trkpt lat="37.9872270" lon="-2.5945430">
        <ele>1412.6</ele>
        <time>2020-07-14T09:00:43Z</time>
      </trkpt>
      <trkpt lat="37.9872390" lon="-2.5945110">
        <ele>1412.8</ele>
        <time>2020-07-14T09:00:44Z</time>
      </trkpt>
      <trkpt lat="37.9872980" lon="-2.5943920">
        <ele>1413.8</ele>
        <time>2020-07-14T09:00:48Z</time>
      </trkpt>
      <trkpt lat="37.9873650" lon="-2.5943200">
        <ele>1414.4</ele>
        <time>2020-07-14T09:00:51Z</time>
      </trkpt>
      <trkpt lat="37.9874130" lon="-2.5942830">
        <ele>1415.0</ele>
        <time>2020-07-14T09:00:53Z</time>
      </trkpt>
      <trkpt lat="37.9875180" lon="-2.5942510">
        <ele>1415.8</ele>
        <time>2020-07-14T09:00:57Z</time>
      </trkpt>
      <trkpt lat="37.9875440" lon="-2.5942500">
        <ele>1416.2</ele>
        <time>2020-07-14T09:00:58Z</time>
      </trkpt>
      <trkpt lat="37.9876720" lon="-2.5942400">
        <ele>1417.2</ele>
        <time>2020-07-14T09:01:03Z</time>
      </trkpt>
      <trkpt lat="37.9877180" lon="-2.5942340">
        <ele>1417.4</ele>
        <time>2020-07-14T09:01:05Z</time>
      </trkpt>
      <trkpt lat="37.9878230" lon="-2.5942190">
        <ele>1418.2</ele>
        <time>2020-07-14T09:01:09Z</time>
      </trkpt>
      <trkpt lat="37.9879470" lon="-2.5941720">
        <ele>1419.0</ele>
        <time>2020-07-14T09:01:14Z</time>
      </trkpt>
      <trkpt lat="37.9880000" lon="-2.5941510">
        <ele>1419.2</ele>
        <time>2020-07-14T09:01:16Z</time>
      </trkpt>
      <trkpt lat="37.9881250" lon="-2.5940960">
        <ele>1420.4</ele>
        <time>2020-07-14T09:01:21Z</time>
      </trkpt>
      <trkpt lat="37.9881510" lon="-2.5940860">
        <ele>1420.6</ele>
        <time>2020-07-14T09:01:22Z</time>
      </trkpt>
      <trkpt lat="37.9882480" lon="-2.5940410">
        <ele>1421.6</ele>
        <time>2020-07-14T09:01:26Z</time>
      </trkpt>
      <trkpt lat="37.9883690" lon="-2.5939860">
        <ele>1422.6</ele>
        <time>2020-07-14T09:01:31Z</time>
      </trkpt>
      <trkpt lat="37.9884840" lon="-2.5939030">
        <ele>1423.8</ele>
        <time>2020-07-14T09:01:36Z</time>
      </trkpt>
      <trkpt lat="37.9885230" lon="-2.5938550">
        <ele>1424.0</ele>
        <time>2020-07-14T09:01:38Z</time>
      </trkpt>
      <trkpt lat="37.9885760" lon="-2.5937400">
        <ele>1424.8</ele>
        <time>2020-07-14T09:01:42Z</time>
      </trkpt>
      <trkpt lat="37.9885910" lon="-2.5936780">
        <ele>1425.4</ele>
        <time>2020-07-14T09:01:44Z</time>
      </trkpt>
      <trkpt lat="37.9886040" lon="-2.5935820">
        <ele>1426.0</ele>
        <time>2020-07-14T09:01:47Z</time>
      </trkpt>
      <trkpt lat="37.9886230" lon="-2.5933960">
        <ele>1427.2</ele>
        <time>2020-07-14T09:01:53Z</time>
      </trkpt>
      <trkpt lat="37.9886330" lon="-2.5932170">
        <ele>1428.2</ele>
        <time>2020-07-14T09:01:59Z</time>
      </trkpt>
      <trkpt lat="37.9886530" lon="-2.5930980">
        <ele>1429.2</ele>
        <time>2020-07-14T09:02:03Z</time>
      </trkpt>
      <trkpt lat="37.9886960" lon="-2.5929920">
        <ele>1430.4</ele>
        <time>2020-07-14T09:02:07Z</time>
      </trkpt>
      <trkpt lat="37.9887280" lon="-2.5929210">
        <ele>1431.0</ele>
        <time>2020-07-14T09:02:10Z</time>
      </trkpt>
      <trkpt lat="37.9887610" lon="-2.5928680">
        <ele>1431.4</ele>
        <time>2020-07-14T09:02:12Z</time>
      </trkpt>
      <trkpt lat="37.9888210" lon="-2.5927980">
        <ele>1432.0</ele>
        <time>2020-07-14T09:02:15Z</time>
      </trkpt>
      <trkpt lat="37.9888650" lon="-2.5927580">
        <ele>1432.4</ele>
        <time>2020-07-14T09:02:17Z</time>
      </trkpt>
      <trkpt lat="37.9889890" lon="-2.5927150">
        <ele>1433.0</ele>
        <time>2020-07-14T09:02:22Z</time>
      </trkpt>
      <trkpt lat="37.9890380" lon="-2.5927060">
        <ele>1433.4</ele>
        <time>2020-07-14T09:02:24Z</time>
      </trkpt>
      <trkpt lat="37.9891940" lon="-2.5926750">
        <ele>1434.4</ele>
        <time>2020-07-14T09:02:30Z</time>
      </trkpt>
      <trkpt lat="37.9893670" lon="-2.5926130">
        <ele>1435.6</ele>
        <time>2020-07-14T09:02:37Z</time>
      </trkpt>
      <trkpt lat="37.9893990" lon="-2.5925940">
        <ele>1436.0</ele>
        <time>2020-07-14T09:02:39Z</time>
      </trkpt>
      <trkpt lat="37.9894590" lon="-2.5925620">
        <ele>1436.8</ele>
        <time>2020-07-14T09:02:42Z</time>
      </trkpt>
      <trkpt lat="37.9895610" lon="-2.5925190">
        <ele>1438.0</ele>
        <time>2020-07-14T09:02:47Z</time>
      </trkpt>
      <trkpt lat="37.9896910" lon="-2.5924930">
        <ele>1439.2</ele>
        <time>2020-07-14T09:02:53Z</time>
      </trkpt>
      <trkpt lat="37.9898250" lon="-2.5924030">
        <ele>1439.8</ele>
        <time>2020-07-14T09:02:59Z</time>
      </trkpt>
      <trkpt lat="37.9898520" lon="-2.5923310">
        <ele>1440.2</ele>
        <time>2020-07-14T09:03:01Z</time>
      </trkpt>
      <trkpt lat="37.9898570" lon="-2.5922520">
        <ele>1440.4</ele>
        <time>2020-07-14T09:03:03Z</time>
      </trkpt>
      <trkpt lat="37.9898180" lon="-2.5921110">
        <ele>1441.4</ele>
        <time>2020-07-14T09:03:07Z</time>
      </trkpt>
      <trkpt lat="37.9897980" lon="-2.5920850">
        <ele>1441.6</ele>
        <time>2020-07-14T09:03:08Z</time>
      </trkpt>
      <trkpt lat="37.9897270" lon="-2.5920320">
        <ele>1442.4</ele>
        <time>2020-07-14T09:03:11Z</time>
      </trkpt>
      <trkpt lat="37.9896730" lon="-2.5920120">
        <ele>1443.0</ele>
        <time>2020-07-14T09:03:13Z</time>
      </trkpt>
      <trkpt lat="37.9895670" lon="-2.5919660">
        <ele>1443.4</ele>
        <time>2020-07-14T09:03:17Z</time>
      </trkpt>
      <trkpt lat="37.9894990" lon="-2.5918890">
        <ele>1444.0</ele>
        <time>2020-07-14T09:03:20Z</time>
      </trkpt>
      <trkpt lat="37.9894650" lon="-2.5917800">
        <ele>1444.6</ele>
        <time>2020-07-14T09:03:23Z</time>
      </trkpt>
      <trkpt lat="37.9894560" lon="-2.5917030">
        <ele>1445.0</ele>
        <time>2020-07-14T09:03:25Z</time>
      </trkpt>
      <trkpt lat="37.9894440" lon="-2.5915840">
        <ele>1445.6</ele>
        <time>2020-07-14T09:03:28Z</time>
      </trkpt>
      <trkpt lat="37.9894240" lon="-2.5913620">
        <ele>1446.8</ele>
        <time>2020-07-14T09:03:34Z</time>
      </trkpt>
      <trkpt lat="37.9894220" lon="-2.5912880">
        <ele>1447.2</ele>
        <time>2020-07-14T09:03:36Z</time>
      </trkpt>
      <trkpt lat="37.9894180" lon="-2.5911810">
        <ele>1447.8</ele>
        <time>2020-07-14T09:03:39Z</time>
      </trkpt>
      <trkpt lat="37.9894080" lon="-2.5909970">
        <ele>1448.8</ele>
        <time>2020-07-14T09:03:44Z</time>
      </trkpt>
      <trkpt lat="37.9894070" lon="-2.5909640">
        <ele>1449.0</ele>
        <time>2020-07-14T09:03:45Z</time>
      </trkpt>
      <trkpt lat="37.9894010" lon="-2.5907850">
        <ele>1450.0</ele>
        <time>2020-07-14T09:03:50Z</time>
      </trkpt>
      <trkpt lat="37.9893930" lon="-2.5906450">
        <ele>1450.8</ele>
        <time>2020-07-14T09:03:54Z</time>
      </trkpt>
      <trkpt lat="37.9893910" lon="-2.5906130">
        <ele>1451.0</ele>
        <time>2020-07-14T09:03:55Z</time>
      </trkpt>
      <trkpt lat="37.9893830" lon="-2.5904110">
        <ele>1452.2</ele>
        <time>2020-07-14T09:04:01Z</time>
      </trkpt>
      <trkpt lat="37.9893820" lon="-2.5903460">
        <ele>1452.8</ele>
        <time>2020-07-14T09:04:03Z</time>
      </trkpt>
      <trkpt lat="37.9893700" lon="-2.5902320">
        <ele>1453.2</ele>
        <time>2020-07-14T09:04:06Z</time>
      </trkpt>
      <trkpt lat="37.9893640" lon="-2.5900840">
        <ele>1454.0</ele>
        <time>2020-07-14T09:04:10Z</time>
      </trkpt>
      <trkpt lat="37.9893610" lon="-2.5900070">
        <ele>1454.4</ele>
        <time>2020-07-14T09:04:12Z</time>
      </trkpt>
      <trkpt lat="37.9893500" lon="-2.5897970">
        <ele>1455.4</ele>
        <time>2020-07-14T09:04:18Z</time>
      </trkpt>
      <trkpt lat="37.9893470" lon="-2.5897640">
        <ele>1455.6</ele>
        <time>2020-07-14T09:04:19Z</time>
      </trkpt>
      <trkpt lat="37.9893380" lon="-2.5896340">
        <ele>1456.4</ele>
        <time>2020-07-14T09:04:23Z</time>
      </trkpt>
      <trkpt lat="37.9893170" lon="-2.5894710">
        <ele>1457.6</ele>
        <time>2020-07-14T09:04:28Z</time>
      </trkpt>
      <trkpt lat="37.9893100" lon="-2.5894410">
        <ele>1457.8</ele>
        <time>2020-07-14T09:04:29Z</time>
      </trkpt>
      <trkpt lat="37.9892400" lon="-2.5892790">
        <ele>1458.6</ele>
        <time>2020-07-14T09:04:34Z</time>
      </trkpt>
      <trkpt lat="37.9892220" lon="-2.5892570">
        <ele>1458.8</ele>
        <time>2020-07-14T09:04:35Z</time>
      </trkpt>
      <trkpt lat="37.9890950" lon="-2.5891360">
        <ele>1459.8</ele>
        <time>2020-07-14T09:04:41Z</time>
      </trkpt>
      <trkpt lat="37.9890560" lon="-2.5890960">
        <ele>1460.2</ele>
        <time>2020-07-14T09:04:43Z</time>
      </trkpt>
      <trkpt lat="37.9890050" lon="-2.5890320">
        <ele>1461.0</ele>
        <time>2020-07-14T09:04:46Z</time>
      </trkpt>
      <trkpt lat="37.9889380" lon="-2.5888970">
        <ele>1462.0</ele>
        <time>2020-07-14T09:04:51Z</time>
      </trkpt>
      <trkpt lat="37.9888700" lon="-2.5887370">
        <ele>1463.0</ele>
        <time>2020-07-14T09:04:56Z</time>
      </trkpt>
      <trkpt lat="37.9888430" lon="-2.5886690">
        <ele>1463.4</ele>
        <time>2020-07-14T09:04:58Z</time>
      </trkpt>
      <trkpt lat="37.9887730" lon="-2.5885100">
        <ele>1464.0</ele>
        <time>2020-07-14T09:05:03Z</time>
      </trkpt>
      <trkpt lat="37.9887210" lon="-2.5883920">
        <ele>1464.8</ele>
        <time>2020-07-14T09:05:07Z</time>
      </trkpt>
      <trkpt lat="37.9887100" lon="-2.5883660">
        <ele>1465.2</ele>
        <time>2020-07-14T09:05:08Z</time>
      </trkpt>
      <trkpt lat="37.9886560" lon="-2.5882330">
        <ele>1466.4</ele>
        <time>2020-07-14T09:05:13Z</time>
      </trkpt>
      <trkpt lat="37.9886450" lon="-2.5882060">
        <ele>1466.6</ele>
        <time>2020-07-14T09:05:14Z</time>
      </trkpt>
      <trkpt lat="37.9885990" lon="-2.5880760">
        <ele>1467.6</ele>
        <time>2020-07-14T09:05:18Z</time>
      </trkpt>
      <trkpt lat="37.9885710" lon="-2.5879820">
        <ele>1468.0</ele>
        <time>2020-07-14T09:05:21Z</time>
      </trkpt>
      <trkpt lat="37.9885570" lon="-2.5879200">
        <ele>1468.6</ele>
        <time>2020-07-14T09:05:23Z</time>
      </trkpt>
      <trkpt lat="37.9885170" lon="-2.5877660">
        <ele>1469.8</ele>
        <time>2020-07-14T09:05:28Z</time>
      </trkpt>
      <trkpt lat="37.9884920" lon="-2.5876360">
        <ele>1470.8</ele>
        <time>2020-07-14T09:05:32Z</time>
      </trkpt>
      <trkpt lat="37.9884750" lon="-2.5874700">
        <ele>1471.6</ele>
        <time>2020-07-14T09:05:37Z</time>
      </trkpt>
      <trkpt lat="37.9884710" lon="-2.5874060">
        <ele>1471.8</ele>
        <time>2020-07-14T09:05:39Z</time>
      </trkpt>
      <trkpt lat="37.9884720" lon="-2.5872750">
        <ele>1473.0</ele>
        <time>2020-07-14T09:05:43Z</time>
      </trkpt>
      <trkpt lat="37.9884630" lon="-2.5871470">
        <ele>1473.8</ele>
        <time>2020-07-14T09:05:47Z</time>
      </trkpt>
      <trkpt lat="37.9884590" lon="-2.5870790">
        <ele>1474.2</ele>
        <time>2020-07-14T09:05:49Z</time>
      </trkpt>
      <trkpt lat="37.9884570" lon="-2.5869140">
        <ele>1475.2</ele>
        <time>2020-07-14T09:05:54Z</time>
      </trkpt>
      <trkpt lat="37.9884490" lon="-2.5867830">
        <ele>1475.8</ele>
        <time>2020-07-14T09:05:58Z</time>
      </trkpt>
      <trkpt lat="37.9884450" lon="-2.5866830">
        <ele>1476.4</ele>
        <time>2020-07-14T09:06:01Z</time>
      </trkpt>
      <trkpt lat="37.9884490" lon="-2.5865530">
        <ele>1477.4</ele>
        <time>2020-07-14T09:06:05Z</time>
      </trkpt>
      <trkpt lat="37.9884780" lon="-2.5864160">
        <ele>1478.2</ele>
        <time>2020-07-14T09:06:09Z</time>
      </trkpt>
      <trkpt lat="37.9884920" lon="-2.5863920">
        <ele>1478.4</ele>
        <time>2020-07-14T09:06:10Z</time>
      </trkpt>
      <trkpt lat="37.9885800" lon="-2.5862870">
        <ele>1479.6</ele>
        <time>2020-07-14T09:06:15Z</time>
      </trkpt>
      <trkpt lat="37.9887320" lon="-2.5862990">
        <ele>1480.6</ele>
        <time>2020-07-14T09:06:21Z</time>
      </trkpt>
      <trkpt lat="37.9888080" lon="-2.5863840">
        <ele>1481.4</ele>
        <time>2020-07-14T09:06:25Z</time>
      </trkpt>
      <trkpt lat="37.9888220" lon="-2.5864140">
        <ele>1481.6</ele>
        <time>2020-07-14T09:06:26Z</time>
      </trkpt>
      <trkpt lat="37.9888320" lon="-2.5864430">
        <ele>1482.0</ele>
        <time>2020-07-14T09:06:27Z</time>
      </trkpt>
      <trkpt lat="37.9888490" lon="-2.5865280">
        <ele>1483.0</ele>
        <time>2020-07-14T09:06:30Z</time>
      </trkpt>
      <trkpt lat="37.9888540" lon="-2.5866760">
        <ele>1484.2</ele>
        <time>2020-07-14T09:06:35Z</time>
      </trkpt>
      <trkpt lat="37.9888380" lon="-2.5868340">
        <ele>1485.2</ele>
        <time>2020-07-14T09:06:40Z</time>
      </trkpt>
      <trkpt lat="37.9888370" lon="-2.5869360">
        <ele>1485.8</ele>
        <time>2020-07-14T09:06:43Z</time>
      </trkpt>
      <trkpt lat="37.9888460" lon="-2.5870600">
        <ele>1486.4</ele>
        <time>2020-07-14T09:06:47Z</time>
      </trkpt>
      <trkpt lat="37.9888810" lon="-2.5872110">
        <ele>1487.8</ele>
        <time>2020-07-14T09:06:52Z</time>
      </trkpt>
      <trkpt lat="37.9888890" lon="-2.5872400">
        <ele>1488.0</ele>
        <time>2020-07-14T09:06:53Z</time>
      </trkpt>
      <trkpt lat="37.9889240" lon="-2.5873550">
        <ele>1488.8</ele>
        <time>2020-07-14T09:06:57Z</time>
      </trkpt>
      <trkpt lat="37.9889750" lon="-2.5874880">
        <ele>1489.8</ele>
        <time>2020-07-14T09:07:02Z</time>
      </trkpt>
      <trkpt lat="37.9890290" lon="-2.5876110">
        <ele>1490.8</ele>
        <time>2020-07-14T09:07:07Z</time>
      </trkpt>
      <trkpt lat="37.9890760" lon="-2.5876660">
        <ele>1491.4</ele>
        <time>2020-07-14T09:07:10Z</time>
      </trkpt>
      <trkpt lat="37.9891430" lon="-2.5877480">
        <ele>1492.0</ele>
        <time>2020-07-14T09:07:14Z</time>
      </trkpt>
      <trkpt lat="37.9892400" lon="-2.5878540">
        <ele>1493.2</ele>
        <time>2020-07-14T09:07:19Z</time>
      </trkpt>
      <trkpt lat="37.9893670" lon="-2.5879520">
        <ele>1494.4</ele>
        <time>2020-07-14T09:07:25Z</time>
      </trkpt>
      <trkpt lat="37.9894360" lon="-2.5879910">
        <ele>1495.0</ele>
        <time>2020-07-14T09:07:28Z</time>
      </trkpt>
      <trkpt lat="37.9894770" lon="-2.5880170">
        <ele>1495.4</ele>
        <time>2020-07-14T09:07:30Z</time>
      </trkpt>
      <trkpt lat="37.9895900" lon="-2.5880590">
        <ele>1496.4</ele>
        <time>2020-07-14T09:07:35Z</time>
      </trkpt>
      <trkpt lat="37.9896160" lon="-2.5880650">
        <ele>1496.6</ele>
        <time>2020-07-14T09:07:36Z</time>
      </trkpt>
      <trkpt lat="37.9897080" lon="-2.5880970">
        <ele>1497.4</ele>
        <time>2020-07-14T09:07:40Z</time>
      </trkpt>
      <trkpt lat="37.9898240" lon="-2.5881410">
        <ele>1498.6</ele>
        <time>2020-07-14T09:07:45Z</time>
      </trkpt>
      <trkpt lat="37.9899400" lon="-2.5881930">
        <ele>1499.6</ele>
        <time>2020-07-14T09:07:50Z</time>
      </trkpt>
      <trkpt lat="37.9900130" lon="-2.5882240">
        <ele>1500.2</ele>
        <time>2020-07-14T09:07:53Z</time>
      </trkpt>
      <trkpt lat="37.9900600" lon="-2.5882520">
        <ele>1500.6</ele>
        <time>2020-07-14T09:07:55Z</time>
      </trkpt>
      <trkpt lat="37.9901470" lon="-2.5883690">
        <ele>1501.6</ele>
        <time>2020-07-14T09:08:00Z</time>
      </trkpt>
      <trkpt lat="37.9901630" lon="-2.5883940">
        <ele>1501.8</ele>
        <time>2020-07-14T09:08:01Z</time>
      </trkpt>
      <trkpt lat="37.9902120" lon="-2.5884900">
        <ele>1502.8</ele>
        <time>2020-07-14T09:08:05Z</time>
      </trkpt>
      <trkpt lat="37.9902380" lon="-2.5885420">
        <ele>1503.2</ele>
        <time>2020-07-14T09:08:07Z</time>
      </trkpt>
      <trkpt lat="37.9902750" lon="-2.5886240">
        <ele>1504.0</ele>
        <time>2020-07-14T09:08:10Z</time>
      </trkpt>
      <trkpt lat="37.9903100" lon="-2.5887130">
        <ele>1504.4</ele>
        <time>2020-07-14T09:08:13Z</time>
      </trkpt>
      <trkpt lat="37.9903570" lon="-2.5888090">
        <ele>1505.0</ele>
        <time>2020-07-14T09:08:17Z</time>
      </trkpt>
      <trkpt lat="37.9903900" lon="-2.5888560">
        <ele>1505.4</ele>
        <time>2020-07-14T09:08:19Z</time>
      </trkpt>
      <trkpt lat="37.9904280" lon="-2.5888910">
        <ele>1506.2</ele>
        <time>2020-07-14T09:08:21Z</time>
      </trkpt>
      <trkpt lat="37.9905120" lon="-2.5889070">
        <ele>1507.4</ele>
        <time>2020-07-14T09:08:25Z</time>
      </trkpt>
      <trkpt lat="37.9905790" lon="-2.5888380">
        <ele>1508.6</ele>
        <time>2020-07-14T09:08:29Z</time>
      </trkpt>
      <trkpt lat="37.9905900" lon="-2.5888110">
        <ele>1508.8</ele>
        <time>2020-07-14T09:08:30Z</time>
      </trkpt>
      <trkpt lat="37.9906030" lon="-2.5887480">
        <ele>1509.8</ele>
        <time>2020-07-14T09:08:32Z</time>
      </trkpt>
      <trkpt lat="37.9905980" lon="-2.5886570">
        <ele>1510.6</ele>
        <time>2020-07-14T09:08:35Z</time>
      </trkpt>
      <trkpt lat="37.9905880" lon="-2.5886220">
        <ele>1510.8</ele>
        <time>2020-07-14T09:08:36Z</time>
      </trkpt>
      <trkpt lat="37.9905280" lon="-2.5884840">
        <ele>1512.0</ele>
        <time>2020-07-14T09:08:41Z</time>
      </trkpt>
      <trkpt lat="37.9905110" lon="-2.5884560">
        <ele>1512.2</ele>
        <time>2020-07-14T09:08:42Z</time>
      </trkpt>
      <trkpt lat="37.9904360" lon="-2.5883300">
        <ele>1513.0</ele>
        <time>2020-07-14T09:08:47Z</time>
      </trkpt>
      <trkpt lat="37.9903680" lon="-2.5882360">
        <ele>1513.6</ele>
        <time>2020-07-14T09:08:51Z</time>
      </trkpt>
      <trkpt lat="37.9903330" lon="-2.5881870">
        <ele>1514.0</ele>
        <time>2020-07-14T09:08:53Z</time>
      </trkpt>
      <trkpt lat="37.9902270" lon="-2.5880370">
        <ele>1515.0</ele>
        <time>2020-07-14T09:08:59Z</time>
      </trkpt>
      <trkpt lat="37.9902110" lon="-2.5880140">
        <ele>1515.2</ele>
        <time>2020-07-14T09:09:00Z</time>
      </trkpt>
      <trkpt lat="37.9901230" lon="-2.5878950">
        <ele>1516.2</ele>
        <time>2020-07-14T09:09:05Z</time>
      </trkpt>
      <trkpt lat="37.9900530" lon="-2.5878030">
        <ele>1517.4</ele>
        <time>2020-07-14T09:09:09Z</time>
      </trkpt>
      <trkpt lat="37.9899860" lon="-2.5877070">
        <ele>1518.4</ele>
        <time>2020-07-14T09:09:13Z</time>
      </trkpt>
      <trkpt lat="37.9898950" lon="-2.5876020">
        <ele>1519.4</ele>
        <time>2020-07-14T09:09:18Z</time>
      </trkpt>
      <trkpt lat="37.9898190" lon="-2.5874940">
        <ele>1520.6</ele>
        <time>2020-07-14T09:09:23Z</time>
      </trkpt>
      <trkpt lat="37.9897670" lon="-2.5874300">
        <ele>1521.2</ele>
        <time>2020-07-14T09:09:26Z</time>
      </trkpt>
      <trkpt lat="37.9897210" lon="-2.5873590">
        <ele>1521.8</ele>
        <time>2020-07-14T09:09:29Z</time>
      </trkpt>
      <trkpt lat="37.9896720" lon="-2.5872250">
        <ele>1522.8</ele>
        <time>2020-07-14T09:09:34Z</time>
      </trkpt>
      <trkpt lat="37.9896700" lon="-2.5871910">
        <ele>1523.0</ele>
        <time>2020-07-14T09:09:35Z</time>
      </trkpt>
      <trkpt lat="37.9897000" lon="-2.5870310">
        <ele>1524.2</ele>
        <time>2020-07-14T09:09:41Z</time>
      </trkpt>
      <trkpt lat="37.9897910" lon="-2.5869280">
        <ele>1525.4</ele>
        <time>2020-07-14T09:09:47Z</time>
      </trkpt>
      <trkpt lat="37.9898860" lon="-2.5868960">
        <ele>1526.6</ele>
        <time>2020-07-14T09:09:52Z</time>
      </trkpt>
      <trkpt lat="37.9899050" lon="-2.5869030">
        <ele>1526.8</ele>
        <time>2020-07-14T09:09:53Z</time>
      </trkpt>
      <trkpt lat="37.9899850" lon="-2.5869580">
        <ele>1527.6</ele>
        <time>2020-07-14T09:09:57Z</time>
      </trkpt>
      <trkpt lat="37.9900240" lon="-2.5869870">
        <ele>1528.2</ele>
        <time>2020-07-14T09:09:59Z</time>
      </trkpt>
      <trkpt lat="37.9900810" lon="-2.5870450">
        <ele>1528.8</ele>
        <time>2020-07-14T09:10:02Z</time>
      </trkpt>
      <trkpt lat="37.9901650" lon="-2.5871580">
        <ele>1529.8</ele>
        <time>2020-07-14T09:10:07Z</time>
      </trkpt>
      <trkpt lat="37.9901820" lon="-2.5871800">
        <ele>1530.0</ele>
        <time>2020-07-14T09:10:08Z</time>
      </trkpt>
      <trkpt lat="37.9902800" lon="-2.5873160">
        <ele>1531.0</ele>
        <time>2020-07-14T09:10:14Z</time>
      </trkpt>
      <trkpt lat="37.9903540" lon="-2.5874010">
        <ele>1531.8</ele>
        <time>2020-07-14T09:10:18Z</time>
      </trkpt>
      <trkpt lat="37.9903870" lon="-2.5874440">
        <ele>1532.2</ele>
        <time>2020-07-14T09:10:20Z</time>
      </trkpt>
      <trkpt lat="37.9904860" lon="-2.5875310">
        <ele>1533.2</ele>
        <time>2020-07-14T09:10:25Z</time>
      </trkpt>
      <trkpt lat="37.9905300" lon="-2.5875620">
        <ele>1533.6</ele>
        <time>2020-07-14T09:10:27Z</time>
      </trkpt>
      <trkpt lat="37.9905720" lon="-2.5875900">
        <ele>1534.0</ele>
        <time>2020-07-14T09:10:29Z</time>
      </trkpt>
      <trkpt lat="37.9906180" lon="-2.5876200">
        <ele>1534.4</ele>
        <time>2020-07-14T09:10:31Z</time>
      </trkpt>
      <trkpt lat="37.9907550" lon="-2.5877080">
        <ele>1535.4</ele>
        <time>2020-07-14T09:10:37Z</time>
      </trkpt>
      <trkpt lat="37.9908920" lon="-2.5878040">
        <ele>1536.4</ele>
        <time>2020-07-14T09:10:43Z</time>
      </trkpt>
      <trkpt lat="37.9909590" lon="-2.5878540">
        <ele>1537.0</ele>
        <time>2020-07-14T09:10:46Z</time>
      </trkpt>
      <trkpt lat="37.9910210" lon="-2.5879170">
        <ele>1537.6</ele>
        <time>2020-07-14T09:10:49Z</time>
      </trkpt>
      <trkpt lat="37.9910870" lon="-2.5880310">
        <ele>1538.4</ele>
        <time>2020-07-14T09:10:53Z</time>
      </trkpt>
      <trkpt lat="37.9911090" lon="-2.5880970">
        <ele>1538.8</ele>
        <time>2020-07-14T09:10:55Z</time>
      </trkpt>
      <trkpt lat="37.9911440" lon="-2.5882700">
        <ele>1539.6</ele>
        <time>2020-07-14T09:11:00Z</time>
      </trkpt>
      <trkpt lat="37.9911460" lon="-2.5883090">
        <ele>1539.8</ele>
        <time>2020-07-14T09:11:01Z</time>
      </trkpt>
      <trkpt lat="37.9911330" lon="-2.5885320">
        <ele>1540.8</ele>
        <time>2020-07-14T09:11:07Z</time>
      </trkpt>
      <trkpt lat="37.9911270" lon="-2.5886050">
        <ele>1541.2</ele>
        <time>2020-07-14T09:11:09Z</time>
      </trkpt>
      <trkpt lat="37.9911200" lon="-2.5887570">
        <ele>1542.0</ele>
        <time>2020-07-14T09:11:13Z</time>
      </trkpt>
      <trkpt lat="37.9911400" lon="-2.5889110">
        <ele>1542.8</ele>
        <time>2020-07-14T09:11:17Z</time>
      </trkpt>
      <trkpt lat="37.9911810" lon="-2.5890200">
        <ele>1543.0</ele>
        <time>2020-07-14T09:11:20Z</time>
      </trkpt>
      <trkpt lat="37.9912530" lon="-2.5891540">
        <ele>1544.0</ele>
        <time>2020-07-14T09:11:24Z</time>
      </trkpt>
      <trkpt lat="37.9912690" lon="-2.5891840">
        <ele>1544.4</ele>
        <time>2020-07-14T09:11:25Z</time>
      </trkpt>
      <trkpt lat="37.9913850" lon="-2.5893840">
        <ele>1545.4</ele>
        <time>2020-07-14T09:11:31Z</time>
      </trkpt>
      <trkpt lat="37.9914080" lon="-2.5894170">
        <ele>1545.6</ele>
        <time>2020-07-14T09:11:32Z</time>
      </trkpt>
      <trkpt lat="37.9916070" lon="-2.5895940">
        <ele>1546.6</ele>
        <time>2020-07-14T09:11:40Z</time>
      </trkpt>
      <trkpt lat="37.9917350" lon="-2.5895660">
        <ele>1547.6</ele>
        <time>2020-07-14T09:11:45Z</time>
      </trkpt>
      <trkpt lat="37.9918120" lon="-2.5894490">
        <ele>1548.8</ele>
        <time>2020-07-14T09:11:50Z</time>
      </trkpt>
      <trkpt lat="37.9918200" lon="-2.5892970">
        <ele>1550.0</ele>
        <time>2020-07-14T09:11:55Z</time>
      </trkpt>
      <trkpt lat="37.9918130" lon="-2.5892670">
        <ele>1550.2</ele>
        <time>2020-07-14T09:11:56Z</time>
      </trkpt>
      <trkpt lat="37.9917450" lon="-2.5891340">
        <ele>1551.2</ele>
        <time>2020-07-14T09:12:01Z</time>
      </trkpt>
      <trkpt lat="37.9917260" lon="-2.5891090">
        <ele>1551.4</ele>
        <time>2020-07-14T09:12:02Z</time>
      </trkpt>
      <trkpt lat="37.9916510" lon="-2.5889770">
        <ele>1552.2</ele>
        <time>2020-07-14T09:12:07Z</time>
      </trkpt>
      <trkpt lat="37.9916370" lon="-2.5889490">
        <ele>1552.4</ele>
        <time>2020-07-14T09:12:08Z</time>
      </trkpt>
      <trkpt lat="37.9916100" lon="-2.5888640">
        <ele>1553.0</ele>
        <time>2020-07-14T09:12:11Z</time>
      </trkpt>
      <trkpt lat="37.9916060" lon="-2.5887870">
        <ele>1553.4</ele>
        <time>2020-07-14T09:12:13Z</time>
      </trkpt>
      <trkpt lat="37.9916090" lon="-2.5887510">
        <ele>1553.6</ele>
        <time>2020-07-14T09:12:14Z</time>
      </trkpt>
      <trkpt lat="37.9916600" lon="-2.5885610">
        <ele>1554.6</ele>
        <time>2020-07-14T09:12:20Z</time>
      </trkpt>
      <trkpt lat="37.9916710" lon="-2.5885270">
        <ele>1554.6</ele>
        <time>2020-07-14T09:12:21Z</time>
      </trkpt>
      <trkpt lat="37.9917660" lon="-2.5882590">
        <ele>1555.6</ele>
        <time>2020-07-14T09:12:29Z</time>
      </trkpt>
      <trkpt lat="37.9917880" lon="-2.5881900">
        <ele>1555.8</ele>
        <time>2020-07-14T09:12:31Z</time>
      </trkpt>
      <trkpt lat="37.9918060" lon="-2.5880190">
        <ele>1556.8</ele>
        <time>2020-07-14T09:12:36Z</time>
      </trkpt>
      <trkpt lat="37.9917990" lon="-2.5879490">
        <ele>1557.2</ele>
        <time>2020-07-14T09:12:38Z</time>
      </trkpt>
      <trkpt lat="37.9917820" lon="-2.5878850">
        <ele>1557.8</ele>
        <time>2020-07-14T09:12:40Z</time>
      </trkpt>
      <trkpt lat="37.9917490" lon="-2.5877140">
        <ele>1558.6</ele>
        <time>2020-07-14T09:12:45Z</time>
      </trkpt>
      <trkpt lat="37.9917400" lon="-2.5876790">
        <ele>1558.8</ele>
        <time>2020-07-14T09:12:46Z</time>
      </trkpt>
      <trkpt lat="37.9916950" lon="-2.5874840">
        <ele>1560.0</ele>
        <time>2020-07-14T09:12:52Z</time>
      </trkpt>
      <trkpt lat="37.9916630" lon="-2.5873530">
        <ele>1560.6</ele>
        <time>2020-07-14T09:12:56Z</time>
      </trkpt>
      <trkpt lat="37.9916450" lon="-2.5872860">
        <ele>1561.0</ele>
        <time>2020-07-14T09:12:58Z</time>
      </trkpt>
      <trkpt lat="37.9915970" lon="-2.5870900">
        <ele>1562.0</ele>
        <time>2020-07-14T09:13:04Z</time>
      </trkpt>
      <trkpt lat="37.9915900" lon="-2.5870610">
        <ele>1562.2</ele>
        <time>2020-07-14T09:13:05Z</time>
      </trkpt>
      <trkpt lat="37.9915420" lon="-2.5868660">
        <ele>1563.2</ele>
        <time>2020-07-14T09:13:11Z</time>
      </trkpt>
      <trkpt lat="37.9915240" lon="-2.5866970">
        <ele>1564.4</ele>
        <time>2020-07-14T09:13:16Z</time>
      </trkpt>
      <trkpt lat="37.9915270" lon="-2.5866640">
        <ele>1564.6</ele>
        <time>2020-07-14T09:13:17Z</time>
      </trkpt>
      <trkpt lat="37.9915700" lon="-2.5865330">
        <ele>1565.4</ele>
        <time>2020-07-14T09:13:21Z</time>
      </trkpt>
      <trkpt lat="37.9916070" lon="-2.5864750">
        <ele>1565.8</ele>
        <time>2020-07-14T09:13:23Z</time>
      </trkpt>
      <trkpt lat="37.9917400" lon="-2.5864110">
        <ele>1566.4</ele>
        <time>2020-07-14T09:13:28Z</time>
      </trkpt>
      <trkpt lat="37.9917640" lon="-2.5864090">
        <ele>1566.4</ele>
        <time>2020-07-14T09:13:29Z</time>
      </trkpt>
      <trkpt lat="37.9918810" lon="-2.5864510">
        <ele>1567.6</ele>
        <time>2020-07-14T09:13:34Z</time>
      </trkpt>
      <trkpt lat="37.9919390" lon="-2.5865510">
        <ele>1568.6</ele>
        <time>2020-07-14T09:13:38Z</time>
      </trkpt>
      <trkpt lat="37.9919590" lon="-2.5866110">
        <ele>1569.2</ele>
        <time>2020-07-14T09:13:40Z</time>
      </trkpt>
      <trkpt lat="37.9919840" lon="-2.5867050">
        <ele>1569.8</ele>
        <time>2020-07-14T09:13:43Z</time>
      </trkpt>
      <trkpt lat="37.9920090" lon="-2.5868120">
        <ele>1570.4</ele>
        <time>2020-07-14T09:13:46Z</time>
      </trkpt>
      <trkpt lat="37.9920360" lon="-2.5869180">
        <ele>1571.0</ele>
        <time>2020-07-14T09:13:49Z</time>
      </trkpt>
      <trkpt lat="37.9921100" lon="-2.5871740">
        <ele>1572.0</ele>
        <time>2020-07-14T09:13:56Z</time>
      </trkpt>
      <trkpt lat="37.9921300" lon="-2.5872390">
        <ele>1572.6</ele>
        <time>2020-07-14T09:13:58Z</time>
      </trkpt>
      <trkpt lat="37.9921600" lon="-2.5873300">
        <ele>1573.2</ele>
        <time>2020-07-14T09:14:01Z</time>
      </trkpt>
      <trkpt lat="37.9922170" lon="-2.5874840">
        <ele>1574.2</ele>
        <time>2020-07-14T09:14:06Z</time>
      </trkpt>
      <trkpt lat="37.9922390" lon="-2.5875440">
        <ele>1574.6</ele>
        <time>2020-07-14T09:14:08Z</time>
      </trkpt>
      <trkpt lat="37.9922870" lon="-2.5876620">
        <ele>1575.2</ele>
        <time>2020-07-14T09:14:12Z</time>
      </trkpt>
      <trkpt lat="37.9923330" lon="-2.5877760">
        <ele>1576.2</ele>
        <time>2020-07-14T09:14:16Z</time>
      </trkpt>
      <trkpt lat="37.9923450" lon="-2.5878030">
        <ele>1576.4</ele>
        <time>2020-07-14T09:14:17Z</time>
      </trkpt>
      <trkpt lat="37.9924100" lon="-2.5879520">
        <ele>1577.6</ele>
        <time>2020-07-14T09:14:22Z</time>
      </trkpt>
      <trkpt lat="37.9924530" lon="-2.5880270">
        <ele>1578.0</ele>
        <time>2020-07-14T09:14:25Z</time>
      </trkpt>
      <trkpt lat="37.9924990" lon="-2.5881030">
        <ele>1578.6</ele>
        <time>2020-07-14T09:14:28Z</time>
      </trkpt>
      <trkpt lat="37.9925790" lon="-2.5882230">
        <ele>1579.6</ele>
        <time>2020-07-14T09:14:33Z</time>
      </trkpt>
      <trkpt lat="37.9926460" lon="-2.5883180">
        <ele>1580.2</ele>
        <time>2020-07-14T09:14:37Z</time>
      </trkpt>
      <trkpt lat="37.9926990" lon="-2.5883780">
        <ele>1580.8</ele>
        <time>2020-07-14T09:14:40Z</time>
      </trkpt>
      <trkpt lat="37.9927910" lon="-2.5884820">
        <ele>1582.0</ele>
        <time>2020-07-14T09:14:45Z</time>
      </trkpt>
      <trkpt lat="37.9928090" lon="-2.5885030">
        <ele>1582.2</ele>
        <time>2020-07-14T09:14:46Z</time>
      </trkpt>
      <trkpt lat="37.9928910" lon="-2.5885930">
        <ele>1583.0</ele>
        <time>2020-07-14T09:14:50Z</time>
      </trkpt>
      <trkpt lat="37.9930220" lon="-2.5887480">
        <ele>1584.0</ele>
        <time>2020-07-14T09:14:57Z</time>
      </trkpt>
      <trkpt lat="37.9931240" lon="-2.5888530">
        <ele>1585.2</ele>
        <time>2020-07-14T09:15:02Z</time>
      </trkpt>
      <trkpt lat="37.9931860" lon="-2.5888950">
        <ele>1586.0</ele>
        <time>2020-07-14T09:15:05Z</time>
      </trkpt>
      <trkpt lat="37.9932300" lon="-2.5889240">
        <ele>1586.4</ele>
        <time>2020-07-14T09:15:07Z</time>
      </trkpt>
      <trkpt lat="37.9933150" lon="-2.5889660">
        <ele>1587.4</ele>
        <time>2020-07-14T09:15:11Z</time>
      </trkpt>
      <trkpt lat="37.9933880" lon="-2.5889780">
        <ele>1588.0</ele>
        <time>2020-07-14T09:15:14Z</time>
      </trkpt>
      <trkpt lat="37.9934660" lon="-2.5889750">
        <ele>1588.6</ele>
        <time>2020-07-14T09:15:17Z</time>
      </trkpt>
      <trkpt lat="37.9935830" lon="-2.5889750">
        <ele>1589.2</ele>
        <time>2020-07-14T09:15:21Z</time>
      </trkpt>
      <trkpt lat="37.9936140" lon="-2.5889790">
        <ele>1589.6</ele>
        <time>2020-07-14T09:15:22Z</time>
      </trkpt>
      <trkpt lat="37.9937720" lon="-2.5890610">
        <ele>1590.2</ele>
        <time>2020-07-14T09:15:28Z</time>
      </trkpt>
      <trkpt lat="37.9938160" lon="-2.5890960">
        <ele>1590.6</ele>
        <time>2020-07-14T09:15:30Z</time>
      </trkpt>
      <trkpt lat="37.9939170" lon="-2.5891860">
        <ele>1591.8</ele>
        <time>2020-07-14T09:15:35Z</time>
      </trkpt>
      <trkpt lat="37.9940370" lon="-2.5892830">
        <ele>1592.4</ele>
        <time>2020-07-14T09:15:40Z</time>
      </trkpt>
      <trkpt lat="37.9941290" lon="-2.5893690">
        <ele>1592.8</ele>
        <time>2020-07-14T09:15:44Z</time>
      </trkpt>
      <trkpt lat="37.9942480" lon="-2.5894650">
        <ele>1593.4</ele>
        <time>2020-07-14T09:15:49Z</time>
      </trkpt>
      <trkpt lat="37.9943390" lon="-2.5895510">
        <ele>1594.0</ele>
        <time>2020-07-14T09:15:53Z</time>
      </trkpt>
      <trkpt lat="37.9944610" lon="-2.5897100">
        <ele>1594.6</ele>
        <time>2020-07-14T09:15:59Z</time>
      </trkpt>
      <trkpt lat="37.9945110" lon="-2.5898500">
        <ele>1595.0</ele>
        <time>2020-07-14T09:16:03Z</time>
      </trkpt>
      <trkpt lat="37.9945300" lon="-2.5899650">
        <ele>1595.4</ele>
        <time>2020-07-14T09:16:06Z</time>
      </trkpt>
      <trkpt lat="37.9945250" lon="-2.5902330">
        <ele>1596.0</ele>
        <time>2020-07-14T09:16:13Z</time>
      </trkpt>
      <trkpt lat="37.9945220" lon="-2.5902700">
        <ele>1596.2</ele>
        <time>2020-07-14T09:16:14Z</time>
      </trkpt>
      <trkpt lat="37.9944470" lon="-2.5904730">
        <ele>1597.0</ele>
        <time>2020-07-14T09:16:20Z</time>
      </trkpt>
      <trkpt lat="37.9943090" lon="-2.5906330">
        <ele>1597.8</ele>
        <time>2020-07-14T09:16:26Z</time>
      </trkpt>
      <trkpt lat="37.9942380" lon="-2.5906940">
        <ele>1598.2</ele>
        <time>2020-07-14T09:16:29Z</time>
      </trkpt>
      <trkpt lat="37.9941810" lon="-2.5908110">
        <ele>1599.0</ele>
        <time>2020-07-14T09:16:33Z</time>
      </trkpt>
      <trkpt lat="37.9941760" lon="-2.5908450">
        <ele>1599.2</ele>
        <time>2020-07-14T09:16:34Z</time>
      </trkpt>
      <trkpt lat="37.9942110" lon="-2.5909680">
        <ele>1600.4</ele>
        <time>2020-07-14T09:16:38Z</time>
      </trkpt>
      <trkpt lat="37.9942870" lon="-2.5910410">
        <ele>1601.4</ele>
        <time>2020-07-14T09:16:42Z</time>
      </trkpt>
      <trkpt lat="37.9943340" lon="-2.5910550">
        <ele>1601.8</ele>
        <time>2020-07-14T09:16:44Z</time>
      </trkpt>
      <trkpt lat="37.9944230" lon="-2.5910370">
        <ele>1602.6</ele>
        <time>2020-07-14T09:16:48Z</time>
      </trkpt>
      <trkpt lat="37.9944650" lon="-2.5910160">
        <ele>1603.0</ele>
        <time>2020-07-14T09:16:50Z</time>
      </trkpt>
      <trkpt lat="37.9945290" lon="-2.5909740">
        <ele>1603.6</ele>
        <time>2020-07-14T09:16:53Z</time>
      </trkpt>
      <trkpt lat="37.9946220" lon="-2.5908970">
        <ele>1604.6</ele>
        <time>2020-07-14T09:16:57Z</time>
      </trkpt>
      <trkpt lat="37.9947190" lon="-2.5907700">
        <ele>1605.8</ele>
        <time>2020-07-14T09:17:02Z</time>
      </trkpt>
      <trkpt lat="37.9947590" lon="-2.5906890">
        <ele>1606.2</ele>
        <time>2020-07-14T09:17:05Z</time>
      </trkpt>
      <trkpt lat="37.9948230" lon="-2.5905080">
        <ele>1607.0</ele>
        <time>2020-07-14T09:17:11Z</time>
      </trkpt>
      <trkpt lat="37.9948540" lon="-2.5904150">
        <ele>1607.4</ele>
        <time>2020-07-14T09:17:14Z</time>
      </trkpt>
      <trkpt lat="37.9948910" lon="-2.5903310">
        <ele>1608.2</ele>
        <time>2020-07-14T09:17:17Z</time>
      </trkpt>
      <trkpt lat="37.9949540" lon="-2.5902110">
        <ele>1609.4</ele>
        <time>2020-07-14T09:17:22Z</time>
      </trkpt>
      <trkpt lat="37.9949810" lon="-2.5901780">
        <ele>1609.6</ele>
        <time>2020-07-14T09:17:23Z</time>
      </trkpt>
      <trkpt lat="37.9950430" lon="-2.5901250">
        <ele>1610.4</ele>
        <time>2020-07-14T09:17:26Z</time>
      </trkpt>
      <trkpt lat="37.9950940" lon="-2.5901170">
        <ele>1610.8</ele>
        <time>2020-07-14T09:17:28Z</time>
      </trkpt>
      <trkpt lat="37.9951900" lon="-2.5901650">
        <ele>1611.6</ele>
        <time>2020-07-14T09:17:32Z</time>
      </trkpt>
      <trkpt lat="37.9952110" lon="-2.5901860">
        <ele>1611.6</ele>
        <time>2020-07-14T09:17:33Z</time>
      </trkpt>
      <trkpt lat="37.9952590" lon="-2.5903350">
        <ele>1612.4</ele>
        <time>2020-07-14T09:17:38Z</time>
      </trkpt>
      <trkpt lat="37.9952560" lon="-2.5903700">
        <ele>1612.6</ele>
        <time>2020-07-14T09:17:39Z</time>
      </trkpt>
      <trkpt lat="37.9952360" lon="-2.5904670">
        <ele>1613.6</ele>
        <time>2020-07-14T09:17:42Z</time>
      </trkpt>
      <trkpt lat="37.9952150" lon="-2.5905320">
        <ele>1614.4</ele>
        <time>2020-07-14T09:17:44Z</time>
      </trkpt>
      <trkpt lat="37.9952040" lon="-2.5905600">
        <ele>1614.6</ele>
        <time>2020-07-14T09:17:45Z</time>
      </trkpt>
      <trkpt lat="37.9951640" lon="-2.5906910">
        <ele>1615.6</ele>
        <time>2020-07-14T09:17:49Z</time>
      </trkpt>
      <trkpt lat="37.9951200" lon="-2.5908210">
        <ele>1616.2</ele>
        <time>2020-07-14T09:17:53Z</time>
      </trkpt>
      <trkpt lat="37.9950800" lon="-2.5909150">
        <ele>1616.8</ele>
        <time>2020-07-14T09:17:56Z</time>
      </trkpt>
      <trkpt lat="37.9949980" lon="-2.5910780">
        <ele>1617.2</ele>
        <time>2020-07-14T09:18:02Z</time>
      </trkpt>
      <trkpt lat="37.9949590" lon="-2.5911460">
        <ele>1618.0</ele>
        <time>2020-07-14T09:18:05Z</time>
      </trkpt>
      <trkpt lat="37.9948840" lon="-2.5912260">
        <ele>1619.2</ele>
        <time>2020-07-14T09:18:09Z</time>
      </trkpt>
      <trkpt lat="37.9947990" lon="-2.5913510">
        <ele>1620.2</ele>
        <time>2020-07-14T09:18:14Z</time>
      </trkpt>
      <trkpt lat="37.9947830" lon="-2.5913710">
        <ele>1620.2</ele>
        <time>2020-07-14T09:18:15Z</time>
      </trkpt>
      <trkpt lat="37.9946830" lon="-2.5914970">
        <ele>1621.2</ele>
        <time>2020-07-14T09:18:21Z</time>
      </trkpt>
      <trkpt lat="37.9946040" lon="-2.5916120">
        <ele>1622.6</ele>
        <time>2020-07-14T09:18:26Z</time>
      </trkpt>
      <trkpt lat="37.9945610" lon="-2.5917530">
        <ele>1623.8</ele>
        <time>2020-07-14T09:18:31Z</time>
      </trkpt>
      <trkpt lat="37.9945440" lon="-2.5918110">
        <ele>1624.2</ele>
        <time>2020-07-14T09:18:33Z</time>
      </trkpt>
      <trkpt lat="37.9945240" lon="-2.5919310">
        <ele>1624.8</ele>
        <time>2020-07-14T09:18:37Z</time>
      </trkpt>
      <trkpt lat="37.9945100" lon="-2.5920540">
        <ele>1625.8</ele>
        <time>2020-07-14T09:18:41Z</time>
      </trkpt>
      <trkpt lat="37.9945060" lon="-2.5920880">
        <ele>1626.0</ele>
        <time>2020-07-14T09:18:42Z</time>
      </trkpt>
      <trkpt lat="37.9945000" lon="-2.5922440">
        <ele>1627.0</ele>
        <time>2020-07-14T09:18:47Z</time>
      </trkpt>
      <trkpt lat="37.9945030" lon="-2.5923450">
        <ele>1627.6</ele>
        <time>2020-07-14T09:18:50Z</time>
      </trkpt>
      <trkpt lat="37.9945040" lon="-2.5924140">
        <ele>1628.2</ele>
        <time>2020-07-14T09:18:52Z</time>
      </trkpt>
      <trkpt lat="37.9945060" lon="-2.5926220">
        <ele>1629.2</ele>
        <time>2020-07-14T09:18:58Z</time>
      </trkpt>
      <trkpt lat="37.9945120" lon="-2.5926900">
        <ele>1629.6</ele>
        <time>2020-07-14T09:19:00Z</time>
      </trkpt>
      <trkpt lat="37.9945360" lon="-2.5928670">
        <ele>1630.2</ele>
        <time>2020-07-14T09:19:05Z</time>
      </trkpt>
      <trkpt lat="37.9945970" lon="-2.5931140">
        <ele>1631.2</ele>
        <time>2020-07-14T09:19:12Z</time>
      </trkpt>
      <trkpt lat="37.9946690" lon="-2.5933730">
        <ele>1632.2</ele>
        <time>2020-07-14T09:19:19Z</time>
      </trkpt>
      <trkpt lat="37.9946810" lon="-2.5934060">
        <ele>1632.6</ele>
        <time>2020-07-14T09:19:20Z</time>
      </trkpt>
      <trkpt lat="37.9946930" lon="-2.5934430">
        <ele>1632.8</ele>
        <time>2020-07-14T09:19:21Z</time>
      </trkpt>
      <trkpt lat="37.9947150" lon="-2.5935130">
        <ele>1633.0</ele>
        <time>2020-07-14T09:19:23Z</time>
      </trkpt>
      <trkpt lat="37.9947570" lon="-2.5936150">
        <ele>1633.6</ele>
        <time>2020-07-14T09:19:26Z</time>
      </trkpt>
      <trkpt lat="37.9948130" lon="-2.5937490">
        <ele>1634.0</ele>
        <time>2020-07-14T09:19:30Z</time>
      </trkpt>
      <trkpt lat="37.9948670" lon="-2.5938440">
        <ele>1634.8</ele>
        <time>2020-07-14T09:19:33Z</time>
      </trkpt>
      <trkpt lat="37.9949670" lon="-2.5939300">
        <ele>1635.4</ele>
        <time>2020-07-14T09:19:37Z</time>
      </trkpt>
      <trkpt lat="37.9950290" lon="-2.5939410">
        <ele>1635.8</ele>
        <time>2020-07-14T09:19:39Z</time>
      </trkpt>
      <trkpt lat="37.9951170" lon="-2.5939160">
        <ele>1636.2</ele>
        <time>2020-07-14T09:19:42Z</time>
      </trkpt>
      <trkpt lat="37.9951770" lon="-2.5938550">
        <ele>1637.0</ele>
        <time>2020-07-14T09:19:45Z</time>
      </trkpt>
      <trkpt lat="37.9952100" lon="-2.5938070">
        <ele>1637.6</ele>
        <time>2020-07-14T09:19:47Z</time>
      </trkpt>
      <trkpt lat="37.9952410" lon="-2.5937540">
        <ele>1638.2</ele>
        <time>2020-07-14T09:19:49Z</time>
      </trkpt>
      <trkpt lat="37.9952930" lon="-2.5936500">
        <ele>1639.2</ele>
        <time>2020-07-14T09:19:53Z</time>
      </trkpt>
      <trkpt lat="37.9953480" lon="-2.5935430">
        <ele>1640.2</ele>
        <time>2020-07-14T09:19:57Z</time>
      </trkpt>
      <trkpt lat="37.9953610" lon="-2.5935190">
        <ele>1640.4</ele>
        <time>2020-07-14T09:19:58Z</time>
      </trkpt>
      <trkpt lat="37.9954360" lon="-2.5934040">
        <ele>1641.6</ele>
        <time>2020-07-14T09:20:03Z</time>
      </trkpt>
      <trkpt lat="37.9954670" lon="-2.5933550">
        <ele>1642.0</ele>
        <time>2020-07-14T09:20:05Z</time>
      </trkpt>
      <trkpt lat="37.9955480" lon="-2.5932610">
        <ele>1642.6</ele>
        <time>2020-07-14T09:20:09Z</time>
      </trkpt>
      <trkpt lat="37.9956360" lon="-2.5931840">
        <ele>1643.4</ele>
        <time>2020-07-14T09:20:13Z</time>
      </trkpt>
      <trkpt lat="37.9956850" lon="-2.5931560">
        <ele>1643.8</ele>
        <time>2020-07-14T09:20:15Z</time>
      </trkpt>
      <trkpt lat="37.9958250" lon="-2.5930490">
        <ele>1645.0</ele>
        <time>2020-07-14T09:20:21Z</time>
      </trkpt>
      <trkpt lat="37.9958500" lon="-2.5930340">
        <ele>1645.2</ele>
        <time>2020-07-14T09:20:22Z</time>
      </trkpt>
      <trkpt lat="37.9959620" lon="-2.5929450">
        <ele>1646.0</ele>
        <time>2020-07-14T09:20:27Z</time>
      </trkpt>
      <trkpt lat="37.9960620" lon="-2.5928290">
        <ele>1647.0</ele>
        <time>2020-07-14T09:20:32Z</time>
      </trkpt>
      <trkpt lat="37.9960810" lon="-2.5928040">
        <ele>1647.0</ele>
        <time>2020-07-14T09:20:33Z</time>
      </trkpt>
      <trkpt lat="37.9961580" lon="-2.5925980">
        <ele>1648.2</ele>
        <time>2020-07-14T09:20:40Z</time>
      </trkpt>
      <trkpt lat="37.9961850" lon="-2.5924410">
        <ele>1649.4</ele>
        <time>2020-07-14T09:20:45Z</time>
      </trkpt>
      <trkpt lat="37.9962020" lon="-2.5922750">
        <ele>1650.4</ele>
        <time>2020-07-14T09:20:50Z</time>
      </trkpt>
      <trkpt lat="37.9962050" lon="-2.5922410">
        <ele>1650.8</ele>
        <time>2020-07-14T09:20:51Z</time>
      </trkpt>
      <trkpt lat="37.9962200" lon="-2.5920760">
        <ele>1651.6</ele>
        <time>2020-07-14T09:20:56Z</time>
      </trkpt>
      <trkpt lat="37.9962360" lon="-2.5919190">
        <ele>1652.8</ele>
        <time>2020-07-14T09:21:01Z</time>
      </trkpt>
      <trkpt lat="37.9962670" lon="-2.5916980">
        <ele>1654.0</ele>
        <time>2020-07-14T09:21:08Z</time>
      </trkpt>
      <trkpt lat="37.9962880" lon="-2.5915760">
        <ele>1654.8</ele>
        <time>2020-07-14T09:21:12Z</time>
      </trkpt>
      <trkpt lat="37.9962980" lon="-2.5915150">
        <ele>1655.0</ele>
        <time>2020-07-14T09:21:14Z</time>
      </trkpt>
      <trkpt lat="37.9963250" lon="-2.5913310">
        <ele>1656.0</ele>
        <time>2020-07-14T09:21:20Z</time>
      </trkpt>
      <trkpt lat="37.9963390" lon="-2.5912680">
        <ele>1656.6</ele>
        <time>2020-07-14T09:21:22Z</time>
      </trkpt>
      <trkpt lat="37.9963510" lon="-2.5911770">
        <ele>1657.2</ele>
        <time>2020-07-14T09:21:25Z</time>
      </trkpt>
      <trkpt lat="37.9963710" lon="-2.5909920">
        <ele>1658.2</ele>
        <time>2020-07-14T09:21:31Z</time>
      </trkpt>
      <trkpt lat="37.9963710" lon="-2.5909580">
        <ele>1658.4</ele>
        <time>2020-07-14T09:21:32Z</time>
      </trkpt>
      <trkpt lat="37.9963540" lon="-2.5907560">
        <ele>1659.2</ele>
        <time>2020-07-14T09:21:38Z</time>
      </trkpt>
      <trkpt lat="37.9963360" lon="-2.5906280">
        <ele>1660.0</ele>
        <time>2020-07-14T09:21:42Z</time>
      </trkpt>
      <trkpt lat="37.9963220" lon="-2.5905640">
        <ele>1660.4</ele>
        <time>2020-07-14T09:21:44Z</time>
      </trkpt>
      <trkpt lat="37.9962970" lon="-2.5904070">
        <ele>1660.8</ele>
        <time>2020-07-14T09:21:49Z</time>
      </trkpt>
      <trkpt lat="37.9962830" lon="-2.5903190">
        <ele>1661.4</ele>
        <time>2020-07-14T09:21:52Z</time>
      </trkpt>
      <trkpt lat="37.9962760" lon="-2.5902340">
        <ele>1662.2</ele>
        <time>2020-07-14T09:21:55Z</time>
      </trkpt>
      <trkpt lat="37.9962720" lon="-2.5901750">
        <ele>1662.4</ele>
        <time>2020-07-14T09:21:57Z</time>
      </trkpt>
      <trkpt lat="37.9962800" lon="-2.5900650">
        <ele>1662.8</ele>
        <time>2020-07-14T09:22:01Z</time>
      </trkpt>
      <trkpt lat="37.9962830" lon="-2.5898980">
        <ele>1663.6</ele>
        <time>2020-07-14T09:22:07Z</time>
      </trkpt>
      <trkpt lat="37.9962890" lon="-2.5898700">
        <ele>1663.8</ele>
        <time>2020-07-14T09:22:08Z</time>
      </trkpt>
      <trkpt lat="37.9962940" lon="-2.5897790">
        <ele>1664.6</ele>
        <time>2020-07-14T09:22:11Z</time>
      </trkpt>
      <trkpt lat="37.9962980" lon="-2.5896150">
        <ele>1665.4</ele>
        <time>2020-07-14T09:22:16Z</time>
      </trkpt>
      <trkpt lat="37.9962880" lon="-2.5894650">
        <ele>1665.8</ele>
        <time>2020-07-14T09:22:21Z</time>
      </trkpt>
      <trkpt lat="37.9962930" lon="-2.5893870">
        <ele>1666.0</ele>
        <time>2020-07-14T09:22:23Z</time>
      </trkpt>
      <trkpt lat="37.9963060" lon="-2.5892300">
        <ele>1667.0</ele>
        <time>2020-07-14T09:22:28Z</time>
      </trkpt>
      <trkpt lat="37.9963050" lon="-2.5891360">
        <ele>1667.8</ele>
        <time>2020-07-14T09:22:31Z</time>
      </trkpt>
      <trkpt lat="37.9963030" lon="-2.5891030">
        <ele>1668.0</ele>
        <time>2020-07-14T09:22:32Z</time>
      </trkpt>
      <trkpt lat="37.9962850" lon="-2.5889500">
        <ele>1668.8</ele>
        <time>2020-07-14T09:22:37Z</time>
      </trkpt>
      <trkpt lat="37.9962800" lon="-2.5889190">
        <ele>1669.2</ele>
        <time>2020-07-14T09:22:38Z</time>
      </trkpt>
      <trkpt lat="37.9962640" lon="-2.5888440">
        <ele>1669.6</ele>
        <time>2020-07-14T09:22:41Z</time>
      </trkpt>
      <trkpt lat="37.9962250" lon="-2.5886700">
        <ele>1670.4</ele>
        <time>2020-07-14T09:22:46Z</time>
      </trkpt>
      <trkpt lat="37.9962160" lon="-2.5886410">
        <ele>1670.6</ele>
        <time>2020-07-14T09:22:47Z</time>
      </trkpt>
      <trkpt lat="37.9961920" lon="-2.5885500">
        <ele>1671.6</ele>
        <time>2020-07-14T09:22:50Z</time>
      </trkpt>
      <trkpt lat="37.9961360" lon="-2.5883720">
        <ele>1672.6</ele>
        <time>2020-07-14T09:22:56Z</time>
      </trkpt>
      <trkpt lat="37.9960680" lon="-2.5882360">
        <ele>1673.8</ele>
        <time>2020-07-14T09:23:01Z</time>
      </trkpt>
      <trkpt lat="37.9960280" lon="-2.5881540">
        <ele>1674.4</ele>
        <time>2020-07-14T09:23:04Z</time>
      </trkpt>
      <trkpt lat="37.9959890" lon="-2.5880700">
        <ele>1674.8</ele>
        <time>2020-07-14T09:23:07Z</time>
      </trkpt>
      <trkpt lat="37.9959110" lon="-2.5879350">
        <ele>1676.0</ele>
        <time>2020-07-14T09:23:12Z</time>
      </trkpt>
      <trkpt lat="37.9958960" lon="-2.5879090">
        <ele>1676.2</ele>
        <time>2020-07-14T09:23:13Z</time>
      </trkpt>
      <trkpt lat="37.9958960" lon="-2.5879090">
        <ele>1677.0</ele>
        <time>2020-07-14T09:23:19Z</time>
      </trkpt>
      <trkpt lat="37.9957910" lon="-2.5876420">
        <ele>1677.6</ele>
        <time>2020-07-14T09:23:22Z</time>
      </trkpt>
      <trkpt lat="37.9958080" lon="-2.5875110">
        <ele>1678.0</ele>
        <time>2020-07-14T09:23:26Z</time>
      </trkpt>
      <trkpt lat="37.9958230" lon="-2.5874840">
        <ele>1678.2</ele>
        <time>2020-07-14T09:23:27Z</time>
      </trkpt>
      <trkpt lat="37.9959090" lon="-2.5874150">
        <ele>1679.2</ele>
        <time>2020-07-14T09:23:31Z</time>
      </trkpt>
      <trkpt lat="37.9959350" lon="-2.5874070">
        <ele>1679.6</ele>
        <time>2020-07-14T09:23:32Z</time>
      </trkpt>
      <trkpt lat="37.9959820" lon="-2.5874150">
        <ele>1680.2</ele>
        <time>2020-07-14T09:23:34Z</time>
      </trkpt>
      <trkpt lat="37.9960490" lon="-2.5874630">
        <ele>1681.2</ele>
        <time>2020-07-14T09:23:37Z</time>
      </trkpt>
      <trkpt lat="37.9961280" lon="-2.5875530">
        <ele>1682.4</ele>
        <time>2020-07-14T09:23:41Z</time>
      </trkpt>
      <trkpt lat="37.9961890" lon="-2.5876620">
        <ele>1683.4</ele>
        <time>2020-07-14T09:23:45Z</time>
      </trkpt>
      <trkpt lat="37.9962020" lon="-2.5876940">
        <ele>1683.6</ele>
        <time>2020-07-14T09:23:46Z</time>
      </trkpt>
      <trkpt lat="37.9963020" lon="-2.5878770">
        <ele>1684.6</ele>
        <time>2020-07-14T09:23:53Z</time>
      </trkpt>
      <trkpt lat="37.9963170" lon="-2.5879070">
        <ele>1684.8</ele>
        <time>2020-07-14T09:23:54Z</time>
      </trkpt>
      <trkpt lat="37.9963930" lon="-2.5880420">
        <ele>1685.8</ele>
        <time>2020-07-14T09:23:59Z</time>
      </trkpt>
      <trkpt lat="37.9964410" lon="-2.5881290">
        <ele>1686.2</ele>
        <time>2020-07-14T09:24:02Z</time>
      </trkpt>
      <trkpt lat="37.9965120" lon="-2.5882740">
        <ele>1686.8</ele>
        <time>2020-07-14T09:24:07Z</time>
      </trkpt>
      <trkpt lat="37.9965690" lon="-2.5883610">
        <ele>1687.6</ele>
        <time>2020-07-14T09:24:11Z</time>
      </trkpt>
      <trkpt lat="37.9966130" lon="-2.5884360">
        <ele>1687.8</ele>
        <time>2020-07-14T09:24:13Z</time>
      </trkpt>
      <trkpt lat="37.9967180" lon="-2.5886050">
        <ele>1689.0</ele>
        <time>2020-07-14T09:24:19Z</time>
      </trkpt>
      <trkpt lat="37.9968120" lon="-2.5887360">
        <ele>1690.0</ele>
        <time>2020-07-14T09:24:24Z</time>
      </trkpt>
      <trkpt lat="37.9969160" lon="-2.5888950">
        <ele>1690.6</ele>
        <time>2020-07-14T09:24:30Z</time>
      </trkpt>
      <trkpt lat="37.9969790" lon="-2.5889680">
        <ele>1691.4</ele>
        <time>2020-07-14T09:24:33Z</time>
      </trkpt>
      <trkpt lat="37.9971130" lon="-2.5891370">
        <ele>1692.6</ele>
        <time>2020-07-14T09:24:40Z</time>
      </trkpt>
      <trkpt lat="37.9971970" lon="-2.5892290">
        <ele>1693.6</ele>
        <time>2020-07-14T09:24:44Z</time>
      </trkpt>
      <trkpt lat="37.9973000" lon="-2.5893480">
        <ele>1694.2</ele>
        <time>2020-07-14T09:24:49Z</time>
      </trkpt>
      <trkpt lat="37.9973960" lon="-2.5894760">
        <ele>1694.8</ele>
        <time>2020-07-14T09:24:54Z</time>
      </trkpt>
      <trkpt lat="37.9975230" lon="-2.5896100">
        <ele>1695.8</ele>
        <time>2020-07-14T09:25:00Z</time>
      </trkpt>
      <trkpt lat="37.9975470" lon="-2.5896310">
        <ele>1696.0</ele>
        <time>2020-07-14T09:25:01Z</time>
      </trkpt>
      <trkpt lat="37.9976460" lon="-2.5897460">
        <ele>1696.8</ele>
        <time>2020-07-14T09:25:06Z</time>
      </trkpt>
      <trkpt lat="37.9977520" lon="-2.5898470">
        <ele>1697.8</ele>
        <time>2020-07-14T09:25:11Z</time>
      </trkpt>
      <trkpt lat="37.9977760" lon="-2.5898670">
        <ele>1698.0</ele>
        <time>2020-07-14T09:25:12Z</time>
      </trkpt>
      <trkpt lat="37.9979270" lon="-2.5899920">
        <ele>1699.0</ele>
        <time>2020-07-14T09:25:19Z</time>
      </trkpt>
      <trkpt lat="37.9979480" lon="-2.5900080">
        <ele>1699.2</ele>
        <time>2020-07-14T09:25:20Z</time>
      </trkpt>
      <trkpt lat="37.9980640" lon="-2.5900680">
        <ele>1700.2</ele>
        <time>2020-07-14T09:25:25Z</time>
      </trkpt>
      <trkpt lat="37.9981640" lon="-2.5900940">
        <ele>1701.2</ele>
        <time>2020-07-14T09:25:29Z</time>
      </trkpt>
      <trkpt lat="37.9981880" lon="-2.5901000">
        <ele>1701.4</ele>
        <time>2020-07-14T09:25:30Z</time>
      </trkpt>
      <trkpt lat="37.9983090" lon="-2.5901260">
        <ele>1702.4</ele>
        <time>2020-07-14T09:25:35Z</time>
      </trkpt>
      <trkpt lat="37.9984020" lon="-2.5901320">
        <ele>1702.8</ele>
        <time>2020-07-14T09:25:39Z</time>
      </trkpt>
      <trkpt lat="37.9984720" lon="-2.5901370">
        <ele>1703.4</ele>
        <time>2020-07-14T09:25:41Z</time>
      </trkpt>
      <trkpt lat="37.9985510" lon="-2.5901410">
        <ele>1704.4</ele>
        <time>2020-07-14T09:25:44Z</time>
      </trkpt>
      <trkpt lat="37.9986030" lon="-2.5901460">
        <ele>1704.8</ele>
        <time>2020-07-14T09:25:46Z</time>
      </trkpt>
      <trkpt lat="37.9986840" lon="-2.5901470">
        <ele>1705.4</ele>
        <time>2020-07-14T09:25:49Z</time>
      </trkpt>
      <trkpt lat="37.9987880" lon="-2.5901650">
        <ele>1706.6</ele>
        <time>2020-07-14T09:25:53Z</time>
      </trkpt>
      <trkpt lat="37.9988420" lon="-2.5901780">
        <ele>1706.8</ele>
        <time>2020-07-14T09:25:55Z</time>
      </trkpt>
      <trkpt lat="37.9990040" lon="-2.5902130">
        <ele>1707.8</ele>
        <time>2020-07-14T09:26:01Z</time>
      </trkpt>
      <trkpt lat="37.9990560" lon="-2.5902340">
        <ele>1708.2</ele>
        <time>2020-07-14T09:26:03Z</time>
      </trkpt>
      <trkpt lat="37.9991290" lon="-2.5902740">
        <ele>1708.8</ele>
        <time>2020-07-14T09:26:06Z</time>
      </trkpt>
      <trkpt lat="37.9992300" lon="-2.5902960">
        <ele>1709.6</ele>
        <time>2020-07-14T09:26:10Z</time>
      </trkpt>
      <trkpt lat="37.9992850" lon="-2.5903060">
        <ele>1710.0</ele>
        <time>2020-07-14T09:26:12Z</time>
      </trkpt>
      <trkpt lat="37.9993870" lon="-2.5903440">
        <ele>1711.0</ele>
        <time>2020-07-14T09:26:16Z</time>
      </trkpt>
      <trkpt lat="37.9994880" lon="-2.5903840">
        <ele>1711.4</ele>
        <time>2020-07-14T09:26:20Z</time>
      </trkpt>
      <trkpt lat="37.9995920" lon="-2.5904280">
        <ele>1712.0</ele>
        <time>2020-07-14T09:26:24Z</time>
      </trkpt>
      <trkpt lat="37.9996920" lon="-2.5904720">
        <ele>1713.4</ele>
        <time>2020-07-14T09:26:28Z</time>
      </trkpt>
      <trkpt lat="37.9997910" lon="-2.5905140">
        <ele>1714.2</ele>
        <time>2020-07-14T09:26:32Z</time>
      </trkpt>
      <trkpt lat="37.9998410" lon="-2.5905340">
        <ele>1714.4</ele>
        <time>2020-07-14T09:26:34Z</time>
      </trkpt>
      <trkpt lat="37.9999930" lon="-2.5905950">
        <ele>1715.4</ele>
        <time>2020-07-14T09:26:40Z</time>
      </trkpt>
      <trkpt lat="38.0000730" lon="-2.5906340">
        <ele>1716.0</ele>
        <time>2020-07-14T09:26:43Z</time>
      </trkpt>
      <trkpt lat="38.0001560" lon="-2.5906620">
        <ele>1716.6</ele>
        <time>2020-07-14T09:26:46Z</time>
      </trkpt>
      <trkpt lat="38.0002930" lon="-2.5907230">
        <ele>1717.8</ele>
        <time>2020-07-14T09:26:51Z</time>
      </trkpt>
      <trkpt lat="38.0003200" lon="-2.5907350">
        <ele>1718.0</ele>
        <time>2020-07-14T09:26:52Z</time>
      </trkpt>
      <trkpt lat="38.0005320" lon="-2.5908270">
        <ele>1718.6</ele>
        <time>2020-07-14T09:26:59Z</time>
      </trkpt>
      <trkpt lat="38.0005790" lon="-2.5908520">
        <ele>1718.6</ele>
        <time>2020-07-14T09:27:02Z</time>
      </trkpt>
      <trkpt lat="38.0005780" lon="-2.5908530">
        <ele>1718.6</ele>
        <time>2020-07-14T09:27:04Z</time>
      </trkpt>
      <trkpt lat="38.0006260" lon="-2.5908580">
        <ele>1718.6</ele>
        <time>2020-07-14T09:30:38Z</time>
      </trkpt>
      <trkpt lat="38.0006420" lon="-2.5908660">
        <ele>1718.6</ele>
        <time>2020-07-14T09:30:39Z</time>
      </trkpt>
      <trkpt lat="38.0006690" lon="-2.5908770">
        <ele>1718.6</ele>
        <time>2020-07-14T09:30:40Z</time>
      </trkpt>
      <trkpt lat="38.0008960" lon="-2.5909760">
        <ele>1718.2</ele>
        <time>2020-07-14T09:30:47Z</time>
      </trkpt>
      <trkpt lat="38.0011860" lon="-2.5910970">
        <ele>1717.6</ele>
        <time>2020-07-14T09:30:54Z</time>
      </trkpt>
      <trkpt lat="38.0014730" lon="-2.5912010">
        <ele>1716.6</ele>
        <time>2020-07-14T09:30:59Z</time>
      </trkpt>
      <trkpt lat="38.0016030" lon="-2.5912340">
        <ele>1716.0</ele>
        <time>2020-07-14T09:31:01Z</time>
      </trkpt>
      <trkpt lat="38.0018050" lon="-2.5912690">
        <ele>1715.6</ele>
        <time>2020-07-14T09:31:04Z</time>
      </trkpt>
      <trkpt lat="38.0018690" lon="-2.5912690">
        <ele>1715.8</ele>
        <time>2020-07-14T09:31:05Z</time>
      </trkpt>
      <trkpt lat="38.0020650" lon="-2.5912730">
        <ele>1715.4</ele>
        <time>2020-07-14T09:31:08Z</time>
      </trkpt>
      <trkpt lat="38.0026350" lon="-2.5912890">
        <ele>1715.0</ele>
        <time>2020-07-14T09:31:17Z</time>
      </trkpt>
      <trkpt lat="38.0030100" lon="-2.5913140">
        <ele>1715.0</ele>
        <time>2020-07-14T09:31:23Z</time>
      </trkpt>
      <trkpt lat="38.0031900" lon="-2.5913490">
        <ele>1714.6</ele>
        <time>2020-07-14T09:31:26Z</time>
      </trkpt>
      <trkpt lat="38.0033110" lon="-2.5913790">
        <ele>1714.4</ele>
        <time>2020-07-14T09:31:28Z</time>
      </trkpt>
      <trkpt lat="38.0038170" lon="-2.5915090">
        <ele>1713.8</ele>
        <time>2020-07-14T09:31:36Z</time>
      </trkpt>
      <trkpt lat="38.0039510" lon="-2.5915230">
        <ele>1713.4</ele>
        <time>2020-07-14T09:31:38Z</time>
      </trkpt>
      <trkpt lat="38.0040810" lon="-2.5915170">
        <ele>1712.6</ele>
        <time>2020-07-14T09:31:40Z</time>
      </trkpt>
      <trkpt lat="38.0041510" lon="-2.5915000">
        <ele>1712.6</ele>
        <time>2020-07-14T09:31:41Z</time>
      </trkpt>
      <trkpt lat="38.0042150" lon="-2.5914780">
        <ele>1712.4</ele>
        <time>2020-07-14T09:31:42Z</time>
      </trkpt>
      <trkpt lat="38.0044570" lon="-2.5913550">
        <ele>1712.6</ele>
        <time>2020-07-14T09:31:46Z</time>
      </trkpt>
      <trkpt lat="38.0045810" lon="-2.5912780">
        <ele>1712.4</ele>
        <time>2020-07-14T09:31:48Z</time>
      </trkpt>
      <trkpt lat="38.0047630" lon="-2.5911850">
        <ele>1712.0</ele>
        <time>2020-07-14T09:31:51Z</time>
      </trkpt>
      <trkpt lat="38.0048900" lon="-2.5911550">
        <ele>1711.6</ele>
        <time>2020-07-14T09:31:53Z</time>
      </trkpt>
      <trkpt lat="38.0050140" lon="-2.5911290">
        <ele>1711.2</ele>
        <time>2020-07-14T09:31:55Z</time>
      </trkpt>
      <trkpt lat="38.0051430" lon="-2.5911030">
        <ele>1711.4</ele>
        <time>2020-07-14T09:31:57Z</time>
      </trkpt>
      <trkpt lat="38.0052650" lon="-2.5910640">
        <ele>1711.4</ele>
        <time>2020-07-14T09:31:59Z</time>
      </trkpt>
      <trkpt lat="38.0055160" lon="-2.5909630">
        <ele>1710.8</ele>
        <time>2020-07-14T09:32:03Z</time>
      </trkpt>
      <trkpt lat="38.0056380" lon="-2.5909000">
        <ele>1710.6</ele>
        <time>2020-07-14T09:32:05Z</time>
      </trkpt>
      <trkpt lat="38.0056960" lon="-2.5908670">
        <ele>1710.4</ele>
        <time>2020-07-14T09:32:06Z</time>
      </trkpt>
      <trkpt lat="38.0057610" lon="-2.5908340">
        <ele>1710.0</ele>
        <time>2020-07-14T09:32:07Z</time>
      </trkpt>
      <trkpt lat="38.0060630" lon="-2.5906710">
        <ele>1709.6</ele>
        <time>2020-07-14T09:32:12Z</time>
      </trkpt>
      <trkpt lat="38.0063070" lon="-2.5905450">
        <ele>1708.8</ele>
        <time>2020-07-14T09:32:16Z</time>
      </trkpt>
      <trkpt lat="38.0064320" lon="-2.5904750">
        <ele>1708.6</ele>
        <time>2020-07-14T09:32:18Z</time>
      </trkpt>
      <trkpt lat="38.0066190" lon="-2.5903610">
        <ele>1708.4</ele>
        <time>2020-07-14T09:32:21Z</time>
      </trkpt>
      <trkpt lat="38.0069070" lon="-2.5901390">
        <ele>1708.6</ele>
        <time>2020-07-14T09:32:26Z</time>
      </trkpt>
      <trkpt lat="38.0073950" lon="-2.5897150">
        <ele>1707.8</ele>
        <time>2020-07-14T09:32:35Z</time>
      </trkpt>
      <trkpt lat="38.0078400" lon="-2.5893270">
        <ele>1706.8</ele>
        <time>2020-07-14T09:32:43Z</time>
      </trkpt>
      <trkpt lat="38.0078920" lon="-2.5892820">
        <ele>1706.4</ele>
        <time>2020-07-14T09:32:44Z</time>
      </trkpt>
      <trkpt lat="38.0081670" lon="-2.5890450">
        <ele>1706.4</ele>
        <time>2020-07-14T09:32:49Z</time>
      </trkpt>
      <trkpt lat="38.0082750" lon="-2.5889430">
        <ele>1706.0</ele>
        <time>2020-07-14T09:32:51Z</time>
      </trkpt>
      <trkpt lat="38.0086680" lon="-2.5885930">
        <ele>1705.6</ele>
        <time>2020-07-14T09:32:58Z</time>
      </trkpt>
      <trkpt lat="38.0087260" lon="-2.5885430">
        <ele>1705.4</ele>
        <time>2020-07-14T09:32:59Z</time>
      </trkpt>
      <trkpt lat="38.0091970" lon="-2.5880940">
        <ele>1704.4</ele>
        <time>2020-07-14T09:33:07Z</time>
      </trkpt>
      <trkpt lat="38.0093040" lon="-2.5879650">
        <ele>1704.2</ele>
        <time>2020-07-14T09:33:09Z</time>
      </trkpt>
      <trkpt lat="38.0095250" lon="-2.5876840">
        <ele>1703.2</ele>
        <time>2020-07-14T09:33:13Z</time>
      </trkpt>
      <trkpt lat="38.0096880" lon="-2.5874810">
        <ele>1703.0</ele>
        <time>2020-07-14T09:33:16Z</time>
      </trkpt>
      <trkpt lat="38.0098670" lon="-2.5872560">
        <ele>1702.6</ele>
        <time>2020-07-14T09:33:19Z</time>
      </trkpt>
      <trkpt lat="38.0099290" lon="-2.5871750">
        <ele>1702.6</ele>
        <time>2020-07-14T09:33:20Z</time>
      </trkpt>
      <trkpt lat="38.0100420" lon="-2.5870300">
        <ele>1702.4</ele>
        <time>2020-07-14T09:33:22Z</time>
      </trkpt>
      <trkpt lat="38.0101600" lon="-2.5868860">
        <ele>1702.0</ele>
        <time>2020-07-14T09:33:24Z</time>
      </trkpt>
      <trkpt lat="38.0103350" lon="-2.5866680">
        <ele>1701.6</ele>
        <time>2020-07-14T09:33:27Z</time>
      </trkpt>
      <trkpt lat="38.0107190" lon="-2.5861780">
        <ele>1701.6</ele>
        <time>2020-07-14T09:33:34Z</time>
      </trkpt>
      <trkpt lat="38.0111160" lon="-2.5856490">
        <ele>1701.6</ele>
        <time>2020-07-14T09:33:42Z</time>
      </trkpt>
      <trkpt lat="38.0111600" lon="-2.5855820">
        <ele>1701.6</ele>
        <time>2020-07-14T09:33:43Z</time>
      </trkpt>
      <trkpt lat="38.0115030" lon="-2.5850450">
        <ele>1701.4</ele>
        <time>2020-07-14T09:33:51Z</time>
      </trkpt>
      <trkpt lat="38.0118240" lon="-2.5847320">
        <ele>1701.8</ele>
        <time>2020-07-14T09:33:57Z</time>
      </trkpt>
      <trkpt lat="38.0119400" lon="-2.5846550">
        <ele>1701.8</ele>
        <time>2020-07-14T09:33:59Z</time>
      </trkpt>
      <trkpt lat="38.0120800" lon="-2.5846060">
        <ele>1701.8</ele>
        <time>2020-07-14T09:34:01Z</time>
      </trkpt>
      <trkpt lat="38.0122940" lon="-2.5846040">
        <ele>1701.4</ele>
        <time>2020-07-14T09:34:04Z</time>
      </trkpt>
      <trkpt lat="38.0123680" lon="-2.5846050">
        <ele>1701.2</ele>
        <time>2020-07-14T09:34:05Z</time>
      </trkpt>
      <trkpt lat="38.0124340" lon="-2.5845970">
        <ele>1701.2</ele>
        <time>2020-07-14T09:34:06Z</time>
      </trkpt>
      <trkpt lat="38.0126510" lon="-2.5845200">
        <ele>1701.2</ele>
        <time>2020-07-14T09:34:09Z</time>
      </trkpt>
      <trkpt lat="38.0127170" lon="-2.5844800">
        <ele>1701.0</ele>
        <time>2020-07-14T09:34:10Z</time>
      </trkpt>
      <trkpt lat="38.0130420" lon="-2.5842410">
        <ele>1700.8</ele>
        <time>2020-07-14T09:34:15Z</time>
      </trkpt>
      <trkpt lat="38.0131030" lon="-2.5841960">
        <ele>1700.6</ele>
        <time>2020-07-14T09:34:16Z</time>
      </trkpt>
      <trkpt lat="38.0133790" lon="-2.5839780">
        <ele>1699.8</ele>
        <time>2020-07-14T09:34:20Z</time>
      </trkpt>
      <trkpt lat="38.0136120" lon="-2.5838160">
        <ele>1698.8</ele>
        <time>2020-07-14T09:34:23Z</time>
      </trkpt>
      <trkpt lat="38.0138680" lon="-2.5836410">
        <ele>1697.4</ele>
        <time>2020-07-14T09:34:26Z</time>
      </trkpt>
      <trkpt lat="38.0141440" lon="-2.5834710">
        <ele>1696.4</ele>
        <time>2020-07-14T09:34:29Z</time>
      </trkpt>
      <trkpt lat="38.0142450" lon="-2.5834230">
        <ele>1696.2</ele>
        <time>2020-07-14T09:34:30Z</time>
      </trkpt>
      <trkpt lat="38.0144500" lon="-2.5833960">
        <ele>1695.2</ele>
        <time>2020-07-14T09:34:32Z</time>
      </trkpt>
      <trkpt lat="38.0146590" lon="-2.5834420">
        <ele>1694.0</ele>
        <time>2020-07-14T09:34:34Z</time>
      </trkpt>
      <trkpt lat="38.0147630" lon="-2.5834980">
        <ele>1693.0</ele>
        <time>2020-07-14T09:34:35Z</time>
      </trkpt>
      <trkpt lat="38.0148640" lon="-2.5835460">
        <ele>1692.2</ele>
        <time>2020-07-14T09:34:36Z</time>
      </trkpt>
      <trkpt lat="38.0150720" lon="-2.5836250">
        <ele>1690.4</ele>
        <time>2020-07-14T09:34:38Z</time>
      </trkpt>
      <trkpt lat="38.0152710" lon="-2.5836380">
        <ele>1688.8</ele>
        <time>2020-07-14T09:34:40Z</time>
      </trkpt>
      <trkpt lat="38.0154880" lon="-2.5835750">
        <ele>1687.6</ele>
        <time>2020-07-14T09:34:42Z</time>
      </trkpt>
      <trkpt lat="38.0155880" lon="-2.5835340">
        <ele>1687.2</ele>
        <time>2020-07-14T09:34:43Z</time>
      </trkpt>
      <trkpt lat="38.0158110" lon="-2.5834340">
        <ele>1686.0</ele>
        <time>2020-07-14T09:34:45Z</time>
      </trkpt>
      <trkpt lat="38.0160440" lon="-2.5833240">
        <ele>1684.4</ele>
        <time>2020-07-14T09:34:47Z</time>
      </trkpt>
      <trkpt lat="38.0162780" lon="-2.5832100">
        <ele>1682.2</ele>
        <time>2020-07-14T09:34:49Z</time>
      </trkpt>
      <trkpt lat="38.0165290" lon="-2.5830860">
        <ele>1680.8</ele>
        <time>2020-07-14T09:34:51Z</time>
      </trkpt>
      <trkpt lat="38.0167820" lon="-2.5829590">
        <ele>1679.2</ele>
        <time>2020-07-14T09:34:53Z</time>
      </trkpt>
      <trkpt lat="38.0170380" lon="-2.5828310">
        <ele>1677.8</ele>
        <time>2020-07-14T09:34:55Z</time>
      </trkpt>
      <trkpt lat="38.0171670" lon="-2.5827680">
        <ele>1676.8</ele>
        <time>2020-07-14T09:34:56Z</time>
      </trkpt>
      <trkpt lat="38.0174080" lon="-2.5826520">
        <ele>1675.4</ele>
        <time>2020-07-14T09:34:58Z</time>
      </trkpt>
      <trkpt lat="38.0175240" lon="-2.5826080">
        <ele>1674.4</ele>
        <time>2020-07-14T09:34:59Z</time>
      </trkpt>
      <trkpt lat="38.0176540" lon="-2.5825820">
        <ele>1673.2</ele>
        <time>2020-07-14T09:35:00Z</time>
      </trkpt>
      <trkpt lat="38.0177790" lon="-2.5825760">
        <ele>1672.2</ele>
        <time>2020-07-14T09:35:01Z</time>
      </trkpt>
      <trkpt lat="38.0180230" lon="-2.5825860">
        <ele>1669.8</ele>
        <time>2020-07-14T09:35:03Z</time>
      </trkpt>
      <trkpt lat="38.0181320" lon="-2.5825880">
        <ele>1669.0</ele>
        <time>2020-07-14T09:35:04Z</time>
      </trkpt>
      <trkpt lat="38.0182680" lon="-2.5825790">
        <ele>1668.4</ele>
        <time>2020-07-14T09:35:05Z</time>
      </trkpt>
      <trkpt lat="38.0185180" lon="-2.5825310">
        <ele>1667.0</ele>
        <time>2020-07-14T09:35:07Z</time>
      </trkpt>
      <trkpt lat="38.0186440" lon="-2.5824960">
        <ele>1666.4</ele>
        <time>2020-07-14T09:35:08Z</time>
      </trkpt>
      <trkpt lat="38.0187650" lon="-2.5824580">
        <ele>1665.4</ele>
        <time>2020-07-14T09:35:09Z</time>
      </trkpt>
      <trkpt lat="38.0188920" lon="-2.5824140">
        <ele>1664.4</ele>
        <time>2020-07-14T09:35:10Z</time>
      </trkpt>
      <trkpt lat="38.0190170" lon="-2.5823630">
        <ele>1663.2</ele>
        <time>2020-07-14T09:35:11Z</time>
      </trkpt>
      <trkpt lat="38.0191450" lon="-2.5823050">
        <ele>1662.2</ele>
        <time>2020-07-14T09:35:12Z</time>
      </trkpt>
      <trkpt lat="38.0192650" lon="-2.5822430">
        <ele>1661.0</ele>
        <time>2020-07-14T09:35:13Z</time>
      </trkpt>
      <trkpt lat="38.0195020" lon="-2.5821030">
        <ele>1659.6</ele>
        <time>2020-07-14T09:35:15Z</time>
      </trkpt>
      <trkpt lat="38.0198560" lon="-2.5818890">
        <ele>1658.4</ele>
        <time>2020-07-14T09:35:18Z</time>
      </trkpt>
      <trkpt lat="38.0199590" lon="-2.5818280">
        <ele>1657.8</ele>
        <time>2020-07-14T09:35:19Z</time>
      </trkpt>
      <trkpt lat="38.0200750" lon="-2.5817610">
        <ele>1657.4</ele>
        <time>2020-07-14T09:35:20Z</time>
      </trkpt>
      <trkpt lat="38.0206330" lon="-2.5814320">
        <ele>1656.4</ele>
        <time>2020-07-14T09:35:25Z</time>
      </trkpt>
      <trkpt lat="38.0208550" lon="-2.5813030">
        <ele>1655.8</ele>
        <time>2020-07-14T09:35:27Z</time>
      </trkpt>
      <trkpt lat="38.0210660" lon="-2.5811820">
        <ele>1654.8</ele>
        <time>2020-07-14T09:35:29Z</time>
      </trkpt>
      <trkpt lat="38.0213900" lon="-2.5809880">
        <ele>1653.6</ele>
        <time>2020-07-14T09:35:32Z</time>
      </trkpt>
      <trkpt lat="38.0214900" lon="-2.5809230">
        <ele>1653.4</ele>
        <time>2020-07-14T09:35:33Z</time>
      </trkpt>
      <trkpt lat="38.0216880" lon="-2.5807960">
        <ele>1652.6</ele>
        <time>2020-07-14T09:35:35Z</time>
      </trkpt>
      <trkpt lat="38.0219770" lon="-2.5806300">
        <ele>1651.4</ele>
        <time>2020-07-14T09:35:38Z</time>
      </trkpt>
      <trkpt lat="38.0220650" lon="-2.5805790">
        <ele>1651.2</ele>
        <time>2020-07-14T09:35:39Z</time>
      </trkpt>
      <trkpt lat="38.0224920" lon="-2.5803260">
        <ele>1650.8</ele>
        <time>2020-07-14T09:35:44Z</time>
      </trkpt>
      <trkpt lat="38.0226540" lon="-2.5802290">
        <ele>1650.4</ele>
        <time>2020-07-14T09:35:46Z</time>
      </trkpt>
      <trkpt lat="38.0228240" lon="-2.5801340">
        <ele>1650.4</ele>
        <time>2020-07-14T09:35:48Z</time>
      </trkpt>
      <trkpt lat="38.0232210" lon="-2.5799040">
        <ele>1650.0</ele>
        <time>2020-07-14T09:35:53Z</time>
      </trkpt>
      <trkpt lat="38.0233810" lon="-2.5798090">
        <ele>1650.0</ele>
        <time>2020-07-14T09:35:55Z</time>
      </trkpt>
      <trkpt lat="38.0236220" lon="-2.5796740">
        <ele>1649.4</ele>
        <time>2020-07-14T09:35:58Z</time>
      </trkpt>
      <trkpt lat="38.0237030" lon="-2.5796240">
        <ele>1649.2</ele>
        <time>2020-07-14T09:35:59Z</time>
      </trkpt>
      <trkpt lat="38.0238760" lon="-2.5795190">
        <ele>1648.4</ele>
        <time>2020-07-14T09:36:01Z</time>
      </trkpt>
      <trkpt lat="38.0239620" lon="-2.5794700">
        <ele>1647.6</ele>
        <time>2020-07-14T09:36:02Z</time>
      </trkpt>
      <trkpt lat="38.0245040" lon="-2.5791490">
        <ele>1646.2</ele>
        <time>2020-07-14T09:36:08Z</time>
      </trkpt>
      <trkpt lat="38.0245920" lon="-2.5790990">
        <ele>1645.8</ele>
        <time>2020-07-14T09:36:09Z</time>
      </trkpt>
      <trkpt lat="38.0247800" lon="-2.5789840">
        <ele>1644.4</ele>
        <time>2020-07-14T09:36:11Z</time>
      </trkpt>
      <trkpt lat="38.0250430" lon="-2.5787990">
        <ele>1643.2</ele>
        <time>2020-07-14T09:36:14Z</time>
      </trkpt>
      <trkpt lat="38.0252270" lon="-2.5786570">
        <ele>1642.6</ele>
        <time>2020-07-14T09:36:16Z</time>
      </trkpt>
      <trkpt lat="38.0253130" lon="-2.5785840">
        <ele>1642.2</ele>
        <time>2020-07-14T09:36:17Z</time>
      </trkpt>
      <trkpt lat="38.0256610" lon="-2.5782730">
        <ele>1640.6</ele>
        <time>2020-07-14T09:36:21Z</time>
      </trkpt>
      <trkpt lat="38.0257440" lon="-2.5782020">
        <ele>1640.4</ele>
        <time>2020-07-14T09:36:22Z</time>
      </trkpt>
      <trkpt lat="38.0260210" lon="-2.5779830">
        <ele>1639.4</ele>
        <time>2020-07-14T09:36:25Z</time>
      </trkpt>
      <trkpt lat="38.0262870" lon="-2.5777690">
        <ele>1638.4</ele>
        <time>2020-07-14T09:36:28Z</time>
      </trkpt>
      <trkpt lat="38.0263770" lon="-2.5777000">
        <ele>1638.0</ele>
        <time>2020-07-14T09:36:29Z</time>
      </trkpt>
      <trkpt lat="38.0267240" lon="-2.5774100">
        <ele>1636.6</ele>
        <time>2020-07-14T09:36:33Z</time>
      </trkpt>
      <trkpt lat="38.0268070" lon="-2.5773390">
        <ele>1636.6</ele>
        <time>2020-07-14T09:36:34Z</time>
      </trkpt>
      <trkpt lat="38.0269750" lon="-2.5772010">
        <ele>1635.4</ele>
        <time>2020-07-14T09:36:36Z</time>
      </trkpt>
      <trkpt lat="38.0274100" lon="-2.5768540">
        <ele>1634.0</ele>
        <time>2020-07-14T09:36:41Z</time>
      </trkpt>
      <trkpt lat="38.0276630" lon="-2.5766400">
        <ele>1632.8</ele>
        <time>2020-07-14T09:36:44Z</time>
      </trkpt>
      <trkpt lat="38.0278980" lon="-2.5763660">
        <ele>1631.6</ele>
        <time>2020-07-14T09:36:47Z</time>
      </trkpt>
      <trkpt lat="38.0281040" lon="-2.5760530">
        <ele>1630.4</ele>
        <time>2020-07-14T09:36:50Z</time>
      </trkpt>
      <trkpt lat="38.0282330" lon="-2.5758450">
        <ele>1629.6</ele>
        <time>2020-07-14T09:36:52Z</time>
      </trkpt>
      <trkpt lat="38.0283190" lon="-2.5757510">
        <ele>1629.4</ele>
        <time>2020-07-14T09:36:53Z</time>
      </trkpt>
      <trkpt lat="38.0284060" lon="-2.5756810">
        <ele>1629.0</ele>
        <time>2020-07-14T09:36:54Z</time>
      </trkpt>
      <trkpt lat="38.0286160" lon="-2.5755470">
        <ele>1628.6</ele>
        <time>2020-07-14T09:36:56Z</time>
      </trkpt>
      <trkpt lat="38.0287140" lon="-2.5754810">
        <ele>1628.4</ele>
        <time>2020-07-14T09:36:57Z</time>
      </trkpt>
      <trkpt lat="38.0287950" lon="-2.5754110">
        <ele>1627.8</ele>
        <time>2020-07-14T09:36:58Z</time>
      </trkpt>
      <trkpt lat="38.0289430" lon="-2.5752020">
        <ele>1626.2</ele>
        <time>2020-07-14T09:37:00Z</time>
      </trkpt>
      <trkpt lat="38.0290380" lon="-2.5749630">
        <ele>1624.6</ele>
        <time>2020-07-14T09:37:02Z</time>
      </trkpt>
      <trkpt lat="38.0291310" lon="-2.5747220">
        <ele>1624.0</ele>
        <time>2020-07-14T09:37:04Z</time>
      </trkpt>
      <trkpt lat="38.0291930" lon="-2.5746070">
        <ele>1623.6</ele>
        <time>2020-07-14T09:37:05Z</time>
      </trkpt>
      <trkpt lat="38.0292560" lon="-2.5745010">
        <ele>1623.4</ele>
        <time>2020-07-14T09:37:06Z</time>
      </trkpt>
      <trkpt lat="38.0293280" lon="-2.5743890">
        <ele>1622.8</ele>
        <time>2020-07-14T09:37:07Z</time>
      </trkpt>
      <trkpt lat="38.0294710" lon="-2.5741820">
        <ele>1621.8</ele>
        <time>2020-07-14T09:37:09Z</time>
      </trkpt>
      <trkpt lat="38.0296220" lon="-2.5739620">
        <ele>1620.6</ele>
        <time>2020-07-14T09:37:11Z</time>
      </trkpt>
      <trkpt lat="38.0298380" lon="-2.5736550">
        <ele>1619.6</ele>
        <time>2020-07-14T09:37:14Z</time>
      </trkpt>
      <trkpt lat="38.0299170" lon="-2.5735620">
        <ele>1619.2</ele>
        <time>2020-07-14T09:37:15Z</time>
      </trkpt>
      <trkpt lat="38.0299950" lon="-2.5734940">
        <ele>1619.0</ele>
        <time>2020-07-14T09:37:16Z</time>
      </trkpt>
      <trkpt lat="38.0301880" lon="-2.5733950">
        <ele>1618.6</ele>
        <time>2020-07-14T09:37:18Z</time>
      </trkpt>
      <trkpt lat="38.0302820" lon="-2.5733650">
        <ele>1618.0</ele>
        <time>2020-07-14T09:37:19Z</time>
      </trkpt>
      <trkpt lat="38.0303900" lon="-2.5733360">
        <ele>1617.8</ele>
        <time>2020-07-14T09:37:20Z</time>
      </trkpt>
      <trkpt lat="38.0307030" lon="-2.5732650">
        <ele>1616.4</ele>
        <time>2020-07-14T09:37:23Z</time>
      </trkpt>
      <trkpt lat="38.0309140" lon="-2.5732460">
        <ele>1615.4</ele>
        <time>2020-07-14T09:37:25Z</time>
      </trkpt>
      <trkpt lat="38.0310140" lon="-2.5732520">
        <ele>1614.8</ele>
        <time>2020-07-14T09:37:26Z</time>
      </trkpt>
      <trkpt lat="38.0311200" lon="-2.5732650">
        <ele>1614.4</ele>
        <time>2020-07-14T09:37:27Z</time>
      </trkpt>
      <trkpt lat="38.0313260" lon="-2.5732750">
        <ele>1613.8</ele>
        <time>2020-07-14T09:37:29Z</time>
      </trkpt>
      <trkpt lat="38.0315290" lon="-2.5732180">
        <ele>1613.4</ele>
        <time>2020-07-14T09:37:31Z</time>
      </trkpt>
      <trkpt lat="38.0316300" lon="-2.5731690">
        <ele>1613.2</ele>
        <time>2020-07-14T09:37:32Z</time>
      </trkpt>
      <trkpt lat="38.0317270" lon="-2.5731150">
        <ele>1612.2</ele>
        <time>2020-07-14T09:37:33Z</time>
      </trkpt>
      <trkpt lat="38.0318220" lon="-2.5730620">
        <ele>1612.2</ele>
        <time>2020-07-14T09:37:34Z</time>
      </trkpt>
      <trkpt lat="38.0319990" lon="-2.5729490">
        <ele>1611.2</ele>
        <time>2020-07-14T09:37:36Z</time>
      </trkpt>
      <trkpt lat="38.0320810" lon="-2.5729010">
        <ele>1610.8</ele>
        <time>2020-07-14T09:37:37Z</time>
      </trkpt>
      <trkpt lat="38.0323040" lon="-2.5728050">
        <ele>1610.8</ele>
        <time>2020-07-14T09:37:40Z</time>
      </trkpt>
      <trkpt lat="38.0324470" lon="-2.5727570">
        <ele>1611.6</ele>
        <time>2020-07-14T09:37:42Z</time>
      </trkpt>
      <trkpt lat="38.0325070" lon="-2.5727380">
        <ele>1612.0</ele>
        <time>2020-07-14T09:37:43Z</time>
      </trkpt>
      <trkpt lat="38.0326160" lon="-2.5727060">
        <ele>1613.0</ele>
        <time>2020-07-14T09:37:45Z</time>
      </trkpt>
      <trkpt lat="38.0326660" lon="-2.5726890">
        <ele>1613.4</ele>
        <time>2020-07-14T09:37:46Z</time>
      </trkpt>
      <trkpt lat="38.0327990" lon="-2.5726410">
        <ele>1614.6</ele>
        <time>2020-07-14T09:37:49Z</time>
      </trkpt>
      <trkpt lat="38.0328400" lon="-2.5726250">
        <ele>1614.8</ele>
        <time>2020-07-14T09:37:50Z</time>
      </trkpt>
      <trkpt lat="38.0329680" lon="-2.5725870">
        <ele>1616.0</ele>
        <time>2020-07-14T09:37:53Z</time>
      </trkpt>
      <trkpt lat="38.0330050" lon="-2.5725730">
        <ele>1616.2</ele>
        <time>2020-07-14T09:37:54Z</time>
      </trkpt>
      <trkpt lat="38.0330780" lon="-2.5725420">
        <ele>1616.6</ele>
        <time>2020-07-14T09:37:56Z</time>
      </trkpt>
      <trkpt lat="38.0331130" lon="-2.5725240">
        <ele>1616.8</ele>
        <time>2020-07-14T09:37:57Z</time>
      </trkpt>
      <trkpt lat="38.0331470" lon="-2.5725050">
        <ele>1617.0</ele>
        <time>2020-07-14T09:37:58Z</time>
      </trkpt>
      <trkpt lat="38.0332150" lon="-2.5724580">
        <ele>1617.4</ele>
        <time>2020-07-14T09:38:00Z</time>
      </trkpt>
      <trkpt lat="38.0333040" lon="-2.5723940">
        <ele>1617.8</ele>
        <time>2020-07-14T09:38:03Z</time>
      </trkpt>
      <trkpt lat="38.0333610" lon="-2.5723470">
        <ele>1618.4</ele>
        <time>2020-07-14T09:38:05Z</time>
      </trkpt>
      <trkpt lat="38.0334720" lon="-2.5722750">
        <ele>1619.4</ele>
        <time>2020-07-14T09:38:09Z</time>
      </trkpt>
      <trkpt lat="38.0335290" lon="-2.5722450">
        <ele>1619.4</ele>
        <time>2020-07-14T09:38:11Z</time>
      </trkpt>
      <trkpt lat="38.0336710" lon="-2.5721940">
        <ele>1620.6</ele>
        <time>2020-07-14T09:38:16Z</time>
      </trkpt>
      <trkpt lat="38.0337320" lon="-2.5721770">
        <ele>1621.0</ele>
        <time>2020-07-14T09:38:18Z</time>
      </trkpt>
      <trkpt lat="38.0339380" lon="-2.5721250">
        <ele>1621.8</ele>
        <time>2020-07-14T09:38:25Z</time>
      </trkpt>
      <trkpt lat="38.0339680" lon="-2.5721180">
        <ele>1621.8</ele>
        <time>2020-07-14T09:38:26Z</time>
      </trkpt>
      <trkpt lat="38.0341230" lon="-2.5720760">
        <ele>1622.8</ele>
        <time>2020-07-14T09:38:31Z</time>
      </trkpt>
      <trkpt lat="38.0342550" lon="-2.5720490">
        <ele>1623.2</ele>
        <time>2020-07-14T09:38:35Z</time>
      </trkpt>
      <trkpt lat="38.0344730" lon="-2.5719870">
        <ele>1623.8</ele>
        <time>2020-07-14T09:38:42Z</time>
      </trkpt>
      <trkpt lat="38.0345310" lon="-2.5719730">
        <ele>1624.0</ele>
        <time>2020-07-14T09:38:44Z</time>
      </trkpt>
      <trkpt lat="38.0346840" lon="-2.5719430">
        <ele>1625.2</ele>
        <time>2020-07-14T09:38:49Z</time>
      </trkpt>
      <trkpt lat="38.0348720" lon="-2.5719180">
        <ele>1626.0</ele>
        <time>2020-07-14T09:38:55Z</time>
      </trkpt>
      <trkpt lat="38.0349030" lon="-2.5719180">
        <ele>1626.2</ele>
        <time>2020-07-14T09:38:56Z</time>
      </trkpt>
      <trkpt lat="38.0351260" lon="-2.5719740">
        <ele>1627.2</ele>
        <time>2020-07-14T09:39:03Z</time>
      </trkpt>
      <trkpt lat="38.0351580" lon="-2.5719880">
        <ele>1627.2</ele>
        <time>2020-07-14T09:39:04Z</time>
      </trkpt>
      <trkpt lat="38.0354270" lon="-2.5720810">
        <ele>1628.0</ele>
        <time>2020-07-14T09:39:12Z</time>
      </trkpt>
      <trkpt lat="38.0356370" lon="-2.5721060">
        <ele>1628.2</ele>
        <time>2020-07-14T09:39:17Z</time>
      </trkpt>
      <trkpt lat="38.0357840" lon="-2.5721210">
        <ele>1628.2</ele>
        <time>2020-07-14T09:39:20Z</time>
      </trkpt>
      <trkpt lat="38.0360240" lon="-2.5721380">
        <ele>1627.8</ele>
        <time>2020-07-14T09:39:24Z</time>
      </trkpt>
      <trkpt lat="38.0361610" lon="-2.5721480">
        <ele>1627.4</ele>
        <time>2020-07-14T09:39:26Z</time>
      </trkpt>
      <trkpt lat="38.0363080" lon="-2.5721580">
        <ele>1627.2</ele>
        <time>2020-07-14T09:39:28Z</time>
      </trkpt>
      <trkpt lat="38.0363820" lon="-2.5721640">
        <ele>1626.8</ele>
        <time>2020-07-14T09:39:29Z</time>
      </trkpt>
      <trkpt lat="38.0365360" lon="-2.5721680">
        <ele>1625.6</ele>
        <time>2020-07-14T09:39:31Z</time>
      </trkpt>
      <trkpt lat="38.0366040" lon="-2.5721620">
        <ele>1625.2</ele>
        <time>2020-07-14T09:39:32Z</time>
      </trkpt>
      <trkpt lat="38.0366700" lon="-2.5721460">
        <ele>1625.0</ele>
        <time>2020-07-14T09:39:33Z</time>
      </trkpt>
      <trkpt lat="38.0368000" lon="-2.5720750">
        <ele>1624.2</ele>
        <time>2020-07-14T09:39:35Z</time>
      </trkpt>
      <trkpt lat="38.0369120" lon="-2.5719620">
        <ele>1623.8</ele>
        <time>2020-07-14T09:39:37Z</time>
      </trkpt>
      <trkpt lat="38.0369990" lon="-2.5718080">
        <ele>1623.0</ele>
        <time>2020-07-14T09:39:39Z</time>
      </trkpt>
      <trkpt lat="38.0370210" lon="-2.5717190">
        <ele>1622.6</ele>
        <time>2020-07-14T09:39:40Z</time>
      </trkpt>
      <trkpt lat="38.0370370" lon="-2.5716200">
        <ele>1622.0</ele>
        <time>2020-07-14T09:39:41Z</time>
      </trkpt>
      <trkpt lat="38.0370400" lon="-2.5713340">
        <ele>1620.8</ele>
        <time>2020-07-14T09:39:44Z</time>
      </trkpt>
      <trkpt lat="38.0370330" lon="-2.5711360">
        <ele>1620.8</ele>
        <time>2020-07-14T09:39:46Z</time>
      </trkpt>
      <trkpt lat="38.0370360" lon="-2.5707260">
        <ele>1620.2</ele>
        <time>2020-07-14T09:39:50Z</time>
      </trkpt>
      <trkpt lat="38.0370510" lon="-2.5705230">
        <ele>1619.8</ele>
        <time>2020-07-14T09:39:52Z</time>
      </trkpt>
      <trkpt lat="38.0370900" lon="-2.5702050">
        <ele>1619.0</ele>
        <time>2020-07-14T09:39:55Z</time>
      </trkpt>
      <trkpt lat="38.0371430" lon="-2.5700080">
        <ele>1618.8</ele>
        <time>2020-07-14T09:39:57Z</time>
      </trkpt>
      <trkpt lat="38.0372350" lon="-2.5698460">
        <ele>1618.2</ele>
        <time>2020-07-14T09:39:59Z</time>
      </trkpt>
      <trkpt lat="38.0373950" lon="-2.5697440">
        <ele>1617.4</ele>
        <time>2020-07-14T09:40:01Z</time>
      </trkpt>
      <trkpt lat="38.0374810" lon="-2.5697030">
        <ele>1617.0</ele>
        <time>2020-07-14T09:40:02Z</time>
      </trkpt>
      <trkpt lat="38.0375710" lon="-2.5696670">
        <ele>1616.8</ele>
        <time>2020-07-14T09:40:03Z</time>
      </trkpt>
      <trkpt lat="38.0377350" lon="-2.5695970">
        <ele>1616.2</ele>
        <time>2020-07-14T09:40:05Z</time>
      </trkpt>
      <trkpt lat="38.0378300" lon="-2.5695570">
        <ele>1615.8</ele>
        <time>2020-07-14T09:40:06Z</time>
      </trkpt>
      <trkpt lat="38.0379220" lon="-2.5695230">
        <ele>1615.2</ele>
        <time>2020-07-14T09:40:07Z</time>
      </trkpt>
      <trkpt lat="38.0382770" lon="-2.5693880">
        <ele>1613.6</ele>
        <time>2020-07-14T09:40:11Z</time>
      </trkpt>
      <trkpt lat="38.0385510" lon="-2.5692660">
        <ele>1611.8</ele>
        <time>2020-07-14T09:40:14Z</time>
      </trkpt>
      <trkpt lat="38.0386400" lon="-2.5692290">
        <ele>1610.8</ele>
        <time>2020-07-14T09:40:15Z</time>
      </trkpt>
      <trkpt lat="38.0388300" lon="-2.5691740">
        <ele>1608.8</ele>
        <time>2020-07-14T09:40:17Z</time>
      </trkpt>
      <trkpt lat="38.0389260" lon="-2.5691680">
        <ele>1608.2</ele>
        <time>2020-07-14T09:40:18Z</time>
      </trkpt>
      <trkpt lat="38.0390230" lon="-2.5691840">
        <ele>1607.6</ele>
        <time>2020-07-14T09:40:19Z</time>
      </trkpt>
      <trkpt lat="38.0392120" lon="-2.5692550">
        <ele>1606.6</ele>
        <time>2020-07-14T09:40:21Z</time>
      </trkpt>
      <trkpt lat="38.0393070" lon="-2.5693000">
        <ele>1606.2</ele>
        <time>2020-07-14T09:40:22Z</time>
      </trkpt>
      <trkpt lat="38.0395010" lon="-2.5693830">
        <ele>1605.2</ele>
        <time>2020-07-14T09:40:24Z</time>
      </trkpt>
      <trkpt lat="38.0397960" lon="-2.5695100">
        <ele>1604.0</ele>
        <time>2020-07-14T09:40:27Z</time>
      </trkpt>
      <trkpt lat="38.0401810" lon="-2.5696630">
        <ele>1603.0</ele>
        <time>2020-07-14T09:40:31Z</time>
      </trkpt>
      <trkpt lat="38.0403720" lon="-2.5697240">
        <ele>1602.4</ele>
        <time>2020-07-14T09:40:33Z</time>
      </trkpt>
      <trkpt lat="38.0408620" lon="-2.5698770">
        <ele>1601.4</ele>
        <time>2020-07-14T09:40:38Z</time>
      </trkpt>
      <trkpt lat="38.0412530" lon="-2.5699850">
        <ele>1600.0</ele>
        <time>2020-07-14T09:40:42Z</time>
      </trkpt>
      <trkpt lat="38.0415580" lon="-2.5700710">
        <ele>1598.8</ele>
        <time>2020-07-14T09:40:45Z</time>
      </trkpt>
      <trkpt lat="38.0416520" lon="-2.5700980">
        <ele>1598.0</ele>
        <time>2020-07-14T09:40:46Z</time>
      </trkpt>
      <trkpt lat="38.0417520" lon="-2.5701270">
        <ele>1597.4</ele>
        <time>2020-07-14T09:40:47Z</time>
      </trkpt>
      <trkpt lat="38.0419390" lon="-2.5701830">
        <ele>1596.4</ele>
        <time>2020-07-14T09:40:49Z</time>
      </trkpt>
      <trkpt lat="38.0420340" lon="-2.5702090">
        <ele>1595.8</ele>
        <time>2020-07-14T09:40:50Z</time>
      </trkpt>
      <trkpt lat="38.0422200" lon="-2.5702560">
        <ele>1595.2</ele>
        <time>2020-07-14T09:40:52Z</time>
      </trkpt>
      <trkpt lat="38.0423150" lon="-2.5702850">
        <ele>1594.4</ele>
        <time>2020-07-14T09:40:53Z</time>
      </trkpt>
      <trkpt lat="38.0425090" lon="-2.5703380">
        <ele>1593.4</ele>
        <time>2020-07-14T09:40:55Z</time>
      </trkpt>
      <trkpt lat="38.0426950" lon="-2.5703900">
        <ele>1591.4</ele>
        <time>2020-07-14T09:40:57Z</time>
      </trkpt>
      <trkpt lat="38.0428730" lon="-2.5704390">
        <ele>1590.6</ele>
        <time>2020-07-14T09:40:59Z</time>
      </trkpt>
      <trkpt lat="38.0429730" lon="-2.5704700">
        <ele>1589.8</ele>
        <time>2020-07-14T09:41:00Z</time>
      </trkpt>
      <trkpt lat="38.0432610" lon="-2.5705550">
        <ele>1588.4</ele>
        <time>2020-07-14T09:41:03Z</time>
      </trkpt>
      <trkpt lat="38.0435440" lon="-2.5706540">
        <ele>1586.6</ele>
        <time>2020-07-14T09:41:06Z</time>
      </trkpt>
      <trkpt lat="38.0436410" lon="-2.5707000">
        <ele>1586.0</ele>
        <time>2020-07-14T09:41:07Z</time>
      </trkpt>
      <trkpt lat="38.0437310" lon="-2.5707490">
        <ele>1585.4</ele>
        <time>2020-07-14T09:41:08Z</time>
      </trkpt>
      <trkpt lat="38.0438170" lon="-2.5707910">
        <ele>1585.0</ele>
        <time>2020-07-14T09:41:09Z</time>
      </trkpt>
      <trkpt lat="38.0439110" lon="-2.5708320">
        <ele>1583.8</ele>
        <time>2020-07-14T09:41:10Z</time>
      </trkpt>
      <trkpt lat="38.0441840" lon="-2.5709480">
        <ele>1582.2</ele>
        <time>2020-07-14T09:41:13Z</time>
      </trkpt>
      <trkpt lat="38.0443620" lon="-2.5710300">
        <ele>1581.6</ele>
        <time>2020-07-14T09:41:15Z</time>
      </trkpt>
      <trkpt lat="38.0445450" lon="-2.5711150">
        <ele>1580.8</ele>
        <time>2020-07-14T09:41:17Z</time>
      </trkpt>
      <trkpt lat="38.0448130" lon="-2.5712590">
        <ele>1579.4</ele>
        <time>2020-07-14T09:41:20Z</time>
      </trkpt>
      <trkpt lat="38.0448960" lon="-2.5713250">
        <ele>1578.8</ele>
        <time>2020-07-14T09:41:21Z</time>
      </trkpt>
      <trkpt lat="38.0450450" lon="-2.5714910">
        <ele>1577.8</ele>
        <time>2020-07-14T09:41:23Z</time>
      </trkpt>
      <trkpt lat="38.0451780" lon="-2.5716920">
        <ele>1576.6</ele>
        <time>2020-07-14T09:41:25Z</time>
      </trkpt>
      <trkpt lat="38.0453080" lon="-2.5719080">
        <ele>1575.4</ele>
        <time>2020-07-14T09:41:27Z</time>
      </trkpt>
      <trkpt lat="38.0454910" lon="-2.5721850">
        <ele>1573.6</ele>
        <time>2020-07-14T09:41:30Z</time>
      </trkpt>
      <trkpt lat="38.0456340" lon="-2.5723290">
        <ele>1572.4</ele>
        <time>2020-07-14T09:41:32Z</time>
      </trkpt>
      <trkpt lat="38.0457110" lon="-2.5723890">
        <ele>1571.2</ele>
        <time>2020-07-14T09:41:33Z</time>
      </trkpt>
      <trkpt lat="38.0457920" lon="-2.5724460">
        <ele>1571.0</ele>
        <time>2020-07-14T09:41:34Z</time>
      </trkpt>
      <trkpt lat="38.0459540" lon="-2.5725490">
        <ele>1570.0</ele>
        <time>2020-07-14T09:41:36Z</time>
      </trkpt>
      <trkpt lat="38.0461060" lon="-2.5726430">
        <ele>1568.8</ele>
        <time>2020-07-14T09:41:38Z</time>
      </trkpt>
      <trkpt lat="38.0462480" lon="-2.5727310">
        <ele>1567.6</ele>
        <time>2020-07-14T09:41:40Z</time>
      </trkpt>
      <trkpt lat="38.0464050" lon="-2.5728390">
        <ele>1566.4</ele>
        <time>2020-07-14T09:41:42Z</time>
      </trkpt>
      <trkpt lat="38.0465370" lon="-2.5729780">
        <ele>1565.4</ele>
        <time>2020-07-14T09:41:44Z</time>
      </trkpt>
      <trkpt lat="38.0465690" lon="-2.5730810">
        <ele>1565.0</ele>
        <time>2020-07-14T09:41:45Z</time>
      </trkpt>
      <trkpt lat="38.0466030" lon="-2.5731790">
        <ele>1565.0</ele>
        <time>2020-07-14T09:41:46Z</time>
      </trkpt>
      <trkpt lat="38.0466220" lon="-2.5732830">
        <ele>1564.6</ele>
        <time>2020-07-14T09:41:47Z</time>
      </trkpt>
      <trkpt lat="38.0466890" lon="-2.5734700">
        <ele>1564.0</ele>
        <time>2020-07-14T09:41:49Z</time>
      </trkpt>
      <trkpt lat="38.0467530" lon="-2.5735340">
        <ele>1563.8</ele>
        <time>2020-07-14T09:41:50Z</time>
      </trkpt>
      <trkpt lat="38.0469770" lon="-2.5736600">
        <ele>1563.2</ele>
        <time>2020-07-14T09:41:53Z</time>
      </trkpt>
      <trkpt lat="38.0471460" lon="-2.5737210">
        <ele>1562.6</ele>
        <time>2020-07-14T09:41:55Z</time>
      </trkpt>
      <trkpt lat="38.0473180" lon="-2.5737840">
        <ele>1561.4</ele>
        <time>2020-07-14T09:41:57Z</time>
      </trkpt>
      <trkpt lat="38.0475760" lon="-2.5738770">
        <ele>1560.2</ele>
        <time>2020-07-14T09:42:00Z</time>
      </trkpt>
      <trkpt lat="38.0478310" lon="-2.5739860">
        <ele>1558.8</ele>
        <time>2020-07-14T09:42:03Z</time>
      </trkpt>
      <trkpt lat="38.0480110" lon="-2.5740530">
        <ele>1557.8</ele>
        <time>2020-07-14T09:42:05Z</time>
      </trkpt>
      <trkpt lat="38.0481980" lon="-2.5740900">
        <ele>1556.4</ele>
        <time>2020-07-14T09:42:07Z</time>
      </trkpt>
      <trkpt lat="38.0483850" lon="-2.5740790">
        <ele>1555.2</ele>
        <time>2020-07-14T09:42:09Z</time>
      </trkpt>
      <trkpt lat="38.0485750" lon="-2.5740330">
        <ele>1553.8</ele>
        <time>2020-07-14T09:42:11Z</time>
      </trkpt>
      <trkpt lat="38.0487580" lon="-2.5739860">
        <ele>1552.4</ele>
        <time>2020-07-14T09:42:13Z</time>
      </trkpt>
      <trkpt lat="38.0489370" lon="-2.5739430">
        <ele>1551.0</ele>
        <time>2020-07-14T09:42:15Z</time>
      </trkpt>
      <trkpt lat="38.0491890" lon="-2.5738760">
        <ele>1549.4</ele>
        <time>2020-07-14T09:42:18Z</time>
      </trkpt>
      <trkpt lat="38.0493580" lon="-2.5738300">
        <ele>1548.4</ele>
        <time>2020-07-14T09:42:20Z</time>
      </trkpt>
      <trkpt lat="38.0495250" lon="-2.5737830">
        <ele>1546.8</ele>
        <time>2020-07-14T09:42:22Z</time>
      </trkpt>
      <trkpt lat="38.0498050" lon="-2.5737070">
        <ele>1545.0</ele>
        <time>2020-07-14T09:42:25Z</time>
      </trkpt>
      <trkpt lat="38.0500770" lon="-2.5736360">
        <ele>1543.8</ele>
        <time>2020-07-14T09:42:28Z</time>
      </trkpt>
      <trkpt lat="38.0502740" lon="-2.5735890">
        <ele>1542.6</ele>
        <time>2020-07-14T09:42:30Z</time>
      </trkpt>
      <trkpt lat="38.0504530" lon="-2.5735450">
        <ele>1541.0</ele>
        <time>2020-07-14T09:42:32Z</time>
      </trkpt>
      <trkpt lat="38.0506300" lon="-2.5735000">
        <ele>1539.6</ele>
        <time>2020-07-14T09:42:34Z</time>
      </trkpt>
      <trkpt lat="38.0507250" lon="-2.5734780">
        <ele>1538.6</ele>
        <time>2020-07-14T09:42:35Z</time>
      </trkpt>
      <trkpt lat="38.0509110" lon="-2.5734320">
        <ele>1536.8</ele>
        <time>2020-07-14T09:42:37Z</time>
      </trkpt>
      <trkpt lat="38.0511750" lon="-2.5733630">
        <ele>1535.4</ele>
        <time>2020-07-14T09:42:40Z</time>
      </trkpt>
      <trkpt lat="38.0512690" lon="-2.5733400">
        <ele>1535.0</ele>
        <time>2020-07-14T09:42:41Z</time>
      </trkpt>
      <trkpt lat="38.0514420" lon="-2.5732930">
        <ele>1533.8</ele>
        <time>2020-07-14T09:42:43Z</time>
      </trkpt>
      <trkpt lat="38.0516160" lon="-2.5732430">
        <ele>1532.6</ele>
        <time>2020-07-14T09:42:45Z</time>
      </trkpt>
      <trkpt lat="38.0518860" lon="-2.5731400">
        <ele>1531.0</ele>
        <time>2020-07-14T09:42:48Z</time>
      </trkpt>
      <trkpt lat="38.0519660" lon="-2.5730990">
        <ele>1530.6</ele>
        <time>2020-07-14T09:42:49Z</time>
      </trkpt>
      <trkpt lat="38.0520570" lon="-2.5730510">
        <ele>1529.6</ele>
        <time>2020-07-14T09:42:50Z</time>
      </trkpt>
      <trkpt lat="38.0522250" lon="-2.5729580">
        <ele>1528.4</ele>
        <time>2020-07-14T09:42:52Z</time>
      </trkpt>
      <trkpt lat="38.0524750" lon="-2.5727930">
        <ele>1527.6</ele>
        <time>2020-07-14T09:42:55Z</time>
      </trkpt>
      <trkpt lat="38.0525550" lon="-2.5727390">
        <ele>1527.0</ele>
        <time>2020-07-14T09:42:56Z</time>
      </trkpt>
      <trkpt lat="38.0527920" lon="-2.5725730">
        <ele>1525.6</ele>
        <time>2020-07-14T09:42:59Z</time>
      </trkpt>
      <trkpt lat="38.0529410" lon="-2.5724790">
        <ele>1524.4</ele>
        <time>2020-07-14T09:43:01Z</time>
      </trkpt>
      <trkpt lat="38.0531670" lon="-2.5724120">
        <ele>1523.4</ele>
        <time>2020-07-14T09:43:04Z</time>
      </trkpt>
      <trkpt lat="38.0532340" lon="-2.5724120">
        <ele>1523.2</ele>
        <time>2020-07-14T09:43:05Z</time>
      </trkpt>
      <trkpt lat="38.0534790" lon="-2.5723870">
        <ele>1522.2</ele>
        <time>2020-07-14T09:43:08Z</time>
      </trkpt>
      <trkpt lat="38.0537960" lon="-2.5723280">
        <ele>1520.8</ele>
        <time>2020-07-14T09:43:12Z</time>
      </trkpt>
      <trkpt lat="38.0538760" lon="-2.5723030">
        <ele>1520.4</ele>
        <time>2020-07-14T09:43:13Z</time>
      </trkpt>
      <trkpt lat="38.0540370" lon="-2.5722560">
        <ele>1519.4</ele>
        <time>2020-07-14T09:43:15Z</time>
      </trkpt>
      <trkpt lat="38.0543750" lon="-2.5722130">
        <ele>1518.2</ele>
        <time>2020-07-14T09:43:19Z</time>
      </trkpt>
      <trkpt lat="38.0546570" lon="-2.5722100">
        <ele>1517.0</ele>
        <time>2020-07-14T09:43:22Z</time>
      </trkpt>
      <trkpt lat="38.0549540" lon="-2.5722070">
        <ele>1515.6</ele>
        <time>2020-07-14T09:43:25Z</time>
      </trkpt>
      <trkpt lat="38.0553430" lon="-2.5722020">
        <ele>1514.4</ele>
        <time>2020-07-14T09:43:29Z</time>
      </trkpt>
      <trkpt lat="38.0556490" lon="-2.5722050">
        <ele>1513.0</ele>
        <time>2020-07-14T09:43:32Z</time>
      </trkpt>
      <trkpt lat="38.0558430" lon="-2.5722130">
        <ele>1512.2</ele>
        <time>2020-07-14T09:43:34Z</time>
      </trkpt>
      <trkpt lat="38.0559390" lon="-2.5722180">
        <ele>1511.8</ele>
        <time>2020-07-14T09:43:35Z</time>
      </trkpt>
      <trkpt lat="38.0561190" lon="-2.5722080">
        <ele>1510.8</ele>
        <time>2020-07-14T09:43:37Z</time>
      </trkpt>
      <trkpt lat="38.0562050" lon="-2.5721840">
        <ele>1510.4</ele>
        <time>2020-07-14T09:43:38Z</time>
      </trkpt>
      <trkpt lat="38.0563660" lon="-2.5721170">
        <ele>1509.0</ele>
        <time>2020-07-14T09:43:40Z</time>
      </trkpt>
      <trkpt lat="38.0564520" lon="-2.5720950">
        <ele>1508.8</ele>
        <time>2020-07-14T09:43:41Z</time>
      </trkpt>
      <trkpt lat="38.0565410" lon="-2.5720930">
        <ele>1509.0</ele>
        <time>2020-07-14T09:43:42Z</time>
      </trkpt>
      <trkpt lat="38.0568710" lon="-2.5721870">
        <ele>1508.2</ele>
        <time>2020-07-14T09:43:46Z</time>
      </trkpt>
      <trkpt lat="38.0569640" lon="-2.5722170">
        <ele>1507.8</ele>
        <time>2020-07-14T09:43:47Z</time>
      </trkpt>
      <trkpt lat="38.0573150" lon="-2.5723260">
        <ele>1506.6</ele>
        <time>2020-07-14T09:43:51Z</time>
      </trkpt>
      <trkpt lat="38.0575720" lon="-2.5724220">
        <ele>1505.6</ele>
        <time>2020-07-14T09:43:54Z</time>
      </trkpt>
      <trkpt lat="38.0577570" lon="-2.5724740">
        <ele>1505.0</ele>
        <time>2020-07-14T09:43:56Z</time>
      </trkpt>
      <trkpt lat="38.0579330" lon="-2.5724770">
        <ele>1504.8</ele>
        <time>2020-07-14T09:43:58Z</time>
      </trkpt>
      <trkpt lat="38.0580270" lon="-2.5724690">
        <ele>1504.4</ele>
        <time>2020-07-14T09:43:59Z</time>
      </trkpt>
      <trkpt lat="38.0584150" lon="-2.5724250">
        <ele>1503.2</ele>
        <time>2020-07-14T09:44:03Z</time>
      </trkpt>
      <trkpt lat="38.0586120" lon="-2.5724020">
        <ele>1502.8</ele>
        <time>2020-07-14T09:44:05Z</time>
      </trkpt>
      <trkpt lat="38.0588960" lon="-2.5723480">
        <ele>1502.0</ele>
        <time>2020-07-14T09:44:08Z</time>
      </trkpt>
      <trkpt lat="38.0591750" lon="-2.5722530">
        <ele>1501.0</ele>
        <time>2020-07-14T09:44:11Z</time>
      </trkpt>
      <trkpt lat="38.0594340" lon="-2.5721460">
        <ele>1499.6</ele>
        <time>2020-07-14T09:44:14Z</time>
      </trkpt>
      <trkpt lat="38.0598020" lon="-2.5719880">
        <ele>1498.4</ele>
        <time>2020-07-14T09:44:18Z</time>
      </trkpt>
      <trkpt lat="38.0602250" lon="-2.5717650">
        <ele>1497.8</ele>
        <time>2020-07-14T09:44:23Z</time>
      </trkpt>
      <trkpt lat="38.0603880" lon="-2.5714990">
        <ele>1497.2</ele>
        <time>2020-07-14T09:44:26Z</time>
      </trkpt>
      <trkpt lat="38.0604630" lon="-2.5712940">
        <ele>1496.0</ele>
        <time>2020-07-14T09:44:28Z</time>
      </trkpt>
      <trkpt lat="38.0605090" lon="-2.5711990">
        <ele>1495.4</ele>
        <time>2020-07-14T09:44:29Z</time>
      </trkpt>
      <trkpt lat="38.0605820" lon="-2.5711180">
        <ele>1495.0</ele>
        <time>2020-07-14T09:44:30Z</time>
      </trkpt>
      <trkpt lat="38.0607690" lon="-2.5710520">
        <ele>1494.2</ele>
        <time>2020-07-14T09:44:32Z</time>
      </trkpt>
      <trkpt lat="38.0609500" lon="-2.5710730">
        <ele>1493.6</ele>
        <time>2020-07-14T09:44:34Z</time>
      </trkpt>
      <trkpt lat="38.0610620" lon="-2.5710980">
        <ele>1493.0</ele>
        <time>2020-07-14T09:44:35Z</time>
      </trkpt>
      <trkpt lat="38.0611450" lon="-2.5711100">
        <ele>1492.6</ele>
        <time>2020-07-14T09:44:36Z</time>
      </trkpt>
      <trkpt lat="38.0612440" lon="-2.5711070">
        <ele>1492.0</ele>
        <time>2020-07-14T09:44:37Z</time>
      </trkpt>
      <trkpt lat="38.0613400" lon="-2.5710890">
        <ele>1491.4</ele>
        <time>2020-07-14T09:44:38Z</time>
      </trkpt>
      <trkpt lat="38.0616270" lon="-2.5709770">
        <ele>1490.0</ele>
        <time>2020-07-14T09:44:41Z</time>
      </trkpt>
      <trkpt lat="38.0617210" lon="-2.5709400">
        <ele>1489.4</ele>
        <time>2020-07-14T09:44:42Z</time>
      </trkpt>
      <trkpt lat="38.0618140" lon="-2.5709050">
        <ele>1488.6</ele>
        <time>2020-07-14T09:44:43Z</time>
      </trkpt>
      <trkpt lat="38.0620030" lon="-2.5708460">
        <ele>1487.4</ele>
        <time>2020-07-14T09:44:45Z</time>
      </trkpt>
      <trkpt lat="38.0621940" lon="-2.5708170">
        <ele>1486.2</ele>
        <time>2020-07-14T09:44:47Z</time>
      </trkpt>
      <trkpt lat="38.0622880" lon="-2.5708090">
        <ele>1486.2</ele>
        <time>2020-07-14T09:44:48Z</time>
      </trkpt>
      <trkpt lat="38.0624740" lon="-2.5707800">
        <ele>1486.0</ele>
        <time>2020-07-14T09:44:50Z</time>
      </trkpt>
      <trkpt lat="38.0626390" lon="-2.5706950">
        <ele>1486.2</ele>
        <time>2020-07-14T09:44:52Z</time>
      </trkpt>
      <trkpt lat="38.0627900" lon="-2.5705520">
        <ele>1486.2</ele>
        <time>2020-07-14T09:44:54Z</time>
      </trkpt>
      <trkpt lat="38.0629390" lon="-2.5703780">
        <ele>1485.6</ele>
        <time>2020-07-14T09:44:56Z</time>
      </trkpt>
      <trkpt lat="38.0630050" lon="-2.5702840">
        <ele>1485.0</ele>
        <time>2020-07-14T09:44:57Z</time>
      </trkpt>
      <trkpt lat="38.0631240" lon="-2.5700930">
        <ele>1483.6</ele>
        <time>2020-07-14T09:44:59Z</time>
      </trkpt>
      <trkpt lat="38.0632460" lon="-2.5699090">
        <ele>1482.8</ele>
        <time>2020-07-14T09:45:01Z</time>
      </trkpt>
      <trkpt lat="38.0633160" lon="-2.5698430">
        <ele>1482.2</ele>
        <time>2020-07-14T09:45:02Z</time>
      </trkpt>
      <trkpt lat="38.0633940" lon="-2.5698150">
        <ele>1481.8</ele>
        <time>2020-07-14T09:45:03Z</time>
      </trkpt>
      <trkpt lat="38.0635560" lon="-2.5698530">
        <ele>1481.2</ele>
        <time>2020-07-14T09:45:05Z</time>
      </trkpt>
      <trkpt lat="38.0636210" lon="-2.5698850">
        <ele>1480.8</ele>
        <time>2020-07-14T09:45:06Z</time>
      </trkpt>
      <trkpt lat="38.0636910" lon="-2.5699210">
        <ele>1480.6</ele>
        <time>2020-07-14T09:45:07Z</time>
      </trkpt>
      <trkpt lat="38.0639630" lon="-2.5700360">
        <ele>1480.2</ele>
        <time>2020-07-14T09:45:11Z</time>
      </trkpt>
      <trkpt lat="38.0640430" lon="-2.5700470">
        <ele>1480.2</ele>
        <time>2020-07-14T09:45:12Z</time>
      </trkpt>
      <trkpt lat="38.0641840" lon="-2.5700030">
        <ele>1480.4</ele>
        <time>2020-07-14T09:45:14Z</time>
      </trkpt>
      <trkpt lat="38.0643970" lon="-2.5698320">
        <ele>1479.6</ele>
        <time>2020-07-14T09:45:17Z</time>
      </trkpt>
      <trkpt lat="38.0644630" lon="-2.5697570">
        <ele>1479.2</ele>
        <time>2020-07-14T09:45:18Z</time>
      </trkpt>
      <trkpt lat="38.0645230" lon="-2.5696820">
        <ele>1478.8</ele>
        <time>2020-07-14T09:45:19Z</time>
      </trkpt>
      <trkpt lat="38.0645880" lon="-2.5695910">
        <ele>1478.2</ele>
        <time>2020-07-14T09:45:20Z</time>
      </trkpt>
      <trkpt lat="38.0646430" lon="-2.5695040">
        <ele>1477.8</ele>
        <time>2020-07-14T09:45:21Z</time>
      </trkpt>
      <trkpt lat="38.0646890" lon="-2.5694160">
        <ele>1477.2</ele>
        <time>2020-07-14T09:45:22Z</time>
      </trkpt>
      <trkpt lat="38.0647390" lon="-2.5693110">
        <ele>1476.8</ele>
        <time>2020-07-14T09:45:23Z</time>
      </trkpt>
      <trkpt lat="38.0648090" lon="-2.5690970">
        <ele>1476.6</ele>
        <time>2020-07-14T09:45:25Z</time>
      </trkpt>
      <trkpt lat="38.0648170" lon="-2.5689830">
        <ele>1476.4</ele>
        <time>2020-07-14T09:45:26Z</time>
      </trkpt>
      <trkpt lat="38.0648070" lon="-2.5688680">
        <ele>1476.2</ele>
        <time>2020-07-14T09:45:27Z</time>
      </trkpt>
      <trkpt lat="38.0647380" lon="-2.5686420">
        <ele>1475.6</ele>
        <time>2020-07-14T09:45:29Z</time>
      </trkpt>
      <trkpt lat="38.0646870" lon="-2.5685220">
        <ele>1475.0</ele>
        <time>2020-07-14T09:45:30Z</time>
      </trkpt>
      <trkpt lat="38.0646430" lon="-2.5684120">
        <ele>1474.8</ele>
        <time>2020-07-14T09:45:31Z</time>
      </trkpt>
      <trkpt lat="38.0645930" lon="-2.5682390">
        <ele>1473.8</ele>
        <time>2020-07-14T09:45:33Z</time>
      </trkpt>
      <trkpt lat="38.0645970" lon="-2.5680710">
        <ele>1473.2</ele>
        <time>2020-07-14T09:45:34Z</time>
      </trkpt>
      <trkpt lat="38.0646260" lon="-2.5679440">
        <ele>1472.6</ele>
        <time>2020-07-14T09:45:35Z</time>
      </trkpt>
      <trkpt lat="38.0646730" lon="-2.5678610">
        <ele>1472.0</ele>
        <time>2020-07-14T09:45:36Z</time>
      </trkpt>
      <trkpt lat="38.0647430" lon="-2.5677820">
        <ele>1471.2</ele>
        <time>2020-07-14T09:45:37Z</time>
      </trkpt>
      <trkpt lat="38.0649110" lon="-2.5677010">
        <ele>1470.0</ele>
        <time>2020-07-14T09:45:39Z</time>
      </trkpt>
      <trkpt lat="38.0650060" lon="-2.5677000">
        <ele>1468.8</ele>
        <time>2020-07-14T09:45:40Z</time>
      </trkpt>
      <trkpt lat="38.0652070" lon="-2.5677370">
        <ele>1467.2</ele>
        <time>2020-07-14T09:45:42Z</time>
      </trkpt>
      <trkpt lat="38.0653920" lon="-2.5677780">
        <ele>1465.6</ele>
        <time>2020-07-14T09:45:44Z</time>
      </trkpt>
      <trkpt lat="38.0655850" lon="-2.5678240">
        <ele>1464.0</ele>
        <time>2020-07-14T09:45:46Z</time>
      </trkpt>
      <trkpt lat="38.0657880" lon="-2.5678680">
        <ele>1462.6</ele>
        <time>2020-07-14T09:45:48Z</time>
      </trkpt>
      <trkpt lat="38.0658820" lon="-2.5678770">
        <ele>1462.2</ele>
        <time>2020-07-14T09:45:49Z</time>
      </trkpt>
      <trkpt lat="38.0659870" lon="-2.5678700">
        <ele>1461.4</ele>
        <time>2020-07-14T09:45:50Z</time>
      </trkpt>
      <trkpt lat="38.0661950" lon="-2.5678310">
        <ele>1460.0</ele>
        <time>2020-07-14T09:45:52Z</time>
      </trkpt>
      <trkpt lat="38.0664090" lon="-2.5677940">
        <ele>1458.4</ele>
        <time>2020-07-14T09:45:54Z</time>
      </trkpt>
      <trkpt lat="38.0666190" lon="-2.5677320">
        <ele>1456.8</ele>
        <time>2020-07-14T09:45:56Z</time>
      </trkpt>
      <trkpt lat="38.0667160" lon="-2.5676770">
        <ele>1456.4</ele>
        <time>2020-07-14T09:45:57Z</time>
      </trkpt>
      <trkpt lat="38.0669110" lon="-2.5675610">
        <ele>1455.4</ele>
        <time>2020-07-14T09:45:59Z</time>
      </trkpt>
      <trkpt lat="38.0670160" lon="-2.5675200">
        <ele>1455.0</ele>
        <time>2020-07-14T09:46:00Z</time>
      </trkpt>
      <trkpt lat="38.0671180" lon="-2.5675080">
        <ele>1454.4</ele>
        <time>2020-07-14T09:46:01Z</time>
      </trkpt>
      <trkpt lat="38.0672160" lon="-2.5675280">
        <ele>1453.6</ele>
        <time>2020-07-14T09:46:02Z</time>
      </trkpt>
      <trkpt lat="38.0673100" lon="-2.5675710">
        <ele>1452.6</ele>
        <time>2020-07-14T09:46:03Z</time>
      </trkpt>
      <trkpt lat="38.0673930" lon="-2.5676250">
        <ele>1451.6</ele>
        <time>2020-07-14T09:46:04Z</time>
      </trkpt>
      <trkpt lat="38.0674920" lon="-2.5676970">
        <ele>1450.6</ele>
        <time>2020-07-14T09:46:05Z</time>
      </trkpt>
      <trkpt lat="38.0676800" lon="-2.5678050">
        <ele>1449.2</ele>
        <time>2020-07-14T09:46:07Z</time>
      </trkpt>
      <trkpt lat="38.0678720" lon="-2.5678490">
        <ele>1447.6</ele>
        <time>2020-07-14T09:46:09Z</time>
      </trkpt>
      <trkpt lat="38.0679750" lon="-2.5678440">
        <ele>1447.0</ele>
        <time>2020-07-14T09:46:10Z</time>
      </trkpt>
      <trkpt lat="38.0680730" lon="-2.5678160">
        <ele>1445.8</ele>
        <time>2020-07-14T09:46:11Z</time>
      </trkpt>
      <trkpt lat="38.0682710" lon="-2.5677150">
        <ele>1444.2</ele>
        <time>2020-07-14T09:46:13Z</time>
      </trkpt>
      <trkpt lat="38.0683640" lon="-2.5676580">
        <ele>1443.4</ele>
        <time>2020-07-14T09:46:14Z</time>
      </trkpt>
      <trkpt lat="38.0684670" lon="-2.5675910">
        <ele>1442.6</ele>
        <time>2020-07-14T09:46:15Z</time>
      </trkpt>
      <trkpt lat="38.0686580" lon="-2.5674500">
        <ele>1441.4</ele>
        <time>2020-07-14T09:46:17Z</time>
      </trkpt>
      <trkpt lat="38.0687430" lon="-2.5673660">
        <ele>1440.8</ele>
        <time>2020-07-14T09:46:18Z</time>
      </trkpt>
      <trkpt lat="38.0688140" lon="-2.5672770">
        <ele>1440.2</ele>
        <time>2020-07-14T09:46:19Z</time>
      </trkpt>
      <trkpt lat="38.0689310" lon="-2.5670650">
        <ele>1439.2</ele>
        <time>2020-07-14T09:46:21Z</time>
      </trkpt>
      <trkpt lat="38.0689650" lon="-2.5669620">
        <ele>1438.0</ele>
        <time>2020-07-14T09:46:22Z</time>
      </trkpt>
      <trkpt lat="38.0689640" lon="-2.5667340">
        <ele>1436.2</ele>
        <time>2020-07-14T09:46:24Z</time>
      </trkpt>
      <trkpt lat="38.0688980" lon="-2.5664930">
        <ele>1434.2</ele>
        <time>2020-07-14T09:46:26Z</time>
      </trkpt>
      <trkpt lat="38.0688380" lon="-2.5662440">
        <ele>1432.6</ele>
        <time>2020-07-14T09:46:28Z</time>
      </trkpt>
      <trkpt lat="38.0688270" lon="-2.5659550">
        <ele>1431.2</ele>
        <time>2020-07-14T09:46:30Z</time>
      </trkpt>
      <trkpt lat="38.0688300" lon="-2.5657960">
        <ele>1431.0</ele>
        <time>2020-07-14T09:46:31Z</time>
      </trkpt>
      <trkpt lat="38.0688510" lon="-2.5655300">
        <ele>1429.8</ele>
        <time>2020-07-14T09:46:33Z</time>
      </trkpt>
      <trkpt lat="38.0688730" lon="-2.5654080">
        <ele>1429.2</ele>
        <time>2020-07-14T09:46:34Z</time>
      </trkpt>
      <trkpt lat="38.0689170" lon="-2.5652760">
        <ele>1428.4</ele>
        <time>2020-07-14T09:46:35Z</time>
      </trkpt>
      <trkpt lat="38.0690430" lon="-2.5650900">
        <ele>1427.0</ele>
        <time>2020-07-14T09:46:37Z</time>
      </trkpt>
      <trkpt lat="38.0691990" lon="-2.5649960">
        <ele>1425.0</ele>
        <time>2020-07-14T09:46:39Z</time>
      </trkpt>
      <trkpt lat="38.0692920" lon="-2.5649500">
        <ele>1424.0</ele>
        <time>2020-07-14T09:46:40Z</time>
      </trkpt>
      <trkpt lat="38.0693800" lon="-2.5648970">
        <ele>1423.0</ele>
        <time>2020-07-14T09:46:41Z</time>
      </trkpt>
      <trkpt lat="38.0695460" lon="-2.5647720">
        <ele>1421.6</ele>
        <time>2020-07-14T09:46:43Z</time>
      </trkpt>
      <trkpt lat="38.0696080" lon="-2.5646960">
        <ele>1421.0</ele>
        <time>2020-07-14T09:46:44Z</time>
      </trkpt>
      <trkpt lat="38.0696780" lon="-2.5644880">
        <ele>1420.2</ele>
        <time>2020-07-14T09:46:46Z</time>
      </trkpt>
      <trkpt lat="38.0696240" lon="-2.5641750">
        <ele>1419.2</ele>
        <time>2020-07-14T09:46:49Z</time>
      </trkpt>
      <trkpt lat="38.0694780" lon="-2.5640360">
        <ele>1418.0</ele>
        <time>2020-07-14T09:46:51Z</time>
      </trkpt>
      <trkpt lat="38.0692880" lon="-2.5639820">
        <ele>1416.2</ele>
        <time>2020-07-14T09:46:53Z</time>
      </trkpt>
      <trkpt lat="38.0691990" lon="-2.5639620">
        <ele>1415.4</ele>
        <time>2020-07-14T09:46:54Z</time>
      </trkpt>
      <trkpt lat="38.0690990" lon="-2.5639410">
        <ele>1415.0</ele>
        <time>2020-07-14T09:46:55Z</time>
      </trkpt>
      <trkpt lat="38.0689100" lon="-2.5638970">
        <ele>1413.6</ele>
        <time>2020-07-14T09:46:57Z</time>
      </trkpt>
      <trkpt lat="38.0686130" lon="-2.5638160">
        <ele>1412.2</ele>
        <time>2020-07-14T09:47:00Z</time>
      </trkpt>
      <trkpt lat="38.0685140" lon="-2.5637920">
        <ele>1411.8</ele>
        <time>2020-07-14T09:47:01Z</time>
      </trkpt>
      <trkpt lat="38.0683040" lon="-2.5637440">
        <ele>1410.8</ele>
        <time>2020-07-14T09:47:03Z</time>
      </trkpt>
      <trkpt lat="38.0680980" lon="-2.5636700">
        <ele>1409.4</ele>
        <time>2020-07-14T09:47:05Z</time>
      </trkpt>
      <trkpt lat="38.0679990" lon="-2.5636180">
        <ele>1408.4</ele>
        <time>2020-07-14T09:47:06Z</time>
      </trkpt>
      <trkpt lat="38.0678950" lon="-2.5635590">
        <ele>1407.6</ele>
        <time>2020-07-14T09:47:07Z</time>
      </trkpt>
      <trkpt lat="38.0677050" lon="-2.5634480">
        <ele>1406.2</ele>
        <time>2020-07-14T09:47:09Z</time>
      </trkpt>
      <trkpt lat="38.0675040" lon="-2.5633270">
        <ele>1404.8</ele>
        <time>2020-07-14T09:47:11Z</time>
      </trkpt>
      <trkpt lat="38.0674050" lon="-2.5632700">
        <ele>1403.8</ele>
        <time>2020-07-14T09:47:12Z</time>
      </trkpt>
      <trkpt lat="38.0673110" lon="-2.5632100">
        <ele>1402.6</ele>
        <time>2020-07-14T09:47:13Z</time>
      </trkpt>
      <trkpt lat="38.0671310" lon="-2.5630950">
        <ele>1400.6</ele>
        <time>2020-07-14T09:47:15Z</time>
      </trkpt>
      <trkpt lat="38.0669300" lon="-2.5629950">
        <ele>1398.8</ele>
        <time>2020-07-14T09:47:17Z</time>
      </trkpt>
      <trkpt lat="38.0668250" lon="-2.5629660">
        <ele>1398.2</ele>
        <time>2020-07-14T09:47:18Z</time>
      </trkpt>
      <trkpt lat="38.0667220" lon="-2.5629470">
        <ele>1397.4</ele>
        <time>2020-07-14T09:47:19Z</time>
      </trkpt>
      <trkpt lat="38.0664910" lon="-2.5629130">
        <ele>1396.0</ele>
        <time>2020-07-14T09:47:21Z</time>
      </trkpt>
      <trkpt lat="38.0663800" lon="-2.5628860">
        <ele>1395.0</ele>
        <time>2020-07-14T09:47:22Z</time>
      </trkpt>
      <trkpt lat="38.0662610" lon="-2.5628470">
        <ele>1393.8</ele>
        <time>2020-07-14T09:47:23Z</time>
      </trkpt>
      <trkpt lat="38.0660330" lon="-2.5627600">
        <ele>1392.4</ele>
        <time>2020-07-14T09:47:25Z</time>
      </trkpt>
      <trkpt lat="38.0658130" lon="-2.5626810">
        <ele>1390.8</ele>
        <time>2020-07-14T09:47:27Z</time>
      </trkpt>
      <trkpt lat="38.0656080" lon="-2.5625910">
        <ele>1389.2</ele>
        <time>2020-07-14T09:47:29Z</time>
      </trkpt>
      <trkpt lat="38.0654020" lon="-2.5624990">
        <ele>1387.0</ele>
        <time>2020-07-14T09:47:31Z</time>
      </trkpt>
      <trkpt lat="38.0653140" lon="-2.5624370">
        <ele>1386.0</ele>
        <time>2020-07-14T09:47:32Z</time>
      </trkpt>
      <trkpt lat="38.0652420" lon="-2.5623530">
        <ele>1385.4</ele>
        <time>2020-07-14T09:47:33Z</time>
      </trkpt>
      <trkpt lat="38.0651960" lon="-2.5622550">
        <ele>1384.4</ele>
        <time>2020-07-14T09:47:34Z</time>
      </trkpt>
      <trkpt lat="38.0651690" lon="-2.5621220">
        <ele>1383.6</ele>
        <time>2020-07-14T09:47:35Z</time>
      </trkpt>
      <trkpt lat="38.0651730" lon="-2.5620040">
        <ele>1382.8</ele>
        <time>2020-07-14T09:47:36Z</time>
      </trkpt>
      <trkpt lat="38.0652040" lon="-2.5618830">
        <ele>1382.2</ele>
        <time>2020-07-14T09:47:37Z</time>
      </trkpt>
      <trkpt lat="38.0652590" lon="-2.5617850">
        <ele>1381.6</ele>
        <time>2020-07-14T09:47:38Z</time>
      </trkpt>
      <trkpt lat="38.0654080" lon="-2.5616570">
        <ele>1381.0</ele>
        <time>2020-07-14T09:47:40Z</time>
      </trkpt>
      <trkpt lat="38.0654950" lon="-2.5616260">
        <ele>1380.8</ele>
        <time>2020-07-14T09:47:41Z</time>
      </trkpt>
      <trkpt lat="38.0656660" lon="-2.5616170">
        <ele>1379.8</ele>
        <time>2020-07-14T09:47:43Z</time>
      </trkpt>
      <trkpt lat="38.0657490" lon="-2.5616230">
        <ele>1379.8</ele>
        <time>2020-07-14T09:47:44Z</time>
      </trkpt>
      <trkpt lat="38.0659330" lon="-2.5616390">
        <ele>1379.4</ele>
        <time>2020-07-14T09:47:46Z</time>
      </trkpt>
      <trkpt lat="38.0662800" lon="-2.5616790">
        <ele>1379.2</ele>
        <time>2020-07-14T09:47:50Z</time>
      </trkpt>
      <trkpt lat="38.0664430" lon="-2.5616940">
        <ele>1378.6</ele>
        <time>2020-07-14T09:47:52Z</time>
      </trkpt>
      <trkpt lat="38.0667540" lon="-2.5617300">
        <ele>1377.8</ele>
        <time>2020-07-14T09:47:56Z</time>
      </trkpt>
      <trkpt lat="38.0668890" lon="-2.5617490">
        <ele>1377.6</ele>
        <time>2020-07-14T09:47:58Z</time>
      </trkpt>
      <trkpt lat="38.0670720" lon="-2.5617730">
        <ele>1378.4</ele>
        <time>2020-07-14T09:48:01Z</time>
      </trkpt>
      <trkpt lat="38.0671770" lon="-2.5617880">
        <ele>1379.0</ele>
        <time>2020-07-14T09:48:03Z</time>
      </trkpt>
      <trkpt lat="38.0672230" lon="-2.5617940">
        <ele>1379.2</ele>
        <time>2020-07-14T09:48:04Z</time>
      </trkpt>
      <trkpt lat="38.0673660" lon="-2.5618050">
        <ele>1380.2</ele>
        <time>2020-07-14T09:48:07Z</time>
      </trkpt>
      <trkpt lat="38.0674810" lon="-2.5618170">
        <ele>1380.8</ele>
        <time>2020-07-14T09:48:10Z</time>
      </trkpt>
      <trkpt lat="38.0675500" lon="-2.5618250">
        <ele>1381.4</ele>
        <time>2020-07-14T09:48:12Z</time>
      </trkpt>
      <trkpt lat="38.0676560" lon="-2.5618420">
        <ele>1382.0</ele>
        <time>2020-07-14T09:48:15Z</time>
      </trkpt>
      <trkpt lat="38.0677190" lon="-2.5618580">
        <ele>1382.2</ele>
        <time>2020-07-14T09:48:17Z</time>
      </trkpt>
      <trkpt lat="38.0677480" lon="-2.5618640">
        <ele>1382.6</ele>
        <time>2020-07-14T09:48:18Z</time>
      </trkpt>
      <trkpt lat="38.0678090" lon="-2.5618740">
        <ele>1383.2</ele>
        <time>2020-07-14T09:48:20Z</time>
      </trkpt>
      <trkpt lat="38.0678630" lon="-2.5618840">
        <ele>1384.0</ele>
        <time>2020-07-14T09:48:22Z</time>
      </trkpt>
      <trkpt lat="38.0679480" lon="-2.5619100">
        <ele>1384.4</ele>
        <time>2020-07-14T09:48:25Z</time>
      </trkpt>
      <trkpt lat="38.0679760" lon="-2.5619130">
        <ele>1384.8</ele>
        <time>2020-07-14T09:48:26Z</time>
      </trkpt>
      <trkpt lat="38.0680300" lon="-2.5619250">
        <ele>1385.2</ele>
        <time>2020-07-14T09:48:28Z</time>
      </trkpt>
      <trkpt lat="38.0681420" lon="-2.5619400">
        <ele>1386.2</ele>
        <time>2020-07-14T09:48:32Z</time>
      </trkpt>
      <trkpt lat="38.0681680" lon="-2.5619450">
        <ele>1386.4</ele>
        <time>2020-07-14T09:48:33Z</time>
      </trkpt>
      <trkpt lat="38.0682930" lon="-2.5619720">
        <ele>1387.6</ele>
        <time>2020-07-14T09:48:38Z</time>
      </trkpt>
      <trkpt lat="38.0683420" lon="-2.5619830">
        <ele>1388.0</ele>
        <time>2020-07-14T09:48:40Z</time>
      </trkpt>
      <trkpt lat="38.0684090" lon="-2.5619900">
        <ele>1388.6</ele>
        <time>2020-07-14T09:48:43Z</time>
      </trkpt>
      <trkpt lat="38.0684510" lon="-2.5620020">
        <ele>1389.2</ele>
        <time>2020-07-14T09:48:45Z</time>
      </trkpt>
      <trkpt lat="38.0685200" lon="-2.5620140">
        <ele>1389.6</ele>
        <time>2020-07-14T09:48:48Z</time>
      </trkpt>
      <trkpt lat="38.0686160" lon="-2.5620060">
        <ele>1390.8</ele>
        <time>2020-07-14T09:48:52Z</time>
      </trkpt>
      <trkpt lat="38.0687210" lon="-2.5619550">
        <ele>1392.0</ele>
        <time>2020-07-14T09:48:57Z</time>
      </trkpt>
      <trkpt lat="38.0687610" lon="-2.5619350">
        <ele>1392.2</ele>
        <time>2020-07-14T09:48:59Z</time>
      </trkpt>
      <trkpt lat="38.0688360" lon="-2.5618770">
        <ele>1393.0</ele>
        <time>2020-07-14T09:49:03Z</time>
      </trkpt>
      <trkpt lat="38.0688870" lon="-2.5618400">
        <ele>1393.4</ele>
        <time>2020-07-14T09:49:06Z</time>
      </trkpt>
      <trkpt lat="38.0690020" lon="-2.5617490">
        <ele>1394.2</ele>
        <time>2020-07-14T09:49:12Z</time>
      </trkpt>
      <trkpt lat="38.0690580" lon="-2.5617010">
        <ele>1394.8</ele>
        <time>2020-07-14T09:49:15Z</time>
      </trkpt>
      <trkpt lat="38.0691030" lon="-2.5616810">
        <ele>1395.2</ele>
        <time>2020-07-14T09:49:17Z</time>
      </trkpt>
      <trkpt lat="38.0691830" lon="-2.5616760">
        <ele>1395.8</ele>
        <time>2020-07-14T09:49:20Z</time>
      </trkpt>
      <trkpt lat="38.0693370" lon="-2.5617590">
        <ele>1396.2</ele>
        <time>2020-07-14T09:49:26Z</time>
      </trkpt>
      <trkpt lat="38.0693590" lon="-2.5617790">
        <ele>1396.4</ele>
        <time>2020-07-14T09:49:27Z</time>
      </trkpt>
      <trkpt lat="38.0695030" lon="-2.5619340">
        <ele>1397.4</ele>
        <time>2020-07-14T09:49:34Z</time>
      </trkpt>
      <trkpt lat="38.0696940" lon="-2.5621330">
        <ele>1398.6</ele>
        <time>2020-07-14T09:49:43Z</time>
      </trkpt>
      <trkpt lat="38.0698460" lon="-2.5621830">
        <ele>1399.6</ele>
        <time>2020-07-14T09:49:49Z</time>
      </trkpt>
      <trkpt lat="38.0698740" lon="-2.5621840">
        <ele>1399.8</ele>
        <time>2020-07-14T09:49:50Z</time>
      </trkpt>
      <trkpt lat="38.0700330" lon="-2.5621390">
        <ele>1400.6</ele>
        <time>2020-07-14T09:49:56Z</time>
      </trkpt>
      <trkpt lat="38.0700580" lon="-2.5621280">
        <ele>1400.8</ele>
        <time>2020-07-14T09:49:57Z</time>
      </trkpt>
      <trkpt lat="38.0701600" lon="-2.5620870">
        <ele>1401.6</ele>
        <time>2020-07-14T09:50:01Z</time>
      </trkpt>
      <trkpt lat="38.0702820" lon="-2.5620320">
        <ele>1402.4</ele>
        <time>2020-07-14T09:50:06Z</time>
      </trkpt>
      <trkpt lat="38.0703330" lon="-2.5620130">
        <ele>1402.8</ele>
        <time>2020-07-14T09:50:08Z</time>
      </trkpt>
      <trkpt lat="38.0704540" lon="-2.5619620">
        <ele>1403.8</ele>
        <time>2020-07-14T09:50:13Z</time>
      </trkpt>
      <trkpt lat="38.0705020" lon="-2.5619430">
        <ele>1404.0</ele>
        <time>2020-07-14T09:50:15Z</time>
      </trkpt>
      <trkpt lat="38.0706490" lon="-2.5618810">
        <ele>1405.0</ele>
        <time>2020-07-14T09:50:21Z</time>
      </trkpt>
      <trkpt lat="38.0708050" lon="-2.5618390">
        <ele>1406.0</ele>
        <time>2020-07-14T09:50:27Z</time>
      </trkpt>
      <trkpt lat="38.0708300" lon="-2.5618370">
        <ele>1406.2</ele>
        <time>2020-07-14T09:50:28Z</time>
      </trkpt>
      <trkpt lat="38.0709620" lon="-2.5618240">
        <ele>1407.2</ele>
        <time>2020-07-14T09:50:33Z</time>
      </trkpt>
      <trkpt lat="38.0710150" lon="-2.5618230">
        <ele>1407.4</ele>
        <time>2020-07-14T09:50:35Z</time>
      </trkpt>
      <trkpt lat="38.0711410" lon="-2.5618330">
        <ele>1408.2</ele>
        <time>2020-07-14T09:50:40Z</time>
      </trkpt>
      <trkpt lat="38.0712450" lon="-2.5618410">
        <ele>1409.0</ele>
        <time>2020-07-14T09:50:44Z</time>
      </trkpt>
      <trkpt lat="38.0712990" lon="-2.5618300">
        <ele>1409.4</ele>
        <time>2020-07-14T09:50:46Z</time>
      </trkpt>
      <trkpt lat="38.0714020" lon="-2.5617820">
        <ele>1410.2</ele>
        <time>2020-07-14T09:50:50Z</time>
      </trkpt>
      <trkpt lat="38.0714460" lon="-2.5617420">
        <ele>1410.4</ele>
        <time>2020-07-14T09:50:52Z</time>
      </trkpt>
      <trkpt lat="38.0715350" lon="-2.5616110">
        <ele>1411.4</ele>
        <time>2020-07-14T09:50:57Z</time>
      </trkpt>
      <trkpt lat="38.0715480" lon="-2.5615840">
        <ele>1411.6</ele>
        <time>2020-07-14T09:50:58Z</time>
      </trkpt>
      <trkpt lat="38.0716670" lon="-2.5613250">
        <ele>1412.6</ele>
        <time>2020-07-14T09:51:07Z</time>
      </trkpt>
      <trkpt lat="38.0717530" lon="-2.5611410">
        <ele>1413.6</ele>
        <time>2020-07-14T09:51:13Z</time>
      </trkpt>
      <trkpt lat="38.0718290" lon="-2.5610280">
        <ele>1414.4</ele>
        <time>2020-07-14T09:51:17Z</time>
      </trkpt>
      <trkpt lat="38.0719220" lon="-2.5609360">
        <ele>1414.8</ele>
        <time>2020-07-14T09:51:21Z</time>
      </trkpt>
      <trkpt lat="38.0720210" lon="-2.5608460">
        <ele>1415.2</ele>
        <time>2020-07-14T09:51:25Z</time>
      </trkpt>
      <trkpt lat="38.0721500" lon="-2.5607460">
        <ele>1415.8</ele>
        <time>2020-07-14T09:51:30Z</time>
      </trkpt>
      <trkpt lat="38.0722120" lon="-2.5607080">
        <ele>1416.0</ele>
        <time>2020-07-14T09:51:32Z</time>
      </trkpt>
      <trkpt lat="38.0724190" lon="-2.5605500">
        <ele>1415.8</ele>
        <time>2020-07-14T09:51:38Z</time>
      </trkpt>
      <trkpt lat="38.0724520" lon="-2.5605180">
        <ele>1415.6</ele>
        <time>2020-07-14T09:51:39Z</time>
      </trkpt>
      <trkpt lat="38.0725650" lon="-2.5603930">
        <ele>1415.8</ele>
        <time>2020-07-14T09:51:42Z</time>
      </trkpt>
      <trkpt lat="38.0726360" lon="-2.5602970">
        <ele>1415.8</ele>
        <time>2020-07-14T09:51:44Z</time>
      </trkpt>
      <trkpt lat="38.0726670" lon="-2.5602320">
        <ele>1415.6</ele>
        <time>2020-07-14T09:51:45Z</time>
      </trkpt>
      <trkpt lat="38.0727200" lon="-2.5600090">
        <ele>1415.2</ele>
        <time>2020-07-14T09:51:48Z</time>
      </trkpt>
      <trkpt lat="38.0727220" lon="-2.5599240">
        <ele>1415.0</ele>
        <time>2020-07-14T09:51:49Z</time>
      </trkpt>
      <trkpt lat="38.0727070" lon="-2.5597390">
        <ele>1414.8</ele>
        <time>2020-07-14T09:51:51Z</time>
      </trkpt>
      <trkpt lat="38.0726880" lon="-2.5596450">
        <ele>1414.6</ele>
        <time>2020-07-14T09:51:52Z</time>
      </trkpt>
      <trkpt lat="38.0726640" lon="-2.5595400">
        <ele>1414.4</ele>
        <time>2020-07-14T09:51:53Z</time>
      </trkpt>
      <trkpt lat="38.0726160" lon="-2.5593280">
        <ele>1413.6</ele>
        <time>2020-07-14T09:51:55Z</time>
      </trkpt>
      <trkpt lat="38.0725390" lon="-2.5589810">
        <ele>1412.2</ele>
        <time>2020-07-14T09:51:58Z</time>
      </trkpt>
      <trkpt lat="38.0724820" lon="-2.5587380">
        <ele>1411.0</ele>
        <time>2020-07-14T09:52:00Z</time>
      </trkpt>
      <trkpt lat="38.0724310" lon="-2.5585240">
        <ele>1409.8</ele>
        <time>2020-07-14T09:52:02Z</time>
      </trkpt>
      <trkpt lat="38.0724090" lon="-2.5584300">
        <ele>1409.4</ele>
        <time>2020-07-14T09:52:03Z</time>
      </trkpt>
      <trkpt lat="38.0723730" lon="-2.5582630">
        <ele>1408.6</ele>
        <time>2020-07-14T09:52:05Z</time>
      </trkpt>
      <trkpt lat="38.0723530" lon="-2.5581620">
        <ele>1407.6</ele>
        <time>2020-07-14T09:52:07Z</time>
      </trkpt>
      <trkpt lat="38.0723460" lon="-2.5581240">
        <ele>1407.4</ele>
        <time>2020-07-14T09:52:08Z</time>
      </trkpt>
      <trkpt lat="38.0723470" lon="-2.5581310">
        <ele>1407.2</ele>
        <time>2020-07-14T09:52:09Z</time>
      </trkpt>
      <trkpt lat="38.0723710" lon="-2.5580880">
        <ele>1406.0</ele>
        <time>2020-07-14T09:52:26Z</time>
      </trkpt>
      <trkpt lat="38.0723830" lon="-2.5580780">
        <ele>1406.0</ele>
        <time>2020-07-14T09:52:27Z</time>
      </trkpt>
      <trkpt lat="38.0724200" lon="-2.5580710">
        <ele>1406.0</ele>
        <time>2020-07-14T09:52:28Z</time>
      </trkpt>
      <trkpt lat="38.0724990" lon="-2.5580990">
        <ele>1405.6</ele>
        <time>2020-07-14T09:52:30Z</time>
      </trkpt>
      <trkpt lat="38.0725840" lon="-2.5581630">
        <ele>1405.2</ele>
        <time>2020-07-14T09:52:32Z</time>
      </trkpt>
      <trkpt lat="38.0726750" lon="-2.5582420">
        <ele>1404.8</ele>
        <time>2020-07-14T09:52:34Z</time>
      </trkpt>
      <trkpt lat="38.0727310" lon="-2.5582950">
        <ele>1404.8</ele>
        <time>2020-07-14T09:52:35Z</time>
      </trkpt>
      <trkpt lat="38.0728930" lon="-2.5584720">
        <ele>1403.8</ele>
        <time>2020-07-14T09:52:38Z</time>
      </trkpt>
      <trkpt lat="38.0729960" lon="-2.5586220">
        <ele>1403.4</ele>
        <time>2020-07-14T09:52:40Z</time>
      </trkpt>
      <trkpt lat="38.0731030" lon="-2.5587930">
        <ele>1402.6</ele>
        <time>2020-07-14T09:52:42Z</time>
      </trkpt>
      <trkpt lat="38.0732340" lon="-2.5590810">
        <ele>1401.4</ele>
        <time>2020-07-14T09:52:45Z</time>
      </trkpt>
      <trkpt lat="38.0732780" lon="-2.5591640">
        <ele>1401.2</ele>
        <time>2020-07-14T09:52:46Z</time>
      </trkpt>
      <trkpt lat="38.0734000" lon="-2.5592740">
        <ele>1400.4</ele>
        <time>2020-07-14T09:52:48Z</time>
      </trkpt>
      <trkpt lat="38.0734680" lon="-2.5592770">
        <ele>1400.0</ele>
        <time>2020-07-14T09:52:49Z</time>
      </trkpt>
      <trkpt lat="38.0735350" lon="-2.5592390">
        <ele>1399.2</ele>
        <time>2020-07-14T09:52:50Z</time>
      </trkpt>
      <trkpt lat="38.0735760" lon="-2.5591680">
        <ele>1398.4</ele>
        <time>2020-07-14T09:52:51Z</time>
      </trkpt>
      <trkpt lat="38.0735920" lon="-2.5590790">
        <ele>1397.6</ele>
        <time>2020-07-14T09:52:52Z</time>
      </trkpt>
      <trkpt lat="38.0735930" lon="-2.5589780">
        <ele>1396.8</ele>
        <time>2020-07-14T09:52:53Z</time>
      </trkpt>
      <trkpt lat="38.0735520" lon="-2.5587760">
        <ele>1395.4</ele>
        <time>2020-07-14T09:52:55Z</time>
      </trkpt>
      <trkpt lat="38.0735170" lon="-2.5586780">
        <ele>1395.0</ele>
        <time>2020-07-14T09:52:56Z</time>
      </trkpt>
      <trkpt lat="38.0734830" lon="-2.5585690">
        <ele>1394.4</ele>
        <time>2020-07-14T09:52:57Z</time>
      </trkpt>
      <trkpt lat="38.0734540" lon="-2.5583290">
        <ele>1393.2</ele>
        <time>2020-07-14T09:52:59Z</time>
      </trkpt>
      <trkpt lat="38.0735300" lon="-2.5579560">
        <ele>1392.0</ele>
        <time>2020-07-14T09:53:02Z</time>
      </trkpt>
      <trkpt lat="38.0736950" lon="-2.5578020">
        <ele>1391.0</ele>
        <time>2020-07-14T09:53:04Z</time>
      </trkpt>
      <trkpt lat="38.0738150" lon="-2.5577630">
        <ele>1390.6</ele>
        <time>2020-07-14T09:53:05Z</time>
      </trkpt>
      <trkpt lat="38.0739220" lon="-2.5577560">
        <ele>1390.0</ele>
        <time>2020-07-14T09:53:06Z</time>
      </trkpt>
      <trkpt lat="38.0741190" lon="-2.5578120">
        <ele>1389.2</ele>
        <time>2020-07-14T09:53:08Z</time>
      </trkpt>
      <trkpt lat="38.0741930" lon="-2.5578810">
        <ele>1388.6</ele>
        <time>2020-07-14T09:53:09Z</time>
      </trkpt>
      <trkpt lat="38.0742630" lon="-2.5579780">
        <ele>1388.0</ele>
        <time>2020-07-14T09:53:10Z</time>
      </trkpt>
      <trkpt lat="38.0743270" lon="-2.5580830">
        <ele>1387.4</ele>
        <time>2020-07-14T09:53:11Z</time>
      </trkpt>
      <trkpt lat="38.0743980" lon="-2.5581790">
        <ele>1386.0</ele>
        <time>2020-07-14T09:53:12Z</time>
      </trkpt>
      <trkpt lat="38.0745650" lon="-2.5582860">
        <ele>1384.2</ele>
        <time>2020-07-14T09:53:14Z</time>
      </trkpt>
      <trkpt lat="38.0747700" lon="-2.5583360">
        <ele>1382.6</ele>
        <time>2020-07-14T09:53:16Z</time>
      </trkpt>
      <trkpt lat="38.0748850" lon="-2.5583510">
        <ele>1382.0</ele>
        <time>2020-07-14T09:53:17Z</time>
      </trkpt>
      <trkpt lat="38.0749950" lon="-2.5583590">
        <ele>1381.4</ele>
        <time>2020-07-14T09:53:18Z</time>
      </trkpt>
      <trkpt lat="38.0752160" lon="-2.5583360">
        <ele>1380.4</ele>
        <time>2020-07-14T09:53:20Z</time>
      </trkpt>
      <trkpt lat="38.0753250" lon="-2.5582940">
        <ele>1379.8</ele>
        <time>2020-07-14T09:53:21Z</time>
      </trkpt>
      <trkpt lat="38.0755480" lon="-2.5581840">
        <ele>1378.6</ele>
        <time>2020-07-14T09:53:23Z</time>
      </trkpt>
      <trkpt lat="38.0757550" lon="-2.5580650">
        <ele>1377.6</ele>
        <time>2020-07-14T09:53:25Z</time>
      </trkpt>
      <trkpt lat="38.0758400" lon="-2.5579960">
        <ele>1377.0</ele>
        <time>2020-07-14T09:53:26Z</time>
      </trkpt>
      <trkpt lat="38.0759870" lon="-2.5578070">
        <ele>1376.0</ele>
        <time>2020-07-14T09:53:28Z</time>
      </trkpt>
      <trkpt lat="38.0760380" lon="-2.5576900">
        <ele>1375.6</ele>
        <time>2020-07-14T09:53:29Z</time>
      </trkpt>
      <trkpt lat="38.0760760" lon="-2.5574240">
        <ele>1374.6</ele>
        <time>2020-07-14T09:53:31Z</time>
      </trkpt>
      <trkpt lat="38.0760130" lon="-2.5571640">
        <ele>1373.4</ele>
        <time>2020-07-14T09:53:33Z</time>
      </trkpt>
      <trkpt lat="38.0759680" lon="-2.5570480">
        <ele>1372.2</ele>
        <time>2020-07-14T09:53:34Z</time>
      </trkpt>
      <trkpt lat="38.0759410" lon="-2.5569170">
        <ele>1371.8</ele>
        <time>2020-07-14T09:53:35Z</time>
      </trkpt>
      <trkpt lat="38.0759600" lon="-2.5567950">
        <ele>1370.6</ele>
        <time>2020-07-14T09:53:36Z</time>
      </trkpt>
      <trkpt lat="38.0760930" lon="-2.5566650">
        <ele>1369.0</ele>
        <time>2020-07-14T09:53:38Z</time>
      </trkpt>
      <trkpt lat="38.0762670" lon="-2.5566920">
        <ele>1367.6</ele>
        <time>2020-07-14T09:53:40Z</time>
      </trkpt>
      <trkpt lat="38.0764420" lon="-2.5567850">
        <ele>1366.4</ele>
        <time>2020-07-14T09:53:42Z</time>
      </trkpt>
      <trkpt lat="38.0765250" lon="-2.5568170">
        <ele>1366.2</ele>
        <time>2020-07-14T09:53:43Z</time>
      </trkpt>
      <trkpt lat="38.0766330" lon="-2.5568400">
        <ele>1365.8</ele>
        <time>2020-07-14T09:53:44Z</time>
      </trkpt>
      <trkpt lat="38.0767390" lon="-2.5568380">
        <ele>1365.4</ele>
        <time>2020-07-14T09:53:45Z</time>
      </trkpt>
      <trkpt lat="38.0769310" lon="-2.5567690">
        <ele>1364.4</ele>
        <time>2020-07-14T09:53:47Z</time>
      </trkpt>
      <trkpt lat="38.0770090" lon="-2.5567000">
        <ele>1363.6</ele>
        <time>2020-07-14T09:53:48Z</time>
      </trkpt>
      <trkpt lat="38.0770580" lon="-2.5566220">
        <ele>1363.4</ele>
        <time>2020-07-14T09:53:49Z</time>
      </trkpt>
      <trkpt lat="38.0771110" lon="-2.5565220">
        <ele>1362.8</ele>
        <time>2020-07-14T09:53:50Z</time>
      </trkpt>
      <trkpt lat="38.0771730" lon="-2.5564550">
        <ele>1362.4</ele>
        <time>2020-07-14T09:53:51Z</time>
      </trkpt>
      <trkpt lat="38.0772490" lon="-2.5564310">
        <ele>1361.8</ele>
        <time>2020-07-14T09:53:52Z</time>
      </trkpt>
      <trkpt lat="38.0773310" lon="-2.5564590">
        <ele>1361.2</ele>
        <time>2020-07-14T09:53:53Z</time>
      </trkpt>
      <trkpt lat="38.0773870" lon="-2.5565260">
        <ele>1360.6</ele>
        <time>2020-07-14T09:53:54Z</time>
      </trkpt>
      <trkpt lat="38.0774260" lon="-2.5566340">
        <ele>1360.0</ele>
        <time>2020-07-14T09:53:55Z</time>
      </trkpt>
      <trkpt lat="38.0774440" lon="-2.5567470">
        <ele>1358.8</ele>
        <time>2020-07-14T09:53:56Z</time>
      </trkpt>
      <trkpt lat="38.0774710" lon="-2.5569370">
        <ele>1357.0</ele>
        <time>2020-07-14T09:53:58Z</time>
      </trkpt>
      <trkpt lat="38.0775140" lon="-2.5570050">
        <ele>1356.0</ele>
        <time>2020-07-14T09:53:59Z</time>
      </trkpt>
      <trkpt lat="38.0775820" lon="-2.5570430">
        <ele>1355.2</ele>
        <time>2020-07-14T09:54:00Z</time>
      </trkpt>
      <trkpt lat="38.0776560" lon="-2.5570370">
        <ele>1354.2</ele>
        <time>2020-07-14T09:54:01Z</time>
      </trkpt>
      <trkpt lat="38.0777600" lon="-2.5569140">
        <ele>1352.4</ele>
        <time>2020-07-14T09:54:03Z</time>
      </trkpt>
      <trkpt lat="38.0777680" lon="-2.5567270">
        <ele>1350.8</ele>
        <time>2020-07-14T09:54:05Z</time>
      </trkpt>
      <trkpt lat="38.0776590" lon="-2.5564740">
        <ele>1349.4</ele>
        <time>2020-07-14T09:54:08Z</time>
      </trkpt>
      <trkpt lat="38.0776160" lon="-2.5563990">
        <ele>1349.4</ele>
        <time>2020-07-14T09:54:09Z</time>
      </trkpt>
      <trkpt lat="38.0775300" lon="-2.5562210">
        <ele>1349.0</ele>
        <time>2020-07-14T09:54:11Z</time>
      </trkpt>
      <trkpt lat="38.0775190" lon="-2.5560250">
        <ele>1349.0</ele>
        <time>2020-07-14T09:54:13Z</time>
      </trkpt>
      <trkpt lat="38.0776350" lon="-2.5558920">
        <ele>1348.8</ele>
        <time>2020-07-14T09:54:15Z</time>
      </trkpt>
      <trkpt lat="38.0777950" lon="-2.5559460">
        <ele>1348.2</ele>
        <time>2020-07-14T09:54:17Z</time>
      </trkpt>
      <trkpt lat="38.0778690" lon="-2.5561350">
        <ele>1347.0</ele>
        <time>2020-07-14T09:54:19Z</time>
      </trkpt>
      <trkpt lat="38.0779610" lon="-2.5563030">
        <ele>1345.8</ele>
        <time>2020-07-14T09:54:21Z</time>
      </trkpt>
      <trkpt lat="38.0781270" lon="-2.5563220">
        <ele>1344.4</ele>
        <time>2020-07-14T09:54:23Z</time>
      </trkpt>
      <trkpt lat="38.0782980" lon="-2.5562480">
        <ele>1343.2</ele>
        <time>2020-07-14T09:54:25Z</time>
      </trkpt>
      <trkpt lat="38.0784750" lon="-2.5561940">
        <ele>1342.2</ele>
        <time>2020-07-14T09:54:27Z</time>
      </trkpt>
      <trkpt lat="38.0785670" lon="-2.5562050">
        <ele>1341.8</ele>
        <time>2020-07-14T09:54:28Z</time>
      </trkpt>
      <trkpt lat="38.0786470" lon="-2.5562470">
        <ele>1341.6</ele>
        <time>2020-07-14T09:54:29Z</time>
      </trkpt>
      <trkpt lat="38.0787710" lon="-2.5564210">
        <ele>1341.0</ele>
        <time>2020-07-14T09:54:31Z</time>
      </trkpt>
      <trkpt lat="38.0788030" lon="-2.5565310">
        <ele>1340.4</ele>
        <time>2020-07-14T09:54:32Z</time>
      </trkpt>
      <trkpt lat="38.0788420" lon="-2.5567570">
        <ele>1339.8</ele>
        <time>2020-07-14T09:54:34Z</time>
      </trkpt>
      <trkpt lat="38.0788590" lon="-2.5568860">
        <ele>1339.4</ele>
        <time>2020-07-14T09:54:35Z</time>
      </trkpt>
      <trkpt lat="38.0789220" lon="-2.5572680">
        <ele>1338.0</ele>
        <time>2020-07-14T09:54:38Z</time>
      </trkpt>
      <trkpt lat="38.0789730" lon="-2.5575330">
        <ele>1336.8</ele>
        <time>2020-07-14T09:54:40Z</time>
      </trkpt>
      <trkpt lat="38.0789980" lon="-2.5576730">
        <ele>1335.8</ele>
        <time>2020-07-14T09:54:41Z</time>
      </trkpt>
      <trkpt lat="38.0790380" lon="-2.5579420">
        <ele>1334.0</ele>
        <time>2020-07-14T09:54:43Z</time>
      </trkpt>
      <trkpt lat="38.0790530" lon="-2.5581840">
        <ele>1332.2</ele>
        <time>2020-07-14T09:54:45Z</time>
      </trkpt>
      <trkpt lat="38.0790650" lon="-2.5582880">
        <ele>1331.4</ele>
        <time>2020-07-14T09:54:46Z</time>
      </trkpt>
      <trkpt lat="38.0790960" lon="-2.5583710">
        <ele>1330.8</ele>
        <time>2020-07-14T09:54:47Z</time>
      </trkpt>
      <trkpt lat="38.0791460" lon="-2.5584210">
        <ele>1329.8</ele>
        <time>2020-07-14T09:54:48Z</time>
      </trkpt>
      <trkpt lat="38.0792040" lon="-2.5584350">
        <ele>1329.4</ele>
        <time>2020-07-14T09:54:49Z</time>
      </trkpt>
      <trkpt lat="38.0792730" lon="-2.5584060">
        <ele>1328.6</ele>
        <time>2020-07-14T09:54:50Z</time>
      </trkpt>
      <trkpt lat="38.0793250" lon="-2.5583380">
        <ele>1328.0</ele>
        <time>2020-07-14T09:54:51Z</time>
      </trkpt>
      <trkpt lat="38.0793540" lon="-2.5582420">
        <ele>1327.0</ele>
        <time>2020-07-14T09:54:52Z</time>
      </trkpt>
      <trkpt lat="38.0793600" lon="-2.5581330">
        <ele>1326.2</ele>
        <time>2020-07-14T09:54:53Z</time>
      </trkpt>
      <trkpt lat="38.0793380" lon="-2.5579120">
        <ele>1325.0</ele>
        <time>2020-07-14T09:54:55Z</time>
      </trkpt>
      <trkpt lat="38.0793050" lon="-2.5575860">
        <ele>1323.4</ele>
        <time>2020-07-14T09:54:58Z</time>
      </trkpt>
      <trkpt lat="38.0792880" lon="-2.5572700">
        <ele>1322.6</ele>
        <time>2020-07-14T09:55:01Z</time>
      </trkpt>
      <trkpt lat="38.0792790" lon="-2.5571670">
        <ele>1322.4</ele>
        <time>2020-07-14T09:55:02Z</time>
      </trkpt>
      <trkpt lat="38.0792620" lon="-2.5570680">
        <ele>1322.2</ele>
        <time>2020-07-14T09:55:03Z</time>
      </trkpt>
      <trkpt lat="38.0791870" lon="-2.5567790">
        <ele>1322.0</ele>
        <time>2020-07-14T09:55:06Z</time>
      </trkpt>
      <trkpt lat="38.0791110" lon="-2.5565080">
        <ele>1322.2</ele>
        <time>2020-07-14T09:55:09Z</time>
      </trkpt>
      <trkpt lat="38.0789510" lon="-2.5560200">
        <ele>1321.8</ele>
        <time>2020-07-14T09:55:14Z</time>
      </trkpt>
      <trkpt lat="38.0788650" lon="-2.5558050">
        <ele>1321.0</ele>
        <time>2020-07-14T09:55:16Z</time>
      </trkpt>
      <trkpt lat="38.0788150" lon="-2.5555670">
        <ele>1320.0</ele>
        <time>2020-07-14T09:55:18Z</time>
      </trkpt>
      <trkpt lat="38.0787990" lon="-2.5554600">
        <ele>1319.6</ele>
        <time>2020-07-14T09:55:19Z</time>
      </trkpt>
      <trkpt lat="38.0787750" lon="-2.5553450">
        <ele>1319.2</ele>
        <time>2020-07-14T09:55:20Z</time>
      </trkpt>
      <trkpt lat="38.0787360" lon="-2.5552620">
        <ele>1318.8</ele>
        <time>2020-07-14T09:55:21Z</time>
      </trkpt>
      <trkpt lat="38.0786730" lon="-2.5551940">
        <ele>1318.4</ele>
        <time>2020-07-14T09:55:22Z</time>
      </trkpt>
      <trkpt lat="38.0785940" lon="-2.5551350">
        <ele>1317.8</ele>
        <time>2020-07-14T09:55:23Z</time>
      </trkpt>
      <trkpt lat="38.0785200" lon="-2.5550800">
        <ele>1317.4</ele>
        <time>2020-07-14T09:55:24Z</time>
      </trkpt>
      <trkpt lat="38.0783610" lon="-2.5549320">
        <ele>1316.4</ele>
        <time>2020-07-14T09:55:26Z</time>
      </trkpt>
      <trkpt lat="38.0782920" lon="-2.5548630">
        <ele>1315.6</ele>
        <time>2020-07-14T09:55:27Z</time>
      </trkpt>
      <trkpt lat="38.0782040" lon="-2.5547920">
        <ele>1314.8</ele>
        <time>2020-07-14T09:55:28Z</time>
      </trkpt>
      <trkpt lat="38.0781170" lon="-2.5547420">
        <ele>1313.8</ele>
        <time>2020-07-14T09:55:29Z</time>
      </trkpt>
      <trkpt lat="38.0780140" lon="-2.5546930">
        <ele>1313.2</ele>
        <time>2020-07-14T09:55:30Z</time>
      </trkpt>
      <trkpt lat="38.0779130" lon="-2.5546530">
        <ele>1312.4</ele>
        <time>2020-07-14T09:55:31Z</time>
      </trkpt>
      <trkpt lat="38.0778050" lon="-2.5546350">
        <ele>1311.8</ele>
        <time>2020-07-14T09:55:32Z</time>
      </trkpt>
      <trkpt lat="38.0777030" lon="-2.5546310">
        <ele>1311.2</ele>
        <time>2020-07-14T09:55:33Z</time>
      </trkpt>
      <trkpt lat="38.0774840" lon="-2.5545720">
        <ele>1309.8</ele>
        <time>2020-07-14T09:55:35Z</time>
      </trkpt>
      <trkpt lat="38.0773910" lon="-2.5545240">
        <ele>1309.0</ele>
        <time>2020-07-14T09:55:36Z</time>
      </trkpt>
      <trkpt lat="38.0773110" lon="-2.5544720">
        <ele>1308.2</ele>
        <time>2020-07-14T09:55:37Z</time>
      </trkpt>
      <trkpt lat="38.0772290" lon="-2.5543220">
        <ele>1307.4</ele>
        <time>2020-07-14T09:55:39Z</time>
      </trkpt>
      <trkpt lat="38.0772360" lon="-2.5542180">
        <ele>1307.2</ele>
        <time>2020-07-14T09:55:40Z</time>
      </trkpt>
      <trkpt lat="38.0772780" lon="-2.5541410">
        <ele>1306.8</ele>
        <time>2020-07-14T09:55:41Z</time>
      </trkpt>
      <trkpt lat="38.0774610" lon="-2.5540010">
        <ele>1306.4</ele>
        <time>2020-07-14T09:55:44Z</time>
      </trkpt>
      <trkpt lat="38.0775260" lon="-2.5539410">
        <ele>1306.2</ele>
        <time>2020-07-14T09:55:45Z</time>
      </trkpt>
      <trkpt lat="38.0775750" lon="-2.5538710">
        <ele>1306.0</ele>
        <time>2020-07-14T09:55:46Z</time>
      </trkpt>
      <trkpt lat="38.0776280" lon="-2.5537840">
        <ele>1306.0</ele>
        <time>2020-07-14T09:55:47Z</time>
      </trkpt>
      <trkpt lat="38.0777360" lon="-2.5536340">
        <ele>1305.8</ele>
        <time>2020-07-14T09:55:49Z</time>
      </trkpt>
      <trkpt lat="38.0778730" lon="-2.5535130">
        <ele>1305.6</ele>
        <time>2020-07-14T09:55:51Z</time>
      </trkpt>
      <trkpt lat="38.0780270" lon="-2.5534170">
        <ele>1305.4</ele>
        <time>2020-07-14T09:55:53Z</time>
      </trkpt>
      <trkpt lat="38.0781850" lon="-2.5533220">
        <ele>1304.8</ele>
        <time>2020-07-14T09:55:55Z</time>
      </trkpt>
      <trkpt lat="38.0782640" lon="-2.5532580">
        <ele>1304.6</ele>
        <time>2020-07-14T09:55:56Z</time>
      </trkpt>
      <trkpt lat="38.0783290" lon="-2.5531840">
        <ele>1304.0</ele>
        <time>2020-07-14T09:55:57Z</time>
      </trkpt>
      <trkpt lat="38.0783930" lon="-2.5530900">
        <ele>1303.8</ele>
        <time>2020-07-14T09:55:58Z</time>
      </trkpt>
      <trkpt lat="38.0785020" lon="-2.5529000">
        <ele>1303.2</ele>
        <time>2020-07-14T09:56:01Z</time>
      </trkpt>
      <trkpt lat="38.0785870" lon="-2.5527590">
        <ele>1302.6</ele>
        <time>2020-07-14T09:56:02Z</time>
      </trkpt>
      <trkpt lat="38.0787580" lon="-2.5524760">
        <ele>1301.4</ele>
        <time>2020-07-14T09:56:04Z</time>
      </trkpt>
      <trkpt lat="38.0788470" lon="-2.5523860">
        <ele>1300.4</ele>
        <time>2020-07-14T09:56:05Z</time>
      </trkpt>
      <trkpt lat="38.0789270" lon="-2.5523370">
        <ele>1299.4</ele>
        <time>2020-07-14T09:56:06Z</time>
      </trkpt>
      <trkpt lat="38.0790600" lon="-2.5522990">
        <ele>1298.6</ele>
        <time>2020-07-14T09:56:07Z</time>
      </trkpt>
      <trkpt lat="38.0791750" lon="-2.5523010">
        <ele>1298.0</ele>
        <time>2020-07-14T09:56:08Z</time>
      </trkpt>
      <trkpt lat="38.0792760" lon="-2.5523100">
        <ele>1297.0</ele>
        <time>2020-07-14T09:56:09Z</time>
      </trkpt>
      <trkpt lat="38.0793920" lon="-2.5523120">
        <ele>1296.4</ele>
        <time>2020-07-14T09:56:10Z</time>
      </trkpt>
      <trkpt lat="38.0794970" lon="-2.5522950">
        <ele>1296.0</ele>
        <time>2020-07-14T09:56:11Z</time>
      </trkpt>
      <trkpt lat="38.0795960" lon="-2.5522530">
        <ele>1295.2</ele>
        <time>2020-07-14T09:56:12Z</time>
      </trkpt>
      <trkpt lat="38.0796760" lon="-2.5521960">
        <ele>1294.6</ele>
        <time>2020-07-14T09:56:13Z</time>
      </trkpt>
      <trkpt lat="38.0797320" lon="-2.5521290">
        <ele>1294.2</ele>
        <time>2020-07-14T09:56:14Z</time>
      </trkpt>
      <trkpt lat="38.0797660" lon="-2.5520480">
        <ele>1293.4</ele>
        <time>2020-07-14T09:56:15Z</time>
      </trkpt>
      <trkpt lat="38.0797690" lon="-2.5519670">
        <ele>1292.8</ele>
        <time>2020-07-14T09:56:16Z</time>
      </trkpt>
      <trkpt lat="38.0797410" lon="-2.5518860">
        <ele>1292.0</ele>
        <time>2020-07-14T09:56:17Z</time>
      </trkpt>
      <trkpt lat="38.0796930" lon="-2.5518190">
        <ele>1291.4</ele>
        <time>2020-07-14T09:56:18Z</time>
      </trkpt>
      <trkpt lat="38.0796430" lon="-2.5517570">
        <ele>1290.6</ele>
        <time>2020-07-14T09:56:19Z</time>
      </trkpt>
      <trkpt lat="38.0795860" lon="-2.5516810">
        <ele>1290.0</ele>
        <time>2020-07-14T09:56:20Z</time>
      </trkpt>
      <trkpt lat="38.0794150" lon="-2.5514470">
        <ele>1288.6</ele>
        <time>2020-07-14T09:56:23Z</time>
      </trkpt>
      <trkpt lat="38.0792360" lon="-2.5511750">
        <ele>1287.4</ele>
        <time>2020-07-14T09:56:26Z</time>
      </trkpt>
      <trkpt lat="38.0791680" lon="-2.5510950">
        <ele>1286.8</ele>
        <time>2020-07-14T09:56:27Z</time>
      </trkpt>
      <trkpt lat="38.0791010" lon="-2.5510090">
        <ele>1286.4</ele>
        <time>2020-07-14T09:56:28Z</time>
      </trkpt>
      <trkpt lat="38.0790640" lon="-2.5509160">
        <ele>1285.8</ele>
        <time>2020-07-14T09:56:29Z</time>
      </trkpt>
      <trkpt lat="38.0790590" lon="-2.5508080">
        <ele>1285.2</ele>
        <time>2020-07-14T09:56:30Z</time>
      </trkpt>
      <trkpt lat="38.0790900" lon="-2.5507220">
        <ele>1284.8</ele>
        <time>2020-07-14T09:56:31Z</time>
      </trkpt>
      <trkpt lat="38.0791430" lon="-2.5506600">
        <ele>1284.2</ele>
        <time>2020-07-14T09:56:32Z</time>
      </trkpt>
      <trkpt lat="38.0792150" lon="-2.5506510">
        <ele>1283.6</ele>
        <time>2020-07-14T09:56:33Z</time>
      </trkpt>
      <trkpt lat="38.0792850" lon="-2.5506830">
        <ele>1283.0</ele>
        <time>2020-07-14T09:56:34Z</time>
      </trkpt>
      <trkpt lat="38.0793570" lon="-2.5507640">
        <ele>1282.4</ele>
        <time>2020-07-14T09:56:35Z</time>
      </trkpt>
      <trkpt lat="38.0794000" lon="-2.5508650">
        <ele>1281.8</ele>
        <time>2020-07-14T09:56:36Z</time>
      </trkpt>
      <trkpt lat="38.0794370" lon="-2.5509730">
        <ele>1281.0</ele>
        <time>2020-07-14T09:56:37Z</time>
      </trkpt>
      <trkpt lat="38.0794750" lon="-2.5510800">
        <ele>1280.4</ele>
        <time>2020-07-14T09:56:38Z</time>
      </trkpt>
      <trkpt lat="38.0795210" lon="-2.5511710">
        <ele>1279.8</ele>
        <time>2020-07-14T09:56:39Z</time>
      </trkpt>
      <trkpt lat="38.0795950" lon="-2.5512640">
        <ele>1279.2</ele>
        <time>2020-07-14T09:56:40Z</time>
      </trkpt>
      <trkpt lat="38.0796810" lon="-2.5513360">
        <ele>1278.8</ele>
        <time>2020-07-14T09:56:41Z</time>
      </trkpt>
      <trkpt lat="38.0798590" lon="-2.5514630">
        <ele>1278.2</ele>
        <time>2020-07-14T09:56:43Z</time>
      </trkpt>
      <trkpt lat="38.0801340" lon="-2.5516470">
        <ele>1276.6</ele>
        <time>2020-07-14T09:56:46Z</time>
      </trkpt>
      <trkpt lat="38.0802360" lon="-2.5517150">
        <ele>1276.0</ele>
        <time>2020-07-14T09:56:47Z</time>
      </trkpt>
      <trkpt lat="38.0803370" lon="-2.5517810">
        <ele>1275.6</ele>
        <time>2020-07-14T09:56:48Z</time>
      </trkpt>
      <trkpt lat="38.0805520" lon="-2.5519040">
        <ele>1274.2</ele>
        <time>2020-07-14T09:56:50Z</time>
      </trkpt>
      <trkpt lat="38.0807500" lon="-2.5520090">
        <ele>1272.6</ele>
        <time>2020-07-14T09:56:52Z</time>
      </trkpt>
      <trkpt lat="38.0808750" lon="-2.5520750">
        <ele>1271.8</ele>
        <time>2020-07-14T09:56:53Z</time>
      </trkpt>
      <trkpt lat="38.0809750" lon="-2.5521280">
        <ele>1271.2</ele>
        <time>2020-07-14T09:56:54Z</time>
      </trkpt>
      <trkpt lat="38.0811690" lon="-2.5522270">
        <ele>1269.4</ele>
        <time>2020-07-14T09:56:56Z</time>
      </trkpt>
      <trkpt lat="38.0812320" lon="-2.5522880">
        <ele>1268.6</ele>
        <time>2020-07-14T09:56:57Z</time>
      </trkpt>
      <trkpt lat="38.0812760" lon="-2.5523750">
        <ele>1267.6</ele>
        <time>2020-07-14T09:56:58Z</time>
      </trkpt>
      <trkpt lat="38.0812860" lon="-2.5524710">
        <ele>1266.6</ele>
        <time>2020-07-14T09:56:59Z</time>
      </trkpt>
      <trkpt lat="38.0812470" lon="-2.5525840">
        <ele>1265.8</ele>
        <time>2020-07-14T09:57:00Z</time>
      </trkpt>
      <trkpt lat="38.0811840" lon="-2.5526680">
        <ele>1265.0</ele>
        <time>2020-07-14T09:57:01Z</time>
      </trkpt>
      <trkpt lat="38.0810950" lon="-2.5527450">
        <ele>1264.2</ele>
        <time>2020-07-14T09:57:02Z</time>
      </trkpt>
      <trkpt lat="38.0809200" lon="-2.5528410">
        <ele>1263.0</ele>
        <time>2020-07-14T09:57:04Z</time>
      </trkpt>
      <trkpt lat="38.0807040" lon="-2.5529520">
        <ele>1261.2</ele>
        <time>2020-07-14T09:57:06Z</time>
      </trkpt>
      <trkpt lat="38.0805050" lon="-2.5530790">
        <ele>1259.6</ele>
        <time>2020-07-14T09:57:08Z</time>
      </trkpt>
      <trkpt lat="38.0804190" lon="-2.5531340">
        <ele>1258.6</ele>
        <time>2020-07-14T09:57:09Z</time>
      </trkpt>
      <trkpt lat="38.0803070" lon="-2.5531950">
        <ele>1257.8</ele>
        <time>2020-07-14T09:57:10Z</time>
      </trkpt>
      <trkpt lat="38.0801940" lon="-2.5532300">
        <ele>1257.2</ele>
        <time>2020-07-14T09:57:11Z</time>
      </trkpt>
      <trkpt lat="38.0799610" lon="-2.5532480">
        <ele>1256.0</ele>
        <time>2020-07-14T09:57:13Z</time>
      </trkpt>
      <trkpt lat="38.0797340" lon="-2.5532340">
        <ele>1255.0</ele>
        <time>2020-07-14T09:57:15Z</time>
      </trkpt>
      <trkpt lat="38.0794860" lon="-2.5532550">
        <ele>1253.6</ele>
        <time>2020-07-14T09:57:17Z</time>
      </trkpt>
      <trkpt lat="38.0792620" lon="-2.5533220">
        <ele>1252.4</ele>
        <time>2020-07-14T09:57:19Z</time>
      </trkpt>
      <trkpt lat="38.0790520" lon="-2.5534300">
        <ele>1251.4</ele>
        <time>2020-07-14T09:57:21Z</time>
      </trkpt>
      <trkpt lat="38.0789790" lon="-2.5534970">
        <ele>1251.0</ele>
        <time>2020-07-14T09:57:22Z</time>
      </trkpt>
      <trkpt lat="38.0788740" lon="-2.5536620">
        <ele>1250.2</ele>
        <time>2020-07-14T09:57:24Z</time>
      </trkpt>
      <trkpt lat="38.0788560" lon="-2.5537590">
        <ele>1249.6</ele>
        <time>2020-07-14T09:57:25Z</time>
      </trkpt>
      <trkpt lat="38.0788760" lon="-2.5538530">
        <ele>1249.4</ele>
        <time>2020-07-14T09:57:26Z</time>
      </trkpt>
      <trkpt lat="38.0789710" lon="-2.5539610">
        <ele>1248.8</ele>
        <time>2020-07-14T09:57:28Z</time>
      </trkpt>
      <trkpt lat="38.0790300" lon="-2.5539880">
        <ele>1248.6</ele>
        <time>2020-07-14T09:57:29Z</time>
      </trkpt>
      <trkpt lat="38.0791590" lon="-2.5540590">
        <ele>1248.0</ele>
        <time>2020-07-14T09:57:31Z</time>
      </trkpt>
      <trkpt lat="38.0792280" lon="-2.5541000">
        <ele>1247.6</ele>
        <time>2020-07-14T09:57:32Z</time>
      </trkpt>
      <trkpt lat="38.0792940" lon="-2.5541450">
        <ele>1247.4</ele>
        <time>2020-07-14T09:57:33Z</time>
      </trkpt>
      <trkpt lat="38.0793650" lon="-2.5542030">
        <ele>1247.0</ele>
        <time>2020-07-14T09:57:34Z</time>
      </trkpt>
      <trkpt lat="38.0794420" lon="-2.5542750">
        <ele>1246.6</ele>
        <time>2020-07-14T09:57:35Z</time>
      </trkpt>
      <trkpt lat="38.0795110" lon="-2.5543520">
        <ele>1246.0</ele>
        <time>2020-07-14T09:57:36Z</time>
      </trkpt>
      <trkpt lat="38.0796470" lon="-2.5545250">
        <ele>1244.8</ele>
        <time>2020-07-14T09:57:38Z</time>
      </trkpt>
      <trkpt lat="38.0798060" lon="-2.5546830">
        <ele>1243.8</ele>
        <time>2020-07-14T09:57:40Z</time>
      </trkpt>
      <trkpt lat="38.0799050" lon="-2.5547330">
        <ele>1243.0</ele>
        <time>2020-07-14T09:57:41Z</time>
      </trkpt>
      <trkpt lat="38.0800090" lon="-2.5547620">
        <ele>1242.4</ele>
        <time>2020-07-14T09:57:42Z</time>
      </trkpt>
      <trkpt lat="38.0802220" lon="-2.5547880">
        <ele>1241.0</ele>
        <time>2020-07-14T09:57:44Z</time>
      </trkpt>
      <trkpt lat="38.0804330" lon="-2.5548040">
        <ele>1239.6</ele>
        <time>2020-07-14T09:57:46Z</time>
      </trkpt>
      <trkpt lat="38.0805300" lon="-2.5548240">
        <ele>1238.8</ele>
        <time>2020-07-14T09:57:47Z</time>
      </trkpt>
      <trkpt lat="38.0806110" lon="-2.5548750">
        <ele>1238.0</ele>
        <time>2020-07-14T09:57:48Z</time>
      </trkpt>
      <trkpt lat="38.0807250" lon="-2.5550550">
        <ele>1236.4</ele>
        <time>2020-07-14T09:57:50Z</time>
      </trkpt>
      <trkpt lat="38.0807790" lon="-2.5551640">
        <ele>1235.4</ele>
        <time>2020-07-14T09:57:51Z</time>
      </trkpt>
      <trkpt lat="38.0808340" lon="-2.5552680">
        <ele>1234.6</ele>
        <time>2020-07-14T09:57:52Z</time>
      </trkpt>
      <trkpt lat="38.0809480" lon="-2.5554970">
        <ele>1233.4</ele>
        <time>2020-07-14T09:57:54Z</time>
      </trkpt>
      <trkpt lat="38.0809980" lon="-2.5556310">
        <ele>1232.8</ele>
        <time>2020-07-14T09:57:55Z</time>
      </trkpt>
      <trkpt lat="38.0810370" lon="-2.5557610">
        <ele>1232.0</ele>
        <time>2020-07-14T09:57:56Z</time>
      </trkpt>
      <trkpt lat="38.0810660" lon="-2.5560100">
        <ele>1230.4</ele>
        <time>2020-07-14T09:57:58Z</time>
      </trkpt>
      <trkpt lat="38.0809980" lon="-2.5562500">
        <ele>1229.0</ele>
        <time>2020-07-14T09:58:00Z</time>
      </trkpt>
      <trkpt lat="38.0809010" lon="-2.5564720">
        <ele>1227.6</ele>
        <time>2020-07-14T09:58:02Z</time>
      </trkpt>
      <trkpt lat="38.0808570" lon="-2.5567200">
        <ele>1226.4</ele>
        <time>2020-07-14T09:58:04Z</time>
      </trkpt>
      <trkpt lat="38.0808680" lon="-2.5570070">
        <ele>1225.0</ele>
        <time>2020-07-14T09:58:06Z</time>
      </trkpt>
      <trkpt lat="38.0808760" lon="-2.5571440">
        <ele>1224.4</ele>
        <time>2020-07-14T09:58:07Z</time>
      </trkpt>
      <trkpt lat="38.0808710" lon="-2.5572480">
        <ele>1224.0</ele>
        <time>2020-07-14T09:58:08Z</time>
      </trkpt>
      <trkpt lat="38.0807780" lon="-2.5576110">
        <ele>1223.6</ele>
        <time>2020-07-14T09:58:11Z</time>
      </trkpt>
      <trkpt lat="38.0807390" lon="-2.5577230">
        <ele>1223.2</ele>
        <time>2020-07-14T09:58:12Z</time>
      </trkpt>
      <trkpt lat="38.0807020" lon="-2.5578520">
        <ele>1222.4</ele>
        <time>2020-07-14T09:58:13Z</time>
      </trkpt>
      <trkpt lat="38.0806860" lon="-2.5579920">
        <ele>1221.2</ele>
        <time>2020-07-14T09:58:14Z</time>
      </trkpt>
      <trkpt lat="38.0806960" lon="-2.5581180">
        <ele>1219.8</ele>
        <time>2020-07-14T09:58:15Z</time>
      </trkpt>
      <trkpt lat="38.0807130" lon="-2.5582560">
        <ele>1218.6</ele>
        <time>2020-07-14T09:58:16Z</time>
      </trkpt>
      <trkpt lat="38.0807430" lon="-2.5583880">
        <ele>1217.2</ele>
        <time>2020-07-14T09:58:17Z</time>
      </trkpt>
      <trkpt lat="38.0807840" lon="-2.5585250">
        <ele>1216.2</ele>
        <time>2020-07-14T09:58:18Z</time>
      </trkpt>
      <trkpt lat="38.0809090" lon="-2.5587580">
        <ele>1214.6</ele>
        <time>2020-07-14T09:58:20Z</time>
      </trkpt>
      <trkpt lat="38.0809740" lon="-2.5588880">
        <ele>1214.0</ele>
        <time>2020-07-14T09:58:21Z</time>
      </trkpt>
      <trkpt lat="38.0810310" lon="-2.5590110">
        <ele>1213.4</ele>
        <time>2020-07-14T09:58:22Z</time>
      </trkpt>
      <trkpt lat="38.0811450" lon="-2.5592520">
        <ele>1211.8</ele>
        <time>2020-07-14T09:58:24Z</time>
      </trkpt>
      <trkpt lat="38.0812510" lon="-2.5594720">
        <ele>1210.2</ele>
        <time>2020-07-14T09:58:26Z</time>
      </trkpt>
      <trkpt lat="38.0812970" lon="-2.5595760">
        <ele>1209.6</ele>
        <time>2020-07-14T09:58:27Z</time>
      </trkpt>
      <trkpt lat="38.0813540" lon="-2.5596570">
        <ele>1208.8</ele>
        <time>2020-07-14T09:58:28Z</time>
      </trkpt>
      <trkpt lat="38.0815170" lon="-2.5597170">
        <ele>1207.2</ele>
        <time>2020-07-14T09:58:30Z</time>
      </trkpt>
      <trkpt lat="38.0816990" lon="-2.5596640">
        <ele>1205.8</ele>
        <time>2020-07-14T09:58:32Z</time>
      </trkpt>
      <trkpt lat="38.0817810" lon="-2.5596350">
        <ele>1205.0</ele>
        <time>2020-07-14T09:58:33Z</time>
      </trkpt>
      <trkpt lat="38.0818570" lon="-2.5596310">
        <ele>1204.6</ele>
        <time>2020-07-14T09:58:34Z</time>
      </trkpt>
      <trkpt lat="38.0819990" lon="-2.5597070">
        <ele>1203.6</ele>
        <time>2020-07-14T09:58:36Z</time>
      </trkpt>
      <trkpt lat="38.0820370" lon="-2.5597670">
        <ele>1203.6</ele>
        <time>2020-07-14T09:58:37Z</time>
      </trkpt>
      <trkpt lat="38.0820710" lon="-2.5599060">
        <ele>1203.4</ele>
        <time>2020-07-14T09:58:39Z</time>
      </trkpt>
      <trkpt lat="38.0820830" lon="-2.5599600">
        <ele>1203.6</ele>
        <time>2020-07-14T09:58:40Z</time>
      </trkpt>
      <trkpt lat="38.0821030" lon="-2.5600780">
        <ele>1204.4</ele>
        <time>2020-07-14T09:58:42Z</time>
      </trkpt>
      <trkpt lat="38.0821070" lon="-2.5601320">
        <ele>1205.0</ele>
        <time>2020-07-14T09:58:43Z</time>
      </trkpt>
      <trkpt lat="38.0821100" lon="-2.5601850">
        <ele>1205.4</ele>
        <time>2020-07-14T09:58:44Z</time>
      </trkpt>
      <trkpt lat="38.0821100" lon="-2.5602830">
        <ele>1206.0</ele>
        <time>2020-07-14T09:58:46Z</time>
      </trkpt>
      <trkpt lat="38.0821220" lon="-2.5604270">
        <ele>1206.8</ele>
        <time>2020-07-14T09:58:49Z</time>
      </trkpt>
      <trkpt lat="38.0821470" lon="-2.5605100">
        <ele>1207.4</ele>
        <time>2020-07-14T09:58:51Z</time>
      </trkpt>
      <trkpt lat="38.0821560" lon="-2.5605470">
        <ele>1207.6</ele>
        <time>2020-07-14T09:58:52Z</time>
      </trkpt>
      <trkpt lat="38.0821750" lon="-2.5606270">
        <ele>1208.0</ele>
        <time>2020-07-14T09:58:54Z</time>
      </trkpt>
      <trkpt lat="38.0821960" lon="-2.5607030">
        <ele>1208.2</ele>
        <time>2020-07-14T09:58:56Z</time>
      </trkpt>
      <trkpt lat="38.0822050" lon="-2.5607370">
        <ele>1208.6</ele>
        <time>2020-07-14T09:58:57Z</time>
      </trkpt>
      <trkpt lat="38.0822090" lon="-2.5607700">
        <ele>1208.8</ele>
        <time>2020-07-14T09:58:58Z</time>
      </trkpt>
      <trkpt lat="38.0822210" lon="-2.5608640">
        <ele>1209.6</ele>
        <time>2020-07-14T09:59:01Z</time>
      </trkpt>
      <trkpt lat="38.0822560" lon="-2.5610040">
        <ele>1210.4</ele>
        <time>2020-07-14T09:59:06Z</time>
      </trkpt>
      <trkpt lat="38.0822830" lon="-2.5610470">
        <ele>1210.6</ele>
        <time>2020-07-14T09:59:08Z</time>
      </trkpt>
      <trkpt lat="38.0823630" lon="-2.5610870">
        <ele>1211.4</ele>
        <time>2020-07-14T09:59:12Z</time>
      </trkpt>
      <trkpt lat="38.0824040" lon="-2.5610910">
        <ele>1211.8</ele>
        <time>2020-07-14T09:59:14Z</time>
      </trkpt>
      <trkpt lat="38.0824760" lon="-2.5610360">
        <ele>1212.2</ele>
        <time>2020-07-14T09:59:18Z</time>
      </trkpt>
      <trkpt lat="38.0825140" lon="-2.5609640">
        <ele>1212.8</ele>
        <time>2020-07-14T09:59:21Z</time>
      </trkpt>
      <trkpt lat="38.0825230" lon="-2.5608870">
        <ele>1213.6</ele>
        <time>2020-07-14T09:59:24Z</time>
      </trkpt>
      <trkpt lat="38.0825230" lon="-2.5608540">
        <ele>1213.8</ele>
        <time>2020-07-14T09:59:25Z</time>
      </trkpt>
      <trkpt lat="38.0824850" lon="-2.5607180">
        <ele>1215.0</ele>
        <time>2020-07-14T09:59:30Z</time>
      </trkpt>
      <trkpt lat="38.0824750" lon="-2.5606880">
        <ele>1215.2</ele>
        <time>2020-07-14T09:59:31Z</time>
      </trkpt>
      <trkpt lat="38.0824020" lon="-2.5604730">
        <ele>1216.2</ele>
        <time>2020-07-14T09:59:39Z</time>
      </trkpt>
      <trkpt lat="38.0823860" lon="-2.5604170">
        <ele>1216.2</ele>
        <time>2020-07-14T09:59:41Z</time>
      </trkpt>
      <trkpt lat="38.0823220" lon="-2.5601910">
        <ele>1217.2</ele>
        <time>2020-07-14T09:59:48Z</time>
      </trkpt>
      <trkpt lat="38.0823110" lon="-2.5601560">
        <ele>1217.2</ele>
        <time>2020-07-14T09:59:49Z</time>
      </trkpt>
      <trkpt lat="38.0822240" lon="-2.5599340">
        <ele>1217.4</ele>
        <time>2020-07-14T09:59:55Z</time>
      </trkpt>
      <trkpt lat="38.0821840" lon="-2.5597660">
        <ele>1217.6</ele>
        <time>2020-07-14T09:59:59Z</time>
      </trkpt>
      <trkpt lat="38.0821570" lon="-2.5596390">
        <ele>1217.8</ele>
        <time>2020-07-14T10:00:02Z</time>
      </trkpt>
      <trkpt lat="38.0821290" lon="-2.5595670">
        <ele>1218.0</ele>
        <time>2020-07-14T10:00:04Z</time>
      </trkpt>
      <trkpt lat="38.0820840" lon="-2.5594680">
        <ele>1218.0</ele>
        <time>2020-07-14T10:00:07Z</time>
      </trkpt>
      <trkpt lat="38.0820660" lon="-2.5594370">
        <ele>1218.2</ele>
        <time>2020-07-14T10:00:08Z</time>
      </trkpt>
      <trkpt lat="38.0820060" lon="-2.5593090">
        <ele>1219.0</ele>
        <time>2020-07-14T10:00:12Z</time>
      </trkpt>
      <trkpt lat="38.0819960" lon="-2.5592740">
        <ele>1219.2</ele>
        <time>2020-07-14T10:00:13Z</time>
      </trkpt>
      <trkpt lat="38.0819660" lon="-2.5591660">
        <ele>1220.2</ele>
        <time>2020-07-14T10:00:16Z</time>
      </trkpt>
      <trkpt lat="38.0819550" lon="-2.5590480">
        <ele>1221.0</ele>
        <time>2020-07-14T10:00:19Z</time>
      </trkpt>
      <trkpt lat="38.0819510" lon="-2.5589740">
        <ele>1221.4</ele>
        <time>2020-07-14T10:00:21Z</time>
      </trkpt>
      <trkpt lat="38.0819110" lon="-2.5587960">
        <ele>1222.0</ele>
        <time>2020-07-14T10:00:26Z</time>
      </trkpt>
      <trkpt lat="38.0818690" lon="-2.5587010">
        <ele>1222.4</ele>
        <time>2020-07-14T10:00:29Z</time>
      </trkpt>
      <trkpt lat="38.0818220" lon="-2.5585650">
        <ele>1223.4</ele>
        <time>2020-07-14T10:00:33Z</time>
      </trkpt>
      <trkpt lat="38.0818110" lon="-2.5585340">
        <ele>1223.8</ele>
        <time>2020-07-14T10:00:34Z</time>
      </trkpt>
      <trkpt lat="38.0817730" lon="-2.5583690">
        <ele>1224.8</ele>
        <time>2020-07-14T10:00:39Z</time>
      </trkpt>
      <trkpt lat="38.0817590" lon="-2.5582350">
        <ele>1225.6</ele>
        <time>2020-07-14T10:00:43Z</time>
      </trkpt>
      <trkpt lat="38.0817590" lon="-2.5581990">
        <ele>1225.8</ele>
        <time>2020-07-14T10:00:44Z</time>
      </trkpt>
      <trkpt lat="38.0818090" lon="-2.5579980">
        <ele>1227.0</ele>
        <time>2020-07-14T10:00:50Z</time>
      </trkpt>
      <trkpt lat="38.0819310" lon="-2.5579070">
        <ele>1228.2</ele>
        <time>2020-07-14T10:00:55Z</time>
      </trkpt>
      <trkpt lat="38.0820590" lon="-2.5579370">
        <ele>1229.2</ele>
        <time>2020-07-14T10:01:00Z</time>
      </trkpt>
      <trkpt lat="38.0822010" lon="-2.5579990">
        <ele>1230.2</ele>
        <time>2020-07-14T10:01:05Z</time>
      </trkpt>
      <trkpt lat="38.0822620" lon="-2.5580190">
        <ele>1230.6</ele>
        <time>2020-07-14T10:01:07Z</time>
      </trkpt>
      <trkpt lat="38.0823440" lon="-2.5580280">
        <ele>1231.2</ele>
        <time>2020-07-14T10:01:10Z</time>
      </trkpt>
      <trkpt lat="38.0824670" lon="-2.5579900">
        <ele>1231.8</ele>
        <time>2020-07-14T10:01:14Z</time>
      </trkpt>
      <trkpt lat="38.0825520" lon="-2.5579460">
        <ele>1232.2</ele>
        <time>2020-07-14T10:01:17Z</time>
      </trkpt>
      <trkpt lat="38.0826820" lon="-2.5578700">
        <ele>1232.6</ele>
        <time>2020-07-14T10:01:22Z</time>
      </trkpt>
      <trkpt lat="38.0829760" lon="-2.5576770">
        <ele>1233.4</ele>
        <time>2020-07-14T10:01:31Z</time>
      </trkpt>
      <trkpt lat="38.0830030" lon="-2.5576470">
        <ele>1233.4</ele>
        <time>2020-07-14T10:01:32Z</time>
      </trkpt>
      <trkpt lat="38.0831020" lon="-2.5574580">
        <ele>1233.8</ele>
        <time>2020-07-14T10:01:37Z</time>
      </trkpt>
      <trkpt lat="38.0831650" lon="-2.5572960">
        <ele>1234.4</ele>
        <time>2020-07-14T10:01:41Z</time>
      </trkpt>
      <trkpt lat="38.0832190" lon="-2.5571270">
        <ele>1234.4</ele>
        <time>2020-07-14T10:01:45Z</time>
      </trkpt>
      <trkpt lat="38.0832340" lon="-2.5570860">
        <ele>1234.4</ele>
        <time>2020-07-14T10:01:46Z</time>
      </trkpt>
      <trkpt lat="38.0833010" lon="-2.5568760">
        <ele>1235.4</ele>
        <time>2020-07-14T10:01:52Z</time>
      </trkpt>
      <trkpt lat="38.0833550" lon="-2.5567110">
        <ele>1236.0</ele>
        <time>2020-07-14T10:01:56Z</time>
      </trkpt>
      <trkpt lat="38.0833810" lon="-2.5566400">
        <ele>1236.6</ele>
        <time>2020-07-14T10:01:58Z</time>
      </trkpt>
      <trkpt lat="38.0834360" lon="-2.5565020">
        <ele>1237.8</ele>
        <time>2020-07-14T10:02:02Z</time>
      </trkpt>
      <trkpt lat="38.0835010" lon="-2.5563840">
        <ele>1238.6</ele>
        <time>2020-07-14T10:02:06Z</time>
      </trkpt>
      <trkpt lat="38.0835180" lon="-2.5563560">
        <ele>1239.0</ele>
        <time>2020-07-14T10:02:07Z</time>
      </trkpt>
      <trkpt lat="38.0836120" lon="-2.5562110">
        <ele>1240.0</ele>
        <time>2020-07-14T10:02:12Z</time>
      </trkpt>
      <trkpt lat="38.0836500" lon="-2.5561480">
        <ele>1240.4</ele>
        <time>2020-07-14T10:02:14Z</time>
      </trkpt>
      <trkpt lat="38.0837420" lon="-2.5560120">
        <ele>1241.2</ele>
        <time>2020-07-14T10:02:19Z</time>
      </trkpt>
      <trkpt lat="38.0838300" lon="-2.5558810">
        <ele>1242.4</ele>
        <time>2020-07-14T10:02:24Z</time>
      </trkpt>
      <trkpt lat="38.0839350" lon="-2.5557350">
        <ele>1243.6</ele>
        <time>2020-07-14T10:02:30Z</time>
      </trkpt>
      <trkpt lat="38.0839890" lon="-2.5556650">
        <ele>1244.2</ele>
        <time>2020-07-14T10:02:33Z</time>
      </trkpt>
      <trkpt lat="38.0840450" lon="-2.5555940">
        <ele>1244.6</ele>
        <time>2020-07-14T10:02:36Z</time>
      </trkpt>
      <trkpt lat="38.0841630" lon="-2.5555060">
        <ele>1245.8</ele>
        <time>2020-07-14T10:02:41Z</time>
      </trkpt>
      <trkpt lat="38.0843280" lon="-2.5554550">
        <ele>1246.8</ele>
        <time>2020-07-14T10:02:47Z</time>
      </trkpt>
      <trkpt lat="38.0843900" lon="-2.5554490">
        <ele>1247.2</ele>
        <time>2020-07-14T10:02:49Z</time>
      </trkpt>
      <trkpt lat="38.0846190" lon="-2.5554500">
        <ele>1248.0</ele>
        <time>2020-07-14T10:02:56Z</time>
      </trkpt>
      <trkpt lat="38.0846550" lon="-2.5554410">
        <ele>1248.0</ele>
        <time>2020-07-14T10:02:57Z</time>
      </trkpt>
      <trkpt lat="38.0849250" lon="-2.5554610">
        <ele>1248.6</ele>
        <time>2020-07-14T10:03:04Z</time>
      </trkpt>
      <trkpt lat="38.0850470" lon="-2.5554820">
        <ele>1248.4</ele>
        <time>2020-07-14T10:03:07Z</time>
      </trkpt>
      <trkpt lat="38.0851370" lon="-2.5555060">
        <ele>1248.2</ele>
        <time>2020-07-14T10:03:09Z</time>
      </trkpt>
      <trkpt lat="38.0852330" lon="-2.5555490">
        <ele>1248.0</ele>
        <time>2020-07-14T10:03:11Z</time>
      </trkpt>
      <trkpt lat="38.0853980" lon="-2.5556580">
        <ele>1247.4</ele>
        <time>2020-07-14T10:03:14Z</time>
      </trkpt>
      <trkpt lat="38.0855210" lon="-2.5557420">
        <ele>1247.0</ele>
        <time>2020-07-14T10:03:16Z</time>
      </trkpt>
      <trkpt lat="38.0855860" lon="-2.5557860">
        <ele>1246.6</ele>
        <time>2020-07-14T10:03:17Z</time>
      </trkpt>
      <trkpt lat="38.0856560" lon="-2.5558210">
        <ele>1246.4</ele>
        <time>2020-07-14T10:03:18Z</time>
      </trkpt>
      <trkpt lat="38.0858050" lon="-2.5558440">
        <ele>1245.6</ele>
        <time>2020-07-14T10:03:20Z</time>
      </trkpt>
      <trkpt lat="38.0858800" lon="-2.5558300">
        <ele>1245.4</ele>
        <time>2020-07-14T10:03:21Z</time>
      </trkpt>
      <trkpt lat="38.0860050" lon="-2.5557820">
        <ele>1244.8</ele>
        <time>2020-07-14T10:03:23Z</time>
      </trkpt>
      <trkpt lat="38.0860650" lon="-2.5557560">
        <ele>1244.6</ele>
        <time>2020-07-14T10:03:24Z</time>
      </trkpt>
      <trkpt lat="38.0861190" lon="-2.5557450">
        <ele>1244.6</ele>
        <time>2020-07-14T10:03:25Z</time>
      </trkpt>
      <trkpt lat="38.0862390" lon="-2.5557390">
        <ele>1244.8</ele>
        <time>2020-07-14T10:03:27Z</time>
      </trkpt>
      <trkpt lat="38.0863580" lon="-2.5557580">
        <ele>1245.0</ele>
        <time>2020-07-14T10:03:29Z</time>
      </trkpt>
      <trkpt lat="38.0865550" lon="-2.5557760">
        <ele>1244.8</ele>
        <time>2020-07-14T10:03:32Z</time>
      </trkpt>
      <trkpt lat="38.0866880" lon="-2.5557930">
        <ele>1244.4</ele>
        <time>2020-07-14T10:03:34Z</time>
      </trkpt>
      <trkpt lat="38.0867510" lon="-2.5558030">
        <ele>1244.2</ele>
        <time>2020-07-14T10:03:35Z</time>
      </trkpt>
      <trkpt lat="38.0870470" lon="-2.5558940">
        <ele>1243.2</ele>
        <time>2020-07-14T10:03:39Z</time>
      </trkpt>
      <trkpt lat="38.0873500" lon="-2.5560670">
        <ele>1242.6</ele>
        <time>2020-07-14T10:03:43Z</time>
      </trkpt>
      <trkpt lat="38.0875300" lon="-2.5560400">
        <ele>1242.0</ele>
        <time>2020-07-14T10:03:45Z</time>
      </trkpt>
      <trkpt lat="38.0876240" lon="-2.5560140">
        <ele>1241.2</ele>
        <time>2020-07-14T10:03:46Z</time>
      </trkpt>
      <trkpt lat="38.0877180" lon="-2.5559830">
        <ele>1240.6</ele>
        <time>2020-07-14T10:03:47Z</time>
      </trkpt>
      <trkpt lat="38.0879000" lon="-2.5559250">
        <ele>1239.0</ele>
        <time>2020-07-14T10:03:49Z</time>
      </trkpt>
      <trkpt lat="38.0879830" lon="-2.5559150">
        <ele>1238.6</ele>
        <time>2020-07-14T10:03:50Z</time>
      </trkpt>
      <trkpt lat="38.0880790" lon="-2.5559410">
        <ele>1238.2</ele>
        <time>2020-07-14T10:03:51Z</time>
      </trkpt>
      <trkpt lat="38.0881510" lon="-2.5560150">
        <ele>1237.8</ele>
        <time>2020-07-14T10:03:52Z</time>
      </trkpt>
      <trkpt lat="38.0882000" lon="-2.5561260">
        <ele>1237.2</ele>
        <time>2020-07-14T10:03:53Z</time>
      </trkpt>
      <trkpt lat="38.0882270" lon="-2.5562540">
        <ele>1236.6</ele>
        <time>2020-07-14T10:03:54Z</time>
      </trkpt>
      <trkpt lat="38.0882450" lon="-2.5563770">
        <ele>1236.0</ele>
        <time>2020-07-14T10:03:55Z</time>
      </trkpt>
      <trkpt lat="38.0882620" lon="-2.5565170">
        <ele>1235.4</ele>
        <time>2020-07-14T10:03:56Z</time>
      </trkpt>
      <trkpt lat="38.0882640" lon="-2.5567870">
        <ele>1234.2</ele>
        <time>2020-07-14T10:03:58Z</time>
      </trkpt>
      <trkpt lat="38.0882460" lon="-2.5569270">
        <ele>1233.6</ele>
        <time>2020-07-14T10:03:59Z</time>
      </trkpt>
      <trkpt lat="38.0882230" lon="-2.5570650">
        <ele>1233.0</ele>
        <time>2020-07-14T10:04:00Z</time>
      </trkpt>
      <trkpt lat="38.0881950" lon="-2.5572130">
        <ele>1232.2</ele>
        <time>2020-07-14T10:04:01Z</time>
      </trkpt>
      <trkpt lat="38.0881760" lon="-2.5573470">
        <ele>1231.6</ele>
        <time>2020-07-14T10:04:02Z</time>
      </trkpt>
      <trkpt lat="38.0881760" lon="-2.5574840">
        <ele>1231.0</ele>
        <time>2020-07-14T10:04:03Z</time>
      </trkpt>
      <trkpt lat="38.0881850" lon="-2.5575370">
        <ele>1230.4</ele>
        <time>2020-07-14T10:04:04Z</time>
      </trkpt>
      <trkpt lat="38.0882930" lon="-2.5578730">
        <ele>1229.2</ele>
        <time>2020-07-14T10:04:06Z</time>
      </trkpt>
      <trkpt lat="38.0884540" lon="-2.5580790">
        <ele>1228.0</ele>
        <time>2020-07-14T10:04:08Z</time>
      </trkpt>
      <trkpt lat="38.0885460" lon="-2.5581630">
        <ele>1227.2</ele>
        <time>2020-07-14T10:04:09Z</time>
      </trkpt>
      <trkpt lat="38.0886260" lon="-2.5582410">
        <ele>1226.6</ele>
        <time>2020-07-14T10:04:10Z</time>
      </trkpt>
      <trkpt lat="38.0888070" lon="-2.5584580">
        <ele>1225.4</ele>
        <time>2020-07-14T10:04:12Z</time>
      </trkpt>
      <trkpt lat="38.0888730" lon="-2.5585680">
        <ele>1225.0</ele>
        <time>2020-07-14T10:04:13Z</time>
      </trkpt>
      <trkpt lat="38.0889470" lon="-2.5586780">
        <ele>1224.6</ele>
        <time>2020-07-14T10:04:14Z</time>
      </trkpt>
      <trkpt lat="38.0890390" lon="-2.5587480">
        <ele>1224.0</ele>
        <time>2020-07-14T10:04:15Z</time>
      </trkpt>
      <trkpt lat="38.0891510" lon="-2.5587940">
        <ele>1223.4</ele>
        <time>2020-07-14T10:04:16Z</time>
      </trkpt>
      <trkpt lat="38.0892650" lon="-2.5588180">
        <ele>1222.8</ele>
        <time>2020-07-14T10:04:17Z</time>
      </trkpt>
      <trkpt lat="38.0894910" lon="-2.5589140">
        <ele>1221.6</ele>
        <time>2020-07-14T10:04:19Z</time>
      </trkpt>
      <trkpt lat="38.0897680" lon="-2.5591530">
        <ele>1220.8</ele>
        <time>2020-07-14T10:04:22Z</time>
      </trkpt>
      <trkpt lat="38.0898660" lon="-2.5592070">
        <ele>1220.4</ele>
        <time>2020-07-14T10:04:23Z</time>
      </trkpt>
      <trkpt lat="38.0900590" lon="-2.5591940">
        <ele>1219.4</ele>
        <time>2020-07-14T10:04:25Z</time>
      </trkpt>
      <trkpt lat="38.0901620" lon="-2.5591360">
        <ele>1219.0</ele>
        <time>2020-07-14T10:04:26Z</time>
      </trkpt>
      <trkpt lat="38.0902480" lon="-2.5590660">
        <ele>1218.2</ele>
        <time>2020-07-14T10:04:27Z</time>
      </trkpt>
      <trkpt lat="38.0903320" lon="-2.5590000">
        <ele>1217.4</ele>
        <time>2020-07-14T10:04:28Z</time>
      </trkpt>
      <trkpt lat="38.0905020" lon="-2.5588620">
        <ele>1216.0</ele>
        <time>2020-07-14T10:04:30Z</time>
      </trkpt>
      <trkpt lat="38.0907840" lon="-2.5586840">
        <ele>1215.0</ele>
        <time>2020-07-14T10:04:33Z</time>
      </trkpt>
      <trkpt lat="38.0910960" lon="-2.5586320">
        <ele>1214.2</ele>
        <time>2020-07-14T10:04:36Z</time>
      </trkpt>
      <trkpt lat="38.0912970" lon="-2.5587000">
        <ele>1213.6</ele>
        <time>2020-07-14T10:04:38Z</time>
      </trkpt>
      <trkpt lat="38.0913880" lon="-2.5587880">
        <ele>1213.2</ele>
        <time>2020-07-14T10:04:39Z</time>
      </trkpt>
      <trkpt lat="38.0914570" lon="-2.5588740">
        <ele>1212.6</ele>
        <time>2020-07-14T10:04:40Z</time>
      </trkpt>
      <trkpt lat="38.0916160" lon="-2.5591060">
        <ele>1211.4</ele>
        <time>2020-07-14T10:04:42Z</time>
      </trkpt>
      <trkpt lat="38.0916840" lon="-2.5592130">
        <ele>1210.8</ele>
        <time>2020-07-14T10:04:43Z</time>
      </trkpt>
      <trkpt lat="38.0917580" lon="-2.5593320">
        <ele>1210.0</ele>
        <time>2020-07-14T10:04:44Z</time>
      </trkpt>
      <trkpt lat="38.0919640" lon="-2.5596780">
        <ele>1208.8</ele>
        <time>2020-07-14T10:04:47Z</time>
      </trkpt>
      <trkpt lat="38.0920980" lon="-2.5599130">
        <ele>1207.2</ele>
        <time>2020-07-14T10:04:49Z</time>
      </trkpt>
      <trkpt lat="38.0922250" lon="-2.5601380">
        <ele>1205.8</ele>
        <time>2020-07-14T10:04:51Z</time>
      </trkpt>
      <trkpt lat="38.0923450" lon="-2.5603550">
        <ele>1204.6</ele>
        <time>2020-07-14T10:04:53Z</time>
      </trkpt>
      <trkpt lat="38.0925470" lon="-2.5606760">
        <ele>1203.4</ele>
        <time>2020-07-14T10:04:56Z</time>
      </trkpt>
      <trkpt lat="38.0926250" lon="-2.5607630">
        <ele>1203.0</ele>
        <time>2020-07-14T10:04:57Z</time>
      </trkpt>
      <trkpt lat="38.0927090" lon="-2.5608260">
        <ele>1202.4</ele>
        <time>2020-07-14T10:04:58Z</time>
      </trkpt>
      <trkpt lat="38.0928780" lon="-2.5609110">
        <ele>1201.8</ele>
        <time>2020-07-14T10:05:00Z</time>
      </trkpt>
      <trkpt lat="38.0929760" lon="-2.5609560">
        <ele>1201.2</ele>
        <time>2020-07-14T10:05:01Z</time>
      </trkpt>
      <trkpt lat="38.0932660" lon="-2.5610880">
        <ele>1201.0</ele>
        <time>2020-07-14T10:05:05Z</time>
      </trkpt>
      <trkpt lat="38.0934010" lon="-2.5611420">
        <ele>1201.4</ele>
        <time>2020-07-14T10:05:07Z</time>
      </trkpt>
      <trkpt lat="38.0935150" lon="-2.5611620">
        <ele>1202.0</ele>
        <time>2020-07-14T10:05:09Z</time>
      </trkpt>
      <trkpt lat="38.0935590" lon="-2.5611580">
        <ele>1202.4</ele>
        <time>2020-07-14T10:05:10Z</time>
      </trkpt>
      <trkpt lat="38.0936130" lon="-2.5611420">
        <ele>1202.8</ele>
        <time>2020-07-14T10:05:11Z</time>
      </trkpt>
      <trkpt lat="38.0936920" lon="-2.5611080">
        <ele>1203.6</ele>
        <time>2020-07-14T10:05:13Z</time>
      </trkpt>
      <trkpt lat="38.0937370" lon="-2.5610850">
        <ele>1203.8</ele>
        <time>2020-07-14T10:05:14Z</time>
      </trkpt>
      <trkpt lat="38.0937720" lon="-2.5610660">
        <ele>1204.2</ele>
        <time>2020-07-14T10:05:15Z</time>
      </trkpt>
      <trkpt lat="38.0938120" lon="-2.5610440">
        <ele>1204.6</ele>
        <time>2020-07-14T10:05:16Z</time>
      </trkpt>
      <trkpt lat="38.0938500" lon="-2.5610210">
        <ele>1204.8</ele>
        <time>2020-07-14T10:05:17Z</time>
      </trkpt>
      <trkpt lat="38.0939220" lon="-2.5609840">
        <ele>1205.6</ele>
        <time>2020-07-14T10:05:19Z</time>
      </trkpt>
      <trkpt lat="38.0939890" lon="-2.5609440">
        <ele>1206.2</ele>
        <time>2020-07-14T10:05:21Z</time>
      </trkpt>
      <trkpt lat="38.0940530" lon="-2.5609070">
        <ele>1206.6</ele>
        <time>2020-07-14T10:05:23Z</time>
      </trkpt>
      <trkpt lat="38.0941170" lon="-2.5608710">
        <ele>1207.0</ele>
        <time>2020-07-14T10:05:25Z</time>
      </trkpt>
      <trkpt lat="38.0941840" lon="-2.5608290">
        <ele>1207.4</ele>
        <time>2020-07-14T10:05:27Z</time>
      </trkpt>
      <trkpt lat="38.0942480" lon="-2.5607900">
        <ele>1207.8</ele>
        <time>2020-07-14T10:05:29Z</time>
      </trkpt>
      <trkpt lat="38.0943140" lon="-2.5607530">
        <ele>1208.0</ele>
        <time>2020-07-14T10:05:31Z</time>
      </trkpt>
      <trkpt lat="38.0944060" lon="-2.5607000">
        <ele>1208.6</ele>
        <time>2020-07-14T10:05:34Z</time>
      </trkpt>
      <trkpt lat="38.0944350" lon="-2.5606850">
        <ele>1209.0</ele>
        <time>2020-07-14T10:05:35Z</time>
      </trkpt>
      <trkpt lat="38.0945560" lon="-2.5606010">
        <ele>1210.0</ele>
        <time>2020-07-14T10:05:39Z</time>
      </trkpt>
      <trkpt lat="38.0945850" lon="-2.5605840">
        <ele>1210.0</ele>
        <time>2020-07-14T10:05:40Z</time>
      </trkpt>
      <trkpt lat="38.0947430" lon="-2.5604700">
        <ele>1210.6</ele>
        <time>2020-07-14T10:05:45Z</time>
      </trkpt>
      <trkpt lat="38.0949070" lon="-2.5603650">
        <ele>1211.0</ele>
        <time>2020-07-14T10:05:50Z</time>
      </trkpt>
      <trkpt lat="38.0950750" lon="-2.5602570">
        <ele>1211.2</ele>
        <time>2020-07-14T10:05:55Z</time>
      </trkpt>
      <trkpt lat="38.0952960" lon="-2.5601110">
        <ele>1212.2</ele>
        <time>2020-07-14T10:06:02Z</time>
      </trkpt>
      <trkpt lat="38.0953620" lon="-2.5600850">
        <ele>1212.4</ele>
        <time>2020-07-14T10:06:04Z</time>
      </trkpt>
      <trkpt lat="38.0956250" lon="-2.5600410">
        <ele>1213.2</ele>
        <time>2020-07-14T10:06:11Z</time>
      </trkpt>
      <trkpt lat="38.0956700" lon="-2.5600410">
        <ele>1213.4</ele>
        <time>2020-07-14T10:06:12Z</time>
      </trkpt>
      <trkpt lat="38.0960240" lon="-2.5600550">
        <ele>1213.4</ele>
        <time>2020-07-14T10:06:19Z</time>
      </trkpt>
      <trkpt lat="38.0962730" lon="-2.5600680">
        <ele>1212.8</ele>
        <time>2020-07-14T10:06:23Z</time>
      </trkpt>
      <trkpt lat="38.0965300" lon="-2.5600810">
        <ele>1212.6</ele>
        <time>2020-07-14T10:06:27Z</time>
      </trkpt>
      <trkpt lat="38.0967200" lon="-2.5600970">
        <ele>1212.6</ele>
        <time>2020-07-14T10:06:30Z</time>
      </trkpt>
      <trkpt lat="38.0969230" lon="-2.5601000">
        <ele>1212.4</ele>
        <time>2020-07-14T10:06:33Z</time>
      </trkpt>
      <trkpt lat="38.0971300" lon="-2.5601080">
        <ele>1212.2</ele>
        <time>2020-07-14T10:06:36Z</time>
      </trkpt>
      <trkpt lat="38.0976840" lon="-2.5601370">
        <ele>1211.8</ele>
        <time>2020-07-14T10:06:44Z</time>
      </trkpt>
      <trkpt lat="38.0978760" lon="-2.5601540">
        <ele>1211.8</ele>
        <time>2020-07-14T10:06:47Z</time>
      </trkpt>
      <trkpt lat="38.0982770" lon="-2.5601710">
        <ele>1212.0</ele>
        <time>2020-07-14T10:06:54Z</time>
      </trkpt>
      <trkpt lat="38.0985140" lon="-2.5601750">
        <ele>1212.8</ele>
        <time>2020-07-14T10:07:00Z</time>
      </trkpt>
      <trkpt lat="38.0985870" lon="-2.5601720">
        <ele>1213.4</ele>
        <time>2020-07-14T10:07:02Z</time>
      </trkpt>
      <trkpt lat="38.0986540" lon="-2.5601760">
        <ele>1214.2</ele>
        <time>2020-07-14T10:07:04Z</time>
      </trkpt>
      <trkpt lat="38.0986860" lon="-2.5601760">
        <ele>1214.6</ele>
        <time>2020-07-14T10:07:05Z</time>
      </trkpt>
      <trkpt lat="38.0987410" lon="-2.5601780">
        <ele>1215.0</ele>
        <time>2020-07-14T10:07:07Z</time>
      </trkpt>
      <trkpt lat="38.0988330" lon="-2.5601830">
        <ele>1215.4</ele>
        <time>2020-07-14T10:07:09Z</time>
      </trkpt>
      <trkpt lat="38.0988670" lon="-2.5601850">
        <ele>1215.6</ele>
        <time>2020-07-14T10:07:10Z</time>
      </trkpt>
      <trkpt lat="38.0989890" lon="-2.5601870">
        <ele>1216.8</ele>
        <time>2020-07-14T10:07:14Z</time>
      </trkpt>
      <trkpt lat="38.0991080" lon="-2.5601900">
        <ele>1217.8</ele>
        <time>2020-07-14T10:07:18Z</time>
      </trkpt>
      <trkpt lat="38.0991360" lon="-2.5601900">
        <ele>1218.0</ele>
        <time>2020-07-14T10:07:19Z</time>
      </trkpt>
      <trkpt lat="38.0992990" lon="-2.5601630">
        <ele>1219.2</ele>
        <time>2020-07-14T10:07:25Z</time>
      </trkpt>
      <trkpt lat="38.0993220" lon="-2.5601490">
        <ele>1219.4</ele>
        <time>2020-07-14T10:07:26Z</time>
      </trkpt>
      <trkpt lat="38.0994070" lon="-2.5600900">
        <ele>1220.4</ele>
        <time>2020-07-14T10:07:30Z</time>
      </trkpt>
      <trkpt lat="38.0994630" lon="-2.5600390">
        <ele>1221.0</ele>
        <time>2020-07-14T10:07:33Z</time>
      </trkpt>
      <trkpt lat="38.0995260" lon="-2.5600010">
        <ele>1221.4</ele>
        <time>2020-07-14T10:07:36Z</time>
      </trkpt>
      <trkpt lat="38.0996180" lon="-2.5599330">
        <ele>1222.4</ele>
        <time>2020-07-14T10:07:41Z</time>
      </trkpt>
      <trkpt lat="38.0996370" lon="-2.5599200">
        <ele>1222.6</ele>
        <time>2020-07-14T10:07:42Z</time>
      </trkpt>
      <trkpt lat="38.0997780" lon="-2.5598410">
        <ele>1223.8</ele>
        <time>2020-07-14T10:07:49Z</time>
      </trkpt>
      <trkpt lat="38.0998020" lon="-2.5598350">
        <ele>1223.8</ele>
        <time>2020-07-14T10:07:50Z</time>
      </trkpt>
      <trkpt lat="38.0998900" lon="-2.5598200">
        <ele>1224.8</ele>
        <time>2020-07-14T10:07:54Z</time>
      </trkpt>
      <trkpt lat="38.1000010" lon="-2.5598360">
        <ele>1226.0</ele>
        <time>2020-07-14T10:07:59Z</time>
      </trkpt>
      <trkpt lat="38.1001320" lon="-2.5598970">
        <ele>1227.0</ele>
        <time>2020-07-14T10:08:05Z</time>
      </trkpt>
      <trkpt lat="38.1001930" lon="-2.5599380">
        <ele>1227.4</ele>
        <time>2020-07-14T10:08:08Z</time>
      </trkpt>
      <trkpt lat="38.1002760" lon="-2.5599790">
        <ele>1228.0</ele>
        <time>2020-07-14T10:08:12Z</time>
      </trkpt>
      <trkpt lat="38.1003740" lon="-2.5600410">
        <ele>1229.0</ele>
        <time>2020-07-14T10:08:17Z</time>
      </trkpt>
      <trkpt lat="38.1004960" lon="-2.5601100">
        <ele>1230.2</ele>
        <time>2020-07-14T10:08:23Z</time>
      </trkpt>
      <trkpt lat="38.1005570" lon="-2.5601450">
        <ele>1230.8</ele>
        <time>2020-07-14T10:08:26Z</time>
      </trkpt>
      <trkpt lat="38.1006660" lon="-2.5602000">
        <ele>1231.4</ele>
        <time>2020-07-14T10:08:31Z</time>
      </trkpt>
      <trkpt lat="38.1007780" lon="-2.5602580">
        <ele>1232.4</ele>
        <time>2020-07-14T10:08:36Z</time>
      </trkpt>
      <trkpt lat="38.1009160" lon="-2.5603320">
        <ele>1233.6</ele>
        <time>2020-07-14T10:08:42Z</time>
      </trkpt>
      <trkpt lat="38.1010240" lon="-2.5603800">
        <ele>1234.0</ele>
        <time>2020-07-14T10:08:46Z</time>
      </trkpt>
      <trkpt lat="38.1011590" lon="-2.5604460">
        <ele>1234.6</ele>
        <time>2020-07-14T10:08:51Z</time>
      </trkpt>
      <trkpt lat="38.1013290" lon="-2.5605200">
        <ele>1235.2</ele>
        <time>2020-07-14T10:08:57Z</time>
      </trkpt>
      <trkpt lat="38.1013880" lon="-2.5605500">
        <ele>1235.8</ele>
        <time>2020-07-14T10:08:59Z</time>
      </trkpt>
      <trkpt lat="38.1016250" lon="-2.5606610">
        <ele>1236.8</ele>
        <time>2020-07-14T10:09:07Z</time>
      </trkpt>
      <trkpt lat="38.1016540" lon="-2.5606760">
        <ele>1237.0</ele>
        <time>2020-07-14T10:09:08Z</time>
      </trkpt>
      <trkpt lat="38.1018520" lon="-2.5607720">
        <ele>1237.8</ele>
        <time>2020-07-14T10:09:15Z</time>
      </trkpt>
      <trkpt lat="38.1019380" lon="-2.5608140">
        <ele>1238.2</ele>
        <time>2020-07-14T10:09:18Z</time>
      </trkpt>
      <trkpt lat="38.1020490" lon="-2.5608640">
        <ele>1239.0</ele>
        <time>2020-07-14T10:09:22Z</time>
      </trkpt>
      <trkpt lat="38.1022500" lon="-2.5609500">
        <ele>1239.6</ele>
        <time>2020-07-14T10:09:29Z</time>
      </trkpt>
      <trkpt lat="38.1023410" lon="-2.5609910">
        <ele>1240.0</ele>
        <time>2020-07-14T10:09:32Z</time>
      </trkpt>
      <trkpt lat="38.1025810" lon="-2.5611000">
        <ele>1241.0</ele>
        <time>2020-07-14T10:09:40Z</time>
      </trkpt>
      <trkpt lat="38.1026120" lon="-2.5611150">
        <ele>1241.0</ele>
        <time>2020-07-14T10:09:41Z</time>
      </trkpt>
      <trkpt lat="38.1029410" lon="-2.5613050">
        <ele>1242.0</ele>
        <time>2020-07-14T10:09:52Z</time>
      </trkpt>
      <trkpt lat="38.1031250" lon="-2.5615290">
        <ele>1242.6</ele>
        <time>2020-07-14T10:09:59Z</time>
      </trkpt>
      <trkpt lat="38.1032590" lon="-2.5617700">
        <ele>1243.2</ele>
        <time>2020-07-14T10:10:05Z</time>
      </trkpt>
      <trkpt lat="38.1033400" lon="-2.5619270">
        <ele>1243.6</ele>
        <time>2020-07-14T10:10:09Z</time>
      </trkpt>
      <trkpt lat="38.1034660" lon="-2.5621610">
        <ele>1244.2</ele>
        <time>2020-07-14T10:10:15Z</time>
      </trkpt>
      <trkpt lat="38.1035290" lon="-2.5622700">
        <ele>1244.4</ele>
        <time>2020-07-14T10:10:18Z</time>
      </trkpt>
      <trkpt lat="38.1036320" lon="-2.5624670">
        <ele>1244.8</ele>
        <time>2020-07-14T10:10:23Z</time>
      </trkpt>
      <trkpt lat="38.1036760" lon="-2.5625470">
        <ele>1245.2</ele>
        <time>2020-07-14T10:10:25Z</time>
      </trkpt>
      <trkpt lat="38.1037420" lon="-2.5626750">
        <ele>1245.8</ele>
        <time>2020-07-14T10:10:28Z</time>
      </trkpt>
      <trkpt lat="38.1038180" lon="-2.5628160">
        <ele>1246.2</ele>
        <time>2020-07-14T10:10:31Z</time>
      </trkpt>
      <trkpt lat="38.1038910" lon="-2.5629470">
        <ele>1246.6</ele>
        <time>2020-07-14T10:10:34Z</time>
      </trkpt>
      <trkpt lat="38.1040210" lon="-2.5631530">
        <ele>1247.4</ele>
        <time>2020-07-14T10:10:39Z</time>
      </trkpt>
      <trkpt lat="38.1041120" lon="-2.5632620">
        <ele>1247.8</ele>
        <time>2020-07-14T10:10:42Z</time>
      </trkpt>
      <trkpt lat="38.1041810" lon="-2.5633170">
        <ele>1248.2</ele>
        <time>2020-07-14T10:10:44Z</time>
      </trkpt>
      <trkpt lat="38.1042190" lon="-2.5633370">
        <ele>1248.4</ele>
        <time>2020-07-14T10:10:45Z</time>
      </trkpt>
      <trkpt lat="38.1042990" lon="-2.5633610">
        <ele>1248.6</ele>
        <time>2020-07-14T10:10:47Z</time>
      </trkpt>
      <trkpt lat="38.1043410" lon="-2.5633680">
        <ele>1248.8</ele>
        <time>2020-07-14T10:10:48Z</time>
      </trkpt>
      <trkpt lat="38.1045670" lon="-2.5633820">
        <ele>1249.4</ele>
        <time>2020-07-14T10:10:53Z</time>
      </trkpt>
      <trkpt lat="38.1046700" lon="-2.5633800">
        <ele>1249.4</ele>
        <time>2020-07-14T10:10:55Z</time>
      </trkpt>
      <trkpt lat="38.1051180" lon="-2.5633730">
        <ele>1249.4</ele>
        <time>2020-07-14T10:11:03Z</time>
      </trkpt>
      <trkpt lat="38.1052390" lon="-2.5633660">
        <ele>1249.4</ele>
        <time>2020-07-14T10:11:05Z</time>
      </trkpt>
      <trkpt lat="38.1054190" lon="-2.5633610">
        <ele>1249.2</ele>
        <time>2020-07-14T10:11:08Z</time>
      </trkpt>
      <trkpt lat="38.1056010" lon="-2.5633520">
        <ele>1249.0</ele>
        <time>2020-07-14T10:11:11Z</time>
      </trkpt>
      <trkpt lat="38.1057860" lon="-2.5633590">
        <ele>1249.0</ele>
        <time>2020-07-14T10:11:14Z</time>
      </trkpt>
      <trkpt lat="38.1058510" lon="-2.5633740">
        <ele>1249.0</ele>
        <time>2020-07-14T10:11:15Z</time>
      </trkpt>
      <trkpt lat="38.1060370" lon="-2.5634710">
        <ele>1248.8</ele>
        <time>2020-07-14T10:11:18Z</time>
      </trkpt>
      <trkpt lat="38.1060950" lon="-2.5635110">
        <ele>1248.6</ele>
        <time>2020-07-14T10:11:19Z</time>
      </trkpt>
      <trkpt lat="38.1062920" lon="-2.5636300">
        <ele>1248.4</ele>
        <time>2020-07-14T10:11:22Z</time>
      </trkpt>
      <trkpt lat="38.1063720" lon="-2.5636570">
        <ele>1248.2</ele>
        <time>2020-07-14T10:11:23Z</time>
      </trkpt>
      <trkpt lat="38.1064430" lon="-2.5636540">
        <ele>1248.2</ele>
        <time>2020-07-14T10:11:24Z</time>
      </trkpt>
      <trkpt lat="38.1066290" lon="-2.5635210">
        <ele>1247.6</ele>
        <time>2020-07-14T10:11:27Z</time>
      </trkpt>
      <trkpt lat="38.1066790" lon="-2.5634600">
        <ele>1247.4</ele>
        <time>2020-07-14T10:11:28Z</time>
      </trkpt>
      <trkpt lat="38.1067640" lon="-2.5633340">
        <ele>1247.2</ele>
        <time>2020-07-14T10:11:30Z</time>
      </trkpt>
      <trkpt lat="38.1068350" lon="-2.5632140">
        <ele>1247.2</ele>
        <time>2020-07-14T10:11:32Z</time>
      </trkpt>
      <trkpt lat="38.1070760" lon="-2.5628230">
        <ele>1248.0</ele>
        <time>2020-07-14T10:11:39Z</time>
      </trkpt>
      <trkpt lat="38.1071170" lon="-2.5627770">
        <ele>1248.4</ele>
        <time>2020-07-14T10:11:40Z</time>
      </trkpt>
      <trkpt lat="38.1072610" lon="-2.5626920">
        <ele>1249.0</ele>
        <time>2020-07-14T10:11:43Z</time>
      </trkpt>
      <trkpt lat="38.1073690" lon="-2.5626760">
        <ele>1249.4</ele>
        <time>2020-07-14T10:11:45Z</time>
      </trkpt>
      <trkpt lat="38.1074780" lon="-2.5626490">
        <ele>1249.6</ele>
        <time>2020-07-14T10:11:47Z</time>
      </trkpt>
      <trkpt lat="38.1076500" lon="-2.5625070">
        <ele>1249.8</ele>
        <time>2020-07-14T10:11:51Z</time>
      </trkpt>
      <trkpt lat="38.1077070" lon="-2.5623980">
        <ele>1250.0</ele>
        <time>2020-07-14T10:11:53Z</time>
      </trkpt>
      <trkpt lat="38.1077770" lon="-2.5622360">
        <ele>1250.4</ele>
        <time>2020-07-14T10:11:56Z</time>
      </trkpt>
      <trkpt lat="38.1077990" lon="-2.5621870">
        <ele>1250.6</ele>
        <time>2020-07-14T10:11:57Z</time>
      </trkpt>
      <trkpt lat="38.1078930" lon="-2.5619480">
        <ele>1251.4</ele>
        <time>2020-07-14T10:12:02Z</time>
      </trkpt>
      <trkpt lat="38.1079040" lon="-2.5619090">
        <ele>1251.6</ele>
        <time>2020-07-14T10:12:03Z</time>
      </trkpt>
      <trkpt lat="38.1079390" lon="-2.5617920">
        <ele>1252.4</ele>
        <time>2020-07-14T10:12:06Z</time>
      </trkpt>
      <trkpt lat="38.1079510" lon="-2.5617550">
        <ele>1252.8</ele>
        <time>2020-07-14T10:12:07Z</time>
      </trkpt>
      <trkpt lat="38.1079730" lon="-2.5616880">
        <ele>1253.2</ele>
        <time>2020-07-14T10:12:09Z</time>
      </trkpt>
      <trkpt lat="38.1079970" lon="-2.5616150">
        <ele>1253.8</ele>
        <time>2020-07-14T10:12:11Z</time>
      </trkpt>
      <trkpt lat="38.1080200" lon="-2.5615470">
        <ele>1254.4</ele>
        <time>2020-07-14T10:12:13Z</time>
      </trkpt>
      <trkpt lat="38.1080400" lon="-2.5614790">
        <ele>1255.0</ele>
        <time>2020-07-14T10:12:15Z</time>
      </trkpt>
      <trkpt lat="38.1080780" lon="-2.5613420">
        <ele>1256.2</ele>
        <time>2020-07-14T10:12:19Z</time>
      </trkpt>
      <trkpt lat="38.1081210" lon="-2.5612100">
        <ele>1257.0</ele>
        <time>2020-07-14T10:12:23Z</time>
      </trkpt>
      <trkpt lat="38.1081320" lon="-2.5611780">
        <ele>1257.2</ele>
        <time>2020-07-14T10:12:24Z</time>
      </trkpt>
      <trkpt lat="38.1081860" lon="-2.5610170">
        <ele>1258.4</ele>
        <time>2020-07-14T10:12:29Z</time>
      </trkpt>
      <trkpt lat="38.1082180" lon="-2.5609360">
        <ele>1259.0</ele>
        <time>2020-07-14T10:12:32Z</time>
      </trkpt>
      <trkpt lat="38.1082380" lon="-2.5608860">
        <ele>1259.4</ele>
        <time>2020-07-14T10:12:34Z</time>
      </trkpt>
      <trkpt lat="38.1082870" lon="-2.5607560">
        <ele>1260.6</ele>
        <time>2020-07-14T10:12:39Z</time>
      </trkpt>
      <trkpt lat="38.1083260" lon="-2.5606840">
        <ele>1261.4</ele>
        <time>2020-07-14T10:12:42Z</time>
      </trkpt>
      <trkpt lat="38.1083440" lon="-2.5606330">
        <ele>1261.8</ele>
        <time>2020-07-14T10:12:44Z</time>
      </trkpt>
      <trkpt lat="38.1083850" lon="-2.5605020">
        <ele>1262.4</ele>
        <time>2020-07-14T10:12:49Z</time>
      </trkpt>
      <trkpt lat="38.1084050" lon="-2.5604500">
        <ele>1262.8</ele>
        <time>2020-07-14T10:12:51Z</time>
      </trkpt>
      <trkpt lat="38.1084620" lon="-2.5603050">
        <ele>1263.8</ele>
        <time>2020-07-14T10:12:57Z</time>
      </trkpt>
      <trkpt lat="38.1084960" lon="-2.5602340">
        <ele>1264.6</ele>
        <time>2020-07-14T10:13:00Z</time>
      </trkpt>
      <trkpt lat="38.1085160" lon="-2.5601880">
        <ele>1265.0</ele>
        <time>2020-07-14T10:13:02Z</time>
      </trkpt>
      <trkpt lat="38.1085740" lon="-2.5600450">
        <ele>1266.0</ele>
        <time>2020-07-14T10:13:08Z</time>
      </trkpt>
      <trkpt lat="38.1086290" lon="-2.5599030">
        <ele>1267.2</ele>
        <time>2020-07-14T10:13:14Z</time>
      </trkpt>
      <trkpt lat="38.1086510" lon="-2.5598550">
        <ele>1267.4</ele>
        <time>2020-07-14T10:13:16Z</time>
      </trkpt>
      <trkpt lat="38.1086980" lon="-2.5597350">
        <ele>1268.2</ele>
        <time>2020-07-14T10:13:21Z</time>
      </trkpt>
      <trkpt lat="38.1087170" lon="-2.5596570">
        <ele>1269.0</ele>
        <time>2020-07-14T10:13:24Z</time>
      </trkpt>
      <trkpt lat="38.1087230" lon="-2.5596310">
        <ele>1269.2</ele>
        <time>2020-07-14T10:13:25Z</time>
      </trkpt>
      <trkpt lat="38.1087280" lon="-2.5594950">
        <ele>1270.4</ele>
        <time>2020-07-14T10:13:30Z</time>
      </trkpt>
      <trkpt lat="38.1087200" lon="-2.5594410">
        <ele>1270.8</ele>
        <time>2020-07-14T10:13:32Z</time>
      </trkpt>
      <trkpt lat="38.1086970" lon="-2.5593500">
        <ele>1271.4</ele>
        <time>2020-07-14T10:13:35Z</time>
      </trkpt>
      <trkpt lat="38.1086480" lon="-2.5592440">
        <ele>1272.2</ele>
        <time>2020-07-14T10:13:39Z</time>
      </trkpt>
      <trkpt lat="38.1086350" lon="-2.5592180">
        <ele>1272.4</ele>
        <time>2020-07-14T10:13:40Z</time>
      </trkpt>
      <trkpt lat="38.1084980" lon="-2.5590680">
        <ele>1273.6</ele>
        <time>2020-07-14T10:13:47Z</time>
      </trkpt>
      <trkpt lat="38.1083610" lon="-2.5590000">
        <ele>1274.8</ele>
        <time>2020-07-14T10:13:53Z</time>
      </trkpt>
      <trkpt lat="38.1083170" lon="-2.5589830">
        <ele>1275.0</ele>
        <time>2020-07-14T10:13:55Z</time>
      </trkpt>
      <trkpt lat="38.1082120" lon="-2.5589290">
        <ele>1276.0</ele>
        <time>2020-07-14T10:14:00Z</time>
      </trkpt>
      <trkpt lat="38.1081360" lon="-2.5588560">
        <ele>1277.0</ele>
        <time>2020-07-14T10:14:04Z</time>
      </trkpt>
      <trkpt lat="38.1081180" lon="-2.5588340">
        <ele>1277.2</ele>
        <time>2020-07-14T10:14:05Z</time>
      </trkpt>
      <trkpt lat="38.1080360" lon="-2.5587240">
        <ele>1278.2</ele>
        <time>2020-07-14T10:14:10Z</time>
      </trkpt>
      <trkpt lat="38.1080090" lon="-2.5586730">
        <ele>1278.8</ele>
        <time>2020-07-14T10:14:12Z</time>
      </trkpt>
      <trkpt lat="38.1079550" lon="-2.5585770">
        <ele>1279.4</ele>
        <time>2020-07-14T10:14:16Z</time>
      </trkpt>
      <trkpt lat="38.1078780" lon="-2.5584350">
        <ele>1280.2</ele>
        <time>2020-07-14T10:14:22Z</time>
      </trkpt>
      <trkpt lat="38.1078620" lon="-2.5584070">
        <ele>1280.4</ele>
        <time>2020-07-14T10:14:23Z</time>
      </trkpt>
      <trkpt lat="38.1077970" lon="-2.5582810">
        <ele>1281.6</ele>
        <time>2020-07-14T10:14:28Z</time>
      </trkpt>
      <trkpt lat="38.1077630" lon="-2.5581960">
        <ele>1282.4</ele>
        <time>2020-07-14T10:14:31Z</time>
      </trkpt>
      <trkpt lat="38.1077410" lon="-2.5581410">
        <ele>1282.8</ele>
        <time>2020-07-14T10:14:33Z</time>
      </trkpt>
      <trkpt lat="38.1076910" lon="-2.5579950">
        <ele>1283.8</ele>
        <time>2020-07-14T10:14:38Z</time>
      </trkpt>
      <trkpt lat="38.1076720" lon="-2.5579370">
        <ele>1284.2</ele>
        <time>2020-07-14T10:14:40Z</time>
      </trkpt>
      <trkpt lat="38.1076360" lon="-2.5577940">
        <ele>1285.0</ele>
        <time>2020-07-14T10:14:45Z</time>
      </trkpt>
      <trkpt lat="38.1076050" lon="-2.5576810">
        <ele>1286.0</ele>
        <time>2020-07-14T10:14:49Z</time>
      </trkpt>
      <trkpt lat="38.1075870" lon="-2.5576240">
        <ele>1286.6</ele>
        <time>2020-07-14T10:14:51Z</time>
      </trkpt>
      <trkpt lat="38.1075630" lon="-2.5575060">
        <ele>1287.2</ele>
        <time>2020-07-14T10:14:55Z</time>
      </trkpt>
      <trkpt lat="38.1075320" lon="-2.5573680">
        <ele>1288.2</ele>
        <time>2020-07-14T10:15:00Z</time>
      </trkpt>
      <trkpt lat="38.1075280" lon="-2.5573390">
        <ele>1288.4</ele>
        <time>2020-07-14T10:15:01Z</time>
      </trkpt>
      <trkpt lat="38.1075060" lon="-2.5571640">
        <ele>1289.6</ele>
        <time>2020-07-14T10:15:07Z</time>
      </trkpt>
      <trkpt lat="38.1075060" lon="-2.5571040">
        <ele>1290.2</ele>
        <time>2020-07-14T10:15:09Z</time>
      </trkpt>
      <trkpt lat="38.1075140" lon="-2.5570380">
        <ele>1290.6</ele>
        <time>2020-07-14T10:15:11Z</time>
      </trkpt>
      <trkpt lat="38.1075640" lon="-2.5569290">
        <ele>1291.6</ele>
        <time>2020-07-14T10:15:15Z</time>
      </trkpt>
      <trkpt lat="38.1077090" lon="-2.5568110">
        <ele>1292.6</ele>
        <time>2020-07-14T10:15:22Z</time>
      </trkpt>
      <trkpt lat="38.1078550" lon="-2.5567300">
        <ele>1293.8</ele>
        <time>2020-07-14T10:15:28Z</time>
      </trkpt>
      <trkpt lat="38.1078960" lon="-2.5566870">
        <ele>1294.0</ele>
        <time>2020-07-14T10:15:30Z</time>
      </trkpt>
      <trkpt lat="38.1079460" lon="-2.5565920">
        <ele>1294.8</ele>
        <time>2020-07-14T10:15:34Z</time>
      </trkpt>
      <trkpt lat="38.1079610" lon="-2.5565330">
        <ele>1295.2</ele>
        <time>2020-07-14T10:15:36Z</time>
      </trkpt>
      <trkpt lat="38.1079690" lon="-2.5564510">
        <ele>1295.8</ele>
        <time>2020-07-14T10:15:39Z</time>
      </trkpt>
      <trkpt lat="38.1079760" lon="-2.5563360">
        <ele>1297.2</ele>
        <time>2020-07-14T10:15:43Z</time>
      </trkpt>
      <trkpt lat="38.1079890" lon="-2.5562450">
        <ele>1297.6</ele>
        <time>2020-07-14T10:15:46Z</time>
      </trkpt>
      <trkpt lat="38.1080170" lon="-2.5561590">
        <ele>1298.2</ele>
        <time>2020-07-14T10:15:49Z</time>
      </trkpt>
      <trkpt lat="38.1080730" lon="-2.5560480">
        <ele>1299.4</ele>
        <time>2020-07-14T10:15:53Z</time>
      </trkpt>
      <trkpt lat="38.1080890" lon="-2.5560250">
        <ele>1299.6</ele>
        <time>2020-07-14T10:15:54Z</time>
      </trkpt>
      <trkpt lat="38.1081870" lon="-2.5559240">
        <ele>1300.6</ele>
        <time>2020-07-14T10:15:59Z</time>
      </trkpt>
      <trkpt lat="38.1082790" lon="-2.5558520">
        <ele>1301.4</ele>
        <time>2020-07-14T10:16:03Z</time>
      </trkpt>
      <trkpt lat="38.1083480" lon="-2.5557990">
        <ele>1301.8</ele>
        <time>2020-07-14T10:16:06Z</time>
      </trkpt>
      <trkpt lat="38.1085180" lon="-2.5556590">
        <ele>1302.8</ele>
        <time>2020-07-14T10:16:14Z</time>
      </trkpt>
      <trkpt lat="38.1085410" lon="-2.5556420">
        <ele>1303.0</ele>
        <time>2020-07-14T10:16:15Z</time>
      </trkpt>
      <trkpt lat="38.1086830" lon="-2.5555330">
        <ele>1304.2</ele>
        <time>2020-07-14T10:16:21Z</time>
      </trkpt>
      <trkpt lat="38.1087350" lon="-2.5555030">
        <ele>1304.4</ele>
        <time>2020-07-14T10:16:23Z</time>
      </trkpt>
      <trkpt lat="38.1088410" lon="-2.5554570">
        <ele>1305.2</ele>
        <time>2020-07-14T10:16:27Z</time>
      </trkpt>
      <trkpt lat="38.1089790" lon="-2.5554030">
        <ele>1306.2</ele>
        <time>2020-07-14T10:16:32Z</time>
      </trkpt>
      <trkpt lat="38.1090330" lon="-2.5553920">
        <ele>1306.4</ele>
        <time>2020-07-14T10:16:34Z</time>
      </trkpt>
      <trkpt lat="38.1091470" lon="-2.5553740">
        <ele>1307.6</ele>
        <time>2020-07-14T10:16:38Z</time>
      </trkpt>
      <trkpt lat="38.1092300" lon="-2.5553790">
        <ele>1308.2</ele>
        <time>2020-07-14T10:16:41Z</time>
      </trkpt>
      <trkpt lat="38.1093100" lon="-2.5554110">
        <ele>1308.6</ele>
        <time>2020-07-14T10:16:44Z</time>
      </trkpt>
      <trkpt lat="38.1093940" lon="-2.5555020">
        <ele>1309.6</ele>
        <time>2020-07-14T10:16:48Z</time>
      </trkpt>
      <trkpt lat="38.1094080" lon="-2.5555290">
        <ele>1309.8</ele>
        <time>2020-07-14T10:16:49Z</time>
      </trkpt>
      <trkpt lat="38.1094610" lon="-2.5557270">
        <ele>1310.6</ele>
        <time>2020-07-14T10:16:55Z</time>
      </trkpt>
      <trkpt lat="38.1094650" lon="-2.5557610">
        <ele>1311.0</ele>
        <time>2020-07-14T10:16:56Z</time>
      </trkpt>
      <trkpt lat="38.1094710" lon="-2.5559010">
        <ele>1312.0</ele>
        <time>2020-07-14T10:17:00Z</time>
      </trkpt>
      <trkpt lat="38.1094690" lon="-2.5560290">
        <ele>1313.0</ele>
        <time>2020-07-14T10:17:04Z</time>
      </trkpt>
      <trkpt lat="38.1094700" lon="-2.5561030">
        <ele>1313.2</ele>
        <time>2020-07-14T10:17:06Z</time>
      </trkpt>
      <trkpt lat="38.1094710" lon="-2.5562670">
        <ele>1314.0</ele>
        <time>2020-07-14T10:17:11Z</time>
      </trkpt>
      <trkpt lat="38.1094760" lon="-2.5563980">
        <ele>1314.8</ele>
        <time>2020-07-14T10:17:15Z</time>
      </trkpt>
      <trkpt lat="38.1094670" lon="-2.5565000">
        <ele>1315.0</ele>
        <time>2020-07-14T10:17:18Z</time>
      </trkpt>
      <trkpt lat="38.1094680" lon="-2.5566650">
        <ele>1316.0</ele>
        <time>2020-07-14T10:17:23Z</time>
      </trkpt>
      <trkpt lat="38.1094760" lon="-2.5568280">
        <ele>1317.2</ele>
        <time>2020-07-14T10:17:28Z</time>
      </trkpt>
      <trkpt lat="38.1094890" lon="-2.5569340">
        <ele>1317.8</ele>
        <time>2020-07-14T10:17:31Z</time>
      </trkpt>
      <trkpt lat="38.1095090" lon="-2.5569970">
        <ele>1318.2</ele>
        <time>2020-07-14T10:17:33Z</time>
      </trkpt>
      <trkpt lat="38.1095700" lon="-2.5570680">
        <ele>1318.8</ele>
        <time>2020-07-14T10:17:36Z</time>
      </trkpt>
      <trkpt lat="38.1096800" lon="-2.5570950">
        <ele>1319.4</ele>
        <time>2020-07-14T10:17:40Z</time>
      </trkpt>
      <trkpt lat="38.1097100" lon="-2.5570910">
        <ele>1319.8</ele>
        <time>2020-07-14T10:17:41Z</time>
      </trkpt>
      <trkpt lat="38.1098280" lon="-2.5570680">
        <ele>1320.4</ele>
        <time>2020-07-14T10:17:45Z</time>
      </trkpt>
      <trkpt lat="38.1098950" lon="-2.5569970">
        <ele>1321.0</ele>
        <time>2020-07-14T10:17:48Z</time>
      </trkpt>
      <trkpt lat="38.1099170" lon="-2.5568770">
        <ele>1321.6</ele>
        <time>2020-07-14T10:17:51Z</time>
      </trkpt>
      <trkpt lat="38.1099020" lon="-2.5567470">
        <ele>1322.0</ele>
        <time>2020-07-14T10:17:54Z</time>
      </trkpt>
      <trkpt lat="38.1098640" lon="-2.5565190">
        <ele>1322.4</ele>
        <time>2020-07-14T10:17:59Z</time>
      </trkpt>
      <trkpt lat="38.1098450" lon="-2.5564350">
        <ele>1322.2</ele>
        <time>2020-07-14T10:18:01Z</time>
      </trkpt>
      <trkpt lat="38.1098280" lon="-2.5563340">
        <ele>1322.0</ele>
        <time>2020-07-14T10:18:04Z</time>
      </trkpt>
      <trkpt lat="38.1098110" lon="-2.5562130">
        <ele>1321.8</ele>
        <time>2020-07-14T10:18:07Z</time>
      </trkpt>
      <trkpt lat="38.1098020" lon="-2.5561320">
        <ele>1321.8</ele>
        <time>2020-07-14T10:18:09Z</time>
      </trkpt>
      <trkpt lat="38.1097980" lon="-2.5560380">
        <ele>1321.8</ele>
        <time>2020-07-14T10:18:11Z</time>
      </trkpt>
      <trkpt lat="38.1097900" lon="-2.5559430">
        <ele>1321.8</ele>
        <time>2020-07-14T10:18:13Z</time>
      </trkpt>
      <trkpt lat="38.1097890" lon="-2.5558970">
        <ele>1321.8</ele>
        <time>2020-07-14T10:18:14Z</time>
      </trkpt>
      <trkpt lat="38.1097970" lon="-2.5557850">
        <ele>1321.6</ele>
        <time>2020-07-14T10:18:16Z</time>
      </trkpt>
      <trkpt lat="38.1098120" lon="-2.5555940">
        <ele>1321.2</ele>
        <time>2020-07-14T10:18:19Z</time>
      </trkpt>
      <trkpt lat="38.1098340" lon="-2.5552960">
        <ele>1320.6</ele>
        <time>2020-07-14T10:18:23Z</time>
      </trkpt>
      <trkpt lat="38.1098420" lon="-2.5552230">
        <ele>1320.4</ele>
        <time>2020-07-14T10:18:24Z</time>
      </trkpt>
      <trkpt lat="38.1098580" lon="-2.5550580">
        <ele>1320.0</ele>
        <time>2020-07-14T10:18:26Z</time>
      </trkpt>
      <trkpt lat="38.1098670" lon="-2.5547320">
        <ele>1319.2</ele>
        <time>2020-07-14T10:18:30Z</time>
      </trkpt>
      <trkpt lat="38.1098800" lon="-2.5545720">
        <ele>1319.2</ele>
        <time>2020-07-14T10:18:32Z</time>
      </trkpt>
      <trkpt lat="38.1099050" lon="-2.5543360">
        <ele>1319.0</ele>
        <time>2020-07-14T10:18:35Z</time>
      </trkpt>
      <trkpt lat="38.1099240" lon="-2.5541830">
        <ele>1319.0</ele>
        <time>2020-07-14T10:18:37Z</time>
      </trkpt>
      <trkpt lat="38.1099480" lon="-2.5539840">
        <ele>1319.0</ele>
        <time>2020-07-14T10:18:40Z</time>
      </trkpt>
      <trkpt lat="38.1099680" lon="-2.5537550">
        <ele>1318.8</ele>
        <time>2020-07-14T10:18:45Z</time>
      </trkpt>
      <trkpt lat="38.1099620" lon="-2.5536500">
        <ele>1318.8</ele>
        <time>2020-07-14T10:18:49Z</time>
      </trkpt>
      <trkpt lat="38.1099690" lon="-2.5536200">
        <ele>1318.8</ele>
        <time>2020-07-14T10:18:50Z</time>
      </trkpt>
      <trkpt lat="38.1099710" lon="-2.5535170">
        <ele>1318.8</ele>
        <time>2020-07-14T10:18:54Z</time>
      </trkpt>
      <trkpt lat="38.1099780" lon="-2.5534730">
        <ele>1318.8</ele>
        <time>2020-07-14T10:18:56Z</time>
      </trkpt>
      <trkpt lat="38.1100450" lon="-2.5533600">
        <ele>1318.8</ele>
        <time>2020-07-14T10:19:01Z</time>
      </trkpt>
      <trkpt lat="38.1101030" lon="-2.5532640">
        <ele>1318.6</ele>
        <time>2020-07-14T10:19:05Z</time>
      </trkpt>
      <trkpt lat="38.1101600" lon="-2.5531950">
        <ele>1318.2</ele>
        <time>2020-07-14T10:19:09Z</time>
      </trkpt>
      <trkpt lat="38.1101680" lon="-2.5531870">
        <ele>1317.8</ele>
        <time>2020-07-14T10:19:12Z</time>
      </trkpt>
      <trkpt lat="38.1101910" lon="-2.5531900">
        <ele>1317.4</ele>
        <time>2020-07-14T10:19:27Z</time>
      </trkpt>
      <trkpt lat="38.1101920" lon="-2.5532060">
        <ele>1317.4</ele>
        <time>2020-07-14T10:19:28Z</time>
      </trkpt>
      <trkpt lat="38.1101870" lon="-2.5532260">
        <ele>1317.6</ele>
        <time>2020-07-14T10:19:31Z</time>
      </trkpt>
      <trkpt lat="38.1101380" lon="-2.5532330">
        <ele>1317.6</ele>
        <time>2020-07-14T10:19:37Z</time>
      </trkpt>
      <trkpt lat="38.1101220" lon="-2.5532470">
        <ele>1317.6</ele>
        <time>2020-07-14T10:19:38Z</time>
      </trkpt>
      <trkpt lat="38.1100930" lon="-2.5532950">
        <ele>1317.8</ele>
        <time>2020-07-14T10:19:40Z</time>
      </trkpt>
      <trkpt lat="38.1100670" lon="-2.5533530">
        <ele>1318.0</ele>
        <time>2020-07-14T10:19:42Z</time>
      </trkpt>
      <trkpt lat="38.1100400" lon="-2.5534110">
        <ele>1318.2</ele>
        <time>2020-07-14T10:19:44Z</time>
      </trkpt>
      <trkpt lat="38.1099740" lon="-2.5536740">
        <ele>1319.2</ele>
        <time>2020-07-14T10:19:52Z</time>
      </trkpt>
      <trkpt lat="38.1099680" lon="-2.5537470">
        <ele>1319.4</ele>
        <time>2020-07-14T10:19:54Z</time>
      </trkpt>
      <trkpt lat="38.1099520" lon="-2.5539270">
        <ele>1319.4</ele>
        <time>2020-07-14T10:19:59Z</time>
      </trkpt>
      <trkpt lat="38.1099460" lon="-2.5539530">
        <ele>1319.2</ele>
        <time>2020-07-14T10:20:02Z</time>
      </trkpt>
      <trkpt lat="38.1114680" lon="-2.5521820">
        <ele>1306.4</ele>
        <time>2020-07-15T04:53:45Z</time>
      </trkpt>
      <trkpt lat="38.1114690" lon="-2.5521820">
        <ele>1306.4</ele>
        <time>2020-07-15T04:53:46Z</time>
      </trkpt>
      <trkpt lat="38.1114000" lon="-2.5522620">
        <ele>1312.8</ele>
        <time>2020-07-15T04:54:00Z</time>
      </trkpt>
      <trkpt lat="38.1113600" lon="-2.5522780">
        <ele>1312.8</ele>
        <time>2020-07-15T04:54:02Z</time>
      </trkpt>
      <trkpt lat="38.1113280" lon="-2.5522790">
        <ele>1312.6</ele>
        <time>2020-07-15T04:54:04Z</time>
      </trkpt>
      <trkpt lat="38.1112640" lon="-2.5522860">
        <ele>1312.4</ele>
        <time>2020-07-15T04:54:07Z</time>
      </trkpt>
      <trkpt lat="38.1111520" lon="-2.5522900">
        <ele>1312.4</ele>
        <time>2020-07-15T04:54:12Z</time>
      </trkpt>
      <trkpt lat="38.1111300" lon="-2.5522900">
        <ele>1312.2</ele>
        <time>2020-07-15T04:54:13Z</time>
      </trkpt>
      <trkpt lat="38.1111300" lon="-2.5522900">
        <ele>1312.2</ele>
        <time>2020-07-15T04:54:14Z</time>
      </trkpt>
      <trkpt lat="38.1111300" lon="-2.5522900">
        <ele>1312.0</ele>
        <time>2020-07-15T04:54:16Z</time>
      </trkpt>
      <trkpt lat="38.1111300" lon="-2.5522900">
        <ele>1311.8</ele>
        <time>2020-07-15T04:54:17Z</time>
      </trkpt>
      <trkpt lat="38.1111300" lon="-2.5522900">
        <ele>1310.6</ele>
        <time>2020-07-15T04:54:20Z</time>
      </trkpt>
      <trkpt lat="38.1109080" lon="-2.5523700">
        <ele>1309.6</ele>
        <time>2020-07-15T04:54:23Z</time>
      </trkpt>
      <trkpt lat="38.1109000" lon="-2.5523690">
        <ele>1309.2</ele>
        <time>2020-07-15T04:54:25Z</time>
      </trkpt>
      <trkpt lat="38.1109180" lon="-2.5523770">
        <ele>1308.6</ele>
        <time>2020-07-15T04:54:27Z</time>
      </trkpt>
      <trkpt lat="38.1109340" lon="-2.5524130">
        <ele>1307.8</ele>
        <time>2020-07-15T04:54:30Z</time>
      </trkpt>
      <trkpt lat="38.1109270" lon="-2.5524650">
        <ele>1307.6</ele>
        <time>2020-07-15T04:54:40Z</time>
      </trkpt>
      <trkpt lat="38.1109050" lon="-2.5524610">
        <ele>1307.6</ele>
        <time>2020-07-15T04:54:41Z</time>
      </trkpt>
      <trkpt lat="38.1108850" lon="-2.5524550">
        <ele>1307.4</ele>
        <time>2020-07-15T04:54:42Z</time>
      </trkpt>
      <trkpt lat="38.1108620" lon="-2.5524680">
        <ele>1307.4</ele>
        <time>2020-07-15T04:54:44Z</time>
      </trkpt>
      <trkpt lat="38.1108400" lon="-2.5525240">
        <ele>1307.4</ele>
        <time>2020-07-15T04:54:46Z</time>
      </trkpt>
      <trkpt lat="38.1108050" lon="-2.5525790">
        <ele>1307.4</ele>
        <time>2020-07-15T04:54:48Z</time>
      </trkpt>
      <trkpt lat="38.1107420" lon="-2.5526340">
        <ele>1307.6</ele>
        <time>2020-07-15T04:54:51Z</time>
      </trkpt>
      <trkpt lat="38.1107220" lon="-2.5526540">
        <ele>1307.8</ele>
        <time>2020-07-15T04:54:52Z</time>
      </trkpt>
      <trkpt lat="38.1106150" lon="-2.5527660">
        <ele>1308.2</ele>
        <time>2020-07-15T04:54:58Z</time>
      </trkpt>
      <trkpt lat="38.1105480" lon="-2.5528310">
        <ele>1308.6</ele>
        <time>2020-07-15T04:55:01Z</time>
      </trkpt>
      <trkpt lat="38.1104780" lon="-2.5529100">
        <ele>1308.8</ele>
        <time>2020-07-15T04:55:04Z</time>
      </trkpt>
      <trkpt lat="38.1104530" lon="-2.5529390">
        <ele>1309.0</ele>
        <time>2020-07-15T04:55:05Z</time>
      </trkpt>
      <trkpt lat="38.1103790" lon="-2.5530090">
        <ele>1309.4</ele>
        <time>2020-07-15T04:55:08Z</time>
      </trkpt>
      <trkpt lat="38.1103520" lon="-2.5530340">
        <ele>1309.6</ele>
        <time>2020-07-15T04:55:09Z</time>
      </trkpt>
      <trkpt lat="38.1102780" lon="-2.5531010">
        <ele>1310.2</ele>
        <time>2020-07-15T04:55:12Z</time>
      </trkpt>
      <trkpt lat="38.1102570" lon="-2.5531230">
        <ele>1310.4</ele>
        <time>2020-07-15T04:55:13Z</time>
      </trkpt>
      <trkpt lat="38.1102320" lon="-2.5531460">
        <ele>1310.6</ele>
        <time>2020-07-15T04:55:14Z</time>
      </trkpt>
      <trkpt lat="38.1101250" lon="-2.5532760">
        <ele>1311.4</ele>
        <time>2020-07-15T04:55:19Z</time>
      </trkpt>
      <trkpt lat="38.1101040" lon="-2.5533020">
        <ele>1311.6</ele>
        <time>2020-07-15T04:55:20Z</time>
      </trkpt>
      <trkpt lat="38.1100820" lon="-2.5533280">
        <ele>1311.8</ele>
        <time>2020-07-15T04:55:21Z</time>
      </trkpt>
      <trkpt lat="38.1099910" lon="-2.5535100">
        <ele>1312.6</ele>
        <time>2020-07-15T04:55:27Z</time>
      </trkpt>
      <trkpt lat="38.1099760" lon="-2.5535850">
        <ele>1313.0</ele>
        <time>2020-07-15T04:55:29Z</time>
      </trkpt>
      <trkpt lat="38.1099580" lon="-2.5537410">
        <ele>1313.2</ele>
        <time>2020-07-15T04:55:33Z</time>
      </trkpt>
      <trkpt lat="38.1099610" lon="-2.5539950">
        <ele>1313.4</ele>
        <time>2020-07-15T04:55:39Z</time>
      </trkpt>
      <trkpt lat="38.1099260" lon="-2.5543240">
        <ele>1313.6</ele>
        <time>2020-07-15T04:55:46Z</time>
      </trkpt>
      <trkpt lat="38.1098860" lon="-2.5547580">
        <ele>1313.6</ele>
        <time>2020-07-15T04:55:55Z</time>
      </trkpt>
      <trkpt lat="38.1098810" lon="-2.5548070">
        <ele>1313.6</ele>
        <time>2020-07-15T04:55:56Z</time>
      </trkpt>
      <trkpt lat="38.1098670" lon="-2.5550510">
        <ele>1313.6</ele>
        <time>2020-07-15T04:56:01Z</time>
      </trkpt>
      <trkpt lat="38.1098600" lon="-2.5551410">
        <ele>1313.8</ele>
        <time>2020-07-15T04:56:03Z</time>
      </trkpt>
      <trkpt lat="38.1098500" lon="-2.5552300">
        <ele>1314.0</ele>
        <time>2020-07-15T04:56:05Z</time>
      </trkpt>
      <trkpt lat="38.1098280" lon="-2.5555370">
        <ele>1314.4</ele>
        <time>2020-07-15T04:56:12Z</time>
      </trkpt>
      <trkpt lat="38.1098220" lon="-2.5557510">
        <ele>1315.0</ele>
        <time>2020-07-15T04:56:17Z</time>
      </trkpt>
      <trkpt lat="38.1098220" lon="-2.5557940">
        <ele>1315.0</ele>
        <time>2020-07-15T04:56:18Z</time>
      </trkpt>
      <trkpt lat="38.1098180" lon="-2.5559690">
        <ele>1315.6</ele>
        <time>2020-07-15T04:56:22Z</time>
      </trkpt>
      <trkpt lat="38.1098270" lon="-2.5561510">
        <ele>1316.2</ele>
        <time>2020-07-15T04:56:26Z</time>
      </trkpt>
      <trkpt lat="38.1098490" lon="-2.5562870">
        <ele>1316.4</ele>
        <time>2020-07-15T04:56:29Z</time>
      </trkpt>
      <trkpt lat="38.1099320" lon="-2.5567460">
        <ele>1317.0</ele>
        <time>2020-07-15T04:56:39Z</time>
      </trkpt>
      <trkpt lat="38.1099470" lon="-2.5568340">
        <ele>1317.2</ele>
        <time>2020-07-15T04:56:41Z</time>
      </trkpt>
      <trkpt lat="38.1100200" lon="-2.5570970">
        <ele>1317.6</ele>
        <time>2020-07-15T04:56:47Z</time>
      </trkpt>
      <trkpt lat="38.1100370" lon="-2.5571340">
        <ele>1317.6</ele>
        <time>2020-07-15T04:56:48Z</time>
      </trkpt>
      <trkpt lat="38.1100990" lon="-2.5572790">
        <ele>1318.2</ele>
        <time>2020-07-15T04:56:52Z</time>
      </trkpt>
      <trkpt lat="38.1101540" lon="-2.5574220">
        <ele>1318.8</ele>
        <time>2020-07-15T04:56:56Z</time>
      </trkpt>
      <trkpt lat="38.1101870" lon="-2.5575310">
        <ele>1319.2</ele>
        <time>2020-07-15T04:56:59Z</time>
      </trkpt>
      <trkpt lat="38.1102260" lon="-2.5576700">
        <ele>1320.0</ele>
        <time>2020-07-15T04:57:03Z</time>
      </trkpt>
      <trkpt lat="38.1102310" lon="-2.5576880">
        <ele>1320.2</ele>
        <time>2020-07-15T04:57:04Z</time>
      </trkpt>
      <trkpt lat="38.1102930" lon="-2.5579030">
        <ele>1321.4</ele>
        <time>2020-07-15T04:57:10Z</time>
      </trkpt>
      <trkpt lat="38.1103110" lon="-2.5579700">
        <ele>1321.8</ele>
        <time>2020-07-15T04:57:12Z</time>
      </trkpt>
      <trkpt lat="38.1103400" lon="-2.5580690">
        <ele>1322.4</ele>
        <time>2020-07-15T04:57:15Z</time>
      </trkpt>
      <trkpt lat="38.1103570" lon="-2.5581360">
        <ele>1322.8</ele>
        <time>2020-07-15T04:57:17Z</time>
      </trkpt>
      <trkpt lat="38.1103850" lon="-2.5582350">
        <ele>1323.4</ele>
        <time>2020-07-15T04:57:20Z</time>
      </trkpt>
      <trkpt lat="38.1103930" lon="-2.5582670">
        <ele>1323.6</ele>
        <time>2020-07-15T04:57:21Z</time>
      </trkpt>
      <trkpt lat="38.1104330" lon="-2.5584810">
        <ele>1324.6</ele>
        <time>2020-07-15T04:57:27Z</time>
      </trkpt>
      <trkpt lat="38.1104330" lon="-2.5585180">
        <ele>1324.8</ele>
        <time>2020-07-15T04:57:28Z</time>
      </trkpt>
      <trkpt lat="38.1104160" lon="-2.5588370">
        <ele>1325.6</ele>
        <time>2020-07-15T04:57:36Z</time>
      </trkpt>
      <trkpt lat="38.1104040" lon="-2.5588770">
        <ele>1325.8</ele>
        <time>2020-07-15T04:57:37Z</time>
      </trkpt>
      <trkpt lat="38.1102800" lon="-2.5592780">
        <ele>1326.4</ele>
        <time>2020-07-15T04:57:47Z</time>
      </trkpt>
      <trkpt lat="38.1101970" lon="-2.5595340">
        <ele>1326.6</ele>
        <time>2020-07-15T04:57:53Z</time>
      </trkpt>
      <trkpt lat="38.1101650" lon="-2.5596340">
        <ele>1326.6</ele>
        <time>2020-07-15T04:57:55Z</time>
      </trkpt>
      <trkpt lat="38.1100830" lon="-2.5599130">
        <ele>1326.2</ele>
        <time>2020-07-15T04:58:00Z</time>
      </trkpt>
      <trkpt lat="38.1100520" lon="-2.5600490">
        <ele>1326.0</ele>
        <time>2020-07-15T04:58:02Z</time>
      </trkpt>
      <trkpt lat="38.1100150" lon="-2.5601940">
        <ele>1325.6</ele>
        <time>2020-07-15T04:58:04Z</time>
      </trkpt>
      <trkpt lat="38.1099970" lon="-2.5602690">
        <ele>1325.4</ele>
        <time>2020-07-15T04:58:05Z</time>
      </trkpt>
      <trkpt lat="38.1099460" lon="-2.5605000">
        <ele>1324.8</ele>
        <time>2020-07-15T04:58:08Z</time>
      </trkpt>
      <trkpt lat="38.1099280" lon="-2.5605950">
        <ele>1324.6</ele>
        <time>2020-07-15T04:58:09Z</time>
      </trkpt>
      <trkpt lat="38.1099110" lon="-2.5606810">
        <ele>1324.4</ele>
        <time>2020-07-15T04:58:10Z</time>
      </trkpt>
      <trkpt lat="38.1098680" lon="-2.5609290">
        <ele>1323.8</ele>
        <time>2020-07-15T04:58:13Z</time>
      </trkpt>
      <trkpt lat="38.1098570" lon="-2.5610160">
        <ele>1323.6</ele>
        <time>2020-07-15T04:58:14Z</time>
      </trkpt>
      <trkpt lat="38.1098340" lon="-2.5612560">
        <ele>1323.2</ele>
        <time>2020-07-15T04:58:17Z</time>
      </trkpt>
      <trkpt lat="38.1098250" lon="-2.5614850">
        <ele>1323.0</ele>
        <time>2020-07-15T04:58:20Z</time>
      </trkpt>
      <trkpt lat="38.1098300" lon="-2.5615540">
        <ele>1323.0</ele>
        <time>2020-07-15T04:58:21Z</time>
      </trkpt>
      <trkpt lat="38.1098410" lon="-2.5616230">
        <ele>1323.0</ele>
        <time>2020-07-15T04:58:22Z</time>
      </trkpt>
      <trkpt lat="38.1098980" lon="-2.5618910">
        <ele>1323.4</ele>
        <time>2020-07-15T04:58:26Z</time>
      </trkpt>
      <trkpt lat="38.1099360" lon="-2.5620000">
        <ele>1323.8</ele>
        <time>2020-07-15T04:58:28Z</time>
      </trkpt>
      <trkpt lat="38.1099580" lon="-2.5620550">
        <ele>1323.8</ele>
        <time>2020-07-15T04:58:29Z</time>
      </trkpt>
      <trkpt lat="38.1099860" lon="-2.5621080">
        <ele>1324.0</ele>
        <time>2020-07-15T04:58:30Z</time>
      </trkpt>
      <trkpt lat="38.1100660" lon="-2.5622510">
        <ele>1324.6</ele>
        <time>2020-07-15T04:58:33Z</time>
      </trkpt>
      <trkpt lat="38.1101220" lon="-2.5623390">
        <ele>1325.2</ele>
        <time>2020-07-15T04:58:35Z</time>
      </trkpt>
      <trkpt lat="38.1102020" lon="-2.5624450">
        <ele>1325.6</ele>
        <time>2020-07-15T04:58:38Z</time>
      </trkpt>
      <trkpt lat="38.1102320" lon="-2.5624780">
        <ele>1325.8</ele>
        <time>2020-07-15T04:58:39Z</time>
      </trkpt>
      <trkpt lat="38.1103150" lon="-2.5625640">
        <ele>1326.4</ele>
        <time>2020-07-15T04:58:42Z</time>
      </trkpt>
      <trkpt lat="38.1103700" lon="-2.5626160">
        <ele>1326.8</ele>
        <time>2020-07-15T04:58:44Z</time>
      </trkpt>
      <trkpt lat="38.1104410" lon="-2.5626960">
        <ele>1327.4</ele>
        <time>2020-07-15T04:58:47Z</time>
      </trkpt>
      <trkpt lat="38.1105110" lon="-2.5627760">
        <ele>1328.0</ele>
        <time>2020-07-15T04:58:50Z</time>
      </trkpt>
      <trkpt lat="38.1106020" lon="-2.5628830">
        <ele>1328.8</ele>
        <time>2020-07-15T04:58:54Z</time>
      </trkpt>
      <trkpt lat="38.1106420" lon="-2.5629400">
        <ele>1329.2</ele>
        <time>2020-07-15T04:58:56Z</time>
      </trkpt>
      <trkpt lat="38.1106630" lon="-2.5629660">
        <ele>1329.4</ele>
        <time>2020-07-15T04:58:57Z</time>
      </trkpt>
      <trkpt lat="38.1107540" lon="-2.5631050">
        <ele>1330.0</ele>
        <time>2020-07-15T04:59:02Z</time>
      </trkpt>
      <trkpt lat="38.1107680" lon="-2.5631310">
        <ele>1330.2</ele>
        <time>2020-07-15T04:59:03Z</time>
      </trkpt>
      <trkpt lat="38.1107850" lon="-2.5631620">
        <ele>1330.4</ele>
        <time>2020-07-15T04:59:04Z</time>
      </trkpt>
      <trkpt lat="38.1108610" lon="-2.5632990">
        <ele>1331.4</ele>
        <time>2020-07-15T04:59:09Z</time>
      </trkpt>
      <trkpt lat="38.1108870" lon="-2.5633550">
        <ele>1331.6</ele>
        <time>2020-07-15T04:59:11Z</time>
      </trkpt>
      <trkpt lat="38.1109430" lon="-2.5634700">
        <ele>1332.4</ele>
        <time>2020-07-15T04:59:15Z</time>
      </trkpt>
      <trkpt lat="38.1110150" lon="-2.5636250">
        <ele>1333.4</ele>
        <time>2020-07-15T04:59:20Z</time>
      </trkpt>
      <trkpt lat="38.1110960" lon="-2.5638040">
        <ele>1334.6</ele>
        <time>2020-07-15T04:59:26Z</time>
      </trkpt>
      <trkpt lat="38.1111070" lon="-2.5638340">
        <ele>1334.6</ele>
        <time>2020-07-15T04:59:27Z</time>
      </trkpt>
      <trkpt lat="38.1111740" lon="-2.5639690">
        <ele>1335.6</ele>
        <time>2020-07-15T04:59:32Z</time>
      </trkpt>
      <trkpt lat="38.1112460" lon="-2.5640960">
        <ele>1336.6</ele>
        <time>2020-07-15T04:59:37Z</time>
      </trkpt>
      <trkpt lat="38.1112600" lon="-2.5641200">
        <ele>1336.8</ele>
        <time>2020-07-15T04:59:38Z</time>
      </trkpt>
      <trkpt lat="38.1113510" lon="-2.5642600">
        <ele>1337.8</ele>
        <time>2020-07-15T04:59:44Z</time>
      </trkpt>
      <trkpt lat="38.1113810" lon="-2.5643040">
        <ele>1338.2</ele>
        <time>2020-07-15T04:59:46Z</time>
      </trkpt>
      <trkpt lat="38.1114500" lon="-2.5644160">
        <ele>1339.0</ele>
        <time>2020-07-15T04:59:51Z</time>
      </trkpt>
      <trkpt lat="38.1114970" lon="-2.5644790">
        <ele>1339.6</ele>
        <time>2020-07-15T04:59:54Z</time>
      </trkpt>
      <trkpt lat="38.1115420" lon="-2.5645430">
        <ele>1340.2</ele>
        <time>2020-07-15T04:59:57Z</time>
      </trkpt>
      <trkpt lat="38.1116360" lon="-2.5646660">
        <ele>1341.4</ele>
        <time>2020-07-15T05:00:03Z</time>
      </trkpt>
      <trkpt lat="38.1117330" lon="-2.5647920">
        <ele>1342.4</ele>
        <time>2020-07-15T05:00:09Z</time>
      </trkpt>
      <trkpt lat="38.1117640" lon="-2.5648300">
        <ele>1342.8</ele>
        <time>2020-07-15T05:00:11Z</time>
      </trkpt>
      <trkpt lat="38.1118310" lon="-2.5649090">
        <ele>1343.6</ele>
        <time>2020-07-15T05:00:15Z</time>
      </trkpt>
      <trkpt lat="38.1119330" lon="-2.5650260">
        <ele>1344.6</ele>
        <time>2020-07-15T05:00:21Z</time>
      </trkpt>
      <trkpt lat="38.1120160" lon="-2.5651300">
        <ele>1345.6</ele>
        <time>2020-07-15T05:00:26Z</time>
      </trkpt>
      <trkpt lat="38.1121210" lon="-2.5652510">
        <ele>1346.8</ele>
        <time>2020-07-15T05:00:32Z</time>
      </trkpt>
      <trkpt lat="38.1121530" lon="-2.5652920">
        <ele>1347.0</ele>
        <time>2020-07-15T05:00:34Z</time>
      </trkpt>
      <trkpt lat="38.1122210" lon="-2.5653710">
        <ele>1347.8</ele>
        <time>2020-07-15T05:00:38Z</time>
      </trkpt>
      <trkpt lat="38.1123260" lon="-2.5654870">
        <ele>1349.0</ele>
        <time>2020-07-15T05:00:44Z</time>
      </trkpt>
      <trkpt lat="38.1124260" lon="-2.5655990">
        <ele>1350.0</ele>
        <time>2020-07-15T05:00:50Z</time>
      </trkpt>
      <trkpt lat="38.1124770" lon="-2.5656550">
        <ele>1350.6</ele>
        <time>2020-07-15T05:00:53Z</time>
      </trkpt>
      <trkpt lat="38.1125310" lon="-2.5657130">
        <ele>1351.2</ele>
        <time>2020-07-15T05:00:56Z</time>
      </trkpt>
      <trkpt lat="38.1126470" lon="-2.5658250">
        <ele>1352.2</ele>
        <time>2020-07-15T05:01:02Z</time>
      </trkpt>
      <trkpt lat="38.1127260" lon="-2.5658950">
        <ele>1352.8</ele>
        <time>2020-07-15T05:01:06Z</time>
      </trkpt>
      <trkpt lat="38.1127630" lon="-2.5659320">
        <ele>1353.2</ele>
        <time>2020-07-15T05:01:08Z</time>
      </trkpt>
      <trkpt lat="38.1127630" lon="-2.5659320">
        <ele>1353.8</ele>
        <time>2020-07-15T05:01:11Z</time>
      </trkpt>
      <trkpt lat="38.1128890" lon="-2.5660260">
        <ele>1354.4</ele>
        <time>2020-07-15T05:01:14Z</time>
      </trkpt>
      <trkpt lat="38.1129310" lon="-2.5660570">
        <ele>1354.8</ele>
        <time>2020-07-15T05:01:16Z</time>
      </trkpt>
      <trkpt lat="38.1129960" lon="-2.5660990">
        <ele>1355.6</ele>
        <time>2020-07-15T05:01:19Z</time>
      </trkpt>
      <trkpt lat="38.1131220" lon="-2.5661760">
        <ele>1356.6</ele>
        <time>2020-07-15T05:01:25Z</time>
      </trkpt>
      <trkpt lat="38.1131640" lon="-2.5662020">
        <ele>1357.0</ele>
        <time>2020-07-15T05:01:27Z</time>
      </trkpt>
      <trkpt lat="38.1132500" lon="-2.5662400">
        <ele>1357.8</ele>
        <time>2020-07-15T05:01:31Z</time>
      </trkpt>
      <trkpt lat="38.1133610" lon="-2.5662900">
        <ele>1358.8</ele>
        <time>2020-07-15T05:01:36Z</time>
      </trkpt>
      <trkpt lat="38.1134710" lon="-2.5663320">
        <ele>1359.8</ele>
        <time>2020-07-15T05:01:41Z</time>
      </trkpt>
      <trkpt lat="38.1135630" lon="-2.5663530">
        <ele>1360.6</ele>
        <time>2020-07-15T05:01:45Z</time>
      </trkpt>
      <trkpt lat="38.1136080" lon="-2.5663640">
        <ele>1361.0</ele>
        <time>2020-07-15T05:01:47Z</time>
      </trkpt>
      <trkpt lat="38.1137390" lon="-2.5663970">
        <ele>1362.0</ele>
        <time>2020-07-15T05:01:53Z</time>
      </trkpt>
      <trkpt lat="38.1137630" lon="-2.5664030">
        <ele>1362.2</ele>
        <time>2020-07-15T05:01:54Z</time>
      </trkpt>
      <trkpt lat="38.1138740" lon="-2.5664290">
        <ele>1363.2</ele>
        <time>2020-07-15T05:01:59Z</time>
      </trkpt>
      <trkpt lat="38.1139940" lon="-2.5664570">
        <ele>1364.2</ele>
        <time>2020-07-15T05:02:04Z</time>
      </trkpt>
      <trkpt lat="38.1140180" lon="-2.5664640">
        <ele>1364.4</ele>
        <time>2020-07-15T05:02:05Z</time>
      </trkpt>
      <trkpt lat="38.1141590" lon="-2.5664980">
        <ele>1365.4</ele>
        <time>2020-07-15T05:02:11Z</time>
      </trkpt>
      <trkpt lat="38.1142970" lon="-2.5665240">
        <ele>1366.6</ele>
        <time>2020-07-15T05:02:17Z</time>
      </trkpt>
      <trkpt lat="38.1144370" lon="-2.5665600">
        <ele>1367.8</ele>
        <time>2020-07-15T05:02:23Z</time>
      </trkpt>
      <trkpt lat="38.1145620" lon="-2.5665850">
        <ele>1368.8</ele>
        <time>2020-07-15T05:02:28Z</time>
      </trkpt>
      <trkpt lat="38.1145890" lon="-2.5665900">
        <ele>1369.0</ele>
        <time>2020-07-15T05:02:29Z</time>
      </trkpt>
      <trkpt lat="38.1146860" lon="-2.5666120">
        <ele>1370.0</ele>
        <time>2020-07-15T05:02:33Z</time>
      </trkpt>
      <trkpt lat="38.1148120" lon="-2.5666520">
        <ele>1370.8</ele>
        <time>2020-07-15T05:02:38Z</time>
      </trkpt>
      <trkpt lat="38.1148370" lon="-2.5666600">
        <ele>1371.2</ele>
        <time>2020-07-15T05:02:39Z</time>
      </trkpt>
      <trkpt lat="38.1149780" lon="-2.5667220">
        <ele>1372.2</ele>
        <time>2020-07-15T05:02:45Z</time>
      </trkpt>
      <trkpt lat="38.1149980" lon="-2.5667350">
        <ele>1372.4</ele>
        <time>2020-07-15T05:02:46Z</time>
      </trkpt>
      <trkpt lat="38.1151030" lon="-2.5668140">
        <ele>1373.4</ele>
        <time>2020-07-15T05:02:51Z</time>
      </trkpt>
      <trkpt lat="38.1151610" lon="-2.5668700">
        <ele>1374.0</ele>
        <time>2020-07-15T05:02:54Z</time>
      </trkpt>
      <trkpt lat="38.1152140" lon="-2.5669330">
        <ele>1374.4</ele>
        <time>2020-07-15T05:02:57Z</time>
      </trkpt>
      <trkpt lat="38.1152750" lon="-2.5670680">
        <ele>1375.4</ele>
        <time>2020-07-15T05:03:02Z</time>
      </trkpt>
      <trkpt lat="38.1152850" lon="-2.5670950">
        <ele>1375.6</ele>
        <time>2020-07-15T05:03:03Z</time>
      </trkpt>
      <trkpt lat="38.1153200" lon="-2.5672640">
        <ele>1376.6</ele>
        <time>2020-07-15T05:03:09Z</time>
      </trkpt>
      <trkpt lat="38.1153220" lon="-2.5672940">
        <ele>1376.8</ele>
        <time>2020-07-15T05:03:10Z</time>
      </trkpt>
      <trkpt lat="38.1153250" lon="-2.5674430">
        <ele>1377.8</ele>
        <time>2020-07-15T05:03:15Z</time>
      </trkpt>
      <trkpt lat="38.1153060" lon="-2.5675570">
        <ele>1378.6</ele>
        <time>2020-07-15T05:03:19Z</time>
      </trkpt>
      <trkpt lat="38.1153000" lon="-2.5676130">
        <ele>1379.0</ele>
        <time>2020-07-15T05:03:21Z</time>
      </trkpt>
      <trkpt lat="38.1152680" lon="-2.5677960">
        <ele>1380.0</ele>
        <time>2020-07-15T05:03:27Z</time>
      </trkpt>
      <trkpt lat="38.1152160" lon="-2.5679680">
        <ele>1381.0</ele>
        <time>2020-07-15T05:03:33Z</time>
      </trkpt>
      <trkpt lat="38.1151970" lon="-2.5680520">
        <ele>1381.6</ele>
        <time>2020-07-15T05:03:36Z</time>
      </trkpt>
      <trkpt lat="38.1151710" lon="-2.5681370">
        <ele>1382.2</ele>
        <time>2020-07-15T05:03:39Z</time>
      </trkpt>
      <trkpt lat="38.1151380" lon="-2.5683090">
        <ele>1383.2</ele>
        <time>2020-07-15T05:03:45Z</time>
      </trkpt>
      <trkpt lat="38.1151270" lon="-2.5684890">
        <ele>1384.4</ele>
        <time>2020-07-15T05:03:51Z</time>
      </trkpt>
      <trkpt lat="38.1151300" lon="-2.5685410">
        <ele>1384.6</ele>
        <time>2020-07-15T05:03:53Z</time>
      </trkpt>
      <trkpt lat="38.1151450" lon="-2.5686540">
        <ele>1385.4</ele>
        <time>2020-07-15T05:03:57Z</time>
      </trkpt>
      <trkpt lat="38.1151850" lon="-2.5687800">
        <ele>1386.4</ele>
        <time>2020-07-15T05:04:02Z</time>
      </trkpt>
      <trkpt lat="38.1151930" lon="-2.5688050">
        <ele>1386.8</ele>
        <time>2020-07-15T05:04:03Z</time>
      </trkpt>
      <trkpt lat="38.1152450" lon="-2.5689370">
        <ele>1387.6</ele>
        <time>2020-07-15T05:04:08Z</time>
      </trkpt>
      <trkpt lat="38.1153000" lon="-2.5690460">
        <ele>1388.6</ele>
        <time>2020-07-15T05:04:12Z</time>
      </trkpt>
      <trkpt lat="38.1153130" lon="-2.5690730">
        <ele>1388.8</ele>
        <time>2020-07-15T05:04:13Z</time>
      </trkpt>
      <trkpt lat="38.1153870" lon="-2.5692240">
        <ele>1389.8</ele>
        <time>2020-07-15T05:04:18Z</time>
      </trkpt>
      <trkpt lat="38.1154550" lon="-2.5693670">
        <ele>1391.0</ele>
        <time>2020-07-15T05:04:23Z</time>
      </trkpt>
      <trkpt lat="38.1154860" lon="-2.5694280">
        <ele>1391.4</ele>
        <time>2020-07-15T05:04:25Z</time>
      </trkpt>
      <trkpt lat="38.1155280" lon="-2.5695130">
        <ele>1392.0</ele>
        <time>2020-07-15T05:04:28Z</time>
      </trkpt>
      <trkpt lat="38.1155990" lon="-2.5696560">
        <ele>1393.2</ele>
        <time>2020-07-15T05:04:33Z</time>
      </trkpt>
      <trkpt lat="38.1156890" lon="-2.5698320">
        <ele>1394.4</ele>
        <time>2020-07-15T05:04:39Z</time>
      </trkpt>
      <trkpt lat="38.1157750" lon="-2.5700000">
        <ele>1395.6</ele>
        <time>2020-07-15T05:04:45Z</time>
      </trkpt>
      <trkpt lat="38.1158260" lon="-2.5701200">
        <ele>1396.2</ele>
        <time>2020-07-15T05:04:49Z</time>
      </trkpt>
      <trkpt lat="38.1158570" lon="-2.5701750">
        <ele>1396.6</ele>
        <time>2020-07-15T05:04:51Z</time>
      </trkpt>
      <trkpt lat="38.1159370" lon="-2.5703550">
        <ele>1397.4</ele>
        <time>2020-07-15T05:04:57Z</time>
      </trkpt>
      <trkpt lat="38.1159490" lon="-2.5703850">
        <ele>1397.6</ele>
        <time>2020-07-15T05:04:58Z</time>
      </trkpt>
      <trkpt lat="38.1160400" lon="-2.5706530">
        <ele>1398.6</ele>
        <time>2020-07-15T05:05:06Z</time>
      </trkpt>
      <trkpt lat="38.1160830" lon="-2.5707950">
        <ele>1399.0</ele>
        <time>2020-07-15T05:05:10Z</time>
      </trkpt>
      <trkpt lat="38.1161290" lon="-2.5710230">
        <ele>1399.6</ele>
        <time>2020-07-15T05:05:16Z</time>
      </trkpt>
      <trkpt lat="38.1161570" lon="-2.5711860">
        <ele>1400.0</ele>
        <time>2020-07-15T05:05:20Z</time>
      </trkpt>
      <trkpt lat="38.1161870" lon="-2.5714090">
        <ele>1400.2</ele>
        <time>2020-07-15T05:05:25Z</time>
      </trkpt>
      <trkpt lat="38.1162160" lon="-2.5715960">
        <ele>1400.6</ele>
        <time>2020-07-15T05:05:29Z</time>
      </trkpt>
      <trkpt lat="38.1162220" lon="-2.5716480">
        <ele>1400.6</ele>
        <time>2020-07-15T05:05:30Z</time>
      </trkpt>
      <trkpt lat="38.1162630" lon="-2.5719080">
        <ele>1400.6</ele>
        <time>2020-07-15T05:05:35Z</time>
      </trkpt>
      <trkpt lat="38.1163010" lon="-2.5721350">
        <ele>1400.6</ele>
        <time>2020-07-15T05:05:39Z</time>
      </trkpt>
      <trkpt lat="38.1163420" lon="-2.5724460">
        <ele>1400.4</ele>
        <time>2020-07-15T05:05:44Z</time>
      </trkpt>
      <trkpt lat="38.1163710" lon="-2.5726530">
        <ele>1400.2</ele>
        <time>2020-07-15T05:05:47Z</time>
      </trkpt>
      <trkpt lat="38.1164260" lon="-2.5730420">
        <ele>1399.4</ele>
        <time>2020-07-15T05:05:52Z</time>
      </trkpt>
      <trkpt lat="38.1164480" lon="-2.5732150">
        <ele>1399.0</ele>
        <time>2020-07-15T05:05:54Z</time>
      </trkpt>
      <trkpt lat="38.1164880" lon="-2.5734740">
        <ele>1398.6</ele>
        <time>2020-07-15T05:05:57Z</time>
      </trkpt>
      <trkpt lat="38.1165250" lon="-2.5737410">
        <ele>1398.0</ele>
        <time>2020-07-15T05:06:00Z</time>
      </trkpt>
      <trkpt lat="38.1165600" lon="-2.5739240">
        <ele>1397.8</ele>
        <time>2020-07-15T05:06:02Z</time>
      </trkpt>
      <trkpt lat="38.1165810" lon="-2.5740130">
        <ele>1397.6</ele>
        <time>2020-07-15T05:06:03Z</time>
      </trkpt>
      <trkpt lat="38.1166370" lon="-2.5742000">
        <ele>1397.2</ele>
        <time>2020-07-15T05:06:05Z</time>
      </trkpt>
      <trkpt lat="38.1167500" lon="-2.5744600">
        <ele>1396.2</ele>
        <time>2020-07-15T05:06:08Z</time>
      </trkpt>
      <trkpt lat="38.1169910" lon="-2.5748560">
        <ele>1395.2</ele>
        <time>2020-07-15T05:06:13Z</time>
      </trkpt>
      <trkpt lat="38.1170930" lon="-2.5750110">
        <ele>1394.8</ele>
        <time>2020-07-15T05:06:15Z</time>
      </trkpt>
      <trkpt lat="38.1172330" lon="-2.5752430">
        <ele>1394.0</ele>
        <time>2020-07-15T05:06:18Z</time>
      </trkpt>
      <trkpt lat="38.1173130" lon="-2.5754210">
        <ele>1393.2</ele>
        <time>2020-07-15T05:06:20Z</time>
      </trkpt>
      <trkpt lat="38.1173590" lon="-2.5756070">
        <ele>1393.0</ele>
        <time>2020-07-15T05:06:22Z</time>
      </trkpt>
      <trkpt lat="38.1173900" lon="-2.5759070">
        <ele>1392.8</ele>
        <time>2020-07-15T05:06:25Z</time>
      </trkpt>
      <trkpt lat="38.1173930" lon="-2.5760070">
        <ele>1392.8</ele>
        <time>2020-07-15T05:06:26Z</time>
      </trkpt>
      <trkpt lat="38.1173930" lon="-2.5761070">
        <ele>1392.6</ele>
        <time>2020-07-15T05:06:27Z</time>
      </trkpt>
      <trkpt lat="38.1173870" lon="-2.5764080">
        <ele>1391.8</ele>
        <time>2020-07-15T05:06:30Z</time>
      </trkpt>
      <trkpt lat="38.1174130" lon="-2.5768090">
        <ele>1391.0</ele>
        <time>2020-07-15T05:06:34Z</time>
      </trkpt>
      <trkpt lat="38.1174260" lon="-2.5768930">
        <ele>1390.6</ele>
        <time>2020-07-15T05:06:35Z</time>
      </trkpt>
      <trkpt lat="38.1175070" lon="-2.5771790">
        <ele>1389.6</ele>
        <time>2020-07-15T05:06:38Z</time>
      </trkpt>
      <trkpt lat="38.1175440" lon="-2.5772700">
        <ele>1389.4</ele>
        <time>2020-07-15T05:06:39Z</time>
      </trkpt>
      <trkpt lat="38.1176740" lon="-2.5774960">
        <ele>1388.6</ele>
        <time>2020-07-15T05:06:42Z</time>
      </trkpt>
      <trkpt lat="38.1177210" lon="-2.5775580">
        <ele>1388.4</ele>
        <time>2020-07-15T05:06:43Z</time>
      </trkpt>
      <trkpt lat="38.1177750" lon="-2.5776210">
        <ele>1388.4</ele>
        <time>2020-07-15T05:06:44Z</time>
      </trkpt>
      <trkpt lat="38.1179800" lon="-2.5778170">
        <ele>1387.6</ele>
        <time>2020-07-15T05:06:48Z</time>
      </trkpt>
      <trkpt lat="38.1180800" lon="-2.5779090">
        <ele>1387.6</ele>
        <time>2020-07-15T05:06:50Z</time>
      </trkpt>
      <trkpt lat="38.1181750" lon="-2.5779790">
        <ele>1387.6</ele>
        <time>2020-07-15T05:06:52Z</time>
      </trkpt>
      <trkpt lat="38.1182710" lon="-2.5780550">
        <ele>1388.0</ele>
        <time>2020-07-15T05:06:54Z</time>
      </trkpt>
      <trkpt lat="38.1183130" lon="-2.5780920">
        <ele>1388.0</ele>
        <time>2020-07-15T05:06:55Z</time>
      </trkpt>
      <trkpt lat="38.1183910" lon="-2.5781600">
        <ele>1388.4</ele>
        <time>2020-07-15T05:06:57Z</time>
      </trkpt>
      <trkpt lat="38.1184960" lon="-2.5782540">
        <ele>1389.0</ele>
        <time>2020-07-15T05:07:00Z</time>
      </trkpt>
      <trkpt lat="38.1185600" lon="-2.5783130">
        <ele>1389.6</ele>
        <time>2020-07-15T05:07:02Z</time>
      </trkpt>
      <trkpt lat="38.1186270" lon="-2.5784010">
        <ele>1390.2</ele>
        <time>2020-07-15T05:07:05Z</time>
      </trkpt>
      <trkpt lat="38.1186490" lon="-2.5784260">
        <ele>1390.4</ele>
        <time>2020-07-15T05:07:06Z</time>
      </trkpt>
      <trkpt lat="38.1186930" lon="-2.5784760">
        <ele>1390.8</ele>
        <time>2020-07-15T05:07:08Z</time>
      </trkpt>
      <trkpt lat="38.1187310" lon="-2.5785300">
        <ele>1391.4</ele>
        <time>2020-07-15T05:07:10Z</time>
      </trkpt>
      <trkpt lat="38.1187660" lon="-2.5785880">
        <ele>1391.8</ele>
        <time>2020-07-15T05:07:12Z</time>
      </trkpt>
      <trkpt lat="38.1187840" lon="-2.5786140">
        <ele>1392.0</ele>
        <time>2020-07-15T05:07:13Z</time>
      </trkpt>
      <trkpt lat="38.1188250" lon="-2.5786650">
        <ele>1392.4</ele>
        <time>2020-07-15T05:07:15Z</time>
      </trkpt>
      <trkpt lat="38.1188870" lon="-2.5787370">
        <ele>1393.0</ele>
        <time>2020-07-15T05:07:18Z</time>
      </trkpt>
      <trkpt lat="38.1189080" lon="-2.5787640">
        <ele>1393.2</ele>
        <time>2020-07-15T05:07:19Z</time>
      </trkpt>
      <trkpt lat="38.1189680" lon="-2.5788400">
        <ele>1393.6</ele>
        <time>2020-07-15T05:07:22Z</time>
      </trkpt>
      <trkpt lat="38.1190800" lon="-2.5789510">
        <ele>1394.2</ele>
        <time>2020-07-15T05:07:27Z</time>
      </trkpt>
      <trkpt lat="38.1191120" lon="-2.5789770">
        <ele>1394.4</ele>
        <time>2020-07-15T05:07:28Z</time>
      </trkpt>
      <trkpt lat="38.1192850" lon="-2.5791020">
        <ele>1395.4</ele>
        <time>2020-07-15T05:07:34Z</time>
      </trkpt>
      <trkpt lat="38.1193420" lon="-2.5791410">
        <ele>1395.8</ele>
        <time>2020-07-15T05:07:36Z</time>
      </trkpt>
      <trkpt lat="38.1195530" lon="-2.5792730">
        <ele>1396.4</ele>
        <time>2020-07-15T05:07:43Z</time>
      </trkpt>
      <trkpt lat="38.1196220" lon="-2.5793080">
        <ele>1396.6</ele>
        <time>2020-07-15T05:07:45Z</time>
      </trkpt>
      <trkpt lat="38.1199590" lon="-2.5794110">
        <ele>1397.0</ele>
        <time>2020-07-15T05:07:54Z</time>
      </trkpt>
      <trkpt lat="38.1203270" lon="-2.5794640">
        <ele>1397.2</ele>
        <time>2020-07-15T05:08:03Z</time>
      </trkpt>
      <trkpt lat="38.1204560" lon="-2.5794970">
        <ele>1397.4</ele>
        <time>2020-07-15T05:08:06Z</time>
      </trkpt>
      <trkpt lat="38.1206300" lon="-2.5795540">
        <ele>1397.6</ele>
        <time>2020-07-15T05:08:10Z</time>
      </trkpt>
      <trkpt lat="38.1206780" lon="-2.5795700">
        <ele>1397.6</ele>
        <time>2020-07-15T05:08:11Z</time>
      </trkpt>
      <trkpt lat="38.1208090" lon="-2.5796280">
        <ele>1397.6</ele>
        <time>2020-07-15T05:08:14Z</time>
      </trkpt>
      <trkpt lat="38.1209500" lon="-2.5797000">
        <ele>1397.6</ele>
        <time>2020-07-15T05:08:17Z</time>
      </trkpt>
      <trkpt lat="38.1209910" lon="-2.5797220">
        <ele>1397.6</ele>
        <time>2020-07-15T05:08:18Z</time>
      </trkpt>
      <trkpt lat="38.1210770" lon="-2.5797720">
        <ele>1397.8</ele>
        <time>2020-07-15T05:08:20Z</time>
      </trkpt>
      <trkpt lat="38.1212290" lon="-2.5798760">
        <ele>1397.8</ele>
        <time>2020-07-15T05:08:24Z</time>
      </trkpt>
      <trkpt lat="38.1213000" lon="-2.5799310">
        <ele>1398.0</ele>
        <time>2020-07-15T05:08:26Z</time>
      </trkpt>
      <trkpt lat="38.1214790" lon="-2.5800420">
        <ele>1398.4</ele>
        <time>2020-07-15T05:08:31Z</time>
      </trkpt>
      <trkpt lat="38.1216110" lon="-2.5801150">
        <ele>1399.0</ele>
        <time>2020-07-15T05:08:35Z</time>
      </trkpt>
      <trkpt lat="38.1217420" lon="-2.5801800">
        <ele>1399.6</ele>
        <time>2020-07-15T05:08:39Z</time>
      </trkpt>
      <trkpt lat="38.1218300" lon="-2.5802280">
        <ele>1400.2</ele>
        <time>2020-07-15T05:08:42Z</time>
      </trkpt>
      <trkpt lat="38.1218570" lon="-2.5802460">
        <ele>1400.4</ele>
        <time>2020-07-15T05:08:43Z</time>
      </trkpt>
      <trkpt lat="38.1219060" lon="-2.5802950">
        <ele>1400.8</ele>
        <time>2020-07-15T05:08:45Z</time>
      </trkpt>
      <trkpt lat="38.1219620" lon="-2.5803830">
        <ele>1401.4</ele>
        <time>2020-07-15T05:08:48Z</time>
      </trkpt>
      <trkpt lat="38.1219810" lon="-2.5804530">
        <ele>1401.8</ele>
        <time>2020-07-15T05:08:50Z</time>
      </trkpt>
      <trkpt lat="38.1219800" lon="-2.5805620">
        <ele>1402.6</ele>
        <time>2020-07-15T05:08:53Z</time>
      </trkpt>
      <trkpt lat="38.1219660" lon="-2.5806350">
        <ele>1403.0</ele>
        <time>2020-07-15T05:08:55Z</time>
      </trkpt>
      <trkpt lat="38.1219120" lon="-2.5807200">
        <ele>1403.6</ele>
        <time>2020-07-15T05:08:58Z</time>
      </trkpt>
      <trkpt lat="38.1218620" lon="-2.5807960">
        <ele>1404.2</ele>
        <time>2020-07-15T05:09:01Z</time>
      </trkpt>
      <trkpt lat="38.1217960" lon="-2.5808400">
        <ele>1405.0</ele>
        <time>2020-07-15T05:09:04Z</time>
      </trkpt>
      <trkpt lat="38.1217720" lon="-2.5808490">
        <ele>1405.2</ele>
        <time>2020-07-15T05:09:05Z</time>
      </trkpt>
      <trkpt lat="38.1216480" lon="-2.5808740">
        <ele>1406.4</ele>
        <time>2020-07-15T05:09:10Z</time>
      </trkpt>
      <trkpt lat="38.1216250" lon="-2.5808740">
        <ele>1406.6</ele>
        <time>2020-07-15T05:09:11Z</time>
      </trkpt>
      <trkpt lat="38.1215260" lon="-2.5808740">
        <ele>1407.6</ele>
        <time>2020-07-15T05:09:15Z</time>
      </trkpt>
      <trkpt lat="38.1214520" lon="-2.5808780">
        <ele>1408.2</ele>
        <time>2020-07-15T05:09:18Z</time>
      </trkpt>
      <trkpt lat="38.1214010" lon="-2.5808780">
        <ele>1408.6</ele>
        <time>2020-07-15T05:09:20Z</time>
      </trkpt>
      <trkpt lat="38.1212740" lon="-2.5808830">
        <ele>1409.6</ele>
        <time>2020-07-15T05:09:25Z</time>
      </trkpt>
      <trkpt lat="38.1212500" lon="-2.5808820">
        <ele>1409.8</ele>
        <time>2020-07-15T05:09:26Z</time>
      </trkpt>
      <trkpt lat="38.1211280" lon="-2.5808800">
        <ele>1410.8</ele>
        <time>2020-07-15T05:09:31Z</time>
      </trkpt>
      <trkpt lat="38.1211040" lon="-2.5808820">
        <ele>1411.0</ele>
        <time>2020-07-15T05:09:32Z</time>
      </trkpt>
      <trkpt lat="38.1210050" lon="-2.5808810">
        <ele>1412.0</ele>
        <time>2020-07-15T05:09:36Z</time>
      </trkpt>
      <trkpt lat="38.1209550" lon="-2.5808780">
        <ele>1412.4</ele>
        <time>2020-07-15T05:09:38Z</time>
      </trkpt>
      <trkpt lat="38.1208510" lon="-2.5808770">
        <ele>1413.2</ele>
        <time>2020-07-15T05:09:42Z</time>
      </trkpt>
      <trkpt lat="38.1207270" lon="-2.5808780">
        <ele>1414.4</ele>
        <time>2020-07-15T05:09:47Z</time>
      </trkpt>
      <trkpt lat="38.1207040" lon="-2.5808750">
        <ele>1414.6</ele>
        <time>2020-07-15T05:09:48Z</time>
      </trkpt>
      <trkpt lat="38.1206050" lon="-2.5808500">
        <ele>1415.6</ele>
        <time>2020-07-15T05:09:52Z</time>
      </trkpt>
      <trkpt lat="38.1205330" lon="-2.5808330">
        <ele>1416.2</ele>
        <time>2020-07-15T05:09:55Z</time>
      </trkpt>
      <trkpt lat="38.1204620" lon="-2.5808130">
        <ele>1416.8</ele>
        <time>2020-07-15T05:09:58Z</time>
      </trkpt>
      <trkpt lat="38.1203160" lon="-2.5807630">
        <ele>1417.8</ele>
        <time>2020-07-15T05:10:04Z</time>
      </trkpt>
      <trkpt lat="38.1202670" lon="-2.5807490">
        <ele>1418.2</ele>
        <time>2020-07-15T05:10:06Z</time>
      </trkpt>
      <trkpt lat="38.1201690" lon="-2.5807310">
        <ele>1418.8</ele>
        <time>2020-07-15T05:10:10Z</time>
      </trkpt>
      <trkpt lat="38.1200480" lon="-2.5807430">
        <ele>1419.8</ele>
        <time>2020-07-15T05:10:15Z</time>
      </trkpt>
      <trkpt lat="38.1200240" lon="-2.5807470">
        <ele>1420.0</ele>
        <time>2020-07-15T05:10:16Z</time>
      </trkpt>
      <trkpt lat="38.1199200" lon="-2.5808140">
        <ele>1421.0</ele>
        <time>2020-07-15T05:10:21Z</time>
      </trkpt>
      <trkpt lat="38.1198840" lon="-2.5808500">
        <ele>1421.6</ele>
        <time>2020-07-15T05:10:23Z</time>
      </trkpt>
      <trkpt lat="38.1198490" lon="-2.5808940">
        <ele>1422.0</ele>
        <time>2020-07-15T05:10:25Z</time>
      </trkpt>
      <trkpt lat="38.1197770" lon="-2.5810480">
        <ele>1423.2</ele>
        <time>2020-07-15T05:10:31Z</time>
      </trkpt>
      <trkpt lat="38.1197540" lon="-2.5811950">
        <ele>1424.2</ele>
        <time>2020-07-15T05:10:36Z</time>
      </trkpt>
      <trkpt lat="38.1197510" lon="-2.5812240">
        <ele>1424.4</ele>
        <time>2020-07-15T05:10:37Z</time>
      </trkpt>
      <trkpt lat="38.1197500" lon="-2.5813580">
        <ele>1425.4</ele>
        <time>2020-07-15T05:10:42Z</time>
      </trkpt>
      <trkpt lat="38.1197550" lon="-2.5814450">
        <ele>1426.0</ele>
        <time>2020-07-15T05:10:45Z</time>
      </trkpt>
      <trkpt lat="38.1197610" lon="-2.5815020">
        <ele>1426.6</ele>
        <time>2020-07-15T05:10:47Z</time>
      </trkpt>
      <trkpt lat="38.1197770" lon="-2.5816570">
        <ele>1427.6</ele>
        <time>2020-07-15T05:10:52Z</time>
      </trkpt>
      <trkpt lat="38.1197920" lon="-2.5817790">
        <ele>1428.4</ele>
        <time>2020-07-15T05:10:56Z</time>
      </trkpt>
      <trkpt lat="38.1197960" lon="-2.5818080">
        <ele>1428.6</ele>
        <time>2020-07-15T05:10:57Z</time>
      </trkpt>
      <trkpt lat="38.1198160" lon="-2.5819850">
        <ele>1429.6</ele>
        <time>2020-07-15T05:11:03Z</time>
      </trkpt>
      <trkpt lat="38.1198200" lon="-2.5820440">
        <ele>1430.0</ele>
        <time>2020-07-15T05:11:05Z</time>
      </trkpt>
      <trkpt lat="38.1198280" lon="-2.5821640">
        <ele>1430.8</ele>
        <time>2020-07-15T05:11:09Z</time>
      </trkpt>
      <trkpt lat="38.1198270" lon="-2.5823120">
        <ele>1431.8</ele>
        <time>2020-07-15T05:11:14Z</time>
      </trkpt>
      <trkpt lat="38.1198290" lon="-2.5823710">
        <ele>1432.2</ele>
        <time>2020-07-15T05:11:16Z</time>
      </trkpt>
      <trkpt lat="38.1198260" lon="-2.5825160">
        <ele>1433.0</ele>
        <time>2020-07-15T05:11:21Z</time>
      </trkpt>
      <trkpt lat="38.1198200" lon="-2.5826050">
        <ele>1433.4</ele>
        <time>2020-07-15T05:11:24Z</time>
      </trkpt>
      <trkpt lat="38.1198170" lon="-2.5827190">
        <ele>1434.0</ele>
        <time>2020-07-15T05:11:28Z</time>
      </trkpt>
      <trkpt lat="38.1198420" lon="-2.5829270">
        <ele>1435.0</ele>
        <time>2020-07-15T05:11:35Z</time>
      </trkpt>
      <trkpt lat="38.1199100" lon="-2.5831230">
        <ele>1436.2</ele>
        <time>2020-07-15T05:11:42Z</time>
      </trkpt>
      <trkpt lat="38.1199530" lon="-2.5831960">
        <ele>1436.8</ele>
        <time>2020-07-15T05:11:45Z</time>
      </trkpt>
      <trkpt lat="38.1200060" lon="-2.5832590">
        <ele>1437.4</ele>
        <time>2020-07-15T05:11:48Z</time>
      </trkpt>
      <trkpt lat="38.1201090" lon="-2.5833430">
        <ele>1438.4</ele>
        <time>2020-07-15T05:11:53Z</time>
      </trkpt>
      <trkpt lat="38.1202460" lon="-2.5834040">
        <ele>1439.6</ele>
        <time>2020-07-15T05:11:59Z</time>
      </trkpt>
      <trkpt lat="38.1203190" lon="-2.5834290">
        <ele>1440.2</ele>
        <time>2020-07-15T05:12:02Z</time>
      </trkpt>
      <trkpt lat="38.1203670" lon="-2.5834410">
        <ele>1440.6</ele>
        <time>2020-07-15T05:12:04Z</time>
      </trkpt>
      <trkpt lat="38.1205120" lon="-2.5834720">
        <ele>1441.8</ele>
        <time>2020-07-15T05:12:10Z</time>
      </trkpt>
      <trkpt lat="38.1205370" lon="-2.5834750">
        <ele>1442.0</ele>
        <time>2020-07-15T05:12:11Z</time>
      </trkpt>
      <trkpt lat="38.1205850" lon="-2.5834810">
        <ele>1442.4</ele>
        <time>2020-07-15T05:12:13Z</time>
      </trkpt>
      <trkpt lat="38.1206580" lon="-2.5834940">
        <ele>1443.0</ele>
        <time>2020-07-15T05:12:16Z</time>
      </trkpt>
      <trkpt lat="38.1208010" lon="-2.5835380">
        <ele>1444.0</ele>
        <time>2020-07-15T05:12:22Z</time>
      </trkpt>
      <trkpt lat="38.1208240" lon="-2.5835460">
        <ele>1444.2</ele>
        <time>2020-07-15T05:12:23Z</time>
      </trkpt>
      <trkpt lat="38.1209430" lon="-2.5835910">
        <ele>1445.2</ele>
        <time>2020-07-15T05:12:28Z</time>
      </trkpt>
      <trkpt lat="38.1210790" lon="-2.5836630">
        <ele>1446.2</ele>
        <time>2020-07-15T05:12:34Z</time>
      </trkpt>
      <trkpt lat="38.1212030" lon="-2.5837660">
        <ele>1447.4</ele>
        <time>2020-07-15T05:12:40Z</time>
      </trkpt>
      <trkpt lat="38.1212860" lon="-2.5838390">
        <ele>1447.8</ele>
        <time>2020-07-15T05:12:44Z</time>
      </trkpt>
      <trkpt lat="38.1213440" lon="-2.5838970">
        <ele>1448.4</ele>
        <time>2020-07-15T05:12:47Z</time>
      </trkpt>
      <trkpt lat="38.1214480" lon="-2.5840330">
        <ele>1449.2</ele>
        <time>2020-07-15T05:12:53Z</time>
      </trkpt>
      <trkpt lat="38.1214670" lon="-2.5840590">
        <ele>1449.4</ele>
        <time>2020-07-15T05:12:54Z</time>
      </trkpt>
      <trkpt lat="38.1215840" lon="-2.5842360">
        <ele>1450.4</ele>
        <time>2020-07-15T05:13:01Z</time>
      </trkpt>
      <trkpt lat="38.1216830" lon="-2.5843910">
        <ele>1451.2</ele>
        <time>2020-07-15T05:13:07Z</time>
      </trkpt>
      <trkpt lat="38.1217160" lon="-2.5844400">
        <ele>1451.6</ele>
        <time>2020-07-15T05:13:09Z</time>
      </trkpt>
      <trkpt lat="38.1218250" lon="-2.5846040">
        <ele>1452.6</ele>
        <time>2020-07-15T05:13:16Z</time>
      </trkpt>
      <trkpt lat="38.1219360" lon="-2.5847780">
        <ele>1453.8</ele>
        <time>2020-07-15T05:13:23Z</time>
      </trkpt>
      <trkpt lat="38.1219670" lon="-2.5848330">
        <ele>1454.2</ele>
        <time>2020-07-15T05:13:25Z</time>
      </trkpt>
      <trkpt lat="38.1220280" lon="-2.5849340">
        <ele>1454.8</ele>
        <time>2020-07-15T05:13:29Z</time>
      </trkpt>
      <trkpt lat="38.1221120" lon="-2.5850810">
        <ele>1455.8</ele>
        <time>2020-07-15T05:13:35Z</time>
      </trkpt>
      <trkpt lat="38.1221960" lon="-2.5852280">
        <ele>1456.8</ele>
        <time>2020-07-15T05:13:41Z</time>
      </trkpt>
      <trkpt lat="38.1222420" lon="-2.5852940">
        <ele>1457.4</ele>
        <time>2020-07-15T05:13:44Z</time>
      </trkpt>
      <trkpt lat="38.1222780" lon="-2.5853490">
        <ele>1458.0</ele>
        <time>2020-07-15T05:13:47Z</time>
      </trkpt>
      <trkpt lat="38.1223620" lon="-2.5854970">
        <ele>1459.0</ele>
        <time>2020-07-15T05:13:53Z</time>
      </trkpt>
      <trkpt lat="38.1224360" lon="-2.5856330">
        <ele>1460.2</ele>
        <time>2020-07-15T05:13:59Z</time>
      </trkpt>
      <trkpt lat="38.1224710" lon="-2.5856960">
        <ele>1460.8</ele>
        <time>2020-07-15T05:14:02Z</time>
      </trkpt>
      <trkpt lat="38.1225130" lon="-2.5857610">
        <ele>1461.4</ele>
        <time>2020-07-15T05:14:05Z</time>
      </trkpt>
      <trkpt lat="38.1225820" lon="-2.5858670">
        <ele>1462.4</ele>
        <time>2020-07-15T05:14:10Z</time>
      </trkpt>
      <trkpt lat="38.1225970" lon="-2.5858910">
        <ele>1462.6</ele>
        <time>2020-07-15T05:14:11Z</time>
      </trkpt>
      <trkpt lat="38.1226540" lon="-2.5859780">
        <ele>1463.4</ele>
        <time>2020-07-15T05:14:15Z</time>
      </trkpt>
      <trkpt lat="38.1227300" lon="-2.5860920">
        <ele>1464.4</ele>
        <time>2020-07-15T05:14:20Z</time>
      </trkpt>
      <trkpt lat="38.1227450" lon="-2.5861160">
        <ele>1464.6</ele>
        <time>2020-07-15T05:14:21Z</time>
      </trkpt>
      <trkpt lat="38.1228220" lon="-2.5862290">
        <ele>1465.8</ele>
        <time>2020-07-15T05:14:26Z</time>
      </trkpt>
      <trkpt lat="38.1228670" lon="-2.5862960">
        <ele>1466.4</ele>
        <time>2020-07-15T05:14:29Z</time>
      </trkpt>
      <trkpt lat="38.1228950" lon="-2.5863440">
        <ele>1467.0</ele>
        <time>2020-07-15T05:14:31Z</time>
      </trkpt>
      <trkpt lat="38.1229650" lon="-2.5864650">
        <ele>1468.0</ele>
        <time>2020-07-15T05:14:36Z</time>
      </trkpt>
      <trkpt lat="38.1230000" lon="-2.5865410">
        <ele>1468.6</ele>
        <time>2020-07-15T05:14:39Z</time>
      </trkpt>
      <trkpt lat="38.1230230" lon="-2.5865960">
        <ele>1469.0</ele>
        <time>2020-07-15T05:14:41Z</time>
      </trkpt>
      <trkpt lat="38.1230630" lon="-2.5867410">
        <ele>1470.2</ele>
        <time>2020-07-15T05:14:46Z</time>
      </trkpt>
      <trkpt lat="38.1230480" lon="-2.5868890">
        <ele>1471.2</ele>
        <time>2020-07-15T05:14:51Z</time>
      </trkpt>
      <trkpt lat="38.1230400" lon="-2.5869170">
        <ele>1471.6</ele>
        <time>2020-07-15T05:14:52Z</time>
      </trkpt>
      <trkpt lat="38.1229860" lon="-2.5870230">
        <ele>1472.4</ele>
        <time>2020-07-15T05:14:56Z</time>
      </trkpt>
      <trkpt lat="38.1229200" lon="-2.5871140">
        <ele>1473.2</ele>
        <time>2020-07-15T05:15:00Z</time>
      </trkpt>
      <trkpt lat="38.1229020" lon="-2.5871330">
        <ele>1473.4</ele>
        <time>2020-07-15T05:15:01Z</time>
      </trkpt>
      <trkpt lat="38.1227860" lon="-2.5872240">
        <ele>1474.4</ele>
        <time>2020-07-15T05:15:07Z</time>
      </trkpt>
      <trkpt lat="38.1227460" lon="-2.5872490">
        <ele>1475.0</ele>
        <time>2020-07-15T05:15:09Z</time>
      </trkpt>
      <trkpt lat="38.1226850" lon="-2.5872780">
        <ele>1475.6</ele>
        <time>2020-07-15T05:15:12Z</time>
      </trkpt>
      <trkpt lat="38.1225830" lon="-2.5873380">
        <ele>1476.4</ele>
        <time>2020-07-15T05:15:17Z</time>
      </trkpt>
      <trkpt lat="38.1225610" lon="-2.5873480">
        <ele>1476.6</ele>
        <time>2020-07-15T05:15:18Z</time>
      </trkpt>
      <trkpt lat="38.1224140" lon="-2.5874360">
        <ele>1477.6</ele>
        <time>2020-07-15T05:15:25Z</time>
      </trkpt>
      <trkpt lat="38.1223930" lon="-2.5874490">
        <ele>1477.8</ele>
        <time>2020-07-15T05:15:26Z</time>
      </trkpt>
      <trkpt lat="38.1222920" lon="-2.5875210">
        <ele>1478.8</ele>
        <time>2020-07-15T05:15:31Z</time>
      </trkpt>
      <trkpt lat="38.1222160" lon="-2.5875890">
        <ele>1479.4</ele>
        <time>2020-07-15T05:15:35Z</time>
      </trkpt>
      <trkpt lat="38.1221800" lon="-2.5876280">
        <ele>1479.8</ele>
        <time>2020-07-15T05:15:37Z</time>
      </trkpt>
      <trkpt lat="38.1220750" lon="-2.5877590">
        <ele>1480.8</ele>
        <time>2020-07-15T05:15:43Z</time>
      </trkpt>
      <trkpt lat="38.1219990" lon="-2.5878490">
        <ele>1481.4</ele>
        <time>2020-07-15T05:15:47Z</time>
      </trkpt>
      <trkpt lat="38.1219180" lon="-2.5879400">
        <ele>1482.0</ele>
        <time>2020-07-15T05:15:51Z</time>
      </trkpt>
      <trkpt lat="38.1217880" lon="-2.5881030">
        <ele>1483.2</ele>
        <time>2020-07-15T05:15:58Z</time>
      </trkpt>
      <trkpt lat="38.1216560" lon="-2.5882670">
        <ele>1484.4</ele>
        <time>2020-07-15T05:16:05Z</time>
      </trkpt>
      <trkpt lat="38.1215680" lon="-2.5883840">
        <ele>1485.0</ele>
        <time>2020-07-15T05:16:10Z</time>
      </trkpt>
      <trkpt lat="38.1215070" lon="-2.5884700">
        <ele>1485.4</ele>
        <time>2020-07-15T05:16:13Z</time>
      </trkpt>
      <trkpt lat="38.1213820" lon="-2.5886250">
        <ele>1486.6</ele>
        <time>2020-07-15T05:16:19Z</time>
      </trkpt>
      <trkpt lat="38.1213410" lon="-2.5886780">
        <ele>1486.8</ele>
        <time>2020-07-15T05:16:21Z</time>
      </trkpt>
      <trkpt lat="38.1212330" lon="-2.5888110">
        <ele>1487.6</ele>
        <time>2020-07-15T05:16:26Z</time>
      </trkpt>
      <trkpt lat="38.1210890" lon="-2.5889910">
        <ele>1488.6</ele>
        <time>2020-07-15T05:16:33Z</time>
      </trkpt>
      <trkpt lat="38.1209610" lon="-2.5891430">
        <ele>1489.6</ele>
        <time>2020-07-15T05:16:39Z</time>
      </trkpt>
      <trkpt lat="38.1208160" lon="-2.5893240">
        <ele>1490.8</ele>
        <time>2020-07-15T05:16:46Z</time>
      </trkpt>
      <trkpt lat="38.1207720" lon="-2.5893760">
        <ele>1491.0</ele>
        <time>2020-07-15T05:16:48Z</time>
      </trkpt>
      <trkpt lat="38.1206650" lon="-2.5895050">
        <ele>1491.8</ele>
        <time>2020-07-15T05:16:53Z</time>
      </trkpt>
      <trkpt lat="38.1205090" lon="-2.5896980">
        <ele>1492.6</ele>
        <time>2020-07-15T05:17:00Z</time>
      </trkpt>
      <trkpt lat="38.1204640" lon="-2.5897490">
        <ele>1492.8</ele>
        <time>2020-07-15T05:17:02Z</time>
      </trkpt>
      <trkpt lat="38.1202880" lon="-2.5899720">
        <ele>1493.8</ele>
        <time>2020-07-15T05:17:10Z</time>
      </trkpt>
      <trkpt lat="38.1202660" lon="-2.5900020">
        <ele>1494.0</ele>
        <time>2020-07-15T05:17:11Z</time>
      </trkpt>
      <trkpt lat="38.1200930" lon="-2.5903250">
        <ele>1495.0</ele>
        <time>2020-07-15T05:17:20Z</time>
      </trkpt>
      <trkpt lat="38.1200120" lon="-2.5906610">
        <ele>1495.8</ele>
        <time>2020-07-15T05:17:28Z</time>
      </trkpt>
      <trkpt lat="38.1200080" lon="-2.5907080">
        <ele>1496.0</ele>
        <time>2020-07-15T05:17:29Z</time>
      </trkpt>
      <trkpt lat="38.1199900" lon="-2.5910530">
        <ele>1497.0</ele>
        <time>2020-07-15T05:17:37Z</time>
      </trkpt>
      <trkpt lat="38.1199900" lon="-2.5910950">
        <ele>1497.2</ele>
        <time>2020-07-15T05:17:38Z</time>
      </trkpt>
      <trkpt lat="38.1199870" lon="-2.5913880">
        <ele>1498.2</ele>
        <time>2020-07-15T05:17:45Z</time>
      </trkpt>
      <trkpt lat="38.1199930" lon="-2.5915470">
        <ele>1498.8</ele>
        <time>2020-07-15T05:17:49Z</time>
      </trkpt>
      <trkpt lat="38.1199980" lon="-2.5916540">
        <ele>1499.2</ele>
        <time>2020-07-15T05:17:52Z</time>
      </trkpt>
      <trkpt lat="38.1200110" lon="-2.5918340">
        <ele>1500.2</ele>
        <time>2020-07-15T05:17:57Z</time>
      </trkpt>
      <trkpt lat="38.1200160" lon="-2.5918660">
        <ele>1500.4</ele>
        <time>2020-07-15T05:17:58Z</time>
      </trkpt>
      <trkpt lat="38.1200730" lon="-2.5920540">
        <ele>1501.4</ele>
        <time>2020-07-15T05:18:04Z</time>
      </trkpt>
      <trkpt lat="38.1200880" lon="-2.5920790">
        <ele>1501.6</ele>
        <time>2020-07-15T05:18:05Z</time>
      </trkpt>
      <trkpt lat="38.1201670" lon="-2.5921570">
        <ele>1502.8</ele>
        <time>2020-07-15T05:18:09Z</time>
      </trkpt>
      <trkpt lat="38.1202310" lon="-2.5921910">
        <ele>1503.6</ele>
        <time>2020-07-15T05:18:12Z</time>
      </trkpt>
      <trkpt lat="38.1202530" lon="-2.5921980">
        <ele>1504.0</ele>
        <time>2020-07-15T05:18:13Z</time>
      </trkpt>
      <trkpt lat="38.1203400" lon="-2.5922270">
        <ele>1505.0</ele>
        <time>2020-07-15T05:18:17Z</time>
      </trkpt>
      <trkpt lat="38.1204060" lon="-2.5922500">
        <ele>1505.8</ele>
        <time>2020-07-15T05:18:20Z</time>
      </trkpt>
      <trkpt lat="38.1204480" lon="-2.5922620">
        <ele>1506.2</ele>
        <time>2020-07-15T05:18:22Z</time>
      </trkpt>
      <trkpt lat="38.1205730" lon="-2.5923040">
        <ele>1507.2</ele>
        <time>2020-07-15T05:18:27Z</time>
      </trkpt>
      <trkpt lat="38.1206210" lon="-2.5923210">
        <ele>1507.6</ele>
        <time>2020-07-15T05:18:29Z</time>
      </trkpt>
      <trkpt lat="38.1206910" lon="-2.5923520">
        <ele>1508.2</ele>
        <time>2020-07-15T05:18:32Z</time>
      </trkpt>
      <trkpt lat="38.1208060" lon="-2.5924120">
        <ele>1509.4</ele>
        <time>2020-07-15T05:18:37Z</time>
      </trkpt>
      <trkpt lat="38.1208470" lon="-2.5924400">
        <ele>1509.8</ele>
        <time>2020-07-15T05:18:39Z</time>
      </trkpt>
      <trkpt lat="38.1209290" lon="-2.5924950">
        <ele>1510.4</ele>
        <time>2020-07-15T05:18:43Z</time>
      </trkpt>
      <trkpt lat="38.1210250" lon="-2.5925840">
        <ele>1511.4</ele>
        <time>2020-07-15T05:18:48Z</time>
      </trkpt>
      <trkpt lat="38.1210450" lon="-2.5926030">
        <ele>1511.6</ele>
        <time>2020-07-15T05:18:49Z</time>
      </trkpt>
      <trkpt lat="38.1211720" lon="-2.5927390">
        <ele>1512.6</ele>
        <time>2020-07-15T05:18:56Z</time>
      </trkpt>
      <trkpt lat="38.1211870" lon="-2.5927640">
        <ele>1512.8</ele>
        <time>2020-07-15T05:18:57Z</time>
      </trkpt>
      <trkpt lat="38.1212670" lon="-2.5929280">
        <ele>1513.8</ele>
        <time>2020-07-15T05:19:03Z</time>
      </trkpt>
      <trkpt lat="38.1212790" lon="-2.5929920">
        <ele>1514.2</ele>
        <time>2020-07-15T05:19:05Z</time>
      </trkpt>
      <trkpt lat="38.1212700" lon="-2.5931180">
        <ele>1514.8</ele>
        <time>2020-07-15T05:19:09Z</time>
      </trkpt>
      <trkpt lat="38.1212480" lon="-2.5931740">
        <ele>1515.0</ele>
        <time>2020-07-15T05:19:11Z</time>
      </trkpt>
      <trkpt lat="38.1211280" lon="-2.5932830">
        <ele>1515.8</ele>
        <time>2020-07-15T05:19:17Z</time>
      </trkpt>
      <trkpt lat="38.1209550" lon="-2.5933260">
        <ele>1517.0</ele>
        <time>2020-07-15T05:19:24Z</time>
      </trkpt>
      <trkpt lat="38.1209290" lon="-2.5933280">
        <ele>1517.2</ele>
        <time>2020-07-15T05:19:25Z</time>
      </trkpt>
      <trkpt lat="38.1207990" lon="-2.5933610">
        <ele>1518.0</ele>
        <time>2020-07-15T05:19:30Z</time>
      </trkpt>
      <trkpt lat="38.1207210" lon="-2.5933850">
        <ele>1518.4</ele>
        <time>2020-07-15T05:19:33Z</time>
      </trkpt>
      <trkpt lat="38.1205940" lon="-2.5934550">
        <ele>1519.2</ele>
        <time>2020-07-15T05:19:38Z</time>
      </trkpt>
      <trkpt lat="38.1205270" lon="-2.5935200">
        <ele>1519.6</ele>
        <time>2020-07-15T05:19:41Z</time>
      </trkpt>
      <trkpt lat="38.1204740" lon="-2.5936480">
        <ele>1520.4</ele>
        <time>2020-07-15T05:19:45Z</time>
      </trkpt>
      <trkpt lat="38.1204680" lon="-2.5936840">
        <ele>1520.6</ele>
        <time>2020-07-15T05:19:46Z</time>
      </trkpt>
      <trkpt lat="38.1205030" lon="-2.5938740">
        <ele>1521.4</ele>
        <time>2020-07-15T05:19:51Z</time>
      </trkpt>
      <trkpt lat="38.1205920" lon="-2.5939860">
        <ele>1522.2</ele>
        <time>2020-07-15T05:19:55Z</time>
      </trkpt>
      <trkpt lat="38.1206170" lon="-2.5940100">
        <ele>1522.4</ele>
        <time>2020-07-15T05:19:56Z</time>
      </trkpt>
      <trkpt lat="38.1206410" lon="-2.5940350">
        <ele>1522.6</ele>
        <time>2020-07-15T05:19:57Z</time>
      </trkpt>
      <trkpt lat="38.1207720" lon="-2.5941440">
        <ele>1523.6</ele>
        <time>2020-07-15T05:20:02Z</time>
      </trkpt>
      <trkpt lat="38.1209030" lon="-2.5942480">
        <ele>1524.6</ele>
        <time>2020-07-15T05:20:07Z</time>
      </trkpt>
      <trkpt lat="38.1209290" lon="-2.5942670">
        <ele>1524.6</ele>
        <time>2020-07-15T05:20:08Z</time>
      </trkpt>
      <trkpt lat="38.1211140" lon="-2.5944010">
        <ele>1525.8</ele>
        <time>2020-07-15T05:20:15Z</time>
      </trkpt>
      <trkpt lat="38.1212700" lon="-2.5945110">
        <ele>1527.0</ele>
        <time>2020-07-15T05:20:21Z</time>
      </trkpt>
      <trkpt lat="38.1212930" lon="-2.5945270">
        <ele>1527.2</ele>
        <time>2020-07-15T05:20:22Z</time>
      </trkpt>
      <trkpt lat="38.1214200" lon="-2.5946140">
        <ele>1528.0</ele>
        <time>2020-07-15T05:20:27Z</time>
      </trkpt>
      <trkpt lat="38.1215730" lon="-2.5947180">
        <ele>1529.0</ele>
        <time>2020-07-15T05:20:33Z</time>
      </trkpt>
      <trkpt lat="38.1215990" lon="-2.5947340">
        <ele>1529.2</ele>
        <time>2020-07-15T05:20:34Z</time>
      </trkpt>
      <trkpt lat="38.1217770" lon="-2.5948430">
        <ele>1530.2</ele>
        <time>2020-07-15T05:20:41Z</time>
      </trkpt>
      <trkpt lat="38.1218760" lon="-2.5949100">
        <ele>1531.0</ele>
        <time>2020-07-15T05:20:45Z</time>
      </trkpt>
      <trkpt lat="38.1219260" lon="-2.5949410">
        <ele>1531.4</ele>
        <time>2020-07-15T05:20:47Z</time>
      </trkpt>
      <trkpt lat="38.1220940" lon="-2.5950560">
        <ele>1532.4</ele>
        <time>2020-07-15T05:20:54Z</time>
      </trkpt>
      <trkpt lat="38.1221650" lon="-2.5951080">
        <ele>1533.0</ele>
        <time>2020-07-15T05:20:57Z</time>
      </trkpt>
      <trkpt lat="38.1222350" lon="-2.5951630">
        <ele>1533.6</ele>
        <time>2020-07-15T05:21:00Z</time>
      </trkpt>
      <trkpt lat="38.1224020" lon="-2.5952960">
        <ele>1534.6</ele>
        <time>2020-07-15T05:21:07Z</time>
      </trkpt>
      <trkpt lat="38.1225680" lon="-2.5954420">
        <ele>1535.8</ele>
        <time>2020-07-15T05:21:14Z</time>
      </trkpt>
      <trkpt lat="38.1226340" lon="-2.5955060">
        <ele>1536.2</ele>
        <time>2020-07-15T05:21:17Z</time>
      </trkpt>
      <trkpt lat="38.1227250" lon="-2.5955920">
        <ele>1536.8</ele>
        <time>2020-07-15T05:21:21Z</time>
      </trkpt>
      <trkpt lat="38.1228580" lon="-2.5957190">
        <ele>1537.8</ele>
        <time>2020-07-15T05:21:27Z</time>
      </trkpt>
      <trkpt lat="38.1228790" lon="-2.5957390">
        <ele>1538.0</ele>
        <time>2020-07-15T05:21:28Z</time>
      </trkpt>
      <trkpt lat="38.1230190" lon="-2.5958640">
        <ele>1539.0</ele>
        <time>2020-07-15T05:21:34Z</time>
      </trkpt>
      <trkpt lat="38.1231570" lon="-2.5959900">
        <ele>1540.0</ele>
        <time>2020-07-15T05:21:40Z</time>
      </trkpt>
      <trkpt lat="38.1231820" lon="-2.5960110">
        <ele>1540.0</ele>
        <time>2020-07-15T05:21:41Z</time>
      </trkpt>
      <trkpt lat="38.1233220" lon="-2.5961300">
        <ele>1541.2</ele>
        <time>2020-07-15T05:21:47Z</time>
      </trkpt>
      <trkpt lat="38.1235300" lon="-2.5962770">
        <ele>1542.2</ele>
        <time>2020-07-15T05:21:55Z</time>
      </trkpt>
      <trkpt lat="38.1238200" lon="-2.5963880">
        <ele>1543.0</ele>
        <time>2020-07-15T05:22:04Z</time>
      </trkpt>
      <trkpt lat="38.1240730" lon="-2.5963550">
        <ele>1543.0</ele>
        <time>2020-07-15T05:22:10Z</time>
      </trkpt>
      <trkpt lat="38.1241700" lon="-2.5963100">
        <ele>1542.8</ele>
        <time>2020-07-15T05:22:12Z</time>
      </trkpt>
      <trkpt lat="38.1243200" lon="-2.5961990">
        <ele>1542.6</ele>
        <time>2020-07-15T05:22:15Z</time>
      </trkpt>
      <trkpt lat="38.1243660" lon="-2.5961560">
        <ele>1542.4</ele>
        <time>2020-07-15T05:22:16Z</time>
      </trkpt>
      <trkpt lat="38.1245680" lon="-2.5959540">
        <ele>1541.8</ele>
        <time>2020-07-15T05:22:20Z</time>
      </trkpt>
      <trkpt lat="38.1247140" lon="-2.5958020">
        <ele>1541.0</ele>
        <time>2020-07-15T05:22:22Z</time>
      </trkpt>
      <trkpt lat="38.1248550" lon="-2.5956570">
        <ele>1540.0</ele>
        <time>2020-07-15T05:22:24Z</time>
      </trkpt>
      <trkpt lat="38.1249320" lon="-2.5955820">
        <ele>1539.4</ele>
        <time>2020-07-15T05:22:25Z</time>
      </trkpt>
      <trkpt lat="38.1250930" lon="-2.5954280">
        <ele>1538.0</ele>
        <time>2020-07-15T05:22:27Z</time>
      </trkpt>
      <trkpt lat="38.1252770" lon="-2.5953000">
        <ele>1536.8</ele>
        <time>2020-07-15T05:22:29Z</time>
      </trkpt>
      <trkpt lat="38.1253850" lon="-2.5952510">
        <ele>1536.4</ele>
        <time>2020-07-15T05:22:30Z</time>
      </trkpt>
      <trkpt lat="38.1254950" lon="-2.5952200">
        <ele>1535.8</ele>
        <time>2020-07-15T05:22:31Z</time>
      </trkpt>
      <trkpt lat="38.1257200" lon="-2.5951770">
        <ele>1534.2</ele>
        <time>2020-07-15T05:22:33Z</time>
      </trkpt>
      <trkpt lat="38.1258370" lon="-2.5951560">
        <ele>1533.8</ele>
        <time>2020-07-15T05:22:34Z</time>
      </trkpt>
      <trkpt lat="38.1259610" lon="-2.5951330">
        <ele>1533.0</ele>
        <time>2020-07-15T05:22:35Z</time>
      </trkpt>
      <trkpt lat="38.1262090" lon="-2.5950830">
        <ele>1531.8</ele>
        <time>2020-07-15T05:22:37Z</time>
      </trkpt>
      <trkpt lat="38.1264440" lon="-2.5950420">
        <ele>1530.2</ele>
        <time>2020-07-15T05:22:39Z</time>
      </trkpt>
      <trkpt lat="38.1266590" lon="-2.5950340">
        <ele>1528.4</ele>
        <time>2020-07-15T05:22:41Z</time>
      </trkpt>
      <trkpt lat="38.1268650" lon="-2.5951180">
        <ele>1526.6</ele>
        <time>2020-07-15T05:22:43Z</time>
      </trkpt>
      <trkpt lat="38.1269580" lon="-2.5952050">
        <ele>1525.8</ele>
        <time>2020-07-15T05:22:44Z</time>
      </trkpt>
      <trkpt lat="38.1270320" lon="-2.5953100">
        <ele>1525.0</ele>
        <time>2020-07-15T05:22:45Z</time>
      </trkpt>
      <trkpt lat="38.1271280" lon="-2.5955520">
        <ele>1523.2</ele>
        <time>2020-07-15T05:22:47Z</time>
      </trkpt>
      <trkpt lat="38.1271340" lon="-2.5958310">
        <ele>1521.6</ele>
        <time>2020-07-15T05:22:49Z</time>
      </trkpt>
      <trkpt lat="38.1270550" lon="-2.5960860">
        <ele>1520.2</ele>
        <time>2020-07-15T05:22:51Z</time>
      </trkpt>
      <trkpt lat="38.1270000" lon="-2.5961940">
        <ele>1519.6</ele>
        <time>2020-07-15T05:22:52Z</time>
      </trkpt>
      <trkpt lat="38.1269380" lon="-2.5963050">
        <ele>1519.0</ele>
        <time>2020-07-15T05:22:53Z</time>
      </trkpt>
      <trkpt lat="38.1268700" lon="-2.5964180">
        <ele>1518.6</ele>
        <time>2020-07-15T05:22:54Z</time>
      </trkpt>
      <trkpt lat="38.1267440" lon="-2.5966190">
        <ele>1517.8</ele>
        <time>2020-07-15T05:22:56Z</time>
      </trkpt>
      <trkpt lat="38.1266830" lon="-2.5967130">
        <ele>1517.4</ele>
        <time>2020-07-15T05:22:57Z</time>
      </trkpt>
      <trkpt lat="38.1264800" lon="-2.5970410">
        <ele>1517.0</ele>
        <time>2020-07-15T05:23:01Z</time>
      </trkpt>
      <trkpt lat="38.1263460" lon="-2.5972580">
        <ele>1517.6</ele>
        <time>2020-07-15T05:23:05Z</time>
      </trkpt>
      <trkpt lat="38.1262120" lon="-2.5974810">
        <ele>1518.2</ele>
        <time>2020-07-15T05:23:11Z</time>
      </trkpt>
      <trkpt lat="38.1261320" lon="-2.5976100">
        <ele>1518.6</ele>
        <time>2020-07-15T05:23:15Z</time>
      </trkpt>
      <trkpt lat="38.1260940" lon="-2.5976650">
        <ele>1518.8</ele>
        <time>2020-07-15T05:23:17Z</time>
      </trkpt>
      <trkpt lat="38.1260040" lon="-2.5978200">
        <ele>1519.0</ele>
        <time>2020-07-15T05:23:22Z</time>
      </trkpt>
      <trkpt lat="38.1259590" lon="-2.5978870">
        <ele>1519.2</ele>
        <time>2020-07-15T05:23:24Z</time>
      </trkpt>
      <trkpt lat="38.1258920" lon="-2.5979980">
        <ele>1519.6</ele>
        <time>2020-07-15T05:23:27Z</time>
      </trkpt>
      <trkpt lat="38.1258720" lon="-2.5980320">
        <ele>1519.8</ele>
        <time>2020-07-15T05:23:28Z</time>
      </trkpt>
      <trkpt lat="38.1257740" lon="-2.5981940">
        <ele>1520.2</ele>
        <time>2020-07-15T05:23:32Z</time>
      </trkpt>
      <trkpt lat="38.1256450" lon="-2.5983990">
        <ele>1520.8</ele>
        <time>2020-07-15T05:23:37Z</time>
      </trkpt>
      <trkpt lat="38.1255680" lon="-2.5985270">
        <ele>1521.2</ele>
        <time>2020-07-15T05:23:40Z</time>
      </trkpt>
      <trkpt lat="38.1255420" lon="-2.5985710">
        <ele>1521.4</ele>
        <time>2020-07-15T05:23:41Z</time>
      </trkpt>
      <trkpt lat="38.1254580" lon="-2.5987030">
        <ele>1521.8</ele>
        <time>2020-07-15T05:23:44Z</time>
      </trkpt>
      <trkpt lat="38.1254290" lon="-2.5987500">
        <ele>1521.8</ele>
        <time>2020-07-15T05:23:45Z</time>
      </trkpt>
      <trkpt lat="38.1253180" lon="-2.5989300">
        <ele>1522.2</ele>
        <time>2020-07-15T05:23:49Z</time>
      </trkpt>
      <trkpt lat="38.1250400" lon="-2.5993800">
        <ele>1522.8</ele>
        <time>2020-07-15T05:23:59Z</time>
      </trkpt>
      <trkpt lat="38.1250110" lon="-2.5994270">
        <ele>1523.0</ele>
        <time>2020-07-15T05:24:00Z</time>
      </trkpt>
      <trkpt lat="38.1247540" lon="-2.5998560">
        <ele>1523.2</ele>
        <time>2020-07-15T05:24:09Z</time>
      </trkpt>
      <trkpt lat="38.1245110" lon="-2.6002610">
        <ele>1523.2</ele>
        <time>2020-07-15T05:24:17Z</time>
      </trkpt>
      <trkpt lat="38.1244440" lon="-2.6003680">
        <ele>1523.2</ele>
        <time>2020-07-15T05:24:19Z</time>
      </trkpt>
      <trkpt lat="38.1242770" lon="-2.6006400">
        <ele>1522.8</ele>
        <time>2020-07-15T05:24:24Z</time>
      </trkpt>
      <trkpt lat="38.1241740" lon="-2.6008070">
        <ele>1522.6</ele>
        <time>2020-07-15T05:24:27Z</time>
      </trkpt>
      <trkpt lat="38.1241420" lon="-2.6008570">
        <ele>1522.6</ele>
        <time>2020-07-15T05:24:28Z</time>
      </trkpt>
      <trkpt lat="38.1240000" lon="-2.6010910">
        <ele>1522.4</ele>
        <time>2020-07-15T05:24:32Z</time>
      </trkpt>
      <trkpt lat="38.1238970" lon="-2.6012590">
        <ele>1522.2</ele>
        <time>2020-07-15T05:24:35Z</time>
      </trkpt>
      <trkpt lat="38.1238010" lon="-2.6014360">
        <ele>1522.0</ele>
        <time>2020-07-15T05:24:38Z</time>
      </trkpt>
      <trkpt lat="38.1236220" lon="-2.6017220">
        <ele>1521.8</ele>
        <time>2020-07-15T05:24:43Z</time>
      </trkpt>
      <trkpt lat="38.1235120" lon="-2.6019010">
        <ele>1521.6</ele>
        <time>2020-07-15T05:24:46Z</time>
      </trkpt>
      <trkpt lat="38.1231500" lon="-2.6024930">
        <ele>1521.4</ele>
        <time>2020-07-15T05:24:56Z</time>
      </trkpt>
      <trkpt lat="38.1228940" lon="-2.6029370">
        <ele>1521.4</ele>
        <time>2020-07-15T05:25:04Z</time>
      </trkpt>
      <trkpt lat="38.1226100" lon="-2.6034020">
        <ele>1522.0</ele>
        <time>2020-07-15T05:25:13Z</time>
      </trkpt>
      <trkpt lat="38.1225470" lon="-2.6035090">
        <ele>1522.0</ele>
        <time>2020-07-15T05:25:15Z</time>
      </trkpt>
      <trkpt lat="38.1222630" lon="-2.6039690">
        <ele>1522.8</ele>
        <time>2020-07-15T05:25:24Z</time>
      </trkpt>
      <trkpt lat="38.1222320" lon="-2.6040230">
        <ele>1523.0</ele>
        <time>2020-07-15T05:25:25Z</time>
      </trkpt>
      <trkpt lat="38.1221350" lon="-2.6041810">
        <ele>1523.2</ele>
        <time>2020-07-15T05:25:28Z</time>
      </trkpt>
      <trkpt lat="38.1219920" lon="-2.6044050">
        <ele>1523.6</ele>
        <time>2020-07-15T05:25:32Z</time>
      </trkpt>
      <trkpt lat="38.1218900" lon="-2.6045710">
        <ele>1524.0</ele>
        <time>2020-07-15T05:25:35Z</time>
      </trkpt>
      <trkpt lat="38.1217250" lon="-2.6048490">
        <ele>1524.6</ele>
        <time>2020-07-15T05:25:40Z</time>
      </trkpt>
      <trkpt lat="38.1216250" lon="-2.6050080">
        <ele>1524.8</ele>
        <time>2020-07-15T05:25:43Z</time>
      </trkpt>
      <trkpt lat="38.1215610" lon="-2.6051140">
        <ele>1525.0</ele>
        <time>2020-07-15T05:25:45Z</time>
      </trkpt>
      <trkpt lat="38.1213490" lon="-2.6054630">
        <ele>1525.6</ele>
        <time>2020-07-15T05:25:52Z</time>
      </trkpt>
      <trkpt lat="38.1212280" lon="-2.6056640">
        <ele>1526.0</ele>
        <time>2020-07-15T05:25:56Z</time>
      </trkpt>
      <trkpt lat="38.1210240" lon="-2.6060130">
        <ele>1526.4</ele>
        <time>2020-07-15T05:26:03Z</time>
      </trkpt>
      <trkpt lat="38.1208570" lon="-2.6062890">
        <ele>1526.8</ele>
        <time>2020-07-15T05:26:11Z</time>
      </trkpt>
      <trkpt lat="38.1206900" lon="-2.6065650">
        <ele>1527.2</ele>
        <time>2020-07-15T05:26:14Z</time>
      </trkpt>
      <trkpt lat="38.1206010" lon="-2.6067120">
        <ele>1527.6</ele>
        <time>2020-07-15T05:26:17Z</time>
      </trkpt>
      <trkpt lat="38.1203570" lon="-2.6071140">
        <ele>1528.2</ele>
        <time>2020-07-15T05:26:25Z</time>
      </trkpt>
      <trkpt lat="38.1202660" lon="-2.6072590">
        <ele>1528.4</ele>
        <time>2020-07-15T05:26:28Z</time>
      </trkpt>
      <trkpt lat="38.1200470" lon="-2.6076250">
        <ele>1529.2</ele>
        <time>2020-07-15T05:26:35Z</time>
      </trkpt>
      <trkpt lat="38.1200080" lon="-2.6076900">
        <ele>1529.2</ele>
        <time>2020-07-15T05:26:36Z</time>
      </trkpt>
      <trkpt lat="38.1198080" lon="-2.6081040">
        <ele>1529.0</ele>
        <time>2020-07-15T05:26:43Z</time>
      </trkpt>
      <trkpt lat="38.1195630" lon="-2.6086220">
        <ele>1528.4</ele>
        <time>2020-07-15T05:26:51Z</time>
      </trkpt>
      <trkpt lat="38.1195320" lon="-2.6086840">
        <ele>1528.6</ele>
        <time>2020-07-15T05:26:52Z</time>
      </trkpt>
      <trkpt lat="38.1194310" lon="-2.6088830">
        <ele>1528.2</ele>
        <time>2020-07-15T05:26:55Z</time>
      </trkpt>
      <trkpt lat="38.1193660" lon="-2.6090120">
        <ele>1528.2</ele>
        <time>2020-07-15T05:26:57Z</time>
      </trkpt>
      <trkpt lat="38.1192400" lon="-2.6092630">
        <ele>1528.2</ele>
        <time>2020-07-15T05:27:01Z</time>
      </trkpt>
      <trkpt lat="38.1191630" lon="-2.6094390">
        <ele>1528.0</ele>
        <time>2020-07-15T05:27:04Z</time>
      </trkpt>
      <trkpt lat="38.1189110" lon="-2.6099890">
        <ele>1528.0</ele>
        <time>2020-07-15T05:27:13Z</time>
      </trkpt>
      <trkpt lat="38.1186580" lon="-2.6105160">
        <ele>1528.6</ele>
        <time>2020-07-15T05:27:22Z</time>
      </trkpt>
      <trkpt lat="38.1185670" lon="-2.6107030">
        <ele>1529.0</ele>
        <time>2020-07-15T05:27:25Z</time>
      </trkpt>
      <trkpt lat="38.1185110" lon="-2.6108250">
        <ele>1529.2</ele>
        <time>2020-07-15T05:27:27Z</time>
      </trkpt>
      <trkpt lat="38.1184250" lon="-2.6109980">
        <ele>1529.6</ele>
        <time>2020-07-15T05:27:30Z</time>
      </trkpt>
      <trkpt lat="38.1182080" lon="-2.6114310">
        <ele>1530.2</ele>
        <time>2020-07-15T05:27:38Z</time>
      </trkpt>
      <trkpt lat="38.1181820" lon="-2.6114920">
        <ele>1530.4</ele>
        <time>2020-07-15T05:27:39Z</time>
      </trkpt>
      <trkpt lat="38.1179860" lon="-2.6119610">
        <ele>1530.8</ele>
        <time>2020-07-15T05:27:47Z</time>
      </trkpt>
      <trkpt lat="38.1178460" lon="-2.6125330">
        <ele>1531.2</ele>
        <time>2020-07-15T05:27:56Z</time>
      </trkpt>
      <trkpt lat="38.1178220" lon="-2.6127260">
        <ele>1531.4</ele>
        <time>2020-07-15T05:27:59Z</time>
      </trkpt>
      <trkpt lat="38.1178100" lon="-2.6130550">
        <ele>1531.6</ele>
        <time>2020-07-15T05:28:04Z</time>
      </trkpt>
      <trkpt lat="38.1178620" lon="-2.6135900">
        <ele>1532.0</ele>
        <time>2020-07-15T05:28:12Z</time>
      </trkpt>
      <trkpt lat="38.1179210" lon="-2.6139890">
        <ele>1532.4</ele>
        <time>2020-07-15T05:28:18Z</time>
      </trkpt>
      <trkpt lat="38.1179880" lon="-2.6143900">
        <ele>1532.8</ele>
        <time>2020-07-15T05:28:24Z</time>
      </trkpt>
      <trkpt lat="38.1180920" lon="-2.6150410">
        <ele>1533.6</ele>
        <time>2020-07-15T05:28:34Z</time>
      </trkpt>
      <trkpt lat="38.1181140" lon="-2.6151720">
        <ele>1533.6</ele>
        <time>2020-07-15T05:28:36Z</time>
      </trkpt>
      <trkpt lat="38.1181340" lon="-2.6157500">
        <ele>1534.4</ele>
        <time>2020-07-15T05:28:45Z</time>
      </trkpt>
      <trkpt lat="38.1180860" lon="-2.6159950">
        <ele>1534.6</ele>
        <time>2020-07-15T05:28:49Z</time>
      </trkpt>
      <trkpt lat="38.1180340" lon="-2.6162240">
        <ele>1535.0</ele>
        <time>2020-07-15T05:28:53Z</time>
      </trkpt>
      <trkpt lat="38.1179510" lon="-2.6165530">
        <ele>1535.8</ele>
        <time>2020-07-15T05:28:59Z</time>
      </trkpt>
      <trkpt lat="38.1178850" lon="-2.6168230">
        <ele>1536.4</ele>
        <time>2020-07-15T05:29:04Z</time>
      </trkpt>
      <trkpt lat="38.1178160" lon="-2.6171030">
        <ele>1537.0</ele>
        <time>2020-07-15T05:29:09Z</time>
      </trkpt>
      <trkpt lat="38.1177340" lon="-2.6174430">
        <ele>1537.8</ele>
        <time>2020-07-15T05:29:15Z</time>
      </trkpt>
      <trkpt lat="38.1177030" lon="-2.6175560">
        <ele>1538.0</ele>
        <time>2020-07-15T05:29:17Z</time>
      </trkpt>
      <trkpt lat="38.1175970" lon="-2.6180100">
        <ele>1538.8</ele>
        <time>2020-07-15T05:29:25Z</time>
      </trkpt>
      <trkpt lat="38.1175830" lon="-2.6180620">
        <ele>1539.0</ele>
        <time>2020-07-15T05:29:26Z</time>
      </trkpt>
      <trkpt lat="38.1174870" lon="-2.6184170">
        <ele>1540.0</ele>
        <time>2020-07-15T05:29:33Z</time>
      </trkpt>
      <trkpt lat="38.1174730" lon="-2.6184690">
        <ele>1540.0</ele>
        <time>2020-07-15T05:29:34Z</time>
      </trkpt>
      <trkpt lat="38.1173620" lon="-2.6188260">
        <ele>1541.0</ele>
        <time>2020-07-15T05:29:41Z</time>
      </trkpt>
      <trkpt lat="38.1173260" lon="-2.6189230">
        <ele>1541.2</ele>
        <time>2020-07-15T05:29:43Z</time>
      </trkpt>
      <trkpt lat="38.1171720" lon="-2.6192590">
        <ele>1541.8</ele>
        <time>2020-07-15T05:29:50Z</time>
      </trkpt>
      <trkpt lat="38.1170500" lon="-2.6194810">
        <ele>1542.2</ele>
        <time>2020-07-15T05:29:55Z</time>
      </trkpt>
      <trkpt lat="38.1169210" lon="-2.6196800">
        <ele>1543.0</ele>
        <time>2020-07-15T05:30:00Z</time>
      </trkpt>
      <trkpt lat="38.1168700" lon="-2.6197580">
        <ele>1543.4</ele>
        <time>2020-07-15T05:30:02Z</time>
      </trkpt>
      <trkpt lat="38.1167260" lon="-2.6199520">
        <ele>1544.2</ele>
        <time>2020-07-15T05:30:08Z</time>
      </trkpt>
      <trkpt lat="38.1167020" lon="-2.6199860">
        <ele>1544.4</ele>
        <time>2020-07-15T05:30:09Z</time>
      </trkpt>
      <trkpt lat="38.1165530" lon="-2.6201750">
        <ele>1545.6</ele>
        <time>2020-07-15T05:30:15Z</time>
      </trkpt>
      <trkpt lat="38.1165060" lon="-2.6202340">
        <ele>1546.2</ele>
        <time>2020-07-15T05:30:17Z</time>
      </trkpt>
      <trkpt lat="38.1164370" lon="-2.6203260">
        <ele>1546.8</ele>
        <time>2020-07-15T05:30:20Z</time>
      </trkpt>
      <trkpt lat="38.1162960" lon="-2.6205030">
        <ele>1547.8</ele>
        <time>2020-07-15T05:30:26Z</time>
      </trkpt>
      <trkpt lat="38.1162540" lon="-2.6205600">
        <ele>1548.2</ele>
        <time>2020-07-15T05:30:28Z</time>
      </trkpt>
      <trkpt lat="38.1161850" lon="-2.6206500">
        <ele>1548.8</ele>
        <time>2020-07-15T05:30:31Z</time>
      </trkpt>
      <trkpt lat="38.1160730" lon="-2.6207970">
        <ele>1550.0</ele>
        <time>2020-07-15T05:30:36Z</time>
      </trkpt>
      <trkpt lat="38.1160060" lon="-2.6208860">
        <ele>1550.6</ele>
        <time>2020-07-15T05:30:39Z</time>
      </trkpt>
      <trkpt lat="38.1159390" lon="-2.6209740">
        <ele>1551.2</ele>
        <time>2020-07-15T05:30:42Z</time>
      </trkpt>
      <trkpt lat="38.1158250" lon="-2.6211270">
        <ele>1552.2</ele>
        <time>2020-07-15T05:30:47Z</time>
      </trkpt>
      <trkpt lat="38.1156920" lon="-2.6213030">
        <ele>1553.4</ele>
        <time>2020-07-15T05:30:53Z</time>
      </trkpt>
      <trkpt lat="38.1155970" lon="-2.6214240">
        <ele>1554.4</ele>
        <time>2020-07-15T05:30:57Z</time>
      </trkpt>
      <trkpt lat="38.1155760" lon="-2.6214520">
        <ele>1554.6</ele>
        <time>2020-07-15T05:30:58Z</time>
      </trkpt>
      <trkpt lat="38.1154550" lon="-2.6216100">
        <ele>1555.4</ele>
        <time>2020-07-15T05:31:03Z</time>
      </trkpt>
      <trkpt lat="38.1153030" lon="-2.6218190">
        <ele>1556.2</ele>
        <time>2020-07-15T05:31:09Z</time>
      </trkpt>
      <trkpt lat="38.1152530" lon="-2.6218910">
        <ele>1556.4</ele>
        <time>2020-07-15T05:31:11Z</time>
      </trkpt>
      <trkpt lat="38.1150300" lon="-2.6222440">
        <ele>1557.2</ele>
        <time>2020-07-15T05:31:20Z</time>
      </trkpt>
      <trkpt lat="38.1149690" lon="-2.6223670">
        <ele>1557.4</ele>
        <time>2020-07-15T05:31:23Z</time>
      </trkpt>
      <trkpt lat="38.1148680" lon="-2.6225850">
        <ele>1558.0</ele>
        <time>2020-07-15T05:31:28Z</time>
      </trkpt>
      <trkpt lat="38.1147530" lon="-2.6228780">
        <ele>1558.6</ele>
        <time>2020-07-15T05:31:34Z</time>
      </trkpt>
      <trkpt lat="38.1147020" lon="-2.6230250">
        <ele>1558.8</ele>
        <time>2020-07-15T05:31:37Z</time>
      </trkpt>
      <trkpt lat="38.1146080" lon="-2.6233160">
        <ele>1559.4</ele>
        <time>2020-07-15T05:31:43Z</time>
      </trkpt>
      <trkpt lat="38.1145740" lon="-2.6234180">
        <ele>1559.6</ele>
        <time>2020-07-15T05:31:45Z</time>
      </trkpt>
      <trkpt lat="38.1144460" lon="-2.6237990">
        <ele>1560.6</ele>
        <time>2020-07-15T05:31:53Z</time>
      </trkpt>
      <trkpt lat="38.1144080" lon="-2.6238940">
        <ele>1560.8</ele>
        <time>2020-07-15T05:31:55Z</time>
      </trkpt>
      <trkpt lat="38.1142280" lon="-2.6242420">
        <ele>1561.8</ele>
        <time>2020-07-15T05:32:03Z</time>
      </trkpt>
      <trkpt lat="38.1142010" lon="-2.6242810">
        <ele>1561.8</ele>
        <time>2020-07-15T05:32:04Z</time>
      </trkpt>
      <trkpt lat="38.1139750" lon="-2.6245820">
        <ele>1562.6</ele>
        <time>2020-07-15T05:32:12Z</time>
      </trkpt>
      <trkpt lat="38.1139150" lon="-2.6246450">
        <ele>1562.8</ele>
        <time>2020-07-15T05:32:14Z</time>
      </trkpt>
      <trkpt lat="38.1137000" lon="-2.6248450">
        <ele>1564.0</ele>
        <time>2020-07-15T05:32:21Z</time>
      </trkpt>
      <trkpt lat="38.1136700" lon="-2.6248710">
        <ele>1564.2</ele>
        <time>2020-07-15T05:32:22Z</time>
      </trkpt>
      <trkpt lat="38.1134820" lon="-2.6250400">
        <ele>1565.0</ele>
        <time>2020-07-15T05:32:28Z</time>
      </trkpt>
      <trkpt lat="38.1132870" lon="-2.6252080">
        <ele>1566.0</ele>
        <time>2020-07-15T05:32:34Z</time>
      </trkpt>
      <trkpt lat="38.1132540" lon="-2.6252370">
        <ele>1566.2</ele>
        <time>2020-07-15T05:32:35Z</time>
      </trkpt>
      <trkpt lat="38.1130350" lon="-2.6254360">
        <ele>1567.2</ele>
        <time>2020-07-15T05:32:42Z</time>
      </trkpt>
      <trkpt lat="38.1130060" lon="-2.6254630">
        <ele>1567.4</ele>
        <time>2020-07-15T05:32:43Z</time>
      </trkpt>
      <trkpt lat="38.1128140" lon="-2.6256340">
        <ele>1568.4</ele>
        <time>2020-07-15T05:32:49Z</time>
      </trkpt>
      <trkpt lat="38.1126870" lon="-2.6257410">
        <ele>1568.8</ele>
        <time>2020-07-15T05:32:53Z</time>
      </trkpt>
      <trkpt lat="38.1125520" lon="-2.6258650">
        <ele>1569.4</ele>
        <time>2020-07-15T05:32:57Z</time>
      </trkpt>
      <trkpt lat="38.1123730" lon="-2.6260250">
        <ele>1569.8</ele>
        <time>2020-07-15T05:33:02Z</time>
      </trkpt>
      <trkpt lat="38.1119730" lon="-2.6263880">
        <ele>1569.8</ele>
        <time>2020-07-15T05:33:12Z</time>
      </trkpt>
      <trkpt lat="38.1118030" lon="-2.6265430">
        <ele>1569.8</ele>
        <time>2020-07-15T05:33:16Z</time>
      </trkpt>
      <trkpt lat="38.1116190" lon="-2.6267060">
        <ele>1569.6</ele>
        <time>2020-07-15T05:33:20Z</time>
      </trkpt>
      <trkpt lat="38.1114840" lon="-2.6268300">
        <ele>1569.8</ele>
        <time>2020-07-15T05:33:23Z</time>
      </trkpt>
      <trkpt lat="38.1114340" lon="-2.6268740">
        <ele>1569.6</ele>
        <time>2020-07-15T05:33:24Z</time>
      </trkpt>
      <trkpt lat="38.1112460" lon="-2.6270360">
        <ele>1569.6</ele>
        <time>2020-07-15T05:33:28Z</time>
      </trkpt>
      <trkpt lat="38.1109890" lon="-2.6272680">
        <ele>1569.6</ele>
        <time>2020-07-15T05:33:33Z</time>
      </trkpt>
      <trkpt lat="38.1105560" lon="-2.6277000">
        <ele>1568.8</ele>
        <time>2020-07-15T05:33:41Z</time>
      </trkpt>
      <trkpt lat="38.1103990" lon="-2.6279010">
        <ele>1568.4</ele>
        <time>2020-07-15T05:33:44Z</time>
      </trkpt>
      <trkpt lat="38.1102120" lon="-2.6282160">
        <ele>1567.6</ele>
        <time>2020-07-15T05:33:48Z</time>
      </trkpt>
      <trkpt lat="38.1101190" lon="-2.6284010">
        <ele>1567.2</ele>
        <time>2020-07-15T05:33:50Z</time>
      </trkpt>
      <trkpt lat="38.1098900" lon="-2.6288880">
        <ele>1566.0</ele>
        <time>2020-07-15T05:33:55Z</time>
      </trkpt>
      <trkpt lat="38.1096900" lon="-2.6293180">
        <ele>1564.6</ele>
        <time>2020-07-15T05:33:59Z</time>
      </trkpt>
      <trkpt lat="38.1095230" lon="-2.6296630">
        <ele>1563.2</ele>
        <time>2020-07-15T05:34:02Z</time>
      </trkpt>
      <trkpt lat="38.1093580" lon="-2.6300290">
        <ele>1562.0</ele>
        <time>2020-07-15T05:34:05Z</time>
      </trkpt>
      <trkpt lat="38.1092570" lon="-2.6302980">
        <ele>1560.6</ele>
        <time>2020-07-15T05:34:07Z</time>
      </trkpt>
      <trkpt lat="38.1092190" lon="-2.6304290">
        <ele>1560.0</ele>
        <time>2020-07-15T05:34:08Z</time>
      </trkpt>
      <trkpt lat="38.1091810" lon="-2.6305910">
        <ele>1559.4</ele>
        <time>2020-07-15T05:34:09Z</time>
      </trkpt>
      <trkpt lat="38.1091610" lon="-2.6307320">
        <ele>1558.6</ele>
        <time>2020-07-15T05:34:10Z</time>
      </trkpt>
      <trkpt lat="38.1091480" lon="-2.6308900">
        <ele>1557.8</ele>
        <time>2020-07-15T05:34:11Z</time>
      </trkpt>
      <trkpt lat="38.1091570" lon="-2.6311960">
        <ele>1556.6</ele>
        <time>2020-07-15T05:34:13Z</time>
      </trkpt>
      <trkpt lat="38.1091810" lon="-2.6313640">
        <ele>1555.8</ele>
        <time>2020-07-15T05:34:14Z</time>
      </trkpt>
      <trkpt lat="38.1092110" lon="-2.6315230">
        <ele>1555.0</ele>
        <time>2020-07-15T05:34:15Z</time>
      </trkpt>
      <trkpt lat="38.1092920" lon="-2.6318450">
        <ele>1553.2</ele>
        <time>2020-07-15T05:34:17Z</time>
      </trkpt>
      <trkpt lat="38.1093330" lon="-2.6319950">
        <ele>1552.0</ele>
        <time>2020-07-15T05:34:18Z</time>
      </trkpt>
      <trkpt lat="38.1094250" lon="-2.6323330">
        <ele>1550.2</ele>
        <time>2020-07-15T05:34:20Z</time>
      </trkpt>
      <trkpt lat="38.1095180" lon="-2.6326710">
        <ele>1548.0</ele>
        <time>2020-07-15T05:34:22Z</time>
      </trkpt>
      <trkpt lat="38.1095630" lon="-2.6328330">
        <ele>1547.0</ele>
        <time>2020-07-15T05:34:23Z</time>
      </trkpt>
      <trkpt lat="38.1096160" lon="-2.6330250">
        <ele>1545.8</ele>
        <time>2020-07-15T05:34:24Z</time>
      </trkpt>
      <trkpt lat="38.1096660" lon="-2.6332000">
        <ele>1544.6</ele>
        <time>2020-07-15T05:34:25Z</time>
      </trkpt>
      <trkpt lat="38.1097150" lon="-2.6333760">
        <ele>1543.2</ele>
        <time>2020-07-15T05:34:26Z</time>
      </trkpt>
      <trkpt lat="38.1097650" lon="-2.6335560">
        <ele>1542.0</ele>
        <time>2020-07-15T05:34:27Z</time>
      </trkpt>
      <trkpt lat="38.1098100" lon="-2.6337160">
        <ele>1540.2</ele>
        <time>2020-07-15T05:34:28Z</time>
      </trkpt>
      <trkpt lat="38.1098660" lon="-2.6339090">
        <ele>1539.0</ele>
        <time>2020-07-15T05:34:29Z</time>
      </trkpt>
      <trkpt lat="38.1099170" lon="-2.6340890">
        <ele>1537.8</ele>
        <time>2020-07-15T05:34:30Z</time>
      </trkpt>
      <trkpt lat="38.1099670" lon="-2.6342710">
        <ele>1536.8</ele>
        <time>2020-07-15T05:34:31Z</time>
      </trkpt>
      <trkpt lat="38.1100620" lon="-2.6346090">
        <ele>1534.8</ele>
        <time>2020-07-15T05:34:33Z</time>
      </trkpt>
      <trkpt lat="38.1101050" lon="-2.6347640">
        <ele>1533.6</ele>
        <time>2020-07-15T05:34:34Z</time>
      </trkpt>
      <trkpt lat="38.1102050" lon="-2.6351400">
        <ele>1532.0</ele>
        <time>2020-07-15T05:34:36Z</time>
      </trkpt>
      <trkpt lat="38.1102960" lon="-2.6354600">
        <ele>1530.8</ele>
        <time>2020-07-15T05:34:38Z</time>
      </trkpt>
      <trkpt lat="38.1103930" lon="-2.6357980">
        <ele>1529.6</ele>
        <time>2020-07-15T05:34:40Z</time>
      </trkpt>
      <trkpt lat="38.1104880" lon="-2.6361380">
        <ele>1528.0</ele>
        <time>2020-07-15T05:34:42Z</time>
      </trkpt>
      <trkpt lat="38.1105730" lon="-2.6364470">
        <ele>1526.4</ele>
        <time>2020-07-15T05:34:44Z</time>
      </trkpt>
      <trkpt lat="38.1106440" lon="-2.6367390">
        <ele>1525.0</ele>
        <time>2020-07-15T05:34:46Z</time>
      </trkpt>
      <trkpt lat="38.1107180" lon="-2.6370270">
        <ele>1523.6</ele>
        <time>2020-07-15T05:34:48Z</time>
      </trkpt>
      <trkpt lat="38.1108400" lon="-2.6374650">
        <ele>1522.6</ele>
        <time>2020-07-15T05:34:51Z</time>
      </trkpt>
      <trkpt lat="38.1108860" lon="-2.6377460">
        <ele>1521.6</ele>
        <time>2020-07-15T05:34:53Z</time>
      </trkpt>
      <trkpt lat="38.1109050" lon="-2.6379120">
        <ele>1521.2</ele>
        <time>2020-07-15T05:34:54Z</time>
      </trkpt>
      <trkpt lat="38.1109750" lon="-2.6382260">
        <ele>1520.4</ele>
        <time>2020-07-15T05:34:56Z</time>
      </trkpt>
      <trkpt lat="38.1110320" lon="-2.6383990">
        <ele>1519.8</ele>
        <time>2020-07-15T05:34:57Z</time>
      </trkpt>
      <trkpt lat="38.1111510" lon="-2.6386880">
        <ele>1518.2</ele>
        <time>2020-07-15T05:34:59Z</time>
      </trkpt>
      <trkpt lat="38.1112960" lon="-2.6389520">
        <ele>1516.8</ele>
        <time>2020-07-15T05:35:01Z</time>
      </trkpt>
      <trkpt lat="38.1114230" lon="-2.6392170">
        <ele>1515.2</ele>
        <time>2020-07-15T05:35:03Z</time>
      </trkpt>
      <trkpt lat="38.1115270" lon="-2.6395220">
        <ele>1514.2</ele>
        <time>2020-07-15T05:35:05Z</time>
      </trkpt>
      <trkpt lat="38.1116220" lon="-2.6399510">
        <ele>1513.0</ele>
        <time>2020-07-15T05:35:08Z</time>
      </trkpt>
      <trkpt lat="38.1116440" lon="-2.6401060">
        <ele>1512.8</ele>
        <time>2020-07-15T05:35:09Z</time>
      </trkpt>
      <trkpt lat="38.1116740" lon="-2.6405090">
        <ele>1512.8</ele>
        <time>2020-07-15T05:35:12Z</time>
      </trkpt>
      <trkpt lat="38.1116970" lon="-2.6407700">
        <ele>1513.0</ele>
        <time>2020-07-15T05:35:14Z</time>
      </trkpt>
      <trkpt lat="38.1117510" lon="-2.6410170">
        <ele>1513.2</ele>
        <time>2020-07-15T05:35:16Z</time>
      </trkpt>
      <trkpt lat="38.1118070" lon="-2.6411380">
        <ele>1513.0</ele>
        <time>2020-07-15T05:35:17Z</time>
      </trkpt>
      <trkpt lat="38.1120270" lon="-2.6415740">
        <ele>1512.6</ele>
        <time>2020-07-15T05:35:21Z</time>
      </trkpt>
      <trkpt lat="38.1121930" lon="-2.6419430">
        <ele>1511.6</ele>
        <time>2020-07-15T05:35:24Z</time>
      </trkpt>
      <trkpt lat="38.1123130" lon="-2.6422110">
        <ele>1510.4</ele>
        <time>2020-07-15T05:35:26Z</time>
      </trkpt>
      <trkpt lat="38.1123940" lon="-2.6423380">
        <ele>1509.6</ele>
        <time>2020-07-15T05:35:27Z</time>
      </trkpt>
      <trkpt lat="38.1124790" lon="-2.6424410">
        <ele>1508.8</ele>
        <time>2020-07-15T05:35:28Z</time>
      </trkpt>
      <trkpt lat="38.1125900" lon="-2.6425670">
        <ele>1507.8</ele>
        <time>2020-07-15T05:35:29Z</time>
      </trkpt>
      <trkpt lat="38.1126830" lon="-2.6426910">
        <ele>1507.0</ele>
        <time>2020-07-15T05:35:30Z</time>
      </trkpt>
      <trkpt lat="38.1128440" lon="-2.6429830">
        <ele>1505.0</ele>
        <time>2020-07-15T05:35:32Z</time>
      </trkpt>
      <trkpt lat="38.1129090" lon="-2.6431170">
        <ele>1503.8</ele>
        <time>2020-07-15T05:35:33Z</time>
      </trkpt>
      <trkpt lat="38.1129970" lon="-2.6432560">
        <ele>1502.8</ele>
        <time>2020-07-15T05:35:34Z</time>
      </trkpt>
      <trkpt lat="38.1131110" lon="-2.6433750">
        <ele>1503.6</ele>
        <time>2020-07-15T05:35:35Z</time>
      </trkpt>
      <trkpt lat="38.1133420" lon="-2.6435520">
        <ele>1501.4</ele>
        <time>2020-07-15T05:35:37Z</time>
      </trkpt>
      <trkpt lat="38.1134390" lon="-2.6436200">
        <ele>1501.0</ele>
        <time>2020-07-15T05:35:38Z</time>
      </trkpt>
      <trkpt lat="38.1136810" lon="-2.6437780">
        <ele>1500.2</ele>
        <time>2020-07-15T05:35:40Z</time>
      </trkpt>
      <trkpt lat="38.1138780" lon="-2.6439440">
        <ele>1499.6</ele>
        <time>2020-07-15T05:35:42Z</time>
      </trkpt>
      <trkpt lat="38.1139500" lon="-2.6440340">
        <ele>1499.2</ele>
        <time>2020-07-15T05:35:43Z</time>
      </trkpt>
      <trkpt lat="38.1140570" lon="-2.6442080">
        <ele>1499.2</ele>
        <time>2020-07-15T05:35:45Z</time>
      </trkpt>
      <trkpt lat="38.1142020" lon="-2.6445440">
        <ele>1500.6</ele>
        <time>2020-07-15T05:35:48Z</time>
      </trkpt>
      <trkpt lat="38.1142310" lon="-2.6446370">
        <ele>1501.2</ele>
        <time>2020-07-15T05:35:49Z</time>
      </trkpt>
      <trkpt lat="38.1142590" lon="-2.6447260">
        <ele>1501.8</ele>
        <time>2020-07-15T05:35:50Z</time>
      </trkpt>
      <trkpt lat="38.1142730" lon="-2.6448110">
        <ele>1502.0</ele>
        <time>2020-07-15T05:35:51Z</time>
      </trkpt>
      <trkpt lat="38.1142790" lon="-2.6448880">
        <ele>1502.0</ele>
        <time>2020-07-15T05:35:52Z</time>
      </trkpt>
      <trkpt lat="38.1142800" lon="-2.6449680">
        <ele>1502.2</ele>
        <time>2020-07-15T05:35:53Z</time>
      </trkpt>
      <trkpt lat="38.1142650" lon="-2.6451270">
        <ele>1502.6</ele>
        <time>2020-07-15T05:35:55Z</time>
      </trkpt>
      <trkpt lat="38.1142530" lon="-2.6452030">
        <ele>1503.0</ele>
        <time>2020-07-15T05:35:56Z</time>
      </trkpt>
      <trkpt lat="38.1142310" lon="-2.6453440">
        <ele>1503.0</ele>
        <time>2020-07-15T05:35:58Z</time>
      </trkpt>
      <trkpt lat="38.1141910" lon="-2.6455920">
        <ele>1503.0</ele>
        <time>2020-07-15T05:36:01Z</time>
      </trkpt>
      <trkpt lat="38.1141640" lon="-2.6458350">
        <ele>1502.6</ele>
        <time>2020-07-15T05:36:04Z</time>
      </trkpt>
      <trkpt lat="38.1141620" lon="-2.6459220">
        <ele>1502.6</ele>
        <time>2020-07-15T05:36:05Z</time>
      </trkpt>
      <trkpt lat="38.1141690" lon="-2.6460040">
        <ele>1502.6</ele>
        <time>2020-07-15T05:36:06Z</time>
      </trkpt>
      <trkpt lat="38.1142190" lon="-2.6462530">
        <ele>1502.4</ele>
        <time>2020-07-15T05:36:09Z</time>
      </trkpt>
      <trkpt lat="38.1143180" lon="-2.6466040">
        <ele>1501.8</ele>
        <time>2020-07-15T05:36:13Z</time>
      </trkpt>
      <trkpt lat="38.1143480" lon="-2.6468130">
        <ele>1501.2</ele>
        <time>2020-07-15T05:36:15Z</time>
      </trkpt>
      <trkpt lat="38.1143570" lon="-2.6470410">
        <ele>1500.4</ele>
        <time>2020-07-15T05:36:17Z</time>
      </trkpt>
      <trkpt lat="38.1143680" lon="-2.6474020">
        <ele>1498.8</ele>
        <time>2020-07-15T05:36:20Z</time>
      </trkpt>
      <trkpt lat="38.1143660" lon="-2.6475250">
        <ele>1497.8</ele>
        <time>2020-07-15T05:36:21Z</time>
      </trkpt>
      <trkpt lat="38.1143510" lon="-2.6477780">
        <ele>1496.2</ele>
        <time>2020-07-15T05:36:23Z</time>
      </trkpt>
      <trkpt lat="38.1143220" lon="-2.6479140">
        <ele>1495.4</ele>
        <time>2020-07-15T05:36:24Z</time>
      </trkpt>
      <trkpt lat="38.1142820" lon="-2.6480440">
        <ele>1494.8</ele>
        <time>2020-07-15T05:36:25Z</time>
      </trkpt>
      <trkpt lat="38.1141660" lon="-2.6482870">
        <ele>1493.4</ele>
        <time>2020-07-15T05:36:27Z</time>
      </trkpt>
      <trkpt lat="38.1140970" lon="-2.6483820">
        <ele>1492.8</ele>
        <time>2020-07-15T05:36:28Z</time>
      </trkpt>
      <trkpt lat="38.1140030" lon="-2.6484980">
        <ele>1492.0</ele>
        <time>2020-07-15T05:36:29Z</time>
      </trkpt>
      <trkpt lat="38.1138010" lon="-2.6486740">
        <ele>1490.6</ele>
        <time>2020-07-15T05:36:31Z</time>
      </trkpt>
      <trkpt lat="38.1136990" lon="-2.6487630">
        <ele>1489.8</ele>
        <time>2020-07-15T05:36:32Z</time>
      </trkpt>
      <trkpt lat="38.1136020" lon="-2.6488440">
        <ele>1489.2</ele>
        <time>2020-07-15T05:36:33Z</time>
      </trkpt>
      <trkpt lat="38.1133810" lon="-2.6490330">
        <ele>1487.6</ele>
        <time>2020-07-15T05:36:35Z</time>
      </trkpt>
      <trkpt lat="38.1131630" lon="-2.6492180">
        <ele>1485.8</ele>
        <time>2020-07-15T05:36:37Z</time>
      </trkpt>
      <trkpt lat="38.1129420" lon="-2.6494010">
        <ele>1483.8</ele>
        <time>2020-07-15T05:36:39Z</time>
      </trkpt>
      <trkpt lat="38.1127300" lon="-2.6495960">
        <ele>1482.2</ele>
        <time>2020-07-15T05:36:41Z</time>
      </trkpt>
      <trkpt lat="38.1125410" lon="-2.6498100">
        <ele>1480.6</ele>
        <time>2020-07-15T05:36:43Z</time>
      </trkpt>
      <trkpt lat="38.1124480" lon="-2.6499220">
        <ele>1479.4</ele>
        <time>2020-07-15T05:36:44Z</time>
      </trkpt>
      <trkpt lat="38.1122910" lon="-2.6501550">
        <ele>1477.8</ele>
        <time>2020-07-15T05:36:46Z</time>
      </trkpt>
      <trkpt lat="38.1122150" lon="-2.6503000">
        <ele>1476.8</ele>
        <time>2020-07-15T05:36:47Z</time>
      </trkpt>
      <trkpt lat="38.1121540" lon="-2.6504370">
        <ele>1475.8</ele>
        <time>2020-07-15T05:36:48Z</time>
      </trkpt>
      <trkpt lat="38.1120870" lon="-2.6505800">
        <ele>1474.8</ele>
        <time>2020-07-15T05:36:49Z</time>
      </trkpt>
      <trkpt lat="38.1119650" lon="-2.6509020">
        <ele>1473.0</ele>
        <time>2020-07-15T05:36:51Z</time>
      </trkpt>
      <trkpt lat="38.1118470" lon="-2.6512050">
        <ele>1471.6</ele>
        <time>2020-07-15T05:36:53Z</time>
      </trkpt>
      <trkpt lat="38.1117870" lon="-2.6513690">
        <ele>1470.6</ele>
        <time>2020-07-15T05:36:54Z</time>
      </trkpt>
      <trkpt lat="38.1117290" lon="-2.6515210">
        <ele>1469.6</ele>
        <time>2020-07-15T05:36:55Z</time>
      </trkpt>
      <trkpt lat="38.1116710" lon="-2.6516780">
        <ele>1468.6</ele>
        <time>2020-07-15T05:36:56Z</time>
      </trkpt>
      <trkpt lat="38.1116160" lon="-2.6518210">
        <ele>1467.6</ele>
        <time>2020-07-15T05:36:57Z</time>
      </trkpt>
      <trkpt lat="38.1115670" lon="-2.6519430">
        <ele>1466.2</ele>
        <time>2020-07-15T05:36:58Z</time>
      </trkpt>
      <trkpt lat="38.1114580" lon="-2.6522470">
        <ele>1464.4</ele>
        <time>2020-07-15T05:37:00Z</time>
      </trkpt>
      <trkpt lat="38.1114040" lon="-2.6523910">
        <ele>1463.6</ele>
        <time>2020-07-15T05:37:01Z</time>
      </trkpt>
      <trkpt lat="38.1113470" lon="-2.6525290">
        <ele>1462.8</ele>
        <time>2020-07-15T05:37:02Z</time>
      </trkpt>
      <trkpt lat="38.1112320" lon="-2.6527660">
        <ele>1461.0</ele>
        <time>2020-07-15T05:37:04Z</time>
      </trkpt>
      <trkpt lat="38.1111550" lon="-2.6528730">
        <ele>1460.2</ele>
        <time>2020-07-15T05:37:05Z</time>
      </trkpt>
      <trkpt lat="38.1110830" lon="-2.6529750">
        <ele>1459.4</ele>
        <time>2020-07-15T05:37:06Z</time>
      </trkpt>
      <trkpt lat="38.1109930" lon="-2.6530590">
        <ele>1458.4</ele>
        <time>2020-07-15T05:37:07Z</time>
      </trkpt>
      <trkpt lat="38.1109110" lon="-2.6531390">
        <ele>1457.4</ele>
        <time>2020-07-15T05:37:08Z</time>
      </trkpt>
      <trkpt lat="38.1108270" lon="-2.6532360">
        <ele>1456.4</ele>
        <time>2020-07-15T05:37:09Z</time>
      </trkpt>
      <trkpt lat="38.1106940" lon="-2.6534070">
        <ele>1454.6</ele>
        <time>2020-07-15T05:37:11Z</time>
      </trkpt>
      <trkpt lat="38.1106360" lon="-2.6535050">
        <ele>1454.0</ele>
        <time>2020-07-15T05:37:12Z</time>
      </trkpt>
      <trkpt lat="38.1105900" lon="-2.6536120">
        <ele>1453.2</ele>
        <time>2020-07-15T05:37:13Z</time>
      </trkpt>
      <trkpt lat="38.1105060" lon="-2.6538520">
        <ele>1451.6</ele>
        <time>2020-07-15T05:37:15Z</time>
      </trkpt>
      <trkpt lat="38.1104700" lon="-2.6539630">
        <ele>1450.8</ele>
        <time>2020-07-15T05:37:16Z</time>
      </trkpt>
      <trkpt lat="38.1104340" lon="-2.6540880">
        <ele>1450.0</ele>
        <time>2020-07-15T05:37:17Z</time>
      </trkpt>
      <trkpt lat="38.1104070" lon="-2.6542060">
        <ele>1449.4</ele>
        <time>2020-07-15T05:37:18Z</time>
      </trkpt>
      <trkpt lat="38.1103760" lon="-2.6543460">
        <ele>1448.8</ele>
        <time>2020-07-15T05:37:19Z</time>
      </trkpt>
      <trkpt lat="38.1103590" lon="-2.6544850">
        <ele>1448.0</ele>
        <time>2020-07-15T05:37:20Z</time>
      </trkpt>
      <trkpt lat="38.1103550" lon="-2.6546280">
        <ele>1447.2</ele>
        <time>2020-07-15T05:37:21Z</time>
      </trkpt>
      <trkpt lat="38.1103610" lon="-2.6547650">
        <ele>1446.6</ele>
        <time>2020-07-15T05:37:22Z</time>
      </trkpt>
      <trkpt lat="38.1103760" lon="-2.6549070">
        <ele>1445.8</ele>
        <time>2020-07-15T05:37:23Z</time>
      </trkpt>
      <trkpt lat="38.1104360" lon="-2.6552020">
        <ele>1444.2</ele>
        <time>2020-07-15T05:37:25Z</time>
      </trkpt>
      <trkpt lat="38.1104860" lon="-2.6553470">
        <ele>1443.4</ele>
        <time>2020-07-15T05:37:26Z</time>
      </trkpt>
      <trkpt lat="38.1105480" lon="-2.6554920">
        <ele>1442.4</ele>
        <time>2020-07-15T05:37:27Z</time>
      </trkpt>
      <trkpt lat="38.1107000" lon="-2.6557590">
        <ele>1441.2</ele>
        <time>2020-07-15T05:37:29Z</time>
      </trkpt>
      <trkpt lat="38.1107930" lon="-2.6558780">
        <ele>1440.0</ele>
        <time>2020-07-15T05:37:30Z</time>
      </trkpt>
      <trkpt lat="38.1108970" lon="-2.6559880">
        <ele>1439.0</ele>
        <time>2020-07-15T05:37:31Z</time>
      </trkpt>
      <trkpt lat="38.1110060" lon="-2.6560900">
        <ele>1438.0</ele>
        <time>2020-07-15T05:37:32Z</time>
      </trkpt>
      <trkpt lat="38.1111140" lon="-2.6561850">
        <ele>1437.0</ele>
        <time>2020-07-15T05:37:33Z</time>
      </trkpt>
      <trkpt lat="38.1113410" lon="-2.6563840">
        <ele>1435.2</ele>
        <time>2020-07-15T05:37:35Z</time>
      </trkpt>
      <trkpt lat="38.1115740" lon="-2.6565910">
        <ele>1433.4</ele>
        <time>2020-07-15T05:37:37Z</time>
      </trkpt>
      <trkpt lat="38.1116820" lon="-2.6566820">
        <ele>1432.4</ele>
        <time>2020-07-15T05:37:38Z</time>
      </trkpt>
      <trkpt lat="38.1119260" lon="-2.6568970">
        <ele>1430.6</ele>
        <time>2020-07-15T05:37:40Z</time>
      </trkpt>
      <trkpt lat="38.1120520" lon="-2.6570080">
        <ele>1429.6</ele>
        <time>2020-07-15T05:37:41Z</time>
      </trkpt>
      <trkpt lat="38.1121720" lon="-2.6571120">
        <ele>1428.6</ele>
        <time>2020-07-15T05:37:42Z</time>
      </trkpt>
      <trkpt lat="38.1122840" lon="-2.6572040">
        <ele>1427.4</ele>
        <time>2020-07-15T05:37:43Z</time>
      </trkpt>
      <trkpt lat="38.1124130" lon="-2.6572990">
        <ele>1426.6</ele>
        <time>2020-07-15T05:37:44Z</time>
      </trkpt>
      <trkpt lat="38.1125390" lon="-2.6573760">
        <ele>1425.4</ele>
        <time>2020-07-15T05:37:45Z</time>
      </trkpt>
      <trkpt lat="38.1126670" lon="-2.6574410">
        <ele>1424.4</ele>
        <time>2020-07-15T05:37:46Z</time>
      </trkpt>
      <trkpt lat="38.1129330" lon="-2.6575530">
        <ele>1422.4</ele>
        <time>2020-07-15T05:37:48Z</time>
      </trkpt>
      <trkpt lat="38.1130730" lon="-2.6576110">
        <ele>1421.4</ele>
        <time>2020-07-15T05:37:49Z</time>
      </trkpt>
      <trkpt lat="38.1133360" lon="-2.6577160">
        <ele>1419.4</ele>
        <time>2020-07-15T05:37:51Z</time>
      </trkpt>
      <trkpt lat="38.1135870" lon="-2.6578160">
        <ele>1417.8</ele>
        <time>2020-07-15T05:37:53Z</time>
      </trkpt>
      <trkpt lat="38.1137260" lon="-2.6578720">
        <ele>1416.6</ele>
        <time>2020-07-15T05:37:54Z</time>
      </trkpt>
      <trkpt lat="38.1138500" lon="-2.6579260">
        <ele>1415.4</ele>
        <time>2020-07-15T05:37:55Z</time>
      </trkpt>
      <trkpt lat="38.1139710" lon="-2.6579770">
        <ele>1414.4</ele>
        <time>2020-07-15T05:37:56Z</time>
      </trkpt>
      <trkpt lat="38.1142060" lon="-2.6580810">
        <ele>1412.6</ele>
        <time>2020-07-15T05:37:58Z</time>
      </trkpt>
      <trkpt lat="38.1144490" lon="-2.6581780">
        <ele>1410.6</ele>
        <time>2020-07-15T05:38:00Z</time>
      </trkpt>
      <trkpt lat="38.1146790" lon="-2.6582500">
        <ele>1409.0</ele>
        <time>2020-07-15T05:38:02Z</time>
      </trkpt>
      <trkpt lat="38.1149090" lon="-2.6582660">
        <ele>1407.4</ele>
        <time>2020-07-15T05:38:04Z</time>
      </trkpt>
      <trkpt lat="38.1150330" lon="-2.6582400">
        <ele>1406.8</ele>
        <time>2020-07-15T05:38:05Z</time>
      </trkpt>
      <trkpt lat="38.1151470" lon="-2.6582020">
        <ele>1406.2</ele>
        <time>2020-07-15T05:38:06Z</time>
      </trkpt>
      <trkpt lat="38.1153690" lon="-2.6581460">
        <ele>1404.8</ele>
        <time>2020-07-15T05:38:08Z</time>
      </trkpt>
      <trkpt lat="38.1154900" lon="-2.6581530">
        <ele>1404.2</ele>
        <time>2020-07-15T05:38:09Z</time>
      </trkpt>
      <trkpt lat="38.1156900" lon="-2.6582580">
        <ele>1403.4</ele>
        <time>2020-07-15T05:38:11Z</time>
      </trkpt>
      <trkpt lat="38.1158310" lon="-2.6584580">
        <ele>1402.6</ele>
        <time>2020-07-15T05:38:13Z</time>
      </trkpt>
      <trkpt lat="38.1159240" lon="-2.6586850">
        <ele>1402.2</ele>
        <time>2020-07-15T05:38:15Z</time>
      </trkpt>
      <trkpt lat="38.1159680" lon="-2.6587940">
        <ele>1402.0</ele>
        <time>2020-07-15T05:38:16Z</time>
      </trkpt>
      <trkpt lat="38.1161370" lon="-2.6592440">
        <ele>1401.8</ele>
        <time>2020-07-15T05:38:20Z</time>
      </trkpt>
      <trkpt lat="38.1162530" lon="-2.6595480">
        <ele>1401.6</ele>
        <time>2020-07-15T05:38:23Z</time>
      </trkpt>
      <trkpt lat="38.1164380" lon="-2.6600260">
        <ele>1401.0</ele>
        <time>2020-07-15T05:38:28Z</time>
      </trkpt>
      <trkpt lat="38.1165510" lon="-2.6603280">
        <ele>1400.8</ele>
        <time>2020-07-15T05:38:31Z</time>
      </trkpt>
      <trkpt lat="38.1165730" lon="-2.6604350">
        <ele>1400.8</ele>
        <time>2020-07-15T05:38:32Z</time>
      </trkpt>
      <trkpt lat="38.1165810" lon="-2.6606430">
        <ele>1400.4</ele>
        <time>2020-07-15T05:38:34Z</time>
      </trkpt>
      <trkpt lat="38.1165650" lon="-2.6607570">
        <ele>1400.0</ele>
        <time>2020-07-15T05:38:35Z</time>
      </trkpt>
      <trkpt lat="38.1164970" lon="-2.6609670">
        <ele>1399.2</ele>
        <time>2020-07-15T05:38:37Z</time>
      </trkpt>
      <trkpt lat="38.1164580" lon="-2.6610610">
        <ele>1398.8</ele>
        <time>2020-07-15T05:38:38Z</time>
      </trkpt>
      <trkpt lat="38.1164190" lon="-2.6611570">
        <ele>1398.2</ele>
        <time>2020-07-15T05:38:39Z</time>
      </trkpt>
      <trkpt lat="38.1163820" lon="-2.6612490">
        <ele>1397.6</ele>
        <time>2020-07-15T05:38:40Z</time>
      </trkpt>
      <trkpt lat="38.1162830" lon="-2.6614820">
        <ele>1396.0</ele>
        <time>2020-07-15T05:38:42Z</time>
      </trkpt>
      <trkpt lat="38.1162450" lon="-2.6615770">
        <ele>1395.4</ele>
        <time>2020-07-15T05:38:43Z</time>
      </trkpt>
      <trkpt lat="38.1162000" lon="-2.6616950">
        <ele>1394.6</ele>
        <time>2020-07-15T05:38:44Z</time>
      </trkpt>
      <trkpt lat="38.1161330" lon="-2.6619160">
        <ele>1393.0</ele>
        <time>2020-07-15T05:38:46Z</time>
      </trkpt>
      <trkpt lat="38.1161120" lon="-2.6620400">
        <ele>1392.0</ele>
        <time>2020-07-15T05:38:47Z</time>
      </trkpt>
      <trkpt lat="38.1160990" lon="-2.6621580">
        <ele>1391.2</ele>
        <time>2020-07-15T05:38:48Z</time>
      </trkpt>
      <trkpt lat="38.1161010" lon="-2.6624090">
        <ele>1389.6</ele>
        <time>2020-07-15T05:38:50Z</time>
      </trkpt>
      <trkpt lat="38.1161080" lon="-2.6625290">
        <ele>1388.8</ele>
        <time>2020-07-15T05:38:51Z</time>
      </trkpt>
      <trkpt lat="38.1161120" lon="-2.6626440">
        <ele>1388.0</ele>
        <time>2020-07-15T05:38:52Z</time>
      </trkpt>
      <trkpt lat="38.1161200" lon="-2.6628950">
        <ele>1386.4</ele>
        <time>2020-07-15T05:38:54Z</time>
      </trkpt>
      <trkpt lat="38.1161100" lon="-2.6631340">
        <ele>1384.8</ele>
        <time>2020-07-15T05:38:56Z</time>
      </trkpt>
      <trkpt lat="38.1160840" lon="-2.6633700">
        <ele>1383.2</ele>
        <time>2020-07-15T05:38:58Z</time>
      </trkpt>
      <trkpt lat="38.1160460" lon="-2.6636420">
        <ele>1381.4</ele>
        <time>2020-07-15T05:39:00Z</time>
      </trkpt>
      <trkpt lat="38.1160370" lon="-2.6638990">
        <ele>1379.8</ele>
        <time>2020-07-15T05:39:02Z</time>
      </trkpt>
      <trkpt lat="38.1160510" lon="-2.6640190">
        <ele>1379.0</ele>
        <time>2020-07-15T05:39:03Z</time>
      </trkpt>
      <trkpt lat="38.1160780" lon="-2.6641400">
        <ele>1378.0</ele>
        <time>2020-07-15T05:39:04Z</time>
      </trkpt>
      <trkpt lat="38.1161430" lon="-2.6643900">
        <ele>1376.2</ele>
        <time>2020-07-15T05:39:06Z</time>
      </trkpt>
      <trkpt lat="38.1161540" lon="-2.6645310">
        <ele>1375.0</ele>
        <time>2020-07-15T05:39:07Z</time>
      </trkpt>
      <trkpt lat="38.1161580" lon="-2.6648030">
        <ele>1373.4</ele>
        <time>2020-07-15T05:39:09Z</time>
      </trkpt>
      <trkpt lat="38.1161630" lon="-2.6650960">
        <ele>1372.0</ele>
        <time>2020-07-15T05:39:11Z</time>
      </trkpt>
      <trkpt lat="38.1161700" lon="-2.6653700">
        <ele>1370.8</ele>
        <time>2020-07-15T05:39:13Z</time>
      </trkpt>
      <trkpt lat="38.1161490" lon="-2.6656640">
        <ele>1369.0</ele>
        <time>2020-07-15T05:39:15Z</time>
      </trkpt>
      <trkpt lat="38.1160800" lon="-2.6659400">
        <ele>1367.2</ele>
        <time>2020-07-15T05:39:17Z</time>
      </trkpt>
      <trkpt lat="38.1160400" lon="-2.6660660">
        <ele>1366.2</ele>
        <time>2020-07-15T05:39:18Z</time>
      </trkpt>
      <trkpt lat="38.1159950" lon="-2.6662110">
        <ele>1365.6</ele>
        <time>2020-07-15T05:39:19Z</time>
      </trkpt>
      <trkpt lat="38.1159210" lon="-2.6664690">
        <ele>1364.0</ele>
        <time>2020-07-15T05:39:21Z</time>
      </trkpt>
      <trkpt lat="38.1159040" lon="-2.6665780">
        <ele>1363.2</ele>
        <time>2020-07-15T05:39:22Z</time>
      </trkpt>
      <trkpt lat="38.1159200" lon="-2.6666750">
        <ele>1362.4</ele>
        <time>2020-07-15T05:39:23Z</time>
      </trkpt>
      <trkpt lat="38.1160330" lon="-2.6668060">
        <ele>1360.6</ele>
        <time>2020-07-15T05:39:25Z</time>
      </trkpt>
      <trkpt lat="38.1162030" lon="-2.6667910">
        <ele>1358.8</ele>
        <time>2020-07-15T05:39:27Z</time>
      </trkpt>
      <trkpt lat="38.1163600" lon="-2.6666780">
        <ele>1357.6</ele>
        <time>2020-07-15T05:39:29Z</time>
      </trkpt>
      <trkpt lat="38.1164170" lon="-2.6665790">
        <ele>1357.0</ele>
        <time>2020-07-15T05:39:30Z</time>
      </trkpt>
      <trkpt lat="38.1164520" lon="-2.6664640">
        <ele>1356.4</ele>
        <time>2020-07-15T05:39:31Z</time>
      </trkpt>
      <trkpt lat="38.1164980" lon="-2.6662350">
        <ele>1355.4</ele>
        <time>2020-07-15T05:39:33Z</time>
      </trkpt>
      <trkpt lat="38.1165570" lon="-2.6658680">
        <ele>1354.0</ele>
        <time>2020-07-15T05:39:36Z</time>
      </trkpt>
      <trkpt lat="38.1165820" lon="-2.6655090">
        <ele>1353.0</ele>
        <time>2020-07-15T05:39:39Z</time>
      </trkpt>
      <trkpt lat="38.1165880" lon="-2.6653980">
        <ele>1353.0</ele>
        <time>2020-07-15T05:39:40Z</time>
      </trkpt>
      <trkpt lat="38.1166010" lon="-2.6651610">
        <ele>1352.6</ele>
        <time>2020-07-15T05:39:42Z</time>
      </trkpt>
      <trkpt lat="38.1166300" lon="-2.6647250">
        <ele>1352.4</ele>
        <time>2020-07-15T05:39:46Z</time>
      </trkpt>
      <trkpt lat="38.1166420" lon="-2.6645180">
        <ele>1352.2</ele>
        <time>2020-07-15T05:39:48Z</time>
      </trkpt>
      <trkpt lat="38.1166500" lon="-2.6642100">
        <ele>1352.4</ele>
        <time>2020-07-15T05:39:51Z</time>
      </trkpt>
      <trkpt lat="38.1166440" lon="-2.6640350">
        <ele>1352.6</ele>
        <time>2020-07-15T05:39:53Z</time>
      </trkpt>
      <trkpt lat="38.1166380" lon="-2.6639400">
        <ele>1352.8</ele>
        <time>2020-07-15T05:39:54Z</time>
      </trkpt>
      <trkpt lat="38.1166140" lon="-2.6637160">
        <ele>1353.4</ele>
        <time>2020-07-15T05:39:57Z</time>
      </trkpt>
      <trkpt lat="38.1166110" lon="-2.6635800">
        <ele>1354.0</ele>
        <time>2020-07-15T05:39:59Z</time>
      </trkpt>
      <trkpt lat="38.1166140" lon="-2.6634490">
        <ele>1354.8</ele>
        <time>2020-07-15T05:40:01Z</time>
      </trkpt>
      <trkpt lat="38.1166220" lon="-2.6633870">
        <ele>1355.2</ele>
        <time>2020-07-15T05:40:02Z</time>
      </trkpt>
      <trkpt lat="38.1166610" lon="-2.6632100">
        <ele>1355.8</ele>
        <time>2020-07-15T05:40:05Z</time>
      </trkpt>
      <trkpt lat="38.1166910" lon="-2.6630920">
        <ele>1356.2</ele>
        <time>2020-07-15T05:40:07Z</time>
      </trkpt>
      <trkpt lat="38.1167550" lon="-2.6629270">
        <ele>1356.8</ele>
        <time>2020-07-15T05:40:10Z</time>
      </trkpt>
      <trkpt lat="38.1168120" lon="-2.6628220">
        <ele>1357.2</ele>
        <time>2020-07-15T05:40:12Z</time>
      </trkpt>
      <trkpt lat="38.1168450" lon="-2.6627830">
        <ele>1357.2</ele>
        <time>2020-07-15T05:40:13Z</time>
      </trkpt>
      <trkpt lat="38.1170310" lon="-2.6626140">
        <ele>1357.4</ele>
        <time>2020-07-15T05:40:17Z</time>
      </trkpt>
      <trkpt lat="38.1174120" lon="-2.6623780">
        <ele>1356.0</ele>
        <time>2020-07-15T05:40:23Z</time>
      </trkpt>
      <trkpt lat="38.1176860" lon="-2.6623310">
        <ele>1354.6</ele>
        <time>2020-07-15T05:40:26Z</time>
      </trkpt>
      <trkpt lat="38.1177860" lon="-2.6623260">
        <ele>1354.0</ele>
        <time>2020-07-15T05:40:27Z</time>
      </trkpt>
      <trkpt lat="38.1178720" lon="-2.6623260">
        <ele>1353.6</ele>
        <time>2020-07-15T05:40:28Z</time>
      </trkpt>
      <trkpt lat="38.1179880" lon="-2.6623400">
        <ele>1352.8</ele>
        <time>2020-07-15T05:40:29Z</time>
      </trkpt>
      <trkpt lat="38.1180760" lon="-2.6623730">
        <ele>1352.0</ele>
        <time>2020-07-15T05:40:30Z</time>
      </trkpt>
      <trkpt lat="38.1181540" lon="-2.6624200">
        <ele>1351.4</ele>
        <time>2020-07-15T05:40:31Z</time>
      </trkpt>
      <trkpt lat="38.1182250" lon="-2.6624910">
        <ele>1350.8</ele>
        <time>2020-07-15T05:40:32Z</time>
      </trkpt>
      <trkpt lat="38.1182890" lon="-2.6626860">
        <ele>1349.6</ele>
        <time>2020-07-15T05:40:34Z</time>
      </trkpt>
      <trkpt lat="38.1182410" lon="-2.6629160">
        <ele>1348.0</ele>
        <time>2020-07-15T05:40:36Z</time>
      </trkpt>
      <trkpt lat="38.1181020" lon="-2.6630770">
        <ele>1346.2</ele>
        <time>2020-07-15T05:40:38Z</time>
      </trkpt>
      <trkpt lat="38.1180090" lon="-2.6631470">
        <ele>1345.2</ele>
        <time>2020-07-15T05:40:39Z</time>
      </trkpt>
      <trkpt lat="38.1178150" lon="-2.6632840">
        <ele>1343.6</ele>
        <time>2020-07-15T05:40:41Z</time>
      </trkpt>
      <trkpt lat="38.1176300" lon="-2.6634180">
        <ele>1342.0</ele>
        <time>2020-07-15T05:40:43Z</time>
      </trkpt>
      <trkpt lat="38.1174800" lon="-2.6635440">
        <ele>1340.8</ele>
        <time>2020-07-15T05:40:45Z</time>
      </trkpt>
      <trkpt lat="38.1173290" lon="-2.6637620">
        <ele>1339.2</ele>
        <time>2020-07-15T05:40:47Z</time>
      </trkpt>
      <trkpt lat="38.1172880" lon="-2.6639880">
        <ele>1337.4</ele>
        <time>2020-07-15T05:40:49Z</time>
      </trkpt>
      <trkpt lat="38.1172900" lon="-2.6641130">
        <ele>1336.6</ele>
        <time>2020-07-15T05:40:50Z</time>
      </trkpt>
      <trkpt lat="38.1173100" lon="-2.6642400">
        <ele>1335.6</ele>
        <time>2020-07-15T05:40:51Z</time>
      </trkpt>
      <trkpt lat="38.1173360" lon="-2.6643470">
        <ele>1334.4</ele>
        <time>2020-07-15T05:40:52Z</time>
      </trkpt>
      <trkpt lat="38.1173750" lon="-2.6644910">
        <ele>1333.2</ele>
        <time>2020-07-15T05:40:53Z</time>
      </trkpt>
      <trkpt lat="38.1174520" lon="-2.6647600">
        <ele>1331.4</ele>
        <time>2020-07-15T05:40:55Z</time>
      </trkpt>
      <trkpt lat="38.1175270" lon="-2.6650000">
        <ele>1329.8</ele>
        <time>2020-07-15T05:40:57Z</time>
      </trkpt>
      <trkpt lat="38.1176250" lon="-2.6651970">
        <ele>1328.6</ele>
        <time>2020-07-15T05:40:59Z</time>
      </trkpt>
      <trkpt lat="38.1177820" lon="-2.6653070">
        <ele>1327.4</ele>
        <time>2020-07-15T05:41:01Z</time>
      </trkpt>
      <trkpt lat="38.1178810" lon="-2.6653090">
        <ele>1326.4</ele>
        <time>2020-07-15T05:41:02Z</time>
      </trkpt>
      <trkpt lat="38.1179750" lon="-2.6652860">
        <ele>1325.2</ele>
        <time>2020-07-15T05:41:03Z</time>
      </trkpt>
      <trkpt lat="38.1180760" lon="-2.6652660">
        <ele>1324.0</ele>
        <time>2020-07-15T05:41:04Z</time>
      </trkpt>
      <trkpt lat="38.1181900" lon="-2.6652840">
        <ele>1322.8</ele>
        <time>2020-07-15T05:41:05Z</time>
      </trkpt>
      <trkpt lat="38.1182930" lon="-2.6653420">
        <ele>1321.4</ele>
        <time>2020-07-15T05:41:06Z</time>
      </trkpt>
      <trkpt lat="38.1183880" lon="-2.6654250">
        <ele>1320.4</ele>
        <time>2020-07-15T05:41:07Z</time>
      </trkpt>
      <trkpt lat="38.1184730" lon="-2.6655120">
        <ele>1319.2</ele>
        <time>2020-07-15T05:41:08Z</time>
      </trkpt>
      <trkpt lat="38.1185690" lon="-2.6656060">
        <ele>1318.2</ele>
        <time>2020-07-15T05:41:09Z</time>
      </trkpt>
      <trkpt lat="38.1186550" lon="-2.6656900">
        <ele>1317.2</ele>
        <time>2020-07-15T05:41:10Z</time>
      </trkpt>
      <trkpt lat="38.1188360" lon="-2.6658770">
        <ele>1315.6</ele>
        <time>2020-07-15T05:41:12Z</time>
      </trkpt>
      <trkpt lat="38.1189930" lon="-2.6660550">
        <ele>1314.6</ele>
        <time>2020-07-15T05:41:14Z</time>
      </trkpt>
      <trkpt lat="38.1190580" lon="-2.6661430">
        <ele>1314.4</ele>
        <time>2020-07-15T05:41:15Z</time>
      </trkpt>
      <trkpt lat="38.1191060" lon="-2.6662270">
        <ele>1314.2</ele>
        <time>2020-07-15T05:41:16Z</time>
      </trkpt>
      <trkpt lat="38.1191570" lon="-2.6664090">
        <ele>1314.4</ele>
        <time>2020-07-15T05:41:18Z</time>
      </trkpt>
      <trkpt lat="38.1191660" lon="-2.6666530">
        <ele>1315.6</ele>
        <time>2020-07-15T05:41:21Z</time>
      </trkpt>
      <trkpt lat="38.1191650" lon="-2.6667200">
        <ele>1316.4</ele>
        <time>2020-07-15T05:41:22Z</time>
      </trkpt>
      <trkpt lat="38.1191650" lon="-2.6667860">
        <ele>1317.0</ele>
        <time>2020-07-15T05:41:23Z</time>
      </trkpt>
      <trkpt lat="38.1191730" lon="-2.6668570">
        <ele>1317.4</ele>
        <time>2020-07-15T05:41:24Z</time>
      </trkpt>
      <trkpt lat="38.1191960" lon="-2.6669860">
        <ele>1318.4</ele>
        <time>2020-07-15T05:41:26Z</time>
      </trkpt>
      <trkpt lat="38.1192100" lon="-2.6670500">
        <ele>1318.6</ele>
        <time>2020-07-15T05:41:27Z</time>
      </trkpt>
      <trkpt lat="38.1192400" lon="-2.6672600">
        <ele>1319.0</ele>
        <time>2020-07-15T05:41:30Z</time>
      </trkpt>
      <trkpt lat="38.1192150" lon="-2.6674380">
        <ele>1318.8</ele>
        <time>2020-07-15T05:41:32Z</time>
      </trkpt>
      <trkpt lat="38.1191320" lon="-2.6677430">
        <ele>1317.8</ele>
        <time>2020-07-15T05:41:35Z</time>
      </trkpt>
      <trkpt lat="38.1191030" lon="-2.6678570">
        <ele>1317.4</ele>
        <time>2020-07-15T05:41:36Z</time>
      </trkpt>
      <trkpt lat="38.1190760" lon="-2.6679760">
        <ele>1316.6</ele>
        <time>2020-07-15T05:41:37Z</time>
      </trkpt>
      <trkpt lat="38.1190280" lon="-2.6682310">
        <ele>1315.4</ele>
        <time>2020-07-15T05:41:39Z</time>
      </trkpt>
      <trkpt lat="38.1190000" lon="-2.6684920">
        <ele>1314.4</ele>
        <time>2020-07-15T05:41:41Z</time>
      </trkpt>
      <trkpt lat="38.1190010" lon="-2.6687410">
        <ele>1312.4</ele>
        <time>2020-07-15T05:41:43Z</time>
      </trkpt>
      <trkpt lat="38.1190120" lon="-2.6688690">
        <ele>1311.2</ele>
        <time>2020-07-15T05:41:44Z</time>
      </trkpt>
      <trkpt lat="38.1190340" lon="-2.6689700">
        <ele>1310.0</ele>
        <time>2020-07-15T05:41:45Z</time>
      </trkpt>
      <trkpt lat="38.1190620" lon="-2.6690640">
        <ele>1308.6</ele>
        <time>2020-07-15T05:41:46Z</time>
      </trkpt>
      <trkpt lat="38.1191020" lon="-2.6691640">
        <ele>1307.4</ele>
        <time>2020-07-15T05:41:47Z</time>
      </trkpt>
      <trkpt lat="38.1191940" lon="-2.6693350">
        <ele>1305.4</ele>
        <time>2020-07-15T05:41:49Z</time>
      </trkpt>
      <trkpt lat="38.1192450" lon="-2.6694210">
        <ele>1304.8</ele>
        <time>2020-07-15T05:41:50Z</time>
      </trkpt>
      <trkpt lat="38.1192980" lon="-2.6695070">
        <ele>1304.0</ele>
        <time>2020-07-15T05:41:51Z</time>
      </trkpt>
      <trkpt lat="38.1193990" lon="-2.6696610">
        <ele>1302.6</ele>
        <time>2020-07-15T05:41:53Z</time>
      </trkpt>
      <trkpt lat="38.1194450" lon="-2.6697590">
        <ele>1302.2</ele>
        <time>2020-07-15T05:41:54Z</time>
      </trkpt>
      <trkpt lat="38.1194560" lon="-2.6698620">
        <ele>1302.0</ele>
        <time>2020-07-15T05:41:55Z</time>
      </trkpt>
      <trkpt lat="38.1194020" lon="-2.6700350">
        <ele>1301.8</ele>
        <time>2020-07-15T05:41:57Z</time>
      </trkpt>
      <trkpt lat="38.1192850" lon="-2.6702510">
        <ele>1301.6</ele>
        <time>2020-07-15T05:42:00Z</time>
      </trkpt>
      <trkpt lat="38.1192360" lon="-2.6703190">
        <ele>1301.8</ele>
        <time>2020-07-15T05:42:01Z</time>
      </trkpt>
      <trkpt lat="38.1190390" lon="-2.6705700">
        <ele>1301.6</ele>
        <time>2020-07-15T05:42:05Z</time>
      </trkpt>
      <trkpt lat="38.1189600" lon="-2.6707190">
        <ele>1301.0</ele>
        <time>2020-07-15T05:42:07Z</time>
      </trkpt>
      <trkpt lat="38.1189150" lon="-2.6708880">
        <ele>1300.4</ele>
        <time>2020-07-15T05:42:09Z</time>
      </trkpt>
      <trkpt lat="38.1188990" lon="-2.6710590">
        <ele>1300.2</ele>
        <time>2020-07-15T05:42:11Z</time>
      </trkpt>
      <trkpt lat="38.1189080" lon="-2.6712080">
        <ele>1300.4</ele>
        <time>2020-07-15T05:42:13Z</time>
      </trkpt>
      <trkpt lat="38.1189470" lon="-2.6713230">
        <ele>1300.6</ele>
        <time>2020-07-15T05:42:15Z</time>
      </trkpt>
      <trkpt lat="38.1189670" lon="-2.6713790">
        <ele>1300.6</ele>
        <time>2020-07-15T05:42:16Z</time>
      </trkpt>
      <trkpt lat="38.1190150" lon="-2.6715640">
        <ele>1300.8</ele>
        <time>2020-07-15T05:42:19Z</time>
      </trkpt>
      <trkpt lat="38.1190290" lon="-2.6716920">
        <ele>1301.2</ele>
        <time>2020-07-15T05:42:21Z</time>
      </trkpt>
      <trkpt lat="38.1190480" lon="-2.6718810">
        <ele>1301.4</ele>
        <time>2020-07-15T05:42:24Z</time>
      </trkpt>
      <trkpt lat="38.1190560" lon="-2.6719420">
        <ele>1301.4</ele>
        <time>2020-07-15T05:42:25Z</time>
      </trkpt>
      <trkpt lat="38.1190650" lon="-2.6719950">
        <ele>1301.4</ele>
        <time>2020-07-15T05:42:26Z</time>
      </trkpt>
      <trkpt lat="38.1190690" lon="-2.6720520">
        <ele>1301.6</ele>
        <time>2020-07-15T05:42:27Z</time>
      </trkpt>
      <trkpt lat="38.1190720" lon="-2.6720990">
        <ele>1301.6</ele>
        <time>2020-07-15T05:42:28Z</time>
      </trkpt>
      <trkpt lat="38.1190810" lon="-2.6723540">
        <ele>1302.4</ele>
        <time>2020-07-15T05:42:33Z</time>
      </trkpt>
      <trkpt lat="38.1190950" lon="-2.6724430">
        <ele>1302.6</ele>
        <time>2020-07-15T05:42:35Z</time>
      </trkpt>
      <trkpt lat="38.1191180" lon="-2.6725210">
        <ele>1303.2</ele>
        <time>2020-07-15T05:42:37Z</time>
      </trkpt>
      <trkpt lat="38.1191340" lon="-2.6726030">
        <ele>1303.8</ele>
        <time>2020-07-15T05:42:39Z</time>
      </trkpt>
      <trkpt lat="38.1191600" lon="-2.6726780">
        <ele>1304.4</ele>
        <time>2020-07-15T05:42:41Z</time>
      </trkpt>
      <trkpt lat="38.1191730" lon="-2.6727400">
        <ele>1304.8</ele>
        <time>2020-07-15T05:42:43Z</time>
      </trkpt>
      <trkpt lat="38.1191830" lon="-2.6727810">
        <ele>1305.2</ele>
        <time>2020-07-15T05:42:44Z</time>
      </trkpt>
      <trkpt lat="38.1191970" lon="-2.6728430">
        <ele>1305.8</ele>
        <time>2020-07-15T05:42:46Z</time>
      </trkpt>
      <trkpt lat="38.1192040" lon="-2.6729040">
        <ele>1306.4</ele>
        <time>2020-07-15T05:42:48Z</time>
      </trkpt>
      <trkpt lat="38.1192140" lon="-2.6730290">
        <ele>1307.6</ele>
        <time>2020-07-15T05:42:52Z</time>
      </trkpt>
      <trkpt lat="38.1192140" lon="-2.6730620">
        <ele>1307.8</ele>
        <time>2020-07-15T05:42:53Z</time>
      </trkpt>
      <trkpt lat="38.1192250" lon="-2.6731960">
        <ele>1308.8</ele>
        <time>2020-07-15T05:42:57Z</time>
      </trkpt>
      <trkpt lat="38.1192320" lon="-2.6733040">
        <ele>1309.6</ele>
        <time>2020-07-15T05:43:00Z</time>
      </trkpt>
      <trkpt lat="38.1192380" lon="-2.6733780">
        <ele>1310.0</ele>
        <time>2020-07-15T05:43:02Z</time>
      </trkpt>
      <trkpt lat="38.1192540" lon="-2.6735120">
        <ele>1311.0</ele>
        <time>2020-07-15T05:43:06Z</time>
      </trkpt>
      <trkpt lat="38.1192610" lon="-2.6735440">
        <ele>1311.2</ele>
        <time>2020-07-15T05:43:07Z</time>
      </trkpt>
      <trkpt lat="38.1192810" lon="-2.6736650">
        <ele>1312.0</ele>
        <time>2020-07-15T05:43:11Z</time>
      </trkpt>
      <trkpt lat="38.1193090" lon="-2.6738250">
        <ele>1313.2</ele>
        <time>2020-07-15T05:43:16Z</time>
      </trkpt>
      <trkpt lat="38.1193310" lon="-2.6739550">
        <ele>1314.2</ele>
        <time>2020-07-15T05:43:20Z</time>
      </trkpt>
      <trkpt lat="38.1193580" lon="-2.6741110">
        <ele>1315.2</ele>
        <time>2020-07-15T05:43:25Z</time>
      </trkpt>
      <trkpt lat="38.1193940" lon="-2.6742950">
        <ele>1316.4</ele>
        <time>2020-07-15T05:43:31Z</time>
      </trkpt>
      <trkpt lat="38.1194140" lon="-2.6744220">
        <ele>1317.2</ele>
        <time>2020-07-15T05:43:35Z</time>
      </trkpt>
      <trkpt lat="38.1194190" lon="-2.6744560">
        <ele>1317.6</ele>
        <time>2020-07-15T05:43:36Z</time>
      </trkpt>
      <trkpt lat="38.1194530" lon="-2.6746510">
        <ele>1318.8</ele>
        <time>2020-07-15T05:43:42Z</time>
      </trkpt>
      <trkpt lat="38.1194620" lon="-2.6747540">
        <ele>1319.2</ele>
        <time>2020-07-15T05:43:45Z</time>
      </trkpt>
      <trkpt lat="38.1194750" lon="-2.6748540">
        <ele>1319.8</ele>
        <time>2020-07-15T05:43:48Z</time>
      </trkpt>
      <trkpt lat="38.1194950" lon="-2.6751140">
        <ele>1321.0</ele>
        <time>2020-07-15T05:43:55Z</time>
      </trkpt>
      <trkpt lat="38.1194950" lon="-2.6751510">
        <ele>1321.2</ele>
        <time>2020-07-15T05:43:56Z</time>
      </trkpt>
      <trkpt lat="38.1194780" lon="-2.6753900">
        <ele>1322.0</ele>
        <time>2020-07-15T05:44:02Z</time>
      </trkpt>
      <trkpt lat="38.1194640" lon="-2.6755600">
        <ele>1322.4</ele>
        <time>2020-07-15T05:44:06Z</time>
      </trkpt>
      <trkpt lat="38.1194330" lon="-2.6757810">
        <ele>1323.0</ele>
        <time>2020-07-15T05:44:11Z</time>
      </trkpt>
      <trkpt lat="38.1193970" lon="-2.6760130">
        <ele>1323.6</ele>
        <time>2020-07-15T05:44:16Z</time>
      </trkpt>
      <trkpt lat="38.1193620" lon="-2.6762170">
        <ele>1323.8</ele>
        <time>2020-07-15T05:44:20Z</time>
      </trkpt>
      <trkpt lat="38.1193310" lon="-2.6763690">
        <ele>1323.8</ele>
        <time>2020-07-15T05:44:23Z</time>
      </trkpt>
      <trkpt lat="38.1193050" lon="-2.6764850">
        <ele>1323.8</ele>
        <time>2020-07-15T05:44:25Z</time>
      </trkpt>
      <trkpt lat="38.1192500" lon="-2.6767040">
        <ele>1324.0</ele>
        <time>2020-07-15T05:44:29Z</time>
      </trkpt>
      <trkpt lat="38.1191990" lon="-2.6769330">
        <ele>1324.4</ele>
        <time>2020-07-15T05:44:33Z</time>
      </trkpt>
      <trkpt lat="38.1191840" lon="-2.6769920">
        <ele>1324.4</ele>
        <time>2020-07-15T05:44:34Z</time>
      </trkpt>
      <trkpt lat="38.1190820" lon="-2.6773260">
        <ele>1324.4</ele>
        <time>2020-07-15T05:44:40Z</time>
      </trkpt>
      <trkpt lat="38.1190250" lon="-2.6774990">
        <ele>1324.4</ele>
        <time>2020-07-15T05:44:43Z</time>
      </trkpt>
      <trkpt lat="38.1188950" lon="-2.6778420">
        <ele>1324.6</ele>
        <time>2020-07-15T05:44:49Z</time>
      </trkpt>
      <trkpt lat="38.1188720" lon="-2.6778970">
        <ele>1324.6</ele>
        <time>2020-07-15T05:44:50Z</time>
      </trkpt>
      <trkpt lat="38.1187600" lon="-2.6781620">
        <ele>1324.8</ele>
        <time>2020-07-15T05:44:55Z</time>
      </trkpt>
      <trkpt lat="38.1186890" lon="-2.6783190">
        <ele>1325.0</ele>
        <time>2020-07-15T05:44:58Z</time>
      </trkpt>
      <trkpt lat="38.1186220" lon="-2.6784930">
        <ele>1325.0</ele>
        <time>2020-07-15T05:45:01Z</time>
      </trkpt>
      <trkpt lat="38.1185400" lon="-2.6787140">
        <ele>1325.2</ele>
        <time>2020-07-15T05:45:05Z</time>
      </trkpt>
      <trkpt lat="38.1183830" lon="-2.6791170">
        <ele>1325.2</ele>
        <time>2020-07-15T05:45:12Z</time>
      </trkpt>
      <trkpt lat="38.1182910" lon="-2.6793310">
        <ele>1325.4</ele>
        <time>2020-07-15T05:45:16Z</time>
      </trkpt>
      <trkpt lat="38.1182470" lon="-2.6794430">
        <ele>1325.6</ele>
        <time>2020-07-15T05:45:18Z</time>
      </trkpt>
      <trkpt lat="38.1181330" lon="-2.6798000">
        <ele>1325.8</ele>
        <time>2020-07-15T05:45:24Z</time>
      </trkpt>
      <trkpt lat="38.1180730" lon="-2.6799670">
        <ele>1326.2</ele>
        <time>2020-07-15T05:45:27Z</time>
      </trkpt>
      <trkpt lat="38.1180650" lon="-2.6800150">
        <ele>1326.2</ele>
        <time>2020-07-15T05:45:28Z</time>
      </trkpt>
      <trkpt lat="38.1180270" lon="-2.6801850">
        <ele>1326.4</ele>
        <time>2020-07-15T05:45:31Z</time>
      </trkpt>
      <trkpt lat="38.1179880" lon="-2.6803460">
        <ele>1326.8</ele>
        <time>2020-07-15T05:45:34Z</time>
      </trkpt>
      <trkpt lat="38.1179630" lon="-2.6804590">
        <ele>1327.2</ele>
        <time>2020-07-15T05:45:36Z</time>
      </trkpt>
      <trkpt lat="38.1179290" lon="-2.6806170">
        <ele>1327.8</ele>
        <time>2020-07-15T05:45:39Z</time>
      </trkpt>
      <trkpt lat="38.1178900" lon="-2.6807640">
        <ele>1328.2</ele>
        <time>2020-07-15T05:45:42Z</time>
      </trkpt>
      <trkpt lat="38.1178800" lon="-2.6808090">
        <ele>1328.4</ele>
        <time>2020-07-15T05:45:43Z</time>
      </trkpt>
      <trkpt lat="38.1178510" lon="-2.6809150">
        <ele>1328.6</ele>
        <time>2020-07-15T05:45:45Z</time>
      </trkpt>
      <trkpt lat="38.1177850" lon="-2.6811250">
        <ele>1329.2</ele>
        <time>2020-07-15T05:45:49Z</time>
      </trkpt>
      <trkpt lat="38.1177450" lon="-2.6812110">
        <ele>1329.6</ele>
        <time>2020-07-15T05:45:51Z</time>
      </trkpt>
      <trkpt lat="38.1176120" lon="-2.6814110">
        <ele>1330.0</ele>
        <time>2020-07-15T05:45:56Z</time>
      </trkpt>
      <trkpt lat="38.1174390" lon="-2.6816600">
        <ele>1330.2</ele>
        <time>2020-07-15T05:46:01Z</time>
      </trkpt>
      <trkpt lat="38.1173280" lon="-2.6817920">
        <ele>1330.0</ele>
        <time>2020-07-15T05:46:04Z</time>
      </trkpt>
      <trkpt lat="38.1172150" lon="-2.6819400">
        <ele>1330.0</ele>
        <time>2020-07-15T05:46:07Z</time>
      </trkpt>
      <trkpt lat="38.1171230" lon="-2.6820990">
        <ele>1330.0</ele>
        <time>2020-07-15T05:46:10Z</time>
      </trkpt>
      <trkpt lat="38.1170860" lon="-2.6822310">
        <ele>1330.0</ele>
        <time>2020-07-15T05:46:12Z</time>
      </trkpt>
      <trkpt lat="38.1170870" lon="-2.6825400">
        <ele>1330.4</ele>
        <time>2020-07-15T05:46:17Z</time>
      </trkpt>
      <trkpt lat="38.1170900" lon="-2.6825850">
        <ele>1330.6</ele>
        <time>2020-07-15T05:46:18Z</time>
      </trkpt>
      <trkpt lat="38.1171440" lon="-2.6827540">
        <ele>1331.2</ele>
        <time>2020-07-15T05:46:22Z</time>
      </trkpt>
      <trkpt lat="38.1172370" lon="-2.6828510">
        <ele>1331.8</ele>
        <time>2020-07-15T05:46:25Z</time>
      </trkpt>
      <trkpt lat="38.1173170" lon="-2.6828770">
        <ele>1332.2</ele>
        <time>2020-07-15T05:46:27Z</time>
      </trkpt>
      <trkpt lat="38.1174340" lon="-2.6828530">
        <ele>1333.0</ele>
        <time>2020-07-15T05:46:30Z</time>
      </trkpt>
      <trkpt lat="38.1174710" lon="-2.6828400">
        <ele>1333.2</ele>
        <time>2020-07-15T05:46:31Z</time>
      </trkpt>
      <trkpt lat="38.1175600" lon="-2.6828060">
        <ele>1334.0</ele>
        <time>2020-07-15T05:46:34Z</time>
      </trkpt>
      <trkpt lat="38.1176490" lon="-2.6827690">
        <ele>1335.0</ele>
        <time>2020-07-15T05:46:37Z</time>
      </trkpt>
      <trkpt lat="38.1177230" lon="-2.6827380">
        <ele>1336.2</ele>
        <time>2020-07-15T05:46:40Z</time>
      </trkpt>
      <trkpt lat="38.1178430" lon="-2.6826820">
        <ele>1337.4</ele>
        <time>2020-07-15T05:46:45Z</time>
      </trkpt>
      <trkpt lat="38.1178680" lon="-2.6826710">
        <ele>1337.6</ele>
        <time>2020-07-15T05:46:46Z</time>
      </trkpt>
      <trkpt lat="38.1179660" lon="-2.6826260">
        <ele>1338.6</ele>
        <time>2020-07-15T05:46:50Z</time>
      </trkpt>
      <trkpt lat="38.1180860" lon="-2.6825810">
        <ele>1339.8</ele>
        <time>2020-07-15T05:46:55Z</time>
      </trkpt>
      <trkpt lat="38.1181970" lon="-2.6825320">
        <ele>1341.0</ele>
        <time>2020-07-15T05:47:00Z</time>
      </trkpt>
      <trkpt lat="38.1183110" lon="-2.6824810">
        <ele>1342.2</ele>
        <time>2020-07-15T05:47:05Z</time>
      </trkpt>
      <trkpt lat="38.1183760" lon="-2.6824550">
        <ele>1343.0</ele>
        <time>2020-07-15T05:47:08Z</time>
      </trkpt>
      <trkpt lat="38.1184000" lon="-2.6824430">
        <ele>1343.2</ele>
        <time>2020-07-15T05:47:09Z</time>
      </trkpt>
      <trkpt lat="38.1185080" lon="-2.6823960">
        <ele>1344.4</ele>
        <time>2020-07-15T05:47:14Z</time>
      </trkpt>
      <trkpt lat="38.1185720" lon="-2.6823680">
        <ele>1345.0</ele>
        <time>2020-07-15T05:47:17Z</time>
      </trkpt>
      <trkpt lat="38.1186150" lon="-2.6823570">
        <ele>1345.4</ele>
        <time>2020-07-15T05:47:19Z</time>
      </trkpt>
      <trkpt lat="38.1187270" lon="-2.6823250">
        <ele>1346.6</ele>
        <time>2020-07-15T05:47:24Z</time>
      </trkpt>
      <trkpt lat="38.1187930" lon="-2.6823050">
        <ele>1347.4</ele>
        <time>2020-07-15T05:47:27Z</time>
      </trkpt>
      <trkpt lat="38.1188400" lon="-2.6822900">
        <ele>1347.8</ele>
        <time>2020-07-15T05:47:29Z</time>
      </trkpt>
      <trkpt lat="38.1189780" lon="-2.6822650">
        <ele>1349.0</ele>
        <time>2020-07-15T05:47:35Z</time>
      </trkpt>
      <trkpt lat="38.1190000" lon="-2.6822620">
        <ele>1349.2</ele>
        <time>2020-07-15T05:47:36Z</time>
      </trkpt>
      <trkpt lat="38.1190860" lon="-2.6822460">
        <ele>1350.2</ele>
        <time>2020-07-15T05:47:40Z</time>
      </trkpt>
      <trkpt lat="38.1191990" lon="-2.6822390">
        <ele>1351.0</ele>
        <time>2020-07-15T05:47:45Z</time>
      </trkpt>
      <trkpt lat="38.1192190" lon="-2.6822400">
        <ele>1351.4</ele>
        <time>2020-07-15T05:47:46Z</time>
      </trkpt>
      <trkpt lat="38.1193270" lon="-2.6822490">
        <ele>1352.6</ele>
        <time>2020-07-15T05:47:51Z</time>
      </trkpt>
      <trkpt lat="38.1193920" lon="-2.6822530">
        <ele>1353.2</ele>
        <time>2020-07-15T05:47:54Z</time>
      </trkpt>
      <trkpt lat="38.1194350" lon="-2.6822580">
        <ele>1353.6</ele>
        <time>2020-07-15T05:47:56Z</time>
      </trkpt>
      <trkpt lat="38.1195620" lon="-2.6822650">
        <ele>1354.8</ele>
        <time>2020-07-15T05:48:02Z</time>
      </trkpt>
      <trkpt lat="38.1196450" lon="-2.6822700">
        <ele>1355.6</ele>
        <time>2020-07-15T05:48:06Z</time>
      </trkpt>
      <trkpt lat="38.1196650" lon="-2.6822700">
        <ele>1355.8</ele>
        <time>2020-07-15T05:48:07Z</time>
      </trkpt>
      <trkpt lat="38.1197680" lon="-2.6822960">
        <ele>1357.0</ele>
        <time>2020-07-15T05:48:12Z</time>
      </trkpt>
      <trkpt lat="38.1198510" lon="-2.6823170">
        <ele>1357.8</ele>
        <time>2020-07-15T05:48:16Z</time>
      </trkpt>
      <trkpt lat="38.1198720" lon="-2.6823230">
        <ele>1358.0</ele>
        <time>2020-07-15T05:48:17Z</time>
      </trkpt>
      <trkpt lat="38.1199990" lon="-2.6823740">
        <ele>1359.2</ele>
        <time>2020-07-15T05:48:23Z</time>
      </trkpt>
      <trkpt lat="38.1200890" lon="-2.6824220">
        <ele>1360.0</ele>
        <time>2020-07-15T05:48:27Z</time>
      </trkpt>
      <trkpt lat="38.1201340" lon="-2.6824440">
        <ele>1360.4</ele>
        <time>2020-07-15T05:48:29Z</time>
      </trkpt>
      <trkpt lat="38.1202380" lon="-2.6825090">
        <ele>1361.4</ele>
        <time>2020-07-15T05:48:34Z</time>
      </trkpt>
      <trkpt lat="38.1203050" lon="-2.6825430">
        <ele>1362.0</ele>
        <time>2020-07-15T05:48:37Z</time>
      </trkpt>
      <trkpt lat="38.1203670" lon="-2.6825770">
        <ele>1362.6</ele>
        <time>2020-07-15T05:48:40Z</time>
      </trkpt>
      <trkpt lat="38.1205000" lon="-2.6826530">
        <ele>1363.8</ele>
        <time>2020-07-15T05:48:46Z</time>
      </trkpt>
      <trkpt lat="38.1205660" lon="-2.6826930">
        <ele>1364.2</ele>
        <time>2020-07-15T05:48:49Z</time>
      </trkpt>
      <trkpt lat="38.1206090" lon="-2.6827180">
        <ele>1364.8</ele>
        <time>2020-07-15T05:48:51Z</time>
      </trkpt>
      <trkpt lat="38.1207380" lon="-2.6827960">
        <ele>1365.8</ele>
        <time>2020-07-15T05:48:57Z</time>
      </trkpt>
      <trkpt lat="38.1208030" lon="-2.6828360">
        <ele>1366.4</ele>
        <time>2020-07-15T05:49:00Z</time>
      </trkpt>
      <trkpt lat="38.1208680" lon="-2.6828730">
        <ele>1366.8</ele>
        <time>2020-07-15T05:49:03Z</time>
      </trkpt>
      <trkpt lat="38.1210020" lon="-2.6829550">
        <ele>1368.0</ele>
        <time>2020-07-15T05:49:09Z</time>
      </trkpt>
      <trkpt lat="38.1210490" lon="-2.6829830">
        <ele>1368.4</ele>
        <time>2020-07-15T05:49:11Z</time>
      </trkpt>
      <trkpt lat="38.1211410" lon="-2.6830390">
        <ele>1369.0</ele>
        <time>2020-07-15T05:49:15Z</time>
      </trkpt>
      <trkpt lat="38.1212760" lon="-2.6831360">
        <ele>1370.2</ele>
        <time>2020-07-15T05:49:21Z</time>
      </trkpt>
      <trkpt lat="38.1213650" lon="-2.6832060">
        <ele>1371.0</ele>
        <time>2020-07-15T05:49:25Z</time>
      </trkpt>
      <trkpt lat="38.1214120" lon="-2.6832430">
        <ele>1371.4</ele>
        <time>2020-07-15T05:49:27Z</time>
      </trkpt>
      <trkpt lat="38.1215390" lon="-2.6833740">
        <ele>1372.4</ele>
        <time>2020-07-15T05:49:33Z</time>
      </trkpt>
      <trkpt lat="38.1215620" lon="-2.6833990">
        <ele>1372.6</ele>
        <time>2020-07-15T05:49:34Z</time>
      </trkpt>
      <trkpt lat="38.1216660" lon="-2.6835220">
        <ele>1373.6</ele>
        <time>2020-07-15T05:49:39Z</time>
      </trkpt>
      <trkpt lat="38.1217770" lon="-2.6837000">
        <ele>1374.6</ele>
        <time>2020-07-15T05:49:45Z</time>
      </trkpt>
      <trkpt lat="38.1217940" lon="-2.6837290">
        <ele>1374.8</ele>
        <time>2020-07-15T05:49:46Z</time>
      </trkpt>
      <trkpt lat="38.1219130" lon="-2.6839550">
        <ele>1375.8</ele>
        <time>2020-07-15T05:49:53Z</time>
      </trkpt>
      <trkpt lat="38.1219670" lon="-2.6841030">
        <ele>1376.4</ele>
        <time>2020-07-15T05:49:57Z</time>
      </trkpt>
      <trkpt lat="38.1220140" lon="-2.6842540">
        <ele>1377.0</ele>
        <time>2020-07-15T05:50:01Z</time>
      </trkpt>
      <trkpt lat="38.1220960" lon="-2.6845720">
        <ele>1378.0</ele>
        <time>2020-07-15T05:50:09Z</time>
      </trkpt>
      <trkpt lat="38.1221950" lon="-2.6850000">
        <ele>1379.0</ele>
        <time>2020-07-15T05:50:19Z</time>
      </trkpt>
      <trkpt lat="38.1222910" lon="-2.6853530">
        <ele>1379.6</ele>
        <time>2020-07-15T05:50:27Z</time>
      </trkpt>
      <trkpt lat="38.1223380" lon="-2.6854860">
        <ele>1380.0</ele>
        <time>2020-07-15T05:50:30Z</time>
      </trkpt>
      <trkpt lat="38.1223710" lon="-2.6855740">
        <ele>1380.0</ele>
        <time>2020-07-15T05:50:32Z</time>
      </trkpt>
      <trkpt lat="38.1225340" lon="-2.6859210">
        <ele>1380.6</ele>
        <time>2020-07-15T05:50:40Z</time>
      </trkpt>
      <trkpt lat="38.1226400" lon="-2.6860940">
        <ele>1380.6</ele>
        <time>2020-07-15T05:50:44Z</time>
      </trkpt>
      <trkpt lat="38.1227810" lon="-2.6863170">
        <ele>1380.8</ele>
        <time>2020-07-15T05:50:49Z</time>
      </trkpt>
      <trkpt lat="38.1230350" lon="-2.6866960">
        <ele>1380.8</ele>
        <time>2020-07-15T05:50:57Z</time>
      </trkpt>
      <trkpt lat="38.1231400" lon="-2.6868530">
        <ele>1380.8</ele>
        <time>2020-07-15T05:51:00Z</time>
      </trkpt>
      <trkpt lat="38.1234790" lon="-2.6873670">
        <ele>1380.6</ele>
        <time>2020-07-15T05:51:10Z</time>
      </trkpt>
      <trkpt lat="38.1236450" lon="-2.6876230">
        <ele>1380.4</ele>
        <time>2020-07-15T05:51:14Z</time>
      </trkpt>
      <trkpt lat="38.1237480" lon="-2.6877800">
        <ele>1380.4</ele>
        <time>2020-07-15T05:51:17Z</time>
      </trkpt>
      <trkpt lat="38.1238180" lon="-2.6878810">
        <ele>1380.4</ele>
        <time>2020-07-15T05:51:19Z</time>
      </trkpt>
      <trkpt lat="38.1240630" lon="-2.6882540">
        <ele>1380.2</ele>
        <time>2020-07-15T05:51:26Z</time>
      </trkpt>
      <trkpt lat="38.1242410" lon="-2.6885290">
        <ele>1380.4</ele>
        <time>2020-07-15T05:51:31Z</time>
      </trkpt>
      <trkpt lat="38.1246040" lon="-2.6890760">
        <ele>1380.8</ele>
        <time>2020-07-15T05:51:41Z</time>
      </trkpt>
      <trkpt lat="38.1246410" lon="-2.6891290">
        <ele>1381.0</ele>
        <time>2020-07-15T05:51:42Z</time>
      </trkpt>
      <trkpt lat="38.1249130" lon="-2.6895030">
        <ele>1381.2</ele>
        <time>2020-07-15T05:51:49Z</time>
      </trkpt>
      <trkpt lat="38.1250760" lon="-2.6897040">
        <ele>1381.2</ele>
        <time>2020-07-15T05:51:53Z</time>
      </trkpt>
      <trkpt lat="38.1254470" lon="-2.6900400">
        <ele>1381.6</ele>
        <time>2020-07-15T05:52:01Z</time>
      </trkpt>
      <trkpt lat="38.1257250" lon="-2.6902110">
        <ele>1382.0</ele>
        <time>2020-07-15T05:52:07Z</time>
      </trkpt>
      <trkpt lat="38.1258170" lon="-2.6902590">
        <ele>1382.2</ele>
        <time>2020-07-15T05:52:09Z</time>
      </trkpt>
      <trkpt lat="38.1259900" lon="-2.6903340">
        <ele>1383.0</ele>
        <time>2020-07-15T05:52:13Z</time>
      </trkpt>
      <trkpt lat="38.1260760" lon="-2.6903680">
        <ele>1383.4</ele>
        <time>2020-07-15T05:52:15Z</time>
      </trkpt>
      <trkpt lat="38.1261560" lon="-2.6903910">
        <ele>1383.8</ele>
        <time>2020-07-15T05:52:17Z</time>
      </trkpt>
      <trkpt lat="38.1261940" lon="-2.6903950">
        <ele>1384.2</ele>
        <time>2020-07-15T05:52:18Z</time>
      </trkpt>
      <trkpt lat="38.1262380" lon="-2.6904020">
        <ele>1384.4</ele>
        <time>2020-07-15T05:52:19Z</time>
      </trkpt>
      <trkpt lat="38.1263920" lon="-2.6904250">
        <ele>1385.6</ele>
        <time>2020-07-15T05:52:23Z</time>
      </trkpt>
      <trkpt lat="38.1264720" lon="-2.6904290">
        <ele>1385.8</ele>
        <time>2020-07-15T05:52:25Z</time>
      </trkpt>
      <trkpt lat="38.1266220" lon="-2.6904290">
        <ele>1386.6</ele>
        <time>2020-07-15T05:52:29Z</time>
      </trkpt>
      <trkpt lat="38.1267660" lon="-2.6904210">
        <ele>1387.6</ele>
        <time>2020-07-15T05:52:33Z</time>
      </trkpt>
      <trkpt lat="38.1268010" lon="-2.6904150">
        <ele>1387.8</ele>
        <time>2020-07-15T05:52:34Z</time>
      </trkpt>
      <trkpt lat="38.1269740" lon="-2.6903850">
        <ele>1389.0</ele>
        <time>2020-07-15T05:52:39Z</time>
      </trkpt>
      <trkpt lat="38.1271690" lon="-2.6903310">
        <ele>1390.0</ele>
        <time>2020-07-15T05:52:45Z</time>
      </trkpt>
      <trkpt lat="38.1273600" lon="-2.6902580">
        <ele>1391.2</ele>
        <time>2020-07-15T05:52:51Z</time>
      </trkpt>
      <trkpt lat="38.1275160" lon="-2.6901750">
        <ele>1392.0</ele>
        <time>2020-07-15T05:52:56Z</time>
      </trkpt>
      <trkpt lat="38.1275790" lon="-2.6901390">
        <ele>1392.2</ele>
        <time>2020-07-15T05:52:58Z</time>
      </trkpt>
      <trkpt lat="38.1278380" lon="-2.6899700">
        <ele>1393.2</ele>
        <time>2020-07-15T05:53:06Z</time>
      </trkpt>
      <trkpt lat="38.1278690" lon="-2.6899480">
        <ele>1393.2</ele>
        <time>2020-07-15T05:53:07Z</time>
      </trkpt>
      <trkpt lat="38.1281850" lon="-2.6897170">
        <ele>1394.4</ele>
        <time>2020-07-15T05:53:17Z</time>
      </trkpt>
      <trkpt lat="38.1282130" lon="-2.6896960">
        <ele>1394.4</ele>
        <time>2020-07-15T05:53:18Z</time>
      </trkpt>
      <trkpt lat="38.1284740" lon="-2.6895060">
        <ele>1395.4</ele>
        <time>2020-07-15T05:53:26Z</time>
      </trkpt>
      <trkpt lat="38.1285700" lon="-2.6894290">
        <ele>1395.8</ele>
        <time>2020-07-15T05:53:29Z</time>
      </trkpt>
      <trkpt lat="38.1287680" lon="-2.6892800">
        <ele>1396.4</ele>
        <time>2020-07-15T05:53:35Z</time>
      </trkpt>
      <trkpt lat="38.1288650" lon="-2.6892080">
        <ele>1396.8</ele>
        <time>2020-07-15T05:53:38Z</time>
      </trkpt>
      <trkpt lat="38.1290270" lon="-2.6890820">
        <ele>1397.4</ele>
        <time>2020-07-15T05:53:43Z</time>
      </trkpt>
      <trkpt lat="38.1292250" lon="-2.6889370">
        <ele>1398.2</ele>
        <time>2020-07-15T05:53:49Z</time>
      </trkpt>
      <trkpt lat="38.1292900" lon="-2.6888880">
        <ele>1398.4</ele>
        <time>2020-07-15T05:53:51Z</time>
      </trkpt>
      <trkpt lat="38.1295950" lon="-2.6886740">
        <ele>1399.6</ele>
        <time>2020-07-15T05:54:00Z</time>
      </trkpt>
      <trkpt lat="38.1298450" lon="-2.6885250">
        <ele>1400.6</ele>
        <time>2020-07-15T05:54:07Z</time>
      </trkpt>
      <trkpt lat="38.1299850" lon="-2.6884460">
        <ele>1401.0</ele>
        <time>2020-07-15T05:54:11Z</time>
      </trkpt>
      <trkpt lat="38.1301250" lon="-2.6883740">
        <ele>1401.8</ele>
        <time>2020-07-15T05:54:15Z</time>
      </trkpt>
      <trkpt lat="38.1303650" lon="-2.6882540">
        <ele>1402.8</ele>
        <time>2020-07-15T05:54:22Z</time>
      </trkpt>
      <trkpt lat="38.1306080" lon="-2.6881370">
        <ele>1404.0</ele>
        <time>2020-07-15T05:54:29Z</time>
      </trkpt>
      <trkpt lat="38.1307380" lon="-2.6880710">
        <ele>1404.6</ele>
        <time>2020-07-15T05:54:33Z</time>
      </trkpt>
      <trkpt lat="38.1308060" lon="-2.6880410">
        <ele>1405.0</ele>
        <time>2020-07-15T05:54:35Z</time>
      </trkpt>
      <trkpt lat="38.1310010" lon="-2.6879430">
        <ele>1406.2</ele>
        <time>2020-07-15T05:54:41Z</time>
      </trkpt>
      <trkpt lat="38.1311000" lon="-2.6878930">
        <ele>1406.6</ele>
        <time>2020-07-15T05:54:44Z</time>
      </trkpt>
      <trkpt lat="38.1312310" lon="-2.6878250">
        <ele>1407.2</ele>
        <time>2020-07-15T05:54:48Z</time>
      </trkpt>
      <trkpt lat="38.1314740" lon="-2.6877050">
        <ele>1408.4</ele>
        <time>2020-07-15T05:54:55Z</time>
      </trkpt>
      <trkpt lat="38.1315430" lon="-2.6876680">
        <ele>1408.6</ele>
        <time>2020-07-15T05:54:57Z</time>
      </trkpt>
      <trkpt lat="38.1318290" lon="-2.6875150">
        <ele>1409.4</ele>
        <time>2020-07-15T05:55:05Z</time>
      </trkpt>
      <trkpt lat="38.1320140" lon="-2.6874100">
        <ele>1409.6</ele>
        <time>2020-07-15T05:55:10Z</time>
      </trkpt>
      <trkpt lat="38.1321740" lon="-2.6873220">
        <ele>1409.8</ele>
        <time>2020-07-15T05:55:14Z</time>
      </trkpt>
      <trkpt lat="38.1322980" lon="-2.6872490">
        <ele>1410.0</ele>
        <time>2020-07-15T05:55:17Z</time>
      </trkpt>
      <trkpt lat="38.1324720" lon="-2.6871460">
        <ele>1410.0</ele>
        <time>2020-07-15T05:55:21Z</time>
      </trkpt>
      <trkpt lat="38.1326660" lon="-2.6870350">
        <ele>1409.8</ele>
        <time>2020-07-15T05:55:25Z</time>
      </trkpt>
      <trkpt lat="38.1328900" lon="-2.6869080">
        <ele>1409.4</ele>
        <time>2020-07-15T05:55:29Z</time>
      </trkpt>
      <trkpt lat="38.1331430" lon="-2.6867790">
        <ele>1409.0</ele>
        <time>2020-07-15T05:55:33Z</time>
      </trkpt>
      <trkpt lat="38.1333620" lon="-2.6866780">
        <ele>1408.2</ele>
        <time>2020-07-15T05:55:36Z</time>
      </trkpt>
      <trkpt lat="38.1334390" lon="-2.6866460">
        <ele>1408.0</ele>
        <time>2020-07-15T05:55:37Z</time>
      </trkpt>
      <trkpt lat="38.1336650" lon="-2.6865490">
        <ele>1407.0</ele>
        <time>2020-07-15T05:55:40Z</time>
      </trkpt>
      <trkpt lat="38.1338980" lon="-2.6864570">
        <ele>1406.2</ele>
        <time>2020-07-15T05:55:43Z</time>
      </trkpt>
      <trkpt lat="38.1340590" lon="-2.6863970">
        <ele>1405.8</ele>
        <time>2020-07-15T05:55:45Z</time>
      </trkpt>
      <trkpt lat="38.1343000" lon="-2.6863040">
        <ele>1405.0</ele>
        <time>2020-07-15T05:55:48Z</time>
      </trkpt>
      <trkpt lat="38.1343900" lon="-2.6862740">
        <ele>1404.6</ele>
        <time>2020-07-15T05:55:49Z</time>
      </trkpt>
      <trkpt lat="38.1346340" lon="-2.6861900">
        <ele>1403.8</ele>
        <time>2020-07-15T05:55:52Z</time>
      </trkpt>
      <trkpt lat="38.1348030" lon="-2.6861300">
        <ele>1403.4</ele>
        <time>2020-07-15T05:55:54Z</time>
      </trkpt>
      <trkpt lat="38.1352050" lon="-2.6859700">
        <ele>1402.6</ele>
        <time>2020-07-15T05:55:59Z</time>
      </trkpt>
      <trkpt lat="38.1353630" lon="-2.6859090">
        <ele>1402.6</ele>
        <time>2020-07-15T05:56:01Z</time>
      </trkpt>
      <trkpt lat="38.1355810" lon="-2.6858230">
        <ele>1402.4</ele>
        <time>2020-07-15T05:56:04Z</time>
      </trkpt>
      <trkpt lat="38.1358060" lon="-2.6857460">
        <ele>1402.6</ele>
        <time>2020-07-15T05:56:07Z</time>
      </trkpt>
      <trkpt lat="38.1360170" lon="-2.6856800">
        <ele>1402.8</ele>
        <time>2020-07-15T05:56:10Z</time>
      </trkpt>
      <trkpt lat="38.1364920" lon="-2.6855510">
        <ele>1403.2</ele>
        <time>2020-07-15T05:56:17Z</time>
      </trkpt>
      <trkpt lat="38.1365500" lon="-2.6855390">
        <ele>1403.4</ele>
        <time>2020-07-15T05:56:18Z</time>
      </trkpt>
      <trkpt lat="38.1366140" lon="-2.6855250">
        <ele>1403.6</ele>
        <time>2020-07-15T05:56:19Z</time>
      </trkpt>
      <trkpt lat="38.1367830" lon="-2.6854860">
        <ele>1404.0</ele>
        <time>2020-07-15T05:56:22Z</time>
      </trkpt>
      <trkpt lat="38.1369460" lon="-2.6854470">
        <ele>1404.2</ele>
        <time>2020-07-15T05:56:25Z</time>
      </trkpt>
      <trkpt lat="38.1370520" lon="-2.6854240">
        <ele>1404.6</ele>
        <time>2020-07-15T05:56:27Z</time>
      </trkpt>
      <trkpt lat="38.1371550" lon="-2.6854020">
        <ele>1405.0</ele>
        <time>2020-07-15T05:56:29Z</time>
      </trkpt>
      <trkpt lat="38.1373070" lon="-2.6853710">
        <ele>1405.6</ele>
        <time>2020-07-15T05:56:32Z</time>
      </trkpt>
      <trkpt lat="38.1373520" lon="-2.6853650">
        <ele>1405.8</ele>
        <time>2020-07-15T05:56:33Z</time>
      </trkpt>
      <trkpt lat="38.1374980" lon="-2.6853330">
        <ele>1406.4</ele>
        <time>2020-07-15T05:56:36Z</time>
      </trkpt>
      <trkpt lat="38.1376340" lon="-2.6853050">
        <ele>1406.8</ele>
        <time>2020-07-15T05:56:39Z</time>
      </trkpt>
      <trkpt lat="38.1378050" lon="-2.6852720">
        <ele>1407.6</ele>
        <time>2020-07-15T05:56:43Z</time>
      </trkpt>
      <trkpt lat="38.1378450" lon="-2.6852610">
        <ele>1407.8</ele>
        <time>2020-07-15T05:56:44Z</time>
      </trkpt>
      <trkpt lat="38.1380230" lon="-2.6852240">
        <ele>1408.8</ele>
        <time>2020-07-15T05:56:49Z</time>
      </trkpt>
      <trkpt lat="38.1380910" lon="-2.6852100">
        <ele>1409.2</ele>
        <time>2020-07-15T05:56:51Z</time>
      </trkpt>
      <trkpt lat="38.1382210" lon="-2.6851890">
        <ele>1410.0</ele>
        <time>2020-07-15T05:56:55Z</time>
      </trkpt>
      <trkpt lat="38.1383840" lon="-2.6851850">
        <ele>1411.2</ele>
        <time>2020-07-15T05:57:00Z</time>
      </trkpt>
      <trkpt lat="38.1385120" lon="-2.6851990">
        <ele>1412.2</ele>
        <time>2020-07-15T05:57:04Z</time>
      </trkpt>
      <trkpt lat="38.1386360" lon="-2.6852420">
        <ele>1413.2</ele>
        <time>2020-07-15T05:57:08Z</time>
      </trkpt>
      <trkpt lat="38.1386680" lon="-2.6852550">
        <ele>1413.6</ele>
        <time>2020-07-15T05:57:09Z</time>
      </trkpt>
      <trkpt lat="38.1387540" lon="-2.6853080">
        <ele>1414.4</ele>
        <time>2020-07-15T05:57:12Z</time>
      </trkpt>
      <trkpt lat="38.1388660" lon="-2.6853810">
        <ele>1415.4</ele>
        <time>2020-07-15T05:57:16Z</time>
      </trkpt>
      <trkpt lat="38.1390420" lon="-2.6854910">
        <ele>1416.6</ele>
        <time>2020-07-15T05:57:22Z</time>
      </trkpt>
      <trkpt lat="38.1390970" lon="-2.6855280">
        <ele>1417.0</ele>
        <time>2020-07-15T05:57:24Z</time>
      </trkpt>
      <trkpt lat="38.1392160" lon="-2.6856100">
        <ele>1417.6</ele>
        <time>2020-07-15T05:57:28Z</time>
      </trkpt>
      <trkpt lat="38.1393660" lon="-2.6857460">
        <ele>1418.4</ele>
        <time>2020-07-15T05:57:33Z</time>
      </trkpt>
      <trkpt lat="38.1394710" lon="-2.6858990">
        <ele>1418.8</ele>
        <time>2020-07-15T05:57:37Z</time>
      </trkpt>
      <trkpt lat="38.1395030" lon="-2.6859900">
        <ele>1419.0</ele>
        <time>2020-07-15T05:57:39Z</time>
      </trkpt>
      <trkpt lat="38.1395260" lon="-2.6860950">
        <ele>1419.0</ele>
        <time>2020-07-15T05:57:41Z</time>
      </trkpt>
      <trkpt lat="38.1395450" lon="-2.6862810">
        <ele>1419.0</ele>
        <time>2020-07-15T05:57:44Z</time>
      </trkpt>
      <trkpt lat="38.1395650" lon="-2.6864160">
        <ele>1418.8</ele>
        <time>2020-07-15T05:57:46Z</time>
      </trkpt>
      <trkpt lat="38.1396600" lon="-2.6865960">
        <ele>1418.6</ele>
        <time>2020-07-15T05:57:49Z</time>
      </trkpt>
      <trkpt lat="38.1398300" lon="-2.6866920">
        <ele>1418.8</ele>
        <time>2020-07-15T05:57:53Z</time>
      </trkpt>
      <trkpt lat="38.1399120" lon="-2.6866950">
        <ele>1419.0</ele>
        <time>2020-07-15T05:57:55Z</time>
      </trkpt>
      <trkpt lat="38.1400130" lon="-2.6866670">
        <ele>1419.4</ele>
        <time>2020-07-15T05:57:58Z</time>
      </trkpt>
      <trkpt lat="38.1400780" lon="-2.6866400">
        <ele>1419.8</ele>
        <time>2020-07-15T05:58:00Z</time>
      </trkpt>
      <trkpt lat="38.1401010" lon="-2.6866060">
        <ele>1420.0</ele>
        <time>2020-07-15T05:58:01Z</time>
      </trkpt>
      <trkpt lat="38.1401230" lon="-2.6865250">
        <ele>1420.6</ele>
        <time>2020-07-15T05:58:03Z</time>
      </trkpt>
      <trkpt lat="38.1401260" lon="-2.6864250">
        <ele>1421.0</ele>
        <time>2020-07-15T05:58:05Z</time>
      </trkpt>
      <trkpt lat="38.1401210" lon="-2.6863250">
        <ele>1421.2</ele>
        <time>2020-07-15T05:58:07Z</time>
      </trkpt>
      <trkpt lat="38.1401160" lon="-2.6862790">
        <ele>1421.2</ele>
        <time>2020-07-15T05:58:08Z</time>
      </trkpt>
      <trkpt lat="38.1401040" lon="-2.6861290">
        <ele>1421.4</ele>
        <time>2020-07-15T05:58:11Z</time>
      </trkpt>
      <trkpt lat="38.1400790" lon="-2.6857360">
        <ele>1421.6</ele>
        <time>2020-07-15T05:58:19Z</time>
      </trkpt>
      <trkpt lat="38.1401150" lon="-2.6855580">
        <ele>1422.0</ele>
        <time>2020-07-15T05:58:23Z</time>
      </trkpt>
      <trkpt lat="38.1401320" lon="-2.6855130">
        <ele>1422.0</ele>
        <time>2020-07-15T05:58:24Z</time>
      </trkpt>
      <trkpt lat="38.1402800" lon="-2.6852730">
        <ele>1422.8</ele>
        <time>2020-07-15T05:58:30Z</time>
      </trkpt>
      <trkpt lat="38.1403550" lon="-2.6851680">
        <ele>1423.0</ele>
        <time>2020-07-15T05:58:33Z</time>
      </trkpt>
      <trkpt lat="38.1404480" lon="-2.6850240">
        <ele>1423.6</ele>
        <time>2020-07-15T05:58:37Z</time>
      </trkpt>
      <trkpt lat="38.1405190" lon="-2.6849230">
        <ele>1424.2</ele>
        <time>2020-07-15T05:58:40Z</time>
      </trkpt>
      <trkpt lat="38.1406370" lon="-2.6847580">
        <ele>1425.2</ele>
        <time>2020-07-15T05:58:45Z</time>
      </trkpt>
      <trkpt lat="38.1406620" lon="-2.6847250">
        <ele>1425.4</ele>
        <time>2020-07-15T05:58:46Z</time>
      </trkpt>
      <trkpt lat="38.1407650" lon="-2.6845820">
        <ele>1426.2</ele>
        <time>2020-07-15T05:58:50Z</time>
      </trkpt>
      <trkpt lat="38.1407910" lon="-2.6845470">
        <ele>1426.4</ele>
        <time>2020-07-15T05:58:51Z</time>
      </trkpt>
      <trkpt lat="38.1408920" lon="-2.6844010">
        <ele>1427.2</ele>
        <time>2020-07-15T05:58:55Z</time>
      </trkpt>
      <trkpt lat="38.1409660" lon="-2.6842970">
        <ele>1427.4</ele>
        <time>2020-07-15T05:58:58Z</time>
      </trkpt>
      <trkpt lat="38.1411670" lon="-2.6840110">
        <ele>1428.2</ele>
        <time>2020-07-15T05:59:06Z</time>
      </trkpt>
      <trkpt lat="38.1412170" lon="-2.6839430">
        <ele>1428.4</ele>
        <time>2020-07-15T05:59:08Z</time>
      </trkpt>
      <trkpt lat="38.1413590" lon="-2.6837300">
        <ele>1429.6</ele>
        <time>2020-07-15T05:59:14Z</time>
      </trkpt>
      <trkpt lat="38.1413820" lon="-2.6836920">
        <ele>1429.8</ele>
        <time>2020-07-15T05:59:15Z</time>
      </trkpt>
      <trkpt lat="38.1415120" lon="-2.6835280">
        <ele>1430.6</ele>
        <time>2020-07-15T05:59:20Z</time>
      </trkpt>
      <trkpt lat="38.1416340" lon="-2.6834100">
        <ele>1431.0</ele>
        <time>2020-07-15T05:59:24Z</time>
      </trkpt>
      <trkpt lat="38.1417500" lon="-2.6833500">
        <ele>1431.4</ele>
        <time>2020-07-15T05:59:27Z</time>
      </trkpt>
      <trkpt lat="38.1417890" lon="-2.6833400">
        <ele>1431.6</ele>
        <time>2020-07-15T05:59:28Z</time>
      </trkpt>
      <trkpt lat="38.1418300" lon="-2.6833330">
        <ele>1431.8</ele>
        <time>2020-07-15T05:59:29Z</time>
      </trkpt>
      <trkpt lat="38.1419210" lon="-2.6833340">
        <ele>1431.8</ele>
        <time>2020-07-15T05:59:31Z</time>
      </trkpt>
      <trkpt lat="38.1420820" lon="-2.6833520">
        <ele>1432.0</ele>
        <time>2020-07-15T05:59:35Z</time>
      </trkpt>
      <trkpt lat="38.1422670" lon="-2.6833910">
        <ele>1432.8</ele>
        <time>2020-07-15T05:59:40Z</time>
      </trkpt>
      <trkpt lat="38.1424390" lon="-2.6834260">
        <ele>1433.6</ele>
        <time>2020-07-15T05:59:45Z</time>
      </trkpt>
      <trkpt lat="38.1425200" lon="-2.6834410">
        <ele>1433.8</ele>
        <time>2020-07-15T05:59:47Z</time>
      </trkpt>
      <trkpt lat="38.1427200" lon="-2.6834650">
        <ele>1434.6</ele>
        <time>2020-07-15T05:59:52Z</time>
      </trkpt>
      <trkpt lat="38.1427590" lon="-2.6834640">
        <ele>1434.8</ele>
        <time>2020-07-15T05:59:53Z</time>
      </trkpt>
      <trkpt lat="38.1430480" lon="-2.6834090">
        <ele>1435.6</ele>
        <time>2020-07-15T06:00:00Z</time>
      </trkpt>
      <trkpt lat="38.1432080" lon="-2.6833270">
        <ele>1435.8</ele>
        <time>2020-07-15T06:00:04Z</time>
      </trkpt>
      <trkpt lat="38.1433310" lon="-2.6832480">
        <ele>1436.2</ele>
        <time>2020-07-15T06:00:07Z</time>
      </trkpt>
      <trkpt lat="38.1434030" lon="-2.6831860">
        <ele>1436.2</ele>
        <time>2020-07-15T06:00:09Z</time>
      </trkpt>
      <trkpt lat="38.1436210" lon="-2.6829970">
        <ele>1436.6</ele>
        <time>2020-07-15T06:00:15Z</time>
      </trkpt>
      <trkpt lat="38.1437320" lon="-2.6829210">
        <ele>1436.8</ele>
        <time>2020-07-15T06:00:18Z</time>
      </trkpt>
      <trkpt lat="38.1438790" lon="-2.6828530">
        <ele>1437.4</ele>
        <time>2020-07-15T06:00:22Z</time>
      </trkpt>
      <trkpt lat="38.1440480" lon="-2.6828110">
        <ele>1438.2</ele>
        <time>2020-07-15T06:00:26Z</time>
      </trkpt>
      <trkpt lat="38.1442160" lon="-2.6827990">
        <ele>1438.6</ele>
        <time>2020-07-15T06:00:30Z</time>
      </trkpt>
      <trkpt lat="38.1445010" lon="-2.6828180">
        <ele>1439.2</ele>
        <time>2020-07-15T06:00:37Z</time>
      </trkpt>
      <trkpt lat="38.1446980" lon="-2.6828410">
        <ele>1439.6</ele>
        <time>2020-07-15T06:00:41Z</time>
      </trkpt>
      <trkpt lat="38.1449930" lon="-2.6828990">
        <ele>1440.2</ele>
        <time>2020-07-15T06:00:48Z</time>
      </trkpt>
      <trkpt lat="38.1452000" lon="-2.6829480">
        <ele>1440.6</ele>
        <time>2020-07-15T06:00:53Z</time>
      </trkpt>
      <trkpt lat="38.1454950" lon="-2.6830070">
        <ele>1441.2</ele>
        <time>2020-07-15T06:01:00Z</time>
      </trkpt>
      <trkpt lat="38.1455770" lon="-2.6830160">
        <ele>1441.6</ele>
        <time>2020-07-15T06:01:02Z</time>
      </trkpt>
      <trkpt lat="38.1458100" lon="-2.6829630">
        <ele>1442.2</ele>
        <time>2020-07-15T06:01:08Z</time>
      </trkpt>
      <trkpt lat="38.1458480" lon="-2.6829430">
        <ele>1442.4</ele>
        <time>2020-07-15T06:01:09Z</time>
      </trkpt>
      <trkpt lat="38.1459880" lon="-2.6828590">
        <ele>1443.4</ele>
        <time>2020-07-15T06:01:13Z</time>
      </trkpt>
      <trkpt lat="38.1460220" lon="-2.6828370">
        <ele>1443.6</ele>
        <time>2020-07-15T06:01:14Z</time>
      </trkpt>
      <trkpt lat="38.1461180" lon="-2.6827780">
        <ele>1444.2</ele>
        <time>2020-07-15T06:01:17Z</time>
      </trkpt>
      <trkpt lat="38.1462170" lon="-2.6827360">
        <ele>1444.6</ele>
        <time>2020-07-15T06:01:20Z</time>
      </trkpt>
      <trkpt lat="38.1463750" lon="-2.6826820">
        <ele>1445.8</ele>
        <time>2020-07-15T06:01:25Z</time>
      </trkpt>
      <trkpt lat="38.1464980" lon="-2.6826670">
        <ele>1447.0</ele>
        <time>2020-07-15T06:01:29Z</time>
      </trkpt>
      <trkpt lat="38.1465950" lon="-2.6826530">
        <ele>1447.8</ele>
        <time>2020-07-15T06:01:32Z</time>
      </trkpt>
      <trkpt lat="38.1466610" lon="-2.6826450">
        <ele>1448.2</ele>
        <time>2020-07-15T06:01:34Z</time>
      </trkpt>
      <trkpt lat="38.1468330" lon="-2.6826310">
        <ele>1449.2</ele>
        <time>2020-07-15T06:01:39Z</time>
      </trkpt>
      <trkpt lat="38.1468670" lon="-2.6826300">
        <ele>1449.4</ele>
        <time>2020-07-15T06:01:40Z</time>
      </trkpt>
      <trkpt lat="38.1470610" lon="-2.6826040">
        <ele>1450.2</ele>
        <time>2020-07-15T06:01:46Z</time>
      </trkpt>
      <trkpt lat="38.1471530" lon="-2.6825790">
        <ele>1450.8</ele>
        <time>2020-07-15T06:01:49Z</time>
      </trkpt>
      <trkpt lat="38.1472470" lon="-2.6825520">
        <ele>1451.4</ele>
        <time>2020-07-15T06:01:52Z</time>
      </trkpt>
      <trkpt lat="38.1474630" lon="-2.6824940">
        <ele>1452.4</ele>
        <time>2020-07-15T06:01:59Z</time>
      </trkpt>
      <trkpt lat="38.1477410" lon="-2.6823980">
        <ele>1453.6</ele>
        <time>2020-07-15T06:02:08Z</time>
      </trkpt>
      <trkpt lat="38.1478320" lon="-2.6823570">
        <ele>1454.4</ele>
        <time>2020-07-15T06:02:11Z</time>
      </trkpt>
      <trkpt lat="38.1478640" lon="-2.6823430">
        <ele>1454.8</ele>
        <time>2020-07-15T06:02:12Z</time>
      </trkpt>
      <trkpt lat="38.1480430" lon="-2.6822520">
        <ele>1455.8</ele>
        <time>2020-07-15T06:02:18Z</time>
      </trkpt>
      <trkpt lat="38.1481310" lon="-2.6821970">
        <ele>1456.4</ele>
        <time>2020-07-15T06:02:21Z</time>
      </trkpt>
      <trkpt lat="38.1482180" lon="-2.6821460">
        <ele>1457.0</ele>
        <time>2020-07-15T06:02:24Z</time>
      </trkpt>
      <trkpt lat="38.1483810" lon="-2.6820500">
        <ele>1458.2</ele>
        <time>2020-07-15T06:02:30Z</time>
      </trkpt>
      <trkpt lat="38.1484080" lon="-2.6820330">
        <ele>1458.4</ele>
        <time>2020-07-15T06:02:31Z</time>
      </trkpt>
      <trkpt lat="38.1485140" lon="-2.6819720">
        <ele>1459.2</ele>
        <time>2020-07-15T06:02:35Z</time>
      </trkpt>
      <trkpt lat="38.1487030" lon="-2.6818570">
        <ele>1460.4</ele>
        <time>2020-07-15T06:02:42Z</time>
      </trkpt>
      <trkpt lat="38.1488610" lon="-2.6817590">
        <ele>1461.6</ele>
        <time>2020-07-15T06:02:48Z</time>
      </trkpt>
      <trkpt lat="38.1489950" lon="-2.6816800">
        <ele>1462.6</ele>
        <time>2020-07-15T06:02:53Z</time>
      </trkpt>
      <trkpt lat="38.1490260" lon="-2.6816670">
        <ele>1462.8</ele>
        <time>2020-07-15T06:02:54Z</time>
      </trkpt>
      <trkpt lat="38.1491640" lon="-2.6816150">
        <ele>1463.8</ele>
        <time>2020-07-15T06:02:59Z</time>
      </trkpt>
      <trkpt lat="38.1493130" lon="-2.6815830">
        <ele>1465.0</ele>
        <time>2020-07-15T06:03:04Z</time>
      </trkpt>
      <trkpt lat="38.1494680" lon="-2.6815600">
        <ele>1466.2</ele>
        <time>2020-07-15T06:03:09Z</time>
      </trkpt>
      <trkpt lat="38.1496060" lon="-2.6815490">
        <ele>1466.8</ele>
        <time>2020-07-15T06:03:13Z</time>
      </trkpt>
      <trkpt lat="38.1496840" lon="-2.6815480">
        <ele>1467.2</ele>
        <time>2020-07-15T06:03:15Z</time>
      </trkpt>
      <trkpt lat="38.1498950" lon="-2.6815760">
        <ele>1467.8</ele>
        <time>2020-07-15T06:03:20Z</time>
      </trkpt>
      <trkpt lat="38.1501750" lon="-2.6816640">
        <ele>1467.4</ele>
        <time>2020-07-15T06:03:26Z</time>
      </trkpt>
      <trkpt lat="38.1502210" lon="-2.6816800">
        <ele>1467.4</ele>
        <time>2020-07-15T06:03:27Z</time>
      </trkpt>
      <trkpt lat="38.1503030" lon="-2.6817190">
        <ele>1467.2</ele>
        <time>2020-07-15T06:03:29Z</time>
      </trkpt>
      <trkpt lat="38.1504890" lon="-2.6817810">
        <ele>1467.2</ele>
        <time>2020-07-15T06:03:33Z</time>
      </trkpt>
      <trkpt lat="38.1505420" lon="-2.6817890">
        <ele>1467.2</ele>
        <time>2020-07-15T06:03:34Z</time>
      </trkpt>
      <trkpt lat="38.1507920" lon="-2.6817930">
        <ele>1467.4</ele>
        <time>2020-07-15T06:03:39Z</time>
      </trkpt>
      <trkpt lat="38.1508950" lon="-2.6817860">
        <ele>1467.4</ele>
        <time>2020-07-15T06:03:41Z</time>
      </trkpt>
      <trkpt lat="38.1509170" lon="-2.6817870">
        <ele>1467.2</ele>
        <time>2020-07-15T06:03:42Z</time>
      </trkpt>
      <trkpt lat="38.1510560" lon="-2.6817860">
        <ele>1467.4</ele>
        <time>2020-07-15T06:03:44Z</time>
      </trkpt>
      <trkpt lat="38.1513840" lon="-2.6817970">
        <ele>1467.2</ele>
        <time>2020-07-15T06:03:50Z</time>
      </trkpt>
      <trkpt lat="38.1514950" lon="-2.6818020">
        <ele>1467.4</ele>
        <time>2020-07-15T06:03:52Z</time>
      </trkpt>
      <trkpt lat="38.1517070" lon="-2.6818120">
        <ele>1467.4</ele>
        <time>2020-07-15T06:03:56Z</time>
      </trkpt>
      <trkpt lat="38.1518590" lon="-2.6818230">
        <ele>1467.4</ele>
        <time>2020-07-15T06:03:59Z</time>
      </trkpt>
      <trkpt lat="38.1520250" lon="-2.6818250">
        <ele>1467.4</ele>
        <time>2020-07-15T06:04:02Z</time>
      </trkpt>
      <trkpt lat="38.1524140" lon="-2.6817680">
        <ele>1468.0</ele>
        <time>2020-07-15T06:04:10Z</time>
      </trkpt>
      <trkpt lat="38.1524990" lon="-2.6817460">
        <ele>1468.2</ele>
        <time>2020-07-15T06:04:12Z</time>
      </trkpt>
      <trkpt lat="38.1526320" lon="-2.6817080">
        <ele>1468.8</ele>
        <time>2020-07-15T06:04:15Z</time>
      </trkpt>
      <trkpt lat="38.1527570" lon="-2.6816710">
        <ele>1469.4</ele>
        <time>2020-07-15T06:04:18Z</time>
      </trkpt>
      <trkpt lat="38.1531270" lon="-2.6815460">
        <ele>1470.2</ele>
        <time>2020-07-15T06:04:26Z</time>
      </trkpt>
      <trkpt lat="38.1534520" lon="-2.6814280">
        <ele>1469.8</ele>
        <time>2020-07-15T06:04:32Z</time>
      </trkpt>
      <trkpt lat="38.1535710" lon="-2.6813900">
        <ele>1469.4</ele>
        <time>2020-07-15T06:04:34Z</time>
      </trkpt>
      <trkpt lat="38.1537620" lon="-2.6813270">
        <ele>1468.8</ele>
        <time>2020-07-15T06:04:37Z</time>
      </trkpt>
      <trkpt lat="38.1538990" lon="-2.6812820">
        <ele>1468.4</ele>
        <time>2020-07-15T06:04:39Z</time>
      </trkpt>
      <trkpt lat="38.1539660" lon="-2.6812540">
        <ele>1468.0</ele>
        <time>2020-07-15T06:04:40Z</time>
      </trkpt>
      <trkpt lat="38.1542060" lon="-2.6811060">
        <ele>1467.6</ele>
        <time>2020-07-15T06:04:44Z</time>
      </trkpt>
      <trkpt lat="38.1542520" lon="-2.6810550">
        <ele>1467.4</ele>
        <time>2020-07-15T06:04:45Z</time>
      </trkpt>
      <trkpt lat="38.1544260" lon="-2.6808730">
        <ele>1467.4</ele>
        <time>2020-07-15T06:04:49Z</time>
      </trkpt>
      <trkpt lat="38.1545040" lon="-2.6807850">
        <ele>1467.8</ele>
        <time>2020-07-15T06:04:51Z</time>
      </trkpt>
      <trkpt lat="38.1545750" lon="-2.6807100">
        <ele>1468.2</ele>
        <time>2020-07-15T06:04:53Z</time>
      </trkpt>
      <trkpt lat="38.1549050" lon="-2.6803370">
        <ele>1469.2</ele>
        <time>2020-07-15T06:05:02Z</time>
      </trkpt>
      <trkpt lat="38.1549250" lon="-2.6803160">
        <ele>1469.2</ele>
        <time>2020-07-15T06:05:03Z</time>
      </trkpt>
      <trkpt lat="38.1552200" lon="-2.6799700">
        <ele>1469.6</ele>
        <time>2020-07-15T06:05:09Z</time>
      </trkpt>
      <trkpt lat="38.1554790" lon="-2.6796580">
        <ele>1468.2</ele>
        <time>2020-07-15T06:05:14Z</time>
      </trkpt>
      <trkpt lat="38.1556160" lon="-2.6794870">
        <ele>1468.0</ele>
        <time>2020-07-15T06:05:17Z</time>
      </trkpt>
      <trkpt lat="38.1559620" lon="-2.6790800">
        <ele>1468.4</ele>
        <time>2020-07-15T06:05:25Z</time>
      </trkpt>
      <trkpt lat="38.1561170" lon="-2.6788890">
        <ele>1468.4</ele>
        <time>2020-07-15T06:05:29Z</time>
      </trkpt>
      <trkpt lat="38.1562840" lon="-2.6787020">
        <ele>1468.6</ele>
        <time>2020-07-15T06:05:33Z</time>
      </trkpt>
      <trkpt lat="38.1564550" lon="-2.6785230">
        <ele>1469.0</ele>
        <time>2020-07-15T06:05:37Z</time>
      </trkpt>
      <trkpt lat="38.1565370" lon="-2.6784330">
        <ele>1469.2</ele>
        <time>2020-07-15T06:05:39Z</time>
      </trkpt>
      <trkpt lat="38.1567420" lon="-2.6781890">
        <ele>1469.8</ele>
        <time>2020-07-15T06:05:45Z</time>
      </trkpt>
      <trkpt lat="38.1567710" lon="-2.6781520">
        <ele>1470.2</ele>
        <time>2020-07-15T06:05:46Z</time>
      </trkpt>
      <trkpt lat="38.1567980" lon="-2.6781230">
        <ele>1470.2</ele>
        <time>2020-07-15T06:05:47Z</time>
      </trkpt>
      <trkpt lat="38.1568850" lon="-2.6780340">
        <ele>1470.6</ele>
        <time>2020-07-15T06:05:50Z</time>
      </trkpt>
      <trkpt lat="38.1569380" lon="-2.6779770">
        <ele>1471.2</ele>
        <time>2020-07-15T06:05:52Z</time>
      </trkpt>
      <trkpt lat="38.1569620" lon="-2.6779520">
        <ele>1471.4</ele>
        <time>2020-07-15T06:05:53Z</time>
      </trkpt>
      <trkpt lat="38.1570200" lon="-2.6778980">
        <ele>1472.0</ele>
        <time>2020-07-15T06:05:55Z</time>
      </trkpt>
      <trkpt lat="38.1570780" lon="-2.6778540">
        <ele>1472.8</ele>
        <time>2020-07-15T06:05:57Z</time>
      </trkpt>
      <trkpt lat="38.1571340" lon="-2.6778190">
        <ele>1473.6</ele>
        <time>2020-07-15T06:05:59Z</time>
      </trkpt>
      <trkpt lat="38.1571640" lon="-2.6778030">
        <ele>1474.0</ele>
        <time>2020-07-15T06:06:00Z</time>
      </trkpt>
      <trkpt lat="38.1571940" lon="-2.6777910">
        <ele>1474.2</ele>
        <time>2020-07-15T06:06:01Z</time>
      </trkpt>
      <trkpt lat="38.1572880" lon="-2.6777600">
        <ele>1475.0</ele>
        <time>2020-07-15T06:06:04Z</time>
      </trkpt>
      <trkpt lat="38.1574260" lon="-2.6777400">
        <ele>1475.6</ele>
        <time>2020-07-15T06:06:08Z</time>
      </trkpt>
      <trkpt lat="38.1576700" lon="-2.6777470">
        <ele>1475.8</ele>
        <time>2020-07-15T06:06:13Z</time>
      </trkpt>
      <trkpt lat="38.1577360" lon="-2.6777300">
        <ele>1475.6</ele>
        <time>2020-07-15T06:06:14Z</time>
      </trkpt>
      <trkpt lat="38.1579240" lon="-2.6776290">
        <ele>1474.4</ele>
        <time>2020-07-15T06:06:17Z</time>
      </trkpt>
      <trkpt lat="38.1579940" lon="-2.6775870">
        <ele>1474.0</ele>
        <time>2020-07-15T06:06:18Z</time>
      </trkpt>
      <trkpt lat="38.1580750" lon="-2.6775640">
        <ele>1473.4</ele>
        <time>2020-07-15T06:06:19Z</time>
      </trkpt>
      <trkpt lat="38.1581700" lon="-2.6775590">
        <ele>1473.0</ele>
        <time>2020-07-15T06:06:20Z</time>
      </trkpt>
      <trkpt lat="38.1582640" lon="-2.6775630">
        <ele>1472.4</ele>
        <time>2020-07-15T06:06:21Z</time>
      </trkpt>
      <trkpt lat="38.1584410" lon="-2.6775780">
        <ele>1471.4</ele>
        <time>2020-07-15T06:06:23Z</time>
      </trkpt>
      <trkpt lat="38.1586460" lon="-2.6775640">
        <ele>1470.2</ele>
        <time>2020-07-15T06:06:25Z</time>
      </trkpt>
      <trkpt lat="38.1587470" lon="-2.6775520">
        <ele>1469.6</ele>
        <time>2020-07-15T06:06:26Z</time>
      </trkpt>
      <trkpt lat="38.1588460" lon="-2.6775230">
        <ele>1468.8</ele>
        <time>2020-07-15T06:06:27Z</time>
      </trkpt>
      <trkpt lat="38.1590190" lon="-2.6774530">
        <ele>1468.0</ele>
        <time>2020-07-15T06:06:29Z</time>
      </trkpt>
      <trkpt lat="38.1591110" lon="-2.6774200">
        <ele>1467.4</ele>
        <time>2020-07-15T06:06:30Z</time>
      </trkpt>
      <trkpt lat="38.1593040" lon="-2.6773380">
        <ele>1467.0</ele>
        <time>2020-07-15T06:06:32Z</time>
      </trkpt>
      <trkpt lat="38.1594900" lon="-2.6772510">
        <ele>1466.6</ele>
        <time>2020-07-15T06:06:34Z</time>
      </trkpt>
      <trkpt lat="38.1596780" lon="-2.6771570">
        <ele>1466.4</ele>
        <time>2020-07-15T06:06:36Z</time>
      </trkpt>
      <trkpt lat="38.1598500" lon="-2.6770460">
        <ele>1465.8</ele>
        <time>2020-07-15T06:06:38Z</time>
      </trkpt>
      <trkpt lat="38.1599340" lon="-2.6769710">
        <ele>1465.4</ele>
        <time>2020-07-15T06:06:39Z</time>
      </trkpt>
      <trkpt lat="38.1600090" lon="-2.6768920">
        <ele>1465.0</ele>
        <time>2020-07-15T06:06:40Z</time>
      </trkpt>
      <trkpt lat="38.1602290" lon="-2.6766660">
        <ele>1464.0</ele>
        <time>2020-07-15T06:06:43Z</time>
      </trkpt>
      <trkpt lat="38.1603110" lon="-2.6766000">
        <ele>1463.6</ele>
        <time>2020-07-15T06:06:44Z</time>
      </trkpt>
      <trkpt lat="38.1605240" lon="-2.6764380">
        <ele>1462.6</ele>
        <time>2020-07-15T06:06:47Z</time>
      </trkpt>
      <trkpt lat="38.1606920" lon="-2.6764050">
        <ele>1462.2</ele>
        <time>2020-07-15T06:06:49Z</time>
      </trkpt>
      <trkpt lat="38.1608510" lon="-2.6764290">
        <ele>1461.8</ele>
        <time>2020-07-15T06:06:51Z</time>
      </trkpt>
      <trkpt lat="38.1609320" lon="-2.6764380">
        <ele>1461.8</ele>
        <time>2020-07-15T06:06:52Z</time>
      </trkpt>
      <trkpt lat="38.1610090" lon="-2.6764430">
        <ele>1461.6</ele>
        <time>2020-07-15T06:06:53Z</time>
      </trkpt>
      <trkpt lat="38.1614390" lon="-2.6764800">
        <ele>1460.4</ele>
        <time>2020-07-15T06:06:58Z</time>
      </trkpt>
      <trkpt lat="38.1617050" lon="-2.6764320">
        <ele>1459.8</ele>
        <time>2020-07-15T06:07:01Z</time>
      </trkpt>
      <trkpt lat="38.1617850" lon="-2.6763910">
        <ele>1459.6</ele>
        <time>2020-07-15T06:07:02Z</time>
      </trkpt>
      <trkpt lat="38.1618640" lon="-2.6763490">
        <ele>1459.4</ele>
        <time>2020-07-15T06:07:03Z</time>
      </trkpt>
      <trkpt lat="38.1621300" lon="-2.6762010">
        <ele>1458.2</ele>
        <time>2020-07-15T06:07:06Z</time>
      </trkpt>
      <trkpt lat="38.1623010" lon="-2.6760980">
        <ele>1457.4</ele>
        <time>2020-07-15T06:07:08Z</time>
      </trkpt>
      <trkpt lat="38.1623920" lon="-2.6760300">
        <ele>1457.0</ele>
        <time>2020-07-15T06:07:09Z</time>
      </trkpt>
      <trkpt lat="38.1626420" lon="-2.6758550">
        <ele>1456.0</ele>
        <time>2020-07-15T06:07:12Z</time>
      </trkpt>
      <trkpt lat="38.1628070" lon="-2.6757840">
        <ele>1455.2</ele>
        <time>2020-07-15T06:07:14Z</time>
      </trkpt>
      <trkpt lat="38.1630180" lon="-2.6758230">
        <ele>1455.0</ele>
        <time>2020-07-15T06:07:17Z</time>
      </trkpt>
      <trkpt lat="38.1631480" lon="-2.6758290">
        <ele>1455.4</ele>
        <time>2020-07-15T06:07:19Z</time>
      </trkpt>
      <trkpt lat="38.1632740" lon="-2.6757910">
        <ele>1455.6</ele>
        <time>2020-07-15T06:07:21Z</time>
      </trkpt>
      <trkpt lat="38.1634740" lon="-2.6756430">
        <ele>1455.6</ele>
        <time>2020-07-15T06:07:25Z</time>
      </trkpt>
      <trkpt lat="38.1635210" lon="-2.6755990">
        <ele>1455.6</ele>
        <time>2020-07-15T06:07:26Z</time>
      </trkpt>
      <trkpt lat="38.1636410" lon="-2.6754640">
        <ele>1456.0</ele>
        <time>2020-07-15T06:07:29Z</time>
      </trkpt>
      <trkpt lat="38.1637280" lon="-2.6753640">
        <ele>1456.4</ele>
        <time>2020-07-15T06:07:31Z</time>
      </trkpt>
      <trkpt lat="38.1638590" lon="-2.6752380">
        <ele>1456.6</ele>
        <time>2020-07-15T06:07:34Z</time>
      </trkpt>
      <trkpt lat="38.1638990" lon="-2.6752140">
        <ele>1456.8</ele>
        <time>2020-07-15T06:07:35Z</time>
      </trkpt>
      <trkpt lat="38.1639430" lon="-2.6751790">
        <ele>1457.0</ele>
        <time>2020-07-15T06:07:36Z</time>
      </trkpt>
      <trkpt lat="38.1639920" lon="-2.6751460">
        <ele>1457.2</ele>
        <time>2020-07-15T06:07:37Z</time>
      </trkpt>
      <trkpt lat="38.1640790" lon="-2.6751000">
        <ele>1457.4</ele>
        <time>2020-07-15T06:07:39Z</time>
      </trkpt>
      <trkpt lat="38.1641220" lon="-2.6750850">
        <ele>1457.6</ele>
        <time>2020-07-15T06:07:40Z</time>
      </trkpt>
      <trkpt lat="38.1641960" lon="-2.6750560">
        <ele>1458.2</ele>
        <time>2020-07-15T06:07:42Z</time>
      </trkpt>
      <trkpt lat="38.1642600" lon="-2.6750150">
        <ele>1458.8</ele>
        <time>2020-07-15T06:07:44Z</time>
      </trkpt>
      <trkpt lat="38.1643210" lon="-2.6749740">
        <ele>1459.2</ele>
        <time>2020-07-15T06:07:46Z</time>
      </trkpt>
      <trkpt lat="38.1643730" lon="-2.6749310">
        <ele>1459.6</ele>
        <time>2020-07-15T06:07:48Z</time>
      </trkpt>
      <trkpt lat="38.1644560" lon="-2.6748670">
        <ele>1460.6</ele>
        <time>2020-07-15T06:07:51Z</time>
      </trkpt>
      <trkpt lat="38.1645570" lon="-2.6747690">
        <ele>1461.8</ele>
        <time>2020-07-15T06:07:55Z</time>
      </trkpt>
      <trkpt lat="38.1645800" lon="-2.6747390">
        <ele>1462.0</ele>
        <time>2020-07-15T06:07:56Z</time>
      </trkpt>
      <trkpt lat="38.1646270" lon="-2.6746390">
        <ele>1462.6</ele>
        <time>2020-07-15T06:07:59Z</time>
      </trkpt>
      <trkpt lat="38.1646450" lon="-2.6745580">
        <ele>1462.8</ele>
        <time>2020-07-15T06:08:01Z</time>
      </trkpt>
      <trkpt lat="38.1646390" lon="-2.6744110">
        <ele>1463.6</ele>
        <time>2020-07-15T06:08:05Z</time>
      </trkpt>
      <trkpt lat="38.1646380" lon="-2.6743730">
        <ele>1463.8</ele>
        <time>2020-07-15T06:08:06Z</time>
      </trkpt>
      <trkpt lat="38.1646790" lon="-2.6742230">
        <ele>1464.8</ele>
        <time>2020-07-15T06:08:10Z</time>
      </trkpt>
      <trkpt lat="38.1646970" lon="-2.6741880">
        <ele>1465.0</ele>
        <time>2020-07-15T06:08:11Z</time>
      </trkpt>
      <trkpt lat="38.1647770" lon="-2.6740520">
        <ele>1466.0</ele>
        <time>2020-07-15T06:08:15Z</time>
      </trkpt>
      <trkpt lat="38.1647990" lon="-2.6740260">
        <ele>1466.0</ele>
        <time>2020-07-15T06:08:16Z</time>
      </trkpt>
      <trkpt lat="38.1648410" lon="-2.6739770">
        <ele>1466.6</ele>
        <time>2020-07-15T06:08:18Z</time>
      </trkpt>
      <trkpt lat="38.1649170" lon="-2.6739070">
        <ele>1467.2</ele>
        <time>2020-07-15T06:08:21Z</time>
      </trkpt>
      <trkpt lat="38.1650370" lon="-2.6737880">
        <ele>1468.0</ele>
        <time>2020-07-15T06:08:26Z</time>
      </trkpt>
      <trkpt lat="38.1650860" lon="-2.6737450">
        <ele>1468.2</ele>
        <time>2020-07-15T06:08:28Z</time>
      </trkpt>
      <trkpt lat="38.1652440" lon="-2.6736200">
        <ele>1469.6</ele>
        <time>2020-07-15T06:08:34Z</time>
      </trkpt>
      <trkpt lat="38.1652700" lon="-2.6736040">
        <ele>1469.8</ele>
        <time>2020-07-15T06:08:35Z</time>
      </trkpt>
      <trkpt lat="38.1653510" lon="-2.6735580">
        <ele>1470.6</ele>
        <time>2020-07-15T06:08:38Z</time>
      </trkpt>
      <trkpt lat="38.1654920" lon="-2.6734350">
        <ele>1471.2</ele>
        <time>2020-07-15T06:08:43Z</time>
      </trkpt>
      <trkpt lat="38.1655120" lon="-2.6733850">
        <ele>1471.4</ele>
        <time>2020-07-15T06:08:44Z</time>
      </trkpt>
      <trkpt lat="38.1655260" lon="-2.6732180">
        <ele>1471.4</ele>
        <time>2020-07-15T06:08:47Z</time>
      </trkpt>
      <trkpt lat="38.1654680" lon="-2.6730560">
        <ele>1471.4</ele>
        <time>2020-07-15T06:08:50Z</time>
      </trkpt>
      <trkpt lat="38.1654240" lon="-2.6730080">
        <ele>1471.2</ele>
        <time>2020-07-15T06:08:51Z</time>
      </trkpt>
      <trkpt lat="38.1651980" lon="-2.6728640">
        <ele>1471.0</ele>
        <time>2020-07-15T06:08:56Z</time>
      </trkpt>
      <trkpt lat="38.1650480" lon="-2.6728130">
        <ele>1470.6</ele>
        <time>2020-07-15T06:08:59Z</time>
      </trkpt>
      <trkpt lat="38.1649540" lon="-2.6727680">
        <ele>1470.6</ele>
        <time>2020-07-15T06:09:01Z</time>
      </trkpt>
      <trkpt lat="38.1649130" lon="-2.6727380">
        <ele>1470.4</ele>
        <time>2020-07-15T06:09:02Z</time>
      </trkpt>
      <trkpt lat="38.1648200" lon="-2.6725830">
        <ele>1470.4</ele>
        <time>2020-07-15T06:09:05Z</time>
      </trkpt>
      <trkpt lat="38.1648010" lon="-2.6723050">
        <ele>1470.2</ele>
        <time>2020-07-15T06:09:09Z</time>
      </trkpt>
      <trkpt lat="38.1648350" lon="-2.6721560">
        <ele>1469.8</ele>
        <time>2020-07-15T06:09:11Z</time>
      </trkpt>
      <trkpt lat="38.1648760" lon="-2.6719950">
        <ele>1469.4</ele>
        <time>2020-07-15T06:09:13Z</time>
      </trkpt>
      <trkpt lat="38.1649010" lon="-2.6719100">
        <ele>1469.2</ele>
        <time>2020-07-15T06:09:14Z</time>
      </trkpt>
      <trkpt lat="38.1649280" lon="-2.6718340">
        <ele>1469.0</ele>
        <time>2020-07-15T06:09:15Z</time>
      </trkpt>
      <trkpt lat="38.1649700" lon="-2.6717670">
        <ele>1469.0</ele>
        <time>2020-07-15T06:09:16Z</time>
      </trkpt>
      <trkpt lat="38.1650900" lon="-2.6716870">
        <ele>1468.8</ele>
        <time>2020-07-15T06:09:18Z</time>
      </trkpt>
      <trkpt lat="38.1651620" lon="-2.6716780">
        <ele>1468.8</ele>
        <time>2020-07-15T06:09:19Z</time>
      </trkpt>
      <trkpt lat="38.1653090" lon="-2.6716840">
        <ele>1468.4</ele>
        <time>2020-07-15T06:09:21Z</time>
      </trkpt>
      <trkpt lat="38.1653820" lon="-2.6716890">
        <ele>1468.2</ele>
        <time>2020-07-15T06:09:22Z</time>
      </trkpt>
      <trkpt lat="38.1654470" lon="-2.6716800">
        <ele>1467.8</ele>
        <time>2020-07-15T06:09:23Z</time>
      </trkpt>
      <trkpt lat="38.1656000" lon="-2.6715970">
        <ele>1467.2</ele>
        <time>2020-07-15T06:09:25Z</time>
      </trkpt>
      <trkpt lat="38.1657320" lon="-2.6713570">
        <ele>1466.2</ele>
        <time>2020-07-15T06:09:28Z</time>
      </trkpt>
      <trkpt lat="38.1657690" lon="-2.6712610">
        <ele>1466.0</ele>
        <time>2020-07-15T06:09:29Z</time>
      </trkpt>
      <trkpt lat="38.1658820" lon="-2.6709890">
        <ele>1465.6</ele>
        <time>2020-07-15T06:09:32Z</time>
      </trkpt>
      <trkpt lat="38.1659170" lon="-2.6709270">
        <ele>1465.4</ele>
        <time>2020-07-15T06:09:33Z</time>
      </trkpt>
      <trkpt lat="38.1659830" lon="-2.6708370">
        <ele>1465.4</ele>
        <time>2020-07-15T06:09:34Z</time>
      </trkpt>
      <trkpt lat="38.1661360" lon="-2.6707610">
        <ele>1465.0</ele>
        <time>2020-07-15T06:09:36Z</time>
      </trkpt>
      <trkpt lat="38.1662190" lon="-2.6707610">
        <ele>1464.8</ele>
        <time>2020-07-15T06:09:37Z</time>
      </trkpt>
      <trkpt lat="38.1664670" lon="-2.6707930">
        <ele>1464.2</ele>
        <time>2020-07-15T06:09:40Z</time>
      </trkpt>
      <trkpt lat="38.1665520" lon="-2.6707990">
        <ele>1464.0</ele>
        <time>2020-07-15T06:09:41Z</time>
      </trkpt>
      <trkpt lat="38.1666460" lon="-2.6707980">
        <ele>1463.8</ele>
        <time>2020-07-15T06:09:42Z</time>
      </trkpt>
      <trkpt lat="38.1669070" lon="-2.6708060">
        <ele>1462.8</ele>
        <time>2020-07-15T06:09:45Z</time>
      </trkpt>
      <trkpt lat="38.1670840" lon="-2.6708110">
        <ele>1461.4</ele>
        <time>2020-07-15T06:09:47Z</time>
      </trkpt>
      <trkpt lat="38.1673530" lon="-2.6708260">
        <ele>1460.0</ele>
        <time>2020-07-15T06:09:50Z</time>
      </trkpt>
      <trkpt lat="38.1675220" lon="-2.6708050">
        <ele>1459.6</ele>
        <time>2020-07-15T06:09:52Z</time>
      </trkpt>
      <trkpt lat="38.1678570" lon="-2.6707290">
        <ele>1459.0</ele>
        <time>2020-07-15T06:09:56Z</time>
      </trkpt>
      <trkpt lat="38.1680090" lon="-2.6707080">
        <ele>1458.8</ele>
        <time>2020-07-15T06:09:58Z</time>
      </trkpt>
      <trkpt lat="38.1685300" lon="-2.6706360">
        <ele>1458.2</ele>
        <time>2020-07-15T06:10:04Z</time>
      </trkpt>
      <trkpt lat="38.1686170" lon="-2.6706400">
        <ele>1458.0</ele>
        <time>2020-07-15T06:10:05Z</time>
      </trkpt>
      <trkpt lat="38.1688960" lon="-2.6707110">
        <ele>1456.8</ele>
        <time>2020-07-15T06:10:08Z</time>
      </trkpt>
      <trkpt lat="38.1689960" lon="-2.6707200">
        <ele>1456.0</ele>
        <time>2020-07-15T06:10:09Z</time>
      </trkpt>
      <trkpt lat="38.1690970" lon="-2.6707200">
        <ele>1455.4</ele>
        <time>2020-07-15T06:10:10Z</time>
      </trkpt>
      <trkpt lat="38.1692950" lon="-2.6706970">
        <ele>1454.0</ele>
        <time>2020-07-15T06:10:12Z</time>
      </trkpt>
      <trkpt lat="38.1693860" lon="-2.6706820">
        <ele>1453.2</ele>
        <time>2020-07-15T06:10:13Z</time>
      </trkpt>
      <trkpt lat="38.1694860" lon="-2.6706870">
        <ele>1452.6</ele>
        <time>2020-07-15T06:10:14Z</time>
      </trkpt>
      <trkpt lat="38.1696730" lon="-2.6707690">
        <ele>1451.6</ele>
        <time>2020-07-15T06:10:16Z</time>
      </trkpt>
      <trkpt lat="38.1697610" lon="-2.6708150">
        <ele>1451.2</ele>
        <time>2020-07-15T06:10:17Z</time>
      </trkpt>
      <trkpt lat="38.1700430" lon="-2.6709920">
        <ele>1449.8</ele>
        <time>2020-07-15T06:10:20Z</time>
      </trkpt>
      <trkpt lat="38.1701100" lon="-2.6710810">
        <ele>1449.4</ele>
        <time>2020-07-15T06:10:21Z</time>
      </trkpt>
      <trkpt lat="38.1702010" lon="-2.6712770">
        <ele>1448.8</ele>
        <time>2020-07-15T06:10:23Z</time>
      </trkpt>
      <trkpt lat="38.1702740" lon="-2.6713660">
        <ele>1448.4</ele>
        <time>2020-07-15T06:10:24Z</time>
      </trkpt>
      <trkpt lat="38.1704450" lon="-2.6714630">
        <ele>1447.4</ele>
        <time>2020-07-15T06:10:26Z</time>
      </trkpt>
      <trkpt lat="38.1705590" lon="-2.6714290">
        <ele>1447.0</ele>
        <time>2020-07-15T06:10:27Z</time>
      </trkpt>
      <trkpt lat="38.1707460" lon="-2.6713960">
        <ele>1446.0</ele>
        <time>2020-07-15T06:10:29Z</time>
      </trkpt>
      <trkpt lat="38.1709530" lon="-2.6714130">
        <ele>1445.2</ele>
        <time>2020-07-15T06:10:31Z</time>
      </trkpt>
      <trkpt lat="38.1710520" lon="-2.6714530">
        <ele>1444.8</ele>
        <time>2020-07-15T06:10:32Z</time>
      </trkpt>
      <trkpt lat="38.1712340" lon="-2.6715650">
        <ele>1443.8</ele>
        <time>2020-07-15T06:10:34Z</time>
      </trkpt>
      <trkpt lat="38.1713160" lon="-2.6716120">
        <ele>1443.4</ele>
        <time>2020-07-15T06:10:35Z</time>
      </trkpt>
      <trkpt lat="38.1715630" lon="-2.6717400">
        <ele>1442.8</ele>
        <time>2020-07-15T06:10:38Z</time>
      </trkpt>
      <trkpt lat="38.1716580" lon="-2.6717480">
        <ele>1442.6</ele>
        <time>2020-07-15T06:10:39Z</time>
      </trkpt>
      <trkpt lat="38.1718200" lon="-2.6717080">
        <ele>1442.4</ele>
        <time>2020-07-15T06:10:41Z</time>
      </trkpt>
      <trkpt lat="38.1719070" lon="-2.6716790">
        <ele>1442.2</ele>
        <time>2020-07-15T06:10:42Z</time>
      </trkpt>
      <trkpt lat="38.1722290" lon="-2.6715670">
        <ele>1442.2</ele>
        <time>2020-07-15T06:10:46Z</time>
      </trkpt>
      <trkpt lat="38.1723660" lon="-2.6715220">
        <ele>1442.2</ele>
        <time>2020-07-15T06:10:48Z</time>
      </trkpt>
      <trkpt lat="38.1725580" lon="-2.6714480">
        <ele>1442.4</ele>
        <time>2020-07-15T06:10:51Z</time>
      </trkpt>
      <trkpt lat="38.1726130" lon="-2.6714160">
        <ele>1442.6</ele>
        <time>2020-07-15T06:10:52Z</time>
      </trkpt>
      <trkpt lat="38.1726600" lon="-2.6713850">
        <ele>1443.0</ele>
        <time>2020-07-15T06:10:53Z</time>
      </trkpt>
      <trkpt lat="38.1727510" lon="-2.6713050">
        <ele>1443.6</ele>
        <time>2020-07-15T06:10:55Z</time>
      </trkpt>
      <trkpt lat="38.1727900" lon="-2.6712670">
        <ele>1443.8</ele>
        <time>2020-07-15T06:10:56Z</time>
      </trkpt>
      <trkpt lat="38.1728640" lon="-2.6711940">
        <ele>1444.2</ele>
        <time>2020-07-15T06:10:58Z</time>
      </trkpt>
      <trkpt lat="38.1729320" lon="-2.6711310">
        <ele>1444.6</ele>
        <time>2020-07-15T06:11:00Z</time>
      </trkpt>
      <trkpt lat="38.1730110" lon="-2.6710530">
        <ele>1445.2</ele>
        <time>2020-07-15T06:11:02Z</time>
      </trkpt>
      <trkpt lat="38.1730730" lon="-2.6709760">
        <ele>1445.4</ele>
        <time>2020-07-15T06:11:04Z</time>
      </trkpt>
      <trkpt lat="38.1731400" lon="-2.6708980">
        <ele>1445.8</ele>
        <time>2020-07-15T06:11:06Z</time>
      </trkpt>
      <trkpt lat="38.1732300" lon="-2.6707920">
        <ele>1446.0</ele>
        <time>2020-07-15T06:11:09Z</time>
      </trkpt>
      <trkpt lat="38.1732950" lon="-2.6707380">
        <ele>1446.2</ele>
        <time>2020-07-15T06:11:11Z</time>
      </trkpt>
      <trkpt lat="38.1733550" lon="-2.6706740">
        <ele>1446.6</ele>
        <time>2020-07-15T06:11:13Z</time>
      </trkpt>
      <trkpt lat="38.1733980" lon="-2.6706510">
        <ele>1446.8</ele>
        <time>2020-07-15T06:11:14Z</time>
      </trkpt>
      <trkpt lat="38.1734620" lon="-2.6706040">
        <ele>1447.4</ele>
        <time>2020-07-15T06:11:16Z</time>
      </trkpt>
      <trkpt lat="38.1735290" lon="-2.6705530">
        <ele>1448.0</ele>
        <time>2020-07-15T06:11:18Z</time>
      </trkpt>
      <trkpt lat="38.1736060" lon="-2.6705040">
        <ele>1448.4</ele>
        <time>2020-07-15T06:11:20Z</time>
      </trkpt>
      <trkpt lat="38.1736460" lon="-2.6704830">
        <ele>1448.6</ele>
        <time>2020-07-15T06:11:21Z</time>
      </trkpt>
      <trkpt lat="38.1737320" lon="-2.6704580">
        <ele>1448.6</ele>
        <time>2020-07-15T06:11:23Z</time>
      </trkpt>
      <trkpt lat="38.1738720" lon="-2.6704240">
        <ele>1448.4</ele>
        <time>2020-07-15T06:11:26Z</time>
      </trkpt>
      <trkpt lat="38.1739070" lon="-2.6704240">
        <ele>1448.4</ele>
        <time>2020-07-15T06:11:27Z</time>
      </trkpt>
      <trkpt lat="38.1739690" lon="-2.6704040">
        <ele>1448.2</ele>
        <time>2020-07-15T06:11:28Z</time>
      </trkpt>
      <trkpt lat="38.1740250" lon="-2.6703970">
        <ele>1448.0</ele>
        <time>2020-07-15T06:11:29Z</time>
      </trkpt>
      <trkpt lat="38.1742170" lon="-2.6703240">
        <ele>1447.4</ele>
        <time>2020-07-15T06:11:32Z</time>
      </trkpt>
      <trkpt lat="38.1742820" lon="-2.6703080">
        <ele>1447.4</ele>
        <time>2020-07-15T06:11:33Z</time>
      </trkpt>
      <trkpt lat="38.1744160" lon="-2.6702760">
        <ele>1447.0</ele>
        <time>2020-07-15T06:11:35Z</time>
      </trkpt>
      <trkpt lat="38.1745510" lon="-2.6702790">
        <ele>1446.6</ele>
        <time>2020-07-15T06:11:37Z</time>
      </trkpt>
      <trkpt lat="38.1746020" lon="-2.6703090">
        <ele>1446.6</ele>
        <time>2020-07-15T06:11:38Z</time>
      </trkpt>
      <trkpt lat="38.1747000" lon="-2.6703860">
        <ele>1446.6</ele>
        <time>2020-07-15T06:11:40Z</time>
      </trkpt>
      <trkpt lat="38.1747840" lon="-2.6704680">
        <ele>1446.8</ele>
        <time>2020-07-15T06:11:42Z</time>
      </trkpt>
      <trkpt lat="38.1749630" lon="-2.6706240">
        <ele>1446.8</ele>
        <time>2020-07-15T06:11:46Z</time>
      </trkpt>
      <trkpt lat="38.1750090" lon="-2.6706370">
        <ele>1446.8</ele>
        <time>2020-07-15T06:11:47Z</time>
      </trkpt>
      <trkpt lat="38.1751730" lon="-2.6706470">
        <ele>1447.0</ele>
        <time>2020-07-15T06:11:50Z</time>
      </trkpt>
      <trkpt lat="38.1752290" lon="-2.6706480">
        <ele>1447.0</ele>
        <time>2020-07-15T06:11:51Z</time>
      </trkpt>
      <trkpt lat="38.1752840" lon="-2.6706400">
        <ele>1447.0</ele>
        <time>2020-07-15T06:11:52Z</time>
      </trkpt>
      <trkpt lat="38.1755000" lon="-2.6705850">
        <ele>1447.4</ele>
        <time>2020-07-15T06:11:56Z</time>
      </trkpt>
      <trkpt lat="38.1756860" lon="-2.6704680">
        <ele>1448.0</ele>
        <time>2020-07-15T06:12:00Z</time>
      </trkpt>
      <trkpt lat="38.1757520" lon="-2.6704050">
        <ele>1448.4</ele>
        <time>2020-07-15T06:12:02Z</time>
      </trkpt>
      <trkpt lat="38.1758370" lon="-2.6703210">
        <ele>1449.2</ele>
        <time>2020-07-15T06:12:05Z</time>
      </trkpt>
      <trkpt lat="38.1759160" lon="-2.6702430">
        <ele>1450.2</ele>
        <time>2020-07-15T06:12:08Z</time>
      </trkpt>
      <trkpt lat="38.1759430" lon="-2.6702160">
        <ele>1450.4</ele>
        <time>2020-07-15T06:12:09Z</time>
      </trkpt>
      <trkpt lat="38.1760260" lon="-2.6701440">
        <ele>1451.2</ele>
        <time>2020-07-15T06:12:12Z</time>
      </trkpt>
      <trkpt lat="38.1760810" lon="-2.6700920">
        <ele>1451.6</ele>
        <time>2020-07-15T06:12:14Z</time>
      </trkpt>
      <trkpt lat="38.1761290" lon="-2.6700450">
        <ele>1452.2</ele>
        <time>2020-07-15T06:12:16Z</time>
      </trkpt>
      <trkpt lat="38.1762040" lon="-2.6699700">
        <ele>1452.8</ele>
        <time>2020-07-15T06:12:19Z</time>
      </trkpt>
      <trkpt lat="38.1762990" lon="-2.6698840">
        <ele>1454.0</ele>
        <time>2020-07-15T06:12:23Z</time>
      </trkpt>
      <trkpt lat="38.1763260" lon="-2.6698590">
        <ele>1454.4</ele>
        <time>2020-07-15T06:12:24Z</time>
      </trkpt>
      <trkpt lat="38.1763740" lon="-2.6698110">
        <ele>1455.0</ele>
        <time>2020-07-15T06:12:26Z</time>
      </trkpt>
      <trkpt lat="38.1765280" lon="-2.6696790">
        <ele>1456.2</ele>
        <time>2020-07-15T06:12:32Z</time>
      </trkpt>
      <trkpt lat="38.1766570" lon="-2.6695560">
        <ele>1457.0</ele>
        <time>2020-07-15T06:12:37Z</time>
      </trkpt>
      <trkpt lat="38.1767090" lon="-2.6695090">
        <ele>1457.4</ele>
        <time>2020-07-15T06:12:39Z</time>
      </trkpt>
      <trkpt lat="38.1768120" lon="-2.6694190">
        <ele>1458.2</ele>
        <time>2020-07-15T06:12:43Z</time>
      </trkpt>
      <trkpt lat="38.1768410" lon="-2.6693950">
        <ele>1458.4</ele>
        <time>2020-07-15T06:12:44Z</time>
      </trkpt>
      <trkpt lat="38.1770590" lon="-2.6692030">
        <ele>1459.6</ele>
        <time>2020-07-15T06:12:52Z</time>
      </trkpt>
      <trkpt lat="38.1771140" lon="-2.6691540">
        <ele>1459.8</ele>
        <time>2020-07-15T06:12:54Z</time>
      </trkpt>
      <trkpt lat="38.1773410" lon="-2.6689480">
        <ele>1460.6</ele>
        <time>2020-07-15T06:13:02Z</time>
      </trkpt>
      <trkpt lat="38.1774520" lon="-2.6688470">
        <ele>1461.0</ele>
        <time>2020-07-15T06:13:06Z</time>
      </trkpt>
      <trkpt lat="38.1775810" lon="-2.6687230">
        <ele>1461.8</ele>
        <time>2020-07-15T06:13:11Z</time>
      </trkpt>
      <trkpt lat="38.1777050" lon="-2.6686050">
        <ele>1462.8</ele>
        <time>2020-07-15T06:13:16Z</time>
      </trkpt>
      <trkpt lat="38.1778290" lon="-2.6685050">
        <ele>1463.8</ele>
        <time>2020-07-15T06:13:21Z</time>
      </trkpt>
      <trkpt lat="38.1779490" lon="-2.6684040">
        <ele>1465.0</ele>
        <time>2020-07-15T06:13:26Z</time>
      </trkpt>
      <trkpt lat="38.1781020" lon="-2.6683110">
        <ele>1466.2</ele>
        <time>2020-07-15T06:13:32Z</time>
      </trkpt>
      <trkpt lat="38.1781740" lon="-2.6682600">
        <ele>1466.8</ele>
        <time>2020-07-15T06:13:35Z</time>
      </trkpt>
      <trkpt lat="38.1782020" lon="-2.6682440">
        <ele>1467.2</ele>
        <time>2020-07-15T06:13:36Z</time>
      </trkpt>
      <trkpt lat="38.1782860" lon="-2.6682020">
        <ele>1468.2</ele>
        <time>2020-07-15T06:13:39Z</time>
      </trkpt>
      <trkpt lat="38.1783650" lon="-2.6681600">
        <ele>1469.2</ele>
        <time>2020-07-15T06:13:42Z</time>
      </trkpt>
      <trkpt lat="38.1783900" lon="-2.6681470">
        <ele>1469.4</ele>
        <time>2020-07-15T06:13:43Z</time>
      </trkpt>
      <trkpt lat="38.1785440" lon="-2.6680730">
        <ele>1470.6</ele>
        <time>2020-07-15T06:13:49Z</time>
      </trkpt>
      <trkpt lat="38.1786460" lon="-2.6680250">
        <ele>1471.4</ele>
        <time>2020-07-15T06:13:53Z</time>
      </trkpt>
      <trkpt lat="38.1787020" lon="-2.6680010">
        <ele>1471.6</ele>
        <time>2020-07-15T06:13:55Z</time>
      </trkpt>
      <trkpt lat="38.1788390" lon="-2.6679520">
        <ele>1472.8</ele>
        <time>2020-07-15T06:14:00Z</time>
      </trkpt>
      <trkpt lat="38.1789230" lon="-2.6679320">
        <ele>1473.6</ele>
        <time>2020-07-15T06:14:03Z</time>
      </trkpt>
      <trkpt lat="38.1789550" lon="-2.6679290">
        <ele>1473.8</ele>
        <time>2020-07-15T06:14:04Z</time>
      </trkpt>
      <trkpt lat="38.1792300" lon="-2.6679030">
        <ele>1475.0</ele>
        <time>2020-07-15T06:14:13Z</time>
      </trkpt>
      <trkpt lat="38.1792630" lon="-2.6679060">
        <ele>1475.2</ele>
        <time>2020-07-15T06:14:14Z</time>
      </trkpt>
      <trkpt lat="38.1794190" lon="-2.6679100">
        <ele>1476.0</ele>
        <time>2020-07-15T06:14:19Z</time>
      </trkpt>
      <trkpt lat="38.1796120" lon="-2.6679040">
        <ele>1477.0</ele>
        <time>2020-07-15T06:14:25Z</time>
      </trkpt>
      <trkpt lat="38.1796450" lon="-2.6679050">
        <ele>1477.2</ele>
        <time>2020-07-15T06:14:26Z</time>
      </trkpt>
      <trkpt lat="38.1799070" lon="-2.6678980">
        <ele>1478.2</ele>
        <time>2020-07-15T06:14:34Z</time>
      </trkpt>
      <trkpt lat="38.1799770" lon="-2.6678970">
        <ele>1478.4</ele>
        <time>2020-07-15T06:14:36Z</time>
      </trkpt>
      <trkpt lat="38.1802570" lon="-2.6678330">
        <ele>1479.2</ele>
        <time>2020-07-15T06:14:44Z</time>
      </trkpt>
      <trkpt lat="38.1802900" lon="-2.6678230">
        <ele>1479.2</ele>
        <time>2020-07-15T06:14:45Z</time>
      </trkpt>
      <trkpt lat="38.1804460" lon="-2.6677740">
        <ele>1480.0</ele>
        <time>2020-07-15T06:14:50Z</time>
      </trkpt>
      <trkpt lat="38.1805140" lon="-2.6677620">
        <ele>1480.4</ele>
        <time>2020-07-15T06:14:52Z</time>
      </trkpt>
      <trkpt lat="38.1807300" lon="-2.6677850">
        <ele>1480.6</ele>
        <time>2020-07-15T06:14:58Z</time>
      </trkpt>
      <trkpt lat="38.1808470" lon="-2.6678630">
        <ele>1480.6</ele>
        <time>2020-07-15T06:15:01Z</time>
      </trkpt>
      <trkpt lat="38.1809640" lon="-2.6679600">
        <ele>1480.4</ele>
        <time>2020-07-15T06:15:04Z</time>
      </trkpt>
      <trkpt lat="38.1810860" lon="-2.6680670">
        <ele>1480.4</ele>
        <time>2020-07-15T06:15:07Z</time>
      </trkpt>
      <trkpt lat="38.1812210" lon="-2.6681640">
        <ele>1480.4</ele>
        <time>2020-07-15T06:15:10Z</time>
      </trkpt>
      <trkpt lat="38.1812650" lon="-2.6681910">
        <ele>1480.6</ele>
        <time>2020-07-15T06:15:11Z</time>
      </trkpt>
      <trkpt lat="38.1814180" lon="-2.6682630">
        <ele>1480.4</ele>
        <time>2020-07-15T06:15:14Z</time>
      </trkpt>
      <trkpt lat="38.1815610" lon="-2.6683290">
        <ele>1480.4</ele>
        <time>2020-07-15T06:15:17Z</time>
      </trkpt>
      <trkpt lat="38.1816080" lon="-2.6683620">
        <ele>1480.4</ele>
        <time>2020-07-15T06:15:18Z</time>
      </trkpt>
      <trkpt lat="38.1817420" lon="-2.6685980">
        <ele>1480.2</ele>
        <time>2020-07-15T06:15:22Z</time>
      </trkpt>
      <trkpt lat="38.1817700" lon="-2.6688100">
        <ele>1479.8</ele>
        <time>2020-07-15T06:15:25Z</time>
      </trkpt>
      <trkpt lat="38.1817670" lon="-2.6688800">
        <ele>1479.8</ele>
        <time>2020-07-15T06:15:26Z</time>
      </trkpt>
      <trkpt lat="38.1817720" lon="-2.6689500">
        <ele>1479.8</ele>
        <time>2020-07-15T06:15:27Z</time>
      </trkpt>
      <trkpt lat="38.1818460" lon="-2.6691500">
        <ele>1479.8</ele>
        <time>2020-07-15T06:15:30Z</time>
      </trkpt>
      <trkpt lat="38.1820110" lon="-2.6692800">
        <ele>1479.6</ele>
        <time>2020-07-15T06:15:33Z</time>
      </trkpt>
      <trkpt lat="38.1822280" lon="-2.6693360">
        <ele>1479.2</ele>
        <time>2020-07-15T06:15:36Z</time>
      </trkpt>
      <trkpt lat="38.1823080" lon="-2.6693330">
        <ele>1478.8</ele>
        <time>2020-07-15T06:15:37Z</time>
      </trkpt>
      <trkpt lat="38.1825510" lon="-2.6692540">
        <ele>1477.8</ele>
        <time>2020-07-15T06:15:40Z</time>
      </trkpt>
      <trkpt lat="38.1826280" lon="-2.6692230">
        <ele>1477.6</ele>
        <time>2020-07-15T06:15:41Z</time>
      </trkpt>
      <trkpt lat="38.1827990" lon="-2.6691590">
        <ele>1476.8</ele>
        <time>2020-07-15T06:15:43Z</time>
      </trkpt>
      <trkpt lat="38.1830650" lon="-2.6690920">
        <ele>1475.6</ele>
        <time>2020-07-15T06:15:46Z</time>
      </trkpt>
      <trkpt lat="38.1831480" lon="-2.6690780">
        <ele>1475.4</ele>
        <time>2020-07-15T06:15:47Z</time>
      </trkpt>
      <trkpt lat="38.1835220" lon="-2.6689970">
        <ele>1474.2</ele>
        <time>2020-07-15T06:15:51Z</time>
      </trkpt>
      <trkpt lat="38.1837000" lon="-2.6689370">
        <ele>1473.0</ele>
        <time>2020-07-15T06:15:53Z</time>
      </trkpt>
      <trkpt lat="38.1838040" lon="-2.6689010">
        <ele>1472.4</ele>
        <time>2020-07-15T06:15:54Z</time>
      </trkpt>
      <trkpt lat="38.1839010" lon="-2.6688690">
        <ele>1471.8</ele>
        <time>2020-07-15T06:15:55Z</time>
      </trkpt>
      <trkpt lat="38.1841890" lon="-2.6687810">
        <ele>1470.2</ele>
        <time>2020-07-15T06:15:58Z</time>
      </trkpt>
      <trkpt lat="38.1843950" lon="-2.6687600">
        <ele>1469.0</ele>
        <time>2020-07-15T06:16:00Z</time>
      </trkpt>
      <trkpt lat="38.1845030" lon="-2.6687630">
        <ele>1468.6</ele>
        <time>2020-07-15T06:16:01Z</time>
      </trkpt>
      <trkpt lat="38.1847000" lon="-2.6688440">
        <ele>1467.6</ele>
        <time>2020-07-15T06:16:03Z</time>
      </trkpt>
      <trkpt lat="38.1847980" lon="-2.6689200">
        <ele>1466.8</ele>
        <time>2020-07-15T06:16:04Z</time>
      </trkpt>
      <trkpt lat="38.1848910" lon="-2.6689870">
        <ele>1466.2</ele>
        <time>2020-07-15T06:16:05Z</time>
      </trkpt>
      <trkpt lat="38.1851080" lon="-2.6691160">
        <ele>1464.8</ele>
        <time>2020-07-15T06:16:07Z</time>
      </trkpt>
      <trkpt lat="38.1853330" lon="-2.6692480">
        <ele>1463.6</ele>
        <time>2020-07-15T06:16:09Z</time>
      </trkpt>
      <trkpt lat="38.1855590" lon="-2.6694030">
        <ele>1462.0</ele>
        <time>2020-07-15T06:16:11Z</time>
      </trkpt>
      <trkpt lat="38.1856840" lon="-2.6694950">
        <ele>1460.8</ele>
        <time>2020-07-15T06:16:12Z</time>
      </trkpt>
      <trkpt lat="38.1857950" lon="-2.6695730">
        <ele>1459.8</ele>
        <time>2020-07-15T06:16:13Z</time>
      </trkpt>
      <trkpt lat="38.1859190" lon="-2.6696580">
        <ele>1459.0</ele>
        <time>2020-07-15T06:16:14Z</time>
      </trkpt>
      <trkpt lat="38.1860280" lon="-2.6697360">
        <ele>1458.0</ele>
        <time>2020-07-15T06:16:15Z</time>
      </trkpt>
      <trkpt lat="38.1862550" lon="-2.6699060">
        <ele>1456.0</ele>
        <time>2020-07-15T06:16:17Z</time>
      </trkpt>
      <trkpt lat="38.1864910" lon="-2.6700790">
        <ele>1454.2</ele>
        <time>2020-07-15T06:16:19Z</time>
      </trkpt>
      <trkpt lat="38.1867110" lon="-2.6702450">
        <ele>1452.8</ele>
        <time>2020-07-15T06:16:21Z</time>
      </trkpt>
      <trkpt lat="38.1870180" lon="-2.6704640">
        <ele>1451.8</ele>
        <time>2020-07-15T06:16:24Z</time>
      </trkpt>
      <trkpt lat="38.1872070" lon="-2.6706040">
        <ele>1451.4</ele>
        <time>2020-07-15T06:16:26Z</time>
      </trkpt>
      <trkpt lat="38.1876240" lon="-2.6708570">
        <ele>1451.4</ele>
        <time>2020-07-15T06:16:31Z</time>
      </trkpt>
      <trkpt lat="38.1877000" lon="-2.6708790">
        <ele>1451.6</ele>
        <time>2020-07-15T06:16:32Z</time>
      </trkpt>
      <trkpt lat="38.1878550" lon="-2.6709150">
        <ele>1452.0</ele>
        <time>2020-07-15T06:16:34Z</time>
      </trkpt>
      <trkpt lat="38.1879260" lon="-2.6709210">
        <ele>1452.2</ele>
        <time>2020-07-15T06:16:35Z</time>
      </trkpt>
      <trkpt lat="38.1884500" lon="-2.6709590">
        <ele>1452.4</ele>
        <time>2020-07-15T06:16:42Z</time>
      </trkpt>
      <trkpt lat="38.1886030" lon="-2.6709590">
        <ele>1452.2</ele>
        <time>2020-07-15T06:16:44Z</time>
      </trkpt>
      <trkpt lat="38.1888230" lon="-2.6709710">
        <ele>1451.8</ele>
        <time>2020-07-15T06:16:47Z</time>
      </trkpt>
      <trkpt lat="38.1890600" lon="-2.6709850">
        <ele>1451.6</ele>
        <time>2020-07-15T06:16:50Z</time>
      </trkpt>
      <trkpt lat="38.1895830" lon="-2.6710130">
        <ele>1451.2</ele>
        <time>2020-07-15T06:16:57Z</time>
      </trkpt>
      <trkpt lat="38.1896520" lon="-2.6710050">
        <ele>1451.2</ele>
        <time>2020-07-15T06:16:58Z</time>
      </trkpt>
      <trkpt lat="38.1898630" lon="-2.6709070">
        <ele>1450.8</ele>
        <time>2020-07-15T06:17:01Z</time>
      </trkpt>
      <trkpt lat="38.1899250" lon="-2.6708580">
        <ele>1450.6</ele>
        <time>2020-07-15T06:17:02Z</time>
      </trkpt>
      <trkpt lat="38.1900350" lon="-2.6707470">
        <ele>1450.4</ele>
        <time>2020-07-15T06:17:04Z</time>
      </trkpt>
      <trkpt lat="38.1901850" lon="-2.6705670">
        <ele>1450.4</ele>
        <time>2020-07-15T06:17:07Z</time>
      </trkpt>
      <trkpt lat="38.1903700" lon="-2.6703290">
        <ele>1450.6</ele>
        <time>2020-07-15T06:17:11Z</time>
      </trkpt>
      <trkpt lat="38.1905990" lon="-2.6700270">
        <ele>1451.0</ele>
        <time>2020-07-15T06:17:16Z</time>
      </trkpt>
      <trkpt lat="38.1908280" lon="-2.6697390">
        <ele>1451.2</ele>
        <time>2020-07-15T06:17:21Z</time>
      </trkpt>
      <trkpt lat="38.1908800" lon="-2.6696890">
        <ele>1451.2</ele>
        <time>2020-07-15T06:17:22Z</time>
      </trkpt>
      <trkpt lat="38.1909280" lon="-2.6696460">
        <ele>1451.2</ele>
        <time>2020-07-15T06:17:23Z</time>
      </trkpt>
      <trkpt lat="38.1911070" lon="-2.6695310">
        <ele>1451.4</ele>
        <time>2020-07-15T06:17:26Z</time>
      </trkpt>
      <trkpt lat="38.1912240" lon="-2.6694740">
        <ele>1451.6</ele>
        <time>2020-07-15T06:17:28Z</time>
      </trkpt>
      <trkpt lat="38.1914600" lon="-2.6693430">
        <ele>1451.6</ele>
        <time>2020-07-15T06:17:32Z</time>
      </trkpt>
      <trkpt lat="38.1915590" lon="-2.6692390">
        <ele>1451.6</ele>
        <time>2020-07-15T06:17:34Z</time>
      </trkpt>
      <trkpt lat="38.1916630" lon="-2.6690470">
        <ele>1451.8</ele>
        <time>2020-07-15T06:17:37Z</time>
      </trkpt>
      <trkpt lat="38.1916940" lon="-2.6689860">
        <ele>1451.8</ele>
        <time>2020-07-15T06:17:38Z</time>
      </trkpt>
      <trkpt lat="38.1919660" lon="-2.6685870">
        <ele>1452.4</ele>
        <time>2020-07-15T06:17:45Z</time>
      </trkpt>
      <trkpt lat="38.1923250" lon="-2.6682820">
        <ele>1452.6</ele>
        <time>2020-07-15T06:17:52Z</time>
      </trkpt>
      <trkpt lat="38.1926870" lon="-2.6681130">
        <ele>1452.2</ele>
        <time>2020-07-15T06:17:58Z</time>
      </trkpt>
      <trkpt lat="38.1929630" lon="-2.6680640">
        <ele>1451.8</ele>
        <time>2020-07-15T06:18:02Z</time>
      </trkpt>
      <trkpt lat="38.1931030" lon="-2.6680440">
        <ele>1451.4</ele>
        <time>2020-07-15T06:18:04Z</time>
      </trkpt>
      <trkpt lat="38.1933000" lon="-2.6679650">
        <ele>1451.0</ele>
        <time>2020-07-15T06:18:07Z</time>
      </trkpt>
      <trkpt lat="38.1933580" lon="-2.6679310">
        <ele>1450.8</ele>
        <time>2020-07-15T06:18:08Z</time>
      </trkpt>
      <trkpt lat="38.1934230" lon="-2.6678820">
        <ele>1450.6</ele>
        <time>2020-07-15T06:18:09Z</time>
      </trkpt>
      <trkpt lat="38.1935330" lon="-2.6677880">
        <ele>1450.4</ele>
        <time>2020-07-15T06:18:11Z</time>
      </trkpt>
      <trkpt lat="38.1935920" lon="-2.6677340">
        <ele>1450.2</ele>
        <time>2020-07-15T06:18:12Z</time>
      </trkpt>
      <trkpt lat="38.1936970" lon="-2.6676140">
        <ele>1450.2</ele>
        <time>2020-07-15T06:18:14Z</time>
      </trkpt>
      <trkpt lat="38.1938280" lon="-2.6674150">
        <ele>1449.6</ele>
        <time>2020-07-15T06:18:17Z</time>
      </trkpt>
      <trkpt lat="38.1940970" lon="-2.6670520">
        <ele>1449.6</ele>
        <time>2020-07-15T06:18:23Z</time>
      </trkpt>
      <trkpt lat="38.1945420" lon="-2.6665750">
        <ele>1449.0</ele>
        <time>2020-07-15T06:18:31Z</time>
      </trkpt>
      <trkpt lat="38.1946000" lon="-2.6665420">
        <ele>1448.8</ele>
        <time>2020-07-15T06:18:32Z</time>
      </trkpt>
      <trkpt lat="38.1947550" lon="-2.6665280">
        <ele>1448.6</ele>
        <time>2020-07-15T06:18:34Z</time>
      </trkpt>
      <trkpt lat="38.1948230" lon="-2.6665370">
        <ele>1448.4</ele>
        <time>2020-07-15T06:18:35Z</time>
      </trkpt>
      <trkpt lat="38.1950430" lon="-2.6665990">
        <ele>1448.0</ele>
        <time>2020-07-15T06:18:38Z</time>
      </trkpt>
      <trkpt lat="38.1952820" lon="-2.6666230">
        <ele>1447.4</ele>
        <time>2020-07-15T06:18:41Z</time>
      </trkpt>
      <trkpt lat="38.1953660" lon="-2.6666160">
        <ele>1447.2</ele>
        <time>2020-07-15T06:18:42Z</time>
      </trkpt>
      <trkpt lat="38.1957500" lon="-2.6665220">
        <ele>1446.4</ele>
        <time>2020-07-15T06:18:47Z</time>
      </trkpt>
      <trkpt lat="38.1958190" lon="-2.6664830">
        <ele>1446.2</ele>
        <time>2020-07-15T06:18:48Z</time>
      </trkpt>
      <trkpt lat="38.1960290" lon="-2.6663540">
        <ele>1445.6</ele>
        <time>2020-07-15T06:18:51Z</time>
      </trkpt>
      <trkpt lat="38.1962730" lon="-2.6661940">
        <ele>1445.2</ele>
        <time>2020-07-15T06:18:55Z</time>
      </trkpt>
      <trkpt lat="38.1963930" lon="-2.6661120">
        <ele>1445.4</ele>
        <time>2020-07-15T06:18:57Z</time>
      </trkpt>
      <trkpt lat="38.1965400" lon="-2.6659730">
        <ele>1445.6</ele>
        <time>2020-07-15T06:19:00Z</time>
      </trkpt>
      <trkpt lat="38.1966250" lon="-2.6658690">
        <ele>1445.8</ele>
        <time>2020-07-15T06:19:02Z</time>
      </trkpt>
      <trkpt lat="38.1967070" lon="-2.6657570">
        <ele>1445.8</ele>
        <time>2020-07-15T06:19:04Z</time>
      </trkpt>
      <trkpt lat="38.1967450" lon="-2.6657030">
        <ele>1445.8</ele>
        <time>2020-07-15T06:19:05Z</time>
      </trkpt>
      <trkpt lat="38.1968300" lon="-2.6655830">
        <ele>1446.0</ele>
        <time>2020-07-15T06:19:07Z</time>
      </trkpt>
      <trkpt lat="38.1969980" lon="-2.6653520">
        <ele>1446.2</ele>
        <time>2020-07-15T06:19:11Z</time>
      </trkpt>
      <trkpt lat="38.1972040" lon="-2.6651490">
        <ele>1446.6</ele>
        <time>2020-07-15T06:19:15Z</time>
      </trkpt>
      <trkpt lat="38.1973240" lon="-2.6651080">
        <ele>1446.6</ele>
        <time>2020-07-15T06:19:17Z</time>
      </trkpt>
      <trkpt lat="38.1975970" lon="-2.6651070">
        <ele>1446.2</ele>
        <time>2020-07-15T06:19:21Z</time>
      </trkpt>
      <trkpt lat="38.1978940" lon="-2.6650930">
        <ele>1445.2</ele>
        <time>2020-07-15T06:19:25Z</time>
      </trkpt>
      <trkpt lat="38.1979740" lon="-2.6650820">
        <ele>1444.8</ele>
        <time>2020-07-15T06:19:26Z</time>
      </trkpt>
      <trkpt lat="38.1982070" lon="-2.6650640">
        <ele>1444.2</ele>
        <time>2020-07-15T06:19:29Z</time>
      </trkpt>
      <trkpt lat="38.1984470" lon="-2.6650660">
        <ele>1443.0</ele>
        <time>2020-07-15T06:19:32Z</time>
      </trkpt>
      <trkpt lat="38.1986180" lon="-2.6650980">
        <ele>1442.6</ele>
        <time>2020-07-15T06:19:34Z</time>
      </trkpt>
      <trkpt lat="38.1986930" lon="-2.6651600">
        <ele>1442.2</ele>
        <time>2020-07-15T06:19:35Z</time>
      </trkpt>
      <trkpt lat="38.1987720" lon="-2.6652400">
        <ele>1442.0</ele>
        <time>2020-07-15T06:19:36Z</time>
      </trkpt>
      <trkpt lat="38.1988880" lon="-2.6654330">
        <ele>1441.4</ele>
        <time>2020-07-15T06:19:38Z</time>
      </trkpt>
      <trkpt lat="38.1989480" lon="-2.6655420">
        <ele>1440.6</ele>
        <time>2020-07-15T06:19:39Z</time>
      </trkpt>
      <trkpt lat="38.1990210" lon="-2.6656320">
        <ele>1440.0</ele>
        <time>2020-07-15T06:19:40Z</time>
      </trkpt>
      <trkpt lat="38.1991050" lon="-2.6656970">
        <ele>1439.6</ele>
        <time>2020-07-15T06:19:41Z</time>
      </trkpt>
      <trkpt lat="38.1992010" lon="-2.6657370">
        <ele>1439.0</ele>
        <time>2020-07-15T06:19:42Z</time>
      </trkpt>
      <trkpt lat="38.1992870" lon="-2.6657580">
        <ele>1438.4</ele>
        <time>2020-07-15T06:19:43Z</time>
      </trkpt>
      <trkpt lat="38.1993760" lon="-2.6657830">
        <ele>1438.2</ele>
        <time>2020-07-15T06:19:44Z</time>
      </trkpt>
      <trkpt lat="38.1995340" lon="-2.6658540">
        <ele>1438.0</ele>
        <time>2020-07-15T06:19:46Z</time>
      </trkpt>
      <trkpt lat="38.1996850" lon="-2.6659250">
        <ele>1438.0</ele>
        <time>2020-07-15T06:19:48Z</time>
      </trkpt>
      <trkpt lat="38.1998540" lon="-2.6659680">
        <ele>1438.0</ele>
        <time>2020-07-15T06:19:50Z</time>
      </trkpt>
      <trkpt lat="38.1999360" lon="-2.6659730">
        <ele>1438.2</ele>
        <time>2020-07-15T06:19:51Z</time>
      </trkpt>
      <trkpt lat="38.2002450" lon="-2.6659030">
        <ele>1437.8</ele>
        <time>2020-07-15T06:19:55Z</time>
      </trkpt>
      <trkpt lat="38.2004360" lon="-2.6658180">
        <ele>1437.8</ele>
        <time>2020-07-15T06:19:58Z</time>
      </trkpt>
      <trkpt lat="38.2005530" lon="-2.6657600">
        <ele>1438.0</ele>
        <time>2020-07-15T06:20:00Z</time>
      </trkpt>
      <trkpt lat="38.2007160" lon="-2.6657060">
        <ele>1438.4</ele>
        <time>2020-07-15T06:20:03Z</time>
      </trkpt>
      <trkpt lat="38.2008840" lon="-2.6656740">
        <ele>1438.8</ele>
        <time>2020-07-15T06:20:06Z</time>
      </trkpt>
      <trkpt lat="38.2011730" lon="-2.6656900">
        <ele>1438.6</ele>
        <time>2020-07-15T06:20:11Z</time>
      </trkpt>
      <trkpt lat="38.2012280" lon="-2.6657160">
        <ele>1438.4</ele>
        <time>2020-07-15T06:20:12Z</time>
      </trkpt>
      <trkpt lat="38.2014800" lon="-2.6657110">
        <ele>1438.2</ele>
        <time>2020-07-15T06:20:16Z</time>
      </trkpt>
      <trkpt lat="38.2017790" lon="-2.6655640">
        <ele>1437.4</ele>
        <time>2020-07-15T06:20:21Z</time>
      </trkpt>
      <trkpt lat="38.2018810" lon="-2.6654730">
        <ele>1437.0</ele>
        <time>2020-07-15T06:20:23Z</time>
      </trkpt>
      <trkpt lat="38.2019880" lon="-2.6653710">
        <ele>1436.8</ele>
        <time>2020-07-15T06:20:25Z</time>
      </trkpt>
      <trkpt lat="38.2020470" lon="-2.6653350">
        <ele>1436.8</ele>
        <time>2020-07-15T06:20:26Z</time>
      </trkpt>
      <trkpt lat="38.2023820" lon="-2.6651950">
        <ele>1436.4</ele>
        <time>2020-07-15T06:20:31Z</time>
      </trkpt>
      <trkpt lat="38.2024520" lon="-2.6651680">
        <ele>1436.4</ele>
        <time>2020-07-15T06:20:32Z</time>
      </trkpt>
      <trkpt lat="38.2026370" lon="-2.6650680">
        <ele>1436.2</ele>
        <time>2020-07-15T06:20:35Z</time>
      </trkpt>
      <trkpt lat="38.2027500" lon="-2.6649510">
        <ele>1436.2</ele>
        <time>2020-07-15T06:20:37Z</time>
      </trkpt>
      <trkpt lat="38.2028190" lon="-2.6648490">
        <ele>1436.4</ele>
        <time>2020-07-15T06:20:39Z</time>
      </trkpt>
      <trkpt lat="38.2028660" lon="-2.6647620">
        <ele>1437.0</ele>
        <time>2020-07-15T06:20:41Z</time>
      </trkpt>
      <trkpt lat="38.2028840" lon="-2.6647200">
        <ele>1437.4</ele>
        <time>2020-07-15T06:20:42Z</time>
      </trkpt>
      <trkpt lat="38.2029410" lon="-2.6645820">
        <ele>1438.6</ele>
        <time>2020-07-15T06:20:46Z</time>
      </trkpt>
      <trkpt lat="38.2029770" lon="-2.6644750">
        <ele>1439.2</ele>
        <time>2020-07-15T06:20:49Z</time>
      </trkpt>
      <trkpt lat="38.2029930" lon="-2.6644020">
        <ele>1439.6</ele>
        <time>2020-07-15T06:20:51Z</time>
      </trkpt>
      <trkpt lat="38.2030150" lon="-2.6643330">
        <ele>1440.0</ele>
        <time>2020-07-15T06:20:53Z</time>
      </trkpt>
      <trkpt lat="38.2030320" lon="-2.6642940">
        <ele>1440.2</ele>
        <time>2020-07-15T06:20:54Z</time>
      </trkpt>
      <trkpt lat="38.2030680" lon="-2.6641820">
        <ele>1440.6</ele>
        <time>2020-07-15T06:20:57Z</time>
      </trkpt>
      <trkpt lat="38.2030800" lon="-2.6641510">
        <ele>1440.8</ele>
        <time>2020-07-15T06:20:58Z</time>
      </trkpt>
      <trkpt lat="38.2031280" lon="-2.6640100">
        <ele>1441.6</ele>
        <time>2020-07-15T06:21:02Z</time>
      </trkpt>
      <trkpt lat="38.2031520" lon="-2.6639450">
        <ele>1442.0</ele>
        <time>2020-07-15T06:21:04Z</time>
      </trkpt>
      <trkpt lat="38.2031990" lon="-2.6638100">
        <ele>1443.0</ele>
        <time>2020-07-15T06:21:08Z</time>
      </trkpt>
      <trkpt lat="38.2032150" lon="-2.6637730">
        <ele>1443.4</ele>
        <time>2020-07-15T06:21:09Z</time>
      </trkpt>
      <trkpt lat="38.2032640" lon="-2.6636320">
        <ele>1444.2</ele>
        <time>2020-07-15T06:21:13Z</time>
      </trkpt>
      <trkpt lat="38.2033150" lon="-2.6635340">
        <ele>1444.8</ele>
        <time>2020-07-15T06:21:16Z</time>
      </trkpt>
      <trkpt lat="38.2033500" lon="-2.6634770">
        <ele>1445.2</ele>
        <time>2020-07-15T06:21:18Z</time>
      </trkpt>
      <trkpt lat="38.2034390" lon="-2.6633700">
        <ele>1446.2</ele>
        <time>2020-07-15T06:21:22Z</time>
      </trkpt>
      <trkpt lat="38.2034880" lon="-2.6633220">
        <ele>1446.6</ele>
        <time>2020-07-15T06:21:24Z</time>
      </trkpt>
      <trkpt lat="38.2035880" lon="-2.6632350">
        <ele>1447.4</ele>
        <time>2020-07-15T06:21:28Z</time>
      </trkpt>
      <trkpt lat="38.2036960" lon="-2.6631690">
        <ele>1448.2</ele>
        <time>2020-07-15T06:21:32Z</time>
      </trkpt>
      <trkpt lat="38.2037210" lon="-2.6631530">
        <ele>1448.6</ele>
        <time>2020-07-15T06:21:33Z</time>
      </trkpt>
      <trkpt lat="38.2038800" lon="-2.6630450">
        <ele>1449.6</ele>
        <time>2020-07-15T06:21:39Z</time>
      </trkpt>
      <trkpt lat="38.2039060" lon="-2.6630290">
        <ele>1449.8</ele>
        <time>2020-07-15T06:21:40Z</time>
      </trkpt>
      <trkpt lat="38.2041060" lon="-2.6629400">
        <ele>1450.8</ele>
        <time>2020-07-15T06:21:47Z</time>
      </trkpt>
      <trkpt lat="38.2041360" lon="-2.6629310">
        <ele>1451.0</ele>
        <time>2020-07-15T06:21:48Z</time>
      </trkpt>
      <trkpt lat="38.2044420" lon="-2.6628860">
        <ele>1451.8</ele>
        <time>2020-07-15T06:21:57Z</time>
      </trkpt>
      <trkpt lat="38.2044760" lon="-2.6628830">
        <ele>1451.8</ele>
        <time>2020-07-15T06:21:58Z</time>
      </trkpt>
      <trkpt lat="38.2047470" lon="-2.6628340">
        <ele>1452.2</ele>
        <time>2020-07-15T06:22:05Z</time>
      </trkpt>
      <trkpt lat="38.2050390" lon="-2.6628440">
        <ele>1452.4</ele>
        <time>2020-07-15T06:22:12Z</time>
      </trkpt>
      <trkpt lat="38.2051510" lon="-2.6629410">
        <ele>1452.6</ele>
        <time>2020-07-15T06:22:15Z</time>
      </trkpt>
      <trkpt lat="38.2051840" lon="-2.6629780">
        <ele>1452.6</ele>
        <time>2020-07-15T06:22:16Z</time>
      </trkpt>
      <trkpt lat="38.2053310" lon="-2.6631370">
        <ele>1452.6</ele>
        <time>2020-07-15T06:22:20Z</time>
      </trkpt>
      <trkpt lat="38.2053740" lon="-2.6631680">
        <ele>1452.6</ele>
        <time>2020-07-15T06:22:21Z</time>
      </trkpt>
      <trkpt lat="38.2054620" lon="-2.6631930">
        <ele>1452.6</ele>
        <time>2020-07-15T06:22:23Z</time>
      </trkpt>
      <trkpt lat="38.2055550" lon="-2.6631910">
        <ele>1453.0</ele>
        <time>2020-07-15T06:22:25Z</time>
      </trkpt>
      <trkpt lat="38.2056670" lon="-2.6631490">
        <ele>1453.6</ele>
        <time>2020-07-15T06:22:28Z</time>
      </trkpt>
      <trkpt lat="38.2057030" lon="-2.6631280">
        <ele>1453.8</ele>
        <time>2020-07-15T06:22:29Z</time>
      </trkpt>
      <trkpt lat="38.2057800" lon="-2.6630870">
        <ele>1454.0</ele>
        <time>2020-07-15T06:22:31Z</time>
      </trkpt>
      <trkpt lat="38.2059990" lon="-2.6629430">
        <ele>1455.0</ele>
        <time>2020-07-15T06:22:37Z</time>
      </trkpt>
      <trkpt lat="38.2062250" lon="-2.6627880">
        <ele>1456.0</ele>
        <time>2020-07-15T06:22:43Z</time>
      </trkpt>
      <trkpt lat="38.2062660" lon="-2.6627600">
        <ele>1456.2</ele>
        <time>2020-07-15T06:22:44Z</time>
      </trkpt>
      <trkpt lat="38.2063400" lon="-2.6627030">
        <ele>1456.2</ele>
        <time>2020-07-15T06:22:46Z</time>
      </trkpt>
      <trkpt lat="38.2065250" lon="-2.6625710">
        <ele>1457.2</ele>
        <time>2020-07-15T06:22:51Z</time>
      </trkpt>
      <trkpt lat="38.2066440" lon="-2.6624930">
        <ele>1457.4</ele>
        <time>2020-07-15T06:22:54Z</time>
      </trkpt>
      <trkpt lat="38.2068800" lon="-2.6623360">
        <ele>1457.8</ele>
        <time>2020-07-15T06:23:00Z</time>
      </trkpt>
      <trkpt lat="38.2069480" lon="-2.6622830">
        <ele>1457.6</ele>
        <time>2020-07-15T06:23:02Z</time>
      </trkpt>
      <trkpt lat="38.2070100" lon="-2.6622300">
        <ele>1457.6</ele>
        <time>2020-07-15T06:23:04Z</time>
      </trkpt>
      <trkpt lat="38.2070580" lon="-2.6621880">
        <ele>1457.6</ele>
        <time>2020-07-15T06:23:06Z</time>
      </trkpt>
      <trkpt lat="38.2071080" lon="-2.6621370">
        <ele>1457.6</ele>
        <time>2020-07-15T06:23:09Z</time>
      </trkpt>
      <trkpt lat="38.2071330" lon="-2.6621210">
        <ele>1457.6</ele>
        <time>2020-07-15T06:23:11Z</time>
      </trkpt>
      <trkpt lat="38.2071330" lon="-2.6621210">
        <ele>1457.6</ele>
        <time>2020-07-15T06:23:13Z</time>
      </trkpt>
      <trkpt lat="38.2071840" lon="-2.6620970">
        <ele>1457.6</ele>
        <time>2020-07-15T06:25:02Z</time>
      </trkpt>
      <trkpt lat="38.2071930" lon="-2.6620900">
        <ele>1457.6</ele>
        <time>2020-07-15T06:25:03Z</time>
      </trkpt>
      <trkpt lat="38.2072350" lon="-2.6620630">
        <ele>1457.6</ele>
        <time>2020-07-15T06:25:05Z</time>
      </trkpt>
      <trkpt lat="38.2073230" lon="-2.6620130">
        <ele>1457.6</ele>
        <time>2020-07-15T06:25:08Z</time>
      </trkpt>
      <trkpt lat="38.2074320" lon="-2.6619580">
        <ele>1457.8</ele>
        <time>2020-07-15T06:25:11Z</time>
      </trkpt>
      <trkpt lat="38.2075930" lon="-2.6618880">
        <ele>1457.8</ele>
        <time>2020-07-15T06:25:15Z</time>
      </trkpt>
      <trkpt lat="38.2078950" lon="-2.6618230">
        <ele>1457.8</ele>
        <time>2020-07-15T06:25:21Z</time>
      </trkpt>
      <trkpt lat="38.2082750" lon="-2.6617800">
        <ele>1457.0</ele>
        <time>2020-07-15T06:25:27Z</time>
      </trkpt>
      <trkpt lat="38.2083400" lon="-2.6617710">
        <ele>1456.6</ele>
        <time>2020-07-15T06:25:28Z</time>
      </trkpt>
      <trkpt lat="38.2084860" lon="-2.6617400">
        <ele>1456.0</ele>
        <time>2020-07-15T06:25:30Z</time>
      </trkpt>
      <trkpt lat="38.2088210" lon="-2.6616640">
        <ele>1455.4</ele>
        <time>2020-07-15T06:25:35Z</time>
      </trkpt>
      <trkpt lat="38.2091530" lon="-2.6615920">
        <ele>1455.0</ele>
        <time>2020-07-15T06:25:40Z</time>
      </trkpt>
      <trkpt lat="38.2094070" lon="-2.6615590">
        <ele>1454.8</ele>
        <time>2020-07-15T06:25:44Z</time>
      </trkpt>
      <trkpt lat="38.2098680" lon="-2.6615950">
        <ele>1454.8</ele>
        <time>2020-07-15T06:25:51Z</time>
      </trkpt>
      <trkpt lat="38.2102870" lon="-2.6616560">
        <ele>1454.0</ele>
        <time>2020-07-15T06:25:57Z</time>
      </trkpt>
      <trkpt lat="38.2105110" lon="-2.6616900">
        <ele>1453.6</ele>
        <time>2020-07-15T06:26:00Z</time>
      </trkpt>
      <trkpt lat="38.2106710" lon="-2.6616920">
        <ele>1453.4</ele>
        <time>2020-07-15T06:26:02Z</time>
      </trkpt>
      <trkpt lat="38.2108390" lon="-2.6616250">
        <ele>1452.6</ele>
        <time>2020-07-15T06:26:04Z</time>
      </trkpt>
      <trkpt lat="38.2110490" lon="-2.6614490">
        <ele>1451.6</ele>
        <time>2020-07-15T06:26:07Z</time>
      </trkpt>
      <trkpt lat="38.2111120" lon="-2.6613940">
        <ele>1451.2</ele>
        <time>2020-07-15T06:26:08Z</time>
      </trkpt>
      <trkpt lat="38.2116110" lon="-2.6610380">
        <ele>1450.8</ele>
        <time>2020-07-15T06:26:15Z</time>
      </trkpt>
      <trkpt lat="38.2120490" lon="-2.6607530">
        <ele>1451.2</ele>
        <time>2020-07-15T06:26:22Z</time>
      </trkpt>
      <trkpt lat="38.2122130" lon="-2.6606460">
        <ele>1451.8</ele>
        <time>2020-07-15T06:26:25Z</time>
      </trkpt>
      <trkpt lat="38.2123790" lon="-2.6605450">
        <ele>1452.0</ele>
        <time>2020-07-15T06:26:28Z</time>
      </trkpt>
      <trkpt lat="38.2124250" lon="-2.6605010">
        <ele>1452.2</ele>
        <time>2020-07-15T06:26:29Z</time>
      </trkpt>
      <trkpt lat="38.2125450" lon="-2.6603460">
        <ele>1452.6</ele>
        <time>2020-07-15T06:26:32Z</time>
      </trkpt>
      <trkpt lat="38.2125710" lon="-2.6602930">
        <ele>1452.8</ele>
        <time>2020-07-15T06:26:33Z</time>
      </trkpt>
      <trkpt lat="38.2125940" lon="-2.6602300">
        <ele>1452.8</ele>
        <time>2020-07-15T06:26:34Z</time>
      </trkpt>
      <trkpt lat="38.2126150" lon="-2.6601190">
        <ele>1453.2</ele>
        <time>2020-07-15T06:26:36Z</time>
      </trkpt>
      <trkpt lat="38.2126270" lon="-2.6600480">
        <ele>1453.4</ele>
        <time>2020-07-15T06:26:37Z</time>
      </trkpt>
      <trkpt lat="38.2126280" lon="-2.6599930">
        <ele>1453.6</ele>
        <time>2020-07-15T06:26:38Z</time>
      </trkpt>
      <trkpt lat="38.2126290" lon="-2.6599350">
        <ele>1453.8</ele>
        <time>2020-07-15T06:26:39Z</time>
      </trkpt>
      <trkpt lat="38.2126310" lon="-2.6598300">
        <ele>1454.4</ele>
        <time>2020-07-15T06:26:41Z</time>
      </trkpt>
      <trkpt lat="38.2126290" lon="-2.6597230">
        <ele>1454.8</ele>
        <time>2020-07-15T06:26:43Z</time>
      </trkpt>
      <trkpt lat="38.2126230" lon="-2.6596650">
        <ele>1455.2</ele>
        <time>2020-07-15T06:26:44Z</time>
      </trkpt>
      <trkpt lat="38.2126070" lon="-2.6595410">
        <ele>1455.8</ele>
        <time>2020-07-15T06:26:46Z</time>
      </trkpt>
      <trkpt lat="38.2126110" lon="-2.6594940">
        <ele>1456.0</ele>
        <time>2020-07-15T06:26:47Z</time>
      </trkpt>
      <trkpt lat="38.2126040" lon="-2.6594290">
        <ele>1456.4</ele>
        <time>2020-07-15T06:26:48Z</time>
      </trkpt>
      <trkpt lat="38.2125860" lon="-2.6593010">
        <ele>1456.6</ele>
        <time>2020-07-15T06:26:50Z</time>
      </trkpt>
      <trkpt lat="38.2125200" lon="-2.6588010">
        <ele>1456.6</ele>
        <time>2020-07-15T06:26:57Z</time>
      </trkpt>
      <trkpt lat="38.2125230" lon="-2.6587210">
        <ele>1456.4</ele>
        <time>2020-07-15T06:26:58Z</time>
      </trkpt>
      <trkpt lat="38.2125820" lon="-2.6584890">
        <ele>1456.0</ele>
        <time>2020-07-15T06:27:01Z</time>
      </trkpt>
      <trkpt lat="38.2127550" lon="-2.6582780">
        <ele>1455.6</ele>
        <time>2020-07-15T06:27:05Z</time>
      </trkpt>
      <trkpt lat="38.2128550" lon="-2.6581980">
        <ele>1455.6</ele>
        <time>2020-07-15T06:27:07Z</time>
      </trkpt>
      <trkpt lat="38.2130470" lon="-2.6580610">
        <ele>1455.6</ele>
        <time>2020-07-15T06:27:11Z</time>
      </trkpt>
      <trkpt lat="38.2133770" lon="-2.6578750">
        <ele>1456.4</ele>
        <time>2020-07-15T06:27:18Z</time>
      </trkpt>
      <trkpt lat="38.2136740" lon="-2.6577460">
        <ele>1457.4</ele>
        <time>2020-07-15T06:27:25Z</time>
      </trkpt>
      <trkpt lat="38.2137110" lon="-2.6577250">
        <ele>1457.4</ele>
        <time>2020-07-15T06:27:26Z</time>
      </trkpt>
      <trkpt lat="38.2138650" lon="-2.6576360">
        <ele>1458.4</ele>
        <time>2020-07-15T06:27:30Z</time>
      </trkpt>
      <trkpt lat="38.2139030" lon="-2.6576050">
        <ele>1458.6</ele>
        <time>2020-07-15T06:27:31Z</time>
      </trkpt>
      <trkpt lat="38.2140100" lon="-2.6575120">
        <ele>1459.0</ele>
        <time>2020-07-15T06:27:34Z</time>
      </trkpt>
      <trkpt lat="38.2140860" lon="-2.6574450">
        <ele>1459.4</ele>
        <time>2020-07-15T06:27:36Z</time>
      </trkpt>
      <trkpt lat="38.2141970" lon="-2.6573360">
        <ele>1459.8</ele>
        <time>2020-07-15T06:27:39Z</time>
      </trkpt>
      <trkpt lat="38.2143430" lon="-2.6571980">
        <ele>1460.2</ele>
        <time>2020-07-15T06:27:43Z</time>
      </trkpt>
      <trkpt lat="38.2145040" lon="-2.6570420">
        <ele>1460.6</ele>
        <time>2020-07-15T06:27:48Z</time>
      </trkpt>
      <trkpt lat="38.2145350" lon="-2.6570150">
        <ele>1460.8</ele>
        <time>2020-07-15T06:27:49Z</time>
      </trkpt>
      <trkpt lat="38.2146880" lon="-2.6568780">
        <ele>1462.0</ele>
        <time>2020-07-15T06:27:55Z</time>
      </trkpt>
      <trkpt lat="38.2147750" lon="-2.6567870">
        <ele>1463.2</ele>
        <time>2020-07-15T06:27:59Z</time>
      </trkpt>
      <trkpt lat="38.2148910" lon="-2.6566770">
        <ele>1464.4</ele>
        <time>2020-07-15T06:28:04Z</time>
      </trkpt>
      <trkpt lat="38.2150280" lon="-2.6565350">
        <ele>1465.4</ele>
        <time>2020-07-15T06:28:10Z</time>
      </trkpt>
      <trkpt lat="38.2150490" lon="-2.6565150">
        <ele>1465.6</ele>
        <time>2020-07-15T06:28:11Z</time>
      </trkpt>
      <trkpt lat="38.2151400" lon="-2.6564340">
        <ele>1466.6</ele>
        <time>2020-07-15T06:28:15Z</time>
      </trkpt>
      <trkpt lat="38.2152280" lon="-2.6563560">
        <ele>1467.6</ele>
        <time>2020-07-15T06:28:19Z</time>
      </trkpt>
      <trkpt lat="38.2152460" lon="-2.6563320">
        <ele>1467.8</ele>
        <time>2020-07-15T06:28:20Z</time>
      </trkpt>
      <trkpt lat="38.2153710" lon="-2.6562210">
        <ele>1468.8</ele>
        <time>2020-07-15T06:28:26Z</time>
      </trkpt>
      <trkpt lat="38.2155110" lon="-2.6560800">
        <ele>1469.8</ele>
        <time>2020-07-15T06:28:33Z</time>
      </trkpt>
      <trkpt lat="38.2155840" lon="-2.6559870">
        <ele>1470.8</ele>
        <time>2020-07-15T06:28:37Z</time>
      </trkpt>
      <trkpt lat="38.2155840" lon="-2.6559870">
        <ele>1471.6</ele>
        <time>2020-07-15T06:28:41Z</time>
      </trkpt>
      <trkpt lat="38.2157140" lon="-2.6558150">
        <ele>1472.0</ele>
        <time>2020-07-15T06:28:44Z</time>
      </trkpt>
      <trkpt lat="38.2157310" lon="-2.6557900">
        <ele>1472.4</ele>
        <time>2020-07-15T06:28:45Z</time>
      </trkpt>
      <trkpt lat="38.2157830" lon="-2.6557070">
        <ele>1473.2</ele>
        <time>2020-07-15T06:28:48Z</time>
      </trkpt>
      <trkpt lat="38.2158840" lon="-2.6555440">
        <ele>1474.4</ele>
        <time>2020-07-15T06:28:54Z</time>
      </trkpt>
      <trkpt lat="38.2159680" lon="-2.6553970">
        <ele>1475.4</ele>
        <time>2020-07-15T06:28:59Z</time>
      </trkpt>
      <trkpt lat="38.2160020" lon="-2.6553340">
        <ele>1476.0</ele>
        <time>2020-07-15T06:29:01Z</time>
      </trkpt>
      <trkpt lat="38.2160330" lon="-2.6552740">
        <ele>1476.4</ele>
        <time>2020-07-15T06:29:03Z</time>
      </trkpt>
      <trkpt lat="38.2161030" lon="-2.6551180">
        <ele>1477.4</ele>
        <time>2020-07-15T06:29:08Z</time>
      </trkpt>
      <trkpt lat="38.2161270" lon="-2.6550490">
        <ele>1477.8</ele>
        <time>2020-07-15T06:29:10Z</time>
      </trkpt>
      <trkpt lat="38.2161980" lon="-2.6548320">
        <ele>1478.6</ele>
        <time>2020-07-15T06:29:16Z</time>
      </trkpt>
      <trkpt lat="38.2162420" lon="-2.6546710">
        <ele>1478.8</ele>
        <time>2020-07-15T06:29:20Z</time>
      </trkpt>
      <trkpt lat="38.2163260" lon="-2.6543600">
        <ele>1479.0</ele>
        <time>2020-07-15T06:29:27Z</time>
      </trkpt>
      <trkpt lat="38.2163900" lon="-2.6541330">
        <ele>1479.4</ele>
        <time>2020-07-15T06:29:32Z</time>
      </trkpt>
      <trkpt lat="38.2164230" lon="-2.6539990">
        <ele>1479.6</ele>
        <time>2020-07-15T06:29:35Z</time>
      </trkpt>
      <trkpt lat="38.2164380" lon="-2.6539510">
        <ele>1479.6</ele>
        <time>2020-07-15T06:29:36Z</time>
      </trkpt>
      <trkpt lat="38.2165050" lon="-2.6537280">
        <ele>1480.0</ele>
        <time>2020-07-15T06:29:41Z</time>
      </trkpt>
      <trkpt lat="38.2165520" lon="-2.6535940">
        <ele>1480.4</ele>
        <time>2020-07-15T06:29:44Z</time>
      </trkpt>
      <trkpt lat="38.2165830" lon="-2.6535110">
        <ele>1480.6</ele>
        <time>2020-07-15T06:29:46Z</time>
      </trkpt>
      <trkpt lat="38.2166950" lon="-2.6533160">
        <ele>1481.2</ele>
        <time>2020-07-15T06:29:51Z</time>
      </trkpt>
      <trkpt lat="38.2167760" lon="-2.6532140">
        <ele>1481.6</ele>
        <time>2020-07-15T06:29:54Z</time>
      </trkpt>
      <trkpt lat="38.2168650" lon="-2.6531310">
        <ele>1482.0</ele>
        <time>2020-07-15T06:29:57Z</time>
      </trkpt>
      <trkpt lat="38.2170710" lon="-2.6530440">
        <ele>1482.8</ele>
        <time>2020-07-15T06:30:03Z</time>
      </trkpt>
      <trkpt lat="38.2172510" lon="-2.6530320">
        <ele>1484.0</ele>
        <time>2020-07-15T06:30:08Z</time>
      </trkpt>
      <trkpt lat="38.2173490" lon="-2.6530520">
        <ele>1484.4</ele>
        <time>2020-07-15T06:30:11Z</time>
      </trkpt>
      <trkpt lat="38.2174670" lon="-2.6530880">
        <ele>1485.2</ele>
        <time>2020-07-15T06:30:15Z</time>
      </trkpt>
      <trkpt lat="38.2175770" lon="-2.6531470">
        <ele>1486.2</ele>
        <time>2020-07-15T06:30:19Z</time>
      </trkpt>
      <trkpt lat="38.2176020" lon="-2.6531650">
        <ele>1486.4</ele>
        <time>2020-07-15T06:30:20Z</time>
      </trkpt>
      <trkpt lat="38.2177110" lon="-2.6532890">
        <ele>1487.6</ele>
        <time>2020-07-15T06:30:25Z</time>
      </trkpt>
      <trkpt lat="38.2177280" lon="-2.6533220">
        <ele>1488.0</ele>
        <time>2020-07-15T06:30:26Z</time>
      </trkpt>
      <trkpt lat="38.2177730" lon="-2.6534130">
        <ele>1488.8</ele>
        <time>2020-07-15T06:30:29Z</time>
      </trkpt>
      <trkpt lat="38.2178240" lon="-2.6535370">
        <ele>1489.8</ele>
        <time>2020-07-15T06:30:33Z</time>
      </trkpt>
      <trkpt lat="38.2178320" lon="-2.6535660">
        <ele>1490.0</ele>
        <time>2020-07-15T06:30:34Z</time>
      </trkpt>
      <trkpt lat="38.2178510" lon="-2.6536240">
        <ele>1490.4</ele>
        <time>2020-07-15T06:30:36Z</time>
      </trkpt>
      <trkpt lat="38.2178740" lon="-2.6536490">
        <ele>1490.8</ele>
        <time>2020-07-15T06:30:37Z</time>
      </trkpt>
      <trkpt lat="38.2179240" lon="-2.6536880">
        <ele>1491.2</ele>
        <time>2020-07-15T06:30:39Z</time>
      </trkpt>
      <trkpt lat="38.2180120" lon="-2.6537110">
        <ele>1491.8</ele>
        <time>2020-07-15T06:30:42Z</time>
      </trkpt>
      <trkpt lat="38.2181030" lon="-2.6536880">
        <ele>1492.4</ele>
        <time>2020-07-15T06:30:45Z</time>
      </trkpt>
      <trkpt lat="38.2181380" lon="-2.6536760">
        <ele>1492.6</ele>
        <time>2020-07-15T06:30:46Z</time>
      </trkpt>
      <trkpt lat="38.2181700" lon="-2.6536590">
        <ele>1492.8</ele>
        <time>2020-07-15T06:30:47Z</time>
      </trkpt>
      <trkpt lat="38.2183600" lon="-2.6535170">
        <ele>1493.0</ele>
        <time>2020-07-15T06:30:52Z</time>
      </trkpt>
      <trkpt lat="38.2184000" lon="-2.6534840">
        <ele>1493.0</ele>
        <time>2020-07-15T06:30:53Z</time>
      </trkpt>
      <trkpt lat="38.2186020" lon="-2.6532980">
        <ele>1492.2</ele>
        <time>2020-07-15T06:30:57Z</time>
      </trkpt>
      <trkpt lat="38.2186600" lon="-2.6532340">
        <ele>1491.6</ele>
        <time>2020-07-15T06:31:00Z</time>
      </trkpt>
      <trkpt lat="38.2187180" lon="-2.6531700">
        <ele>1491.2</ele>
        <time>2020-07-15T06:31:01Z</time>
      </trkpt>
      <trkpt lat="38.2189500" lon="-2.6529150">
        <ele>1490.6</ele>
        <time>2020-07-15T06:31:03Z</time>
      </trkpt>
      <trkpt lat="38.2190090" lon="-2.6528210">
        <ele>1490.2</ele>
        <time>2020-07-15T06:31:04Z</time>
      </trkpt>
      <trkpt lat="38.2191270" lon="-2.6526360">
        <ele>1489.6</ele>
        <time>2020-07-15T06:31:06Z</time>
      </trkpt>
      <trkpt lat="38.2191920" lon="-2.6525500">
        <ele>1489.2</ele>
        <time>2020-07-15T06:31:07Z</time>
      </trkpt>
      <trkpt lat="38.2192650" lon="-2.6524800">
        <ele>1488.8</ele>
        <time>2020-07-15T06:31:08Z</time>
      </trkpt>
      <trkpt lat="38.2194540" lon="-2.6523620">
        <ele>1487.6</ele>
        <time>2020-07-15T06:31:10Z</time>
      </trkpt>
      <trkpt lat="38.2195440" lon="-2.6523520">
        <ele>1486.8</ele>
        <time>2020-07-15T06:31:11Z</time>
      </trkpt>
      <trkpt lat="38.2196340" lon="-2.6523710">
        <ele>1486.0</ele>
        <time>2020-07-15T06:31:12Z</time>
      </trkpt>
      <trkpt lat="38.2197120" lon="-2.6524200">
        <ele>1485.2</ele>
        <time>2020-07-15T06:31:13Z</time>
      </trkpt>
      <trkpt lat="38.2197850" lon="-2.6524900">
        <ele>1484.6</ele>
        <time>2020-07-15T06:31:14Z</time>
      </trkpt>
      <trkpt lat="38.2198570" lon="-2.6525480">
        <ele>1484.0</ele>
        <time>2020-07-15T06:31:15Z</time>
      </trkpt>
      <trkpt lat="38.2199390" lon="-2.6525960">
        <ele>1483.6</ele>
        <time>2020-07-15T06:31:16Z</time>
      </trkpt>
      <trkpt lat="38.2200230" lon="-2.6526240">
        <ele>1483.4</ele>
        <time>2020-07-15T06:31:17Z</time>
      </trkpt>
      <trkpt lat="38.2202110" lon="-2.6526370">
        <ele>1482.8</ele>
        <time>2020-07-15T06:31:19Z</time>
      </trkpt>
      <trkpt lat="38.2203000" lon="-2.6526390">
        <ele>1482.6</ele>
        <time>2020-07-15T06:31:20Z</time>
      </trkpt>
      <trkpt lat="38.2203850" lon="-2.6526420">
        <ele>1482.2</ele>
        <time>2020-07-15T06:31:21Z</time>
      </trkpt>
      <trkpt lat="38.2204650" lon="-2.6526410">
        <ele>1481.8</ele>
        <time>2020-07-15T06:31:22Z</time>
      </trkpt>
      <trkpt lat="38.2207160" lon="-2.6526390">
        <ele>1480.8</ele>
        <time>2020-07-15T06:31:25Z</time>
      </trkpt>
      <trkpt lat="38.2208010" lon="-2.6526230">
        <ele>1480.4</ele>
        <time>2020-07-15T06:31:26Z</time>
      </trkpt>
      <trkpt lat="38.2209580" lon="-2.6525580">
        <ele>1479.8</ele>
        <time>2020-07-15T06:31:28Z</time>
      </trkpt>
      <trkpt lat="38.2210410" lon="-2.6525220">
        <ele>1479.4</ele>
        <time>2020-07-15T06:31:29Z</time>
      </trkpt>
      <trkpt lat="38.2211270" lon="-2.6525010">
        <ele>1479.2</ele>
        <time>2020-07-15T06:31:30Z</time>
      </trkpt>
      <trkpt lat="38.2212960" lon="-2.6525280">
        <ele>1478.4</ele>
        <time>2020-07-15T06:31:32Z</time>
      </trkpt>
      <trkpt lat="38.2214530" lon="-2.6526130">
        <ele>1478.0</ele>
        <time>2020-07-15T06:31:34Z</time>
      </trkpt>
      <trkpt lat="38.2215320" lon="-2.6526410">
        <ele>1477.8</ele>
        <time>2020-07-15T06:31:35Z</time>
      </trkpt>
      <trkpt lat="38.2216270" lon="-2.6526520">
        <ele>1477.4</ele>
        <time>2020-07-15T06:31:36Z</time>
      </trkpt>
      <trkpt lat="38.2219120" lon="-2.6525820">
        <ele>1476.4</ele>
        <time>2020-07-15T06:31:39Z</time>
      </trkpt>
      <trkpt lat="38.2220070" lon="-2.6525480">
        <ele>1475.8</ele>
        <time>2020-07-15T06:31:40Z</time>
      </trkpt>
      <trkpt lat="38.2221090" lon="-2.6525110">
        <ele>1475.2</ele>
        <time>2020-07-15T06:31:41Z</time>
      </trkpt>
      <trkpt lat="38.2223150" lon="-2.6524540">
        <ele>1474.0</ele>
        <time>2020-07-15T06:31:43Z</time>
      </trkpt>
      <trkpt lat="38.2224320" lon="-2.6524220">
        <ele>1473.6</ele>
        <time>2020-07-15T06:31:44Z</time>
      </trkpt>
      <trkpt lat="38.2226590" lon="-2.6523680">
        <ele>1472.4</ele>
        <time>2020-07-15T06:31:46Z</time>
      </trkpt>
      <trkpt lat="38.2230170" lon="-2.6522900">
        <ele>1471.0</ele>
        <time>2020-07-15T06:31:49Z</time>
      </trkpt>
      <trkpt lat="38.2231360" lon="-2.6522650">
        <ele>1470.4</ele>
        <time>2020-07-15T06:31:50Z</time>
      </trkpt>
      <trkpt lat="38.2232610" lon="-2.6522360">
        <ele>1469.8</ele>
        <time>2020-07-15T06:31:51Z</time>
      </trkpt>
      <trkpt lat="38.2234890" lon="-2.6521830">
        <ele>1468.0</ele>
        <time>2020-07-15T06:31:53Z</time>
      </trkpt>
      <trkpt lat="38.2237580" lon="-2.6521270">
        <ele>1465.6</ele>
        <time>2020-07-15T06:31:55Z</time>
      </trkpt>
      <trkpt lat="38.2240200" lon="-2.6520850">
        <ele>1464.0</ele>
        <time>2020-07-15T06:31:57Z</time>
      </trkpt>
      <trkpt lat="38.2241310" lon="-2.6520830">
        <ele>1462.8</ele>
        <time>2020-07-15T06:31:58Z</time>
      </trkpt>
      <trkpt lat="38.2242550" lon="-2.6521040">
        <ele>1462.0</ele>
        <time>2020-07-15T06:31:59Z</time>
      </trkpt>
      <trkpt lat="38.2243940" lon="-2.6521580">
        <ele>1461.0</ele>
        <time>2020-07-15T06:32:00Z</time>
      </trkpt>
      <trkpt lat="38.2246380" lon="-2.6522740">
        <ele>1459.0</ele>
        <time>2020-07-15T06:32:02Z</time>
      </trkpt>
      <trkpt lat="38.2248870" lon="-2.6523690">
        <ele>1457.0</ele>
        <time>2020-07-15T06:32:04Z</time>
      </trkpt>
      <trkpt lat="38.2249920" lon="-2.6524060">
        <ele>1456.0</ele>
        <time>2020-07-15T06:32:05Z</time>
      </trkpt>
      <trkpt lat="38.2252370" lon="-2.6524950">
        <ele>1454.6</ele>
        <time>2020-07-15T06:32:07Z</time>
      </trkpt>
      <trkpt lat="38.2255380" lon="-2.6525980">
        <ele>1453.2</ele>
        <time>2020-07-15T06:32:10Z</time>
      </trkpt>
      <trkpt lat="38.2256140" lon="-2.6526110">
        <ele>1452.6</ele>
        <time>2020-07-15T06:32:11Z</time>
      </trkpt>
      <trkpt lat="38.2257760" lon="-2.6525720">
        <ele>1451.6</ele>
        <time>2020-07-15T06:32:13Z</time>
      </trkpt>
      <trkpt lat="38.2259320" lon="-2.6524410">
        <ele>1450.2</ele>
        <time>2020-07-15T06:32:15Z</time>
      </trkpt>
      <trkpt lat="38.2260160" lon="-2.6523470">
        <ele>1449.2</ele>
        <time>2020-07-15T06:32:16Z</time>
      </trkpt>
      <trkpt lat="38.2260940" lon="-2.6522750">
        <ele>1448.6</ele>
        <time>2020-07-15T06:32:17Z</time>
      </trkpt>
      <trkpt lat="38.2261820" lon="-2.6522010">
        <ele>1448.0</ele>
        <time>2020-07-15T06:32:18Z</time>
      </trkpt>
      <trkpt lat="38.2262810" lon="-2.6521260">
        <ele>1447.4</ele>
        <time>2020-07-15T06:32:19Z</time>
      </trkpt>
      <trkpt lat="38.2263760" lon="-2.6520640">
        <ele>1446.6</ele>
        <time>2020-07-15T06:32:20Z</time>
      </trkpt>
      <trkpt lat="38.2264750" lon="-2.6520050">
        <ele>1446.0</ele>
        <time>2020-07-15T06:32:21Z</time>
      </trkpt>
      <trkpt lat="38.2266550" lon="-2.6518920">
        <ele>1444.8</ele>
        <time>2020-07-15T06:32:23Z</time>
      </trkpt>
      <trkpt lat="38.2268670" lon="-2.6517560">
        <ele>1443.6</ele>
        <time>2020-07-15T06:32:25Z</time>
      </trkpt>
      <trkpt lat="38.2270820" lon="-2.6516210">
        <ele>1442.6</ele>
        <time>2020-07-15T06:32:27Z</time>
      </trkpt>
      <trkpt lat="38.2272720" lon="-2.6514980">
        <ele>1441.2</ele>
        <time>2020-07-15T06:32:29Z</time>
      </trkpt>
      <trkpt lat="38.2274940" lon="-2.6513570">
        <ele>1439.8</ele>
        <time>2020-07-15T06:32:31Z</time>
      </trkpt>
      <trkpt lat="38.2275940" lon="-2.6512990">
        <ele>1439.2</ele>
        <time>2020-07-15T06:32:32Z</time>
      </trkpt>
      <trkpt lat="38.2276920" lon="-2.6512680">
        <ele>1438.4</ele>
        <time>2020-07-15T06:32:33Z</time>
      </trkpt>
      <trkpt lat="38.2279060" lon="-2.6512300">
        <ele>1437.0</ele>
        <time>2020-07-15T06:32:35Z</time>
      </trkpt>
      <trkpt lat="38.2281220" lon="-2.6512490">
        <ele>1436.0</ele>
        <time>2020-07-15T06:32:37Z</time>
      </trkpt>
      <trkpt lat="38.2281930" lon="-2.6512730">
        <ele>1435.8</ele>
        <time>2020-07-15T06:32:38Z</time>
      </trkpt>
      <trkpt lat="38.2283070" lon="-2.6513110">
        <ele>1435.4</ele>
        <time>2020-07-15T06:32:39Z</time>
      </trkpt>
      <trkpt lat="38.2285560" lon="-2.6514120">
        <ele>1435.6</ele>
        <time>2020-07-15T06:32:42Z</time>
      </trkpt>
      <trkpt lat="38.2288380" lon="-2.6515260">
        <ele>1436.6</ele>
        <time>2020-07-15T06:32:46Z</time>
      </trkpt>
      <trkpt lat="38.2289030" lon="-2.6515540">
        <ele>1436.8</ele>
        <time>2020-07-15T06:32:47Z</time>
      </trkpt>
      <trkpt lat="38.2289660" lon="-2.6515820">
        <ele>1437.2</ele>
        <time>2020-07-15T06:32:48Z</time>
      </trkpt>
      <trkpt lat="38.2291660" lon="-2.6516720">
        <ele>1437.8</ele>
        <time>2020-07-15T06:32:51Z</time>
      </trkpt>
      <trkpt lat="38.2292970" lon="-2.6517260">
        <ele>1438.0</ele>
        <time>2020-07-15T06:32:53Z</time>
      </trkpt>
      <trkpt lat="38.2293840" lon="-2.6517600">
        <ele>1438.0</ele>
        <time>2020-07-15T06:32:54Z</time>
      </trkpt>
      <trkpt lat="38.2298030" lon="-2.6519510">
        <ele>1436.2</ele>
        <time>2020-07-15T06:32:59Z</time>
      </trkpt>
      <trkpt lat="38.2298920" lon="-2.6519970">
        <ele>1435.6</ele>
        <time>2020-07-15T06:33:00Z</time>
      </trkpt>
      <trkpt lat="38.2300530" lon="-2.6521260">
        <ele>1434.4</ele>
        <time>2020-07-15T06:33:02Z</time>
      </trkpt>
      <trkpt lat="38.2301010" lon="-2.6522100">
        <ele>1433.8</ele>
        <time>2020-07-15T06:33:03Z</time>
      </trkpt>
      <trkpt lat="38.2301490" lon="-2.6523200">
        <ele>1433.0</ele>
        <time>2020-07-15T06:33:04Z</time>
      </trkpt>
      <trkpt lat="38.2301980" lon="-2.6525660">
        <ele>1431.6</ele>
        <time>2020-07-15T06:33:06Z</time>
      </trkpt>
      <trkpt lat="38.2302200" lon="-2.6526960">
        <ele>1431.0</ele>
        <time>2020-07-15T06:33:07Z</time>
      </trkpt>
      <trkpt lat="38.2302450" lon="-2.6528260">
        <ele>1430.2</ele>
        <time>2020-07-15T06:33:08Z</time>
      </trkpt>
      <trkpt lat="38.2303120" lon="-2.6530860">
        <ele>1428.6</ele>
        <time>2020-07-15T06:33:10Z</time>
      </trkpt>
      <trkpt lat="38.2303600" lon="-2.6532020">
        <ele>1427.8</ele>
        <time>2020-07-15T06:33:11Z</time>
      </trkpt>
      <trkpt lat="38.2304140" lon="-2.6533220">
        <ele>1427.0</ele>
        <time>2020-07-15T06:33:12Z</time>
      </trkpt>
      <trkpt lat="38.2304830" lon="-2.6534190">
        <ele>1426.2</ele>
        <time>2020-07-15T06:33:13Z</time>
      </trkpt>
      <trkpt lat="38.2305640" lon="-2.6535110">
        <ele>1425.6</ele>
        <time>2020-07-15T06:33:14Z</time>
      </trkpt>
      <trkpt lat="38.2307430" lon="-2.6536600">
        <ele>1424.0</ele>
        <time>2020-07-15T06:33:16Z</time>
      </trkpt>
      <trkpt lat="38.2308360" lon="-2.6537220">
        <ele>1423.4</ele>
        <time>2020-07-15T06:33:17Z</time>
      </trkpt>
      <trkpt lat="38.2309340" lon="-2.6537910">
        <ele>1422.8</ele>
        <time>2020-07-15T06:33:18Z</time>
      </trkpt>
      <trkpt lat="38.2311140" lon="-2.6539260">
        <ele>1421.6</ele>
        <time>2020-07-15T06:33:20Z</time>
      </trkpt>
      <trkpt lat="38.2312840" lon="-2.6540780">
        <ele>1419.8</ele>
        <time>2020-07-15T06:33:22Z</time>
      </trkpt>
      <trkpt lat="38.2314110" lon="-2.6543180">
        <ele>1417.8</ele>
        <time>2020-07-15T06:33:24Z</time>
      </trkpt>
      <trkpt lat="38.2314410" lon="-2.6544220">
        <ele>1416.8</ele>
        <time>2020-07-15T06:33:25Z</time>
      </trkpt>
      <trkpt lat="38.2314920" lon="-2.6545760">
        <ele>1415.6</ele>
        <time>2020-07-15T06:33:26Z</time>
      </trkpt>
      <trkpt lat="38.2315790" lon="-2.6548160">
        <ele>1413.6</ele>
        <time>2020-07-15T06:33:28Z</time>
      </trkpt>
      <trkpt lat="38.2316410" lon="-2.6549160">
        <ele>1412.8</ele>
        <time>2020-07-15T06:33:29Z</time>
      </trkpt>
      <trkpt lat="38.2317080" lon="-2.6549920">
        <ele>1412.0</ele>
        <time>2020-07-15T06:33:30Z</time>
      </trkpt>
      <trkpt lat="38.2319010" lon="-2.6550410">
        <ele>1410.2</ele>
        <time>2020-07-15T06:33:32Z</time>
      </trkpt>
      <trkpt lat="38.2321040" lon="-2.6549860">
        <ele>1408.4</ele>
        <time>2020-07-15T06:33:34Z</time>
      </trkpt>
      <trkpt lat="38.2321930" lon="-2.6549590">
        <ele>1407.8</ele>
        <time>2020-07-15T06:33:35Z</time>
      </trkpt>
      <trkpt lat="38.2322950" lon="-2.6549320">
        <ele>1407.4</ele>
        <time>2020-07-15T06:33:36Z</time>
      </trkpt>
      <trkpt lat="38.2325890" lon="-2.6548510">
        <ele>1406.2</ele>
        <time>2020-07-15T06:33:39Z</time>
      </trkpt>
      <trkpt lat="38.2327940" lon="-2.6547890">
        <ele>1405.2</ele>
        <time>2020-07-15T06:33:41Z</time>
      </trkpt>
      <trkpt lat="38.2329160" lon="-2.6547520">
        <ele>1404.6</ele>
        <time>2020-07-15T06:33:42Z</time>
      </trkpt>
      <trkpt lat="38.2331440" lon="-2.6546820">
        <ele>1403.2</ele>
        <time>2020-07-15T06:33:44Z</time>
      </trkpt>
      <trkpt lat="38.2333870" lon="-2.6546070">
        <ele>1401.4</ele>
        <time>2020-07-15T06:33:46Z</time>
      </trkpt>
      <trkpt lat="38.2336170" lon="-2.6545340">
        <ele>1399.6</ele>
        <time>2020-07-15T06:33:48Z</time>
      </trkpt>
      <trkpt lat="38.2338520" lon="-2.6544740">
        <ele>1397.8</ele>
        <time>2020-07-15T06:33:50Z</time>
      </trkpt>
      <trkpt lat="38.2339700" lon="-2.6544470">
        <ele>1397.2</ele>
        <time>2020-07-15T06:33:51Z</time>
      </trkpt>
      <trkpt lat="38.2340700" lon="-2.6544170">
        <ele>1396.6</ele>
        <time>2020-07-15T06:33:52Z</time>
      </trkpt>
      <trkpt lat="38.2343670" lon="-2.6543230">
        <ele>1395.6</ele>
        <time>2020-07-15T06:33:55Z</time>
      </trkpt>
      <trkpt lat="38.2344670" lon="-2.6543010">
        <ele>1395.4</ele>
        <time>2020-07-15T06:33:56Z</time>
      </trkpt>
      <trkpt lat="38.2346350" lon="-2.6542710">
        <ele>1395.4</ele>
        <time>2020-07-15T06:33:58Z</time>
      </trkpt>
      <trkpt lat="38.2348250" lon="-2.6542610">
        <ele>1395.2</ele>
        <time>2020-07-15T06:34:00Z</time>
      </trkpt>
      <trkpt lat="38.2350960" lon="-2.6542960">
        <ele>1395.0</ele>
        <time>2020-07-15T06:34:03Z</time>
      </trkpt>
      <trkpt lat="38.2351990" lon="-2.6543130">
        <ele>1394.8</ele>
        <time>2020-07-15T06:34:04Z</time>
      </trkpt>
      <trkpt lat="38.2353910" lon="-2.6543450">
        <ele>1394.4</ele>
        <time>2020-07-15T06:34:06Z</time>
      </trkpt>
      <trkpt lat="38.2356780" lon="-2.6544080">
        <ele>1393.0</ele>
        <time>2020-07-15T06:34:09Z</time>
      </trkpt>
      <trkpt lat="38.2358460" lon="-2.6544700">
        <ele>1392.4</ele>
        <time>2020-07-15T06:34:11Z</time>
      </trkpt>
      <trkpt lat="38.2359210" lon="-2.6545140">
        <ele>1392.2</ele>
        <time>2020-07-15T06:34:12Z</time>
      </trkpt>
      <trkpt lat="38.2360370" lon="-2.6546000">
        <ele>1392.4</ele>
        <time>2020-07-15T06:34:14Z</time>
      </trkpt>
      <trkpt lat="38.2361230" lon="-2.6546830">
        <ele>1392.6</ele>
        <time>2020-07-15T06:34:16Z</time>
      </trkpt>
      <trkpt lat="38.2361900" lon="-2.6547540">
        <ele>1392.8</ele>
        <time>2020-07-15T06:34:18Z</time>
      </trkpt>
      <trkpt lat="38.2362840" lon="-2.6548560">
        <ele>1393.6</ele>
        <time>2020-07-15T06:34:21Z</time>
      </trkpt>
      <trkpt lat="38.2363090" lon="-2.6548810">
        <ele>1394.0</ele>
        <time>2020-07-15T06:34:22Z</time>
      </trkpt>
      <trkpt lat="38.2363620" lon="-2.6549220">
        <ele>1394.4</ele>
        <time>2020-07-15T06:34:24Z</time>
      </trkpt>
      <trkpt lat="38.2364500" lon="-2.6549990">
        <ele>1395.0</ele>
        <time>2020-07-15T06:34:27Z</time>
      </trkpt>
      <trkpt lat="38.2364670" lon="-2.6550190">
        <ele>1395.2</ele>
        <time>2020-07-15T06:34:28Z</time>
      </trkpt>
      <trkpt lat="38.2364880" lon="-2.6550430">
        <ele>1395.2</ele>
        <time>2020-07-15T06:34:29Z</time>
      </trkpt>
      <trkpt lat="38.2365460" lon="-2.6550930">
        <ele>1395.4</ele>
        <time>2020-07-15T06:34:31Z</time>
      </trkpt>
      <trkpt lat="38.2366240" lon="-2.6551710">
        <ele>1396.2</ele>
        <time>2020-07-15T06:34:34Z</time>
      </trkpt>
      <trkpt lat="38.2366750" lon="-2.6552250">
        <ele>1396.8</ele>
        <time>2020-07-15T06:34:36Z</time>
      </trkpt>
      <trkpt lat="38.2367630" lon="-2.6552960">
        <ele>1397.4</ele>
        <time>2020-07-15T06:34:39Z</time>
      </trkpt>
      <trkpt lat="38.2368130" lon="-2.6553440">
        <ele>1397.8</ele>
        <time>2020-07-15T06:34:41Z</time>
      </trkpt>
      <trkpt lat="38.2368670" lon="-2.6554000">
        <ele>1398.2</ele>
        <time>2020-07-15T06:34:43Z</time>
      </trkpt>
      <trkpt lat="38.2369220" lon="-2.6554470">
        <ele>1398.6</ele>
        <time>2020-07-15T06:34:45Z</time>
      </trkpt>
      <trkpt lat="38.2369490" lon="-2.6554750">
        <ele>1398.8</ele>
        <time>2020-07-15T06:34:46Z</time>
      </trkpt>
      <trkpt lat="38.2370390" lon="-2.6555760">
        <ele>1399.6</ele>
        <time>2020-07-15T06:34:50Z</time>
      </trkpt>
      <trkpt lat="38.2370660" lon="-2.6556020">
        <ele>1399.6</ele>
        <time>2020-07-15T06:34:51Z</time>
      </trkpt>
      <trkpt lat="38.2371120" lon="-2.6556400">
        <ele>1400.2</ele>
        <time>2020-07-15T06:34:53Z</time>
      </trkpt>
      <trkpt lat="38.2371900" lon="-2.6557080">
        <ele>1400.8</ele>
        <time>2020-07-15T06:34:56Z</time>
      </trkpt>
      <trkpt lat="38.2372890" lon="-2.6557970">
        <ele>1401.6</ele>
        <time>2020-07-15T06:35:00Z</time>
      </trkpt>
      <trkpt lat="38.2373110" lon="-2.6558300">
        <ele>1401.8</ele>
        <time>2020-07-15T06:35:01Z</time>
      </trkpt>
      <trkpt lat="38.2373480" lon="-2.6560140">
        <ele>1402.6</ele>
        <time>2020-07-15T06:35:06Z</time>
      </trkpt>
      <trkpt lat="38.2372890" lon="-2.6561420">
        <ele>1403.0</ele>
        <time>2020-07-15T06:35:09Z</time>
      </trkpt>
      <trkpt lat="38.2372520" lon="-2.6561830">
        <ele>1403.0</ele>
        <time>2020-07-15T06:35:10Z</time>
      </trkpt>
      <trkpt lat="38.2370580" lon="-2.6563410">
        <ele>1402.8</ele>
        <time>2020-07-15T06:35:14Z</time>
      </trkpt>
      <trkpt lat="38.2368630" lon="-2.6564570">
        <ele>1401.8</ele>
        <time>2020-07-15T06:35:17Z</time>
      </trkpt>
      <trkpt lat="38.2367860" lon="-2.6564930">
        <ele>1401.4</ele>
        <time>2020-07-15T06:35:18Z</time>
      </trkpt>
      <trkpt lat="38.2366890" lon="-2.6565070">
        <ele>1400.8</ele>
        <time>2020-07-15T06:35:19Z</time>
      </trkpt>
      <trkpt lat="38.2365190" lon="-2.6564380">
        <ele>1399.8</ele>
        <time>2020-07-15T06:35:21Z</time>
      </trkpt>
      <trkpt lat="38.2364500" lon="-2.6563620">
        <ele>1399.2</ele>
        <time>2020-07-15T06:35:22Z</time>
      </trkpt>
      <trkpt lat="38.2363310" lon="-2.6562010">
        <ele>1397.8</ele>
        <time>2020-07-15T06:35:24Z</time>
      </trkpt>
      <trkpt lat="38.2361650" lon="-2.6561510">
        <ele>1395.8</ele>
        <time>2020-07-15T06:35:26Z</time>
      </trkpt>
      <trkpt lat="38.2360730" lon="-2.6561740">
        <ele>1394.8</ele>
        <time>2020-07-15T06:35:27Z</time>
      </trkpt>
      <trkpt lat="38.2359780" lon="-2.6562110">
        <ele>1393.6</ele>
        <time>2020-07-15T06:35:28Z</time>
      </trkpt>
      <trkpt lat="38.2358770" lon="-2.6562500">
        <ele>1392.6</ele>
        <time>2020-07-15T06:35:29Z</time>
      </trkpt>
      <trkpt lat="38.2356620" lon="-2.6563270">
        <ele>1390.8</ele>
        <time>2020-07-15T06:35:31Z</time>
      </trkpt>
      <trkpt lat="38.2354340" lon="-2.6563950">
        <ele>1389.2</ele>
        <time>2020-07-15T06:35:33Z</time>
      </trkpt>
      <trkpt lat="38.2353150" lon="-2.6564330">
        <ele>1388.0</ele>
        <time>2020-07-15T06:35:34Z</time>
      </trkpt>
      <trkpt lat="38.2350860" lon="-2.6565320">
        <ele>1386.2</ele>
        <time>2020-07-15T06:35:36Z</time>
      </trkpt>
      <trkpt lat="38.2348820" lon="-2.6566250">
        <ele>1384.2</ele>
        <time>2020-07-15T06:35:38Z</time>
      </trkpt>
      <trkpt lat="38.2347430" lon="-2.6566950">
        <ele>1383.2</ele>
        <time>2020-07-15T06:35:39Z</time>
      </trkpt>
      <trkpt lat="38.2345260" lon="-2.6568170">
        <ele>1381.2</ele>
        <time>2020-07-15T06:35:41Z</time>
      </trkpt>
      <trkpt lat="38.2343310" lon="-2.6568990">
        <ele>1379.4</ele>
        <time>2020-07-15T06:35:43Z</time>
      </trkpt>
      <trkpt lat="38.2341200" lon="-2.6568550">
        <ele>1377.4</ele>
        <time>2020-07-15T06:35:45Z</time>
      </trkpt>
      <trkpt lat="38.2339560" lon="-2.6568020">
        <ele>1375.4</ele>
        <time>2020-07-15T06:35:47Z</time>
      </trkpt>
      <trkpt lat="38.2338820" lon="-2.6568050">
        <ele>1374.4</ele>
        <time>2020-07-15T06:35:48Z</time>
      </trkpt>
      <trkpt lat="38.2338100" lon="-2.6568410">
        <ele>1373.4</ele>
        <time>2020-07-15T06:35:49Z</time>
      </trkpt>
      <trkpt lat="38.2337480" lon="-2.6569620">
        <ele>1371.6</ele>
        <time>2020-07-15T06:35:51Z</time>
      </trkpt>
      <trkpt lat="38.2337740" lon="-2.6570530">
        <ele>1370.0</ele>
        <time>2020-07-15T06:35:53Z</time>
      </trkpt>
      <trkpt lat="38.2338070" lon="-2.6570870">
        <ele>1369.2</ele>
        <time>2020-07-15T06:35:54Z</time>
      </trkpt>
      <trkpt lat="38.2338460" lon="-2.6571060">
        <ele>1368.4</ele>
        <time>2020-07-15T06:35:55Z</time>
      </trkpt>
      <trkpt lat="38.2339380" lon="-2.6571050">
        <ele>1366.8</ele>
        <time>2020-07-15T06:35:57Z</time>
      </trkpt>
      <trkpt lat="38.2339900" lon="-2.6571080">
        <ele>1366.4</ele>
        <time>2020-07-15T06:35:58Z</time>
      </trkpt>
      <trkpt lat="38.2340490" lon="-2.6571260">
        <ele>1366.2</ele>
        <time>2020-07-15T06:35:59Z</time>
      </trkpt>
      <trkpt lat="38.2341130" lon="-2.6571550">
        <ele>1365.8</ele>
        <time>2020-07-15T06:36:00Z</time>
      </trkpt>
      <trkpt lat="38.2341720" lon="-2.6571970">
        <ele>1365.4</ele>
        <time>2020-07-15T06:36:01Z</time>
      </trkpt>
      <trkpt lat="38.2343480" lon="-2.6572550">
        <ele>1364.4</ele>
        <time>2020-07-15T06:36:04Z</time>
      </trkpt>
      <trkpt lat="38.2344100" lon="-2.6572410">
        <ele>1364.2</ele>
        <time>2020-07-15T06:36:05Z</time>
      </trkpt>
      <trkpt lat="38.2345970" lon="-2.6571640">
        <ele>1363.2</ele>
        <time>2020-07-15T06:36:08Z</time>
      </trkpt>
      <trkpt lat="38.2346590" lon="-2.6571400">
        <ele>1363.0</ele>
        <time>2020-07-15T06:36:09Z</time>
      </trkpt>
      <trkpt lat="38.2349250" lon="-2.6570590">
        <ele>1362.6</ele>
        <time>2020-07-15T06:36:13Z</time>
      </trkpt>
      <trkpt lat="38.2350000" lon="-2.6570400">
        <ele>1362.4</ele>
        <time>2020-07-15T06:36:14Z</time>
      </trkpt>
      <trkpt lat="38.2350710" lon="-2.6570220">
        <ele>1362.0</ele>
        <time>2020-07-15T06:36:15Z</time>
      </trkpt>
      <trkpt lat="38.2352160" lon="-2.6569770">
        <ele>1361.6</ele>
        <time>2020-07-15T06:36:17Z</time>
      </trkpt>
      <trkpt lat="38.2352920" lon="-2.6569710">
        <ele>1361.4</ele>
        <time>2020-07-15T06:36:18Z</time>
      </trkpt>
      <trkpt lat="38.2353780" lon="-2.6570030">
        <ele>1361.0</ele>
        <time>2020-07-15T06:36:19Z</time>
      </trkpt>
      <trkpt lat="38.2354900" lon="-2.6571720">
        <ele>1360.4</ele>
        <time>2020-07-15T06:36:21Z</time>
      </trkpt>
      <trkpt lat="38.2355050" lon="-2.6572920">
        <ele>1359.8</ele>
        <time>2020-07-15T06:36:22Z</time>
      </trkpt>
      <trkpt lat="38.2355100" lon="-2.6573890">
        <ele>1359.4</ele>
        <time>2020-07-15T06:36:23Z</time>
      </trkpt>
      <trkpt lat="38.2355260" lon="-2.6575240">
        <ele>1358.6</ele>
        <time>2020-07-15T06:36:24Z</time>
      </trkpt>
      <trkpt lat="38.2355410" lon="-2.6577640">
        <ele>1357.2</ele>
        <time>2020-07-15T06:36:26Z</time>
      </trkpt>
      <trkpt lat="38.2355910" lon="-2.6579570">
        <ele>1356.2</ele>
        <time>2020-07-15T06:36:28Z</time>
      </trkpt>
      <trkpt lat="38.2357320" lon="-2.6580730">
        <ele>1355.4</ele>
        <time>2020-07-15T06:36:30Z</time>
      </trkpt>
      <trkpt lat="38.2358110" lon="-2.6580890">
        <ele>1354.8</ele>
        <time>2020-07-15T06:36:31Z</time>
      </trkpt>
      <trkpt lat="38.2359900" lon="-2.6580970">
        <ele>1353.6</ele>
        <time>2020-07-15T06:36:33Z</time>
      </trkpt>
      <trkpt lat="38.2362830" lon="-2.6581220">
        <ele>1352.2</ele>
        <time>2020-07-15T06:36:36Z</time>
      </trkpt>
      <trkpt lat="38.2364800" lon="-2.6581190">
        <ele>1351.2</ele>
        <time>2020-07-15T06:36:38Z</time>
      </trkpt>
      <trkpt lat="38.2365910" lon="-2.6581130">
        <ele>1350.8</ele>
        <time>2020-07-15T06:36:39Z</time>
      </trkpt>
      <trkpt lat="38.2367940" lon="-2.6580940">
        <ele>1349.4</ele>
        <time>2020-07-15T06:36:41Z</time>
      </trkpt>
      <trkpt lat="38.2370020" lon="-2.6580620">
        <ele>1348.2</ele>
        <time>2020-07-15T06:36:43Z</time>
      </trkpt>
      <trkpt lat="38.2371100" lon="-2.6580340">
        <ele>1347.8</ele>
        <time>2020-07-15T06:36:44Z</time>
      </trkpt>
      <trkpt lat="38.2373100" lon="-2.6579580">
        <ele>1347.0</ele>
        <time>2020-07-15T06:36:46Z</time>
      </trkpt>
      <trkpt lat="38.2374940" lon="-2.6578660">
        <ele>1346.2</ele>
        <time>2020-07-15T06:36:48Z</time>
      </trkpt>
      <trkpt lat="38.2375850" lon="-2.6578240">
        <ele>1345.8</ele>
        <time>2020-07-15T06:36:49Z</time>
      </trkpt>
      <trkpt lat="38.2376680" lon="-2.6578050">
        <ele>1345.2</ele>
        <time>2020-07-15T06:36:50Z</time>
      </trkpt>
      <trkpt lat="38.2377530" lon="-2.6578170">
        <ele>1344.6</ele>
        <time>2020-07-15T06:36:51Z</time>
      </trkpt>
      <trkpt lat="38.2378300" lon="-2.6578590">
        <ele>1344.0</ele>
        <time>2020-07-15T06:36:52Z</time>
      </trkpt>
      <trkpt lat="38.2378850" lon="-2.6579090">
        <ele>1343.4</ele>
        <time>2020-07-15T06:36:53Z</time>
      </trkpt>
      <trkpt lat="38.2379660" lon="-2.6580620">
        <ele>1342.2</ele>
        <time>2020-07-15T06:36:55Z</time>
      </trkpt>
      <trkpt lat="38.2379980" lon="-2.6581940">
        <ele>1341.0</ele>
        <time>2020-07-15T06:36:57Z</time>
      </trkpt>
      <trkpt lat="38.2380200" lon="-2.6582820">
        <ele>1340.0</ele>
        <time>2020-07-15T06:36:59Z</time>
      </trkpt>
      <trkpt lat="38.2380650" lon="-2.6584810">
        <ele>1338.8</ele>
        <time>2020-07-15T06:37:01Z</time>
      </trkpt>
      <trkpt lat="38.2381500" lon="-2.6587100">
        <ele>1337.6</ele>
        <time>2020-07-15T06:37:04Z</time>
      </trkpt>
      <trkpt lat="38.2382940" lon="-2.6589130">
        <ele>1336.4</ele>
        <time>2020-07-15T06:37:07Z</time>
      </trkpt>
      <trkpt lat="38.2383500" lon="-2.6589510">
        <ele>1335.8</ele>
        <time>2020-07-15T06:37:08Z</time>
      </trkpt>
      <trkpt lat="38.2384740" lon="-2.6589950">
        <ele>1334.8</ele>
        <time>2020-07-15T06:37:10Z</time>
      </trkpt>
      <trkpt lat="38.2385230" lon="-2.6590090">
        <ele>1334.6</ele>
        <time>2020-07-15T06:37:11Z</time>
      </trkpt>
      <trkpt lat="38.2386230" lon="-2.6590240">
        <ele>1333.8</ele>
        <time>2020-07-15T06:37:13Z</time>
      </trkpt>
      <trkpt lat="38.2386780" lon="-2.6590180">
        <ele>1333.6</ele>
        <time>2020-07-15T06:37:14Z</time>
      </trkpt>
      <trkpt lat="38.2387870" lon="-2.6590040">
        <ele>1333.4</ele>
        <time>2020-07-15T06:37:16Z</time>
      </trkpt>
      <trkpt lat="38.2388950" lon="-2.6590050">
        <ele>1333.2</ele>
        <time>2020-07-15T06:37:18Z</time>
      </trkpt>
      <trkpt lat="38.2389970" lon="-2.6590660">
        <ele>1332.8</ele>
        <time>2020-07-15T06:37:20Z</time>
      </trkpt>
      <trkpt lat="38.2390350" lon="-2.6591160">
        <ele>1332.8</ele>
        <time>2020-07-15T06:37:21Z</time>
      </trkpt>
      <trkpt lat="38.2390600" lon="-2.6592470">
        <ele>1332.4</ele>
        <time>2020-07-15T06:37:23Z</time>
      </trkpt>
      <trkpt lat="38.2389640" lon="-2.6594710">
        <ele>1331.8</ele>
        <time>2020-07-15T06:37:26Z</time>
      </trkpt>
      <trkpt lat="38.2388910" lon="-2.6595300">
        <ele>1331.6</ele>
        <time>2020-07-15T06:37:27Z</time>
      </trkpt>
      <trkpt lat="38.2388090" lon="-2.6595260">
        <ele>1331.2</ele>
        <time>2020-07-15T06:37:28Z</time>
      </trkpt>
      <trkpt lat="38.2386530" lon="-2.6594170">
        <ele>1330.4</ele>
        <time>2020-07-15T06:37:30Z</time>
      </trkpt>
      <trkpt lat="38.2385060" lon="-2.6592810">
        <ele>1329.4</ele>
        <time>2020-07-15T06:37:32Z</time>
      </trkpt>
      <trkpt lat="38.2384210" lon="-2.6592340">
        <ele>1329.0</ele>
        <time>2020-07-15T06:37:33Z</time>
      </trkpt>
      <trkpt lat="38.2383340" lon="-2.6591870">
        <ele>1328.6</ele>
        <time>2020-07-15T06:37:34Z</time>
      </trkpt>
      <trkpt lat="38.2381450" lon="-2.6590900">
        <ele>1327.8</ele>
        <time>2020-07-15T06:37:36Z</time>
      </trkpt>
      <trkpt lat="38.2380660" lon="-2.6590260">
        <ele>1327.6</ele>
        <time>2020-07-15T06:37:37Z</time>
      </trkpt>
      <trkpt lat="38.2379160" lon="-2.6588860">
        <ele>1327.0</ele>
        <time>2020-07-15T06:37:39Z</time>
      </trkpt>
      <trkpt lat="38.2378720" lon="-2.6587920">
        <ele>1326.6</ele>
        <time>2020-07-15T06:37:40Z</time>
      </trkpt>
      <trkpt lat="38.2378140" lon="-2.6586880">
        <ele>1326.2</ele>
        <time>2020-07-15T06:37:41Z</time>
      </trkpt>
      <trkpt lat="38.2376750" lon="-2.6585090">
        <ele>1325.4</ele>
        <time>2020-07-15T06:37:43Z</time>
      </trkpt>
      <trkpt lat="38.2375960" lon="-2.6584630">
        <ele>1325.0</ele>
        <time>2020-07-15T06:37:44Z</time>
      </trkpt>
      <trkpt lat="38.2374270" lon="-2.6584810">
        <ele>1324.2</ele>
        <time>2020-07-15T06:37:46Z</time>
      </trkpt>
      <trkpt lat="38.2372220" lon="-2.6586730">
        <ele>1323.0</ele>
        <time>2020-07-15T06:37:49Z</time>
      </trkpt>
      <trkpt lat="38.2370780" lon="-2.6587840">
        <ele>1322.6</ele>
        <time>2020-07-15T06:37:51Z</time>
      </trkpt>
      <trkpt lat="38.2368430" lon="-2.6588920">
        <ele>1322.0</ele>
        <time>2020-07-15T06:37:54Z</time>
      </trkpt>
      <trkpt lat="38.2367630" lon="-2.6589160">
        <ele>1322.0</ele>
        <time>2020-07-15T06:37:55Z</time>
      </trkpt>
      <trkpt lat="38.2364330" lon="-2.6589890">
        <ele>1321.4</ele>
        <time>2020-07-15T06:37:59Z</time>
      </trkpt>
      <trkpt lat="38.2360350" lon="-2.6591440">
        <ele>1321.0</ele>
        <time>2020-07-15T06:38:04Z</time>
      </trkpt>
      <trkpt lat="38.2359560" lon="-2.6591570">
        <ele>1321.0</ele>
        <time>2020-07-15T06:38:05Z</time>
      </trkpt>
      <trkpt lat="38.2357100" lon="-2.6591610">
        <ele>1320.8</ele>
        <time>2020-07-15T06:38:08Z</time>
      </trkpt>
      <trkpt lat="38.2356220" lon="-2.6591450">
        <ele>1320.6</ele>
        <time>2020-07-15T06:38:09Z</time>
      </trkpt>
      <trkpt lat="38.2353520" lon="-2.6590690">
        <ele>1320.2</ele>
        <time>2020-07-15T06:38:12Z</time>
      </trkpt>
      <trkpt lat="38.2352580" lon="-2.6590540">
        <ele>1320.0</ele>
        <time>2020-07-15T06:38:13Z</time>
      </trkpt>
      <trkpt lat="38.2351610" lon="-2.6590440">
        <ele>1319.6</ele>
        <time>2020-07-15T06:38:14Z</time>
      </trkpt>
      <trkpt lat="38.2348980" lon="-2.6590100">
        <ele>1318.4</ele>
        <time>2020-07-15T06:38:17Z</time>
      </trkpt>
      <trkpt lat="38.2347990" lon="-2.6588210">
        <ele>1317.6</ele>
        <time>2020-07-15T06:38:19Z</time>
      </trkpt>
      <trkpt lat="38.2347790" lon="-2.6587130">
        <ele>1317.4</ele>
        <time>2020-07-15T06:38:20Z</time>
      </trkpt>
      <trkpt lat="38.2347510" lon="-2.6585970">
        <ele>1317.2</ele>
        <time>2020-07-15T06:38:21Z</time>
      </trkpt>
      <trkpt lat="38.2346990" lon="-2.6585030">
        <ele>1316.8</ele>
        <time>2020-07-15T06:38:22Z</time>
      </trkpt>
      <trkpt lat="38.2346380" lon="-2.6584500">
        <ele>1316.4</ele>
        <time>2020-07-15T06:38:23Z</time>
      </trkpt>
      <trkpt lat="38.2345580" lon="-2.6584180">
        <ele>1315.8</ele>
        <time>2020-07-15T06:38:24Z</time>
      </trkpt>
      <trkpt lat="38.2344770" lon="-2.6584320">
        <ele>1315.2</ele>
        <time>2020-07-15T06:38:25Z</time>
      </trkpt>
      <trkpt lat="38.2343880" lon="-2.6584760">
        <ele>1314.6</ele>
        <time>2020-07-15T06:38:26Z</time>
      </trkpt>
      <trkpt lat="38.2343270" lon="-2.6585430">
        <ele>1314.0</ele>
        <time>2020-07-15T06:38:27Z</time>
      </trkpt>
      <trkpt lat="38.2342030" lon="-2.6586840">
        <ele>1312.8</ele>
        <time>2020-07-15T06:38:29Z</time>
      </trkpt>
      <trkpt lat="38.2340310" lon="-2.6589460">
        <ele>1311.8</ele>
        <time>2020-07-15T06:38:32Z</time>
      </trkpt>
      <trkpt lat="38.2339920" lon="-2.6590390">
        <ele>1311.6</ele>
        <time>2020-07-15T06:38:33Z</time>
      </trkpt>
      <trkpt lat="38.2338550" lon="-2.6593580">
        <ele>1310.8</ele>
        <time>2020-07-15T06:38:36Z</time>
      </trkpt>
      <trkpt lat="38.2337960" lon="-2.6594430">
        <ele>1310.4</ele>
        <time>2020-07-15T06:38:37Z</time>
      </trkpt>
      <trkpt lat="38.2337360" lon="-2.6594920">
        <ele>1310.0</ele>
        <time>2020-07-15T06:38:38Z</time>
      </trkpt>
      <trkpt lat="38.2336250" lon="-2.6595530">
        <ele>1309.6</ele>
        <time>2020-07-15T06:38:39Z</time>
      </trkpt>
      <trkpt lat="38.2334340" lon="-2.6596570">
        <ele>1308.2</ele>
        <time>2020-07-15T06:38:41Z</time>
      </trkpt>
      <trkpt lat="38.2332540" lon="-2.6598410">
        <ele>1306.6</ele>
        <time>2020-07-15T06:38:43Z</time>
      </trkpt>
      <trkpt lat="38.2331650" lon="-2.6599370">
        <ele>1305.4</ele>
        <time>2020-07-15T06:38:44Z</time>
      </trkpt>
      <trkpt lat="38.2330780" lon="-2.6600130">
        <ele>1304.4</ele>
        <time>2020-07-15T06:38:45Z</time>
      </trkpt>
      <trkpt lat="38.2329770" lon="-2.6600680">
        <ele>1303.4</ele>
        <time>2020-07-15T06:38:46Z</time>
      </trkpt>
      <trkpt lat="38.2328740" lon="-2.6600840">
        <ele>1302.2</ele>
        <time>2020-07-15T06:38:47Z</time>
      </trkpt>
      <trkpt lat="38.2326420" lon="-2.6600530">
        <ele>1300.4</ele>
        <time>2020-07-15T06:38:49Z</time>
      </trkpt>
      <trkpt lat="38.2325290" lon="-2.6600290">
        <ele>1299.6</ele>
        <time>2020-07-15T06:38:50Z</time>
      </trkpt>
      <trkpt lat="38.2324120" lon="-2.6600230">
        <ele>1298.6</ele>
        <time>2020-07-15T06:38:51Z</time>
      </trkpt>
      <trkpt lat="38.2322950" lon="-2.6600410">
        <ele>1297.6</ele>
        <time>2020-07-15T06:38:52Z</time>
      </trkpt>
      <trkpt lat="38.2321900" lon="-2.6600700">
        <ele>1296.8</ele>
        <time>2020-07-15T06:38:53Z</time>
      </trkpt>
      <trkpt lat="38.2320590" lon="-2.6601070">
        <ele>1295.8</ele>
        <time>2020-07-15T06:38:54Z</time>
      </trkpt>
      <trkpt lat="38.2318360" lon="-2.6601650">
        <ele>1293.6</ele>
        <time>2020-07-15T06:38:56Z</time>
      </trkpt>
      <trkpt lat="38.2317200" lon="-2.6602110">
        <ele>1292.6</ele>
        <time>2020-07-15T06:38:57Z</time>
      </trkpt>
      <trkpt lat="38.2316060" lon="-2.6602660">
        <ele>1291.2</ele>
        <time>2020-07-15T06:38:58Z</time>
      </trkpt>
      <trkpt lat="38.2315100" lon="-2.6603310">
        <ele>1289.8</ele>
        <time>2020-07-15T06:38:59Z</time>
      </trkpt>
      <trkpt lat="38.2314130" lon="-2.6604130">
        <ele>1288.8</ele>
        <time>2020-07-15T06:39:00Z</time>
      </trkpt>
      <trkpt lat="38.2313160" lon="-2.6605010">
        <ele>1287.8</ele>
        <time>2020-07-15T06:39:01Z</time>
      </trkpt>
      <trkpt lat="38.2312440" lon="-2.6606220">
        <ele>1286.6</ele>
        <time>2020-07-15T06:39:02Z</time>
      </trkpt>
      <trkpt lat="38.2312140" lon="-2.6607720">
        <ele>1285.4</ele>
        <time>2020-07-15T06:39:03Z</time>
      </trkpt>
      <trkpt lat="38.2311660" lon="-2.6609120">
        <ele>1284.6</ele>
        <time>2020-07-15T06:39:04Z</time>
      </trkpt>
      <trkpt lat="38.2311130" lon="-2.6610430">
        <ele>1283.4</ele>
        <time>2020-07-15T06:39:05Z</time>
      </trkpt>
      <trkpt lat="38.2310580" lon="-2.6611500">
        <ele>1282.4</ele>
        <time>2020-07-15T06:39:06Z</time>
      </trkpt>
      <trkpt lat="38.2309870" lon="-2.6612380">
        <ele>1281.4</ele>
        <time>2020-07-15T06:39:07Z</time>
      </trkpt>
      <trkpt lat="38.2307910" lon="-2.6613420">
        <ele>1279.4</ele>
        <time>2020-07-15T06:39:09Z</time>
      </trkpt>
      <trkpt lat="38.2305820" lon="-2.6614640">
        <ele>1277.6</ele>
        <time>2020-07-15T06:39:11Z</time>
      </trkpt>
      <trkpt lat="38.2303620" lon="-2.6615970">
        <ele>1275.8</ele>
        <time>2020-07-15T06:39:13Z</time>
      </trkpt>
      <trkpt lat="38.2301310" lon="-2.6616920">
        <ele>1274.0</ele>
        <time>2020-07-15T06:39:15Z</time>
      </trkpt>
      <trkpt lat="38.2299160" lon="-2.6617290">
        <ele>1272.4</ele>
        <time>2020-07-15T06:39:17Z</time>
      </trkpt>
      <trkpt lat="38.2296970" lon="-2.6616990">
        <ele>1270.6</ele>
        <time>2020-07-15T06:39:19Z</time>
      </trkpt>
      <trkpt lat="38.2295840" lon="-2.6616650">
        <ele>1270.0</ele>
        <time>2020-07-15T06:39:20Z</time>
      </trkpt>
      <trkpt lat="38.2294970" lon="-2.6616290">
        <ele>1268.6</ele>
        <time>2020-07-15T06:39:21Z</time>
      </trkpt>
      <trkpt lat="38.2294190" lon="-2.6616040">
        <ele>1267.8</ele>
        <time>2020-07-15T06:39:22Z</time>
      </trkpt>
      <trkpt lat="38.2293530" lon="-2.6615980">
        <ele>1266.8</ele>
        <time>2020-07-15T06:39:23Z</time>
      </trkpt>
      <trkpt lat="38.2292130" lon="-2.6616730">
        <ele>1265.2</ele>
        <time>2020-07-15T06:39:25Z</time>
      </trkpt>
      <trkpt lat="38.2292060" lon="-2.6617550">
        <ele>1264.4</ele>
        <time>2020-07-15T06:39:26Z</time>
      </trkpt>
      <trkpt lat="38.2292300" lon="-2.6618560">
        <ele>1263.6</ele>
        <time>2020-07-15T06:39:27Z</time>
      </trkpt>
      <trkpt lat="38.2292730" lon="-2.6619340">
        <ele>1263.0</ele>
        <time>2020-07-15T06:39:28Z</time>
      </trkpt>
      <trkpt lat="38.2293360" lon="-2.6619950">
        <ele>1262.2</ele>
        <time>2020-07-15T06:39:29Z</time>
      </trkpt>
      <trkpt lat="38.2294100" lon="-2.6620380">
        <ele>1261.4</ele>
        <time>2020-07-15T06:39:30Z</time>
      </trkpt>
      <trkpt lat="38.2294900" lon="-2.6620640">
        <ele>1260.8</ele>
        <time>2020-07-15T06:39:31Z</time>
      </trkpt>
      <trkpt lat="38.2296560" lon="-2.6620830">
        <ele>1259.6</ele>
        <time>2020-07-15T06:39:33Z</time>
      </trkpt>
      <trkpt lat="38.2297500" lon="-2.6620850">
        <ele>1259.0</ele>
        <time>2020-07-15T06:39:34Z</time>
      </trkpt>
      <trkpt lat="38.2298380" lon="-2.6620910">
        <ele>1258.4</ele>
        <time>2020-07-15T06:39:35Z</time>
      </trkpt>
      <trkpt lat="38.2299340" lon="-2.6621380">
        <ele>1258.0</ele>
        <time>2020-07-15T06:39:36Z</time>
      </trkpt>
      <trkpt lat="38.2300270" lon="-2.6622140">
        <ele>1257.0</ele>
        <time>2020-07-15T06:39:37Z</time>
      </trkpt>
      <trkpt lat="38.2302220" lon="-2.6623510">
        <ele>1255.4</ele>
        <time>2020-07-15T06:39:39Z</time>
      </trkpt>
      <trkpt lat="38.2304070" lon="-2.6624740">
        <ele>1253.8</ele>
        <time>2020-07-15T06:39:41Z</time>
      </trkpt>
      <trkpt lat="38.2305200" lon="-2.6625130">
        <ele>1253.0</ele>
        <time>2020-07-15T06:39:42Z</time>
      </trkpt>
      <trkpt lat="38.2306220" lon="-2.6625370">
        <ele>1252.0</ele>
        <time>2020-07-15T06:39:43Z</time>
      </trkpt>
      <trkpt lat="38.2308380" lon="-2.6625490">
        <ele>1250.4</ele>
        <time>2020-07-15T06:39:45Z</time>
      </trkpt>
      <trkpt lat="38.2309600" lon="-2.6625240">
        <ele>1249.4</ele>
        <time>2020-07-15T06:39:46Z</time>
      </trkpt>
      <trkpt lat="38.2310610" lon="-2.6625010">
        <ele>1248.6</ele>
        <time>2020-07-15T06:39:47Z</time>
      </trkpt>
      <trkpt lat="38.2311710" lon="-2.6624820">
        <ele>1247.6</ele>
        <time>2020-07-15T06:39:48Z</time>
      </trkpt>
      <trkpt lat="38.2312970" lon="-2.6624820">
        <ele>1246.6</ele>
        <time>2020-07-15T06:39:49Z</time>
      </trkpt>
      <trkpt lat="38.2314140" lon="-2.6624980">
        <ele>1245.4</ele>
        <time>2020-07-15T06:39:50Z</time>
      </trkpt>
      <trkpt lat="38.2315350" lon="-2.6625190">
        <ele>1244.6</ele>
        <time>2020-07-15T06:39:51Z</time>
      </trkpt>
      <trkpt lat="38.2316540" lon="-2.6625350">
        <ele>1243.8</ele>
        <time>2020-07-15T06:39:52Z</time>
      </trkpt>
      <trkpt lat="38.2318730" lon="-2.6625540">
        <ele>1242.0</ele>
        <time>2020-07-15T06:39:54Z</time>
      </trkpt>
      <trkpt lat="38.2320770" lon="-2.6625390">
        <ele>1240.4</ele>
        <time>2020-07-15T06:39:56Z</time>
      </trkpt>
      <trkpt lat="38.2322660" lon="-2.6624440">
        <ele>1238.8</ele>
        <time>2020-07-15T06:39:58Z</time>
      </trkpt>
      <trkpt lat="38.2323440" lon="-2.6623730">
        <ele>1238.0</ele>
        <time>2020-07-15T06:39:59Z</time>
      </trkpt>
      <trkpt lat="38.2324420" lon="-2.6623380">
        <ele>1237.4</ele>
        <time>2020-07-15T06:40:00Z</time>
      </trkpt>
      <trkpt lat="38.2326230" lon="-2.6623730">
        <ele>1236.2</ele>
        <time>2020-07-15T06:40:02Z</time>
      </trkpt>
      <trkpt lat="38.2327940" lon="-2.6624020">
        <ele>1235.4</ele>
        <time>2020-07-15T06:40:04Z</time>
      </trkpt>
      <trkpt lat="38.2331360" lon="-2.6624300">
        <ele>1235.4</ele>
        <time>2020-07-15T06:40:08Z</time>
      </trkpt>
      <trkpt lat="38.2332200" lon="-2.6624100">
        <ele>1235.4</ele>
        <time>2020-07-15T06:40:09Z</time>
      </trkpt>
      <trkpt lat="38.2332990" lon="-2.6623720">
        <ele>1235.0</ele>
        <time>2020-07-15T06:40:10Z</time>
      </trkpt>
      <trkpt lat="38.2333690" lon="-2.6623380">
        <ele>1234.6</ele>
        <time>2020-07-15T06:40:11Z</time>
      </trkpt>
      <trkpt lat="38.2334380" lon="-2.6623420">
        <ele>1234.2</ele>
        <time>2020-07-15T06:40:12Z</time>
      </trkpt>
      <trkpt lat="38.2334780" lon="-2.6623940">
        <ele>1233.6</ele>
        <time>2020-07-15T06:40:13Z</time>
      </trkpt>
      <trkpt lat="38.2335020" lon="-2.6625390">
        <ele>1232.4</ele>
        <time>2020-07-15T06:40:15Z</time>
      </trkpt>
      <trkpt lat="38.2333920" lon="-2.6627160">
        <ele>1231.4</ele>
        <time>2020-07-15T06:40:18Z</time>
      </trkpt>
      <trkpt lat="38.2333310" lon="-2.6627640">
        <ele>1231.4</ele>
        <time>2020-07-15T06:40:19Z</time>
      </trkpt>
      <trkpt lat="38.2332000" lon="-2.6628520">
        <ele>1231.0</ele>
        <time>2020-07-15T06:40:21Z</time>
      </trkpt>
      <trkpt lat="38.2331290" lon="-2.6628980">
        <ele>1230.8</ele>
        <time>2020-07-15T06:40:22Z</time>
      </trkpt>
      <trkpt lat="38.2330610" lon="-2.6629430">
        <ele>1230.6</ele>
        <time>2020-07-15T06:40:23Z</time>
      </trkpt>
      <trkpt lat="38.2329800" lon="-2.6630030">
        <ele>1230.2</ele>
        <time>2020-07-15T06:40:24Z</time>
      </trkpt>
      <trkpt lat="38.2329140" lon="-2.6630690">
        <ele>1230.0</ele>
        <time>2020-07-15T06:40:25Z</time>
      </trkpt>
      <trkpt lat="38.2328510" lon="-2.6631470">
        <ele>1229.8</ele>
        <time>2020-07-15T06:40:26Z</time>
      </trkpt>
      <trkpt lat="38.2327270" lon="-2.6632880">
        <ele>1229.2</ele>
        <time>2020-07-15T06:40:28Z</time>
      </trkpt>
      <trkpt lat="38.2325370" lon="-2.6635120">
        <ele>1228.6</ele>
        <time>2020-07-15T06:40:31Z</time>
      </trkpt>
      <trkpt lat="38.2323460" lon="-2.6637320">
        <ele>1228.2</ele>
        <time>2020-07-15T06:40:34Z</time>
      </trkpt>
      <trkpt lat="38.2321980" lon="-2.6638430">
        <ele>1227.4</ele>
        <time>2020-07-15T06:40:36Z</time>
      </trkpt>
      <trkpt lat="38.2320430" lon="-2.6639230">
        <ele>1227.0</ele>
        <time>2020-07-15T06:40:38Z</time>
      </trkpt>
      <trkpt lat="38.2318800" lon="-2.6640280">
        <ele>1226.4</ele>
        <time>2020-07-15T06:40:40Z</time>
      </trkpt>
      <trkpt lat="38.2317510" lon="-2.6641770">
        <ele>1226.0</ele>
        <time>2020-07-15T06:40:42Z</time>
      </trkpt>
      <trkpt lat="38.2316430" lon="-2.6643340">
        <ele>1225.8</ele>
        <time>2020-07-15T06:40:44Z</time>
      </trkpt>
      <trkpt lat="38.2314570" lon="-2.6645490">
        <ele>1225.4</ele>
        <time>2020-07-15T06:40:47Z</time>
      </trkpt>
      <trkpt lat="38.2312510" lon="-2.6647100">
        <ele>1224.8</ele>
        <time>2020-07-15T06:40:50Z</time>
      </trkpt>
      <trkpt lat="38.2311040" lon="-2.6647640">
        <ele>1224.6</ele>
        <time>2020-07-15T06:40:52Z</time>
      </trkpt>
      <trkpt lat="38.2308950" lon="-2.6646820">
        <ele>1224.4</ele>
        <time>2020-07-15T06:40:55Z</time>
      </trkpt>
      <trkpt lat="38.2308250" lon="-2.6646370">
        <ele>1224.2</ele>
        <time>2020-07-15T06:40:56Z</time>
      </trkpt>
      <trkpt lat="38.2307540" lon="-2.6645790">
        <ele>1224.0</ele>
        <time>2020-07-15T06:40:57Z</time>
      </trkpt>
      <trkpt lat="38.2306810" lon="-2.6645370">
        <ele>1223.8</ele>
        <time>2020-07-15T06:40:58Z</time>
      </trkpt>
      <trkpt lat="38.2305960" lon="-2.6645250">
        <ele>1223.4</ele>
        <time>2020-07-15T06:40:59Z</time>
      </trkpt>
      <trkpt lat="38.2304410" lon="-2.6646310">
        <ele>1222.8</ele>
        <time>2020-07-15T06:41:01Z</time>
      </trkpt>
      <trkpt lat="38.2303570" lon="-2.6646910">
        <ele>1222.4</ele>
        <time>2020-07-15T06:41:02Z</time>
      </trkpt>
      <trkpt lat="38.2301240" lon="-2.6648680">
        <ele>1221.0</ele>
        <time>2020-07-15T06:41:05Z</time>
      </trkpt>
      <trkpt lat="38.2300330" lon="-2.6649280">
        <ele>1220.6</ele>
        <time>2020-07-15T06:41:06Z</time>
      </trkpt>
      <trkpt lat="38.2298430" lon="-2.6650080">
        <ele>1219.6</ele>
        <time>2020-07-15T06:41:08Z</time>
      </trkpt>
      <trkpt lat="38.2297340" lon="-2.6650290">
        <ele>1219.2</ele>
        <time>2020-07-15T06:41:09Z</time>
      </trkpt>
      <trkpt lat="38.2296340" lon="-2.6650430">
        <ele>1218.6</ele>
        <time>2020-07-15T06:41:10Z</time>
      </trkpt>
      <trkpt lat="38.2295770" lon="-2.6650670">
        <ele>1218.2</ele>
        <time>2020-07-15T06:41:11Z</time>
      </trkpt>
      <trkpt lat="38.2294730" lon="-2.6651310">
        <ele>1217.6</ele>
        <time>2020-07-15T06:41:12Z</time>
      </trkpt>
      <trkpt lat="38.2294240" lon="-2.6652150">
        <ele>1217.0</ele>
        <time>2020-07-15T06:41:13Z</time>
      </trkpt>
      <trkpt lat="38.2293840" lon="-2.6653150">
        <ele>1216.4</ele>
        <time>2020-07-15T06:41:14Z</time>
      </trkpt>
      <trkpt lat="38.2292790" lon="-2.6654530">
        <ele>1215.2</ele>
        <time>2020-07-15T06:41:16Z</time>
      </trkpt>
      <trkpt lat="38.2290730" lon="-2.6653890">
        <ele>1214.0</ele>
        <time>2020-07-15T06:41:19Z</time>
      </trkpt>
      <trkpt lat="38.2289630" lon="-2.6652230">
        <ele>1213.4</ele>
        <time>2020-07-15T06:41:21Z</time>
      </trkpt>
      <trkpt lat="38.2289040" lon="-2.6651450">
        <ele>1213.2</ele>
        <time>2020-07-15T06:41:22Z</time>
      </trkpt>
      <trkpt lat="38.2288460" lon="-2.6650730">
        <ele>1212.8</ele>
        <time>2020-07-15T06:41:23Z</time>
      </trkpt>
      <trkpt lat="38.2287660" lon="-2.6650010">
        <ele>1212.4</ele>
        <time>2020-07-15T06:41:24Z</time>
      </trkpt>
      <trkpt lat="38.2285740" lon="-2.6649180">
        <ele>1211.4</ele>
        <time>2020-07-15T06:41:26Z</time>
      </trkpt>
      <trkpt lat="38.2283780" lon="-2.6648580">
        <ele>1210.4</ele>
        <time>2020-07-15T06:41:28Z</time>
      </trkpt>
      <trkpt lat="38.2281910" lon="-2.6647990">
        <ele>1209.0</ele>
        <time>2020-07-15T06:41:30Z</time>
      </trkpt>
      <trkpt lat="38.2280900" lon="-2.6648020">
        <ele>1208.4</ele>
        <time>2020-07-15T06:41:31Z</time>
      </trkpt>
      <trkpt lat="38.2279890" lon="-2.6648330">
        <ele>1207.6</ele>
        <time>2020-07-15T06:41:32Z</time>
      </trkpt>
      <trkpt lat="38.2278940" lon="-2.6648770">
        <ele>1206.8</ele>
        <time>2020-07-15T06:41:33Z</time>
      </trkpt>
      <trkpt lat="38.2277880" lon="-2.6649430">
        <ele>1206.2</ele>
        <time>2020-07-15T06:41:34Z</time>
      </trkpt>
      <trkpt lat="38.2276900" lon="-2.6649910">
        <ele>1205.6</ele>
        <time>2020-07-15T06:41:35Z</time>
      </trkpt>
      <trkpt lat="38.2275710" lon="-2.6650320">
        <ele>1204.8</ele>
        <time>2020-07-15T06:41:36Z</time>
      </trkpt>
      <trkpt lat="38.2274680" lon="-2.6650850">
        <ele>1204.0</ele>
        <time>2020-07-15T06:41:37Z</time>
      </trkpt>
      <trkpt lat="38.2273700" lon="-2.6651330">
        <ele>1203.4</ele>
        <time>2020-07-15T06:41:38Z</time>
      </trkpt>
      <trkpt lat="38.2271590" lon="-2.6652120">
        <ele>1201.8</ele>
        <time>2020-07-15T06:41:40Z</time>
      </trkpt>
      <trkpt lat="38.2269720" lon="-2.6653440">
        <ele>1200.4</ele>
        <time>2020-07-15T06:41:42Z</time>
      </trkpt>
      <trkpt lat="38.2268050" lon="-2.6655280">
        <ele>1198.8</ele>
        <time>2020-07-15T06:41:44Z</time>
      </trkpt>
      <trkpt lat="38.2266550" lon="-2.6657410">
        <ele>1197.2</ele>
        <time>2020-07-15T06:41:46Z</time>
      </trkpt>
      <trkpt lat="38.2265310" lon="-2.6659780">
        <ele>1196.0</ele>
        <time>2020-07-15T06:41:48Z</time>
      </trkpt>
      <trkpt lat="38.2264140" lon="-2.6662310">
        <ele>1194.4</ele>
        <time>2020-07-15T06:41:50Z</time>
      </trkpt>
      <trkpt lat="38.2263450" lon="-2.6663220">
        <ele>1193.6</ele>
        <time>2020-07-15T06:41:51Z</time>
      </trkpt>
      <trkpt lat="38.2262590" lon="-2.6663730">
        <ele>1192.8</ele>
        <time>2020-07-15T06:41:52Z</time>
      </trkpt>
      <trkpt lat="38.2261660" lon="-2.6663800">
        <ele>1192.0</ele>
        <time>2020-07-15T06:41:53Z</time>
      </trkpt>
      <trkpt lat="38.2260450" lon="-2.6663910">
        <ele>1191.2</ele>
        <time>2020-07-15T06:41:54Z</time>
      </trkpt>
      <trkpt lat="38.2258180" lon="-2.6665320">
        <ele>1189.8</ele>
        <time>2020-07-15T06:41:56Z</time>
      </trkpt>
      <trkpt lat="38.2257220" lon="-2.6666030">
        <ele>1189.2</ele>
        <time>2020-07-15T06:41:57Z</time>
      </trkpt>
      <trkpt lat="38.2256350" lon="-2.6666890">
        <ele>1188.4</ele>
        <time>2020-07-15T06:41:58Z</time>
      </trkpt>
      <trkpt lat="38.2254470" lon="-2.6668850">
        <ele>1187.0</ele>
        <time>2020-07-15T06:42:00Z</time>
      </trkpt>
      <trkpt lat="38.2252750" lon="-2.6670800">
        <ele>1185.8</ele>
        <time>2020-07-15T06:42:02Z</time>
      </trkpt>
      <trkpt lat="38.2251330" lon="-2.6672420">
        <ele>1184.8</ele>
        <time>2020-07-15T06:42:04Z</time>
      </trkpt>
      <trkpt lat="38.2251010" lon="-2.6673420">
        <ele>1184.0</ele>
        <time>2020-07-15T06:42:05Z</time>
      </trkpt>
      <trkpt lat="38.2250780" lon="-2.6674590">
        <ele>1183.4</ele>
        <time>2020-07-15T06:42:06Z</time>
      </trkpt>
      <trkpt lat="38.2250800" lon="-2.6675760">
        <ele>1182.6</ele>
        <time>2020-07-15T06:42:07Z</time>
      </trkpt>
      <trkpt lat="38.2250900" lon="-2.6677070">
        <ele>1182.0</ele>
        <time>2020-07-15T06:42:08Z</time>
      </trkpt>
      <trkpt lat="38.2250870" lon="-2.6679420">
        <ele>1180.4</ele>
        <time>2020-07-15T06:42:10Z</time>
      </trkpt>
      <trkpt lat="38.2250430" lon="-2.6680440">
        <ele>1179.6</ele>
        <time>2020-07-15T06:42:11Z</time>
      </trkpt>
      <trkpt lat="38.2249820" lon="-2.6680980">
        <ele>1178.8</ele>
        <time>2020-07-15T06:42:12Z</time>
      </trkpt>
      <trkpt lat="38.2249050" lon="-2.6681090">
        <ele>1178.0</ele>
        <time>2020-07-15T06:42:13Z</time>
      </trkpt>
      <trkpt lat="38.2248320" lon="-2.6680800">
        <ele>1177.2</ele>
        <time>2020-07-15T06:42:14Z</time>
      </trkpt>
      <trkpt lat="38.2247040" lon="-2.6679820">
        <ele>1176.0</ele>
        <time>2020-07-15T06:42:16Z</time>
      </trkpt>
      <trkpt lat="38.2244970" lon="-2.6678100">
        <ele>1175.0</ele>
        <time>2020-07-15T06:42:19Z</time>
      </trkpt>
      <trkpt lat="38.2243580" lon="-2.6676750">
        <ele>1174.4</ele>
        <time>2020-07-15T06:42:21Z</time>
      </trkpt>
      <trkpt lat="38.2242350" lon="-2.6675160">
        <ele>1173.8</ele>
        <time>2020-07-15T06:42:23Z</time>
      </trkpt>
      <trkpt lat="38.2241230" lon="-2.6673820">
        <ele>1173.0</ele>
        <time>2020-07-15T06:42:25Z</time>
      </trkpt>
      <trkpt lat="38.2240500" lon="-2.6673520">
        <ele>1172.6</ele>
        <time>2020-07-15T06:42:26Z</time>
      </trkpt>
      <trkpt lat="38.2239010" lon="-2.6673620">
        <ele>1172.2</ele>
        <time>2020-07-15T06:42:28Z</time>
      </trkpt>
      <trkpt lat="38.2238100" lon="-2.6674090">
        <ele>1171.6</ele>
        <time>2020-07-15T06:42:29Z</time>
      </trkpt>
      <trkpt lat="38.2236340" lon="-2.6675130">
        <ele>1170.8</ele>
        <time>2020-07-15T06:42:31Z</time>
      </trkpt>
      <trkpt lat="38.2235490" lon="-2.6675700">
        <ele>1170.4</ele>
        <time>2020-07-15T06:42:32Z</time>
      </trkpt>
      <trkpt lat="38.2233710" lon="-2.6677070">
        <ele>1169.2</ele>
        <time>2020-07-15T06:42:34Z</time>
      </trkpt>
      <trkpt lat="38.2232960" lon="-2.6678050">
        <ele>1168.6</ele>
        <time>2020-07-15T06:42:35Z</time>
      </trkpt>
      <trkpt lat="38.2232230" lon="-2.6679030">
        <ele>1168.0</ele>
        <time>2020-07-15T06:42:36Z</time>
      </trkpt>
      <trkpt lat="38.2230140" lon="-2.6682200">
        <ele>1166.8</ele>
        <time>2020-07-15T06:42:39Z</time>
      </trkpt>
      <trkpt lat="38.2229010" lon="-2.6684530">
        <ele>1165.8</ele>
        <time>2020-07-15T06:42:41Z</time>
      </trkpt>
      <trkpt lat="38.2228560" lon="-2.6685760">
        <ele>1165.4</ele>
        <time>2020-07-15T06:42:42Z</time>
      </trkpt>
      <trkpt lat="38.2228250" lon="-2.6687070">
        <ele>1164.6</ele>
        <time>2020-07-15T06:42:43Z</time>
      </trkpt>
      <trkpt lat="38.2227910" lon="-2.6688250">
        <ele>1163.8</ele>
        <time>2020-07-15T06:42:44Z</time>
      </trkpt>
      <trkpt lat="38.2227510" lon="-2.6689270">
        <ele>1163.2</ele>
        <time>2020-07-15T06:42:45Z</time>
      </trkpt>
      <trkpt lat="38.2227080" lon="-2.6690200">
        <ele>1162.6</ele>
        <time>2020-07-15T06:42:46Z</time>
      </trkpt>
      <trkpt lat="38.2226500" lon="-2.6690570">
        <ele>1162.0</ele>
        <time>2020-07-15T06:42:47Z</time>
      </trkpt>
      <trkpt lat="38.2225690" lon="-2.6690650">
        <ele>1160.8</ele>
        <time>2020-07-15T06:42:48Z</time>
      </trkpt>
      <trkpt lat="38.2224410" lon="-2.6689860">
        <ele>1159.8</ele>
        <time>2020-07-15T06:42:50Z</time>
      </trkpt>
      <trkpt lat="38.2222160" lon="-2.6688960">
        <ele>1158.6</ele>
        <time>2020-07-15T06:42:53Z</time>
      </trkpt>
      <trkpt lat="38.2221370" lon="-2.6689180">
        <ele>1158.4</ele>
        <time>2020-07-15T06:42:54Z</time>
      </trkpt>
      <trkpt lat="38.2219980" lon="-2.6690530">
        <ele>1157.8</ele>
        <time>2020-07-15T06:42:56Z</time>
      </trkpt>
      <trkpt lat="38.2219330" lon="-2.6691390">
        <ele>1157.4</ele>
        <time>2020-07-15T06:42:57Z</time>
      </trkpt>
      <trkpt lat="38.2217700" lon="-2.6693130">
        <ele>1156.0</ele>
        <time>2020-07-15T06:42:59Z</time>
      </trkpt>
      <trkpt lat="38.2216800" lon="-2.6693820">
        <ele>1155.2</ele>
        <time>2020-07-15T06:43:00Z</time>
      </trkpt>
      <trkpt lat="38.2215930" lon="-2.6694580">
        <ele>1154.2</ele>
        <time>2020-07-15T06:43:01Z</time>
      </trkpt>
      <trkpt lat="38.2214750" lon="-2.6696680">
        <ele>1152.8</ele>
        <time>2020-07-15T06:43:03Z</time>
      </trkpt>
      <trkpt lat="38.2214310" lon="-2.6697910">
        <ele>1151.8</ele>
        <time>2020-07-15T06:43:04Z</time>
      </trkpt>
      <trkpt lat="38.2213850" lon="-2.6699230">
        <ele>1150.6</ele>
        <time>2020-07-15T06:43:05Z</time>
      </trkpt>
      <trkpt lat="38.2213220" lon="-2.6700550">
        <ele>1149.6</ele>
        <time>2020-07-15T06:43:06Z</time>
      </trkpt>
      <trkpt lat="38.2212570" lon="-2.6701780">
        <ele>1148.8</ele>
        <time>2020-07-15T06:43:07Z</time>
      </trkpt>
      <trkpt lat="38.2212000" lon="-2.6703020">
        <ele>1147.6</ele>
        <time>2020-07-15T06:43:08Z</time>
      </trkpt>
      <trkpt lat="38.2211550" lon="-2.6704280">
        <ele>1146.6</ele>
        <time>2020-07-15T06:43:09Z</time>
      </trkpt>
      <trkpt lat="38.2211270" lon="-2.6705580">
        <ele>1145.8</ele>
        <time>2020-07-15T06:43:10Z</time>
      </trkpt>
      <trkpt lat="38.2211030" lon="-2.6708420">
        <ele>1144.0</ele>
        <time>2020-07-15T06:43:12Z</time>
      </trkpt>
      <trkpt lat="38.2210860" lon="-2.6709970">
        <ele>1143.2</ele>
        <time>2020-07-15T06:43:13Z</time>
      </trkpt>
      <trkpt lat="38.2210600" lon="-2.6711390">
        <ele>1142.4</ele>
        <time>2020-07-15T06:43:14Z</time>
      </trkpt>
      <trkpt lat="38.2209880" lon="-2.6714140">
        <ele>1140.8</ele>
        <time>2020-07-15T06:43:16Z</time>
      </trkpt>
      <trkpt lat="38.2209400" lon="-2.6715460">
        <ele>1140.0</ele>
        <time>2020-07-15T06:43:17Z</time>
      </trkpt>
      <trkpt lat="38.2208740" lon="-2.6716690">
        <ele>1139.2</ele>
        <time>2020-07-15T06:43:18Z</time>
      </trkpt>
      <trkpt lat="38.2206960" lon="-2.6718170">
        <ele>1138.2</ele>
        <time>2020-07-15T06:43:20Z</time>
      </trkpt>
      <trkpt lat="38.2205860" lon="-2.6718550">
        <ele>1137.8</ele>
        <time>2020-07-15T06:43:21Z</time>
      </trkpt>
      <trkpt lat="38.2204780" lon="-2.6718910">
        <ele>1137.4</ele>
        <time>2020-07-15T06:43:22Z</time>
      </trkpt>
      <trkpt lat="38.2204630" lon="-2.6719070">
        <ele>1137.4</ele>
        <time>2020-07-15T06:43:23Z</time>
      </trkpt>
      <trkpt lat="38.2203420" lon="-2.6720110">
        <ele>1136.8</ele>
        <time>2020-07-15T06:43:24Z</time>
      </trkpt>
      <trkpt lat="38.2201010" lon="-2.6722180">
        <ele>1135.4</ele>
        <time>2020-07-15T06:43:26Z</time>
      </trkpt>
      <trkpt lat="38.2200640" lon="-2.6722490">
        <ele>1134.8</ele>
        <time>2020-07-15T06:43:27Z</time>
      </trkpt>
      <trkpt lat="38.2199730" lon="-2.6723340">
        <ele>1134.2</ele>
        <time>2020-07-15T06:43:28Z</time>
      </trkpt>
      <trkpt lat="38.2197170" lon="-2.6725750">
        <ele>1132.4</ele>
        <time>2020-07-15T06:43:30Z</time>
      </trkpt>
      <trkpt lat="38.2195180" lon="-2.6727590">
        <ele>1131.2</ele>
        <time>2020-07-15T06:43:32Z</time>
      </trkpt>
      <trkpt lat="38.2194370" lon="-2.6728460">
        <ele>1130.2</ele>
        <time>2020-07-15T06:43:33Z</time>
      </trkpt>
      <trkpt lat="38.2193580" lon="-2.6729350">
        <ele>1129.6</ele>
        <time>2020-07-15T06:43:34Z</time>
      </trkpt>
      <trkpt lat="38.2193150" lon="-2.6730340">
        <ele>1128.4</ele>
        <time>2020-07-15T06:43:35Z</time>
      </trkpt>
      <trkpt lat="38.2192850" lon="-2.6731510">
        <ele>1127.4</ele>
        <time>2020-07-15T06:43:36Z</time>
      </trkpt>
      <trkpt lat="38.2192630" lon="-2.6733870">
        <ele>1125.4</ele>
        <time>2020-07-15T06:43:38Z</time>
      </trkpt>
      <trkpt lat="38.2192330" lon="-2.6734940">
        <ele>1124.4</ele>
        <time>2020-07-15T06:43:39Z</time>
      </trkpt>
      <trkpt lat="38.2191820" lon="-2.6735880">
        <ele>1123.4</ele>
        <time>2020-07-15T06:43:40Z</time>
      </trkpt>
      <trkpt lat="38.2190150" lon="-2.6736810">
        <ele>1122.0</ele>
        <time>2020-07-15T06:43:42Z</time>
      </trkpt>
      <trkpt lat="38.2188110" lon="-2.6736490">
        <ele>1120.8</ele>
        <time>2020-07-15T06:43:44Z</time>
      </trkpt>
      <trkpt lat="38.2187130" lon="-2.6736410">
        <ele>1120.2</ele>
        <time>2020-07-15T06:43:45Z</time>
      </trkpt>
      <trkpt lat="38.2185240" lon="-2.6736620">
        <ele>1119.8</ele>
        <time>2020-07-15T06:43:47Z</time>
      </trkpt>
      <trkpt lat="38.2184370" lon="-2.6737360">
        <ele>1119.4</ele>
        <time>2020-07-15T06:43:48Z</time>
      </trkpt>
      <trkpt lat="38.2183300" lon="-2.6739400">
        <ele>1118.8</ele>
        <time>2020-07-15T06:43:50Z</time>
      </trkpt>
      <trkpt lat="38.2183000" lon="-2.6740620">
        <ele>1118.2</ele>
        <time>2020-07-15T06:43:51Z</time>
      </trkpt>
      <trkpt lat="38.2182740" lon="-2.6741860">
        <ele>1118.0</ele>
        <time>2020-07-15T06:43:52Z</time>
      </trkpt>
      <trkpt lat="38.2182150" lon="-2.6744560">
        <ele>1116.8</ele>
        <time>2020-07-15T06:43:54Z</time>
      </trkpt>
      <trkpt lat="38.2181230" lon="-2.6747250">
        <ele>1115.4</ele>
        <time>2020-07-15T06:43:56Z</time>
      </trkpt>
      <trkpt lat="38.2180580" lon="-2.6748390">
        <ele>1114.4</ele>
        <time>2020-07-15T06:43:57Z</time>
      </trkpt>
      <trkpt lat="38.2179780" lon="-2.6749520">
        <ele>1113.8</ele>
        <time>2020-07-15T06:43:58Z</time>
      </trkpt>
      <trkpt lat="38.2178260" lon="-2.6751820">
        <ele>1112.4</ele>
        <time>2020-07-15T06:44:00Z</time>
      </trkpt>
      <trkpt lat="38.2177680" lon="-2.6752980">
        <ele>1111.8</ele>
        <time>2020-07-15T06:44:01Z</time>
      </trkpt>
      <trkpt lat="38.2177170" lon="-2.6754030">
        <ele>1111.2</ele>
        <time>2020-07-15T06:44:02Z</time>
      </trkpt>
      <trkpt lat="38.2176500" lon="-2.6755070">
        <ele>1110.4</ele>
        <time>2020-07-15T06:44:03Z</time>
      </trkpt>
      <trkpt lat="38.2175800" lon="-2.6755880">
        <ele>1109.6</ele>
        <time>2020-07-15T06:44:04Z</time>
      </trkpt>
      <trkpt lat="38.2174370" lon="-2.6757740">
        <ele>1108.0</ele>
        <time>2020-07-15T06:44:06Z</time>
      </trkpt>
      <trkpt lat="38.2173780" lon="-2.6758770">
        <ele>1107.4</ele>
        <time>2020-07-15T06:44:07Z</time>
      </trkpt>
      <trkpt lat="38.2173260" lon="-2.6759760">
        <ele>1107.0</ele>
        <time>2020-07-15T06:44:08Z</time>
      </trkpt>
      <trkpt lat="38.2171940" lon="-2.6761250">
        <ele>1105.8</ele>
        <time>2020-07-15T06:44:10Z</time>
      </trkpt>
      <trkpt lat="38.2170510" lon="-2.6760900">
        <ele>1104.8</ele>
        <time>2020-07-15T06:44:11Z</time>
      </trkpt>
      <trkpt lat="38.2169430" lon="-2.6760940">
        <ele>1104.0</ele>
        <time>2020-07-15T06:44:12Z</time>
      </trkpt>
      <trkpt lat="38.2168380" lon="-2.6761470">
        <ele>1103.2</ele>
        <time>2020-07-15T06:44:13Z</time>
      </trkpt>
      <trkpt lat="38.2167460" lon="-2.6762210">
        <ele>1102.2</ele>
        <time>2020-07-15T06:44:14Z</time>
      </trkpt>
      <trkpt lat="38.2166610" lon="-2.6763060">
        <ele>1101.2</ele>
        <time>2020-07-15T06:44:15Z</time>
      </trkpt>
      <trkpt lat="38.2164950" lon="-2.6764460">
        <ele>1100.2</ele>
        <time>2020-07-15T06:44:17Z</time>
      </trkpt>
      <trkpt lat="38.2163910" lon="-2.6764210">
        <ele>1099.4</ele>
        <time>2020-07-15T06:44:18Z</time>
      </trkpt>
      <trkpt lat="38.2162980" lon="-2.6764060">
        <ele>1099.2</ele>
        <time>2020-07-15T06:44:19Z</time>
      </trkpt>
      <trkpt lat="38.2162150" lon="-2.6762950">
        <ele>1098.6</ele>
        <time>2020-07-15T06:44:20Z</time>
      </trkpt>
      <trkpt lat="38.2161380" lon="-2.6762180">
        <ele>1097.8</ele>
        <time>2020-07-15T06:44:21Z</time>
      </trkpt>
      <trkpt lat="38.2159110" lon="-2.6760010">
        <ele>1096.6</ele>
        <time>2020-07-15T06:44:24Z</time>
      </trkpt>
      <trkpt lat="38.2158200" lon="-2.6759510">
        <ele>1096.2</ele>
        <time>2020-07-15T06:44:25Z</time>
      </trkpt>
      <trkpt lat="38.2156180" lon="-2.6759030">
        <ele>1095.2</ele>
        <time>2020-07-15T06:44:27Z</time>
      </trkpt>
      <trkpt lat="38.2155280" lon="-2.6759290">
        <ele>1094.8</ele>
        <time>2020-07-15T06:44:28Z</time>
      </trkpt>
      <trkpt lat="38.2153280" lon="-2.6759540">
        <ele>1093.8</ele>
        <time>2020-07-15T06:44:30Z</time>
      </trkpt>
      <trkpt lat="38.2150070" lon="-2.6760020">
        <ele>1092.6</ele>
        <time>2020-07-15T06:44:33Z</time>
      </trkpt>
      <trkpt lat="38.2148970" lon="-2.6760420">
        <ele>1092.0</ele>
        <time>2020-07-15T06:44:34Z</time>
      </trkpt>
      <trkpt lat="38.2147900" lon="-2.6760700">
        <ele>1091.4</ele>
        <time>2020-07-15T06:44:35Z</time>
      </trkpt>
      <trkpt lat="38.2145630" lon="-2.6761620">
        <ele>1090.2</ele>
        <time>2020-07-15T06:44:37Z</time>
      </trkpt>
      <trkpt lat="38.2144830" lon="-2.6762340">
        <ele>1089.6</ele>
        <time>2020-07-15T06:44:38Z</time>
      </trkpt>
      <trkpt lat="38.2144020" lon="-2.6763330">
        <ele>1089.0</ele>
        <time>2020-07-15T06:44:39Z</time>
      </trkpt>
      <trkpt lat="38.2143190" lon="-2.6765480">
        <ele>1087.4</ele>
        <time>2020-07-15T06:44:41Z</time>
      </trkpt>
      <trkpt lat="38.2142670" lon="-2.6766560">
        <ele>1086.6</ele>
        <time>2020-07-15T06:44:42Z</time>
      </trkpt>
      <trkpt lat="38.2142180" lon="-2.6767210">
        <ele>1085.8</ele>
        <time>2020-07-15T06:44:43Z</time>
      </trkpt>
      <trkpt lat="38.2141460" lon="-2.6767520">
        <ele>1085.0</ele>
        <time>2020-07-15T06:44:44Z</time>
      </trkpt>
      <trkpt lat="38.2140740" lon="-2.6767210">
        <ele>1084.2</ele>
        <time>2020-07-15T06:44:45Z</time>
      </trkpt>
      <trkpt lat="38.2140040" lon="-2.6766520">
        <ele>1083.4</ele>
        <time>2020-07-15T06:44:46Z</time>
      </trkpt>
      <trkpt lat="38.2139590" lon="-2.6765710">
        <ele>1082.6</ele>
        <time>2020-07-15T06:44:47Z</time>
      </trkpt>
      <trkpt lat="38.2139260" lon="-2.6764730">
        <ele>1082.0</ele>
        <time>2020-07-15T06:44:48Z</time>
      </trkpt>
      <trkpt lat="38.2139420" lon="-2.6763420">
        <ele>1081.4</ele>
        <time>2020-07-15T06:44:49Z</time>
      </trkpt>
      <trkpt lat="38.2139650" lon="-2.6762280">
        <ele>1080.6</ele>
        <time>2020-07-15T06:44:50Z</time>
      </trkpt>
      <trkpt lat="38.2140010" lon="-2.6761210">
        <ele>1080.0</ele>
        <time>2020-07-15T06:44:51Z</time>
      </trkpt>
      <trkpt lat="38.2141200" lon="-2.6759610">
        <ele>1078.6</ele>
        <time>2020-07-15T06:44:53Z</time>
      </trkpt>
      <trkpt lat="38.2143360" lon="-2.6759480">
        <ele>1077.6</ele>
        <time>2020-07-15T06:44:55Z</time>
      </trkpt>
      <trkpt lat="38.2144390" lon="-2.6759250">
        <ele>1077.0</ele>
        <time>2020-07-15T06:44:56Z</time>
      </trkpt>
      <trkpt lat="38.2146350" lon="-2.6758590">
        <ele>1076.2</ele>
        <time>2020-07-15T06:44:58Z</time>
      </trkpt>
      <trkpt lat="38.2147480" lon="-2.6758310">
        <ele>1075.8</ele>
        <time>2020-07-15T06:44:59Z</time>
      </trkpt>
      <trkpt lat="38.2149420" lon="-2.6757600">
        <ele>1075.0</ele>
        <time>2020-07-15T06:45:01Z</time>
      </trkpt>
      <trkpt lat="38.2152090" lon="-2.6756200">
        <ele>1073.8</ele>
        <time>2020-07-15T06:45:04Z</time>
      </trkpt>
      <trkpt lat="38.2152910" lon="-2.6755590">
        <ele>1073.2</ele>
        <time>2020-07-15T06:45:05Z</time>
      </trkpt>
      <trkpt lat="38.2154850" lon="-2.6754630">
        <ele>1072.4</ele>
        <time>2020-07-15T06:45:07Z</time>
      </trkpt>
      <trkpt lat="38.2156500" lon="-2.6753990">
        <ele>1071.8</ele>
        <time>2020-07-15T06:45:09Z</time>
      </trkpt>
      <trkpt lat="38.2157280" lon="-2.6752030">
        <ele>1071.2</ele>
        <time>2020-07-15T06:45:11Z</time>
      </trkpt>
      <trkpt lat="38.2157410" lon="-2.6751000">
        <ele>1071.0</ele>
        <time>2020-07-15T06:45:12Z</time>
      </trkpt>
      <trkpt lat="38.2156670" lon="-2.6750300">
        <ele>1070.4</ele>
        <time>2020-07-15T06:45:13Z</time>
      </trkpt>
      <trkpt lat="38.2156000" lon="-2.6749860">
        <ele>1069.8</ele>
        <time>2020-07-15T06:45:14Z</time>
      </trkpt>
      <trkpt lat="38.2153720" lon="-2.6750010">
        <ele>1068.6</ele>
        <time>2020-07-15T06:45:17Z</time>
      </trkpt>
      <trkpt lat="38.2150330" lon="-2.6751290">
        <ele>1067.8</ele>
        <time>2020-07-15T06:45:21Z</time>
      </trkpt>
      <trkpt lat="38.2149480" lon="-2.6751330">
        <ele>1067.6</ele>
        <time>2020-07-15T06:45:22Z</time>
      </trkpt>
      <trkpt lat="38.2147660" lon="-2.6751140">
        <ele>1067.4</ele>
        <time>2020-07-15T06:45:24Z</time>
      </trkpt>
      <trkpt lat="38.2145870" lon="-2.6750830">
        <ele>1067.2</ele>
        <time>2020-07-15T06:45:26Z</time>
      </trkpt>
      <trkpt lat="38.2143480" lon="-2.6749400">
        <ele>1066.2</ele>
        <time>2020-07-15T06:45:29Z</time>
      </trkpt>
      <trkpt lat="38.2140980" lon="-2.6748180">
        <ele>1065.2</ele>
        <time>2020-07-15T06:45:32Z</time>
      </trkpt>
      <trkpt lat="38.2139970" lon="-2.6748530">
        <ele>1064.8</ele>
        <time>2020-07-15T06:45:33Z</time>
      </trkpt>
      <trkpt lat="38.2139080" lon="-2.6748840">
        <ele>1064.4</ele>
        <time>2020-07-15T06:45:34Z</time>
      </trkpt>
      <trkpt lat="38.2138270" lon="-2.6749310">
        <ele>1064.2</ele>
        <time>2020-07-15T06:45:35Z</time>
      </trkpt>
      <trkpt lat="38.2135310" lon="-2.6750810">
        <ele>1062.6</ele>
        <time>2020-07-15T06:45:38Z</time>
      </trkpt>
      <trkpt lat="38.2132360" lon="-2.6752480">
        <ele>1061.0</ele>
        <time>2020-07-15T06:45:41Z</time>
      </trkpt>
      <trkpt lat="38.2130390" lon="-2.6754010">
        <ele>1059.4</ele>
        <time>2020-07-15T06:45:43Z</time>
      </trkpt>
      <trkpt lat="38.2129380" lon="-2.6754850">
        <ele>1058.6</ele>
        <time>2020-07-15T06:45:44Z</time>
      </trkpt>
      <trkpt lat="38.2128400" lon="-2.6755740">
        <ele>1057.8</ele>
        <time>2020-07-15T06:45:45Z</time>
      </trkpt>
      <trkpt lat="38.2126720" lon="-2.6757720">
        <ele>1056.6</ele>
        <time>2020-07-15T06:45:47Z</time>
      </trkpt>
      <trkpt lat="38.2126030" lon="-2.6759150">
        <ele>1055.6</ele>
        <time>2020-07-15T06:45:48Z</time>
      </trkpt>
      <trkpt lat="38.2125380" lon="-2.6760440">
        <ele>1054.8</ele>
        <time>2020-07-15T06:45:49Z</time>
      </trkpt>
      <trkpt lat="38.2124130" lon="-2.6762980">
        <ele>1053.6</ele>
        <time>2020-07-15T06:45:51Z</time>
      </trkpt>
      <trkpt lat="38.2122470" lon="-2.6766460">
        <ele>1052.2</ele>
        <time>2020-07-15T06:45:54Z</time>
      </trkpt>
      <trkpt lat="38.2122050" lon="-2.6767860">
        <ele>1051.6</ele>
        <time>2020-07-15T06:45:55Z</time>
      </trkpt>
      <trkpt lat="38.2121590" lon="-2.6769150">
        <ele>1051.0</ele>
        <time>2020-07-15T06:45:56Z</time>
      </trkpt>
      <trkpt lat="38.2120830" lon="-2.6771540">
        <ele>1049.8</ele>
        <time>2020-07-15T06:45:58Z</time>
      </trkpt>
      <trkpt lat="38.2120280" lon="-2.6772650">
        <ele>1049.0</ele>
        <time>2020-07-15T06:45:59Z</time>
      </trkpt>
      <trkpt lat="38.2119450" lon="-2.6773610">
        <ele>1048.4</ele>
        <time>2020-07-15T06:46:00Z</time>
      </trkpt>
      <trkpt lat="38.2118570" lon="-2.6774380">
        <ele>1047.8</ele>
        <time>2020-07-15T06:46:01Z</time>
      </trkpt>
      <trkpt lat="38.2117720" lon="-2.6775110">
        <ele>1047.2</ele>
        <time>2020-07-15T06:46:02Z</time>
      </trkpt>
      <trkpt lat="38.2115030" lon="-2.6776820">
        <ele>1046.4</ele>
        <time>2020-07-15T06:46:05Z</time>
      </trkpt>
      <trkpt lat="38.2114050" lon="-2.6777280">
        <ele>1046.0</ele>
        <time>2020-07-15T06:46:06Z</time>
      </trkpt>
      <trkpt lat="38.2112380" lon="-2.6778460">
        <ele>1045.6</ele>
        <time>2020-07-15T06:46:08Z</time>
      </trkpt>
      <trkpt lat="38.2111600" lon="-2.6779250">
        <ele>1045.2</ele>
        <time>2020-07-15T06:46:09Z</time>
      </trkpt>
      <trkpt lat="38.2110900" lon="-2.6780020">
        <ele>1045.0</ele>
        <time>2020-07-15T06:46:10Z</time>
      </trkpt>
      <trkpt lat="38.2107430" lon="-2.6783850">
        <ele>1044.0</ele>
        <time>2020-07-15T06:46:15Z</time>
      </trkpt>
      <trkpt lat="38.2106800" lon="-2.6784560">
        <ele>1043.8</ele>
        <time>2020-07-15T06:46:16Z</time>
      </trkpt>
      <trkpt lat="38.2103930" lon="-2.6787150">
        <ele>1043.2</ele>
        <time>2020-07-15T06:46:20Z</time>
      </trkpt>
      <trkpt lat="38.2102220" lon="-2.6787470">
        <ele>1042.8</ele>
        <time>2020-07-15T06:46:22Z</time>
      </trkpt>
      <trkpt lat="38.2101630" lon="-2.6787370">
        <ele>1042.6</ele>
        <time>2020-07-15T06:46:23Z</time>
      </trkpt>
      <trkpt lat="38.2098680" lon="-2.6786730">
        <ele>1042.0</ele>
        <time>2020-07-15T06:46:26Z</time>
      </trkpt>
      <trkpt lat="38.2097800" lon="-2.6786420">
        <ele>1041.8</ele>
        <time>2020-07-15T06:46:27Z</time>
      </trkpt>
      <trkpt lat="38.2096970" lon="-2.6786130">
        <ele>1041.4</ele>
        <time>2020-07-15T06:46:28Z</time>
      </trkpt>
      <trkpt lat="38.2096110" lon="-2.6786160">
        <ele>1041.2</ele>
        <time>2020-07-15T06:46:29Z</time>
      </trkpt>
      <trkpt lat="38.2095300" lon="-2.6786640">
        <ele>1041.0</ele>
        <time>2020-07-15T06:46:30Z</time>
      </trkpt>
      <trkpt lat="38.2093690" lon="-2.6788280">
        <ele>1040.0</ele>
        <time>2020-07-15T06:46:32Z</time>
      </trkpt>
      <trkpt lat="38.2093740" lon="-2.6789320">
        <ele>1039.4</ele>
        <time>2020-07-15T06:46:33Z</time>
      </trkpt>
      <trkpt lat="38.2094480" lon="-2.6790570">
        <ele>1038.8</ele>
        <time>2020-07-15T06:46:34Z</time>
      </trkpt>
      <trkpt lat="38.2094980" lon="-2.6791260">
        <ele>1038.4</ele>
        <time>2020-07-15T06:46:35Z</time>
      </trkpt>
      <trkpt lat="38.2096270" lon="-2.6793420">
        <ele>1037.4</ele>
        <time>2020-07-15T06:46:37Z</time>
      </trkpt>
      <trkpt lat="38.2096560" lon="-2.6794450">
        <ele>1037.0</ele>
        <time>2020-07-15T06:46:38Z</time>
      </trkpt>
      <trkpt lat="38.2096850" lon="-2.6796800">
        <ele>1036.4</ele>
        <time>2020-07-15T06:46:40Z</time>
      </trkpt>
      <trkpt lat="38.2096940" lon="-2.6797850">
        <ele>1036.0</ele>
        <time>2020-07-15T06:46:41Z</time>
      </trkpt>
      <trkpt lat="38.2097090" lon="-2.6801450">
        <ele>1035.4</ele>
        <time>2020-07-15T06:46:44Z</time>
      </trkpt>
      <trkpt lat="38.2096950" lon="-2.6802620">
        <ele>1035.0</ele>
        <time>2020-07-15T06:46:45Z</time>
      </trkpt>
      <trkpt lat="38.2096540" lon="-2.6803680">
        <ele>1034.8</ele>
        <time>2020-07-15T06:46:46Z</time>
      </trkpt>
      <trkpt lat="38.2095000" lon="-2.6806750">
        <ele>1034.2</ele>
        <time>2020-07-15T06:46:49Z</time>
      </trkpt>
      <trkpt lat="38.2094290" lon="-2.6809120">
        <ele>1033.6</ele>
        <time>2020-07-15T06:46:51Z</time>
      </trkpt>
      <trkpt lat="38.2094120" lon="-2.6810450">
        <ele>1033.2</ele>
        <time>2020-07-15T06:46:52Z</time>
      </trkpt>
      <trkpt lat="38.2094060" lon="-2.6811670">
        <ele>1032.8</ele>
        <time>2020-07-15T06:46:53Z</time>
      </trkpt>
      <trkpt lat="38.2094350" lon="-2.6814900">
        <ele>1031.4</ele>
        <time>2020-07-15T06:46:55Z</time>
      </trkpt>
      <trkpt lat="38.2094480" lon="-2.6816290">
        <ele>1030.4</ele>
        <time>2020-07-15T06:46:56Z</time>
      </trkpt>
      <trkpt lat="38.2094490" lon="-2.6817760">
        <ele>1029.4</ele>
        <time>2020-07-15T06:46:57Z</time>
      </trkpt>
      <trkpt lat="38.2094380" lon="-2.6819090">
        <ele>1028.4</ele>
        <time>2020-07-15T06:46:58Z</time>
      </trkpt>
      <trkpt lat="38.2093830" lon="-2.6820310">
        <ele>1027.4</ele>
        <time>2020-07-15T06:46:59Z</time>
      </trkpt>
      <trkpt lat="38.2093090" lon="-2.6821490">
        <ele>1026.2</ele>
        <time>2020-07-15T06:47:00Z</time>
      </trkpt>
      <trkpt lat="38.2091660" lon="-2.6823630">
        <ele>1024.4</ele>
        <time>2020-07-15T06:47:02Z</time>
      </trkpt>
      <trkpt lat="38.2091060" lon="-2.6824570">
        <ele>1023.6</ele>
        <time>2020-07-15T06:47:03Z</time>
      </trkpt>
      <trkpt lat="38.2090390" lon="-2.6825430">
        <ele>1022.6</ele>
        <time>2020-07-15T06:47:04Z</time>
      </trkpt>
      <trkpt lat="38.2089550" lon="-2.6825980">
        <ele>1021.8</ele>
        <time>2020-07-15T06:47:05Z</time>
      </trkpt>
      <trkpt lat="38.2088450" lon="-2.6826350">
        <ele>1021.0</ele>
        <time>2020-07-15T06:47:06Z</time>
      </trkpt>
      <trkpt lat="38.2086370" lon="-2.6826570">
        <ele>1019.2</ele>
        <time>2020-07-15T06:47:08Z</time>
      </trkpt>
      <trkpt lat="38.2085150" lon="-2.6826770">
        <ele>1018.4</ele>
        <time>2020-07-15T06:47:09Z</time>
      </trkpt>
      <trkpt lat="38.2083970" lon="-2.6827030">
        <ele>1017.6</ele>
        <time>2020-07-15T06:47:10Z</time>
      </trkpt>
      <trkpt lat="38.2081540" lon="-2.6827700">
        <ele>1016.0</ele>
        <time>2020-07-15T06:47:12Z</time>
      </trkpt>
      <trkpt lat="38.2079300" lon="-2.6828420">
        <ele>1014.6</ele>
        <time>2020-07-15T06:47:14Z</time>
      </trkpt>
      <trkpt lat="38.2078340" lon="-2.6829160">
        <ele>1013.4</ele>
        <time>2020-07-15T06:47:15Z</time>
      </trkpt>
      <trkpt lat="38.2077420" lon="-2.6829850">
        <ele>1012.6</ele>
        <time>2020-07-15T06:47:16Z</time>
      </trkpt>
      <trkpt lat="38.2076810" lon="-2.6830610">
        <ele>1011.6</ele>
        <time>2020-07-15T06:47:17Z</time>
      </trkpt>
      <trkpt lat="38.2075490" lon="-2.6832940">
        <ele>1009.8</ele>
        <time>2020-07-15T06:47:19Z</time>
      </trkpt>
      <trkpt lat="38.2074950" lon="-2.6835200">
        <ele>1008.4</ele>
        <time>2020-07-15T06:47:21Z</time>
      </trkpt>
      <trkpt lat="38.2074670" lon="-2.6836440">
        <ele>1008.2</ele>
        <time>2020-07-15T06:47:22Z</time>
      </trkpt>
      <trkpt lat="38.2074530" lon="-2.6838760">
        <ele>1007.8</ele>
        <time>2020-07-15T06:47:24Z</time>
      </trkpt>
      <trkpt lat="38.2074780" lon="-2.6839950">
        <ele>1007.6</ele>
        <time>2020-07-15T06:47:25Z</time>
      </trkpt>
      <trkpt lat="38.2075730" lon="-2.6841890">
        <ele>1007.4</ele>
        <time>2020-07-15T06:47:27Z</time>
      </trkpt>
      <trkpt lat="38.2076240" lon="-2.6842640">
        <ele>1007.4</ele>
        <time>2020-07-15T06:47:28Z</time>
      </trkpt>
      <trkpt lat="38.2077660" lon="-2.6844570">
        <ele>1007.0</ele>
        <time>2020-07-15T06:47:30Z</time>
      </trkpt>
      <trkpt lat="38.2078010" lon="-2.6845610">
        <ele>1007.0</ele>
        <time>2020-07-15T06:47:31Z</time>
      </trkpt>
      <trkpt lat="38.2078350" lon="-2.6846610">
        <ele>1007.0</ele>
        <time>2020-07-15T06:47:32Z</time>
      </trkpt>
      <trkpt lat="38.2078470" lon="-2.6847730">
        <ele>1007.0</ele>
        <time>2020-07-15T06:47:33Z</time>
      </trkpt>
      <trkpt lat="38.2078800" lon="-2.6849870">
        <ele>1007.0</ele>
        <time>2020-07-15T06:47:35Z</time>
      </trkpt>
      <trkpt lat="38.2079040" lon="-2.6850940">
        <ele>1007.0</ele>
        <time>2020-07-15T06:47:36Z</time>
      </trkpt>
      <trkpt lat="38.2079390" lon="-2.6852800">
        <ele>1006.8</ele>
        <time>2020-07-15T06:47:38Z</time>
      </trkpt>
      <trkpt lat="38.2080200" lon="-2.6856950">
        <ele>1006.6</ele>
        <time>2020-07-15T06:47:42Z</time>
      </trkpt>
      <trkpt lat="38.2080340" lon="-2.6860140">
        <ele>1006.4</ele>
        <time>2020-07-15T06:47:45Z</time>
      </trkpt>
      <trkpt lat="38.2080150" lon="-2.6861170">
        <ele>1006.4</ele>
        <time>2020-07-15T06:47:46Z</time>
      </trkpt>
      <trkpt lat="38.2079070" lon="-2.6864400">
        <ele>1005.8</ele>
        <time>2020-07-15T06:47:49Z</time>
      </trkpt>
      <trkpt lat="38.2078460" lon="-2.6866720">
        <ele>1005.0</ele>
        <time>2020-07-15T06:47:51Z</time>
      </trkpt>
      <trkpt lat="38.2078200" lon="-2.6867880">
        <ele>1004.4</ele>
        <time>2020-07-15T06:47:52Z</time>
      </trkpt>
      <trkpt lat="38.2078030" lon="-2.6869340">
        <ele>1004.0</ele>
        <time>2020-07-15T06:47:53Z</time>
      </trkpt>
      <trkpt lat="38.2077350" lon="-2.6871940">
        <ele>1002.8</ele>
        <time>2020-07-15T06:47:55Z</time>
      </trkpt>
      <trkpt lat="38.2076940" lon="-2.6873280">
        <ele>1002.0</ele>
        <time>2020-07-15T06:47:56Z</time>
      </trkpt>
      <trkpt lat="38.2076500" lon="-2.6874600">
        <ele>1001.6</ele>
        <time>2020-07-15T06:47:57Z</time>
      </trkpt>
      <trkpt lat="38.2075400" lon="-2.6877170">
        <ele>999.8</ele>
        <time>2020-07-15T06:47:59Z</time>
      </trkpt>
      <trkpt lat="38.2074140" lon="-2.6879490">
        <ele>998.6</ele>
        <time>2020-07-15T06:48:01Z</time>
      </trkpt>
      <trkpt lat="38.2072800" lon="-2.6881910">
        <ele>997.2</ele>
        <time>2020-07-15T06:48:03Z</time>
      </trkpt>
      <trkpt lat="38.2071960" lon="-2.6883020">
        <ele>996.6</ele>
        <time>2020-07-15T06:48:04Z</time>
      </trkpt>
      <trkpt lat="38.2071210" lon="-2.6884060">
        <ele>996.0</ele>
        <time>2020-07-15T06:48:05Z</time>
      </trkpt>
      <trkpt lat="38.2070320" lon="-2.6884910">
        <ele>995.2</ele>
        <time>2020-07-15T06:48:06Z</time>
      </trkpt>
      <trkpt lat="38.2069320" lon="-2.6885690">
        <ele>994.4</ele>
        <time>2020-07-15T06:48:07Z</time>
      </trkpt>
      <trkpt lat="38.2067320" lon="-2.6887110">
        <ele>993.0</ele>
        <time>2020-07-15T06:48:09Z</time>
      </trkpt>
      <trkpt lat="38.2066320" lon="-2.6887680">
        <ele>992.4</ele>
        <time>2020-07-15T06:48:10Z</time>
      </trkpt>
      <trkpt lat="38.2065250" lon="-2.6888140">
        <ele>991.6</ele>
        <time>2020-07-15T06:48:11Z</time>
      </trkpt>
      <trkpt lat="38.2062300" lon="-2.6889140">
        <ele>990.2</ele>
        <time>2020-07-15T06:48:14Z</time>
      </trkpt>
      <trkpt lat="38.2060390" lon="-2.6889780">
        <ele>989.2</ele>
        <time>2020-07-15T06:48:16Z</time>
      </trkpt>
      <trkpt lat="38.2059470" lon="-2.6890140">
        <ele>989.0</ele>
        <time>2020-07-15T06:48:17Z</time>
      </trkpt>
      <trkpt lat="38.2058470" lon="-2.6890960">
        <ele>988.6</ele>
        <time>2020-07-15T06:48:18Z</time>
      </trkpt>
      <trkpt lat="38.2057260" lon="-2.6892490">
        <ele>987.8</ele>
        <time>2020-07-15T06:48:20Z</time>
      </trkpt>
      <trkpt lat="38.2057250" lon="-2.6893650">
        <ele>987.4</ele>
        <time>2020-07-15T06:48:21Z</time>
      </trkpt>
      <trkpt lat="38.2057090" lon="-2.6894610">
        <ele>987.0</ele>
        <time>2020-07-15T06:48:22Z</time>
      </trkpt>
      <trkpt lat="38.2057550" lon="-2.6895870">
        <ele>986.6</ele>
        <time>2020-07-15T06:48:23Z</time>
      </trkpt>
      <trkpt lat="38.2057880" lon="-2.6896960">
        <ele>986.6</ele>
        <time>2020-07-15T06:48:24Z</time>
      </trkpt>
      <trkpt lat="38.2059520" lon="-2.6899400">
        <ele>986.2</ele>
        <time>2020-07-15T06:48:27Z</time>
      </trkpt>
      <trkpt lat="38.2060930" lon="-2.6899850">
        <ele>986.2</ele>
        <time>2020-07-15T06:48:29Z</time>
      </trkpt>
      <trkpt lat="38.2062000" lon="-2.6899830">
        <ele>986.0</ele>
        <time>2020-07-15T06:48:30Z</time>
      </trkpt>
      <trkpt lat="38.2064370" lon="-2.6900350">
        <ele>985.8</ele>
        <time>2020-07-15T06:48:33Z</time>
      </trkpt>
      <trkpt lat="38.2066130" lon="-2.6901620">
        <ele>985.6</ele>
        <time>2020-07-15T06:48:35Z</time>
      </trkpt>
      <trkpt lat="38.2066940" lon="-2.6902470">
        <ele>985.4</ele>
        <time>2020-07-15T06:48:36Z</time>
      </trkpt>
      <trkpt lat="38.2068520" lon="-2.6904260">
        <ele>985.2</ele>
        <time>2020-07-15T06:48:38Z</time>
      </trkpt>
      <trkpt lat="38.2069160" lon="-2.6905290">
        <ele>985.0</ele>
        <time>2020-07-15T06:48:39Z</time>
      </trkpt>
      <trkpt lat="38.2069390" lon="-2.6906400">
        <ele>984.8</ele>
        <time>2020-07-15T06:48:40Z</time>
      </trkpt>
      <trkpt lat="38.2069170" lon="-2.6908600">
        <ele>984.4</ele>
        <time>2020-07-15T06:48:42Z</time>
      </trkpt>
      <trkpt lat="38.2068140" lon="-2.6910740">
        <ele>984.0</ele>
        <time>2020-07-15T06:48:45Z</time>
      </trkpt>
      <trkpt lat="38.2067320" lon="-2.6912320">
        <ele>983.6</ele>
        <time>2020-07-15T06:48:46Z</time>
      </trkpt>
      <trkpt lat="38.2067000" lon="-2.6913340">
        <ele>983.4</ele>
        <time>2020-07-15T06:48:47Z</time>
      </trkpt>
      <trkpt lat="38.2067140" lon="-2.6914560">
        <ele>983.0</ele>
        <time>2020-07-15T06:48:48Z</time>
      </trkpt>
      <trkpt lat="38.2068280" lon="-2.6917070">
        <ele>982.4</ele>
        <time>2020-07-15T06:48:51Z</time>
      </trkpt>
      <trkpt lat="38.2068820" lon="-2.6917680">
        <ele>982.2</ele>
        <time>2020-07-15T06:48:52Z</time>
      </trkpt>
      <trkpt lat="38.2069440" lon="-2.6918410">
        <ele>982.2</ele>
        <time>2020-07-15T06:48:53Z</time>
      </trkpt>
      <trkpt lat="38.2070420" lon="-2.6919950">
        <ele>982.2</ele>
        <time>2020-07-15T06:48:55Z</time>
      </trkpt>
      <trkpt lat="38.2070580" lon="-2.6920900">
        <ele>982.2</ele>
        <time>2020-07-15T06:48:56Z</time>
      </trkpt>
      <trkpt lat="38.2070020" lon="-2.6923480">
        <ele>982.4</ele>
        <time>2020-07-15T06:48:59Z</time>
      </trkpt>
      <trkpt lat="38.2069720" lon="-2.6924280">
        <ele>982.6</ele>
        <time>2020-07-15T06:49:00Z</time>
      </trkpt>
      <trkpt lat="38.2068810" lon="-2.6926290">
        <ele>982.6</ele>
        <time>2020-07-15T06:49:03Z</time>
      </trkpt>
      <trkpt lat="38.2068480" lon="-2.6926930">
        <ele>982.8</ele>
        <time>2020-07-15T06:49:04Z</time>
      </trkpt>
      <trkpt lat="38.2068280" lon="-2.6927660">
        <ele>982.8</ele>
        <time>2020-07-15T06:49:05Z</time>
      </trkpt>
      <trkpt lat="38.2067710" lon="-2.6929170">
        <ele>983.0</ele>
        <time>2020-07-15T06:49:07Z</time>
      </trkpt>
      <trkpt lat="38.2067670" lon="-2.6929990">
        <ele>983.2</ele>
        <time>2020-07-15T06:49:08Z</time>
      </trkpt>
      <trkpt lat="38.2067630" lon="-2.6930800">
        <ele>983.4</ele>
        <time>2020-07-15T06:49:09Z</time>
      </trkpt>
      <trkpt lat="38.2067730" lon="-2.6932520">
        <ele>983.6</ele>
        <time>2020-07-15T06:49:11Z</time>
      </trkpt>
      <trkpt lat="38.2067780" lon="-2.6933370">
        <ele>983.6</ele>
        <time>2020-07-15T06:49:12Z</time>
      </trkpt>
      <trkpt lat="38.2068120" lon="-2.6936950">
        <ele>984.0</ele>
        <time>2020-07-15T06:49:16Z</time>
      </trkpt>
      <trkpt lat="38.2068440" lon="-2.6938870">
        <ele>984.0</ele>
        <time>2020-07-15T06:49:18Z</time>
      </trkpt>
      <trkpt lat="38.2069570" lon="-2.6941470">
        <ele>983.4</ele>
        <time>2020-07-15T06:49:21Z</time>
      </trkpt>
      <trkpt lat="38.2070060" lon="-2.6942150">
        <ele>983.2</ele>
        <time>2020-07-15T06:49:22Z</time>
      </trkpt>
      <trkpt lat="38.2070780" lon="-2.6942650">
        <ele>982.8</ele>
        <time>2020-07-15T06:49:23Z</time>
      </trkpt>
      <trkpt lat="38.2071980" lon="-2.6943320">
        <ele>982.4</ele>
        <time>2020-07-15T06:49:25Z</time>
      </trkpt>
      <trkpt lat="38.2074310" lon="-2.6943180">
        <ele>981.8</ele>
        <time>2020-07-15T06:49:28Z</time>
      </trkpt>
      <trkpt lat="38.2074960" lon="-2.6943660">
        <ele>981.6</ele>
        <time>2020-07-15T06:49:29Z</time>
      </trkpt>
      <trkpt lat="38.2075910" lon="-2.6944170">
        <ele>981.2</ele>
        <time>2020-07-15T06:49:30Z</time>
      </trkpt>
      <trkpt lat="38.2078950" lon="-2.6946850">
        <ele>980.0</ele>
        <time>2020-07-15T06:49:34Z</time>
      </trkpt>
      <trkpt lat="38.2082500" lon="-2.6950440">
        <ele>978.8</ele>
        <time>2020-07-15T06:49:39Z</time>
      </trkpt>
      <trkpt lat="38.2083080" lon="-2.6951200">
        <ele>978.8</ele>
        <time>2020-07-15T06:49:40Z</time>
      </trkpt>
      <trkpt lat="38.2083820" lon="-2.6954240">
        <ele>978.0</ele>
        <time>2020-07-15T06:49:43Z</time>
      </trkpt>
      <trkpt lat="38.2083810" lon="-2.6955260">
        <ele>977.8</ele>
        <time>2020-07-15T06:49:44Z</time>
      </trkpt>
      <trkpt lat="38.2083330" lon="-2.6957110">
        <ele>977.2</ele>
        <time>2020-07-15T06:49:46Z</time>
      </trkpt>
      <trkpt lat="38.2082940" lon="-2.6957960">
        <ele>977.2</ele>
        <time>2020-07-15T06:49:47Z</time>
      </trkpt>
      <trkpt lat="38.2082380" lon="-2.6958610">
        <ele>977.0</ele>
        <time>2020-07-15T06:49:48Z</time>
      </trkpt>
      <trkpt lat="38.2081310" lon="-2.6961210">
        <ele>976.6</ele>
        <time>2020-07-15T06:49:51Z</time>
      </trkpt>
      <trkpt lat="38.2081000" lon="-2.6962190">
        <ele>976.6</ele>
        <time>2020-07-15T06:49:52Z</time>
      </trkpt>
      <trkpt lat="38.2081190" lon="-2.6963300">
        <ele>976.2</ele>
        <time>2020-07-15T06:49:53Z</time>
      </trkpt>
      <trkpt lat="38.2081330" lon="-2.6964320">
        <ele>976.0</ele>
        <time>2020-07-15T06:49:54Z</time>
      </trkpt>
      <trkpt lat="38.2082100" lon="-2.6967160">
        <ele>975.8</ele>
        <time>2020-07-15T06:49:57Z</time>
      </trkpt>
      <trkpt lat="38.2082440" lon="-2.6968110">
        <ele>975.8</ele>
        <time>2020-07-15T06:49:58Z</time>
      </trkpt>
      <trkpt lat="38.2084330" lon="-2.6972180">
        <ele>975.6</ele>
        <time>2020-07-15T06:50:03Z</time>
      </trkpt>
      <trkpt lat="38.2085320" lon="-2.6973490">
        <ele>975.6</ele>
        <time>2020-07-15T06:50:05Z</time>
      </trkpt>
      <trkpt lat="38.2086590" lon="-2.6974340">
        <ele>975.8</ele>
        <time>2020-07-15T06:50:07Z</time>
      </trkpt>
      <trkpt lat="38.2089030" lon="-2.6974520">
        <ele>976.0</ele>
        <time>2020-07-15T06:50:10Z</time>
      </trkpt>
      <trkpt lat="38.2090560" lon="-2.6974670">
        <ele>976.0</ele>
        <time>2020-07-15T06:50:12Z</time>
      </trkpt>
      <trkpt lat="38.2091170" lon="-2.6975010">
        <ele>976.2</ele>
        <time>2020-07-15T06:50:13Z</time>
      </trkpt>
      <trkpt lat="38.2092510" lon="-2.6976830">
        <ele>976.6</ele>
        <time>2020-07-15T06:50:16Z</time>
      </trkpt>
      <trkpt lat="38.2092970" lon="-2.6978410">
        <ele>976.8</ele>
        <time>2020-07-15T06:50:18Z</time>
      </trkpt>
      <trkpt lat="38.2093240" lon="-2.6980080">
        <ele>976.8</ele>
        <time>2020-07-15T06:50:20Z</time>
      </trkpt>
      <trkpt lat="38.2093410" lon="-2.6980940">
        <ele>976.8</ele>
        <time>2020-07-15T06:50:21Z</time>
      </trkpt>
      <trkpt lat="38.2094040" lon="-2.6982540">
        <ele>976.6</ele>
        <time>2020-07-15T06:50:23Z</time>
      </trkpt>
      <trkpt lat="38.2094830" lon="-2.6983970">
        <ele>976.4</ele>
        <time>2020-07-15T06:50:25Z</time>
      </trkpt>
      <trkpt lat="38.2095120" lon="-2.6984730">
        <ele>976.2</ele>
        <time>2020-07-15T06:50:26Z</time>
      </trkpt>
      <trkpt lat="38.2096100" lon="-2.6985950">
        <ele>976.2</ele>
        <time>2020-07-15T06:50:28Z</time>
      </trkpt>
      <trkpt lat="38.2097110" lon="-2.6986930">
        <ele>976.0</ele>
        <time>2020-07-15T06:50:30Z</time>
      </trkpt>
      <trkpt lat="38.2099510" lon="-2.6988340">
        <ele>975.8</ele>
        <time>2020-07-15T06:50:33Z</time>
      </trkpt>
      <trkpt lat="38.2100380" lon="-2.6989810">
        <ele>975.6</ele>
        <time>2020-07-15T06:50:35Z</time>
      </trkpt>
      <trkpt lat="38.2100450" lon="-2.6990660">
        <ele>975.6</ele>
        <time>2020-07-15T06:50:36Z</time>
      </trkpt>
      <trkpt lat="38.2099750" lon="-2.6992010">
        <ele>975.6</ele>
        <time>2020-07-15T06:50:38Z</time>
      </trkpt>
      <trkpt lat="38.2099140" lon="-2.6992470">
        <ele>975.4</ele>
        <time>2020-07-15T06:50:39Z</time>
      </trkpt>
      <trkpt lat="38.2097870" lon="-2.6993510">
        <ele>975.2</ele>
        <time>2020-07-15T06:50:41Z</time>
      </trkpt>
      <trkpt lat="38.2097230" lon="-2.6995190">
        <ele>975.0</ele>
        <time>2020-07-15T06:50:43Z</time>
      </trkpt>
      <trkpt lat="38.2097460" lon="-2.6996910">
        <ele>974.6</ele>
        <time>2020-07-15T06:50:45Z</time>
      </trkpt>
      <trkpt lat="38.2097560" lon="-2.6997710">
        <ele>974.4</ele>
        <time>2020-07-15T06:50:46Z</time>
      </trkpt>
      <trkpt lat="38.2097970" lon="-2.6998430">
        <ele>974.4</ele>
        <time>2020-07-15T06:50:47Z</time>
      </trkpt>
      <trkpt lat="38.2098650" lon="-2.7000160">
        <ele>974.6</ele>
        <time>2020-07-15T06:50:49Z</time>
      </trkpt>
      <trkpt lat="38.2098790" lon="-2.7001840">
        <ele>974.8</ele>
        <time>2020-07-15T06:50:51Z</time>
      </trkpt>
      <trkpt lat="38.2098730" lon="-2.7003500">
        <ele>975.2</ele>
        <time>2020-07-15T06:50:53Z</time>
      </trkpt>
      <trkpt lat="38.2098660" lon="-2.7004300">
        <ele>975.2</ele>
        <time>2020-07-15T06:50:54Z</time>
      </trkpt>
      <trkpt lat="38.2098760" lon="-2.7007580">
        <ele>975.6</ele>
        <time>2020-07-15T06:50:58Z</time>
      </trkpt>
      <trkpt lat="38.2099000" lon="-2.7009450">
        <ele>975.8</ele>
        <time>2020-07-15T06:51:00Z</time>
      </trkpt>
      <trkpt lat="38.2099130" lon="-2.7010370">
        <ele>975.8</ele>
        <time>2020-07-15T06:51:01Z</time>
      </trkpt>
      <trkpt lat="38.2099540" lon="-2.7012110">
        <ele>976.0</ele>
        <time>2020-07-15T06:51:03Z</time>
      </trkpt>
      <trkpt lat="38.2099760" lon="-2.7012920">
        <ele>976.0</ele>
        <time>2020-07-15T06:51:04Z</time>
      </trkpt>
      <trkpt lat="38.2100980" lon="-2.7017050">
        <ele>976.4</ele>
        <time>2020-07-15T06:51:09Z</time>
      </trkpt>
      <trkpt lat="38.2100950" lon="-2.7018730">
        <ele>976.6</ele>
        <time>2020-07-15T06:51:11Z</time>
      </trkpt>
      <trkpt lat="38.2100770" lon="-2.7019500">
        <ele>976.6</ele>
        <time>2020-07-15T06:51:12Z</time>
      </trkpt>
      <trkpt lat="38.2100180" lon="-2.7020050">
        <ele>976.6</ele>
        <time>2020-07-15T06:51:13Z</time>
      </trkpt>
      <trkpt lat="38.2099560" lon="-2.7020430">
        <ele>976.8</ele>
        <time>2020-07-15T06:51:14Z</time>
      </trkpt>
      <trkpt lat="38.2095140" lon="-2.7022300">
        <ele>976.2</ele>
        <time>2020-07-15T06:51:20Z</time>
      </trkpt>
      <trkpt lat="38.2092990" lon="-2.7023290">
        <ele>975.6</ele>
        <time>2020-07-15T06:51:23Z</time>
      </trkpt>
      <trkpt lat="38.2090510" lon="-2.7024720">
        <ele>974.8</ele>
        <time>2020-07-15T06:51:26Z</time>
      </trkpt>
      <trkpt lat="38.2089730" lon="-2.7025260">
        <ele>974.4</ele>
        <time>2020-07-15T06:51:27Z</time>
      </trkpt>
      <trkpt lat="38.2089040" lon="-2.7025960">
        <ele>974.0</ele>
        <time>2020-07-15T06:51:28Z</time>
      </trkpt>
      <trkpt lat="38.2087580" lon="-2.7027620">
        <ele>973.4</ele>
        <time>2020-07-15T06:51:30Z</time>
      </trkpt>
      <trkpt lat="38.2086860" lon="-2.7028400">
        <ele>972.8</ele>
        <time>2020-07-15T06:51:31Z</time>
      </trkpt>
      <trkpt lat="38.2085240" lon="-2.7029420">
        <ele>972.4</ele>
        <time>2020-07-15T06:51:33Z</time>
      </trkpt>
      <trkpt lat="38.2084350" lon="-2.7029670">
        <ele>972.0</ele>
        <time>2020-07-15T06:51:34Z</time>
      </trkpt>
      <trkpt lat="38.2083430" lon="-2.7029580">
        <ele>971.8</ele>
        <time>2020-07-15T06:51:35Z</time>
      </trkpt>
      <trkpt lat="38.2081610" lon="-2.7029470">
        <ele>971.2</ele>
        <time>2020-07-15T06:51:37Z</time>
      </trkpt>
      <trkpt lat="38.2080700" lon="-2.7029360">
        <ele>971.0</ele>
        <time>2020-07-15T06:51:38Z</time>
      </trkpt>
      <trkpt lat="38.2077130" lon="-2.7028980">
        <ele>970.0</ele>
        <time>2020-07-15T06:51:42Z</time>
      </trkpt>
      <trkpt lat="38.2076330" lon="-2.7028490">
        <ele>969.6</ele>
        <time>2020-07-15T06:51:43Z</time>
      </trkpt>
      <trkpt lat="38.2074800" lon="-2.7027670">
        <ele>969.2</ele>
        <time>2020-07-15T06:51:45Z</time>
      </trkpt>
      <trkpt lat="38.2073600" lon="-2.7027720">
        <ele>969.0</ele>
        <time>2020-07-15T06:51:47Z</time>
      </trkpt>
      <trkpt lat="38.2073410" lon="-2.7028620">
        <ele>968.6</ele>
        <time>2020-07-15T06:51:48Z</time>
      </trkpt>
      <trkpt lat="38.2073460" lon="-2.7029360">
        <ele>968.2</ele>
        <time>2020-07-15T06:51:49Z</time>
      </trkpt>
      <trkpt lat="38.2074530" lon="-2.7030410">
        <ele>967.6</ele>
        <time>2020-07-15T06:51:51Z</time>
      </trkpt>
      <trkpt lat="38.2075320" lon="-2.7030500">
        <ele>967.0</ele>
        <time>2020-07-15T06:51:52Z</time>
      </trkpt>
      <trkpt lat="38.2076950" lon="-2.7031040">
        <ele>966.2</ele>
        <time>2020-07-15T06:51:54Z</time>
      </trkpt>
      <trkpt lat="38.2077800" lon="-2.7031330">
        <ele>965.8</ele>
        <time>2020-07-15T06:51:55Z</time>
      </trkpt>
      <trkpt lat="38.2080520" lon="-2.7032220">
        <ele>964.2</ele>
        <time>2020-07-15T06:51:58Z</time>
      </trkpt>
      <trkpt lat="38.2082650" lon="-2.7032960">
        <ele>962.8</ele>
        <time>2020-07-15T06:52:00Z</time>
      </trkpt>
      <trkpt lat="38.2084750" lon="-2.7033680">
        <ele>961.4</ele>
        <time>2020-07-15T06:52:02Z</time>
      </trkpt>
      <trkpt lat="38.2085860" lon="-2.7034070">
        <ele>960.2</ele>
        <time>2020-07-15T06:52:03Z</time>
      </trkpt>
      <trkpt lat="38.2088120" lon="-2.7034620">
        <ele>958.8</ele>
        <time>2020-07-15T06:52:05Z</time>
      </trkpt>
      <trkpt lat="38.2089280" lon="-2.7034660">
        <ele>958.2</ele>
        <time>2020-07-15T06:52:06Z</time>
      </trkpt>
      <trkpt lat="38.2090430" lon="-2.7034600">
        <ele>957.8</ele>
        <time>2020-07-15T06:52:07Z</time>
      </trkpt>
      <trkpt lat="38.2091630" lon="-2.7034230">
        <ele>957.2</ele>
        <time>2020-07-15T06:52:08Z</time>
      </trkpt>
      <trkpt lat="38.2092770" lon="-2.7033930">
        <ele>956.6</ele>
        <time>2020-07-15T06:52:09Z</time>
      </trkpt>
      <trkpt lat="38.2093890" lon="-2.7033620">
        <ele>956.2</ele>
        <time>2020-07-15T06:52:10Z</time>
      </trkpt>
      <trkpt lat="38.2094870" lon="-2.7033560">
        <ele>955.4</ele>
        <time>2020-07-15T06:52:11Z</time>
      </trkpt>
      <trkpt lat="38.2096820" lon="-2.7033960">
        <ele>954.0</ele>
        <time>2020-07-15T06:52:13Z</time>
      </trkpt>
      <trkpt lat="38.2098330" lon="-2.7035350">
        <ele>953.0</ele>
        <time>2020-07-15T06:52:15Z</time>
      </trkpt>
      <trkpt lat="38.2098960" lon="-2.7036230">
        <ele>952.6</ele>
        <time>2020-07-15T06:52:16Z</time>
      </trkpt>
      <trkpt lat="38.2100770" lon="-2.7038990">
        <ele>951.8</ele>
        <time>2020-07-15T06:52:19Z</time>
      </trkpt>
      <trkpt lat="38.2102220" lon="-2.7041960">
        <ele>951.0</ele>
        <time>2020-07-15T06:52:22Z</time>
      </trkpt>
      <trkpt lat="38.2102490" lon="-2.7043140">
        <ele>950.6</ele>
        <time>2020-07-15T06:52:23Z</time>
      </trkpt>
      <trkpt lat="38.2102590" lon="-2.7044350">
        <ele>950.2</ele>
        <time>2020-07-15T06:52:24Z</time>
      </trkpt>
      <trkpt lat="38.2102120" lon="-2.7046750">
        <ele>949.6</ele>
        <time>2020-07-15T06:52:26Z</time>
      </trkpt>
      <trkpt lat="38.2101780" lon="-2.7047920">
        <ele>949.4</ele>
        <time>2020-07-15T06:52:27Z</time>
      </trkpt>
      <trkpt lat="38.2100830" lon="-2.7049990">
        <ele>948.4</ele>
        <time>2020-07-15T06:52:29Z</time>
      </trkpt>
      <trkpt lat="38.2100210" lon="-2.7050880">
        <ele>948.0</ele>
        <time>2020-07-15T06:52:30Z</time>
      </trkpt>
      <trkpt lat="38.2097910" lon="-2.7053010">
        <ele>947.2</ele>
        <time>2020-07-15T06:52:33Z</time>
      </trkpt>
      <trkpt lat="38.2097120" lon="-2.7053680">
        <ele>947.0</ele>
        <time>2020-07-15T06:52:34Z</time>
      </trkpt>
      <trkpt lat="38.2094570" lon="-2.7055500">
        <ele>946.0</ele>
        <time>2020-07-15T06:52:37Z</time>
      </trkpt>
      <trkpt lat="38.2093760" lon="-2.7056280">
        <ele>945.6</ele>
        <time>2020-07-15T06:52:38Z</time>
      </trkpt>
      <trkpt lat="38.2092960" lon="-2.7057090">
        <ele>945.2</ele>
        <time>2020-07-15T06:52:39Z</time>
      </trkpt>
      <trkpt lat="38.2092190" lon="-2.7057900">
        <ele>944.8</ele>
        <time>2020-07-15T06:52:40Z</time>
      </trkpt>
      <trkpt lat="38.2090210" lon="-2.7060690">
        <ele>943.4</ele>
        <time>2020-07-15T06:52:43Z</time>
      </trkpt>
      <trkpt lat="38.2089780" lon="-2.7061790">
        <ele>943.0</ele>
        <time>2020-07-15T06:52:44Z</time>
      </trkpt>
      <trkpt lat="38.2089400" lon="-2.7062940">
        <ele>942.4</ele>
        <time>2020-07-15T06:52:45Z</time>
      </trkpt>
      <trkpt lat="38.2089150" lon="-2.7064200">
        <ele>942.0</ele>
        <time>2020-07-15T06:52:46Z</time>
      </trkpt>
      <trkpt lat="38.2088550" lon="-2.7066820">
        <ele>940.4</ele>
        <time>2020-07-15T06:52:48Z</time>
      </trkpt>
      <trkpt lat="38.2088190" lon="-2.7068130">
        <ele>939.8</ele>
        <time>2020-07-15T06:52:49Z</time>
      </trkpt>
      <trkpt lat="38.2087610" lon="-2.7069380">
        <ele>938.8</ele>
        <time>2020-07-15T06:52:50Z</time>
      </trkpt>
      <trkpt lat="38.2086430" lon="-2.7071950">
        <ele>937.6</ele>
        <time>2020-07-15T06:52:52Z</time>
      </trkpt>
      <trkpt lat="38.2085680" lon="-2.7073310">
        <ele>936.4</ele>
        <time>2020-07-15T06:52:53Z</time>
      </trkpt>
      <trkpt lat="38.2084240" lon="-2.7075890">
        <ele>934.6</ele>
        <time>2020-07-15T06:52:55Z</time>
      </trkpt>
      <trkpt lat="38.2083510" lon="-2.7077080">
        <ele>933.6</ele>
        <time>2020-07-15T06:52:56Z</time>
      </trkpt>
      <trkpt lat="38.2082780" lon="-2.7078230">
        <ele>933.0</ele>
        <time>2020-07-15T06:52:57Z</time>
      </trkpt>
      <trkpt lat="38.2081350" lon="-2.7080620">
        <ele>930.8</ele>
        <time>2020-07-15T06:52:59Z</time>
      </trkpt>
      <trkpt lat="38.2080780" lon="-2.7081910">
        <ele>929.8</ele>
        <time>2020-07-15T06:53:00Z</time>
      </trkpt>
      <trkpt lat="38.2080310" lon="-2.7083320">
        <ele>928.8</ele>
        <time>2020-07-15T06:53:01Z</time>
      </trkpt>
      <trkpt lat="38.2079580" lon="-2.7086260">
        <ele>926.6</ele>
        <time>2020-07-15T06:53:03Z</time>
      </trkpt>
      <trkpt lat="38.2079230" lon="-2.7087770">
        <ele>925.6</ele>
        <time>2020-07-15T06:53:04Z</time>
      </trkpt>
      <trkpt lat="38.2078200" lon="-2.7090680">
        <ele>924.0</ele>
        <time>2020-07-15T06:53:06Z</time>
      </trkpt>
      <trkpt lat="38.2077640" lon="-2.7092070">
        <ele>923.0</ele>
        <time>2020-07-15T06:53:07Z</time>
      </trkpt>
      <trkpt lat="38.2076850" lon="-2.7093420">
        <ele>921.6</ele>
        <time>2020-07-15T06:53:08Z</time>
      </trkpt>
      <trkpt lat="38.2076080" lon="-2.7094660">
        <ele>920.4</ele>
        <time>2020-07-15T06:53:09Z</time>
      </trkpt>
      <trkpt lat="38.2075280" lon="-2.7095750">
        <ele>919.8</ele>
        <time>2020-07-15T06:53:10Z</time>
      </trkpt>
      <trkpt lat="38.2074440" lon="-2.7096820">
        <ele>918.2</ele>
        <time>2020-07-15T06:53:11Z</time>
      </trkpt>
      <trkpt lat="38.2073180" lon="-2.7098770">
        <ele>916.4</ele>
        <time>2020-07-15T06:53:13Z</time>
      </trkpt>
      <trkpt lat="38.2072890" lon="-2.7099810">
        <ele>915.6</ele>
        <time>2020-07-15T06:53:14Z</time>
      </trkpt>
      <trkpt lat="38.2072860" lon="-2.7100950">
        <ele>914.8</ele>
        <time>2020-07-15T06:53:15Z</time>
      </trkpt>
      <trkpt lat="38.2073110" lon="-2.7103130">
        <ele>913.6</ele>
        <time>2020-07-15T06:53:17Z</time>
      </trkpt>
      <trkpt lat="38.2073570" lon="-2.7105340">
        <ele>912.2</ele>
        <time>2020-07-15T06:53:19Z</time>
      </trkpt>
      <trkpt lat="38.2074240" lon="-2.7108700">
        <ele>911.2</ele>
        <time>2020-07-15T06:53:22Z</time>
      </trkpt>
      <trkpt lat="38.2074450" lon="-2.7109840">
        <ele>911.0</ele>
        <time>2020-07-15T06:53:23Z</time>
      </trkpt>
      <trkpt lat="38.2075080" lon="-2.7111930">
        <ele>910.6</ele>
        <time>2020-07-15T06:53:25Z</time>
      </trkpt>
      <trkpt lat="38.2075610" lon="-2.7112760">
        <ele>910.4</ele>
        <time>2020-07-15T06:53:26Z</time>
      </trkpt>
      <trkpt lat="38.2076920" lon="-2.7113950">
        <ele>910.0</ele>
        <time>2020-07-15T06:53:28Z</time>
      </trkpt>
      <trkpt lat="38.2077860" lon="-2.7114080">
        <ele>909.6</ele>
        <time>2020-07-15T06:53:29Z</time>
      </trkpt>
      <trkpt lat="38.2078730" lon="-2.7114330">
        <ele>909.6</ele>
        <time>2020-07-15T06:53:30Z</time>
      </trkpt>
      <trkpt lat="38.2079450" lon="-2.7114930">
        <ele>909.4</ele>
        <time>2020-07-15T06:53:31Z</time>
      </trkpt>
      <trkpt lat="38.2080020" lon="-2.7115700">
        <ele>909.0</ele>
        <time>2020-07-15T06:53:32Z</time>
      </trkpt>
      <trkpt lat="38.2080800" lon="-2.7117550">
        <ele>908.6</ele>
        <time>2020-07-15T06:53:34Z</time>
      </trkpt>
      <trkpt lat="38.2080620" lon="-2.7118620">
        <ele>908.2</ele>
        <time>2020-07-15T06:53:35Z</time>
      </trkpt>
      <trkpt lat="38.2080570" lon="-2.7120580">
        <ele>908.0</ele>
        <time>2020-07-15T06:53:37Z</time>
      </trkpt>
      <trkpt lat="38.2080330" lon="-2.7121420">
        <ele>908.2</ele>
        <time>2020-07-15T06:53:38Z</time>
      </trkpt>
      <trkpt lat="38.2080160" lon="-2.7122350">
        <ele>908.2</ele>
        <time>2020-07-15T06:53:39Z</time>
      </trkpt>
      <trkpt lat="38.2079720" lon="-2.7125060">
        <ele>908.2</ele>
        <time>2020-07-15T06:53:42Z</time>
      </trkpt>
      <trkpt lat="38.2079510" lon="-2.7127830">
        <ele>908.4</ele>
        <time>2020-07-15T06:53:45Z</time>
      </trkpt>
      <trkpt lat="38.2079620" lon="-2.7128750">
        <ele>908.4</ele>
        <time>2020-07-15T06:53:46Z</time>
      </trkpt>
      <trkpt lat="38.2080190" lon="-2.7130450">
        <ele>908.4</ele>
        <time>2020-07-15T06:53:48Z</time>
      </trkpt>
      <trkpt lat="38.2080690" lon="-2.7131060">
        <ele>908.4</ele>
        <time>2020-07-15T06:53:49Z</time>
      </trkpt>
      <trkpt lat="38.2081980" lon="-2.7132010">
        <ele>908.4</ele>
        <time>2020-07-15T06:53:51Z</time>
      </trkpt>
      <trkpt lat="38.2082660" lon="-2.7132430">
        <ele>908.4</ele>
        <time>2020-07-15T06:53:52Z</time>
      </trkpt>
      <trkpt lat="38.2083450" lon="-2.7132830">
        <ele>908.0</ele>
        <time>2020-07-15T06:53:53Z</time>
      </trkpt>
      <trkpt lat="38.2084170" lon="-2.7133350">
        <ele>907.8</ele>
        <time>2020-07-15T06:53:54Z</time>
      </trkpt>
      <trkpt lat="38.2084840" lon="-2.7134080">
        <ele>907.4</ele>
        <time>2020-07-15T06:53:55Z</time>
      </trkpt>
      <trkpt lat="38.2085230" lon="-2.7135050">
        <ele>907.0</ele>
        <time>2020-07-15T06:53:56Z</time>
      </trkpt>
      <trkpt lat="38.2085450" lon="-2.7137330">
        <ele>906.4</ele>
        <time>2020-07-15T06:53:58Z</time>
      </trkpt>
      <trkpt lat="38.2084930" lon="-2.7138480">
        <ele>905.6</ele>
        <time>2020-07-15T06:53:59Z</time>
      </trkpt>
      <trkpt lat="38.2084130" lon="-2.7139150">
        <ele>905.0</ele>
        <time>2020-07-15T06:54:00Z</time>
      </trkpt>
      <trkpt lat="38.2083240" lon="-2.7139790">
        <ele>904.4</ele>
        <time>2020-07-15T06:54:01Z</time>
      </trkpt>
      <trkpt lat="38.2082290" lon="-2.7140480">
        <ele>903.4</ele>
        <time>2020-07-15T06:54:02Z</time>
      </trkpt>
      <trkpt lat="38.2081300" lon="-2.7141330">
        <ele>902.8</ele>
        <time>2020-07-15T06:54:03Z</time>
      </trkpt>
      <trkpt lat="38.2080390" lon="-2.7142170">
        <ele>902.2</ele>
        <time>2020-07-15T06:54:04Z</time>
      </trkpt>
      <trkpt lat="38.2079400" lon="-2.7143140">
        <ele>901.6</ele>
        <time>2020-07-15T06:54:05Z</time>
      </trkpt>
      <trkpt lat="38.2078540" lon="-2.7144030">
        <ele>901.0</ele>
        <time>2020-07-15T06:54:06Z</time>
      </trkpt>
      <trkpt lat="38.2077310" lon="-2.7145990">
        <ele>899.6</ele>
        <time>2020-07-15T06:54:08Z</time>
      </trkpt>
      <trkpt lat="38.2077030" lon="-2.7147190">
        <ele>899.0</ele>
        <time>2020-07-15T06:54:09Z</time>
      </trkpt>
      <trkpt lat="38.2076860" lon="-2.7148410">
        <ele>898.0</ele>
        <time>2020-07-15T06:54:10Z</time>
      </trkpt>
      <trkpt lat="38.2076870" lon="-2.7149640">
        <ele>897.2</ele>
        <time>2020-07-15T06:54:11Z</time>
      </trkpt>
      <trkpt lat="38.2076870" lon="-2.7150830">
        <ele>896.4</ele>
        <time>2020-07-15T06:54:12Z</time>
      </trkpt>
      <trkpt lat="38.2077300" lon="-2.7151890">
        <ele>895.6</ele>
        <time>2020-07-15T06:54:13Z</time>
      </trkpt>
      <trkpt lat="38.2077850" lon="-2.7152860">
        <ele>894.8</ele>
        <time>2020-07-15T06:54:14Z</time>
      </trkpt>
      <trkpt lat="38.2079410" lon="-2.7154340">
        <ele>893.6</ele>
        <time>2020-07-15T06:54:16Z</time>
      </trkpt>
      <trkpt lat="38.2080360" lon="-2.7154960">
        <ele>892.6</ele>
        <time>2020-07-15T06:54:17Z</time>
      </trkpt>
      <trkpt lat="38.2082350" lon="-2.7156190">
        <ele>891.0</ele>
        <time>2020-07-15T06:54:19Z</time>
      </trkpt>
      <trkpt lat="38.2084400" lon="-2.7157340">
        <ele>889.8</ele>
        <time>2020-07-15T06:54:21Z</time>
      </trkpt>
      <trkpt lat="38.2085400" lon="-2.7157910">
        <ele>889.2</ele>
        <time>2020-07-15T06:54:22Z</time>
      </trkpt>
      <trkpt lat="38.2086460" lon="-2.7158520">
        <ele>888.4</ele>
        <time>2020-07-15T06:54:23Z</time>
      </trkpt>
      <trkpt lat="38.2088510" lon="-2.7159660">
        <ele>887.4</ele>
        <time>2020-07-15T06:54:25Z</time>
      </trkpt>
      <trkpt lat="38.2090510" lon="-2.7160750">
        <ele>886.2</ele>
        <time>2020-07-15T06:54:27Z</time>
      </trkpt>
      <trkpt lat="38.2093540" lon="-2.7162430">
        <ele>885.0</ele>
        <time>2020-07-15T06:54:30Z</time>
      </trkpt>
      <trkpt lat="38.2098160" lon="-2.7165130">
        <ele>883.8</ele>
        <time>2020-07-15T06:54:35Z</time>
      </trkpt>
      <trkpt lat="38.2099000" lon="-2.7165590">
        <ele>884.0</ele>
        <time>2020-07-15T06:54:36Z</time>
      </trkpt>
      <trkpt lat="38.2101360" lon="-2.7166600">
        <ele>884.4</ele>
        <time>2020-07-15T06:54:39Z</time>
      </trkpt>
      <trkpt lat="38.2102870" lon="-2.7166890">
        <ele>885.0</ele>
        <time>2020-07-15T06:54:41Z</time>
      </trkpt>
      <trkpt lat="38.2105030" lon="-2.7167200">
        <ele>885.8</ele>
        <time>2020-07-15T06:54:44Z</time>
      </trkpt>
      <trkpt lat="38.2106410" lon="-2.7167380">
        <ele>886.2</ele>
        <time>2020-07-15T06:54:46Z</time>
      </trkpt>
      <trkpt lat="38.2107830" lon="-2.7167550">
        <ele>886.6</ele>
        <time>2020-07-15T06:54:48Z</time>
      </trkpt>
      <trkpt lat="38.2109220" lon="-2.7167720">
        <ele>887.0</ele>
        <time>2020-07-15T06:54:50Z</time>
      </trkpt>
      <trkpt lat="38.2109900" lon="-2.7167800">
        <ele>887.2</ele>
        <time>2020-07-15T06:54:51Z</time>
      </trkpt>
      <trkpt lat="38.2111250" lon="-2.7167990">
        <ele>887.4</ele>
        <time>2020-07-15T06:54:53Z</time>
      </trkpt>
      <trkpt lat="38.2113180" lon="-2.7168360">
        <ele>887.8</ele>
        <time>2020-07-15T06:54:56Z</time>
      </trkpt>
      <trkpt lat="38.2113760" lon="-2.7168550">
        <ele>887.8</ele>
        <time>2020-07-15T06:54:57Z</time>
      </trkpt>
      <trkpt lat="38.2115490" lon="-2.7169410">
        <ele>888.2</ele>
        <time>2020-07-15T06:55:00Z</time>
      </trkpt>
      <trkpt lat="38.2116480" lon="-2.7170180">
        <ele>888.4</ele>
        <time>2020-07-15T06:55:02Z</time>
      </trkpt>
      <trkpt lat="38.2121050" lon="-2.7173870">
        <ele>888.6</ele>
        <time>2020-07-15T06:55:11Z</time>
      </trkpt>
      <trkpt lat="38.2121590" lon="-2.7174190">
        <ele>888.6</ele>
        <time>2020-07-15T06:55:12Z</time>
      </trkpt>
      <trkpt lat="38.2122200" lon="-2.7174340">
        <ele>888.6</ele>
        <time>2020-07-15T06:55:13Z</time>
      </trkpt>
      <trkpt lat="38.2123990" lon="-2.7174600">
        <ele>888.8</ele>
        <time>2020-07-15T06:55:16Z</time>
      </trkpt>
      <trkpt lat="38.2128750" lon="-2.7174860">
        <ele>889.6</ele>
        <time>2020-07-15T06:55:24Z</time>
      </trkpt>
      <trkpt lat="38.2130350" lon="-2.7174950">
        <ele>890.0</ele>
        <time>2020-07-15T06:55:27Z</time>
      </trkpt>
      <trkpt lat="38.2133800" lon="-2.7175110">
        <ele>890.6</ele>
        <time>2020-07-15T06:55:34Z</time>
      </trkpt>
      <trkpt lat="38.2135930" lon="-2.7174790">
        <ele>891.2</ele>
        <time>2020-07-15T06:55:38Z</time>
      </trkpt>
      <trkpt lat="38.2136610" lon="-2.7174570">
        <ele>891.0</ele>
        <time>2020-07-15T06:55:39Z</time>
      </trkpt>
      <trkpt lat="38.2137360" lon="-2.7174220">
        <ele>890.8</ele>
        <time>2020-07-15T06:55:40Z</time>
      </trkpt>
      <trkpt lat="38.2139610" lon="-2.7173200">
        <ele>889.6</ele>
        <time>2020-07-15T06:55:43Z</time>
      </trkpt>
      <trkpt lat="38.2140270" lon="-2.7172900">
        <ele>889.0</ele>
        <time>2020-07-15T06:55:44Z</time>
      </trkpt>
      <trkpt lat="38.2140850" lon="-2.7172700">
        <ele>888.4</ele>
        <time>2020-07-15T06:55:45Z</time>
      </trkpt>
      <trkpt lat="38.2141810" lon="-2.7172510">
        <ele>887.4</ele>
        <time>2020-07-15T06:55:47Z</time>
      </trkpt>
      <trkpt lat="38.2142100" lon="-2.7172480">
        <ele>886.4</ele>
        <time>2020-07-15T06:55:48Z</time>
      </trkpt>
      <trkpt lat="38.2142380" lon="-2.7172470">
        <ele>886.0</ele>
        <time>2020-07-15T06:55:49Z</time>
      </trkpt>
      <trkpt lat="38.2142920" lon="-2.7172430">
        <ele>885.0</ele>
        <time>2020-07-15T06:55:51Z</time>
      </trkpt>
      <trkpt lat="38.2143190" lon="-2.7172400">
        <ele>884.8</ele>
        <time>2020-07-15T06:55:52Z</time>
      </trkpt>
      <trkpt lat="38.2143250" lon="-2.7172430">
        <ele>884.0</ele>
        <time>2020-07-15T06:55:54Z</time>
      </trkpt>
      <trkpt lat="38.2143260" lon="-2.7172440">
        <ele>883.6</ele>
        <time>2020-07-15T06:55:55Z</time>
      </trkpt>
      <trkpt lat="38.2143830" lon="-2.7172530">
        <ele>882.6</ele>
        <time>2020-07-15T06:58:25Z</time>
      </trkpt>
      <trkpt lat="38.2144090" lon="-2.7172570">
        <ele>882.6</ele>
        <time>2020-07-15T06:58:26Z</time>
      </trkpt>
      <trkpt lat="38.2144370" lon="-2.7172590">
        <ele>882.4</ele>
        <time>2020-07-15T06:58:27Z</time>
      </trkpt>
      <trkpt lat="38.2146260" lon="-2.7172770">
        <ele>881.6</ele>
        <time>2020-07-15T06:58:32Z</time>
      </trkpt>
      <trkpt lat="38.2146750" lon="-2.7172850">
        <ele>881.4</ele>
        <time>2020-07-15T06:58:33Z</time>
      </trkpt>
      <trkpt lat="38.2148990" lon="-2.7173100">
        <ele>880.4</ele>
        <time>2020-07-15T06:58:37Z</time>
      </trkpt>
      <trkpt lat="38.2149680" lon="-2.7173070">
        <ele>880.0</ele>
        <time>2020-07-15T06:58:38Z</time>
      </trkpt>
      <trkpt lat="38.2150970" lon="-2.7172700">
        <ele>879.2</ele>
        <time>2020-07-15T06:58:40Z</time>
      </trkpt>
      <trkpt lat="38.2152440" lon="-2.7171890">
        <ele>878.2</ele>
        <time>2020-07-15T06:58:42Z</time>
      </trkpt>
      <trkpt lat="38.2153970" lon="-2.7171050">
        <ele>877.2</ele>
        <time>2020-07-15T06:58:44Z</time>
      </trkpt>
      <trkpt lat="38.2155340" lon="-2.7170270">
        <ele>876.0</ele>
        <time>2020-07-15T06:58:46Z</time>
      </trkpt>
      <trkpt lat="38.2156620" lon="-2.7169650">
        <ele>874.8</ele>
        <time>2020-07-15T06:58:48Z</time>
      </trkpt>
      <trkpt lat="38.2157700" lon="-2.7169540">
        <ele>873.6</ele>
        <time>2020-07-15T06:58:50Z</time>
      </trkpt>
      <trkpt lat="38.2158190" lon="-2.7169690">
        <ele>873.0</ele>
        <time>2020-07-15T06:58:51Z</time>
      </trkpt>
      <trkpt lat="38.2158610" lon="-2.7169980">
        <ele>872.4</ele>
        <time>2020-07-15T06:58:52Z</time>
      </trkpt>
      <trkpt lat="38.2159410" lon="-2.7171080">
        <ele>871.0</ele>
        <time>2020-07-15T06:58:54Z</time>
      </trkpt>
      <trkpt lat="38.2160080" lon="-2.7172380">
        <ele>870.0</ele>
        <time>2020-07-15T06:58:56Z</time>
      </trkpt>
      <trkpt lat="38.2161050" lon="-2.7173900">
        <ele>868.6</ele>
        <time>2020-07-15T06:58:59Z</time>
      </trkpt>
      <trkpt lat="38.2161310" lon="-2.7174180">
        <ele>868.0</ele>
        <time>2020-07-15T06:59:00Z</time>
      </trkpt>
      <trkpt lat="38.2161600" lon="-2.7174370">
        <ele>867.4</ele>
        <time>2020-07-15T06:59:01Z</time>
      </trkpt>
      <trkpt lat="38.2161850" lon="-2.7174360">
        <ele>867.0</ele>
        <time>2020-07-15T06:59:02Z</time>
      </trkpt>
      <trkpt lat="38.2162440" lon="-2.7173820">
        <ele>865.8</ele>
        <time>2020-07-15T06:59:04Z</time>
      </trkpt>
      <trkpt lat="38.2162680" lon="-2.7173420">
        <ele>865.4</ele>
        <time>2020-07-15T06:59:05Z</time>
      </trkpt>
      <trkpt lat="38.2162930" lon="-2.7173020">
        <ele>865.2</ele>
        <time>2020-07-15T06:59:06Z</time>
      </trkpt>
      <trkpt lat="38.2163150" lon="-2.7172610">
        <ele>864.8</ele>
        <time>2020-07-15T06:59:07Z</time>
      </trkpt>
      <trkpt lat="38.2163360" lon="-2.7172110">
        <ele>864.4</ele>
        <time>2020-07-15T06:59:08Z</time>
      </trkpt>
      <trkpt lat="38.2163690" lon="-2.7171130">
        <ele>864.2</ele>
        <time>2020-07-15T06:59:10Z</time>
      </trkpt>
      <trkpt lat="38.2164130" lon="-2.7170200">
        <ele>863.6</ele>
        <time>2020-07-15T06:59:12Z</time>
      </trkpt>
      <trkpt lat="38.2164670" lon="-2.7169330">
        <ele>862.6</ele>
        <time>2020-07-15T06:59:15Z</time>
      </trkpt>
      <trkpt lat="38.2165110" lon="-2.7168740">
        <ele>861.6</ele>
        <time>2020-07-15T06:59:18Z</time>
      </trkpt>
      <trkpt lat="38.2165240" lon="-2.7168490">
        <ele>861.4</ele>
        <time>2020-07-15T06:59:19Z</time>
      </trkpt>
      <trkpt lat="38.2165600" lon="-2.7168030">
        <ele>861.0</ele>
        <time>2020-07-15T06:59:21Z</time>
      </trkpt>
      <trkpt lat="38.2166630" lon="-2.7167140">
        <ele>860.4</ele>
        <time>2020-07-15T06:59:25Z</time>
      </trkpt>
      <trkpt lat="38.2167240" lon="-2.7166790">
        <ele>860.0</ele>
        <time>2020-07-15T06:59:27Z</time>
      </trkpt>
      <trkpt lat="38.2168430" lon="-2.7166140">
        <ele>859.4</ele>
        <time>2020-07-15T06:59:30Z</time>
      </trkpt>
      <trkpt lat="38.2169420" lon="-2.7165630">
        <ele>858.8</ele>
        <time>2020-07-15T06:59:32Z</time>
      </trkpt>
      <trkpt lat="38.2170520" lon="-2.7165030">
        <ele>858.2</ele>
        <time>2020-07-15T06:59:34Z</time>
      </trkpt>
      <trkpt lat="38.2172410" lon="-2.7163770">
        <ele>857.4</ele>
        <time>2020-07-15T06:59:37Z</time>
      </trkpt>
      <trkpt lat="38.2173070" lon="-2.7163160">
        <ele>857.2</ele>
        <time>2020-07-15T06:59:38Z</time>
      </trkpt>
      <trkpt lat="38.2174820" lon="-2.7160940">
        <ele>856.0</ele>
        <time>2020-07-15T06:59:41Z</time>
      </trkpt>
      <trkpt lat="38.2176080" lon="-2.7159280">
        <ele>854.8</ele>
        <time>2020-07-15T06:59:43Z</time>
      </trkpt>
      <trkpt lat="38.2176780" lon="-2.7158560">
        <ele>854.4</ele>
        <time>2020-07-15T06:59:44Z</time>
      </trkpt>
      <trkpt lat="38.2177580" lon="-2.7157920">
        <ele>854.0</ele>
        <time>2020-07-15T06:59:45Z</time>
      </trkpt>
      <trkpt lat="38.2178410" lon="-2.7157440">
        <ele>853.4</ele>
        <time>2020-07-15T06:59:46Z</time>
      </trkpt>
      <trkpt lat="38.2180390" lon="-2.7156720">
        <ele>852.2</ele>
        <time>2020-07-15T06:59:48Z</time>
      </trkpt>
      <trkpt lat="38.2181410" lon="-2.7156390">
        <ele>851.6</ele>
        <time>2020-07-15T06:59:49Z</time>
      </trkpt>
      <trkpt lat="38.2182440" lon="-2.7155990">
        <ele>850.8</ele>
        <time>2020-07-15T06:59:50Z</time>
      </trkpt>
      <trkpt lat="38.2184430" lon="-2.7155060">
        <ele>849.6</ele>
        <time>2020-07-15T06:59:52Z</time>
      </trkpt>
      <trkpt lat="38.2185640" lon="-2.7154430">
        <ele>848.8</ele>
        <time>2020-07-15T06:59:53Z</time>
      </trkpt>
      <trkpt lat="38.2186730" lon="-2.7153820">
        <ele>848.0</ele>
        <time>2020-07-15T06:59:54Z</time>
      </trkpt>
      <trkpt lat="38.2188830" lon="-2.7152610">
        <ele>846.4</ele>
        <time>2020-07-15T06:59:56Z</time>
      </trkpt>
      <trkpt lat="38.2190910" lon="-2.7151450">
        <ele>845.0</ele>
        <time>2020-07-15T06:59:58Z</time>
      </trkpt>
      <trkpt lat="38.2192960" lon="-2.7150300">
        <ele>844.0</ele>
        <time>2020-07-15T07:00:00Z</time>
      </trkpt>
      <trkpt lat="38.2196430" lon="-2.7147910">
        <ele>843.0</ele>
        <time>2020-07-15T07:00:04Z</time>
      </trkpt>
      <trkpt lat="38.2197210" lon="-2.7147150">
        <ele>842.8</ele>
        <time>2020-07-15T07:00:05Z</time>
      </trkpt>
      <trkpt lat="38.2199820" lon="-2.7144090">
        <ele>843.0</ele>
        <time>2020-07-15T07:00:09Z</time>
      </trkpt>
      <trkpt lat="38.2201070" lon="-2.7142590">
        <ele>843.0</ele>
        <time>2020-07-15T07:00:11Z</time>
      </trkpt>
      <trkpt lat="38.2202250" lon="-2.7141090">
        <ele>842.8</ele>
        <time>2020-07-15T07:00:13Z</time>
      </trkpt>
      <trkpt lat="38.2204350" lon="-2.7137870">
        <ele>842.6</ele>
        <time>2020-07-15T07:00:17Z</time>
      </trkpt>
      <trkpt lat="38.2206290" lon="-2.7133940">
        <ele>841.8</ele>
        <time>2020-07-15T07:00:21Z</time>
      </trkpt>
      <trkpt lat="38.2207770" lon="-2.7130930">
        <ele>840.4</ele>
        <time>2020-07-15T07:00:24Z</time>
      </trkpt>
      <trkpt lat="38.2208840" lon="-2.7128950">
        <ele>839.6</ele>
        <time>2020-07-15T07:00:26Z</time>
      </trkpt>
      <trkpt lat="38.2209430" lon="-2.7128170">
        <ele>839.2</ele>
        <time>2020-07-15T07:00:27Z</time>
      </trkpt>
      <trkpt lat="38.2210150" lon="-2.7127440">
        <ele>839.0</ele>
        <time>2020-07-15T07:00:28Z</time>
      </trkpt>
      <trkpt lat="38.2212490" lon="-2.7125850">
        <ele>838.2</ele>
        <time>2020-07-15T07:00:31Z</time>
      </trkpt>
      <trkpt lat="38.2213150" lon="-2.7125890">
        <ele>837.8</ele>
        <time>2020-07-15T07:00:32Z</time>
      </trkpt>
      <trkpt lat="38.2214230" lon="-2.7127040">
        <ele>836.6</ele>
        <time>2020-07-15T07:00:34Z</time>
      </trkpt>
      <trkpt lat="38.2214170" lon="-2.7128950">
        <ele>835.4</ele>
        <time>2020-07-15T07:00:36Z</time>
      </trkpt>
      <trkpt lat="38.2213110" lon="-2.7130710">
        <ele>833.6</ele>
        <time>2020-07-15T07:00:38Z</time>
      </trkpt>
      <trkpt lat="38.2212460" lon="-2.7131590">
        <ele>832.8</ele>
        <time>2020-07-15T07:00:39Z</time>
      </trkpt>
      <trkpt lat="38.2211860" lon="-2.7132470">
        <ele>832.0</ele>
        <time>2020-07-15T07:00:40Z</time>
      </trkpt>
      <trkpt lat="38.2211220" lon="-2.7133580">
        <ele>831.2</ele>
        <time>2020-07-15T07:00:41Z</time>
      </trkpt>
      <trkpt lat="38.2210770" lon="-2.7134710">
        <ele>830.4</ele>
        <time>2020-07-15T07:00:42Z</time>
      </trkpt>
      <trkpt lat="38.2210450" lon="-2.7136090">
        <ele>829.8</ele>
        <time>2020-07-15T07:00:43Z</time>
      </trkpt>
      <trkpt lat="38.2210380" lon="-2.7137500">
        <ele>829.0</ele>
        <time>2020-07-15T07:00:44Z</time>
      </trkpt>
      <trkpt lat="38.2210550" lon="-2.7140350">
        <ele>827.4</ele>
        <time>2020-07-15T07:00:46Z</time>
      </trkpt>
      <trkpt lat="38.2210760" lon="-2.7143260">
        <ele>825.4</ele>
        <time>2020-07-15T07:00:48Z</time>
      </trkpt>
      <trkpt lat="38.2210750" lon="-2.7144650">
        <ele>824.4</ele>
        <time>2020-07-15T07:00:49Z</time>
      </trkpt>
      <trkpt lat="38.2210520" lon="-2.7145920">
        <ele>823.4</ele>
        <time>2020-07-15T07:00:50Z</time>
      </trkpt>
      <trkpt lat="38.2209350" lon="-2.7147990">
        <ele>821.4</ele>
        <time>2020-07-15T07:00:52Z</time>
      </trkpt>
      <trkpt lat="38.2207230" lon="-2.7149460">
        <ele>819.4</ele>
        <time>2020-07-15T07:00:54Z</time>
      </trkpt>
      <trkpt lat="38.2205170" lon="-2.7150930">
        <ele>817.6</ele>
        <time>2020-07-15T07:00:56Z</time>
      </trkpt>
      <trkpt lat="38.2204190" lon="-2.7151730">
        <ele>816.6</ele>
        <time>2020-07-15T07:00:57Z</time>
      </trkpt>
      <trkpt lat="38.2202060" lon="-2.7153450">
        <ele>814.8</ele>
        <time>2020-07-15T07:00:59Z</time>
      </trkpt>
      <trkpt lat="38.2200070" lon="-2.7155240">
        <ele>813.0</ele>
        <time>2020-07-15T07:01:01Z</time>
      </trkpt>
      <trkpt lat="38.2199200" lon="-2.7156240">
        <ele>812.0</ele>
        <time>2020-07-15T07:01:02Z</time>
      </trkpt>
      <trkpt lat="38.2198330" lon="-2.7157470">
        <ele>811.0</ele>
        <time>2020-07-15T07:01:03Z</time>
      </trkpt>
      <trkpt lat="38.2196830" lon="-2.7159970">
        <ele>809.0</ele>
        <time>2020-07-15T07:01:05Z</time>
      </trkpt>
      <trkpt lat="38.2195400" lon="-2.7162610">
        <ele>807.4</ele>
        <time>2020-07-15T07:01:07Z</time>
      </trkpt>
      <trkpt lat="38.2194690" lon="-2.7164010">
        <ele>806.4</ele>
        <time>2020-07-15T07:01:08Z</time>
      </trkpt>
      <trkpt lat="38.2194050" lon="-2.7165340">
        <ele>805.2</ele>
        <time>2020-07-15T07:01:09Z</time>
      </trkpt>
      <trkpt lat="38.2193450" lon="-2.7166630">
        <ele>804.2</ele>
        <time>2020-07-15T07:01:10Z</time>
      </trkpt>
      <trkpt lat="38.2192810" lon="-2.7168090">
        <ele>803.0</ele>
        <time>2020-07-15T07:01:11Z</time>
      </trkpt>
      <trkpt lat="38.2192310" lon="-2.7169360">
        <ele>802.0</ele>
        <time>2020-07-15T07:01:12Z</time>
      </trkpt>
      <trkpt lat="38.2191860" lon="-2.7170760">
        <ele>801.0</ele>
        <time>2020-07-15T07:01:13Z</time>
      </trkpt>
      <trkpt lat="38.2191530" lon="-2.7172160">
        <ele>800.0</ele>
        <time>2020-07-15T07:01:14Z</time>
      </trkpt>
      <trkpt lat="38.2191430" lon="-2.7175000">
        <ele>798.2</ele>
        <time>2020-07-15T07:01:16Z</time>
      </trkpt>
      <trkpt lat="38.2191980" lon="-2.7177930">
        <ele>796.2</ele>
        <time>2020-07-15T07:01:18Z</time>
      </trkpt>
      <trkpt lat="38.2192290" lon="-2.7179270">
        <ele>795.2</ele>
        <time>2020-07-15T07:01:19Z</time>
      </trkpt>
      <trkpt lat="38.2192810" lon="-2.7181600">
        <ele>793.4</ele>
        <time>2020-07-15T07:01:21Z</time>
      </trkpt>
      <trkpt lat="38.2193370" lon="-2.7183260">
        <ele>790.8</ele>
        <time>2020-07-15T07:01:23Z</time>
      </trkpt>
      <trkpt lat="38.2193710" lon="-2.7183750">
        <ele>789.6</ele>
        <time>2020-07-15T07:01:24Z</time>
      </trkpt>
      <trkpt lat="38.2194180" lon="-2.7183900">
        <ele>788.2</ele>
        <time>2020-07-15T07:01:25Z</time>
      </trkpt>
      <trkpt lat="38.2194740" lon="-2.7183670">
        <ele>786.8</ele>
        <time>2020-07-15T07:01:26Z</time>
      </trkpt>
      <trkpt lat="38.2195200" lon="-2.7183130">
        <ele>785.8</ele>
        <time>2020-07-15T07:01:27Z</time>
      </trkpt>
      <trkpt lat="38.2195530" lon="-2.7182300">
        <ele>784.8</ele>
        <time>2020-07-15T07:01:28Z</time>
      </trkpt>
      <trkpt lat="38.2195690" lon="-2.7181260">
        <ele>783.6</ele>
        <time>2020-07-15T07:01:29Z</time>
      </trkpt>
      <trkpt lat="38.2195860" lon="-2.7179070">
        <ele>781.6</ele>
        <time>2020-07-15T07:01:31Z</time>
      </trkpt>
      <trkpt lat="38.2196590" lon="-2.7176830">
        <ele>780.0</ele>
        <time>2020-07-15T07:01:33Z</time>
      </trkpt>
      <trkpt lat="38.2197190" lon="-2.7175870">
        <ele>779.4</ele>
        <time>2020-07-15T07:01:34Z</time>
      </trkpt>
      <trkpt lat="38.2197930" lon="-2.7174890">
        <ele>778.6</ele>
        <time>2020-07-15T07:01:35Z</time>
      </trkpt>
      <trkpt lat="38.2198720" lon="-2.7173890">
        <ele>777.8</ele>
        <time>2020-07-15T07:01:36Z</time>
      </trkpt>
      <trkpt lat="38.2199490" lon="-2.7172960">
        <ele>777.0</ele>
        <time>2020-07-15T07:01:37Z</time>
      </trkpt>
      <trkpt lat="38.2200390" lon="-2.7171900">
        <ele>776.2</ele>
        <time>2020-07-15T07:01:38Z</time>
      </trkpt>
      <trkpt lat="38.2201280" lon="-2.7170920">
        <ele>775.4</ele>
        <time>2020-07-15T07:01:39Z</time>
      </trkpt>
      <trkpt lat="38.2203180" lon="-2.7169130">
        <ele>773.6</ele>
        <time>2020-07-15T07:01:41Z</time>
      </trkpt>
      <trkpt lat="38.2204270" lon="-2.7168430">
        <ele>773.0</ele>
        <time>2020-07-15T07:01:42Z</time>
      </trkpt>
      <trkpt lat="38.2205530" lon="-2.7167810">
        <ele>772.2</ele>
        <time>2020-07-15T07:01:43Z</time>
      </trkpt>
      <trkpt lat="38.2206780" lon="-2.7167300">
        <ele>771.0</ele>
        <time>2020-07-15T07:01:44Z</time>
      </trkpt>
      <trkpt lat="38.2209270" lon="-2.7166320">
        <ele>769.2</ele>
        <time>2020-07-15T07:01:46Z</time>
      </trkpt>
      <trkpt lat="38.2211780" lon="-2.7165750">
        <ele>767.2</ele>
        <time>2020-07-15T07:01:48Z</time>
      </trkpt>
      <trkpt lat="38.2212990" lon="-2.7165710">
        <ele>766.2</ele>
        <time>2020-07-15T07:01:49Z</time>
      </trkpt>
      <trkpt lat="38.2214140" lon="-2.7165700">
        <ele>765.0</ele>
        <time>2020-07-15T07:01:50Z</time>
      </trkpt>
      <trkpt lat="38.2215170" lon="-2.7165670">
        <ele>764.0</ele>
        <time>2020-07-15T07:01:51Z</time>
      </trkpt>
      <trkpt lat="38.2216010" lon="-2.7165520">
        <ele>762.8</ele>
        <time>2020-07-15T07:01:52Z</time>
      </trkpt>
      <trkpt lat="38.2216940" lon="-2.7165130">
        <ele>761.4</ele>
        <time>2020-07-15T07:01:53Z</time>
      </trkpt>
      <trkpt lat="38.2217610" lon="-2.7164500">
        <ele>760.4</ele>
        <time>2020-07-15T07:01:54Z</time>
      </trkpt>
      <trkpt lat="38.2218120" lon="-2.7163660">
        <ele>759.2</ele>
        <time>2020-07-15T07:01:55Z</time>
      </trkpt>
      <trkpt lat="38.2219160" lon="-2.7161360">
        <ele>757.4</ele>
        <time>2020-07-15T07:01:58Z</time>
      </trkpt>
      <trkpt lat="38.2219770" lon="-2.7160340">
        <ele>756.2</ele>
        <time>2020-07-15T07:01:59Z</time>
      </trkpt>
      <trkpt lat="38.2220570" lon="-2.7159420">
        <ele>755.2</ele>
        <time>2020-07-15T07:02:00Z</time>
      </trkpt>
      <trkpt lat="38.2222350" lon="-2.7158050">
        <ele>753.4</ele>
        <time>2020-07-15T07:02:02Z</time>
      </trkpt>
      <trkpt lat="38.2223340" lon="-2.7157420">
        <ele>752.6</ele>
        <time>2020-07-15T07:02:03Z</time>
      </trkpt>
      <trkpt lat="38.2224470" lon="-2.7156900">
        <ele>751.6</ele>
        <time>2020-07-15T07:02:04Z</time>
      </trkpt>
      <trkpt lat="38.2226700" lon="-2.7156180">
        <ele>750.0</ele>
        <time>2020-07-15T07:02:06Z</time>
      </trkpt>
      <trkpt lat="38.2229010" lon="-2.7155420">
        <ele>748.4</ele>
        <time>2020-07-15T07:02:08Z</time>
      </trkpt>
      <trkpt lat="38.2231270" lon="-2.7154330">
        <ele>746.6</ele>
        <time>2020-07-15T07:02:10Z</time>
      </trkpt>
      <trkpt lat="38.2232170" lon="-2.7153530">
        <ele>745.4</ele>
        <time>2020-07-15T07:02:11Z</time>
      </trkpt>
      <trkpt lat="38.2233040" lon="-2.7152510">
        <ele>744.4</ele>
        <time>2020-07-15T07:02:12Z</time>
      </trkpt>
      <trkpt lat="38.2233670" lon="-2.7151410">
        <ele>743.2</ele>
        <time>2020-07-15T07:02:13Z</time>
      </trkpt>
      <trkpt lat="38.2234280" lon="-2.7150050">
        <ele>742.2</ele>
        <time>2020-07-15T07:02:14Z</time>
      </trkpt>
      <trkpt lat="38.2234740" lon="-2.7148640">
        <ele>741.2</ele>
        <time>2020-07-15T07:02:15Z</time>
      </trkpt>
      <trkpt lat="38.2235220" lon="-2.7147220">
        <ele>740.0</ele>
        <time>2020-07-15T07:02:16Z</time>
      </trkpt>
      <trkpt lat="38.2235880" lon="-2.7146030">
        <ele>739.0</ele>
        <time>2020-07-15T07:02:17Z</time>
      </trkpt>
      <trkpt lat="38.2237960" lon="-2.7144110">
        <ele>737.2</ele>
        <time>2020-07-15T07:02:19Z</time>
      </trkpt>
      <trkpt lat="38.2240330" lon="-2.7142750">
        <ele>735.6</ele>
        <time>2020-07-15T07:02:21Z</time>
      </trkpt>
      <trkpt lat="38.2241570" lon="-2.7142070">
        <ele>734.6</ele>
        <time>2020-07-15T07:02:22Z</time>
      </trkpt>
      <trkpt lat="38.2242660" lon="-2.7141480">
        <ele>733.4</ele>
        <time>2020-07-15T07:02:23Z</time>
      </trkpt>
      <trkpt lat="38.2243900" lon="-2.7140810">
        <ele>732.4</ele>
        <time>2020-07-15T07:02:24Z</time>
      </trkpt>
      <trkpt lat="38.2244890" lon="-2.7140230">
        <ele>731.2</ele>
        <time>2020-07-15T07:02:25Z</time>
      </trkpt>
      <trkpt lat="38.2245740" lon="-2.7139600">
        <ele>730.0</ele>
        <time>2020-07-15T07:02:26Z</time>
      </trkpt>
      <trkpt lat="38.2246910" lon="-2.7137810">
        <ele>728.0</ele>
        <time>2020-07-15T07:02:28Z</time>
      </trkpt>
      <trkpt lat="38.2247280" lon="-2.7136530">
        <ele>726.8</ele>
        <time>2020-07-15T07:02:29Z</time>
      </trkpt>
      <trkpt lat="38.2247470" lon="-2.7135110">
        <ele>725.8</ele>
        <time>2020-07-15T07:02:30Z</time>
      </trkpt>
      <trkpt lat="38.2247330" lon="-2.7133770">
        <ele>724.8</ele>
        <time>2020-07-15T07:02:31Z</time>
      </trkpt>
      <trkpt lat="38.2247040" lon="-2.7132400">
        <ele>723.6</ele>
        <time>2020-07-15T07:02:32Z</time>
      </trkpt>
      <trkpt lat="38.2246830" lon="-2.7131100">
        <ele>722.8</ele>
        <time>2020-07-15T07:02:33Z</time>
      </trkpt>
      <trkpt lat="38.2246650" lon="-2.7129590">
        <ele>722.0</ele>
        <time>2020-07-15T07:02:34Z</time>
      </trkpt>
      <trkpt lat="38.2246480" lon="-2.7126650">
        <ele>720.4</ele>
        <time>2020-07-15T07:02:36Z</time>
      </trkpt>
      <trkpt lat="38.2246490" lon="-2.7124400">
        <ele>718.8</ele>
        <time>2020-07-15T07:02:38Z</time>
      </trkpt>
      <trkpt lat="38.2247400" lon="-2.7123000">
        <ele>717.8</ele>
        <time>2020-07-15T07:02:39Z</time>
      </trkpt>
      <trkpt lat="38.2249230" lon="-2.7120210">
        <ele>716.2</ele>
        <time>2020-07-15T07:02:41Z</time>
      </trkpt>
      <trkpt lat="38.2250190" lon="-2.7119080">
        <ele>715.4</ele>
        <time>2020-07-15T07:02:42Z</time>
      </trkpt>
      <trkpt lat="38.2251080" lon="-2.7118040">
        <ele>714.6</ele>
        <time>2020-07-15T07:02:43Z</time>
      </trkpt>
      <trkpt lat="38.2252970" lon="-2.7115780">
        <ele>713.0</ele>
        <time>2020-07-15T07:02:45Z</time>
      </trkpt>
      <trkpt lat="38.2254740" lon="-2.7113900">
        <ele>711.4</ele>
        <time>2020-07-15T07:02:47Z</time>
      </trkpt>
      <trkpt lat="38.2255770" lon="-2.7113180">
        <ele>710.6</ele>
        <time>2020-07-15T07:02:48Z</time>
      </trkpt>
      <trkpt lat="38.2256970" lon="-2.7112660">
        <ele>709.4</ele>
        <time>2020-07-15T07:02:49Z</time>
      </trkpt>
      <trkpt lat="38.2259360" lon="-2.7112460">
        <ele>707.4</ele>
        <time>2020-07-15T07:02:51Z</time>
      </trkpt>
      <trkpt lat="38.2260430" lon="-2.7112760">
        <ele>706.2</ele>
        <time>2020-07-15T07:02:52Z</time>
      </trkpt>
      <trkpt lat="38.2261290" lon="-2.7113330">
        <ele>705.2</ele>
        <time>2020-07-15T07:02:53Z</time>
      </trkpt>
      <trkpt lat="38.2262110" lon="-2.7114300">
        <ele>704.4</ele>
        <time>2020-07-15T07:02:54Z</time>
      </trkpt>
      <trkpt lat="38.2262650" lon="-2.7115390">
        <ele>704.0</ele>
        <time>2020-07-15T07:02:55Z</time>
      </trkpt>
      <trkpt lat="38.2263440" lon="-2.7117750">
        <ele>703.4</ele>
        <time>2020-07-15T07:02:57Z</time>
      </trkpt>
      <trkpt lat="38.2263710" lon="-2.7118920">
        <ele>703.2</ele>
        <time>2020-07-15T07:02:58Z</time>
      </trkpt>
      <trkpt lat="38.2264010" lon="-2.7122710">
        <ele>702.8</ele>
        <time>2020-07-15T07:03:01Z</time>
      </trkpt>
      <trkpt lat="38.2263980" lon="-2.7123980">
        <ele>702.6</ele>
        <time>2020-07-15T07:03:02Z</time>
      </trkpt>
      <trkpt lat="38.2263850" lon="-2.7126470">
        <ele>702.0</ele>
        <time>2020-07-15T07:03:04Z</time>
      </trkpt>
      <trkpt lat="38.2263880" lon="-2.7130110">
        <ele>701.4</ele>
        <time>2020-07-15T07:03:07Z</time>
      </trkpt>
      <trkpt lat="38.2264070" lon="-2.7131280">
        <ele>701.4</ele>
        <time>2020-07-15T07:03:08Z</time>
      </trkpt>
      <trkpt lat="38.2264800" lon="-2.7133540">
        <ele>701.2</ele>
        <time>2020-07-15T07:03:10Z</time>
      </trkpt>
      <trkpt lat="38.2265220" lon="-2.7134500">
        <ele>700.8</ele>
        <time>2020-07-15T07:03:11Z</time>
      </trkpt>
      <trkpt lat="38.2265710" lon="-2.7135530">
        <ele>700.8</ele>
        <time>2020-07-15T07:03:12Z</time>
      </trkpt>
      <trkpt lat="38.2267400" lon="-2.7138120">
        <ele>700.6</ele>
        <time>2020-07-15T07:03:15Z</time>
      </trkpt>
      <trkpt lat="38.2269430" lon="-2.7140330">
        <ele>700.6</ele>
        <time>2020-07-15T07:03:18Z</time>
      </trkpt>
      <trkpt lat="38.2271010" lon="-2.7141730">
        <ele>700.6</ele>
        <time>2020-07-15T07:03:20Z</time>
      </trkpt>
      <trkpt lat="38.2271790" lon="-2.7142380">
        <ele>700.4</ele>
        <time>2020-07-15T07:03:21Z</time>
      </trkpt>
      <trkpt lat="38.2273260" lon="-2.7143650">
        <ele>699.8</ele>
        <time>2020-07-15T07:03:23Z</time>
      </trkpt>
      <trkpt lat="38.2274740" lon="-2.7145350">
        <ele>699.2</ele>
        <time>2020-07-15T07:03:25Z</time>
      </trkpt>
      <trkpt lat="38.2275210" lon="-2.7146300">
        <ele>699.0</ele>
        <time>2020-07-15T07:03:26Z</time>
      </trkpt>
      <trkpt lat="38.2275610" lon="-2.7147430">
        <ele>698.8</ele>
        <time>2020-07-15T07:03:27Z</time>
      </trkpt>
      <trkpt lat="38.2276110" lon="-2.7149730">
        <ele>698.4</ele>
        <time>2020-07-15T07:03:29Z</time>
      </trkpt>
      <trkpt lat="38.2276500" lon="-2.7152180">
        <ele>697.6</ele>
        <time>2020-07-15T07:03:31Z</time>
      </trkpt>
      <trkpt lat="38.2276870" lon="-2.7155690">
        <ele>696.4</ele>
        <time>2020-07-15T07:03:34Z</time>
      </trkpt>
      <trkpt lat="38.2276920" lon="-2.7156870">
        <ele>696.0</ele>
        <time>2020-07-15T07:03:35Z</time>
      </trkpt>
      <trkpt lat="38.2276980" lon="-2.7159370">
        <ele>695.4</ele>
        <time>2020-07-15T07:03:37Z</time>
      </trkpt>
      <trkpt lat="38.2277230" lon="-2.7163000">
        <ele>694.2</ele>
        <time>2020-07-15T07:03:40Z</time>
      </trkpt>
      <trkpt lat="38.2277570" lon="-2.7164010">
        <ele>694.0</ele>
        <time>2020-07-15T07:03:41Z</time>
      </trkpt>
      <trkpt lat="38.2278900" lon="-2.7166890">
        <ele>693.4</ele>
        <time>2020-07-15T07:03:44Z</time>
      </trkpt>
      <trkpt lat="38.2279330" lon="-2.7167800">
        <ele>693.2</ele>
        <time>2020-07-15T07:03:45Z</time>
      </trkpt>
      <trkpt lat="38.2279760" lon="-2.7168660">
        <ele>693.2</ele>
        <time>2020-07-15T07:03:46Z</time>
      </trkpt>
      <trkpt lat="38.2281230" lon="-2.7171930">
        <ele>693.8</ele>
        <time>2020-07-15T07:03:50Z</time>
      </trkpt>
      <trkpt lat="38.2281490" lon="-2.7172730">
        <ele>694.0</ele>
        <time>2020-07-15T07:03:51Z</time>
      </trkpt>
      <trkpt lat="38.2281770" lon="-2.7173620">
        <ele>694.4</ele>
        <time>2020-07-15T07:03:52Z</time>
      </trkpt>
      <trkpt lat="38.2282160" lon="-2.7175480">
        <ele>694.6</ele>
        <time>2020-07-15T07:03:54Z</time>
      </trkpt>
      <trkpt lat="38.2282340" lon="-2.7177590">
        <ele>694.8</ele>
        <time>2020-07-15T07:03:56Z</time>
      </trkpt>
      <trkpt lat="38.2282080" lon="-2.7182220">
        <ele>693.6</ele>
        <time>2020-07-15T07:04:00Z</time>
      </trkpt>
      <trkpt lat="38.2281750" lon="-2.7183290">
        <ele>693.0</ele>
        <time>2020-07-15T07:04:01Z</time>
      </trkpt>
      <trkpt lat="38.2280830" lon="-2.7185190">
        <ele>692.2</ele>
        <time>2020-07-15T07:04:03Z</time>
      </trkpt>
      <trkpt lat="38.2280300" lon="-2.7186060">
        <ele>692.0</ele>
        <time>2020-07-15T07:04:04Z</time>
      </trkpt>
      <trkpt lat="38.2279290" lon="-2.7187470">
        <ele>692.0</ele>
        <time>2020-07-15T07:04:06Z</time>
      </trkpt>
      <trkpt lat="38.2278770" lon="-2.7188110">
        <ele>692.0</ele>
        <time>2020-07-15T07:04:07Z</time>
      </trkpt>
      <trkpt lat="38.2276900" lon="-2.7189970">
        <ele>693.2</ele>
        <time>2020-07-15T07:04:11Z</time>
      </trkpt>
      <trkpt lat="38.2276460" lon="-2.7190300">
        <ele>693.6</ele>
        <time>2020-07-15T07:04:12Z</time>
      </trkpt>
      <trkpt lat="38.2275200" lon="-2.7191140">
        <ele>694.6</ele>
        <time>2020-07-15T07:04:15Z</time>
      </trkpt>
      <trkpt lat="38.2274050" lon="-2.7191840">
        <ele>695.4</ele>
        <time>2020-07-15T07:04:18Z</time>
      </trkpt>
      <trkpt lat="38.2273670" lon="-2.7192100">
        <ele>695.8</ele>
        <time>2020-07-15T07:04:19Z</time>
      </trkpt>
      <trkpt lat="38.2272630" lon="-2.7192910">
        <ele>696.8</ele>
        <time>2020-07-15T07:04:22Z</time>
      </trkpt>
      <trkpt lat="38.2272390" lon="-2.7193240">
        <ele>697.0</ele>
        <time>2020-07-15T07:04:23Z</time>
      </trkpt>
      <trkpt lat="38.2271990" lon="-2.7194220">
        <ele>697.6</ele>
        <time>2020-07-15T07:04:25Z</time>
      </trkpt>
      <trkpt lat="38.2272150" lon="-2.7195840">
        <ele>698.2</ele>
        <time>2020-07-15T07:04:28Z</time>
      </trkpt>
      <trkpt lat="38.2273340" lon="-2.7198030">
        <ele>699.0</ele>
        <time>2020-07-15T07:04:32Z</time>
      </trkpt>
      <trkpt lat="38.2275570" lon="-2.7201590">
        <ele>698.2</ele>
        <time>2020-07-15T07:04:37Z</time>
      </trkpt>
      <trkpt lat="38.2276810" lon="-2.7204560">
        <ele>697.0</ele>
        <time>2020-07-15T07:04:40Z</time>
      </trkpt>
      <trkpt lat="38.2277610" lon="-2.7206810">
        <ele>695.8</ele>
        <time>2020-07-15T07:04:42Z</time>
      </trkpt>
      <trkpt lat="38.2278260" lon="-2.7209240">
        <ele>694.8</ele>
        <time>2020-07-15T07:04:44Z</time>
      </trkpt>
      <trkpt lat="38.2278770" lon="-2.7211880">
        <ele>693.8</ele>
        <time>2020-07-15T07:04:46Z</time>
      </trkpt>
      <trkpt lat="38.2279010" lon="-2.7213170">
        <ele>693.2</ele>
        <time>2020-07-15T07:04:47Z</time>
      </trkpt>
      <trkpt lat="38.2279520" lon="-2.7216050">
        <ele>692.0</ele>
        <time>2020-07-15T07:04:49Z</time>
      </trkpt>
      <trkpt lat="38.2280070" lon="-2.7218810">
        <ele>690.6</ele>
        <time>2020-07-15T07:04:51Z</time>
      </trkpt>
      <trkpt lat="38.2280530" lon="-2.7220140">
        <ele>689.6</ele>
        <time>2020-07-15T07:04:52Z</time>
      </trkpt>
      <trkpt lat="38.2281140" lon="-2.7221240">
        <ele>688.6</ele>
        <time>2020-07-15T07:04:53Z</time>
      </trkpt>
      <trkpt lat="38.2282060" lon="-2.7222410">
        <ele>687.6</ele>
        <time>2020-07-15T07:04:54Z</time>
      </trkpt>
      <trkpt lat="38.2283030" lon="-2.7223300">
        <ele>686.6</ele>
        <time>2020-07-15T07:04:55Z</time>
      </trkpt>
      <trkpt lat="38.2284040" lon="-2.7224090">
        <ele>685.8</ele>
        <time>2020-07-15T07:04:56Z</time>
      </trkpt>
      <trkpt lat="38.2285090" lon="-2.7224860">
        <ele>684.8</ele>
        <time>2020-07-15T07:04:57Z</time>
      </trkpt>
      <trkpt lat="38.2286080" lon="-2.7225570">
        <ele>684.0</ele>
        <time>2020-07-15T07:04:58Z</time>
      </trkpt>
      <trkpt lat="38.2288220" lon="-2.7227060">
        <ele>682.6</ele>
        <time>2020-07-15T07:05:00Z</time>
      </trkpt>
      <trkpt lat="38.2290200" lon="-2.7228460">
        <ele>681.4</ele>
        <time>2020-07-15T07:05:02Z</time>
      </trkpt>
      <trkpt lat="38.2291110" lon="-2.7229120">
        <ele>680.6</ele>
        <time>2020-07-15T07:05:03Z</time>
      </trkpt>
      <trkpt lat="38.2292100" lon="-2.7229820">
        <ele>680.4</ele>
        <time>2020-07-15T07:05:04Z</time>
      </trkpt>
      <trkpt lat="38.2297440" lon="-2.7233690">
        <ele>679.6</ele>
        <time>2020-07-15T07:05:10Z</time>
      </trkpt>
      <trkpt lat="38.2299020" lon="-2.7235020">
        <ele>679.2</ele>
        <time>2020-07-15T07:05:12Z</time>
      </trkpt>
      <trkpt lat="38.2301880" lon="-2.7238030">
        <ele>678.8</ele>
        <time>2020-07-15T07:05:16Z</time>
      </trkpt>
      <trkpt lat="38.2305390" lon="-2.7242890">
        <ele>678.2</ele>
        <time>2020-07-15T07:05:22Z</time>
      </trkpt>
      <trkpt lat="38.2306850" lon="-2.7245330">
        <ele>677.8</ele>
        <time>2020-07-15T07:05:25Z</time>
      </trkpt>
      <trkpt lat="38.2307500" lon="-2.7246830">
        <ele>677.4</ele>
        <time>2020-07-15T07:05:27Z</time>
      </trkpt>
      <trkpt lat="38.2307440" lon="-2.7247550">
        <ele>677.4</ele>
        <time>2020-07-15T07:05:28Z</time>
      </trkpt>
      <trkpt lat="38.2306550" lon="-2.7248620">
        <ele>677.2</ele>
        <time>2020-07-15T07:05:30Z</time>
      </trkpt>
      <trkpt lat="38.2305340" lon="-2.7249250">
        <ele>677.0</ele>
        <time>2020-07-15T07:05:32Z</time>
      </trkpt>
      <trkpt lat="38.2303500" lon="-2.7250470">
        <ele>676.6</ele>
        <time>2020-07-15T07:05:35Z</time>
      </trkpt>
      <trkpt lat="38.2301510" lon="-2.7251940">
        <ele>676.0</ele>
        <time>2020-07-15T07:05:38Z</time>
      </trkpt>
      <trkpt lat="38.2299510" lon="-2.7253480">
        <ele>675.2</ele>
        <time>2020-07-15T07:05:41Z</time>
      </trkpt>
      <trkpt lat="38.2298100" lon="-2.7254610">
        <ele>674.8</ele>
        <time>2020-07-15T07:05:43Z</time>
      </trkpt>
      <trkpt lat="38.2296790" lon="-2.7256010">
        <ele>674.4</ele>
        <time>2020-07-15T07:05:45Z</time>
      </trkpt>
      <trkpt lat="38.2296300" lon="-2.7256840">
        <ele>674.2</ele>
        <time>2020-07-15T07:05:46Z</time>
      </trkpt>
      <trkpt lat="38.2295560" lon="-2.7258750">
        <ele>673.8</ele>
        <time>2020-07-15T07:05:48Z</time>
      </trkpt>
      <trkpt lat="38.2295190" lon="-2.7259810">
        <ele>673.4</ele>
        <time>2020-07-15T07:05:49Z</time>
      </trkpt>
      <trkpt lat="38.2294790" lon="-2.7260770">
        <ele>673.2</ele>
        <time>2020-07-15T07:05:50Z</time>
      </trkpt>
      <trkpt lat="38.2294290" lon="-2.7261680">
        <ele>673.0</ele>
        <time>2020-07-15T07:05:51Z</time>
      </trkpt>
      <trkpt lat="38.2293870" lon="-2.7262240">
        <ele>672.6</ele>
        <time>2020-07-15T07:05:52Z</time>
      </trkpt>
      <trkpt lat="38.2293120" lon="-2.7263120">
        <ele>672.4</ele>
        <time>2020-07-15T07:05:53Z</time>
      </trkpt>
      <trkpt lat="38.2291670" lon="-2.7264520">
        <ele>671.8</ele>
        <time>2020-07-15T07:05:55Z</time>
      </trkpt>
      <trkpt lat="38.2291060" lon="-2.7265050">
        <ele>671.4</ele>
        <time>2020-07-15T07:05:56Z</time>
      </trkpt>
      <trkpt lat="38.2288850" lon="-2.7267010">
        <ele>670.4</ele>
        <time>2020-07-15T07:05:59Z</time>
      </trkpt>
      <trkpt lat="38.2284490" lon="-2.7270800">
        <ele>669.2</ele>
        <time>2020-07-15T07:06:05Z</time>
      </trkpt>
      <trkpt lat="38.2283020" lon="-2.7272130">
        <ele>668.8</ele>
        <time>2020-07-15T07:06:07Z</time>
      </trkpt>
      <trkpt lat="38.2280010" lon="-2.7274190">
        <ele>668.4</ele>
        <time>2020-07-15T07:06:11Z</time>
      </trkpt>
      <trkpt lat="38.2279140" lon="-2.7274530">
        <ele>668.2</ele>
        <time>2020-07-15T07:06:12Z</time>
      </trkpt>
      <trkpt lat="38.2278370" lon="-2.7274750">
        <ele>668.0</ele>
        <time>2020-07-15T07:06:13Z</time>
      </trkpt>
      <trkpt lat="38.2274870" lon="-2.7275470">
        <ele>667.8</ele>
        <time>2020-07-15T07:06:17Z</time>
      </trkpt>
      <trkpt lat="38.2272200" lon="-2.7275990">
        <ele>667.2</ele>
        <time>2020-07-15T07:06:20Z</time>
      </trkpt>
      <trkpt lat="38.2271340" lon="-2.7276200">
        <ele>667.0</ele>
        <time>2020-07-15T07:06:21Z</time>
      </trkpt>
      <trkpt lat="38.2268060" lon="-2.7277540">
        <ele>666.6</ele>
        <time>2020-07-15T07:06:25Z</time>
      </trkpt>
      <trkpt lat="38.2265010" lon="-2.7279630">
        <ele>666.2</ele>
        <time>2020-07-15T07:06:29Z</time>
      </trkpt>
      <trkpt lat="38.2263460" lon="-2.7280760">
        <ele>666.0</ele>
        <time>2020-07-15T07:06:31Z</time>
      </trkpt>
      <trkpt lat="38.2258730" lon="-2.7284160">
        <ele>665.0</ele>
        <time>2020-07-15T07:06:37Z</time>
      </trkpt>
      <trkpt lat="38.2256420" lon="-2.7285910">
        <ele>664.6</ele>
        <time>2020-07-15T07:06:40Z</time>
      </trkpt>
      <trkpt lat="38.2253610" lon="-2.7287970">
        <ele>664.0</ele>
        <time>2020-07-15T07:06:44Z</time>
      </trkpt>
      <trkpt lat="38.2251100" lon="-2.7289840">
        <ele>663.4</ele>
        <time>2020-07-15T07:06:47Z</time>
      </trkpt>
      <trkpt lat="38.2248630" lon="-2.7291650">
        <ele>662.8</ele>
        <time>2020-07-15T07:06:50Z</time>
      </trkpt>
      <trkpt lat="38.2245410" lon="-2.7294110">
        <ele>662.0</ele>
        <time>2020-07-15T07:06:54Z</time>
      </trkpt>
      <trkpt lat="38.2244630" lon="-2.7294620">
        <ele>661.8</ele>
        <time>2020-07-15T07:06:55Z</time>
      </trkpt>
      <trkpt lat="38.2242880" lon="-2.7295560">
        <ele>661.4</ele>
        <time>2020-07-15T07:06:57Z</time>
      </trkpt>
      <trkpt lat="38.2241020" lon="-2.7296140">
        <ele>661.0</ele>
        <time>2020-07-15T07:06:59Z</time>
      </trkpt>
      <trkpt lat="38.2239930" lon="-2.7296370">
        <ele>660.6</ele>
        <time>2020-07-15T07:07:00Z</time>
      </trkpt>
      <trkpt lat="38.2235910" lon="-2.7296960">
        <ele>659.4</ele>
        <time>2020-07-15T07:07:04Z</time>
      </trkpt>
      <trkpt lat="38.2234950" lon="-2.7296940">
        <ele>659.0</ele>
        <time>2020-07-15T07:07:05Z</time>
      </trkpt>
      <trkpt lat="38.2232900" lon="-2.7296710">
        <ele>658.2</ele>
        <time>2020-07-15T07:07:07Z</time>
      </trkpt>
      <trkpt lat="38.2229790" lon="-2.7296380">
        <ele>657.2</ele>
        <time>2020-07-15T07:07:10Z</time>
      </trkpt>
      <trkpt lat="38.2228820" lon="-2.7296360">
        <ele>657.0</ele>
        <time>2020-07-15T07:07:11Z</time>
      </trkpt>
      <trkpt lat="38.2227720" lon="-2.7296480">
        <ele>656.6</ele>
        <time>2020-07-15T07:07:12Z</time>
      </trkpt>
      <trkpt lat="38.2225770" lon="-2.7297030">
        <ele>655.8</ele>
        <time>2020-07-15T07:07:14Z</time>
      </trkpt>
      <trkpt lat="38.2220430" lon="-2.7299000">
        <ele>655.2</ele>
        <time>2020-07-15T07:07:20Z</time>
      </trkpt>
      <trkpt lat="38.2219580" lon="-2.7299310">
        <ele>655.2</ele>
        <time>2020-07-15T07:07:21Z</time>
      </trkpt>
      <trkpt lat="38.2215330" lon="-2.7300070">
        <ele>655.2</ele>
        <time>2020-07-15T07:07:26Z</time>
      </trkpt>
      <trkpt lat="38.2212040" lon="-2.7300220">
        <ele>655.2</ele>
        <time>2020-07-15T07:07:30Z</time>
      </trkpt>
      <trkpt lat="38.2211290" lon="-2.7300490">
        <ele>655.2</ele>
        <time>2020-07-15T07:07:31Z</time>
      </trkpt>
      <trkpt lat="38.2208970" lon="-2.7301530">
        <ele>655.0</ele>
        <time>2020-07-15T07:07:34Z</time>
      </trkpt>
      <trkpt lat="38.2204750" lon="-2.7302680">
        <ele>655.0</ele>
        <time>2020-07-15T07:07:39Z</time>
      </trkpt>
      <trkpt lat="38.2203860" lon="-2.7303160">
        <ele>654.6</ele>
        <time>2020-07-15T07:07:40Z</time>
      </trkpt>
      <trkpt lat="38.2202270" lon="-2.7304800">
        <ele>653.8</ele>
        <time>2020-07-15T07:07:42Z</time>
      </trkpt>
      <trkpt lat="38.2201700" lon="-2.7305870">
        <ele>653.0</ele>
        <time>2020-07-15T07:07:43Z</time>
      </trkpt>
      <trkpt lat="38.2201010" lon="-2.7308530">
        <ele>651.8</ele>
        <time>2020-07-15T07:07:45Z</time>
      </trkpt>
      <trkpt lat="38.2200980" lon="-2.7311190">
        <ele>650.2</ele>
        <time>2020-07-15T07:07:47Z</time>
      </trkpt>
      <trkpt lat="38.2200950" lon="-2.7312590">
        <ele>649.6</ele>
        <time>2020-07-15T07:07:48Z</time>
      </trkpt>
      <trkpt lat="38.2201010" lon="-2.7313960">
        <ele>649.2</ele>
        <time>2020-07-15T07:07:49Z</time>
      </trkpt>
      <trkpt lat="38.2201180" lon="-2.7317670">
        <ele>648.4</ele>
        <time>2020-07-15T07:07:52Z</time>
      </trkpt>
      <trkpt lat="38.2201330" lon="-2.7318680">
        <ele>648.4</ele>
        <time>2020-07-15T07:07:53Z</time>
      </trkpt>
      <trkpt lat="38.2201980" lon="-2.7320780">
        <ele>648.4</ele>
        <time>2020-07-15T07:07:55Z</time>
      </trkpt>
      <trkpt lat="38.2203420" lon="-2.7322800">
        <ele>649.2</ele>
        <time>2020-07-15T07:07:58Z</time>
      </trkpt>
      <trkpt lat="38.2203930" lon="-2.7323330">
        <ele>649.6</ele>
        <time>2020-07-15T07:07:59Z</time>
      </trkpt>
      <trkpt lat="38.2204980" lon="-2.7324300">
        <ele>650.4</ele>
        <time>2020-07-15T07:08:01Z</time>
      </trkpt>
      <trkpt lat="38.2205940" lon="-2.7325210">
        <ele>651.2</ele>
        <time>2020-07-15T07:08:03Z</time>
      </trkpt>
      <trkpt lat="38.2206400" lon="-2.7325680">
        <ele>651.4</ele>
        <time>2020-07-15T07:08:04Z</time>
      </trkpt>
      <trkpt lat="38.2207160" lon="-2.7326590">
        <ele>652.2</ele>
        <time>2020-07-15T07:08:06Z</time>
      </trkpt>
      <trkpt lat="38.2207510" lon="-2.7327080">
        <ele>652.6</ele>
        <time>2020-07-15T07:08:07Z</time>
      </trkpt>
      <trkpt lat="38.2208430" lon="-2.7328450">
        <ele>653.4</ele>
        <time>2020-07-15T07:08:10Z</time>
      </trkpt>
      <trkpt lat="38.2208700" lon="-2.7328860">
        <ele>653.8</ele>
        <time>2020-07-15T07:08:11Z</time>
      </trkpt>
      <trkpt lat="38.2209630" lon="-2.7330230">
        <ele>654.6</ele>
        <time>2020-07-15T07:08:14Z</time>
      </trkpt>
      <trkpt lat="38.2209920" lon="-2.7330660">
        <ele>654.8</ele>
        <time>2020-07-15T07:08:15Z</time>
      </trkpt>
      <trkpt lat="38.2211130" lon="-2.7332140">
        <ele>655.6</ele>
        <time>2020-07-15T07:08:19Z</time>
      </trkpt>
      <trkpt lat="38.2211470" lon="-2.7332460">
        <ele>655.8</ele>
        <time>2020-07-15T07:08:20Z</time>
      </trkpt>
      <trkpt lat="38.2212500" lon="-2.7333310">
        <ele>656.6</ele>
        <time>2020-07-15T07:08:23Z</time>
      </trkpt>
      <trkpt lat="38.2213270" lon="-2.7333920">
        <ele>657.0</ele>
        <time>2020-07-15T07:08:25Z</time>
      </trkpt>
      <trkpt lat="38.2213970" lon="-2.7334480">
        <ele>657.6</ele>
        <time>2020-07-15T07:08:27Z</time>
      </trkpt>
      <trkpt lat="38.2214590" lon="-2.7334990">
        <ele>658.2</ele>
        <time>2020-07-15T07:08:29Z</time>
      </trkpt>
      <trkpt lat="38.2216110" lon="-2.7336300">
        <ele>659.4</ele>
        <time>2020-07-15T07:08:34Z</time>
      </trkpt>
      <trkpt lat="38.2216650" lon="-2.7336860">
        <ele>659.8</ele>
        <time>2020-07-15T07:08:36Z</time>
      </trkpt>
      <trkpt lat="38.2217740" lon="-2.7338100">
        <ele>660.6</ele>
        <time>2020-07-15T07:08:40Z</time>
      </trkpt>
      <trkpt lat="38.2219310" lon="-2.7340120">
        <ele>661.0</ele>
        <time>2020-07-15T07:08:46Z</time>
      </trkpt>
      <trkpt lat="38.2220600" lon="-2.7341790">
        <ele>661.6</ele>
        <time>2020-07-15T07:08:51Z</time>
      </trkpt>
      <trkpt lat="38.2221560" lon="-2.7343200">
        <ele>662.2</ele>
        <time>2020-07-15T07:08:55Z</time>
      </trkpt>
      <trkpt lat="38.2222000" lon="-2.7343940">
        <ele>662.6</ele>
        <time>2020-07-15T07:08:57Z</time>
      </trkpt>
      <trkpt lat="38.2223080" lon="-2.7346260">
        <ele>663.8</ele>
        <time>2020-07-15T07:09:03Z</time>
      </trkpt>
      <trkpt lat="38.2224960" lon="-2.7349330">
        <ele>664.8</ele>
        <time>2020-07-15T07:09:11Z</time>
      </trkpt>
      <trkpt lat="38.2225270" lon="-2.7349690">
        <ele>664.8</ele>
        <time>2020-07-15T07:09:12Z</time>
      </trkpt>
      <trkpt lat="38.2227330" lon="-2.7351790">
        <ele>665.8</ele>
        <time>2020-07-15T07:09:19Z</time>
      </trkpt>
      <trkpt lat="38.2229660" lon="-2.7354250">
        <ele>667.0</ele>
        <time>2020-07-15T07:09:27Z</time>
      </trkpt>
      <trkpt lat="38.2231820" lon="-2.7356280">
        <ele>668.2</ele>
        <time>2020-07-15T07:09:34Z</time>
      </trkpt>
      <trkpt lat="38.2233450" lon="-2.7358390">
        <ele>669.2</ele>
        <time>2020-07-15T07:09:40Z</time>
      </trkpt>
      <trkpt lat="38.2233650" lon="-2.7358780">
        <ele>669.4</ele>
        <time>2020-07-15T07:09:41Z</time>
      </trkpt>
      <trkpt lat="38.2234810" lon="-2.7361040">
        <ele>670.2</ele>
        <time>2020-07-15T07:09:46Z</time>
      </trkpt>
      <trkpt lat="38.2235020" lon="-2.7361500">
        <ele>670.4</ele>
        <time>2020-07-15T07:09:47Z</time>
      </trkpt>
      <trkpt lat="38.2235270" lon="-2.7361970">
        <ele>670.6</ele>
        <time>2020-07-15T07:09:48Z</time>
      </trkpt>
      <trkpt lat="38.2235820" lon="-2.7363440">
        <ele>671.0</ele>
        <time>2020-07-15T07:09:51Z</time>
      </trkpt>
      <trkpt lat="38.2236040" lon="-2.7363920">
        <ele>671.0</ele>
        <time>2020-07-15T07:09:52Z</time>
      </trkpt>
      <trkpt lat="38.2236400" lon="-2.7364910">
        <ele>671.4</ele>
        <time>2020-07-15T07:09:54Z</time>
      </trkpt>
      <trkpt lat="38.2236890" lon="-2.7366970">
        <ele>672.2</ele>
        <time>2020-07-15T07:09:58Z</time>
      </trkpt>
      <trkpt lat="38.2236820" lon="-2.7367520">
        <ele>672.4</ele>
        <time>2020-07-15T07:09:59Z</time>
      </trkpt>
      <trkpt lat="38.2236630" lon="-2.7369140">
        <ele>673.0</ele>
        <time>2020-07-15T07:10:02Z</time>
      </trkpt>
      <trkpt lat="38.2236510" lon="-2.7370180">
        <ele>673.2</ele>
        <time>2020-07-15T07:10:04Z</time>
      </trkpt>
      <trkpt lat="38.2236430" lon="-2.7371260">
        <ele>673.4</ele>
        <time>2020-07-15T07:10:06Z</time>
      </trkpt>
      <trkpt lat="38.2236350" lon="-2.7372920">
        <ele>673.8</ele>
        <time>2020-07-15T07:10:09Z</time>
      </trkpt>
      <trkpt lat="38.2236200" lon="-2.7374960">
        <ele>674.2</ele>
        <time>2020-07-15T07:10:13Z</time>
      </trkpt>
      <trkpt lat="38.2236110" lon="-2.7375470">
        <ele>674.4</ele>
        <time>2020-07-15T07:10:14Z</time>
      </trkpt>
      <trkpt lat="38.2236030" lon="-2.7375980">
        <ele>674.6</ele>
        <time>2020-07-15T07:10:15Z</time>
      </trkpt>
      <trkpt lat="38.2235660" lon="-2.7378570">
        <ele>675.8</ele>
        <time>2020-07-15T07:10:20Z</time>
      </trkpt>
      <trkpt lat="38.2235580" lon="-2.7379070">
        <ele>676.0</ele>
        <time>2020-07-15T07:10:21Z</time>
      </trkpt>
      <trkpt lat="38.2235470" lon="-2.7379580">
        <ele>676.2</ele>
        <time>2020-07-15T07:10:22Z</time>
      </trkpt>
      <trkpt lat="38.2234630" lon="-2.7382010">
        <ele>676.8</ele>
        <time>2020-07-15T07:10:27Z</time>
      </trkpt>
      <trkpt lat="38.2233330" lon="-2.7384730">
        <ele>677.8</ele>
        <time>2020-07-15T07:10:33Z</time>
      </trkpt>
      <trkpt lat="38.2232330" lon="-2.7386540">
        <ele>678.4</ele>
        <time>2020-07-15T07:10:37Z</time>
      </trkpt>
      <trkpt lat="38.2231660" lon="-2.7387940">
        <ele>679.0</ele>
        <time>2020-07-15T07:10:40Z</time>
      </trkpt>
      <trkpt lat="38.2230780" lon="-2.7390430">
        <ele>679.8</ele>
        <time>2020-07-15T07:10:45Z</time>
      </trkpt>
      <trkpt lat="38.2230660" lon="-2.7390980">
        <ele>680.0</ele>
        <time>2020-07-15T07:10:46Z</time>
      </trkpt>
      <trkpt lat="38.2230360" lon="-2.7393300">
        <ele>680.8</ele>
        <time>2020-07-15T07:10:50Z</time>
      </trkpt>
      <trkpt lat="38.2230230" lon="-2.7394520">
        <ele>681.4</ele>
        <time>2020-07-15T07:10:52Z</time>
      </trkpt>
      <trkpt lat="38.2229870" lon="-2.7397920">
        <ele>682.4</ele>
        <time>2020-07-15T07:10:58Z</time>
      </trkpt>
      <trkpt lat="38.2229710" lon="-2.7399590">
        <ele>683.0</ele>
        <time>2020-07-15T07:11:01Z</time>
      </trkpt>
      <trkpt lat="38.2229560" lon="-2.7400660">
        <ele>683.6</ele>
        <time>2020-07-15T07:11:03Z</time>
      </trkpt>
      <trkpt lat="38.2229440" lon="-2.7401760">
        <ele>684.0</ele>
        <time>2020-07-15T07:11:05Z</time>
      </trkpt>
      <trkpt lat="38.2229270" lon="-2.7403960">
        <ele>684.8</ele>
        <time>2020-07-15T07:11:09Z</time>
      </trkpt>
      <trkpt lat="38.2228980" lon="-2.7407250">
        <ele>685.8</ele>
        <time>2020-07-15T07:11:15Z</time>
      </trkpt>
      <trkpt lat="38.2228650" lon="-2.7410520">
        <ele>687.0</ele>
        <time>2020-07-15T07:11:21Z</time>
      </trkpt>
      <trkpt lat="38.2228490" lon="-2.7412200">
        <ele>687.4</ele>
        <time>2020-07-15T07:11:24Z</time>
      </trkpt>
      <trkpt lat="38.2228300" lon="-2.7413790">
        <ele>688.0</ele>
        <time>2020-07-15T07:11:27Z</time>
      </trkpt>
      <trkpt lat="38.2228110" lon="-2.7414840">
        <ele>688.4</ele>
        <time>2020-07-15T07:11:29Z</time>
      </trkpt>
      <trkpt lat="38.2227840" lon="-2.7415920">
        <ele>688.6</ele>
        <time>2020-07-15T07:11:31Z</time>
      </trkpt>
      <trkpt lat="38.2227570" lon="-2.7416970">
        <ele>689.0</ele>
        <time>2020-07-15T07:11:33Z</time>
      </trkpt>
      <trkpt lat="38.2226890" lon="-2.7419770">
        <ele>689.6</ele>
        <time>2020-07-15T07:11:38Z</time>
      </trkpt>
      <trkpt lat="38.2227160" lon="-2.7422750">
        <ele>690.0</ele>
        <time>2020-07-15T07:11:43Z</time>
      </trkpt>
      <trkpt lat="38.2228460" lon="-2.7425220">
        <ele>690.4</ele>
        <time>2020-07-15T07:11:48Z</time>
      </trkpt>
      <trkpt lat="38.2229960" lon="-2.7427350">
        <ele>691.2</ele>
        <time>2020-07-15T07:11:53Z</time>
      </trkpt>
      <trkpt lat="38.2230780" lon="-2.7428560">
        <ele>691.8</ele>
        <time>2020-07-15T07:11:56Z</time>
      </trkpt>
      <trkpt lat="38.2231250" lon="-2.7429300">
        <ele>692.2</ele>
        <time>2020-07-15T07:11:58Z</time>
      </trkpt>
      <trkpt lat="38.2232260" lon="-2.7431220">
        <ele>693.4</ele>
        <time>2020-07-15T07:12:03Z</time>
      </trkpt>
      <trkpt lat="38.2232420" lon="-2.7431640">
        <ele>693.6</ele>
        <time>2020-07-15T07:12:04Z</time>
      </trkpt>
      <trkpt lat="38.2232780" lon="-2.7432890">
        <ele>694.4</ele>
        <time>2020-07-15T07:12:07Z</time>
      </trkpt>
      <trkpt lat="38.2233010" lon="-2.7434570">
        <ele>695.4</ele>
        <time>2020-07-15T07:12:11Z</time>
      </trkpt>
      <trkpt lat="38.2233060" lon="-2.7435020">
        <ele>695.6</ele>
        <time>2020-07-15T07:12:12Z</time>
      </trkpt>
      <trkpt lat="38.2233120" lon="-2.7436630">
        <ele>696.6</ele>
        <time>2020-07-15T07:12:16Z</time>
      </trkpt>
      <trkpt lat="38.2233080" lon="-2.7438330">
        <ele>697.8</ele>
        <time>2020-07-15T07:12:20Z</time>
      </trkpt>
      <trkpt lat="38.2233070" lon="-2.7438740">
        <ele>698.0</ele>
        <time>2020-07-15T07:12:21Z</time>
      </trkpt>
      <trkpt lat="38.2232950" lon="-2.7440420">
        <ele>698.8</ele>
        <time>2020-07-15T07:12:25Z</time>
      </trkpt>
      <trkpt lat="38.2232730" lon="-2.7442500">
        <ele>699.8</ele>
        <time>2020-07-15T07:12:30Z</time>
      </trkpt>
      <trkpt lat="38.2232640" lon="-2.7442940">
        <ele>700.2</ele>
        <time>2020-07-15T07:12:31Z</time>
      </trkpt>
      <trkpt lat="38.2232300" lon="-2.7444620">
        <ele>701.0</ele>
        <time>2020-07-15T07:12:35Z</time>
      </trkpt>
      <trkpt lat="38.2231880" lon="-2.7446630">
        <ele>702.4</ele>
        <time>2020-07-15T07:12:40Z</time>
      </trkpt>
      <trkpt lat="38.2231520" lon="-2.7448510">
        <ele>703.4</ele>
        <time>2020-07-15T07:12:45Z</time>
      </trkpt>
      <trkpt lat="38.2231420" lon="-2.7449620">
        <ele>704.0</ele>
        <time>2020-07-15T07:12:48Z</time>
      </trkpt>
      <trkpt lat="38.2231390" lon="-2.7450390">
        <ele>704.6</ele>
        <time>2020-07-15T07:12:50Z</time>
      </trkpt>
      <trkpt lat="38.2231610" lon="-2.7452250">
        <ele>705.6</ele>
        <time>2020-07-15T07:12:55Z</time>
      </trkpt>
      <trkpt lat="38.2231710" lon="-2.7452600">
        <ele>705.6</ele>
        <time>2020-07-15T07:12:56Z</time>
      </trkpt>
      <trkpt lat="38.2232380" lon="-2.7454270">
        <ele>706.6</ele>
        <time>2020-07-15T07:13:01Z</time>
      </trkpt>
      <trkpt lat="38.2233070" lon="-2.7455510">
        <ele>707.4</ele>
        <time>2020-07-15T07:13:05Z</time>
      </trkpt>
      <trkpt lat="38.2233490" lon="-2.7456110">
        <ele>707.8</ele>
        <time>2020-07-15T07:13:07Z</time>
      </trkpt>
      <trkpt lat="38.2235000" lon="-2.7457630">
        <ele>708.8</ele>
        <time>2020-07-15T07:13:13Z</time>
      </trkpt>
      <trkpt lat="38.2235290" lon="-2.7457860">
        <ele>709.0</ele>
        <time>2020-07-15T07:13:14Z</time>
      </trkpt>
      <trkpt lat="38.2237080" lon="-2.7459660">
        <ele>710.0</ele>
        <time>2020-07-15T07:13:21Z</time>
      </trkpt>
      <trkpt lat="38.2237500" lon="-2.7460270">
        <ele>710.4</ele>
        <time>2020-07-15T07:13:23Z</time>
      </trkpt>
      <trkpt lat="38.2238510" lon="-2.7462050">
        <ele>711.0</ele>
        <time>2020-07-15T07:13:28Z</time>
      </trkpt>
      <trkpt lat="38.2238890" lon="-2.7462800">
        <ele>711.4</ele>
        <time>2020-07-15T07:13:30Z</time>
      </trkpt>
      <trkpt lat="38.2239760" lon="-2.7464710">
        <ele>712.0</ele>
        <time>2020-07-15T07:13:35Z</time>
      </trkpt>
      <trkpt lat="38.2240450" lon="-2.7466700">
        <ele>712.8</ele>
        <time>2020-07-15T07:13:40Z</time>
      </trkpt>
      <trkpt lat="38.2240660" lon="-2.7467510">
        <ele>713.2</ele>
        <time>2020-07-15T07:13:42Z</time>
      </trkpt>
      <trkpt lat="38.2240990" lon="-2.7469990">
        <ele>714.2</ele>
        <time>2020-07-15T07:13:48Z</time>
      </trkpt>
      <trkpt lat="38.2240970" lon="-2.7470430">
        <ele>714.4</ele>
        <time>2020-07-15T07:13:49Z</time>
      </trkpt>
      <trkpt lat="38.2240930" lon="-2.7472040">
        <ele>715.4</ele>
        <time>2020-07-15T07:13:53Z</time>
      </trkpt>
      <trkpt lat="38.2240740" lon="-2.7473710">
        <ele>716.4</ele>
        <time>2020-07-15T07:13:57Z</time>
      </trkpt>
      <trkpt lat="38.2240400" lon="-2.7476540">
        <ele>717.4</ele>
        <time>2020-07-15T07:14:04Z</time>
      </trkpt>
      <trkpt lat="38.2240090" lon="-2.7478530">
        <ele>718.4</ele>
        <time>2020-07-15T07:14:09Z</time>
      </trkpt>
      <trkpt lat="38.2239800" lon="-2.7480510">
        <ele>719.6</ele>
        <time>2020-07-15T07:14:14Z</time>
      </trkpt>
      <trkpt lat="38.2239360" lon="-2.7482450">
        <ele>720.6</ele>
        <time>2020-07-15T07:14:19Z</time>
      </trkpt>
      <trkpt lat="38.2238820" lon="-2.7484350">
        <ele>721.6</ele>
        <time>2020-07-15T07:14:24Z</time>
      </trkpt>
      <trkpt lat="38.2238340" lon="-2.7485800">
        <ele>722.4</ele>
        <time>2020-07-15T07:14:28Z</time>
      </trkpt>
      <trkpt lat="38.2238070" lon="-2.7486530">
        <ele>722.8</ele>
        <time>2020-07-15T07:14:30Z</time>
      </trkpt>
      <trkpt lat="38.2237210" lon="-2.7488680">
        <ele>723.8</ele>
        <time>2020-07-15T07:14:36Z</time>
      </trkpt>
      <trkpt lat="38.2236960" lon="-2.7489360">
        <ele>724.2</ele>
        <time>2020-07-15T07:14:38Z</time>
      </trkpt>
      <trkpt lat="38.2236430" lon="-2.7490830">
        <ele>725.0</ele>
        <time>2020-07-15T07:14:42Z</time>
      </trkpt>
      <trkpt lat="38.2235700" lon="-2.7492550">
        <ele>726.0</ele>
        <time>2020-07-15T07:14:47Z</time>
      </trkpt>
      <trkpt lat="38.2234940" lon="-2.7493880">
        <ele>726.8</ele>
        <time>2020-07-15T07:14:51Z</time>
      </trkpt>
      <trkpt lat="38.2234740" lon="-2.7494200">
        <ele>727.0</ele>
        <time>2020-07-15T07:14:52Z</time>
      </trkpt>
      <trkpt lat="38.2233360" lon="-2.7495790">
        <ele>728.2</ele>
        <time>2020-07-15T07:14:58Z</time>
      </trkpt>
      <trkpt lat="38.2232840" lon="-2.7496240">
        <ele>728.6</ele>
        <time>2020-07-15T07:15:00Z</time>
      </trkpt>
      <trkpt lat="38.2232030" lon="-2.7496770">
        <ele>729.2</ele>
        <time>2020-07-15T07:15:03Z</time>
      </trkpt>
      <trkpt lat="38.2230380" lon="-2.7497890">
        <ele>730.2</ele>
        <time>2020-07-15T07:15:09Z</time>
      </trkpt>
      <trkpt lat="38.2229830" lon="-2.7498190">
        <ele>730.6</ele>
        <time>2020-07-15T07:15:11Z</time>
      </trkpt>
      <trkpt lat="38.2228690" lon="-2.7499000">
        <ele>731.4</ele>
        <time>2020-07-15T07:15:15Z</time>
      </trkpt>
      <trkpt lat="38.2227290" lon="-2.7499910">
        <ele>732.4</ele>
        <time>2020-07-15T07:15:20Z</time>
      </trkpt>
      <trkpt lat="38.2227010" lon="-2.7500070">
        <ele>732.4</ele>
        <time>2020-07-15T07:15:21Z</time>
      </trkpt>
      <trkpt lat="38.2225600" lon="-2.7500960">
        <ele>733.6</ele>
        <time>2020-07-15T07:15:26Z</time>
      </trkpt>
      <trkpt lat="38.2224770" lon="-2.7501600">
        <ele>734.2</ele>
        <time>2020-07-15T07:15:29Z</time>
      </trkpt>
      <trkpt lat="38.2223970" lon="-2.7502280">
        <ele>734.8</ele>
        <time>2020-07-15T07:15:32Z</time>
      </trkpt>
      <trkpt lat="38.2222570" lon="-2.7503780">
        <ele>735.8</ele>
        <time>2020-07-15T07:15:38Z</time>
      </trkpt>
      <trkpt lat="38.2222340" lon="-2.7504080">
        <ele>736.0</ele>
        <time>2020-07-15T07:15:39Z</time>
      </trkpt>
      <trkpt lat="38.2221220" lon="-2.7505450">
        <ele>737.0</ele>
        <time>2020-07-15T07:15:44Z</time>
      </trkpt>
      <trkpt lat="38.2220610" lon="-2.7506360">
        <ele>737.6</ele>
        <time>2020-07-15T07:15:47Z</time>
      </trkpt>
      <trkpt lat="38.2220070" lon="-2.7507400">
        <ele>738.2</ele>
        <time>2020-07-15T07:15:50Z</time>
      </trkpt>
      <trkpt lat="38.2219370" lon="-2.7509090">
        <ele>739.0</ele>
        <time>2020-07-15T07:15:55Z</time>
      </trkpt>
      <trkpt lat="38.2219200" lon="-2.7509510">
        <ele>739.4</ele>
        <time>2020-07-15T07:15:56Z</time>
      </trkpt>
      <trkpt lat="38.2218510" lon="-2.7511260">
        <ele>740.4</ele>
        <time>2020-07-15T07:16:01Z</time>
      </trkpt>
      <trkpt lat="38.2218380" lon="-2.7511600">
        <ele>740.8</ele>
        <time>2020-07-15T07:16:02Z</time>
      </trkpt>
      <trkpt lat="38.2217810" lon="-2.7512980">
        <ele>741.4</ele>
        <time>2020-07-15T07:16:06Z</time>
      </trkpt>
      <trkpt lat="38.2217220" lon="-2.7514270">
        <ele>742.4</ele>
        <time>2020-07-15T07:16:10Z</time>
      </trkpt>
      <trkpt lat="38.2217060" lon="-2.7514620">
        <ele>742.6</ele>
        <time>2020-07-15T07:16:11Z</time>
      </trkpt>
      <trkpt lat="38.2216260" lon="-2.7516490">
        <ele>743.4</ele>
        <time>2020-07-15T07:16:16Z</time>
      </trkpt>
      <trkpt lat="38.2216130" lon="-2.7516800">
        <ele>743.6</ele>
        <time>2020-07-15T07:16:17Z</time>
      </trkpt>
      <trkpt lat="38.2215340" lon="-2.7518470">
        <ele>744.8</ele>
        <time>2020-07-15T07:16:22Z</time>
      </trkpt>
      <trkpt lat="38.2214840" lon="-2.7519490">
        <ele>745.2</ele>
        <time>2020-07-15T07:16:25Z</time>
      </trkpt>
      <trkpt lat="38.2214380" lon="-2.7520490">
        <ele>745.8</ele>
        <time>2020-07-15T07:16:28Z</time>
      </trkpt>
      <trkpt lat="38.2213520" lon="-2.7522100">
        <ele>746.8</ele>
        <time>2020-07-15T07:16:33Z</time>
      </trkpt>
      <trkpt lat="38.2213330" lon="-2.7522450">
        <ele>747.0</ele>
        <time>2020-07-15T07:16:34Z</time>
      </trkpt>
      <trkpt lat="38.2212550" lon="-2.7524110">
        <ele>748.0</ele>
        <time>2020-07-15T07:16:39Z</time>
      </trkpt>
      <trkpt lat="38.2211870" lon="-2.7525320">
        <ele>748.6</ele>
        <time>2020-07-15T07:16:43Z</time>
      </trkpt>
      <trkpt lat="38.2211280" lon="-2.7526280">
        <ele>749.2</ele>
        <time>2020-07-15T07:16:46Z</time>
      </trkpt>
      <trkpt lat="38.2210210" lon="-2.7527660">
        <ele>750.2</ele>
        <time>2020-07-15T07:16:51Z</time>
      </trkpt>
      <trkpt lat="38.2209780" lon="-2.7528160">
        <ele>750.6</ele>
        <time>2020-07-15T07:16:53Z</time>
      </trkpt>
      <trkpt lat="38.2208840" lon="-2.7529270">
        <ele>751.4</ele>
        <time>2020-07-15T07:16:57Z</time>
      </trkpt>
      <trkpt lat="38.2207530" lon="-2.7530850">
        <ele>752.4</ele>
        <time>2020-07-15T07:17:03Z</time>
      </trkpt>
      <trkpt lat="38.2207050" lon="-2.7531350">
        <ele>752.8</ele>
        <time>2020-07-15T07:17:05Z</time>
      </trkpt>
      <trkpt lat="38.2206070" lon="-2.7532430">
        <ele>753.4</ele>
        <time>2020-07-15T07:17:09Z</time>
      </trkpt>
      <trkpt lat="38.2205270" lon="-2.7533120">
        <ele>754.2</ele>
        <time>2020-07-15T07:17:12Z</time>
      </trkpt>
      <trkpt lat="38.2204650" lon="-2.7533480">
        <ele>754.6</ele>
        <time>2020-07-15T07:17:14Z</time>
      </trkpt>
      <trkpt lat="38.2203360" lon="-2.7533840">
        <ele>755.0</ele>
        <time>2020-07-15T07:17:18Z</time>
      </trkpt>
      <trkpt lat="38.2201970" lon="-2.7533600">
        <ele>755.6</ele>
        <time>2020-07-15T07:17:22Z</time>
      </trkpt>
      <trkpt lat="38.2201310" lon="-2.7533310">
        <ele>756.0</ele>
        <time>2020-07-15T07:17:24Z</time>
      </trkpt>
      <trkpt lat="38.2199310" lon="-2.7532200">
        <ele>756.8</ele>
        <time>2020-07-15T07:17:30Z</time>
      </trkpt>
      <trkpt lat="38.2197960" lon="-2.7531310">
        <ele>757.2</ele>
        <time>2020-07-15T07:17:34Z</time>
      </trkpt>
      <trkpt lat="38.2196090" lon="-2.7530250">
        <ele>757.8</ele>
        <time>2020-07-15T07:17:39Z</time>
      </trkpt>
      <trkpt lat="38.2194460" lon="-2.7529330">
        <ele>757.8</ele>
        <time>2020-07-15T07:17:43Z</time>
      </trkpt>
      <trkpt lat="38.2193010" lon="-2.7528760">
        <ele>757.8</ele>
        <time>2020-07-15T07:17:46Z</time>
      </trkpt>
      <trkpt lat="38.2192570" lon="-2.7528670">
        <ele>757.8</ele>
        <time>2020-07-15T07:17:47Z</time>
      </trkpt>
      <trkpt lat="38.2191550" lon="-2.7528670">
        <ele>757.8</ele>
        <time>2020-07-15T07:17:49Z</time>
      </trkpt>
      <trkpt lat="38.2189940" lon="-2.7529210">
        <ele>758.2</ele>
        <time>2020-07-15T07:17:53Z</time>
      </trkpt>
      <trkpt lat="38.2189500" lon="-2.7529440">
        <ele>758.4</ele>
        <time>2020-07-15T07:17:54Z</time>
      </trkpt>
      <trkpt lat="38.2188780" lon="-2.7529890">
        <ele>758.8</ele>
        <time>2020-07-15T07:17:56Z</time>
      </trkpt>
      <trkpt lat="38.2187420" lon="-2.7530780">
        <ele>759.6</ele>
        <time>2020-07-15T07:18:00Z</time>
      </trkpt>
      <trkpt lat="38.2187090" lon="-2.7531010">
        <ele>759.8</ele>
        <time>2020-07-15T07:18:01Z</time>
      </trkpt>
      <trkpt lat="38.2186470" lon="-2.7531440">
        <ele>760.4</ele>
        <time>2020-07-15T07:18:03Z</time>
      </trkpt>
      <trkpt lat="38.2185480" lon="-2.7532060">
        <ele>761.0</ele>
        <time>2020-07-15T07:18:06Z</time>
      </trkpt>
      <trkpt lat="38.2184520" lon="-2.7532600">
        <ele>762.0</ele>
        <time>2020-07-15T07:18:09Z</time>
      </trkpt>
      <trkpt lat="38.2184180" lon="-2.7532760">
        <ele>762.2</ele>
        <time>2020-07-15T07:18:10Z</time>
      </trkpt>
      <trkpt lat="38.2182500" lon="-2.7533390">
        <ele>763.2</ele>
        <time>2020-07-15T07:18:15Z</time>
      </trkpt>
      <trkpt lat="38.2181850" lon="-2.7533550">
        <ele>763.6</ele>
        <time>2020-07-15T07:18:17Z</time>
      </trkpt>
      <trkpt lat="38.2180750" lon="-2.7533930">
        <ele>764.4</ele>
        <time>2020-07-15T07:18:20Z</time>
      </trkpt>
      <trkpt lat="38.2179320" lon="-2.7534370">
        <ele>765.4</ele>
        <time>2020-07-15T07:18:24Z</time>
      </trkpt>
      <trkpt lat="38.2178970" lon="-2.7534460">
        <ele>765.6</ele>
        <time>2020-07-15T07:18:25Z</time>
      </trkpt>
      <trkpt lat="38.2177270" lon="-2.7534970">
        <ele>766.6</ele>
        <time>2020-07-15T07:18:30Z</time>
      </trkpt>
      <trkpt lat="38.2176620" lon="-2.7535150">
        <ele>767.0</ele>
        <time>2020-07-15T07:18:32Z</time>
      </trkpt>
      <trkpt lat="38.2175390" lon="-2.7535540">
        <ele>767.6</ele>
        <time>2020-07-15T07:18:36Z</time>
      </trkpt>
      <trkpt lat="38.2173990" lon="-2.7536270">
        <ele>768.6</ele>
        <time>2020-07-15T07:18:41Z</time>
      </trkpt>
      <trkpt lat="38.2173310" lon="-2.7536780">
        <ele>768.8</ele>
        <time>2020-07-15T07:18:43Z</time>
      </trkpt>
      <trkpt lat="38.2172180" lon="-2.7537760">
        <ele>770.0</ele>
        <time>2020-07-15T07:18:47Z</time>
      </trkpt>
      <trkpt lat="38.2171390" lon="-2.7538590">
        <ele>770.8</ele>
        <time>2020-07-15T07:18:50Z</time>
      </trkpt>
      <trkpt lat="38.2170870" lon="-2.7539140">
        <ele>771.2</ele>
        <time>2020-07-15T07:18:52Z</time>
      </trkpt>
      <trkpt lat="38.2169560" lon="-2.7540390">
        <ele>772.2</ele>
        <time>2020-07-15T07:18:57Z</time>
      </trkpt>
      <trkpt lat="38.2168340" lon="-2.7541730">
        <ele>773.2</ele>
        <time>2020-07-15T07:19:02Z</time>
      </trkpt>
      <trkpt lat="38.2167320" lon="-2.7542780">
        <ele>774.0</ele>
        <time>2020-07-15T07:19:06Z</time>
      </trkpt>
      <trkpt lat="38.2166820" lon="-2.7543270">
        <ele>774.4</ele>
        <time>2020-07-15T07:19:08Z</time>
      </trkpt>
      <trkpt lat="38.2165540" lon="-2.7544460">
        <ele>775.8</ele>
        <time>2020-07-15T07:19:13Z</time>
      </trkpt>
      <trkpt lat="38.2165230" lon="-2.7544690">
        <ele>776.0</ele>
        <time>2020-07-15T07:19:14Z</time>
      </trkpt>
      <trkpt lat="38.2163760" lon="-2.7545760">
        <ele>777.0</ele>
        <time>2020-07-15T07:19:19Z</time>
      </trkpt>
      <trkpt lat="38.2162720" lon="-2.7546310">
        <ele>777.6</ele>
        <time>2020-07-15T07:19:22Z</time>
      </trkpt>
      <trkpt lat="38.2161220" lon="-2.7546930">
        <ele>778.0</ele>
        <time>2020-07-15T07:19:26Z</time>
      </trkpt>
      <trkpt lat="38.2159300" lon="-2.7547690">
        <ele>778.4</ele>
        <time>2020-07-15T07:19:31Z</time>
      </trkpt>
      <trkpt lat="38.2157450" lon="-2.7548460">
        <ele>779.0</ele>
        <time>2020-07-15T07:19:36Z</time>
      </trkpt>
      <trkpt lat="38.2155140" lon="-2.7549650">
        <ele>779.6</ele>
        <time>2020-07-15T07:19:42Z</time>
      </trkpt>
      <trkpt lat="38.2153220" lon="-2.7550770">
        <ele>779.8</ele>
        <time>2020-07-15T07:19:47Z</time>
      </trkpt>
      <trkpt lat="38.2151380" lon="-2.7551830">
        <ele>780.0</ele>
        <time>2020-07-15T07:19:51Z</time>
      </trkpt>
      <trkpt lat="38.2148660" lon="-2.7553430">
        <ele>779.8</ele>
        <time>2020-07-15T07:19:56Z</time>
      </trkpt>
      <trkpt lat="38.2148070" lon="-2.7553790">
        <ele>779.8</ele>
        <time>2020-07-15T07:19:57Z</time>
      </trkpt>
      <trkpt lat="38.2146920" lon="-2.7554480">
        <ele>779.4</ele>
        <time>2020-07-15T07:19:59Z</time>
      </trkpt>
      <trkpt lat="38.2145590" lon="-2.7555210">
        <ele>779.0</ele>
        <time>2020-07-15T07:20:01Z</time>
      </trkpt>
      <trkpt lat="38.2144350" lon="-2.7555910">
        <ele>779.0</ele>
        <time>2020-07-15T07:20:03Z</time>
      </trkpt>
      <trkpt lat="38.2142240" lon="-2.7557170">
        <ele>778.8</ele>
        <time>2020-07-15T07:20:06Z</time>
      </trkpt>
      <trkpt lat="38.2140120" lon="-2.7558380">
        <ele>778.0</ele>
        <time>2020-07-15T07:20:09Z</time>
      </trkpt>
      <trkpt lat="38.2137970" lon="-2.7559590">
        <ele>777.8</ele>
        <time>2020-07-15T07:20:12Z</time>
      </trkpt>
      <trkpt lat="38.2135770" lon="-2.7560870">
        <ele>777.4</ele>
        <time>2020-07-15T07:20:15Z</time>
      </trkpt>
      <trkpt lat="38.2135050" lon="-2.7561290">
        <ele>777.2</ele>
        <time>2020-07-15T07:20:16Z</time>
      </trkpt>
      <trkpt lat="38.2132910" lon="-2.7562580">
        <ele>776.8</ele>
        <time>2020-07-15T07:20:19Z</time>
      </trkpt>
      <trkpt lat="38.2130780" lon="-2.7563800">
        <ele>776.2</ele>
        <time>2020-07-15T07:20:22Z</time>
      </trkpt>
      <trkpt lat="38.2128600" lon="-2.7565050">
        <ele>775.8</ele>
        <time>2020-07-15T07:20:25Z</time>
      </trkpt>
      <trkpt lat="38.2127880" lon="-2.7565470">
        <ele>775.4</ele>
        <time>2020-07-15T07:20:26Z</time>
      </trkpt>
      <trkpt lat="38.2124230" lon="-2.7567580">
        <ele>774.4</ele>
        <time>2020-07-15T07:20:31Z</time>
      </trkpt>
      <trkpt lat="38.2122710" lon="-2.7568460">
        <ele>774.0</ele>
        <time>2020-07-15T07:20:33Z</time>
      </trkpt>
      <trkpt lat="38.2121930" lon="-2.7568920">
        <ele>774.0</ele>
        <time>2020-07-15T07:20:34Z</time>
      </trkpt>
      <trkpt lat="38.2118120" lon="-2.7571070">
        <ele>773.4</ele>
        <time>2020-07-15T07:20:39Z</time>
      </trkpt>
      <trkpt lat="38.2116710" lon="-2.7571610">
        <ele>773.0</ele>
        <time>2020-07-15T07:20:41Z</time>
      </trkpt>
      <trkpt lat="38.2115160" lon="-2.7571910">
        <ele>772.8</ele>
        <time>2020-07-15T07:20:43Z</time>
      </trkpt>
      <trkpt lat="38.2112630" lon="-2.7572140">
        <ele>772.4</ele>
        <time>2020-07-15T07:20:46Z</time>
      </trkpt>
      <trkpt lat="38.2110200" lon="-2.7572270">
        <ele>772.0</ele>
        <time>2020-07-15T07:20:49Z</time>
      </trkpt>
      <trkpt lat="38.2106880" lon="-2.7572430">
        <ele>770.8</ele>
        <time>2020-07-15T07:20:53Z</time>
      </trkpt>
      <trkpt lat="38.2105970" lon="-2.7572480">
        <ele>770.6</ele>
        <time>2020-07-15T07:20:54Z</time>
      </trkpt>
      <trkpt lat="38.2102380" lon="-2.7572670">
        <ele>769.6</ele>
        <time>2020-07-15T07:20:58Z</time>
      </trkpt>
      <trkpt lat="38.2099740" lon="-2.7572600">
        <ele>768.8</ele>
        <time>2020-07-15T07:21:01Z</time>
      </trkpt>
      <trkpt lat="38.2098940" lon="-2.7572360">
        <ele>768.6</ele>
        <time>2020-07-15T07:21:02Z</time>
      </trkpt>
      <trkpt lat="38.2097500" lon="-2.7571480">
        <ele>768.4</ele>
        <time>2020-07-15T07:21:04Z</time>
      </trkpt>
      <trkpt lat="38.2096260" lon="-2.7570450">
        <ele>768.4</ele>
        <time>2020-07-15T07:21:06Z</time>
      </trkpt>
      <trkpt lat="38.2095090" lon="-2.7569600">
        <ele>769.0</ele>
        <time>2020-07-15T07:21:08Z</time>
      </trkpt>
      <trkpt lat="38.2094420" lon="-2.7569280">
        <ele>769.0</ele>
        <time>2020-07-15T07:21:09Z</time>
      </trkpt>
      <trkpt lat="38.2093170" lon="-2.7569050">
        <ele>769.6</ele>
        <time>2020-07-15T07:21:11Z</time>
      </trkpt>
      <trkpt lat="38.2092500" lon="-2.7569070">
        <ele>769.6</ele>
        <time>2020-07-15T07:21:12Z</time>
      </trkpt>
      <trkpt lat="38.2091940" lon="-2.7569170">
        <ele>770.0</ele>
        <time>2020-07-15T07:21:13Z</time>
      </trkpt>
      <trkpt lat="38.2091320" lon="-2.7569300">
        <ele>770.2</ele>
        <time>2020-07-15T07:21:14Z</time>
      </trkpt>
      <trkpt lat="38.2090210" lon="-2.7569600">
        <ele>770.6</ele>
        <time>2020-07-15T07:21:16Z</time>
      </trkpt>
      <trkpt lat="38.2088100" lon="-2.7570020">
        <ele>771.6</ele>
        <time>2020-07-15T07:21:20Z</time>
      </trkpt>
      <trkpt lat="38.2087620" lon="-2.7570080">
        <ele>771.8</ele>
        <time>2020-07-15T07:21:21Z</time>
      </trkpt>
      <trkpt lat="38.2086220" lon="-2.7570100">
        <ele>772.4</ele>
        <time>2020-07-15T07:21:24Z</time>
      </trkpt>
      <trkpt lat="38.2085760" lon="-2.7570000">
        <ele>772.6</ele>
        <time>2020-07-15T07:21:25Z</time>
      </trkpt>
      <trkpt lat="38.2085340" lon="-2.7569920">
        <ele>772.8</ele>
        <time>2020-07-15T07:21:26Z</time>
      </trkpt>
      <trkpt lat="38.2084920" lon="-2.7569830">
        <ele>773.0</ele>
        <time>2020-07-15T07:21:27Z</time>
      </trkpt>
      <trkpt lat="38.2083590" lon="-2.7569570">
        <ele>773.8</ele>
        <time>2020-07-15T07:21:30Z</time>
      </trkpt>
      <trkpt lat="38.2082740" lon="-2.7569340">
        <ele>774.2</ele>
        <time>2020-07-15T07:21:32Z</time>
      </trkpt>
      <trkpt lat="38.2082310" lon="-2.7569220">
        <ele>774.4</ele>
        <time>2020-07-15T07:21:33Z</time>
      </trkpt>
      <trkpt lat="38.2080190" lon="-2.7568660">
        <ele>775.2</ele>
        <time>2020-07-15T07:21:38Z</time>
      </trkpt>
      <trkpt lat="38.2078960" lon="-2.7568320">
        <ele>775.8</ele>
        <time>2020-07-15T07:21:41Z</time>
      </trkpt>
      <trkpt lat="38.2077820" lon="-2.7567950">
        <ele>776.4</ele>
        <time>2020-07-15T07:21:44Z</time>
      </trkpt>
      <trkpt lat="38.2076270" lon="-2.7567570">
        <ele>777.0</ele>
        <time>2020-07-15T07:21:48Z</time>
      </trkpt>
      <trkpt lat="38.2075530" lon="-2.7567350">
        <ele>777.4</ele>
        <time>2020-07-15T07:21:50Z</time>
      </trkpt>
      <trkpt lat="38.2073690" lon="-2.7566770">
        <ele>778.2</ele>
        <time>2020-07-15T07:21:55Z</time>
      </trkpt>
      <trkpt lat="38.2072970" lon="-2.7566580">
        <ele>778.4</ele>
        <time>2020-07-15T07:21:57Z</time>
      </trkpt>
      <trkpt lat="38.2071130" lon="-2.7566340">
        <ele>779.4</ele>
        <time>2020-07-15T07:22:02Z</time>
      </trkpt>
      <trkpt lat="38.2070750" lon="-2.7566390">
        <ele>779.6</ele>
        <time>2020-07-15T07:22:03Z</time>
      </trkpt>
      <trkpt lat="38.2068340" lon="-2.7567020">
        <ele>780.2</ele>
        <time>2020-07-15T07:22:09Z</time>
      </trkpt>
      <trkpt lat="38.2067550" lon="-2.7567240">
        <ele>780.6</ele>
        <time>2020-07-15T07:22:11Z</time>
      </trkpt>
      <trkpt lat="38.2064470" lon="-2.7568090">
        <ele>781.0</ele>
        <time>2020-07-15T07:22:18Z</time>
      </trkpt>
      <trkpt lat="38.2061310" lon="-2.7568820">
        <ele>781.6</ele>
        <time>2020-07-15T07:22:25Z</time>
      </trkpt>
      <trkpt lat="38.2060870" lon="-2.7568910">
        <ele>781.6</ele>
        <time>2020-07-15T07:22:26Z</time>
      </trkpt>
      <trkpt lat="38.2057710" lon="-2.7568790">
        <ele>782.4</ele>
        <time>2020-07-15T07:22:33Z</time>
      </trkpt>
      <trkpt lat="38.2056710" lon="-2.7568470">
        <ele>782.6</ele>
        <time>2020-07-15T07:22:35Z</time>
      </trkpt>
      <trkpt lat="38.2054190" lon="-2.7567510">
        <ele>782.6</ele>
        <time>2020-07-15T07:22:40Z</time>
      </trkpt>
      <trkpt lat="38.2051180" lon="-2.7566800">
        <ele>783.2</ele>
        <time>2020-07-15T07:22:46Z</time>
      </trkpt>
      <trkpt lat="38.2050180" lon="-2.7566740">
        <ele>783.4</ele>
        <time>2020-07-15T07:22:48Z</time>
      </trkpt>
      <trkpt lat="38.2048040" lon="-2.7566690">
        <ele>783.6</ele>
        <time>2020-07-15T07:22:52Z</time>
      </trkpt>
      <trkpt lat="38.2045770" lon="-2.7566580">
        <ele>783.8</ele>
        <time>2020-07-15T07:22:56Z</time>
      </trkpt>
      <trkpt lat="38.2041870" lon="-2.7566250">
        <ele>783.8</ele>
        <time>2020-07-15T07:23:03Z</time>
      </trkpt>
      <trkpt lat="38.2041300" lon="-2.7566220">
        <ele>783.8</ele>
        <time>2020-07-15T07:23:04Z</time>
      </trkpt>
      <trkpt lat="38.2037920" lon="-2.7566540">
        <ele>784.0</ele>
        <time>2020-07-15T07:23:10Z</time>
      </trkpt>
      <trkpt lat="38.2037400" lon="-2.7566730">
        <ele>784.0</ele>
        <time>2020-07-15T07:23:11Z</time>
      </trkpt>
      <trkpt lat="38.2032450" lon="-2.7568920">
        <ele>784.4</ele>
        <time>2020-07-15T07:23:20Z</time>
      </trkpt>
      <trkpt lat="38.2028670" lon="-2.7571500">
        <ele>784.4</ele>
        <time>2020-07-15T07:23:27Z</time>
      </trkpt>
      <trkpt lat="38.2024660" lon="-2.7574500">
        <ele>784.0</ele>
        <time>2020-07-15T07:23:34Z</time>
      </trkpt>
      <trkpt lat="38.2019810" lon="-2.7577960">
        <ele>783.8</ele>
        <time>2020-07-15T07:23:42Z</time>
      </trkpt>
      <trkpt lat="38.2018440" lon="-2.7578580">
        <ele>783.6</ele>
        <time>2020-07-15T07:23:44Z</time>
      </trkpt>
      <trkpt lat="38.2013860" lon="-2.7579920">
        <ele>782.8</ele>
        <time>2020-07-15T07:23:50Z</time>
      </trkpt>
      <trkpt lat="38.2013080" lon="-2.7580170">
        <ele>782.6</ele>
        <time>2020-07-15T07:23:51Z</time>
      </trkpt>
      <trkpt lat="38.2012290" lon="-2.7580540">
        <ele>782.4</ele>
        <time>2020-07-15T07:23:52Z</time>
      </trkpt>
      <trkpt lat="38.2009940" lon="-2.7582010">
        <ele>781.6</ele>
        <time>2020-07-15T07:23:55Z</time>
      </trkpt>
      <trkpt lat="38.2006930" lon="-2.7584380">
        <ele>780.4</ele>
        <time>2020-07-15T07:23:59Z</time>
      </trkpt>
      <trkpt lat="38.2005240" lon="-2.7585450">
        <ele>779.8</ele>
        <time>2020-07-15T07:24:01Z</time>
      </trkpt>
      <trkpt lat="38.2003640" lon="-2.7586030">
        <ele>779.4</ele>
        <time>2020-07-15T07:24:03Z</time>
      </trkpt>
      <trkpt lat="38.2001830" lon="-2.7586240">
        <ele>778.8</ele>
        <time>2020-07-15T07:24:05Z</time>
      </trkpt>
      <trkpt lat="38.2001050" lon="-2.7586250">
        <ele>778.6</ele>
        <time>2020-07-15T07:24:06Z</time>
      </trkpt>
      <trkpt lat="38.1999860" lon="-2.7586260">
        <ele>778.2</ele>
        <time>2020-07-15T07:24:07Z</time>
      </trkpt>
      <trkpt lat="38.1997150" lon="-2.7586730">
        <ele>777.2</ele>
        <time>2020-07-15T07:24:10Z</time>
      </trkpt>
      <trkpt lat="38.1994880" lon="-2.7588620">
        <ele>776.6</ele>
        <time>2020-07-15T07:24:13Z</time>
      </trkpt>
      <trkpt lat="38.1994140" lon="-2.7589530">
        <ele>776.4</ele>
        <time>2020-07-15T07:24:14Z</time>
      </trkpt>
      <trkpt lat="38.1993480" lon="-2.7590370">
        <ele>776.0</ele>
        <time>2020-07-15T07:24:15Z</time>
      </trkpt>
      <trkpt lat="38.1991610" lon="-2.7592860">
        <ele>775.2</ele>
        <time>2020-07-15T07:24:18Z</time>
      </trkpt>
      <trkpt lat="38.1990900" lon="-2.7593820">
        <ele>775.0</ele>
        <time>2020-07-15T07:24:19Z</time>
      </trkpt>
      <trkpt lat="38.1989610" lon="-2.7595450">
        <ele>774.4</ele>
        <time>2020-07-15T07:24:21Z</time>
      </trkpt>
      <trkpt lat="38.1988290" lon="-2.7596720">
        <ele>773.8</ele>
        <time>2020-07-15T07:24:23Z</time>
      </trkpt>
      <trkpt lat="38.1986520" lon="-2.7597930">
        <ele>773.4</ele>
        <time>2020-07-15T07:24:25Z</time>
      </trkpt>
      <trkpt lat="38.1983930" lon="-2.7599070">
        <ele>772.8</ele>
        <time>2020-07-15T07:24:28Z</time>
      </trkpt>
      <trkpt lat="38.1982950" lon="-2.7599310">
        <ele>772.6</ele>
        <time>2020-07-15T07:24:29Z</time>
      </trkpt>
      <trkpt lat="38.1979960" lon="-2.7599450">
        <ele>771.4</ele>
        <time>2020-07-15T07:24:32Z</time>
      </trkpt>
      <trkpt lat="38.1979000" lon="-2.7599320">
        <ele>770.8</ele>
        <time>2020-07-15T07:24:33Z</time>
      </trkpt>
      <trkpt lat="38.1976990" lon="-2.7598950">
        <ele>770.0</ele>
        <time>2020-07-15T07:24:35Z</time>
      </trkpt>
      <trkpt lat="38.1974050" lon="-2.7598750">
        <ele>768.8</ele>
        <time>2020-07-15T07:24:38Z</time>
      </trkpt>
      <trkpt lat="38.1972970" lon="-2.7599130">
        <ele>768.6</ele>
        <time>2020-07-15T07:24:39Z</time>
      </trkpt>
      <trkpt lat="38.1971360" lon="-2.7600420">
        <ele>767.8</ele>
        <time>2020-07-15T07:24:41Z</time>
      </trkpt>
      <trkpt lat="38.1970550" lon="-2.7601360">
        <ele>767.4</ele>
        <time>2020-07-15T07:24:42Z</time>
      </trkpt>
      <trkpt lat="38.1969880" lon="-2.7602170">
        <ele>767.2</ele>
        <time>2020-07-15T07:24:43Z</time>
      </trkpt>
      <trkpt lat="38.1968220" lon="-2.7603980">
        <ele>766.4</ele>
        <time>2020-07-15T07:24:45Z</time>
      </trkpt>
      <trkpt lat="38.1965830" lon="-2.7606240">
        <ele>765.2</ele>
        <time>2020-07-15T07:24:48Z</time>
      </trkpt>
      <trkpt lat="38.1963140" lon="-2.7608590">
        <ele>763.8</ele>
        <time>2020-07-15T07:24:51Z</time>
      </trkpt>
      <trkpt lat="38.1961530" lon="-2.7609990">
        <ele>763.0</ele>
        <time>2020-07-15T07:24:53Z</time>
      </trkpt>
      <trkpt lat="38.1960480" lon="-2.7610830">
        <ele>762.6</ele>
        <time>2020-07-15T07:24:54Z</time>
      </trkpt>
      <trkpt lat="38.1959540" lon="-2.7611440">
        <ele>762.2</ele>
        <time>2020-07-15T07:24:55Z</time>
      </trkpt>
      <trkpt lat="38.1957660" lon="-2.7612510">
        <ele>761.4</ele>
        <time>2020-07-15T07:24:57Z</time>
      </trkpt>
      <trkpt lat="38.1954990" lon="-2.7614080">
        <ele>760.6</ele>
        <time>2020-07-15T07:25:00Z</time>
      </trkpt>
      <trkpt lat="38.1954240" lon="-2.7614700">
        <ele>760.4</ele>
        <time>2020-07-15T07:25:01Z</time>
      </trkpt>
      <trkpt lat="38.1953020" lon="-2.7616310">
        <ele>760.2</ele>
        <time>2020-07-15T07:25:03Z</time>
      </trkpt>
      <trkpt lat="38.1949410" lon="-2.7621680">
        <ele>759.4</ele>
        <time>2020-07-15T07:25:09Z</time>
      </trkpt>
      <trkpt lat="38.1947990" lon="-2.7624490">
        <ele>759.0</ele>
        <time>2020-07-15T07:25:12Z</time>
      </trkpt>
      <trkpt lat="38.1947360" lon="-2.7627680">
        <ele>758.4</ele>
        <time>2020-07-15T07:25:15Z</time>
      </trkpt>
      <trkpt lat="38.1947260" lon="-2.7628800">
        <ele>758.2</ele>
        <time>2020-07-15T07:25:16Z</time>
      </trkpt>
      <trkpt lat="38.1947100" lon="-2.7630920">
        <ele>758.2</ele>
        <time>2020-07-15T07:25:18Z</time>
      </trkpt>
      <trkpt lat="38.1946960" lon="-2.7632190">
        <ele>758.2</ele>
        <time>2020-07-15T07:25:19Z</time>
      </trkpt>
      <trkpt lat="38.1946760" lon="-2.7635430">
        <ele>757.8</ele>
        <time>2020-07-15T07:25:22Z</time>
      </trkpt>
      <trkpt lat="38.1946500" lon="-2.7640330">
        <ele>757.8</ele>
        <time>2020-07-15T07:25:27Z</time>
      </trkpt>
      <trkpt lat="38.1946230" lon="-2.7642590">
        <ele>758.8</ele>
        <time>2020-07-15T07:25:30Z</time>
      </trkpt>
      <trkpt lat="38.1946000" lon="-2.7643680">
        <ele>759.6</ele>
        <time>2020-07-15T07:25:32Z</time>
      </trkpt>
      <trkpt lat="38.1945660" lon="-2.7644780">
        <ele>760.4</ele>
        <time>2020-07-15T07:25:34Z</time>
      </trkpt>
      <trkpt lat="38.1945460" lon="-2.7645290">
        <ele>760.8</ele>
        <time>2020-07-15T07:25:35Z</time>
      </trkpt>
      <trkpt lat="38.1945120" lon="-2.7646440">
        <ele>761.4</ele>
        <time>2020-07-15T07:25:37Z</time>
      </trkpt>
      <trkpt lat="38.1944850" lon="-2.7646870">
        <ele>761.8</ele>
        <time>2020-07-15T07:25:38Z</time>
      </trkpt>
      <trkpt lat="38.1944530" lon="-2.7647330">
        <ele>762.0</ele>
        <time>2020-07-15T07:25:39Z</time>
      </trkpt>
      <trkpt lat="38.1944010" lon="-2.7647980">
        <ele>762.4</ele>
        <time>2020-07-15T07:25:41Z</time>
      </trkpt>
      <trkpt lat="38.1943620" lon="-2.7648310">
        <ele>762.6</ele>
        <time>2020-07-15T07:25:42Z</time>
      </trkpt>
      <trkpt lat="38.1943280" lon="-2.7648590">
        <ele>763.0</ele>
        <time>2020-07-15T07:25:43Z</time>
      </trkpt>
      <trkpt lat="38.1942140" lon="-2.7649420">
        <ele>764.0</ele>
        <time>2020-07-15T07:25:46Z</time>
      </trkpt>
      <trkpt lat="38.1941770" lon="-2.7649630">
        <ele>764.2</ele>
        <time>2020-07-15T07:25:47Z</time>
      </trkpt>
      <trkpt lat="38.1940570" lon="-2.7650350">
        <ele>764.8</ele>
        <time>2020-07-15T07:25:50Z</time>
      </trkpt>
      <trkpt lat="38.1939020" lon="-2.7651360">
        <ele>765.4</ele>
        <time>2020-07-15T07:25:54Z</time>
      </trkpt>
      <trkpt lat="38.1938360" lon="-2.7651980">
        <ele>765.6</ele>
        <time>2020-07-15T07:25:56Z</time>
      </trkpt>
      <trkpt lat="38.1935740" lon="-2.7654290">
        <ele>766.2</ele>
        <time>2020-07-15T07:26:02Z</time>
      </trkpt>
      <trkpt lat="38.1931990" lon="-2.7657820">
        <ele>765.2</ele>
        <time>2020-07-15T07:26:09Z</time>
      </trkpt>
      <trkpt lat="38.1929940" lon="-2.7660590">
        <ele>764.4</ele>
        <time>2020-07-15T07:26:13Z</time>
      </trkpt>
      <trkpt lat="38.1929490" lon="-2.7661640">
        <ele>764.2</ele>
        <time>2020-07-15T07:26:14Z</time>
      </trkpt>
      <trkpt lat="38.1928410" lon="-2.7665800">
        <ele>763.0</ele>
        <time>2020-07-15T07:26:18Z</time>
      </trkpt>
      <trkpt lat="38.1927670" lon="-2.7669140">
        <ele>762.2</ele>
        <time>2020-07-15T07:26:21Z</time>
      </trkpt>
      <trkpt lat="38.1927440" lon="-2.7670270">
        <ele>761.8</ele>
        <time>2020-07-15T07:26:22Z</time>
      </trkpt>
      <trkpt lat="38.1927010" lon="-2.7672610">
        <ele>761.2</ele>
        <time>2020-07-15T07:26:24Z</time>
      </trkpt>
      <trkpt lat="38.1926760" lon="-2.7673760">
        <ele>760.8</ele>
        <time>2020-07-15T07:26:25Z</time>
      </trkpt>
      <trkpt lat="38.1926300" lon="-2.7676090">
        <ele>760.0</ele>
        <time>2020-07-15T07:26:27Z</time>
      </trkpt>
      <trkpt lat="38.1926140" lon="-2.7677170">
        <ele>759.8</ele>
        <time>2020-07-15T07:26:28Z</time>
      </trkpt>
      <trkpt lat="38.1926100" lon="-2.7678520">
        <ele>759.4</ele>
        <time>2020-07-15T07:26:29Z</time>
      </trkpt>
      <trkpt lat="38.1926140" lon="-2.7679860">
        <ele>759.2</ele>
        <time>2020-07-15T07:26:30Z</time>
      </trkpt>
      <trkpt lat="38.1926210" lon="-2.7681160">
        <ele>758.6</ele>
        <time>2020-07-15T07:26:31Z</time>
      </trkpt>
      <trkpt lat="38.1926320" lon="-2.7683730">
        <ele>757.8</ele>
        <time>2020-07-15T07:26:33Z</time>
      </trkpt>
      <trkpt lat="38.1926390" lon="-2.7685320">
        <ele>757.2</ele>
        <time>2020-07-15T07:26:34Z</time>
      </trkpt>
      <trkpt lat="38.1926380" lon="-2.7686700">
        <ele>756.8</ele>
        <time>2020-07-15T07:26:35Z</time>
      </trkpt>
      <trkpt lat="38.1926210" lon="-2.7688210">
        <ele>756.2</ele>
        <time>2020-07-15T07:26:36Z</time>
      </trkpt>
      <trkpt lat="38.1925440" lon="-2.7690810">
        <ele>755.0</ele>
        <time>2020-07-15T07:26:38Z</time>
      </trkpt>
      <trkpt lat="38.1923630" lon="-2.7693140">
        <ele>753.6</ele>
        <time>2020-07-15T07:26:40Z</time>
      </trkpt>
      <trkpt lat="38.1922860" lon="-2.7694000">
        <ele>753.0</ele>
        <time>2020-07-15T07:26:41Z</time>
      </trkpt>
      <trkpt lat="38.1921930" lon="-2.7695060">
        <ele>752.2</ele>
        <time>2020-07-15T07:26:42Z</time>
      </trkpt>
      <trkpt lat="38.1920410" lon="-2.7696990">
        <ele>751.0</ele>
        <time>2020-07-15T07:26:44Z</time>
      </trkpt>
      <trkpt lat="38.1919930" lon="-2.7698170">
        <ele>750.2</ele>
        <time>2020-07-15T07:26:45Z</time>
      </trkpt>
      <trkpt lat="38.1919730" lon="-2.7700650">
        <ele>749.6</ele>
        <time>2020-07-15T07:26:47Z</time>
      </trkpt>
      <trkpt lat="38.1920000" lon="-2.7703430">
        <ele>749.2</ele>
        <time>2020-07-15T07:26:49Z</time>
      </trkpt>
      <trkpt lat="38.1920590" lon="-2.7707310">
        <ele>748.6</ele>
        <time>2020-07-15T07:26:52Z</time>
      </trkpt>
      <trkpt lat="38.1920870" lon="-2.7708460">
        <ele>748.4</ele>
        <time>2020-07-15T07:26:53Z</time>
      </trkpt>
      <trkpt lat="38.1921600" lon="-2.7712640">
        <ele>747.2</ele>
        <time>2020-07-15T07:26:56Z</time>
      </trkpt>
      <trkpt lat="38.1921560" lon="-2.7713970">
        <ele>746.8</ele>
        <time>2020-07-15T07:26:57Z</time>
      </trkpt>
      <trkpt lat="38.1920800" lon="-2.7716290">
        <ele>746.0</ele>
        <time>2020-07-15T07:26:59Z</time>
      </trkpt>
      <trkpt lat="38.1918600" lon="-2.7718730">
        <ele>745.8</ele>
        <time>2020-07-15T07:27:02Z</time>
      </trkpt>
      <trkpt lat="38.1915290" lon="-2.7720760">
        <ele>745.0</ele>
        <time>2020-07-15T07:27:06Z</time>
      </trkpt>
      <trkpt lat="38.1914650" lon="-2.7720960">
        <ele>745.0</ele>
        <time>2020-07-15T07:27:07Z</time>
      </trkpt>
      <trkpt lat="38.1912670" lon="-2.7721120">
        <ele>745.0</ele>
        <time>2020-07-15T07:27:09Z</time>
      </trkpt>
      <trkpt lat="38.1910140" lon="-2.7720340">
        <ele>745.0</ele>
        <time>2020-07-15T07:27:12Z</time>
      </trkpt>
      <trkpt lat="38.1909390" lon="-2.7719960">
        <ele>745.0</ele>
        <time>2020-07-15T07:27:13Z</time>
      </trkpt>
      <trkpt lat="38.1907090" lon="-2.7718690">
        <ele>745.0</ele>
        <time>2020-07-15T07:27:16Z</time>
      </trkpt>
      <trkpt lat="38.1905040" lon="-2.7717590">
        <ele>745.4</ele>
        <time>2020-07-15T07:27:19Z</time>
      </trkpt>
      <trkpt lat="38.1903750" lon="-2.7716910">
        <ele>745.6</ele>
        <time>2020-07-15T07:27:21Z</time>
      </trkpt>
      <trkpt lat="38.1902610" lon="-2.7716210">
        <ele>746.0</ele>
        <time>2020-07-15T07:27:23Z</time>
      </trkpt>
      <trkpt lat="38.1901410" lon="-2.7715440">
        <ele>746.4</ele>
        <time>2020-07-15T07:27:25Z</time>
      </trkpt>
      <trkpt lat="38.1900310" lon="-2.7714690">
        <ele>746.8</ele>
        <time>2020-07-15T07:27:27Z</time>
      </trkpt>
      <trkpt lat="38.1899810" lon="-2.7714310">
        <ele>747.0</ele>
        <time>2020-07-15T07:27:28Z</time>
      </trkpt>
      <trkpt lat="38.1898760" lon="-2.7713580">
        <ele>747.6</ele>
        <time>2020-07-15T07:27:30Z</time>
      </trkpt>
      <trkpt lat="38.1897800" lon="-2.7712820">
        <ele>748.0</ele>
        <time>2020-07-15T07:27:32Z</time>
      </trkpt>
      <trkpt lat="38.1897350" lon="-2.7712440">
        <ele>748.2</ele>
        <time>2020-07-15T07:27:33Z</time>
      </trkpt>
      <trkpt lat="38.1895980" lon="-2.7711220">
        <ele>748.8</ele>
        <time>2020-07-15T07:27:36Z</time>
      </trkpt>
      <trkpt lat="38.1895190" lon="-2.7710440">
        <ele>749.4</ele>
        <time>2020-07-15T07:27:38Z</time>
      </trkpt>
      <trkpt lat="38.1894110" lon="-2.7709030">
        <ele>750.0</ele>
        <time>2020-07-15T07:27:41Z</time>
      </trkpt>
      <trkpt lat="38.1893060" lon="-2.7707630">
        <ele>750.2</ele>
        <time>2020-07-15T07:27:44Z</time>
      </trkpt>
      <trkpt lat="38.1892690" lon="-2.7707270">
        <ele>750.2</ele>
        <time>2020-07-15T07:27:45Z</time>
      </trkpt>
      <trkpt lat="38.1891850" lon="-2.7706700">
        <ele>750.4</ele>
        <time>2020-07-15T07:27:47Z</time>
      </trkpt>
      <trkpt lat="38.1891380" lon="-2.7706490">
        <ele>750.6</ele>
        <time>2020-07-15T07:27:48Z</time>
      </trkpt>
      <trkpt lat="38.1890410" lon="-2.7706200">
        <ele>750.8</ele>
        <time>2020-07-15T07:27:50Z</time>
      </trkpt>
      <trkpt lat="38.1887960" lon="-2.7705800">
        <ele>751.6</ele>
        <time>2020-07-15T07:27:55Z</time>
      </trkpt>
      <trkpt lat="38.1884120" lon="-2.7705360">
        <ele>752.8</ele>
        <time>2020-07-15T07:28:03Z</time>
      </trkpt>
      <trkpt lat="38.1883620" lon="-2.7705200">
        <ele>753.0</ele>
        <time>2020-07-15T07:28:04Z</time>
      </trkpt>
      <trkpt lat="38.1880290" lon="-2.7703840">
        <ele>753.8</ele>
        <time>2020-07-15T07:28:11Z</time>
      </trkpt>
      <trkpt lat="38.1879820" lon="-2.7703750">
        <ele>753.8</ele>
        <time>2020-07-15T07:28:12Z</time>
      </trkpt>
      <trkpt lat="38.1877930" lon="-2.7704340">
        <ele>754.4</ele>
        <time>2020-07-15T07:28:16Z</time>
      </trkpt>
      <trkpt lat="38.1876280" lon="-2.7706100">
        <ele>754.8</ele>
        <time>2020-07-15T07:28:20Z</time>
      </trkpt>
      <trkpt lat="38.1875870" lon="-2.7706570">
        <ele>754.8</ele>
        <time>2020-07-15T07:28:21Z</time>
      </trkpt>
      <trkpt lat="38.1873770" lon="-2.7708910">
        <ele>755.4</ele>
        <time>2020-07-15T07:28:26Z</time>
      </trkpt>
      <trkpt lat="38.1872470" lon="-2.7710140">
        <ele>755.4</ele>
        <time>2020-07-15T07:28:29Z</time>
      </trkpt>
      <trkpt lat="38.1871280" lon="-2.7711250">
        <ele>755.8</ele>
        <time>2020-07-15T07:28:32Z</time>
      </trkpt>
      <trkpt lat="38.1869810" lon="-2.7712420">
        <ele>756.4</ele>
        <time>2020-07-15T07:28:36Z</time>
      </trkpt>
      <trkpt lat="38.1869420" lon="-2.7712760">
        <ele>756.6</ele>
        <time>2020-07-15T07:28:37Z</time>
      </trkpt>
      <trkpt lat="38.1869090" lon="-2.7713070">
        <ele>757.0</ele>
        <time>2020-07-15T07:28:38Z</time>
      </trkpt>
      <trkpt lat="38.1867990" lon="-2.7714010">
        <ele>757.6</ele>
        <time>2020-07-15T07:28:41Z</time>
      </trkpt>
      <trkpt lat="38.1867640" lon="-2.7714380">
        <ele>757.8</ele>
        <time>2020-07-15T07:28:42Z</time>
      </trkpt>
      <trkpt lat="38.1867320" lon="-2.7714710">
        <ele>758.0</ele>
        <time>2020-07-15T07:28:43Z</time>
      </trkpt>
      <trkpt lat="38.1866650" lon="-2.7715490">
        <ele>758.6</ele>
        <time>2020-07-15T07:28:45Z</time>
      </trkpt>
      <trkpt lat="38.1866030" lon="-2.7716230">
        <ele>759.0</ele>
        <time>2020-07-15T07:28:47Z</time>
      </trkpt>
      <trkpt lat="38.1865550" lon="-2.7717190">
        <ele>759.4</ele>
        <time>2020-07-15T07:28:49Z</time>
      </trkpt>
      <trkpt lat="38.1865220" lon="-2.7717710">
        <ele>759.6</ele>
        <time>2020-07-15T07:28:50Z</time>
      </trkpt>
      <trkpt lat="38.1865020" lon="-2.7718240">
        <ele>759.8</ele>
        <time>2020-07-15T07:28:51Z</time>
      </trkpt>
      <trkpt lat="38.1864860" lon="-2.7718810">
        <ele>760.2</ele>
        <time>2020-07-15T07:28:52Z</time>
      </trkpt>
      <trkpt lat="38.1864520" lon="-2.7719970">
        <ele>760.6</ele>
        <time>2020-07-15T07:28:54Z</time>
      </trkpt>
      <trkpt lat="38.1864100" lon="-2.7721090">
        <ele>761.0</ele>
        <time>2020-07-15T07:28:56Z</time>
      </trkpt>
      <trkpt lat="38.1863940" lon="-2.7721680">
        <ele>761.2</ele>
        <time>2020-07-15T07:28:57Z</time>
      </trkpt>
      <trkpt lat="38.1862900" lon="-2.7724530">
        <ele>762.0</ele>
        <time>2020-07-15T07:29:02Z</time>
      </trkpt>
      <trkpt lat="38.1862710" lon="-2.7725060">
        <ele>762.2</ele>
        <time>2020-07-15T07:29:03Z</time>
      </trkpt>
      <trkpt lat="38.1862070" lon="-2.7726700">
        <ele>762.8</ele>
        <time>2020-07-15T07:29:06Z</time>
      </trkpt>
      <trkpt lat="38.1861750" lon="-2.7727830">
        <ele>763.2</ele>
        <time>2020-07-15T07:29:08Z</time>
      </trkpt>
      <trkpt lat="38.1861520" lon="-2.7728440">
        <ele>763.2</ele>
        <time>2020-07-15T07:29:09Z</time>
      </trkpt>
      <trkpt lat="38.1860380" lon="-2.7730840">
        <ele>763.4</ele>
        <time>2020-07-15T07:29:13Z</time>
      </trkpt>
      <trkpt lat="38.1859880" lon="-2.7731460">
        <ele>763.4</ele>
        <time>2020-07-15T07:29:14Z</time>
      </trkpt>
      <trkpt lat="38.1858130" lon="-2.7732990">
        <ele>763.0</ele>
        <time>2020-07-15T07:29:17Z</time>
      </trkpt>
      <trkpt lat="38.1857440" lon="-2.7733500">
        <ele>762.8</ele>
        <time>2020-07-15T07:29:18Z</time>
      </trkpt>
      <trkpt lat="38.1855800" lon="-2.7734750">
        <ele>762.0</ele>
        <time>2020-07-15T07:29:20Z</time>
      </trkpt>
      <trkpt lat="38.1854190" lon="-2.7735900">
        <ele>761.0</ele>
        <time>2020-07-15T07:29:22Z</time>
      </trkpt>
      <trkpt lat="38.1853440" lon="-2.7736450">
        <ele>760.4</ele>
        <time>2020-07-15T07:29:23Z</time>
      </trkpt>
      <trkpt lat="38.1851630" lon="-2.7737900">
        <ele>759.2</ele>
        <time>2020-07-15T07:29:25Z</time>
      </trkpt>
      <trkpt lat="38.1849910" lon="-2.7739330">
        <ele>758.0</ele>
        <time>2020-07-15T07:29:27Z</time>
      </trkpt>
      <trkpt lat="38.1849090" lon="-2.7739990">
        <ele>757.6</ele>
        <time>2020-07-15T07:29:28Z</time>
      </trkpt>
      <trkpt lat="38.1848210" lon="-2.7740720">
        <ele>757.0</ele>
        <time>2020-07-15T07:29:29Z</time>
      </trkpt>
      <trkpt lat="38.1847320" lon="-2.7741420">
        <ele>756.8</ele>
        <time>2020-07-15T07:29:30Z</time>
      </trkpt>
      <trkpt lat="38.1845670" lon="-2.7742760">
        <ele>755.8</ele>
        <time>2020-07-15T07:29:32Z</time>
      </trkpt>
      <trkpt lat="38.1844860" lon="-2.7743420">
        <ele>755.4</ele>
        <time>2020-07-15T07:29:33Z</time>
      </trkpt>
      <trkpt lat="38.1843210" lon="-2.7744780">
        <ele>755.0</ele>
        <time>2020-07-15T07:29:35Z</time>
      </trkpt>
      <trkpt lat="38.1841600" lon="-2.7746010">
        <ele>754.4</ele>
        <time>2020-07-15T07:29:37Z</time>
      </trkpt>
      <trkpt lat="38.1840800" lon="-2.7746410">
        <ele>754.2</ele>
        <time>2020-07-15T07:29:38Z</time>
      </trkpt>
      <trkpt lat="38.1838830" lon="-2.7746900">
        <ele>753.8</ele>
        <time>2020-07-15T07:29:40Z</time>
      </trkpt>
      <trkpt lat="38.1836960" lon="-2.7746820">
        <ele>753.4</ele>
        <time>2020-07-15T07:29:42Z</time>
      </trkpt>
      <trkpt lat="38.1836020" lon="-2.7746700">
        <ele>753.0</ele>
        <time>2020-07-15T07:29:43Z</time>
      </trkpt>
      <trkpt lat="38.1834080" lon="-2.7746480">
        <ele>752.2</ele>
        <time>2020-07-15T07:29:45Z</time>
      </trkpt>
      <trkpt lat="38.1831410" lon="-2.7746540">
        <ele>751.2</ele>
        <time>2020-07-15T07:29:48Z</time>
      </trkpt>
      <trkpt lat="38.1830480" lon="-2.7746800">
        <ele>751.0</ele>
        <time>2020-07-15T07:29:49Z</time>
      </trkpt>
      <trkpt lat="38.1829760" lon="-2.7747350">
        <ele>750.8</ele>
        <time>2020-07-15T07:29:50Z</time>
      </trkpt>
      <trkpt lat="38.1829130" lon="-2.7748090">
        <ele>750.6</ele>
        <time>2020-07-15T07:29:51Z</time>
      </trkpt>
      <trkpt lat="38.1828330" lon="-2.7751100">
        <ele>750.6</ele>
        <time>2020-07-15T07:29:54Z</time>
      </trkpt>
      <trkpt lat="38.1829190" lon="-2.7754370">
        <ele>750.0</ele>
        <time>2020-07-15T07:29:57Z</time>
      </trkpt>
      <trkpt lat="38.1829770" lon="-2.7755790">
        <ele>749.8</ele>
        <time>2020-07-15T07:29:58Z</time>
      </trkpt>
      <trkpt lat="38.1830920" lon="-2.7758170">
        <ele>748.4</ele>
        <time>2020-07-15T07:30:00Z</time>
      </trkpt>
      <trkpt lat="38.1831880" lon="-2.7760560">
        <ele>746.6</ele>
        <time>2020-07-15T07:30:02Z</time>
      </trkpt>
      <trkpt lat="38.1832190" lon="-2.7761860">
        <ele>745.8</ele>
        <time>2020-07-15T07:30:03Z</time>
      </trkpt>
      <trkpt lat="38.1832310" lon="-2.7763320">
        <ele>744.8</ele>
        <time>2020-07-15T07:30:04Z</time>
      </trkpt>
      <trkpt lat="38.1832170" lon="-2.7764740">
        <ele>744.0</ele>
        <time>2020-07-15T07:30:05Z</time>
      </trkpt>
      <trkpt lat="38.1831650" lon="-2.7766090">
        <ele>743.4</ele>
        <time>2020-07-15T07:30:06Z</time>
      </trkpt>
      <trkpt lat="38.1830740" lon="-2.7767240">
        <ele>742.6</ele>
        <time>2020-07-15T07:30:07Z</time>
      </trkpt>
      <trkpt lat="38.1829710" lon="-2.7768210">
        <ele>741.8</ele>
        <time>2020-07-15T07:30:08Z</time>
      </trkpt>
      <trkpt lat="38.1828320" lon="-2.7768330">
        <ele>741.0</ele>
        <time>2020-07-15T07:30:09Z</time>
      </trkpt>
      <trkpt lat="38.1826960" lon="-2.7767970">
        <ele>740.2</ele>
        <time>2020-07-15T07:30:10Z</time>
      </trkpt>
      <trkpt lat="38.1825690" lon="-2.7767560">
        <ele>739.2</ele>
        <time>2020-07-15T07:30:11Z</time>
      </trkpt>
      <trkpt lat="38.1823650" lon="-2.7765940">
        <ele>737.4</ele>
        <time>2020-07-15T07:30:13Z</time>
      </trkpt>
      <trkpt lat="38.1822670" lon="-2.7764730">
        <ele>736.6</ele>
        <time>2020-07-15T07:30:14Z</time>
      </trkpt>
      <trkpt lat="38.1821540" lon="-2.7763910">
        <ele>735.6</ele>
        <time>2020-07-15T07:30:15Z</time>
      </trkpt>
      <trkpt lat="38.1819070" lon="-2.7762940">
        <ele>733.8</ele>
        <time>2020-07-15T07:30:17Z</time>
      </trkpt>
      <trkpt lat="38.1817790" lon="-2.7762850">
        <ele>732.6</ele>
        <time>2020-07-15T07:30:18Z</time>
      </trkpt>
      <trkpt lat="38.1816410" lon="-2.7762870">
        <ele>731.6</ele>
        <time>2020-07-15T07:30:19Z</time>
      </trkpt>
      <trkpt lat="38.1815110" lon="-2.7762700">
        <ele>730.4</ele>
        <time>2020-07-15T07:30:20Z</time>
      </trkpt>
      <trkpt lat="38.1813800" lon="-2.7762650">
        <ele>729.2</ele>
        <time>2020-07-15T07:30:21Z</time>
      </trkpt>
      <trkpt lat="38.1811570" lon="-2.7762730">
        <ele>728.0</ele>
        <time>2020-07-15T07:30:23Z</time>
      </trkpt>
      <trkpt lat="38.1808540" lon="-2.7763170">
        <ele>726.4</ele>
        <time>2020-07-15T07:30:25Z</time>
      </trkpt>
      <trkpt lat="38.1805910" lon="-2.7763790">
        <ele>724.8</ele>
        <time>2020-07-15T07:30:27Z</time>
      </trkpt>
      <trkpt lat="38.1804640" lon="-2.7763960">
        <ele>723.8</ele>
        <time>2020-07-15T07:30:28Z</time>
      </trkpt>
      <trkpt lat="38.1803240" lon="-2.7763930">
        <ele>722.6</ele>
        <time>2020-07-15T07:30:29Z</time>
      </trkpt>
      <trkpt lat="38.1801830" lon="-2.7763770">
        <ele>721.8</ele>
        <time>2020-07-15T07:30:30Z</time>
      </trkpt>
      <trkpt lat="38.1800480" lon="-2.7763670">
        <ele>721.0</ele>
        <time>2020-07-15T07:30:31Z</time>
      </trkpt>
      <trkpt lat="38.1799190" lon="-2.7763590">
        <ele>719.6</ele>
        <time>2020-07-15T07:30:32Z</time>
      </trkpt>
      <trkpt lat="38.1796400" lon="-2.7763400">
        <ele>718.0</ele>
        <time>2020-07-15T07:30:34Z</time>
      </trkpt>
      <trkpt lat="38.1795030" lon="-2.7763400">
        <ele>716.8</ele>
        <time>2020-07-15T07:30:35Z</time>
      </trkpt>
      <trkpt lat="38.1793580" lon="-2.7763700">
        <ele>715.8</ele>
        <time>2020-07-15T07:30:36Z</time>
      </trkpt>
      <trkpt lat="38.1792340" lon="-2.7764180">
        <ele>714.8</ele>
        <time>2020-07-15T07:30:37Z</time>
      </trkpt>
      <trkpt lat="38.1789750" lon="-2.7765640">
        <ele>713.2</ele>
        <time>2020-07-15T07:30:39Z</time>
      </trkpt>
      <trkpt lat="38.1787330" lon="-2.7767120">
        <ele>711.6</ele>
        <time>2020-07-15T07:30:41Z</time>
      </trkpt>
      <trkpt lat="38.1784960" lon="-2.7768550">
        <ele>709.8</ele>
        <time>2020-07-15T07:30:43Z</time>
      </trkpt>
      <trkpt lat="38.1782360" lon="-2.7769780">
        <ele>708.2</ele>
        <time>2020-07-15T07:30:45Z</time>
      </trkpt>
      <trkpt lat="38.1779880" lon="-2.7770500">
        <ele>706.8</ele>
        <time>2020-07-15T07:30:47Z</time>
      </trkpt>
      <trkpt lat="38.1777470" lon="-2.7771680">
        <ele>705.4</ele>
        <time>2020-07-15T07:30:49Z</time>
      </trkpt>
      <trkpt lat="38.1775800" lon="-2.7773970">
        <ele>704.0</ele>
        <time>2020-07-15T07:30:51Z</time>
      </trkpt>
      <trkpt lat="38.1774560" lon="-2.7776370">
        <ele>702.4</ele>
        <time>2020-07-15T07:30:53Z</time>
      </trkpt>
      <trkpt lat="38.1773560" lon="-2.7777930">
        <ele>701.0</ele>
        <time>2020-07-15T07:30:54Z</time>
      </trkpt>
      <trkpt lat="38.1772560" lon="-2.7779050">
        <ele>700.2</ele>
        <time>2020-07-15T07:30:55Z</time>
      </trkpt>
      <trkpt lat="38.1771500" lon="-2.7779980">
        <ele>699.2</ele>
        <time>2020-07-15T07:30:56Z</time>
      </trkpt>
      <trkpt lat="38.1769310" lon="-2.7781320">
        <ele>697.8</ele>
        <time>2020-07-15T07:30:58Z</time>
      </trkpt>
      <trkpt lat="38.1767970" lon="-2.7782140">
        <ele>697.0</ele>
        <time>2020-07-15T07:30:59Z</time>
      </trkpt>
      <trkpt lat="38.1766690" lon="-2.7782930">
        <ele>696.0</ele>
        <time>2020-07-15T07:31:00Z</time>
      </trkpt>
      <trkpt lat="38.1764340" lon="-2.7784490">
        <ele>694.2</ele>
        <time>2020-07-15T07:31:02Z</time>
      </trkpt>
      <trkpt lat="38.1761910" lon="-2.7785970">
        <ele>692.2</ele>
        <time>2020-07-15T07:31:04Z</time>
      </trkpt>
      <trkpt lat="38.1759710" lon="-2.7787300">
        <ele>690.6</ele>
        <time>2020-07-15T07:31:06Z</time>
      </trkpt>
      <trkpt lat="38.1758130" lon="-2.7788270">
        <ele>689.6</ele>
        <time>2020-07-15T07:31:07Z</time>
      </trkpt>
      <trkpt lat="38.1757050" lon="-2.7789080">
        <ele>688.6</ele>
        <time>2020-07-15T07:31:08Z</time>
      </trkpt>
      <trkpt lat="38.1755760" lon="-2.7790170">
        <ele>687.6</ele>
        <time>2020-07-15T07:31:09Z</time>
      </trkpt>
      <trkpt lat="38.1754710" lon="-2.7791280">
        <ele>686.6</ele>
        <time>2020-07-15T07:31:10Z</time>
      </trkpt>
      <trkpt lat="38.1753770" lon="-2.7792480">
        <ele>685.8</ele>
        <time>2020-07-15T07:31:11Z</time>
      </trkpt>
      <trkpt lat="38.1752770" lon="-2.7793810">
        <ele>684.8</ele>
        <time>2020-07-15T07:31:12Z</time>
      </trkpt>
      <trkpt lat="38.1750820" lon="-2.7796360">
        <ele>683.2</ele>
        <time>2020-07-15T07:31:14Z</time>
      </trkpt>
      <trkpt lat="38.1748880" lon="-2.7798880">
        <ele>680.8</ele>
        <time>2020-07-15T07:31:16Z</time>
      </trkpt>
      <trkpt lat="38.1747980" lon="-2.7800090">
        <ele>680.0</ele>
        <time>2020-07-15T07:31:17Z</time>
      </trkpt>
      <trkpt lat="38.1747140" lon="-2.7801280">
        <ele>679.2</ele>
        <time>2020-07-15T07:31:18Z</time>
      </trkpt>
      <trkpt lat="38.1745180" lon="-2.7803900">
        <ele>677.6</ele>
        <time>2020-07-15T07:31:20Z</time>
      </trkpt>
      <trkpt lat="38.1743360" lon="-2.7806460">
        <ele>676.2</ele>
        <time>2020-07-15T07:31:22Z</time>
      </trkpt>
      <trkpt lat="38.1742510" lon="-2.7807400">
        <ele>675.2</ele>
        <time>2020-07-15T07:31:23Z</time>
      </trkpt>
      <trkpt lat="38.1741220" lon="-2.7808420">
        <ele>674.2</ele>
        <time>2020-07-15T07:31:24Z</time>
      </trkpt>
      <trkpt lat="38.1740030" lon="-2.7809090">
        <ele>673.4</ele>
        <time>2020-07-15T07:31:25Z</time>
      </trkpt>
      <trkpt lat="38.1737540" lon="-2.7810260">
        <ele>671.8</ele>
        <time>2020-07-15T07:31:27Z</time>
      </trkpt>
      <trkpt lat="38.1735130" lon="-2.7811430">
        <ele>670.4</ele>
        <time>2020-07-15T07:31:29Z</time>
      </trkpt>
      <trkpt lat="38.1732740" lon="-2.7813070">
        <ele>668.8</ele>
        <time>2020-07-15T07:31:31Z</time>
      </trkpt>
      <trkpt lat="38.1731700" lon="-2.7814120">
        <ele>668.0</ele>
        <time>2020-07-15T07:31:32Z</time>
      </trkpt>
      <trkpt lat="38.1730830" lon="-2.7815240">
        <ele>667.4</ele>
        <time>2020-07-15T07:31:33Z</time>
      </trkpt>
      <trkpt lat="38.1729270" lon="-2.7817790">
        <ele>666.0</ele>
        <time>2020-07-15T07:31:35Z</time>
      </trkpt>
      <trkpt lat="38.1727570" lon="-2.7820620">
        <ele>664.4</ele>
        <time>2020-07-15T07:31:37Z</time>
      </trkpt>
      <trkpt lat="38.1725970" lon="-2.7823410">
        <ele>662.8</ele>
        <time>2020-07-15T07:31:39Z</time>
      </trkpt>
      <trkpt lat="38.1724460" lon="-2.7826170">
        <ele>661.0</ele>
        <time>2020-07-15T07:31:41Z</time>
      </trkpt>
      <trkpt lat="38.1723660" lon="-2.7827490">
        <ele>660.0</ele>
        <time>2020-07-15T07:31:42Z</time>
      </trkpt>
      <trkpt lat="38.1722060" lon="-2.7830130">
        <ele>658.2</ele>
        <time>2020-07-15T07:31:44Z</time>
      </trkpt>
      <trkpt lat="38.1720560" lon="-2.7832670">
        <ele>657.0</ele>
        <time>2020-07-15T07:31:46Z</time>
      </trkpt>
      <trkpt lat="38.1719910" lon="-2.7833970">
        <ele>656.4</ele>
        <time>2020-07-15T07:31:47Z</time>
      </trkpt>
      <trkpt lat="38.1719140" lon="-2.7835280">
        <ele>655.8</ele>
        <time>2020-07-15T07:31:48Z</time>
      </trkpt>
      <trkpt lat="38.1717610" lon="-2.7837990">
        <ele>654.8</ele>
        <time>2020-07-15T07:31:50Z</time>
      </trkpt>
      <trkpt lat="38.1716860" lon="-2.7839230">
        <ele>654.2</ele>
        <time>2020-07-15T07:31:51Z</time>
      </trkpt>
      <trkpt lat="38.1716180" lon="-2.7840390">
        <ele>653.6</ele>
        <time>2020-07-15T07:31:52Z</time>
      </trkpt>
      <trkpt lat="38.1713670" lon="-2.7843970">
        <ele>652.4</ele>
        <time>2020-07-15T07:31:55Z</time>
      </trkpt>
      <trkpt lat="38.1712780" lon="-2.7844940">
        <ele>651.8</ele>
        <time>2020-07-15T07:31:56Z</time>
      </trkpt>
      <trkpt lat="38.1711880" lon="-2.7845800">
        <ele>651.4</ele>
        <time>2020-07-15T07:31:57Z</time>
      </trkpt>
      <trkpt lat="38.1709040" lon="-2.7848600">
        <ele>649.8</ele>
        <time>2020-07-15T07:32:00Z</time>
      </trkpt>
      <trkpt lat="38.1708160" lon="-2.7849500">
        <ele>649.2</ele>
        <time>2020-07-15T07:32:01Z</time>
      </trkpt>
      <trkpt lat="38.1706560" lon="-2.7851270">
        <ele>648.6</ele>
        <time>2020-07-15T07:32:03Z</time>
      </trkpt>
      <trkpt lat="38.1705350" lon="-2.7853360">
        <ele>648.0</ele>
        <time>2020-07-15T07:32:05Z</time>
      </trkpt>
      <trkpt lat="38.1703880" lon="-2.7857840">
        <ele>648.2</ele>
        <time>2020-07-15T07:32:09Z</time>
      </trkpt>
      <trkpt lat="38.1703230" lon="-2.7859980">
        <ele>648.2</ele>
        <time>2020-07-15T07:32:11Z</time>
      </trkpt>
      <trkpt lat="38.1702910" lon="-2.7861010">
        <ele>648.4</ele>
        <time>2020-07-15T07:32:12Z</time>
      </trkpt>
      <trkpt lat="38.1702600" lon="-2.7862000">
        <ele>648.4</ele>
        <time>2020-07-15T07:32:13Z</time>
      </trkpt>
      <trkpt lat="38.1701970" lon="-2.7864220">
        <ele>648.4</ele>
        <time>2020-07-15T07:32:15Z</time>
      </trkpt>
      <trkpt lat="38.1701720" lon="-2.7866160">
        <ele>648.6</ele>
        <time>2020-07-15T07:32:17Z</time>
      </trkpt>
      <trkpt lat="38.1701790" lon="-2.7867080">
        <ele>648.8</ele>
        <time>2020-07-15T07:32:18Z</time>
      </trkpt>
      <trkpt lat="38.1701920" lon="-2.7868040">
        <ele>649.0</ele>
        <time>2020-07-15T07:32:19Z</time>
      </trkpt>
      <trkpt lat="38.1702200" lon="-2.7869700">
        <ele>649.6</ele>
        <time>2020-07-15T07:32:21Z</time>
      </trkpt>
      <trkpt lat="38.1702260" lon="-2.7870540">
        <ele>650.0</ele>
        <time>2020-07-15T07:32:22Z</time>
      </trkpt>
      <trkpt lat="38.1702300" lon="-2.7871260">
        <ele>650.2</ele>
        <time>2020-07-15T07:32:23Z</time>
      </trkpt>
      <trkpt lat="38.1702330" lon="-2.7872130">
        <ele>650.6</ele>
        <time>2020-07-15T07:32:24Z</time>
      </trkpt>
      <trkpt lat="38.1702330" lon="-2.7872910">
        <ele>650.8</ele>
        <time>2020-07-15T07:32:25Z</time>
      </trkpt>
      <trkpt lat="38.1702300" lon="-2.7874180">
        <ele>651.6</ele>
        <time>2020-07-15T07:32:27Z</time>
      </trkpt>
      <trkpt lat="38.1702290" lon="-2.7874730">
        <ele>652.0</ele>
        <time>2020-07-15T07:32:28Z</time>
      </trkpt>
      <trkpt lat="38.1702280" lon="-2.7875280">
        <ele>652.4</ele>
        <time>2020-07-15T07:32:29Z</time>
      </trkpt>
      <trkpt lat="38.1702320" lon="-2.7876200">
        <ele>653.2</ele>
        <time>2020-07-15T07:32:31Z</time>
      </trkpt>
      <trkpt lat="38.1702330" lon="-2.7877550">
        <ele>654.2</ele>
        <time>2020-07-15T07:32:34Z</time>
      </trkpt>
      <trkpt lat="38.1702380" lon="-2.7877970">
        <ele>654.4</ele>
        <time>2020-07-15T07:32:35Z</time>
      </trkpt>
      <trkpt lat="38.1702650" lon="-2.7878970">
        <ele>655.0</ele>
        <time>2020-07-15T07:32:37Z</time>
      </trkpt>
      <trkpt lat="38.1702860" lon="-2.7879300">
        <ele>655.4</ele>
        <time>2020-07-15T07:32:38Z</time>
      </trkpt>
      <trkpt lat="38.1703040" lon="-2.7879580">
        <ele>655.6</ele>
        <time>2020-07-15T07:32:39Z</time>
      </trkpt>
      <trkpt lat="38.1703480" lon="-2.7880120">
        <ele>656.2</ele>
        <time>2020-07-15T07:32:41Z</time>
      </trkpt>
      <trkpt lat="38.1703940" lon="-2.7880540">
        <ele>656.6</ele>
        <time>2020-07-15T07:32:43Z</time>
      </trkpt>
      <trkpt lat="38.1704140" lon="-2.7880760">
        <ele>657.0</ele>
        <time>2020-07-15T07:32:44Z</time>
      </trkpt>
      <trkpt lat="38.1704550" lon="-2.7881610">
        <ele>657.8</ele>
        <time>2020-07-15T07:32:47Z</time>
      </trkpt>
      <trkpt lat="38.1704730" lon="-2.7882350">
        <ele>658.2</ele>
        <time>2020-07-15T07:32:49Z</time>
      </trkpt>
      <trkpt lat="38.1704910" lon="-2.7882980">
        <ele>658.8</ele>
        <time>2020-07-15T07:32:51Z</time>
      </trkpt>
      <trkpt lat="38.1705010" lon="-2.7883200">
        <ele>659.0</ele>
        <time>2020-07-15T07:32:52Z</time>
      </trkpt>
      <trkpt lat="38.1705200" lon="-2.7883920">
        <ele>659.6</ele>
        <time>2020-07-15T07:32:54Z</time>
      </trkpt>
      <trkpt lat="38.1705270" lon="-2.7884660">
        <ele>660.0</ele>
        <time>2020-07-15T07:32:56Z</time>
      </trkpt>
      <trkpt lat="38.1705280" lon="-2.7884980">
        <ele>660.2</ele>
        <time>2020-07-15T07:32:57Z</time>
      </trkpt>
      <trkpt lat="38.1705440" lon="-2.7885550">
        <ele>660.6</ele>
        <time>2020-07-15T07:32:59Z</time>
      </trkpt>
      <trkpt lat="38.1705540" lon="-2.7886310">
        <ele>661.0</ele>
        <time>2020-07-15T07:33:01Z</time>
      </trkpt>
      <trkpt lat="38.1705700" lon="-2.7887510">
        <ele>661.6</ele>
        <time>2020-07-15T07:33:04Z</time>
      </trkpt>
      <trkpt lat="38.1705840" lon="-2.7888240">
        <ele>662.0</ele>
        <time>2020-07-15T07:33:06Z</time>
      </trkpt>
      <trkpt lat="38.1706080" lon="-2.7889260">
        <ele>662.8</ele>
        <time>2020-07-15T07:33:09Z</time>
      </trkpt>
      <trkpt lat="38.1706270" lon="-2.7889990">
        <ele>663.2</ele>
        <time>2020-07-15T07:33:11Z</time>
      </trkpt>
      <trkpt lat="38.1706850" lon="-2.7891670">
        <ele>664.2</ele>
        <time>2020-07-15T07:33:16Z</time>
      </trkpt>
      <trkpt lat="38.1707010" lon="-2.7891970">
        <ele>664.4</ele>
        <time>2020-07-15T07:33:17Z</time>
      </trkpt>
      <trkpt lat="38.1707540" lon="-2.7893810">
        <ele>665.2</ele>
        <time>2020-07-15T07:33:22Z</time>
      </trkpt>
      <trkpt lat="38.1707870" lon="-2.7894400">
        <ele>665.4</ele>
        <time>2020-07-15T07:33:24Z</time>
      </trkpt>
      <trkpt lat="38.1708350" lon="-2.7895290">
        <ele>666.2</ele>
        <time>2020-07-15T07:33:27Z</time>
      </trkpt>
      <trkpt lat="38.1708710" lon="-2.7895860">
        <ele>666.6</ele>
        <time>2020-07-15T07:33:29Z</time>
      </trkpt>
      <trkpt lat="38.1709600" lon="-2.7897930">
        <ele>667.6</ele>
        <time>2020-07-15T07:33:35Z</time>
      </trkpt>
      <trkpt lat="38.1709690" lon="-2.7898380">
        <ele>667.8</ele>
        <time>2020-07-15T07:33:36Z</time>
      </trkpt>
      <trkpt lat="38.1710490" lon="-2.7900220">
        <ele>668.6</ele>
        <time>2020-07-15T07:33:41Z</time>
      </trkpt>
      <trkpt lat="38.1711680" lon="-2.7902050">
        <ele>669.0</ele>
        <time>2020-07-15T07:33:46Z</time>
      </trkpt>
      <trkpt lat="38.1713430" lon="-2.7903900">
        <ele>669.2</ele>
        <time>2020-07-15T07:33:51Z</time>
      </trkpt>
      <trkpt lat="38.1714520" lon="-2.7905190">
        <ele>669.0</ele>
        <time>2020-07-15T07:33:54Z</time>
      </trkpt>
      <trkpt lat="38.1715200" lon="-2.7906070">
        <ele>669.0</ele>
        <time>2020-07-15T07:33:56Z</time>
      </trkpt>
      <trkpt lat="38.1715800" lon="-2.7906980">
        <ele>668.8</ele>
        <time>2020-07-15T07:33:58Z</time>
      </trkpt>
      <trkpt lat="38.1716650" lon="-2.7908020">
        <ele>668.6</ele>
        <time>2020-07-15T07:34:00Z</time>
      </trkpt>
      <trkpt lat="38.1717660" lon="-2.7908820">
        <ele>668.4</ele>
        <time>2020-07-15T07:34:02Z</time>
      </trkpt>
      <trkpt lat="38.1718900" lon="-2.7909590">
        <ele>668.2</ele>
        <time>2020-07-15T07:34:04Z</time>
      </trkpt>
      <trkpt lat="38.1720150" lon="-2.7910240">
        <ele>667.8</ele>
        <time>2020-07-15T07:34:06Z</time>
      </trkpt>
      <trkpt lat="38.1720840" lon="-2.7910610">
        <ele>667.4</ele>
        <time>2020-07-15T07:34:07Z</time>
      </trkpt>
      <trkpt lat="38.1722330" lon="-2.7911410">
        <ele>667.0</ele>
        <time>2020-07-15T07:34:09Z</time>
      </trkpt>
      <trkpt lat="38.1723840" lon="-2.7912210">
        <ele>666.6</ele>
        <time>2020-07-15T07:34:11Z</time>
      </trkpt>
      <trkpt lat="38.1724610" lon="-2.7912650">
        <ele>666.2</ele>
        <time>2020-07-15T07:34:12Z</time>
      </trkpt>
      <trkpt lat="38.1726290" lon="-2.7913620">
        <ele>665.6</ele>
        <time>2020-07-15T07:34:14Z</time>
      </trkpt>
      <trkpt lat="38.1727130" lon="-2.7914090">
        <ele>665.2</ele>
        <time>2020-07-15T07:34:15Z</time>
      </trkpt>
      <trkpt lat="38.1729810" lon="-2.7915590">
        <ele>664.0</ele>
        <time>2020-07-15T07:34:18Z</time>
      </trkpt>
      <trkpt lat="38.1730780" lon="-2.7916070">
        <ele>663.6</ele>
        <time>2020-07-15T07:34:19Z</time>
      </trkpt>
      <trkpt lat="38.1732680" lon="-2.7917080">
        <ele>662.8</ele>
        <time>2020-07-15T07:34:21Z</time>
      </trkpt>
      <trkpt lat="38.1734700" lon="-2.7918230">
        <ele>661.8</ele>
        <time>2020-07-15T07:34:23Z</time>
      </trkpt>
      <trkpt lat="38.1735730" lon="-2.7918830">
        <ele>661.2</ele>
        <time>2020-07-15T07:34:24Z</time>
      </trkpt>
      <trkpt lat="38.1736800" lon="-2.7919430">
        <ele>660.4</ele>
        <time>2020-07-15T07:34:25Z</time>
      </trkpt>
      <trkpt lat="38.1737830" lon="-2.7919990">
        <ele>659.6</ele>
        <time>2020-07-15T07:34:26Z</time>
      </trkpt>
      <trkpt lat="38.1739910" lon="-2.7921140">
        <ele>658.2</ele>
        <time>2020-07-15T07:34:28Z</time>
      </trkpt>
      <trkpt lat="38.1742150" lon="-2.7922340">
        <ele>656.6</ele>
        <time>2020-07-15T07:34:30Z</time>
      </trkpt>
      <trkpt lat="38.1743260" lon="-2.7922990">
        <ele>656.0</ele>
        <time>2020-07-15T07:34:31Z</time>
      </trkpt>
      <trkpt lat="38.1744280" lon="-2.7923640">
        <ele>655.4</ele>
        <time>2020-07-15T07:34:32Z</time>
      </trkpt>
      <trkpt lat="38.1746440" lon="-2.7925260">
        <ele>654.4</ele>
        <time>2020-07-15T07:34:34Z</time>
      </trkpt>
      <trkpt lat="38.1747240" lon="-2.7926590">
        <ele>654.0</ele>
        <time>2020-07-15T07:34:35Z</time>
      </trkpt>
      <trkpt lat="38.1748330" lon="-2.7928260">
        <ele>653.0</ele>
        <time>2020-07-15T07:34:37Z</time>
      </trkpt>
      <trkpt lat="38.1750120" lon="-2.7931350">
        <ele>652.0</ele>
        <time>2020-07-15T07:34:39Z</time>
      </trkpt>
      <trkpt lat="38.1750750" lon="-2.7932280">
        <ele>651.4</ele>
        <time>2020-07-15T07:34:40Z</time>
      </trkpt>
      <trkpt lat="38.1751360" lon="-2.7933290">
        <ele>650.8</ele>
        <time>2020-07-15T07:34:41Z</time>
      </trkpt>
      <trkpt lat="38.1752870" lon="-2.7936250">
        <ele>650.0</ele>
        <time>2020-07-15T07:34:44Z</time>
      </trkpt>
      <trkpt lat="38.1755110" lon="-2.7941670">
        <ele>650.0</ele>
        <time>2020-07-15T07:34:50Z</time>
      </trkpt>
      <trkpt lat="38.1756310" lon="-2.7944460">
        <ele>649.8</ele>
        <time>2020-07-15T07:34:53Z</time>
      </trkpt>
      <trkpt lat="38.1757960" lon="-2.7948240">
        <ele>648.6</ele>
        <time>2020-07-15T07:34:57Z</time>
      </trkpt>
      <trkpt lat="38.1758310" lon="-2.7949310">
        <ele>648.2</ele>
        <time>2020-07-15T07:34:58Z</time>
      </trkpt>
      <trkpt lat="38.1758580" lon="-2.7951560">
        <ele>647.4</ele>
        <time>2020-07-15T07:35:00Z</time>
      </trkpt>
      <trkpt lat="38.1758210" lon="-2.7954640">
        <ele>646.4</ele>
        <time>2020-07-15T07:35:03Z</time>
      </trkpt>
      <trkpt lat="38.1758020" lon="-2.7955510">
        <ele>646.0</ele>
        <time>2020-07-15T07:35:04Z</time>
      </trkpt>
      <trkpt lat="38.1757800" lon="-2.7956260">
        <ele>645.8</ele>
        <time>2020-07-15T07:35:05Z</time>
      </trkpt>
      <trkpt lat="38.1757410" lon="-2.7957120">
        <ele>645.4</ele>
        <time>2020-07-15T07:35:07Z</time>
      </trkpt>
      <trkpt lat="38.1757310" lon="-2.7957230">
        <ele>645.2</ele>
        <time>2020-07-15T07:35:08Z</time>
      </trkpt>
      <trkpt lat="38.1757330" lon="-2.7957220">
        <ele>645.0</ele>
        <time>2020-07-15T07:35:09Z</time>
      </trkpt>
      <trkpt lat="38.1757120" lon="-2.7957030">
        <ele>644.4</ele>
        <time>2020-07-15T07:36:06Z</time>
      </trkpt>
      <trkpt lat="38.1756840" lon="-2.7957330">
        <ele>644.4</ele>
        <time>2020-07-15T07:36:08Z</time>
      </trkpt>
      <trkpt lat="38.1756530" lon="-2.7957690">
        <ele>644.4</ele>
        <time>2020-07-15T07:36:10Z</time>
      </trkpt>
      <trkpt lat="38.1756350" lon="-2.7957890">
        <ele>644.6</ele>
        <time>2020-07-15T07:36:11Z</time>
      </trkpt>
      <trkpt lat="38.1755950" lon="-2.7958250">
        <ele>644.6</ele>
        <time>2020-07-15T07:36:13Z</time>
      </trkpt>
      <trkpt lat="38.1755710" lon="-2.7958470">
        <ele>644.8</ele>
        <time>2020-07-15T07:36:14Z</time>
      </trkpt>
      <trkpt lat="38.1754720" lon="-2.7959500">
        <ele>645.0</ele>
        <time>2020-07-15T07:36:18Z</time>
      </trkpt>
      <trkpt lat="38.1753330" lon="-2.7960290">
        <ele>645.2</ele>
        <time>2020-07-15T07:36:22Z</time>
      </trkpt>
      <trkpt lat="38.1752930" lon="-2.7960230">
        <ele>645.2</ele>
        <time>2020-07-15T07:36:23Z</time>
      </trkpt>
      <trkpt lat="38.1750460" lon="-2.7959240">
        <ele>645.6</ele>
        <time>2020-07-15T07:36:29Z</time>
      </trkpt>
      <trkpt lat="38.1749220" lon="-2.7958920">
        <ele>645.4</ele>
        <time>2020-07-15T07:36:32Z</time>
      </trkpt>
      <trkpt lat="38.1748060" lon="-2.7958730">
        <ele>645.2</ele>
        <time>2020-07-15T07:36:35Z</time>
      </trkpt>
      <trkpt lat="38.1747670" lon="-2.7958710">
        <ele>645.4</ele>
        <time>2020-07-15T07:36:36Z</time>
      </trkpt>
      <trkpt lat="38.1744990" lon="-2.7958970">
        <ele>645.4</ele>
        <time>2020-07-15T07:36:44Z</time>
      </trkpt>
      <trkpt lat="38.1743970" lon="-2.7959110">
        <ele>645.2</ele>
        <time>2020-07-15T07:36:50Z</time>
      </trkpt>
      <trkpt lat="38.1743190" lon="-2.7960110">
        <ele>646.0</ele>
        <time>2020-07-15T07:39:45Z</time>
      </trkpt>
      <trkpt lat="38.1743060" lon="-2.7960180">
        <ele>646.0</ele>
        <time>2020-07-15T07:39:46Z</time>
      </trkpt>
      <trkpt lat="38.1742720" lon="-2.7960370">
        <ele>646.0</ele>
        <time>2020-07-15T07:39:48Z</time>
      </trkpt>
      <trkpt lat="38.1741300" lon="-2.7961200">
        <ele>645.8</ele>
        <time>2020-07-15T07:39:53Z</time>
      </trkpt>
      <trkpt lat="38.1739490" lon="-2.7962620">
        <ele>645.8</ele>
        <time>2020-07-15T07:39:58Z</time>
      </trkpt>
      <trkpt lat="38.1739090" lon="-2.7963000">
        <ele>645.8</ele>
        <time>2020-07-15T07:39:59Z</time>
      </trkpt>
      <trkpt lat="38.1738060" lon="-2.7964200">
        <ele>645.6</ele>
        <time>2020-07-15T07:40:02Z</time>
      </trkpt>
      <trkpt lat="38.1737030" lon="-2.7965640">
        <ele>645.6</ele>
        <time>2020-07-15T07:40:05Z</time>
      </trkpt>
      <trkpt lat="38.1736170" lon="-2.7967110">
        <ele>645.4</ele>
        <time>2020-07-15T07:40:08Z</time>
      </trkpt>
      <trkpt lat="38.1735450" lon="-2.7968520">
        <ele>645.4</ele>
        <time>2020-07-15T07:40:11Z</time>
      </trkpt>
      <trkpt lat="38.1735160" lon="-2.7968920">
        <ele>645.6</ele>
        <time>2020-07-15T07:40:12Z</time>
      </trkpt>
      <trkpt lat="38.1733980" lon="-2.7969860">
        <ele>645.6</ele>
        <time>2020-07-15T07:40:15Z</time>
      </trkpt>
      <trkpt lat="38.1732320" lon="-2.7970250">
        <ele>646.2</ele>
        <time>2020-07-15T07:40:19Z</time>
      </trkpt>
      <trkpt lat="38.1731880" lon="-2.7970230">
        <ele>646.2</ele>
        <time>2020-07-15T07:40:20Z</time>
      </trkpt>
      <trkpt lat="38.1730050" lon="-2.7969700">
        <ele>646.6</ele>
        <time>2020-07-15T07:40:24Z</time>
      </trkpt>
      <trkpt lat="38.1729600" lon="-2.7969510">
        <ele>646.8</ele>
        <time>2020-07-15T07:40:25Z</time>
      </trkpt>
      <trkpt lat="38.1725790" lon="-2.7968760">
        <ele>647.0</ele>
        <time>2020-07-15T07:40:33Z</time>
      </trkpt>
      <trkpt lat="38.1721280" lon="-2.7969240">
        <ele>647.0</ele>
        <time>2020-07-15T07:40:42Z</time>
      </trkpt>
      <trkpt lat="38.1717250" lon="-2.7970310">
        <ele>647.0</ele>
        <time>2020-07-15T07:40:50Z</time>
      </trkpt>
      <trkpt lat="38.1715150" lon="-2.7970610">
        <ele>646.8</ele>
        <time>2020-07-15T07:40:54Z</time>
      </trkpt>
      <trkpt lat="38.1714100" lon="-2.7970280">
        <ele>646.8</ele>
        <time>2020-07-15T07:40:56Z</time>
      </trkpt>
      <trkpt lat="38.1712410" lon="-2.7968800">
        <ele>647.0</ele>
        <time>2020-07-15T07:41:00Z</time>
      </trkpt>
      <trkpt lat="38.1711280" lon="-2.7967570">
        <ele>647.4</ele>
        <time>2020-07-15T07:41:03Z</time>
      </trkpt>
      <trkpt lat="38.1710460" lon="-2.7966820">
        <ele>647.6</ele>
        <time>2020-07-15T07:41:05Z</time>
      </trkpt>
      <trkpt lat="38.1710020" lon="-2.7966530">
        <ele>647.6</ele>
        <time>2020-07-15T07:41:06Z</time>
      </trkpt>
      <trkpt lat="38.1708660" lon="-2.7966130">
        <ele>648.0</ele>
        <time>2020-07-15T07:41:09Z</time>
      </trkpt>
      <trkpt lat="38.1707710" lon="-2.7966210">
        <ele>648.4</ele>
        <time>2020-07-15T07:41:11Z</time>
      </trkpt>
      <trkpt lat="38.1706800" lon="-2.7966540">
        <ele>648.6</ele>
        <time>2020-07-15T07:41:13Z</time>
      </trkpt>
      <trkpt lat="38.1704690" lon="-2.7967810">
        <ele>649.0</ele>
        <time>2020-07-15T07:41:18Z</time>
      </trkpt>
      <trkpt lat="38.1703790" lon="-2.7968360">
        <ele>649.4</ele>
        <time>2020-07-15T07:41:20Z</time>
      </trkpt>
      <trkpt lat="38.1700920" lon="-2.7969300">
        <ele>650.4</ele>
        <time>2020-07-15T07:41:26Z</time>
      </trkpt>
      <trkpt lat="38.1700450" lon="-2.7969360">
        <ele>650.6</ele>
        <time>2020-07-15T07:41:27Z</time>
      </trkpt>
      <trkpt lat="38.1699400" lon="-2.7969310">
        <ele>650.8</ele>
        <time>2020-07-15T07:41:29Z</time>
      </trkpt>
      <trkpt lat="38.1697860" lon="-2.7969190">
        <ele>651.2</ele>
        <time>2020-07-15T07:41:32Z</time>
      </trkpt>
      <trkpt lat="38.1696380" lon="-2.7969050">
        <ele>651.6</ele>
        <time>2020-07-15T07:41:35Z</time>
      </trkpt>
      <trkpt lat="38.1694380" lon="-2.7969160">
        <ele>652.0</ele>
        <time>2020-07-15T07:41:39Z</time>
      </trkpt>
      <trkpt lat="38.1692480" lon="-2.7969480">
        <ele>652.8</ele>
        <time>2020-07-15T07:41:43Z</time>
      </trkpt>
      <trkpt lat="38.1691520" lon="-2.7969700">
        <ele>653.2</ele>
        <time>2020-07-15T07:41:45Z</time>
      </trkpt>
      <trkpt lat="38.1690630" lon="-2.7970090">
        <ele>653.4</ele>
        <time>2020-07-15T07:41:47Z</time>
      </trkpt>
      <trkpt lat="38.1689760" lon="-2.7970730">
        <ele>653.8</ele>
        <time>2020-07-15T07:41:49Z</time>
      </trkpt>
      <trkpt lat="38.1689020" lon="-2.7971510">
        <ele>654.2</ele>
        <time>2020-07-15T07:41:51Z</time>
      </trkpt>
      <trkpt lat="38.1688700" lon="-2.7971960">
        <ele>654.4</ele>
        <time>2020-07-15T07:41:52Z</time>
      </trkpt>
      <trkpt lat="38.1687950" lon="-2.7973480">
        <ele>655.0</ele>
        <time>2020-07-15T07:41:55Z</time>
      </trkpt>
      <trkpt lat="38.1687540" lon="-2.7974450">
        <ele>655.2</ele>
        <time>2020-07-15T07:41:57Z</time>
      </trkpt>
      <trkpt lat="38.1686950" lon="-2.7975930">
        <ele>656.0</ele>
        <time>2020-07-15T07:42:00Z</time>
      </trkpt>
      <trkpt lat="38.1686370" lon="-2.7977230">
        <ele>656.6</ele>
        <time>2020-07-15T07:42:03Z</time>
      </trkpt>
      <trkpt lat="38.1685960" lon="-2.7978200">
        <ele>657.2</ele>
        <time>2020-07-15T07:42:05Z</time>
      </trkpt>
      <trkpt lat="38.1685450" lon="-2.7979460">
        <ele>658.2</ele>
        <time>2020-07-15T07:42:08Z</time>
      </trkpt>
      <trkpt lat="38.1684830" lon="-2.7980800">
        <ele>659.0</ele>
        <time>2020-07-15T07:42:11Z</time>
      </trkpt>
      <trkpt lat="38.1684350" lon="-2.7981670">
        <ele>659.4</ele>
        <time>2020-07-15T07:42:13Z</time>
      </trkpt>
      <trkpt lat="38.1683800" lon="-2.7982550">
        <ele>659.6</ele>
        <time>2020-07-15T07:42:15Z</time>
      </trkpt>
      <trkpt lat="38.1683220" lon="-2.7983290">
        <ele>660.0</ele>
        <time>2020-07-15T07:42:17Z</time>
      </trkpt>
      <trkpt lat="38.1681960" lon="-2.7984650">
        <ele>660.4</ele>
        <time>2020-07-15T07:42:21Z</time>
      </trkpt>
      <trkpt lat="38.1680730" lon="-2.7985910">
        <ele>661.2</ele>
        <time>2020-07-15T07:42:25Z</time>
      </trkpt>
      <trkpt lat="38.1680080" lon="-2.7986480">
        <ele>661.6</ele>
        <time>2020-07-15T07:42:27Z</time>
      </trkpt>
      <trkpt lat="38.1678180" lon="-2.7987540">
        <ele>662.4</ele>
        <time>2020-07-15T07:42:32Z</time>
      </trkpt>
      <trkpt lat="38.1677380" lon="-2.7987780">
        <ele>662.6</ele>
        <time>2020-07-15T07:42:34Z</time>
      </trkpt>
      <trkpt lat="38.1675460" lon="-2.7988730">
        <ele>663.8</ele>
        <time>2020-07-15T07:42:39Z</time>
      </trkpt>
      <trkpt lat="38.1674330" lon="-2.7989400">
        <ele>664.4</ele>
        <time>2020-07-15T07:42:42Z</time>
      </trkpt>
      <trkpt lat="38.1673370" lon="-2.7989520">
        <ele>664.8</ele>
        <time>2020-07-15T07:42:44Z</time>
      </trkpt>
      <trkpt lat="38.1672870" lon="-2.7989470">
        <ele>665.0</ele>
        <time>2020-07-15T07:42:45Z</time>
      </trkpt>
      <trkpt lat="38.1671050" lon="-2.7988330">
        <ele>665.0</ele>
        <time>2020-07-15T07:42:49Z</time>
      </trkpt>
      <trkpt lat="38.1670120" lon="-2.7986710">
        <ele>665.0</ele>
        <time>2020-07-15T07:42:52Z</time>
      </trkpt>
      <trkpt lat="38.1669910" lon="-2.7986030">
        <ele>665.0</ele>
        <time>2020-07-15T07:42:53Z</time>
      </trkpt>
      <trkpt lat="38.1668890" lon="-2.7981940">
        <ele>664.4</ele>
        <time>2020-07-15T07:42:58Z</time>
      </trkpt>
      <trkpt lat="38.1668240" lon="-2.7979200">
        <ele>663.6</ele>
        <time>2020-07-15T07:43:01Z</time>
      </trkpt>
      <trkpt lat="38.1668020" lon="-2.7978270">
        <ele>663.4</ele>
        <time>2020-07-15T07:43:02Z</time>
      </trkpt>
      <trkpt lat="38.1667630" lon="-2.7976480">
        <ele>663.0</ele>
        <time>2020-07-15T07:43:04Z</time>
      </trkpt>
      <trkpt lat="38.1667230" lon="-2.7974050">
        <ele>662.8</ele>
        <time>2020-07-15T07:43:07Z</time>
      </trkpt>
      <trkpt lat="38.1666800" lon="-2.7970530">
        <ele>664.2</ele>
        <time>2020-07-15T07:43:12Z</time>
      </trkpt>
      <trkpt lat="38.1666690" lon="-2.7969080">
        <ele>664.6</ele>
        <time>2020-07-15T07:43:14Z</time>
      </trkpt>
      <trkpt lat="38.1666520" lon="-2.7968360">
        <ele>664.6</ele>
        <time>2020-07-15T07:43:15Z</time>
      </trkpt>
      <trkpt lat="38.1666280" lon="-2.7967690">
        <ele>664.6</ele>
        <time>2020-07-15T07:43:16Z</time>
      </trkpt>
      <trkpt lat="38.1665250" lon="-2.7965670">
        <ele>664.6</ele>
        <time>2020-07-15T07:43:19Z</time>
      </trkpt>
      <trkpt lat="38.1664850" lon="-2.7965040">
        <ele>664.6</ele>
        <time>2020-07-15T07:43:20Z</time>
      </trkpt>
      <trkpt lat="38.1663290" lon="-2.7962540">
        <ele>664.4</ele>
        <time>2020-07-15T07:43:24Z</time>
      </trkpt>
      <trkpt lat="38.1662450" lon="-2.7961320">
        <ele>664.4</ele>
        <time>2020-07-15T07:43:26Z</time>
      </trkpt>
      <trkpt lat="38.1660870" lon="-2.7959930">
        <ele>664.2</ele>
        <time>2020-07-15T07:43:29Z</time>
      </trkpt>
      <trkpt lat="38.1660240" lon="-2.7959520">
        <ele>664.2</ele>
        <time>2020-07-15T07:43:30Z</time>
      </trkpt>
      <trkpt lat="38.1659050" lon="-2.7958740">
        <ele>663.8</ele>
        <time>2020-07-15T07:43:32Z</time>
      </trkpt>
      <trkpt lat="38.1657860" lon="-2.7957490">
        <ele>663.6</ele>
        <time>2020-07-15T07:43:34Z</time>
      </trkpt>
      <trkpt lat="38.1656940" lon="-2.7954950">
        <ele>662.8</ele>
        <time>2020-07-15T07:43:37Z</time>
      </trkpt>
      <trkpt lat="38.1657370" lon="-2.7952490">
        <ele>662.6</ele>
        <time>2020-07-15T07:43:40Z</time>
      </trkpt>
      <trkpt lat="38.1658650" lon="-2.7950470">
        <ele>663.0</ele>
        <time>2020-07-15T07:43:43Z</time>
      </trkpt>
      <trkpt lat="38.1660370" lon="-2.7948220">
        <ele>663.4</ele>
        <time>2020-07-15T07:43:47Z</time>
      </trkpt>
      <trkpt lat="38.1660760" lon="-2.7947690">
        <ele>663.6</ele>
        <time>2020-07-15T07:43:48Z</time>
      </trkpt>
      <trkpt lat="38.1661150" lon="-2.7947080">
        <ele>663.8</ele>
        <time>2020-07-15T07:43:49Z</time>
      </trkpt>
      <trkpt lat="38.1662900" lon="-2.7944060">
        <ele>664.6</ele>
        <time>2020-07-15T07:43:54Z</time>
      </trkpt>
      <trkpt lat="38.1663560" lon="-2.7942780">
        <ele>664.6</ele>
        <time>2020-07-15T07:43:56Z</time>
      </trkpt>
      <trkpt lat="38.1665490" lon="-2.7938470">
        <ele>664.8</ele>
        <time>2020-07-15T07:44:02Z</time>
      </trkpt>
      <trkpt lat="38.1667590" lon="-2.7932760">
        <ele>664.2</ele>
        <time>2020-07-15T07:44:09Z</time>
      </trkpt>
      <trkpt lat="38.1669240" lon="-2.7928380">
        <ele>664.0</ele>
        <time>2020-07-15T07:44:15Z</time>
      </trkpt>
      <trkpt lat="38.1669830" lon="-2.7926360">
        <ele>664.8</ele>
        <time>2020-07-15T07:44:18Z</time>
      </trkpt>
      <trkpt lat="38.1670320" lon="-2.7924310">
        <ele>665.4</ele>
        <time>2020-07-15T07:44:21Z</time>
      </trkpt>
      <trkpt lat="38.1670440" lon="-2.7923670">
        <ele>665.6</ele>
        <time>2020-07-15T07:44:22Z</time>
      </trkpt>
      <trkpt lat="38.1670820" lon="-2.7921080">
        <ele>666.4</ele>
        <time>2020-07-15T07:44:26Z</time>
      </trkpt>
      <trkpt lat="38.1670900" lon="-2.7920440">
        <ele>666.6</ele>
        <time>2020-07-15T07:44:27Z</time>
      </trkpt>
      <trkpt lat="38.1671040" lon="-2.7919250">
        <ele>667.0</ele>
        <time>2020-07-15T07:44:29Z</time>
      </trkpt>
      <trkpt lat="38.1671310" lon="-2.7915650">
        <ele>667.6</ele>
        <time>2020-07-15T07:44:34Z</time>
      </trkpt>
      <trkpt lat="38.1671200" lon="-2.7914230">
        <ele>667.6</ele>
        <time>2020-07-15T07:44:36Z</time>
      </trkpt>
      <trkpt lat="38.1670620" lon="-2.7912320">
        <ele>668.2</ele>
        <time>2020-07-15T07:44:39Z</time>
      </trkpt>
      <trkpt lat="38.1669190" lon="-2.7910350">
        <ele>668.8</ele>
        <time>2020-07-15T07:44:43Z</time>
      </trkpt>
      <trkpt lat="38.1668740" lon="-2.7909880">
        <ele>668.8</ele>
        <time>2020-07-15T07:44:44Z</time>
      </trkpt>
      <trkpt lat="38.1667290" lon="-2.7907970">
        <ele>669.0</ele>
        <time>2020-07-15T07:44:48Z</time>
      </trkpt>
      <trkpt lat="38.1666820" lon="-2.7906870">
        <ele>669.2</ele>
        <time>2020-07-15T07:44:50Z</time>
      </trkpt>
      <trkpt lat="38.1666770" lon="-2.7905380">
        <ele>670.0</ele>
        <time>2020-07-15T07:44:53Z</time>
      </trkpt>
      <trkpt lat="38.1666850" lon="-2.7904870">
        <ele>670.2</ele>
        <time>2020-07-15T07:44:54Z</time>
      </trkpt>
      <trkpt lat="38.1667330" lon="-2.7903640">
        <ele>671.0</ele>
        <time>2020-07-15T07:44:57Z</time>
      </trkpt>
      <trkpt lat="38.1667490" lon="-2.7903280">
        <ele>671.4</ele>
        <time>2020-07-15T07:44:58Z</time>
      </trkpt>
      <trkpt lat="38.1667670" lon="-2.7902850">
        <ele>671.6</ele>
        <time>2020-07-15T07:44:59Z</time>
      </trkpt>
      <trkpt lat="38.1668000" lon="-2.7902080">
        <ele>672.2</ele>
        <time>2020-07-15T07:45:01Z</time>
      </trkpt>
      <trkpt lat="38.1668540" lon="-2.7900520">
        <ele>673.2</ele>
        <time>2020-07-15T07:45:05Z</time>
      </trkpt>
      <trkpt lat="38.1668490" lon="-2.7899700">
        <ele>673.8</ele>
        <time>2020-07-15T07:45:07Z</time>
      </trkpt>
      <trkpt lat="38.1668300" lon="-2.7898830">
        <ele>674.4</ele>
        <time>2020-07-15T07:45:09Z</time>
      </trkpt>
      <trkpt lat="38.1668060" lon="-2.7898390">
        <ele>674.6</ele>
        <time>2020-07-15T07:45:10Z</time>
      </trkpt>
      <trkpt lat="38.1667570" lon="-2.7897590">
        <ele>675.2</ele>
        <time>2020-07-15T07:45:12Z</time>
      </trkpt>
      <trkpt lat="38.1666990" lon="-2.7896790">
        <ele>675.6</ele>
        <time>2020-07-15T07:45:14Z</time>
      </trkpt>
      <trkpt lat="38.1666660" lon="-2.7896480">
        <ele>675.6</ele>
        <time>2020-07-15T07:45:15Z</time>
      </trkpt>
      <trkpt lat="38.1665590" lon="-2.7895620">
        <ele>675.8</ele>
        <time>2020-07-15T07:45:18Z</time>
      </trkpt>
      <trkpt lat="38.1662950" lon="-2.7892830">
        <ele>676.4</ele>
        <time>2020-07-15T07:45:26Z</time>
      </trkpt>
      <trkpt lat="38.1662550" lon="-2.7892000">
        <ele>676.6</ele>
        <time>2020-07-15T07:45:28Z</time>
      </trkpt>
      <trkpt lat="38.1661870" lon="-2.7890070">
        <ele>677.2</ele>
        <time>2020-07-15T07:45:32Z</time>
      </trkpt>
      <trkpt lat="38.1661360" lon="-2.7888180">
        <ele>677.6</ele>
        <time>2020-07-15T07:45:36Z</time>
      </trkpt>
      <trkpt lat="38.1660730" lon="-2.7885900">
        <ele>678.8</ele>
        <time>2020-07-15T07:45:41Z</time>
      </trkpt>
      <trkpt lat="38.1659150" lon="-2.7881850">
        <ele>679.8</ele>
        <time>2020-07-15T07:45:49Z</time>
      </trkpt>
      <trkpt lat="38.1657640" lon="-2.7877380">
        <ele>679.6</ele>
        <time>2020-07-15T07:45:56Z</time>
      </trkpt>
      <trkpt lat="38.1656320" lon="-2.7873380">
        <ele>679.4</ele>
        <time>2020-07-15T07:46:02Z</time>
      </trkpt>
      <trkpt lat="38.1655460" lon="-2.7871510">
        <ele>679.4</ele>
        <time>2020-07-15T07:46:05Z</time>
      </trkpt>
      <trkpt lat="38.1654600" lon="-2.7868720">
        <ele>679.4</ele>
        <time>2020-07-15T07:46:09Z</time>
      </trkpt>
      <trkpt lat="38.1654520" lon="-2.7867990">
        <ele>679.4</ele>
        <time>2020-07-15T07:46:10Z</time>
      </trkpt>
      <trkpt lat="38.1654690" lon="-2.7865070">
        <ele>679.8</ele>
        <time>2020-07-15T07:46:14Z</time>
      </trkpt>
      <trkpt lat="38.1654810" lon="-2.7864360">
        <ele>679.8</ele>
        <time>2020-07-15T07:46:15Z</time>
      </trkpt>
      <trkpt lat="38.1655710" lon="-2.7858300">
        <ele>680.8</ele>
        <time>2020-07-15T07:46:24Z</time>
      </trkpt>
      <trkpt lat="38.1655670" lon="-2.7856920">
        <ele>681.0</ele>
        <time>2020-07-15T07:46:26Z</time>
      </trkpt>
      <trkpt lat="38.1655370" lon="-2.7855640">
        <ele>681.2</ele>
        <time>2020-07-15T07:46:28Z</time>
      </trkpt>
      <trkpt lat="38.1653610" lon="-2.7852680">
        <ele>681.8</ele>
        <time>2020-07-15T07:46:33Z</time>
      </trkpt>
      <trkpt lat="38.1652600" lon="-2.7851770">
        <ele>681.8</ele>
        <time>2020-07-15T07:46:35Z</time>
      </trkpt>
      <trkpt lat="38.1650390" lon="-2.7850270">
        <ele>681.6</ele>
        <time>2020-07-15T07:46:39Z</time>
      </trkpt>
      <trkpt lat="38.1649780" lon="-2.7850040">
        <ele>681.6</ele>
        <time>2020-07-15T07:46:40Z</time>
      </trkpt>
      <trkpt lat="38.1647860" lon="-2.7849780">
        <ele>681.2</ele>
        <time>2020-07-15T07:46:43Z</time>
      </trkpt>
      <trkpt lat="38.1647170" lon="-2.7849780">
        <ele>681.2</ele>
        <time>2020-07-15T07:46:44Z</time>
      </trkpt>
      <trkpt lat="38.1645880" lon="-2.7849750">
        <ele>681.2</ele>
        <time>2020-07-15T07:46:46Z</time>
      </trkpt>
      <trkpt lat="38.1645220" lon="-2.7849730">
        <ele>681.4</ele>
        <time>2020-07-15T07:46:47Z</time>
      </trkpt>
      <trkpt lat="38.1643910" lon="-2.7849630">
        <ele>681.4</ele>
        <time>2020-07-15T07:46:49Z</time>
      </trkpt>
      <trkpt lat="38.1642620" lon="-2.7849480">
        <ele>681.4</ele>
        <time>2020-07-15T07:46:51Z</time>
      </trkpt>
      <trkpt lat="38.1642020" lon="-2.7849430">
        <ele>681.6</ele>
        <time>2020-07-15T07:46:52Z</time>
      </trkpt>
      <trkpt lat="38.1636710" lon="-2.7849370">
        <ele>681.2</ele>
        <time>2020-07-15T07:47:00Z</time>
      </trkpt>
      <trkpt lat="38.1631260" lon="-2.7848960">
        <ele>680.8</ele>
        <time>2020-07-15T07:47:08Z</time>
      </trkpt>
      <trkpt lat="38.1628590" lon="-2.7850310">
        <ele>680.6</ele>
        <time>2020-07-15T07:47:12Z</time>
      </trkpt>
      <trkpt lat="38.1624540" lon="-2.7852170">
        <ele>680.6</ele>
        <time>2020-07-15T07:47:18Z</time>
      </trkpt>
      <trkpt lat="38.1620150" lon="-2.7852720">
        <ele>680.4</ele>
        <time>2020-07-15T07:47:24Z</time>
      </trkpt>
      <trkpt lat="38.1616650" lon="-2.7852030">
        <ele>680.4</ele>
        <time>2020-07-15T07:47:29Z</time>
      </trkpt>
      <trkpt lat="38.1613250" lon="-2.7851280">
        <ele>680.8</ele>
        <time>2020-07-15T07:47:34Z</time>
      </trkpt>
      <trkpt lat="38.1611880" lon="-2.7851390">
        <ele>681.0</ele>
        <time>2020-07-15T07:47:36Z</time>
      </trkpt>
      <trkpt lat="38.1609240" lon="-2.7852580">
        <ele>681.4</ele>
        <time>2020-07-15T07:47:40Z</time>
      </trkpt>
      <trkpt lat="38.1607520" lon="-2.7854150">
        <ele>681.8</ele>
        <time>2020-07-15T07:47:43Z</time>
      </trkpt>
      <trkpt lat="38.1606980" lon="-2.7854940">
        <ele>681.8</ele>
        <time>2020-07-15T07:47:44Z</time>
      </trkpt>
      <trkpt lat="38.1605910" lon="-2.7857480">
        <ele>681.8</ele>
        <time>2020-07-15T07:47:47Z</time>
      </trkpt>
      <trkpt lat="38.1605620" lon="-2.7858300">
        <ele>681.6</ele>
        <time>2020-07-15T07:47:48Z</time>
      </trkpt>
      <trkpt lat="38.1604470" lon="-2.7860830">
        <ele>681.4</ele>
        <time>2020-07-15T07:47:51Z</time>
      </trkpt>
      <trkpt lat="38.1603490" lon="-2.7862150">
        <ele>681.4</ele>
        <time>2020-07-15T07:47:53Z</time>
      </trkpt>
      <trkpt lat="38.1602300" lon="-2.7863380">
        <ele>681.2</ele>
        <time>2020-07-15T07:47:55Z</time>
      </trkpt>
      <trkpt lat="38.1599760" lon="-2.7865360">
        <ele>681.2</ele>
        <time>2020-07-15T07:47:59Z</time>
      </trkpt>
      <trkpt lat="38.1599040" lon="-2.7865700">
        <ele>681.4</ele>
        <time>2020-07-15T07:48:00Z</time>
      </trkpt>
      <trkpt lat="38.1596880" lon="-2.7865880">
        <ele>681.4</ele>
        <time>2020-07-15T07:48:03Z</time>
      </trkpt>
      <trkpt lat="38.1594150" lon="-2.7864610">
        <ele>681.4</ele>
        <time>2020-07-15T07:48:07Z</time>
      </trkpt>
      <trkpt lat="38.1590780" lon="-2.7862970">
        <ele>682.6</ele>
        <time>2020-07-15T07:48:13Z</time>
      </trkpt>
      <trkpt lat="38.1589670" lon="-2.7862550">
        <ele>682.8</ele>
        <time>2020-07-15T07:48:15Z</time>
      </trkpt>
      <trkpt lat="38.1587000" lon="-2.7861550">
        <ele>684.0</ele>
        <time>2020-07-15T07:48:20Z</time>
      </trkpt>
      <trkpt lat="38.1586470" lon="-2.7861390">
        <ele>684.2</ele>
        <time>2020-07-15T07:48:21Z</time>
      </trkpt>
      <trkpt lat="38.1584390" lon="-2.7860740">
        <ele>685.0</ele>
        <time>2020-07-15T07:48:25Z</time>
      </trkpt>
      <trkpt lat="38.1582930" lon="-2.7860240">
        <ele>685.6</ele>
        <time>2020-07-15T07:48:28Z</time>
      </trkpt>
      <trkpt lat="38.1581460" lon="-2.7859900">
        <ele>686.0</ele>
        <time>2020-07-15T07:48:31Z</time>
      </trkpt>
      <trkpt lat="38.1579600" lon="-2.7859910">
        <ele>687.0</ele>
        <time>2020-07-15T07:48:35Z</time>
      </trkpt>
      <trkpt lat="38.1579150" lon="-2.7860000">
        <ele>687.2</ele>
        <time>2020-07-15T07:48:36Z</time>
      </trkpt>
      <trkpt lat="38.1575970" lon="-2.7860790">
        <ele>688.2</ele>
        <time>2020-07-15T07:48:43Z</time>
      </trkpt>
      <trkpt lat="38.1572400" lon="-2.7862360">
        <ele>689.0</ele>
        <time>2020-07-15T07:48:51Z</time>
      </trkpt>
      <trkpt lat="38.1571550" lon="-2.7862780">
        <ele>689.4</ele>
        <time>2020-07-15T07:48:53Z</time>
      </trkpt>
      <trkpt lat="38.1567630" lon="-2.7864740">
        <ele>690.4</ele>
        <time>2020-07-15T07:49:02Z</time>
      </trkpt>
      <trkpt lat="38.1564660" lon="-2.7866240">
        <ele>691.4</ele>
        <time>2020-07-15T07:49:09Z</time>
      </trkpt>
      <trkpt lat="38.1563760" lon="-2.7866650">
        <ele>691.6</ele>
        <time>2020-07-15T07:49:11Z</time>
      </trkpt>
      <trkpt lat="38.1560830" lon="-2.7867320">
        <ele>692.4</ele>
        <time>2020-07-15T07:49:17Z</time>
      </trkpt>
      <trkpt lat="38.1560340" lon="-2.7867300">
        <ele>692.6</ele>
        <time>2020-07-15T07:49:18Z</time>
      </trkpt>
      <trkpt lat="38.1556070" lon="-2.7866870">
        <ele>693.0</ele>
        <time>2020-07-15T07:49:25Z</time>
      </trkpt>
      <trkpt lat="38.1550230" lon="-2.7866470">
        <ele>692.0</ele>
        <time>2020-07-15T07:49:33Z</time>
      </trkpt>
      <trkpt lat="38.1547030" lon="-2.7866970">
        <ele>691.4</ele>
        <time>2020-07-15T07:49:37Z</time>
      </trkpt>
      <trkpt lat="38.1545470" lon="-2.7867330">
        <ele>691.2</ele>
        <time>2020-07-15T07:49:39Z</time>
      </trkpt>
      <trkpt lat="38.1542450" lon="-2.7867310">
        <ele>690.6</ele>
        <time>2020-07-15T07:49:43Z</time>
      </trkpt>
      <trkpt lat="38.1540400" lon="-2.7866560">
        <ele>690.8</ele>
        <time>2020-07-15T07:49:46Z</time>
      </trkpt>
      <trkpt lat="38.1539150" lon="-2.7865870">
        <ele>691.2</ele>
        <time>2020-07-15T07:49:48Z</time>
      </trkpt>
      <trkpt lat="38.1536410" lon="-2.7864400">
        <ele>691.6</ele>
        <time>2020-07-15T07:49:52Z</time>
      </trkpt>
      <trkpt lat="38.1535700" lon="-2.7864180">
        <ele>691.6</ele>
        <time>2020-07-15T07:49:53Z</time>
      </trkpt>
      <trkpt lat="38.1534860" lon="-2.7864080">
        <ele>691.6</ele>
        <time>2020-07-15T07:49:54Z</time>
      </trkpt>
      <trkpt lat="38.1532580" lon="-2.7864550">
        <ele>691.4</ele>
        <time>2020-07-15T07:49:57Z</time>
      </trkpt>
      <trkpt lat="38.1531260" lon="-2.7865200">
        <ele>691.2</ele>
        <time>2020-07-15T07:49:59Z</time>
      </trkpt>
      <trkpt lat="38.1529380" lon="-2.7866080">
        <ele>691.4</ele>
        <time>2020-07-15T07:50:02Z</time>
      </trkpt>
      <trkpt lat="38.1527880" lon="-2.7866490">
        <ele>691.8</ele>
        <time>2020-07-15T07:50:04Z</time>
      </trkpt>
      <trkpt lat="38.1525880" lon="-2.7866520">
        <ele>692.2</ele>
        <time>2020-07-15T07:50:07Z</time>
      </trkpt>
      <trkpt lat="38.1524590" lon="-2.7866410">
        <ele>692.4</ele>
        <time>2020-07-15T07:50:09Z</time>
      </trkpt>
      <trkpt lat="38.1522710" lon="-2.7866310">
        <ele>692.6</ele>
        <time>2020-07-15T07:50:12Z</time>
      </trkpt>
      <trkpt lat="38.1521460" lon="-2.7866490">
        <ele>693.0</ele>
        <time>2020-07-15T07:50:14Z</time>
      </trkpt>
      <trkpt lat="38.1518490" lon="-2.7867390">
        <ele>693.6</ele>
        <time>2020-07-15T07:50:19Z</time>
      </trkpt>
      <trkpt lat="38.1517940" lon="-2.7867530">
        <ele>693.8</ele>
        <time>2020-07-15T07:50:20Z</time>
      </trkpt>
      <trkpt lat="38.1515320" lon="-2.7868460">
        <ele>694.6</ele>
        <time>2020-07-15T07:50:25Z</time>
      </trkpt>
      <trkpt lat="38.1514280" lon="-2.7868810">
        <ele>695.0</ele>
        <time>2020-07-15T07:50:27Z</time>
      </trkpt>
      <trkpt lat="38.1512260" lon="-2.7869550">
        <ele>695.8</ele>
        <time>2020-07-15T07:50:31Z</time>
      </trkpt>
      <trkpt lat="38.1510480" lon="-2.7870210">
        <ele>696.4</ele>
        <time>2020-07-15T07:50:35Z</time>
      </trkpt>
      <trkpt lat="38.1509600" lon="-2.7870520">
        <ele>696.8</ele>
        <time>2020-07-15T07:50:37Z</time>
      </trkpt>
      <trkpt lat="38.1507140" lon="-2.7871490">
        <ele>698.0</ele>
        <time>2020-07-15T07:50:43Z</time>
      </trkpt>
      <trkpt lat="38.1506290" lon="-2.7872030">
        <ele>698.4</ele>
        <time>2020-07-15T07:50:45Z</time>
      </trkpt>
      <trkpt lat="38.1505150" lon="-2.7873040">
        <ele>698.8</ele>
        <time>2020-07-15T07:50:48Z</time>
      </trkpt>
      <trkpt lat="38.1504750" lon="-2.7873590">
        <ele>699.0</ele>
        <time>2020-07-15T07:50:49Z</time>
      </trkpt>
      <trkpt lat="38.1504370" lon="-2.7874110">
        <ele>699.0</ele>
        <time>2020-07-15T07:50:50Z</time>
      </trkpt>
      <trkpt lat="38.1502430" lon="-2.7877810">
        <ele>699.2</ele>
        <time>2020-07-15T07:50:56Z</time>
      </trkpt>
      <trkpt lat="38.1500460" lon="-2.7883580">
        <ele>699.0</ele>
        <time>2020-07-15T07:51:04Z</time>
      </trkpt>
      <trkpt lat="38.1499780" lon="-2.7885700">
        <ele>698.8</ele>
        <time>2020-07-15T07:51:07Z</time>
      </trkpt>
      <trkpt lat="38.1499270" lon="-2.7887010">
        <ele>698.8</ele>
        <time>2020-07-15T07:51:09Z</time>
      </trkpt>
      <trkpt lat="38.1498290" lon="-2.7888820">
        <ele>698.8</ele>
        <time>2020-07-15T07:51:12Z</time>
      </trkpt>
      <trkpt lat="38.1496960" lon="-2.7891350">
        <ele>699.0</ele>
        <time>2020-07-15T07:51:16Z</time>
      </trkpt>
      <trkpt lat="38.1495160" lon="-2.7894740">
        <ele>699.0</ele>
        <time>2020-07-15T07:51:21Z</time>
      </trkpt>
      <trkpt lat="38.1494080" lon="-2.7896900">
        <ele>698.8</ele>
        <time>2020-07-15T07:51:24Z</time>
      </trkpt>
      <trkpt lat="38.1492410" lon="-2.7900610">
        <ele>698.6</ele>
        <time>2020-07-15T07:51:29Z</time>
      </trkpt>
      <trkpt lat="38.1491960" lon="-2.7902310">
        <ele>698.6</ele>
        <time>2020-07-15T07:51:31Z</time>
      </trkpt>
      <trkpt lat="38.1491270" lon="-2.7907440">
        <ele>698.6</ele>
        <time>2020-07-15T07:51:37Z</time>
      </trkpt>
      <trkpt lat="38.1490960" lon="-2.7913360">
        <ele>698.6</ele>
        <time>2020-07-15T07:51:44Z</time>
      </trkpt>
      <trkpt lat="38.1490810" lon="-2.7916700">
        <ele>698.8</ele>
        <time>2020-07-15T07:51:48Z</time>
      </trkpt>
      <trkpt lat="38.1490590" lon="-2.7917600">
        <ele>698.8</ele>
        <time>2020-07-15T07:51:49Z</time>
      </trkpt>
      <trkpt lat="38.1488980" lon="-2.7921510">
        <ele>698.8</ele>
        <time>2020-07-15T07:51:54Z</time>
      </trkpt>
      <trkpt lat="38.1487260" lon="-2.7926410">
        <ele>698.6</ele>
        <time>2020-07-15T07:52:00Z</time>
      </trkpt>
      <trkpt lat="38.1485580" lon="-2.7932950">
        <ele>698.8</ele>
        <time>2020-07-15T07:52:08Z</time>
      </trkpt>
      <trkpt lat="38.1485390" lon="-2.7933840">
        <ele>698.8</ele>
        <time>2020-07-15T07:52:09Z</time>
      </trkpt>
      <trkpt lat="38.1484880" lon="-2.7935440">
        <ele>698.8</ele>
        <time>2020-07-15T07:52:11Z</time>
      </trkpt>
      <trkpt lat="38.1483980" lon="-2.7936640">
        <ele>699.0</ele>
        <time>2020-07-15T07:52:13Z</time>
      </trkpt>
      <trkpt lat="38.1481940" lon="-2.7937280">
        <ele>699.0</ele>
        <time>2020-07-15T07:52:16Z</time>
      </trkpt>
      <trkpt lat="38.1480000" lon="-2.7936630">
        <ele>699.2</ele>
        <time>2020-07-15T07:52:19Z</time>
      </trkpt>
      <trkpt lat="38.1479400" lon="-2.7936330">
        <ele>699.2</ele>
        <time>2020-07-15T07:52:20Z</time>
      </trkpt>
      <trkpt lat="38.1478200" lon="-2.7935900">
        <ele>699.4</ele>
        <time>2020-07-15T07:52:22Z</time>
      </trkpt>
      <trkpt lat="38.1476290" lon="-2.7935730">
        <ele>699.4</ele>
        <time>2020-07-15T07:52:25Z</time>
      </trkpt>
      <trkpt lat="38.1475660" lon="-2.7935750">
        <ele>699.6</ele>
        <time>2020-07-15T07:52:26Z</time>
      </trkpt>
      <trkpt lat="38.1473720" lon="-2.7936220">
        <ele>699.6</ele>
        <time>2020-07-15T07:52:29Z</time>
      </trkpt>
      <trkpt lat="38.1473090" lon="-2.7936530">
        <ele>699.8</ele>
        <time>2020-07-15T07:52:30Z</time>
      </trkpt>
      <trkpt lat="38.1470940" lon="-2.7938700">
        <ele>699.6</ele>
        <time>2020-07-15T07:52:34Z</time>
      </trkpt>
      <trkpt lat="38.1469400" lon="-2.7941820">
        <ele>699.2</ele>
        <time>2020-07-15T07:52:38Z</time>
      </trkpt>
      <trkpt lat="38.1469020" lon="-2.7942690">
        <ele>699.2</ele>
        <time>2020-07-15T07:52:39Z</time>
      </trkpt>
      <trkpt lat="38.1466650" lon="-2.7947850">
        <ele>698.0</ele>
        <time>2020-07-15T07:52:45Z</time>
      </trkpt>
      <trkpt lat="38.1466220" lon="-2.7948730">
        <ele>697.8</ele>
        <time>2020-07-15T07:52:46Z</time>
      </trkpt>
      <trkpt lat="38.1465720" lon="-2.7949570">
        <ele>697.6</ele>
        <time>2020-07-15T07:52:47Z</time>
      </trkpt>
      <trkpt lat="38.1464360" lon="-2.7950780">
        <ele>697.2</ele>
        <time>2020-07-15T07:52:49Z</time>
      </trkpt>
      <trkpt lat="38.1462630" lon="-2.7951010">
        <ele>696.6</ele>
        <time>2020-07-15T07:52:51Z</time>
      </trkpt>
      <trkpt lat="38.1461750" lon="-2.7950980">
        <ele>696.4</ele>
        <time>2020-07-15T07:52:52Z</time>
      </trkpt>
      <trkpt lat="38.1459330" lon="-2.7950100">
        <ele>695.4</ele>
        <time>2020-07-15T07:52:55Z</time>
      </trkpt>
      <trkpt lat="38.1457530" lon="-2.7948410">
        <ele>695.2</ele>
        <time>2020-07-15T07:52:58Z</time>
      </trkpt>
      <trkpt lat="38.1456960" lon="-2.7947830">
        <ele>695.2</ele>
        <time>2020-07-15T07:52:59Z</time>
      </trkpt>
      <trkpt lat="38.1455370" lon="-2.7946410">
        <ele>695.8</ele>
        <time>2020-07-15T07:53:02Z</time>
      </trkpt>
      <trkpt lat="38.1454400" lon="-2.7945510">
        <ele>696.4</ele>
        <time>2020-07-15T07:53:04Z</time>
      </trkpt>
      <trkpt lat="38.1452630" lon="-2.7943580">
        <ele>697.2</ele>
        <time>2020-07-15T07:53:08Z</time>
      </trkpt>
      <trkpt lat="38.1452280" lon="-2.7942990">
        <ele>697.4</ele>
        <time>2020-07-15T07:53:09Z</time>
      </trkpt>
      <trkpt lat="38.1451940" lon="-2.7942400">
        <ele>697.6</ele>
        <time>2020-07-15T07:53:10Z</time>
      </trkpt>
      <trkpt lat="38.1451640" lon="-2.7941730">
        <ele>697.8</ele>
        <time>2020-07-15T07:53:11Z</time>
      </trkpt>
      <trkpt lat="38.1451190" lon="-2.7940280">
        <ele>698.0</ele>
        <time>2020-07-15T07:53:13Z</time>
      </trkpt>
      <trkpt lat="38.1450820" lon="-2.7938830">
        <ele>698.4</ele>
        <time>2020-07-15T07:53:15Z</time>
      </trkpt>
      <trkpt lat="38.1450480" lon="-2.7936980">
        <ele>698.6</ele>
        <time>2020-07-15T07:53:18Z</time>
      </trkpt>
      <trkpt lat="38.1449990" lon="-2.7935050">
        <ele>699.0</ele>
        <time>2020-07-15T07:53:21Z</time>
      </trkpt>
      <trkpt lat="38.1449850" lon="-2.7933910">
        <ele>699.0</ele>
        <time>2020-07-15T07:53:23Z</time>
      </trkpt>
      <trkpt lat="38.1449430" lon="-2.7931960">
        <ele>699.4</ele>
        <time>2020-07-15T07:53:26Z</time>
      </trkpt>
      <trkpt lat="38.1449150" lon="-2.7930550">
        <ele>699.6</ele>
        <time>2020-07-15T07:53:28Z</time>
      </trkpt>
      <trkpt lat="38.1448830" lon="-2.7929060">
        <ele>699.6</ele>
        <time>2020-07-15T07:53:30Z</time>
      </trkpt>
      <trkpt lat="38.1448410" lon="-2.7925940">
        <ele>699.8</ele>
        <time>2020-07-15T07:53:34Z</time>
      </trkpt>
      <trkpt lat="38.1448340" lon="-2.7923610">
        <ele>700.2</ele>
        <time>2020-07-15T07:53:37Z</time>
      </trkpt>
      <trkpt lat="38.1448380" lon="-2.7920480">
        <ele>700.4</ele>
        <time>2020-07-15T07:53:41Z</time>
      </trkpt>
      <trkpt lat="38.1448450" lon="-2.7919720">
        <ele>700.4</ele>
        <time>2020-07-15T07:53:42Z</time>
      </trkpt>
      <trkpt lat="38.1448450" lon="-2.7917390">
        <ele>700.6</ele>
        <time>2020-07-15T07:53:45Z</time>
      </trkpt>
      <trkpt lat="38.1448090" lon="-2.7913580">
        <ele>701.0</ele>
        <time>2020-07-15T07:53:50Z</time>
      </trkpt>
      <trkpt lat="38.1447880" lon="-2.7911620">
        <ele>701.2</ele>
        <time>2020-07-15T07:53:53Z</time>
      </trkpt>
      <trkpt lat="38.1447710" lon="-2.7910880">
        <ele>701.2</ele>
        <time>2020-07-15T07:53:54Z</time>
      </trkpt>
      <trkpt lat="38.1447510" lon="-2.7910270">
        <ele>701.2</ele>
        <time>2020-07-15T07:53:55Z</time>
      </trkpt>
      <trkpt lat="38.1446500" lon="-2.7907760">
        <ele>701.4</ele>
        <time>2020-07-15T07:53:59Z</time>
      </trkpt>
      <trkpt lat="38.1445630" lon="-2.7905860">
        <ele>701.8</ele>
        <time>2020-07-15T07:54:02Z</time>
      </trkpt>
      <trkpt lat="38.1444870" lon="-2.7904220">
        <ele>702.2</ele>
        <time>2020-07-15T07:54:05Z</time>
      </trkpt>
      <trkpt lat="38.1443780" lon="-2.7901720">
        <ele>702.8</ele>
        <time>2020-07-15T07:54:09Z</time>
      </trkpt>
      <trkpt lat="38.1443290" lon="-2.7900550">
        <ele>703.0</ele>
        <time>2020-07-15T07:54:11Z</time>
      </trkpt>
      <trkpt lat="38.1442940" lon="-2.7899280">
        <ele>703.4</ele>
        <time>2020-07-15T07:54:13Z</time>
      </trkpt>
      <trkpt lat="38.1442740" lon="-2.7897910">
        <ele>703.6</ele>
        <time>2020-07-15T07:54:15Z</time>
      </trkpt>
      <trkpt lat="38.1442700" lon="-2.7897230">
        <ele>703.8</ele>
        <time>2020-07-15T07:54:16Z</time>
      </trkpt>
      <trkpt lat="38.1442410" lon="-2.7893150">
        <ele>704.6</ele>
        <time>2020-07-15T07:54:22Z</time>
      </trkpt>
      <trkpt lat="38.1442380" lon="-2.7892550">
        <ele>704.6</ele>
        <time>2020-07-15T07:54:23Z</time>
      </trkpt>
      <trkpt lat="38.1442300" lon="-2.7891800">
        <ele>704.8</ele>
        <time>2020-07-15T07:54:24Z</time>
      </trkpt>
      <trkpt lat="38.1441960" lon="-2.7889510">
        <ele>705.4</ele>
        <time>2020-07-15T07:54:28Z</time>
      </trkpt>
      <trkpt lat="38.1441390" lon="-2.7887860">
        <ele>705.8</ele>
        <time>2020-07-15T07:54:31Z</time>
      </trkpt>
      <trkpt lat="38.1441120" lon="-2.7887440">
        <ele>706.0</ele>
        <time>2020-07-15T07:54:32Z</time>
      </trkpt>
      <trkpt lat="38.1440600" lon="-2.7886530">
        <ele>706.4</ele>
        <time>2020-07-15T07:54:34Z</time>
      </trkpt>
      <trkpt lat="38.1439630" lon="-2.7885010">
        <ele>706.8</ele>
        <time>2020-07-15T07:54:37Z</time>
      </trkpt>
      <trkpt lat="38.1439260" lon="-2.7884630">
        <ele>706.8</ele>
        <time>2020-07-15T07:54:38Z</time>
      </trkpt>
      <trkpt lat="38.1438380" lon="-2.7884000">
        <ele>707.0</ele>
        <time>2020-07-15T07:54:40Z</time>
      </trkpt>
      <trkpt lat="38.1437410" lon="-2.7883440">
        <ele>707.2</ele>
        <time>2020-07-15T07:54:42Z</time>
      </trkpt>
      <trkpt lat="38.1436400" lon="-2.7883050">
        <ele>707.6</ele>
        <time>2020-07-15T07:54:44Z</time>
      </trkpt>
      <trkpt lat="38.1434930" lon="-2.7882500">
        <ele>708.0</ele>
        <time>2020-07-15T07:54:47Z</time>
      </trkpt>
      <trkpt lat="38.1434400" lon="-2.7882340">
        <ele>708.0</ele>
        <time>2020-07-15T07:54:48Z</time>
      </trkpt>
      <trkpt lat="38.1432430" lon="-2.7881690">
        <ele>708.8</ele>
        <time>2020-07-15T07:54:52Z</time>
      </trkpt>
      <trkpt lat="38.1431990" lon="-2.7881550">
        <ele>709.0</ele>
        <time>2020-07-15T07:54:53Z</time>
      </trkpt>
      <trkpt lat="38.1430950" lon="-2.7881120">
        <ele>709.4</ele>
        <time>2020-07-15T07:54:55Z</time>
      </trkpt>
      <trkpt lat="38.1429610" lon="-2.7880350">
        <ele>710.0</ele>
        <time>2020-07-15T07:54:58Z</time>
      </trkpt>
      <trkpt lat="38.1427020" lon="-2.7878290">
        <ele>711.0</ele>
        <time>2020-07-15T07:55:04Z</time>
      </trkpt>
      <trkpt lat="38.1426600" lon="-2.7877960">
        <ele>711.2</ele>
        <time>2020-07-15T07:55:05Z</time>
      </trkpt>
      <trkpt lat="38.1424540" lon="-2.7876380">
        <ele>712.2</ele>
        <time>2020-07-15T07:55:10Z</time>
      </trkpt>
      <trkpt lat="38.1424070" lon="-2.7876160">
        <ele>712.6</ele>
        <time>2020-07-15T07:55:11Z</time>
      </trkpt>
      <trkpt lat="38.1423140" lon="-2.7875880">
        <ele>713.0</ele>
        <time>2020-07-15T07:55:13Z</time>
      </trkpt>
      <trkpt lat="38.1422160" lon="-2.7875640">
        <ele>713.4</ele>
        <time>2020-07-15T07:55:15Z</time>
      </trkpt>
      <trkpt lat="38.1420050" lon="-2.7875320">
        <ele>714.0</ele>
        <time>2020-07-15T07:55:19Z</time>
      </trkpt>
      <trkpt lat="38.1417010" lon="-2.7874750">
        <ele>714.4</ele>
        <time>2020-07-15T07:55:25Z</time>
      </trkpt>
      <trkpt lat="38.1416040" lon="-2.7874520">
        <ele>714.4</ele>
        <time>2020-07-15T07:55:27Z</time>
      </trkpt>
      <trkpt lat="38.1414430" lon="-2.7874000">
        <ele>714.4</ele>
        <time>2020-07-15T07:55:30Z</time>
      </trkpt>
      <trkpt lat="38.1413920" lon="-2.7873720">
        <ele>714.4</ele>
        <time>2020-07-15T07:55:31Z</time>
      </trkpt>
      <trkpt lat="38.1412500" lon="-2.7872470">
        <ele>714.4</ele>
        <time>2020-07-15T07:55:34Z</time>
      </trkpt>
      <trkpt lat="38.1411800" lon="-2.7871240">
        <ele>714.4</ele>
        <time>2020-07-15T07:55:36Z</time>
      </trkpt>
      <trkpt lat="38.1411240" lon="-2.7870000">
        <ele>714.2</ele>
        <time>2020-07-15T07:55:38Z</time>
      </trkpt>
      <trkpt lat="38.1410330" lon="-2.7867900">
        <ele>714.0</ele>
        <time>2020-07-15T07:55:41Z</time>
      </trkpt>
      <trkpt lat="38.1409830" lon="-2.7866500">
        <ele>714.0</ele>
        <time>2020-07-15T07:55:43Z</time>
      </trkpt>
      <trkpt lat="38.1409580" lon="-2.7865680">
        <ele>713.8</ele>
        <time>2020-07-15T07:55:44Z</time>
      </trkpt>
      <trkpt lat="38.1409080" lon="-2.7864080">
        <ele>713.8</ele>
        <time>2020-07-15T07:55:46Z</time>
      </trkpt>
      <trkpt lat="38.1408710" lon="-2.7863300">
        <ele>713.6</ele>
        <time>2020-07-15T07:55:47Z</time>
      </trkpt>
      <trkpt lat="38.1408110" lon="-2.7861600">
        <ele>713.2</ele>
        <time>2020-07-15T07:55:49Z</time>
      </trkpt>
      <trkpt lat="38.1407380" lon="-2.7858890">
        <ele>712.6</ele>
        <time>2020-07-15T07:55:52Z</time>
      </trkpt>
      <trkpt lat="38.1407130" lon="-2.7858060">
        <ele>712.4</ele>
        <time>2020-07-15T07:55:53Z</time>
      </trkpt>
      <trkpt lat="38.1406920" lon="-2.7857070">
        <ele>712.0</ele>
        <time>2020-07-15T07:55:54Z</time>
      </trkpt>
      <trkpt lat="38.1406370" lon="-2.7855150">
        <ele>711.4</ele>
        <time>2020-07-15T07:55:56Z</time>
      </trkpt>
      <trkpt lat="38.1405910" lon="-2.7854240">
        <ele>711.0</ele>
        <time>2020-07-15T07:55:57Z</time>
      </trkpt>
      <trkpt lat="38.1405290" lon="-2.7853570">
        <ele>710.6</ele>
        <time>2020-07-15T07:55:58Z</time>
      </trkpt>
      <trkpt lat="38.1404390" lon="-2.7853080">
        <ele>710.2</ele>
        <time>2020-07-15T07:55:59Z</time>
      </trkpt>
      <trkpt lat="38.1402740" lon="-2.7852090">
        <ele>709.6</ele>
        <time>2020-07-15T07:56:01Z</time>
      </trkpt>
      <trkpt lat="38.1401970" lon="-2.7851580">
        <ele>709.2</ele>
        <time>2020-07-15T07:56:02Z</time>
      </trkpt>
      <trkpt lat="38.1399440" lon="-2.7850030">
        <ele>708.2</ele>
        <time>2020-07-15T07:56:05Z</time>
      </trkpt>
      <trkpt lat="38.1398550" lon="-2.7849600">
        <ele>708.0</ele>
        <time>2020-07-15T07:56:06Z</time>
      </trkpt>
      <trkpt lat="38.1396830" lon="-2.7848920">
        <ele>707.4</ele>
        <time>2020-07-15T07:56:08Z</time>
      </trkpt>
      <trkpt lat="38.1395860" lon="-2.7848560">
        <ele>707.0</ele>
        <time>2020-07-15T07:56:09Z</time>
      </trkpt>
      <trkpt lat="38.1394110" lon="-2.7847550">
        <ele>706.2</ele>
        <time>2020-07-15T07:56:11Z</time>
      </trkpt>
      <trkpt lat="38.1393380" lon="-2.7846770">
        <ele>706.0</ele>
        <time>2020-07-15T07:56:12Z</time>
      </trkpt>
      <trkpt lat="38.1392780" lon="-2.7846030">
        <ele>705.8</ele>
        <time>2020-07-15T07:56:13Z</time>
      </trkpt>
      <trkpt lat="38.1391260" lon="-2.7844350">
        <ele>705.2</ele>
        <time>2020-07-15T07:56:15Z</time>
      </trkpt>
      <trkpt lat="38.1390350" lon="-2.7843900">
        <ele>704.8</ele>
        <time>2020-07-15T07:56:16Z</time>
      </trkpt>
      <trkpt lat="38.1389370" lon="-2.7843600">
        <ele>704.6</ele>
        <time>2020-07-15T07:56:17Z</time>
      </trkpt>
      <trkpt lat="38.1387400" lon="-2.7843140">
        <ele>704.2</ele>
        <time>2020-07-15T07:56:19Z</time>
      </trkpt>
      <trkpt lat="38.1386420" lon="-2.7842930">
        <ele>703.8</ele>
        <time>2020-07-15T07:56:20Z</time>
      </trkpt>
      <trkpt lat="38.1385440" lon="-2.7842730">
        <ele>703.6</ele>
        <time>2020-07-15T07:56:21Z</time>
      </trkpt>
      <trkpt lat="38.1382450" lon="-2.7842190">
        <ele>702.2</ele>
        <time>2020-07-15T07:56:24Z</time>
      </trkpt>
      <trkpt lat="38.1379360" lon="-2.7842010">
        <ele>701.2</ele>
        <time>2020-07-15T07:56:27Z</time>
      </trkpt>
      <trkpt lat="38.1378450" lon="-2.7841810">
        <ele>700.8</ele>
        <time>2020-07-15T07:56:28Z</time>
      </trkpt>
      <trkpt lat="38.1375290" lon="-2.7841060">
        <ele>699.8</ele>
        <time>2020-07-15T07:56:31Z</time>
      </trkpt>
      <trkpt lat="38.1372230" lon="-2.7841950">
        <ele>698.4</ele>
        <time>2020-07-15T07:56:34Z</time>
      </trkpt>
      <trkpt lat="38.1371220" lon="-2.7842440">
        <ele>697.8</ele>
        <time>2020-07-15T07:56:35Z</time>
      </trkpt>
      <trkpt lat="38.1370160" lon="-2.7842820">
        <ele>697.4</ele>
        <time>2020-07-15T07:56:36Z</time>
      </trkpt>
      <trkpt lat="38.1369100" lon="-2.7843050">
        <ele>696.8</ele>
        <time>2020-07-15T07:56:37Z</time>
      </trkpt>
      <trkpt lat="38.1368130" lon="-2.7843170">
        <ele>696.4</ele>
        <time>2020-07-15T07:56:38Z</time>
      </trkpt>
      <trkpt lat="38.1367030" lon="-2.7843240">
        <ele>696.0</ele>
        <time>2020-07-15T07:56:39Z</time>
      </trkpt>
      <trkpt lat="38.1364020" lon="-2.7843280">
        <ele>695.2</ele>
        <time>2020-07-15T07:56:42Z</time>
      </trkpt>
      <trkpt lat="38.1363180" lon="-2.7843290">
        <ele>695.0</ele>
        <time>2020-07-15T07:56:43Z</time>
      </trkpt>
      <trkpt lat="38.1361150" lon="-2.7843110">
        <ele>694.8</ele>
        <time>2020-07-15T07:56:45Z</time>
      </trkpt>
      <trkpt lat="38.1360280" lon="-2.7842800">
        <ele>694.8</ele>
        <time>2020-07-15T07:56:46Z</time>
      </trkpt>
      <trkpt lat="38.1359380" lon="-2.7842380">
        <ele>694.6</ele>
        <time>2020-07-15T07:56:47Z</time>
      </trkpt>
      <trkpt lat="38.1356690" lon="-2.7841000">
        <ele>694.0</ele>
        <time>2020-07-15T07:56:50Z</time>
      </trkpt>
      <trkpt lat="38.1355800" lon="-2.7840990">
        <ele>693.6</ele>
        <time>2020-07-15T07:56:51Z</time>
      </trkpt>
      <trkpt lat="38.1353110" lon="-2.7842220">
        <ele>693.0</ele>
        <time>2020-07-15T07:56:54Z</time>
      </trkpt>
      <trkpt lat="38.1352230" lon="-2.7842500">
        <ele>692.8</ele>
        <time>2020-07-15T07:56:55Z</time>
      </trkpt>
      <trkpt lat="38.1350450" lon="-2.7842690">
        <ele>692.2</ele>
        <time>2020-07-15T07:56:57Z</time>
      </trkpt>
      <trkpt lat="38.1349600" lon="-2.7842650">
        <ele>692.0</ele>
        <time>2020-07-15T07:56:58Z</time>
      </trkpt>
      <trkpt lat="38.1347760" lon="-2.7842500">
        <ele>692.0</ele>
        <time>2020-07-15T07:57:00Z</time>
      </trkpt>
      <trkpt lat="38.1347070" lon="-2.7842400">
        <ele>691.8</ele>
        <time>2020-07-15T07:57:01Z</time>
      </trkpt>
      <trkpt lat="38.1345220" lon="-2.7842170">
        <ele>691.6</ele>
        <time>2020-07-15T07:57:03Z</time>
      </trkpt>
      <trkpt lat="38.1342420" lon="-2.7841910">
        <ele>691.0</ele>
        <time>2020-07-15T07:57:06Z</time>
      </trkpt>
      <trkpt lat="38.1339670" lon="-2.7841620">
        <ele>690.8</ele>
        <time>2020-07-15T07:57:09Z</time>
      </trkpt>
      <trkpt lat="38.1338040" lon="-2.7841140">
        <ele>690.8</ele>
        <time>2020-07-15T07:57:11Z</time>
      </trkpt>
      <trkpt lat="38.1336350" lon="-2.7840600">
        <ele>690.6</ele>
        <time>2020-07-15T07:57:13Z</time>
      </trkpt>
      <trkpt lat="38.1334600" lon="-2.7840180">
        <ele>690.4</ele>
        <time>2020-07-15T07:57:15Z</time>
      </trkpt>
      <trkpt lat="38.1333730" lon="-2.7840080">
        <ele>690.2</ele>
        <time>2020-07-15T07:57:16Z</time>
      </trkpt>
      <trkpt lat="38.1332130" lon="-2.7840150">
        <ele>690.0</ele>
        <time>2020-07-15T07:57:18Z</time>
      </trkpt>
      <trkpt lat="38.1330440" lon="-2.7840650">
        <ele>689.6</ele>
        <time>2020-07-15T07:57:20Z</time>
      </trkpt>
      <trkpt lat="38.1329630" lon="-2.7840770">
        <ele>689.6</ele>
        <time>2020-07-15T07:57:21Z</time>
      </trkpt>
      <trkpt lat="38.1328850" lon="-2.7840810">
        <ele>689.4</ele>
        <time>2020-07-15T07:57:22Z</time>
      </trkpt>
      <trkpt lat="38.1327290" lon="-2.7840800">
        <ele>689.2</ele>
        <time>2020-07-15T07:57:24Z</time>
      </trkpt>
      <trkpt lat="38.1326480" lon="-2.7840950">
        <ele>689.0</ele>
        <time>2020-07-15T07:57:25Z</time>
      </trkpt>
      <trkpt lat="38.1324210" lon="-2.7841690">
        <ele>688.8</ele>
        <time>2020-07-15T07:57:28Z</time>
      </trkpt>
      <trkpt lat="38.1323400" lon="-2.7842140">
        <ele>688.8</ele>
        <time>2020-07-15T07:57:29Z</time>
      </trkpt>
      <trkpt lat="38.1322080" lon="-2.7843380">
        <ele>688.8</ele>
        <time>2020-07-15T07:57:31Z</time>
      </trkpt>
      <trkpt lat="38.1320980" lon="-2.7844910">
        <ele>688.8</ele>
        <time>2020-07-15T07:57:33Z</time>
      </trkpt>
      <trkpt lat="38.1319710" lon="-2.7846510">
        <ele>688.4</ele>
        <time>2020-07-15T07:57:35Z</time>
      </trkpt>
      <trkpt lat="38.1318970" lon="-2.7847130">
        <ele>688.4</ele>
        <time>2020-07-15T07:57:36Z</time>
      </trkpt>
      <trkpt lat="38.1315240" lon="-2.7849770">
        <ele>687.8</ele>
        <time>2020-07-15T07:57:41Z</time>
      </trkpt>
      <trkpt lat="38.1313540" lon="-2.7852350">
        <ele>687.4</ele>
        <time>2020-07-15T07:57:44Z</time>
      </trkpt>
      <trkpt lat="38.1313070" lon="-2.7853240">
        <ele>687.4</ele>
        <time>2020-07-15T07:57:45Z</time>
      </trkpt>
      <trkpt lat="38.1310210" lon="-2.7857300">
        <ele>686.8</ele>
        <time>2020-07-15T07:57:50Z</time>
      </trkpt>
      <trkpt lat="38.1306960" lon="-2.7860610">
        <ele>686.6</ele>
        <time>2020-07-15T07:57:55Z</time>
      </trkpt>
      <trkpt lat="38.1305670" lon="-2.7862090">
        <ele>686.4</ele>
        <time>2020-07-15T07:57:57Z</time>
      </trkpt>
      <trkpt lat="38.1304100" lon="-2.7863820">
        <ele>686.2</ele>
        <time>2020-07-15T07:58:00Z</time>
      </trkpt>
      <trkpt lat="38.1301440" lon="-2.7866970">
        <ele>685.4</ele>
        <time>2020-07-15T07:58:04Z</time>
      </trkpt>
      <trkpt lat="38.1300860" lon="-2.7867790">
        <ele>685.2</ele>
        <time>2020-07-15T07:58:05Z</time>
      </trkpt>
      <trkpt lat="38.1298510" lon="-2.7871350">
        <ele>684.2</ele>
        <time>2020-07-15T07:58:09Z</time>
      </trkpt>
      <trkpt lat="38.1297470" lon="-2.7873350">
        <ele>683.6</ele>
        <time>2020-07-15T07:58:11Z</time>
      </trkpt>
      <trkpt lat="38.1296550" lon="-2.7875460">
        <ele>683.0</ele>
        <time>2020-07-15T07:58:13Z</time>
      </trkpt>
      <trkpt lat="38.1295050" lon="-2.7878950">
        <ele>682.0</ele>
        <time>2020-07-15T07:58:16Z</time>
      </trkpt>
      <trkpt lat="38.1293880" lon="-2.7880890">
        <ele>681.4</ele>
        <time>2020-07-15T07:58:18Z</time>
      </trkpt>
      <trkpt lat="38.1292290" lon="-2.7882510">
        <ele>680.8</ele>
        <time>2020-07-15T07:58:20Z</time>
      </trkpt>
      <trkpt lat="38.1288360" lon="-2.7885380">
        <ele>680.6</ele>
        <time>2020-07-15T07:58:25Z</time>
      </trkpt>
      <trkpt lat="38.1287610" lon="-2.7885730">
        <ele>680.4</ele>
        <time>2020-07-15T07:58:26Z</time>
      </trkpt>
      <trkpt lat="38.1286330" lon="-2.7886420">
        <ele>680.6</ele>
        <time>2020-07-15T07:58:28Z</time>
      </trkpt>
      <trkpt lat="38.1283310" lon="-2.7888030">
        <ele>680.4</ele>
        <time>2020-07-15T07:58:32Z</time>
      </trkpt>
      <trkpt lat="38.1282570" lon="-2.7888500">
        <ele>680.2</ele>
        <time>2020-07-15T07:58:33Z</time>
      </trkpt>
      <trkpt lat="38.1280560" lon="-2.7890630">
        <ele>679.6</ele>
        <time>2020-07-15T07:58:36Z</time>
      </trkpt>
      <trkpt lat="38.1279510" lon="-2.7892440">
        <ele>679.4</ele>
        <time>2020-07-15T07:58:38Z</time>
      </trkpt>
      <trkpt lat="38.1278220" lon="-2.7895380">
        <ele>679.0</ele>
        <time>2020-07-15T07:58:41Z</time>
      </trkpt>
      <trkpt lat="38.1278000" lon="-2.7896540">
        <ele>679.0</ele>
        <time>2020-07-15T07:58:42Z</time>
      </trkpt>
      <trkpt lat="38.1278190" lon="-2.7898770">
        <ele>678.6</ele>
        <time>2020-07-15T07:58:44Z</time>
      </trkpt>
      <trkpt lat="38.1278830" lon="-2.7900740">
        <ele>678.4</ele>
        <time>2020-07-15T07:58:46Z</time>
      </trkpt>
      <trkpt lat="38.1279140" lon="-2.7901740">
        <ele>678.4</ele>
        <time>2020-07-15T07:58:47Z</time>
      </trkpt>
      <trkpt lat="38.1279530" lon="-2.7903830">
        <ele>678.2</ele>
        <time>2020-07-15T07:58:49Z</time>
      </trkpt>
      <trkpt lat="38.1279420" lon="-2.7904910">
        <ele>678.2</ele>
        <time>2020-07-15T07:58:50Z</time>
      </trkpt>
      <trkpt lat="38.1278540" lon="-2.7907330">
        <ele>678.6</ele>
        <time>2020-07-15T07:58:53Z</time>
      </trkpt>
      <trkpt lat="38.1276600" lon="-2.7911020">
        <ele>679.4</ele>
        <time>2020-07-15T07:58:58Z</time>
      </trkpt>
      <trkpt lat="38.1276190" lon="-2.7911880">
        <ele>679.6</ele>
        <time>2020-07-15T07:58:59Z</time>
      </trkpt>
      <trkpt lat="38.1275870" lon="-2.7912600">
        <ele>679.6</ele>
        <time>2020-07-15T07:59:00Z</time>
      </trkpt>
      <trkpt lat="38.1274500" lon="-2.7915400">
        <ele>680.4</ele>
        <time>2020-07-15T07:59:04Z</time>
      </trkpt>
      <trkpt lat="38.1273440" lon="-2.7917590">
        <ele>680.6</ele>
        <time>2020-07-15T07:59:07Z</time>
      </trkpt>
      <trkpt lat="38.1272760" lon="-2.7918970">
        <ele>681.0</ele>
        <time>2020-07-15T07:59:09Z</time>
      </trkpt>
      <trkpt lat="38.1271890" lon="-2.7921150">
        <ele>681.8</ele>
        <time>2020-07-15T07:59:12Z</time>
      </trkpt>
      <trkpt lat="38.1271230" lon="-2.7922480">
        <ele>682.4</ele>
        <time>2020-07-15T07:59:14Z</time>
      </trkpt>
      <trkpt lat="38.1270600" lon="-2.7923800">
        <ele>683.0</ele>
        <time>2020-07-15T07:59:16Z</time>
      </trkpt>
      <trkpt lat="38.1270020" lon="-2.7925070">
        <ele>683.2</ele>
        <time>2020-07-15T07:59:18Z</time>
      </trkpt>
      <trkpt lat="38.1269300" lon="-2.7926400">
        <ele>683.4</ele>
        <time>2020-07-15T07:59:20Z</time>
      </trkpt>
      <trkpt lat="38.1268220" lon="-2.7928310">
        <ele>683.8</ele>
        <time>2020-07-15T07:59:23Z</time>
      </trkpt>
      <trkpt lat="38.1267330" lon="-2.7929520">
        <ele>684.2</ele>
        <time>2020-07-15T07:59:25Z</time>
      </trkpt>
      <trkpt lat="38.1266840" lon="-2.7930040">
        <ele>684.2</ele>
        <time>2020-07-15T07:59:26Z</time>
      </trkpt>
      <trkpt lat="38.1265030" lon="-2.7931230">
        <ele>684.4</ele>
        <time>2020-07-15T07:59:29Z</time>
      </trkpt>
      <trkpt lat="38.1262370" lon="-2.7931610">
        <ele>684.4</ele>
        <time>2020-07-15T07:59:33Z</time>
      </trkpt>
      <trkpt lat="38.1258720" lon="-2.7931320">
        <ele>684.0</ele>
        <time>2020-07-15T07:59:38Z</time>
      </trkpt>
      <trkpt lat="38.1255330" lon="-2.7931190">
        <ele>683.0</ele>
        <time>2020-07-15T07:59:42Z</time>
      </trkpt>
      <trkpt lat="38.1254540" lon="-2.7931310">
        <ele>682.6</ele>
        <time>2020-07-15T07:59:43Z</time>
      </trkpt>
      <trkpt lat="38.1252820" lon="-2.7932240">
        <ele>681.8</ele>
        <time>2020-07-15T07:59:45Z</time>
      </trkpt>
      <trkpt lat="38.1252240" lon="-2.7933060">
        <ele>681.4</ele>
        <time>2020-07-15T07:59:46Z</time>
      </trkpt>
      <trkpt lat="38.1251530" lon="-2.7934960">
        <ele>680.8</ele>
        <time>2020-07-15T07:59:48Z</time>
      </trkpt>
      <trkpt lat="38.1251370" lon="-2.7936080">
        <ele>680.4</ele>
        <time>2020-07-15T07:59:49Z</time>
      </trkpt>
      <trkpt lat="38.1251290" lon="-2.7938130">
        <ele>680.2</ele>
        <time>2020-07-15T07:59:51Z</time>
      </trkpt>
      <trkpt lat="38.1251280" lon="-2.7939120">
        <ele>680.2</ele>
        <time>2020-07-15T07:59:52Z</time>
      </trkpt>
      <trkpt lat="38.1251320" lon="-2.7940040">
        <ele>680.2</ele>
        <time>2020-07-15T07:59:53Z</time>
      </trkpt>
      <trkpt lat="38.1251470" lon="-2.7941940">
        <ele>680.2</ele>
        <time>2020-07-15T07:59:55Z</time>
      </trkpt>
      <trkpt lat="38.1251670" lon="-2.7945580">
        <ele>680.4</ele>
        <time>2020-07-15T07:59:59Z</time>
      </trkpt>
      <trkpt lat="38.1252430" lon="-2.7951840">
        <ele>681.0</ele>
        <time>2020-07-15T08:00:06Z</time>
      </trkpt>
      <trkpt lat="38.1253200" lon="-2.7956190">
        <ele>681.4</ele>
        <time>2020-07-15T08:00:11Z</time>
      </trkpt>
      <trkpt lat="38.1253500" lon="-2.7957800">
        <ele>681.6</ele>
        <time>2020-07-15T08:00:13Z</time>
      </trkpt>
      <trkpt lat="38.1253790" lon="-2.7959530">
        <ele>681.8</ele>
        <time>2020-07-15T08:00:15Z</time>
      </trkpt>
      <trkpt lat="38.1253820" lon="-2.7961090">
        <ele>682.2</ele>
        <time>2020-07-15T08:00:17Z</time>
      </trkpt>
      <trkpt lat="38.1253630" lon="-2.7961800">
        <ele>682.2</ele>
        <time>2020-07-15T08:00:18Z</time>
      </trkpt>
      <trkpt lat="38.1252270" lon="-2.7963450">
        <ele>682.8</ele>
        <time>2020-07-15T08:00:21Z</time>
      </trkpt>
      <trkpt lat="38.1251050" lon="-2.7963520">
        <ele>682.8</ele>
        <time>2020-07-15T08:00:23Z</time>
      </trkpt>
      <trkpt lat="38.1250350" lon="-2.7963280">
        <ele>683.0</ele>
        <time>2020-07-15T08:00:24Z</time>
      </trkpt>
      <trkpt lat="38.1248110" lon="-2.7961630">
        <ele>683.0</ele>
        <time>2020-07-15T08:00:28Z</time>
      </trkpt>
      <trkpt lat="38.1245770" lon="-2.7959530">
        <ele>683.0</ele>
        <time>2020-07-15T08:00:32Z</time>
      </trkpt>
      <trkpt lat="38.1243970" lon="-2.7957930">
        <ele>682.8</ele>
        <time>2020-07-15T08:00:35Z</time>
      </trkpt>
      <trkpt lat="38.1239260" lon="-2.7954020">
        <ele>682.2</ele>
        <time>2020-07-15T08:00:43Z</time>
      </trkpt>
      <trkpt lat="38.1238340" lon="-2.7953570">
        <ele>682.2</ele>
        <time>2020-07-15T08:00:44Z</time>
      </trkpt>
      <trkpt lat="38.1236120" lon="-2.7953820">
        <ele>682.2</ele>
        <time>2020-07-15T08:00:47Z</time>
      </trkpt>
      <trkpt lat="38.1234500" lon="-2.7956070">
        <ele>681.8</ele>
        <time>2020-07-15T08:00:50Z</time>
      </trkpt>
      <trkpt lat="38.1234210" lon="-2.7956950">
        <ele>681.6</ele>
        <time>2020-07-15T08:00:51Z</time>
      </trkpt>
      <trkpt lat="38.1233880" lon="-2.7957810">
        <ele>681.6</ele>
        <time>2020-07-15T08:00:52Z</time>
      </trkpt>
      <trkpt lat="38.1233170" lon="-2.7959630">
        <ele>681.2</ele>
        <time>2020-07-15T08:00:54Z</time>
      </trkpt>
      <trkpt lat="38.1231130" lon="-2.7964470">
        <ele>680.8</ele>
        <time>2020-07-15T08:00:59Z</time>
      </trkpt>
      <trkpt lat="38.1229320" lon="-2.7967710">
        <ele>680.8</ele>
        <time>2020-07-15T08:01:03Z</time>
      </trkpt>
      <trkpt lat="38.1228310" lon="-2.7969440">
        <ele>680.6</ele>
        <time>2020-07-15T08:01:05Z</time>
      </trkpt>
      <trkpt lat="38.1226430" lon="-2.7972650">
        <ele>680.2</ele>
        <time>2020-07-15T08:01:09Z</time>
      </trkpt>
      <trkpt lat="38.1224130" lon="-2.7977080">
        <ele>679.8</ele>
        <time>2020-07-15T08:01:14Z</time>
      </trkpt>
      <trkpt lat="38.1223750" lon="-2.7978070">
        <ele>679.6</ele>
        <time>2020-07-15T08:01:15Z</time>
      </trkpt>
      <trkpt lat="38.1223450" lon="-2.7979150">
        <ele>679.6</ele>
        <time>2020-07-15T08:01:16Z</time>
      </trkpt>
      <trkpt lat="38.1223360" lon="-2.7980120">
        <ele>679.4</ele>
        <time>2020-07-15T08:01:17Z</time>
      </trkpt>
      <trkpt lat="38.1223910" lon="-2.7982200">
        <ele>679.0</ele>
        <time>2020-07-15T08:01:19Z</time>
      </trkpt>
      <trkpt lat="38.1225620" lon="-2.7984080">
        <ele>678.6</ele>
        <time>2020-07-15T08:01:22Z</time>
      </trkpt>
      <trkpt lat="38.1226870" lon="-2.7985250">
        <ele>678.6</ele>
        <time>2020-07-15T08:01:24Z</time>
      </trkpt>
      <trkpt lat="38.1228010" lon="-2.7986360">
        <ele>678.8</ele>
        <time>2020-07-15T08:01:26Z</time>
      </trkpt>
      <trkpt lat="38.1231690" lon="-2.7990240">
        <ele>679.6</ele>
        <time>2020-07-15T08:01:33Z</time>
      </trkpt>
      <trkpt lat="38.1232170" lon="-2.7990770">
        <ele>679.8</ele>
        <time>2020-07-15T08:01:34Z</time>
      </trkpt>
      <trkpt lat="38.1233080" lon="-2.7991860">
        <ele>680.0</ele>
        <time>2020-07-15T08:01:36Z</time>
      </trkpt>
      <trkpt lat="38.1234280" lon="-2.7993620">
        <ele>680.8</ele>
        <time>2020-07-15T08:01:39Z</time>
      </trkpt>
      <trkpt lat="38.1234620" lon="-2.7994280">
        <ele>681.0</ele>
        <time>2020-07-15T08:01:40Z</time>
      </trkpt>
      <trkpt lat="38.1235490" lon="-2.7996300">
        <ele>681.6</ele>
        <time>2020-07-15T08:01:43Z</time>
      </trkpt>
      <trkpt lat="38.1235680" lon="-2.7997030">
        <ele>681.8</ele>
        <time>2020-07-15T08:01:44Z</time>
      </trkpt>
      <trkpt lat="38.1235740" lon="-2.7997820">
        <ele>682.0</ele>
        <time>2020-07-15T08:01:45Z</time>
      </trkpt>
      <trkpt lat="38.1234760" lon="-2.7999910">
        <ele>682.4</ele>
        <time>2020-07-15T08:01:48Z</time>
      </trkpt>
      <trkpt lat="38.1233630" lon="-2.8000800">
        <ele>682.6</ele>
        <time>2020-07-15T08:01:50Z</time>
      </trkpt>
      <trkpt lat="38.1231800" lon="-2.8002370">
        <ele>682.2</ele>
        <time>2020-07-15T08:01:53Z</time>
      </trkpt>
      <trkpt lat="38.1229660" lon="-2.8005650">
        <ele>681.6</ele>
        <time>2020-07-15T08:01:57Z</time>
      </trkpt>
      <trkpt lat="38.1228530" lon="-2.8007730">
        <ele>680.8</ele>
        <time>2020-07-15T08:01:59Z</time>
      </trkpt>
      <trkpt lat="38.1226890" lon="-2.8010620">
        <ele>679.6</ele>
        <time>2020-07-15T08:02:02Z</time>
      </trkpt>
      <trkpt lat="38.1225730" lon="-2.8012840">
        <ele>678.8</ele>
        <time>2020-07-15T08:02:04Z</time>
      </trkpt>
      <trkpt lat="38.1225200" lon="-2.8013920">
        <ele>678.4</ele>
        <time>2020-07-15T08:02:05Z</time>
      </trkpt>
      <trkpt lat="38.1223980" lon="-2.8017390">
        <ele>677.4</ele>
        <time>2020-07-15T08:02:08Z</time>
      </trkpt>
      <trkpt lat="38.1223690" lon="-2.8018570">
        <ele>677.0</ele>
        <time>2020-07-15T08:02:09Z</time>
      </trkpt>
      <trkpt lat="38.1222850" lon="-2.8023330">
        <ele>676.0</ele>
        <time>2020-07-15T08:02:13Z</time>
      </trkpt>
      <trkpt lat="38.1222120" lon="-2.8027850">
        <ele>675.6</ele>
        <time>2020-07-15T08:02:17Z</time>
      </trkpt>
      <trkpt lat="38.1221500" lon="-2.8031310">
        <ele>675.4</ele>
        <time>2020-07-15T08:02:20Z</time>
      </trkpt>
      <trkpt lat="38.1221330" lon="-2.8032420">
        <ele>675.2</ele>
        <time>2020-07-15T08:02:21Z</time>
      </trkpt>
      <trkpt lat="38.1221120" lon="-2.8034670">
        <ele>675.0</ele>
        <time>2020-07-15T08:02:23Z</time>
      </trkpt>
      <trkpt lat="38.1221090" lon="-2.8035740">
        <ele>675.0</ele>
        <time>2020-07-15T08:02:24Z</time>
      </trkpt>
      <trkpt lat="38.1220990" lon="-2.8036840">
        <ele>674.8</ele>
        <time>2020-07-15T08:02:25Z</time>
      </trkpt>
      <trkpt lat="38.1220840" lon="-2.8038820">
        <ele>675.0</ele>
        <time>2020-07-15T08:02:27Z</time>
      </trkpt>
      <trkpt lat="38.1219780" lon="-2.8041640">
        <ele>675.2</ele>
        <time>2020-07-15T08:02:30Z</time>
      </trkpt>
      <trkpt lat="38.1218740" lon="-2.8042790">
        <ele>675.4</ele>
        <time>2020-07-15T08:02:32Z</time>
      </trkpt>
      <trkpt lat="38.1217610" lon="-2.8043770">
        <ele>675.6</ele>
        <time>2020-07-15T08:02:34Z</time>
      </trkpt>
      <trkpt lat="38.1216580" lon="-2.8044700">
        <ele>676.0</ele>
        <time>2020-07-15T08:02:36Z</time>
      </trkpt>
      <trkpt lat="38.1215700" lon="-2.8045530">
        <ele>676.6</ele>
        <time>2020-07-15T08:02:38Z</time>
      </trkpt>
      <trkpt lat="38.1215340" lon="-2.8045990">
        <ele>676.8</ele>
        <time>2020-07-15T08:02:39Z</time>
      </trkpt>
      <trkpt lat="38.1215030" lon="-2.8046530">
        <ele>677.2</ele>
        <time>2020-07-15T08:02:40Z</time>
      </trkpt>
      <trkpt lat="38.1214640" lon="-2.8047700">
        <ele>677.8</ele>
        <time>2020-07-15T08:02:42Z</time>
      </trkpt>
      <trkpt lat="38.1214450" lon="-2.8049010">
        <ele>678.4</ele>
        <time>2020-07-15T08:02:44Z</time>
      </trkpt>
      <trkpt lat="38.1214290" lon="-2.8050400">
        <ele>679.0</ele>
        <time>2020-07-15T08:02:46Z</time>
      </trkpt>
      <trkpt lat="38.1214080" lon="-2.8051770">
        <ele>679.4</ele>
        <time>2020-07-15T08:02:48Z</time>
      </trkpt>
      <trkpt lat="38.1213760" lon="-2.8053700">
        <ele>680.0</ele>
        <time>2020-07-15T08:02:51Z</time>
      </trkpt>
      <trkpt lat="38.1213670" lon="-2.8054310">
        <ele>680.2</ele>
        <time>2020-07-15T08:02:52Z</time>
      </trkpt>
      <trkpt lat="38.1213450" lon="-2.8055560">
        <ele>680.6</ele>
        <time>2020-07-15T08:02:54Z</time>
      </trkpt>
      <trkpt lat="38.1213160" lon="-2.8056690">
        <ele>681.0</ele>
        <time>2020-07-15T08:02:56Z</time>
      </trkpt>
      <trkpt lat="38.1213050" lon="-2.8057220">
        <ele>681.2</ele>
        <time>2020-07-15T08:02:57Z</time>
      </trkpt>
      <trkpt lat="38.1212800" lon="-2.8058380">
        <ele>681.8</ele>
        <time>2020-07-15T08:02:59Z</time>
      </trkpt>
      <trkpt lat="38.1212030" lon="-2.8061380">
        <ele>682.8</ele>
        <time>2020-07-15T08:03:04Z</time>
      </trkpt>
      <trkpt lat="38.1210940" lon="-2.8063460">
        <ele>683.8</ele>
        <time>2020-07-15T08:03:08Z</time>
      </trkpt>
      <trkpt lat="38.1210600" lon="-2.8063940">
        <ele>684.0</ele>
        <time>2020-07-15T08:03:09Z</time>
      </trkpt>
      <trkpt lat="38.1209810" lon="-2.8064780">
        <ele>684.6</ele>
        <time>2020-07-15T08:03:11Z</time>
      </trkpt>
      <trkpt lat="38.1208390" lon="-2.8065580">
        <ele>685.2</ele>
        <time>2020-07-15T08:03:14Z</time>
      </trkpt>
      <trkpt lat="38.1206890" lon="-2.8065520">
        <ele>685.8</ele>
        <time>2020-07-15T08:03:17Z</time>
      </trkpt>
      <trkpt lat="38.1205370" lon="-2.8064670">
        <ele>686.2</ele>
        <time>2020-07-15T08:03:20Z</time>
      </trkpt>
      <trkpt lat="38.1204940" lon="-2.8064300">
        <ele>686.2</ele>
        <time>2020-07-15T08:03:21Z</time>
      </trkpt>
      <trkpt lat="38.1204550" lon="-2.8063910">
        <ele>686.4</ele>
        <time>2020-07-15T08:03:22Z</time>
      </trkpt>
      <trkpt lat="38.1203120" lon="-2.8061810">
        <ele>687.0</ele>
        <time>2020-07-15T08:03:26Z</time>
      </trkpt>
      <trkpt lat="38.1202060" lon="-2.8060240">
        <ele>687.2</ele>
        <time>2020-07-15T08:03:29Z</time>
      </trkpt>
      <trkpt lat="38.1201740" lon="-2.8059670">
        <ele>687.4</ele>
        <time>2020-07-15T08:03:30Z</time>
      </trkpt>
      <trkpt lat="38.1201200" lon="-2.8058540">
        <ele>687.6</ele>
        <time>2020-07-15T08:03:32Z</time>
      </trkpt>
      <trkpt lat="38.1199180" lon="-2.8054430">
        <ele>688.2</ele>
        <time>2020-07-15T08:03:39Z</time>
      </trkpt>
      <trkpt lat="38.1198870" lon="-2.8053850">
        <ele>688.4</ele>
        <time>2020-07-15T08:03:40Z</time>
      </trkpt>
      <trkpt lat="38.1196840" lon="-2.8050000">
        <ele>689.4</ele>
        <time>2020-07-15T08:03:47Z</time>
      </trkpt>
      <trkpt lat="38.1196470" lon="-2.8049420">
        <ele>689.4</ele>
        <time>2020-07-15T08:03:48Z</time>
      </trkpt>
      <trkpt lat="38.1196090" lon="-2.8048940">
        <ele>689.6</ele>
        <time>2020-07-15T08:03:49Z</time>
      </trkpt>
      <trkpt lat="38.1195110" lon="-2.8048290">
        <ele>689.8</ele>
        <time>2020-07-15T08:03:51Z</time>
      </trkpt>
      <trkpt lat="38.1193370" lon="-2.8048800">
        <ele>690.2</ele>
        <time>2020-07-15T08:03:54Z</time>
      </trkpt>
      <trkpt lat="38.1192010" lon="-2.8050400">
        <ele>690.2</ele>
        <time>2020-07-15T08:03:57Z</time>
      </trkpt>
      <trkpt lat="38.1191500" lon="-2.8051120">
        <ele>690.0</ele>
        <time>2020-07-15T08:03:58Z</time>
      </trkpt>
      <trkpt lat="38.1189650" lon="-2.8053490">
        <ele>690.0</ele>
        <time>2020-07-15T08:04:02Z</time>
      </trkpt>
      <trkpt lat="38.1187960" lon="-2.8055120">
        <ele>690.0</ele>
        <time>2020-07-15T08:04:05Z</time>
      </trkpt>
      <trkpt lat="38.1186920" lon="-2.8056180">
        <ele>690.0</ele>
        <time>2020-07-15T08:04:07Z</time>
      </trkpt>
      <trkpt lat="38.1185520" lon="-2.8058200">
        <ele>690.0</ele>
        <time>2020-07-15T08:04:10Z</time>
      </trkpt>
      <trkpt lat="38.1184690" lon="-2.8060530">
        <ele>690.0</ele>
        <time>2020-07-15T08:04:13Z</time>
      </trkpt>
      <trkpt lat="38.1184500" lon="-2.8061330">
        <ele>690.2</ele>
        <time>2020-07-15T08:04:14Z</time>
      </trkpt>
      <trkpt lat="38.1184010" lon="-2.8063570">
        <ele>690.4</ele>
        <time>2020-07-15T08:04:17Z</time>
      </trkpt>
      <trkpt lat="38.1183420" lon="-2.8065040">
        <ele>690.8</ele>
        <time>2020-07-15T08:04:19Z</time>
      </trkpt>
      <trkpt lat="38.1181970" lon="-2.8066380">
        <ele>691.4</ele>
        <time>2020-07-15T08:04:22Z</time>
      </trkpt>
      <trkpt lat="38.1181270" lon="-2.8066650">
        <ele>691.6</ele>
        <time>2020-07-15T08:04:23Z</time>
      </trkpt>
      <trkpt lat="38.1180030" lon="-2.8066560">
        <ele>691.8</ele>
        <time>2020-07-15T08:04:25Z</time>
      </trkpt>
      <trkpt lat="38.1179410" lon="-2.8066430">
        <ele>691.8</ele>
        <time>2020-07-15T08:04:26Z</time>
      </trkpt>
      <trkpt lat="38.1178250" lon="-2.8066100">
        <ele>692.2</ele>
        <time>2020-07-15T08:04:28Z</time>
      </trkpt>
      <trkpt lat="38.1177670" lon="-2.8065790">
        <ele>692.2</ele>
        <time>2020-07-15T08:04:29Z</time>
      </trkpt>
      <trkpt lat="38.1176420" lon="-2.8064190">
        <ele>692.4</ele>
        <time>2020-07-15T08:04:32Z</time>
      </trkpt>
      <trkpt lat="38.1176210" lon="-2.8063260">
        <ele>692.4</ele>
        <time>2020-07-15T08:04:33Z</time>
      </trkpt>
      <trkpt lat="38.1175900" lon="-2.8061340">
        <ele>692.2</ele>
        <time>2020-07-15T08:04:35Z</time>
      </trkpt>
      <trkpt lat="38.1175820" lon="-2.8059400">
        <ele>692.0</ele>
        <time>2020-07-15T08:04:37Z</time>
      </trkpt>
      <trkpt lat="38.1175610" lon="-2.8057130">
        <ele>691.6</ele>
        <time>2020-07-15T08:04:39Z</time>
      </trkpt>
      <trkpt lat="38.1175400" lon="-2.8056030">
        <ele>691.2</ele>
        <time>2020-07-15T08:04:40Z</time>
      </trkpt>
      <trkpt lat="38.1174510" lon="-2.8052790">
        <ele>690.2</ele>
        <time>2020-07-15T08:04:43Z</time>
      </trkpt>
      <trkpt lat="38.1173760" lon="-2.8049340">
        <ele>689.0</ele>
        <time>2020-07-15T08:04:46Z</time>
      </trkpt>
      <trkpt lat="38.1173660" lon="-2.8048220">
        <ele>688.6</ele>
        <time>2020-07-15T08:04:47Z</time>
      </trkpt>
      <trkpt lat="38.1173680" lon="-2.8045730">
        <ele>687.6</ele>
        <time>2020-07-15T08:04:49Z</time>
      </trkpt>
      <trkpt lat="38.1173850" lon="-2.8043210">
        <ele>686.8</ele>
        <time>2020-07-15T08:04:51Z</time>
      </trkpt>
      <trkpt lat="38.1173950" lon="-2.8041990">
        <ele>686.4</ele>
        <time>2020-07-15T08:04:52Z</time>
      </trkpt>
      <trkpt lat="38.1174250" lon="-2.8039210">
        <ele>685.4</ele>
        <time>2020-07-15T08:04:54Z</time>
      </trkpt>
      <trkpt lat="38.1174580" lon="-2.8036520">
        <ele>684.2</ele>
        <time>2020-07-15T08:04:56Z</time>
      </trkpt>
      <trkpt lat="38.1175020" lon="-2.8033750">
        <ele>683.2</ele>
        <time>2020-07-15T08:04:58Z</time>
      </trkpt>
      <trkpt lat="38.1175370" lon="-2.8030970">
        <ele>682.0</ele>
        <time>2020-07-15T08:05:00Z</time>
      </trkpt>
      <trkpt lat="38.1175450" lon="-2.8028260">
        <ele>681.2</ele>
        <time>2020-07-15T08:05:02Z</time>
      </trkpt>
      <trkpt lat="38.1175440" lon="-2.8026760">
        <ele>680.6</ele>
        <time>2020-07-15T08:05:03Z</time>
      </trkpt>
      <trkpt lat="38.1175400" lon="-2.8025340">
        <ele>680.2</ele>
        <time>2020-07-15T08:05:04Z</time>
      </trkpt>
      <trkpt lat="38.1175360" lon="-2.8022470">
        <ele>679.2</ele>
        <time>2020-07-15T08:05:06Z</time>
      </trkpt>
      <trkpt lat="38.1175310" lon="-2.8019720">
        <ele>678.2</ele>
        <time>2020-07-15T08:05:08Z</time>
      </trkpt>
      <trkpt lat="38.1175050" lon="-2.8017000">
        <ele>677.2</ele>
        <time>2020-07-15T08:05:10Z</time>
      </trkpt>
      <trkpt lat="38.1174700" lon="-2.8014440">
        <ele>676.2</ele>
        <time>2020-07-15T08:05:12Z</time>
      </trkpt>
      <trkpt lat="38.1174240" lon="-2.8010540">
        <ele>675.0</ele>
        <time>2020-07-15T08:05:15Z</time>
      </trkpt>
      <trkpt lat="38.1173870" lon="-2.8009300">
        <ele>674.8</ele>
        <time>2020-07-15T08:05:16Z</time>
      </trkpt>
      <trkpt lat="38.1172380" lon="-2.8007320">
        <ele>674.2</ele>
        <time>2020-07-15T08:05:18Z</time>
      </trkpt>
      <trkpt lat="38.1171530" lon="-2.8006480">
        <ele>673.6</ele>
        <time>2020-07-15T08:05:19Z</time>
      </trkpt>
      <trkpt lat="38.1169770" lon="-2.8005020">
        <ele>672.6</ele>
        <time>2020-07-15T08:05:21Z</time>
      </trkpt>
      <trkpt lat="38.1168860" lon="-2.8004580">
        <ele>672.2</ele>
        <time>2020-07-15T08:05:22Z</time>
      </trkpt>
      <trkpt lat="38.1166720" lon="-2.8004240">
        <ele>671.4</ele>
        <time>2020-07-15T08:05:24Z</time>
      </trkpt>
      <trkpt lat="38.1165730" lon="-2.8004530">
        <ele>670.8</ele>
        <time>2020-07-15T08:05:25Z</time>
      </trkpt>
      <trkpt lat="38.1164130" lon="-2.8005740">
        <ele>670.2</ele>
        <time>2020-07-15T08:05:27Z</time>
      </trkpt>
      <trkpt lat="38.1163280" lon="-2.8006560">
        <ele>670.0</ele>
        <time>2020-07-15T08:05:28Z</time>
      </trkpt>
      <trkpt lat="38.1162520" lon="-2.8007320">
        <ele>669.6</ele>
        <time>2020-07-15T08:05:29Z</time>
      </trkpt>
      <trkpt lat="38.1161050" lon="-2.8008780">
        <ele>669.4</ele>
        <time>2020-07-15T08:05:31Z</time>
      </trkpt>
      <trkpt lat="38.1159140" lon="-2.8011130">
        <ele>669.2</ele>
        <time>2020-07-15T08:05:34Z</time>
      </trkpt>
      <trkpt lat="38.1158770" lon="-2.8012110">
        <ele>669.2</ele>
        <time>2020-07-15T08:05:35Z</time>
      </trkpt>
      <trkpt lat="38.1158440" lon="-2.8014150">
        <ele>669.2</ele>
        <time>2020-07-15T08:05:37Z</time>
      </trkpt>
      <trkpt lat="38.1158330" lon="-2.8015290">
        <ele>669.2</ele>
        <time>2020-07-15T08:05:38Z</time>
      </trkpt>
      <trkpt lat="38.1158150" lon="-2.8016290">
        <ele>669.0</ele>
        <time>2020-07-15T08:05:39Z</time>
      </trkpt>
      <trkpt lat="38.1157610" lon="-2.8018300">
        <ele>669.0</ele>
        <time>2020-07-15T08:05:41Z</time>
      </trkpt>
      <trkpt lat="38.1157280" lon="-2.8019150">
        <ele>669.2</ele>
        <time>2020-07-15T08:05:42Z</time>
      </trkpt>
      <trkpt lat="38.1155880" lon="-2.8021730">
        <ele>669.4</ele>
        <time>2020-07-15T08:05:45Z</time>
      </trkpt>
      <trkpt lat="38.1154990" lon="-2.8023360">
        <ele>669.6</ele>
        <time>2020-07-15T08:05:47Z</time>
      </trkpt>
      <trkpt lat="38.1154060" lon="-2.8025130">
        <ele>669.6</ele>
        <time>2020-07-15T08:05:49Z</time>
      </trkpt>
      <trkpt lat="38.1152720" lon="-2.8027670">
        <ele>669.8</ele>
        <time>2020-07-15T08:05:52Z</time>
      </trkpt>
      <trkpt lat="38.1151690" lon="-2.8029420">
        <ele>669.6</ele>
        <time>2020-07-15T08:05:54Z</time>
      </trkpt>
      <trkpt lat="38.1150550" lon="-2.8030850">
        <ele>669.4</ele>
        <time>2020-07-15T08:05:56Z</time>
      </trkpt>
      <trkpt lat="38.1149980" lon="-2.8031350">
        <ele>669.2</ele>
        <time>2020-07-15T08:05:57Z</time>
      </trkpt>
      <trkpt lat="38.1145740" lon="-2.8034030">
        <ele>669.6</ele>
        <time>2020-07-15T08:06:03Z</time>
      </trkpt>
      <trkpt lat="38.1142140" lon="-2.8035810">
        <ele>669.8</ele>
        <time>2020-07-15T08:06:08Z</time>
      </trkpt>
      <trkpt lat="38.1138820" lon="-2.8037670">
        <ele>670.0</ele>
        <time>2020-07-15T08:06:13Z</time>
      </trkpt>
      <trkpt lat="38.1137710" lon="-2.8038520">
        <ele>670.2</ele>
        <time>2020-07-15T08:06:15Z</time>
      </trkpt>
      <trkpt lat="38.1135630" lon="-2.8040730">
        <ele>670.8</ele>
        <time>2020-07-15T08:06:19Z</time>
      </trkpt>
      <trkpt lat="38.1131500" lon="-2.8045150">
        <ele>671.4</ele>
        <time>2020-07-15T08:06:27Z</time>
      </trkpt>
      <trkpt lat="38.1129120" lon="-2.8046720">
        <ele>671.8</ele>
        <time>2020-07-15T08:06:31Z</time>
      </trkpt>
      <trkpt lat="38.1128520" lon="-2.8046930">
        <ele>671.8</ele>
        <time>2020-07-15T08:06:32Z</time>
      </trkpt>
      <trkpt lat="38.1127120" lon="-2.8047090">
        <ele>672.0</ele>
        <time>2020-07-15T08:06:34Z</time>
      </trkpt>
      <trkpt lat="38.1125730" lon="-2.8046760">
        <ele>672.2</ele>
        <time>2020-07-15T08:06:36Z</time>
      </trkpt>
      <trkpt lat="38.1120950" lon="-2.8044840">
        <ele>672.0</ele>
        <time>2020-07-15T08:06:43Z</time>
      </trkpt>
      <trkpt lat="38.1116070" lon="-2.8043050">
        <ele>672.0</ele>
        <time>2020-07-15T08:06:50Z</time>
      </trkpt>
      <trkpt lat="38.1114640" lon="-2.8042920">
        <ele>671.8</ele>
        <time>2020-07-15T08:06:52Z</time>
      </trkpt>
      <trkpt lat="38.1112340" lon="-2.8043150">
        <ele>671.8</ele>
        <time>2020-07-15T08:06:55Z</time>
      </trkpt>
      <trkpt lat="38.1108660" lon="-2.8043650">
        <ele>671.4</ele>
        <time>2020-07-15T08:07:00Z</time>
      </trkpt>
      <trkpt lat="38.1105850" lon="-2.8044530">
        <ele>671.4</ele>
        <time>2020-07-15T08:07:04Z</time>
      </trkpt>
      <trkpt lat="38.1104460" lon="-2.8046510">
        <ele>671.6</ele>
        <time>2020-07-15T08:07:07Z</time>
      </trkpt>
      <trkpt lat="38.1103790" lon="-2.8048120">
        <ele>671.6</ele>
        <time>2020-07-15T08:07:09Z</time>
      </trkpt>
      <trkpt lat="38.1102400" lon="-2.8051390">
        <ele>671.6</ele>
        <time>2020-07-15T08:07:13Z</time>
      </trkpt>
      <trkpt lat="38.1101970" lon="-2.8052110">
        <ele>671.6</ele>
        <time>2020-07-15T08:07:14Z</time>
      </trkpt>
      <trkpt lat="38.1100920" lon="-2.8053200">
        <ele>671.4</ele>
        <time>2020-07-15T08:07:16Z</time>
      </trkpt>
      <trkpt lat="38.1099050" lon="-2.8054140">
        <ele>671.6</ele>
        <time>2020-07-15T08:07:19Z</time>
      </trkpt>
      <trkpt lat="38.1098440" lon="-2.8054370">
        <ele>671.8</ele>
        <time>2020-07-15T08:07:20Z</time>
      </trkpt>
      <trkpt lat="38.1097330" lon="-2.8054940">
        <ele>672.2</ele>
        <time>2020-07-15T08:07:22Z</time>
      </trkpt>
      <trkpt lat="38.1096330" lon="-2.8055950">
        <ele>672.4</ele>
        <time>2020-07-15T08:07:24Z</time>
      </trkpt>
      <trkpt lat="38.1095630" lon="-2.8057180">
        <ele>673.0</ele>
        <time>2020-07-15T08:07:26Z</time>
      </trkpt>
      <trkpt lat="38.1095380" lon="-2.8057760">
        <ele>673.0</ele>
        <time>2020-07-15T08:07:27Z</time>
      </trkpt>
      <trkpt lat="38.1095090" lon="-2.8058480">
        <ele>673.4</ele>
        <time>2020-07-15T08:07:28Z</time>
      </trkpt>
      <trkpt lat="38.1094570" lon="-2.8059840">
        <ele>674.0</ele>
        <time>2020-07-15T08:07:30Z</time>
      </trkpt>
      <trkpt lat="38.1094020" lon="-2.8061030">
        <ele>674.6</ele>
        <time>2020-07-15T08:07:32Z</time>
      </trkpt>
      <trkpt lat="38.1093710" lon="-2.8061530">
        <ele>675.0</ele>
        <time>2020-07-15T08:07:33Z</time>
      </trkpt>
      <trkpt lat="38.1093360" lon="-2.8062000">
        <ele>675.4</ele>
        <time>2020-07-15T08:07:34Z</time>
      </trkpt>
      <trkpt lat="38.1092220" lon="-2.8063120">
        <ele>676.2</ele>
        <time>2020-07-15T08:07:37Z</time>
      </trkpt>
      <trkpt lat="38.1091760" lon="-2.8063450">
        <ele>676.4</ele>
        <time>2020-07-15T08:07:38Z</time>
      </trkpt>
      <trkpt lat="38.1090490" lon="-2.8064270">
        <ele>677.0</ele>
        <time>2020-07-15T08:07:41Z</time>
      </trkpt>
      <trkpt lat="38.1089700" lon="-2.8064690">
        <ele>677.4</ele>
        <time>2020-07-15T08:07:43Z</time>
      </trkpt>
      <trkpt lat="38.1089310" lon="-2.8064900">
        <ele>677.8</ele>
        <time>2020-07-15T08:07:44Z</time>
      </trkpt>
      <trkpt lat="38.1088210" lon="-2.8065500">
        <ele>678.6</ele>
        <time>2020-07-15T08:07:47Z</time>
      </trkpt>
      <trkpt lat="38.1086740" lon="-2.8066310">
        <ele>679.6</ele>
        <time>2020-07-15T08:07:51Z</time>
      </trkpt>
      <trkpt lat="38.1086420" lon="-2.8066500">
        <ele>680.0</ele>
        <time>2020-07-15T08:07:52Z</time>
      </trkpt>
      <trkpt lat="38.1084960" lon="-2.8067370">
        <ele>680.8</ele>
        <time>2020-07-15T08:07:56Z</time>
      </trkpt>
      <trkpt lat="38.1084240" lon="-2.8067770">
        <ele>681.4</ele>
        <time>2020-07-15T08:07:58Z</time>
      </trkpt>
      <trkpt lat="38.1083120" lon="-2.8068380">
        <ele>682.0</ele>
        <time>2020-07-15T08:08:01Z</time>
      </trkpt>
      <trkpt lat="38.1082350" lon="-2.8068640">
        <ele>682.6</ele>
        <time>2020-07-15T08:08:03Z</time>
      </trkpt>
      <trkpt lat="38.1081940" lon="-2.8068730">
        <ele>682.8</ele>
        <time>2020-07-15T08:08:04Z</time>
      </trkpt>
      <trkpt lat="38.1081140" lon="-2.8068790">
        <ele>683.4</ele>
        <time>2020-07-15T08:08:06Z</time>
      </trkpt>
      <trkpt lat="38.1080300" lon="-2.8068670">
        <ele>684.0</ele>
        <time>2020-07-15T08:08:08Z</time>
      </trkpt>
      <trkpt lat="38.1079900" lon="-2.8068580">
        <ele>684.2</ele>
        <time>2020-07-15T08:08:09Z</time>
      </trkpt>
      <trkpt lat="38.1078990" lon="-2.8068340">
        <ele>684.6</ele>
        <time>2020-07-15T08:08:11Z</time>
      </trkpt>
      <trkpt lat="38.1077240" lon="-2.8067870">
        <ele>685.0</ele>
        <time>2020-07-15T08:08:15Z</time>
      </trkpt>
      <trkpt lat="38.1075870" lon="-2.8067420">
        <ele>685.6</ele>
        <time>2020-07-15T08:08:18Z</time>
      </trkpt>
      <trkpt lat="38.1074490" lon="-2.8067070">
        <ele>686.0</ele>
        <time>2020-07-15T08:08:21Z</time>
      </trkpt>
      <trkpt lat="38.1072970" lon="-2.8067020">
        <ele>686.6</ele>
        <time>2020-07-15T08:08:24Z</time>
      </trkpt>
      <trkpt lat="38.1072490" lon="-2.8067120">
        <ele>686.6</ele>
        <time>2020-07-15T08:08:25Z</time>
      </trkpt>
      <trkpt lat="38.1072010" lon="-2.8067300">
        <ele>686.8</ele>
        <time>2020-07-15T08:08:26Z</time>
      </trkpt>
      <trkpt lat="38.1071100" lon="-2.8067800">
        <ele>686.8</ele>
        <time>2020-07-15T08:08:28Z</time>
      </trkpt>
      <trkpt lat="38.1069920" lon="-2.8068990">
        <ele>687.2</ele>
        <time>2020-07-15T08:08:31Z</time>
      </trkpt>
      <trkpt lat="38.1069290" lon="-2.8069910">
        <ele>687.4</ele>
        <time>2020-07-15T08:08:33Z</time>
      </trkpt>
      <trkpt lat="38.1068660" lon="-2.8070980">
        <ele>687.6</ele>
        <time>2020-07-15T08:08:35Z</time>
      </trkpt>
      <trkpt lat="38.1067620" lon="-2.8072440">
        <ele>688.0</ele>
        <time>2020-07-15T08:08:38Z</time>
      </trkpt>
      <trkpt lat="38.1064420" lon="-2.8075620">
        <ele>688.4</ele>
        <time>2020-07-15T08:08:45Z</time>
      </trkpt>
      <trkpt lat="38.1061620" lon="-2.8077770">
        <ele>687.8</ele>
        <time>2020-07-15T08:08:50Z</time>
      </trkpt>
      <trkpt lat="38.1061030" lon="-2.8078150">
        <ele>687.8</ele>
        <time>2020-07-15T08:08:51Z</time>
      </trkpt>
      <trkpt lat="38.1059720" lon="-2.8078940">
        <ele>687.4</ele>
        <time>2020-07-15T08:08:53Z</time>
      </trkpt>
      <trkpt lat="38.1058430" lon="-2.8079750">
        <ele>687.0</ele>
        <time>2020-07-15T08:08:55Z</time>
      </trkpt>
      <trkpt lat="38.1057200" lon="-2.8080600">
        <ele>686.6</ele>
        <time>2020-07-15T08:08:57Z</time>
      </trkpt>
      <trkpt lat="38.1055760" lon="-2.8081510">
        <ele>686.2</ele>
        <time>2020-07-15T08:08:59Z</time>
      </trkpt>
      <trkpt lat="38.1054340" lon="-2.8082340">
        <ele>685.8</ele>
        <time>2020-07-15T08:09:01Z</time>
      </trkpt>
      <trkpt lat="38.1052890" lon="-2.8083130">
        <ele>685.2</ele>
        <time>2020-07-15T08:09:03Z</time>
      </trkpt>
      <trkpt lat="38.1051370" lon="-2.8083880">
        <ele>684.8</ele>
        <time>2020-07-15T08:09:05Z</time>
      </trkpt>
      <trkpt lat="38.1050640" lon="-2.8084230">
        <ele>684.4</ele>
        <time>2020-07-15T08:09:06Z</time>
      </trkpt>
      <trkpt lat="38.1049950" lon="-2.8084580">
        <ele>684.2</ele>
        <time>2020-07-15T08:09:07Z</time>
      </trkpt>
      <trkpt lat="38.1048510" lon="-2.8085500">
        <ele>683.8</ele>
        <time>2020-07-15T08:09:09Z</time>
      </trkpt>
      <trkpt lat="38.1047180" lon="-2.8086650">
        <ele>683.4</ele>
        <time>2020-07-15T08:09:11Z</time>
      </trkpt>
      <trkpt lat="38.1046590" lon="-2.8087230">
        <ele>683.2</ele>
        <time>2020-07-15T08:09:12Z</time>
      </trkpt>
      <trkpt lat="38.1044270" lon="-2.8089790">
        <ele>682.8</ele>
        <time>2020-07-15T08:09:16Z</time>
      </trkpt>
      <trkpt lat="38.1043860" lon="-2.8090470">
        <ele>682.8</ele>
        <time>2020-07-15T08:09:17Z</time>
      </trkpt>
      <trkpt lat="38.1043200" lon="-2.8093180">
        <ele>682.6</ele>
        <time>2020-07-15T08:09:20Z</time>
      </trkpt>
      <trkpt lat="38.1043390" lon="-2.8094920">
        <ele>682.6</ele>
        <time>2020-07-15T08:09:22Z</time>
      </trkpt>
      <trkpt lat="38.1043610" lon="-2.8096820">
        <ele>682.6</ele>
        <time>2020-07-15T08:09:24Z</time>
      </trkpt>
      <trkpt lat="38.1043480" lon="-2.8101270">
        <ele>682.8</ele>
        <time>2020-07-15T08:09:29Z</time>
      </trkpt>
      <trkpt lat="38.1042880" lon="-2.8106230">
        <ele>683.2</ele>
        <time>2020-07-15T08:09:35Z</time>
      </trkpt>
      <trkpt lat="38.1042770" lon="-2.8107060">
        <ele>683.4</ele>
        <time>2020-07-15T08:09:36Z</time>
      </trkpt>
      <trkpt lat="38.1042090" lon="-2.8111260">
        <ele>683.6</ele>
        <time>2020-07-15T08:09:41Z</time>
      </trkpt>
      <trkpt lat="38.1041720" lon="-2.8114670">
        <ele>683.6</ele>
        <time>2020-07-15T08:09:45Z</time>
      </trkpt>
      <trkpt lat="38.1041360" lon="-2.8119210">
        <ele>684.2</ele>
        <time>2020-07-15T08:09:50Z</time>
      </trkpt>
      <trkpt lat="38.1041090" lon="-2.8120010">
        <ele>684.2</ele>
        <time>2020-07-15T08:09:51Z</time>
      </trkpt>
      <trkpt lat="38.1039730" lon="-2.8121970">
        <ele>684.2</ele>
        <time>2020-07-15T08:09:54Z</time>
      </trkpt>
      <trkpt lat="38.1039150" lon="-2.8122440">
        <ele>684.2</ele>
        <time>2020-07-15T08:09:55Z</time>
      </trkpt>
      <trkpt lat="38.1037950" lon="-2.8123160">
        <ele>684.6</ele>
        <time>2020-07-15T08:09:57Z</time>
      </trkpt>
      <trkpt lat="38.1037230" lon="-2.8123550">
        <ele>684.6</ele>
        <time>2020-07-15T08:09:58Z</time>
      </trkpt>
      <trkpt lat="38.1032170" lon="-2.8126000">
        <ele>685.0</ele>
        <time>2020-07-15T08:10:06Z</time>
      </trkpt>
      <trkpt lat="38.1031610" lon="-2.8126330">
        <ele>685.2</ele>
        <time>2020-07-15T08:10:07Z</time>
      </trkpt>
      <trkpt lat="38.1030970" lon="-2.8126730">
        <ele>685.4</ele>
        <time>2020-07-15T08:10:08Z</time>
      </trkpt>
      <trkpt lat="38.1028730" lon="-2.8128270">
        <ele>685.8</ele>
        <time>2020-07-15T08:10:12Z</time>
      </trkpt>
      <trkpt lat="38.1027570" lon="-2.8129040">
        <ele>686.0</ele>
        <time>2020-07-15T08:10:14Z</time>
      </trkpt>
      <trkpt lat="38.1027000" lon="-2.8129340">
        <ele>686.2</ele>
        <time>2020-07-15T08:10:15Z</time>
      </trkpt>
      <trkpt lat="38.1026380" lon="-2.8129600">
        <ele>686.4</ele>
        <time>2020-07-15T08:10:16Z</time>
      </trkpt>
      <trkpt lat="38.1023760" lon="-2.8130260">
        <ele>687.0</ele>
        <time>2020-07-15T08:10:20Z</time>
      </trkpt>
      <trkpt lat="38.1018770" lon="-2.8131100">
        <ele>686.4</ele>
        <time>2020-07-15T08:10:27Z</time>
      </trkpt>
      <trkpt lat="38.1017910" lon="-2.8131120">
        <ele>686.2</ele>
        <time>2020-07-15T08:10:28Z</time>
      </trkpt>
      <trkpt lat="38.1014850" lon="-2.8130980">
        <ele>685.6</ele>
        <time>2020-07-15T08:10:32Z</time>
      </trkpt>
      <trkpt lat="38.1011770" lon="-2.8130420">
        <ele>685.4</ele>
        <time>2020-07-15T08:10:36Z</time>
      </trkpt>
      <trkpt lat="38.1008860" lon="-2.8129200">
        <ele>685.4</ele>
        <time>2020-07-15T08:10:40Z</time>
      </trkpt>
      <trkpt lat="38.1007530" lon="-2.8128330">
        <ele>685.4</ele>
        <time>2020-07-15T08:10:42Z</time>
      </trkpt>
      <trkpt lat="38.1006870" lon="-2.8127720">
        <ele>685.2</ele>
        <time>2020-07-15T08:10:43Z</time>
      </trkpt>
      <trkpt lat="38.1005250" lon="-2.8125620">
        <ele>685.0</ele>
        <time>2020-07-15T08:10:46Z</time>
      </trkpt>
      <trkpt lat="38.1002190" lon="-2.8122630">
        <ele>684.6</ele>
        <time>2020-07-15T08:10:51Z</time>
      </trkpt>
      <trkpt lat="38.1000050" lon="-2.8121300">
        <ele>684.4</ele>
        <time>2020-07-15T08:10:54Z</time>
      </trkpt>
      <trkpt lat="38.0998550" lon="-2.8120830">
        <ele>684.2</ele>
        <time>2020-07-15T08:10:56Z</time>
      </trkpt>
      <trkpt lat="38.0997090" lon="-2.8120640">
        <ele>684.2</ele>
        <time>2020-07-15T08:10:58Z</time>
      </trkpt>
      <trkpt lat="38.0994670" lon="-2.8120630">
        <ele>684.0</ele>
        <time>2020-07-15T08:11:01Z</time>
      </trkpt>
      <trkpt lat="38.0992390" lon="-2.8120520">
        <ele>684.2</ele>
        <time>2020-07-15T08:11:04Z</time>
      </trkpt>
      <trkpt lat="38.0990890" lon="-2.8120080">
        <ele>684.2</ele>
        <time>2020-07-15T08:11:06Z</time>
      </trkpt>
      <trkpt lat="38.0988740" lon="-2.8119100">
        <ele>684.0</ele>
        <time>2020-07-15T08:11:09Z</time>
      </trkpt>
      <trkpt lat="38.0987990" lon="-2.8118810">
        <ele>684.0</ele>
        <time>2020-07-15T08:11:10Z</time>
      </trkpt>
      <trkpt lat="38.0987230" lon="-2.8118630">
        <ele>684.0</ele>
        <time>2020-07-15T08:11:11Z</time>
      </trkpt>
      <trkpt lat="38.0984360" lon="-2.8118930">
        <ele>684.0</ele>
        <time>2020-07-15T08:11:15Z</time>
      </trkpt>
      <trkpt lat="38.0982480" lon="-2.8120080">
        <ele>684.4</ele>
        <time>2020-07-15T08:11:18Z</time>
      </trkpt>
      <trkpt lat="38.0981280" lon="-2.8120850">
        <ele>684.6</ele>
        <time>2020-07-15T08:11:20Z</time>
      </trkpt>
      <trkpt lat="38.0979460" lon="-2.8121530">
        <ele>685.4</ele>
        <time>2020-07-15T08:11:23Z</time>
      </trkpt>
      <trkpt lat="38.0978320" lon="-2.8121630">
        <ele>685.8</ele>
        <time>2020-07-15T08:11:25Z</time>
      </trkpt>
      <trkpt lat="38.0976920" lon="-2.8121610">
        <ele>686.4</ele>
        <time>2020-07-15T08:11:28Z</time>
      </trkpt>
      <trkpt lat="38.0976190" lon="-2.8121580">
        <ele>686.6</ele>
        <time>2020-07-15T08:11:30Z</time>
      </trkpt>
      <trkpt lat="38.0975110" lon="-2.8121470">
        <ele>687.0</ele>
        <time>2020-07-15T08:11:34Z</time>
      </trkpt>
      <trkpt lat="38.0974370" lon="-2.8121450">
        <ele>687.0</ele>
        <time>2020-07-15T08:11:36Z</time>
      </trkpt>
      <trkpt lat="38.0972840" lon="-2.8121360">
        <ele>687.2</ele>
        <time>2020-07-15T08:11:40Z</time>
      </trkpt>
      <trkpt lat="38.0972050" lon="-2.8121320">
        <ele>687.6</ele>
        <time>2020-07-15T08:11:42Z</time>
      </trkpt>
      <trkpt lat="38.0969550" lon="-2.8121470">
        <ele>688.4</ele>
        <time>2020-07-15T08:11:48Z</time>
      </trkpt>
      <trkpt lat="38.0969120" lon="-2.8121610">
        <ele>688.6</ele>
        <time>2020-07-15T08:11:49Z</time>
      </trkpt>
      <trkpt lat="38.0965940" lon="-2.8122770">
        <ele>689.6</ele>
        <time>2020-07-15T08:11:56Z</time>
      </trkpt>
      <trkpt lat="38.0963560" lon="-2.8123620">
        <ele>690.2</ele>
        <time>2020-07-15T08:12:01Z</time>
      </trkpt>
      <trkpt lat="38.0962630" lon="-2.8123730">
        <ele>690.4</ele>
        <time>2020-07-15T08:12:03Z</time>
      </trkpt>
      <trkpt lat="38.0962150" lon="-2.8123700">
        <ele>690.6</ele>
        <time>2020-07-15T08:12:04Z</time>
      </trkpt>
      <trkpt lat="38.0961640" lon="-2.8123590">
        <ele>690.6</ele>
        <time>2020-07-15T08:12:05Z</time>
      </trkpt>
      <trkpt lat="38.0960760" lon="-2.8123150">
        <ele>690.8</ele>
        <time>2020-07-15T08:12:07Z</time>
      </trkpt>
      <trkpt lat="38.0959860" lon="-2.8122450">
        <ele>691.0</ele>
        <time>2020-07-15T08:12:09Z</time>
      </trkpt>
      <trkpt lat="38.0958000" lon="-2.8121270">
        <ele>691.4</ele>
        <time>2020-07-15T08:12:13Z</time>
      </trkpt>
      <trkpt lat="38.0955850" lon="-2.8121370">
        <ele>691.6</ele>
        <time>2020-07-15T08:12:17Z</time>
      </trkpt>
      <trkpt lat="38.0954220" lon="-2.8122500">
        <ele>691.6</ele>
        <time>2020-07-15T08:12:20Z</time>
      </trkpt>
      <trkpt lat="38.0953780" lon="-2.8122860">
        <ele>691.4</ele>
        <time>2020-07-15T08:12:21Z</time>
      </trkpt>
      <trkpt lat="38.0951960" lon="-2.8124000">
        <ele>691.2</ele>
        <time>2020-07-15T08:12:25Z</time>
      </trkpt>
      <trkpt lat="38.0948390" lon="-2.8125300">
        <ele>691.2</ele>
        <time>2020-07-15T08:12:31Z</time>
      </trkpt>
      <trkpt lat="38.0944510" lon="-2.8125930">
        <ele>690.8</ele>
        <time>2020-07-15T08:12:37Z</time>
      </trkpt>
      <trkpt lat="38.0942640" lon="-2.8125230">
        <ele>691.0</ele>
        <time>2020-07-15T08:12:40Z</time>
      </trkpt>
      <trkpt lat="38.0942030" lon="-2.8124970">
        <ele>691.0</ele>
        <time>2020-07-15T08:12:41Z</time>
      </trkpt>
      <trkpt lat="38.0940200" lon="-2.8124160">
        <ele>690.8</ele>
        <time>2020-07-15T08:12:44Z</time>
      </trkpt>
      <trkpt lat="38.0937580" lon="-2.8123290">
        <ele>690.4</ele>
        <time>2020-07-15T08:12:48Z</time>
      </trkpt>
      <trkpt lat="38.0936890" lon="-2.8123220">
        <ele>690.4</ele>
        <time>2020-07-15T08:12:49Z</time>
      </trkpt>
      <trkpt lat="38.0934950" lon="-2.8123540">
        <ele>690.2</ele>
        <time>2020-07-15T08:12:52Z</time>
      </trkpt>
      <trkpt lat="38.0934300" lon="-2.8123780">
        <ele>690.2</ele>
        <time>2020-07-15T08:12:53Z</time>
      </trkpt>
      <trkpt lat="38.0931890" lon="-2.8124350">
        <ele>690.6</ele>
        <time>2020-07-15T08:12:57Z</time>
      </trkpt>
      <trkpt lat="38.0931220" lon="-2.8124320">
        <ele>690.8</ele>
        <time>2020-07-15T08:12:58Z</time>
      </trkpt>
      <trkpt lat="38.0927380" lon="-2.8123450">
        <ele>691.2</ele>
        <time>2020-07-15T08:13:04Z</time>
      </trkpt>
      <trkpt lat="38.0925430" lon="-2.8123210">
        <ele>691.4</ele>
        <time>2020-07-15T08:13:07Z</time>
      </trkpt>
      <trkpt lat="38.0923960" lon="-2.8123480">
        <ele>691.4</ele>
        <time>2020-07-15T08:13:09Z</time>
      </trkpt>
      <trkpt lat="38.0920990" lon="-2.8125370">
        <ele>690.4</ele>
        <time>2020-07-15T08:13:13Z</time>
      </trkpt>
      <trkpt lat="38.0920180" lon="-2.8126060">
        <ele>689.8</ele>
        <time>2020-07-15T08:13:14Z</time>
      </trkpt>
      <trkpt lat="38.0919390" lon="-2.8126720">
        <ele>689.2</ele>
        <time>2020-07-15T08:13:15Z</time>
      </trkpt>
      <trkpt lat="38.0917770" lon="-2.8128150">
        <ele>688.0</ele>
        <time>2020-07-15T08:13:17Z</time>
      </trkpt>
      <trkpt lat="38.0915940" lon="-2.8129710">
        <ele>686.4</ele>
        <time>2020-07-15T08:13:19Z</time>
      </trkpt>
      <trkpt lat="38.0914140" lon="-2.8131220">
        <ele>685.0</ele>
        <time>2020-07-15T08:13:21Z</time>
      </trkpt>
      <trkpt lat="38.0912270" lon="-2.8132680">
        <ele>683.6</ele>
        <time>2020-07-15T08:13:23Z</time>
      </trkpt>
      <trkpt lat="38.0910410" lon="-2.8134010">
        <ele>682.0</ele>
        <time>2020-07-15T08:13:25Z</time>
      </trkpt>
      <trkpt lat="38.0908650" lon="-2.8135260">
        <ele>680.6</ele>
        <time>2020-07-15T08:13:27Z</time>
      </trkpt>
      <trkpt lat="38.0907730" lon="-2.8136060">
        <ele>679.8</ele>
        <time>2020-07-15T08:13:28Z</time>
      </trkpt>
      <trkpt lat="38.0906900" lon="-2.8137030">
        <ele>679.0</ele>
        <time>2020-07-15T08:13:29Z</time>
      </trkpt>
      <trkpt lat="38.0905460" lon="-2.8139050">
        <ele>677.4</ele>
        <time>2020-07-15T08:13:31Z</time>
      </trkpt>
      <trkpt lat="38.0904870" lon="-2.8140080">
        <ele>676.6</ele>
        <time>2020-07-15T08:13:32Z</time>
      </trkpt>
      <trkpt lat="38.0904330" lon="-2.8141330">
        <ele>675.8</ele>
        <time>2020-07-15T08:13:33Z</time>
      </trkpt>
      <trkpt lat="38.0903250" lon="-2.8143910">
        <ele>674.4</ele>
        <time>2020-07-15T08:13:35Z</time>
      </trkpt>
      <trkpt lat="38.0902540" lon="-2.8145100">
        <ele>673.8</ele>
        <time>2020-07-15T08:13:36Z</time>
      </trkpt>
      <trkpt lat="38.0901780" lon="-2.8146140">
        <ele>673.0</ele>
        <time>2020-07-15T08:13:37Z</time>
      </trkpt>
      <trkpt lat="38.0899800" lon="-2.8147920">
        <ele>671.4</ele>
        <time>2020-07-15T08:13:39Z</time>
      </trkpt>
      <trkpt lat="38.0898710" lon="-2.8148590">
        <ele>670.6</ele>
        <time>2020-07-15T08:13:40Z</time>
      </trkpt>
      <trkpt lat="38.0897650" lon="-2.8149150">
        <ele>669.8</ele>
        <time>2020-07-15T08:13:41Z</time>
      </trkpt>
      <trkpt lat="38.0894500" lon="-2.8150610">
        <ele>668.8</ele>
        <time>2020-07-15T08:13:44Z</time>
      </trkpt>
      <trkpt lat="38.0893460" lon="-2.8151040">
        <ele>668.6</ele>
        <time>2020-07-15T08:13:45Z</time>
      </trkpt>
      <trkpt lat="38.0891390" lon="-2.8151770">
        <ele>668.6</ele>
        <time>2020-07-15T08:13:47Z</time>
      </trkpt>
      <trkpt lat="38.0887170" lon="-2.8153120">
        <ele>668.0</ele>
        <time>2020-07-15T08:13:51Z</time>
      </trkpt>
      <trkpt lat="38.0883310" lon="-2.8154650">
        <ele>667.6</ele>
        <time>2020-07-15T08:13:55Z</time>
      </trkpt>
      <trkpt lat="38.0881480" lon="-2.8155220">
        <ele>667.6</ele>
        <time>2020-07-15T08:13:57Z</time>
      </trkpt>
      <trkpt lat="38.0879570" lon="-2.8155680">
        <ele>667.6</ele>
        <time>2020-07-15T08:13:59Z</time>
      </trkpt>
      <trkpt lat="38.0876920" lon="-2.8156100">
        <ele>667.6</ele>
        <time>2020-07-15T08:14:02Z</time>
      </trkpt>
      <trkpt lat="38.0871950" lon="-2.8156980">
        <ele>667.4</ele>
        <time>2020-07-15T08:14:08Z</time>
      </trkpt>
      <trkpt lat="38.0867420" lon="-2.8159120">
        <ele>667.2</ele>
        <time>2020-07-15T08:14:14Z</time>
      </trkpt>
      <trkpt lat="38.0863730" lon="-2.8161390">
        <ele>666.6</ele>
        <time>2020-07-15T08:14:19Z</time>
      </trkpt>
      <trkpt lat="38.0862220" lon="-2.8162380">
        <ele>666.4</ele>
        <time>2020-07-15T08:14:21Z</time>
      </trkpt>
      <trkpt lat="38.0859220" lon="-2.8164420">
        <ele>665.6</ele>
        <time>2020-07-15T08:14:25Z</time>
      </trkpt>
      <trkpt lat="38.0857770" lon="-2.8165460">
        <ele>665.2</ele>
        <time>2020-07-15T08:14:27Z</time>
      </trkpt>
      <trkpt lat="38.0854060" lon="-2.8168350">
        <ele>664.4</ele>
        <time>2020-07-15T08:14:32Z</time>
      </trkpt>
      <trkpt lat="38.0853320" lon="-2.8169030">
        <ele>664.0</ele>
        <time>2020-07-15T08:14:33Z</time>
      </trkpt>
      <trkpt lat="38.0850970" lon="-2.8171020">
        <ele>663.2</ele>
        <time>2020-07-15T08:14:36Z</time>
      </trkpt>
      <trkpt lat="38.0849400" lon="-2.8172320">
        <ele>662.8</ele>
        <time>2020-07-15T08:14:38Z</time>
      </trkpt>
      <trkpt lat="38.0846920" lon="-2.8174070">
        <ele>662.0</ele>
        <time>2020-07-15T08:14:41Z</time>
      </trkpt>
      <trkpt lat="38.0844390" lon="-2.8175680">
        <ele>661.2</ele>
        <time>2020-07-15T08:14:44Z</time>
      </trkpt>
      <trkpt lat="38.0843570" lon="-2.8176160">
        <ele>661.0</ele>
        <time>2020-07-15T08:14:45Z</time>
      </trkpt>
      <trkpt lat="38.0841100" lon="-2.8177640">
        <ele>660.4</ele>
        <time>2020-07-15T08:14:48Z</time>
      </trkpt>
      <trkpt lat="38.0839460" lon="-2.8178380">
        <ele>660.0</ele>
        <time>2020-07-15T08:14:50Z</time>
      </trkpt>
      <trkpt lat="38.0838670" lon="-2.8178610">
        <ele>659.8</ele>
        <time>2020-07-15T08:14:51Z</time>
      </trkpt>
      <trkpt lat="38.0836100" lon="-2.8179050">
        <ele>659.4</ele>
        <time>2020-07-15T08:14:54Z</time>
      </trkpt>
      <trkpt lat="38.0833650" lon="-2.8178890">
        <ele>659.0</ele>
        <time>2020-07-15T08:14:57Z</time>
      </trkpt>
      <trkpt lat="38.0832770" lon="-2.8178670">
        <ele>658.8</ele>
        <time>2020-07-15T08:14:58Z</time>
      </trkpt>
      <trkpt lat="38.0828160" lon="-2.8177070">
        <ele>658.6</ele>
        <time>2020-07-15T08:15:04Z</time>
      </trkpt>
      <trkpt lat="38.0827460" lon="-2.8176720">
        <ele>658.6</ele>
        <time>2020-07-15T08:15:05Z</time>
      </trkpt>
      <trkpt lat="38.0825700" lon="-2.8175180">
        <ele>658.8</ele>
        <time>2020-07-15T08:15:08Z</time>
      </trkpt>
      <trkpt lat="38.0824780" lon="-2.8173920">
        <ele>659.0</ele>
        <time>2020-07-15T08:15:10Z</time>
      </trkpt>
      <trkpt lat="38.0823990" lon="-2.8172680">
        <ele>659.4</ele>
        <time>2020-07-15T08:15:12Z</time>
      </trkpt>
      <trkpt lat="38.0823210" lon="-2.8171290">
        <ele>659.8</ele>
        <time>2020-07-15T08:15:14Z</time>
      </trkpt>
      <trkpt lat="38.0822860" lon="-2.8170560">
        <ele>660.0</ele>
        <time>2020-07-15T08:15:15Z</time>
      </trkpt>
      <trkpt lat="38.0822220" lon="-2.8169110">
        <ele>660.0</ele>
        <time>2020-07-15T08:15:17Z</time>
      </trkpt>
      <trkpt lat="38.0821850" lon="-2.8168340">
        <ele>660.2</ele>
        <time>2020-07-15T08:15:18Z</time>
      </trkpt>
      <trkpt lat="38.0820570" lon="-2.8165890">
        <ele>660.4</ele>
        <time>2020-07-15T08:15:22Z</time>
      </trkpt>
      <trkpt lat="38.0820120" lon="-2.8165240">
        <ele>660.4</ele>
        <time>2020-07-15T08:15:23Z</time>
      </trkpt>
      <trkpt lat="38.0819290" lon="-2.8163950">
        <ele>660.4</ele>
        <time>2020-07-15T08:15:25Z</time>
      </trkpt>
      <trkpt lat="38.0818040" lon="-2.8161970">
        <ele>660.4</ele>
        <time>2020-07-15T08:15:28Z</time>
      </trkpt>
      <trkpt lat="38.0816430" lon="-2.8159690">
        <ele>660.6</ele>
        <time>2020-07-15T08:15:32Z</time>
      </trkpt>
      <trkpt lat="38.0813030" lon="-2.8155660">
        <ele>660.6</ele>
        <time>2020-07-15T08:15:39Z</time>
      </trkpt>
      <trkpt lat="38.0810420" lon="-2.8154740">
        <ele>660.6</ele>
        <time>2020-07-15T08:15:43Z</time>
      </trkpt>
      <trkpt lat="38.0808470" lon="-2.8155570">
        <ele>660.4</ele>
        <time>2020-07-15T08:15:46Z</time>
      </trkpt>
      <trkpt lat="38.0806400" lon="-2.8157730">
        <ele>660.4</ele>
        <time>2020-07-15T08:15:50Z</time>
      </trkpt>
      <trkpt lat="38.0805050" lon="-2.8160610">
        <ele>660.6</ele>
        <time>2020-07-15T08:15:54Z</time>
      </trkpt>
      <trkpt lat="38.0804860" lon="-2.8161390">
        <ele>660.8</ele>
        <time>2020-07-15T08:15:55Z</time>
      </trkpt>
      <trkpt lat="38.0804300" lon="-2.8163620">
        <ele>661.0</ele>
        <time>2020-07-15T08:15:58Z</time>
      </trkpt>
      <trkpt lat="38.0803990" lon="-2.8165090">
        <ele>661.4</ele>
        <time>2020-07-15T08:16:00Z</time>
      </trkpt>
      <trkpt lat="38.0803720" lon="-2.8167260">
        <ele>662.0</ele>
        <time>2020-07-15T08:16:03Z</time>
      </trkpt>
      <trkpt lat="38.0803780" lon="-2.8168040">
        <ele>662.2</ele>
        <time>2020-07-15T08:16:04Z</time>
      </trkpt>
      <trkpt lat="38.0803900" lon="-2.8168790">
        <ele>662.4</ele>
        <time>2020-07-15T08:16:05Z</time>
      </trkpt>
      <trkpt lat="38.0804560" lon="-2.8170860">
        <ele>663.0</ele>
        <time>2020-07-15T08:16:08Z</time>
      </trkpt>
      <trkpt lat="38.0804800" lon="-2.8171510">
        <ele>663.2</ele>
        <time>2020-07-15T08:16:09Z</time>
      </trkpt>
      <trkpt lat="38.0805080" lon="-2.8172210">
        <ele>663.6</ele>
        <time>2020-07-15T08:16:10Z</time>
      </trkpt>
      <trkpt lat="38.0806040" lon="-2.8174130">
        <ele>664.2</ele>
        <time>2020-07-15T08:16:13Z</time>
      </trkpt>
      <trkpt lat="38.0806680" lon="-2.8175290">
        <ele>664.4</ele>
        <time>2020-07-15T08:16:15Z</time>
      </trkpt>
      <trkpt lat="38.0806970" lon="-2.8175920">
        <ele>664.6</ele>
        <time>2020-07-15T08:16:16Z</time>
      </trkpt>
      <trkpt lat="38.0807760" lon="-2.8177960">
        <ele>664.8</ele>
        <time>2020-07-15T08:16:19Z</time>
      </trkpt>
      <trkpt lat="38.0807950" lon="-2.8179500">
        <ele>665.0</ele>
        <time>2020-07-15T08:16:21Z</time>
      </trkpt>
      <trkpt lat="38.0807420" lon="-2.8181840">
        <ele>665.2</ele>
        <time>2020-07-15T08:16:24Z</time>
      </trkpt>
      <trkpt lat="38.0806050" lon="-2.8183400">
        <ele>665.2</ele>
        <time>2020-07-15T08:16:27Z</time>
      </trkpt>
      <trkpt lat="38.0804160" lon="-2.8183840">
        <ele>665.2</ele>
        <time>2020-07-15T08:16:30Z</time>
      </trkpt>
      <trkpt lat="38.0803580" lon="-2.8183860">
        <ele>665.2</ele>
        <time>2020-07-15T08:16:31Z</time>
      </trkpt>
      <trkpt lat="38.0802520" lon="-2.8183940">
        <ele>665.6</ele>
        <time>2020-07-15T08:16:33Z</time>
      </trkpt>
      <trkpt lat="38.0801070" lon="-2.8184060">
        <ele>666.2</ele>
        <time>2020-07-15T08:16:36Z</time>
      </trkpt>
      <trkpt lat="38.0800180" lon="-2.8184150">
        <ele>666.8</ele>
        <time>2020-07-15T08:16:38Z</time>
      </trkpt>
      <trkpt lat="38.0798780" lon="-2.8184490">
        <ele>667.4</ele>
        <time>2020-07-15T08:16:41Z</time>
      </trkpt>
      <trkpt lat="38.0797970" lon="-2.8185020">
        <ele>667.8</ele>
        <time>2020-07-15T08:16:43Z</time>
      </trkpt>
      <trkpt lat="38.0796880" lon="-2.8186160">
        <ele>668.6</ele>
        <time>2020-07-15T08:16:46Z</time>
      </trkpt>
      <trkpt lat="38.0796540" lon="-2.8186530">
        <ele>668.8</ele>
        <time>2020-07-15T08:16:47Z</time>
      </trkpt>
      <trkpt lat="38.0795460" lon="-2.8187700">
        <ele>669.6</ele>
        <time>2020-07-15T08:16:50Z</time>
      </trkpt>
      <trkpt lat="38.0795150" lon="-2.8188070">
        <ele>670.0</ele>
        <time>2020-07-15T08:16:51Z</time>
      </trkpt>
      <trkpt lat="38.0794490" lon="-2.8188850">
        <ele>670.4</ele>
        <time>2020-07-15T08:16:53Z</time>
      </trkpt>
      <trkpt lat="38.0793560" lon="-2.8189920">
        <ele>671.0</ele>
        <time>2020-07-15T08:16:56Z</time>
      </trkpt>
      <trkpt lat="38.0792060" lon="-2.8191620">
        <ele>672.2</ele>
        <time>2020-07-15T08:17:01Z</time>
      </trkpt>
      <trkpt lat="38.0790600" lon="-2.8193260">
        <ele>673.4</ele>
        <time>2020-07-15T08:17:06Z</time>
      </trkpt>
      <trkpt lat="38.0789730" lon="-2.8194290">
        <ele>674.0</ele>
        <time>2020-07-15T08:17:09Z</time>
      </trkpt>
      <trkpt lat="38.0789160" lon="-2.8194970">
        <ele>674.4</ele>
        <time>2020-07-15T08:17:11Z</time>
      </trkpt>
      <trkpt lat="38.0787790" lon="-2.8196580">
        <ele>675.6</ele>
        <time>2020-07-15T08:17:16Z</time>
      </trkpt>
      <trkpt lat="38.0787250" lon="-2.8197270">
        <ele>676.0</ele>
        <time>2020-07-15T08:17:18Z</time>
      </trkpt>
      <trkpt lat="38.0786560" lon="-2.8198480">
        <ele>676.8</ele>
        <time>2020-07-15T08:17:21Z</time>
      </trkpt>
      <trkpt lat="38.0785970" lon="-2.8199730">
        <ele>677.2</ele>
        <time>2020-07-15T08:17:24Z</time>
      </trkpt>
      <trkpt lat="38.0785440" lon="-2.8200930">
        <ele>677.8</ele>
        <time>2020-07-15T08:17:27Z</time>
      </trkpt>
      <trkpt lat="38.0784510" lon="-2.8203030">
        <ele>678.8</ele>
        <time>2020-07-15T08:17:32Z</time>
      </trkpt>
      <trkpt lat="38.0784300" lon="-2.8203470">
        <ele>679.0</ele>
        <time>2020-07-15T08:17:33Z</time>
      </trkpt>
      <trkpt lat="38.0783260" lon="-2.8205460">
        <ele>680.0</ele>
        <time>2020-07-15T08:17:38Z</time>
      </trkpt>
      <trkpt lat="38.0782740" lon="-2.8206220">
        <ele>680.4</ele>
        <time>2020-07-15T08:17:40Z</time>
      </trkpt>
      <trkpt lat="38.0781850" lon="-2.8207190">
        <ele>681.2</ele>
        <time>2020-07-15T08:17:43Z</time>
      </trkpt>
      <trkpt lat="38.0780310" lon="-2.8208770">
        <ele>682.2</ele>
        <time>2020-07-15T08:17:48Z</time>
      </trkpt>
      <trkpt lat="38.0778920" lon="-2.8211140">
        <ele>683.4</ele>
        <time>2020-07-15T08:17:54Z</time>
      </trkpt>
      <trkpt lat="38.0777850" lon="-2.8213270">
        <ele>684.4</ele>
        <time>2020-07-15T08:17:59Z</time>
      </trkpt>
      <trkpt lat="38.0777560" lon="-2.8213670">
        <ele>684.6</ele>
        <time>2020-07-15T08:18:00Z</time>
      </trkpt>
      <trkpt lat="38.0777230" lon="-2.8214050">
        <ele>684.8</ele>
        <time>2020-07-15T08:18:01Z</time>
      </trkpt>
      <trkpt lat="38.0776570" lon="-2.8214710">
        <ele>685.0</ele>
        <time>2020-07-15T08:18:03Z</time>
      </trkpt>
      <trkpt lat="38.0775460" lon="-2.8215450">
        <ele>685.4</ele>
        <time>2020-07-15T08:18:06Z</time>
      </trkpt>
      <trkpt lat="38.0775110" lon="-2.8215650">
        <ele>685.6</ele>
        <time>2020-07-15T08:18:07Z</time>
      </trkpt>
      <trkpt lat="38.0773960" lon="-2.8216320">
        <ele>686.4</ele>
        <time>2020-07-15T08:18:10Z</time>
      </trkpt>
      <trkpt lat="38.0773590" lon="-2.8216610">
        <ele>686.4</ele>
        <time>2020-07-15T08:18:11Z</time>
      </trkpt>
      <trkpt lat="38.0772950" lon="-2.8217350">
        <ele>686.8</ele>
        <time>2020-07-15T08:18:13Z</time>
      </trkpt>
      <trkpt lat="38.0772100" lon="-2.8219170">
        <ele>687.2</ele>
        <time>2020-07-15T08:18:17Z</time>
      </trkpt>
      <trkpt lat="38.0771940" lon="-2.8219690">
        <ele>687.6</ele>
        <time>2020-07-15T08:18:18Z</time>
      </trkpt>
      <trkpt lat="38.0771600" lon="-2.8221680">
        <ele>688.4</ele>
        <time>2020-07-15T08:18:22Z</time>
      </trkpt>
      <trkpt lat="38.0771590" lon="-2.8222240">
        <ele>688.6</ele>
        <time>2020-07-15T08:18:23Z</time>
      </trkpt>
      <trkpt lat="38.0771570" lon="-2.8223280">
        <ele>688.8</ele>
        <time>2020-07-15T08:18:25Z</time>
      </trkpt>
      <trkpt lat="38.0771450" lon="-2.8224790">
        <ele>689.6</ele>
        <time>2020-07-15T08:18:28Z</time>
      </trkpt>
      <trkpt lat="38.0771220" lon="-2.8225830">
        <ele>690.0</ele>
        <time>2020-07-15T08:18:30Z</time>
      </trkpt>
      <trkpt lat="38.0770840" lon="-2.8226760">
        <ele>690.4</ele>
        <time>2020-07-15T08:18:32Z</time>
      </trkpt>
      <trkpt lat="38.0770270" lon="-2.8227670">
        <ele>690.6</ele>
        <time>2020-07-15T08:18:34Z</time>
      </trkpt>
      <trkpt lat="38.0769200" lon="-2.8228500">
        <ele>691.2</ele>
        <time>2020-07-15T08:18:37Z</time>
      </trkpt>
      <trkpt lat="38.0767940" lon="-2.8228740">
        <ele>691.8</ele>
        <time>2020-07-15T08:18:40Z</time>
      </trkpt>
      <trkpt lat="38.0767140" lon="-2.8228630">
        <ele>692.2</ele>
        <time>2020-07-15T08:18:42Z</time>
      </trkpt>
      <trkpt lat="38.0766320" lon="-2.8228350">
        <ele>692.4</ele>
        <time>2020-07-15T08:18:44Z</time>
      </trkpt>
      <trkpt lat="38.0764730" lon="-2.8227570">
        <ele>693.0</ele>
        <time>2020-07-15T08:18:48Z</time>
      </trkpt>
      <trkpt lat="38.0763920" lon="-2.8227160">
        <ele>693.2</ele>
        <time>2020-07-15T08:18:50Z</time>
      </trkpt>
      <trkpt lat="38.0761860" lon="-2.8226470">
        <ele>694.0</ele>
        <time>2020-07-15T08:18:55Z</time>
      </trkpt>
      <trkpt lat="38.0761130" lon="-2.8226370">
        <ele>694.2</ele>
        <time>2020-07-15T08:18:57Z</time>
      </trkpt>
      <trkpt lat="38.0759370" lon="-2.8225900">
        <ele>695.0</ele>
        <time>2020-07-15T08:19:01Z</time>
      </trkpt>
      <trkpt lat="38.0758620" lon="-2.8225520">
        <ele>695.4</ele>
        <time>2020-07-15T08:19:03Z</time>
      </trkpt>
      <trkpt lat="38.0757200" lon="-2.8224470">
        <ele>696.2</ele>
        <time>2020-07-15T08:19:07Z</time>
      </trkpt>
      <trkpt lat="38.0756410" lon="-2.8224030">
        <ele>696.6</ele>
        <time>2020-07-15T08:19:09Z</time>
      </trkpt>
      <trkpt lat="38.0755970" lon="-2.8223880">
        <ele>696.6</ele>
        <time>2020-07-15T08:19:10Z</time>
      </trkpt>
      <trkpt lat="38.0754750" lon="-2.8223760">
        <ele>697.0</ele>
        <time>2020-07-15T08:19:13Z</time>
      </trkpt>
      <trkpt lat="38.0754340" lon="-2.8223780">
        <ele>697.2</ele>
        <time>2020-07-15T08:19:14Z</time>
      </trkpt>
      <trkpt lat="38.0753510" lon="-2.8223820">
        <ele>697.6</ele>
        <time>2020-07-15T08:19:16Z</time>
      </trkpt>
      <trkpt lat="38.0751870" lon="-2.8224000">
        <ele>698.4</ele>
        <time>2020-07-15T08:19:20Z</time>
      </trkpt>
      <trkpt lat="38.0750080" lon="-2.8224040">
        <ele>699.2</ele>
        <time>2020-07-15T08:19:25Z</time>
      </trkpt>
      <trkpt lat="38.0749660" lon="-2.8223960">
        <ele>699.4</ele>
        <time>2020-07-15T08:19:26Z</time>
      </trkpt>
      <trkpt lat="38.0748200" lon="-2.8223360">
        <ele>700.0</ele>
        <time>2020-07-15T08:19:29Z</time>
      </trkpt>
      <trkpt lat="38.0747420" lon="-2.8222900">
        <ele>700.4</ele>
        <time>2020-07-15T08:19:31Z</time>
      </trkpt>
      <trkpt lat="38.0747060" lon="-2.8222670">
        <ele>700.6</ele>
        <time>2020-07-15T08:19:32Z</time>
      </trkpt>
      <trkpt lat="38.0745240" lon="-2.8221150">
        <ele>701.6</ele>
        <time>2020-07-15T08:19:37Z</time>
      </trkpt>
      <trkpt lat="38.0744540" lon="-2.8220500">
        <ele>702.0</ele>
        <time>2020-07-15T08:19:39Z</time>
      </trkpt>
      <trkpt lat="38.0742850" lon="-2.8218940">
        <ele>702.8</ele>
        <time>2020-07-15T08:19:44Z</time>
      </trkpt>
      <trkpt lat="38.0742190" lon="-2.8218310">
        <ele>703.0</ele>
        <time>2020-07-15T08:19:46Z</time>
      </trkpt>
      <trkpt lat="38.0740770" lon="-2.8216970">
        <ele>703.8</ele>
        <time>2020-07-15T08:19:50Z</time>
      </trkpt>
      <trkpt lat="38.0739110" lon="-2.8215630">
        <ele>704.4</ele>
        <time>2020-07-15T08:19:54Z</time>
      </trkpt>
      <trkpt lat="38.0735690" lon="-2.8213810">
        <ele>704.2</ele>
        <time>2020-07-15T08:20:01Z</time>
      </trkpt>
      <trkpt lat="38.0734170" lon="-2.8213060">
        <ele>704.2</ele>
        <time>2020-07-15T08:20:04Z</time>
      </trkpt>
      <trkpt lat="38.0732920" lon="-2.8212420">
        <ele>704.0</ele>
        <time>2020-07-15T08:20:06Z</time>
      </trkpt>
      <trkpt lat="38.0732260" lon="-2.8212100">
        <ele>703.8</ele>
        <time>2020-07-15T08:20:07Z</time>
      </trkpt>
      <trkpt lat="38.0731510" lon="-2.8211790">
        <ele>703.4</ele>
        <time>2020-07-15T08:20:08Z</time>
      </trkpt>
      <trkpt lat="38.0730730" lon="-2.8211590">
        <ele>703.2</ele>
        <time>2020-07-15T08:20:09Z</time>
      </trkpt>
      <trkpt lat="38.0729850" lon="-2.8211590">
        <ele>702.8</ele>
        <time>2020-07-15T08:20:10Z</time>
      </trkpt>
      <trkpt lat="38.0728980" lon="-2.8211850">
        <ele>702.4</ele>
        <time>2020-07-15T08:20:11Z</time>
      </trkpt>
      <trkpt lat="38.0728210" lon="-2.8212360">
        <ele>701.8</ele>
        <time>2020-07-15T08:20:12Z</time>
      </trkpt>
      <trkpt lat="38.0726650" lon="-2.8213870">
        <ele>700.8</ele>
        <time>2020-07-15T08:20:14Z</time>
      </trkpt>
      <trkpt lat="38.0725840" lon="-2.8214520">
        <ele>700.2</ele>
        <time>2020-07-15T08:20:15Z</time>
      </trkpt>
      <trkpt lat="38.0724890" lon="-2.8215050">
        <ele>699.6</ele>
        <time>2020-07-15T08:20:16Z</time>
      </trkpt>
      <trkpt lat="38.0723960" lon="-2.8215360">
        <ele>699.2</ele>
        <time>2020-07-15T08:20:17Z</time>
      </trkpt>
      <trkpt lat="38.0721850" lon="-2.8215420">
        <ele>698.2</ele>
        <time>2020-07-15T08:20:19Z</time>
      </trkpt>
      <trkpt lat="38.0720790" lon="-2.8215200">
        <ele>697.8</ele>
        <time>2020-07-15T08:20:20Z</time>
      </trkpt>
      <trkpt lat="38.0719770" lon="-2.8214910">
        <ele>697.0</ele>
        <time>2020-07-15T08:20:21Z</time>
      </trkpt>
      <trkpt lat="38.0717490" lon="-2.8214490">
        <ele>695.8</ele>
        <time>2020-07-15T08:20:23Z</time>
      </trkpt>
      <trkpt lat="38.0716470" lon="-2.8214450">
        <ele>695.0</ele>
        <time>2020-07-15T08:20:24Z</time>
      </trkpt>
      <trkpt lat="38.0715280" lon="-2.8214420">
        <ele>694.4</ele>
        <time>2020-07-15T08:20:25Z</time>
      </trkpt>
      <trkpt lat="38.0713060" lon="-2.8214420">
        <ele>693.2</ele>
        <time>2020-07-15T08:20:27Z</time>
      </trkpt>
      <trkpt lat="38.0711840" lon="-2.8214490">
        <ele>692.4</ele>
        <time>2020-07-15T08:20:28Z</time>
      </trkpt>
      <trkpt lat="38.0710670" lon="-2.8214700">
        <ele>691.6</ele>
        <time>2020-07-15T08:20:29Z</time>
      </trkpt>
      <trkpt lat="38.0708920" lon="-2.8216300">
        <ele>690.2</ele>
        <time>2020-07-15T08:20:31Z</time>
      </trkpt>
      <trkpt lat="38.0707770" lon="-2.8218670">
        <ele>688.8</ele>
        <time>2020-07-15T08:20:33Z</time>
      </trkpt>
      <trkpt lat="38.0707180" lon="-2.8220000">
        <ele>688.0</ele>
        <time>2020-07-15T08:20:34Z</time>
      </trkpt>
      <trkpt lat="38.0706510" lon="-2.8221170">
        <ele>687.4</ele>
        <time>2020-07-15T08:20:35Z</time>
      </trkpt>
      <trkpt lat="38.0704860" lon="-2.8223140">
        <ele>686.4</ele>
        <time>2020-07-15T08:20:37Z</time>
      </trkpt>
      <trkpt lat="38.0703920" lon="-2.8223880">
        <ele>686.0</ele>
        <time>2020-07-15T08:20:38Z</time>
      </trkpt>
      <trkpt lat="38.0701040" lon="-2.8226410">
        <ele>684.8</ele>
        <time>2020-07-15T08:20:41Z</time>
      </trkpt>
      <trkpt lat="38.0699170" lon="-2.8228100">
        <ele>683.2</ele>
        <time>2020-07-15T08:20:43Z</time>
      </trkpt>
      <trkpt lat="38.0698370" lon="-2.8229130">
        <ele>682.8</ele>
        <time>2020-07-15T08:20:44Z</time>
      </trkpt>
      <trkpt lat="38.0697740" lon="-2.8230210">
        <ele>682.2</ele>
        <time>2020-07-15T08:20:45Z</time>
      </trkpt>
      <trkpt lat="38.0697110" lon="-2.8231530">
        <ele>681.8</ele>
        <time>2020-07-15T08:20:46Z</time>
      </trkpt>
      <trkpt lat="38.0695520" lon="-2.8235400">
        <ele>680.4</ele>
        <time>2020-07-15T08:20:49Z</time>
      </trkpt>
      <trkpt lat="38.0694980" lon="-2.8236680">
        <ele>680.0</ele>
        <time>2020-07-15T08:20:50Z</time>
      </trkpt>
      <trkpt lat="38.0694440" lon="-2.8237920">
        <ele>679.4</ele>
        <time>2020-07-15T08:20:51Z</time>
      </trkpt>
      <trkpt lat="38.0692970" lon="-2.8241950">
        <ele>677.8</ele>
        <time>2020-07-15T08:20:54Z</time>
      </trkpt>
      <trkpt lat="38.0692100" lon="-2.8244640">
        <ele>677.0</ele>
        <time>2020-07-15T08:20:56Z</time>
      </trkpt>
      <trkpt lat="38.0691530" lon="-2.8245740">
        <ele>676.2</ele>
        <time>2020-07-15T08:20:57Z</time>
      </trkpt>
      <trkpt lat="38.0690610" lon="-2.8246870">
        <ele>675.8</ele>
        <time>2020-07-15T08:20:58Z</time>
      </trkpt>
      <trkpt lat="38.0688750" lon="-2.8248600">
        <ele>674.8</ele>
        <time>2020-07-15T08:21:00Z</time>
      </trkpt>
      <trkpt lat="38.0687880" lon="-2.8249600">
        <ele>674.4</ele>
        <time>2020-07-15T08:21:01Z</time>
      </trkpt>
      <trkpt lat="38.0687140" lon="-2.8250630">
        <ele>674.0</ele>
        <time>2020-07-15T08:21:02Z</time>
      </trkpt>
      <trkpt lat="38.0686370" lon="-2.8251760">
        <ele>673.6</ele>
        <time>2020-07-15T08:21:03Z</time>
      </trkpt>
      <trkpt lat="38.0684650" lon="-2.8253900">
        <ele>672.4</ele>
        <time>2020-07-15T08:21:05Z</time>
      </trkpt>
      <trkpt lat="38.0682830" lon="-2.8255610">
        <ele>671.2</ele>
        <time>2020-07-15T08:21:07Z</time>
      </trkpt>
      <trkpt lat="38.0680970" lon="-2.8257430">
        <ele>670.0</ele>
        <time>2020-07-15T08:21:09Z</time>
      </trkpt>
      <trkpt lat="38.0680120" lon="-2.8258490">
        <ele>669.6</ele>
        <time>2020-07-15T08:21:10Z</time>
      </trkpt>
      <trkpt lat="38.0679400" lon="-2.8259600">
        <ele>669.2</ele>
        <time>2020-07-15T08:21:11Z</time>
      </trkpt>
      <trkpt lat="38.0678800" lon="-2.8260650">
        <ele>668.8</ele>
        <time>2020-07-15T08:21:12Z</time>
      </trkpt>
      <trkpt lat="38.0677160" lon="-2.8263930">
        <ele>667.8</ele>
        <time>2020-07-15T08:21:15Z</time>
      </trkpt>
      <trkpt lat="38.0676900" lon="-2.8265080">
        <ele>667.8</ele>
        <time>2020-07-15T08:21:16Z</time>
      </trkpt>
      <trkpt lat="38.0676840" lon="-2.8267330">
        <ele>667.8</ele>
        <time>2020-07-15T08:21:18Z</time>
      </trkpt>
      <trkpt lat="38.0677090" lon="-2.8269600">
        <ele>668.0</ele>
        <time>2020-07-15T08:21:20Z</time>
      </trkpt>
      <trkpt lat="38.0677500" lon="-2.8272830">
        <ele>668.0</ele>
        <time>2020-07-15T08:21:23Z</time>
      </trkpt>
      <trkpt lat="38.0677630" lon="-2.8273910">
        <ele>667.8</ele>
        <time>2020-07-15T08:21:24Z</time>
      </trkpt>
      <trkpt lat="38.0677750" lon="-2.8275990">
        <ele>667.8</ele>
        <time>2020-07-15T08:21:26Z</time>
      </trkpt>
      <trkpt lat="38.0677490" lon="-2.8277960">
        <ele>668.0</ele>
        <time>2020-07-15T08:21:28Z</time>
      </trkpt>
      <trkpt lat="38.0676260" lon="-2.8280470">
        <ele>668.2</ele>
        <time>2020-07-15T08:21:31Z</time>
      </trkpt>
      <trkpt lat="38.0675060" lon="-2.8281330">
        <ele>668.4</ele>
        <time>2020-07-15T08:21:33Z</time>
      </trkpt>
      <trkpt lat="38.0674360" lon="-2.8281460">
        <ele>668.4</ele>
        <time>2020-07-15T08:21:34Z</time>
      </trkpt>
      <trkpt lat="38.0673050" lon="-2.8281250">
        <ele>669.0</ele>
        <time>2020-07-15T08:21:36Z</time>
      </trkpt>
      <trkpt lat="38.0672470" lon="-2.8281020">
        <ele>669.2</ele>
        <time>2020-07-15T08:21:37Z</time>
      </trkpt>
      <trkpt lat="38.0671280" lon="-2.8280390">
        <ele>669.4</ele>
        <time>2020-07-15T08:21:39Z</time>
      </trkpt>
      <trkpt lat="38.0669530" lon="-2.8279680">
        <ele>669.8</ele>
        <time>2020-07-15T08:21:42Z</time>
      </trkpt>
      <trkpt lat="38.0668880" lon="-2.8279580">
        <ele>670.0</ele>
        <time>2020-07-15T08:21:43Z</time>
      </trkpt>
      <trkpt lat="38.0667650" lon="-2.8279440">
        <ele>670.4</ele>
        <time>2020-07-15T08:21:45Z</time>
      </trkpt>
      <trkpt lat="38.0667030" lon="-2.8279410">
        <ele>670.4</ele>
        <time>2020-07-15T08:21:46Z</time>
      </trkpt>
      <trkpt lat="38.0666470" lon="-2.8279380">
        <ele>670.6</ele>
        <time>2020-07-15T08:21:47Z</time>
      </trkpt>
      <trkpt lat="38.0662810" lon="-2.8279430">
        <ele>671.0</ele>
        <time>2020-07-15T08:21:53Z</time>
      </trkpt>
      <trkpt lat="38.0662200" lon="-2.8279490">
        <ele>671.2</ele>
        <time>2020-07-15T08:21:54Z</time>
      </trkpt>
      <trkpt lat="38.0659950" lon="-2.8280190">
        <ele>671.6</ele>
        <time>2020-07-15T08:21:58Z</time>
      </trkpt>
      <trkpt lat="38.0659420" lon="-2.8280440">
        <ele>671.8</ele>
        <time>2020-07-15T08:21:59Z</time>
      </trkpt>
      <trkpt lat="38.0657960" lon="-2.8281300">
        <ele>672.0</ele>
        <time>2020-07-15T08:22:02Z</time>
      </trkpt>
      <trkpt lat="38.0655900" lon="-2.8282460">
        <ele>672.8</ele>
        <time>2020-07-15T08:22:06Z</time>
      </trkpt>
      <trkpt lat="38.0654940" lon="-2.8283080">
        <ele>672.8</ele>
        <time>2020-07-15T08:22:08Z</time>
      </trkpt>
      <trkpt lat="38.0654010" lon="-2.8283960">
        <ele>673.2</ele>
        <time>2020-07-15T08:22:10Z</time>
      </trkpt>
      <trkpt lat="38.0653620" lon="-2.8284500">
        <ele>673.2</ele>
        <time>2020-07-15T08:22:11Z</time>
      </trkpt>
      <trkpt lat="38.0652670" lon="-2.8286350">
        <ele>673.4</ele>
        <time>2020-07-15T08:22:14Z</time>
      </trkpt>
      <trkpt lat="38.0652010" lon="-2.8287610">
        <ele>673.6</ele>
        <time>2020-07-15T08:22:16Z</time>
      </trkpt>
      <trkpt lat="38.0649670" lon="-2.8291080">
        <ele>674.2</ele>
        <time>2020-07-15T08:22:22Z</time>
      </trkpt>
      <trkpt lat="38.0649200" lon="-2.8291700">
        <ele>674.2</ele>
        <time>2020-07-15T08:22:23Z</time>
      </trkpt>
      <trkpt lat="38.0648730" lon="-2.8292230">
        <ele>674.2</ele>
        <time>2020-07-15T08:22:24Z</time>
      </trkpt>
      <trkpt lat="38.0647140" lon="-2.8293410">
        <ele>674.4</ele>
        <time>2020-07-15T08:22:27Z</time>
      </trkpt>
      <trkpt lat="38.0642490" lon="-2.8296200">
        <ele>674.8</ele>
        <time>2020-07-15T08:22:35Z</time>
      </trkpt>
      <trkpt lat="38.0640170" lon="-2.8298680">
        <ele>675.2</ele>
        <time>2020-07-15T08:22:40Z</time>
      </trkpt>
      <trkpt lat="38.0639400" lon="-2.8299800">
        <ele>675.4</ele>
        <time>2020-07-15T08:22:42Z</time>
      </trkpt>
      <trkpt lat="38.0637350" lon="-2.8302460">
        <ele>675.6</ele>
        <time>2020-07-15T08:22:47Z</time>
      </trkpt>
      <trkpt lat="38.0636800" lon="-2.8302920">
        <ele>675.6</ele>
        <time>2020-07-15T08:22:48Z</time>
      </trkpt>
      <trkpt lat="38.0634050" lon="-2.8303820">
        <ele>675.2</ele>
        <time>2020-07-15T08:22:52Z</time>
      </trkpt>
      <trkpt lat="38.0631480" lon="-2.8304200">
        <ele>674.2</ele>
        <time>2020-07-15T08:22:55Z</time>
      </trkpt>
      <trkpt lat="38.0629450" lon="-2.8304630">
        <ele>674.0</ele>
        <time>2020-07-15T08:22:58Z</time>
      </trkpt>
      <trkpt lat="38.0628600" lon="-2.8304930">
        <ele>673.4</ele>
        <time>2020-07-15T08:23:00Z</time>
      </trkpt>
      <trkpt lat="38.0627750" lon="-2.8305230">
        <ele>673.0</ele>
        <time>2020-07-15T08:23:01Z</time>
      </trkpt>
      <trkpt lat="38.0624360" lon="-2.8306430">
        <ele>672.0</ele>
        <time>2020-07-15T08:23:03Z</time>
      </trkpt>
      <trkpt lat="38.0623490" lon="-2.8307050">
        <ele>671.4</ele>
        <time>2020-07-15T08:23:04Z</time>
      </trkpt>
      <trkpt lat="38.0621570" lon="-2.8308030">
        <ele>669.8</ele>
        <time>2020-07-15T08:23:06Z</time>
      </trkpt>
      <trkpt lat="38.0619660" lon="-2.8308620">
        <ele>668.6</ele>
        <time>2020-07-15T08:23:08Z</time>
      </trkpt>
      <trkpt lat="38.0618660" lon="-2.8309160">
        <ele>668.4</ele>
        <time>2020-07-15T08:23:09Z</time>
      </trkpt>
      <trkpt lat="38.0616860" lon="-2.8310490">
        <ele>667.6</ele>
        <time>2020-07-15T08:23:11Z</time>
      </trkpt>
      <trkpt lat="38.0615010" lon="-2.8311770">
        <ele>666.6</ele>
        <time>2020-07-15T08:23:13Z</time>
      </trkpt>
      <trkpt lat="38.0614020" lon="-2.8312470">
        <ele>666.0</ele>
        <time>2020-07-15T08:23:14Z</time>
      </trkpt>
      <trkpt lat="38.0612180" lon="-2.8313720">
        <ele>664.8</ele>
        <time>2020-07-15T08:23:16Z</time>
      </trkpt>
      <trkpt lat="38.0610360" lon="-2.8315030">
        <ele>663.4</ele>
        <time>2020-07-15T08:23:18Z</time>
      </trkpt>
      <trkpt lat="38.0608340" lon="-2.8316330">
        <ele>662.2</ele>
        <time>2020-07-15T08:23:20Z</time>
      </trkpt>
      <trkpt lat="38.0606230" lon="-2.8317400">
        <ele>661.0</ele>
        <time>2020-07-15T08:23:22Z</time>
      </trkpt>
      <trkpt lat="38.0604180" lon="-2.8318810">
        <ele>659.8</ele>
        <time>2020-07-15T08:23:24Z</time>
      </trkpt>
      <trkpt lat="38.0602540" lon="-2.8320970">
        <ele>658.6</ele>
        <time>2020-07-15T08:23:26Z</time>
      </trkpt>
      <trkpt lat="38.0601170" lon="-2.8323070">
        <ele>657.4</ele>
        <time>2020-07-15T08:23:28Z</time>
      </trkpt>
      <trkpt lat="38.0599040" lon="-2.8326180">
        <ele>656.6</ele>
        <time>2020-07-15T08:23:31Z</time>
      </trkpt>
      <trkpt lat="38.0598380" lon="-2.8327100">
        <ele>656.4</ele>
        <time>2020-07-15T08:23:32Z</time>
      </trkpt>
      <trkpt lat="38.0596080" lon="-2.8330680">
        <ele>656.2</ele>
        <time>2020-07-15T08:23:36Z</time>
      </trkpt>
      <trkpt lat="38.0593170" lon="-2.8335890">
        <ele>655.8</ele>
        <time>2020-07-15T08:23:42Z</time>
      </trkpt>
      <trkpt lat="38.0591740" lon="-2.8337020">
        <ele>655.8</ele>
        <time>2020-07-15T08:23:44Z</time>
      </trkpt>
      <trkpt lat="38.0590990" lon="-2.8337360">
        <ele>655.8</ele>
        <time>2020-07-15T08:23:45Z</time>
      </trkpt>
      <trkpt lat="38.0590330" lon="-2.8337770">
        <ele>655.8</ele>
        <time>2020-07-15T08:23:46Z</time>
      </trkpt>
      <trkpt lat="38.0588210" lon="-2.8338980">
        <ele>656.0</ele>
        <time>2020-07-15T08:23:49Z</time>
      </trkpt>
      <trkpt lat="38.0586930" lon="-2.8340060">
        <ele>656.2</ele>
        <time>2020-07-15T08:23:51Z</time>
      </trkpt>
      <trkpt lat="38.0585900" lon="-2.8341490">
        <ele>656.2</ele>
        <time>2020-07-15T08:23:53Z</time>
      </trkpt>
      <trkpt lat="38.0585610" lon="-2.8342470">
        <ele>656.2</ele>
        <time>2020-07-15T08:23:54Z</time>
      </trkpt>
      <trkpt lat="38.0585140" lon="-2.8344350">
        <ele>656.2</ele>
        <time>2020-07-15T08:23:56Z</time>
      </trkpt>
      <trkpt lat="38.0584780" lon="-2.8346080">
        <ele>656.2</ele>
        <time>2020-07-15T08:23:58Z</time>
      </trkpt>
      <trkpt lat="38.0584170" lon="-2.8347870">
        <ele>656.4</ele>
        <time>2020-07-15T08:24:00Z</time>
      </trkpt>
      <trkpt lat="38.0583350" lon="-2.8349370">
        <ele>656.4</ele>
        <time>2020-07-15T08:24:02Z</time>
      </trkpt>
      <trkpt lat="38.0582870" lon="-2.8349990">
        <ele>656.4</ele>
        <time>2020-07-15T08:24:03Z</time>
      </trkpt>
      <trkpt lat="38.0581120" lon="-2.8351920">
        <ele>656.4</ele>
        <time>2020-07-15T08:24:06Z</time>
      </trkpt>
      <trkpt lat="38.0579980" lon="-2.8353110">
        <ele>656.2</ele>
        <time>2020-07-15T08:24:08Z</time>
      </trkpt>
      <trkpt lat="38.0577190" lon="-2.8356110">
        <ele>656.4</ele>
        <time>2020-07-15T08:24:13Z</time>
      </trkpt>
      <trkpt lat="38.0572660" lon="-2.8361100">
        <ele>656.2</ele>
        <time>2020-07-15T08:24:21Z</time>
      </trkpt>
      <trkpt lat="38.0570420" lon="-2.8364870">
        <ele>656.4</ele>
        <time>2020-07-15T08:24:26Z</time>
      </trkpt>
      <trkpt lat="38.0567270" lon="-2.8371180">
        <ele>656.4</ele>
        <time>2020-07-15T08:24:34Z</time>
      </trkpt>
      <trkpt lat="38.0566210" lon="-2.8372560">
        <ele>656.4</ele>
        <time>2020-07-15T08:24:36Z</time>
      </trkpt>
      <trkpt lat="38.0565080" lon="-2.8373640">
        <ele>656.4</ele>
        <time>2020-07-15T08:24:38Z</time>
      </trkpt>
      <trkpt lat="38.0562880" lon="-2.8376390">
        <ele>656.2</ele>
        <time>2020-07-15T08:24:42Z</time>
      </trkpt>
      <trkpt lat="38.0562590" lon="-2.8377230">
        <ele>656.2</ele>
        <time>2020-07-15T08:24:43Z</time>
      </trkpt>
      <trkpt lat="38.0561210" lon="-2.8381350">
        <ele>656.4</ele>
        <time>2020-07-15T08:24:48Z</time>
      </trkpt>
      <trkpt lat="38.0559920" lon="-2.8385390">
        <ele>657.0</ele>
        <time>2020-07-15T08:24:53Z</time>
      </trkpt>
      <trkpt lat="38.0559490" lon="-2.8386970">
        <ele>657.4</ele>
        <time>2020-07-15T08:24:55Z</time>
      </trkpt>
      <trkpt lat="38.0559300" lon="-2.8389280">
        <ele>657.8</ele>
        <time>2020-07-15T08:24:58Z</time>
      </trkpt>
      <trkpt lat="38.0559270" lon="-2.8390900">
        <ele>658.4</ele>
        <time>2020-07-15T08:25:00Z</time>
      </trkpt>
      <trkpt lat="38.0559290" lon="-2.8392500">
        <ele>659.2</ele>
        <time>2020-07-15T08:25:02Z</time>
      </trkpt>
      <trkpt lat="38.0559300" lon="-2.8393270">
        <ele>659.4</ele>
        <time>2020-07-15T08:25:03Z</time>
      </trkpt>
      <trkpt lat="38.0559160" lon="-2.8396590">
        <ele>660.0</ele>
        <time>2020-07-15T08:25:07Z</time>
      </trkpt>
      <trkpt lat="38.0559140" lon="-2.8398360">
        <ele>660.0</ele>
        <time>2020-07-15T08:25:09Z</time>
      </trkpt>
      <trkpt lat="38.0558770" lon="-2.8403020">
        <ele>660.0</ele>
        <time>2020-07-15T08:25:14Z</time>
      </trkpt>
      <trkpt lat="38.0558460" lon="-2.8403920">
        <ele>659.8</ele>
        <time>2020-07-15T08:25:15Z</time>
      </trkpt>
      <trkpt lat="38.0557040" lon="-2.8406080">
        <ele>659.4</ele>
        <time>2020-07-15T08:25:18Z</time>
      </trkpt>
      <trkpt lat="38.0555830" lon="-2.8407400">
        <ele>659.2</ele>
        <time>2020-07-15T08:25:20Z</time>
      </trkpt>
      <trkpt lat="38.0553250" lon="-2.8409750">
        <ele>658.8</ele>
        <time>2020-07-15T08:25:24Z</time>
      </trkpt>
      <trkpt lat="38.0551230" lon="-2.8411430">
        <ele>658.4</ele>
        <time>2020-07-15T08:25:27Z</time>
      </trkpt>
      <trkpt lat="38.0549990" lon="-2.8412780">
        <ele>658.2</ele>
        <time>2020-07-15T08:25:29Z</time>
      </trkpt>
      <trkpt lat="38.0549490" lon="-2.8413600">
        <ele>658.0</ele>
        <time>2020-07-15T08:25:30Z</time>
      </trkpt>
      <trkpt lat="38.0548390" lon="-2.8415020">
        <ele>658.0</ele>
        <time>2020-07-15T08:25:32Z</time>
      </trkpt>
      <trkpt lat="38.0547870" lon="-2.8415720">
        <ele>657.8</ele>
        <time>2020-07-15T08:25:33Z</time>
      </trkpt>
      <trkpt lat="38.0546130" lon="-2.8417920">
        <ele>657.8</ele>
        <time>2020-07-15T08:25:36Z</time>
      </trkpt>
      <trkpt lat="38.0543960" lon="-2.8420790">
        <ele>657.6</ele>
        <time>2020-07-15T08:25:40Z</time>
      </trkpt>
      <trkpt lat="38.0542100" lon="-2.8423810">
        <ele>657.8</ele>
        <time>2020-07-15T08:25:44Z</time>
      </trkpt>
      <trkpt lat="38.0541140" lon="-2.8425240">
        <ele>657.8</ele>
        <time>2020-07-15T08:25:46Z</time>
      </trkpt>
      <trkpt lat="38.0540540" lon="-2.8425910">
        <ele>657.6</ele>
        <time>2020-07-15T08:25:47Z</time>
      </trkpt>
      <trkpt lat="38.0539320" lon="-2.8427010">
        <ele>657.8</ele>
        <time>2020-07-15T08:25:49Z</time>
      </trkpt>
      <trkpt lat="38.0538630" lon="-2.8427530">
        <ele>657.8</ele>
        <time>2020-07-15T08:25:50Z</time>
      </trkpt>
      <trkpt lat="38.0535660" lon="-2.8430180">
        <ele>658.0</ele>
        <time>2020-07-15T08:25:55Z</time>
      </trkpt>
      <trkpt lat="38.0530860" lon="-2.8434400">
        <ele>657.6</ele>
        <time>2020-07-15T08:26:03Z</time>
      </trkpt>
      <trkpt lat="38.0527780" lon="-2.8436410">
        <ele>658.4</ele>
        <time>2020-07-15T08:26:08Z</time>
      </trkpt>
      <trkpt lat="38.0525130" lon="-2.8438450">
        <ele>659.0</ele>
        <time>2020-07-15T08:26:13Z</time>
      </trkpt>
      <trkpt lat="38.0524650" lon="-2.8438930">
        <ele>659.0</ele>
        <time>2020-07-15T08:26:14Z</time>
      </trkpt>
      <trkpt lat="38.0522570" lon="-2.8440640">
        <ele>659.6</ele>
        <time>2020-07-15T08:26:18Z</time>
      </trkpt>
      <trkpt lat="38.0521480" lon="-2.8441460">
        <ele>659.8</ele>
        <time>2020-07-15T08:26:20Z</time>
      </trkpt>
      <trkpt lat="38.0518710" lon="-2.8443600">
        <ele>660.6</ele>
        <time>2020-07-15T08:26:25Z</time>
      </trkpt>
      <trkpt lat="38.0517600" lon="-2.8444550">
        <ele>660.8</ele>
        <time>2020-07-15T08:26:27Z</time>
      </trkpt>
      <trkpt lat="38.0514730" lon="-2.8448410">
        <ele>661.0</ele>
        <time>2020-07-15T08:26:33Z</time>
      </trkpt>
      <trkpt lat="38.0511220" lon="-2.8453420">
        <ele>660.4</ele>
        <time>2020-07-15T08:26:40Z</time>
      </trkpt>
      <trkpt lat="38.0508740" lon="-2.8456980">
        <ele>660.2</ele>
        <time>2020-07-15T08:26:45Z</time>
      </trkpt>
      <trkpt lat="38.0507270" lon="-2.8459060">
        <ele>660.2</ele>
        <time>2020-07-15T08:26:48Z</time>
      </trkpt>
      <trkpt lat="38.0505570" lon="-2.8462310">
        <ele>659.8</ele>
        <time>2020-07-15T08:26:52Z</time>
      </trkpt>
      <trkpt lat="38.0504910" lon="-2.8464010">
        <ele>659.8</ele>
        <time>2020-07-15T08:26:54Z</time>
      </trkpt>
      <trkpt lat="38.0503990" lon="-2.8466560">
        <ele>659.8</ele>
        <time>2020-07-15T08:26:57Z</time>
      </trkpt>
      <trkpt lat="38.0502640" lon="-2.8469870">
        <ele>659.8</ele>
        <time>2020-07-15T08:27:01Z</time>
      </trkpt>
      <trkpt lat="38.0501880" lon="-2.8471390">
        <ele>659.6</ele>
        <time>2020-07-15T08:27:03Z</time>
      </trkpt>
      <trkpt lat="38.0499890" lon="-2.8474970">
        <ele>659.8</ele>
        <time>2020-07-15T08:27:08Z</time>
      </trkpt>
      <trkpt lat="38.0498560" lon="-2.8477890">
        <ele>659.8</ele>
        <time>2020-07-15T08:27:12Z</time>
      </trkpt>
      <trkpt lat="38.0498400" lon="-2.8479610">
        <ele>659.8</ele>
        <time>2020-07-15T08:27:14Z</time>
      </trkpt>
      <trkpt lat="38.0498380" lon="-2.8481370">
        <ele>659.6</ele>
        <time>2020-07-15T08:27:16Z</time>
      </trkpt>
      <trkpt lat="38.0498130" lon="-2.8483150">
        <ele>659.2</ele>
        <time>2020-07-15T08:27:18Z</time>
      </trkpt>
      <trkpt lat="38.0497900" lon="-2.8484100">
        <ele>659.0</ele>
        <time>2020-07-15T08:27:19Z</time>
      </trkpt>
      <trkpt lat="38.0496960" lon="-2.8486680">
        <ele>658.8</ele>
        <time>2020-07-15T08:27:22Z</time>
      </trkpt>
      <trkpt lat="38.0496330" lon="-2.8488520">
        <ele>658.6</ele>
        <time>2020-07-15T08:27:24Z</time>
      </trkpt>
      <trkpt lat="38.0496090" lon="-2.8489450">
        <ele>658.6</ele>
        <time>2020-07-15T08:27:25Z</time>
      </trkpt>
      <trkpt lat="38.0495820" lon="-2.8491360">
        <ele>658.4</ele>
        <time>2020-07-15T08:27:27Z</time>
      </trkpt>
      <trkpt lat="38.0495480" lon="-2.8493160">
        <ele>658.4</ele>
        <time>2020-07-15T08:27:29Z</time>
      </trkpt>
      <trkpt lat="38.0495160" lon="-2.8494040">
        <ele>658.2</ele>
        <time>2020-07-15T08:27:30Z</time>
      </trkpt>
      <trkpt lat="38.0494260" lon="-2.8495500">
        <ele>658.2</ele>
        <time>2020-07-15T08:27:32Z</time>
      </trkpt>
      <trkpt lat="38.0493350" lon="-2.8496710">
        <ele>658.0</ele>
        <time>2020-07-15T08:27:34Z</time>
      </trkpt>
      <trkpt lat="38.0492020" lon="-2.8498440">
        <ele>658.2</ele>
        <time>2020-07-15T08:27:37Z</time>
      </trkpt>
      <trkpt lat="38.0490340" lon="-2.8501320">
        <ele>658.8</ele>
        <time>2020-07-15T08:27:42Z</time>
      </trkpt>
      <trkpt lat="38.0490020" lon="-2.8501850">
        <ele>659.0</ele>
        <time>2020-07-15T08:27:43Z</time>
      </trkpt>
      <trkpt lat="38.0489310" lon="-2.8502960">
        <ele>659.2</ele>
        <time>2020-07-15T08:27:45Z</time>
      </trkpt>
      <trkpt lat="38.0489040" lon="-2.8503520">
        <ele>659.2</ele>
        <time>2020-07-15T08:27:46Z</time>
      </trkpt>
      <trkpt lat="38.0487870" lon="-2.8505330">
        <ele>659.6</ele>
        <time>2020-07-15T08:27:49Z</time>
      </trkpt>
      <trkpt lat="38.0486930" lon="-2.8507450">
        <ele>659.8</ele>
        <time>2020-07-15T08:27:52Z</time>
      </trkpt>
      <trkpt lat="38.0485950" lon="-2.8509860">
        <ele>659.8</ele>
        <time>2020-07-15T08:27:55Z</time>
      </trkpt>
      <trkpt lat="38.0485220" lon="-2.8512280">
        <ele>659.8</ele>
        <time>2020-07-15T08:27:58Z</time>
      </trkpt>
      <trkpt lat="38.0484410" lon="-2.8514900">
        <ele>659.6</ele>
        <time>2020-07-15T08:28:01Z</time>
      </trkpt>
      <trkpt lat="38.0484040" lon="-2.8515710">
        <ele>659.6</ele>
        <time>2020-07-15T08:28:02Z</time>
      </trkpt>
      <trkpt lat="38.0482250" lon="-2.8518610">
        <ele>659.8</ele>
        <time>2020-07-15T08:28:06Z</time>
      </trkpt>
      <trkpt lat="38.0479160" lon="-2.8522600">
        <ele>659.6</ele>
        <time>2020-07-15T08:28:12Z</time>
      </trkpt>
      <trkpt lat="38.0475920" lon="-2.8527640">
        <ele>659.4</ele>
        <time>2020-07-15T08:28:19Z</time>
      </trkpt>
      <trkpt lat="38.0471950" lon="-2.8531790">
        <ele>659.4</ele>
        <time>2020-07-15T08:28:26Z</time>
      </trkpt>
      <trkpt lat="38.0468510" lon="-2.8535440">
        <ele>659.4</ele>
        <time>2020-07-15T08:28:32Z</time>
      </trkpt>
      <trkpt lat="38.0467200" lon="-2.8536340">
        <ele>659.4</ele>
        <time>2020-07-15T08:28:34Z</time>
      </trkpt>
      <trkpt lat="38.0465680" lon="-2.8536990">
        <ele>659.2</ele>
        <time>2020-07-15T08:28:36Z</time>
      </trkpt>
      <trkpt lat="38.0460770" lon="-2.8539770">
        <ele>659.2</ele>
        <time>2020-07-15T08:28:43Z</time>
      </trkpt>
      <trkpt lat="38.0455640" lon="-2.8543950">
        <ele>659.2</ele>
        <time>2020-07-15T08:28:51Z</time>
      </trkpt>
      <trkpt lat="38.0454440" lon="-2.8545000">
        <ele>659.2</ele>
        <time>2020-07-15T08:28:53Z</time>
      </trkpt>
      <trkpt lat="38.0452640" lon="-2.8546600">
        <ele>659.2</ele>
        <time>2020-07-15T08:28:56Z</time>
      </trkpt>
      <trkpt lat="38.0449920" lon="-2.8549740">
        <ele>659.4</ele>
        <time>2020-07-15T08:29:01Z</time>
      </trkpt>
      <trkpt lat="38.0446870" lon="-2.8553710">
        <ele>659.2</ele>
        <time>2020-07-15T08:29:07Z</time>
      </trkpt>
      <trkpt lat="38.0443270" lon="-2.8558100">
        <ele>659.2</ele>
        <time>2020-07-15T08:29:14Z</time>
      </trkpt>
      <trkpt lat="38.0442900" lon="-2.8558910">
        <ele>659.2</ele>
        <time>2020-07-15T08:29:15Z</time>
      </trkpt>
      <trkpt lat="38.0441950" lon="-2.8561340">
        <ele>659.0</ele>
        <time>2020-07-15T08:29:18Z</time>
      </trkpt>
      <trkpt lat="38.0440000" lon="-2.8565250">
        <ele>658.6</ele>
        <time>2020-07-15T08:29:23Z</time>
      </trkpt>
      <trkpt lat="38.0439610" lon="-2.8566050">
        <ele>658.8</ele>
        <time>2020-07-15T08:29:24Z</time>
      </trkpt>
      <trkpt lat="38.0438400" lon="-2.8569240">
        <ele>658.8</ele>
        <time>2020-07-15T08:29:28Z</time>
      </trkpt>
      <trkpt lat="38.0438250" lon="-2.8570130">
        <ele>658.8</ele>
        <time>2020-07-15T08:29:29Z</time>
      </trkpt>
      <trkpt lat="38.0437620" lon="-2.8574390">
        <ele>658.8</ele>
        <time>2020-07-15T08:29:34Z</time>
      </trkpt>
      <trkpt lat="38.0437350" lon="-2.8575280">
        <ele>658.6</ele>
        <time>2020-07-15T08:29:35Z</time>
      </trkpt>
      <trkpt lat="38.0437000" lon="-2.8576060">
        <ele>658.8</ele>
        <time>2020-07-15T08:29:36Z</time>
      </trkpt>
      <trkpt lat="38.0435930" lon="-2.8578150">
        <ele>659.0</ele>
        <time>2020-07-15T08:29:39Z</time>
      </trkpt>
      <trkpt lat="38.0433900" lon="-2.8582220">
        <ele>658.4</ele>
        <time>2020-07-15T08:29:44Z</time>
      </trkpt>
      <trkpt lat="38.0433480" lon="-2.8583960">
        <ele>658.4</ele>
        <time>2020-07-15T08:29:46Z</time>
      </trkpt>
      <trkpt lat="38.0432470" lon="-2.8589260">
        <ele>658.4</ele>
        <time>2020-07-15T08:29:52Z</time>
      </trkpt>
      <trkpt lat="38.0431040" lon="-2.8593400">
        <ele>658.6</ele>
        <time>2020-07-15T08:29:57Z</time>
      </trkpt>
      <trkpt lat="38.0430520" lon="-2.8593930">
        <ele>658.6</ele>
        <time>2020-07-15T08:29:58Z</time>
      </trkpt>
      <trkpt lat="38.0428500" lon="-2.8594860">
        <ele>658.8</ele>
        <time>2020-07-15T08:30:01Z</time>
      </trkpt>
      <trkpt lat="38.0427260" lon="-2.8594870">
        <ele>659.0</ele>
        <time>2020-07-15T08:30:03Z</time>
      </trkpt>
      <trkpt lat="38.0425930" lon="-2.8594800">
        <ele>659.2</ele>
        <time>2020-07-15T08:30:05Z</time>
      </trkpt>
      <trkpt lat="38.0424240" lon="-2.8594960">
        <ele>660.0</ele>
        <time>2020-07-15T08:30:08Z</time>
      </trkpt>
      <trkpt lat="38.0423690" lon="-2.8595170">
        <ele>660.2</ele>
        <time>2020-07-15T08:30:09Z</time>
      </trkpt>
      <trkpt lat="38.0423210" lon="-2.8595450">
        <ele>660.6</ele>
        <time>2020-07-15T08:30:10Z</time>
      </trkpt>
      <trkpt lat="38.0422650" lon="-2.8595780">
        <ele>661.0</ele>
        <time>2020-07-15T08:30:11Z</time>
      </trkpt>
      <trkpt lat="38.0421900" lon="-2.8596490">
        <ele>661.8</ele>
        <time>2020-07-15T08:30:13Z</time>
      </trkpt>
      <trkpt lat="38.0421480" lon="-2.8596870">
        <ele>662.2</ele>
        <time>2020-07-15T08:30:14Z</time>
      </trkpt>
      <trkpt lat="38.0421110" lon="-2.8597250">
        <ele>662.4</ele>
        <time>2020-07-15T08:30:15Z</time>
      </trkpt>
      <trkpt lat="38.0419530" lon="-2.8598670">
        <ele>663.2</ele>
        <time>2020-07-15T08:30:19Z</time>
      </trkpt>
      <trkpt lat="38.0418850" lon="-2.8599380">
        <ele>663.8</ele>
        <time>2020-07-15T08:30:21Z</time>
      </trkpt>
      <trkpt lat="38.0418120" lon="-2.8600010">
        <ele>664.2</ele>
        <time>2020-07-15T08:30:23Z</time>
      </trkpt>
      <trkpt lat="38.0416430" lon="-2.8601700">
        <ele>665.4</ele>
        <time>2020-07-15T08:30:28Z</time>
      </trkpt>
      <trkpt lat="38.0415800" lon="-2.8602540">
        <ele>665.8</ele>
        <time>2020-07-15T08:30:30Z</time>
      </trkpt>
      <trkpt lat="38.0415560" lon="-2.8602960">
        <ele>666.0</ele>
        <time>2020-07-15T08:30:31Z</time>
      </trkpt>
      <trkpt lat="38.0415140" lon="-2.8603770">
        <ele>666.6</ele>
        <time>2020-07-15T08:30:33Z</time>
      </trkpt>
      <trkpt lat="38.0414230" lon="-2.8605600">
        <ele>667.6</ele>
        <time>2020-07-15T08:30:37Z</time>
      </trkpt>
      <trkpt lat="38.0413990" lon="-2.8606000">
        <ele>667.8</ele>
        <time>2020-07-15T08:30:38Z</time>
      </trkpt>
      <trkpt lat="38.0413060" lon="-2.8607120">
        <ele>668.4</ele>
        <time>2020-07-15T08:30:41Z</time>
      </trkpt>
      <trkpt lat="38.0412710" lon="-2.8607390">
        <ele>668.8</ele>
        <time>2020-07-15T08:30:42Z</time>
      </trkpt>
      <trkpt lat="38.0412040" lon="-2.8607830">
        <ele>669.2</ele>
        <time>2020-07-15T08:30:44Z</time>
      </trkpt>
      <trkpt lat="38.0411610" lon="-2.8607970">
        <ele>669.6</ele>
        <time>2020-07-15T08:30:45Z</time>
      </trkpt>
      <trkpt lat="38.0411200" lon="-2.8608170">
        <ele>669.8</ele>
        <time>2020-07-15T08:30:46Z</time>
      </trkpt>
      <trkpt lat="38.0410420" lon="-2.8608610">
        <ele>670.4</ele>
        <time>2020-07-15T08:30:48Z</time>
      </trkpt>
      <trkpt lat="38.0409240" lon="-2.8609360">
        <ele>671.0</ele>
        <time>2020-07-15T08:30:51Z</time>
      </trkpt>
      <trkpt lat="38.0408600" lon="-2.8610030">
        <ele>671.2</ele>
        <time>2020-07-15T08:30:53Z</time>
      </trkpt>
      <trkpt lat="38.0408310" lon="-2.8610470">
        <ele>671.4</ele>
        <time>2020-07-15T08:30:54Z</time>
      </trkpt>
      <trkpt lat="38.0407570" lon="-2.8611820">
        <ele>672.2</ele>
        <time>2020-07-15T08:30:57Z</time>
      </trkpt>
      <trkpt lat="38.0407020" lon="-2.8612700">
        <ele>672.6</ele>
        <time>2020-07-15T08:30:59Z</time>
      </trkpt>
      <trkpt lat="38.0406470" lon="-2.8613530">
        <ele>673.0</ele>
        <time>2020-07-15T08:31:01Z</time>
      </trkpt>
      <trkpt lat="38.0406230" lon="-2.8613990">
        <ele>673.4</ele>
        <time>2020-07-15T08:31:02Z</time>
      </trkpt>
      <trkpt lat="38.0405600" lon="-2.8614780">
        <ele>673.8</ele>
        <time>2020-07-15T08:31:04Z</time>
      </trkpt>
      <trkpt lat="38.0404960" lon="-2.8615510">
        <ele>674.4</ele>
        <time>2020-07-15T08:31:06Z</time>
      </trkpt>
      <trkpt lat="38.0404620" lon="-2.8615940">
        <ele>674.6</ele>
        <time>2020-07-15T08:31:07Z</time>
      </trkpt>
      <trkpt lat="38.0404270" lon="-2.8616230">
        <ele>674.8</ele>
        <time>2020-07-15T08:31:08Z</time>
      </trkpt>
      <trkpt lat="38.0402830" lon="-2.8617490">
        <ele>675.6</ele>
        <time>2020-07-15T08:31:12Z</time>
      </trkpt>
      <trkpt lat="38.0401730" lon="-2.8618340">
        <ele>676.0</ele>
        <time>2020-07-15T08:31:15Z</time>
      </trkpt>
      <trkpt lat="38.0400930" lon="-2.8618800">
        <ele>676.4</ele>
        <time>2020-07-15T08:31:17Z</time>
      </trkpt>
      <trkpt lat="38.0400480" lon="-2.8618960">
        <ele>676.6</ele>
        <time>2020-07-15T08:31:18Z</time>
      </trkpt>
      <trkpt lat="38.0398680" lon="-2.8619610">
        <ele>677.4</ele>
        <time>2020-07-15T08:31:22Z</time>
      </trkpt>
      <trkpt lat="38.0398190" lon="-2.8619780">
        <ele>677.6</ele>
        <time>2020-07-15T08:31:23Z</time>
      </trkpt>
      <trkpt lat="38.0396010" lon="-2.8620690">
        <ele>678.2</ele>
        <time>2020-07-15T08:31:28Z</time>
      </trkpt>
      <trkpt lat="38.0395100" lon="-2.8621280">
        <ele>678.6</ele>
        <time>2020-07-15T08:31:30Z</time>
      </trkpt>
      <trkpt lat="38.0394650" lon="-2.8621620">
        <ele>678.6</ele>
        <time>2020-07-15T08:31:31Z</time>
      </trkpt>
      <trkpt lat="38.0393790" lon="-2.8622160">
        <ele>678.8</ele>
        <time>2020-07-15T08:31:33Z</time>
      </trkpt>
      <trkpt lat="38.0390690" lon="-2.8624590">
        <ele>679.4</ele>
        <time>2020-07-15T08:31:40Z</time>
      </trkpt>
      <trkpt lat="38.0390240" lon="-2.8625010">
        <ele>679.8</ele>
        <time>2020-07-15T08:31:41Z</time>
      </trkpt>
      <trkpt lat="38.0388110" lon="-2.8627250">
        <ele>680.2</ele>
        <time>2020-07-15T08:31:46Z</time>
      </trkpt>
      <trkpt lat="38.0385840" lon="-2.8629490">
        <ele>680.8</ele>
        <time>2020-07-15T08:31:51Z</time>
      </trkpt>
      <trkpt lat="38.0385000" lon="-2.8630320">
        <ele>681.0</ele>
        <time>2020-07-15T08:31:53Z</time>
      </trkpt>
      <trkpt lat="38.0384470" lon="-2.8630690">
        <ele>681.2</ele>
        <time>2020-07-15T08:31:54Z</time>
      </trkpt>
      <trkpt lat="38.0382570" lon="-2.8632100">
        <ele>681.8</ele>
        <time>2020-07-15T08:31:58Z</time>
      </trkpt>
      <trkpt lat="38.0381570" lon="-2.8633000">
        <ele>682.0</ele>
        <time>2020-07-15T08:32:00Z</time>
      </trkpt>
      <trkpt lat="38.0380590" lon="-2.8633720">
        <ele>682.2</ele>
        <time>2020-07-15T08:32:02Z</time>
      </trkpt>
      <trkpt lat="38.0380080" lon="-2.8634100">
        <ele>682.4</ele>
        <time>2020-07-15T08:32:03Z</time>
      </trkpt>
      <trkpt lat="38.0378660" lon="-2.8635590">
        <ele>682.6</ele>
        <time>2020-07-15T08:32:06Z</time>
      </trkpt>
      <trkpt lat="38.0377900" lon="-2.8636700">
        <ele>682.8</ele>
        <time>2020-07-15T08:32:08Z</time>
      </trkpt>
      <trkpt lat="38.0377180" lon="-2.8637900">
        <ele>683.0</ele>
        <time>2020-07-15T08:32:10Z</time>
      </trkpt>
      <trkpt lat="38.0376890" lon="-2.8638540">
        <ele>683.2</ele>
        <time>2020-07-15T08:32:11Z</time>
      </trkpt>
      <trkpt lat="38.0375850" lon="-2.8640370">
        <ele>683.8</ele>
        <time>2020-07-15T08:32:14Z</time>
      </trkpt>
      <trkpt lat="38.0375200" lon="-2.8641460">
        <ele>684.0</ele>
        <time>2020-07-15T08:32:16Z</time>
      </trkpt>
      <trkpt lat="38.0373930" lon="-2.8643730">
        <ele>684.6</ele>
        <time>2020-07-15T08:32:20Z</time>
      </trkpt>
      <trkpt lat="38.0373130" lon="-2.8645510">
        <ele>685.2</ele>
        <time>2020-07-15T08:32:23Z</time>
      </trkpt>
      <trkpt lat="38.0372460" lon="-2.8646720">
        <ele>685.8</ele>
        <time>2020-07-15T08:32:25Z</time>
      </trkpt>
      <trkpt lat="38.0371780" lon="-2.8647880">
        <ele>686.0</ele>
        <time>2020-07-15T08:32:27Z</time>
      </trkpt>
      <trkpt lat="38.0371070" lon="-2.8648970">
        <ele>686.4</ele>
        <time>2020-07-15T08:32:29Z</time>
      </trkpt>
      <trkpt lat="38.0370160" lon="-2.8649970">
        <ele>686.8</ele>
        <time>2020-07-15T08:32:31Z</time>
      </trkpt>
      <trkpt lat="38.0369250" lon="-2.8650880">
        <ele>687.0</ele>
        <time>2020-07-15T08:32:33Z</time>
      </trkpt>
      <trkpt lat="38.0366280" lon="-2.8653790">
        <ele>687.0</ele>
        <time>2020-07-15T08:32:39Z</time>
      </trkpt>
      <trkpt lat="38.0363680" lon="-2.8656180">
        <ele>687.0</ele>
        <time>2020-07-15T08:32:44Z</time>
      </trkpt>
      <trkpt lat="38.0363130" lon="-2.8656650">
        <ele>687.0</ele>
        <time>2020-07-15T08:32:45Z</time>
      </trkpt>
      <trkpt lat="38.0361550" lon="-2.8657890">
        <ele>686.8</ele>
        <time>2020-07-15T08:32:48Z</time>
      </trkpt>
      <trkpt lat="38.0360400" lon="-2.8658600">
        <ele>686.6</ele>
        <time>2020-07-15T08:32:50Z</time>
      </trkpt>
      <trkpt lat="38.0359330" lon="-2.8658990">
        <ele>686.6</ele>
        <time>2020-07-15T08:32:52Z</time>
      </trkpt>
      <trkpt lat="38.0358530" lon="-2.8659150">
        <ele>686.6</ele>
        <time>2020-07-15T08:32:54Z</time>
      </trkpt>
      <trkpt lat="38.0357960" lon="-2.8659190">
        <ele>686.4</ele>
        <time>2020-07-15T08:32:56Z</time>
      </trkpt>
      <trkpt lat="38.0357870" lon="-2.8659030">
        <ele>686.4</ele>
        <time>2020-07-15T08:32:57Z</time>
      </trkpt>
      <trkpt lat="38.0357760" lon="-2.8658970">
        <ele>686.2</ele>
        <time>2020-07-15T08:32:59Z</time>
      </trkpt>
      <trkpt lat="38.0357720" lon="-2.8658930">
        <ele>685.8</ele>
        <time>2020-07-15T08:33:02Z</time>
      </trkpt>
      <trkpt lat="38.0356750" lon="-2.8658500">
        <ele>685.2</ele>
        <time>2020-07-15T08:51:23Z</time>
      </trkpt>
      <trkpt lat="38.0356570" lon="-2.8658440">
        <ele>685.2</ele>
        <time>2020-07-15T08:51:24Z</time>
      </trkpt>
      <trkpt lat="38.0355760" lon="-2.8658010">
        <ele>685.0</ele>
        <time>2020-07-15T08:51:27Z</time>
      </trkpt>
      <trkpt lat="38.0355320" lon="-2.8658050">
        <ele>684.8</ele>
        <time>2020-07-15T08:51:28Z</time>
      </trkpt>
      <trkpt lat="38.0352900" lon="-2.8657850">
        <ele>684.4</ele>
        <time>2020-07-15T08:51:32Z</time>
      </trkpt>
      <trkpt lat="38.0350840" lon="-2.8657880">
        <ele>684.0</ele>
        <time>2020-07-15T08:51:35Z</time>
      </trkpt>
      <trkpt lat="38.0348710" lon="-2.8657940">
        <ele>683.2</ele>
        <time>2020-07-15T08:51:38Z</time>
      </trkpt>
      <trkpt lat="38.0347790" lon="-2.8657940">
        <ele>682.6</ele>
        <time>2020-07-15T08:51:39Z</time>
      </trkpt>
      <trkpt lat="38.0344450" lon="-2.8658040">
        <ele>681.2</ele>
        <time>2020-07-15T08:51:43Z</time>
      </trkpt>
      <trkpt lat="38.0342600" lon="-2.8658350">
        <ele>680.4</ele>
        <time>2020-07-15T08:51:45Z</time>
      </trkpt>
      <trkpt lat="38.0341740" lon="-2.8658530">
        <ele>680.0</ele>
        <time>2020-07-15T08:51:46Z</time>
      </trkpt>
      <trkpt lat="38.0340010" lon="-2.8658910">
        <ele>679.0</ele>
        <time>2020-07-15T08:51:48Z</time>
      </trkpt>
      <trkpt lat="38.0337040" lon="-2.8659440">
        <ele>677.6</ele>
        <time>2020-07-15T08:51:51Z</time>
      </trkpt>
      <trkpt lat="38.0335920" lon="-2.8659480">
        <ele>677.2</ele>
        <time>2020-07-15T08:51:52Z</time>
      </trkpt>
      <trkpt lat="38.0335030" lon="-2.8659370">
        <ele>676.8</ele>
        <time>2020-07-15T08:51:53Z</time>
      </trkpt>
      <trkpt lat="38.0333860" lon="-2.8659120">
        <ele>676.4</ele>
        <time>2020-07-15T08:51:54Z</time>
      </trkpt>
      <trkpt lat="38.0331860" lon="-2.8658600">
        <ele>675.2</ele>
        <time>2020-07-15T08:51:56Z</time>
      </trkpt>
      <trkpt lat="38.0329870" lon="-2.8658170">
        <ele>674.0</ele>
        <time>2020-07-15T08:51:58Z</time>
      </trkpt>
      <trkpt lat="38.0327800" lon="-2.8657700">
        <ele>673.0</ele>
        <time>2020-07-15T08:52:00Z</time>
      </trkpt>
      <trkpt lat="38.0324780" lon="-2.8657050">
        <ele>671.8</ele>
        <time>2020-07-15T08:52:03Z</time>
      </trkpt>
      <trkpt lat="38.0322930" lon="-2.8656750">
        <ele>671.4</ele>
        <time>2020-07-15T08:52:05Z</time>
      </trkpt>
      <trkpt lat="38.0320560" lon="-2.8656640">
        <ele>670.8</ele>
        <time>2020-07-15T08:52:07Z</time>
      </trkpt>
      <trkpt lat="38.0318480" lon="-2.8657050">
        <ele>669.8</ele>
        <time>2020-07-15T08:52:09Z</time>
      </trkpt>
      <trkpt lat="38.0317430" lon="-2.8657220">
        <ele>669.2</ele>
        <time>2020-07-15T08:52:10Z</time>
      </trkpt>
      <trkpt lat="38.0314300" lon="-2.8657200">
        <ele>667.6</ele>
        <time>2020-07-15T08:52:13Z</time>
      </trkpt>
      <trkpt lat="38.0313160" lon="-2.8657180">
        <ele>667.2</ele>
        <time>2020-07-15T08:52:14Z</time>
      </trkpt>
      <trkpt lat="38.0312060" lon="-2.8657340">
        <ele>666.6</ele>
        <time>2020-07-15T08:52:15Z</time>
      </trkpt>
      <trkpt lat="38.0309980" lon="-2.8657770">
        <ele>665.6</ele>
        <time>2020-07-15T08:52:17Z</time>
      </trkpt>
      <trkpt lat="38.0308950" lon="-2.8657900">
        <ele>665.2</ele>
        <time>2020-07-15T08:52:18Z</time>
      </trkpt>
      <trkpt lat="38.0307780" lon="-2.8657840">
        <ele>664.6</ele>
        <time>2020-07-15T08:52:19Z</time>
      </trkpt>
      <trkpt lat="38.0305750" lon="-2.8657400">
        <ele>664.0</ele>
        <time>2020-07-15T08:52:21Z</time>
      </trkpt>
      <trkpt lat="38.0304010" lon="-2.8656990">
        <ele>663.4</ele>
        <time>2020-07-15T08:52:23Z</time>
      </trkpt>
      <trkpt lat="38.0302140" lon="-2.8656540">
        <ele>663.2</ele>
        <time>2020-07-15T08:52:25Z</time>
      </trkpt>
      <trkpt lat="38.0301290" lon="-2.8656400">
        <ele>663.2</ele>
        <time>2020-07-15T08:52:26Z</time>
      </trkpt>
      <trkpt lat="38.0298780" lon="-2.8656310">
        <ele>663.6</ele>
        <time>2020-07-15T08:52:29Z</time>
      </trkpt>
      <trkpt lat="38.0297000" lon="-2.8656980">
        <ele>663.6</ele>
        <time>2020-07-15T08:52:31Z</time>
      </trkpt>
      <trkpt lat="38.0294740" lon="-2.8658840">
        <ele>663.2</ele>
        <time>2020-07-15T08:52:34Z</time>
      </trkpt>
      <trkpt lat="38.0294000" lon="-2.8659470">
        <ele>663.0</ele>
        <time>2020-07-15T08:52:35Z</time>
      </trkpt>
      <trkpt lat="38.0292290" lon="-2.8660550">
        <ele>662.6</ele>
        <time>2020-07-15T08:52:37Z</time>
      </trkpt>
      <trkpt lat="38.0291490" lon="-2.8660780">
        <ele>662.2</ele>
        <time>2020-07-15T08:52:38Z</time>
      </trkpt>
      <trkpt lat="38.0290520" lon="-2.8660780">
        <ele>662.0</ele>
        <time>2020-07-15T08:52:39Z</time>
      </trkpt>
      <trkpt lat="38.0287900" lon="-2.8660120">
        <ele>661.0</ele>
        <time>2020-07-15T08:52:42Z</time>
      </trkpt>
      <trkpt lat="38.0284640" lon="-2.8659430">
        <ele>659.6</ele>
        <time>2020-07-15T08:52:46Z</time>
      </trkpt>
      <trkpt lat="38.0283180" lon="-2.8659100">
        <ele>659.6</ele>
        <time>2020-07-15T08:52:48Z</time>
      </trkpt>
      <trkpt lat="38.0280180" lon="-2.8658440">
        <ele>659.4</ele>
        <time>2020-07-15T08:52:52Z</time>
      </trkpt>
      <trkpt lat="38.0278750" lon="-2.8658070">
        <ele>659.6</ele>
        <time>2020-07-15T08:52:54Z</time>
      </trkpt>
      <trkpt lat="38.0276660" lon="-2.8657610">
        <ele>660.0</ele>
        <time>2020-07-15T08:52:57Z</time>
      </trkpt>
      <trkpt lat="38.0270690" lon="-2.8656230">
        <ele>660.4</ele>
        <time>2020-07-15T08:53:06Z</time>
      </trkpt>
      <trkpt lat="38.0268800" lon="-2.8655780">
        <ele>660.4</ele>
        <time>2020-07-15T08:53:09Z</time>
      </trkpt>
      <trkpt lat="38.0266290" lon="-2.8655480">
        <ele>660.8</ele>
        <time>2020-07-15T08:53:13Z</time>
      </trkpt>
      <trkpt lat="38.0265620" lon="-2.8655580">
        <ele>660.8</ele>
        <time>2020-07-15T08:53:14Z</time>
      </trkpt>
      <trkpt lat="38.0263970" lon="-2.8656680">
        <ele>660.8</ele>
        <time>2020-07-15T08:53:17Z</time>
      </trkpt>
      <trkpt lat="38.0262600" lon="-2.8658380">
        <ele>661.0</ele>
        <time>2020-07-15T08:53:20Z</time>
      </trkpt>
      <trkpt lat="38.0261750" lon="-2.8659410">
        <ele>661.4</ele>
        <time>2020-07-15T08:53:22Z</time>
      </trkpt>
      <trkpt lat="38.0260880" lon="-2.8660480">
        <ele>662.0</ele>
        <time>2020-07-15T08:53:24Z</time>
      </trkpt>
      <trkpt lat="38.0259350" lon="-2.8662370">
        <ele>662.6</ele>
        <time>2020-07-15T08:53:28Z</time>
      </trkpt>
      <trkpt lat="38.0258950" lon="-2.8662870">
        <ele>662.6</ele>
        <time>2020-07-15T08:53:29Z</time>
      </trkpt>
      <trkpt lat="38.0257840" lon="-2.8664340">
        <ele>663.0</ele>
        <time>2020-07-15T08:53:32Z</time>
      </trkpt>
      <trkpt lat="38.0256050" lon="-2.8667380">
        <ele>663.8</ele>
        <time>2020-07-15T08:53:38Z</time>
      </trkpt>
      <trkpt lat="38.0255780" lon="-2.8667930">
        <ele>664.0</ele>
        <time>2020-07-15T08:53:39Z</time>
      </trkpt>
      <trkpt lat="38.0253890" lon="-2.8671580">
        <ele>665.2</ele>
        <time>2020-07-15T08:53:46Z</time>
      </trkpt>
      <trkpt lat="38.0253630" lon="-2.8672150">
        <ele>665.2</ele>
        <time>2020-07-15T08:53:47Z</time>
      </trkpt>
      <trkpt lat="38.0251640" lon="-2.8676970">
        <ele>665.8</ele>
        <time>2020-07-15T08:53:55Z</time>
      </trkpt>
      <trkpt lat="38.0250670" lon="-2.8679360">
        <ele>666.2</ele>
        <time>2020-07-15T08:53:59Z</time>
      </trkpt>
      <trkpt lat="38.0249860" lon="-2.8681950">
        <ele>666.2</ele>
        <time>2020-07-15T08:54:03Z</time>
      </trkpt>
      <trkpt lat="38.0248380" lon="-2.8687290">
        <ele>666.4</ele>
        <time>2020-07-15T08:54:11Z</time>
      </trkpt>
      <trkpt lat="38.0247900" lon="-2.8688560">
        <ele>666.4</ele>
        <time>2020-07-15T08:54:13Z</time>
      </trkpt>
      <trkpt lat="38.0247200" lon="-2.8690620">
        <ele>666.4</ele>
        <time>2020-07-15T08:54:16Z</time>
      </trkpt>
      <trkpt lat="38.0246920" lon="-2.8691180">
        <ele>666.6</ele>
        <time>2020-07-15T08:54:17Z</time>
      </trkpt>
      <trkpt lat="38.0245730" lon="-2.8693860">
        <ele>666.6</ele>
        <time>2020-07-15T08:54:21Z</time>
      </trkpt>
      <trkpt lat="38.0243320" lon="-2.8698010">
        <ele>667.0</ele>
        <time>2020-07-15T08:54:28Z</time>
      </trkpt>
      <trkpt lat="38.0241070" lon="-2.8700550">
        <ele>667.0</ele>
        <time>2020-07-15T08:54:33Z</time>
      </trkpt>
      <trkpt lat="38.0240050" lon="-2.8701520">
        <ele>667.0</ele>
        <time>2020-07-15T08:54:35Z</time>
      </trkpt>
      <trkpt lat="38.0237170" lon="-2.8704510">
        <ele>667.2</ele>
        <time>2020-07-15T08:54:41Z</time>
      </trkpt>
      <trkpt lat="38.0236580" lon="-2.8704840">
        <ele>667.2</ele>
        <time>2020-07-15T08:54:42Z</time>
      </trkpt>
      <trkpt lat="38.0234910" lon="-2.8705620">
        <ele>667.4</ele>
        <time>2020-07-15T08:54:45Z</time>
      </trkpt>
      <trkpt lat="38.0233720" lon="-2.8705890">
        <ele>667.4</ele>
        <time>2020-07-15T08:54:47Z</time>
      </trkpt>
      <trkpt lat="38.0230140" lon="-2.8706710">
        <ele>667.4</ele>
        <time>2020-07-15T08:54:53Z</time>
      </trkpt>
      <trkpt lat="38.0226700" lon="-2.8707690">
        <ele>667.4</ele>
        <time>2020-07-15T08:54:59Z</time>
      </trkpt>
      <trkpt lat="38.0223540" lon="-2.8708650">
        <ele>667.6</ele>
        <time>2020-07-15T08:55:04Z</time>
      </trkpt>
      <trkpt lat="38.0221040" lon="-2.8709160">
        <ele>668.0</ele>
        <time>2020-07-15T08:55:08Z</time>
      </trkpt>
      <trkpt lat="38.0219680" lon="-2.8709070">
        <ele>668.0</ele>
        <time>2020-07-15T08:55:10Z</time>
      </trkpt>
      <trkpt lat="38.0217140" lon="-2.8708770">
        <ele>667.8</ele>
        <time>2020-07-15T08:55:14Z</time>
      </trkpt>
      <trkpt lat="38.0216540" lon="-2.8708600">
        <ele>667.6</ele>
        <time>2020-07-15T08:55:15Z</time>
      </trkpt>
      <trkpt lat="38.0212400" lon="-2.8708060">
        <ele>668.2</ele>
        <time>2020-07-15T08:55:22Z</time>
      </trkpt>
      <trkpt lat="38.0211400" lon="-2.8707920">
        <ele>668.2</ele>
        <time>2020-07-15T08:55:24Z</time>
      </trkpt>
      <trkpt lat="38.0210880" lon="-2.8707960">
        <ele>668.4</ele>
        <time>2020-07-15T08:55:25Z</time>
      </trkpt>
      <trkpt lat="38.0209900" lon="-2.8708260">
        <ele>668.6</ele>
        <time>2020-07-15T08:55:27Z</time>
      </trkpt>
      <trkpt lat="38.0208550" lon="-2.8708640">
        <ele>669.4</ele>
        <time>2020-07-15T08:55:30Z</time>
      </trkpt>
      <trkpt lat="38.0207330" lon="-2.8709310">
        <ele>670.0</ele>
        <time>2020-07-15T08:55:33Z</time>
      </trkpt>
      <trkpt lat="38.0206510" lon="-2.8709860">
        <ele>670.4</ele>
        <time>2020-07-15T08:55:35Z</time>
      </trkpt>
      <trkpt lat="38.0205450" lon="-2.8710810">
        <ele>671.0</ele>
        <time>2020-07-15T08:55:38Z</time>
      </trkpt>
      <trkpt lat="38.0204660" lon="-2.8711460">
        <ele>671.6</ele>
        <time>2020-07-15T08:55:40Z</time>
      </trkpt>
      <trkpt lat="38.0202800" lon="-2.8713250">
        <ele>672.4</ele>
        <time>2020-07-15T08:55:45Z</time>
      </trkpt>
      <trkpt lat="38.0202390" lon="-2.8713590">
        <ele>672.6</ele>
        <time>2020-07-15T08:55:46Z</time>
      </trkpt>
      <trkpt lat="38.0201280" lon="-2.8714740">
        <ele>673.2</ele>
        <time>2020-07-15T08:55:49Z</time>
      </trkpt>
      <trkpt lat="38.0200230" lon="-2.8715870">
        <ele>673.8</ele>
        <time>2020-07-15T08:55:52Z</time>
      </trkpt>
      <trkpt lat="38.0199930" lon="-2.8716180">
        <ele>674.0</ele>
        <time>2020-07-15T08:55:53Z</time>
      </trkpt>
      <trkpt lat="38.0198550" lon="-2.8717770">
        <ele>675.0</ele>
        <time>2020-07-15T08:55:57Z</time>
      </trkpt>
      <trkpt lat="38.0197540" lon="-2.8718870">
        <ele>675.6</ele>
        <time>2020-07-15T08:56:00Z</time>
      </trkpt>
      <trkpt lat="38.0196800" lon="-2.8719470">
        <ele>675.8</ele>
        <time>2020-07-15T08:56:02Z</time>
      </trkpt>
      <trkpt lat="38.0196520" lon="-2.8719770">
        <ele>676.0</ele>
        <time>2020-07-15T08:56:03Z</time>
      </trkpt>
      <trkpt lat="38.0195300" lon="-2.8720340">
        <ele>676.4</ele>
        <time>2020-07-15T08:56:06Z</time>
      </trkpt>
      <trkpt lat="38.0194510" lon="-2.8720560">
        <ele>676.8</ele>
        <time>2020-07-15T08:56:08Z</time>
      </trkpt>
      <trkpt lat="38.0194050" lon="-2.8720690">
        <ele>677.0</ele>
        <time>2020-07-15T08:56:09Z</time>
      </trkpt>
      <trkpt lat="38.0192400" lon="-2.8721180">
        <ele>677.8</ele>
        <time>2020-07-15T08:56:13Z</time>
      </trkpt>
      <trkpt lat="38.0191580" lon="-2.8721500">
        <ele>678.2</ele>
        <time>2020-07-15T08:56:15Z</time>
      </trkpt>
      <trkpt lat="38.0189220" lon="-2.8722430">
        <ele>679.2</ele>
        <time>2020-07-15T08:56:21Z</time>
      </trkpt>
      <trkpt lat="38.0188840" lon="-2.8722590">
        <ele>679.4</ele>
        <time>2020-07-15T08:56:22Z</time>
      </trkpt>
      <trkpt lat="38.0186960" lon="-2.8723620">
        <ele>680.2</ele>
        <time>2020-07-15T08:56:27Z</time>
      </trkpt>
      <trkpt lat="38.0185830" lon="-2.8724250">
        <ele>680.6</ele>
        <time>2020-07-15T08:56:30Z</time>
      </trkpt>
      <trkpt lat="38.0184320" lon="-2.8725160">
        <ele>681.4</ele>
        <time>2020-07-15T08:56:34Z</time>
      </trkpt>
      <trkpt lat="38.0182870" lon="-2.8726080">
        <ele>682.4</ele>
        <time>2020-07-15T08:56:38Z</time>
      </trkpt>
      <trkpt lat="38.0180480" lon="-2.8727200">
        <ele>683.4</ele>
        <time>2020-07-15T08:56:44Z</time>
      </trkpt>
      <trkpt lat="38.0180080" lon="-2.8727330">
        <ele>683.6</ele>
        <time>2020-07-15T08:56:45Z</time>
      </trkpt>
      <trkpt lat="38.0178840" lon="-2.8727430">
        <ele>684.2</ele>
        <time>2020-07-15T08:56:48Z</time>
      </trkpt>
      <trkpt lat="38.0177480" lon="-2.8727210">
        <ele>684.4</ele>
        <time>2020-07-15T08:56:51Z</time>
      </trkpt>
      <trkpt lat="38.0175140" lon="-2.8726240">
        <ele>685.4</ele>
        <time>2020-07-15T08:56:57Z</time>
      </trkpt>
      <trkpt lat="38.0174770" lon="-2.8726080">
        <ele>685.6</ele>
        <time>2020-07-15T08:56:58Z</time>
      </trkpt>
      <trkpt lat="38.0172950" lon="-2.8725270">
        <ele>686.6</ele>
        <time>2020-07-15T08:57:03Z</time>
      </trkpt>
      <trkpt lat="38.0172570" lon="-2.8725170">
        <ele>687.0</ele>
        <time>2020-07-15T08:57:04Z</time>
      </trkpt>
      <trkpt lat="38.0170980" lon="-2.8724930">
        <ele>687.8</ele>
        <time>2020-07-15T08:57:08Z</time>
      </trkpt>
      <trkpt lat="38.0170570" lon="-2.8724870">
        <ele>688.0</ele>
        <time>2020-07-15T08:57:09Z</time>
      </trkpt>
      <trkpt lat="38.0168100" lon="-2.8724790">
        <ele>688.8</ele>
        <time>2020-07-15T08:57:15Z</time>
      </trkpt>
      <trkpt lat="38.0167410" lon="-2.8724950">
        <ele>689.0</ele>
        <time>2020-07-15T08:57:17Z</time>
      </trkpt>
      <trkpt lat="38.0166590" lon="-2.8725120">
        <ele>689.6</ele>
        <time>2020-07-15T08:57:19Z</time>
      </trkpt>
      <trkpt lat="38.0165750" lon="-2.8725280">
        <ele>690.0</ele>
        <time>2020-07-15T08:57:21Z</time>
      </trkpt>
      <trkpt lat="38.0165400" lon="-2.8725360">
        <ele>690.0</ele>
        <time>2020-07-15T08:57:22Z</time>
      </trkpt>
      <trkpt lat="38.0163200" lon="-2.8726080">
        <ele>691.0</ele>
        <time>2020-07-15T08:57:27Z</time>
      </trkpt>
      <trkpt lat="38.0162250" lon="-2.8726400">
        <ele>691.4</ele>
        <time>2020-07-15T08:57:29Z</time>
      </trkpt>
      <trkpt lat="38.0160870" lon="-2.8726680">
        <ele>691.4</ele>
        <time>2020-07-15T08:57:32Z</time>
      </trkpt>
      <trkpt lat="38.0159730" lon="-2.8726880">
        <ele>691.2</ele>
        <time>2020-07-15T08:57:34Z</time>
      </trkpt>
      <trkpt lat="38.0158430" lon="-2.8727070">
        <ele>690.8</ele>
        <time>2020-07-15T08:57:36Z</time>
      </trkpt>
      <trkpt lat="38.0157090" lon="-2.8726920">
        <ele>690.8</ele>
        <time>2020-07-15T08:57:38Z</time>
      </trkpt>
      <trkpt lat="38.0154670" lon="-2.8726230">
        <ele>690.6</ele>
        <time>2020-07-15T08:57:42Z</time>
      </trkpt>
      <trkpt lat="38.0153550" lon="-2.8725450">
        <ele>690.6</ele>
        <time>2020-07-15T08:57:44Z</time>
      </trkpt>
      <trkpt lat="38.0152200" lon="-2.8723810">
        <ele>690.8</ele>
        <time>2020-07-15T08:57:47Z</time>
      </trkpt>
      <trkpt lat="38.0151800" lon="-2.8723140">
        <ele>690.8</ele>
        <time>2020-07-15T08:57:48Z</time>
      </trkpt>
      <trkpt lat="38.0149540" lon="-2.8720280">
        <ele>691.0</ele>
        <time>2020-07-15T08:57:53Z</time>
      </trkpt>
      <trkpt lat="38.0148990" lon="-2.8719860">
        <ele>691.0</ele>
        <time>2020-07-15T08:57:54Z</time>
      </trkpt>
      <trkpt lat="38.0146750" lon="-2.8719060">
        <ele>691.2</ele>
        <time>2020-07-15T08:57:58Z</time>
      </trkpt>
      <trkpt lat="38.0144730" lon="-2.8719920">
        <ele>692.0</ele>
        <time>2020-07-15T08:58:02Z</time>
      </trkpt>
      <trkpt lat="38.0144300" lon="-2.8720420">
        <ele>692.2</ele>
        <time>2020-07-15T08:58:03Z</time>
      </trkpt>
      <trkpt lat="38.0143910" lon="-2.8720900">
        <ele>692.6</ele>
        <time>2020-07-15T08:58:04Z</time>
      </trkpt>
      <trkpt lat="38.0143200" lon="-2.8722070">
        <ele>693.2</ele>
        <time>2020-07-15T08:58:06Z</time>
      </trkpt>
      <trkpt lat="38.0142900" lon="-2.8722630">
        <ele>693.4</ele>
        <time>2020-07-15T08:58:07Z</time>
      </trkpt>
      <trkpt lat="38.0141510" lon="-2.8724880">
        <ele>694.4</ele>
        <time>2020-07-15T08:58:11Z</time>
      </trkpt>
      <trkpt lat="38.0141130" lon="-2.8725320">
        <ele>694.8</ele>
        <time>2020-07-15T08:58:12Z</time>
      </trkpt>
      <trkpt lat="38.0140170" lon="-2.8726230">
        <ele>695.4</ele>
        <time>2020-07-15T08:58:14Z</time>
      </trkpt>
      <trkpt lat="38.0139650" lon="-2.8726600">
        <ele>695.6</ele>
        <time>2020-07-15T08:58:15Z</time>
      </trkpt>
      <trkpt lat="38.0137410" lon="-2.8727710">
        <ele>696.0</ele>
        <time>2020-07-15T08:58:19Z</time>
      </trkpt>
      <trkpt lat="38.0133490" lon="-2.8729070">
        <ele>696.6</ele>
        <time>2020-07-15T08:58:26Z</time>
      </trkpt>
      <trkpt lat="38.0132380" lon="-2.8729410">
        <ele>696.8</ele>
        <time>2020-07-15T08:58:28Z</time>
      </trkpt>
      <trkpt lat="38.0129110" lon="-2.8730590">
        <ele>697.2</ele>
        <time>2020-07-15T08:58:34Z</time>
      </trkpt>
      <trkpt lat="38.0128580" lon="-2.8730930">
        <ele>697.4</ele>
        <time>2020-07-15T08:58:35Z</time>
      </trkpt>
      <trkpt lat="38.0125160" lon="-2.8733210">
        <ele>697.2</ele>
        <time>2020-07-15T08:58:41Z</time>
      </trkpt>
      <trkpt lat="38.0123170" lon="-2.8734650">
        <ele>696.6</ele>
        <time>2020-07-15T08:58:44Z</time>
      </trkpt>
      <trkpt lat="38.0121800" lon="-2.8735670">
        <ele>696.2</ele>
        <time>2020-07-15T08:58:46Z</time>
      </trkpt>
      <trkpt lat="38.0119460" lon="-2.8737310">
        <ele>695.4</ele>
        <time>2020-07-15T08:58:49Z</time>
      </trkpt>
      <trkpt lat="38.0117240" lon="-2.8739040">
        <ele>694.6</ele>
        <time>2020-07-15T08:58:52Z</time>
      </trkpt>
      <trkpt lat="38.0116420" lon="-2.8739810">
        <ele>694.4</ele>
        <time>2020-07-15T08:58:53Z</time>
      </trkpt>
      <trkpt lat="38.0114910" lon="-2.8741250">
        <ele>693.8</ele>
        <time>2020-07-15T08:58:55Z</time>
      </trkpt>
      <trkpt lat="38.0113470" lon="-2.8742710">
        <ele>693.0</ele>
        <time>2020-07-15T08:58:57Z</time>
      </trkpt>
      <trkpt lat="38.0112830" lon="-2.8743660">
        <ele>692.6</ele>
        <time>2020-07-15T08:58:58Z</time>
      </trkpt>
      <trkpt lat="38.0111940" lon="-2.8745920">
        <ele>692.2</ele>
        <time>2020-07-15T08:59:00Z</time>
      </trkpt>
      <trkpt lat="38.0111580" lon="-2.8747070">
        <ele>691.8</ele>
        <time>2020-07-15T08:59:01Z</time>
      </trkpt>
      <trkpt lat="38.0110560" lon="-2.8750390">
        <ele>691.0</ele>
        <time>2020-07-15T08:59:04Z</time>
      </trkpt>
      <trkpt lat="38.0110040" lon="-2.8751430">
        <ele>690.8</ele>
        <time>2020-07-15T08:59:05Z</time>
      </trkpt>
      <trkpt lat="38.0109410" lon="-2.8752260">
        <ele>690.6</ele>
        <time>2020-07-15T08:59:06Z</time>
      </trkpt>
      <trkpt lat="38.0107990" lon="-2.8753680">
        <ele>690.8</ele>
        <time>2020-07-15T08:59:08Z</time>
      </trkpt>
      <trkpt lat="38.0106560" lon="-2.8754920">
        <ele>690.8</ele>
        <time>2020-07-15T08:59:10Z</time>
      </trkpt>
      <trkpt lat="38.0101430" lon="-2.8758580">
        <ele>690.8</ele>
        <time>2020-07-15T08:59:17Z</time>
      </trkpt>
      <trkpt lat="38.0098670" lon="-2.8759620">
        <ele>691.2</ele>
        <time>2020-07-15T08:59:21Z</time>
      </trkpt>
      <trkpt lat="38.0098120" lon="-2.8759810">
        <ele>691.4</ele>
        <time>2020-07-15T08:59:22Z</time>
      </trkpt>
      <trkpt lat="38.0096870" lon="-2.8760230">
        <ele>692.0</ele>
        <time>2020-07-15T08:59:24Z</time>
      </trkpt>
      <trkpt lat="38.0095330" lon="-2.8760960">
        <ele>693.2</ele>
        <time>2020-07-15T08:59:27Z</time>
      </trkpt>
      <trkpt lat="38.0094840" lon="-2.8761330">
        <ele>693.4</ele>
        <time>2020-07-15T08:59:28Z</time>
      </trkpt>
      <trkpt lat="38.0093970" lon="-2.8762180">
        <ele>694.2</ele>
        <time>2020-07-15T08:59:30Z</time>
      </trkpt>
      <trkpt lat="38.0093190" lon="-2.8762940">
        <ele>694.6</ele>
        <time>2020-07-15T08:59:32Z</time>
      </trkpt>
      <trkpt lat="38.0092450" lon="-2.8763880">
        <ele>695.2</ele>
        <time>2020-07-15T08:59:34Z</time>
      </trkpt>
      <trkpt lat="38.0092080" lon="-2.8764380">
        <ele>695.4</ele>
        <time>2020-07-15T08:59:35Z</time>
      </trkpt>
      <trkpt lat="38.0089970" lon="-2.8767080">
        <ele>696.4</ele>
        <time>2020-07-15T08:59:41Z</time>
      </trkpt>
      <trkpt lat="38.0089620" lon="-2.8767490">
        <ele>696.4</ele>
        <time>2020-07-15T08:59:42Z</time>
      </trkpt>
      <trkpt lat="38.0086780" lon="-2.8771060">
        <ele>697.4</ele>
        <time>2020-07-15T08:59:50Z</time>
      </trkpt>
      <trkpt lat="38.0086420" lon="-2.8771530">
        <ele>697.6</ele>
        <time>2020-07-15T08:59:51Z</time>
      </trkpt>
      <trkpt lat="38.0084370" lon="-2.8774100">
        <ele>698.4</ele>
        <time>2020-07-15T08:59:57Z</time>
      </trkpt>
      <trkpt lat="38.0084030" lon="-2.8774510">
        <ele>698.6</ele>
        <time>2020-07-15T08:59:58Z</time>
      </trkpt>
      <trkpt lat="38.0083060" lon="-2.8775660">
        <ele>699.2</ele>
        <time>2020-07-15T09:00:01Z</time>
      </trkpt>
      <trkpt lat="38.0082390" lon="-2.8776330">
        <ele>699.6</ele>
        <time>2020-07-15T09:00:03Z</time>
      </trkpt>
      <trkpt lat="38.0082090" lon="-2.8776600">
        <ele>699.6</ele>
        <time>2020-07-15T09:00:04Z</time>
      </trkpt>
      <trkpt lat="38.0080540" lon="-2.8777980">
        <ele>700.8</ele>
        <time>2020-07-15T09:00:09Z</time>
      </trkpt>
      <trkpt lat="38.0079470" lon="-2.8779360">
        <ele>701.8</ele>
        <time>2020-07-15T09:00:13Z</time>
      </trkpt>
      <trkpt lat="38.0079260" lon="-2.8779810">
        <ele>702.0</ele>
        <time>2020-07-15T09:00:14Z</time>
      </trkpt>
      <trkpt lat="38.0079060" lon="-2.8780270">
        <ele>702.2</ele>
        <time>2020-07-15T09:00:15Z</time>
      </trkpt>
      <trkpt lat="38.0078580" lon="-2.8781600">
        <ele>703.0</ele>
        <time>2020-07-15T09:00:18Z</time>
      </trkpt>
      <trkpt lat="38.0078030" lon="-2.8783550">
        <ele>704.0</ele>
        <time>2020-07-15T09:00:23Z</time>
      </trkpt>
      <trkpt lat="38.0077890" lon="-2.8784280">
        <ele>704.2</ele>
        <time>2020-07-15T09:00:24Z</time>
      </trkpt>
      <trkpt lat="38.0077710" lon="-2.8786060">
        <ele>705.4</ele>
        <time>2020-07-15T09:00:28Z</time>
      </trkpt>
      <trkpt lat="38.0077680" lon="-2.8786520">
        <ele>705.6</ele>
        <time>2020-07-15T09:00:29Z</time>
      </trkpt>
      <trkpt lat="38.0077650" lon="-2.8787780">
        <ele>706.6</ele>
        <time>2020-07-15T09:00:32Z</time>
      </trkpt>
      <trkpt lat="38.0077550" lon="-2.8789510">
        <ele>707.6</ele>
        <time>2020-07-15T09:00:36Z</time>
      </trkpt>
      <trkpt lat="38.0077220" lon="-2.8791240">
        <ele>708.6</ele>
        <time>2020-07-15T09:00:40Z</time>
      </trkpt>
      <trkpt lat="38.0076910" lon="-2.8792060">
        <ele>709.0</ele>
        <time>2020-07-15T09:00:42Z</time>
      </trkpt>
      <trkpt lat="38.0075980" lon="-2.8793420">
        <ele>709.8</ele>
        <time>2020-07-15T09:00:46Z</time>
      </trkpt>
      <trkpt lat="38.0075460" lon="-2.8793940">
        <ele>710.4</ele>
        <time>2020-07-15T09:00:48Z</time>
      </trkpt>
      <trkpt lat="38.0074950" lon="-2.8794380">
        <ele>711.0</ele>
        <time>2020-07-15T09:00:50Z</time>
      </trkpt>
      <trkpt lat="38.0073590" lon="-2.8795430">
        <ele>712.2</ele>
        <time>2020-07-15T09:00:55Z</time>
      </trkpt>
      <trkpt lat="38.0072760" lon="-2.8795980">
        <ele>712.6</ele>
        <time>2020-07-15T09:00:58Z</time>
      </trkpt>
      <trkpt lat="38.0071660" lon="-2.8796840">
        <ele>713.4</ele>
        <time>2020-07-15T09:01:03Z</time>
      </trkpt>
      <trkpt lat="38.0070660" lon="-2.8797680">
        <ele>714.2</ele>
        <time>2020-07-15T09:01:07Z</time>
      </trkpt>
      <trkpt lat="38.0070410" lon="-2.8797970">
        <ele>714.4</ele>
        <time>2020-07-15T09:01:08Z</time>
      </trkpt>
      <trkpt lat="38.0069370" lon="-2.8799490">
        <ele>715.4</ele>
        <time>2020-07-15T09:01:13Z</time>
      </trkpt>
      <trkpt lat="38.0069160" lon="-2.8799830">
        <ele>715.6</ele>
        <time>2020-07-15T09:01:14Z</time>
      </trkpt>
      <trkpt lat="38.0068280" lon="-2.8801450">
        <ele>716.6</ele>
        <time>2020-07-15T09:01:19Z</time>
      </trkpt>
      <trkpt lat="38.0068100" lon="-2.8801800">
        <ele>716.8</ele>
        <time>2020-07-15T09:01:20Z</time>
      </trkpt>
      <trkpt lat="38.0067240" lon="-2.8803570">
        <ele>717.8</ele>
        <time>2020-07-15T09:01:25Z</time>
      </trkpt>
      <trkpt lat="38.0066640" lon="-2.8804910">
        <ele>718.6</ele>
        <time>2020-07-15T09:01:29Z</time>
      </trkpt>
      <trkpt lat="38.0066310" lon="-2.8805560">
        <ele>719.0</ele>
        <time>2020-07-15T09:01:31Z</time>
      </trkpt>
      <trkpt lat="38.0065570" lon="-2.8807200">
        <ele>719.8</ele>
        <time>2020-07-15T09:01:36Z</time>
      </trkpt>
      <trkpt lat="38.0065400" lon="-2.8807540">
        <ele>720.0</ele>
        <time>2020-07-15T09:01:37Z</time>
      </trkpt>
      <trkpt lat="38.0064590" lon="-2.8809140">
        <ele>721.2</ele>
        <time>2020-07-15T09:01:42Z</time>
      </trkpt>
      <trkpt lat="38.0063600" lon="-2.8810710">
        <ele>722.2</ele>
        <time>2020-07-15T09:01:47Z</time>
      </trkpt>
      <trkpt lat="38.0063340" lon="-2.8810950">
        <ele>722.4</ele>
        <time>2020-07-15T09:01:48Z</time>
      </trkpt>
      <trkpt lat="38.0061460" lon="-2.8812040">
        <ele>723.2</ele>
        <time>2020-07-15T09:01:54Z</time>
      </trkpt>
      <trkpt lat="38.0060010" lon="-2.8811980">
        <ele>723.6</ele>
        <time>2020-07-15T09:01:58Z</time>
      </trkpt>
      <trkpt lat="38.0059590" lon="-2.8811820">
        <ele>723.8</ele>
        <time>2020-07-15T09:01:59Z</time>
      </trkpt>
      <trkpt lat="38.0057690" lon="-2.8810080">
        <ele>724.0</ele>
        <time>2020-07-15T09:02:04Z</time>
      </trkpt>
      <trkpt lat="38.0056970" lon="-2.8808540">
        <ele>724.0</ele>
        <time>2020-07-15T09:02:07Z</time>
      </trkpt>
      <trkpt lat="38.0056630" lon="-2.8807540">
        <ele>724.0</ele>
        <time>2020-07-15T09:02:09Z</time>
      </trkpt>
      <trkpt lat="38.0056300" lon="-2.8806530">
        <ele>724.2</ele>
        <time>2020-07-15T09:02:11Z</time>
      </trkpt>
      <trkpt lat="38.0055590" lon="-2.8804260">
        <ele>725.2</ele>
        <time>2020-07-15T09:02:16Z</time>
      </trkpt>
      <trkpt lat="38.0055400" lon="-2.8803820">
        <ele>725.4</ele>
        <time>2020-07-15T09:02:17Z</time>
      </trkpt>
      <trkpt lat="38.0054510" lon="-2.8802120">
        <ele>726.2</ele>
        <time>2020-07-15T09:02:21Z</time>
      </trkpt>
      <trkpt lat="38.0054030" lon="-2.8801530">
        <ele>726.6</ele>
        <time>2020-07-15T09:02:23Z</time>
      </trkpt>
      <trkpt lat="38.0053020" lon="-2.8800930">
        <ele>727.0</ele>
        <time>2020-07-15T09:02:26Z</time>
      </trkpt>
      <trkpt lat="38.0052280" lon="-2.8800690">
        <ele>727.6</ele>
        <time>2020-07-15T09:02:28Z</time>
      </trkpt>
      <trkpt lat="38.0051110" lon="-2.8800670">
        <ele>728.2</ele>
        <time>2020-07-15T09:02:31Z</time>
      </trkpt>
      <trkpt lat="38.0050360" lon="-2.8800940">
        <ele>728.6</ele>
        <time>2020-07-15T09:02:33Z</time>
      </trkpt>
      <trkpt lat="38.0049520" lon="-2.8801320">
        <ele>729.0</ele>
        <time>2020-07-15T09:02:35Z</time>
      </trkpt>
      <trkpt lat="38.0049140" lon="-2.8801690">
        <ele>729.2</ele>
        <time>2020-07-15T09:02:36Z</time>
      </trkpt>
      <trkpt lat="38.0047440" lon="-2.8803640">
        <ele>729.8</ele>
        <time>2020-07-15T09:02:41Z</time>
      </trkpt>
      <trkpt lat="38.0046410" lon="-2.8805010">
        <ele>730.2</ele>
        <time>2020-07-15T09:02:44Z</time>
      </trkpt>
      <trkpt lat="38.0044660" lon="-2.8807230">
        <ele>730.8</ele>
        <time>2020-07-15T09:02:49Z</time>
      </trkpt>
      <trkpt lat="38.0043300" lon="-2.8808890">
        <ele>731.4</ele>
        <time>2020-07-15T09:02:53Z</time>
      </trkpt>
      <trkpt lat="38.0041790" lon="-2.8810670">
        <ele>732.0</ele>
        <time>2020-07-15T09:02:57Z</time>
      </trkpt>
      <trkpt lat="38.0040390" lon="-2.8812410">
        <ele>732.4</ele>
        <time>2020-07-15T09:03:01Z</time>
      </trkpt>
      <trkpt lat="38.0038050" lon="-2.8815550">
        <ele>733.0</ele>
        <time>2020-07-15T09:03:08Z</time>
      </trkpt>
      <trkpt lat="38.0037350" lon="-2.8816550">
        <ele>733.2</ele>
        <time>2020-07-15T09:03:10Z</time>
      </trkpt>
      <trkpt lat="38.0035540" lon="-2.8818900">
        <ele>733.4</ele>
        <time>2020-07-15T09:03:15Z</time>
      </trkpt>
      <trkpt lat="38.0034410" lon="-2.8820280">
        <ele>733.6</ele>
        <time>2020-07-15T09:03:18Z</time>
      </trkpt>
      <trkpt lat="38.0032450" lon="-2.8822730">
        <ele>734.0</ele>
        <time>2020-07-15T09:03:23Z</time>
      </trkpt>
      <trkpt lat="38.0031190" lon="-2.8824330">
        <ele>734.2</ele>
        <time>2020-07-15T09:03:26Z</time>
      </trkpt>
      <trkpt lat="38.0028860" lon="-2.8827800">
        <ele>734.0</ele>
        <time>2020-07-15T09:03:32Z</time>
      </trkpt>
      <trkpt lat="38.0028590" lon="-2.8828440">
        <ele>734.0</ele>
        <time>2020-07-15T09:03:33Z</time>
      </trkpt>
      <trkpt lat="38.0027510" lon="-2.8832320">
        <ele>733.6</ele>
        <time>2020-07-15T09:03:38Z</time>
      </trkpt>
      <trkpt lat="38.0027310" lon="-2.8833170">
        <ele>733.4</ele>
        <time>2020-07-15T09:03:39Z</time>
      </trkpt>
      <trkpt lat="38.0026670" lon="-2.8837360">
        <ele>733.6</ele>
        <time>2020-07-15T09:03:44Z</time>
      </trkpt>
      <trkpt lat="38.0026920" lon="-2.8839010">
        <ele>733.4</ele>
        <time>2020-07-15T09:03:46Z</time>
      </trkpt>
      <trkpt lat="38.0027540" lon="-2.8840620">
        <ele>733.0</ele>
        <time>2020-07-15T09:03:48Z</time>
      </trkpt>
      <trkpt lat="38.0028310" lon="-2.8842250">
        <ele>733.0</ele>
        <time>2020-07-15T09:03:50Z</time>
      </trkpt>
      <trkpt lat="38.0028880" lon="-2.8844050">
        <ele>732.8</ele>
        <time>2020-07-15T09:03:52Z</time>
      </trkpt>
      <trkpt lat="38.0029080" lon="-2.8846010">
        <ele>732.6</ele>
        <time>2020-07-15T09:03:54Z</time>
      </trkpt>
      <trkpt lat="38.0029470" lon="-2.8849830">
        <ele>732.2</ele>
        <time>2020-07-15T09:03:58Z</time>
      </trkpt>
      <trkpt lat="38.0029810" lon="-2.8850700">
        <ele>732.2</ele>
        <time>2020-07-15T09:03:59Z</time>
      </trkpt>
      <trkpt lat="38.0030300" lon="-2.8851530">
        <ele>732.0</ele>
        <time>2020-07-15T09:04:00Z</time>
      </trkpt>
      <trkpt lat="38.0031490" lon="-2.8852850">
        <ele>732.0</ele>
        <time>2020-07-15T09:04:02Z</time>
      </trkpt>
      <trkpt lat="38.0034380" lon="-2.8854350">
        <ele>732.2</ele>
        <time>2020-07-15T09:04:06Z</time>
      </trkpt>
      <trkpt lat="38.0036540" lon="-2.8855330">
        <ele>732.2</ele>
        <time>2020-07-15T09:04:09Z</time>
      </trkpt>
      <trkpt lat="38.0037750" lon="-2.8856500">
        <ele>732.2</ele>
        <time>2020-07-15T09:04:11Z</time>
      </trkpt>
      <trkpt lat="38.0037910" lon="-2.8857510">
        <ele>732.2</ele>
        <time>2020-07-15T09:04:12Z</time>
      </trkpt>
      <trkpt lat="38.0038230" lon="-2.8858400">
        <ele>732.2</ele>
        <time>2020-07-15T09:04:13Z</time>
      </trkpt>
      <trkpt lat="38.0038020" lon="-2.8859440">
        <ele>732.2</ele>
        <time>2020-07-15T09:04:14Z</time>
      </trkpt>
      <trkpt lat="38.0037970" lon="-2.8860420">
        <ele>732.2</ele>
        <time>2020-07-15T09:04:15Z</time>
      </trkpt>
      <trkpt lat="38.0037350" lon="-2.8861280">
        <ele>732.2</ele>
        <time>2020-07-15T09:04:16Z</time>
      </trkpt>
      <trkpt lat="38.0036810" lon="-2.8861880">
        <ele>732.0</ele>
        <time>2020-07-15T09:04:17Z</time>
      </trkpt>
      <trkpt lat="38.0034710" lon="-2.8862970">
        <ele>731.6</ele>
        <time>2020-07-15T09:04:20Z</time>
      </trkpt>
      <trkpt lat="38.0028950" lon="-2.8865390">
        <ele>731.6</ele>
        <time>2020-07-15T09:04:28Z</time>
      </trkpt>
      <trkpt lat="38.0028230" lon="-2.8865750">
        <ele>731.6</ele>
        <time>2020-07-15T09:04:29Z</time>
      </trkpt>
      <trkpt lat="38.0024640" lon="-2.8867220">
        <ele>731.6</ele>
        <time>2020-07-15T09:04:34Z</time>
      </trkpt>
      <trkpt lat="38.0023140" lon="-2.8867060">
        <ele>731.4</ele>
        <time>2020-07-15T09:04:36Z</time>
      </trkpt>
      <trkpt lat="38.0019430" lon="-2.8866370">
        <ele>731.2</ele>
        <time>2020-07-15T09:04:41Z</time>
      </trkpt>
      <trkpt lat="38.0018600" lon="-2.8866460">
        <ele>731.2</ele>
        <time>2020-07-15T09:04:42Z</time>
      </trkpt>
      <trkpt lat="38.0013410" lon="-2.8867600">
        <ele>731.0</ele>
        <time>2020-07-15T09:04:49Z</time>
      </trkpt>
      <trkpt lat="38.0011240" lon="-2.8868460">
        <ele>731.0</ele>
        <time>2020-07-15T09:04:52Z</time>
      </trkpt>
      <trkpt lat="38.0010660" lon="-2.8868910">
        <ele>731.0</ele>
        <time>2020-07-15T09:04:53Z</time>
      </trkpt>
      <trkpt lat="38.0009960" lon="-2.8869600">
        <ele>731.0</ele>
        <time>2020-07-15T09:04:54Z</time>
      </trkpt>
      <trkpt lat="38.0008860" lon="-2.8870960">
        <ele>730.8</ele>
        <time>2020-07-15T09:04:56Z</time>
      </trkpt>
      <trkpt lat="38.0007300" lon="-2.8872960">
        <ele>730.6</ele>
        <time>2020-07-15T09:04:59Z</time>
      </trkpt>
      <trkpt lat="38.0003100" lon="-2.8878390">
        <ele>730.6</ele>
        <time>2020-07-15T09:05:07Z</time>
      </trkpt>
      <trkpt lat="38.0002700" lon="-2.8879090">
        <ele>730.6</ele>
        <time>2020-07-15T09:05:08Z</time>
      </trkpt>
      <trkpt lat="38.0002320" lon="-2.8879960">
        <ele>730.6</ele>
        <time>2020-07-15T09:05:09Z</time>
      </trkpt>
      <trkpt lat="38.0001440" lon="-2.8882690">
        <ele>730.4</ele>
        <time>2020-07-15T09:05:12Z</time>
      </trkpt>
      <trkpt lat="38.0000840" lon="-2.8884740">
        <ele>730.0</ele>
        <time>2020-07-15T09:05:14Z</time>
      </trkpt>
      <trkpt lat="38.0000530" lon="-2.8885800">
        <ele>729.8</ele>
        <time>2020-07-15T09:05:15Z</time>
      </trkpt>
      <trkpt lat="37.9999360" lon="-2.8888880">
        <ele>728.6</ele>
        <time>2020-07-15T09:05:18Z</time>
      </trkpt>
      <trkpt lat="37.9998820" lon="-2.8890040">
        <ele>728.4</ele>
        <time>2020-07-15T09:05:19Z</time>
      </trkpt>
      <trkpt lat="37.9997770" lon="-2.8892160">
        <ele>727.6</ele>
        <time>2020-07-15T09:05:21Z</time>
      </trkpt>
      <trkpt lat="37.9996890" lon="-2.8894250">
        <ele>726.8</ele>
        <time>2020-07-15T09:05:23Z</time>
      </trkpt>
      <trkpt lat="37.9996290" lon="-2.8895410">
        <ele>726.4</ele>
        <time>2020-07-15T09:05:24Z</time>
      </trkpt>
      <trkpt lat="37.9994880" lon="-2.8896960">
        <ele>725.2</ele>
        <time>2020-07-15T09:05:26Z</time>
      </trkpt>
      <trkpt lat="37.9994100" lon="-2.8897520">
        <ele>725.0</ele>
        <time>2020-07-15T09:05:27Z</time>
      </trkpt>
      <trkpt lat="37.9992520" lon="-2.8898510">
        <ele>724.6</ele>
        <time>2020-07-15T09:05:29Z</time>
      </trkpt>
      <trkpt lat="37.9991030" lon="-2.8899780">
        <ele>724.4</ele>
        <time>2020-07-15T09:05:31Z</time>
      </trkpt>
      <trkpt lat="37.9990530" lon="-2.8900600">
        <ele>724.4</ele>
        <time>2020-07-15T09:05:32Z</time>
      </trkpt>
      <trkpt lat="37.9988220" lon="-2.8905050">
        <ele>724.4</ele>
        <time>2020-07-15T09:05:37Z</time>
      </trkpt>
      <trkpt lat="37.9987670" lon="-2.8905750">
        <ele>724.4</ele>
        <time>2020-07-15T09:05:38Z</time>
      </trkpt>
      <trkpt lat="37.9986220" lon="-2.8906990">
        <ele>724.6</ele>
        <time>2020-07-15T09:05:40Z</time>
      </trkpt>
      <trkpt lat="37.9984680" lon="-2.8907910">
        <ele>724.6</ele>
        <time>2020-07-15T09:05:42Z</time>
      </trkpt>
      <trkpt lat="37.9982300" lon="-2.8909380">
        <ele>724.6</ele>
        <time>2020-07-15T09:05:45Z</time>
      </trkpt>
      <trkpt lat="37.9981550" lon="-2.8910060">
        <ele>724.4</ele>
        <time>2020-07-15T09:05:46Z</time>
      </trkpt>
      <trkpt lat="37.9980900" lon="-2.8910860">
        <ele>724.0</ele>
        <time>2020-07-15T09:05:47Z</time>
      </trkpt>
      <trkpt lat="37.9980320" lon="-2.8911800">
        <ele>723.4</ele>
        <time>2020-07-15T09:05:48Z</time>
      </trkpt>
      <trkpt lat="37.9979480" lon="-2.8914080">
        <ele>722.6</ele>
        <time>2020-07-15T09:05:50Z</time>
      </trkpt>
      <trkpt lat="37.9979100" lon="-2.8915260">
        <ele>722.4</ele>
        <time>2020-07-15T09:05:51Z</time>
      </trkpt>
      <trkpt lat="37.9977550" lon="-2.8919970">
        <ele>721.4</ele>
        <time>2020-07-15T09:05:55Z</time>
      </trkpt>
      <trkpt lat="37.9976380" lon="-2.8923640">
        <ele>720.4</ele>
        <time>2020-07-15T09:05:58Z</time>
      </trkpt>
      <trkpt lat="37.9976000" lon="-2.8924800">
        <ele>719.8</ele>
        <time>2020-07-15T09:05:59Z</time>
      </trkpt>
      <trkpt lat="37.9975160" lon="-2.8927310">
        <ele>719.0</ele>
        <time>2020-07-15T09:06:01Z</time>
      </trkpt>
      <trkpt lat="37.9973530" lon="-2.8932200">
        <ele>717.8</ele>
        <time>2020-07-15T09:06:05Z</time>
      </trkpt>
      <trkpt lat="37.9972710" lon="-2.8934820">
        <ele>717.2</ele>
        <time>2020-07-15T09:06:07Z</time>
      </trkpt>
      <trkpt lat="37.9972280" lon="-2.8936030">
        <ele>716.8</ele>
        <time>2020-07-15T09:06:08Z</time>
      </trkpt>
      <trkpt lat="37.9971700" lon="-2.8937230">
        <ele>716.2</ele>
        <time>2020-07-15T09:06:09Z</time>
      </trkpt>
      <trkpt lat="37.9970150" lon="-2.8938930">
        <ele>715.6</ele>
        <time>2020-07-15T09:06:11Z</time>
      </trkpt>
      <trkpt lat="37.9968410" lon="-2.8939970">
        <ele>715.4</ele>
        <time>2020-07-15T09:06:13Z</time>
      </trkpt>
      <trkpt lat="37.9967490" lon="-2.8940460">
        <ele>715.2</ele>
        <time>2020-07-15T09:06:14Z</time>
      </trkpt>
      <trkpt lat="37.9963580" lon="-2.8942930">
        <ele>715.0</ele>
        <time>2020-07-15T09:06:19Z</time>
      </trkpt>
      <trkpt lat="37.9962970" lon="-2.8943680">
        <ele>715.2</ele>
        <time>2020-07-15T09:06:20Z</time>
      </trkpt>
      <trkpt lat="37.9961860" lon="-2.8946260">
        <ele>715.6</ele>
        <time>2020-07-15T09:06:23Z</time>
      </trkpt>
      <trkpt lat="37.9960910" lon="-2.8948150">
        <ele>715.6</ele>
        <time>2020-07-15T09:06:25Z</time>
      </trkpt>
      <trkpt lat="37.9959630" lon="-2.8949560">
        <ele>715.6</ele>
        <time>2020-07-15T09:06:27Z</time>
      </trkpt>
      <trkpt lat="37.9957650" lon="-2.8951770">
        <ele>715.2</ele>
        <time>2020-07-15T09:06:30Z</time>
      </trkpt>
      <trkpt lat="37.9957110" lon="-2.8952670">
        <ele>715.0</ele>
        <time>2020-07-15T09:06:31Z</time>
      </trkpt>
      <trkpt lat="37.9956240" lon="-2.8954500">
        <ele>714.6</ele>
        <time>2020-07-15T09:06:33Z</time>
      </trkpt>
      <trkpt lat="37.9954840" lon="-2.8957550">
        <ele>713.8</ele>
        <time>2020-07-15T09:06:36Z</time>
      </trkpt>
      <trkpt lat="37.9954080" lon="-2.8959510">
        <ele>713.6</ele>
        <time>2020-07-15T09:06:38Z</time>
      </trkpt>
      <trkpt lat="37.9952780" lon="-2.8963670">
        <ele>713.0</ele>
        <time>2020-07-15T09:06:42Z</time>
      </trkpt>
      <trkpt lat="37.9951080" lon="-2.8970670">
        <ele>713.0</ele>
        <time>2020-07-15T09:06:49Z</time>
      </trkpt>
      <trkpt lat="37.9950860" lon="-2.8971600">
        <ele>713.0</ele>
        <time>2020-07-15T09:06:50Z</time>
      </trkpt>
      <trkpt lat="37.9949380" lon="-2.8977380">
        <ele>712.8</ele>
        <time>2020-07-15T09:06:56Z</time>
      </trkpt>
      <trkpt lat="37.9949000" lon="-2.8978210">
        <ele>712.6</ele>
        <time>2020-07-15T09:06:57Z</time>
      </trkpt>
      <trkpt lat="37.9947150" lon="-2.8980000">
        <ele>712.8</ele>
        <time>2020-07-15T09:07:00Z</time>
      </trkpt>
      <trkpt lat="37.9944920" lon="-2.8980070">
        <ele>713.0</ele>
        <time>2020-07-15T09:07:03Z</time>
      </trkpt>
      <trkpt lat="37.9943460" lon="-2.8980140">
        <ele>713.2</ele>
        <time>2020-07-15T09:07:05Z</time>
      </trkpt>
      <trkpt lat="37.9942130" lon="-2.8980790">
        <ele>713.2</ele>
        <time>2020-07-15T09:07:07Z</time>
      </trkpt>
      <trkpt lat="37.9940970" lon="-2.8981770">
        <ele>713.4</ele>
        <time>2020-07-15T09:07:09Z</time>
      </trkpt>
      <trkpt lat="37.9939240" lon="-2.8983200">
        <ele>713.8</ele>
        <time>2020-07-15T09:07:12Z</time>
      </trkpt>
      <trkpt lat="37.9936890" lon="-2.8984810">
        <ele>714.4</ele>
        <time>2020-07-15T09:07:16Z</time>
      </trkpt>
      <trkpt lat="37.9935690" lon="-2.8985450">
        <ele>714.4</ele>
        <time>2020-07-15T09:07:18Z</time>
      </trkpt>
      <trkpt lat="37.9935000" lon="-2.8985840">
        <ele>714.6</ele>
        <time>2020-07-15T09:07:19Z</time>
      </trkpt>
      <trkpt lat="37.9933690" lon="-2.8986540">
        <ele>714.8</ele>
        <time>2020-07-15T09:07:21Z</time>
      </trkpt>
      <trkpt lat="37.9932440" lon="-2.8986940">
        <ele>715.0</ele>
        <time>2020-07-15T09:07:23Z</time>
      </trkpt>
      <trkpt lat="37.9930140" lon="-2.8987170">
        <ele>715.4</ele>
        <time>2020-07-15T09:07:26Z</time>
      </trkpt>
      <trkpt lat="37.9928640" lon="-2.8987330">
        <ele>715.4</ele>
        <time>2020-07-15T09:07:28Z</time>
      </trkpt>
      <trkpt lat="37.9927860" lon="-2.8987590">
        <ele>715.2</ele>
        <time>2020-07-15T09:07:29Z</time>
      </trkpt>
      <trkpt lat="37.9926520" lon="-2.8988940">
        <ele>714.8</ele>
        <time>2020-07-15T09:07:31Z</time>
      </trkpt>
      <trkpt lat="37.9925360" lon="-2.8992030">
        <ele>713.8</ele>
        <time>2020-07-15T09:07:34Z</time>
      </trkpt>
      <trkpt lat="37.9924940" lon="-2.8993030">
        <ele>713.6</ele>
        <time>2020-07-15T09:07:35Z</time>
      </trkpt>
      <trkpt lat="37.9923690" lon="-2.8994960">
        <ele>712.8</ele>
        <time>2020-07-15T09:07:37Z</time>
      </trkpt>
      <trkpt lat="37.9922180" lon="-2.8996520">
        <ele>712.4</ele>
        <time>2020-07-15T09:07:39Z</time>
      </trkpt>
      <trkpt lat="37.9920500" lon="-2.8997480">
        <ele>711.8</ele>
        <time>2020-07-15T09:07:41Z</time>
      </trkpt>
      <trkpt lat="37.9919580" lon="-2.8997880">
        <ele>711.4</ele>
        <time>2020-07-15T09:07:42Z</time>
      </trkpt>
      <trkpt lat="37.9918780" lon="-2.8998150">
        <ele>711.0</ele>
        <time>2020-07-15T09:07:43Z</time>
      </trkpt>
      <trkpt lat="37.9916060" lon="-2.8998760">
        <ele>710.8</ele>
        <time>2020-07-15T09:07:46Z</time>
      </trkpt>
      <trkpt lat="37.9914410" lon="-2.8998980">
        <ele>710.8</ele>
        <time>2020-07-15T09:07:48Z</time>
      </trkpt>
      <trkpt lat="37.9912720" lon="-2.8999530">
        <ele>710.8</ele>
        <time>2020-07-15T09:07:50Z</time>
      </trkpt>
      <trkpt lat="37.9912040" lon="-2.9000160">
        <ele>710.8</ele>
        <time>2020-07-15T09:07:51Z</time>
      </trkpt>
      <trkpt lat="37.9910910" lon="-2.9002960">
        <ele>710.6</ele>
        <time>2020-07-15T09:07:54Z</time>
      </trkpt>
      <trkpt lat="37.9910870" lon="-2.9006040">
        <ele>710.6</ele>
        <time>2020-07-15T09:07:57Z</time>
      </trkpt>
      <trkpt lat="37.9910990" lon="-2.9006940">
        <ele>710.6</ele>
        <time>2020-07-15T09:07:58Z</time>
      </trkpt>
      <trkpt lat="37.9911200" lon="-2.9009860">
        <ele>711.0</ele>
        <time>2020-07-15T09:08:01Z</time>
      </trkpt>
      <trkpt lat="37.9911020" lon="-2.9010690">
        <ele>711.2</ele>
        <time>2020-07-15T09:08:02Z</time>
      </trkpt>
      <trkpt lat="37.9910190" lon="-2.9012730">
        <ele>711.8</ele>
        <time>2020-07-15T09:08:05Z</time>
      </trkpt>
      <trkpt lat="37.9909860" lon="-2.9013410">
        <ele>712.0</ele>
        <time>2020-07-15T09:08:06Z</time>
      </trkpt>
      <trkpt lat="37.9909600" lon="-2.9014070">
        <ele>712.4</ele>
        <time>2020-07-15T09:08:07Z</time>
      </trkpt>
      <trkpt lat="37.9909130" lon="-2.9016120">
        <ele>713.4</ele>
        <time>2020-07-15T09:08:10Z</time>
      </trkpt>
      <trkpt lat="37.9908660" lon="-2.9018070">
        <ele>714.2</ele>
        <time>2020-07-15T09:08:13Z</time>
      </trkpt>
      <trkpt lat="37.9908400" lon="-2.9018720">
        <ele>714.4</ele>
        <time>2020-07-15T09:08:14Z</time>
      </trkpt>
      <trkpt lat="37.9907490" lon="-2.9020200">
        <ele>715.2</ele>
        <time>2020-07-15T09:08:17Z</time>
      </trkpt>
      <trkpt lat="37.9906840" lon="-2.9021110">
        <ele>715.6</ele>
        <time>2020-07-15T09:08:19Z</time>
      </trkpt>
      <trkpt lat="37.9905190" lon="-2.9023000">
        <ele>716.8</ele>
        <time>2020-07-15T09:08:24Z</time>
      </trkpt>
      <trkpt lat="37.9903900" lon="-2.9024610">
        <ele>717.8</ele>
        <time>2020-07-15T09:08:28Z</time>
      </trkpt>
      <trkpt lat="37.9903620" lon="-2.9025030">
        <ele>718.0</ele>
        <time>2020-07-15T09:08:29Z</time>
      </trkpt>
      <trkpt lat="37.9903370" lon="-2.9025530">
        <ele>718.2</ele>
        <time>2020-07-15T09:08:30Z</time>
      </trkpt>
      <trkpt lat="37.9902770" lon="-2.9026870">
        <ele>719.0</ele>
        <time>2020-07-15T09:08:33Z</time>
      </trkpt>
      <trkpt lat="37.9902530" lon="-2.9027350">
        <ele>719.2</ele>
        <time>2020-07-15T09:08:34Z</time>
      </trkpt>
      <trkpt lat="37.9901760" lon="-2.9028700">
        <ele>720.0</ele>
        <time>2020-07-15T09:08:37Z</time>
      </trkpt>
      <trkpt lat="37.9901480" lon="-2.9029040">
        <ele>720.2</ele>
        <time>2020-07-15T09:08:38Z</time>
      </trkpt>
      <trkpt lat="37.9901110" lon="-2.9029340">
        <ele>720.4</ele>
        <time>2020-07-15T09:08:39Z</time>
      </trkpt>
      <trkpt lat="37.9900070" lon="-2.9030050">
        <ele>721.2</ele>
        <time>2020-07-15T09:08:42Z</time>
      </trkpt>
      <trkpt lat="37.9899750" lon="-2.9030250">
        <ele>721.4</ele>
        <time>2020-07-15T09:08:43Z</time>
      </trkpt>
      <trkpt lat="37.9899040" lon="-2.9030720">
        <ele>721.8</ele>
        <time>2020-07-15T09:08:45Z</time>
      </trkpt>
      <trkpt lat="37.9898390" lon="-2.9031150">
        <ele>722.2</ele>
        <time>2020-07-15T09:08:47Z</time>
      </trkpt>
      <trkpt lat="37.9896780" lon="-2.9032350">
        <ele>723.4</ele>
        <time>2020-07-15T09:08:52Z</time>
      </trkpt>
      <trkpt lat="37.9895270" lon="-2.9034230">
        <ele>724.4</ele>
        <time>2020-07-15T09:08:58Z</time>
      </trkpt>
      <trkpt lat="37.9895040" lon="-2.9034570">
        <ele>724.6</ele>
        <time>2020-07-15T09:08:59Z</time>
      </trkpt>
      <trkpt lat="37.9894060" lon="-2.9035930">
        <ele>725.4</ele>
        <time>2020-07-15T09:09:03Z</time>
      </trkpt>
      <trkpt lat="37.9893500" lon="-2.9036410">
        <ele>726.0</ele>
        <time>2020-07-15T09:09:05Z</time>
      </trkpt>
      <trkpt lat="37.9892150" lon="-2.9037020">
        <ele>726.6</ele>
        <time>2020-07-15T09:09:09Z</time>
      </trkpt>
      <trkpt lat="37.9891480" lon="-2.9037130">
        <ele>727.0</ele>
        <time>2020-07-15T09:09:11Z</time>
      </trkpt>
      <trkpt lat="37.9890170" lon="-2.9037280">
        <ele>727.8</ele>
        <time>2020-07-15T09:09:15Z</time>
      </trkpt>
      <trkpt lat="37.9889110" lon="-2.9037630">
        <ele>728.2</ele>
        <time>2020-07-15T09:09:18Z</time>
      </trkpt>
      <trkpt lat="37.9887790" lon="-2.9038810">
        <ele>728.8</ele>
        <time>2020-07-15T09:09:22Z</time>
      </trkpt>
      <trkpt lat="37.9887570" lon="-2.9039160">
        <ele>728.8</ele>
        <time>2020-07-15T09:09:23Z</time>
      </trkpt>
      <trkpt lat="37.9886780" lon="-2.9041980">
        <ele>729.4</ele>
        <time>2020-07-15T09:09:28Z</time>
      </trkpt>
      <trkpt lat="37.9886710" lon="-2.9043970">
        <ele>729.6</ele>
        <time>2020-07-15T09:09:31Z</time>
      </trkpt>
      <trkpt lat="37.9886520" lon="-2.9046020">
        <ele>729.8</ele>
        <time>2020-07-15T09:09:34Z</time>
      </trkpt>
      <trkpt lat="37.9886380" lon="-2.9046650">
        <ele>729.8</ele>
        <time>2020-07-15T09:09:35Z</time>
      </trkpt>
      <trkpt lat="37.9886180" lon="-2.9047330">
        <ele>729.8</ele>
        <time>2020-07-15T09:09:36Z</time>
      </trkpt>
      <trkpt lat="37.9885340" lon="-2.9049130">
        <ele>730.0</ele>
        <time>2020-07-15T09:09:39Z</time>
      </trkpt>
      <trkpt lat="37.9883520" lon="-2.9051610">
        <ele>730.8</ele>
        <time>2020-07-15T09:09:44Z</time>
      </trkpt>
      <trkpt lat="37.9883130" lon="-2.9052070">
        <ele>730.8</ele>
        <time>2020-07-15T09:09:45Z</time>
      </trkpt>
      <trkpt lat="37.9882720" lon="-2.9052510">
        <ele>731.0</ele>
        <time>2020-07-15T09:09:46Z</time>
      </trkpt>
      <trkpt lat="37.9880050" lon="-2.9055480">
        <ele>731.6</ele>
        <time>2020-07-15T09:09:53Z</time>
      </trkpt>
      <trkpt lat="37.9878960" lon="-2.9056800">
        <ele>732.2</ele>
        <time>2020-07-15T09:09:56Z</time>
      </trkpt>
      <trkpt lat="37.9877590" lon="-2.9058300">
        <ele>733.0</ele>
        <time>2020-07-15T09:10:00Z</time>
      </trkpt>
      <trkpt lat="37.9876940" lon="-2.9059090">
        <ele>733.4</ele>
        <time>2020-07-15T09:10:02Z</time>
      </trkpt>
      <trkpt lat="37.9875560" lon="-2.9060550">
        <ele>734.4</ele>
        <time>2020-07-15T09:10:06Z</time>
      </trkpt>
      <trkpt lat="37.9874350" lon="-2.9062110">
        <ele>735.2</ele>
        <time>2020-07-15T09:10:10Z</time>
      </trkpt>
      <trkpt lat="37.9874090" lon="-2.9062550">
        <ele>735.4</ele>
        <time>2020-07-15T09:10:11Z</time>
      </trkpt>
      <trkpt lat="37.9873780" lon="-2.9063060">
        <ele>735.6</ele>
        <time>2020-07-15T09:10:12Z</time>
      </trkpt>
      <trkpt lat="37.9872610" lon="-2.9065410">
        <ele>737.0</ele>
        <time>2020-07-15T09:10:17Z</time>
      </trkpt>
      <trkpt lat="37.9872380" lon="-2.9065860">
        <ele>737.0</ele>
        <time>2020-07-15T09:10:18Z</time>
      </trkpt>
      <trkpt lat="37.9871680" lon="-2.9067340">
        <ele>737.6</ele>
        <time>2020-07-15T09:10:21Z</time>
      </trkpt>
      <trkpt lat="37.9871160" lon="-2.9068050">
        <ele>738.0</ele>
        <time>2020-07-15T09:10:23Z</time>
      </trkpt>
      <trkpt lat="37.9870770" lon="-2.9068460">
        <ele>738.2</ele>
        <time>2020-07-15T09:10:24Z</time>
      </trkpt>
      <trkpt lat="37.9869680" lon="-2.9069400">
        <ele>738.8</ele>
        <time>2020-07-15T09:10:27Z</time>
      </trkpt>
      <trkpt lat="37.9869290" lon="-2.9069600">
        <ele>739.0</ele>
        <time>2020-07-15T09:10:28Z</time>
      </trkpt>
      <trkpt lat="37.9868880" lon="-2.9069800">
        <ele>739.2</ele>
        <time>2020-07-15T09:10:29Z</time>
      </trkpt>
      <trkpt lat="37.9868050" lon="-2.9070010">
        <ele>739.6</ele>
        <time>2020-07-15T09:10:31Z</time>
      </trkpt>
      <trkpt lat="37.9867230" lon="-2.9069950">
        <ele>740.0</ele>
        <time>2020-07-15T09:10:33Z</time>
      </trkpt>
      <trkpt lat="37.9866340" lon="-2.9069680">
        <ele>740.4</ele>
        <time>2020-07-15T09:10:35Z</time>
      </trkpt>
      <trkpt lat="37.9865100" lon="-2.9068930">
        <ele>740.8</ele>
        <time>2020-07-15T09:10:38Z</time>
      </trkpt>
      <trkpt lat="37.9864640" lon="-2.9068580">
        <ele>741.0</ele>
        <time>2020-07-15T09:10:39Z</time>
      </trkpt>
      <trkpt lat="37.9863370" lon="-2.9067570">
        <ele>741.4</ele>
        <time>2020-07-15T09:10:42Z</time>
      </trkpt>
      <trkpt lat="37.9861920" lon="-2.9066750">
        <ele>741.6</ele>
        <time>2020-07-15T09:10:45Z</time>
      </trkpt>
      <trkpt lat="37.9861370" lon="-2.9066670">
        <ele>741.6</ele>
        <time>2020-07-15T09:10:46Z</time>
      </trkpt>
      <trkpt lat="37.9860180" lon="-2.9066830">
        <ele>741.6</ele>
        <time>2020-07-15T09:10:48Z</time>
      </trkpt>
      <trkpt lat="37.9858840" lon="-2.9067290">
        <ele>741.4</ele>
        <time>2020-07-15T09:10:50Z</time>
      </trkpt>
      <trkpt lat="37.9856810" lon="-2.9068060">
        <ele>740.8</ele>
        <time>2020-07-15T09:10:53Z</time>
      </trkpt>
      <trkpt lat="37.9854450" lon="-2.9068990">
        <ele>740.2</ele>
        <time>2020-07-15T09:10:56Z</time>
      </trkpt>
      <trkpt lat="37.9852070" lon="-2.9070010">
        <ele>739.4</ele>
        <time>2020-07-15T09:10:59Z</time>
      </trkpt>
      <trkpt lat="37.9851230" lon="-2.9070490">
        <ele>739.0</ele>
        <time>2020-07-15T09:11:00Z</time>
      </trkpt>
      <trkpt lat="37.9849640" lon="-2.9071410">
        <ele>738.6</ele>
        <time>2020-07-15T09:11:02Z</time>
      </trkpt>
      <trkpt lat="37.9847950" lon="-2.9072150">
        <ele>738.2</ele>
        <time>2020-07-15T09:11:04Z</time>
      </trkpt>
      <trkpt lat="37.9846170" lon="-2.9072520">
        <ele>738.0</ele>
        <time>2020-07-15T09:11:06Z</time>
      </trkpt>
      <trkpt lat="37.9844390" lon="-2.9072840">
        <ele>737.4</ele>
        <time>2020-07-15T09:11:08Z</time>
      </trkpt>
      <trkpt lat="37.9842490" lon="-2.9073410">
        <ele>736.8</ele>
        <time>2020-07-15T09:11:10Z</time>
      </trkpt>
      <trkpt lat="37.9840690" lon="-2.9074120">
        <ele>736.4</ele>
        <time>2020-07-15T09:11:12Z</time>
      </trkpt>
      <trkpt lat="37.9838930" lon="-2.9074910">
        <ele>735.6</ele>
        <time>2020-07-15T09:11:14Z</time>
      </trkpt>
      <trkpt lat="37.9835410" lon="-2.9076580">
        <ele>734.8</ele>
        <time>2020-07-15T09:11:18Z</time>
      </trkpt>
      <trkpt lat="37.9833730" lon="-2.9077760">
        <ele>734.4</ele>
        <time>2020-07-15T09:11:20Z</time>
      </trkpt>
      <trkpt lat="37.9830670" lon="-2.9080290">
        <ele>734.0</ele>
        <time>2020-07-15T09:11:24Z</time>
      </trkpt>
      <trkpt lat="37.9827510" lon="-2.9083590">
        <ele>734.2</ele>
        <time>2020-07-15T09:11:29Z</time>
      </trkpt>
      <trkpt lat="37.9826110" lon="-2.9084500">
        <ele>734.4</ele>
        <time>2020-07-15T09:11:31Z</time>
      </trkpt>
      <trkpt lat="37.9824700" lon="-2.9085080">
        <ele>734.6</ele>
        <time>2020-07-15T09:11:33Z</time>
      </trkpt>
      <trkpt lat="37.9820070" lon="-2.9087170">
        <ele>734.4</ele>
        <time>2020-07-15T09:11:39Z</time>
      </trkpt>
      <trkpt lat="37.9817470" lon="-2.9088200">
        <ele>733.4</ele>
        <time>2020-07-15T09:11:42Z</time>
      </trkpt>
      <trkpt lat="37.9816640" lon="-2.9088380">
        <ele>733.0</ele>
        <time>2020-07-15T09:11:43Z</time>
      </trkpt>
      <trkpt lat="37.9815590" lon="-2.9088430">
        <ele>732.8</ele>
        <time>2020-07-15T09:11:44Z</time>
      </trkpt>
      <trkpt lat="37.9813770" lon="-2.9088070">
        <ele>732.2</ele>
        <time>2020-07-15T09:11:46Z</time>
      </trkpt>
      <trkpt lat="37.9812990" lon="-2.9087720">
        <ele>731.8</ele>
        <time>2020-07-15T09:11:47Z</time>
      </trkpt>
      <trkpt lat="37.9810630" lon="-2.9086140">
        <ele>731.6</ele>
        <time>2020-07-15T09:11:50Z</time>
      </trkpt>
      <trkpt lat="37.9809900" lon="-2.9085580">
        <ele>731.4</ele>
        <time>2020-07-15T09:11:51Z</time>
      </trkpt>
      <trkpt lat="37.9807010" lon="-2.9083310">
        <ele>731.2</ele>
        <time>2020-07-15T09:11:55Z</time>
      </trkpt>
      <trkpt lat="37.9804330" lon="-2.9081190">
        <ele>731.2</ele>
        <time>2020-07-15T09:11:59Z</time>
      </trkpt>
      <trkpt lat="37.9799620" lon="-2.9077530">
        <ele>731.6</ele>
        <time>2020-07-15T09:12:06Z</time>
      </trkpt>
      <trkpt lat="37.9797650" lon="-2.9075990">
        <ele>731.6</ele>
        <time>2020-07-15T09:12:09Z</time>
      </trkpt>
      <trkpt lat="37.9794290" lon="-2.9073910">
        <ele>731.6</ele>
        <time>2020-07-15T09:12:14Z</time>
      </trkpt>
      <trkpt lat="37.9793560" lon="-2.9073710">
        <ele>731.6</ele>
        <time>2020-07-15T09:12:15Z</time>
      </trkpt>
      <trkpt lat="37.9789170" lon="-2.9072260">
        <ele>732.0</ele>
        <time>2020-07-15T09:12:21Z</time>
      </trkpt>
      <trkpt lat="37.9788490" lon="-2.9071920">
        <ele>732.0</ele>
        <time>2020-07-15T09:12:22Z</time>
      </trkpt>
      <trkpt lat="37.9785750" lon="-2.9070470">
        <ele>732.0</ele>
        <time>2020-07-15T09:12:26Z</time>
      </trkpt>
      <trkpt lat="37.9785090" lon="-2.9070110">
        <ele>732.2</ele>
        <time>2020-07-15T09:12:27Z</time>
      </trkpt>
      <trkpt lat="37.9783210" lon="-2.9069020">
        <ele>732.6</ele>
        <time>2020-07-15T09:12:30Z</time>
      </trkpt>
      <trkpt lat="37.9780280" lon="-2.9067300">
        <ele>733.2</ele>
        <time>2020-07-15T09:12:35Z</time>
      </trkpt>
      <trkpt lat="37.9778540" lon="-2.9066330">
        <ele>733.6</ele>
        <time>2020-07-15T09:12:38Z</time>
      </trkpt>
      <trkpt lat="37.9775210" lon="-2.9064420">
        <ele>734.4</ele>
        <time>2020-07-15T09:12:44Z</time>
      </trkpt>
      <trkpt lat="37.9774140" lon="-2.9063850">
        <ele>734.6</ele>
        <time>2020-07-15T09:12:46Z</time>
      </trkpt>
      <trkpt lat="37.9770540" lon="-2.9061850">
        <ele>735.2</ele>
        <time>2020-07-15T09:12:53Z</time>
      </trkpt>
      <trkpt lat="37.9769450" lon="-2.9061230">
        <ele>735.4</ele>
        <time>2020-07-15T09:12:55Z</time>
      </trkpt>
      <trkpt lat="37.9766840" lon="-2.9059810">
        <ele>736.0</ele>
        <time>2020-07-15T09:13:00Z</time>
      </trkpt>
      <trkpt lat="37.9765590" lon="-2.9059420">
        <ele>736.0</ele>
        <time>2020-07-15T09:13:02Z</time>
      </trkpt>
      <trkpt lat="37.9763960" lon="-2.9059400">
        <ele>736.4</ele>
        <time>2020-07-15T09:13:05Z</time>
      </trkpt>
      <trkpt lat="37.9763400" lon="-2.9059450">
        <ele>736.4</ele>
        <time>2020-07-15T09:13:06Z</time>
      </trkpt>
      <trkpt lat="37.9761120" lon="-2.9059870">
        <ele>737.4</ele>
        <time>2020-07-15T09:13:10Z</time>
      </trkpt>
      <trkpt lat="37.9759910" lon="-2.9060090">
        <ele>737.6</ele>
        <time>2020-07-15T09:13:12Z</time>
      </trkpt>
      <trkpt lat="37.9754930" lon="-2.9060830">
        <ele>737.8</ele>
        <time>2020-07-15T09:13:20Z</time>
      </trkpt>
      <trkpt lat="37.9750400" lon="-2.9061500">
        <ele>738.0</ele>
        <time>2020-07-15T09:13:27Z</time>
      </trkpt>
      <trkpt lat="37.9746930" lon="-2.9062250">
        <ele>737.6</ele>
        <time>2020-07-15T09:13:32Z</time>
      </trkpt>
      <trkpt lat="37.9746270" lon="-2.9062590">
        <ele>737.6</ele>
        <time>2020-07-15T09:13:33Z</time>
      </trkpt>
      <trkpt lat="37.9744620" lon="-2.9064570">
        <ele>737.2</ele>
        <time>2020-07-15T09:13:36Z</time>
      </trkpt>
      <trkpt lat="37.9743650" lon="-2.9068040">
        <ele>737.0</ele>
        <time>2020-07-15T09:13:40Z</time>
      </trkpt>
      <trkpt lat="37.9743550" lon="-2.9068940">
        <ele>737.0</ele>
        <time>2020-07-15T09:13:41Z</time>
      </trkpt>
      <trkpt lat="37.9743190" lon="-2.9072650">
        <ele>737.0</ele>
        <time>2020-07-15T09:13:45Z</time>
      </trkpt>
      <trkpt lat="37.9742940" lon="-2.9073570">
        <ele>737.2</ele>
        <time>2020-07-15T09:13:46Z</time>
      </trkpt>
      <trkpt lat="37.9742170" lon="-2.9075100">
        <ele>737.0</ele>
        <time>2020-07-15T09:13:48Z</time>
      </trkpt>
      <trkpt lat="37.9739320" lon="-2.9079080">
        <ele>737.4</ele>
        <time>2020-07-15T09:13:54Z</time>
      </trkpt>
      <trkpt lat="37.9736200" lon="-2.9083500">
        <ele>738.0</ele>
        <time>2020-07-15T09:14:01Z</time>
      </trkpt>
      <trkpt lat="37.9734370" lon="-2.9085970">
        <ele>738.4</ele>
        <time>2020-07-15T09:14:05Z</time>
      </trkpt>
      <trkpt lat="37.9733310" lon="-2.9087120">
        <ele>738.2</ele>
        <time>2020-07-15T09:14:07Z</time>
      </trkpt>
      <trkpt lat="37.9732790" lon="-2.9087560">
        <ele>738.2</ele>
        <time>2020-07-15T09:14:08Z</time>
      </trkpt>
      <trkpt lat="37.9730640" lon="-2.9089670">
        <ele>738.2</ele>
        <time>2020-07-15T09:14:12Z</time>
      </trkpt>
      <trkpt lat="37.9728360" lon="-2.9092640">
        <ele>738.2</ele>
        <time>2020-07-15T09:14:17Z</time>
      </trkpt>
      <trkpt lat="37.9724470" lon="-2.9098200">
        <ele>738.6</ele>
        <time>2020-07-15T09:14:26Z</time>
      </trkpt>
      <trkpt lat="37.9724010" lon="-2.9098770">
        <ele>738.8</ele>
        <time>2020-07-15T09:14:27Z</time>
      </trkpt>
      <trkpt lat="37.9722440" lon="-2.9100170">
        <ele>739.0</ele>
        <time>2020-07-15T09:14:30Z</time>
      </trkpt>
      <trkpt lat="37.9721150" lon="-2.9100580">
        <ele>739.2</ele>
        <time>2020-07-15T09:14:32Z</time>
      </trkpt>
      <trkpt lat="37.9719830" lon="-2.9100780">
        <ele>739.2</ele>
        <time>2020-07-15T09:14:34Z</time>
      </trkpt>
      <trkpt lat="37.9717260" lon="-2.9101170">
        <ele>739.4</ele>
        <time>2020-07-15T09:14:38Z</time>
      </trkpt>
      <trkpt lat="37.9714120" lon="-2.9102140">
        <ele>739.8</ele>
        <time>2020-07-15T09:14:43Z</time>
      </trkpt>
      <trkpt lat="37.9713490" lon="-2.9102560">
        <ele>739.8</ele>
        <time>2020-07-15T09:14:44Z</time>
      </trkpt>
      <trkpt lat="37.9709650" lon="-2.9105700">
        <ele>740.4</ele>
        <time>2020-07-15T09:14:51Z</time>
      </trkpt>
      <trkpt lat="37.9709090" lon="-2.9106150">
        <ele>740.4</ele>
        <time>2020-07-15T09:14:52Z</time>
      </trkpt>
      <trkpt lat="37.9707980" lon="-2.9107070">
        <ele>740.6</ele>
        <time>2020-07-15T09:14:54Z</time>
      </trkpt>
      <trkpt lat="37.9706310" lon="-2.9108510">
        <ele>740.6</ele>
        <time>2020-07-15T09:14:57Z</time>
      </trkpt>
      <trkpt lat="37.9705370" lon="-2.9109570">
        <ele>740.8</ele>
        <time>2020-07-15T09:14:59Z</time>
      </trkpt>
      <trkpt lat="37.9703780" lon="-2.9111090">
        <ele>741.2</ele>
        <time>2020-07-15T09:15:02Z</time>
      </trkpt>
      <trkpt lat="37.9701640" lon="-2.9114120">
        <ele>741.6</ele>
        <time>2020-07-15T09:15:07Z</time>
      </trkpt>
      <trkpt lat="37.9700930" lon="-2.9115440">
        <ele>741.6</ele>
        <time>2020-07-15T09:15:09Z</time>
      </trkpt>
      <trkpt lat="37.9700640" lon="-2.9116950">
        <ele>741.8</ele>
        <time>2020-07-15T09:15:11Z</time>
      </trkpt>
      <trkpt lat="37.9700970" lon="-2.9119950">
        <ele>742.2</ele>
        <time>2020-07-15T09:15:15Z</time>
      </trkpt>
      <trkpt lat="37.9701450" lon="-2.9121330">
        <ele>742.2</ele>
        <time>2020-07-15T09:15:17Z</time>
      </trkpt>
      <trkpt lat="37.9701810" lon="-2.9122070">
        <ele>742.4</ele>
        <time>2020-07-15T09:15:18Z</time>
      </trkpt>
      <trkpt lat="37.9702680" lon="-2.9123380">
        <ele>742.4</ele>
        <time>2020-07-15T09:15:20Z</time>
      </trkpt>
      <trkpt lat="37.9703130" lon="-2.9124000">
        <ele>742.6</ele>
        <time>2020-07-15T09:15:21Z</time>
      </trkpt>
      <trkpt lat="37.9704970" lon="-2.9126420">
        <ele>742.6</ele>
        <time>2020-07-15T09:15:25Z</time>
      </trkpt>
      <trkpt lat="37.9705410" lon="-2.9126990">
        <ele>742.6</ele>
        <time>2020-07-15T09:15:26Z</time>
      </trkpt>
      <trkpt lat="37.9707120" lon="-2.9129650">
        <ele>743.0</ele>
        <time>2020-07-15T09:15:30Z</time>
      </trkpt>
      <trkpt lat="37.9707540" lon="-2.9131310">
        <ele>743.2</ele>
        <time>2020-07-15T09:15:32Z</time>
      </trkpt>
      <trkpt lat="37.9706970" lon="-2.9133970">
        <ele>743.0</ele>
        <time>2020-07-15T09:15:35Z</time>
      </trkpt>
      <trkpt lat="37.9705110" lon="-2.9135700">
        <ele>742.8</ele>
        <time>2020-07-15T09:15:38Z</time>
      </trkpt>
      <trkpt lat="37.9702150" lon="-2.9136750">
        <ele>742.2</ele>
        <time>2020-07-15T09:15:42Z</time>
      </trkpt>
      <trkpt lat="37.9700080" lon="-2.9135840">
        <ele>742.4</ele>
        <time>2020-07-15T09:15:45Z</time>
      </trkpt>
      <trkpt lat="37.9699450" lon="-2.9135410">
        <ele>742.4</ele>
        <time>2020-07-15T09:15:46Z</time>
      </trkpt>
      <trkpt lat="37.9695680" lon="-2.9133130">
        <ele>742.8</ele>
        <time>2020-07-15T09:15:52Z</time>
      </trkpt>
      <trkpt lat="37.9691720" lon="-2.9131680">
        <ele>742.8</ele>
        <time>2020-07-15T09:15:58Z</time>
      </trkpt>
      <trkpt lat="37.9687040" lon="-2.9130700">
        <ele>743.0</ele>
        <time>2020-07-15T09:16:05Z</time>
      </trkpt>
      <trkpt lat="37.9686270" lon="-2.9130450">
        <ele>743.2</ele>
        <time>2020-07-15T09:16:06Z</time>
      </trkpt>
      <trkpt lat="37.9685160" lon="-2.9129980">
        <ele>743.6</ele>
        <time>2020-07-15T09:16:08Z</time>
      </trkpt>
      <trkpt lat="37.9684790" lon="-2.9129710">
        <ele>743.6</ele>
        <time>2020-07-15T09:16:09Z</time>
      </trkpt>
      <trkpt lat="37.9683350" lon="-2.9128370">
        <ele>744.4</ele>
        <time>2020-07-15T09:16:12Z</time>
      </trkpt>
      <trkpt lat="37.9682580" lon="-2.9127450">
        <ele>745.0</ele>
        <time>2020-07-15T09:16:14Z</time>
      </trkpt>
      <trkpt lat="37.9681230" lon="-2.9125840">
        <ele>746.0</ele>
        <time>2020-07-15T09:16:18Z</time>
      </trkpt>
      <trkpt lat="37.9680890" lon="-2.9125470">
        <ele>746.2</ele>
        <time>2020-07-15T09:16:19Z</time>
      </trkpt>
      <trkpt lat="37.9679220" lon="-2.9124010">
        <ele>747.4</ele>
        <time>2020-07-15T09:16:24Z</time>
      </trkpt>
      <trkpt lat="37.9678910" lon="-2.9123850">
        <ele>747.6</ele>
        <time>2020-07-15T09:16:25Z</time>
      </trkpt>
      <trkpt lat="37.9677850" lon="-2.9123250">
        <ele>748.4</ele>
        <time>2020-07-15T09:16:28Z</time>
      </trkpt>
      <trkpt lat="37.9676700" lon="-2.9122710">
        <ele>749.0</ele>
        <time>2020-07-15T09:16:31Z</time>
      </trkpt>
      <trkpt lat="37.9676040" lon="-2.9122420">
        <ele>749.4</ele>
        <time>2020-07-15T09:16:33Z</time>
      </trkpt>
      <trkpt lat="37.9675290" lon="-2.9121970">
        <ele>749.8</ele>
        <time>2020-07-15T09:16:35Z</time>
      </trkpt>
      <trkpt lat="37.9674480" lon="-2.9121680">
        <ele>750.2</ele>
        <time>2020-07-15T09:16:37Z</time>
      </trkpt>
      <trkpt lat="37.9674110" lon="-2.9121600">
        <ele>750.4</ele>
        <time>2020-07-15T09:16:38Z</time>
      </trkpt>
      <trkpt lat="37.9673330" lon="-2.9121600">
        <ele>750.8</ele>
        <time>2020-07-15T09:16:40Z</time>
      </trkpt>
      <trkpt lat="37.9672220" lon="-2.9121880">
        <ele>751.4</ele>
        <time>2020-07-15T09:16:43Z</time>
      </trkpt>
      <trkpt lat="37.9671160" lon="-2.9122440">
        <ele>752.2</ele>
        <time>2020-07-15T09:16:46Z</time>
      </trkpt>
      <trkpt lat="37.9670640" lon="-2.9123050">
        <ele>752.6</ele>
        <time>2020-07-15T09:16:48Z</time>
      </trkpt>
      <trkpt lat="37.9669940" lon="-2.9124150">
        <ele>753.4</ele>
        <time>2020-07-15T09:16:51Z</time>
      </trkpt>
      <trkpt lat="37.9669720" lon="-2.9124510">
        <ele>753.8</ele>
        <time>2020-07-15T09:16:52Z</time>
      </trkpt>
      <trkpt lat="37.9668620" lon="-2.9126410">
        <ele>754.8</ele>
        <time>2020-07-15T09:16:57Z</time>
      </trkpt>
      <trkpt lat="37.9668160" lon="-2.9127070">
        <ele>755.2</ele>
        <time>2020-07-15T09:16:59Z</time>
      </trkpt>
      <trkpt lat="37.9666990" lon="-2.9128760">
        <ele>756.0</ele>
        <time>2020-07-15T09:17:04Z</time>
      </trkpt>
      <trkpt lat="37.9665290" lon="-2.9129730">
        <ele>757.0</ele>
        <time>2020-07-15T09:17:09Z</time>
      </trkpt>
      <trkpt lat="37.9664910" lon="-2.9129770">
        <ele>757.2</ele>
        <time>2020-07-15T09:17:10Z</time>
      </trkpt>
      <trkpt lat="37.9663120" lon="-2.9129800">
        <ele>758.4</ele>
        <time>2020-07-15T09:17:15Z</time>
      </trkpt>
      <trkpt lat="37.9661350" lon="-2.9130420">
        <ele>759.4</ele>
        <time>2020-07-15T09:17:20Z</time>
      </trkpt>
      <trkpt lat="37.9660750" lon="-2.9130910">
        <ele>759.8</ele>
        <time>2020-07-15T09:17:22Z</time>
      </trkpt>
      <trkpt lat="37.9659640" lon="-2.9131980">
        <ele>760.6</ele>
        <time>2020-07-15T09:17:26Z</time>
      </trkpt>
      <trkpt lat="37.9658740" lon="-2.9132650">
        <ele>761.4</ele>
        <time>2020-07-15T09:17:29Z</time>
      </trkpt>
      <trkpt lat="37.9658090" lon="-2.9133080">
        <ele>761.8</ele>
        <time>2020-07-15T09:17:31Z</time>
      </trkpt>
      <trkpt lat="37.9656220" lon="-2.9134200">
        <ele>762.8</ele>
        <time>2020-07-15T09:17:37Z</time>
      </trkpt>
      <trkpt lat="37.9655920" lon="-2.9134370">
        <ele>763.0</ele>
        <time>2020-07-15T09:17:38Z</time>
      </trkpt>
      <trkpt lat="37.9654610" lon="-2.9135090">
        <ele>763.8</ele>
        <time>2020-07-15T09:17:42Z</time>
      </trkpt>
      <trkpt lat="37.9653050" lon="-2.9135940">
        <ele>764.8</ele>
        <time>2020-07-15T09:17:47Z</time>
      </trkpt>
      <trkpt lat="37.9652730" lon="-2.9136090">
        <ele>765.0</ele>
        <time>2020-07-15T09:17:48Z</time>
      </trkpt>
      <trkpt lat="37.9651100" lon="-2.9136780">
        <ele>766.0</ele>
        <time>2020-07-15T09:17:53Z</time>
      </trkpt>
      <trkpt lat="37.9649210" lon="-2.9136360">
        <ele>767.2</ele>
        <time>2020-07-15T09:17:58Z</time>
      </trkpt>
      <trkpt lat="37.9647470" lon="-2.9134730">
        <ele>768.2</ele>
        <time>2020-07-15T09:18:04Z</time>
      </trkpt>
      <trkpt lat="37.9645850" lon="-2.9133640">
        <ele>769.4</ele>
        <time>2020-07-15T09:18:09Z</time>
      </trkpt>
      <trkpt lat="37.9645500" lon="-2.9133570">
        <ele>769.6</ele>
        <time>2020-07-15T09:18:10Z</time>
      </trkpt>
      <trkpt lat="37.9643760" lon="-2.9133790">
        <ele>770.6</ele>
        <time>2020-07-15T09:18:15Z</time>
      </trkpt>
      <trkpt lat="37.9643420" lon="-2.9133880">
        <ele>771.0</ele>
        <time>2020-07-15T09:18:16Z</time>
      </trkpt>
      <trkpt lat="37.9642420" lon="-2.9134290">
        <ele>771.6</ele>
        <time>2020-07-15T09:18:19Z</time>
      </trkpt>
      <trkpt lat="37.9641240" lon="-2.9135200">
        <ele>772.6</ele>
        <time>2020-07-15T09:18:23Z</time>
      </trkpt>
      <trkpt lat="37.9640980" lon="-2.9135550">
        <ele>772.8</ele>
        <time>2020-07-15T09:18:24Z</time>
      </trkpt>
      <trkpt lat="37.9639990" lon="-2.9137560">
        <ele>773.8</ele>
        <time>2020-07-15T09:18:29Z</time>
      </trkpt>
      <trkpt lat="37.9639020" lon="-2.9140040">
        <ele>775.0</ele>
        <time>2020-07-15T09:18:35Z</time>
      </trkpt>
      <trkpt lat="37.9638720" lon="-2.9140850">
        <ele>775.4</ele>
        <time>2020-07-15T09:18:37Z</time>
      </trkpt>
      <trkpt lat="37.9638330" lon="-2.9142100">
        <ele>776.2</ele>
        <time>2020-07-15T09:18:40Z</time>
      </trkpt>
      <trkpt lat="37.9637570" lon="-2.9144200">
        <ele>777.2</ele>
        <time>2020-07-15T09:18:45Z</time>
      </trkpt>
      <trkpt lat="37.9637420" lon="-2.9144630">
        <ele>777.4</ele>
        <time>2020-07-15T09:18:46Z</time>
      </trkpt>
      <trkpt lat="37.9636500" lon="-2.9147140">
        <ele>778.4</ele>
        <time>2020-07-15T09:18:52Z</time>
      </trkpt>
      <trkpt lat="37.9636350" lon="-2.9147530">
        <ele>778.4</ele>
        <time>2020-07-15T09:18:53Z</time>
      </trkpt>
      <trkpt lat="37.9635350" lon="-2.9149360">
        <ele>779.4</ele>
        <time>2020-07-15T09:18:58Z</time>
      </trkpt>
      <trkpt lat="37.9634530" lon="-2.9150130">
        <ele>780.0</ele>
        <time>2020-07-15T09:19:01Z</time>
      </trkpt>
      <trkpt lat="37.9633960" lon="-2.9150380">
        <ele>780.4</ele>
        <time>2020-07-15T09:19:03Z</time>
      </trkpt>
      <trkpt lat="37.9632740" lon="-2.9150950">
        <ele>781.2</ele>
        <time>2020-07-15T09:19:07Z</time>
      </trkpt>
      <trkpt lat="37.9631610" lon="-2.9151240">
        <ele>781.6</ele>
        <time>2020-07-15T09:19:10Z</time>
      </trkpt>
      <trkpt lat="37.9630880" lon="-2.9151430">
        <ele>781.8</ele>
        <time>2020-07-15T09:19:12Z</time>
      </trkpt>
      <trkpt lat="37.9629290" lon="-2.9151950">
        <ele>782.8</ele>
        <time>2020-07-15T09:19:17Z</time>
      </trkpt>
      <trkpt lat="37.9628670" lon="-2.9152260">
        <ele>783.2</ele>
        <time>2020-07-15T09:19:19Z</time>
      </trkpt>
      <trkpt lat="37.9627520" lon="-2.9152830">
        <ele>783.8</ele>
        <time>2020-07-15T09:19:23Z</time>
      </trkpt>
      <trkpt lat="37.9625750" lon="-2.9153850">
        <ele>785.0</ele>
        <time>2020-07-15T09:19:29Z</time>
      </trkpt>
      <trkpt lat="37.9625430" lon="-2.9154000">
        <ele>785.0</ele>
        <time>2020-07-15T09:19:30Z</time>
      </trkpt>
      <trkpt lat="37.9623640" lon="-2.9154920">
        <ele>786.0</ele>
        <time>2020-07-15T09:19:36Z</time>
      </trkpt>
      <trkpt lat="37.9623080" lon="-2.9155230">
        <ele>786.4</ele>
        <time>2020-07-15T09:19:38Z</time>
      </trkpt>
      <trkpt lat="37.9621910" lon="-2.9155830">
        <ele>787.2</ele>
        <time>2020-07-15T09:19:42Z</time>
      </trkpt>
      <trkpt lat="37.9620570" lon="-2.9156780">
        <ele>788.2</ele>
        <time>2020-07-15T09:19:47Z</time>
      </trkpt>
      <trkpt lat="37.9620310" lon="-2.9157000">
        <ele>788.4</ele>
        <time>2020-07-15T09:19:48Z</time>
      </trkpt>
      <trkpt lat="37.9619270" lon="-2.9158160">
        <ele>789.4</ele>
        <time>2020-07-15T09:19:53Z</time>
      </trkpt>
      <trkpt lat="37.9619080" lon="-2.9158470">
        <ele>789.6</ele>
        <time>2020-07-15T09:19:54Z</time>
      </trkpt>
      <trkpt lat="37.9618420" lon="-2.9159830">
        <ele>790.4</ele>
        <time>2020-07-15T09:19:58Z</time>
      </trkpt>
      <trkpt lat="37.9617910" lon="-2.9160950">
        <ele>791.0</ele>
        <time>2020-07-15T09:20:01Z</time>
      </trkpt>
      <trkpt lat="37.9617550" lon="-2.9161630">
        <ele>791.4</ele>
        <time>2020-07-15T09:20:03Z</time>
      </trkpt>
      <trkpt lat="37.9616430" lon="-2.9163170">
        <ele>792.4</ele>
        <time>2020-07-15T09:20:08Z</time>
      </trkpt>
      <trkpt lat="37.9616180" lon="-2.9163500">
        <ele>792.6</ele>
        <time>2020-07-15T09:20:09Z</time>
      </trkpt>
      <trkpt lat="37.9614760" lon="-2.9164710">
        <ele>793.4</ele>
        <time>2020-07-15T09:20:14Z</time>
      </trkpt>
      <trkpt lat="37.9614160" lon="-2.9165090">
        <ele>793.8</ele>
        <time>2020-07-15T09:20:16Z</time>
      </trkpt>
      <trkpt lat="37.9612890" lon="-2.9165720">
        <ele>794.4</ele>
        <time>2020-07-15T09:20:20Z</time>
      </trkpt>
      <trkpt lat="37.9611990" lon="-2.9166180">
        <ele>795.0</ele>
        <time>2020-07-15T09:20:23Z</time>
      </trkpt>
      <trkpt lat="37.9611310" lon="-2.9166510">
        <ele>795.4</ele>
        <time>2020-07-15T09:20:25Z</time>
      </trkpt>
      <trkpt lat="37.9609390" lon="-2.9167380">
        <ele>796.6</ele>
        <time>2020-07-15T09:20:31Z</time>
      </trkpt>
      <trkpt lat="37.9607450" lon="-2.9168340">
        <ele>797.6</ele>
        <time>2020-07-15T09:20:37Z</time>
      </trkpt>
      <trkpt lat="37.9606460" lon="-2.9168900">
        <ele>798.2</ele>
        <time>2020-07-15T09:20:40Z</time>
      </trkpt>
      <trkpt lat="37.9605480" lon="-2.9169390">
        <ele>798.8</ele>
        <time>2020-07-15T09:20:43Z</time>
      </trkpt>
      <trkpt lat="37.9604050" lon="-2.9170130">
        <ele>799.4</ele>
        <time>2020-07-15T09:20:47Z</time>
      </trkpt>
      <trkpt lat="37.9601230" lon="-2.9171460">
        <ele>799.6</ele>
        <time>2020-07-15T09:20:53Z</time>
      </trkpt>
      <trkpt lat="37.9598850" lon="-2.9172740">
        <ele>799.2</ele>
        <time>2020-07-15T09:20:57Z</time>
      </trkpt>
      <trkpt lat="37.9598250" lon="-2.9173040">
        <ele>799.2</ele>
        <time>2020-07-15T09:20:58Z</time>
      </trkpt>
      <trkpt lat="37.9595530" lon="-2.9174380">
        <ele>798.6</ele>
        <time>2020-07-15T09:21:02Z</time>
      </trkpt>
      <trkpt lat="37.9593420" lon="-2.9175440">
        <ele>798.2</ele>
        <time>2020-07-15T09:21:05Z</time>
      </trkpt>
      <trkpt lat="37.9591890" lon="-2.9176180">
        <ele>797.8</ele>
        <time>2020-07-15T09:21:07Z</time>
      </trkpt>
      <trkpt lat="37.9591170" lon="-2.9176550">
        <ele>797.6</ele>
        <time>2020-07-15T09:21:08Z</time>
      </trkpt>
      <trkpt lat="37.9589530" lon="-2.9177370">
        <ele>797.2</ele>
        <time>2020-07-15T09:21:10Z</time>
      </trkpt>
      <trkpt lat="37.9587120" lon="-2.9178570">
        <ele>796.6</ele>
        <time>2020-07-15T09:21:13Z</time>
      </trkpt>
      <trkpt lat="37.9586240" lon="-2.9178940">
        <ele>796.4</ele>
        <time>2020-07-15T09:21:14Z</time>
      </trkpt>
      <trkpt lat="37.9582510" lon="-2.9180820">
        <ele>796.4</ele>
        <time>2020-07-15T09:21:19Z</time>
      </trkpt>
      <trkpt lat="37.9577890" lon="-2.9183280">
        <ele>796.6</ele>
        <time>2020-07-15T09:21:26Z</time>
      </trkpt>
      <trkpt lat="37.9574180" lon="-2.9185100">
        <ele>797.6</ele>
        <time>2020-07-15T09:21:32Z</time>
      </trkpt>
      <trkpt lat="37.9572990" lon="-2.9185730">
        <ele>797.8</ele>
        <time>2020-07-15T09:21:34Z</time>
      </trkpt>
      <trkpt lat="37.9569640" lon="-2.9187110">
        <ele>798.0</ele>
        <time>2020-07-15T09:21:39Z</time>
      </trkpt>
      <trkpt lat="37.9568840" lon="-2.9187120">
        <ele>797.8</ele>
        <time>2020-07-15T09:21:40Z</time>
      </trkpt>
      <trkpt lat="37.9566520" lon="-2.9185980">
        <ele>797.2</ele>
        <time>2020-07-15T09:21:43Z</time>
      </trkpt>
      <trkpt lat="37.9564910" lon="-2.9184840">
        <ele>796.4</ele>
        <time>2020-07-15T09:21:45Z</time>
      </trkpt>
      <trkpt lat="37.9563150" lon="-2.9184530">
        <ele>795.4</ele>
        <time>2020-07-15T09:21:47Z</time>
      </trkpt>
      <trkpt lat="37.9561530" lon="-2.9185590">
        <ele>794.4</ele>
        <time>2020-07-15T09:21:49Z</time>
      </trkpt>
      <trkpt lat="37.9560200" lon="-2.9186840">
        <ele>793.0</ele>
        <time>2020-07-15T09:21:51Z</time>
      </trkpt>
      <trkpt lat="37.9557540" lon="-2.9189130">
        <ele>792.6</ele>
        <time>2020-07-15T09:21:55Z</time>
      </trkpt>
      <trkpt lat="37.9553900" lon="-2.9191930">
        <ele>793.6</ele>
        <time>2020-07-15T09:22:01Z</time>
      </trkpt>
      <trkpt lat="37.9551630" lon="-2.9193150">
        <ele>794.0</ele>
        <time>2020-07-15T09:22:05Z</time>
      </trkpt>
      <trkpt lat="37.9550490" lon="-2.9193780">
        <ele>794.4</ele>
        <time>2020-07-15T09:22:07Z</time>
      </trkpt>
      <trkpt lat="37.9549440" lon="-2.9194370">
        <ele>794.8</ele>
        <time>2020-07-15T09:22:09Z</time>
      </trkpt>
      <trkpt lat="37.9548410" lon="-2.9195070">
        <ele>795.2</ele>
        <time>2020-07-15T09:22:11Z</time>
      </trkpt>
      <trkpt lat="37.9547410" lon="-2.9195740">
        <ele>795.6</ele>
        <time>2020-07-15T09:22:13Z</time>
      </trkpt>
      <trkpt lat="37.9545380" lon="-2.9196840">
        <ele>796.2</ele>
        <time>2020-07-15T09:22:17Z</time>
      </trkpt>
      <trkpt lat="37.9544330" lon="-2.9197410">
        <ele>796.8</ele>
        <time>2020-07-15T09:22:19Z</time>
      </trkpt>
      <trkpt lat="37.9542920" lon="-2.9198270">
        <ele>797.4</ele>
        <time>2020-07-15T09:22:22Z</time>
      </trkpt>
      <trkpt lat="37.9541120" lon="-2.9199250">
        <ele>798.2</ele>
        <time>2020-07-15T09:22:26Z</time>
      </trkpt>
      <trkpt lat="37.9540280" lon="-2.9199780">
        <ele>798.4</ele>
        <time>2020-07-15T09:22:28Z</time>
      </trkpt>
      <trkpt lat="37.9538140" lon="-2.9201040">
        <ele>799.2</ele>
        <time>2020-07-15T09:22:33Z</time>
      </trkpt>
      <trkpt lat="37.9537730" lon="-2.9201360">
        <ele>799.6</ele>
        <time>2020-07-15T09:22:34Z</time>
      </trkpt>
      <trkpt lat="37.9537300" lon="-2.9201590">
        <ele>799.8</ele>
        <time>2020-07-15T09:22:35Z</time>
      </trkpt>
      <trkpt lat="37.9535950" lon="-2.9202240">
        <ele>800.4</ele>
        <time>2020-07-15T09:22:38Z</time>
      </trkpt>
      <trkpt lat="37.9535510" lon="-2.9202470">
        <ele>800.6</ele>
        <time>2020-07-15T09:22:39Z</time>
      </trkpt>
      <trkpt lat="37.9535120" lon="-2.9202830">
        <ele>800.6</ele>
        <time>2020-07-15T09:22:40Z</time>
      </trkpt>
      <trkpt lat="37.9533970" lon="-2.9203400">
        <ele>801.2</ele>
        <time>2020-07-15T09:22:43Z</time>
      </trkpt>
      <trkpt lat="37.9533110" lon="-2.9203840">
        <ele>801.6</ele>
        <time>2020-07-15T09:22:45Z</time>
      </trkpt>
      <trkpt lat="37.9532310" lon="-2.9204190">
        <ele>802.0</ele>
        <time>2020-07-15T09:22:47Z</time>
      </trkpt>
      <trkpt lat="37.9531900" lon="-2.9204380">
        <ele>802.4</ele>
        <time>2020-07-15T09:22:48Z</time>
      </trkpt>
      <trkpt lat="37.9531010" lon="-2.9204800">
        <ele>802.8</ele>
        <time>2020-07-15T09:22:50Z</time>
      </trkpt>
      <trkpt lat="37.9529180" lon="-2.9205550">
        <ele>803.4</ele>
        <time>2020-07-15T09:22:54Z</time>
      </trkpt>
      <trkpt lat="37.9528200" lon="-2.9205790">
        <ele>803.8</ele>
        <time>2020-07-15T09:22:56Z</time>
      </trkpt>
      <trkpt lat="37.9524890" lon="-2.9205840">
        <ele>804.8</ele>
        <time>2020-07-15T09:23:03Z</time>
      </trkpt>
      <trkpt lat="37.9522770" lon="-2.9206100">
        <ele>805.2</ele>
        <time>2020-07-15T09:23:07Z</time>
      </trkpt>
      <trkpt lat="37.9519230" lon="-2.9206360">
        <ele>805.8</ele>
        <time>2020-07-15T09:23:14Z</time>
      </trkpt>
      <trkpt lat="37.9518710" lon="-2.9206390">
        <ele>805.8</ele>
        <time>2020-07-15T09:23:15Z</time>
      </trkpt>
      <trkpt lat="37.9517750" lon="-2.9206450">
        <ele>806.0</ele>
        <time>2020-07-15T09:23:17Z</time>
      </trkpt>
      <trkpt lat="37.9514810" lon="-2.9206490">
        <ele>806.6</ele>
        <time>2020-07-15T09:23:23Z</time>
      </trkpt>
      <trkpt lat="37.9512700" lon="-2.9206560">
        <ele>807.0</ele>
        <time>2020-07-15T09:23:27Z</time>
      </trkpt>
      <trkpt lat="37.9510590" lon="-2.9206690">
        <ele>807.2</ele>
        <time>2020-07-15T09:23:31Z</time>
      </trkpt>
      <trkpt lat="37.9508470" lon="-2.9206770">
        <ele>807.6</ele>
        <time>2020-07-15T09:23:35Z</time>
      </trkpt>
      <trkpt lat="37.9506840" lon="-2.9206860">
        <ele>807.8</ele>
        <time>2020-07-15T09:23:38Z</time>
      </trkpt>
      <trkpt lat="37.9505740" lon="-2.9206940">
        <ele>808.0</ele>
        <time>2020-07-15T09:23:40Z</time>
      </trkpt>
      <trkpt lat="37.9502380" lon="-2.9207060">
        <ele>808.4</ele>
        <time>2020-07-15T09:23:46Z</time>
      </trkpt>
      <trkpt lat="37.9501840" lon="-2.9207080">
        <ele>808.6</ele>
        <time>2020-07-15T09:23:47Z</time>
      </trkpt>
      <trkpt lat="37.9501260" lon="-2.9207180">
        <ele>808.4</ele>
        <time>2020-07-15T09:23:48Z</time>
      </trkpt>
      <trkpt lat="37.9500030" lon="-2.9207260">
        <ele>808.0</ele>
        <time>2020-07-15T09:23:50Z</time>
      </trkpt>
      <trkpt lat="37.9498720" lon="-2.9207360">
        <ele>807.8</ele>
        <time>2020-07-15T09:23:52Z</time>
      </trkpt>
      <trkpt lat="37.9495210" lon="-2.9207500">
        <ele>807.0</ele>
        <time>2020-07-15T09:23:57Z</time>
      </trkpt>
      <trkpt lat="37.9494520" lon="-2.9207520">
        <ele>807.0</ele>
        <time>2020-07-15T09:23:58Z</time>
      </trkpt>
      <trkpt lat="37.9492980" lon="-2.9207540">
        <ele>806.6</ele>
        <time>2020-07-15T09:24:00Z</time>
      </trkpt>
      <trkpt lat="37.9491460" lon="-2.9207600">
        <ele>806.4</ele>
        <time>2020-07-15T09:24:02Z</time>
      </trkpt>
      <trkpt lat="37.9489940" lon="-2.9207700">
        <ele>805.8</ele>
        <time>2020-07-15T09:24:04Z</time>
      </trkpt>
      <trkpt lat="37.9488370" lon="-2.9207770">
        <ele>805.4</ele>
        <time>2020-07-15T09:24:06Z</time>
      </trkpt>
      <trkpt lat="37.9486200" lon="-2.9207890">
        <ele>805.4</ele>
        <time>2020-07-15T09:24:09Z</time>
      </trkpt>
      <trkpt lat="37.9484130" lon="-2.9207910">
        <ele>805.2</ele>
        <time>2020-07-15T09:24:12Z</time>
      </trkpt>
      <trkpt lat="37.9483530" lon="-2.9207970">
        <ele>805.2</ele>
        <time>2020-07-15T09:24:13Z</time>
      </trkpt>
      <trkpt lat="37.9477860" lon="-2.9208350">
        <ele>805.0</ele>
        <time>2020-07-15T09:24:22Z</time>
      </trkpt>
      <trkpt lat="37.9475940" lon="-2.9208500">
        <ele>804.8</ele>
        <time>2020-07-15T09:24:25Z</time>
      </trkpt>
      <trkpt lat="37.9472710" lon="-2.9208670">
        <ele>804.4</ele>
        <time>2020-07-15T09:24:30Z</time>
      </trkpt>
      <trkpt lat="37.9470170" lon="-2.9208880">
        <ele>803.6</ele>
        <time>2020-07-15T09:24:34Z</time>
      </trkpt>
      <trkpt lat="37.9468810" lon="-2.9208880">
        <ele>803.4</ele>
        <time>2020-07-15T09:24:36Z</time>
      </trkpt>
      <trkpt lat="37.9466800" lon="-2.9208560">
        <ele>803.0</ele>
        <time>2020-07-15T09:24:39Z</time>
      </trkpt>
      <trkpt lat="37.9465600" lon="-2.9207760">
        <ele>802.8</ele>
        <time>2020-07-15T09:24:41Z</time>
      </trkpt>
      <trkpt lat="37.9465000" lon="-2.9207260">
        <ele>802.6</ele>
        <time>2020-07-15T09:24:42Z</time>
      </trkpt>
      <trkpt lat="37.9464500" lon="-2.9206820">
        <ele>802.6</ele>
        <time>2020-07-15T09:24:43Z</time>
      </trkpt>
      <trkpt lat="37.9462810" lon="-2.9205330">
        <ele>802.2</ele>
        <time>2020-07-15T09:24:46Z</time>
      </trkpt>
      <trkpt lat="37.9462250" lon="-2.9205020">
        <ele>802.0</ele>
        <time>2020-07-15T09:24:47Z</time>
      </trkpt>
      <trkpt lat="37.9460930" lon="-2.9204690">
        <ele>801.6</ele>
        <time>2020-07-15T09:24:49Z</time>
      </trkpt>
      <trkpt lat="37.9460300" lon="-2.9204580">
        <ele>801.4</ele>
        <time>2020-07-15T09:24:50Z</time>
      </trkpt>
      <trkpt lat="37.9459690" lon="-2.9204660">
        <ele>801.4</ele>
        <time>2020-07-15T09:24:51Z</time>
      </trkpt>
      <trkpt lat="37.9457890" lon="-2.9204720">
        <ele>801.6</ele>
        <time>2020-07-15T09:24:54Z</time>
      </trkpt>
      <trkpt lat="37.9455460" lon="-2.9205160">
        <ele>801.2</ele>
        <time>2020-07-15T09:24:58Z</time>
      </trkpt>
      <trkpt lat="37.9454300" lon="-2.9205870">
        <ele>801.4</ele>
        <time>2020-07-15T09:25:00Z</time>
      </trkpt>
      <trkpt lat="37.9450290" lon="-2.9209110">
        <ele>800.8</ele>
        <time>2020-07-15T09:25:08Z</time>
      </trkpt>
      <trkpt lat="37.9449240" lon="-2.9209850">
        <ele>801.0</ele>
        <time>2020-07-15T09:25:10Z</time>
      </trkpt>
      <trkpt lat="37.9447790" lon="-2.9211430">
        <ele>801.0</ele>
        <time>2020-07-15T09:25:13Z</time>
      </trkpt>
      <trkpt lat="37.9447210" lon="-2.9212970">
        <ele>801.0</ele>
        <time>2020-07-15T09:25:15Z</time>
      </trkpt>
      <trkpt lat="37.9447130" lon="-2.9213820">
        <ele>801.2</ele>
        <time>2020-07-15T09:25:16Z</time>
      </trkpt>
      <trkpt lat="37.9447460" lon="-2.9216250">
        <ele>801.2</ele>
        <time>2020-07-15T09:25:19Z</time>
      </trkpt>
      <trkpt lat="37.9447800" lon="-2.9217800">
        <ele>801.0</ele>
        <time>2020-07-15T09:25:21Z</time>
      </trkpt>
      <trkpt lat="37.9448280" lon="-2.9221040">
        <ele>801.0</ele>
        <time>2020-07-15T09:25:25Z</time>
      </trkpt>
      <trkpt lat="37.9448360" lon="-2.9222720">
        <ele>801.2</ele>
        <time>2020-07-15T09:25:27Z</time>
      </trkpt>
      <trkpt lat="37.9448190" lon="-2.9225240">
        <ele>801.2</ele>
        <time>2020-07-15T09:25:30Z</time>
      </trkpt>
      <trkpt lat="37.9447150" lon="-2.9230030">
        <ele>801.4</ele>
        <time>2020-07-15T09:25:36Z</time>
      </trkpt>
      <trkpt lat="37.9446090" lon="-2.9232380">
        <ele>801.4</ele>
        <time>2020-07-15T09:25:39Z</time>
      </trkpt>
      <trkpt lat="37.9445230" lon="-2.9233700">
        <ele>801.4</ele>
        <time>2020-07-15T09:25:41Z</time>
      </trkpt>
      <trkpt lat="37.9443320" lon="-2.9236300">
        <ele>801.4</ele>
        <time>2020-07-15T09:25:45Z</time>
      </trkpt>
      <trkpt lat="37.9443070" lon="-2.9237080">
        <ele>801.2</ele>
        <time>2020-07-15T09:25:46Z</time>
      </trkpt>
      <trkpt lat="37.9442500" lon="-2.9239510">
        <ele>801.0</ele>
        <time>2020-07-15T09:25:49Z</time>
      </trkpt>
      <trkpt lat="37.9442290" lon="-2.9240200">
        <ele>801.0</ele>
        <time>2020-07-15T09:25:50Z</time>
      </trkpt>
      <trkpt lat="37.9441720" lon="-2.9241690">
        <ele>801.2</ele>
        <time>2020-07-15T09:25:53Z</time>
      </trkpt>
      <trkpt lat="37.9441560" lon="-2.9242080">
        <ele>801.2</ele>
        <time>2020-07-15T09:25:54Z</time>
      </trkpt>
      <trkpt lat="37.9441440" lon="-2.9242590">
        <ele>801.0</ele>
        <time>2020-07-15T09:25:58Z</time>
      </trkpt>
      <trkpt lat="37.9441320" lon="-2.9242660">
        <ele>801.0</ele>
        <time>2020-07-15T09:26:50Z</time>
      </trkpt>
      <trkpt lat="37.9441220" lon="-2.9242820">
        <ele>801.0</ele>
        <time>2020-07-15T09:26:51Z</time>
      </trkpt>
      <trkpt lat="37.9440970" lon="-2.9243390">
        <ele>801.0</ele>
        <time>2020-07-15T09:26:53Z</time>
      </trkpt>
      <trkpt lat="37.9440440" lon="-2.9244390">
        <ele>801.0</ele>
        <time>2020-07-15T09:26:55Z</time>
      </trkpt>
      <trkpt lat="37.9439820" lon="-2.9245490">
        <ele>801.0</ele>
        <time>2020-07-15T09:26:57Z</time>
      </trkpt>
      <trkpt lat="37.9439450" lon="-2.9246000">
        <ele>801.0</ele>
        <time>2020-07-15T09:26:58Z</time>
      </trkpt>
      <trkpt lat="37.9439080" lon="-2.9246680">
        <ele>801.0</ele>
        <time>2020-07-15T09:26:59Z</time>
      </trkpt>
      <trkpt lat="37.9437840" lon="-2.9248400">
        <ele>801.2</ele>
        <time>2020-07-15T09:27:02Z</time>
      </trkpt>
      <trkpt lat="37.9434890" lon="-2.9251450">
        <ele>801.2</ele>
        <time>2020-07-15T09:27:08Z</time>
      </trkpt>
      <trkpt lat="37.9432670" lon="-2.9253240">
        <ele>801.2</ele>
        <time>2020-07-15T09:27:12Z</time>
      </trkpt>
      <trkpt lat="37.9430830" lon="-2.9254150">
        <ele>801.2</ele>
        <time>2020-07-15T09:27:15Z</time>
      </trkpt>
      <trkpt lat="37.9428930" lon="-2.9255030">
        <ele>801.2</ele>
        <time>2020-07-15T09:27:18Z</time>
      </trkpt>
      <trkpt lat="37.9427590" lon="-2.9255640">
        <ele>801.2</ele>
        <time>2020-07-15T09:27:20Z</time>
      </trkpt>
      <trkpt lat="37.9425680" lon="-2.9256410">
        <ele>801.0</ele>
        <time>2020-07-15T09:27:23Z</time>
      </trkpt>
      <trkpt lat="37.9423580" lon="-2.9256880">
        <ele>800.8</ele>
        <time>2020-07-15T09:27:26Z</time>
      </trkpt>
      <trkpt lat="37.9422340" lon="-2.9257170">
        <ele>801.0</ele>
        <time>2020-07-15T09:27:28Z</time>
      </trkpt>
      <trkpt lat="37.9418370" lon="-2.9258340">
        <ele>801.0</ele>
        <time>2020-07-15T09:27:34Z</time>
      </trkpt>
      <trkpt lat="37.9413330" lon="-2.9260500">
        <ele>801.0</ele>
        <time>2020-07-15T09:27:42Z</time>
      </trkpt>
      <trkpt lat="37.9409400" lon="-2.9260890">
        <ele>800.8</ele>
        <time>2020-07-15T09:27:48Z</time>
      </trkpt>
      <trkpt lat="37.9406710" lon="-2.9260460">
        <ele>801.2</ele>
        <time>2020-07-15T09:27:52Z</time>
      </trkpt>
      <trkpt lat="37.9405310" lon="-2.9260350">
        <ele>801.0</ele>
        <time>2020-07-15T09:27:54Z</time>
      </trkpt>
      <trkpt lat="37.9401820" lon="-2.9260690">
        <ele>801.0</ele>
        <time>2020-07-15T09:27:59Z</time>
      </trkpt>
      <trkpt lat="37.9396300" lon="-2.9262550">
        <ele>800.8</ele>
        <time>2020-07-15T09:28:07Z</time>
      </trkpt>
      <trkpt lat="37.9394340" lon="-2.9265080">
        <ele>801.0</ele>
        <time>2020-07-15T09:28:11Z</time>
      </trkpt>
      <trkpt lat="37.9393610" lon="-2.9266630">
        <ele>801.0</ele>
        <time>2020-07-15T09:28:13Z</time>
      </trkpt>
      <trkpt lat="37.9391940" lon="-2.9269660">
        <ele>800.8</ele>
        <time>2020-07-15T09:28:17Z</time>
      </trkpt>
      <trkpt lat="37.9388520" lon="-2.9275610">
        <ele>801.0</ele>
        <time>2020-07-15T09:28:25Z</time>
      </trkpt>
      <trkpt lat="37.9385610" lon="-2.9281010">
        <ele>801.0</ele>
        <time>2020-07-15T09:28:32Z</time>
      </trkpt>
      <trkpt lat="37.9383010" lon="-2.9285320">
        <ele>801.0</ele>
        <time>2020-07-15T09:28:38Z</time>
      </trkpt>
      <trkpt lat="37.9380160" lon="-2.9289560">
        <ele>801.2</ele>
        <time>2020-07-15T09:28:44Z</time>
      </trkpt>
      <trkpt lat="37.9379570" lon="-2.9290110">
        <ele>801.2</ele>
        <time>2020-07-15T09:28:45Z</time>
      </trkpt>
      <trkpt lat="37.9377660" lon="-2.9291270">
        <ele>801.4</ele>
        <time>2020-07-15T09:28:48Z</time>
      </trkpt>
      <trkpt lat="37.9376210" lon="-2.9291820">
        <ele>801.2</ele>
        <time>2020-07-15T09:28:50Z</time>
      </trkpt>
      <trkpt lat="37.9374800" lon="-2.9292230">
        <ele>801.2</ele>
        <time>2020-07-15T09:28:52Z</time>
      </trkpt>
      <trkpt lat="37.9374220" lon="-2.9292340">
        <ele>801.2</ele>
        <time>2020-07-15T09:28:53Z</time>
      </trkpt>
      <trkpt lat="37.9371760" lon="-2.9292430">
        <ele>801.2</ele>
        <time>2020-07-15T09:28:56Z</time>
      </trkpt>
      <trkpt lat="37.9370350" lon="-2.9292470">
        <ele>801.4</ele>
        <time>2020-07-15T09:28:58Z</time>
      </trkpt>
      <trkpt lat="37.9365160" lon="-2.9292050">
        <ele>801.2</ele>
        <time>2020-07-15T09:29:05Z</time>
      </trkpt>
      <trkpt lat="37.9359230" lon="-2.9291080">
        <ele>801.0</ele>
        <time>2020-07-15T09:29:13Z</time>
      </trkpt>
      <trkpt lat="37.9358510" lon="-2.9290950">
        <ele>801.0</ele>
        <time>2020-07-15T09:29:14Z</time>
      </trkpt>
      <trkpt lat="37.9354070" lon="-2.9290430">
        <ele>801.0</ele>
        <time>2020-07-15T09:29:20Z</time>
      </trkpt>
      <trkpt lat="37.9351170" lon="-2.9291010">
        <ele>801.0</ele>
        <time>2020-07-15T09:29:24Z</time>
      </trkpt>
      <trkpt lat="37.9350400" lon="-2.9291290">
        <ele>801.0</ele>
        <time>2020-07-15T09:29:25Z</time>
      </trkpt>
      <trkpt lat="37.9349690" lon="-2.9291660">
        <ele>801.0</ele>
        <time>2020-07-15T09:29:26Z</time>
      </trkpt>
      <trkpt lat="37.9346850" lon="-2.9293100">
        <ele>801.2</ele>
        <time>2020-07-15T09:29:30Z</time>
      </trkpt>
      <trkpt lat="37.9346100" lon="-2.9293190">
        <ele>801.2</ele>
        <time>2020-07-15T09:29:31Z</time>
      </trkpt>
      <trkpt lat="37.9344620" lon="-2.9293160">
        <ele>801.2</ele>
        <time>2020-07-15T09:29:33Z</time>
      </trkpt>
      <trkpt lat="37.9343140" lon="-2.9292920">
        <ele>801.2</ele>
        <time>2020-07-15T09:29:35Z</time>
      </trkpt>
      <trkpt lat="37.9341820" lon="-2.9292470">
        <ele>801.2</ele>
        <time>2020-07-15T09:29:37Z</time>
      </trkpt>
      <trkpt lat="37.9341210" lon="-2.9292150">
        <ele>801.2</ele>
        <time>2020-07-15T09:29:38Z</time>
      </trkpt>
      <trkpt lat="37.9336720" lon="-2.9289780">
        <ele>801.2</ele>
        <time>2020-07-15T09:29:44Z</time>
      </trkpt>
      <trkpt lat="37.9332800" lon="-2.9288870">
        <ele>801.0</ele>
        <time>2020-07-15T09:29:50Z</time>
      </trkpt>
      <trkpt lat="37.9330400" lon="-2.9289140">
        <ele>801.2</ele>
        <time>2020-07-15T09:29:53Z</time>
      </trkpt>
      <trkpt lat="37.9329000" lon="-2.9289420">
        <ele>801.6</ele>
        <time>2020-07-15T09:29:55Z</time>
      </trkpt>
      <trkpt lat="37.9327750" lon="-2.9289440">
        <ele>801.8</ele>
        <time>2020-07-15T09:29:57Z</time>
      </trkpt>
      <trkpt lat="37.9325780" lon="-2.9289210">
        <ele>802.0</ele>
        <time>2020-07-15T09:30:00Z</time>
      </trkpt>
      <trkpt lat="37.9323250" lon="-2.9288510">
        <ele>802.4</ele>
        <time>2020-07-15T09:30:04Z</time>
      </trkpt>
      <trkpt lat="37.9322710" lon="-2.9288170">
        <ele>802.6</ele>
        <time>2020-07-15T09:30:05Z</time>
      </trkpt>
      <trkpt lat="37.9322030" lon="-2.9287660">
        <ele>803.0</ele>
        <time>2020-07-15T09:30:06Z</time>
      </trkpt>
      <trkpt lat="37.9320400" lon="-2.9285960">
        <ele>803.2</ele>
        <time>2020-07-15T09:30:09Z</time>
      </trkpt>
      <trkpt lat="37.9319400" lon="-2.9284800">
        <ele>803.4</ele>
        <time>2020-07-15T09:30:11Z</time>
      </trkpt>
      <trkpt lat="37.9317600" lon="-2.9283370">
        <ele>803.4</ele>
        <time>2020-07-15T09:30:14Z</time>
      </trkpt>
      <trkpt lat="37.9316310" lon="-2.9282760">
        <ele>803.6</ele>
        <time>2020-07-15T09:30:16Z</time>
      </trkpt>
      <trkpt lat="37.9310970" lon="-2.9280670">
        <ele>803.6</ele>
        <time>2020-07-15T09:30:24Z</time>
      </trkpt>
      <trkpt lat="37.9308850" lon="-2.9281300">
        <ele>803.8</ele>
        <time>2020-07-15T09:30:27Z</time>
      </trkpt>
      <trkpt lat="37.9307700" lon="-2.9282220">
        <ele>803.8</ele>
        <time>2020-07-15T09:30:29Z</time>
      </trkpt>
      <trkpt lat="37.9307080" lon="-2.9282680">
        <ele>803.8</ele>
        <time>2020-07-15T09:30:30Z</time>
      </trkpt>
      <trkpt lat="37.9306620" lon="-2.9283110">
        <ele>803.8</ele>
        <time>2020-07-15T09:30:31Z</time>
      </trkpt>
      <trkpt lat="37.9305680" lon="-2.9284310">
        <ele>803.6</ele>
        <time>2020-07-15T09:30:33Z</time>
      </trkpt>
      <trkpt lat="37.9305110" lon="-2.9285540">
        <ele>803.6</ele>
        <time>2020-07-15T09:30:35Z</time>
      </trkpt>
      <trkpt lat="37.9304770" lon="-2.9286630">
        <ele>804.2</ele>
        <time>2020-07-15T09:30:37Z</time>
      </trkpt>
      <trkpt lat="37.9304660" lon="-2.9287780">
        <ele>804.8</ele>
        <time>2020-07-15T09:30:39Z</time>
      </trkpt>
      <trkpt lat="37.9304600" lon="-2.9288390">
        <ele>805.2</ele>
        <time>2020-07-15T09:30:40Z</time>
      </trkpt>
      <trkpt lat="37.9304640" lon="-2.9288870">
        <ele>805.6</ele>
        <time>2020-07-15T09:30:41Z</time>
      </trkpt>
      <trkpt lat="37.9304710" lon="-2.9290320">
        <ele>806.4</ele>
        <time>2020-07-15T09:30:44Z</time>
      </trkpt>
      <trkpt lat="37.9304900" lon="-2.9292260">
        <ele>807.6</ele>
        <time>2020-07-15T09:30:48Z</time>
      </trkpt>
      <trkpt lat="37.9305020" lon="-2.9293210">
        <ele>808.2</ele>
        <time>2020-07-15T09:30:50Z</time>
      </trkpt>
      <trkpt lat="37.9305230" lon="-2.9294110">
        <ele>808.8</ele>
        <time>2020-07-15T09:30:52Z</time>
      </trkpt>
      <trkpt lat="37.9306010" lon="-2.9295780">
        <ele>809.8</ele>
        <time>2020-07-15T09:30:56Z</time>
      </trkpt>
      <trkpt lat="37.9306280" lon="-2.9296210">
        <ele>810.0</ele>
        <time>2020-07-15T09:30:57Z</time>
      </trkpt>
      <trkpt lat="37.9307280" lon="-2.9297220">
        <ele>810.6</ele>
        <time>2020-07-15T09:31:00Z</time>
      </trkpt>
      <trkpt lat="37.9307660" lon="-2.9297520">
        <ele>810.8</ele>
        <time>2020-07-15T09:31:01Z</time>
      </trkpt>
      <trkpt lat="37.9308010" lon="-2.9297810">
        <ele>811.0</ele>
        <time>2020-07-15T09:31:02Z</time>
      </trkpt>
      <trkpt lat="37.9309730" lon="-2.9299180">
        <ele>812.2</ele>
        <time>2020-07-15T09:31:07Z</time>
      </trkpt>
      <trkpt lat="37.9310060" lon="-2.9299400">
        <ele>812.4</ele>
        <time>2020-07-15T09:31:08Z</time>
      </trkpt>
      <trkpt lat="37.9311450" lon="-2.9300980">
        <ele>813.2</ele>
        <time>2020-07-15T09:31:13Z</time>
      </trkpt>
      <trkpt lat="37.9311620" lon="-2.9301360">
        <ele>813.4</ele>
        <time>2020-07-15T09:31:14Z</time>
      </trkpt>
      <trkpt lat="37.9312150" lon="-2.9303040">
        <ele>814.4</ele>
        <time>2020-07-15T09:31:18Z</time>
      </trkpt>
      <trkpt lat="37.9312280" lon="-2.9304040">
        <ele>814.8</ele>
        <time>2020-07-15T09:31:20Z</time>
      </trkpt>
      <trkpt lat="37.9312120" lon="-2.9305500">
        <ele>815.4</ele>
        <time>2020-07-15T09:31:23Z</time>
      </trkpt>
      <trkpt lat="37.9311750" lon="-2.9306470">
        <ele>815.8</ele>
        <time>2020-07-15T09:31:25Z</time>
      </trkpt>
      <trkpt lat="37.9310610" lon="-2.9307930">
        <ele>816.4</ele>
        <time>2020-07-15T09:31:29Z</time>
      </trkpt>
      <trkpt lat="37.9310220" lon="-2.9308180">
        <ele>816.6</ele>
        <time>2020-07-15T09:31:30Z</time>
      </trkpt>
      <trkpt lat="37.9308150" lon="-2.9308680">
        <ele>817.2</ele>
        <time>2020-07-15T09:31:35Z</time>
      </trkpt>
      <trkpt lat="37.9306480" lon="-2.9307910">
        <ele>817.6</ele>
        <time>2020-07-15T09:31:39Z</time>
      </trkpt>
      <trkpt lat="37.9305560" lon="-2.9306970">
        <ele>817.8</ele>
        <time>2020-07-15T09:31:42Z</time>
      </trkpt>
      <trkpt lat="37.9304690" lon="-2.9306090">
        <ele>818.2</ele>
        <time>2020-07-15T09:31:45Z</time>
      </trkpt>
      <trkpt lat="37.9304230" lon="-2.9305470">
        <ele>818.8</ele>
        <time>2020-07-15T09:31:47Z</time>
      </trkpt>
      <trkpt lat="37.9303360" lon="-2.9304220">
        <ele>820.0</ele>
        <time>2020-07-15T09:31:51Z</time>
      </trkpt>
      <trkpt lat="37.9303150" lon="-2.9303870">
        <ele>820.2</ele>
        <time>2020-07-15T09:31:52Z</time>
      </trkpt>
      <trkpt lat="37.9302370" lon="-2.9302500">
        <ele>821.0</ele>
        <time>2020-07-15T09:31:56Z</time>
      </trkpt>
      <trkpt lat="37.9301920" lon="-2.9301910">
        <ele>821.4</ele>
        <time>2020-07-15T09:31:58Z</time>
      </trkpt>
      <trkpt lat="37.9301330" lon="-2.9301440">
        <ele>822.0</ele>
        <time>2020-07-15T09:32:00Z</time>
      </trkpt>
      <trkpt lat="37.9300480" lon="-2.9301100">
        <ele>823.0</ele>
        <time>2020-07-15T09:32:03Z</time>
      </trkpt>
      <trkpt lat="37.9300160" lon="-2.9301110">
        <ele>823.4</ele>
        <time>2020-07-15T09:32:04Z</time>
      </trkpt>
      <trkpt lat="37.9299070" lon="-2.9301450">
        <ele>824.4</ele>
        <time>2020-07-15T09:32:08Z</time>
      </trkpt>
      <trkpt lat="37.9297710" lon="-2.9302790">
        <ele>825.8</ele>
        <time>2020-07-15T09:32:14Z</time>
      </trkpt>
      <trkpt lat="37.9297510" lon="-2.9303090">
        <ele>826.0</ele>
        <time>2020-07-15T09:32:15Z</time>
      </trkpt>
      <trkpt lat="37.9297030" lon="-2.9304510">
        <ele>826.8</ele>
        <time>2020-07-15T09:32:19Z</time>
      </trkpt>
      <trkpt lat="37.9296820" lon="-2.9305180">
        <ele>827.4</ele>
        <time>2020-07-15T09:32:21Z</time>
      </trkpt>
      <trkpt lat="37.9296480" lon="-2.9306190">
        <ele>828.0</ele>
        <time>2020-07-15T09:32:24Z</time>
      </trkpt>
      <trkpt lat="37.9296040" lon="-2.9307850">
        <ele>829.2</ele>
        <time>2020-07-15T09:32:29Z</time>
      </trkpt>
      <trkpt lat="37.9295950" lon="-2.9308130">
        <ele>829.2</ele>
        <time>2020-07-15T09:32:30Z</time>
      </trkpt>
      <trkpt lat="37.9295210" lon="-2.9309630">
        <ele>830.4</ele>
        <time>2020-07-15T09:32:35Z</time>
      </trkpt>
      <trkpt lat="37.9294570" lon="-2.9310730">
        <ele>831.2</ele>
        <time>2020-07-15T09:32:39Z</time>
      </trkpt>
      <trkpt lat="37.9294390" lon="-2.9311000">
        <ele>831.4</ele>
        <time>2020-07-15T09:32:40Z</time>
      </trkpt>
      <trkpt lat="37.9293360" lon="-2.9312440">
        <ele>832.6</ele>
        <time>2020-07-15T09:32:46Z</time>
      </trkpt>
      <trkpt lat="37.9293000" lon="-2.9312920">
        <ele>833.0</ele>
        <time>2020-07-15T09:32:48Z</time>
      </trkpt>
      <trkpt lat="37.9292410" lon="-2.9313620">
        <ele>833.6</ele>
        <time>2020-07-15T09:32:51Z</time>
      </trkpt>
      <trkpt lat="37.9291240" lon="-2.9314340">
        <ele>834.6</ele>
        <time>2020-07-15T09:32:56Z</time>
      </trkpt>
      <trkpt lat="37.9290990" lon="-2.9314370">
        <ele>834.8</ele>
        <time>2020-07-15T09:32:57Z</time>
      </trkpt>
      <trkpt lat="37.9289700" lon="-2.9314420">
        <ele>835.8</ele>
        <time>2020-07-15T09:33:02Z</time>
      </trkpt>
      <trkpt lat="37.9289470" lon="-2.9314360">
        <ele>835.8</ele>
        <time>2020-07-15T09:33:03Z</time>
      </trkpt>
      <trkpt lat="37.9288210" lon="-2.9313780">
        <ele>836.8</ele>
        <time>2020-07-15T09:33:08Z</time>
      </trkpt>
      <trkpt lat="37.9287970" lon="-2.9313590">
        <ele>837.0</ele>
        <time>2020-07-15T09:33:09Z</time>
      </trkpt>
      <trkpt lat="37.9287000" lon="-2.9312410">
        <ele>837.8</ele>
        <time>2020-07-15T09:33:14Z</time>
      </trkpt>
      <trkpt lat="37.9286830" lon="-2.9312160">
        <ele>838.0</ele>
        <time>2020-07-15T09:33:15Z</time>
      </trkpt>
      <trkpt lat="37.9285860" lon="-2.9310400">
        <ele>839.0</ele>
        <time>2020-07-15T09:33:21Z</time>
      </trkpt>
      <trkpt lat="37.9285410" lon="-2.9309480">
        <ele>839.4</ele>
        <time>2020-07-15T09:33:24Z</time>
      </trkpt>
      <trkpt lat="37.9284850" lon="-2.9308340">
        <ele>840.0</ele>
        <time>2020-07-15T09:33:28Z</time>
      </trkpt>
      <trkpt lat="37.9284310" lon="-2.9307160">
        <ele>840.8</ele>
        <time>2020-07-15T09:33:32Z</time>
      </trkpt>
      <trkpt lat="37.9284020" lon="-2.9306620">
        <ele>841.2</ele>
        <time>2020-07-15T09:33:34Z</time>
      </trkpt>
      <trkpt lat="37.9283220" lon="-2.9305140">
        <ele>842.2</ele>
        <time>2020-07-15T09:33:39Z</time>
      </trkpt>
      <trkpt lat="37.9282240" lon="-2.9304310">
        <ele>843.2</ele>
        <time>2020-07-15T09:33:44Z</time>
      </trkpt>
      <trkpt lat="37.9281970" lon="-2.9304210">
        <ele>843.4</ele>
        <time>2020-07-15T09:33:45Z</time>
      </trkpt>
      <trkpt lat="37.9281250" lon="-2.9304180">
        <ele>844.0</ele>
        <time>2020-07-15T09:33:48Z</time>
      </trkpt>
      <trkpt lat="37.9280960" lon="-2.9304200">
        <ele>844.2</ele>
        <time>2020-07-15T09:33:49Z</time>
      </trkpt>
      <trkpt lat="37.9280740" lon="-2.9304200">
        <ele>844.6</ele>
        <time>2020-07-15T09:33:50Z</time>
      </trkpt>
      <trkpt lat="37.9280040" lon="-2.9304410">
        <ele>845.2</ele>
        <time>2020-07-15T09:33:53Z</time>
      </trkpt>
      <trkpt lat="37.9279820" lon="-2.9304470">
        <ele>845.4</ele>
        <time>2020-07-15T09:33:54Z</time>
      </trkpt>
      <trkpt lat="37.9279370" lon="-2.9304780">
        <ele>845.8</ele>
        <time>2020-07-15T09:33:56Z</time>
      </trkpt>
      <trkpt lat="37.9278820" lon="-2.9305310">
        <ele>846.4</ele>
        <time>2020-07-15T09:33:59Z</time>
      </trkpt>
      <trkpt lat="37.9278490" lon="-2.9305730">
        <ele>846.8</ele>
        <time>2020-07-15T09:34:01Z</time>
      </trkpt>
      <trkpt lat="37.9277980" lon="-2.9306580">
        <ele>847.6</ele>
        <time>2020-07-15T09:34:04Z</time>
      </trkpt>
      <trkpt lat="37.9277630" lon="-2.9307520">
        <ele>848.2</ele>
        <time>2020-07-15T09:34:07Z</time>
      </trkpt>
      <trkpt lat="37.9277390" lon="-2.9308160">
        <ele>848.8</ele>
        <time>2020-07-15T09:34:09Z</time>
      </trkpt>
      <trkpt lat="37.9277010" lon="-2.9309270">
        <ele>849.6</ele>
        <time>2020-07-15T09:34:13Z</time>
      </trkpt>
      <trkpt lat="37.9276920" lon="-2.9309580">
        <ele>850.0</ele>
        <time>2020-07-15T09:34:14Z</time>
      </trkpt>
      <trkpt lat="37.9276500" lon="-2.9311200">
        <ele>851.0</ele>
        <time>2020-07-15T09:34:19Z</time>
      </trkpt>
      <trkpt lat="37.9276210" lon="-2.9312860">
        <ele>852.2</ele>
        <time>2020-07-15T09:34:24Z</time>
      </trkpt>
      <trkpt lat="37.9276230" lon="-2.9313520">
        <ele>852.4</ele>
        <time>2020-07-15T09:34:26Z</time>
      </trkpt>
      <trkpt lat="37.9276500" lon="-2.9314960">
        <ele>853.2</ele>
        <time>2020-07-15T09:34:30Z</time>
      </trkpt>
      <trkpt lat="37.9276650" lon="-2.9315260">
        <ele>853.4</ele>
        <time>2020-07-15T09:34:31Z</time>
      </trkpt>
      <trkpt lat="37.9277200" lon="-2.9316440">
        <ele>854.4</ele>
        <time>2020-07-15T09:34:35Z</time>
      </trkpt>
      <trkpt lat="37.9277530" lon="-2.9317010">
        <ele>854.8</ele>
        <time>2020-07-15T09:34:37Z</time>
      </trkpt>
      <trkpt lat="37.9277970" lon="-2.9317720">
        <ele>855.6</ele>
        <time>2020-07-15T09:34:40Z</time>
      </trkpt>
      <trkpt lat="37.9278490" lon="-2.9318550">
        <ele>856.2</ele>
        <time>2020-07-15T09:34:43Z</time>
      </trkpt>
      <trkpt lat="37.9278850" lon="-2.9319090">
        <ele>856.6</ele>
        <time>2020-07-15T09:34:45Z</time>
      </trkpt>
      <trkpt lat="37.9279450" lon="-2.9320290">
        <ele>857.2</ele>
        <time>2020-07-15T09:34:49Z</time>
      </trkpt>
      <trkpt lat="37.9279690" lon="-2.9320930">
        <ele>857.8</ele>
        <time>2020-07-15T09:34:51Z</time>
      </trkpt>
      <trkpt lat="37.9279870" lon="-2.9322460">
        <ele>858.8</ele>
        <time>2020-07-15T09:34:55Z</time>
      </trkpt>
      <trkpt lat="37.9279890" lon="-2.9322840">
        <ele>859.0</ele>
        <time>2020-07-15T09:34:56Z</time>
      </trkpt>
      <trkpt lat="37.9279660" lon="-2.9324560">
        <ele>860.0</ele>
        <time>2020-07-15T09:35:01Z</time>
      </trkpt>
      <trkpt lat="37.9279600" lon="-2.9324810">
        <ele>860.2</ele>
        <time>2020-07-15T09:35:02Z</time>
      </trkpt>
      <trkpt lat="37.9279560" lon="-2.9326220">
        <ele>861.0</ele>
        <time>2020-07-15T09:35:06Z</time>
      </trkpt>
      <trkpt lat="37.9279540" lon="-2.9326590">
        <ele>861.2</ele>
        <time>2020-07-15T09:35:07Z</time>
      </trkpt>
      <trkpt lat="37.9279550" lon="-2.9328510">
        <ele>862.2</ele>
        <time>2020-07-15T09:35:12Z</time>
      </trkpt>
      <trkpt lat="37.9279760" lon="-2.9329640">
        <ele>862.8</ele>
        <time>2020-07-15T09:35:15Z</time>
      </trkpt>
      <trkpt lat="37.9280090" lon="-2.9330600">
        <ele>863.4</ele>
        <time>2020-07-15T09:35:18Z</time>
      </trkpt>
      <trkpt lat="37.9280480" lon="-2.9331130">
        <ele>863.8</ele>
        <time>2020-07-15T09:35:20Z</time>
      </trkpt>
      <trkpt lat="37.9280940" lon="-2.9331920">
        <ele>864.4</ele>
        <time>2020-07-15T09:35:23Z</time>
      </trkpt>
      <trkpt lat="37.9281650" lon="-2.9333110">
        <ele>865.4</ele>
        <time>2020-07-15T09:35:27Z</time>
      </trkpt>
      <trkpt lat="37.9281770" lon="-2.9333390">
        <ele>865.6</ele>
        <time>2020-07-15T09:35:28Z</time>
      </trkpt>
      <trkpt lat="37.9282280" lon="-2.9334990">
        <ele>866.6</ele>
        <time>2020-07-15T09:35:33Z</time>
      </trkpt>
      <trkpt lat="37.9282400" lon="-2.9336040">
        <ele>867.2</ele>
        <time>2020-07-15T09:35:36Z</time>
      </trkpt>
      <trkpt lat="37.9282360" lon="-2.9336700">
        <ele>867.8</ele>
        <time>2020-07-15T09:35:38Z</time>
      </trkpt>
      <trkpt lat="37.9282100" lon="-2.9338310">
        <ele>869.0</ele>
        <time>2020-07-15T09:35:43Z</time>
      </trkpt>
      <trkpt lat="37.9281980" lon="-2.9338660">
        <ele>869.2</ele>
        <time>2020-07-15T09:35:44Z</time>
      </trkpt>
      <trkpt lat="37.9281260" lon="-2.9339620">
        <ele>870.2</ele>
        <time>2020-07-15T09:35:48Z</time>
      </trkpt>
      <trkpt lat="37.9280800" lon="-2.9340060">
        <ele>870.6</ele>
        <time>2020-07-15T09:35:50Z</time>
      </trkpt>
      <trkpt lat="37.9280080" lon="-2.9340480">
        <ele>871.2</ele>
        <time>2020-07-15T09:35:53Z</time>
      </trkpt>
      <trkpt lat="37.9279000" lon="-2.9340670">
        <ele>872.0</ele>
        <time>2020-07-15T09:35:57Z</time>
      </trkpt>
      <trkpt lat="37.9278530" lon="-2.9340560">
        <ele>872.4</ele>
        <time>2020-07-15T09:35:59Z</time>
      </trkpt>
      <trkpt lat="37.9277320" lon="-2.9339780">
        <ele>873.6</ele>
        <time>2020-07-15T09:36:04Z</time>
      </trkpt>
      <trkpt lat="37.9276370" lon="-2.9338380">
        <ele>874.8</ele>
        <time>2020-07-15T09:36:10Z</time>
      </trkpt>
      <trkpt lat="37.9275830" lon="-2.9337220">
        <ele>875.8</ele>
        <time>2020-07-15T09:36:15Z</time>
      </trkpt>
      <trkpt lat="37.9275130" lon="-2.9335690">
        <ele>876.8</ele>
        <time>2020-07-15T09:36:21Z</time>
      </trkpt>
      <trkpt lat="37.9275020" lon="-2.9335400">
        <ele>877.0</ele>
        <time>2020-07-15T09:36:22Z</time>
      </trkpt>
      <trkpt lat="37.9274530" lon="-2.9333940">
        <ele>877.8</ele>
        <time>2020-07-15T09:36:27Z</time>
      </trkpt>
      <trkpt lat="37.9274340" lon="-2.9333360">
        <ele>878.2</ele>
        <time>2020-07-15T09:36:29Z</time>
      </trkpt>
      <trkpt lat="37.9274060" lon="-2.9332160">
        <ele>879.0</ele>
        <time>2020-07-15T09:36:33Z</time>
      </trkpt>
      <trkpt lat="37.9273710" lon="-2.9331050">
        <ele>879.8</ele>
        <time>2020-07-15T09:36:37Z</time>
      </trkpt>
      <trkpt lat="37.9273570" lon="-2.9330500">
        <ele>880.2</ele>
        <time>2020-07-15T09:36:39Z</time>
      </trkpt>
      <trkpt lat="37.9273280" lon="-2.9329430">
        <ele>881.0</ele>
        <time>2020-07-15T09:36:43Z</time>
      </trkpt>
      <trkpt lat="37.9273070" lon="-2.9328830">
        <ele>881.4</ele>
        <time>2020-07-15T09:36:45Z</time>
      </trkpt>
      <trkpt lat="37.9272530" lon="-2.9327640">
        <ele>882.4</ele>
        <time>2020-07-15T09:36:50Z</time>
      </trkpt>
      <trkpt lat="37.9271750" lon="-2.9326710">
        <ele>883.6</ele>
        <time>2020-07-15T09:36:55Z</time>
      </trkpt>
      <trkpt lat="37.9271550" lon="-2.9326610">
        <ele>883.8</ele>
        <time>2020-07-15T09:36:56Z</time>
      </trkpt>
      <trkpt lat="37.9270820" lon="-2.9326210">
        <ele>884.8</ele>
        <time>2020-07-15T09:37:00Z</time>
      </trkpt>
      <trkpt lat="37.9270210" lon="-2.9326120">
        <ele>885.4</ele>
        <time>2020-07-15T09:37:03Z</time>
      </trkpt>
      <trkpt lat="37.9269930" lon="-2.9326100">
        <ele>885.8</ele>
        <time>2020-07-15T09:37:05Z</time>
      </trkpt>
      <trkpt lat="37.9269520" lon="-2.9326220">
        <ele>886.2</ele>
        <time>2020-07-15T09:37:07Z</time>
      </trkpt>
      <trkpt lat="37.9269090" lon="-2.9326470">
        <ele>887.0</ele>
        <time>2020-07-15T09:37:10Z</time>
      </trkpt>
      <trkpt lat="37.9268790" lon="-2.9326720">
        <ele>887.6</ele>
        <time>2020-07-15T09:37:12Z</time>
      </trkpt>
      <trkpt lat="37.9268440" lon="-2.9327040">
        <ele>888.0</ele>
        <time>2020-07-15T09:37:14Z</time>
      </trkpt>
      <trkpt lat="37.9267950" lon="-2.9327580">
        <ele>888.8</ele>
        <time>2020-07-15T09:37:17Z</time>
      </trkpt>
      <trkpt lat="37.9267830" lon="-2.9327830">
        <ele>889.0</ele>
        <time>2020-07-15T09:37:18Z</time>
      </trkpt>
      <trkpt lat="37.9267740" lon="-2.9328190">
        <ele>889.2</ele>
        <time>2020-07-15T09:37:19Z</time>
      </trkpt>
      <trkpt lat="37.9267540" lon="-2.9329070">
        <ele>890.2</ele>
        <time>2020-07-15T09:37:23Z</time>
      </trkpt>
      <trkpt lat="37.9267490" lon="-2.9329400">
        <ele>890.4</ele>
        <time>2020-07-15T09:37:24Z</time>
      </trkpt>
      <trkpt lat="37.9267670" lon="-2.9330810">
        <ele>891.4</ele>
        <time>2020-07-15T09:37:29Z</time>
      </trkpt>
      <trkpt lat="37.9267730" lon="-2.9331180">
        <ele>891.8</ele>
        <time>2020-07-15T09:37:30Z</time>
      </trkpt>
      <trkpt lat="37.9267930" lon="-2.9332000">
        <ele>892.8</ele>
        <time>2020-07-15T09:37:33Z</time>
      </trkpt>
      <trkpt lat="37.9268030" lon="-2.9332570">
        <ele>893.4</ele>
        <time>2020-07-15T09:37:35Z</time>
      </trkpt>
      <trkpt lat="37.9268180" lon="-2.9333570">
        <ele>894.0</ele>
        <time>2020-07-15T09:37:38Z</time>
      </trkpt>
      <trkpt lat="37.9268280" lon="-2.9334520">
        <ele>894.4</ele>
        <time>2020-07-15T09:37:41Z</time>
      </trkpt>
      <trkpt lat="37.9268520" lon="-2.9335390">
        <ele>895.0</ele>
        <time>2020-07-15T09:37:44Z</time>
      </trkpt>
      <trkpt lat="37.9268760" lon="-2.9336520">
        <ele>895.8</ele>
        <time>2020-07-15T09:37:48Z</time>
      </trkpt>
      <trkpt lat="37.9268910" lon="-2.9337140">
        <ele>896.2</ele>
        <time>2020-07-15T09:37:50Z</time>
      </trkpt>
      <trkpt lat="37.9269100" lon="-2.9338840">
        <ele>897.2</ele>
        <time>2020-07-15T09:37:55Z</time>
      </trkpt>
      <trkpt lat="37.9269150" lon="-2.9339160">
        <ele>897.4</ele>
        <time>2020-07-15T09:37:56Z</time>
      </trkpt>
      <trkpt lat="37.9269410" lon="-2.9341350">
        <ele>898.4</ele>
        <time>2020-07-15T09:38:02Z</time>
      </trkpt>
      <trkpt lat="37.9269470" lon="-2.9341720">
        <ele>898.6</ele>
        <time>2020-07-15T09:38:03Z</time>
      </trkpt>
      <trkpt lat="37.9269370" lon="-2.9344140">
        <ele>899.4</ele>
        <time>2020-07-15T09:38:09Z</time>
      </trkpt>
      <trkpt lat="37.9269420" lon="-2.9344910">
        <ele>899.8</ele>
        <time>2020-07-15T09:38:11Z</time>
      </trkpt>
      <trkpt lat="37.9269240" lon="-2.9347000">
        <ele>900.4</ele>
        <time>2020-07-15T09:38:16Z</time>
      </trkpt>
      <trkpt lat="37.9269170" lon="-2.9347730">
        <ele>900.6</ele>
        <time>2020-07-15T09:38:18Z</time>
      </trkpt>
      <trkpt lat="37.9268570" lon="-2.9349640">
        <ele>901.6</ele>
        <time>2020-07-15T09:38:23Z</time>
      </trkpt>
      <trkpt lat="37.9268430" lon="-2.9350090">
        <ele>901.8</ele>
        <time>2020-07-15T09:38:24Z</time>
      </trkpt>
      <trkpt lat="37.9267990" lon="-2.9351740">
        <ele>902.4</ele>
        <time>2020-07-15T09:38:28Z</time>
      </trkpt>
      <trkpt lat="37.9267860" lon="-2.9353060">
        <ele>902.4</ele>
        <time>2020-07-15T09:38:31Z</time>
      </trkpt>
      <trkpt lat="37.9267760" lon="-2.9353980">
        <ele>902.6</ele>
        <time>2020-07-15T09:38:33Z</time>
      </trkpt>
      <trkpt lat="37.9267240" lon="-2.9355970">
        <ele>903.6</ele>
        <time>2020-07-15T09:38:38Z</time>
      </trkpt>
      <trkpt lat="37.9267030" lon="-2.9356360">
        <ele>903.8</ele>
        <time>2020-07-15T09:38:39Z</time>
      </trkpt>
      <trkpt lat="37.9265800" lon="-2.9357970">
        <ele>904.6</ele>
        <time>2020-07-15T09:38:44Z</time>
      </trkpt>
      <trkpt lat="37.9265300" lon="-2.9358570">
        <ele>904.8</ele>
        <time>2020-07-15T09:38:46Z</time>
      </trkpt>
      <trkpt lat="37.9264060" lon="-2.9359500">
        <ele>905.4</ele>
        <time>2020-07-15T09:38:50Z</time>
      </trkpt>
      <trkpt lat="37.9262620" lon="-2.9360720">
        <ele>906.0</ele>
        <time>2020-07-15T09:38:55Z</time>
      </trkpt>
      <trkpt lat="37.9261860" lon="-2.9361660">
        <ele>906.4</ele>
        <time>2020-07-15T09:38:58Z</time>
      </trkpt>
      <trkpt lat="37.9261090" lon="-2.9363520">
        <ele>907.0</ele>
        <time>2020-07-15T09:39:03Z</time>
      </trkpt>
      <trkpt lat="37.9260960" lon="-2.9363920">
        <ele>907.2</ele>
        <time>2020-07-15T09:39:04Z</time>
      </trkpt>
      <trkpt lat="37.9260130" lon="-2.9366230">
        <ele>908.0</ele>
        <time>2020-07-15T09:39:10Z</time>
      </trkpt>
      <trkpt lat="37.9259700" lon="-2.9368780">
        <ele>908.6</ele>
        <time>2020-07-15T09:39:16Z</time>
      </trkpt>
      <trkpt lat="37.9259560" lon="-2.9370410">
        <ele>909.0</ele>
        <time>2020-07-15T09:39:20Z</time>
      </trkpt>
      <trkpt lat="37.9259330" lon="-2.9372450">
        <ele>909.8</ele>
        <time>2020-07-15T09:39:25Z</time>
      </trkpt>
      <trkpt lat="37.9259270" lon="-2.9373190">
        <ele>910.2</ele>
        <time>2020-07-15T09:39:27Z</time>
      </trkpt>
      <trkpt lat="37.9259240" lon="-2.9374440">
        <ele>911.2</ele>
        <time>2020-07-15T09:39:31Z</time>
      </trkpt>
      <trkpt lat="37.9259200" lon="-2.9374880">
        <ele>911.2</ele>
        <time>2020-07-15T09:39:32Z</time>
      </trkpt>
      <trkpt lat="37.9258990" lon="-2.9376380">
        <ele>911.8</ele>
        <time>2020-07-15T09:39:36Z</time>
      </trkpt>
      <trkpt lat="37.9258980" lon="-2.9377020">
        <ele>912.4</ele>
        <time>2020-07-15T09:39:38Z</time>
      </trkpt>
      <trkpt lat="37.9259100" lon="-2.9378380">
        <ele>913.0</ele>
        <time>2020-07-15T09:39:42Z</time>
      </trkpt>
      <trkpt lat="37.9259250" lon="-2.9379050">
        <ele>913.4</ele>
        <time>2020-07-15T09:39:44Z</time>
      </trkpt>
      <trkpt lat="37.9259410" lon="-2.9380100">
        <ele>914.2</ele>
        <time>2020-07-15T09:39:47Z</time>
      </trkpt>
      <trkpt lat="37.9259470" lon="-2.9380540">
        <ele>914.6</ele>
        <time>2020-07-15T09:39:48Z</time>
      </trkpt>
      <trkpt lat="37.9259740" lon="-2.9382410">
        <ele>915.6</ele>
        <time>2020-07-15T09:39:53Z</time>
      </trkpt>
      <trkpt lat="37.9259780" lon="-2.9382790">
        <ele>915.8</ele>
        <time>2020-07-15T09:39:54Z</time>
      </trkpt>
      <trkpt lat="37.9259750" lon="-2.9384170">
        <ele>916.8</ele>
        <time>2020-07-15T09:39:58Z</time>
      </trkpt>
      <trkpt lat="37.9259500" lon="-2.9385540">
        <ele>917.6</ele>
        <time>2020-07-15T09:40:02Z</time>
      </trkpt>
      <trkpt lat="37.9259440" lon="-2.9385860">
        <ele>917.8</ele>
        <time>2020-07-15T09:40:03Z</time>
      </trkpt>
      <trkpt lat="37.9259180" lon="-2.9387560">
        <ele>918.8</ele>
        <time>2020-07-15T09:40:08Z</time>
      </trkpt>
      <trkpt lat="37.9259160" lon="-2.9388290">
        <ele>919.2</ele>
        <time>2020-07-15T09:40:10Z</time>
      </trkpt>
      <trkpt lat="37.9259210" lon="-2.9389270">
        <ele>920.0</ele>
        <time>2020-07-15T09:40:13Z</time>
      </trkpt>
      <trkpt lat="37.9259360" lon="-2.9390530">
        <ele>920.8</ele>
        <time>2020-07-15T09:40:17Z</time>
      </trkpt>
      <trkpt lat="37.9259430" lon="-2.9390800">
        <ele>921.0</ele>
        <time>2020-07-15T09:40:18Z</time>
      </trkpt>
      <trkpt lat="37.9259360" lon="-2.9392150">
        <ele>921.8</ele>
        <time>2020-07-15T09:40:22Z</time>
      </trkpt>
      <trkpt lat="37.9259280" lon="-2.9392430">
        <ele>922.0</ele>
        <time>2020-07-15T09:40:23Z</time>
      </trkpt>
      <trkpt lat="37.9258750" lon="-2.9393960">
        <ele>923.2</ele>
        <time>2020-07-15T09:40:28Z</time>
      </trkpt>
      <trkpt lat="37.9258030" lon="-2.9395630">
        <ele>924.4</ele>
        <time>2020-07-15T09:40:34Z</time>
      </trkpt>
      <trkpt lat="37.9257920" lon="-2.9395870">
        <ele>924.6</ele>
        <time>2020-07-15T09:40:35Z</time>
      </trkpt>
      <trkpt lat="37.9257390" lon="-2.9397310">
        <ele>925.4</ele>
        <time>2020-07-15T09:40:40Z</time>
      </trkpt>
      <trkpt lat="37.9257170" lon="-2.9398140">
        <ele>926.0</ele>
        <time>2020-07-15T09:40:43Z</time>
      </trkpt>
      <trkpt lat="37.9257000" lon="-2.9399070">
        <ele>926.6</ele>
        <time>2020-07-15T09:40:46Z</time>
      </trkpt>
      <trkpt lat="37.9256880" lon="-2.9401130">
        <ele>927.6</ele>
        <time>2020-07-15T09:40:52Z</time>
      </trkpt>
      <trkpt lat="37.9257220" lon="-2.9403060">
        <ele>928.6</ele>
        <time>2020-07-15T09:40:58Z</time>
      </trkpt>
      <trkpt lat="37.9257830" lon="-2.9404510">
        <ele>929.8</ele>
        <time>2020-07-15T09:41:03Z</time>
      </trkpt>
      <trkpt lat="37.9258150" lon="-2.9405070">
        <ele>930.2</ele>
        <time>2020-07-15T09:41:05Z</time>
      </trkpt>
      <trkpt lat="37.9258750" lon="-2.9405840">
        <ele>930.8</ele>
        <time>2020-07-15T09:41:08Z</time>
      </trkpt>
      <trkpt lat="37.9259400" lon="-2.9406960">
        <ele>931.8</ele>
        <time>2020-07-15T09:41:12Z</time>
      </trkpt>
      <trkpt lat="37.9259540" lon="-2.9407240">
        <ele>932.0</ele>
        <time>2020-07-15T09:41:13Z</time>
      </trkpt>
      <trkpt lat="37.9260130" lon="-2.9408350">
        <ele>933.0</ele>
        <time>2020-07-15T09:41:17Z</time>
      </trkpt>
      <trkpt lat="37.9260320" lon="-2.9409010">
        <ele>933.6</ele>
        <time>2020-07-15T09:41:19Z</time>
      </trkpt>
      <trkpt lat="37.9260440" lon="-2.9409930">
        <ele>934.2</ele>
        <time>2020-07-15T09:41:22Z</time>
      </trkpt>
      <trkpt lat="37.9260500" lon="-2.9410950">
        <ele>934.8</ele>
        <time>2020-07-15T09:41:25Z</time>
      </trkpt>
      <trkpt lat="37.9260430" lon="-2.9411960">
        <ele>935.2</ele>
        <time>2020-07-15T09:41:28Z</time>
      </trkpt>
      <trkpt lat="37.9260480" lon="-2.9412880">
        <ele>935.6</ele>
        <time>2020-07-15T09:41:31Z</time>
      </trkpt>
      <trkpt lat="37.9260350" lon="-2.9413930">
        <ele>936.2</ele>
        <time>2020-07-15T09:41:34Z</time>
      </trkpt>
      <trkpt lat="37.9260250" lon="-2.9415940">
        <ele>937.4</ele>
        <time>2020-07-15T09:41:40Z</time>
      </trkpt>
      <trkpt lat="37.9260140" lon="-2.9417590">
        <ele>938.6</ele>
        <time>2020-07-15T09:41:45Z</time>
      </trkpt>
      <trkpt lat="37.9260090" lon="-2.9418190">
        <ele>939.0</ele>
        <time>2020-07-15T09:41:47Z</time>
      </trkpt>
      <trkpt lat="37.9260080" lon="-2.9419020">
        <ele>939.6</ele>
        <time>2020-07-15T09:41:50Z</time>
      </trkpt>
      <trkpt lat="37.9259910" lon="-2.9420010">
        <ele>940.2</ele>
        <time>2020-07-15T09:41:53Z</time>
      </trkpt>
      <trkpt lat="37.9259720" lon="-2.9420640">
        <ele>940.6</ele>
        <time>2020-07-15T09:41:55Z</time>
      </trkpt>
      <trkpt lat="37.9259040" lon="-2.9422100">
        <ele>941.8</ele>
        <time>2020-07-15T09:42:00Z</time>
      </trkpt>
      <trkpt lat="37.9258110" lon="-2.9424030">
        <ele>942.8</ele>
        <time>2020-07-15T09:42:07Z</time>
      </trkpt>
      <trkpt lat="37.9257370" lon="-2.9425690">
        <ele>944.0</ele>
        <time>2020-07-15T09:42:13Z</time>
      </trkpt>
      <trkpt lat="37.9257220" lon="-2.9425980">
        <ele>944.2</ele>
        <time>2020-07-15T09:42:14Z</time>
      </trkpt>
      <trkpt lat="37.9256690" lon="-2.9427070">
        <ele>945.0</ele>
        <time>2020-07-15T09:42:18Z</time>
      </trkpt>
      <trkpt lat="37.9256030" lon="-2.9428410">
        <ele>945.8</ele>
        <time>2020-07-15T09:42:23Z</time>
      </trkpt>
      <trkpt lat="37.9255710" lon="-2.9428920">
        <ele>946.0</ele>
        <time>2020-07-15T09:42:25Z</time>
      </trkpt>
      <trkpt lat="37.9255170" lon="-2.9429970">
        <ele>947.0</ele>
        <time>2020-07-15T09:42:29Z</time>
      </trkpt>
      <trkpt lat="37.9255040" lon="-2.9430280">
        <ele>947.2</ele>
        <time>2020-07-15T09:42:30Z</time>
      </trkpt>
      <trkpt lat="37.9254310" lon="-2.9431520">
        <ele>948.2</ele>
        <time>2020-07-15T09:42:35Z</time>
      </trkpt>
      <trkpt lat="37.9254200" lon="-2.9431830">
        <ele>948.4</ele>
        <time>2020-07-15T09:42:36Z</time>
      </trkpt>
      <trkpt lat="37.9253500" lon="-2.9433210">
        <ele>949.4</ele>
        <time>2020-07-15T09:42:41Z</time>
      </trkpt>
      <trkpt lat="37.9253410" lon="-2.9433520">
        <ele>949.4</ele>
        <time>2020-07-15T09:42:42Z</time>
      </trkpt>
      <trkpt lat="37.9252570" lon="-2.9435170">
        <ele>950.4</ele>
        <time>2020-07-15T09:42:48Z</time>
      </trkpt>
      <trkpt lat="37.9251850" lon="-2.9436510">
        <ele>951.6</ele>
        <time>2020-07-15T09:42:53Z</time>
      </trkpt>
      <trkpt lat="37.9251500" lon="-2.9436950">
        <ele>952.0</ele>
        <time>2020-07-15T09:42:55Z</time>
      </trkpt>
      <trkpt lat="37.9250770" lon="-2.9437770">
        <ele>952.8</ele>
        <time>2020-07-15T09:42:59Z</time>
      </trkpt>
      <trkpt lat="37.9249950" lon="-2.9438700">
        <ele>953.6</ele>
        <time>2020-07-15T09:43:03Z</time>
      </trkpt>
      <trkpt lat="37.9249570" lon="-2.9439190">
        <ele>954.0</ele>
        <time>2020-07-15T09:43:05Z</time>
      </trkpt>
      <trkpt lat="37.9248500" lon="-2.9440660">
        <ele>954.8</ele>
        <time>2020-07-15T09:43:11Z</time>
      </trkpt>
      <trkpt lat="37.9248330" lon="-2.9440960">
        <ele>955.0</ele>
        <time>2020-07-15T09:43:12Z</time>
      </trkpt>
      <trkpt lat="37.9247770" lon="-2.9442830">
        <ele>956.2</ele>
        <time>2020-07-15T09:43:18Z</time>
      </trkpt>
      <trkpt lat="37.9247300" lon="-2.9444860">
        <ele>957.4</ele>
        <time>2020-07-15T09:43:24Z</time>
      </trkpt>
      <trkpt lat="37.9247090" lon="-2.9445850">
        <ele>958.0</ele>
        <time>2020-07-15T09:43:27Z</time>
      </trkpt>
      <trkpt lat="37.9246870" lon="-2.9446740">
        <ele>958.4</ele>
        <time>2020-07-15T09:43:30Z</time>
      </trkpt>
      <trkpt lat="37.9246500" lon="-2.9447860">
        <ele>959.2</ele>
        <time>2020-07-15T09:43:34Z</time>
      </trkpt>
      <trkpt lat="37.9246380" lon="-2.9448160">
        <ele>959.6</ele>
        <time>2020-07-15T09:43:35Z</time>
      </trkpt>
      <trkpt lat="37.9245810" lon="-2.9449480">
        <ele>960.8</ele>
        <time>2020-07-15T09:43:40Z</time>
      </trkpt>
      <trkpt lat="37.9244920" lon="-2.9450760">
        <ele>962.0</ele>
        <time>2020-07-15T09:43:45Z</time>
      </trkpt>
      <trkpt lat="37.9244720" lon="-2.9450970">
        <ele>962.2</ele>
        <time>2020-07-15T09:43:46Z</time>
      </trkpt>
      <trkpt lat="37.9243900" lon="-2.9451800">
        <ele>963.0</ele>
        <time>2020-07-15T09:43:50Z</time>
      </trkpt>
      <trkpt lat="37.9242860" lon="-2.9452830">
        <ele>963.8</ele>
        <time>2020-07-15T09:43:55Z</time>
      </trkpt>
      <trkpt lat="37.9242640" lon="-2.9453050">
        <ele>964.0</ele>
        <time>2020-07-15T09:43:56Z</time>
      </trkpt>
      <trkpt lat="37.9241290" lon="-2.9454510">
        <ele>965.2</ele>
        <time>2020-07-15T09:44:03Z</time>
      </trkpt>
      <trkpt lat="37.9240920" lon="-2.9454940">
        <ele>965.4</ele>
        <time>2020-07-15T09:44:05Z</time>
      </trkpt>
      <trkpt lat="37.9240150" lon="-2.9455730">
        <ele>966.2</ele>
        <time>2020-07-15T09:44:09Z</time>
      </trkpt>
      <trkpt lat="37.9239400" lon="-2.9456430">
        <ele>966.8</ele>
        <time>2020-07-15T09:44:13Z</time>
      </trkpt>
      <trkpt lat="37.9239010" lon="-2.9456800">
        <ele>967.2</ele>
        <time>2020-07-15T09:44:15Z</time>
      </trkpt>
      <trkpt lat="37.9238040" lon="-2.9457700">
        <ele>968.4</ele>
        <time>2020-07-15T09:44:20Z</time>
      </trkpt>
      <trkpt lat="37.9237480" lon="-2.9458250">
        <ele>969.2</ele>
        <time>2020-07-15T09:44:23Z</time>
      </trkpt>
      <trkpt lat="37.9236900" lon="-2.9458770">
        <ele>969.6</ele>
        <time>2020-07-15T09:44:26Z</time>
      </trkpt>
      <trkpt lat="37.9236050" lon="-2.9459510">
        <ele>970.2</ele>
        <time>2020-07-15T09:44:30Z</time>
      </trkpt>
      <trkpt lat="37.9235410" lon="-2.9460050">
        <ele>970.6</ele>
        <time>2020-07-15T09:44:33Z</time>
      </trkpt>
      <trkpt lat="37.9234050" lon="-2.9461250">
        <ele>971.8</ele>
        <time>2020-07-15T09:44:39Z</time>
      </trkpt>
      <trkpt lat="37.9233850" lon="-2.9461470">
        <ele>972.0</ele>
        <time>2020-07-15T09:44:40Z</time>
      </trkpt>
      <trkpt lat="37.9233030" lon="-2.9462380">
        <ele>972.8</ele>
        <time>2020-07-15T09:44:44Z</time>
      </trkpt>
      <trkpt lat="37.9232330" lon="-2.9463450">
        <ele>973.6</ele>
        <time>2020-07-15T09:44:48Z</time>
      </trkpt>
      <trkpt lat="37.9232150" lon="-2.9463740">
        <ele>974.0</ele>
        <time>2020-07-15T09:44:49Z</time>
      </trkpt>
      <trkpt lat="37.9231360" lon="-2.9465150">
        <ele>975.0</ele>
        <time>2020-07-15T09:44:54Z</time>
      </trkpt>
      <trkpt lat="37.9230800" lon="-2.9466240">
        <ele>975.8</ele>
        <time>2020-07-15T09:44:58Z</time>
      </trkpt>
      <trkpt lat="37.9230630" lon="-2.9466510">
        <ele>976.0</ele>
        <time>2020-07-15T09:44:59Z</time>
      </trkpt>
      <trkpt lat="37.9229930" lon="-2.9467650">
        <ele>977.0</ele>
        <time>2020-07-15T09:45:04Z</time>
      </trkpt>
      <trkpt lat="37.9229180" lon="-2.9469300">
        <ele>978.2</ele>
        <time>2020-07-15T09:45:10Z</time>
      </trkpt>
      <trkpt lat="37.9228210" lon="-2.9470840">
        <ele>979.2</ele>
        <time>2020-07-15T09:45:16Z</time>
      </trkpt>
      <trkpt lat="37.9227850" lon="-2.9471310">
        <ele>979.6</ele>
        <time>2020-07-15T09:45:18Z</time>
      </trkpt>
      <trkpt lat="37.9227010" lon="-2.9472190">
        <ele>980.4</ele>
        <time>2020-07-15T09:45:22Z</time>
      </trkpt>
      <trkpt lat="37.9226270" lon="-2.9473090">
        <ele>981.0</ele>
        <time>2020-07-15T09:45:26Z</time>
      </trkpt>
      <trkpt lat="37.9225870" lon="-2.9473600">
        <ele>981.4</ele>
        <time>2020-07-15T09:45:28Z</time>
      </trkpt>
      <trkpt lat="37.9225180" lon="-2.9475060">
        <ele>982.4</ele>
        <time>2020-07-15T09:45:33Z</time>
      </trkpt>
      <trkpt lat="37.9225080" lon="-2.9475380">
        <ele>982.6</ele>
        <time>2020-07-15T09:45:34Z</time>
      </trkpt>
      <trkpt lat="37.9224610" lon="-2.9476810">
        <ele>983.6</ele>
        <time>2020-07-15T09:45:39Z</time>
      </trkpt>
      <trkpt lat="37.9224530" lon="-2.9477000">
        <ele>983.8</ele>
        <time>2020-07-15T09:45:40Z</time>
      </trkpt>
      <trkpt lat="37.9224030" lon="-2.9478150">
        <ele>985.0</ele>
        <time>2020-07-15T09:45:45Z</time>
      </trkpt>
      <trkpt lat="37.9223170" lon="-2.9479550">
        <ele>986.0</ele>
        <time>2020-07-15T09:45:50Z</time>
      </trkpt>
      <trkpt lat="37.9221830" lon="-2.9480760">
        <ele>987.2</ele>
        <time>2020-07-15T09:45:56Z</time>
      </trkpt>
      <trkpt lat="37.9219970" lon="-2.9482130">
        <ele>988.2</ele>
        <time>2020-07-15T09:46:04Z</time>
      </trkpt>
      <trkpt lat="37.9219760" lon="-2.9482260">
        <ele>988.4</ele>
        <time>2020-07-15T09:46:05Z</time>
      </trkpt>
      <trkpt lat="37.9218680" lon="-2.9483280">
        <ele>989.4</ele>
        <time>2020-07-15T09:46:10Z</time>
      </trkpt>
      <trkpt lat="37.9218270" lon="-2.9483720">
        <ele>989.8</ele>
        <time>2020-07-15T09:46:12Z</time>
      </trkpt>
      <trkpt lat="37.9217660" lon="-2.9484310">
        <ele>990.4</ele>
        <time>2020-07-15T09:46:15Z</time>
      </trkpt>
      <trkpt lat="37.9216530" lon="-2.9485130">
        <ele>991.4</ele>
        <time>2020-07-15T09:46:20Z</time>
      </trkpt>
      <trkpt lat="37.9216290" lon="-2.9485280">
        <ele>991.6</ele>
        <time>2020-07-15T09:46:21Z</time>
      </trkpt>
      <trkpt lat="37.9214800" lon="-2.9485890">
        <ele>992.4</ele>
        <time>2020-07-15T09:46:27Z</time>
      </trkpt>
      <trkpt lat="37.9214340" lon="-2.9486010">
        <ele>992.8</ele>
        <time>2020-07-15T09:46:29Z</time>
      </trkpt>
      <trkpt lat="37.9213630" lon="-2.9486280">
        <ele>993.6</ele>
        <time>2020-07-15T09:46:32Z</time>
      </trkpt>
      <trkpt lat="37.9212710" lon="-2.9486610">
        <ele>994.2</ele>
        <time>2020-07-15T09:46:36Z</time>
      </trkpt>
      <trkpt lat="37.9212280" lon="-2.9486770">
        <ele>994.6</ele>
        <time>2020-07-15T09:46:38Z</time>
      </trkpt>
      <trkpt lat="37.9211170" lon="-2.9487160">
        <ele>995.8</ele>
        <time>2020-07-15T09:46:43Z</time>
      </trkpt>
      <trkpt lat="37.9209750" lon="-2.9487340">
        <ele>997.0</ele>
        <time>2020-07-15T09:46:49Z</time>
      </trkpt>
      <trkpt lat="37.9209560" lon="-2.9487360">
        <ele>997.2</ele>
        <time>2020-07-15T09:46:50Z</time>
      </trkpt>
      <trkpt lat="37.9208590" lon="-2.9487300">
        <ele>998.0</ele>
        <time>2020-07-15T09:46:54Z</time>
      </trkpt>
      <trkpt lat="37.9207650" lon="-2.9486950">
        <ele>998.8</ele>
        <time>2020-07-15T09:46:58Z</time>
      </trkpt>
      <trkpt lat="37.9207170" lon="-2.9486780">
        <ele>999.0</ele>
        <time>2020-07-15T09:47:00Z</time>
      </trkpt>
      <trkpt lat="37.9205700" lon="-2.9485910">
        <ele>1000.2</ele>
        <time>2020-07-15T09:47:07Z</time>
      </trkpt>
      <trkpt lat="37.9204310" lon="-2.9485320">
        <ele>1001.2</ele>
        <time>2020-07-15T09:47:13Z</time>
      </trkpt>
      <trkpt lat="37.9203840" lon="-2.9485090">
        <ele>1001.6</ele>
        <time>2020-07-15T09:47:15Z</time>
      </trkpt>
      <trkpt lat="37.9203600" lon="-2.9484980">
        <ele>1001.8</ele>
        <time>2020-07-15T09:47:16Z</time>
      </trkpt>
      <trkpt lat="37.9202920" lon="-2.9484680">
        <ele>1002.2</ele>
        <time>2020-07-15T09:47:19Z</time>
      </trkpt>
      <trkpt lat="37.9201590" lon="-2.9484010">
        <ele>1003.4</ele>
        <time>2020-07-15T09:47:25Z</time>
      </trkpt>
      <trkpt lat="37.9200010" lon="-2.9483220">
        <ele>1004.4</ele>
        <time>2020-07-15T09:47:32Z</time>
      </trkpt>
      <trkpt lat="37.9199050" lon="-2.9482760">
        <ele>1005.2</ele>
        <time>2020-07-15T09:47:36Z</time>
      </trkpt>
      <trkpt lat="37.9198810" lon="-2.9482680">
        <ele>1005.4</ele>
        <time>2020-07-15T09:47:37Z</time>
      </trkpt>
      <trkpt lat="37.9197490" lon="-2.9482660">
        <ele>1006.4</ele>
        <time>2020-07-15T09:47:42Z</time>
      </trkpt>
      <trkpt lat="37.9197260" lon="-2.9482750">
        <ele>1006.6</ele>
        <time>2020-07-15T09:47:43Z</time>
      </trkpt>
      <trkpt lat="37.9196000" lon="-2.9483480">
        <ele>1007.4</ele>
        <time>2020-07-15T09:47:48Z</time>
      </trkpt>
      <trkpt lat="37.9195770" lon="-2.9483630">
        <ele>1007.6</ele>
        <time>2020-07-15T09:47:49Z</time>
      </trkpt>
      <trkpt lat="37.9194720" lon="-2.9484390">
        <ele>1008.6</ele>
        <time>2020-07-15T09:47:54Z</time>
      </trkpt>
      <trkpt lat="37.9194550" lon="-2.9484540">
        <ele>1008.8</ele>
        <time>2020-07-15T09:47:55Z</time>
      </trkpt>
      <trkpt lat="37.9193370" lon="-2.9485490">
        <ele>1009.8</ele>
        <time>2020-07-15T09:48:01Z</time>
      </trkpt>
      <trkpt lat="37.9193190" lon="-2.9485800">
        <ele>1010.0</ele>
        <time>2020-07-15T09:48:02Z</time>
      </trkpt>
      <trkpt lat="37.9192190" lon="-2.9486730">
        <ele>1010.8</ele>
        <time>2020-07-15T09:48:07Z</time>
      </trkpt>
      <trkpt lat="37.9192000" lon="-2.9486930">
        <ele>1011.0</ele>
        <time>2020-07-15T09:48:08Z</time>
      </trkpt>
      <trkpt lat="37.9191110" lon="-2.9488050">
        <ele>1012.2</ele>
        <time>2020-07-15T09:48:13Z</time>
      </trkpt>
      <trkpt lat="37.9190780" lon="-2.9488550">
        <ele>1012.4</ele>
        <time>2020-07-15T09:48:15Z</time>
      </trkpt>
      <trkpt lat="37.9190190" lon="-2.9489540">
        <ele>1013.2</ele>
        <time>2020-07-15T09:48:19Z</time>
      </trkpt>
      <trkpt lat="37.9189790" lon="-2.9491020">
        <ele>1014.4</ele>
        <time>2020-07-15T09:48:24Z</time>
      </trkpt>
      <trkpt lat="37.9190020" lon="-2.9492990">
        <ele>1015.4</ele>
        <time>2020-07-15T09:48:30Z</time>
      </trkpt>
      <trkpt lat="37.9190130" lon="-2.9493280">
        <ele>1015.6</ele>
        <time>2020-07-15T09:48:31Z</time>
      </trkpt>
      <trkpt lat="37.9190530" lon="-2.9494040">
        <ele>1016.4</ele>
        <time>2020-07-15T09:48:34Z</time>
      </trkpt>
      <trkpt lat="37.9191210" lon="-2.9494790">
        <ele>1017.4</ele>
        <time>2020-07-15T09:48:38Z</time>
      </trkpt>
      <trkpt lat="37.9191400" lon="-2.9494980">
        <ele>1017.6</ele>
        <time>2020-07-15T09:48:39Z</time>
      </trkpt>
      <trkpt lat="37.9192440" lon="-2.9496050">
        <ele>1018.6</ele>
        <time>2020-07-15T09:48:45Z</time>
      </trkpt>
      <trkpt lat="37.9192560" lon="-2.9496260">
        <ele>1018.8</ele>
        <time>2020-07-15T09:48:46Z</time>
      </trkpt>
      <trkpt lat="37.9193060" lon="-2.9497220">
        <ele>1019.8</ele>
        <time>2020-07-15T09:48:50Z</time>
      </trkpt>
      <trkpt lat="37.9193220" lon="-2.9497780">
        <ele>1020.2</ele>
        <time>2020-07-15T09:48:52Z</time>
      </trkpt>
      <trkpt lat="37.9193400" lon="-2.9498610">
        <ele>1021.0</ele>
        <time>2020-07-15T09:48:55Z</time>
      </trkpt>
      <trkpt lat="37.9193390" lon="-2.9500050">
        <ele>1021.8</ele>
        <time>2020-07-15T09:49:00Z</time>
      </trkpt>
      <trkpt lat="37.9193350" lon="-2.9500300">
        <ele>1022.0</ele>
        <time>2020-07-15T09:49:01Z</time>
      </trkpt>
      <trkpt lat="37.9192980" lon="-2.9501390">
        <ele>1023.0</ele>
        <time>2020-07-15T09:49:05Z</time>
      </trkpt>
      <trkpt lat="37.9192670" lon="-2.9501890">
        <ele>1023.4</ele>
        <time>2020-07-15T09:49:07Z</time>
      </trkpt>
      <trkpt lat="37.9192090" lon="-2.9502490">
        <ele>1024.0</ele>
        <time>2020-07-15T09:49:10Z</time>
      </trkpt>
      <trkpt lat="37.9191270" lon="-2.9503330">
        <ele>1024.8</ele>
        <time>2020-07-15T09:49:14Z</time>
      </trkpt>
      <trkpt lat="37.9190660" lon="-2.9503950">
        <ele>1025.2</ele>
        <time>2020-07-15T09:49:17Z</time>
      </trkpt>
      <trkpt lat="37.9189620" lon="-2.9504850">
        <ele>1025.8</ele>
        <time>2020-07-15T09:49:22Z</time>
      </trkpt>
      <trkpt lat="37.9189220" lon="-2.9505190">
        <ele>1026.2</ele>
        <time>2020-07-15T09:49:24Z</time>
      </trkpt>
      <trkpt lat="37.9188220" lon="-2.9505970">
        <ele>1027.2</ele>
        <time>2020-07-15T09:49:29Z</time>
      </trkpt>
      <trkpt lat="37.9187620" lon="-2.9506440">
        <ele>1027.8</ele>
        <time>2020-07-15T09:49:32Z</time>
      </trkpt>
      <trkpt lat="37.9187050" lon="-2.9506910">
        <ele>1028.4</ele>
        <time>2020-07-15T09:49:35Z</time>
      </trkpt>
      <trkpt lat="37.9186200" lon="-2.9507590">
        <ele>1029.2</ele>
        <time>2020-07-15T09:49:39Z</time>
      </trkpt>
      <trkpt lat="37.9185790" lon="-2.9507880">
        <ele>1029.4</ele>
        <time>2020-07-15T09:49:41Z</time>
      </trkpt>
      <trkpt lat="37.9184520" lon="-2.9508770">
        <ele>1030.4</ele>
        <time>2020-07-15T09:49:47Z</time>
      </trkpt>
      <trkpt lat="37.9184100" lon="-2.9509090">
        <ele>1030.8</ele>
        <time>2020-07-15T09:49:49Z</time>
      </trkpt>
      <trkpt lat="37.9183040" lon="-2.9509880">
        <ele>1031.6</ele>
        <time>2020-07-15T09:49:54Z</time>
      </trkpt>
      <trkpt lat="37.9182440" lon="-2.9510350">
        <ele>1032.2</ele>
        <time>2020-07-15T09:49:57Z</time>
      </trkpt>
      <trkpt lat="37.9181830" lon="-2.9510880">
        <ele>1032.6</ele>
        <time>2020-07-15T09:50:00Z</time>
      </trkpt>
      <trkpt lat="37.9180930" lon="-2.9511540">
        <ele>1033.4</ele>
        <time>2020-07-15T09:50:04Z</time>
      </trkpt>
      <trkpt lat="37.9180490" lon="-2.9511880">
        <ele>1033.8</ele>
        <time>2020-07-15T09:50:06Z</time>
      </trkpt>
      <trkpt lat="37.9179380" lon="-2.9512590">
        <ele>1034.8</ele>
        <time>2020-07-15T09:50:11Z</time>
      </trkpt>
      <trkpt lat="37.9178140" lon="-2.9513090">
        <ele>1036.0</ele>
        <time>2020-07-15T09:50:16Z</time>
      </trkpt>
      <trkpt lat="37.9177430" lon="-2.9513180">
        <ele>1036.6</ele>
        <time>2020-07-15T09:50:19Z</time>
      </trkpt>
      <trkpt lat="37.9176950" lon="-2.9513150">
        <ele>1037.0</ele>
        <time>2020-07-15T09:50:21Z</time>
      </trkpt>
      <trkpt lat="37.9175770" lon="-2.9512830">
        <ele>1038.0</ele>
        <time>2020-07-15T09:50:26Z</time>
      </trkpt>
      <trkpt lat="37.9175520" lon="-2.9512770">
        <ele>1038.2</ele>
        <time>2020-07-15T09:50:27Z</time>
      </trkpt>
      <trkpt lat="37.9174340" lon="-2.9512390">
        <ele>1039.0</ele>
        <time>2020-07-15T09:50:32Z</time>
      </trkpt>
      <trkpt lat="37.9173750" lon="-2.9512120">
        <ele>1039.4</ele>
        <time>2020-07-15T09:50:35Z</time>
      </trkpt>
      <trkpt lat="37.9173080" lon="-2.9511910">
        <ele>1040.0</ele>
        <time>2020-07-15T09:50:38Z</time>
      </trkpt>
      <trkpt lat="37.9171850" lon="-2.9511880">
        <ele>1041.0</ele>
        <time>2020-07-15T09:50:43Z</time>
      </trkpt>
      <trkpt lat="37.9170410" lon="-2.9512580">
        <ele>1042.0</ele>
        <time>2020-07-15T09:50:49Z</time>
      </trkpt>
      <trkpt lat="37.9170260" lon="-2.9512750">
        <ele>1042.2</ele>
        <time>2020-07-15T09:50:50Z</time>
      </trkpt>
      <trkpt lat="37.9169460" lon="-2.9514040">
        <ele>1043.2</ele>
        <time>2020-07-15T09:50:55Z</time>
      </trkpt>
      <trkpt lat="37.9169170" lon="-2.9515600">
        <ele>1044.2</ele>
        <time>2020-07-15T09:51:00Z</time>
      </trkpt>
      <trkpt lat="37.9169490" lon="-2.9517060">
        <ele>1045.2</ele>
        <time>2020-07-15T09:51:05Z</time>
      </trkpt>
      <trkpt lat="37.9169570" lon="-2.9517370">
        <ele>1045.4</ele>
        <time>2020-07-15T09:51:06Z</time>
      </trkpt>
      <trkpt lat="37.9169920" lon="-2.9518540">
        <ele>1046.2</ele>
        <time>2020-07-15T09:51:10Z</time>
      </trkpt>
      <trkpt lat="37.9170150" lon="-2.9519440">
        <ele>1047.0</ele>
        <time>2020-07-15T09:51:13Z</time>
      </trkpt>
      <trkpt lat="37.9170140" lon="-2.9520120">
        <ele>1047.4</ele>
        <time>2020-07-15T09:51:15Z</time>
      </trkpt>
      <trkpt lat="37.9170000" lon="-2.9521530">
        <ele>1048.2</ele>
        <time>2020-07-15T09:51:19Z</time>
      </trkpt>
      <trkpt lat="37.9169900" lon="-2.9521850">
        <ele>1048.4</ele>
        <time>2020-07-15T09:51:20Z</time>
      </trkpt>
      <trkpt lat="37.9169400" lon="-2.9523150">
        <ele>1049.2</ele>
        <time>2020-07-15T09:51:24Z</time>
      </trkpt>
      <trkpt lat="37.9169280" lon="-2.9523450">
        <ele>1049.4</ele>
        <time>2020-07-15T09:51:25Z</time>
      </trkpt>
      <trkpt lat="37.9168350" lon="-2.9525110">
        <ele>1050.6</ele>
        <time>2020-07-15T09:51:31Z</time>
      </trkpt>
      <trkpt lat="37.9167600" lon="-2.9526810">
        <ele>1051.6</ele>
        <time>2020-07-15T09:51:37Z</time>
      </trkpt>
      <trkpt lat="37.9167520" lon="-2.9527110">
        <ele>1051.6</ele>
        <time>2020-07-15T09:51:38Z</time>
      </trkpt>
      <trkpt lat="37.9167080" lon="-2.9528670">
        <ele>1052.6</ele>
        <time>2020-07-15T09:51:43Z</time>
      </trkpt>
      <trkpt lat="37.9167010" lon="-2.9529350">
        <ele>1053.0</ele>
        <time>2020-07-15T09:51:45Z</time>
      </trkpt>
      <trkpt lat="37.9167030" lon="-2.9530250">
        <ele>1053.8</ele>
        <time>2020-07-15T09:51:48Z</time>
      </trkpt>
      <trkpt lat="37.9167000" lon="-2.9530870">
        <ele>1054.2</ele>
        <time>2020-07-15T09:51:50Z</time>
      </trkpt>
      <trkpt lat="37.9166880" lon="-2.9532050">
        <ele>1055.0</ele>
        <time>2020-07-15T09:51:54Z</time>
      </trkpt>
      <trkpt lat="37.9166890" lon="-2.9532350">
        <ele>1055.2</ele>
        <time>2020-07-15T09:51:55Z</time>
      </trkpt>
      <trkpt lat="37.9166730" lon="-2.9533890">
        <ele>1055.8</ele>
        <time>2020-07-15T09:52:00Z</time>
      </trkpt>
      <trkpt lat="37.9166720" lon="-2.9534190">
        <ele>1056.0</ele>
        <time>2020-07-15T09:52:01Z</time>
      </trkpt>
      <trkpt lat="37.9166590" lon="-2.9535380">
        <ele>1056.6</ele>
        <time>2020-07-15T09:52:05Z</time>
      </trkpt>
      <trkpt lat="37.9166520" lon="-2.9536460">
        <ele>1057.2</ele>
        <time>2020-07-15T09:52:08Z</time>
      </trkpt>
      <trkpt lat="37.9166470" lon="-2.9538180">
        <ele>1058.2</ele>
        <time>2020-07-15T09:52:13Z</time>
      </trkpt>
      <trkpt lat="37.9166450" lon="-2.9538560">
        <ele>1058.2</ele>
        <time>2020-07-15T09:52:14Z</time>
      </trkpt>
      <trkpt lat="37.9166620" lon="-2.9540260">
        <ele>1059.2</ele>
        <time>2020-07-15T09:52:19Z</time>
      </trkpt>
      <trkpt lat="37.9166730" lon="-2.9540570">
        <ele>1059.4</ele>
        <time>2020-07-15T09:52:20Z</time>
      </trkpt>
      <trkpt lat="37.9167600" lon="-2.9541480">
        <ele>1060.2</ele>
        <time>2020-07-15T09:52:24Z</time>
      </trkpt>
      <trkpt lat="37.9167910" lon="-2.9541460">
        <ele>1060.4</ele>
        <time>2020-07-15T09:52:25Z</time>
      </trkpt>
      <trkpt lat="37.9168510" lon="-2.9541180">
        <ele>1060.6</ele>
        <time>2020-07-15T09:52:27Z</time>
      </trkpt>
      <trkpt lat="37.9170300" lon="-2.9539420">
        <ele>1061.0</ele>
        <time>2020-07-15T09:52:33Z</time>
      </trkpt>
      <trkpt lat="37.9171990" lon="-2.9538100">
        <ele>1061.6</ele>
        <time>2020-07-15T09:52:38Z</time>
      </trkpt>
      <trkpt lat="37.9172360" lon="-2.9538010">
        <ele>1061.8</ele>
        <time>2020-07-15T09:52:39Z</time>
      </trkpt>
      <trkpt lat="37.9173760" lon="-2.9538150">
        <ele>1062.4</ele>
        <time>2020-07-15T09:52:43Z</time>
      </trkpt>
      <trkpt lat="37.9174430" lon="-2.9538290">
        <ele>1062.8</ele>
        <time>2020-07-15T09:52:45Z</time>
      </trkpt>
      <trkpt lat="37.9176440" lon="-2.9538150">
        <ele>1063.8</ele>
        <time>2020-07-15T09:52:51Z</time>
      </trkpt>
      <trkpt lat="37.9177000" lon="-2.9537640">
        <ele>1064.0</ele>
        <time>2020-07-15T09:52:53Z</time>
      </trkpt>
      <trkpt lat="37.9177540" lon="-2.9537060">
        <ele>1064.2</ele>
        <time>2020-07-15T09:52:55Z</time>
      </trkpt>
      <trkpt lat="37.9178100" lon="-2.9536550">
        <ele>1064.8</ele>
        <time>2020-07-15T09:52:57Z</time>
      </trkpt>
      <trkpt lat="37.9179490" lon="-2.9535830">
        <ele>1065.8</ele>
        <time>2020-07-15T09:53:01Z</time>
      </trkpt>
      <trkpt lat="37.9179820" lon="-2.9535750">
        <ele>1066.0</ele>
        <time>2020-07-15T09:53:02Z</time>
      </trkpt>
      <trkpt lat="37.9181180" lon="-2.9535560">
        <ele>1066.6</ele>
        <time>2020-07-15T09:53:06Z</time>
      </trkpt>
      <trkpt lat="37.9181790" lon="-2.9535500">
        <ele>1067.0</ele>
        <time>2020-07-15T09:53:08Z</time>
      </trkpt>
      <trkpt lat="37.9183510" lon="-2.9535530">
        <ele>1068.2</ele>
        <time>2020-07-15T09:53:14Z</time>
      </trkpt>
      <trkpt lat="37.9184640" lon="-2.9535700">
        <ele>1069.4</ele>
        <time>2020-07-15T09:53:18Z</time>
      </trkpt>
      <trkpt lat="37.9185500" lon="-2.9536150">
        <ele>1070.0</ele>
        <time>2020-07-15T09:53:21Z</time>
      </trkpt>
      <trkpt lat="37.9186370" lon="-2.9536750">
        <ele>1070.4</ele>
        <time>2020-07-15T09:53:24Z</time>
      </trkpt>
      <trkpt lat="37.9187920" lon="-2.9537900">
        <ele>1070.8</ele>
        <time>2020-07-15T09:53:29Z</time>
      </trkpt>
      <trkpt lat="37.9189390" lon="-2.9537770">
        <ele>1071.2</ele>
        <time>2020-07-15T09:53:33Z</time>
      </trkpt>
      <trkpt lat="37.9189980" lon="-2.9537050">
        <ele>1071.4</ele>
        <time>2020-07-15T09:53:35Z</time>
      </trkpt>
      <trkpt lat="37.9190320" lon="-2.9536130">
        <ele>1071.6</ele>
        <time>2020-07-15T09:53:37Z</time>
      </trkpt>
      <trkpt lat="37.9191270" lon="-2.9533490">
        <ele>1072.6</ele>
        <time>2020-07-15T09:53:43Z</time>
      </trkpt>
      <trkpt lat="37.9193310" lon="-2.9531450">
        <ele>1073.2</ele>
        <time>2020-07-15T09:53:49Z</time>
      </trkpt>
      <trkpt lat="37.9194870" lon="-2.9530280">
        <ele>1073.2</ele>
        <time>2020-07-15T09:53:53Z</time>
      </trkpt>
      <trkpt lat="37.9195800" lon="-2.9529920">
        <ele>1073.2</ele>
        <time>2020-07-15T09:53:55Z</time>
      </trkpt>
      <trkpt lat="37.9196690" lon="-2.9529690">
        <ele>1073.4</ele>
        <time>2020-07-15T09:53:57Z</time>
      </trkpt>
      <trkpt lat="37.9197070" lon="-2.9529640">
        <ele>1073.6</ele>
        <time>2020-07-15T09:53:58Z</time>
      </trkpt>
      <trkpt lat="37.9197480" lon="-2.9529620">
        <ele>1073.6</ele>
        <time>2020-07-15T09:53:59Z</time>
      </trkpt>
      <trkpt lat="37.9198240" lon="-2.9529610">
        <ele>1074.0</ele>
        <time>2020-07-15T09:54:01Z</time>
      </trkpt>
      <trkpt lat="37.9199290" lon="-2.9529810">
        <ele>1074.8</ele>
        <time>2020-07-15T09:54:04Z</time>
      </trkpt>
      <trkpt lat="37.9201070" lon="-2.9530220">
        <ele>1075.8</ele>
        <time>2020-07-15T09:54:09Z</time>
      </trkpt>
      <trkpt lat="37.9202350" lon="-2.9530590">
        <ele>1077.2</ele>
        <time>2020-07-15T09:54:13Z</time>
      </trkpt>
      <trkpt lat="37.9202940" lon="-2.9530860">
        <ele>1077.6</ele>
        <time>2020-07-15T09:54:15Z</time>
      </trkpt>
      <trkpt lat="37.9203540" lon="-2.9531160">
        <ele>1078.2</ele>
        <time>2020-07-15T09:54:17Z</time>
      </trkpt>
      <trkpt lat="37.9204690" lon="-2.9531710">
        <ele>1079.0</ele>
        <time>2020-07-15T09:54:20Z</time>
      </trkpt>
      <trkpt lat="37.9205100" lon="-2.9531880">
        <ele>1079.2</ele>
        <time>2020-07-15T09:54:21Z</time>
      </trkpt>
      <trkpt lat="37.9205900" lon="-2.9532090">
        <ele>1079.4</ele>
        <time>2020-07-15T09:54:23Z</time>
      </trkpt>
      <trkpt lat="37.9207140" lon="-2.9532000">
        <ele>1079.8</ele>
        <time>2020-07-15T09:54:26Z</time>
      </trkpt>
      <trkpt lat="37.9207820" lon="-2.9531820">
        <ele>1080.2</ele>
        <time>2020-07-15T09:54:28Z</time>
      </trkpt>
      <trkpt lat="37.9208150" lon="-2.9531710">
        <ele>1080.4</ele>
        <time>2020-07-15T09:54:29Z</time>
      </trkpt>
      <trkpt lat="37.9209530" lon="-2.9531330">
        <ele>1081.6</ele>
        <time>2020-07-15T09:54:33Z</time>
      </trkpt>
      <trkpt lat="37.9211300" lon="-2.9531100">
        <ele>1082.6</ele>
        <time>2020-07-15T09:54:38Z</time>
      </trkpt>
      <trkpt lat="37.9212090" lon="-2.9531090">
        <ele>1083.0</ele>
        <time>2020-07-15T09:54:40Z</time>
      </trkpt>
      <trkpt lat="37.9214100" lon="-2.9531380">
        <ele>1083.6</ele>
        <time>2020-07-15T09:54:45Z</time>
      </trkpt>
      <trkpt lat="37.9214840" lon="-2.9531500">
        <ele>1084.0</ele>
        <time>2020-07-15T09:54:47Z</time>
      </trkpt>
      <trkpt lat="37.9216710" lon="-2.9531540">
        <ele>1084.4</ele>
        <time>2020-07-15T09:54:52Z</time>
      </trkpt>
      <trkpt lat="37.9217400" lon="-2.9531190">
        <ele>1084.6</ele>
        <time>2020-07-15T09:54:54Z</time>
      </trkpt>
      <trkpt lat="37.9218380" lon="-2.9530680">
        <ele>1085.4</ele>
        <time>2020-07-15T09:54:57Z</time>
      </trkpt>
      <trkpt lat="37.9218920" lon="-2.9530380">
        <ele>1085.8</ele>
        <time>2020-07-15T09:54:59Z</time>
      </trkpt>
      <trkpt lat="37.9220180" lon="-2.9529740">
        <ele>1086.6</ele>
        <time>2020-07-15T09:55:03Z</time>
      </trkpt>
      <trkpt lat="37.9220550" lon="-2.9529510">
        <ele>1086.8</ele>
        <time>2020-07-15T09:55:04Z</time>
      </trkpt>
      <trkpt lat="37.9222580" lon="-2.9527870">
        <ele>1088.0</ele>
        <time>2020-07-15T09:55:10Z</time>
      </trkpt>
      <trkpt lat="37.9222820" lon="-2.9527640">
        <ele>1088.0</ele>
        <time>2020-07-15T09:55:11Z</time>
      </trkpt>
      <trkpt lat="37.9225150" lon="-2.9525610">
        <ele>1089.0</ele>
        <time>2020-07-15T09:55:18Z</time>
      </trkpt>
      <trkpt lat="37.9226900" lon="-2.9524100">
        <ele>1089.8</ele>
        <time>2020-07-15T09:55:24Z</time>
      </trkpt>
      <trkpt lat="37.9227490" lon="-2.9523590">
        <ele>1090.2</ele>
        <time>2020-07-15T09:55:26Z</time>
      </trkpt>
      <trkpt lat="37.9229000" lon="-2.9522270">
        <ele>1091.4</ele>
        <time>2020-07-15T09:55:31Z</time>
      </trkpt>
      <trkpt lat="37.9229320" lon="-2.9522020">
        <ele>1091.6</ele>
        <time>2020-07-15T09:55:32Z</time>
      </trkpt>
      <trkpt lat="37.9230600" lon="-2.9520990">
        <ele>1092.4</ele>
        <time>2020-07-15T09:55:36Z</time>
      </trkpt>
      <trkpt lat="37.9231840" lon="-2.9520000">
        <ele>1093.2</ele>
        <time>2020-07-15T09:55:40Z</time>
      </trkpt>
      <trkpt lat="37.9232120" lon="-2.9519830">
        <ele>1093.6</ele>
        <time>2020-07-15T09:55:41Z</time>
      </trkpt>
      <trkpt lat="37.9233410" lon="-2.9519480">
        <ele>1094.6</ele>
        <time>2020-07-15T09:55:45Z</time>
      </trkpt>
      <trkpt lat="37.9233750" lon="-2.9519500">
        <ele>1094.8</ele>
        <time>2020-07-15T09:55:46Z</time>
      </trkpt>
      <trkpt lat="37.9235250" lon="-2.9520030">
        <ele>1095.8</ele>
        <time>2020-07-15T09:55:51Z</time>
      </trkpt>
      <trkpt lat="37.9236410" lon="-2.9520470">
        <ele>1096.8</ele>
        <time>2020-07-15T09:55:55Z</time>
      </trkpt>
      <trkpt lat="37.9237460" lon="-2.9520960">
        <ele>1098.0</ele>
        <time>2020-07-15T09:55:59Z</time>
      </trkpt>
      <trkpt lat="37.9238920" lon="-2.9521640">
        <ele>1099.0</ele>
        <time>2020-07-15T09:56:04Z</time>
      </trkpt>
      <trkpt lat="37.9239840" lon="-2.9521710">
        <ele>1099.2</ele>
        <time>2020-07-15T09:56:07Z</time>
      </trkpt>
      <trkpt lat="37.9240740" lon="-2.9521450">
        <ele>1100.0</ele>
        <time>2020-07-15T09:56:10Z</time>
      </trkpt>
      <trkpt lat="37.9241530" lon="-2.9520950">
        <ele>1100.6</ele>
        <time>2020-07-15T09:56:13Z</time>
      </trkpt>
      <trkpt lat="37.9242090" lon="-2.9520560">
        <ele>1101.0</ele>
        <time>2020-07-15T09:56:15Z</time>
      </trkpt>
      <trkpt lat="37.9243490" lon="-2.9519810">
        <ele>1102.2</ele>
        <time>2020-07-15T09:56:20Z</time>
      </trkpt>
      <trkpt lat="37.9243800" lon="-2.9519700">
        <ele>1102.4</ele>
        <time>2020-07-15T09:56:21Z</time>
      </trkpt>
      <trkpt lat="37.9245960" lon="-2.9518740">
        <ele>1103.2</ele>
        <time>2020-07-15T09:56:27Z</time>
      </trkpt>
      <trkpt lat="37.9246700" lon="-2.9518480">
        <ele>1103.2</ele>
        <time>2020-07-15T09:56:29Z</time>
      </trkpt>
      <trkpt lat="37.9248020" lon="-2.9517930">
        <ele>1103.6</ele>
        <time>2020-07-15T09:56:33Z</time>
      </trkpt>
      <trkpt lat="37.9249870" lon="-2.9516450">
        <ele>1104.4</ele>
        <time>2020-07-15T09:56:39Z</time>
      </trkpt>
      <trkpt lat="37.9250360" lon="-2.9515880">
        <ele>1105.0</ele>
        <time>2020-07-15T09:56:41Z</time>
      </trkpt>
      <trkpt lat="37.9251080" lon="-2.9514900">
        <ele>1105.6</ele>
        <time>2020-07-15T09:56:44Z</time>
      </trkpt>
      <trkpt lat="37.9252220" lon="-2.9513330">
        <ele>1106.6</ele>
        <time>2020-07-15T09:56:49Z</time>
      </trkpt>
      <trkpt lat="37.9252410" lon="-2.9513060">
        <ele>1106.8</ele>
        <time>2020-07-15T09:56:50Z</time>
      </trkpt>
      <trkpt lat="37.9253230" lon="-2.9512010">
        <ele>1107.6</ele>
        <time>2020-07-15T09:56:54Z</time>
      </trkpt>
      <trkpt lat="37.9253660" lon="-2.9511530">
        <ele>1107.8</ele>
        <time>2020-07-15T09:56:56Z</time>
      </trkpt>
      <trkpt lat="37.9254630" lon="-2.9510540">
        <ele>1108.8</ele>
        <time>2020-07-15T09:57:00Z</time>
      </trkpt>
      <trkpt lat="37.9254860" lon="-2.9510300">
        <ele>1109.2</ele>
        <time>2020-07-15T09:57:01Z</time>
      </trkpt>
      <trkpt lat="37.9255600" lon="-2.9509600">
        <ele>1110.0</ele>
        <time>2020-07-15T09:57:04Z</time>
      </trkpt>
      <trkpt lat="37.9256780" lon="-2.9508530">
        <ele>1111.2</ele>
        <time>2020-07-15T09:57:09Z</time>
      </trkpt>
      <trkpt lat="37.9258080" lon="-2.9507570">
        <ele>1112.2</ele>
        <time>2020-07-15T09:57:14Z</time>
      </trkpt>
      <trkpt lat="37.9258900" lon="-2.9507060">
        <ele>1112.8</ele>
        <time>2020-07-15T09:57:17Z</time>
      </trkpt>
      <trkpt lat="37.9259730" lon="-2.9506460">
        <ele>1113.2</ele>
        <time>2020-07-15T09:57:20Z</time>
      </trkpt>
      <trkpt lat="37.9261060" lon="-2.9505570">
        <ele>1114.4</ele>
        <time>2020-07-15T09:57:25Z</time>
      </trkpt>
      <trkpt lat="37.9262100" lon="-2.9504900">
        <ele>1115.6</ele>
        <time>2020-07-15T09:57:29Z</time>
      </trkpt>
      <trkpt lat="37.9262930" lon="-2.9504460">
        <ele>1116.2</ele>
        <time>2020-07-15T09:57:32Z</time>
      </trkpt>
      <trkpt lat="37.9263530" lon="-2.9504140">
        <ele>1116.8</ele>
        <time>2020-07-15T09:57:34Z</time>
      </trkpt>
      <trkpt lat="37.9264370" lon="-2.9503810">
        <ele>1117.2</ele>
        <time>2020-07-15T09:57:37Z</time>
      </trkpt>
      <trkpt lat="37.9265580" lon="-2.9503170">
        <ele>1117.8</ele>
        <time>2020-07-15T09:57:41Z</time>
      </trkpt>
      <trkpt lat="37.9266200" lon="-2.9502660">
        <ele>1118.2</ele>
        <time>2020-07-15T09:57:43Z</time>
      </trkpt>
      <trkpt lat="37.9267550" lon="-2.9501220">
        <ele>1118.8</ele>
        <time>2020-07-15T09:57:48Z</time>
      </trkpt>
      <trkpt lat="37.9268370" lon="-2.9500250">
        <ele>1119.2</ele>
        <time>2020-07-15T09:57:51Z</time>
      </trkpt>
      <trkpt lat="37.9270480" lon="-2.9497850">
        <ele>1119.8</ele>
        <time>2020-07-15T09:57:58Z</time>
      </trkpt>
      <trkpt lat="37.9271300" lon="-2.9497230">
        <ele>1120.0</ele>
        <time>2020-07-15T09:58:00Z</time>
      </trkpt>
      <trkpt lat="37.9272750" lon="-2.9496400">
        <ele>1120.2</ele>
        <time>2020-07-15T09:58:03Z</time>
      </trkpt>
      <trkpt lat="37.9275310" lon="-2.9494240">
        <ele>1120.2</ele>
        <time>2020-07-15T09:58:09Z</time>
      </trkpt>
      <trkpt lat="37.9276810" lon="-2.9493030">
        <ele>1120.8</ele>
        <time>2020-07-15T09:58:13Z</time>
      </trkpt>
      <trkpt lat="37.9277230" lon="-2.9492870">
        <ele>1120.8</ele>
        <time>2020-07-15T09:58:14Z</time>
      </trkpt>
      <trkpt lat="37.9277610" lon="-2.9492790">
        <ele>1121.2</ele>
        <time>2020-07-15T09:58:15Z</time>
      </trkpt>
      <trkpt lat="37.9279110" lon="-2.9493070">
        <ele>1122.2</ele>
        <time>2020-07-15T09:58:19Z</time>
      </trkpt>
      <trkpt lat="37.9279470" lon="-2.9493230">
        <ele>1122.4</ele>
        <time>2020-07-15T09:58:20Z</time>
      </trkpt>
      <trkpt lat="37.9281250" lon="-2.9494120">
        <ele>1123.4</ele>
        <time>2020-07-15T09:58:25Z</time>
      </trkpt>
      <trkpt lat="37.9281600" lon="-2.9494300">
        <ele>1123.6</ele>
        <time>2020-07-15T09:58:26Z</time>
      </trkpt>
      <trkpt lat="37.9283050" lon="-2.9494480">
        <ele>1124.4</ele>
        <time>2020-07-15T09:58:30Z</time>
      </trkpt>
      <trkpt lat="37.9283380" lon="-2.9494390">
        <ele>1124.8</ele>
        <time>2020-07-15T09:58:31Z</time>
      </trkpt>
      <trkpt lat="37.9284830" lon="-2.9493740">
        <ele>1125.8</ele>
        <time>2020-07-15T09:58:35Z</time>
      </trkpt>
      <trkpt lat="37.9285460" lon="-2.9493390">
        <ele>1126.2</ele>
        <time>2020-07-15T09:58:37Z</time>
      </trkpt>
      <trkpt lat="37.9286320" lon="-2.9492920">
        <ele>1126.8</ele>
        <time>2020-07-15T09:58:40Z</time>
      </trkpt>
      <trkpt lat="37.9286920" lon="-2.9492620">
        <ele>1127.2</ele>
        <time>2020-07-15T09:58:42Z</time>
      </trkpt>
      <trkpt lat="37.9287890" lon="-2.9492090">
        <ele>1127.8</ele>
        <time>2020-07-15T09:58:45Z</time>
      </trkpt>
      <trkpt lat="37.9288800" lon="-2.9491650">
        <ele>1128.4</ele>
        <time>2020-07-15T09:58:48Z</time>
      </trkpt>
      <trkpt lat="37.9289760" lon="-2.9491400">
        <ele>1128.8</ele>
        <time>2020-07-15T09:58:51Z</time>
      </trkpt>
      <trkpt lat="37.9291110" lon="-2.9491440">
        <ele>1129.6</ele>
        <time>2020-07-15T09:58:55Z</time>
      </trkpt>
      <trkpt lat="37.9291820" lon="-2.9491540">
        <ele>1130.0</ele>
        <time>2020-07-15T09:58:57Z</time>
      </trkpt>
      <trkpt lat="37.9293960" lon="-2.9491660">
        <ele>1130.6</ele>
        <time>2020-07-15T09:59:03Z</time>
      </trkpt>
      <trkpt lat="37.9294950" lon="-2.9491210">
        <ele>1131.0</ele>
        <time>2020-07-15T09:59:06Z</time>
      </trkpt>
      <trkpt lat="37.9295510" lon="-2.9490760">
        <ele>1131.4</ele>
        <time>2020-07-15T09:59:08Z</time>
      </trkpt>
      <trkpt lat="37.9296530" lon="-2.9489740">
        <ele>1132.2</ele>
        <time>2020-07-15T09:59:12Z</time>
      </trkpt>
      <trkpt lat="37.9297680" lon="-2.9488420">
        <ele>1133.2</ele>
        <time>2020-07-15T09:59:17Z</time>
      </trkpt>
      <trkpt lat="37.9298170" lon="-2.9487880">
        <ele>1133.4</ele>
        <time>2020-07-15T09:59:19Z</time>
      </trkpt>
      <trkpt lat="37.9299660" lon="-2.9486200">
        <ele>1134.6</ele>
        <time>2020-07-15T09:59:25Z</time>
      </trkpt>
      <trkpt lat="37.9299900" lon="-2.9485910">
        <ele>1134.8</ele>
        <time>2020-07-15T09:59:26Z</time>
      </trkpt>
      <trkpt lat="37.9300880" lon="-2.9484680">
        <ele>1135.6</ele>
        <time>2020-07-15T09:59:30Z</time>
      </trkpt>
      <trkpt lat="37.9301260" lon="-2.9483870">
        <ele>1135.8</ele>
        <time>2020-07-15T09:59:32Z</time>
      </trkpt>
      <trkpt lat="37.9301590" lon="-2.9481490">
        <ele>1136.4</ele>
        <time>2020-07-15T09:59:37Z</time>
      </trkpt>
      <trkpt lat="37.9301610" lon="-2.9481080">
        <ele>1136.6</ele>
        <time>2020-07-15T09:59:38Z</time>
      </trkpt>
      <trkpt lat="37.9301980" lon="-2.9478700">
        <ele>1137.2</ele>
        <time>2020-07-15T09:59:43Z</time>
      </trkpt>
      <trkpt lat="37.9302410" lon="-2.9477470">
        <ele>1137.6</ele>
        <time>2020-07-15T09:59:46Z</time>
      </trkpt>
      <trkpt lat="37.9302940" lon="-2.9476270">
        <ele>1138.0</ele>
        <time>2020-07-15T09:59:49Z</time>
      </trkpt>
      <trkpt lat="37.9303490" lon="-2.9475170">
        <ele>1138.6</ele>
        <time>2020-07-15T09:59:52Z</time>
      </trkpt>
      <trkpt lat="37.9304500" lon="-2.9474020">
        <ele>1139.6</ele>
        <time>2020-07-15T09:59:56Z</time>
      </trkpt>
      <trkpt lat="37.9304820" lon="-2.9473830">
        <ele>1139.8</ele>
        <time>2020-07-15T09:59:57Z</time>
      </trkpt>
      <trkpt lat="37.9306070" lon="-2.9473660">
        <ele>1140.8</ele>
        <time>2020-07-15T10:00:01Z</time>
      </trkpt>
      <trkpt lat="37.9306370" lon="-2.9473760">
        <ele>1141.0</ele>
        <time>2020-07-15T10:00:02Z</time>
      </trkpt>
      <trkpt lat="37.9307590" lon="-2.9474190">
        <ele>1141.8</ele>
        <time>2020-07-15T10:00:06Z</time>
      </trkpt>
      <trkpt lat="37.9308220" lon="-2.9474140">
        <ele>1142.0</ele>
        <time>2020-07-15T10:00:08Z</time>
      </trkpt>
      <trkpt lat="37.9309140" lon="-2.9473690">
        <ele>1142.6</ele>
        <time>2020-07-15T10:00:11Z</time>
      </trkpt>
      <trkpt lat="37.9309900" lon="-2.9473200">
        <ele>1143.2</ele>
        <time>2020-07-15T10:00:14Z</time>
      </trkpt>
      <trkpt lat="37.9310930" lon="-2.9472450">
        <ele>1144.2</ele>
        <time>2020-07-15T10:00:18Z</time>
      </trkpt>
      <trkpt lat="37.9311230" lon="-2.9472240">
        <ele>1144.4</ele>
        <time>2020-07-15T10:00:19Z</time>
      </trkpt>
      <trkpt lat="37.9312930" lon="-2.9470760">
        <ele>1145.4</ele>
        <time>2020-07-15T10:00:25Z</time>
      </trkpt>
      <trkpt lat="37.9313140" lon="-2.9470460">
        <ele>1145.6</ele>
        <time>2020-07-15T10:00:26Z</time>
      </trkpt>
      <trkpt lat="37.9314040" lon="-2.9468680">
        <ele>1146.6</ele>
        <time>2020-07-15T10:00:31Z</time>
      </trkpt>
      <trkpt lat="37.9314220" lon="-2.9468310">
        <ele>1146.8</ele>
        <time>2020-07-15T10:00:32Z</time>
      </trkpt>
      <trkpt lat="37.9315560" lon="-2.9466390">
        <ele>1147.6</ele>
        <time>2020-07-15T10:00:38Z</time>
      </trkpt>
      <trkpt lat="37.9316140" lon="-2.9465810">
        <ele>1148.0</ele>
        <time>2020-07-15T10:00:40Z</time>
      </trkpt>
      <trkpt lat="37.9318350" lon="-2.9464210">
        <ele>1148.6</ele>
        <time>2020-07-15T10:00:47Z</time>
      </trkpt>
      <trkpt lat="37.9320240" lon="-2.9462950">
        <ele>1149.4</ele>
        <time>2020-07-15T10:00:53Z</time>
      </trkpt>
      <trkpt lat="37.9320940" lon="-2.9462450">
        <ele>1149.8</ele>
        <time>2020-07-15T10:00:55Z</time>
      </trkpt>
      <trkpt lat="37.9322120" lon="-2.9461430">
        <ele>1150.4</ele>
        <time>2020-07-15T10:00:59Z</time>
      </trkpt>
      <trkpt lat="37.9322980" lon="-2.9460610">
        <ele>1150.8</ele>
        <time>2020-07-15T10:01:02Z</time>
      </trkpt>
      <trkpt lat="37.9323480" lon="-2.9460090">
        <ele>1151.0</ele>
        <time>2020-07-15T10:01:04Z</time>
      </trkpt>
      <trkpt lat="37.9324880" lon="-2.9458660">
        <ele>1152.0</ele>
        <time>2020-07-15T10:01:09Z</time>
      </trkpt>
      <trkpt lat="37.9325230" lon="-2.9458420">
        <ele>1152.2</ele>
        <time>2020-07-15T10:01:10Z</time>
      </trkpt>
      <trkpt lat="37.9326790" lon="-2.9457800">
        <ele>1153.0</ele>
        <time>2020-07-15T10:01:15Z</time>
      </trkpt>
      <trkpt lat="37.9327080" lon="-2.9457770">
        <ele>1153.2</ele>
        <time>2020-07-15T10:01:16Z</time>
      </trkpt>
      <trkpt lat="37.9328710" lon="-2.9457290">
        <ele>1154.2</ele>
        <time>2020-07-15T10:01:21Z</time>
      </trkpt>
      <trkpt lat="37.9329030" lon="-2.9457140">
        <ele>1154.4</ele>
        <time>2020-07-15T10:01:22Z</time>
      </trkpt>
      <trkpt lat="37.9330450" lon="-2.9455960">
        <ele>1155.2</ele>
        <time>2020-07-15T10:01:27Z</time>
      </trkpt>
      <trkpt lat="37.9330710" lon="-2.9455720">
        <ele>1155.4</ele>
        <time>2020-07-15T10:01:28Z</time>
      </trkpt>
      <trkpt lat="37.9331440" lon="-2.9454870">
        <ele>1156.2</ele>
        <time>2020-07-15T10:01:31Z</time>
      </trkpt>
      <trkpt lat="37.9332170" lon="-2.9454080">
        <ele>1156.8</ele>
        <time>2020-07-15T10:01:34Z</time>
      </trkpt>
      <trkpt lat="37.9332720" lon="-2.9453520">
        <ele>1157.2</ele>
        <time>2020-07-15T10:01:36Z</time>
      </trkpt>
      <trkpt lat="37.9333650" lon="-2.9452280">
        <ele>1157.8</ele>
        <time>2020-07-15T10:01:40Z</time>
      </trkpt>
      <trkpt lat="37.9334130" lon="-2.9451670">
        <ele>1158.2</ele>
        <time>2020-07-15T10:01:42Z</time>
      </trkpt>
      <trkpt lat="37.9335050" lon="-2.9450480">
        <ele>1159.2</ele>
        <time>2020-07-15T10:01:46Z</time>
      </trkpt>
      <trkpt lat="37.9335480" lon="-2.9449930">
        <ele>1159.6</ele>
        <time>2020-07-15T10:01:48Z</time>
      </trkpt>
      <trkpt lat="37.9336390" lon="-2.9448840">
        <ele>1160.4</ele>
        <time>2020-07-15T10:01:52Z</time>
      </trkpt>
      <trkpt lat="37.9337660" lon="-2.9447610">
        <ele>1161.4</ele>
        <time>2020-07-15T10:01:57Z</time>
      </trkpt>
      <trkpt lat="37.9337910" lon="-2.9447410">
        <ele>1161.6</ele>
        <time>2020-07-15T10:01:58Z</time>
      </trkpt>
      <trkpt lat="37.9339220" lon="-2.9446270">
        <ele>1162.6</ele>
        <time>2020-07-15T10:02:03Z</time>
      </trkpt>
      <trkpt lat="37.9340540" lon="-2.9445220">
        <ele>1163.6</ele>
        <time>2020-07-15T10:02:08Z</time>
      </trkpt>
      <trkpt lat="37.9340850" lon="-2.9444970">
        <ele>1163.8</ele>
        <time>2020-07-15T10:02:09Z</time>
      </trkpt>
      <trkpt lat="37.9342240" lon="-2.9443930">
        <ele>1164.8</ele>
        <time>2020-07-15T10:02:14Z</time>
      </trkpt>
      <trkpt lat="37.9342500" lon="-2.9443710">
        <ele>1165.2</ele>
        <time>2020-07-15T10:02:15Z</time>
      </trkpt>
      <trkpt lat="37.9343750" lon="-2.9442500">
        <ele>1166.0</ele>
        <time>2020-07-15T10:02:20Z</time>
      </trkpt>
      <trkpt lat="37.9344460" lon="-2.9441700">
        <ele>1166.6</ele>
        <time>2020-07-15T10:02:23Z</time>
      </trkpt>
      <trkpt lat="37.9344780" lon="-2.9440940">
        <ele>1167.2</ele>
        <time>2020-07-15T10:02:25Z</time>
      </trkpt>
      <trkpt lat="37.9345100" lon="-2.9439700">
        <ele>1167.8</ele>
        <time>2020-07-15T10:02:28Z</time>
      </trkpt>
      <trkpt lat="37.9345320" lon="-2.9438930">
        <ele>1168.2</ele>
        <time>2020-07-15T10:02:30Z</time>
      </trkpt>
      <trkpt lat="37.9346080" lon="-2.9436880">
        <ele>1169.4</ele>
        <time>2020-07-15T10:02:36Z</time>
      </trkpt>
      <trkpt lat="37.9347110" lon="-2.9435440">
        <ele>1170.4</ele>
        <time>2020-07-15T10:02:41Z</time>
      </trkpt>
      <trkpt lat="37.9347890" lon="-2.9434800">
        <ele>1171.0</ele>
        <time>2020-07-15T10:02:44Z</time>
      </trkpt>
      <trkpt lat="37.9348440" lon="-2.9434460">
        <ele>1171.4</ele>
        <time>2020-07-15T10:02:46Z</time>
      </trkpt>
      <trkpt lat="37.9350460" lon="-2.9433600">
        <ele>1172.6</ele>
        <time>2020-07-15T10:02:53Z</time>
      </trkpt>
      <trkpt lat="37.9352360" lon="-2.9432930">
        <ele>1173.6</ele>
        <time>2020-07-15T10:03:00Z</time>
      </trkpt>
      <trkpt lat="37.9353580" lon="-2.9432410">
        <ele>1174.0</ele>
        <time>2020-07-15T10:03:03Z</time>
      </trkpt>
      <trkpt lat="37.9354480" lon="-2.9431960">
        <ele>1174.6</ele>
        <time>2020-07-15T10:03:06Z</time>
      </trkpt>
      <trkpt lat="37.9355800" lon="-2.9430950">
        <ele>1175.8</ele>
        <time>2020-07-15T10:03:11Z</time>
      </trkpt>
      <trkpt lat="37.9357230" lon="-2.9429290">
        <ele>1176.8</ele>
        <time>2020-07-15T10:03:17Z</time>
      </trkpt>
      <trkpt lat="37.9357970" lon="-2.9428410">
        <ele>1177.2</ele>
        <time>2020-07-15T10:03:20Z</time>
      </trkpt>
      <trkpt lat="37.9359000" lon="-2.9427290">
        <ele>1178.0</ele>
        <time>2020-07-15T10:03:24Z</time>
      </trkpt>
      <trkpt lat="37.9361000" lon="-2.9425660">
        <ele>1178.8</ele>
        <time>2020-07-15T10:03:31Z</time>
      </trkpt>
      <trkpt lat="37.9361640" lon="-2.9425310">
        <ele>1179.2</ele>
        <time>2020-07-15T10:03:33Z</time>
      </trkpt>
      <trkpt lat="37.9364590" lon="-2.9423650">
        <ele>1180.2</ele>
        <time>2020-07-15T10:03:42Z</time>
      </trkpt>
      <trkpt lat="37.9364900" lon="-2.9423320">
        <ele>1180.4</ele>
        <time>2020-07-15T10:03:43Z</time>
      </trkpt>
      <trkpt lat="37.9366210" lon="-2.9421120">
        <ele>1180.8</ele>
        <time>2020-07-15T10:03:49Z</time>
      </trkpt>
      <trkpt lat="37.9366560" lon="-2.9420360">
        <ele>1181.2</ele>
        <time>2020-07-15T10:03:51Z</time>
      </trkpt>
      <trkpt lat="37.9367080" lon="-2.9419270">
        <ele>1182.2</ele>
        <time>2020-07-15T10:03:54Z</time>
      </trkpt>
      <trkpt lat="37.9367720" lon="-2.9417800">
        <ele>1182.8</ele>
        <time>2020-07-15T10:03:58Z</time>
      </trkpt>
      <trkpt lat="37.9368290" lon="-2.9415800">
        <ele>1183.4</ele>
        <time>2020-07-15T10:04:03Z</time>
      </trkpt>
      <trkpt lat="37.9368390" lon="-2.9414990">
        <ele>1183.8</ele>
        <time>2020-07-15T10:04:05Z</time>
      </trkpt>
      <trkpt lat="37.9368500" lon="-2.9413820">
        <ele>1184.4</ele>
        <time>2020-07-15T10:04:08Z</time>
      </trkpt>
      <trkpt lat="37.9368710" lon="-2.9411850">
        <ele>1185.6</ele>
        <time>2020-07-15T10:04:13Z</time>
      </trkpt>
      <trkpt lat="37.9368970" lon="-2.9409740">
        <ele>1186.8</ele>
        <time>2020-07-15T10:04:18Z</time>
      </trkpt>
      <trkpt lat="37.9369070" lon="-2.9408950">
        <ele>1187.2</ele>
        <time>2020-07-15T10:04:20Z</time>
      </trkpt>
      <trkpt lat="37.9369200" lon="-2.9407830">
        <ele>1187.8</ele>
        <time>2020-07-15T10:04:23Z</time>
      </trkpt>
      <trkpt lat="37.9369690" lon="-2.9405560">
        <ele>1189.0</ele>
        <time>2020-07-15T10:04:29Z</time>
      </trkpt>
      <trkpt lat="37.9369790" lon="-2.9405190">
        <ele>1189.2</ele>
        <time>2020-07-15T10:04:30Z</time>
      </trkpt>
      <trkpt lat="37.9370190" lon="-2.9403750">
        <ele>1190.0</ele>
        <time>2020-07-15T10:04:34Z</time>
      </trkpt>
      <trkpt lat="37.9370780" lon="-2.9401950">
        <ele>1191.2</ele>
        <time>2020-07-15T10:04:39Z</time>
      </trkpt>
      <trkpt lat="37.9371120" lon="-2.9401300">
        <ele>1191.6</ele>
        <time>2020-07-15T10:04:41Z</time>
      </trkpt>
      <trkpt lat="37.9371760" lon="-2.9400440">
        <ele>1192.2</ele>
        <time>2020-07-15T10:04:44Z</time>
      </trkpt>
      <trkpt lat="37.9372520" lon="-2.9399770">
        <ele>1192.6</ele>
        <time>2020-07-15T10:04:47Z</time>
      </trkpt>
      <trkpt lat="37.9373340" lon="-2.9399160">
        <ele>1193.2</ele>
        <time>2020-07-15T10:04:50Z</time>
      </trkpt>
      <trkpt lat="37.9374660" lon="-2.9398270">
        <ele>1194.4</ele>
        <time>2020-07-15T10:04:55Z</time>
      </trkpt>
      <trkpt lat="37.9375400" lon="-2.9397610">
        <ele>1195.0</ele>
        <time>2020-07-15T10:04:58Z</time>
      </trkpt>
      <trkpt lat="37.9376060" lon="-2.9396840">
        <ele>1195.4</ele>
        <time>2020-07-15T10:05:01Z</time>
      </trkpt>
      <trkpt lat="37.9376980" lon="-2.9395550">
        <ele>1196.2</ele>
        <time>2020-07-15T10:05:06Z</time>
      </trkpt>
      <trkpt lat="37.9377390" lon="-2.9395010">
        <ele>1196.6</ele>
        <time>2020-07-15T10:05:08Z</time>
      </trkpt>
      <trkpt lat="37.9378340" lon="-2.9394090">
        <ele>1197.4</ele>
        <time>2020-07-15T10:05:12Z</time>
      </trkpt>
      <trkpt lat="37.9378870" lon="-2.9393780">
        <ele>1197.6</ele>
        <time>2020-07-15T10:05:14Z</time>
      </trkpt>
      <trkpt lat="37.9380070" lon="-2.9393450">
        <ele>1198.4</ele>
        <time>2020-07-15T10:05:18Z</time>
      </trkpt>
      <trkpt lat="37.9380350" lon="-2.9393470">
        <ele>1198.6</ele>
        <time>2020-07-15T10:05:19Z</time>
      </trkpt>
      <trkpt lat="37.9380620" lon="-2.9393490">
        <ele>1198.8</ele>
        <time>2020-07-15T10:05:20Z</time>
      </trkpt>
      <trkpt lat="37.9382050" lon="-2.9393600">
        <ele>1200.0</ele>
        <time>2020-07-15T10:05:25Z</time>
      </trkpt>
      <trkpt lat="37.9382330" lon="-2.9393650">
        <ele>1200.2</ele>
        <time>2020-07-15T10:05:26Z</time>
      </trkpt>
      <trkpt lat="37.9384010" lon="-2.9393990">
        <ele>1201.2</ele>
        <time>2020-07-15T10:05:32Z</time>
      </trkpt>
      <trkpt lat="37.9384900" lon="-2.9394200">
        <ele>1201.8</ele>
        <time>2020-07-15T10:05:35Z</time>
      </trkpt>
      <trkpt lat="37.9385830" lon="-2.9394330">
        <ele>1202.4</ele>
        <time>2020-07-15T10:05:38Z</time>
      </trkpt>
      <trkpt lat="37.9387040" lon="-2.9394300">
        <ele>1203.0</ele>
        <time>2020-07-15T10:05:42Z</time>
      </trkpt>
      <trkpt lat="37.9387660" lon="-2.9394220">
        <ele>1203.4</ele>
        <time>2020-07-15T10:05:44Z</time>
      </trkpt>
      <trkpt lat="37.9389500" lon="-2.9393850">
        <ele>1204.6</ele>
        <time>2020-07-15T10:05:50Z</time>
      </trkpt>
      <trkpt lat="37.9390970" lon="-2.9393540">
        <ele>1205.8</ele>
        <time>2020-07-15T10:05:55Z</time>
      </trkpt>
      <trkpt lat="37.9391840" lon="-2.9393390">
        <ele>1206.2</ele>
        <time>2020-07-15T10:05:58Z</time>
      </trkpt>
      <trkpt lat="37.9392780" lon="-2.9393290">
        <ele>1206.8</ele>
        <time>2020-07-15T10:06:01Z</time>
      </trkpt>
      <trkpt lat="37.9394640" lon="-2.9393370">
        <ele>1208.0</ele>
        <time>2020-07-15T10:06:07Z</time>
      </trkpt>
      <trkpt lat="37.9396510" lon="-2.9393630">
        <ele>1209.0</ele>
        <time>2020-07-15T10:06:13Z</time>
      </trkpt>
      <trkpt lat="37.9397130" lon="-2.9393720">
        <ele>1209.4</ele>
        <time>2020-07-15T10:06:15Z</time>
      </trkpt>
      <trkpt lat="37.9398400" lon="-2.9393770">
        <ele>1210.2</ele>
        <time>2020-07-15T10:06:19Z</time>
      </trkpt>
      <trkpt lat="37.9399960" lon="-2.9393700">
        <ele>1211.2</ele>
        <time>2020-07-15T10:06:24Z</time>
      </trkpt>
      <trkpt lat="37.9400250" lon="-2.9393630">
        <ele>1211.4</ele>
        <time>2020-07-15T10:06:25Z</time>
      </trkpt>
      <trkpt lat="37.9401790" lon="-2.9393260">
        <ele>1212.4</ele>
        <time>2020-07-15T10:06:30Z</time>
      </trkpt>
      <trkpt lat="37.9403600" lon="-2.9392840">
        <ele>1213.6</ele>
        <time>2020-07-15T10:06:36Z</time>
      </trkpt>
      <trkpt lat="37.9405420" lon="-2.9392440">
        <ele>1214.6</ele>
        <time>2020-07-15T10:06:42Z</time>
      </trkpt>
      <trkpt lat="37.9407510" lon="-2.9392220">
        <ele>1216.0</ele>
        <time>2020-07-15T10:06:49Z</time>
      </trkpt>
      <trkpt lat="37.9407800" lon="-2.9392210">
        <ele>1216.0</ele>
        <time>2020-07-15T10:06:50Z</time>
      </trkpt>
      <trkpt lat="37.9409590" lon="-2.9392700">
        <ele>1217.0</ele>
        <time>2020-07-15T10:06:56Z</time>
      </trkpt>
      <trkpt lat="37.9410130" lon="-2.9392910">
        <ele>1217.2</ele>
        <time>2020-07-15T10:06:58Z</time>
      </trkpt>
      <trkpt lat="37.9410780" lon="-2.9393120">
        <ele>1217.6</ele>
        <time>2020-07-15T10:07:03Z</time>
      </trkpt>
      <trkpt lat="37.9411160" lon="-2.9393060">
        <ele>1218.2</ele>
        <time>2020-07-15T10:11:02Z</time>
      </trkpt>
      <trkpt lat="37.9411250" lon="-2.9393160">
        <ele>1218.2</ele>
        <time>2020-07-15T10:11:03Z</time>
      </trkpt>
      <trkpt lat="37.9411520" lon="-2.9393480">
        <ele>1218.2</ele>
        <time>2020-07-15T10:11:05Z</time>
      </trkpt>
      <trkpt lat="37.9412330" lon="-2.9394270">
        <ele>1218.4</ele>
        <time>2020-07-15T10:11:09Z</time>
      </trkpt>
      <trkpt lat="37.9412950" lon="-2.9395010">
        <ele>1218.6</ele>
        <time>2020-07-15T10:11:12Z</time>
      </trkpt>
      <trkpt lat="37.9414310" lon="-2.9396260">
        <ele>1219.2</ele>
        <time>2020-07-15T10:11:17Z</time>
      </trkpt>
      <trkpt lat="37.9414950" lon="-2.9396670">
        <ele>1219.2</ele>
        <time>2020-07-15T10:11:19Z</time>
      </trkpt>
      <trkpt lat="37.9416500" lon="-2.9397210">
        <ele>1219.2</ele>
        <time>2020-07-15T10:11:23Z</time>
      </trkpt>
      <trkpt lat="37.9417530" lon="-2.9397410">
        <ele>1219.2</ele>
        <time>2020-07-15T10:11:25Z</time>
      </trkpt>
      <trkpt lat="37.9421530" lon="-2.9397980">
        <ele>1218.2</ele>
        <time>2020-07-15T10:11:32Z</time>
      </trkpt>
      <trkpt lat="37.9423430" lon="-2.9398170">
        <ele>1217.8</ele>
        <time>2020-07-15T10:11:35Z</time>
      </trkpt>
      <trkpt lat="37.9424110" lon="-2.9397850">
        <ele>1217.6</ele>
        <time>2020-07-15T10:11:36Z</time>
      </trkpt>
      <trkpt lat="37.9425350" lon="-2.9396990">
        <ele>1217.0</ele>
        <time>2020-07-15T10:11:38Z</time>
      </trkpt>
      <trkpt lat="37.9426760" lon="-2.9396210">
        <ele>1216.4</ele>
        <time>2020-07-15T10:11:40Z</time>
      </trkpt>
      <trkpt lat="37.9427490" lon="-2.9396060">
        <ele>1216.2</ele>
        <time>2020-07-15T10:11:41Z</time>
      </trkpt>
      <trkpt lat="37.9428310" lon="-2.9396180">
        <ele>1215.8</ele>
        <time>2020-07-15T10:11:42Z</time>
      </trkpt>
      <trkpt lat="37.9428970" lon="-2.9396580">
        <ele>1215.6</ele>
        <time>2020-07-15T10:11:43Z</time>
      </trkpt>
      <trkpt lat="37.9430790" lon="-2.9398600">
        <ele>1215.0</ele>
        <time>2020-07-15T10:11:46Z</time>
      </trkpt>
      <trkpt lat="37.9431370" lon="-2.9399280">
        <ele>1214.6</ele>
        <time>2020-07-15T10:11:47Z</time>
      </trkpt>
      <trkpt lat="37.9433330" lon="-2.9401510">
        <ele>1213.6</ele>
        <time>2020-07-15T10:11:50Z</time>
      </trkpt>
      <trkpt lat="37.9435320" lon="-2.9403620">
        <ele>1212.2</ele>
        <time>2020-07-15T10:11:53Z</time>
      </trkpt>
      <trkpt lat="37.9437190" lon="-2.9404530">
        <ele>1211.4</ele>
        <time>2020-07-15T10:11:55Z</time>
      </trkpt>
      <trkpt lat="37.9438180" lon="-2.9404630">
        <ele>1211.0</ele>
        <time>2020-07-15T10:11:56Z</time>
      </trkpt>
      <trkpt lat="37.9440640" lon="-2.9406230">
        <ele>1209.6</ele>
        <time>2020-07-15T10:11:59Z</time>
      </trkpt>
      <trkpt lat="37.9442220" lon="-2.9409660">
        <ele>1208.0</ele>
        <time>2020-07-15T10:12:02Z</time>
      </trkpt>
      <trkpt lat="37.9444040" lon="-2.9410940">
        <ele>1206.8</ele>
        <time>2020-07-15T10:12:04Z</time>
      </trkpt>
      <trkpt lat="37.9446280" lon="-2.9411220">
        <ele>1205.4</ele>
        <time>2020-07-15T10:12:06Z</time>
      </trkpt>
      <trkpt lat="37.9447440" lon="-2.9411280">
        <ele>1204.6</ele>
        <time>2020-07-15T10:12:07Z</time>
      </trkpt>
      <trkpt lat="37.9448440" lon="-2.9411370">
        <ele>1203.6</ele>
        <time>2020-07-15T10:12:08Z</time>
      </trkpt>
      <trkpt lat="37.9449670" lon="-2.9411620">
        <ele>1202.8</ele>
        <time>2020-07-15T10:12:09Z</time>
      </trkpt>
      <trkpt lat="37.9450790" lon="-2.9412050">
        <ele>1201.8</ele>
        <time>2020-07-15T10:12:10Z</time>
      </trkpt>
      <trkpt lat="37.9451840" lon="-2.9412610">
        <ele>1200.8</ele>
        <time>2020-07-15T10:12:11Z</time>
      </trkpt>
      <trkpt lat="37.9452980" lon="-2.9413200">
        <ele>1200.0</ele>
        <time>2020-07-15T10:12:12Z</time>
      </trkpt>
      <trkpt lat="37.9454080" lon="-2.9413520">
        <ele>1199.2</ele>
        <time>2020-07-15T10:12:13Z</time>
      </trkpt>
      <trkpt lat="37.9455310" lon="-2.9413760">
        <ele>1198.8</ele>
        <time>2020-07-15T10:12:14Z</time>
      </trkpt>
      <trkpt lat="37.9456560" lon="-2.9413930">
        <ele>1198.4</ele>
        <time>2020-07-15T10:12:15Z</time>
      </trkpt>
      <trkpt lat="37.9457780" lon="-2.9414110">
        <ele>1197.4</ele>
        <time>2020-07-15T10:12:16Z</time>
      </trkpt>
      <trkpt lat="37.9460270" lon="-2.9414340">
        <ele>1195.8</ele>
        <time>2020-07-15T10:12:18Z</time>
      </trkpt>
      <trkpt lat="37.9461640" lon="-2.9414350">
        <ele>1194.2</ele>
        <time>2020-07-15T10:12:19Z</time>
      </trkpt>
      <trkpt lat="37.9462940" lon="-2.9414230">
        <ele>1193.0</ele>
        <time>2020-07-15T10:12:20Z</time>
      </trkpt>
      <trkpt lat="37.9465570" lon="-2.9413880">
        <ele>1191.0</ele>
        <time>2020-07-15T10:12:22Z</time>
      </trkpt>
      <trkpt lat="37.9468140" lon="-2.9413540">
        <ele>1189.2</ele>
        <time>2020-07-15T10:12:24Z</time>
      </trkpt>
      <trkpt lat="37.9469370" lon="-2.9413380">
        <ele>1188.2</ele>
        <time>2020-07-15T10:12:25Z</time>
      </trkpt>
      <trkpt lat="37.9470610" lon="-2.9413220">
        <ele>1187.2</ele>
        <time>2020-07-15T10:12:26Z</time>
      </trkpt>
      <trkpt lat="37.9472880" lon="-2.9413180">
        <ele>1185.4</ele>
        <time>2020-07-15T10:12:28Z</time>
      </trkpt>
      <trkpt lat="37.9475200" lon="-2.9413840">
        <ele>1183.8</ele>
        <time>2020-07-15T10:12:30Z</time>
      </trkpt>
      <trkpt lat="37.9477400" lon="-2.9415010">
        <ele>1181.8</ele>
        <time>2020-07-15T10:12:32Z</time>
      </trkpt>
      <trkpt lat="37.9478380" lon="-2.9415620">
        <ele>1181.2</ele>
        <time>2020-07-15T10:12:33Z</time>
      </trkpt>
      <trkpt lat="37.9479500" lon="-2.9416370">
        <ele>1180.4</ele>
        <time>2020-07-15T10:12:34Z</time>
      </trkpt>
      <trkpt lat="37.9481630" lon="-2.9417580">
        <ele>1179.4</ele>
        <time>2020-07-15T10:12:36Z</time>
      </trkpt>
      <trkpt lat="37.9483640" lon="-2.9418240">
        <ele>1178.4</ele>
        <time>2020-07-15T10:12:38Z</time>
      </trkpt>
      <trkpt lat="37.9484820" lon="-2.9418270">
        <ele>1177.8</ele>
        <time>2020-07-15T10:12:39Z</time>
      </trkpt>
      <trkpt lat="37.9486810" lon="-2.9417660">
        <ele>1175.8</ele>
        <time>2020-07-15T10:12:41Z</time>
      </trkpt>
      <trkpt lat="37.9488000" lon="-2.9417020">
        <ele>1174.8</ele>
        <time>2020-07-15T10:12:42Z</time>
      </trkpt>
      <trkpt lat="37.9488960" lon="-2.9416400">
        <ele>1174.0</ele>
        <time>2020-07-15T10:12:43Z</time>
      </trkpt>
      <trkpt lat="37.9490010" lon="-2.9415710">
        <ele>1173.2</ele>
        <time>2020-07-15T10:12:44Z</time>
      </trkpt>
      <trkpt lat="37.9491040" lon="-2.9415000">
        <ele>1172.4</ele>
        <time>2020-07-15T10:12:45Z</time>
      </trkpt>
      <trkpt lat="37.9492040" lon="-2.9414330">
        <ele>1171.4</ele>
        <time>2020-07-15T10:12:46Z</time>
      </trkpt>
      <trkpt lat="37.9494040" lon="-2.9412770">
        <ele>1170.0</ele>
        <time>2020-07-15T10:12:48Z</time>
      </trkpt>
      <trkpt lat="37.9496280" lon="-2.9410790">
        <ele>1168.4</ele>
        <time>2020-07-15T10:12:50Z</time>
      </trkpt>
      <trkpt lat="37.9498380" lon="-2.9408950">
        <ele>1167.0</ele>
        <time>2020-07-15T10:12:52Z</time>
      </trkpt>
      <trkpt lat="37.9500680" lon="-2.9407140">
        <ele>1165.8</ele>
        <time>2020-07-15T10:12:54Z</time>
      </trkpt>
      <trkpt lat="37.9501790" lon="-2.9406270">
        <ele>1165.0</ele>
        <time>2020-07-15T10:12:55Z</time>
      </trkpt>
      <trkpt lat="37.9502900" lon="-2.9405380">
        <ele>1164.0</ele>
        <time>2020-07-15T10:12:56Z</time>
      </trkpt>
      <trkpt lat="37.9504010" lon="-2.9404460">
        <ele>1163.0</ele>
        <time>2020-07-15T10:12:57Z</time>
      </trkpt>
      <trkpt lat="37.9506120" lon="-2.9402690">
        <ele>1161.8</ele>
        <time>2020-07-15T10:12:59Z</time>
      </trkpt>
      <trkpt lat="37.9507320" lon="-2.9401700">
        <ele>1160.6</ele>
        <time>2020-07-15T10:13:00Z</time>
      </trkpt>
      <trkpt lat="37.9508150" lon="-2.9401070">
        <ele>1159.6</ele>
        <time>2020-07-15T10:13:01Z</time>
      </trkpt>
      <trkpt lat="37.9509400" lon="-2.9400260">
        <ele>1159.0</ele>
        <time>2020-07-15T10:13:02Z</time>
      </trkpt>
      <trkpt lat="37.9510400" lon="-2.9399960">
        <ele>1158.0</ele>
        <time>2020-07-15T10:13:03Z</time>
      </trkpt>
      <trkpt lat="37.9511530" lon="-2.9399940">
        <ele>1157.2</ele>
        <time>2020-07-15T10:13:04Z</time>
      </trkpt>
      <trkpt lat="37.9512430" lon="-2.9400270">
        <ele>1156.4</ele>
        <time>2020-07-15T10:13:05Z</time>
      </trkpt>
      <trkpt lat="37.9513340" lon="-2.9400990">
        <ele>1156.0</ele>
        <time>2020-07-15T10:13:06Z</time>
      </trkpt>
      <trkpt lat="37.9513950" lon="-2.9402000">
        <ele>1155.4</ele>
        <time>2020-07-15T10:13:07Z</time>
      </trkpt>
      <trkpt lat="37.9514420" lon="-2.9403140">
        <ele>1154.8</ele>
        <time>2020-07-15T10:13:08Z</time>
      </trkpt>
      <trkpt lat="37.9514940" lon="-2.9404420">
        <ele>1154.4</ele>
        <time>2020-07-15T10:13:09Z</time>
      </trkpt>
      <trkpt lat="37.9515430" lon="-2.9405630">
        <ele>1153.8</ele>
        <time>2020-07-15T10:13:10Z</time>
      </trkpt>
      <trkpt lat="37.9516500" lon="-2.9408070">
        <ele>1152.4</ele>
        <time>2020-07-15T10:13:12Z</time>
      </trkpt>
      <trkpt lat="37.9517600" lon="-2.9410600">
        <ele>1151.0</ele>
        <time>2020-07-15T10:13:14Z</time>
      </trkpt>
      <trkpt lat="37.9518120" lon="-2.9411870">
        <ele>1150.4</ele>
        <time>2020-07-15T10:13:15Z</time>
      </trkpt>
      <trkpt lat="37.9518580" lon="-2.9413260">
        <ele>1149.8</ele>
        <time>2020-07-15T10:13:16Z</time>
      </trkpt>
      <trkpt lat="37.9519310" lon="-2.9415990">
        <ele>1148.8</ele>
        <time>2020-07-15T10:13:18Z</time>
      </trkpt>
      <trkpt lat="37.9519640" lon="-2.9417530">
        <ele>1148.0</ele>
        <time>2020-07-15T10:13:19Z</time>
      </trkpt>
      <trkpt lat="37.9520030" lon="-2.9418940">
        <ele>1147.4</ele>
        <time>2020-07-15T10:13:20Z</time>
      </trkpt>
      <trkpt lat="37.9521260" lon="-2.9421520">
        <ele>1146.0</ele>
        <time>2020-07-15T10:13:22Z</time>
      </trkpt>
      <trkpt lat="37.9522780" lon="-2.9423750">
        <ele>1144.6</ele>
        <time>2020-07-15T10:13:24Z</time>
      </trkpt>
      <trkpt lat="37.9524620" lon="-2.9425520">
        <ele>1143.2</ele>
        <time>2020-07-15T10:13:26Z</time>
      </trkpt>
      <trkpt lat="37.9526520" lon="-2.9427050">
        <ele>1141.6</ele>
        <time>2020-07-15T10:13:28Z</time>
      </trkpt>
      <trkpt lat="37.9528530" lon="-2.9428930">
        <ele>1140.0</ele>
        <time>2020-07-15T10:13:30Z</time>
      </trkpt>
      <trkpt lat="37.9529100" lon="-2.9430220">
        <ele>1139.4</ele>
        <time>2020-07-15T10:13:31Z</time>
      </trkpt>
      <trkpt lat="37.9529510" lon="-2.9431640">
        <ele>1138.6</ele>
        <time>2020-07-15T10:13:32Z</time>
      </trkpt>
      <trkpt lat="37.9530020" lon="-2.9434680">
        <ele>1137.2</ele>
        <time>2020-07-15T10:13:34Z</time>
      </trkpt>
      <trkpt lat="37.9530260" lon="-2.9437740">
        <ele>1135.8</ele>
        <time>2020-07-15T10:13:36Z</time>
      </trkpt>
      <trkpt lat="37.9530260" lon="-2.9440800">
        <ele>1134.6</ele>
        <time>2020-07-15T10:13:38Z</time>
      </trkpt>
      <trkpt lat="37.9530270" lon="-2.9444060">
        <ele>1133.4</ele>
        <time>2020-07-15T10:13:40Z</time>
      </trkpt>
      <trkpt lat="37.9530330" lon="-2.9447210">
        <ele>1132.0</ele>
        <time>2020-07-15T10:13:42Z</time>
      </trkpt>
      <trkpt lat="37.9530380" lon="-2.9450340">
        <ele>1130.0</ele>
        <time>2020-07-15T10:13:44Z</time>
      </trkpt>
      <trkpt lat="37.9530350" lon="-2.9453440">
        <ele>1128.2</ele>
        <time>2020-07-15T10:13:46Z</time>
      </trkpt>
      <trkpt lat="37.9530390" lon="-2.9455840">
        <ele>1126.8</ele>
        <time>2020-07-15T10:13:48Z</time>
      </trkpt>
      <trkpt lat="37.9530220" lon="-2.9456910">
        <ele>1126.2</ele>
        <time>2020-07-15T10:13:49Z</time>
      </trkpt>
      <trkpt lat="37.9529800" lon="-2.9457710">
        <ele>1125.6</ele>
        <time>2020-07-15T10:13:50Z</time>
      </trkpt>
      <trkpt lat="37.9528390" lon="-2.9457990">
        <ele>1124.0</ele>
        <time>2020-07-15T10:13:52Z</time>
      </trkpt>
      <trkpt lat="37.9527500" lon="-2.9456390">
        <ele>1123.2</ele>
        <time>2020-07-15T10:13:54Z</time>
      </trkpt>
      <trkpt lat="37.9527500" lon="-2.9455400">
        <ele>1122.8</ele>
        <time>2020-07-15T10:13:55Z</time>
      </trkpt>
      <trkpt lat="37.9527590" lon="-2.9454290">
        <ele>1122.8</ele>
        <time>2020-07-15T10:13:56Z</time>
      </trkpt>
      <trkpt lat="37.9527680" lon="-2.9453160">
        <ele>1122.4</ele>
        <time>2020-07-15T10:13:57Z</time>
      </trkpt>
      <trkpt lat="37.9527620" lon="-2.9450860">
        <ele>1121.4</ele>
        <time>2020-07-15T10:13:59Z</time>
      </trkpt>
      <trkpt lat="37.9527430" lon="-2.9449580">
        <ele>1120.8</ele>
        <time>2020-07-15T10:14:00Z</time>
      </trkpt>
      <trkpt lat="37.9527200" lon="-2.9448350">
        <ele>1120.2</ele>
        <time>2020-07-15T10:14:01Z</time>
      </trkpt>
      <trkpt lat="37.9526440" lon="-2.9444580">
        <ele>1119.0</ele>
        <time>2020-07-15T10:14:04Z</time>
      </trkpt>
      <trkpt lat="37.9525890" lon="-2.9441990">
        <ele>1118.4</ele>
        <time>2020-07-15T10:14:06Z</time>
      </trkpt>
      <trkpt lat="37.9525600" lon="-2.9440690">
        <ele>1117.6</ele>
        <time>2020-07-15T10:14:07Z</time>
      </trkpt>
      <trkpt lat="37.9524450" lon="-2.9436800">
        <ele>1116.6</ele>
        <time>2020-07-15T10:14:10Z</time>
      </trkpt>
      <trkpt lat="37.9523900" lon="-2.9435750">
        <ele>1116.0</ele>
        <time>2020-07-15T10:14:11Z</time>
      </trkpt>
      <trkpt lat="37.9522320" lon="-2.9433740">
        <ele>1115.0</ele>
        <time>2020-07-15T10:14:13Z</time>
      </trkpt>
      <trkpt lat="37.9521290" lon="-2.9432880">
        <ele>1114.4</ele>
        <time>2020-07-15T10:14:14Z</time>
      </trkpt>
      <trkpt lat="37.9520280" lon="-2.9432160">
        <ele>1113.8</ele>
        <time>2020-07-15T10:14:15Z</time>
      </trkpt>
      <trkpt lat="37.9518380" lon="-2.9430620">
        <ele>1112.4</ele>
        <time>2020-07-15T10:14:17Z</time>
      </trkpt>
      <trkpt lat="37.9516370" lon="-2.9428640">
        <ele>1111.0</ele>
        <time>2020-07-15T10:14:19Z</time>
      </trkpt>
      <trkpt lat="37.9514620" lon="-2.9426600">
        <ele>1109.8</ele>
        <time>2020-07-15T10:14:21Z</time>
      </trkpt>
      <trkpt lat="37.9513960" lon="-2.9425520">
        <ele>1109.4</ele>
        <time>2020-07-15T10:14:22Z</time>
      </trkpt>
      <trkpt lat="37.9513450" lon="-2.9424310">
        <ele>1108.8</ele>
        <time>2020-07-15T10:14:23Z</time>
      </trkpt>
      <trkpt lat="37.9512390" lon="-2.9421690">
        <ele>1107.8</ele>
        <time>2020-07-15T10:14:25Z</time>
      </trkpt>
      <trkpt lat="37.9511770" lon="-2.9420700">
        <ele>1107.2</ele>
        <time>2020-07-15T10:14:26Z</time>
      </trkpt>
      <trkpt lat="37.9511000" lon="-2.9420080">
        <ele>1106.8</ele>
        <time>2020-07-15T10:14:27Z</time>
      </trkpt>
      <trkpt lat="37.9509330" lon="-2.9419930">
        <ele>1106.2</ele>
        <time>2020-07-15T10:14:29Z</time>
      </trkpt>
      <trkpt lat="37.9507910" lon="-2.9421340">
        <ele>1106.0</ele>
        <time>2020-07-15T10:14:31Z</time>
      </trkpt>
      <trkpt lat="37.9507380" lon="-2.9422240">
        <ele>1105.6</ele>
        <time>2020-07-15T10:14:32Z</time>
      </trkpt>
      <trkpt lat="37.9506920" lon="-2.9423100">
        <ele>1105.6</ele>
        <time>2020-07-15T10:14:33Z</time>
      </trkpt>
      <trkpt lat="37.9506330" lon="-2.9424060">
        <ele>1105.6</ele>
        <time>2020-07-15T10:14:34Z</time>
      </trkpt>
      <trkpt lat="37.9505810" lon="-2.9424850">
        <ele>1105.6</ele>
        <time>2020-07-15T10:14:35Z</time>
      </trkpt>
      <trkpt lat="37.9503970" lon="-2.9427410">
        <ele>1105.0</ele>
        <time>2020-07-15T10:14:38Z</time>
      </trkpt>
      <trkpt lat="37.9503330" lon="-2.9428290">
        <ele>1104.6</ele>
        <time>2020-07-15T10:14:39Z</time>
      </trkpt>
      <trkpt lat="37.9502100" lon="-2.9430000">
        <ele>1104.2</ele>
        <time>2020-07-15T10:14:41Z</time>
      </trkpt>
      <trkpt lat="37.9499480" lon="-2.9433190">
        <ele>1103.6</ele>
        <time>2020-07-15T10:14:45Z</time>
      </trkpt>
      <trkpt lat="37.9498810" lon="-2.9433910">
        <ele>1103.4</ele>
        <time>2020-07-15T10:14:46Z</time>
      </trkpt>
      <trkpt lat="37.9497430" lon="-2.9435280">
        <ele>1103.2</ele>
        <time>2020-07-15T10:14:48Z</time>
      </trkpt>
      <trkpt lat="37.9495350" lon="-2.9437340">
        <ele>1102.8</ele>
        <time>2020-07-15T10:14:51Z</time>
      </trkpt>
      <trkpt lat="37.9493180" lon="-2.9439370">
        <ele>1102.4</ele>
        <time>2020-07-15T10:14:54Z</time>
      </trkpt>
      <trkpt lat="37.9491560" lon="-2.9440530">
        <ele>1101.8</ele>
        <time>2020-07-15T10:14:56Z</time>
      </trkpt>
      <trkpt lat="37.9489860" lon="-2.9441670">
        <ele>1101.0</ele>
        <time>2020-07-15T10:14:58Z</time>
      </trkpt>
      <trkpt lat="37.9486980" lon="-2.9443510">
        <ele>1099.8</ele>
        <time>2020-07-15T10:15:01Z</time>
      </trkpt>
      <trkpt lat="37.9485340" lon="-2.9444790">
        <ele>1098.8</ele>
        <time>2020-07-15T10:15:03Z</time>
      </trkpt>
      <trkpt lat="37.9484630" lon="-2.9445800">
        <ele>1098.4</ele>
        <time>2020-07-15T10:15:04Z</time>
      </trkpt>
      <trkpt lat="37.9483750" lon="-2.9448170">
        <ele>1097.2</ele>
        <time>2020-07-15T10:15:06Z</time>
      </trkpt>
      <trkpt lat="37.9483270" lon="-2.9449350">
        <ele>1096.8</ele>
        <time>2020-07-15T10:15:07Z</time>
      </trkpt>
      <trkpt lat="37.9481850" lon="-2.9451200">
        <ele>1095.8</ele>
        <time>2020-07-15T10:15:09Z</time>
      </trkpt>
      <trkpt lat="37.9480920" lon="-2.9451600">
        <ele>1095.4</ele>
        <time>2020-07-15T10:15:10Z</time>
      </trkpt>
      <trkpt lat="37.9478940" lon="-2.9451240">
        <ele>1094.6</ele>
        <time>2020-07-15T10:15:12Z</time>
      </trkpt>
      <trkpt lat="37.9478080" lon="-2.9450780">
        <ele>1094.4</ele>
        <time>2020-07-15T10:15:13Z</time>
      </trkpt>
      <trkpt lat="37.9477170" lon="-2.9450250">
        <ele>1094.0</ele>
        <time>2020-07-15T10:15:14Z</time>
      </trkpt>
      <trkpt lat="37.9476260" lon="-2.9449710">
        <ele>1093.6</ele>
        <time>2020-07-15T10:15:15Z</time>
      </trkpt>
      <trkpt lat="37.9475330" lon="-2.9449270">
        <ele>1093.4</ele>
        <time>2020-07-15T10:15:16Z</time>
      </trkpt>
      <trkpt lat="37.9474440" lon="-2.9449040">
        <ele>1093.2</ele>
        <time>2020-07-15T10:15:17Z</time>
      </trkpt>
      <trkpt lat="37.9472370" lon="-2.9449360">
        <ele>1092.4</ele>
        <time>2020-07-15T10:15:19Z</time>
      </trkpt>
      <trkpt lat="37.9471410" lon="-2.9449760">
        <ele>1092.0</ele>
        <time>2020-07-15T10:15:20Z</time>
      </trkpt>
      <trkpt lat="37.9469830" lon="-2.9451270">
        <ele>1090.8</ele>
        <time>2020-07-15T10:15:22Z</time>
      </trkpt>
      <trkpt lat="37.9469460" lon="-2.9452350">
        <ele>1090.4</ele>
        <time>2020-07-15T10:15:23Z</time>
      </trkpt>
      <trkpt lat="37.9469230" lon="-2.9453720">
        <ele>1089.8</ele>
        <time>2020-07-15T10:15:24Z</time>
      </trkpt>
      <trkpt lat="37.9469340" lon="-2.9455160">
        <ele>1089.2</ele>
        <time>2020-07-15T10:15:25Z</time>
      </trkpt>
      <trkpt lat="37.9469600" lon="-2.9456470">
        <ele>1088.8</ele>
        <time>2020-07-15T10:15:26Z</time>
      </trkpt>
      <trkpt lat="37.9469870" lon="-2.9457810">
        <ele>1088.2</ele>
        <time>2020-07-15T10:15:27Z</time>
      </trkpt>
      <trkpt lat="37.9470050" lon="-2.9459110">
        <ele>1087.6</ele>
        <time>2020-07-15T10:15:28Z</time>
      </trkpt>
      <trkpt lat="37.9470150" lon="-2.9460430">
        <ele>1086.8</ele>
        <time>2020-07-15T10:15:29Z</time>
      </trkpt>
      <trkpt lat="37.9470140" lon="-2.9461960">
        <ele>1086.2</ele>
        <time>2020-07-15T10:15:30Z</time>
      </trkpt>
      <trkpt lat="37.9469950" lon="-2.9464770">
        <ele>1084.8</ele>
        <time>2020-07-15T10:15:32Z</time>
      </trkpt>
      <trkpt lat="37.9469840" lon="-2.9466100">
        <ele>1084.2</ele>
        <time>2020-07-15T10:15:33Z</time>
      </trkpt>
      <trkpt lat="37.9469740" lon="-2.9467500">
        <ele>1083.8</ele>
        <time>2020-07-15T10:15:34Z</time>
      </trkpt>
      <trkpt lat="37.9469100" lon="-2.9471690">
        <ele>1082.8</ele>
        <time>2020-07-15T10:15:37Z</time>
      </trkpt>
      <trkpt lat="37.9468690" lon="-2.9472870">
        <ele>1082.6</ele>
        <time>2020-07-15T10:15:38Z</time>
      </trkpt>
      <trkpt lat="37.9467910" lon="-2.9477030">
        <ele>1081.2</ele>
        <time>2020-07-15T10:15:41Z</time>
      </trkpt>
      <trkpt lat="37.9467560" lon="-2.9478480">
        <ele>1080.6</ele>
        <time>2020-07-15T10:15:42Z</time>
      </trkpt>
      <trkpt lat="37.9467010" lon="-2.9479650">
        <ele>1080.0</ele>
        <time>2020-07-15T10:15:43Z</time>
      </trkpt>
      <trkpt lat="37.9466210" lon="-2.9480740">
        <ele>1079.2</ele>
        <time>2020-07-15T10:15:44Z</time>
      </trkpt>
      <trkpt lat="37.9465410" lon="-2.9481690">
        <ele>1078.6</ele>
        <time>2020-07-15T10:15:45Z</time>
      </trkpt>
      <trkpt lat="37.9464670" lon="-2.9482760">
        <ele>1078.0</ele>
        <time>2020-07-15T10:15:46Z</time>
      </trkpt>
      <trkpt lat="37.9464100" lon="-2.9483790">
        <ele>1077.2</ele>
        <time>2020-07-15T10:15:47Z</time>
      </trkpt>
      <trkpt lat="37.9463620" lon="-2.9484800">
        <ele>1076.8</ele>
        <time>2020-07-15T10:15:48Z</time>
      </trkpt>
      <trkpt lat="37.9463300" lon="-2.9485720">
        <ele>1076.2</ele>
        <time>2020-07-15T10:15:49Z</time>
      </trkpt>
      <trkpt lat="37.9463490" lon="-2.9487270">
        <ele>1074.6</ele>
        <time>2020-07-15T10:15:51Z</time>
      </trkpt>
      <trkpt lat="37.9464490" lon="-2.9487430">
        <ele>1073.2</ele>
        <time>2020-07-15T10:15:53Z</time>
      </trkpt>
      <trkpt lat="37.9465140" lon="-2.9486110">
        <ele>1071.6</ele>
        <time>2020-07-15T10:15:55Z</time>
      </trkpt>
      <trkpt lat="37.9465290" lon="-2.9484490">
        <ele>1070.4</ele>
        <time>2020-07-15T10:15:57Z</time>
      </trkpt>
      <trkpt lat="37.9465520" lon="-2.9483760">
        <ele>1070.2</ele>
        <time>2020-07-15T10:15:58Z</time>
      </trkpt>
      <trkpt lat="37.9465900" lon="-2.9483060">
        <ele>1069.8</ele>
        <time>2020-07-15T10:15:59Z</time>
      </trkpt>
      <trkpt lat="37.9467600" lon="-2.9481270">
        <ele>1069.6</ele>
        <time>2020-07-15T10:16:02Z</time>
      </trkpt>
      <trkpt lat="37.9468140" lon="-2.9480610">
        <ele>1069.6</ele>
        <time>2020-07-15T10:16:03Z</time>
      </trkpt>
      <trkpt lat="37.9469010" lon="-2.9478900">
        <ele>1069.2</ele>
        <time>2020-07-15T10:16:05Z</time>
      </trkpt>
      <trkpt lat="37.9469330" lon="-2.9477920">
        <ele>1069.0</ele>
        <time>2020-07-15T10:16:06Z</time>
      </trkpt>
      <trkpt lat="37.9469610" lon="-2.9476940">
        <ele>1069.0</ele>
        <time>2020-07-15T10:16:07Z</time>
      </trkpt>
      <trkpt lat="37.9469940" lon="-2.9476050">
        <ele>1068.8</ele>
        <time>2020-07-15T10:16:08Z</time>
      </trkpt>
      <trkpt lat="37.9470870" lon="-2.9474290">
        <ele>1068.6</ele>
        <time>2020-07-15T10:16:10Z</time>
      </trkpt>
      <trkpt lat="37.9471720" lon="-2.9472380">
        <ele>1068.2</ele>
        <time>2020-07-15T10:16:12Z</time>
      </trkpt>
      <trkpt lat="37.9471960" lon="-2.9471320">
        <ele>1068.2</ele>
        <time>2020-07-15T10:16:13Z</time>
      </trkpt>
      <trkpt lat="37.9472190" lon="-2.9470060">
        <ele>1068.0</ele>
        <time>2020-07-15T10:16:14Z</time>
      </trkpt>
      <trkpt lat="37.9472660" lon="-2.9467600">
        <ele>1067.0</ele>
        <time>2020-07-15T10:16:16Z</time>
      </trkpt>
      <trkpt lat="37.9473280" lon="-2.9465190">
        <ele>1065.8</ele>
        <time>2020-07-15T10:16:18Z</time>
      </trkpt>
      <trkpt lat="37.9473650" lon="-2.9463830">
        <ele>1065.4</ele>
        <time>2020-07-15T10:16:19Z</time>
      </trkpt>
      <trkpt lat="37.9473980" lon="-2.9462670">
        <ele>1064.8</ele>
        <time>2020-07-15T10:16:20Z</time>
      </trkpt>
      <trkpt lat="37.9474910" lon="-2.9460280">
        <ele>1063.8</ele>
        <time>2020-07-15T10:16:22Z</time>
      </trkpt>
      <trkpt lat="37.9475510" lon="-2.9459560">
        <ele>1063.4</ele>
        <time>2020-07-15T10:16:23Z</time>
      </trkpt>
      <trkpt lat="37.9477440" lon="-2.9459000">
        <ele>1062.6</ele>
        <time>2020-07-15T10:16:25Z</time>
      </trkpt>
      <trkpt lat="37.9478420" lon="-2.9459170">
        <ele>1062.2</ele>
        <time>2020-07-15T10:16:26Z</time>
      </trkpt>
      <trkpt lat="37.9479380" lon="-2.9459340">
        <ele>1061.8</ele>
        <time>2020-07-15T10:16:27Z</time>
      </trkpt>
      <trkpt lat="37.9480300" lon="-2.9459470">
        <ele>1061.2</ele>
        <time>2020-07-15T10:16:28Z</time>
      </trkpt>
      <trkpt lat="37.9481300" lon="-2.9459540">
        <ele>1061.0</ele>
        <time>2020-07-15T10:16:29Z</time>
      </trkpt>
      <trkpt lat="37.9483300" lon="-2.9459470">
        <ele>1060.0</ele>
        <time>2020-07-15T10:16:31Z</time>
      </trkpt>
      <trkpt lat="37.9484340" lon="-2.9459360">
        <ele>1059.4</ele>
        <time>2020-07-15T10:16:32Z</time>
      </trkpt>
      <trkpt lat="37.9486310" lon="-2.9458910">
        <ele>1058.4</ele>
        <time>2020-07-15T10:16:34Z</time>
      </trkpt>
      <trkpt lat="37.9488220" lon="-2.9457850">
        <ele>1057.4</ele>
        <time>2020-07-15T10:16:36Z</time>
      </trkpt>
      <trkpt lat="37.9490040" lon="-2.9456380">
        <ele>1056.6</ele>
        <time>2020-07-15T10:16:38Z</time>
      </trkpt>
      <trkpt lat="37.9490960" lon="-2.9455550">
        <ele>1056.0</ele>
        <time>2020-07-15T10:16:39Z</time>
      </trkpt>
      <trkpt lat="37.9491840" lon="-2.9454830">
        <ele>1055.6</ele>
        <time>2020-07-15T10:16:40Z</time>
      </trkpt>
      <trkpt lat="37.9494590" lon="-2.9452920">
        <ele>1054.8</ele>
        <time>2020-07-15T10:16:43Z</time>
      </trkpt>
      <trkpt lat="37.9496550" lon="-2.9451650">
        <ele>1054.2</ele>
        <time>2020-07-15T10:16:45Z</time>
      </trkpt>
      <trkpt lat="37.9497510" lon="-2.9451060">
        <ele>1053.8</ele>
        <time>2020-07-15T10:16:46Z</time>
      </trkpt>
      <trkpt lat="37.9499440" lon="-2.9449850">
        <ele>1052.6</ele>
        <time>2020-07-15T10:16:48Z</time>
      </trkpt>
      <trkpt lat="37.9501520" lon="-2.9448420">
        <ele>1051.4</ele>
        <time>2020-07-15T10:16:50Z</time>
      </trkpt>
      <trkpt lat="37.9503330" lon="-2.9447260">
        <ele>1050.0</ele>
        <time>2020-07-15T10:16:52Z</time>
      </trkpt>
      <trkpt lat="37.9504130" lon="-2.9447060">
        <ele>1049.4</ele>
        <time>2020-07-15T10:16:53Z</time>
      </trkpt>
      <trkpt lat="37.9505070" lon="-2.9447250">
        <ele>1048.8</ele>
        <time>2020-07-15T10:16:54Z</time>
      </trkpt>
      <trkpt lat="37.9506240" lon="-2.9449010">
        <ele>1047.6</ele>
        <time>2020-07-15T10:16:56Z</time>
      </trkpt>
      <trkpt lat="37.9506560" lon="-2.9452580">
        <ele>1046.2</ele>
        <time>2020-07-15T10:16:59Z</time>
      </trkpt>
      <trkpt lat="37.9506680" lon="-2.9456760">
        <ele>1044.6</ele>
        <time>2020-07-15T10:17:02Z</time>
      </trkpt>
      <trkpt lat="37.9507000" lon="-2.9459550">
        <ele>1043.4</ele>
        <time>2020-07-15T10:17:04Z</time>
      </trkpt>
      <trkpt lat="37.9507300" lon="-2.9460830">
        <ele>1042.6</ele>
        <time>2020-07-15T10:17:05Z</time>
      </trkpt>
      <trkpt lat="37.9507780" lon="-2.9462190">
        <ele>1041.6</ele>
        <time>2020-07-15T10:17:06Z</time>
      </trkpt>
      <trkpt lat="37.9508400" lon="-2.9463290">
        <ele>1040.8</ele>
        <time>2020-07-15T10:17:07Z</time>
      </trkpt>
      <trkpt lat="37.9509100" lon="-2.9464220">
        <ele>1040.2</ele>
        <time>2020-07-15T10:17:08Z</time>
      </trkpt>
      <trkpt lat="37.9510830" lon="-2.9465890">
        <ele>1039.2</ele>
        <time>2020-07-15T10:17:10Z</time>
      </trkpt>
      <trkpt lat="37.9513400" lon="-2.9468160">
        <ele>1037.8</ele>
        <time>2020-07-15T10:17:13Z</time>
      </trkpt>
      <trkpt lat="37.9516160" lon="-2.9470620">
        <ele>1036.2</ele>
        <time>2020-07-15T10:17:16Z</time>
      </trkpt>
      <trkpt lat="37.9517970" lon="-2.9472230">
        <ele>1034.8</ele>
        <time>2020-07-15T10:17:18Z</time>
      </trkpt>
      <trkpt lat="37.9519890" lon="-2.9473970">
        <ele>1033.2</ele>
        <time>2020-07-15T10:17:20Z</time>
      </trkpt>
      <trkpt lat="37.9521790" lon="-2.9475630">
        <ele>1032.0</ele>
        <time>2020-07-15T10:17:22Z</time>
      </trkpt>
      <trkpt lat="37.9523560" lon="-2.9477400">
        <ele>1031.2</ele>
        <time>2020-07-15T10:17:24Z</time>
      </trkpt>
      <trkpt lat="37.9524420" lon="-2.9478350">
        <ele>1030.8</ele>
        <time>2020-07-15T10:17:25Z</time>
      </trkpt>
      <trkpt lat="37.9526980" lon="-2.9481010">
        <ele>1029.2</ele>
        <time>2020-07-15T10:17:28Z</time>
      </trkpt>
      <trkpt lat="37.9529930" lon="-2.9483340">
        <ele>1027.6</ele>
        <time>2020-07-15T10:17:31Z</time>
      </trkpt>
      <trkpt lat="37.9532050" lon="-2.9484120">
        <ele>1026.4</ele>
        <time>2020-07-15T10:17:33Z</time>
      </trkpt>
      <trkpt lat="37.9533280" lon="-2.9484330">
        <ele>1025.8</ele>
        <time>2020-07-15T10:17:34Z</time>
      </trkpt>
      <trkpt lat="37.9534350" lon="-2.9484500">
        <ele>1024.8</ele>
        <time>2020-07-15T10:17:35Z</time>
      </trkpt>
      <trkpt lat="37.9536780" lon="-2.9484830">
        <ele>1023.4</ele>
        <time>2020-07-15T10:17:37Z</time>
      </trkpt>
      <trkpt lat="37.9539090" lon="-2.9485260">
        <ele>1021.6</ele>
        <time>2020-07-15T10:17:39Z</time>
      </trkpt>
      <trkpt lat="37.9540300" lon="-2.9485620">
        <ele>1021.0</ele>
        <time>2020-07-15T10:17:40Z</time>
      </trkpt>
      <trkpt lat="37.9541490" lon="-2.9486030">
        <ele>1020.0</ele>
        <time>2020-07-15T10:17:41Z</time>
      </trkpt>
      <trkpt lat="37.9542550" lon="-2.9486570">
        <ele>1019.4</ele>
        <time>2020-07-15T10:17:42Z</time>
      </trkpt>
      <trkpt lat="37.9543730" lon="-2.9487340">
        <ele>1018.6</ele>
        <time>2020-07-15T10:17:43Z</time>
      </trkpt>
      <trkpt lat="37.9545960" lon="-2.9488800">
        <ele>1017.4</ele>
        <time>2020-07-15T10:17:45Z</time>
      </trkpt>
      <trkpt lat="37.9548210" lon="-2.9490070">
        <ele>1016.2</ele>
        <time>2020-07-15T10:17:47Z</time>
      </trkpt>
      <trkpt lat="37.9550540" lon="-2.9491320">
        <ele>1015.0</ele>
        <time>2020-07-15T10:17:49Z</time>
      </trkpt>
      <trkpt lat="37.9551680" lon="-2.9491820">
        <ele>1014.4</ele>
        <time>2020-07-15T10:17:50Z</time>
      </trkpt>
      <trkpt lat="37.9552790" lon="-2.9492210">
        <ele>1013.8</ele>
        <time>2020-07-15T10:17:51Z</time>
      </trkpt>
      <trkpt lat="37.9554870" lon="-2.9492710">
        <ele>1012.4</ele>
        <time>2020-07-15T10:17:53Z</time>
      </trkpt>
      <trkpt lat="37.9555890" lon="-2.9492950">
        <ele>1011.8</ele>
        <time>2020-07-15T10:17:54Z</time>
      </trkpt>
      <trkpt lat="37.9556690" lon="-2.9493290">
        <ele>1011.2</ele>
        <time>2020-07-15T10:17:55Z</time>
      </trkpt>
      <trkpt lat="37.9557220" lon="-2.9493870">
        <ele>1010.8</ele>
        <time>2020-07-15T10:17:56Z</time>
      </trkpt>
      <trkpt lat="37.9557140" lon="-2.9495180">
        <ele>1010.2</ele>
        <time>2020-07-15T10:17:58Z</time>
      </trkpt>
      <trkpt lat="37.9555930" lon="-2.9495130">
        <ele>1009.4</ele>
        <time>2020-07-15T10:18:00Z</time>
      </trkpt>
      <trkpt lat="37.9555340" lon="-2.9494730">
        <ele>1009.0</ele>
        <time>2020-07-15T10:18:01Z</time>
      </trkpt>
      <trkpt lat="37.9554670" lon="-2.9494270">
        <ele>1008.4</ele>
        <time>2020-07-15T10:18:02Z</time>
      </trkpt>
      <trkpt lat="37.9553120" lon="-2.9493490">
        <ele>1007.8</ele>
        <time>2020-07-15T10:18:04Z</time>
      </trkpt>
      <trkpt lat="37.9550490" lon="-2.9492400">
        <ele>1006.6</ele>
        <time>2020-07-15T10:18:07Z</time>
      </trkpt>
      <trkpt lat="37.9548590" lon="-2.9491580">
        <ele>1006.0</ele>
        <time>2020-07-15T10:18:09Z</time>
      </trkpt>
      <trkpt lat="37.9547600" lon="-2.9491180">
        <ele>1005.4</ele>
        <time>2020-07-15T10:18:10Z</time>
      </trkpt>
      <trkpt lat="37.9545470" lon="-2.9490360">
        <ele>1003.8</ele>
        <time>2020-07-15T10:18:12Z</time>
      </trkpt>
      <trkpt lat="37.9543410" lon="-2.9489430">
        <ele>1002.6</ele>
        <time>2020-07-15T10:18:14Z</time>
      </trkpt>
      <trkpt lat="37.9541130" lon="-2.9488740">
        <ele>1001.2</ele>
        <time>2020-07-15T10:18:16Z</time>
      </trkpt>
      <trkpt lat="37.9540030" lon="-2.9488640">
        <ele>1000.6</ele>
        <time>2020-07-15T10:18:17Z</time>
      </trkpt>
      <trkpt lat="37.9538830" lon="-2.9488710">
        <ele>999.8</ele>
        <time>2020-07-15T10:18:18Z</time>
      </trkpt>
      <trkpt lat="37.9536210" lon="-2.9489130">
        <ele>998.0</ele>
        <time>2020-07-15T10:18:20Z</time>
      </trkpt>
      <trkpt lat="37.9533710" lon="-2.9489560">
        <ele>996.4</ele>
        <time>2020-07-15T10:18:22Z</time>
      </trkpt>
      <trkpt lat="37.9532580" lon="-2.9489740">
        <ele>995.4</ele>
        <time>2020-07-15T10:18:23Z</time>
      </trkpt>
      <trkpt lat="37.9531120" lon="-2.9489880">
        <ele>994.4</ele>
        <time>2020-07-15T10:18:24Z</time>
      </trkpt>
      <trkpt lat="37.9528730" lon="-2.9489880">
        <ele>992.6</ele>
        <time>2020-07-15T10:18:26Z</time>
      </trkpt>
      <trkpt lat="37.9527530" lon="-2.9489640">
        <ele>991.6</ele>
        <time>2020-07-15T10:18:27Z</time>
      </trkpt>
      <trkpt lat="37.9525220" lon="-2.9488460">
        <ele>990.2</ele>
        <time>2020-07-15T10:18:29Z</time>
      </trkpt>
      <trkpt lat="37.9524000" lon="-2.9487690">
        <ele>989.4</ele>
        <time>2020-07-15T10:18:30Z</time>
      </trkpt>
      <trkpt lat="37.9522840" lon="-2.9486950">
        <ele>988.4</ele>
        <time>2020-07-15T10:18:31Z</time>
      </trkpt>
      <trkpt lat="37.9520570" lon="-2.9485480">
        <ele>986.6</ele>
        <time>2020-07-15T10:18:33Z</time>
      </trkpt>
      <trkpt lat="37.9519360" lon="-2.9484730">
        <ele>985.4</ele>
        <time>2020-07-15T10:18:34Z</time>
      </trkpt>
      <trkpt lat="37.9517170" lon="-2.9483680">
        <ele>984.0</ele>
        <time>2020-07-15T10:18:36Z</time>
      </trkpt>
      <trkpt lat="37.9515630" lon="-2.9483170">
        <ele>982.6</ele>
        <time>2020-07-15T10:18:37Z</time>
      </trkpt>
      <trkpt lat="37.9512950" lon="-2.9482570">
        <ele>980.6</ele>
        <time>2020-07-15T10:18:39Z</time>
      </trkpt>
      <trkpt lat="37.9510370" lon="-2.9481990">
        <ele>978.8</ele>
        <time>2020-07-15T10:18:41Z</time>
      </trkpt>
      <trkpt lat="37.9508980" lon="-2.9481340">
        <ele>977.6</ele>
        <time>2020-07-15T10:18:42Z</time>
      </trkpt>
      <trkpt lat="37.9507890" lon="-2.9480470">
        <ele>976.6</ele>
        <time>2020-07-15T10:18:43Z</time>
      </trkpt>
      <trkpt lat="37.9505340" lon="-2.9478580">
        <ele>974.4</ele>
        <time>2020-07-15T10:18:45Z</time>
      </trkpt>
      <trkpt lat="37.9504080" lon="-2.9477780">
        <ele>973.2</ele>
        <time>2020-07-15T10:18:46Z</time>
      </trkpt>
      <trkpt lat="37.9501830" lon="-2.9476300">
        <ele>971.6</ele>
        <time>2020-07-15T10:18:48Z</time>
      </trkpt>
      <trkpt lat="37.9500700" lon="-2.9475540">
        <ele>970.6</ele>
        <time>2020-07-15T10:18:49Z</time>
      </trkpt>
      <trkpt lat="37.9499620" lon="-2.9474810">
        <ele>969.8</ele>
        <time>2020-07-15T10:18:50Z</time>
      </trkpt>
      <trkpt lat="37.9498700" lon="-2.9474170">
        <ele>968.8</ele>
        <time>2020-07-15T10:18:51Z</time>
      </trkpt>
      <trkpt lat="37.9497090" lon="-2.9473420">
        <ele>967.0</ele>
        <time>2020-07-15T10:18:53Z</time>
      </trkpt>
      <trkpt lat="37.9495340" lon="-2.9473970">
        <ele>965.4</ele>
        <time>2020-07-15T10:18:55Z</time>
      </trkpt>
      <trkpt lat="37.9493650" lon="-2.9475240">
        <ele>963.6</ele>
        <time>2020-07-15T10:18:57Z</time>
      </trkpt>
      <trkpt lat="37.9491880" lon="-2.9476520">
        <ele>962.2</ele>
        <time>2020-07-15T10:18:59Z</time>
      </trkpt>
      <trkpt lat="37.9491010" lon="-2.9477340">
        <ele>961.6</ele>
        <time>2020-07-15T10:19:00Z</time>
      </trkpt>
      <trkpt lat="37.9490280" lon="-2.9478280">
        <ele>960.6</ele>
        <time>2020-07-15T10:19:01Z</time>
      </trkpt>
      <trkpt lat="37.9489610" lon="-2.9479390">
        <ele>960.2</ele>
        <time>2020-07-15T10:19:02Z</time>
      </trkpt>
      <trkpt lat="37.9489090" lon="-2.9480450">
        <ele>959.4</ele>
        <time>2020-07-15T10:19:03Z</time>
      </trkpt>
      <trkpt lat="37.9488520" lon="-2.9481690">
        <ele>958.8</ele>
        <time>2020-07-15T10:19:04Z</time>
      </trkpt>
      <trkpt lat="37.9488060" lon="-2.9482760">
        <ele>958.0</ele>
        <time>2020-07-15T10:19:05Z</time>
      </trkpt>
      <trkpt lat="37.9487510" lon="-2.9484020">
        <ele>957.6</ele>
        <time>2020-07-15T10:19:06Z</time>
      </trkpt>
      <trkpt lat="37.9487010" lon="-2.9485200">
        <ele>956.8</ele>
        <time>2020-07-15T10:19:07Z</time>
      </trkpt>
      <trkpt lat="37.9484760" lon="-2.9489200">
        <ele>956.0</ele>
        <time>2020-07-15T10:19:11Z</time>
      </trkpt>
      <trkpt lat="37.9483430" lon="-2.9490970">
        <ele>955.6</ele>
        <time>2020-07-15T10:19:13Z</time>
      </trkpt>
      <trkpt lat="37.9480580" lon="-2.9494440">
        <ele>954.6</ele>
        <time>2020-07-15T10:19:17Z</time>
      </trkpt>
      <trkpt lat="37.9478360" lon="-2.9497080">
        <ele>953.2</ele>
        <time>2020-07-15T10:19:20Z</time>
      </trkpt>
      <trkpt lat="37.9476180" lon="-2.9499760">
        <ele>952.0</ele>
        <time>2020-07-15T10:19:23Z</time>
      </trkpt>
      <trkpt lat="37.9474790" lon="-2.9501850">
        <ele>951.2</ele>
        <time>2020-07-15T10:19:25Z</time>
      </trkpt>
      <trkpt lat="37.9474300" lon="-2.9503080">
        <ele>950.8</ele>
        <time>2020-07-15T10:19:26Z</time>
      </trkpt>
      <trkpt lat="37.9473640" lon="-2.9505640">
        <ele>949.6</ele>
        <time>2020-07-15T10:19:28Z</time>
      </trkpt>
      <trkpt lat="37.9473360" lon="-2.9506900">
        <ele>949.0</ele>
        <time>2020-07-15T10:19:29Z</time>
      </trkpt>
      <trkpt lat="37.9472990" lon="-2.9508220">
        <ele>948.6</ele>
        <time>2020-07-15T10:19:30Z</time>
      </trkpt>
      <trkpt lat="37.9471590" lon="-2.9511760">
        <ele>947.6</ele>
        <time>2020-07-15T10:19:33Z</time>
      </trkpt>
      <trkpt lat="37.9470010" lon="-2.9514970">
        <ele>946.0</ele>
        <time>2020-07-15T10:19:36Z</time>
      </trkpt>
      <trkpt lat="37.9468920" lon="-2.9517090">
        <ele>944.6</ele>
        <time>2020-07-15T10:19:38Z</time>
      </trkpt>
      <trkpt lat="37.9467720" lon="-2.9519230">
        <ele>943.4</ele>
        <time>2020-07-15T10:19:40Z</time>
      </trkpt>
      <trkpt lat="37.9467180" lon="-2.9519960">
        <ele>942.8</ele>
        <time>2020-07-15T10:19:41Z</time>
      </trkpt>
      <trkpt lat="37.9466630" lon="-2.9520580">
        <ele>942.2</ele>
        <time>2020-07-15T10:19:42Z</time>
      </trkpt>
      <trkpt lat="37.9466040" lon="-2.9521120">
        <ele>941.8</ele>
        <time>2020-07-15T10:19:43Z</time>
      </trkpt>
      <trkpt lat="37.9464640" lon="-2.9522070">
        <ele>941.0</ele>
        <time>2020-07-15T10:19:45Z</time>
      </trkpt>
      <trkpt lat="37.9463150" lon="-2.9522700">
        <ele>940.0</ele>
        <time>2020-07-15T10:19:47Z</time>
      </trkpt>
      <trkpt lat="37.9462360" lon="-2.9523020">
        <ele>939.8</ele>
        <time>2020-07-15T10:19:48Z</time>
      </trkpt>
      <trkpt lat="37.9459860" lon="-2.9524110">
        <ele>938.6</ele>
        <time>2020-07-15T10:19:51Z</time>
      </trkpt>
      <trkpt lat="37.9459220" lon="-2.9524610">
        <ele>938.2</ele>
        <time>2020-07-15T10:19:52Z</time>
      </trkpt>
      <trkpt lat="37.9458100" lon="-2.9526120">
        <ele>937.2</ele>
        <time>2020-07-15T10:19:54Z</time>
      </trkpt>
      <trkpt lat="37.9457620" lon="-2.9527040">
        <ele>936.6</ele>
        <time>2020-07-15T10:19:55Z</time>
      </trkpt>
      <trkpt lat="37.9457100" lon="-2.9527980">
        <ele>936.2</ele>
        <time>2020-07-15T10:19:56Z</time>
      </trkpt>
      <trkpt lat="37.9456530" lon="-2.9528910">
        <ele>935.8</ele>
        <time>2020-07-15T10:19:57Z</time>
      </trkpt>
      <trkpt lat="37.9455950" lon="-2.9529660">
        <ele>935.4</ele>
        <time>2020-07-15T10:19:58Z</time>
      </trkpt>
      <trkpt lat="37.9455250" lon="-2.9530400">
        <ele>935.0</ele>
        <time>2020-07-15T10:19:59Z</time>
      </trkpt>
      <trkpt lat="37.9454400" lon="-2.9531110">
        <ele>934.6</ele>
        <time>2020-07-15T10:20:00Z</time>
      </trkpt>
      <trkpt lat="37.9452420" lon="-2.9532620">
        <ele>933.4</ele>
        <time>2020-07-15T10:20:03Z</time>
      </trkpt>
      <trkpt lat="37.9451160" lon="-2.9533820">
        <ele>932.2</ele>
        <time>2020-07-15T10:20:05Z</time>
      </trkpt>
      <trkpt lat="37.9449850" lon="-2.9535080">
        <ele>931.2</ele>
        <time>2020-07-15T10:20:07Z</time>
      </trkpt>
      <trkpt lat="37.9449140" lon="-2.9535670">
        <ele>930.6</ele>
        <time>2020-07-15T10:20:08Z</time>
      </trkpt>
      <trkpt lat="37.9447600" lon="-2.9536620">
        <ele>930.0</ele>
        <time>2020-07-15T10:20:10Z</time>
      </trkpt>
      <trkpt lat="37.9445920" lon="-2.9537430">
        <ele>929.4</ele>
        <time>2020-07-15T10:20:12Z</time>
      </trkpt>
      <trkpt lat="37.9445090" lon="-2.9537790">
        <ele>929.0</ele>
        <time>2020-07-15T10:20:13Z</time>
      </trkpt>
      <trkpt lat="37.9442270" lon="-2.9538980">
        <ele>927.6</ele>
        <time>2020-07-15T10:20:16Z</time>
      </trkpt>
      <trkpt lat="37.9440500" lon="-2.9539960">
        <ele>926.8</ele>
        <time>2020-07-15T10:20:18Z</time>
      </trkpt>
      <trkpt lat="37.9439640" lon="-2.9540640">
        <ele>926.4</ele>
        <time>2020-07-15T10:20:19Z</time>
      </trkpt>
      <trkpt lat="37.9437350" lon="-2.9543100">
        <ele>925.4</ele>
        <time>2020-07-15T10:20:22Z</time>
      </trkpt>
      <trkpt lat="37.9436720" lon="-2.9543930">
        <ele>925.0</ele>
        <time>2020-07-15T10:20:23Z</time>
      </trkpt>
      <trkpt lat="37.9435150" lon="-2.9545820">
        <ele>924.0</ele>
        <time>2020-07-15T10:20:25Z</time>
      </trkpt>
      <trkpt lat="37.9434320" lon="-2.9546600">
        <ele>923.6</ele>
        <time>2020-07-15T10:20:26Z</time>
      </trkpt>
      <trkpt lat="37.9433440" lon="-2.9547300">
        <ele>923.0</ele>
        <time>2020-07-15T10:20:27Z</time>
      </trkpt>
      <trkpt lat="37.9432550" lon="-2.9547940">
        <ele>922.4</ele>
        <time>2020-07-15T10:20:28Z</time>
      </trkpt>
      <trkpt lat="37.9429670" lon="-2.9550060">
        <ele>921.2</ele>
        <time>2020-07-15T10:20:31Z</time>
      </trkpt>
      <trkpt lat="37.9426830" lon="-2.9552120">
        <ele>920.0</ele>
        <time>2020-07-15T10:20:34Z</time>
      </trkpt>
      <trkpt lat="37.9424020" lon="-2.9554430">
        <ele>918.6</ele>
        <time>2020-07-15T10:20:37Z</time>
      </trkpt>
      <trkpt lat="37.9422400" lon="-2.9556250">
        <ele>917.6</ele>
        <time>2020-07-15T10:20:39Z</time>
      </trkpt>
      <trkpt lat="37.9421630" lon="-2.9557210">
        <ele>917.2</ele>
        <time>2020-07-15T10:20:40Z</time>
      </trkpt>
      <trkpt lat="37.9419910" lon="-2.9559000">
        <ele>916.2</ele>
        <time>2020-07-15T10:20:42Z</time>
      </trkpt>
      <trkpt lat="37.9419020" lon="-2.9559680">
        <ele>915.8</ele>
        <time>2020-07-15T10:20:43Z</time>
      </trkpt>
      <trkpt lat="37.9416940" lon="-2.9560870">
        <ele>914.8</ele>
        <time>2020-07-15T10:20:45Z</time>
      </trkpt>
      <trkpt lat="37.9415860" lon="-2.9561360">
        <ele>914.2</ele>
        <time>2020-07-15T10:20:46Z</time>
      </trkpt>
      <trkpt lat="37.9414870" lon="-2.9561800">
        <ele>913.6</ele>
        <time>2020-07-15T10:20:47Z</time>
      </trkpt>
      <trkpt lat="37.9411570" lon="-2.9562910">
        <ele>912.2</ele>
        <time>2020-07-15T10:20:50Z</time>
      </trkpt>
      <trkpt lat="37.9409380" lon="-2.9563340">
        <ele>911.4</ele>
        <time>2020-07-15T10:20:52Z</time>
      </trkpt>
      <trkpt lat="37.9408400" lon="-2.9563470">
        <ele>911.0</ele>
        <time>2020-07-15T10:20:53Z</time>
      </trkpt>
      <trkpt lat="37.9406060" lon="-2.9563770">
        <ele>910.0</ele>
        <time>2020-07-15T10:20:55Z</time>
      </trkpt>
      <trkpt lat="37.9403020" lon="-2.9564010">
        <ele>908.8</ele>
        <time>2020-07-15T10:20:58Z</time>
      </trkpt>
      <trkpt lat="37.9402040" lon="-2.9563980">
        <ele>908.6</ele>
        <time>2020-07-15T10:20:59Z</time>
      </trkpt>
      <trkpt lat="37.9400080" lon="-2.9563680">
        <ele>908.4</ele>
        <time>2020-07-15T10:21:01Z</time>
      </trkpt>
      <trkpt lat="37.9397310" lon="-2.9563210">
        <ele>908.4</ele>
        <time>2020-07-15T10:21:04Z</time>
      </trkpt>
      <trkpt lat="37.9394150" lon="-2.9561780">
        <ele>908.2</ele>
        <time>2020-07-15T10:21:08Z</time>
      </trkpt>
      <trkpt lat="37.9389820" lon="-2.9559000">
        <ele>908.6</ele>
        <time>2020-07-15T10:21:14Z</time>
      </trkpt>
      <trkpt lat="37.9389060" lon="-2.9558790">
        <ele>908.4</ele>
        <time>2020-07-15T10:21:15Z</time>
      </trkpt>
      <trkpt lat="37.9386890" lon="-2.9558770">
        <ele>908.4</ele>
        <time>2020-07-15T10:21:18Z</time>
      </trkpt>
      <trkpt lat="37.9386140" lon="-2.9558990">
        <ele>908.4</ele>
        <time>2020-07-15T10:21:19Z</time>
      </trkpt>
      <trkpt lat="37.9383730" lon="-2.9560480">
        <ele>908.6</ele>
        <time>2020-07-15T10:21:23Z</time>
      </trkpt>
      <trkpt lat="37.9382450" lon="-2.9562840">
        <ele>908.6</ele>
        <time>2020-07-15T10:21:26Z</time>
      </trkpt>
      <trkpt lat="37.9381980" lon="-2.9564720">
        <ele>908.4</ele>
        <time>2020-07-15T10:21:28Z</time>
      </trkpt>
      <trkpt lat="37.9381300" lon="-2.9567720">
        <ele>907.6</ele>
        <time>2020-07-15T10:21:31Z</time>
      </trkpt>
      <trkpt lat="37.9380340" lon="-2.9571740">
        <ele>906.2</ele>
        <time>2020-07-15T10:21:35Z</time>
      </trkpt>
      <trkpt lat="37.9379890" lon="-2.9573950">
        <ele>905.6</ele>
        <time>2020-07-15T10:21:37Z</time>
      </trkpt>
      <trkpt lat="37.9379820" lon="-2.9574990">
        <ele>905.0</ele>
        <time>2020-07-15T10:21:38Z</time>
      </trkpt>
      <trkpt lat="37.9380200" lon="-2.9577360">
        <ele>904.2</ele>
        <time>2020-07-15T10:21:40Z</time>
      </trkpt>
      <trkpt lat="37.9380470" lon="-2.9578440">
        <ele>903.4</ele>
        <time>2020-07-15T10:21:41Z</time>
      </trkpt>
      <trkpt lat="37.9380690" lon="-2.9579710">
        <ele>903.0</ele>
        <time>2020-07-15T10:21:42Z</time>
      </trkpt>
      <trkpt lat="37.9380720" lon="-2.9582260">
        <ele>901.8</ele>
        <time>2020-07-15T10:21:44Z</time>
      </trkpt>
      <trkpt lat="37.9379670" lon="-2.9585890">
        <ele>900.6</ele>
        <time>2020-07-15T10:21:47Z</time>
      </trkpt>
      <trkpt lat="37.9379170" lon="-2.9587080">
        <ele>900.2</ele>
        <time>2020-07-15T10:21:48Z</time>
      </trkpt>
      <trkpt lat="37.9378190" lon="-2.9589590">
        <ele>899.4</ele>
        <time>2020-07-15T10:21:50Z</time>
      </trkpt>
      <trkpt lat="37.9377870" lon="-2.9590920">
        <ele>899.0</ele>
        <time>2020-07-15T10:21:51Z</time>
      </trkpt>
      <trkpt lat="37.9377650" lon="-2.9592300">
        <ele>898.2</ele>
        <time>2020-07-15T10:21:52Z</time>
      </trkpt>
      <trkpt lat="37.9377200" lon="-2.9596570">
        <ele>896.6</ele>
        <time>2020-07-15T10:21:55Z</time>
      </trkpt>
      <trkpt lat="37.9376870" lon="-2.9599470">
        <ele>895.4</ele>
        <time>2020-07-15T10:21:57Z</time>
      </trkpt>
      <trkpt lat="37.9376750" lon="-2.9600780">
        <ele>894.8</ele>
        <time>2020-07-15T10:21:58Z</time>
      </trkpt>
      <trkpt lat="37.9376590" lon="-2.9602220">
        <ele>894.2</ele>
        <time>2020-07-15T10:21:59Z</time>
      </trkpt>
      <trkpt lat="37.9376010" lon="-2.9604970">
        <ele>893.2</ele>
        <time>2020-07-15T10:22:01Z</time>
      </trkpt>
      <trkpt lat="37.9375530" lon="-2.9606190">
        <ele>892.8</ele>
        <time>2020-07-15T10:22:02Z</time>
      </trkpt>
      <trkpt lat="37.9374130" lon="-2.9609700">
        <ele>891.6</ele>
        <time>2020-07-15T10:22:05Z</time>
      </trkpt>
      <trkpt lat="37.9373810" lon="-2.9611050">
        <ele>891.4</ele>
        <time>2020-07-15T10:22:06Z</time>
      </trkpt>
      <trkpt lat="37.9373790" lon="-2.9615020">
        <ele>890.8</ele>
        <time>2020-07-15T10:22:09Z</time>
      </trkpt>
      <trkpt lat="37.9373880" lon="-2.9616320">
        <ele>890.6</ele>
        <time>2020-07-15T10:22:10Z</time>
      </trkpt>
      <trkpt lat="37.9374700" lon="-2.9621190">
        <ele>889.4</ele>
        <time>2020-07-15T10:22:14Z</time>
      </trkpt>
      <trkpt lat="37.9375530" lon="-2.9625180">
        <ele>888.4</ele>
        <time>2020-07-15T10:22:17Z</time>
      </trkpt>
      <trkpt lat="37.9376080" lon="-2.9630500">
        <ele>887.0</ele>
        <time>2020-07-15T10:22:21Z</time>
      </trkpt>
      <trkpt lat="37.9376390" lon="-2.9636920">
        <ele>886.0</ele>
        <time>2020-07-15T10:22:26Z</time>
      </trkpt>
      <trkpt lat="37.9376720" lon="-2.9639350">
        <ele>885.8</ele>
        <time>2020-07-15T10:22:28Z</time>
      </trkpt>
      <trkpt lat="37.9377330" lon="-2.9641820">
        <ele>885.2</ele>
        <time>2020-07-15T10:22:30Z</time>
      </trkpt>
      <trkpt lat="37.9377780" lon="-2.9642950">
        <ele>885.0</ele>
        <time>2020-07-15T10:22:31Z</time>
      </trkpt>
      <trkpt lat="37.9378350" lon="-2.9643990">
        <ele>884.6</ele>
        <time>2020-07-15T10:22:32Z</time>
      </trkpt>
      <trkpt lat="37.9380500" lon="-2.9646520">
        <ele>883.6</ele>
        <time>2020-07-15T10:22:35Z</time>
      </trkpt>
      <trkpt lat="37.9381350" lon="-2.9647320">
        <ele>883.2</ele>
        <time>2020-07-15T10:22:36Z</time>
      </trkpt>
      <trkpt lat="37.9383740" lon="-2.9649590">
        <ele>882.4</ele>
        <time>2020-07-15T10:22:39Z</time>
      </trkpt>
      <trkpt lat="37.9384440" lon="-2.9650480">
        <ele>882.4</ele>
        <time>2020-07-15T10:22:40Z</time>
      </trkpt>
      <trkpt lat="37.9384920" lon="-2.9651450">
        <ele>882.0</ele>
        <time>2020-07-15T10:22:41Z</time>
      </trkpt>
      <trkpt lat="37.9385260" lon="-2.9653740">
        <ele>881.6</ele>
        <time>2020-07-15T10:22:43Z</time>
      </trkpt>
      <trkpt lat="37.9385040" lon="-2.9654930">
        <ele>881.2</ele>
        <time>2020-07-15T10:22:44Z</time>
      </trkpt>
      <trkpt lat="37.9384260" lon="-2.9657160">
        <ele>880.6</ele>
        <time>2020-07-15T10:22:46Z</time>
      </trkpt>
      <trkpt lat="37.9383410" lon="-2.9659270">
        <ele>880.2</ele>
        <time>2020-07-15T10:22:48Z</time>
      </trkpt>
      <trkpt lat="37.9381710" lon="-2.9664960">
        <ele>878.8</ele>
        <time>2020-07-15T10:22:53Z</time>
      </trkpt>
      <trkpt lat="37.9381110" lon="-2.9669780">
        <ele>877.8</ele>
        <time>2020-07-15T10:22:57Z</time>
      </trkpt>
      <trkpt lat="37.9380940" lon="-2.9671300">
        <ele>877.6</ele>
        <time>2020-07-15T10:22:59Z</time>
      </trkpt>
      <trkpt lat="37.9380590" lon="-2.9672560">
        <ele>877.4</ele>
        <time>2020-07-15T10:23:00Z</time>
      </trkpt>
      <trkpt lat="37.9379230" lon="-2.9674870">
        <ele>876.6</ele>
        <time>2020-07-15T10:23:02Z</time>
      </trkpt>
      <trkpt lat="37.9377920" lon="-2.9676530">
        <ele>876.2</ele>
        <time>2020-07-15T10:23:04Z</time>
      </trkpt>
      <trkpt lat="37.9375810" lon="-2.9678890">
        <ele>875.8</ele>
        <time>2020-07-15T10:23:07Z</time>
      </trkpt>
      <trkpt lat="37.9374530" lon="-2.9680570">
        <ele>875.6</ele>
        <time>2020-07-15T10:23:09Z</time>
      </trkpt>
      <trkpt lat="37.9373800" lon="-2.9682510">
        <ele>875.2</ele>
        <time>2020-07-15T10:23:11Z</time>
      </trkpt>
      <trkpt lat="37.9373330" lon="-2.9684940">
        <ele>875.0</ele>
        <time>2020-07-15T10:23:13Z</time>
      </trkpt>
      <trkpt lat="37.9372730" lon="-2.9687290">
        <ele>874.6</ele>
        <time>2020-07-15T10:23:15Z</time>
      </trkpt>
      <trkpt lat="37.9372290" lon="-2.9688380">
        <ele>874.2</ele>
        <time>2020-07-15T10:23:16Z</time>
      </trkpt>
      <trkpt lat="37.9370630" lon="-2.9691330">
        <ele>873.6</ele>
        <time>2020-07-15T10:23:19Z</time>
      </trkpt>
      <trkpt lat="37.9370010" lon="-2.9692300">
        <ele>873.2</ele>
        <time>2020-07-15T10:23:20Z</time>
      </trkpt>
      <trkpt lat="37.9366950" lon="-2.9696890">
        <ele>872.2</ele>
        <time>2020-07-15T10:23:25Z</time>
      </trkpt>
      <trkpt lat="37.9365650" lon="-2.9698610">
        <ele>871.8</ele>
        <time>2020-07-15T10:23:27Z</time>
      </trkpt>
      <trkpt lat="37.9361930" lon="-2.9702000">
        <ele>871.4</ele>
        <time>2020-07-15T10:23:32Z</time>
      </trkpt>
      <trkpt lat="37.9360260" lon="-2.9702950">
        <ele>871.2</ele>
        <time>2020-07-15T10:23:34Z</time>
      </trkpt>
      <trkpt lat="37.9357800" lon="-2.9703980">
        <ele>870.8</ele>
        <time>2020-07-15T10:23:37Z</time>
      </trkpt>
      <trkpt lat="37.9353490" lon="-2.9705580">
        <ele>870.2</ele>
        <time>2020-07-15T10:23:42Z</time>
      </trkpt>
      <trkpt lat="37.9347660" lon="-2.9707430">
        <ele>869.4</ele>
        <time>2020-07-15T10:23:49Z</time>
      </trkpt>
      <trkpt lat="37.9346850" lon="-2.9707640">
        <ele>869.2</ele>
        <time>2020-07-15T10:23:50Z</time>
      </trkpt>
      <trkpt lat="37.9344410" lon="-2.9708290">
        <ele>869.0</ele>
        <time>2020-07-15T10:23:53Z</time>
      </trkpt>
      <trkpt lat="37.9340260" lon="-2.9709960">
        <ele>868.6</ele>
        <time>2020-07-15T10:23:58Z</time>
      </trkpt>
      <trkpt lat="37.9337930" lon="-2.9711560">
        <ele>868.2</ele>
        <time>2020-07-15T10:24:01Z</time>
      </trkpt>
      <trkpt lat="37.9337300" lon="-2.9712280">
        <ele>868.0</ele>
        <time>2020-07-15T10:24:02Z</time>
      </trkpt>
      <trkpt lat="37.9336060" lon="-2.9715080">
        <ele>867.8</ele>
        <time>2020-07-15T10:24:05Z</time>
      </trkpt>
      <trkpt lat="37.9336300" lon="-2.9718380">
        <ele>867.6</ele>
        <time>2020-07-15T10:24:08Z</time>
      </trkpt>
      <trkpt lat="37.9337650" lon="-2.9721350">
        <ele>867.2</ele>
        <time>2020-07-15T10:24:11Z</time>
      </trkpt>
      <trkpt lat="37.9338170" lon="-2.9722320">
        <ele>867.0</ele>
        <time>2020-07-15T10:24:12Z</time>
      </trkpt>
      <trkpt lat="37.9338640" lon="-2.9723210">
        <ele>867.0</ele>
        <time>2020-07-15T10:24:13Z</time>
      </trkpt>
      <trkpt lat="37.9339960" lon="-2.9726200">
        <ele>866.4</ele>
        <time>2020-07-15T10:24:16Z</time>
      </trkpt>
      <trkpt lat="37.9340210" lon="-2.9727230">
        <ele>866.2</ele>
        <time>2020-07-15T10:24:17Z</time>
      </trkpt>
      <trkpt lat="37.9340030" lon="-2.9729480">
        <ele>866.0</ele>
        <time>2020-07-15T10:24:19Z</time>
      </trkpt>
      <trkpt lat="37.9339430" lon="-2.9730350">
        <ele>865.6</ele>
        <time>2020-07-15T10:24:20Z</time>
      </trkpt>
      <trkpt lat="37.9338560" lon="-2.9730800">
        <ele>865.2</ele>
        <time>2020-07-15T10:24:21Z</time>
      </trkpt>
      <trkpt lat="37.9336890" lon="-2.9730140">
        <ele>864.4</ele>
        <time>2020-07-15T10:24:23Z</time>
      </trkpt>
      <trkpt lat="37.9335800" lon="-2.9727980">
        <ele>863.6</ele>
        <time>2020-07-15T10:24:25Z</time>
      </trkpt>
      <trkpt lat="37.9335470" lon="-2.9726790">
        <ele>863.2</ele>
        <time>2020-07-15T10:24:26Z</time>
      </trkpt>
      <trkpt lat="37.9335150" lon="-2.9725590">
        <ele>862.8</ele>
        <time>2020-07-15T10:24:27Z</time>
      </trkpt>
      <trkpt lat="37.9334420" lon="-2.9723480">
        <ele>862.6</ele>
        <time>2020-07-15T10:24:29Z</time>
      </trkpt>
      <trkpt lat="37.9333760" lon="-2.9722080">
        <ele>862.4</ele>
        <time>2020-07-15T10:24:30Z</time>
      </trkpt>
      <trkpt lat="37.9333100" lon="-2.9721030">
        <ele>862.2</ele>
        <time>2020-07-15T10:24:31Z</time>
      </trkpt>
      <trkpt lat="37.9332350" lon="-2.9720070">
        <ele>861.6</ele>
        <time>2020-07-15T10:24:32Z</time>
      </trkpt>
      <trkpt lat="37.9330730" lon="-2.9718350">
        <ele>861.0</ele>
        <time>2020-07-15T10:24:34Z</time>
      </trkpt>
      <trkpt lat="37.9328150" lon="-2.9715790">
        <ele>859.8</ele>
        <time>2020-07-15T10:24:37Z</time>
      </trkpt>
      <trkpt lat="37.9327330" lon="-2.9715050">
        <ele>859.6</ele>
        <time>2020-07-15T10:24:38Z</time>
      </trkpt>
      <trkpt lat="37.9325400" lon="-2.9713630">
        <ele>858.8</ele>
        <time>2020-07-15T10:24:40Z</time>
      </trkpt>
      <trkpt lat="37.9323330" lon="-2.9712460">
        <ele>857.6</ele>
        <time>2020-07-15T10:24:42Z</time>
      </trkpt>
      <trkpt lat="37.9320120" lon="-2.9710850">
        <ele>856.2</ele>
        <time>2020-07-15T10:24:45Z</time>
      </trkpt>
      <trkpt lat="37.9318000" lon="-2.9709720">
        <ele>854.8</ele>
        <time>2020-07-15T10:24:47Z</time>
      </trkpt>
      <trkpt lat="37.9315860" lon="-2.9708450">
        <ele>854.0</ele>
        <time>2020-07-15T10:24:49Z</time>
      </trkpt>
      <trkpt lat="37.9314750" lon="-2.9707760">
        <ele>853.4</ele>
        <time>2020-07-15T10:24:50Z</time>
      </trkpt>
      <trkpt lat="37.9312620" lon="-2.9706420">
        <ele>852.4</ele>
        <time>2020-07-15T10:24:52Z</time>
      </trkpt>
      <trkpt lat="37.9310360" lon="-2.9705030">
        <ele>851.0</ele>
        <time>2020-07-15T10:24:54Z</time>
      </trkpt>
      <trkpt lat="37.9308110" lon="-2.9703650">
        <ele>850.0</ele>
        <time>2020-07-15T10:24:56Z</time>
      </trkpt>
      <trkpt lat="37.9305860" lon="-2.9702420">
        <ele>848.8</ele>
        <time>2020-07-15T10:24:58Z</time>
      </trkpt>
      <trkpt lat="37.9302130" lon="-2.9700900">
        <ele>847.2</ele>
        <time>2020-07-15T10:25:01Z</time>
      </trkpt>
      <trkpt lat="37.9298470" lon="-2.9700150">
        <ele>846.0</ele>
        <time>2020-07-15T10:25:04Z</time>
      </trkpt>
      <trkpt lat="37.9297270" lon="-2.9699990">
        <ele>845.6</ele>
        <time>2020-07-15T10:25:05Z</time>
      </trkpt>
      <trkpt lat="37.9294700" lon="-2.9700050">
        <ele>844.6</ele>
        <time>2020-07-15T10:25:07Z</time>
      </trkpt>
      <trkpt lat="37.9293560" lon="-2.9700260">
        <ele>844.2</ele>
        <time>2020-07-15T10:25:08Z</time>
      </trkpt>
      <trkpt lat="37.9292350" lon="-2.9700540">
        <ele>843.6</ele>
        <time>2020-07-15T10:25:09Z</time>
      </trkpt>
      <trkpt lat="37.9291170" lon="-2.9700720">
        <ele>843.2</ele>
        <time>2020-07-15T10:25:10Z</time>
      </trkpt>
      <trkpt lat="37.9290010" lon="-2.9700490">
        <ele>842.6</ele>
        <time>2020-07-15T10:25:11Z</time>
      </trkpt>
      <trkpt lat="37.9288910" lon="-2.9699820">
        <ele>842.2</ele>
        <time>2020-07-15T10:25:12Z</time>
      </trkpt>
      <trkpt lat="37.9288150" lon="-2.9698860">
        <ele>841.8</ele>
        <time>2020-07-15T10:25:13Z</time>
      </trkpt>
      <trkpt lat="37.9287310" lon="-2.9697870">
        <ele>841.4</ele>
        <time>2020-07-15T10:25:14Z</time>
      </trkpt>
      <trkpt lat="37.9286350" lon="-2.9696940">
        <ele>841.0</ele>
        <time>2020-07-15T10:25:15Z</time>
      </trkpt>
      <trkpt lat="37.9285390" lon="-2.9696260">
        <ele>840.8</ele>
        <time>2020-07-15T10:25:16Z</time>
      </trkpt>
      <trkpt lat="37.9284300" lon="-2.9695780">
        <ele>840.6</ele>
        <time>2020-07-15T10:25:17Z</time>
      </trkpt>
      <trkpt lat="37.9281210" lon="-2.9696030">
        <ele>839.6</ele>
        <time>2020-07-15T10:25:20Z</time>
      </trkpt>
      <trkpt lat="37.9280180" lon="-2.9697920">
        <ele>838.8</ele>
        <time>2020-07-15T10:25:22Z</time>
      </trkpt>
      <trkpt lat="37.9280140" lon="-2.9699070">
        <ele>838.4</ele>
        <time>2020-07-15T10:25:23Z</time>
      </trkpt>
      <trkpt lat="37.9280380" lon="-2.9700300">
        <ele>838.2</ele>
        <time>2020-07-15T10:25:24Z</time>
      </trkpt>
      <trkpt lat="37.9281210" lon="-2.9702330">
        <ele>837.8</ele>
        <time>2020-07-15T10:25:26Z</time>
      </trkpt>
      <trkpt lat="37.9281600" lon="-2.9703340">
        <ele>837.8</ele>
        <time>2020-07-15T10:25:27Z</time>
      </trkpt>
      <trkpt lat="37.9281860" lon="-2.9704230">
        <ele>837.8</ele>
        <time>2020-07-15T10:25:28Z</time>
      </trkpt>
      <trkpt lat="37.9282040" lon="-2.9705150">
        <ele>837.8</ele>
        <time>2020-07-15T10:25:29Z</time>
      </trkpt>
      <trkpt lat="37.9282090" lon="-2.9706230">
        <ele>838.2</ele>
        <time>2020-07-15T10:25:30Z</time>
      </trkpt>
      <trkpt lat="37.9281750" lon="-2.9707930">
        <ele>839.0</ele>
        <time>2020-07-15T10:25:32Z</time>
      </trkpt>
      <trkpt lat="37.9281430" lon="-2.9708600">
        <ele>839.4</ele>
        <time>2020-07-15T10:25:33Z</time>
      </trkpt>
      <trkpt lat="37.9281030" lon="-2.9709310">
        <ele>839.8</ele>
        <time>2020-07-15T10:25:34Z</time>
      </trkpt>
      <trkpt lat="37.9280170" lon="-2.9710450">
        <ele>840.2</ele>
        <time>2020-07-15T10:25:36Z</time>
      </trkpt>
      <trkpt lat="37.9279750" lon="-2.9710990">
        <ele>840.4</ele>
        <time>2020-07-15T10:25:37Z</time>
      </trkpt>
      <trkpt lat="37.9278990" lon="-2.9712110">
        <ele>841.0</ele>
        <time>2020-07-15T10:25:39Z</time>
      </trkpt>
      <trkpt lat="37.9278340" lon="-2.9713300">
        <ele>841.6</ele>
        <time>2020-07-15T10:25:41Z</time>
      </trkpt>
      <trkpt lat="37.9277760" lon="-2.9714430">
        <ele>842.0</ele>
        <time>2020-07-15T10:25:43Z</time>
      </trkpt>
      <trkpt lat="37.9277440" lon="-2.9715030">
        <ele>842.2</ele>
        <time>2020-07-15T10:25:44Z</time>
      </trkpt>
      <trkpt lat="37.9276530" lon="-2.9717060">
        <ele>843.2</ele>
        <time>2020-07-15T10:25:48Z</time>
      </trkpt>
      <trkpt lat="37.9275520" lon="-2.9719270">
        <ele>844.6</ele>
        <time>2020-07-15T10:25:53Z</time>
      </trkpt>
      <trkpt lat="37.9275300" lon="-2.9719750">
        <ele>844.8</ele>
        <time>2020-07-15T10:25:54Z</time>
      </trkpt>
      <trkpt lat="37.9274820" lon="-2.9721120">
        <ele>845.4</ele>
        <time>2020-07-15T10:25:57Z</time>
      </trkpt>
      <trkpt lat="37.9274700" lon="-2.9721570">
        <ele>845.6</ele>
        <time>2020-07-15T10:25:58Z</time>
      </trkpt>
      <trkpt lat="37.9274480" lon="-2.9722510">
        <ele>846.0</ele>
        <time>2020-07-15T10:26:00Z</time>
      </trkpt>
      <trkpt lat="37.9274150" lon="-2.9723700">
        <ele>846.6</ele>
        <time>2020-07-15T10:26:03Z</time>
      </trkpt>
      <trkpt lat="37.9273760" lon="-2.9725260">
        <ele>847.4</ele>
        <time>2020-07-15T10:26:07Z</time>
      </trkpt>
      <trkpt lat="37.9273510" lon="-2.9726430">
        <ele>847.8</ele>
        <time>2020-07-15T10:26:10Z</time>
      </trkpt>
      <trkpt lat="37.9273070" lon="-2.9728570">
        <ele>848.8</ele>
        <time>2020-07-15T10:26:16Z</time>
      </trkpt>
      <trkpt lat="37.9273000" lon="-2.9728870">
        <ele>849.0</ele>
        <time>2020-07-15T10:26:17Z</time>
      </trkpt>
      <trkpt lat="37.9272510" lon="-2.9731030">
        <ele>850.2</ele>
        <time>2020-07-15T10:26:24Z</time>
      </trkpt>
      <trkpt lat="37.9272150" lon="-2.9732490">
        <ele>851.2</ele>
        <time>2020-07-15T10:26:29Z</time>
      </trkpt>
      <trkpt lat="37.9271850" lon="-2.9733620">
        <ele>852.0</ele>
        <time>2020-07-15T10:26:33Z</time>
      </trkpt>
      <trkpt lat="37.9271660" lon="-2.9734180">
        <ele>852.4</ele>
        <time>2020-07-15T10:26:35Z</time>
      </trkpt>
      <trkpt lat="37.9271020" lon="-2.9735890">
        <ele>853.4</ele>
        <time>2020-07-15T10:26:41Z</time>
      </trkpt>
      <trkpt lat="37.9270890" lon="-2.9736180">
        <ele>853.6</ele>
        <time>2020-07-15T10:26:42Z</time>
      </trkpt>
      <trkpt lat="37.9270190" lon="-2.9737840">
        <ele>854.4</ele>
        <time>2020-07-15T10:26:48Z</time>
      </trkpt>
      <trkpt lat="37.9269940" lon="-2.9738420">
        <ele>854.6</ele>
        <time>2020-07-15T10:26:50Z</time>
      </trkpt>
      <trkpt lat="37.9269250" lon="-2.9739950">
        <ele>855.4</ele>
        <time>2020-07-15T10:26:55Z</time>
      </trkpt>
      <trkpt lat="37.9268940" lon="-2.9740560">
        <ele>855.6</ele>
        <time>2020-07-15T10:26:57Z</time>
      </trkpt>
      <trkpt lat="37.9268160" lon="-2.9742930">
        <ele>856.4</ele>
        <time>2020-07-15T10:27:04Z</time>
      </trkpt>
      <trkpt lat="37.9267740" lon="-2.9745260">
        <ele>857.4</ele>
        <time>2020-07-15T10:27:10Z</time>
      </trkpt>
      <trkpt lat="37.9267640" lon="-2.9746060">
        <ele>857.4</ele>
        <time>2020-07-15T10:27:12Z</time>
      </trkpt>
      <trkpt lat="37.9267240" lon="-2.9748810">
        <ele>858.6</ele>
        <time>2020-07-15T10:27:19Z</time>
      </trkpt>
      <trkpt lat="37.9267190" lon="-2.9749190">
        <ele>858.8</ele>
        <time>2020-07-15T10:27:20Z</time>
      </trkpt>
      <trkpt lat="37.9266850" lon="-2.9751110">
        <ele>859.4</ele>
        <time>2020-07-15T10:27:25Z</time>
      </trkpt>
      <trkpt lat="37.9266690" lon="-2.9751880">
        <ele>859.6</ele>
        <time>2020-07-15T10:27:27Z</time>
      </trkpt>
      <trkpt lat="37.9266440" lon="-2.9752930">
        <ele>859.8</ele>
        <time>2020-07-15T10:27:30Z</time>
      </trkpt>
      <trkpt lat="37.9266020" lon="-2.9755450">
        <ele>860.6</ele>
        <time>2020-07-15T10:27:36Z</time>
      </trkpt>
      <trkpt lat="37.9265810" lon="-2.9756780">
        <ele>861.0</ele>
        <time>2020-07-15T10:27:39Z</time>
      </trkpt>
      <trkpt lat="37.9265500" lon="-2.9758670">
        <ele>861.8</ele>
        <time>2020-07-15T10:27:43Z</time>
      </trkpt>
      <trkpt lat="37.9265060" lon="-2.9760680">
        <ele>862.4</ele>
        <time>2020-07-15T10:27:47Z</time>
      </trkpt>
      <trkpt lat="37.9264660" lon="-2.9762200">
        <ele>862.8</ele>
        <time>2020-07-15T10:27:50Z</time>
      </trkpt>
      <trkpt lat="37.9263860" lon="-2.9764430">
        <ele>863.6</ele>
        <time>2020-07-15T10:27:55Z</time>
      </trkpt>
      <trkpt lat="37.9263490" lon="-2.9765270">
        <ele>863.8</ele>
        <time>2020-07-15T10:27:57Z</time>
      </trkpt>
      <trkpt lat="37.9261990" lon="-2.9768040">
        <ele>864.6</ele>
        <time>2020-07-15T10:28:04Z</time>
      </trkpt>
      <trkpt lat="37.9261770" lon="-2.9768410">
        <ele>864.8</ele>
        <time>2020-07-15T10:28:05Z</time>
      </trkpt>
      <trkpt lat="37.9260680" lon="-2.9770550">
        <ele>866.0</ele>
        <time>2020-07-15T10:28:11Z</time>
      </trkpt>
      <trkpt lat="37.9260530" lon="-2.9770900">
        <ele>866.2</ele>
        <time>2020-07-15T10:28:12Z</time>
      </trkpt>
      <trkpt lat="37.9259900" lon="-2.9773200">
        <ele>867.0</ele>
        <time>2020-07-15T10:28:18Z</time>
      </trkpt>
      <trkpt lat="37.9259780" lon="-2.9775350">
        <ele>868.2</ele>
        <time>2020-07-15T10:28:23Z</time>
      </trkpt>
      <trkpt lat="37.9259840" lon="-2.9776240">
        <ele>868.8</ele>
        <time>2020-07-15T10:28:25Z</time>
      </trkpt>
      <trkpt lat="37.9259970" lon="-2.9777400">
        <ele>869.2</ele>
        <time>2020-07-15T10:28:28Z</time>
      </trkpt>
      <trkpt lat="37.9260440" lon="-2.9779260">
        <ele>870.2</ele>
        <time>2020-07-15T10:28:33Z</time>
      </trkpt>
      <trkpt lat="37.9260580" lon="-2.9779640">
        <ele>870.4</ele>
        <time>2020-07-15T10:28:34Z</time>
      </trkpt>
      <trkpt lat="37.9261420" lon="-2.9781760">
        <ele>871.4</ele>
        <time>2020-07-15T10:28:40Z</time>
      </trkpt>
      <trkpt lat="37.9261700" lon="-2.9782550">
        <ele>872.0</ele>
        <time>2020-07-15T10:28:42Z</time>
      </trkpt>
      <trkpt lat="37.9261990" lon="-2.9783830">
        <ele>872.8</ele>
        <time>2020-07-15T10:28:45Z</time>
      </trkpt>
      <trkpt lat="37.9262050" lon="-2.9785530">
        <ele>873.6</ele>
        <time>2020-07-15T10:28:49Z</time>
      </trkpt>
      <trkpt lat="37.9261980" lon="-2.9785960">
        <ele>873.8</ele>
        <time>2020-07-15T10:28:50Z</time>
      </trkpt>
      <trkpt lat="37.9261200" lon="-2.9788400">
        <ele>874.8</ele>
        <time>2020-07-15T10:28:56Z</time>
      </trkpt>
      <trkpt lat="37.9261020" lon="-2.9788780">
        <ele>874.8</ele>
        <time>2020-07-15T10:28:57Z</time>
      </trkpt>
      <trkpt lat="37.9259540" lon="-2.9791700">
        <ele>875.8</ele>
        <time>2020-07-15T10:29:05Z</time>
      </trkpt>
      <trkpt lat="37.9259130" lon="-2.9792440">
        <ele>876.0</ele>
        <time>2020-07-15T10:29:07Z</time>
      </trkpt>
      <trkpt lat="37.9258370" lon="-2.9793880">
        <ele>877.0</ele>
        <time>2020-07-15T10:29:11Z</time>
      </trkpt>
      <trkpt lat="37.9257420" lon="-2.9795620">
        <ele>877.6</ele>
        <time>2020-07-15T10:29:16Z</time>
      </trkpt>
      <trkpt lat="37.9257050" lon="-2.9796260">
        <ele>878.0</ele>
        <time>2020-07-15T10:29:18Z</time>
      </trkpt>
      <trkpt lat="37.9256330" lon="-2.9797650">
        <ele>878.8</ele>
        <time>2020-07-15T10:29:22Z</time>
      </trkpt>
      <trkpt lat="37.9255940" lon="-2.9798370">
        <ele>879.0</ele>
        <time>2020-07-15T10:29:24Z</time>
      </trkpt>
      <trkpt lat="37.9254420" lon="-2.9800870">
        <ele>880.0</ele>
        <time>2020-07-15T10:29:31Z</time>
      </trkpt>
      <trkpt lat="37.9254190" lon="-2.9801210">
        <ele>880.2</ele>
        <time>2020-07-15T10:29:32Z</time>
      </trkpt>
      <trkpt lat="37.9252780" lon="-2.9803910">
        <ele>881.2</ele>
        <time>2020-07-15T10:29:39Z</time>
      </trkpt>
      <trkpt lat="37.9251930" lon="-2.9806910">
        <ele>882.2</ele>
        <time>2020-07-15T10:29:46Z</time>
      </trkpt>
      <trkpt lat="37.9251710" lon="-2.9807780">
        <ele>882.4</ele>
        <time>2020-07-15T10:29:48Z</time>
      </trkpt>
      <trkpt lat="37.9251060" lon="-2.9810470">
        <ele>883.2</ele>
        <time>2020-07-15T10:29:54Z</time>
      </trkpt>
      <trkpt lat="37.9250490" lon="-2.9812110">
        <ele>884.0</ele>
        <time>2020-07-15T10:29:58Z</time>
      </trkpt>
      <trkpt lat="37.9250330" lon="-2.9812490">
        <ele>884.2</ele>
        <time>2020-07-15T10:29:59Z</time>
      </trkpt>
      <trkpt lat="37.9248990" lon="-2.9814440">
        <ele>885.0</ele>
        <time>2020-07-15T10:30:05Z</time>
      </trkpt>
      <trkpt lat="37.9248720" lon="-2.9814690">
        <ele>885.2</ele>
        <time>2020-07-15T10:30:06Z</time>
      </trkpt>
      <trkpt lat="37.9247300" lon="-2.9815420">
        <ele>886.0</ele>
        <time>2020-07-15T10:30:11Z</time>
      </trkpt>
      <trkpt lat="37.9246670" lon="-2.9815580">
        <ele>886.2</ele>
        <time>2020-07-15T10:30:13Z</time>
      </trkpt>
      <trkpt lat="37.9244820" lon="-2.9815940">
        <ele>887.0</ele>
        <time>2020-07-15T10:30:18Z</time>
      </trkpt>
      <trkpt lat="37.9243220" lon="-2.9816190">
        <ele>887.4</ele>
        <time>2020-07-15T10:30:22Z</time>
      </trkpt>
      <trkpt lat="37.9241370" lon="-2.9816740">
        <ele>888.0</ele>
        <time>2020-07-15T10:30:27Z</time>
      </trkpt>
      <trkpt lat="37.9240330" lon="-2.9817280">
        <ele>888.6</ele>
        <time>2020-07-15T10:30:30Z</time>
      </trkpt>
      <trkpt lat="37.9238740" lon="-2.9818370">
        <ele>889.4</ele>
        <time>2020-07-15T10:30:35Z</time>
      </trkpt>
      <trkpt lat="37.9238430" lon="-2.9818600">
        <ele>889.8</ele>
        <time>2020-07-15T10:30:36Z</time>
      </trkpt>
      <trkpt lat="37.9237240" lon="-2.9819520">
        <ele>890.8</ele>
        <time>2020-07-15T10:30:40Z</time>
      </trkpt>
      <trkpt lat="37.9236330" lon="-2.9820250">
        <ele>891.4</ele>
        <time>2020-07-15T10:30:43Z</time>
      </trkpt>
      <trkpt lat="37.9235310" lon="-2.9821050">
        <ele>891.8</ele>
        <time>2020-07-15T10:30:46Z</time>
      </trkpt>
      <trkpt lat="37.9233390" lon="-2.9822350">
        <ele>893.0</ele>
        <time>2020-07-15T10:30:52Z</time>
      </trkpt>
      <trkpt lat="37.9230640" lon="-2.9823660">
        <ele>894.0</ele>
        <time>2020-07-15T10:31:00Z</time>
      </trkpt>
      <trkpt lat="37.9228410" lon="-2.9824520">
        <ele>895.0</ele>
        <time>2020-07-15T10:31:06Z</time>
      </trkpt>
      <trkpt lat="37.9227650" lon="-2.9824840">
        <ele>895.4</ele>
        <time>2020-07-15T10:31:08Z</time>
      </trkpt>
      <trkpt lat="37.9226070" lon="-2.9825580">
        <ele>896.0</ele>
        <time>2020-07-15T10:31:12Z</time>
      </trkpt>
      <trkpt lat="37.9224350" lon="-2.9826810">
        <ele>896.8</ele>
        <time>2020-07-15T10:31:17Z</time>
      </trkpt>
      <trkpt lat="37.9223800" lon="-2.9827540">
        <ele>897.2</ele>
        <time>2020-07-15T10:31:19Z</time>
      </trkpt>
      <trkpt lat="37.9223280" lon="-2.9828840">
        <ele>897.8</ele>
        <time>2020-07-15T10:31:22Z</time>
      </trkpt>
      <trkpt lat="37.9223070" lon="-2.9829780">
        <ele>898.2</ele>
        <time>2020-07-15T10:31:24Z</time>
      </trkpt>
      <trkpt lat="37.9222800" lon="-2.9832290">
        <ele>899.0</ele>
        <time>2020-07-15T10:31:29Z</time>
      </trkpt>
      <trkpt lat="37.9222670" lon="-2.9833960">
        <ele>899.4</ele>
        <time>2020-07-15T10:31:32Z</time>
      </trkpt>
      <trkpt lat="37.9222420" lon="-2.9835930">
        <ele>899.4</ele>
        <time>2020-07-15T10:31:35Z</time>
      </trkpt>
      <trkpt lat="37.9222100" lon="-2.9839140">
        <ele>899.0</ele>
        <time>2020-07-15T10:31:39Z</time>
      </trkpt>
      <trkpt lat="37.9222080" lon="-2.9840040">
        <ele>899.0</ele>
        <time>2020-07-15T10:31:40Z</time>
      </trkpt>
      <trkpt lat="37.9222130" lon="-2.9840920">
        <ele>898.6</ele>
        <time>2020-07-15T10:31:41Z</time>
      </trkpt>
      <trkpt lat="37.9222240" lon="-2.9841890">
        <ele>898.4</ele>
        <time>2020-07-15T10:31:42Z</time>
      </trkpt>
      <trkpt lat="37.9222640" lon="-2.9843710">
        <ele>897.6</ele>
        <time>2020-07-15T10:31:44Z</time>
      </trkpt>
      <trkpt lat="37.9222930" lon="-2.9844670">
        <ele>897.2</ele>
        <time>2020-07-15T10:31:45Z</time>
      </trkpt>
      <trkpt lat="37.9223220" lon="-2.9845610">
        <ele>896.8</ele>
        <time>2020-07-15T10:31:46Z</time>
      </trkpt>
      <trkpt lat="37.9223500" lon="-2.9846540">
        <ele>896.4</ele>
        <time>2020-07-15T10:31:47Z</time>
      </trkpt>
      <trkpt lat="37.9223760" lon="-2.9847500">
        <ele>896.0</ele>
        <time>2020-07-15T10:31:48Z</time>
      </trkpt>
      <trkpt lat="37.9224210" lon="-2.9849570">
        <ele>895.6</ele>
        <time>2020-07-15T10:31:50Z</time>
      </trkpt>
      <trkpt lat="37.9224330" lon="-2.9850610">
        <ele>895.4</ele>
        <time>2020-07-15T10:31:51Z</time>
      </trkpt>
      <trkpt lat="37.9224320" lon="-2.9852600">
        <ele>895.0</ele>
        <time>2020-07-15T10:31:53Z</time>
      </trkpt>
      <trkpt lat="37.9224110" lon="-2.9854760">
        <ele>894.6</ele>
        <time>2020-07-15T10:31:55Z</time>
      </trkpt>
      <trkpt lat="37.9223470" lon="-2.9858590">
        <ele>894.2</ele>
        <time>2020-07-15T10:31:59Z</time>
      </trkpt>
      <trkpt lat="37.9222820" lon="-2.9861390">
        <ele>894.0</ele>
        <time>2020-07-15T10:32:02Z</time>
      </trkpt>
      <trkpt lat="37.9221320" lon="-2.9864480">
        <ele>893.8</ele>
        <time>2020-07-15T10:32:06Z</time>
      </trkpt>
      <trkpt lat="37.9219110" lon="-2.9867400">
        <ele>893.4</ele>
        <time>2020-07-15T10:32:11Z</time>
      </trkpt>
      <trkpt lat="37.9218600" lon="-2.9867920">
        <ele>893.4</ele>
        <time>2020-07-15T10:32:12Z</time>
      </trkpt>
      <trkpt lat="37.9216030" lon="-2.9870080">
        <ele>893.0</ele>
        <time>2020-07-15T10:32:17Z</time>
      </trkpt>
      <trkpt lat="37.9215480" lon="-2.9870400">
        <ele>892.8</ele>
        <time>2020-07-15T10:32:18Z</time>
      </trkpt>
      <trkpt lat="37.9214220" lon="-2.9870920">
        <ele>892.4</ele>
        <time>2020-07-15T10:32:20Z</time>
      </trkpt>
      <trkpt lat="37.9212260" lon="-2.9871330">
        <ele>891.8</ele>
        <time>2020-07-15T10:32:23Z</time>
      </trkpt>
      <trkpt lat="37.9210780" lon="-2.9871670">
        <ele>891.4</ele>
        <time>2020-07-15T10:32:25Z</time>
      </trkpt>
      <trkpt lat="37.9209580" lon="-2.9872430">
        <ele>890.6</ele>
        <time>2020-07-15T10:32:27Z</time>
      </trkpt>
      <trkpt lat="37.9208210" lon="-2.9874560">
        <ele>889.2</ele>
        <time>2020-07-15T10:32:30Z</time>
      </trkpt>
      <trkpt lat="37.9207610" lon="-2.9876340">
        <ele>888.2</ele>
        <time>2020-07-15T10:32:32Z</time>
      </trkpt>
      <trkpt lat="37.9207210" lon="-2.9878280">
        <ele>887.6</ele>
        <time>2020-07-15T10:32:34Z</time>
      </trkpt>
      <trkpt lat="37.9207030" lon="-2.9879250">
        <ele>887.2</ele>
        <time>2020-07-15T10:32:35Z</time>
      </trkpt>
      <trkpt lat="37.9206460" lon="-2.9883060">
        <ele>886.0</ele>
        <time>2020-07-15T10:32:39Z</time>
      </trkpt>
      <trkpt lat="37.9206470" lon="-2.9883990">
        <ele>885.6</ele>
        <time>2020-07-15T10:32:40Z</time>
      </trkpt>
      <trkpt lat="37.9206620" lon="-2.9884920">
        <ele>885.2</ele>
        <time>2020-07-15T10:32:41Z</time>
      </trkpt>
      <trkpt lat="37.9206990" lon="-2.9885770">
        <ele>884.8</ele>
        <time>2020-07-15T10:32:42Z</time>
      </trkpt>
      <trkpt lat="37.9208020" lon="-2.9887000">
        <ele>884.4</ele>
        <time>2020-07-15T10:32:44Z</time>
      </trkpt>
      <trkpt lat="37.9209600" lon="-2.9888300">
        <ele>884.4</ele>
        <time>2020-07-15T10:32:47Z</time>
      </trkpt>
      <trkpt lat="37.9210130" lon="-2.9888660">
        <ele>884.4</ele>
        <time>2020-07-15T10:32:48Z</time>
      </trkpt>
      <trkpt lat="37.9212570" lon="-2.9890430">
        <ele>884.6</ele>
        <time>2020-07-15T10:32:53Z</time>
      </trkpt>
      <trkpt lat="37.9212980" lon="-2.9890900">
        <ele>884.6</ele>
        <time>2020-07-15T10:32:54Z</time>
      </trkpt>
      <trkpt lat="37.9213880" lon="-2.9892440">
        <ele>884.8</ele>
        <time>2020-07-15T10:32:57Z</time>
      </trkpt>
      <trkpt lat="37.9214300" lon="-2.9893630">
        <ele>884.8</ele>
        <time>2020-07-15T10:32:59Z</time>
      </trkpt>
      <trkpt lat="37.9214930" lon="-2.9895410">
        <ele>885.0</ele>
        <time>2020-07-15T10:33:02Z</time>
      </trkpt>
      <trkpt lat="37.9215390" lon="-2.9896510">
        <ele>885.2</ele>
        <time>2020-07-15T10:33:04Z</time>
      </trkpt>
      <trkpt lat="37.9215690" lon="-2.9897020">
        <ele>885.2</ele>
        <time>2020-07-15T10:33:05Z</time>
      </trkpt>
      <trkpt lat="37.9216260" lon="-2.9898050">
        <ele>885.2</ele>
        <time>2020-07-15T10:33:07Z</time>
      </trkpt>
      <trkpt lat="37.9216890" lon="-2.9898950">
        <ele>885.6</ele>
        <time>2020-07-15T10:33:09Z</time>
      </trkpt>
      <trkpt lat="37.9217780" lon="-2.9900470">
        <ele>886.0</ele>
        <time>2020-07-15T10:33:12Z</time>
      </trkpt>
      <trkpt lat="37.9218290" lon="-2.9901640">
        <ele>886.2</ele>
        <time>2020-07-15T10:33:14Z</time>
      </trkpt>
      <trkpt lat="37.9218610" lon="-2.9902960">
        <ele>886.4</ele>
        <time>2020-07-15T10:33:16Z</time>
      </trkpt>
      <trkpt lat="37.9218710" lon="-2.9906120">
        <ele>886.0</ele>
        <time>2020-07-15T10:33:20Z</time>
      </trkpt>
      <trkpt lat="37.9218960" lon="-2.9908900">
        <ele>885.0</ele>
        <time>2020-07-15T10:33:23Z</time>
      </trkpt>
      <trkpt lat="37.9219190" lon="-2.9909890">
        <ele>884.8</ele>
        <time>2020-07-15T10:33:24Z</time>
      </trkpt>
      <trkpt lat="37.9220430" lon="-2.9914340">
        <ele>883.8</ele>
        <time>2020-07-15T10:33:29Z</time>
      </trkpt>
      <trkpt lat="37.9220690" lon="-2.9915380">
        <ele>883.6</ele>
        <time>2020-07-15T10:33:30Z</time>
      </trkpt>
      <trkpt lat="37.9220920" lon="-2.9916110">
        <ele>883.4</ele>
        <time>2020-07-15T10:33:31Z</time>
      </trkpt>
      <trkpt lat="37.9222340" lon="-2.9919050">
        <ele>882.4</ele>
        <time>2020-07-15T10:33:34Z</time>
      </trkpt>
      <trkpt lat="37.9223950" lon="-2.9922830">
        <ele>881.0</ele>
        <time>2020-07-15T10:33:38Z</time>
      </trkpt>
      <trkpt lat="37.9224260" lon="-2.9923930">
        <ele>880.8</ele>
        <time>2020-07-15T10:33:39Z</time>
      </trkpt>
      <trkpt lat="37.9224840" lon="-2.9926080">
        <ele>879.6</ele>
        <time>2020-07-15T10:33:41Z</time>
      </trkpt>
      <trkpt lat="37.9225920" lon="-2.9929550">
        <ele>878.0</ele>
        <time>2020-07-15T10:33:44Z</time>
      </trkpt>
      <trkpt lat="37.9226210" lon="-2.9930760">
        <ele>877.6</ele>
        <time>2020-07-15T10:33:45Z</time>
      </trkpt>
      <trkpt lat="37.9226380" lon="-2.9931930">
        <ele>877.0</ele>
        <time>2020-07-15T10:33:46Z</time>
      </trkpt>
      <trkpt lat="37.9226400" lon="-2.9933100">
        <ele>876.4</ele>
        <time>2020-07-15T10:33:47Z</time>
      </trkpt>
      <trkpt lat="37.9226260" lon="-2.9934220">
        <ele>876.2</ele>
        <time>2020-07-15T10:33:48Z</time>
      </trkpt>
      <trkpt lat="37.9225420" lon="-2.9936510">
        <ele>874.8</ele>
        <time>2020-07-15T10:33:50Z</time>
      </trkpt>
      <trkpt lat="37.9224820" lon="-2.9937430">
        <ele>874.4</ele>
        <time>2020-07-15T10:33:51Z</time>
      </trkpt>
      <trkpt lat="37.9223530" lon="-2.9938910">
        <ele>873.6</ele>
        <time>2020-07-15T10:33:53Z</time>
      </trkpt>
      <trkpt lat="37.9222700" lon="-2.9939720">
        <ele>873.4</ele>
        <time>2020-07-15T10:33:54Z</time>
      </trkpt>
      <trkpt lat="37.9221950" lon="-2.9940420">
        <ele>873.0</ele>
        <time>2020-07-15T10:33:55Z</time>
      </trkpt>
      <trkpt lat="37.9219890" lon="-2.9942490">
        <ele>872.6</ele>
        <time>2020-07-15T10:33:58Z</time>
      </trkpt>
      <trkpt lat="37.9217360" lon="-2.9945700">
        <ele>872.0</ele>
        <time>2020-07-15T10:34:02Z</time>
      </trkpt>
      <trkpt lat="37.9215940" lon="-2.9948270">
        <ele>871.6</ele>
        <time>2020-07-15T10:34:05Z</time>
      </trkpt>
      <trkpt lat="37.9215250" lon="-2.9950200">
        <ele>871.2</ele>
        <time>2020-07-15T10:34:07Z</time>
      </trkpt>
      <trkpt lat="37.9213780" lon="-2.9955500">
        <ele>870.2</ele>
        <time>2020-07-15T10:34:12Z</time>
      </trkpt>
      <trkpt lat="37.9213470" lon="-2.9956540">
        <ele>870.0</ele>
        <time>2020-07-15T10:34:13Z</time>
      </trkpt>
      <trkpt lat="37.9212660" lon="-2.9958920">
        <ele>869.0</ele>
        <time>2020-07-15T10:34:15Z</time>
      </trkpt>
      <trkpt lat="37.9211760" lon="-2.9961280">
        <ele>867.4</ele>
        <time>2020-07-15T10:34:17Z</time>
      </trkpt>
      <trkpt lat="37.9211260" lon="-2.9962430">
        <ele>866.6</ele>
        <time>2020-07-15T10:34:18Z</time>
      </trkpt>
      <trkpt lat="37.9210670" lon="-2.9963560">
        <ele>865.8</ele>
        <time>2020-07-15T10:34:19Z</time>
      </trkpt>
      <trkpt lat="37.9209460" lon="-2.9965470">
        <ele>864.2</ele>
        <time>2020-07-15T10:34:21Z</time>
      </trkpt>
      <trkpt lat="37.9208820" lon="-2.9966440">
        <ele>863.4</ele>
        <time>2020-07-15T10:34:22Z</time>
      </trkpt>
      <trkpt lat="37.9208200" lon="-2.9967390">
        <ele>863.0</ele>
        <time>2020-07-15T10:34:23Z</time>
      </trkpt>
      <trkpt lat="37.9207860" lon="-2.9968370">
        <ele>862.4</ele>
        <time>2020-07-15T10:34:24Z</time>
      </trkpt>
      <trkpt lat="37.9207480" lon="-2.9969680">
        <ele>861.6</ele>
        <time>2020-07-15T10:34:25Z</time>
      </trkpt>
      <trkpt lat="37.9207330" lon="-2.9970870">
        <ele>860.8</ele>
        <time>2020-07-15T10:34:26Z</time>
      </trkpt>
      <trkpt lat="37.9207360" lon="-2.9972080">
        <ele>859.8</ele>
        <time>2020-07-15T10:34:27Z</time>
      </trkpt>
      <trkpt lat="37.9207560" lon="-2.9973170">
        <ele>858.6</ele>
        <time>2020-07-15T10:34:28Z</time>
      </trkpt>
      <trkpt lat="37.9207800" lon="-2.9974320">
        <ele>858.2</ele>
        <time>2020-07-15T10:34:29Z</time>
      </trkpt>
      <trkpt lat="37.9208460" lon="-2.9975200">
        <ele>857.4</ele>
        <time>2020-07-15T10:34:30Z</time>
      </trkpt>
      <trkpt lat="37.9209230" lon="-2.9976340">
        <ele>856.2</ele>
        <time>2020-07-15T10:34:31Z</time>
      </trkpt>
      <trkpt lat="37.9209880" lon="-2.9977360">
        <ele>854.8</ele>
        <time>2020-07-15T10:34:32Z</time>
      </trkpt>
      <trkpt lat="37.9210720" lon="-2.9979410">
        <ele>853.2</ele>
        <time>2020-07-15T10:34:34Z</time>
      </trkpt>
      <trkpt lat="37.9210930" lon="-2.9980650">
        <ele>852.0</ele>
        <time>2020-07-15T10:34:35Z</time>
      </trkpt>
      <trkpt lat="37.9211000" lon="-2.9982020">
        <ele>851.0</ele>
        <time>2020-07-15T10:34:36Z</time>
      </trkpt>
      <trkpt lat="37.9210970" lon="-2.9983300">
        <ele>850.0</ele>
        <time>2020-07-15T10:34:37Z</time>
      </trkpt>
      <trkpt lat="37.9210870" lon="-2.9984440">
        <ele>848.6</ele>
        <time>2020-07-15T10:34:38Z</time>
      </trkpt>
      <trkpt lat="37.9210360" lon="-2.9987140">
        <ele>847.0</ele>
        <time>2020-07-15T10:34:40Z</time>
      </trkpt>
      <trkpt lat="37.9209470" lon="-2.9989680">
        <ele>845.6</ele>
        <time>2020-07-15T10:34:42Z</time>
      </trkpt>
      <trkpt lat="37.9208190" lon="-2.9992070">
        <ele>844.2</ele>
        <time>2020-07-15T10:34:44Z</time>
      </trkpt>
      <trkpt lat="37.9207450" lon="-2.9993230">
        <ele>843.4</ele>
        <time>2020-07-15T10:34:45Z</time>
      </trkpt>
      <trkpt lat="37.9206670" lon="-2.9994340">
        <ele>842.6</ele>
        <time>2020-07-15T10:34:46Z</time>
      </trkpt>
      <trkpt lat="37.9205850" lon="-2.9995400">
        <ele>841.8</ele>
        <time>2020-07-15T10:34:47Z</time>
      </trkpt>
      <trkpt lat="37.9205090" lon="-2.9996330">
        <ele>841.2</ele>
        <time>2020-07-15T10:34:48Z</time>
      </trkpt>
      <trkpt lat="37.9203140" lon="-2.9998650">
        <ele>839.8</ele>
        <time>2020-07-15T10:34:50Z</time>
      </trkpt>
      <trkpt lat="37.9202270" lon="-2.9999680">
        <ele>839.0</ele>
        <time>2020-07-15T10:34:51Z</time>
      </trkpt>
      <trkpt lat="37.9201490" lon="-3.0000620">
        <ele>838.2</ele>
        <time>2020-07-15T10:34:52Z</time>
      </trkpt>
      <trkpt lat="37.9200240" lon="-3.0002160">
        <ele>836.8</ele>
        <time>2020-07-15T10:34:54Z</time>
      </trkpt>
      <trkpt lat="37.9199200" lon="-3.0003290">
        <ele>835.2</ele>
        <time>2020-07-15T10:34:56Z</time>
      </trkpt>
      <trkpt lat="37.9198740" lon="-3.0003690">
        <ele>834.6</ele>
        <time>2020-07-15T10:34:57Z</time>
      </trkpt>
      <trkpt lat="37.9198280" lon="-3.0004070">
        <ele>834.0</ele>
        <time>2020-07-15T10:34:58Z</time>
      </trkpt>
      <trkpt lat="37.9197780" lon="-3.0004520">
        <ele>832.2</ele>
        <time>2020-07-15T10:35:00Z</time>
      </trkpt>
      <trkpt lat="37.9197670" lon="-3.0004580">
        <ele>831.4</ele>
        <time>2020-07-15T10:35:01Z</time>
      </trkpt>
      <trkpt lat="37.9197700" lon="-3.0004570">
        <ele>830.8</ele>
        <time>2020-07-15T10:35:02Z</time>
      </trkpt>
      <trkpt lat="37.9197700" lon="-3.0004570">
        <ele>830.6</ele>
        <time>2020-07-15T10:35:03Z</time>
      </trkpt>
      <trkpt lat="37.9197640" lon="-3.0004280">
        <ele>829.0</ele>
        <time>2020-07-15T10:37:01Z</time>
      </trkpt>
      <trkpt lat="37.9197470" lon="-3.0004390">
        <ele>828.8</ele>
        <time>2020-07-15T10:37:02Z</time>
      </trkpt>
      <trkpt lat="37.9196480" lon="-3.0005110">
        <ele>828.8</ele>
        <time>2020-07-15T10:37:05Z</time>
      </trkpt>
      <trkpt lat="37.9196090" lon="-3.0005440">
        <ele>828.6</ele>
        <time>2020-07-15T10:37:06Z</time>
      </trkpt>
      <trkpt lat="37.9194230" lon="-3.0007490">
        <ele>827.6</ele>
        <time>2020-07-15T10:37:10Z</time>
      </trkpt>
      <trkpt lat="37.9192620" lon="-3.0009480">
        <ele>826.4</ele>
        <time>2020-07-15T10:37:13Z</time>
      </trkpt>
      <trkpt lat="37.9191390" lon="-3.0011180">
        <ele>825.6</ele>
        <time>2020-07-15T10:37:15Z</time>
      </trkpt>
      <trkpt lat="37.9190820" lon="-3.0012060">
        <ele>825.0</ele>
        <time>2020-07-15T10:37:16Z</time>
      </trkpt>
      <trkpt lat="37.9189030" lon="-3.0014880">
        <ele>823.6</ele>
        <time>2020-07-15T10:37:19Z</time>
      </trkpt>
      <trkpt lat="37.9188390" lon="-3.0015900">
        <ele>823.0</ele>
        <time>2020-07-15T10:37:20Z</time>
      </trkpt>
      <trkpt lat="37.9187740" lon="-3.0016860">
        <ele>822.4</ele>
        <time>2020-07-15T10:37:21Z</time>
      </trkpt>
      <trkpt lat="37.9186590" lon="-3.0018250">
        <ele>821.4</ele>
        <time>2020-07-15T10:37:23Z</time>
      </trkpt>
      <trkpt lat="37.9185990" lon="-3.0018790">
        <ele>820.8</ele>
        <time>2020-07-15T10:37:24Z</time>
      </trkpt>
      <trkpt lat="37.9185220" lon="-3.0019320">
        <ele>820.2</ele>
        <time>2020-07-15T10:37:25Z</time>
      </trkpt>
      <trkpt lat="37.9183590" lon="-3.0019960">
        <ele>819.2</ele>
        <time>2020-07-15T10:37:27Z</time>
      </trkpt>
      <trkpt lat="37.9182830" lon="-3.0020240">
        <ele>818.8</ele>
        <time>2020-07-15T10:37:28Z</time>
      </trkpt>
      <trkpt lat="37.9180940" lon="-3.0020930">
        <ele>818.0</ele>
        <time>2020-07-15T10:37:30Z</time>
      </trkpt>
      <trkpt lat="37.9179300" lon="-3.0021480">
        <ele>817.0</ele>
        <time>2020-07-15T10:37:32Z</time>
      </trkpt>
      <trkpt lat="37.9178570" lon="-3.0021770">
        <ele>816.6</ele>
        <time>2020-07-15T10:37:33Z</time>
      </trkpt>
      <trkpt lat="37.9177850" lon="-3.0022070">
        <ele>815.8</ele>
        <time>2020-07-15T10:37:34Z</time>
      </trkpt>
      <trkpt lat="37.9177210" lon="-3.0022550">
        <ele>815.2</ele>
        <time>2020-07-15T10:37:35Z</time>
      </trkpt>
      <trkpt lat="37.9176700" lon="-3.0023120">
        <ele>814.4</ele>
        <time>2020-07-15T10:37:36Z</time>
      </trkpt>
      <trkpt lat="37.9176160" lon="-3.0023780">
        <ele>813.8</ele>
        <time>2020-07-15T10:37:37Z</time>
      </trkpt>
      <trkpt lat="37.9175610" lon="-3.0024400">
        <ele>813.0</ele>
        <time>2020-07-15T10:37:38Z</time>
      </trkpt>
      <trkpt lat="37.9174100" lon="-3.0026400">
        <ele>811.6</ele>
        <time>2020-07-15T10:37:41Z</time>
      </trkpt>
      <trkpt lat="37.9172950" lon="-3.0027690">
        <ele>810.8</ele>
        <time>2020-07-15T10:37:43Z</time>
      </trkpt>
      <trkpt lat="37.9172240" lon="-3.0028430">
        <ele>810.2</ele>
        <time>2020-07-15T10:37:44Z</time>
      </trkpt>
      <trkpt lat="37.9171020" lon="-3.0029580">
        <ele>809.0</ele>
        <time>2020-07-15T10:37:46Z</time>
      </trkpt>
      <trkpt lat="37.9170220" lon="-3.0030050">
        <ele>808.6</ele>
        <time>2020-07-15T10:37:47Z</time>
      </trkpt>
      <trkpt lat="37.9169150" lon="-3.0030420">
        <ele>808.2</ele>
        <time>2020-07-15T10:37:48Z</time>
      </trkpt>
      <trkpt lat="37.9168220" lon="-3.0030500">
        <ele>807.8</ele>
        <time>2020-07-15T10:37:49Z</time>
      </trkpt>
      <trkpt lat="37.9166660" lon="-3.0030170">
        <ele>807.0</ele>
        <time>2020-07-15T10:37:51Z</time>
      </trkpt>
      <trkpt lat="37.9165890" lon="-3.0030210">
        <ele>806.2</ele>
        <time>2020-07-15T10:37:52Z</time>
      </trkpt>
      <trkpt lat="37.9164300" lon="-3.0030820">
        <ele>805.2</ele>
        <time>2020-07-15T10:37:54Z</time>
      </trkpt>
      <trkpt lat="37.9163230" lon="-3.0032250">
        <ele>803.8</ele>
        <time>2020-07-15T10:37:56Z</time>
      </trkpt>
      <trkpt lat="37.9162800" lon="-3.0032850">
        <ele>803.2</ele>
        <time>2020-07-15T10:37:57Z</time>
      </trkpt>
      <trkpt lat="37.9161740" lon="-3.0034180">
        <ele>802.2</ele>
        <time>2020-07-15T10:37:59Z</time>
      </trkpt>
      <trkpt lat="37.9160440" lon="-3.0035570">
        <ele>801.4</ele>
        <time>2020-07-15T10:38:01Z</time>
      </trkpt>
      <trkpt lat="37.9159660" lon="-3.0036010">
        <ele>801.0</ele>
        <time>2020-07-15T10:38:02Z</time>
      </trkpt>
      <trkpt lat="37.9157230" lon="-3.0036720">
        <ele>800.0</ele>
        <time>2020-07-15T10:38:05Z</time>
      </trkpt>
      <trkpt lat="37.9153770" lon="-3.0037690">
        <ele>799.0</ele>
        <time>2020-07-15T10:38:09Z</time>
      </trkpt>
      <trkpt lat="37.9151270" lon="-3.0037840">
        <ele>798.8</ele>
        <time>2020-07-15T10:38:12Z</time>
      </trkpt>
      <trkpt lat="37.9148720" lon="-3.0036720">
        <ele>798.4</ele>
        <time>2020-07-15T10:38:15Z</time>
      </trkpt>
      <trkpt lat="37.9147290" lon="-3.0035670">
        <ele>797.8</ele>
        <time>2020-07-15T10:38:17Z</time>
      </trkpt>
      <trkpt lat="37.9144870" lon="-3.0034390">
        <ele>796.8</ele>
        <time>2020-07-15T10:38:20Z</time>
      </trkpt>
      <trkpt lat="37.9144010" lon="-3.0034010">
        <ele>796.6</ele>
        <time>2020-07-15T10:38:21Z</time>
      </trkpt>
      <trkpt lat="37.9140700" lon="-3.0032330">
        <ele>795.4</ele>
        <time>2020-07-15T10:38:25Z</time>
      </trkpt>
      <trkpt lat="37.9139020" lon="-3.0031580">
        <ele>794.8</ele>
        <time>2020-07-15T10:38:27Z</time>
      </trkpt>
      <trkpt lat="37.9137660" lon="-3.0030980">
        <ele>794.4</ele>
        <time>2020-07-15T10:38:29Z</time>
      </trkpt>
      <trkpt lat="37.9136350" lon="-3.0030440">
        <ele>793.8</ele>
        <time>2020-07-15T10:38:31Z</time>
      </trkpt>
      <trkpt lat="37.9135380" lon="-3.0030010">
        <ele>793.2</ele>
        <time>2020-07-15T10:38:33Z</time>
      </trkpt>
      <trkpt lat="37.9134530" lon="-3.0029650">
        <ele>793.0</ele>
        <time>2020-07-15T10:38:35Z</time>
      </trkpt>
      <trkpt lat="37.9134530" lon="-3.0029650">
        <ele>792.8</ele>
        <time>2020-07-15T10:38:36Z</time>
      </trkpt>
      <trkpt lat="37.9134020" lon="-3.0029350">
        <ele>792.2</ele>
        <time>2020-07-15T10:38:38Z</time>
      </trkpt>
      <trkpt lat="37.9133950" lon="-3.0029280">
        <ele>792.0</ele>
        <time>2020-07-15T10:38:39Z</time>
      </trkpt>
      <trkpt lat="37.9133980" lon="-3.0029240">
        <ele>791.6</ele>
        <time>2020-07-15T10:38:42Z</time>
      </trkpt>
      <trkpt lat="37.9134240" lon="-3.0028890">
        <ele>791.2</ele>
        <time>2020-07-15T10:39:05Z</time>
      </trkpt>
      <trkpt lat="37.9134100" lon="-3.0028820">
        <ele>791.2</ele>
        <time>2020-07-15T10:39:06Z</time>
      </trkpt>
      <trkpt lat="37.9134070" lon="-3.0028800">
        <ele>791.0</ele>
        <time>2020-07-15T10:39:08Z</time>
      </trkpt>
      <trkpt lat="37.9133490" lon="-3.0028410">
        <ele>790.6</ele>
        <time>2020-07-15T10:39:17Z</time>
      </trkpt>
      <trkpt lat="37.9133270" lon="-3.0028320">
        <ele>790.6</ele>
        <time>2020-07-15T10:39:18Z</time>
      </trkpt>
      <trkpt lat="37.9132250" lon="-3.0027630">
        <ele>790.6</ele>
        <time>2020-07-15T10:39:22Z</time>
      </trkpt>
      <trkpt lat="37.9131930" lon="-3.0027600">
        <ele>790.6</ele>
        <time>2020-07-15T10:39:23Z</time>
      </trkpt>
      <trkpt lat="37.9131610" lon="-3.0027700">
        <ele>790.6</ele>
        <time>2020-07-15T10:39:24Z</time>
      </trkpt>
      <trkpt lat="37.9131180" lon="-3.0028330">
        <ele>790.8</ele>
        <time>2020-07-15T10:39:26Z</time>
      </trkpt>
      <trkpt lat="37.9130750" lon="-3.0029180">
        <ele>790.4</ele>
        <time>2020-07-15T10:39:28Z</time>
      </trkpt>
      <trkpt lat="37.9130560" lon="-3.0029660">
        <ele>790.0</ele>
        <time>2020-07-15T10:39:29Z</time>
      </trkpt>
      <trkpt lat="37.9130160" lon="-3.0030630">
        <ele>789.0</ele>
        <time>2020-07-15T10:39:31Z</time>
      </trkpt>
      <trkpt lat="37.9130000" lon="-3.0031060">
        <ele>788.4</ele>
        <time>2020-07-15T10:39:32Z</time>
      </trkpt>
      <trkpt lat="37.9129850" lon="-3.0031480">
        <ele>787.6</ele>
        <time>2020-07-15T10:39:33Z</time>
      </trkpt>
      <trkpt lat="37.9129520" lon="-3.0032470">
        <ele>786.4</ele>
        <time>2020-07-15T10:39:35Z</time>
      </trkpt>
      <trkpt lat="37.9128770" lon="-3.0033420">
        <ele>785.0</ele>
        <time>2020-07-15T10:39:37Z</time>
      </trkpt>
      <trkpt lat="37.9128030" lon="-3.0034370">
        <ele>784.2</ele>
        <time>2020-07-15T10:39:39Z</time>
      </trkpt>
      <trkpt lat="37.9127770" lon="-3.0034840">
        <ele>783.6</ele>
        <time>2020-07-15T10:39:40Z</time>
      </trkpt>
      <trkpt lat="37.9127190" lon="-3.0035730">
        <ele>782.8</ele>
        <time>2020-07-15T10:39:42Z</time>
      </trkpt>
      <trkpt lat="37.9126940" lon="-3.0036160">
        <ele>782.4</ele>
        <time>2020-07-15T10:39:43Z</time>
      </trkpt>
      <trkpt lat="37.9125900" lon="-3.0037610">
        <ele>780.4</ele>
        <time>2020-07-15T10:39:46Z</time>
      </trkpt>
      <trkpt lat="37.9125190" lon="-3.0038690">
        <ele>778.2</ele>
        <time>2020-07-15T10:39:48Z</time>
      </trkpt>
      <trkpt lat="37.9124870" lon="-3.0039240">
        <ele>776.8</ele>
        <time>2020-07-15T10:39:49Z</time>
      </trkpt>
      <trkpt lat="37.9124560" lon="-3.0039760">
        <ele>775.6</ele>
        <time>2020-07-15T10:39:50Z</time>
      </trkpt>
      <trkpt lat="37.9124270" lon="-3.0040240">
        <ele>774.4</ele>
        <time>2020-07-15T10:39:51Z</time>
      </trkpt>
      <trkpt lat="37.9124000" lon="-3.0040730">
        <ele>773.2</ele>
        <time>2020-07-15T10:39:52Z</time>
      </trkpt>
      <trkpt lat="37.9123770" lon="-3.0041150">
        <ele>772.2</ele>
        <time>2020-07-15T10:39:53Z</time>
      </trkpt>
      <trkpt lat="37.9123550" lon="-3.0041580">
        <ele>771.2</ele>
        <time>2020-07-15T10:39:54Z</time>
      </trkpt>
      <trkpt lat="37.9123400" lon="-3.0041840">
        <ele>770.2</ele>
        <time>2020-07-15T10:39:55Z</time>
      </trkpt>
      <trkpt lat="37.9122900" lon="-3.0042630">
        <ele>768.4</ele>
        <time>2020-07-15T10:39:57Z</time>
      </trkpt>
      <trkpt lat="37.9122580" lon="-3.0043070">
        <ele>768.0</ele>
        <time>2020-07-15T10:39:58Z</time>
      </trkpt>
      <trkpt lat="37.9122220" lon="-3.0043540">
        <ele>767.2</ele>
        <time>2020-07-15T10:39:59Z</time>
      </trkpt>
      <trkpt lat="37.9121850" lon="-3.0044130">
        <ele>766.4</ele>
        <time>2020-07-15T10:40:00Z</time>
      </trkpt>
      <trkpt lat="37.9121530" lon="-3.0044620">
        <ele>766.0</ele>
        <time>2020-07-15T10:40:01Z</time>
      </trkpt>
      <trkpt lat="37.9121020" lon="-3.0045320">
        <ele>764.8</ele>
        <time>2020-07-15T10:40:03Z</time>
      </trkpt>
      <trkpt lat="37.9120670" lon="-3.0045760">
        <ele>763.2</ele>
        <time>2020-07-15T10:40:05Z</time>
      </trkpt>
      <trkpt lat="37.9120400" lon="-3.0045900">
        <ele>762.4</ele>
        <time>2020-07-15T10:40:06Z</time>
      </trkpt>
      <trkpt lat="37.9120130" lon="-3.0045850">
        <ele>761.8</ele>
        <time>2020-07-15T10:40:07Z</time>
      </trkpt>
      <trkpt lat="37.9119670" lon="-3.0045530">
        <ele>760.2</ele>
        <time>2020-07-15T10:40:09Z</time>
      </trkpt>
      <trkpt lat="37.9119340" lon="-3.0045110">
        <ele>759.4</ele>
        <time>2020-07-15T10:40:11Z</time>
      </trkpt>
      <trkpt lat="37.9119000" lon="-3.0044740">
        <ele>759.6</ele>
        <time>2020-07-15T10:40:13Z</time>
      </trkpt>
      <trkpt lat="37.9118810" lon="-3.0044550">
        <ele>760.0</ele>
        <time>2020-07-15T10:40:16Z</time>
      </trkpt>
      <trkpt lat="37.9118640" lon="-3.0045270">
        <ele>760.6</ele>
        <time>2020-07-15T10:40:45Z</time>
      </trkpt>
      <trkpt lat="37.9118810" lon="-3.0045850">
        <ele>760.6</ele>
        <time>2020-07-15T10:40:47Z</time>
      </trkpt>
      <trkpt lat="37.9118450" lon="-3.0047160">
        <ele>760.4</ele>
        <time>2020-07-15T10:40:50Z</time>
      </trkpt>
      <trkpt lat="37.9117950" lon="-3.0048120">
        <ele>760.0</ele>
        <time>2020-07-15T10:40:52Z</time>
      </trkpt>
      <trkpt lat="37.9117140" lon="-3.0049650">
        <ele>759.4</ele>
        <time>2020-07-15T10:40:55Z</time>
      </trkpt>
      <trkpt lat="37.9116860" lon="-3.0050180">
        <ele>759.0</ele>
        <time>2020-07-15T10:40:56Z</time>
      </trkpt>
      <trkpt lat="37.9116150" lon="-3.0051130">
        <ele>758.0</ele>
        <time>2020-07-15T10:40:58Z</time>
      </trkpt>
      <trkpt lat="37.9115750" lon="-3.0051480">
        <ele>757.6</ele>
        <time>2020-07-15T10:40:59Z</time>
      </trkpt>
      <trkpt lat="37.9114200" lon="-3.0052370">
        <ele>756.2</ele>
        <time>2020-07-15T10:41:02Z</time>
      </trkpt>
      <trkpt lat="37.9113660" lon="-3.0052650">
        <ele>755.8</ele>
        <time>2020-07-15T10:41:03Z</time>
      </trkpt>
      <trkpt lat="37.9112950" lon="-3.0053040">
        <ele>755.2</ele>
        <time>2020-07-15T10:41:04Z</time>
      </trkpt>
      <trkpt lat="37.9111460" lon="-3.0053870">
        <ele>753.6</ele>
        <time>2020-07-15T10:41:06Z</time>
      </trkpt>
      <trkpt lat="37.9110710" lon="-3.0054270">
        <ele>752.8</ele>
        <time>2020-07-15T10:41:07Z</time>
      </trkpt>
      <trkpt lat="37.9110000" lon="-3.0054700">
        <ele>751.6</ele>
        <time>2020-07-15T10:41:08Z</time>
      </trkpt>
      <trkpt lat="37.9108450" lon="-3.0055600">
        <ele>750.0</ele>
        <time>2020-07-15T10:41:10Z</time>
      </trkpt>
      <trkpt lat="37.9106660" lon="-3.0056610">
        <ele>748.8</ele>
        <time>2020-07-15T10:41:13Z</time>
      </trkpt>
      <trkpt lat="37.9104990" lon="-3.0057490">
        <ele>749.4</ele>
        <time>2020-07-15T10:41:17Z</time>
      </trkpt>
      <trkpt lat="37.9104350" lon="-3.0057710">
        <ele>750.0</ele>
        <time>2020-07-15T10:41:19Z</time>
      </trkpt>
      <trkpt lat="37.9103650" lon="-3.0058100">
        <ele>750.8</ele>
        <time>2020-07-15T10:41:22Z</time>
      </trkpt>
      <trkpt lat="37.9103450" lon="-3.0058210">
        <ele>751.0</ele>
        <time>2020-07-15T10:41:23Z</time>
      </trkpt>
      <trkpt lat="37.9102800" lon="-3.0058640">
        <ele>751.8</ele>
        <time>2020-07-15T10:41:26Z</time>
      </trkpt>
      <trkpt lat="37.9102630" lon="-3.0058780">
        <ele>752.2</ele>
        <time>2020-07-15T10:41:27Z</time>
      </trkpt>
      <trkpt lat="37.9102270" lon="-3.0059010">
        <ele>752.8</ele>
        <time>2020-07-15T10:41:29Z</time>
      </trkpt>
      <trkpt lat="37.9102080" lon="-3.0059070">
        <ele>753.2</ele>
        <time>2020-07-15T10:41:30Z</time>
      </trkpt>
      <trkpt lat="37.9101680" lon="-3.0059130">
        <ele>753.8</ele>
        <time>2020-07-15T10:41:32Z</time>
      </trkpt>
      <trkpt lat="37.9101300" lon="-3.0059260">
        <ele>754.4</ele>
        <time>2020-07-15T10:41:34Z</time>
      </trkpt>
      <trkpt lat="37.9101090" lon="-3.0059370">
        <ele>754.6</ele>
        <time>2020-07-15T10:41:35Z</time>
      </trkpt>
      <trkpt lat="37.9100440" lon="-3.0059640">
        <ele>755.4</ele>
        <time>2020-07-15T10:41:38Z</time>
      </trkpt>
      <trkpt lat="37.9100280" lon="-3.0059710">
        <ele>755.4</ele>
        <time>2020-07-15T10:41:39Z</time>
      </trkpt>
      <trkpt lat="37.9100280" lon="-3.0059710">
        <ele>755.6</ele>
        <time>2020-07-15T10:41:41Z</time>
      </trkpt>
      <trkpt lat="37.9099470" lon="-3.0060020">
        <ele>755.8</ele>
        <time>2020-07-15T10:41:43Z</time>
      </trkpt>
      <trkpt lat="37.9099060" lon="-3.0060220">
        <ele>756.2</ele>
        <time>2020-07-15T10:41:45Z</time>
      </trkpt>
      <trkpt lat="37.9098860" lon="-3.0060250">
        <ele>756.6</ele>
        <time>2020-07-15T10:41:46Z</time>
      </trkpt>
      <trkpt lat="37.9098270" lon="-3.0060220">
        <ele>757.6</ele>
        <time>2020-07-15T10:41:49Z</time>
      </trkpt>
      <trkpt lat="37.9097700" lon="-3.0060180">
        <ele>758.8</ele>
        <time>2020-07-15T10:41:52Z</time>
      </trkpt>
      <trkpt lat="37.9096910" lon="-3.0060000">
        <ele>760.0</ele>
        <time>2020-07-15T10:41:56Z</time>
      </trkpt>
      <trkpt lat="37.9096350" lon="-3.0059840">
        <ele>760.6</ele>
        <time>2020-07-15T10:41:59Z</time>
      </trkpt>
      <trkpt lat="37.9095970" lon="-3.0059730">
        <ele>761.0</ele>
        <time>2020-07-15T10:42:01Z</time>
      </trkpt>
      <trkpt lat="37.9095080" lon="-3.0059280">
        <ele>762.0</ele>
        <time>2020-07-15T10:42:06Z</time>
      </trkpt>
      <trkpt lat="37.9094750" lon="-3.0059080">
        <ele>762.4</ele>
        <time>2020-07-15T10:42:08Z</time>
      </trkpt>
      <trkpt lat="37.9094260" lon="-3.0058800">
        <ele>763.2</ele>
        <time>2020-07-15T10:42:11Z</time>
      </trkpt>
      <trkpt lat="37.9093730" lon="-3.0058220">
        <ele>764.2</ele>
        <time>2020-07-15T10:42:15Z</time>
      </trkpt>
      <trkpt lat="37.9093630" lon="-3.0058050">
        <ele>764.6</ele>
        <time>2020-07-15T10:42:16Z</time>
      </trkpt>
      <trkpt lat="37.9092980" lon="-3.0057340">
        <ele>765.4</ele>
        <time>2020-07-15T10:42:21Z</time>
      </trkpt>
      <trkpt lat="37.9092750" lon="-3.0057050">
        <ele>765.8</ele>
        <time>2020-07-15T10:42:23Z</time>
      </trkpt>
      <trkpt lat="37.9092200" lon="-3.0056420">
        <ele>766.6</ele>
        <time>2020-07-15T10:42:27Z</time>
      </trkpt>
      <trkpt lat="37.9091690" lon="-3.0056420">
        <ele>767.0</ele>
        <time>2020-07-15T10:42:30Z</time>
      </trkpt>
      <trkpt lat="37.9091210" lon="-3.0056440">
        <ele>767.8</ele>
        <time>2020-07-15T10:42:33Z</time>
      </trkpt>
      <trkpt lat="37.9090630" lon="-3.0056140">
        <ele>768.4</ele>
        <time>2020-07-15T10:42:37Z</time>
      </trkpt>
      <trkpt lat="37.9090470" lon="-3.0055750">
        <ele>769.0</ele>
        <time>2020-07-15T10:42:39Z</time>
      </trkpt>
      <trkpt lat="37.9090430" lon="-3.0055030">
        <ele>769.8</ele>
        <time>2020-07-15T10:42:42Z</time>
      </trkpt>
      <trkpt lat="37.9090310" lon="-3.0054780">
        <ele>770.0</ele>
        <time>2020-07-15T10:42:43Z</time>
      </trkpt>
      <trkpt lat="37.9089670" lon="-3.0054260">
        <ele>770.8</ele>
        <time>2020-07-15T10:42:46Z</time>
      </trkpt>
      <trkpt lat="37.9089440" lon="-3.0054160">
        <ele>771.2</ele>
        <time>2020-07-15T10:42:47Z</time>
      </trkpt>
      <trkpt lat="37.9088660" lon="-3.0054120">
        <ele>772.4</ele>
        <time>2020-07-15T10:42:50Z</time>
      </trkpt>
      <trkpt lat="37.9088400" lon="-3.0054260">
        <ele>772.8</ele>
        <time>2020-07-15T10:42:51Z</time>
      </trkpt>
      <trkpt lat="37.9088090" lon="-3.0054710">
        <ele>773.4</ele>
        <time>2020-07-15T10:42:53Z</time>
      </trkpt>
      <trkpt lat="37.9087980" lon="-3.0055310">
        <ele>774.2</ele>
        <time>2020-07-15T10:42:55Z</time>
      </trkpt>
      <trkpt lat="37.9088050" lon="-3.0055550">
        <ele>774.6</ele>
        <time>2020-07-15T10:42:56Z</time>
      </trkpt>
      <trkpt lat="37.9088450" lon="-3.0056180">
        <ele>775.8</ele>
        <time>2020-07-15T10:42:59Z</time>
      </trkpt>
      <trkpt lat="37.9088910" lon="-3.0057010">
        <ele>776.8</ele>
        <time>2020-07-15T10:43:03Z</time>
      </trkpt>
      <trkpt lat="37.9089190" lon="-3.0057700">
        <ele>777.4</ele>
        <time>2020-07-15T10:43:06Z</time>
      </trkpt>
      <trkpt lat="37.9089430" lon="-3.0058090">
        <ele>777.8</ele>
        <time>2020-07-15T10:43:08Z</time>
      </trkpt>
      <trkpt lat="37.9089900" lon="-3.0059210">
        <ele>778.6</ele>
        <time>2020-07-15T10:43:13Z</time>
      </trkpt>
      <trkpt lat="37.9089840" lon="-3.0059470">
        <ele>778.8</ele>
        <time>2020-07-15T10:43:14Z</time>
      </trkpt>
      <trkpt lat="37.9089700" lon="-3.0059640">
        <ele>779.0</ele>
        <time>2020-07-15T10:43:15Z</time>
      </trkpt>
      <trkpt lat="37.9089310" lon="-3.0059390">
        <ele>779.4</ele>
        <time>2020-07-15T10:43:18Z</time>
      </trkpt>
      <trkpt lat="37.9089220" lon="-3.0059040">
        <ele>780.0</ele>
        <time>2020-07-15T10:43:22Z</time>
      </trkpt>
      <trkpt lat="37.9089230" lon="-3.0059010">
        <ele>780.0</ele>
        <time>2020-07-15T10:43:23Z</time>
      </trkpt>
      <trkpt lat="37.9082780" lon="-3.0060990">
        <ele>800.4</ele>
        <time>2020-07-16T04:46:15Z</time>
      </trkpt>
      <trkpt lat="37.9082750" lon="-3.0061000">
        <ele>800.4</ele>
        <time>2020-07-16T04:46:16Z</time>
      </trkpt>
      <trkpt lat="37.9082660" lon="-3.0060650">
        <ele>800.4</ele>
        <time>2020-07-16T04:46:21Z</time>
      </trkpt>
      <trkpt lat="37.9082680" lon="-3.0060180">
        <ele>800.4</ele>
        <time>2020-07-16T04:46:23Z</time>
      </trkpt>
      <trkpt lat="37.9082390" lon="-3.0059640">
        <ele>800.4</ele>
        <time>2020-07-16T04:46:26Z</time>
      </trkpt>
      <trkpt lat="37.9082220" lon="-3.0058980">
        <ele>800.4</ele>
        <time>2020-07-16T04:46:29Z</time>
      </trkpt>
      <trkpt lat="37.9082260" lon="-3.0059150">
        <ele>800.4</ele>
        <time>2020-07-16T04:46:30Z</time>
      </trkpt>
      <trkpt lat="37.9082420" lon="-3.0058800">
        <ele>800.4</ele>
        <time>2020-07-16T04:46:31Z</time>
      </trkpt>
      <trkpt lat="37.9082510" lon="-3.0058710">
        <ele>800.4</ele>
        <time>2020-07-16T04:46:32Z</time>
      </trkpt>
      <trkpt lat="37.9082670" lon="-3.0058680">
        <ele>800.2</ele>
        <time>2020-07-16T04:46:34Z</time>
      </trkpt>
      <trkpt lat="37.9083040" lon="-3.0059310">
        <ele>799.6</ele>
        <time>2020-07-16T04:46:36Z</time>
      </trkpt>
      <trkpt lat="37.9083210" lon="-3.0059630">
        <ele>799.2</ele>
        <time>2020-07-16T04:46:37Z</time>
      </trkpt>
      <trkpt lat="37.9083370" lon="-3.0059910">
        <ele>798.8</ele>
        <time>2020-07-16T04:46:38Z</time>
      </trkpt>
      <trkpt lat="37.9083780" lon="-3.0060550">
        <ele>798.0</ele>
        <time>2020-07-16T04:46:40Z</time>
      </trkpt>
      <trkpt lat="37.9083850" lon="-3.0060870">
        <ele>797.8</ele>
        <time>2020-07-16T04:46:41Z</time>
      </trkpt>
      <trkpt lat="37.9084310" lon="-3.0061000">
        <ele>797.6</ele>
        <time>2020-07-16T04:46:42Z</time>
      </trkpt>
      <trkpt lat="37.9085050" lon="-3.0061410">
        <ele>797.4</ele>
        <time>2020-07-16T04:46:44Z</time>
      </trkpt>
      <trkpt lat="37.9085720" lon="-3.0062020">
        <ele>797.0</ele>
        <time>2020-07-16T04:46:46Z</time>
      </trkpt>
      <trkpt lat="37.9086120" lon="-3.0062330">
        <ele>796.6</ele>
        <time>2020-07-16T04:46:47Z</time>
      </trkpt>
      <trkpt lat="37.9086390" lon="-3.0062680">
        <ele>796.4</ele>
        <time>2020-07-16T04:46:48Z</time>
      </trkpt>
      <trkpt lat="37.9086590" lon="-3.0063020">
        <ele>796.0</ele>
        <time>2020-07-16T04:46:49Z</time>
      </trkpt>
      <trkpt lat="37.9086930" lon="-3.0063590">
        <ele>795.0</ele>
        <time>2020-07-16T04:46:51Z</time>
      </trkpt>
      <trkpt lat="37.9087120" lon="-3.0063620">
        <ele>794.6</ele>
        <time>2020-07-16T04:46:52Z</time>
      </trkpt>
      <trkpt lat="37.9087680" lon="-3.0063240">
        <ele>793.8</ele>
        <time>2020-07-16T04:46:54Z</time>
      </trkpt>
      <trkpt lat="37.9087900" lon="-3.0062990">
        <ele>793.4</ele>
        <time>2020-07-16T04:46:55Z</time>
      </trkpt>
      <trkpt lat="37.9088310" lon="-3.0062270">
        <ele>792.4</ele>
        <time>2020-07-16T04:46:57Z</time>
      </trkpt>
      <trkpt lat="37.9088450" lon="-3.0062110">
        <ele>792.0</ele>
        <time>2020-07-16T04:46:58Z</time>
      </trkpt>
      <trkpt lat="37.9088800" lon="-3.0061520">
        <ele>791.0</ele>
        <time>2020-07-16T04:47:00Z</time>
      </trkpt>
      <trkpt lat="37.9088790" lon="-3.0061560">
        <ele>790.4</ele>
        <time>2020-07-16T04:47:01Z</time>
      </trkpt>
      <trkpt lat="37.9089690" lon="-3.0061170">
        <ele>789.0</ele>
        <time>2020-07-16T04:47:13Z</time>
      </trkpt>
      <trkpt lat="37.9090100" lon="-3.0061220">
        <ele>789.0</ele>
        <time>2020-07-16T04:47:17Z</time>
      </trkpt>
      <trkpt lat="37.9090550" lon="-3.0060680">
        <ele>788.8</ele>
        <time>2020-07-16T04:47:50Z</time>
      </trkpt>
      <trkpt lat="37.9090570" lon="-3.0060790">
        <ele>788.8</ele>
        <time>2020-07-16T04:47:51Z</time>
      </trkpt>
      <trkpt lat="37.9090580" lon="-3.0060470">
        <ele>788.8</ele>
        <time>2020-07-16T04:47:52Z</time>
      </trkpt>
      <trkpt lat="37.9090330" lon="-3.0059880">
        <ele>788.8</ele>
        <time>2020-07-16T04:47:54Z</time>
      </trkpt>
      <trkpt lat="37.9089300" lon="-3.0058510">
        <ele>788.4</ele>
        <time>2020-07-16T04:47:58Z</time>
      </trkpt>
      <trkpt lat="37.9088940" lon="-3.0058030">
        <ele>788.2</ele>
        <time>2020-07-16T04:47:59Z</time>
      </trkpt>
      <trkpt lat="37.9088350" lon="-3.0056970">
        <ele>787.8</ele>
        <time>2020-07-16T04:48:01Z</time>
      </trkpt>
      <trkpt lat="37.9088290" lon="-3.0056380">
        <ele>787.4</ele>
        <time>2020-07-16T04:48:02Z</time>
      </trkpt>
      <trkpt lat="37.9088780" lon="-3.0055430">
        <ele>786.8</ele>
        <time>2020-07-16T04:48:04Z</time>
      </trkpt>
      <trkpt lat="37.9089200" lon="-3.0055310">
        <ele>786.2</ele>
        <time>2020-07-16T04:48:05Z</time>
      </trkpt>
      <trkpt lat="37.9089630" lon="-3.0055440">
        <ele>785.6</ele>
        <time>2020-07-16T04:48:06Z</time>
      </trkpt>
      <trkpt lat="37.9090280" lon="-3.0056160">
        <ele>784.0</ele>
        <time>2020-07-16T04:48:08Z</time>
      </trkpt>
      <trkpt lat="37.9090730" lon="-3.0056880">
        <ele>782.4</ele>
        <time>2020-07-16T04:48:10Z</time>
      </trkpt>
      <trkpt lat="37.9091130" lon="-3.0057370">
        <ele>780.6</ele>
        <time>2020-07-16T04:48:12Z</time>
      </trkpt>
      <trkpt lat="37.9091270" lon="-3.0057570">
        <ele>779.8</ele>
        <time>2020-07-16T04:48:13Z</time>
      </trkpt>
      <trkpt lat="37.9091380" lon="-3.0057730">
        <ele>779.0</ele>
        <time>2020-07-16T04:48:14Z</time>
      </trkpt>
      <trkpt lat="37.9091550" lon="-3.0058110">
        <ele>778.0</ele>
        <time>2020-07-16T04:48:16Z</time>
      </trkpt>
      <trkpt lat="37.9091600" lon="-3.0058330">
        <ele>777.6</ele>
        <time>2020-07-16T04:48:17Z</time>
      </trkpt>
      <trkpt lat="37.9091720" lon="-3.0058730">
        <ele>777.0</ele>
        <time>2020-07-16T04:48:19Z</time>
      </trkpt>
      <trkpt lat="37.9091960" lon="-3.0059510">
        <ele>777.0</ele>
        <time>2020-07-16T04:48:23Z</time>
      </trkpt>
      <trkpt lat="37.9092040" lon="-3.0059700">
        <ele>777.2</ele>
        <time>2020-07-16T04:48:24Z</time>
      </trkpt>
      <trkpt lat="37.9092260" lon="-3.0060100">
        <ele>777.6</ele>
        <time>2020-07-16T04:48:27Z</time>
      </trkpt>
      <trkpt lat="37.9092440" lon="-3.0060550">
        <ele>778.2</ele>
        <time>2020-07-16T04:48:30Z</time>
      </trkpt>
      <trkpt lat="37.9093020" lon="-3.0061420">
        <ele>778.8</ele>
        <time>2020-07-16T04:48:35Z</time>
      </trkpt>
      <trkpt lat="37.9093100" lon="-3.0061640">
        <ele>779.0</ele>
        <time>2020-07-16T04:48:36Z</time>
      </trkpt>
      <trkpt lat="37.9093300" lon="-3.0062170">
        <ele>779.2</ele>
        <time>2020-07-16T04:48:38Z</time>
      </trkpt>
      <trkpt lat="37.9093520" lon="-3.0063270">
        <ele>779.2</ele>
        <time>2020-07-16T04:48:41Z</time>
      </trkpt>
      <trkpt lat="37.9093750" lon="-3.0065820">
        <ele>778.8</ele>
        <time>2020-07-16T04:48:46Z</time>
      </trkpt>
      <trkpt lat="37.9094460" lon="-3.0068260">
        <ele>778.0</ele>
        <time>2020-07-16T04:48:50Z</time>
      </trkpt>
      <trkpt lat="37.9094560" lon="-3.0068860">
        <ele>777.8</ele>
        <time>2020-07-16T04:48:51Z</time>
      </trkpt>
      <trkpt lat="37.9094950" lon="-3.0072110">
        <ele>777.2</ele>
        <time>2020-07-16T04:48:57Z</time>
      </trkpt>
      <trkpt lat="37.9094810" lon="-3.0073100">
        <ele>777.2</ele>
        <time>2020-07-16T04:49:00Z</time>
      </trkpt>
      <trkpt lat="37.9094770" lon="-3.0073820">
        <ele>777.2</ele>
        <time>2020-07-16T04:49:02Z</time>
      </trkpt>
      <trkpt lat="37.9094270" lon="-3.0075650">
        <ele>777.0</ele>
        <time>2020-07-16T04:49:07Z</time>
      </trkpt>
      <trkpt lat="37.9094120" lon="-3.0076390">
        <ele>777.0</ele>
        <time>2020-07-16T04:49:09Z</time>
      </trkpt>
      <trkpt lat="37.9093950" lon="-3.0076960">
        <ele>777.2</ele>
        <time>2020-07-16T04:49:13Z</time>
      </trkpt>
      <trkpt lat="37.9093850" lon="-3.0077690">
        <ele>776.6</ele>
        <time>2020-07-16T04:51:16Z</time>
      </trkpt>
      <trkpt lat="37.9093850" lon="-3.0077910">
        <ele>776.6</ele>
        <time>2020-07-16T04:51:17Z</time>
      </trkpt>
      <trkpt lat="37.9093850" lon="-3.0078430">
        <ele>776.4</ele>
        <time>2020-07-16T04:51:19Z</time>
      </trkpt>
      <trkpt lat="37.9093920" lon="-3.0080310">
        <ele>776.2</ele>
        <time>2020-07-16T04:51:24Z</time>
      </trkpt>
      <trkpt lat="37.9094220" lon="-3.0082590">
        <ele>775.8</ele>
        <time>2020-07-16T04:51:28Z</time>
      </trkpt>
      <trkpt lat="37.9094330" lon="-3.0083330">
        <ele>775.6</ele>
        <time>2020-07-16T04:51:29Z</time>
      </trkpt>
      <trkpt lat="37.9094730" lon="-3.0085510">
        <ele>774.2</ele>
        <time>2020-07-16T04:51:32Z</time>
      </trkpt>
      <trkpt lat="37.9095160" lon="-3.0087700">
        <ele>773.2</ele>
        <time>2020-07-16T04:51:35Z</time>
      </trkpt>
      <trkpt lat="37.9095050" lon="-3.0090310">
        <ele>771.8</ele>
        <time>2020-07-16T04:51:39Z</time>
      </trkpt>
      <trkpt lat="37.9095150" lon="-3.0091930">
        <ele>772.6</ele>
        <time>2020-07-16T04:51:43Z</time>
      </trkpt>
      <trkpt lat="37.9095170" lon="-3.0092310">
        <ele>773.2</ele>
        <time>2020-07-16T04:51:44Z</time>
      </trkpt>
      <trkpt lat="37.9095320" lon="-3.0093700">
        <ele>773.6</ele>
        <time>2020-07-16T04:51:47Z</time>
      </trkpt>
      <trkpt lat="37.9095250" lon="-3.0094140">
        <ele>773.4</ele>
        <time>2020-07-16T04:51:48Z</time>
      </trkpt>
      <trkpt lat="37.9094610" lon="-3.0097360">
        <ele>773.4</ele>
        <time>2020-07-16T04:51:55Z</time>
      </trkpt>
      <trkpt lat="37.9094330" lon="-3.0099240">
        <ele>773.4</ele>
        <time>2020-07-16T04:51:58Z</time>
      </trkpt>
      <trkpt lat="37.9094090" lon="-3.0100010">
        <ele>773.4</ele>
        <time>2020-07-16T04:51:59Z</time>
      </trkpt>
      <trkpt lat="37.9093070" lon="-3.0101860">
        <ele>772.6</ele>
        <time>2020-07-16T04:52:02Z</time>
      </trkpt>
      <trkpt lat="37.9092800" lon="-3.0102300">
        <ele>772.2</ele>
        <time>2020-07-16T04:52:03Z</time>
      </trkpt>
      <trkpt lat="37.9090450" lon="-3.0106850">
        <ele>772.2</ele>
        <time>2020-07-16T04:52:12Z</time>
      </trkpt>
      <trkpt lat="37.9089870" lon="-3.0108060">
        <ele>772.4</ele>
        <time>2020-07-16T04:52:15Z</time>
      </trkpt>
      <trkpt lat="37.9089520" lon="-3.0108850">
        <ele>772.8</ele>
        <time>2020-07-16T04:52:17Z</time>
      </trkpt>
      <trkpt lat="37.9089300" lon="-3.0109660">
        <ele>773.2</ele>
        <time>2020-07-16T04:52:19Z</time>
      </trkpt>
      <trkpt lat="37.9089120" lon="-3.0111330">
        <ele>773.6</ele>
        <time>2020-07-16T04:52:23Z</time>
      </trkpt>
      <trkpt lat="37.9089240" lon="-3.0112440">
        <ele>774.4</ele>
        <time>2020-07-16T04:52:26Z</time>
      </trkpt>
      <trkpt lat="37.9089380" lon="-3.0113090">
        <ele>774.6</ele>
        <time>2020-07-16T04:52:28Z</time>
      </trkpt>
      <trkpt lat="37.9089600" lon="-3.0113990">
        <ele>775.4</ele>
        <time>2020-07-16T04:52:31Z</time>
      </trkpt>
      <trkpt lat="37.9089720" lon="-3.0115040">
        <ele>776.2</ele>
        <time>2020-07-16T04:52:34Z</time>
      </trkpt>
      <trkpt lat="37.9089680" lon="-3.0115430">
        <ele>776.4</ele>
        <time>2020-07-16T04:52:35Z</time>
      </trkpt>
      <trkpt lat="37.9089360" lon="-3.0116520">
        <ele>776.8</ele>
        <time>2020-07-16T04:52:38Z</time>
      </trkpt>
      <trkpt lat="37.9089020" lon="-3.0116970">
        <ele>776.8</ele>
        <time>2020-07-16T04:52:39Z</time>
      </trkpt>
      <trkpt lat="37.9087660" lon="-3.0118370">
        <ele>776.6</ele>
        <time>2020-07-16T04:52:43Z</time>
      </trkpt>
      <trkpt lat="37.9086070" lon="-3.0120250">
        <ele>774.8</ele>
        <time>2020-07-16T04:52:47Z</time>
      </trkpt>
      <trkpt lat="37.9085370" lon="-3.0121360">
        <ele>774.0</ele>
        <time>2020-07-16T04:52:49Z</time>
      </trkpt>
      <trkpt lat="37.9085050" lon="-3.0121860">
        <ele>773.6</ele>
        <time>2020-07-16T04:52:50Z</time>
      </trkpt>
      <trkpt lat="37.9083920" lon="-3.0123320">
        <ele>772.6</ele>
        <time>2020-07-16T04:52:54Z</time>
      </trkpt>
      <trkpt lat="37.9082450" lon="-3.0124530">
        <ele>772.2</ele>
        <time>2020-07-16T04:52:59Z</time>
      </trkpt>
      <trkpt lat="37.9080790" lon="-3.0126560">
        <ele>773.4</ele>
        <time>2020-07-16T04:53:06Z</time>
      </trkpt>
      <trkpt lat="37.9080610" lon="-3.0127980">
        <ele>773.2</ele>
        <time>2020-07-16T04:53:09Z</time>
      </trkpt>
      <trkpt lat="37.9080580" lon="-3.0128970">
        <ele>773.0</ele>
        <time>2020-07-16T04:53:11Z</time>
      </trkpt>
      <trkpt lat="37.9080540" lon="-3.0129510">
        <ele>773.0</ele>
        <time>2020-07-16T04:53:12Z</time>
      </trkpt>
      <trkpt lat="37.9080290" lon="-3.0131120">
        <ele>773.0</ele>
        <time>2020-07-16T04:53:15Z</time>
      </trkpt>
      <trkpt lat="37.9079960" lon="-3.0132340">
        <ele>772.8</ele>
        <time>2020-07-16T04:53:17Z</time>
      </trkpt>
      <trkpt lat="37.9079310" lon="-3.0133910">
        <ele>772.0</ele>
        <time>2020-07-16T04:53:20Z</time>
      </trkpt>
      <trkpt lat="37.9078760" lon="-3.0134470">
        <ele>771.8</ele>
        <time>2020-07-16T04:53:22Z</time>
      </trkpt>
      <trkpt lat="37.9078170" lon="-3.0134810">
        <ele>771.8</ele>
        <time>2020-07-16T04:53:24Z</time>
      </trkpt>
      <trkpt lat="37.9077410" lon="-3.0135510">
        <ele>772.2</ele>
        <time>2020-07-16T04:53:27Z</time>
      </trkpt>
      <trkpt lat="37.9077340" lon="-3.0135590">
        <ele>772.0</ele>
        <time>2020-07-16T04:53:29Z</time>
      </trkpt>
      <trkpt lat="37.9077790" lon="-3.0136740">
        <ele>771.8</ele>
        <time>2020-07-16T04:54:50Z</time>
      </trkpt>
      <trkpt lat="37.9077700" lon="-3.0136890">
        <ele>772.0</ele>
        <time>2020-07-16T04:54:51Z</time>
      </trkpt>
      <trkpt lat="37.9077490" lon="-3.0137220">
        <ele>772.2</ele>
        <time>2020-07-16T04:54:53Z</time>
      </trkpt>
      <trkpt lat="37.9077300" lon="-3.0137530">
        <ele>772.4</ele>
        <time>2020-07-16T04:54:55Z</time>
      </trkpt>
      <trkpt lat="37.9077130" lon="-3.0137810">
        <ele>772.8</ele>
        <time>2020-07-16T04:54:57Z</time>
      </trkpt>
      <trkpt lat="37.9077060" lon="-3.0137970">
        <ele>773.0</ele>
        <time>2020-07-16T04:54:58Z</time>
      </trkpt>
      <trkpt lat="37.9077010" lon="-3.0138150">
        <ele>773.2</ele>
        <time>2020-07-16T04:54:59Z</time>
      </trkpt>
      <trkpt lat="37.9076970" lon="-3.0138380">
        <ele>773.6</ele>
        <time>2020-07-16T04:55:00Z</time>
      </trkpt>
      <trkpt lat="37.9076920" lon="-3.0138590">
        <ele>773.8</ele>
        <time>2020-07-16T04:55:01Z</time>
      </trkpt>
      <trkpt lat="37.9076760" lon="-3.0138980">
        <ele>774.2</ele>
        <time>2020-07-16T04:55:03Z</time>
      </trkpt>
      <trkpt lat="37.9076660" lon="-3.0139190">
        <ele>774.4</ele>
        <time>2020-07-16T04:55:04Z</time>
      </trkpt>
      <trkpt lat="37.9076560" lon="-3.0139390">
        <ele>774.6</ele>
        <time>2020-07-16T04:55:05Z</time>
      </trkpt>
      <trkpt lat="37.9076270" lon="-3.0139920">
        <ele>775.4</ele>
        <time>2020-07-16T04:55:08Z</time>
      </trkpt>
      <trkpt lat="37.9076180" lon="-3.0140110">
        <ele>775.8</ele>
        <time>2020-07-16T04:55:09Z</time>
      </trkpt>
      <trkpt lat="37.9075950" lon="-3.0140680">
        <ele>776.6</ele>
        <time>2020-07-16T04:55:12Z</time>
      </trkpt>
      <trkpt lat="37.9075870" lon="-3.0140830">
        <ele>777.0</ele>
        <time>2020-07-16T04:55:13Z</time>
      </trkpt>
      <trkpt lat="37.9075640" lon="-3.0141300">
        <ele>777.8</ele>
        <time>2020-07-16T04:55:16Z</time>
      </trkpt>
      <trkpt lat="37.9075480" lon="-3.0141630">
        <ele>778.2</ele>
        <time>2020-07-16T04:55:18Z</time>
      </trkpt>
      <trkpt lat="37.9075180" lon="-3.0142150">
        <ele>778.8</ele>
        <time>2020-07-16T04:55:21Z</time>
      </trkpt>
      <trkpt lat="37.9074840" lon="-3.0142660">
        <ele>779.4</ele>
        <time>2020-07-16T04:55:24Z</time>
      </trkpt>
      <trkpt lat="37.9074590" lon="-3.0142910">
        <ele>780.0</ele>
        <time>2020-07-16T04:55:26Z</time>
      </trkpt>
      <trkpt lat="37.9074320" lon="-3.0143140">
        <ele>780.4</ele>
        <time>2020-07-16T04:55:28Z</time>
      </trkpt>
      <trkpt lat="37.9074160" lon="-3.0143260">
        <ele>780.8</ele>
        <time>2020-07-16T04:55:29Z</time>
      </trkpt>
      <trkpt lat="37.9073730" lon="-3.0143630">
        <ele>781.8</ele>
        <time>2020-07-16T04:55:32Z</time>
      </trkpt>
      <trkpt lat="37.9073300" lon="-3.0143890">
        <ele>782.8</ele>
        <time>2020-07-16T04:55:35Z</time>
      </trkpt>
      <trkpt lat="37.9072950" lon="-3.0144200">
        <ele>784.0</ele>
        <time>2020-07-16T04:55:38Z</time>
      </trkpt>
      <trkpt lat="37.9072700" lon="-3.0144730">
        <ele>785.2</ele>
        <time>2020-07-16T04:55:41Z</time>
      </trkpt>
      <trkpt lat="37.9072730" lon="-3.0144920">
        <ele>785.6</ele>
        <time>2020-07-16T04:55:42Z</time>
      </trkpt>
      <trkpt lat="37.9072910" lon="-3.0145260">
        <ele>786.2</ele>
        <time>2020-07-16T04:55:44Z</time>
      </trkpt>
      <trkpt lat="37.9073140" lon="-3.0145500">
        <ele>787.2</ele>
        <time>2020-07-16T04:55:46Z</time>
      </trkpt>
      <trkpt lat="37.9073250" lon="-3.0145610">
        <ele>787.6</ele>
        <time>2020-07-16T04:55:47Z</time>
      </trkpt>
      <trkpt lat="37.9073710" lon="-3.0145900">
        <ele>788.6</ele>
        <time>2020-07-16T04:55:50Z</time>
      </trkpt>
      <trkpt lat="37.9073980" lon="-3.0146060">
        <ele>789.2</ele>
        <time>2020-07-16T04:55:52Z</time>
      </trkpt>
      <trkpt lat="37.9074280" lon="-3.0146140">
        <ele>789.8</ele>
        <time>2020-07-16T04:55:54Z</time>
      </trkpt>
      <trkpt lat="37.9075060" lon="-3.0146360">
        <ele>790.8</ele>
        <time>2020-07-16T04:55:59Z</time>
      </trkpt>
      <trkpt lat="37.9075210" lon="-3.0146410">
        <ele>791.0</ele>
        <time>2020-07-16T04:56:00Z</time>
      </trkpt>
      <trkpt lat="37.9075800" lon="-3.0146690">
        <ele>791.8</ele>
        <time>2020-07-16T04:56:04Z</time>
      </trkpt>
      <trkpt lat="37.9076330" lon="-3.0147210">
        <ele>792.4</ele>
        <time>2020-07-16T04:56:08Z</time>
      </trkpt>
      <trkpt lat="37.9076970" lon="-3.0148000">
        <ele>793.0</ele>
        <time>2020-07-16T04:56:13Z</time>
      </trkpt>
      <trkpt lat="37.9077520" lon="-3.0148890">
        <ele>793.8</ele>
        <time>2020-07-16T04:56:18Z</time>
      </trkpt>
      <trkpt lat="37.9077640" lon="-3.0149060">
        <ele>794.0</ele>
        <time>2020-07-16T04:56:19Z</time>
      </trkpt>
      <trkpt lat="37.9078050" lon="-3.0149980">
        <ele>795.2</ele>
        <time>2020-07-16T04:56:24Z</time>
      </trkpt>
      <trkpt lat="37.9078360" lon="-3.0150500">
        <ele>796.4</ele>
        <time>2020-07-16T04:56:27Z</time>
      </trkpt>
      <trkpt lat="37.9078600" lon="-3.0150820">
        <ele>797.2</ele>
        <time>2020-07-16T04:56:29Z</time>
      </trkpt>
      <trkpt lat="37.9078740" lon="-3.0150930">
        <ele>797.4</ele>
        <time>2020-07-16T04:56:30Z</time>
      </trkpt>
      <trkpt lat="37.9079290" lon="-3.0151350">
        <ele>798.4</ele>
        <time>2020-07-16T04:56:34Z</time>
      </trkpt>
      <trkpt lat="37.9079600" lon="-3.0151470">
        <ele>799.0</ele>
        <time>2020-07-16T04:56:36Z</time>
      </trkpt>
      <trkpt lat="37.9079870" lon="-3.0151620">
        <ele>799.6</ele>
        <time>2020-07-16T04:56:38Z</time>
      </trkpt>
      <trkpt lat="37.9080610" lon="-3.0152010">
        <ele>800.6</ele>
        <time>2020-07-16T04:56:43Z</time>
      </trkpt>
      <trkpt lat="37.9080760" lon="-3.0152090">
        <ele>800.8</ele>
        <time>2020-07-16T04:56:44Z</time>
      </trkpt>
      <trkpt lat="37.9081860" lon="-3.0152580">
        <ele>801.8</ele>
        <time>2020-07-16T04:56:51Z</time>
      </trkpt>
      <trkpt lat="37.9082200" lon="-3.0152720">
        <ele>802.0</ele>
        <time>2020-07-16T04:56:53Z</time>
      </trkpt>
      <trkpt lat="37.9082880" lon="-3.0153060">
        <ele>802.8</ele>
        <time>2020-07-16T04:56:57Z</time>
      </trkpt>
      <trkpt lat="37.9083780" lon="-3.0153500">
        <ele>803.6</ele>
        <time>2020-07-16T04:57:02Z</time>
      </trkpt>
      <trkpt lat="37.9084150" lon="-3.0153630">
        <ele>804.0</ele>
        <time>2020-07-16T04:57:04Z</time>
      </trkpt>
      <trkpt lat="37.9084990" lon="-3.0154000">
        <ele>805.2</ele>
        <time>2020-07-16T04:57:09Z</time>
      </trkpt>
      <trkpt lat="37.9085320" lon="-3.0154160">
        <ele>805.6</ele>
        <time>2020-07-16T04:57:11Z</time>
      </trkpt>
      <trkpt lat="37.9086140" lon="-3.0154510">
        <ele>806.2</ele>
        <time>2020-07-16T04:57:16Z</time>
      </trkpt>
      <trkpt lat="37.9086930" lon="-3.0154860">
        <ele>807.6</ele>
        <time>2020-07-16T04:57:21Z</time>
      </trkpt>
      <trkpt lat="37.9087910" lon="-3.0155270">
        <ele>808.6</ele>
        <time>2020-07-16T04:57:27Z</time>
      </trkpt>
      <trkpt lat="37.9088240" lon="-3.0155430">
        <ele>809.2</ele>
        <time>2020-07-16T04:57:29Z</time>
      </trkpt>
      <trkpt lat="37.9088570" lon="-3.0155580">
        <ele>809.8</ele>
        <time>2020-07-16T04:57:31Z</time>
      </trkpt>
      <trkpt lat="37.9089550" lon="-3.0156050">
        <ele>810.8</ele>
        <time>2020-07-16T04:57:37Z</time>
      </trkpt>
      <trkpt lat="37.9089860" lon="-3.0156230">
        <ele>811.2</ele>
        <time>2020-07-16T04:57:39Z</time>
      </trkpt>
      <trkpt lat="37.9090330" lon="-3.0156460">
        <ele>812.0</ele>
        <time>2020-07-16T04:57:42Z</time>
      </trkpt>
      <trkpt lat="37.9091090" lon="-3.0156820">
        <ele>813.0</ele>
        <time>2020-07-16T04:57:47Z</time>
      </trkpt>
      <trkpt lat="37.9091720" lon="-3.0156940">
        <ele>814.2</ele>
        <time>2020-07-16T04:57:51Z</time>
      </trkpt>
      <trkpt lat="37.9092550" lon="-3.0156980">
        <ele>815.2</ele>
        <time>2020-07-16T04:57:56Z</time>
      </trkpt>
      <trkpt lat="37.9093170" lon="-3.0157270">
        <ele>816.4</ele>
        <time>2020-07-16T04:58:00Z</time>
      </trkpt>
      <trkpt lat="37.9093380" lon="-3.0157450">
        <ele>816.8</ele>
        <time>2020-07-16T04:58:02Z</time>
      </trkpt>
      <trkpt lat="37.9093650" lon="-3.0157400">
        <ele>817.4</ele>
        <time>2020-07-16T04:58:05Z</time>
      </trkpt>
      <trkpt lat="37.9093940" lon="-3.0157330">
        <ele>817.8</ele>
        <time>2020-07-16T04:58:08Z</time>
      </trkpt>
      <trkpt lat="37.9093800" lon="-3.0157810">
        <ele>817.8</ele>
        <time>2020-07-16T04:58:11Z</time>
      </trkpt>
      <trkpt lat="37.9093430" lon="-3.0158020">
        <ele>817.8</ele>
        <time>2020-07-16T04:58:13Z</time>
      </trkpt>
      <trkpt lat="37.9092650" lon="-3.0158490">
        <ele>818.2</ele>
        <time>2020-07-16T04:58:17Z</time>
      </trkpt>
      <trkpt lat="37.9092250" lon="-3.0158650">
        <ele>818.4</ele>
        <time>2020-07-16T04:58:19Z</time>
      </trkpt>
      <trkpt lat="37.9091430" lon="-3.0158980">
        <ele>818.8</ele>
        <time>2020-07-16T04:58:23Z</time>
      </trkpt>
      <trkpt lat="37.9090600" lon="-3.0159400">
        <ele>819.4</ele>
        <time>2020-07-16T04:58:27Z</time>
      </trkpt>
      <trkpt lat="37.9090390" lon="-3.0159490">
        <ele>819.6</ele>
        <time>2020-07-16T04:58:28Z</time>
      </trkpt>
      <trkpt lat="37.9089120" lon="-3.0160080">
        <ele>820.6</ele>
        <time>2020-07-16T04:58:34Z</time>
      </trkpt>
      <trkpt lat="37.9088910" lon="-3.0160180">
        <ele>820.8</ele>
        <time>2020-07-16T04:58:35Z</time>
      </trkpt>
      <trkpt lat="37.9087600" lon="-3.0160830">
        <ele>821.8</ele>
        <time>2020-07-16T04:58:41Z</time>
      </trkpt>
      <trkpt lat="37.9086270" lon="-3.0161470">
        <ele>822.8</ele>
        <time>2020-07-16T04:58:47Z</time>
      </trkpt>
      <trkpt lat="37.9084900" lon="-3.0162060">
        <ele>823.8</ele>
        <time>2020-07-16T04:58:53Z</time>
      </trkpt>
      <trkpt lat="37.9084230" lon="-3.0162450">
        <ele>824.6</ele>
        <time>2020-07-16T04:58:56Z</time>
      </trkpt>
      <trkpt lat="37.9083800" lon="-3.0162700">
        <ele>825.0</ele>
        <time>2020-07-16T04:58:58Z</time>
      </trkpt>
      <trkpt lat="37.9082450" lon="-3.0163470">
        <ele>826.2</ele>
        <time>2020-07-16T04:59:04Z</time>
      </trkpt>
      <trkpt lat="37.9081570" lon="-3.0164000">
        <ele>827.0</ele>
        <time>2020-07-16T04:59:08Z</time>
      </trkpt>
      <trkpt lat="37.9081110" lon="-3.0164290">
        <ele>827.2</ele>
        <time>2020-07-16T04:59:10Z</time>
      </trkpt>
      <trkpt lat="37.9079760" lon="-3.0165230">
        <ele>828.4</ele>
        <time>2020-07-16T04:59:16Z</time>
      </trkpt>
      <trkpt lat="37.9079050" lon="-3.0165720">
        <ele>829.2</ele>
        <time>2020-07-16T04:59:19Z</time>
      </trkpt>
      <trkpt lat="37.9078590" lon="-3.0166030">
        <ele>829.6</ele>
        <time>2020-07-16T04:59:21Z</time>
      </trkpt>
      <trkpt lat="37.9076310" lon="-3.0167600">
        <ele>830.4</ele>
        <time>2020-07-16T04:59:30Z</time>
      </trkpt>
      <trkpt lat="37.9076070" lon="-3.0167770">
        <ele>830.6</ele>
        <time>2020-07-16T04:59:31Z</time>
      </trkpt>
      <trkpt lat="37.9073960" lon="-3.0169490">
        <ele>831.6</ele>
        <time>2020-07-16T04:59:39Z</time>
      </trkpt>
      <trkpt lat="37.9073420" lon="-3.0170130">
        <ele>831.8</ele>
        <time>2020-07-16T04:59:41Z</time>
      </trkpt>
      <trkpt lat="37.9072460" lon="-3.0171590">
        <ele>832.0</ele>
        <time>2020-07-16T04:59:45Z</time>
      </trkpt>
      <trkpt lat="37.9072000" lon="-3.0172490">
        <ele>832.0</ele>
        <time>2020-07-16T04:59:47Z</time>
      </trkpt>
      <trkpt lat="37.9071630" lon="-3.0173480">
        <ele>832.0</ele>
        <time>2020-07-16T04:59:49Z</time>
      </trkpt>
      <trkpt lat="37.9071080" lon="-3.0175720">
        <ele>832.0</ele>
        <time>2020-07-16T04:59:53Z</time>
      </trkpt>
      <trkpt lat="37.9070940" lon="-3.0177060">
        <ele>832.0</ele>
        <time>2020-07-16T04:59:55Z</time>
      </trkpt>
      <trkpt lat="37.9070940" lon="-3.0178460">
        <ele>831.8</ele>
        <time>2020-07-16T04:59:57Z</time>
      </trkpt>
      <trkpt lat="37.9071230" lon="-3.0180890">
        <ele>831.4</ele>
        <time>2020-07-16T05:00:00Z</time>
      </trkpt>
      <trkpt lat="37.9072180" lon="-3.0184510">
        <ele>830.4</ele>
        <time>2020-07-16T05:00:04Z</time>
      </trkpt>
      <trkpt lat="37.9072510" lon="-3.0185480">
        <ele>830.2</ele>
        <time>2020-07-16T05:00:05Z</time>
      </trkpt>
      <trkpt lat="37.9073230" lon="-3.0187570">
        <ele>829.4</ele>
        <time>2020-07-16T05:00:07Z</time>
      </trkpt>
      <trkpt lat="37.9074430" lon="-3.0190890">
        <ele>828.0</ele>
        <time>2020-07-16T05:00:10Z</time>
      </trkpt>
      <trkpt lat="37.9074830" lon="-3.0191990">
        <ele>827.4</ele>
        <time>2020-07-16T05:00:11Z</time>
      </trkpt>
      <trkpt lat="37.9075270" lon="-3.0193210">
        <ele>826.8</ele>
        <time>2020-07-16T05:00:12Z</time>
      </trkpt>
      <trkpt lat="37.9075680" lon="-3.0194320">
        <ele>826.4</ele>
        <time>2020-07-16T05:00:13Z</time>
      </trkpt>
      <trkpt lat="37.9076550" lon="-3.0196740">
        <ele>825.4</ele>
        <time>2020-07-16T05:00:15Z</time>
      </trkpt>
      <trkpt lat="37.9077430" lon="-3.0199400">
        <ele>824.4</ele>
        <time>2020-07-16T05:00:17Z</time>
      </trkpt>
      <trkpt lat="37.9077780" lon="-3.0200670">
        <ele>823.8</ele>
        <time>2020-07-16T05:00:18Z</time>
      </trkpt>
      <trkpt lat="37.9078140" lon="-3.0202110">
        <ele>823.0</ele>
        <time>2020-07-16T05:00:19Z</time>
      </trkpt>
      <trkpt lat="37.9078790" lon="-3.0204860">
        <ele>821.6</ele>
        <time>2020-07-16T05:00:21Z</time>
      </trkpt>
      <trkpt lat="37.9079540" lon="-3.0207720">
        <ele>820.4</ele>
        <time>2020-07-16T05:00:23Z</time>
      </trkpt>
      <trkpt lat="37.9079980" lon="-3.0209130">
        <ele>819.4</ele>
        <time>2020-07-16T05:00:24Z</time>
      </trkpt>
      <trkpt lat="37.9080460" lon="-3.0210400">
        <ele>818.4</ele>
        <time>2020-07-16T05:00:25Z</time>
      </trkpt>
      <trkpt lat="37.9081050" lon="-3.0211580">
        <ele>817.6</ele>
        <time>2020-07-16T05:00:26Z</time>
      </trkpt>
      <trkpt lat="37.9081700" lon="-3.0212580">
        <ele>816.8</ele>
        <time>2020-07-16T05:00:27Z</time>
      </trkpt>
      <trkpt lat="37.9083460" lon="-3.0214510">
        <ele>815.2</ele>
        <time>2020-07-16T05:00:29Z</time>
      </trkpt>
      <trkpt lat="37.9084390" lon="-3.0215380">
        <ele>814.6</ele>
        <time>2020-07-16T05:00:30Z</time>
      </trkpt>
      <trkpt lat="37.9085260" lon="-3.0216330">
        <ele>814.0</ele>
        <time>2020-07-16T05:00:31Z</time>
      </trkpt>
      <trkpt lat="37.9086680" lon="-3.0218490">
        <ele>812.8</ele>
        <time>2020-07-16T05:00:33Z</time>
      </trkpt>
      <trkpt lat="37.9087620" lon="-3.0222850">
        <ele>811.6</ele>
        <time>2020-07-16T05:00:36Z</time>
      </trkpt>
      <trkpt lat="37.9087430" lon="-3.0225940">
        <ele>810.2</ele>
        <time>2020-07-16T05:00:38Z</time>
      </trkpt>
      <trkpt lat="37.9087130" lon="-3.0229180">
        <ele>808.2</ele>
        <time>2020-07-16T05:00:40Z</time>
      </trkpt>
      <trkpt lat="37.9087090" lon="-3.0230780">
        <ele>807.0</ele>
        <time>2020-07-16T05:00:41Z</time>
      </trkpt>
      <trkpt lat="37.9087170" lon="-3.0232330">
        <ele>806.2</ele>
        <time>2020-07-16T05:00:42Z</time>
      </trkpt>
      <trkpt lat="37.9087400" lon="-3.0233720">
        <ele>805.2</ele>
        <time>2020-07-16T05:00:43Z</time>
      </trkpt>
      <trkpt lat="37.9087790" lon="-3.0235160">
        <ele>804.0</ele>
        <time>2020-07-16T05:00:44Z</time>
      </trkpt>
      <trkpt lat="37.9088780" lon="-3.0237600">
        <ele>803.0</ele>
        <time>2020-07-16T05:00:46Z</time>
      </trkpt>
      <trkpt lat="37.9089320" lon="-3.0238730">
        <ele>802.8</ele>
        <time>2020-07-16T05:00:47Z</time>
      </trkpt>
      <trkpt lat="37.9090830" lon="-3.0241880">
        <ele>802.8</ele>
        <time>2020-07-16T05:00:50Z</time>
      </trkpt>
      <trkpt lat="37.9091270" lon="-3.0242790">
        <ele>803.0</ele>
        <time>2020-07-16T05:00:51Z</time>
      </trkpt>
      <trkpt lat="37.9092160" lon="-3.0244640">
        <ele>803.2</ele>
        <time>2020-07-16T05:00:53Z</time>
      </trkpt>
      <trkpt lat="37.9092970" lon="-3.0246370">
        <ele>803.6</ele>
        <time>2020-07-16T05:00:55Z</time>
      </trkpt>
      <trkpt lat="37.9093330" lon="-3.0247130">
        <ele>803.8</ele>
        <time>2020-07-16T05:00:56Z</time>
      </trkpt>
      <trkpt lat="37.9093670" lon="-3.0247840">
        <ele>804.0</ele>
        <time>2020-07-16T05:00:57Z</time>
      </trkpt>
      <trkpt lat="37.9094330" lon="-3.0249270">
        <ele>804.6</ele>
        <time>2020-07-16T05:00:59Z</time>
      </trkpt>
      <trkpt lat="37.9094860" lon="-3.0250440">
        <ele>805.2</ele>
        <time>2020-07-16T05:01:01Z</time>
      </trkpt>
      <trkpt lat="37.9095600" lon="-3.0251980">
        <ele>806.6</ele>
        <time>2020-07-16T05:01:04Z</time>
      </trkpt>
      <trkpt lat="37.9096190" lon="-3.0253240">
        <ele>807.4</ele>
        <time>2020-07-16T05:01:07Z</time>
      </trkpt>
      <trkpt lat="37.9096350" lon="-3.0253590">
        <ele>807.8</ele>
        <time>2020-07-16T05:01:08Z</time>
      </trkpt>
      <trkpt lat="37.9096680" lon="-3.0254310">
        <ele>808.4</ele>
        <time>2020-07-16T05:01:10Z</time>
      </trkpt>
      <trkpt lat="37.9096970" lon="-3.0254980">
        <ele>809.0</ele>
        <time>2020-07-16T05:01:12Z</time>
      </trkpt>
      <trkpt lat="37.9097210" lon="-3.0255670">
        <ele>809.6</ele>
        <time>2020-07-16T05:01:14Z</time>
      </trkpt>
      <trkpt lat="37.9097450" lon="-3.0256340">
        <ele>810.2</ele>
        <time>2020-07-16T05:01:16Z</time>
      </trkpt>
      <trkpt lat="37.9098000" lon="-3.0258000">
        <ele>811.4</ele>
        <time>2020-07-16T05:01:21Z</time>
      </trkpt>
      <trkpt lat="37.9098250" lon="-3.0259450">
        <ele>812.4</ele>
        <time>2020-07-16T05:01:25Z</time>
      </trkpt>
      <trkpt lat="37.9098370" lon="-3.0260550">
        <ele>813.0</ele>
        <time>2020-07-16T05:01:28Z</time>
      </trkpt>
      <trkpt lat="37.9098420" lon="-3.0261320">
        <ele>813.6</ele>
        <time>2020-07-16T05:01:30Z</time>
      </trkpt>
      <trkpt lat="37.9098480" lon="-3.0262890">
        <ele>814.4</ele>
        <time>2020-07-16T05:01:34Z</time>
      </trkpt>
      <trkpt lat="37.9098470" lon="-3.0263280">
        <ele>814.6</ele>
        <time>2020-07-16T05:01:35Z</time>
      </trkpt>
      <trkpt lat="37.9098420" lon="-3.0264120">
        <ele>814.8</ele>
        <time>2020-07-16T05:01:37Z</time>
      </trkpt>
      <trkpt lat="37.9098080" lon="-3.0266290">
        <ele>815.6</ele>
        <time>2020-07-16T05:01:42Z</time>
      </trkpt>
      <trkpt lat="37.9097870" lon="-3.0267170">
        <ele>816.0</ele>
        <time>2020-07-16T05:01:44Z</time>
      </trkpt>
      <trkpt lat="37.9096910" lon="-3.0269750">
        <ele>816.8</ele>
        <time>2020-07-16T05:01:50Z</time>
      </trkpt>
      <trkpt lat="37.9096460" lon="-3.0270620">
        <ele>817.0</ele>
        <time>2020-07-16T05:01:52Z</time>
      </trkpt>
      <trkpt lat="37.9094160" lon="-3.0273610">
        <ele>817.0</ele>
        <time>2020-07-16T05:01:59Z</time>
      </trkpt>
      <trkpt lat="37.9092180" lon="-3.0275750">
        <ele>817.0</ele>
        <time>2020-07-16T05:02:04Z</time>
      </trkpt>
      <trkpt lat="37.9090580" lon="-3.0277420">
        <ele>816.8</ele>
        <time>2020-07-16T05:02:08Z</time>
      </trkpt>
      <trkpt lat="37.9089340" lon="-3.0278620">
        <ele>816.8</ele>
        <time>2020-07-16T05:02:11Z</time>
      </trkpt>
      <trkpt lat="37.9088030" lon="-3.0279730">
        <ele>816.8</ele>
        <time>2020-07-16T05:02:14Z</time>
      </trkpt>
      <trkpt lat="37.9087110" lon="-3.0280450">
        <ele>816.6</ele>
        <time>2020-07-16T05:02:16Z</time>
      </trkpt>
      <trkpt lat="37.9083540" lon="-3.0283110">
        <ele>816.0</ele>
        <time>2020-07-16T05:02:23Z</time>
      </trkpt>
      <trkpt lat="37.9082940" lon="-3.0283420">
        <ele>816.0</ele>
        <time>2020-07-16T05:02:24Z</time>
      </trkpt>
      <trkpt lat="37.9081160" lon="-3.0283760">
        <ele>815.8</ele>
        <time>2020-07-16T05:02:27Z</time>
      </trkpt>
      <trkpt lat="37.9080540" lon="-3.0283710">
        <ele>815.8</ele>
        <time>2020-07-16T05:02:28Z</time>
      </trkpt>
      <trkpt lat="37.9078700" lon="-3.0283210">
        <ele>815.8</ele>
        <time>2020-07-16T05:02:31Z</time>
      </trkpt>
      <trkpt lat="37.9077590" lon="-3.0282750">
        <ele>815.8</ele>
        <time>2020-07-16T05:02:33Z</time>
      </trkpt>
      <trkpt lat="37.9072250" lon="-3.0280430">
        <ele>816.0</ele>
        <time>2020-07-16T05:02:42Z</time>
      </trkpt>
      <trkpt lat="37.9071720" lon="-3.0280190">
        <ele>816.0</ele>
        <time>2020-07-16T05:02:43Z</time>
      </trkpt>
      <trkpt lat="37.9067530" lon="-3.0278350">
        <ele>816.8</ele>
        <time>2020-07-16T05:02:51Z</time>
      </trkpt>
      <trkpt lat="37.9067000" lon="-3.0278130">
        <ele>816.8</ele>
        <time>2020-07-16T05:02:52Z</time>
      </trkpt>
      <trkpt lat="37.9062250" lon="-3.0276800">
        <ele>817.6</ele>
        <time>2020-07-16T05:03:01Z</time>
      </trkpt>
      <trkpt lat="37.9059580" lon="-3.0276430">
        <ele>817.8</ele>
        <time>2020-07-16T05:03:06Z</time>
      </trkpt>
      <trkpt lat="37.9056950" lon="-3.0275730">
        <ele>818.0</ele>
        <time>2020-07-16T05:03:11Z</time>
      </trkpt>
      <trkpt lat="37.9052940" lon="-3.0273590">
        <ele>818.4</ele>
        <time>2020-07-16T05:03:19Z</time>
      </trkpt>
      <trkpt lat="37.9049420" lon="-3.0270540">
        <ele>818.8</ele>
        <time>2020-07-16T05:03:27Z</time>
      </trkpt>
      <trkpt lat="37.9048170" lon="-3.0269410">
        <ele>819.0</ele>
        <time>2020-07-16T05:03:30Z</time>
      </trkpt>
      <trkpt lat="37.9046260" lon="-3.0267680">
        <ele>819.8</ele>
        <time>2020-07-16T05:03:35Z</time>
      </trkpt>
      <trkpt lat="37.9045190" lon="-3.0266720">
        <ele>820.4</ele>
        <time>2020-07-16T05:03:38Z</time>
      </trkpt>
      <trkpt lat="37.9044080" lon="-3.0265920">
        <ele>820.8</ele>
        <time>2020-07-16T05:03:41Z</time>
      </trkpt>
      <trkpt lat="37.9042900" lon="-3.0265370">
        <ele>821.4</ele>
        <time>2020-07-16T05:03:44Z</time>
      </trkpt>
      <trkpt lat="37.9042510" lon="-3.0265240">
        <ele>821.4</ele>
        <time>2020-07-16T05:03:45Z</time>
      </trkpt>
      <trkpt lat="37.9040730" lon="-3.0264870">
        <ele>822.0</ele>
        <time>2020-07-16T05:03:49Z</time>
      </trkpt>
      <trkpt lat="37.9038610" lon="-3.0264570">
        <ele>822.4</ele>
        <time>2020-07-16T05:03:54Z</time>
      </trkpt>
      <trkpt lat="37.9038190" lon="-3.0264450">
        <ele>822.6</ele>
        <time>2020-07-16T05:03:55Z</time>
      </trkpt>
      <trkpt lat="37.9037420" lon="-3.0264110">
        <ele>823.0</ele>
        <time>2020-07-16T05:03:57Z</time>
      </trkpt>
      <trkpt lat="37.9036310" lon="-3.0263340">
        <ele>823.4</ele>
        <time>2020-07-16T05:04:00Z</time>
      </trkpt>
      <trkpt lat="37.9035650" lon="-3.0262670">
        <ele>823.8</ele>
        <time>2020-07-16T05:04:02Z</time>
      </trkpt>
      <trkpt lat="37.9035360" lon="-3.0262360">
        <ele>824.0</ele>
        <time>2020-07-16T05:04:03Z</time>
      </trkpt>
      <trkpt lat="37.9034390" lon="-3.0261240">
        <ele>824.4</ele>
        <time>2020-07-16T05:04:06Z</time>
      </trkpt>
      <trkpt lat="37.9031600" lon="-3.0257650">
        <ele>825.0</ele>
        <time>2020-07-16T05:04:15Z</time>
      </trkpt>
      <trkpt lat="37.9031240" lon="-3.0257240">
        <ele>825.0</ele>
        <time>2020-07-16T05:04:16Z</time>
      </trkpt>
      <trkpt lat="37.9027960" lon="-3.0254170">
        <ele>825.4</ele>
        <time>2020-07-16T05:04:25Z</time>
      </trkpt>
      <trkpt lat="37.9025380" lon="-3.0252040">
        <ele>826.0</ele>
        <time>2020-07-16T05:04:32Z</time>
      </trkpt>
      <trkpt lat="37.9024180" lon="-3.0251210">
        <ele>826.2</ele>
        <time>2020-07-16T05:04:35Z</time>
      </trkpt>
      <trkpt lat="37.9023730" lon="-3.0251000">
        <ele>826.2</ele>
        <time>2020-07-16T05:04:36Z</time>
      </trkpt>
      <trkpt lat="37.9022300" lon="-3.0250600">
        <ele>826.2</ele>
        <time>2020-07-16T05:04:39Z</time>
      </trkpt>
      <trkpt lat="37.9021770" lon="-3.0250560">
        <ele>826.2</ele>
        <time>2020-07-16T05:04:40Z</time>
      </trkpt>
      <trkpt lat="37.9017490" lon="-3.0250530">
        <ele>826.8</ele>
        <time>2020-07-16T05:04:49Z</time>
      </trkpt>
      <trkpt lat="37.9016650" lon="-3.0250560">
        <ele>827.2</ele>
        <time>2020-07-16T05:04:51Z</time>
      </trkpt>
      <trkpt lat="37.9014920" lon="-3.0250560">
        <ele>828.0</ele>
        <time>2020-07-16T05:04:55Z</time>
      </trkpt>
      <trkpt lat="37.9014530" lon="-3.0250530">
        <ele>828.2</ele>
        <time>2020-07-16T05:04:56Z</time>
      </trkpt>
      <trkpt lat="37.9013000" lon="-3.0250290">
        <ele>829.0</ele>
        <time>2020-07-16T05:05:00Z</time>
      </trkpt>
      <trkpt lat="37.9012650" lon="-3.0250180">
        <ele>829.2</ele>
        <time>2020-07-16T05:05:01Z</time>
      </trkpt>
      <trkpt lat="37.9012280" lon="-3.0250040">
        <ele>829.4</ele>
        <time>2020-07-16T05:05:02Z</time>
      </trkpt>
      <trkpt lat="37.9010950" lon="-3.0249520">
        <ele>830.4</ele>
        <time>2020-07-16T05:05:06Z</time>
      </trkpt>
      <trkpt lat="37.9009700" lon="-3.0248960">
        <ele>831.6</ele>
        <time>2020-07-16T05:05:10Z</time>
      </trkpt>
      <trkpt lat="37.9008270" lon="-3.0248140">
        <ele>832.6</ele>
        <time>2020-07-16T05:05:15Z</time>
      </trkpt>
      <trkpt lat="37.9006810" lon="-3.0247340">
        <ele>833.6</ele>
        <time>2020-07-16T05:05:20Z</time>
      </trkpt>
      <trkpt lat="37.9005980" lon="-3.0246790">
        <ele>834.2</ele>
        <time>2020-07-16T05:05:23Z</time>
      </trkpt>
      <trkpt lat="37.9005120" lon="-3.0246290">
        <ele>834.8</ele>
        <time>2020-07-16T05:05:26Z</time>
      </trkpt>
      <trkpt lat="37.9004020" lon="-3.0245660">
        <ele>835.8</ele>
        <time>2020-07-16T05:05:30Z</time>
      </trkpt>
      <trkpt lat="37.9003780" lon="-3.0245530">
        <ele>835.8</ele>
        <time>2020-07-16T05:05:31Z</time>
      </trkpt>
      <trkpt lat="37.9002650" lon="-3.0245020">
        <ele>836.6</ele>
        <time>2020-07-16T05:05:35Z</time>
      </trkpt>
      <trkpt lat="37.9001980" lon="-3.0244790">
        <ele>837.0</ele>
        <time>2020-07-16T05:05:37Z</time>
      </trkpt>
      <trkpt lat="37.9000890" lon="-3.0244530">
        <ele>837.6</ele>
        <time>2020-07-16T05:05:40Z</time>
      </trkpt>
      <trkpt lat="37.8999320" lon="-3.0244770">
        <ele>838.0</ele>
        <time>2020-07-16T05:05:44Z</time>
      </trkpt>
      <trkpt lat="37.8998950" lon="-3.0244980">
        <ele>838.2</ele>
        <time>2020-07-16T05:05:45Z</time>
      </trkpt>
      <trkpt lat="37.8997940" lon="-3.0245990">
        <ele>838.4</ele>
        <time>2020-07-16T05:05:48Z</time>
      </trkpt>
      <trkpt lat="37.8997470" lon="-3.0246930">
        <ele>838.4</ele>
        <time>2020-07-16T05:05:50Z</time>
      </trkpt>
      <trkpt lat="37.8997240" lon="-3.0249180">
        <ele>838.6</ele>
        <time>2020-07-16T05:05:54Z</time>
      </trkpt>
      <trkpt lat="37.8997450" lon="-3.0250140">
        <ele>838.8</ele>
        <time>2020-07-16T05:05:56Z</time>
      </trkpt>
      <trkpt lat="37.8997770" lon="-3.0250940">
        <ele>839.4</ele>
        <time>2020-07-16T05:05:58Z</time>
      </trkpt>
      <trkpt lat="37.8997990" lon="-3.0251340">
        <ele>839.6</ele>
        <time>2020-07-16T05:05:59Z</time>
      </trkpt>
      <trkpt lat="37.8998720" lon="-3.0252350">
        <ele>840.6</ele>
        <time>2020-07-16T05:06:02Z</time>
      </trkpt>
      <trkpt lat="37.8999640" lon="-3.0253390">
        <ele>841.0</ele>
        <time>2020-07-16T05:06:05Z</time>
      </trkpt>
      <trkpt lat="37.9000920" lon="-3.0254680">
        <ele>841.6</ele>
        <time>2020-07-16T05:06:09Z</time>
      </trkpt>
      <trkpt lat="37.9002890" lon="-3.0256600">
        <ele>842.2</ele>
        <time>2020-07-16T05:06:15Z</time>
      </trkpt>
      <trkpt lat="37.9003750" lon="-3.0257420">
        <ele>842.4</ele>
        <time>2020-07-16T05:06:17Z</time>
      </trkpt>
      <trkpt lat="37.9004420" lon="-3.0258080">
        <ele>842.8</ele>
        <time>2020-07-16T05:06:19Z</time>
      </trkpt>
      <trkpt lat="37.9006880" lon="-3.0260610">
        <ele>843.6</ele>
        <time>2020-07-16T05:06:27Z</time>
      </trkpt>
      <trkpt lat="37.9007210" lon="-3.0260920">
        <ele>843.8</ele>
        <time>2020-07-16T05:06:28Z</time>
      </trkpt>
      <trkpt lat="37.9009770" lon="-3.0263470">
        <ele>844.4</ele>
        <time>2020-07-16T05:06:35Z</time>
      </trkpt>
      <trkpt lat="37.9010160" lon="-3.0263850">
        <ele>844.4</ele>
        <time>2020-07-16T05:06:36Z</time>
      </trkpt>
      <trkpt lat="37.9012120" lon="-3.0265880">
        <ele>844.6</ele>
        <time>2020-07-16T05:06:41Z</time>
      </trkpt>
      <trkpt lat="37.9013240" lon="-3.0267350">
        <ele>844.6</ele>
        <time>2020-07-16T05:06:44Z</time>
      </trkpt>
      <trkpt lat="37.9013580" lon="-3.0267860">
        <ele>844.6</ele>
        <time>2020-07-16T05:06:45Z</time>
      </trkpt>
      <trkpt lat="37.9014670" lon="-3.0269570">
        <ele>844.4</ele>
        <time>2020-07-16T05:06:48Z</time>
      </trkpt>
      <trkpt lat="37.9016980" lon="-3.0273750">
        <ele>844.2</ele>
        <time>2020-07-16T05:06:55Z</time>
      </trkpt>
      <trkpt lat="37.9017960" lon="-3.0277850">
        <ele>844.4</ele>
        <time>2020-07-16T05:07:01Z</time>
      </trkpt>
      <trkpt lat="37.9019190" lon="-3.0284150">
        <ele>844.8</ele>
        <time>2020-07-16T05:07:10Z</time>
      </trkpt>
      <trkpt lat="37.9019380" lon="-3.0284820">
        <ele>844.8</ele>
        <time>2020-07-16T05:07:11Z</time>
      </trkpt>
      <trkpt lat="37.9021160" lon="-3.0290530">
        <ele>844.8</ele>
        <time>2020-07-16T05:07:19Z</time>
      </trkpt>
      <trkpt lat="37.9021910" lon="-3.0295320">
        <ele>844.6</ele>
        <time>2020-07-16T05:07:25Z</time>
      </trkpt>
      <trkpt lat="37.9021960" lon="-3.0299730">
        <ele>844.4</ele>
        <time>2020-07-16T05:07:30Z</time>
      </trkpt>
      <trkpt lat="37.9021980" lon="-3.0302250">
        <ele>843.8</ele>
        <time>2020-07-16T05:07:33Z</time>
      </trkpt>
      <trkpt lat="37.9022310" lon="-3.0304970">
        <ele>843.4</ele>
        <time>2020-07-16T05:07:36Z</time>
      </trkpt>
      <trkpt lat="37.9022810" lon="-3.0306650">
        <ele>843.2</ele>
        <time>2020-07-16T05:07:38Z</time>
      </trkpt>
      <trkpt lat="37.9023410" lon="-3.0308370">
        <ele>842.8</ele>
        <time>2020-07-16T05:07:40Z</time>
      </trkpt>
      <trkpt lat="37.9024060" lon="-3.0310090">
        <ele>842.2</ele>
        <time>2020-07-16T05:07:42Z</time>
      </trkpt>
      <trkpt lat="37.9024690" lon="-3.0311880">
        <ele>841.8</ele>
        <time>2020-07-16T05:07:44Z</time>
      </trkpt>
      <trkpt lat="37.9024990" lon="-3.0312720">
        <ele>841.6</ele>
        <time>2020-07-16T05:07:45Z</time>
      </trkpt>
      <trkpt lat="37.9026290" lon="-3.0316450">
        <ele>840.4</ele>
        <time>2020-07-16T05:07:49Z</time>
      </trkpt>
      <trkpt lat="37.9027170" lon="-3.0319170">
        <ele>839.6</ele>
        <time>2020-07-16T05:07:52Z</time>
      </trkpt>
      <trkpt lat="37.9027530" lon="-3.0321030">
        <ele>839.4</ele>
        <time>2020-07-16T05:07:54Z</time>
      </trkpt>
      <trkpt lat="37.9027690" lon="-3.0324880">
        <ele>839.2</ele>
        <time>2020-07-16T05:07:58Z</time>
      </trkpt>
      <trkpt lat="37.9027600" lon="-3.0325920">
        <ele>839.0</ele>
        <time>2020-07-16T05:07:59Z</time>
      </trkpt>
      <trkpt lat="37.9026520" lon="-3.0330510">
        <ele>838.8</ele>
        <time>2020-07-16T05:08:04Z</time>
      </trkpt>
      <trkpt lat="37.9025130" lon="-3.0335070">
        <ele>838.4</ele>
        <time>2020-07-16T05:08:09Z</time>
      </trkpt>
      <trkpt lat="37.9024550" lon="-3.0338010">
        <ele>838.0</ele>
        <time>2020-07-16T05:08:12Z</time>
      </trkpt>
      <trkpt lat="37.9024650" lon="-3.0342080">
        <ele>837.6</ele>
        <time>2020-07-16T05:08:16Z</time>
      </trkpt>
      <trkpt lat="37.9024710" lon="-3.0343130">
        <ele>837.4</ele>
        <time>2020-07-16T05:08:17Z</time>
      </trkpt>
      <trkpt lat="37.9025210" lon="-3.0349470">
        <ele>836.2</ele>
        <time>2020-07-16T05:08:23Z</time>
      </trkpt>
      <trkpt lat="37.9025360" lon="-3.0351520">
        <ele>836.0</ele>
        <time>2020-07-16T05:08:25Z</time>
      </trkpt>
      <trkpt lat="37.9025790" lon="-3.0355700">
        <ele>836.4</ele>
        <time>2020-07-16T05:08:30Z</time>
      </trkpt>
      <trkpt lat="37.9025810" lon="-3.0357970">
        <ele>836.8</ele>
        <time>2020-07-16T05:08:33Z</time>
      </trkpt>
      <trkpt lat="37.9025670" lon="-3.0359660">
        <ele>837.2</ele>
        <time>2020-07-16T05:08:35Z</time>
      </trkpt>
      <trkpt lat="37.9025570" lon="-3.0360490">
        <ele>837.4</ele>
        <time>2020-07-16T05:08:36Z</time>
      </trkpt>
      <trkpt lat="37.9024210" lon="-3.0365650">
        <ele>837.6</ele>
        <time>2020-07-16T05:08:42Z</time>
      </trkpt>
      <trkpt lat="37.9022940" lon="-3.0369500">
        <ele>836.2</ele>
        <time>2020-07-16T05:08:46Z</time>
      </trkpt>
      <trkpt lat="37.9022490" lon="-3.0371460">
        <ele>835.4</ele>
        <time>2020-07-16T05:08:48Z</time>
      </trkpt>
      <trkpt lat="37.9022260" lon="-3.0373520">
        <ele>835.0</ele>
        <time>2020-07-16T05:08:50Z</time>
      </trkpt>
      <trkpt lat="37.9022220" lon="-3.0375600">
        <ele>834.6</ele>
        <time>2020-07-16T05:08:52Z</time>
      </trkpt>
      <trkpt lat="37.9021520" lon="-3.0382470">
        <ele>834.2</ele>
        <time>2020-07-16T05:08:59Z</time>
      </trkpt>
      <trkpt lat="37.9021370" lon="-3.0384430">
        <ele>834.2</ele>
        <time>2020-07-16T05:09:01Z</time>
      </trkpt>
      <trkpt lat="37.9020620" lon="-3.0391740">
        <ele>834.6</ele>
        <time>2020-07-16T05:09:09Z</time>
      </trkpt>
      <trkpt lat="37.9020560" lon="-3.0392640">
        <ele>834.6</ele>
        <time>2020-07-16T05:09:10Z</time>
      </trkpt>
      <trkpt lat="37.9019910" lon="-3.0399350">
        <ele>835.4</ele>
        <time>2020-07-16T05:09:18Z</time>
      </trkpt>
      <trkpt lat="37.9018720" lon="-3.0405820">
        <ele>835.4</ele>
        <time>2020-07-16T05:09:25Z</time>
      </trkpt>
      <trkpt lat="37.9017440" lon="-3.0407880">
        <ele>834.4</ele>
        <time>2020-07-16T05:09:28Z</time>
      </trkpt>
      <trkpt lat="37.9016220" lon="-3.0409030">
        <ele>833.8</ele>
        <time>2020-07-16T05:09:30Z</time>
      </trkpt>
      <trkpt lat="37.9014790" lon="-3.0409770">
        <ele>833.0</ele>
        <time>2020-07-16T05:09:32Z</time>
      </trkpt>
      <trkpt lat="37.9013150" lon="-3.0409930">
        <ele>832.6</ele>
        <time>2020-07-16T05:09:34Z</time>
      </trkpt>
      <trkpt lat="37.9012330" lon="-3.0409780">
        <ele>832.2</ele>
        <time>2020-07-16T05:09:35Z</time>
      </trkpt>
      <trkpt lat="37.9010640" lon="-3.0409310">
        <ele>831.8</ele>
        <time>2020-07-16T05:09:37Z</time>
      </trkpt>
      <trkpt lat="37.9009750" lon="-3.0409040">
        <ele>831.4</ele>
        <time>2020-07-16T05:09:38Z</time>
      </trkpt>
      <trkpt lat="37.9007800" lon="-3.0408380">
        <ele>830.6</ele>
        <time>2020-07-16T05:09:40Z</time>
      </trkpt>
      <trkpt lat="37.9006790" lon="-3.0408060">
        <ele>830.0</ele>
        <time>2020-07-16T05:09:41Z</time>
      </trkpt>
      <trkpt lat="37.9003560" lon="-3.0407410">
        <ele>828.2</ele>
        <time>2020-07-16T05:09:44Z</time>
      </trkpt>
      <trkpt lat="37.9002490" lon="-3.0407550">
        <ele>827.8</ele>
        <time>2020-07-16T05:09:45Z</time>
      </trkpt>
      <trkpt lat="37.9001270" lon="-3.0407830">
        <ele>827.2</ele>
        <time>2020-07-16T05:09:46Z</time>
      </trkpt>
      <trkpt lat="37.8999070" lon="-3.0408510">
        <ele>825.8</ele>
        <time>2020-07-16T05:09:48Z</time>
      </trkpt>
      <trkpt lat="37.8997950" lon="-3.0408900">
        <ele>825.0</ele>
        <time>2020-07-16T05:09:49Z</time>
      </trkpt>
      <trkpt lat="37.8996900" lon="-3.0409260">
        <ele>824.2</ele>
        <time>2020-07-16T05:09:50Z</time>
      </trkpt>
      <trkpt lat="37.8995040" lon="-3.0409860">
        <ele>823.0</ele>
        <time>2020-07-16T05:09:52Z</time>
      </trkpt>
      <trkpt lat="37.8993340" lon="-3.0410380">
        <ele>822.8</ele>
        <time>2020-07-16T05:09:54Z</time>
      </trkpt>
      <trkpt lat="37.8991160" lon="-3.0410820">
        <ele>824.2</ele>
        <time>2020-07-16T05:09:57Z</time>
      </trkpt>
      <trkpt lat="37.8989680" lon="-3.0410810">
        <ele>825.2</ele>
        <time>2020-07-16T05:09:59Z</time>
      </trkpt>
      <trkpt lat="37.8985940" lon="-3.0409890">
        <ele>825.4</ele>
        <time>2020-07-16T05:10:04Z</time>
      </trkpt>
      <trkpt lat="37.8984010" lon="-3.0409640">
        <ele>825.0</ele>
        <time>2020-07-16T05:10:06Z</time>
      </trkpt>
      <trkpt lat="37.8982260" lon="-3.0410370">
        <ele>824.4</ele>
        <time>2020-07-16T05:10:08Z</time>
      </trkpt>
      <trkpt lat="37.8981490" lon="-3.0411130">
        <ele>824.0</ele>
        <time>2020-07-16T05:10:09Z</time>
      </trkpt>
      <trkpt lat="37.8980420" lon="-3.0413270">
        <ele>823.0</ele>
        <time>2020-07-16T05:10:11Z</time>
      </trkpt>
      <trkpt lat="37.8980340" lon="-3.0415670">
        <ele>821.8</ele>
        <time>2020-07-16T05:10:13Z</time>
      </trkpt>
      <trkpt lat="37.8980950" lon="-3.0417910">
        <ele>820.8</ele>
        <time>2020-07-16T05:10:15Z</time>
      </trkpt>
      <trkpt lat="37.8981330" lon="-3.0419040">
        <ele>820.4</ele>
        <time>2020-07-16T05:10:16Z</time>
      </trkpt>
      <trkpt lat="37.8982670" lon="-3.0423410">
        <ele>819.6</ele>
        <time>2020-07-16T05:10:20Z</time>
      </trkpt>
      <trkpt lat="37.8983490" lon="-3.0426810">
        <ele>818.8</ele>
        <time>2020-07-16T05:10:23Z</time>
      </trkpt>
      <trkpt lat="37.8983740" lon="-3.0428050">
        <ele>818.6</ele>
        <time>2020-07-16T05:10:24Z</time>
      </trkpt>
      <trkpt lat="37.8984080" lon="-3.0431670">
        <ele>817.4</ele>
        <time>2020-07-16T05:10:27Z</time>
      </trkpt>
      <trkpt lat="37.8984120" lon="-3.0433000">
        <ele>817.2</ele>
        <time>2020-07-16T05:10:28Z</time>
      </trkpt>
      <trkpt lat="37.8983910" lon="-3.0438370">
        <ele>816.2</ele>
        <time>2020-07-16T05:10:32Z</time>
      </trkpt>
      <trkpt lat="37.8983820" lon="-3.0439490">
        <ele>815.8</ele>
        <time>2020-07-16T05:10:33Z</time>
      </trkpt>
      <trkpt lat="37.8983460" lon="-3.0442180">
        <ele>815.0</ele>
        <time>2020-07-16T05:10:35Z</time>
      </trkpt>
      <trkpt lat="37.8983050" lon="-3.0443320">
        <ele>814.4</ele>
        <time>2020-07-16T05:10:36Z</time>
      </trkpt>
      <trkpt lat="37.8982460" lon="-3.0444290">
        <ele>814.0</ele>
        <time>2020-07-16T05:10:37Z</time>
      </trkpt>
      <trkpt lat="37.8981750" lon="-3.0444960">
        <ele>813.8</ele>
        <time>2020-07-16T05:10:38Z</time>
      </trkpt>
      <trkpt lat="37.8980890" lon="-3.0445460">
        <ele>813.4</ele>
        <time>2020-07-16T05:10:39Z</time>
      </trkpt>
      <trkpt lat="37.8978150" lon="-3.0445650">
        <ele>813.2</ele>
        <time>2020-07-16T05:10:42Z</time>
      </trkpt>
      <trkpt lat="37.8976420" lon="-3.0444740">
        <ele>812.8</ele>
        <time>2020-07-16T05:10:44Z</time>
      </trkpt>
      <trkpt lat="37.8975550" lon="-3.0444220">
        <ele>812.4</ele>
        <time>2020-07-16T05:10:45Z</time>
      </trkpt>
      <trkpt lat="37.8973640" lon="-3.0443080">
        <ele>811.4</ele>
        <time>2020-07-16T05:10:47Z</time>
      </trkpt>
      <trkpt lat="37.8971590" lon="-3.0441870">
        <ele>810.2</ele>
        <time>2020-07-16T05:10:49Z</time>
      </trkpt>
      <trkpt lat="37.8969550" lon="-3.0440720">
        <ele>809.2</ele>
        <time>2020-07-16T05:10:51Z</time>
      </trkpt>
      <trkpt lat="37.8968420" lon="-3.0440060">
        <ele>808.6</ele>
        <time>2020-07-16T05:10:52Z</time>
      </trkpt>
      <trkpt lat="37.8965090" lon="-3.0438070">
        <ele>807.0</ele>
        <time>2020-07-16T05:10:55Z</time>
      </trkpt>
      <trkpt lat="37.8963930" lon="-3.0437400">
        <ele>805.8</ele>
        <time>2020-07-16T05:10:56Z</time>
      </trkpt>
      <trkpt lat="37.8962890" lon="-3.0436780">
        <ele>804.6</ele>
        <time>2020-07-16T05:10:57Z</time>
      </trkpt>
      <trkpt lat="37.8961850" lon="-3.0436200">
        <ele>803.6</ele>
        <time>2020-07-16T05:10:58Z</time>
      </trkpt>
      <trkpt lat="37.8960770" lon="-3.0435660">
        <ele>802.6</ele>
        <time>2020-07-16T05:10:59Z</time>
      </trkpt>
      <trkpt lat="37.8958680" lon="-3.0435180">
        <ele>800.6</ele>
        <time>2020-07-16T05:11:01Z</time>
      </trkpt>
      <trkpt lat="37.8956790" lon="-3.0435960">
        <ele>799.0</ele>
        <time>2020-07-16T05:11:03Z</time>
      </trkpt>
      <trkpt lat="37.8955470" lon="-3.0438050">
        <ele>797.8</ele>
        <time>2020-07-16T05:11:05Z</time>
      </trkpt>
      <trkpt lat="37.8955490" lon="-3.0440530">
        <ele>796.6</ele>
        <time>2020-07-16T05:11:07Z</time>
      </trkpt>
      <trkpt lat="37.8956350" lon="-3.0442510">
        <ele>795.8</ele>
        <time>2020-07-16T05:11:09Z</time>
      </trkpt>
      <trkpt lat="37.8957010" lon="-3.0443540">
        <ele>795.6</ele>
        <time>2020-07-16T05:11:10Z</time>
      </trkpt>
      <trkpt lat="37.8957640" lon="-3.0444440">
        <ele>795.4</ele>
        <time>2020-07-16T05:11:11Z</time>
      </trkpt>
      <trkpt lat="37.8958740" lon="-3.0446360">
        <ele>795.4</ele>
        <time>2020-07-16T05:11:13Z</time>
      </trkpt>
      <trkpt lat="37.8959210" lon="-3.0447510">
        <ele>795.6</ele>
        <time>2020-07-16T05:11:14Z</time>
      </trkpt>
      <trkpt lat="37.8959710" lon="-3.0449670">
        <ele>795.4</ele>
        <time>2020-07-16T05:11:16Z</time>
      </trkpt>
      <trkpt lat="37.8959840" lon="-3.0452970">
        <ele>795.2</ele>
        <time>2020-07-16T05:11:19Z</time>
      </trkpt>
      <trkpt lat="37.8959700" lon="-3.0454070">
        <ele>795.2</ele>
        <time>2020-07-16T05:11:20Z</time>
      </trkpt>
      <trkpt lat="37.8959290" lon="-3.0456220">
        <ele>795.6</ele>
        <time>2020-07-16T05:11:22Z</time>
      </trkpt>
      <trkpt lat="37.8958730" lon="-3.0459330">
        <ele>795.8</ele>
        <time>2020-07-16T05:11:25Z</time>
      </trkpt>
      <trkpt lat="37.8958690" lon="-3.0460400">
        <ele>795.6</ele>
        <time>2020-07-16T05:11:26Z</time>
      </trkpt>
      <trkpt lat="37.8958700" lon="-3.0463470">
        <ele>795.2</ele>
        <time>2020-07-16T05:11:29Z</time>
      </trkpt>
      <trkpt lat="37.8958550" lon="-3.0468700">
        <ele>794.8</ele>
        <time>2020-07-16T05:11:34Z</time>
      </trkpt>
      <trkpt lat="37.8958400" lon="-3.0470840">
        <ele>795.0</ele>
        <time>2020-07-16T05:11:36Z</time>
      </trkpt>
      <trkpt lat="37.8958110" lon="-3.0471790">
        <ele>795.0</ele>
        <time>2020-07-16T05:11:37Z</time>
      </trkpt>
      <trkpt lat="37.8957070" lon="-3.0473350">
        <ele>795.0</ele>
        <time>2020-07-16T05:11:39Z</time>
      </trkpt>
      <trkpt lat="37.8954860" lon="-3.0474450">
        <ele>794.8</ele>
        <time>2020-07-16T05:11:42Z</time>
      </trkpt>
      <trkpt lat="37.8954140" lon="-3.0474680">
        <ele>794.8</ele>
        <time>2020-07-16T05:11:43Z</time>
      </trkpt>
      <trkpt lat="37.8949910" lon="-3.0476100">
        <ele>795.0</ele>
        <time>2020-07-16T05:11:49Z</time>
      </trkpt>
      <trkpt lat="37.8945840" lon="-3.0477520">
        <ele>796.2</ele>
        <time>2020-07-16T05:11:56Z</time>
      </trkpt>
      <trkpt lat="37.8943950" lon="-3.0478830">
        <ele>796.6</ele>
        <time>2020-07-16T05:12:00Z</time>
      </trkpt>
      <trkpt lat="37.8943560" lon="-3.0479330">
        <ele>796.6</ele>
        <time>2020-07-16T05:12:01Z</time>
      </trkpt>
      <trkpt lat="37.8942180" lon="-3.0481990">
        <ele>796.8</ele>
        <time>2020-07-16T05:12:05Z</time>
      </trkpt>
      <trkpt lat="37.8941840" lon="-3.0482790">
        <ele>796.6</ele>
        <time>2020-07-16T05:12:06Z</time>
      </trkpt>
      <trkpt lat="37.8940370" lon="-3.0486210">
        <ele>795.6</ele>
        <time>2020-07-16T05:12:10Z</time>
      </trkpt>
      <trkpt lat="37.8939190" lon="-3.0488950">
        <ele>794.8</ele>
        <time>2020-07-16T05:12:13Z</time>
      </trkpt>
      <trkpt lat="37.8938720" lon="-3.0489930">
        <ele>794.4</ele>
        <time>2020-07-16T05:12:14Z</time>
      </trkpt>
      <trkpt lat="37.8937450" lon="-3.0492810">
        <ele>793.4</ele>
        <time>2020-07-16T05:12:17Z</time>
      </trkpt>
      <trkpt lat="37.8936230" lon="-3.0495630">
        <ele>792.6</ele>
        <time>2020-07-16T05:12:20Z</time>
      </trkpt>
      <trkpt lat="37.8935490" lon="-3.0497360">
        <ele>792.4</ele>
        <time>2020-07-16T05:12:22Z</time>
      </trkpt>
      <trkpt lat="37.8934750" lon="-3.0499070">
        <ele>792.2</ele>
        <time>2020-07-16T05:12:24Z</time>
      </trkpt>
      <trkpt lat="37.8934020" lon="-3.0500710">
        <ele>792.2</ele>
        <time>2020-07-16T05:12:26Z</time>
      </trkpt>
      <trkpt lat="37.8933700" lon="-3.0501410">
        <ele>792.2</ele>
        <time>2020-07-16T05:12:27Z</time>
      </trkpt>
      <trkpt lat="37.8933260" lon="-3.0502290">
        <ele>792.0</ele>
        <time>2020-07-16T05:12:28Z</time>
      </trkpt>
      <trkpt lat="37.8931220" lon="-3.0505080">
        <ele>791.6</ele>
        <time>2020-07-16T05:12:32Z</time>
      </trkpt>
      <trkpt lat="37.8930670" lon="-3.0505580">
        <ele>791.6</ele>
        <time>2020-07-16T05:12:33Z</time>
      </trkpt>
      <trkpt lat="37.8928630" lon="-3.0507050">
        <ele>791.4</ele>
        <time>2020-07-16T05:12:36Z</time>
      </trkpt>
      <trkpt lat="37.8925270" lon="-3.0509380">
        <ele>792.2</ele>
        <time>2020-07-16T05:12:42Z</time>
      </trkpt>
      <trkpt lat="37.8923890" lon="-3.0510440">
        <ele>793.0</ele>
        <time>2020-07-16T05:12:45Z</time>
      </trkpt>
      <trkpt lat="37.8923420" lon="-3.0510820">
        <ele>793.2</ele>
        <time>2020-07-16T05:12:46Z</time>
      </trkpt>
      <trkpt lat="37.8922980" lon="-3.0511140">
        <ele>793.4</ele>
        <time>2020-07-16T05:12:47Z</time>
      </trkpt>
      <trkpt lat="37.8921320" lon="-3.0512630">
        <ele>794.4</ele>
        <time>2020-07-16T05:12:51Z</time>
      </trkpt>
      <trkpt lat="37.8920620" lon="-3.0513580">
        <ele>794.6</ele>
        <time>2020-07-16T05:12:53Z</time>
      </trkpt>
      <trkpt lat="37.8920010" lon="-3.0515480">
        <ele>794.4</ele>
        <time>2020-07-16T05:12:56Z</time>
      </trkpt>
      <trkpt lat="37.8919830" lon="-3.0516100">
        <ele>794.6</ele>
        <time>2020-07-16T05:12:57Z</time>
      </trkpt>
      <trkpt lat="37.8919230" lon="-3.0518850">
        <ele>795.6</ele>
        <time>2020-07-16T05:13:01Z</time>
      </trkpt>
      <trkpt lat="37.8918680" lon="-3.0521450">
        <ele>795.6</ele>
        <time>2020-07-16T05:13:05Z</time>
      </trkpt>
      <trkpt lat="37.8918180" lon="-3.0525120">
        <ele>795.6</ele>
        <time>2020-07-16T05:13:10Z</time>
      </trkpt>
      <trkpt lat="37.8918250" lon="-3.0525850">
        <ele>795.8</ele>
        <time>2020-07-16T05:13:11Z</time>
      </trkpt>
      <trkpt lat="37.8918960" lon="-3.0528660">
        <ele>796.0</ele>
        <time>2020-07-16T05:13:15Z</time>
      </trkpt>
      <trkpt lat="37.8919230" lon="-3.0529460">
        <ele>795.8</ele>
        <time>2020-07-16T05:13:16Z</time>
      </trkpt>
      <trkpt lat="37.8921310" lon="-3.0535440">
        <ele>795.6</ele>
        <time>2020-07-16T05:13:24Z</time>
      </trkpt>
      <trkpt lat="37.8921930" lon="-3.0537200">
        <ele>795.2</ele>
        <time>2020-07-16T05:13:26Z</time>
      </trkpt>
      <trkpt lat="37.8922230" lon="-3.0538080">
        <ele>795.2</ele>
        <time>2020-07-16T05:13:27Z</time>
      </trkpt>
      <trkpt lat="37.8923610" lon="-3.0540940">
        <ele>794.4</ele>
        <time>2020-07-16T05:13:30Z</time>
      </trkpt>
      <trkpt lat="37.8924100" lon="-3.0541720">
        <ele>794.0</ele>
        <time>2020-07-16T05:13:31Z</time>
      </trkpt>
      <trkpt lat="37.8924780" lon="-3.0542710">
        <ele>793.4</ele>
        <time>2020-07-16T05:13:32Z</time>
      </trkpt>
      <trkpt lat="37.8926120" lon="-3.0544530">
        <ele>792.2</ele>
        <time>2020-07-16T05:13:34Z</time>
      </trkpt>
      <trkpt lat="37.8927500" lon="-3.0546400">
        <ele>791.4</ele>
        <time>2020-07-16T05:13:36Z</time>
      </trkpt>
      <trkpt lat="37.8928210" lon="-3.0547330">
        <ele>791.0</ele>
        <time>2020-07-16T05:13:37Z</time>
      </trkpt>
      <trkpt lat="37.8930310" lon="-3.0550370">
        <ele>789.6</ele>
        <time>2020-07-16T05:13:40Z</time>
      </trkpt>
      <trkpt lat="37.8930790" lon="-3.0551580">
        <ele>789.0</ele>
        <time>2020-07-16T05:13:41Z</time>
      </trkpt>
      <trkpt lat="37.8931110" lon="-3.0552910">
        <ele>788.4</ele>
        <time>2020-07-16T05:13:42Z</time>
      </trkpt>
      <trkpt lat="37.8931510" lon="-3.0555760">
        <ele>787.2</ele>
        <time>2020-07-16T05:13:44Z</time>
      </trkpt>
      <trkpt lat="37.8931660" lon="-3.0557160">
        <ele>787.0</ele>
        <time>2020-07-16T05:13:45Z</time>
      </trkpt>
      <trkpt lat="37.8931840" lon="-3.0558740">
        <ele>786.0</ele>
        <time>2020-07-16T05:13:46Z</time>
      </trkpt>
      <trkpt lat="37.8932230" lon="-3.0561790">
        <ele>784.8</ele>
        <time>2020-07-16T05:13:48Z</time>
      </trkpt>
      <trkpt lat="37.8932850" lon="-3.0564880">
        <ele>782.2</ele>
        <time>2020-07-16T05:13:50Z</time>
      </trkpt>
      <trkpt lat="37.8934700" lon="-3.0570660">
        <ele>780.6</ele>
        <time>2020-07-16T05:13:54Z</time>
      </trkpt>
      <trkpt lat="37.8935380" lon="-3.0572040">
        <ele>779.6</ele>
        <time>2020-07-16T05:13:55Z</time>
      </trkpt>
      <trkpt lat="37.8936150" lon="-3.0573360">
        <ele>778.6</ele>
        <time>2020-07-16T05:13:56Z</time>
      </trkpt>
      <trkpt lat="37.8937730" lon="-3.0575910">
        <ele>776.8</ele>
        <time>2020-07-16T05:13:58Z</time>
      </trkpt>
      <trkpt lat="37.8938510" lon="-3.0577420">
        <ele>776.0</ele>
        <time>2020-07-16T05:13:59Z</time>
      </trkpt>
      <trkpt lat="37.8939150" lon="-3.0578960">
        <ele>775.0</ele>
        <time>2020-07-16T05:14:00Z</time>
      </trkpt>
      <trkpt lat="37.8939700" lon="-3.0580570">
        <ele>774.0</ele>
        <time>2020-07-16T05:14:01Z</time>
      </trkpt>
      <trkpt lat="37.8940130" lon="-3.0582230">
        <ele>773.0</ele>
        <time>2020-07-16T05:14:02Z</time>
      </trkpt>
      <trkpt lat="37.8940380" lon="-3.0583800">
        <ele>771.8</ele>
        <time>2020-07-16T05:14:03Z</time>
      </trkpt>
      <trkpt lat="37.8940590" lon="-3.0585880">
        <ele>770.4</ele>
        <time>2020-07-16T05:14:04Z</time>
      </trkpt>
      <trkpt lat="37.8940590" lon="-3.0587690">
        <ele>769.2</ele>
        <time>2020-07-16T05:14:05Z</time>
      </trkpt>
      <trkpt lat="37.8940460" lon="-3.0589440">
        <ele>767.8</ele>
        <time>2020-07-16T05:14:06Z</time>
      </trkpt>
      <trkpt lat="37.8940160" lon="-3.0591170">
        <ele>766.6</ele>
        <time>2020-07-16T05:14:07Z</time>
      </trkpt>
      <trkpt lat="37.8939770" lon="-3.0592660">
        <ele>766.0</ele>
        <time>2020-07-16T05:14:08Z</time>
      </trkpt>
      <trkpt lat="37.8939180" lon="-3.0594430">
        <ele>765.4</ele>
        <time>2020-07-16T05:14:09Z</time>
      </trkpt>
      <trkpt lat="37.8938410" lon="-3.0596070">
        <ele>764.2</ele>
        <time>2020-07-16T05:14:10Z</time>
      </trkpt>
      <trkpt lat="37.8937540" lon="-3.0597550">
        <ele>762.6</ele>
        <time>2020-07-16T05:14:11Z</time>
      </trkpt>
      <trkpt lat="37.8936630" lon="-3.0598900">
        <ele>761.2</ele>
        <time>2020-07-16T05:14:12Z</time>
      </trkpt>
      <trkpt lat="37.8935570" lon="-3.0600150">
        <ele>759.2</ele>
        <time>2020-07-16T05:14:13Z</time>
      </trkpt>
      <trkpt lat="37.8934390" lon="-3.0601330">
        <ele>758.2</ele>
        <time>2020-07-16T05:14:14Z</time>
      </trkpt>
      <trkpt lat="37.8933270" lon="-3.0602370">
        <ele>757.2</ele>
        <time>2020-07-16T05:14:15Z</time>
      </trkpt>
      <trkpt lat="37.8930860" lon="-3.0604590">
        <ele>755.4</ele>
        <time>2020-07-16T05:14:17Z</time>
      </trkpt>
      <trkpt lat="37.8928470" lon="-3.0606760">
        <ele>753.4</ele>
        <time>2020-07-16T05:14:19Z</time>
      </trkpt>
      <trkpt lat="37.8927250" lon="-3.0607820">
        <ele>752.2</ele>
        <time>2020-07-16T05:14:20Z</time>
      </trkpt>
      <trkpt lat="37.8926080" lon="-3.0608820">
        <ele>751.2</ele>
        <time>2020-07-16T05:14:21Z</time>
      </trkpt>
      <trkpt lat="37.8924830" lon="-3.0609920">
        <ele>749.8</ele>
        <time>2020-07-16T05:14:22Z</time>
      </trkpt>
      <trkpt lat="37.8922410" lon="-3.0611940">
        <ele>748.2</ele>
        <time>2020-07-16T05:14:24Z</time>
      </trkpt>
      <trkpt lat="37.8919910" lon="-3.0613710">
        <ele>746.8</ele>
        <time>2020-07-16T05:14:26Z</time>
      </trkpt>
      <trkpt lat="37.8918730" lon="-3.0614520">
        <ele>746.0</ele>
        <time>2020-07-16T05:14:27Z</time>
      </trkpt>
      <trkpt lat="37.8917500" lon="-3.0615340">
        <ele>745.6</ele>
        <time>2020-07-16T05:14:28Z</time>
      </trkpt>
      <trkpt lat="37.8913820" lon="-3.0617860">
        <ele>743.8</ele>
        <time>2020-07-16T05:14:31Z</time>
      </trkpt>
      <trkpt lat="37.8911640" lon="-3.0619370">
        <ele>742.6</ele>
        <time>2020-07-16T05:14:33Z</time>
      </trkpt>
      <trkpt lat="37.8909160" lon="-3.0621150">
        <ele>742.0</ele>
        <time>2020-07-16T05:14:35Z</time>
      </trkpt>
      <trkpt lat="37.8908040" lon="-3.0621980">
        <ele>741.4</ele>
        <time>2020-07-16T05:14:36Z</time>
      </trkpt>
      <trkpt lat="37.8906240" lon="-3.0623810">
        <ele>740.4</ele>
        <time>2020-07-16T05:14:38Z</time>
      </trkpt>
      <trkpt lat="37.8905480" lon="-3.0625000">
        <ele>740.0</ele>
        <time>2020-07-16T05:14:39Z</time>
      </trkpt>
      <trkpt lat="37.8903990" lon="-3.0627530">
        <ele>738.8</ele>
        <time>2020-07-16T05:14:41Z</time>
      </trkpt>
      <trkpt lat="37.8902550" lon="-3.0629930">
        <ele>737.6</ele>
        <time>2020-07-16T05:14:43Z</time>
      </trkpt>
      <trkpt lat="37.8901210" lon="-3.0632430">
        <ele>736.0</ele>
        <time>2020-07-16T05:14:45Z</time>
      </trkpt>
      <trkpt lat="37.8900610" lon="-3.0633970">
        <ele>735.4</ele>
        <time>2020-07-16T05:14:46Z</time>
      </trkpt>
      <trkpt lat="37.8900270" lon="-3.0635310">
        <ele>734.8</ele>
        <time>2020-07-16T05:14:47Z</time>
      </trkpt>
      <trkpt lat="37.8900090" lon="-3.0636530">
        <ele>734.0</ele>
        <time>2020-07-16T05:14:48Z</time>
      </trkpt>
      <trkpt lat="37.8900150" lon="-3.0637880">
        <ele>733.2</ele>
        <time>2020-07-16T05:14:49Z</time>
      </trkpt>
      <trkpt lat="37.8900520" lon="-3.0639180">
        <ele>732.4</ele>
        <time>2020-07-16T05:14:50Z</time>
      </trkpt>
      <trkpt lat="37.8900960" lon="-3.0640340">
        <ele>731.8</ele>
        <time>2020-07-16T05:14:51Z</time>
      </trkpt>
      <trkpt lat="37.8901450" lon="-3.0641620">
        <ele>731.2</ele>
        <time>2020-07-16T05:14:52Z</time>
      </trkpt>
      <trkpt lat="37.8901970" lon="-3.0642910">
        <ele>730.2</ele>
        <time>2020-07-16T05:14:53Z</time>
      </trkpt>
      <trkpt lat="37.8902540" lon="-3.0644320">
        <ele>729.4</ele>
        <time>2020-07-16T05:14:54Z</time>
      </trkpt>
      <trkpt lat="37.8903090" lon="-3.0645670">
        <ele>728.6</ele>
        <time>2020-07-16T05:14:55Z</time>
      </trkpt>
      <trkpt lat="37.8904220" lon="-3.0648350">
        <ele>727.0</ele>
        <time>2020-07-16T05:14:57Z</time>
      </trkpt>
      <trkpt lat="37.8905410" lon="-3.0651210">
        <ele>725.6</ele>
        <time>2020-07-16T05:14:59Z</time>
      </trkpt>
      <trkpt lat="37.8906400" lon="-3.0654170">
        <ele>724.0</ele>
        <time>2020-07-16T05:15:01Z</time>
      </trkpt>
      <trkpt lat="37.8906930" lon="-3.0657070">
        <ele>722.4</ele>
        <time>2020-07-16T05:15:03Z</time>
      </trkpt>
      <trkpt lat="37.8907040" lon="-3.0658900">
        <ele>721.8</ele>
        <time>2020-07-16T05:15:04Z</time>
      </trkpt>
      <trkpt lat="37.8906980" lon="-3.0660500">
        <ele>721.0</ele>
        <time>2020-07-16T05:15:05Z</time>
      </trkpt>
      <trkpt lat="37.8906620" lon="-3.0663610">
        <ele>719.6</ele>
        <time>2020-07-16T05:15:07Z</time>
      </trkpt>
      <trkpt lat="37.8905830" lon="-3.0669890">
        <ele>718.0</ele>
        <time>2020-07-16T05:15:11Z</time>
      </trkpt>
      <trkpt lat="37.8905230" lon="-3.0674490">
        <ele>716.0</ele>
        <time>2020-07-16T05:15:14Z</time>
      </trkpt>
      <trkpt lat="37.8904850" lon="-3.0677610">
        <ele>714.6</ele>
        <time>2020-07-16T05:15:16Z</time>
      </trkpt>
      <trkpt lat="37.8904520" lon="-3.0680620">
        <ele>713.2</ele>
        <time>2020-07-16T05:15:18Z</time>
      </trkpt>
      <trkpt lat="37.8904150" lon="-3.0683800">
        <ele>711.6</ele>
        <time>2020-07-16T05:15:20Z</time>
      </trkpt>
      <trkpt lat="37.8903750" lon="-3.0686810">
        <ele>710.0</ele>
        <time>2020-07-16T05:15:22Z</time>
      </trkpt>
      <trkpt lat="37.8903490" lon="-3.0688280">
        <ele>709.2</ele>
        <time>2020-07-16T05:15:23Z</time>
      </trkpt>
      <trkpt lat="37.8903150" lon="-3.0689890">
        <ele>708.6</ele>
        <time>2020-07-16T05:15:24Z</time>
      </trkpt>
      <trkpt lat="37.8902380" lon="-3.0692900">
        <ele>707.2</ele>
        <time>2020-07-16T05:15:26Z</time>
      </trkpt>
      <trkpt lat="37.8901510" lon="-3.0695750">
        <ele>705.8</ele>
        <time>2020-07-16T05:15:28Z</time>
      </trkpt>
      <trkpt lat="37.8900860" lon="-3.0697160">
        <ele>705.0</ele>
        <time>2020-07-16T05:15:29Z</time>
      </trkpt>
      <trkpt lat="37.8900060" lon="-3.0698310">
        <ele>704.4</ele>
        <time>2020-07-16T05:15:30Z</time>
      </trkpt>
      <trkpt lat="37.8899070" lon="-3.0699230">
        <ele>703.8</ele>
        <time>2020-07-16T05:15:31Z</time>
      </trkpt>
      <trkpt lat="37.8897980" lon="-3.0699910">
        <ele>703.2</ele>
        <time>2020-07-16T05:15:32Z</time>
      </trkpt>
      <trkpt lat="37.8895540" lon="-3.0700710">
        <ele>702.0</ele>
        <time>2020-07-16T05:15:34Z</time>
      </trkpt>
      <trkpt lat="37.8894330" lon="-3.0701010">
        <ele>701.4</ele>
        <time>2020-07-16T05:15:35Z</time>
      </trkpt>
      <trkpt lat="37.8893120" lon="-3.0701310">
        <ele>700.8</ele>
        <time>2020-07-16T05:15:36Z</time>
      </trkpt>
      <trkpt lat="37.8890760" lon="-3.0701910">
        <ele>699.8</ele>
        <time>2020-07-16T05:15:38Z</time>
      </trkpt>
      <trkpt lat="37.8887090" lon="-3.0702830">
        <ele>698.2</ele>
        <time>2020-07-16T05:15:41Z</time>
      </trkpt>
      <trkpt lat="37.8884790" lon="-3.0703420">
        <ele>697.2</ele>
        <time>2020-07-16T05:15:43Z</time>
      </trkpt>
      <trkpt lat="37.8881410" lon="-3.0704280">
        <ele>695.8</ele>
        <time>2020-07-16T05:15:46Z</time>
      </trkpt>
      <trkpt lat="37.8878340" lon="-3.0705200">
        <ele>695.4</ele>
        <time>2020-07-16T05:15:49Z</time>
      </trkpt>
      <trkpt lat="37.8876370" lon="-3.0705690">
        <ele>695.2</ele>
        <time>2020-07-16T05:15:51Z</time>
      </trkpt>
      <trkpt lat="37.8873370" lon="-3.0706440">
        <ele>695.0</ele>
        <time>2020-07-16T05:15:54Z</time>
      </trkpt>
      <trkpt lat="37.8869620" lon="-3.0707420">
        <ele>695.0</ele>
        <time>2020-07-16T05:15:58Z</time>
      </trkpt>
      <trkpt lat="37.8867730" lon="-3.0707960">
        <ele>694.6</ele>
        <time>2020-07-16T05:16:00Z</time>
      </trkpt>
      <trkpt lat="37.8865200" lon="-3.0708770">
        <ele>694.2</ele>
        <time>2020-07-16T05:16:03Z</time>
      </trkpt>
      <trkpt lat="37.8863450" lon="-3.0709230">
        <ele>694.2</ele>
        <time>2020-07-16T05:16:05Z</time>
      </trkpt>
      <trkpt lat="37.8861120" lon="-3.0709910">
        <ele>694.4</ele>
        <time>2020-07-16T05:16:08Z</time>
      </trkpt>
      <trkpt lat="37.8858280" lon="-3.0710850">
        <ele>694.8</ele>
        <time>2020-07-16T05:16:12Z</time>
      </trkpt>
      <trkpt lat="37.8854830" lon="-3.0712020">
        <ele>695.4</ele>
        <time>2020-07-16T05:16:18Z</time>
      </trkpt>
      <trkpt lat="37.8854250" lon="-3.0712240">
        <ele>695.6</ele>
        <time>2020-07-16T05:16:19Z</time>
      </trkpt>
      <trkpt lat="37.8853730" lon="-3.0712420">
        <ele>695.8</ele>
        <time>2020-07-16T05:16:20Z</time>
      </trkpt>
      <trkpt lat="37.8853230" lon="-3.0712570">
        <ele>696.0</ele>
        <time>2020-07-16T05:16:21Z</time>
      </trkpt>
      <trkpt lat="37.8852690" lon="-3.0712720">
        <ele>696.0</ele>
        <time>2020-07-16T05:16:22Z</time>
      </trkpt>
      <trkpt lat="37.8852230" lon="-3.0712890">
        <ele>696.2</ele>
        <time>2020-07-16T05:16:23Z</time>
      </trkpt>
      <trkpt lat="37.8850780" lon="-3.0713380">
        <ele>696.8</ele>
        <time>2020-07-16T05:16:26Z</time>
      </trkpt>
      <trkpt lat="37.8850340" lon="-3.0713550">
        <ele>697.2</ele>
        <time>2020-07-16T05:16:27Z</time>
      </trkpt>
      <trkpt lat="37.8848490" lon="-3.0714160">
        <ele>698.2</ele>
        <time>2020-07-16T05:16:31Z</time>
      </trkpt>
      <trkpt lat="37.8847660" lon="-3.0714470">
        <ele>698.6</ele>
        <time>2020-07-16T05:16:33Z</time>
      </trkpt>
      <trkpt lat="37.8846310" lon="-3.0714900">
        <ele>699.2</ele>
        <time>2020-07-16T05:16:36Z</time>
      </trkpt>
      <trkpt lat="37.8845910" lon="-3.0715050">
        <ele>699.4</ele>
        <time>2020-07-16T05:16:37Z</time>
      </trkpt>
      <trkpt lat="37.8845040" lon="-3.0715360">
        <ele>699.8</ele>
        <time>2020-07-16T05:16:39Z</time>
      </trkpt>
      <trkpt lat="37.8843800" lon="-3.0715790">
        <ele>700.2</ele>
        <time>2020-07-16T05:16:42Z</time>
      </trkpt>
      <trkpt lat="37.8843420" lon="-3.0715910">
        <ele>700.4</ele>
        <time>2020-07-16T05:16:43Z</time>
      </trkpt>
      <trkpt lat="37.8842170" lon="-3.0716320">
        <ele>700.8</ele>
        <time>2020-07-16T05:16:46Z</time>
      </trkpt>
      <trkpt lat="37.8841740" lon="-3.0716400">
        <ele>700.8</ele>
        <time>2020-07-16T05:16:47Z</time>
      </trkpt>
      <trkpt lat="37.8840020" lon="-3.0716780">
        <ele>701.4</ele>
        <time>2020-07-16T05:16:51Z</time>
      </trkpt>
      <trkpt lat="37.8837730" lon="-3.0717240">
        <ele>702.4</ele>
        <time>2020-07-16T05:16:56Z</time>
      </trkpt>
      <trkpt lat="37.8837280" lon="-3.0717300">
        <ele>702.6</ele>
        <time>2020-07-16T05:16:57Z</time>
      </trkpt>
      <trkpt lat="37.8836820" lon="-3.0717370">
        <ele>702.6</ele>
        <time>2020-07-16T05:16:58Z</time>
      </trkpt>
      <trkpt lat="37.8834910" lon="-3.0717760">
        <ele>703.0</ele>
        <time>2020-07-16T05:17:02Z</time>
      </trkpt>
      <trkpt lat="37.8832570" lon="-3.0718140">
        <ele>703.4</ele>
        <time>2020-07-16T05:17:07Z</time>
      </trkpt>
      <trkpt lat="37.8830650" lon="-3.0718280">
        <ele>703.6</ele>
        <time>2020-07-16T05:17:11Z</time>
      </trkpt>
      <trkpt lat="37.8827610" lon="-3.0718400">
        <ele>704.4</ele>
        <time>2020-07-16T05:17:17Z</time>
      </trkpt>
      <trkpt lat="37.8826060" lon="-3.0718470">
        <ele>704.8</ele>
        <time>2020-07-16T05:17:20Z</time>
      </trkpt>
      <trkpt lat="37.8820850" lon="-3.0718650">
        <ele>705.4</ele>
        <time>2020-07-16T05:17:30Z</time>
      </trkpt>
      <trkpt lat="37.8819390" lon="-3.0718680">
        <ele>705.6</ele>
        <time>2020-07-16T05:17:33Z</time>
      </trkpt>
      <trkpt lat="37.8818790" lon="-3.0718700">
        <ele>705.8</ele>
        <time>2020-07-16T05:17:34Z</time>
      </trkpt>
      <trkpt lat="37.8815630" lon="-3.0718870">
        <ele>706.2</ele>
        <time>2020-07-16T05:17:40Z</time>
      </trkpt>
      <trkpt lat="37.8814610" lon="-3.0718900">
        <ele>706.4</ele>
        <time>2020-07-16T05:17:42Z</time>
      </trkpt>
      <trkpt lat="37.8812080" lon="-3.0719060">
        <ele>706.8</ele>
        <time>2020-07-16T05:17:47Z</time>
      </trkpt>
      <trkpt lat="37.8809170" lon="-3.0719220">
        <ele>707.6</ele>
        <time>2020-07-16T05:17:53Z</time>
      </trkpt>
      <trkpt lat="37.8808260" lon="-3.0719260">
        <ele>707.8</ele>
        <time>2020-07-16T05:17:55Z</time>
      </trkpt>
      <trkpt lat="37.8806140" lon="-3.0719420">
        <ele>708.8</ele>
        <time>2020-07-16T05:18:00Z</time>
      </trkpt>
      <trkpt lat="37.8805340" lon="-3.0719390">
        <ele>709.4</ele>
        <time>2020-07-16T05:18:02Z</time>
      </trkpt>
      <trkpt lat="37.8804530" lon="-3.0719440">
        <ele>710.0</ele>
        <time>2020-07-16T05:18:04Z</time>
      </trkpt>
      <trkpt lat="37.8802610" lon="-3.0719560">
        <ele>711.0</ele>
        <time>2020-07-16T05:18:09Z</time>
      </trkpt>
      <trkpt lat="37.8802210" lon="-3.0719570">
        <ele>711.2</ele>
        <time>2020-07-16T05:18:10Z</time>
      </trkpt>
      <trkpt lat="37.8800300" lon="-3.0719620">
        <ele>712.2</ele>
        <time>2020-07-16T05:18:15Z</time>
      </trkpt>
      <trkpt lat="37.8798770" lon="-3.0719670">
        <ele>713.0</ele>
        <time>2020-07-16T05:18:19Z</time>
      </trkpt>
      <trkpt lat="37.8798390" lon="-3.0719680">
        <ele>713.4</ele>
        <time>2020-07-16T05:18:20Z</time>
      </trkpt>
      <trkpt lat="37.8796540" lon="-3.0719770">
        <ele>714.6</ele>
        <time>2020-07-16T05:18:25Z</time>
      </trkpt>
      <trkpt lat="37.8795870" lon="-3.0719850">
        <ele>715.0</ele>
        <time>2020-07-16T05:18:27Z</time>
      </trkpt>
      <trkpt lat="37.8794410" lon="-3.0720020">
        <ele>715.6</ele>
        <time>2020-07-16T05:18:31Z</time>
      </trkpt>
      <trkpt lat="37.8792630" lon="-3.0720240">
        <ele>716.6</ele>
        <time>2020-07-16T05:18:36Z</time>
      </trkpt>
      <trkpt lat="37.8790540" lon="-3.0720460">
        <ele>717.8</ele>
        <time>2020-07-16T05:18:42Z</time>
      </trkpt>
      <trkpt lat="37.8788840" lon="-3.0720670">
        <ele>718.8</ele>
        <time>2020-07-16T05:18:47Z</time>
      </trkpt>
      <trkpt lat="37.8787130" lon="-3.0720840">
        <ele>720.0</ele>
        <time>2020-07-16T05:18:52Z</time>
      </trkpt>
      <trkpt lat="37.8785380" lon="-3.0721010">
        <ele>721.0</ele>
        <time>2020-07-16T05:18:57Z</time>
      </trkpt>
      <trkpt lat="37.8785000" lon="-3.0721080">
        <ele>721.0</ele>
        <time>2020-07-16T05:18:58Z</time>
      </trkpt>
      <trkpt lat="37.8782890" lon="-3.0721300">
        <ele>722.2</ele>
        <time>2020-07-16T05:19:04Z</time>
      </trkpt>
      <trkpt lat="37.8781930" lon="-3.0721410">
        <ele>722.6</ele>
        <time>2020-07-16T05:19:07Z</time>
      </trkpt>
      <trkpt lat="37.8780830" lon="-3.0721510">
        <ele>723.2</ele>
        <time>2020-07-16T05:19:10Z</time>
      </trkpt>
      <trkpt lat="37.8779090" lon="-3.0721680">
        <ele>724.4</ele>
        <time>2020-07-16T05:19:15Z</time>
      </trkpt>
      <trkpt lat="37.8777680" lon="-3.0721880">
        <ele>725.0</ele>
        <time>2020-07-16T05:19:19Z</time>
      </trkpt>
      <trkpt lat="37.8777000" lon="-3.0721950">
        <ele>725.4</ele>
        <time>2020-07-16T05:19:21Z</time>
      </trkpt>
      <trkpt lat="37.8773990" lon="-3.0722260">
        <ele>726.4</ele>
        <time>2020-07-16T05:19:29Z</time>
      </trkpt>
      <trkpt lat="37.8773190" lon="-3.0722290">
        <ele>726.6</ele>
        <time>2020-07-16T05:19:31Z</time>
      </trkpt>
      <trkpt lat="37.8770730" lon="-3.0722400">
        <ele>727.4</ele>
        <time>2020-07-16T05:19:37Z</time>
      </trkpt>
      <trkpt lat="37.8768130" lon="-3.0722400">
        <ele>727.8</ele>
        <time>2020-07-16T05:19:43Z</time>
      </trkpt>
      <trkpt lat="37.8764180" lon="-3.0721720">
        <ele>727.8</ele>
        <time>2020-07-16T05:19:51Z</time>
      </trkpt>
      <trkpt lat="37.8763590" lon="-3.0721520">
        <ele>727.8</ele>
        <time>2020-07-16T05:19:52Z</time>
      </trkpt>
      <trkpt lat="37.8761910" lon="-3.0720960">
        <ele>727.8</ele>
        <time>2020-07-16T05:19:55Z</time>
      </trkpt>
      <trkpt lat="37.8760200" lon="-3.0720330">
        <ele>727.6</ele>
        <time>2020-07-16T05:19:58Z</time>
      </trkpt>
      <trkpt lat="37.8758870" lon="-3.0719780">
        <ele>727.2</ele>
        <time>2020-07-16T05:20:00Z</time>
      </trkpt>
      <trkpt lat="37.8755520" lon="-3.0718300">
        <ele>726.2</ele>
        <time>2020-07-16T05:20:05Z</time>
      </trkpt>
      <trkpt lat="37.8754140" lon="-3.0717660">
        <ele>725.8</ele>
        <time>2020-07-16T05:20:07Z</time>
      </trkpt>
      <trkpt lat="37.8753490" lon="-3.0717350">
        <ele>725.6</ele>
        <time>2020-07-16T05:20:08Z</time>
      </trkpt>
      <trkpt lat="37.8751900" lon="-3.0716660">
        <ele>725.0</ele>
        <time>2020-07-16T05:20:10Z</time>
      </trkpt>
      <trkpt lat="37.8750400" lon="-3.0716050">
        <ele>724.6</ele>
        <time>2020-07-16T05:20:12Z</time>
      </trkpt>
      <trkpt lat="37.8748800" lon="-3.0715380">
        <ele>724.0</ele>
        <time>2020-07-16T05:20:14Z</time>
      </trkpt>
      <trkpt lat="37.8747160" lon="-3.0714670">
        <ele>723.4</ele>
        <time>2020-07-16T05:20:16Z</time>
      </trkpt>
      <trkpt lat="37.8745550" lon="-3.0713990">
        <ele>722.8</ele>
        <time>2020-07-16T05:20:18Z</time>
      </trkpt>
      <trkpt lat="37.8742040" lon="-3.0712340">
        <ele>721.8</ele>
        <time>2020-07-16T05:20:22Z</time>
      </trkpt>
      <trkpt lat="37.8741160" lon="-3.0711880">
        <ele>721.6</ele>
        <time>2020-07-16T05:20:23Z</time>
      </trkpt>
      <trkpt lat="37.8739310" lon="-3.0710910">
        <ele>720.8</ele>
        <time>2020-07-16T05:20:25Z</time>
      </trkpt>
      <trkpt lat="37.8737620" lon="-3.0710010">
        <ele>719.6</ele>
        <time>2020-07-16T05:20:27Z</time>
      </trkpt>
      <trkpt lat="37.8734860" lon="-3.0708500">
        <ele>718.2</ele>
        <time>2020-07-16T05:20:30Z</time>
      </trkpt>
      <trkpt lat="37.8732400" lon="-3.0707210">
        <ele>717.4</ele>
        <time>2020-07-16T05:20:33Z</time>
      </trkpt>
      <trkpt lat="37.8731400" lon="-3.0706670">
        <ele>717.0</ele>
        <time>2020-07-16T05:20:34Z</time>
      </trkpt>
      <trkpt lat="37.8728820" lon="-3.0705290">
        <ele>716.4</ele>
        <time>2020-07-16T05:20:37Z</time>
      </trkpt>
      <trkpt lat="37.8727090" lon="-3.0704360">
        <ele>716.0</ele>
        <time>2020-07-16T05:20:39Z</time>
      </trkpt>
      <trkpt lat="37.8723510" lon="-3.0702380">
        <ele>714.8</ele>
        <time>2020-07-16T05:20:43Z</time>
      </trkpt>
      <trkpt lat="37.8721780" lon="-3.0701450">
        <ele>714.2</ele>
        <time>2020-07-16T05:20:45Z</time>
      </trkpt>
      <trkpt lat="37.8719920" lon="-3.0700430">
        <ele>713.4</ele>
        <time>2020-07-16T05:20:47Z</time>
      </trkpt>
      <trkpt lat="37.8716450" lon="-3.0698610">
        <ele>712.4</ele>
        <time>2020-07-16T05:20:51Z</time>
      </trkpt>
      <trkpt lat="37.8713920" lon="-3.0697230">
        <ele>712.0</ele>
        <time>2020-07-16T05:20:54Z</time>
      </trkpt>
      <trkpt lat="37.8711750" lon="-3.0696050">
        <ele>712.0</ele>
        <time>2020-07-16T05:20:57Z</time>
      </trkpt>
      <trkpt lat="37.8709620" lon="-3.0694940">
        <ele>712.4</ele>
        <time>2020-07-16T05:21:00Z</time>
      </trkpt>
      <trkpt lat="37.8707240" lon="-3.0693640">
        <ele>713.2</ele>
        <time>2020-07-16T05:21:04Z</time>
      </trkpt>
      <trkpt lat="37.8706670" lon="-3.0693340">
        <ele>713.4</ele>
        <time>2020-07-16T05:21:05Z</time>
      </trkpt>
      <trkpt lat="37.8705600" lon="-3.0692710">
        <ele>713.8</ele>
        <time>2020-07-16T05:21:07Z</time>
      </trkpt>
      <trkpt lat="37.8704590" lon="-3.0692120">
        <ele>714.2</ele>
        <time>2020-07-16T05:21:09Z</time>
      </trkpt>
      <trkpt lat="37.8703520" lon="-3.0691470">
        <ele>714.6</ele>
        <time>2020-07-16T05:21:11Z</time>
      </trkpt>
      <trkpt lat="37.8701580" lon="-3.0690310">
        <ele>715.2</ele>
        <time>2020-07-16T05:21:15Z</time>
      </trkpt>
      <trkpt lat="37.8700650" lon="-3.0689670">
        <ele>715.6</ele>
        <time>2020-07-16T05:21:17Z</time>
      </trkpt>
      <trkpt lat="37.8698820" lon="-3.0688500">
        <ele>716.4</ele>
        <time>2020-07-16T05:21:21Z</time>
      </trkpt>
      <trkpt lat="37.8697850" lon="-3.0687810">
        <ele>716.6</ele>
        <time>2020-07-16T05:21:23Z</time>
      </trkpt>
      <trkpt lat="37.8696840" lon="-3.0687160">
        <ele>716.8</ele>
        <time>2020-07-16T05:21:25Z</time>
      </trkpt>
      <trkpt lat="37.8693230" lon="-3.0684760">
        <ele>716.4</ele>
        <time>2020-07-16T05:21:31Z</time>
      </trkpt>
      <trkpt lat="37.8691060" lon="-3.0683250">
        <ele>715.4</ele>
        <time>2020-07-16T05:21:34Z</time>
      </trkpt>
      <trkpt lat="37.8688750" lon="-3.0681650">
        <ele>714.0</ele>
        <time>2020-07-16T05:21:37Z</time>
      </trkpt>
      <trkpt lat="37.8687150" lon="-3.0680600">
        <ele>713.2</ele>
        <time>2020-07-16T05:21:39Z</time>
      </trkpt>
      <trkpt lat="37.8686230" lon="-3.0679940">
        <ele>712.8</ele>
        <time>2020-07-16T05:21:40Z</time>
      </trkpt>
      <trkpt lat="37.8683790" lon="-3.0678320">
        <ele>711.8</ele>
        <time>2020-07-16T05:21:43Z</time>
      </trkpt>
      <trkpt lat="37.8682880" lon="-3.0677680">
        <ele>711.4</ele>
        <time>2020-07-16T05:21:44Z</time>
      </trkpt>
      <trkpt lat="37.8682150" lon="-3.0677190">
        <ele>711.2</ele>
        <time>2020-07-16T05:21:45Z</time>
      </trkpt>
      <trkpt lat="37.8680370" lon="-3.0676170">
        <ele>710.6</ele>
        <time>2020-07-16T05:21:47Z</time>
      </trkpt>
      <trkpt lat="37.8679580" lon="-3.0675810">
        <ele>710.4</ele>
        <time>2020-07-16T05:21:48Z</time>
      </trkpt>
      <trkpt lat="37.8677700" lon="-3.0675110">
        <ele>709.8</ele>
        <time>2020-07-16T05:21:50Z</time>
      </trkpt>
      <trkpt lat="37.8675930" lon="-3.0674500">
        <ele>709.2</ele>
        <time>2020-07-16T05:21:52Z</time>
      </trkpt>
      <trkpt lat="37.8673170" lon="-3.0673530">
        <ele>708.0</ele>
        <time>2020-07-16T05:21:55Z</time>
      </trkpt>
      <trkpt lat="37.8671450" lon="-3.0673030">
        <ele>707.4</ele>
        <time>2020-07-16T05:21:57Z</time>
      </trkpt>
      <trkpt lat="37.8670480" lon="-3.0672780">
        <ele>707.0</ele>
        <time>2020-07-16T05:21:58Z</time>
      </trkpt>
      <trkpt lat="37.8669540" lon="-3.0672570">
        <ele>706.8</ele>
        <time>2020-07-16T05:21:59Z</time>
      </trkpt>
      <trkpt lat="37.8666860" lon="-3.0672330">
        <ele>706.0</ele>
        <time>2020-07-16T05:22:02Z</time>
      </trkpt>
      <trkpt lat="37.8665020" lon="-3.0672500">
        <ele>705.8</ele>
        <time>2020-07-16T05:22:04Z</time>
      </trkpt>
      <trkpt lat="37.8661500" lon="-3.0673480">
        <ele>704.8</ele>
        <time>2020-07-16T05:22:08Z</time>
      </trkpt>
      <trkpt lat="37.8660570" lon="-3.0673920">
        <ele>704.6</ele>
        <time>2020-07-16T05:22:09Z</time>
      </trkpt>
      <trkpt lat="37.8658810" lon="-3.0675000">
        <ele>703.8</ele>
        <time>2020-07-16T05:22:11Z</time>
      </trkpt>
      <trkpt lat="37.8657170" lon="-3.0676360">
        <ele>702.8</ele>
        <time>2020-07-16T05:22:13Z</time>
      </trkpt>
      <trkpt lat="37.8656340" lon="-3.0677200">
        <ele>702.2</ele>
        <time>2020-07-16T05:22:14Z</time>
      </trkpt>
      <trkpt lat="37.8654880" lon="-3.0679020">
        <ele>701.2</ele>
        <time>2020-07-16T05:22:16Z</time>
      </trkpt>
      <trkpt lat="37.8654210" lon="-3.0679940">
        <ele>700.6</ele>
        <time>2020-07-16T05:22:17Z</time>
      </trkpt>
      <trkpt lat="37.8653010" lon="-3.0682030">
        <ele>699.8</ele>
        <time>2020-07-16T05:22:19Z</time>
      </trkpt>
      <trkpt lat="37.8652180" lon="-3.0684070">
        <ele>699.6</ele>
        <time>2020-07-16T05:22:21Z</time>
      </trkpt>
      <trkpt lat="37.8650900" lon="-3.0689780">
        <ele>698.8</ele>
        <time>2020-07-16T05:22:26Z</time>
      </trkpt>
      <trkpt lat="37.8650890" lon="-3.0695410">
        <ele>698.0</ele>
        <time>2020-07-16T05:22:31Z</time>
      </trkpt>
      <trkpt lat="37.8651030" lon="-3.0696570">
        <ele>697.6</ele>
        <time>2020-07-16T05:22:32Z</time>
      </trkpt>
      <trkpt lat="37.8651850" lon="-3.0701320">
        <ele>696.4</ele>
        <time>2020-07-16T05:22:36Z</time>
      </trkpt>
      <trkpt lat="37.8652100" lon="-3.0702490">
        <ele>696.2</ele>
        <time>2020-07-16T05:22:37Z</time>
      </trkpt>
      <trkpt lat="37.8652560" lon="-3.0704880">
        <ele>695.2</ele>
        <time>2020-07-16T05:22:39Z</time>
      </trkpt>
      <trkpt lat="37.8653110" lon="-3.0707510">
        <ele>694.2</ele>
        <time>2020-07-16T05:22:41Z</time>
      </trkpt>
      <trkpt lat="37.8653670" lon="-3.0710060">
        <ele>693.0</ele>
        <time>2020-07-16T05:22:43Z</time>
      </trkpt>
      <trkpt lat="37.8654230" lon="-3.0712660">
        <ele>691.8</ele>
        <time>2020-07-16T05:22:45Z</time>
      </trkpt>
      <trkpt lat="37.8654810" lon="-3.0715380">
        <ele>690.6</ele>
        <time>2020-07-16T05:22:47Z</time>
      </trkpt>
      <trkpt lat="37.8655290" lon="-3.0718060">
        <ele>689.2</ele>
        <time>2020-07-16T05:22:49Z</time>
      </trkpt>
      <trkpt lat="37.8655480" lon="-3.0720710">
        <ele>688.2</ele>
        <time>2020-07-16T05:22:51Z</time>
      </trkpt>
      <trkpt lat="37.8655390" lon="-3.0723740">
        <ele>687.0</ele>
        <time>2020-07-16T05:22:53Z</time>
      </trkpt>
      <trkpt lat="37.8655270" lon="-3.0726830">
        <ele>685.4</ele>
        <time>2020-07-16T05:22:55Z</time>
      </trkpt>
      <trkpt lat="37.8655230" lon="-3.0728310">
        <ele>684.2</ele>
        <time>2020-07-16T05:22:56Z</time>
      </trkpt>
      <trkpt lat="37.8655490" lon="-3.0731160">
        <ele>682.8</ele>
        <time>2020-07-16T05:22:58Z</time>
      </trkpt>
      <trkpt lat="37.8655840" lon="-3.0732830">
        <ele>681.8</ele>
        <time>2020-07-16T05:22:59Z</time>
      </trkpt>
      <trkpt lat="37.8656190" lon="-3.0734250">
        <ele>681.2</ele>
        <time>2020-07-16T05:23:00Z</time>
      </trkpt>
      <trkpt lat="37.8656820" lon="-3.0737010">
        <ele>679.6</ele>
        <time>2020-07-16T05:23:02Z</time>
      </trkpt>
      <trkpt lat="37.8657040" lon="-3.0739890">
        <ele>678.0</ele>
        <time>2020-07-16T05:23:04Z</time>
      </trkpt>
      <trkpt lat="37.8656470" lon="-3.0742740">
        <ele>676.2</ele>
        <time>2020-07-16T05:23:06Z</time>
      </trkpt>
      <trkpt lat="37.8655890" lon="-3.0744010">
        <ele>675.6</ele>
        <time>2020-07-16T05:23:07Z</time>
      </trkpt>
      <trkpt lat="37.8655200" lon="-3.0745170">
        <ele>674.8</ele>
        <time>2020-07-16T05:23:08Z</time>
      </trkpt>
      <trkpt lat="37.8653540" lon="-3.0747830">
        <ele>673.0</ele>
        <time>2020-07-16T05:23:10Z</time>
      </trkpt>
      <trkpt lat="37.8652880" lon="-3.0749230">
        <ele>672.2</ele>
        <time>2020-07-16T05:23:11Z</time>
      </trkpt>
      <trkpt lat="37.8652270" lon="-3.0750740">
        <ele>671.6</ele>
        <time>2020-07-16T05:23:12Z</time>
      </trkpt>
      <trkpt lat="37.8651840" lon="-3.0752030">
        <ele>671.0</ele>
        <time>2020-07-16T05:23:13Z</time>
      </trkpt>
      <trkpt lat="37.8651360" lon="-3.0753680">
        <ele>670.2</ele>
        <time>2020-07-16T05:23:14Z</time>
      </trkpt>
      <trkpt lat="37.8650950" lon="-3.0756820">
        <ele>668.2</ele>
        <time>2020-07-16T05:23:16Z</time>
      </trkpt>
      <trkpt lat="37.8650710" lon="-3.0760020">
        <ele>666.4</ele>
        <time>2020-07-16T05:23:18Z</time>
      </trkpt>
      <trkpt lat="37.8650390" lon="-3.0761710">
        <ele>665.4</ele>
        <time>2020-07-16T05:23:19Z</time>
      </trkpt>
      <trkpt lat="37.8649920" lon="-3.0763290">
        <ele>664.4</ele>
        <time>2020-07-16T05:23:20Z</time>
      </trkpt>
      <trkpt lat="37.8648780" lon="-3.0766390">
        <ele>662.6</ele>
        <time>2020-07-16T05:23:22Z</time>
      </trkpt>
      <trkpt lat="37.8647480" lon="-3.0769630">
        <ele>660.6</ele>
        <time>2020-07-16T05:23:24Z</time>
      </trkpt>
      <trkpt lat="37.8646760" lon="-3.0771240">
        <ele>659.6</ele>
        <time>2020-07-16T05:23:25Z</time>
      </trkpt>
      <trkpt lat="37.8646010" lon="-3.0772860">
        <ele>658.6</ele>
        <time>2020-07-16T05:23:26Z</time>
      </trkpt>
      <trkpt lat="37.8645350" lon="-3.0774290">
        <ele>657.4</ele>
        <time>2020-07-16T05:23:27Z</time>
      </trkpt>
      <trkpt lat="37.8644520" lon="-3.0775950">
        <ele>656.0</ele>
        <time>2020-07-16T05:23:28Z</time>
      </trkpt>
      <trkpt lat="37.8643580" lon="-3.0777810">
        <ele>654.8</ele>
        <time>2020-07-16T05:23:29Z</time>
      </trkpt>
      <trkpt lat="37.8642740" lon="-3.0779470">
        <ele>653.4</ele>
        <time>2020-07-16T05:23:30Z</time>
      </trkpt>
      <trkpt lat="37.8641900" lon="-3.0781160">
        <ele>652.2</ele>
        <time>2020-07-16T05:23:31Z</time>
      </trkpt>
      <trkpt lat="37.8641050" lon="-3.0782870">
        <ele>650.6</ele>
        <time>2020-07-16T05:23:32Z</time>
      </trkpt>
      <trkpt lat="37.8639300" lon="-3.0786400">
        <ele>648.2</ele>
        <time>2020-07-16T05:23:34Z</time>
      </trkpt>
      <trkpt lat="37.8638420" lon="-3.0788170">
        <ele>646.6</ele>
        <time>2020-07-16T05:23:35Z</time>
      </trkpt>
      <trkpt lat="37.8637540" lon="-3.0789960">
        <ele>644.8</ele>
        <time>2020-07-16T05:23:36Z</time>
      </trkpt>
      <trkpt lat="37.8636640" lon="-3.0791750">
        <ele>643.2</ele>
        <time>2020-07-16T05:23:37Z</time>
      </trkpt>
      <trkpt lat="37.8635830" lon="-3.0793310">
        <ele>642.0</ele>
        <time>2020-07-16T05:23:38Z</time>
      </trkpt>
      <trkpt lat="37.8635200" lon="-3.0794520">
        <ele>641.0</ele>
        <time>2020-07-16T05:23:39Z</time>
      </trkpt>
      <trkpt lat="37.8634290" lon="-3.0796340">
        <ele>639.2</ele>
        <time>2020-07-16T05:23:40Z</time>
      </trkpt>
      <trkpt lat="37.8631540" lon="-3.0801810">
        <ele>638.4</ele>
        <time>2020-07-16T05:23:43Z</time>
      </trkpt>
      <trkpt lat="37.8630690" lon="-3.0803470">
        <ele>637.2</ele>
        <time>2020-07-16T05:23:44Z</time>
      </trkpt>
      <trkpt lat="37.8629370" lon="-3.0806340">
        <ele>635.6</ele>
        <time>2020-07-16T05:23:46Z</time>
      </trkpt>
      <trkpt lat="37.8628920" lon="-3.0807730">
        <ele>634.6</ele>
        <time>2020-07-16T05:23:47Z</time>
      </trkpt>
      <trkpt lat="37.8628710" lon="-3.0809110">
        <ele>633.8</ele>
        <time>2020-07-16T05:23:48Z</time>
      </trkpt>
      <trkpt lat="37.8628740" lon="-3.0810730">
        <ele>633.2</ele>
        <time>2020-07-16T05:23:49Z</time>
      </trkpt>
      <trkpt lat="37.8628970" lon="-3.0812190">
        <ele>632.6</ele>
        <time>2020-07-16T05:23:50Z</time>
      </trkpt>
      <trkpt lat="37.8629620" lon="-3.0814950">
        <ele>631.4</ele>
        <time>2020-07-16T05:23:52Z</time>
      </trkpt>
      <trkpt lat="37.8630940" lon="-3.0820200">
        <ele>630.4</ele>
        <time>2020-07-16T05:23:56Z</time>
      </trkpt>
      <trkpt lat="37.8631520" lon="-3.0822640">
        <ele>630.2</ele>
        <time>2020-07-16T05:23:58Z</time>
      </trkpt>
      <trkpt lat="37.8631860" lon="-3.0824070">
        <ele>630.0</ele>
        <time>2020-07-16T05:23:59Z</time>
      </trkpt>
      <trkpt lat="37.8632530" lon="-3.0827920">
        <ele>629.4</ele>
        <time>2020-07-16T05:24:02Z</time>
      </trkpt>
      <trkpt lat="37.8632930" lon="-3.0831650">
        <ele>629.0</ele>
        <time>2020-07-16T05:24:05Z</time>
      </trkpt>
      <trkpt lat="37.8633490" lon="-3.0837600">
        <ele>628.6</ele>
        <time>2020-07-16T05:24:10Z</time>
      </trkpt>
      <trkpt lat="37.8633880" lon="-3.0841230">
        <ele>628.2</ele>
        <time>2020-07-16T05:24:13Z</time>
      </trkpt>
      <trkpt lat="37.8634420" lon="-3.0844720">
        <ele>627.4</ele>
        <time>2020-07-16T05:24:17Z</time>
      </trkpt>
      <trkpt lat="37.8634570" lon="-3.0845320">
        <ele>627.0</ele>
        <time>2020-07-16T05:24:18Z</time>
      </trkpt>
      <trkpt lat="37.8634790" lon="-3.0845910">
        <ele>626.4</ele>
        <time>2020-07-16T05:24:19Z</time>
      </trkpt>
      <trkpt lat="37.8635130" lon="-3.0847020">
        <ele>626.2</ele>
        <time>2020-07-16T05:24:21Z</time>
      </trkpt>
      <trkpt lat="37.8635220" lon="-3.0847660">
        <ele>626.2</ele>
        <time>2020-07-16T05:24:22Z</time>
      </trkpt>
      <trkpt lat="37.8634340" lon="-3.0849490">
        <ele>626.0</ele>
        <time>2020-07-16T05:24:25Z</time>
      </trkpt>
      <trkpt lat="37.8633010" lon="-3.0849730">
        <ele>625.4</ele>
        <time>2020-07-16T05:24:27Z</time>
      </trkpt>
      <trkpt lat="37.8632320" lon="-3.0849560">
        <ele>625.0</ele>
        <time>2020-07-16T05:24:28Z</time>
      </trkpt>
      <trkpt lat="37.8630950" lon="-3.0849150">
        <ele>624.0</ele>
        <time>2020-07-16T05:24:30Z</time>
      </trkpt>
      <trkpt lat="37.8630260" lon="-3.0849030">
        <ele>623.6</ele>
        <time>2020-07-16T05:24:31Z</time>
      </trkpt>
      <trkpt lat="37.8628150" lon="-3.0848950">
        <ele>622.6</ele>
        <time>2020-07-16T05:24:34Z</time>
      </trkpt>
      <trkpt lat="37.8627420" lon="-3.0849040">
        <ele>622.2</ele>
        <time>2020-07-16T05:24:35Z</time>
      </trkpt>
      <trkpt lat="37.8625930" lon="-3.0849360">
        <ele>621.4</ele>
        <time>2020-07-16T05:24:37Z</time>
      </trkpt>
      <trkpt lat="37.8623510" lon="-3.0850090">
        <ele>620.6</ele>
        <time>2020-07-16T05:24:40Z</time>
      </trkpt>
      <trkpt lat="37.8622700" lon="-3.0850370">
        <ele>620.0</ele>
        <time>2020-07-16T05:24:41Z</time>
      </trkpt>
      <trkpt lat="37.8621190" lon="-3.0850850">
        <ele>619.0</ele>
        <time>2020-07-16T05:24:43Z</time>
      </trkpt>
      <trkpt lat="37.8619720" lon="-3.0851310">
        <ele>617.4</ele>
        <time>2020-07-16T05:24:45Z</time>
      </trkpt>
      <trkpt lat="37.8618170" lon="-3.0851850">
        <ele>615.8</ele>
        <time>2020-07-16T05:24:47Z</time>
      </trkpt>
      <trkpt lat="37.8616690" lon="-3.0852350">
        <ele>614.2</ele>
        <time>2020-07-16T05:24:49Z</time>
      </trkpt>
      <trkpt lat="37.8615330" lon="-3.0852750">
        <ele>612.8</ele>
        <time>2020-07-16T05:24:51Z</time>
      </trkpt>
      <trkpt lat="37.8613940" lon="-3.0853120">
        <ele>611.2</ele>
        <time>2020-07-16T05:24:53Z</time>
      </trkpt>
      <trkpt lat="37.8612610" lon="-3.0853350">
        <ele>610.0</ele>
        <time>2020-07-16T05:24:55Z</time>
      </trkpt>
      <trkpt lat="37.8611310" lon="-3.0853600">
        <ele>608.6</ele>
        <time>2020-07-16T05:24:57Z</time>
      </trkpt>
      <trkpt lat="37.8609950" lon="-3.0853970">
        <ele>607.4</ele>
        <time>2020-07-16T05:24:59Z</time>
      </trkpt>
      <trkpt lat="37.8608640" lon="-3.0854010">
        <ele>606.2</ele>
        <time>2020-07-16T05:25:01Z</time>
      </trkpt>
      <trkpt lat="37.8608020" lon="-3.0853660">
        <ele>605.6</ele>
        <time>2020-07-16T05:25:02Z</time>
      </trkpt>
      <trkpt lat="37.8607020" lon="-3.0852340">
        <ele>604.8</ele>
        <time>2020-07-16T05:25:04Z</time>
      </trkpt>
      <trkpt lat="37.8606650" lon="-3.0851520">
        <ele>604.2</ele>
        <time>2020-07-16T05:25:05Z</time>
      </trkpt>
      <trkpt lat="37.8606270" lon="-3.0850700">
        <ele>603.4</ele>
        <time>2020-07-16T05:25:06Z</time>
      </trkpt>
      <trkpt lat="37.8605300" lon="-3.0849170">
        <ele>602.0</ele>
        <time>2020-07-16T05:25:08Z</time>
      </trkpt>
      <trkpt lat="37.8604020" lon="-3.0847550">
        <ele>600.6</ele>
        <time>2020-07-16T05:25:10Z</time>
      </trkpt>
      <trkpt lat="37.8602710" lon="-3.0845850">
        <ele>599.2</ele>
        <time>2020-07-16T05:25:12Z</time>
      </trkpt>
      <trkpt lat="37.8601260" lon="-3.0843990">
        <ele>597.8</ele>
        <time>2020-07-16T05:25:14Z</time>
      </trkpt>
      <trkpt lat="37.8600590" lon="-3.0843180">
        <ele>597.0</ele>
        <time>2020-07-16T05:25:15Z</time>
      </trkpt>
      <trkpt lat="37.8599790" lon="-3.0842320">
        <ele>596.2</ele>
        <time>2020-07-16T05:25:16Z</time>
      </trkpt>
      <trkpt lat="37.8598140" lon="-3.0840900">
        <ele>594.4</ele>
        <time>2020-07-16T05:25:18Z</time>
      </trkpt>
      <trkpt lat="37.8597160" lon="-3.0840220">
        <ele>593.8</ele>
        <time>2020-07-16T05:25:19Z</time>
      </trkpt>
      <trkpt lat="37.8596160" lon="-3.0839650">
        <ele>593.0</ele>
        <time>2020-07-16T05:25:20Z</time>
      </trkpt>
      <trkpt lat="37.8594070" lon="-3.0838600">
        <ele>591.4</ele>
        <time>2020-07-16T05:25:22Z</time>
      </trkpt>
      <trkpt lat="37.8593080" lon="-3.0838090">
        <ele>591.0</ele>
        <time>2020-07-16T05:25:23Z</time>
      </trkpt>
      <trkpt lat="37.8591890" lon="-3.0837520">
        <ele>590.2</ele>
        <time>2020-07-16T05:25:24Z</time>
      </trkpt>
      <trkpt lat="37.8589650" lon="-3.0836360">
        <ele>588.4</ele>
        <time>2020-07-16T05:25:26Z</time>
      </trkpt>
      <trkpt lat="37.8587390" lon="-3.0835240">
        <ele>587.2</ele>
        <time>2020-07-16T05:25:28Z</time>
      </trkpt>
      <trkpt lat="37.8584970" lon="-3.0834060">
        <ele>585.6</ele>
        <time>2020-07-16T05:25:30Z</time>
      </trkpt>
      <trkpt lat="37.8582570" lon="-3.0833070">
        <ele>583.8</ele>
        <time>2020-07-16T05:25:32Z</time>
      </trkpt>
      <trkpt lat="37.8580320" lon="-3.0832330">
        <ele>582.0</ele>
        <time>2020-07-16T05:25:34Z</time>
      </trkpt>
      <trkpt lat="37.8579200" lon="-3.0832090">
        <ele>581.0</ele>
        <time>2020-07-16T05:25:35Z</time>
      </trkpt>
      <trkpt lat="37.8578130" lon="-3.0831920">
        <ele>580.4</ele>
        <time>2020-07-16T05:25:36Z</time>
      </trkpt>
      <trkpt lat="37.8576090" lon="-3.0831550">
        <ele>579.0</ele>
        <time>2020-07-16T05:25:38Z</time>
      </trkpt>
      <trkpt lat="37.8573930" lon="-3.0831260">
        <ele>578.0</ele>
        <time>2020-07-16T05:25:40Z</time>
      </trkpt>
      <trkpt lat="37.8570870" lon="-3.0830780">
        <ele>576.8</ele>
        <time>2020-07-16T05:25:43Z</time>
      </trkpt>
      <trkpt lat="37.8568860" lon="-3.0830260">
        <ele>575.8</ele>
        <time>2020-07-16T05:25:45Z</time>
      </trkpt>
      <trkpt lat="37.8567850" lon="-3.0829860">
        <ele>575.6</ele>
        <time>2020-07-16T05:25:46Z</time>
      </trkpt>
      <trkpt lat="37.8566960" lon="-3.0829410">
        <ele>575.4</ele>
        <time>2020-07-16T05:25:47Z</time>
      </trkpt>
      <trkpt lat="37.8566130" lon="-3.0828850">
        <ele>575.0</ele>
        <time>2020-07-16T05:25:48Z</time>
      </trkpt>
      <trkpt lat="37.8564000" lon="-3.0826780">
        <ele>575.0</ele>
        <time>2020-07-16T05:25:51Z</time>
      </trkpt>
      <trkpt lat="37.8562970" lon="-3.0825300">
        <ele>575.0</ele>
        <time>2020-07-16T05:25:53Z</time>
      </trkpt>
      <trkpt lat="37.8562030" lon="-3.0823750">
        <ele>575.0</ele>
        <time>2020-07-16T05:25:55Z</time>
      </trkpt>
      <trkpt lat="37.8560870" lon="-3.0821520">
        <ele>574.8</ele>
        <time>2020-07-16T05:25:58Z</time>
      </trkpt>
      <trkpt lat="37.8560090" lon="-3.0820060">
        <ele>575.0</ele>
        <time>2020-07-16T05:26:00Z</time>
      </trkpt>
      <trkpt lat="37.8559730" lon="-3.0819360">
        <ele>575.0</ele>
        <time>2020-07-16T05:26:01Z</time>
      </trkpt>
      <trkpt lat="37.8559020" lon="-3.0818080">
        <ele>575.4</ele>
        <time>2020-07-16T05:26:03Z</time>
      </trkpt>
      <trkpt lat="37.8557010" lon="-3.0814430">
        <ele>575.8</ele>
        <time>2020-07-16T05:26:09Z</time>
      </trkpt>
      <trkpt lat="37.8555570" lon="-3.0811880">
        <ele>576.4</ele>
        <time>2020-07-16T05:26:14Z</time>
      </trkpt>
      <trkpt lat="37.8555320" lon="-3.0811450">
        <ele>576.6</ele>
        <time>2020-07-16T05:26:15Z</time>
      </trkpt>
      <trkpt lat="37.8555080" lon="-3.0810920">
        <ele>576.8</ele>
        <time>2020-07-16T05:26:16Z</time>
      </trkpt>
      <trkpt lat="37.8554580" lon="-3.0810090">
        <ele>577.2</ele>
        <time>2020-07-16T05:26:18Z</time>
      </trkpt>
      <trkpt lat="37.8554080" lon="-3.0809250">
        <ele>577.8</ele>
        <time>2020-07-16T05:26:20Z</time>
      </trkpt>
      <trkpt lat="37.8553850" lon="-3.0808860">
        <ele>577.8</ele>
        <time>2020-07-16T05:26:21Z</time>
      </trkpt>
      <trkpt lat="37.8553200" lon="-3.0807700">
        <ele>578.4</ele>
        <time>2020-07-16T05:26:24Z</time>
      </trkpt>
      <trkpt lat="37.8552790" lon="-3.0806910">
        <ele>578.8</ele>
        <time>2020-07-16T05:26:26Z</time>
      </trkpt>
      <trkpt lat="37.8552130" lon="-3.0805920">
        <ele>579.4</ele>
        <time>2020-07-16T05:26:29Z</time>
      </trkpt>
      <trkpt lat="37.8551900" lon="-3.0805600">
        <ele>579.6</ele>
        <time>2020-07-16T05:26:30Z</time>
      </trkpt>
      <trkpt lat="37.8551400" lon="-3.0805040">
        <ele>580.0</ele>
        <time>2020-07-16T05:26:32Z</time>
      </trkpt>
      <trkpt lat="37.8550450" lon="-3.0803930">
        <ele>580.6</ele>
        <time>2020-07-16T05:26:36Z</time>
      </trkpt>
      <trkpt lat="37.8549990" lon="-3.0803420">
        <ele>581.0</ele>
        <time>2020-07-16T05:26:38Z</time>
      </trkpt>
      <trkpt lat="37.8548950" lon="-3.0802510">
        <ele>582.0</ele>
        <time>2020-07-16T05:26:42Z</time>
      </trkpt>
      <trkpt lat="37.8548700" lon="-3.0802310">
        <ele>582.2</ele>
        <time>2020-07-16T05:26:43Z</time>
      </trkpt>
      <trkpt lat="37.8547930" lon="-3.0801720">
        <ele>583.0</ele>
        <time>2020-07-16T05:26:46Z</time>
      </trkpt>
      <trkpt lat="37.8547660" lon="-3.0801560">
        <ele>583.2</ele>
        <time>2020-07-16T05:26:47Z</time>
      </trkpt>
      <trkpt lat="37.8546240" lon="-3.0800800">
        <ele>584.2</ele>
        <time>2020-07-16T05:26:52Z</time>
      </trkpt>
      <trkpt lat="37.8545590" lon="-3.0800530">
        <ele>584.8</ele>
        <time>2020-07-16T05:26:54Z</time>
      </trkpt>
      <trkpt lat="37.8544770" lon="-3.0800190">
        <ele>585.4</ele>
        <time>2020-07-16T05:26:57Z</time>
      </trkpt>
      <trkpt lat="37.8543700" lon="-3.0799780">
        <ele>586.2</ele>
        <time>2020-07-16T05:27:01Z</time>
      </trkpt>
      <trkpt lat="37.8543460" lon="-3.0799700">
        <ele>586.4</ele>
        <time>2020-07-16T05:27:02Z</time>
      </trkpt>
      <trkpt lat="37.8542720" lon="-3.0799990">
        <ele>587.2</ele>
        <time>2020-07-16T05:27:05Z</time>
      </trkpt>
      <trkpt lat="37.8542820" lon="-3.0800370">
        <ele>587.4</ele>
        <time>2020-07-16T05:27:06Z</time>
      </trkpt>
      <trkpt lat="37.8543020" lon="-3.0800600">
        <ele>587.6</ele>
        <time>2020-07-16T05:27:07Z</time>
      </trkpt>
      <trkpt lat="37.8543500" lon="-3.0801070">
        <ele>588.0</ele>
        <time>2020-07-16T05:27:09Z</time>
      </trkpt>
      <trkpt lat="37.8543720" lon="-3.0801330">
        <ele>588.2</ele>
        <time>2020-07-16T05:27:10Z</time>
      </trkpt>
      <trkpt lat="37.8544360" lon="-3.0801940">
        <ele>588.8</ele>
        <time>2020-07-16T05:27:13Z</time>
      </trkpt>
      <trkpt lat="37.8545460" lon="-3.0803130">
        <ele>590.0</ele>
        <time>2020-07-16T05:27:18Z</time>
      </trkpt>
      <trkpt lat="37.8547010" lon="-3.0805260">
        <ele>591.0</ele>
        <time>2020-07-16T05:27:25Z</time>
      </trkpt>
      <trkpt lat="37.8547170" lon="-3.0805690">
        <ele>591.2</ele>
        <time>2020-07-16T05:27:26Z</time>
      </trkpt>
      <trkpt lat="37.8547530" lon="-3.0807340">
        <ele>591.4</ele>
        <time>2020-07-16T05:27:29Z</time>
      </trkpt>
      <trkpt lat="37.8547700" lon="-3.0808680">
        <ele>591.4</ele>
        <time>2020-07-16T05:27:31Z</time>
      </trkpt>
      <trkpt lat="37.8548570" lon="-3.0812600">
        <ele>590.4</ele>
        <time>2020-07-16T05:27:36Z</time>
      </trkpt>
      <trkpt lat="37.8548920" lon="-3.0814270">
        <ele>590.0</ele>
        <time>2020-07-16T05:27:38Z</time>
      </trkpt>
      <trkpt lat="37.8549480" lon="-3.0816800">
        <ele>589.4</ele>
        <time>2020-07-16T05:27:41Z</time>
      </trkpt>
      <trkpt lat="37.8549880" lon="-3.0818390">
        <ele>589.2</ele>
        <time>2020-07-16T05:27:43Z</time>
      </trkpt>
      <trkpt lat="37.8550240" lon="-3.0819990">
        <ele>589.2</ele>
        <time>2020-07-16T05:27:45Z</time>
      </trkpt>
      <trkpt lat="37.8550350" lon="-3.0821650">
        <ele>589.0</ele>
        <time>2020-07-16T05:27:47Z</time>
      </trkpt>
      <trkpt lat="37.8550280" lon="-3.0823380">
        <ele>588.8</ele>
        <time>2020-07-16T05:27:49Z</time>
      </trkpt>
      <trkpt lat="37.8550000" lon="-3.0826110">
        <ele>588.6</ele>
        <time>2020-07-16T05:27:52Z</time>
      </trkpt>
      <trkpt lat="37.8549660" lon="-3.0829000">
        <ele>588.0</ele>
        <time>2020-07-16T05:27:55Z</time>
      </trkpt>
      <trkpt lat="37.8549640" lon="-3.0830010">
        <ele>587.8</ele>
        <time>2020-07-16T05:27:56Z</time>
      </trkpt>
      <trkpt lat="37.8549840" lon="-3.0831910">
        <ele>587.0</ele>
        <time>2020-07-16T05:27:58Z</time>
      </trkpt>
      <trkpt lat="37.8549900" lon="-3.0832880">
        <ele>587.0</ele>
        <time>2020-07-16T05:27:59Z</time>
      </trkpt>
      <trkpt lat="37.8549920" lon="-3.0833740">
        <ele>586.6</ele>
        <time>2020-07-16T05:28:00Z</time>
      </trkpt>
      <trkpt lat="37.8549860" lon="-3.0837750">
        <ele>587.2</ele>
        <time>2020-07-16T05:28:05Z</time>
      </trkpt>
      <trkpt lat="37.8549470" lon="-3.0841550">
        <ele>587.8</ele>
        <time>2020-07-16T05:28:10Z</time>
      </trkpt>
      <trkpt lat="37.8549030" lon="-3.0843720">
        <ele>588.2</ele>
        <time>2020-07-16T05:28:13Z</time>
      </trkpt>
      <trkpt lat="37.8547850" lon="-3.0849700">
        <ele>588.2</ele>
        <time>2020-07-16T05:28:21Z</time>
      </trkpt>
      <trkpt lat="37.8547860" lon="-3.0850560">
        <ele>588.2</ele>
        <time>2020-07-16T05:28:22Z</time>
      </trkpt>
      <trkpt lat="37.8548160" lon="-3.0852860">
        <ele>588.0</ele>
        <time>2020-07-16T05:28:25Z</time>
      </trkpt>
      <trkpt lat="37.8548270" lon="-3.0853590">
        <ele>587.6</ele>
        <time>2020-07-16T05:28:26Z</time>
      </trkpt>
      <trkpt lat="37.8548640" lon="-3.0856750">
        <ele>586.8</ele>
        <time>2020-07-16T05:28:30Z</time>
      </trkpt>
      <trkpt lat="37.8548630" lon="-3.0857560">
        <ele>586.8</ele>
        <time>2020-07-16T05:28:31Z</time>
      </trkpt>
      <trkpt lat="37.8548600" lon="-3.0859060">
        <ele>587.2</ele>
        <time>2020-07-16T05:28:33Z</time>
      </trkpt>
      <trkpt lat="37.8548690" lon="-3.0866060">
        <ele>587.8</ele>
        <time>2020-07-16T05:28:42Z</time>
      </trkpt>
      <trkpt lat="37.8548800" lon="-3.0866800">
        <ele>587.8</ele>
        <time>2020-07-16T05:28:43Z</time>
      </trkpt>
      <trkpt lat="37.8549460" lon="-3.0872270">
        <ele>587.6</ele>
        <time>2020-07-16T05:28:50Z</time>
      </trkpt>
      <trkpt lat="37.8550080" lon="-3.0878700">
        <ele>587.2</ele>
        <time>2020-07-16T05:28:58Z</time>
      </trkpt>
      <trkpt lat="37.8550550" lon="-3.0882890">
        <ele>586.8</ele>
        <time>2020-07-16T05:29:03Z</time>
      </trkpt>
      <trkpt lat="37.8550450" lon="-3.0883850">
        <ele>586.8</ele>
        <time>2020-07-16T05:29:04Z</time>
      </trkpt>
      <trkpt lat="37.8549150" lon="-3.0887240">
        <ele>585.8</ele>
        <time>2020-07-16T05:29:08Z</time>
      </trkpt>
      <trkpt lat="37.8548550" lon="-3.0887920">
        <ele>585.4</ele>
        <time>2020-07-16T05:29:09Z</time>
      </trkpt>
      <trkpt lat="37.8547090" lon="-3.0889070">
        <ele>584.6</ele>
        <time>2020-07-16T05:29:11Z</time>
      </trkpt>
      <trkpt lat="37.8546360" lon="-3.0889590">
        <ele>584.0</ele>
        <time>2020-07-16T05:29:12Z</time>
      </trkpt>
      <trkpt lat="37.8545220" lon="-3.0890790">
        <ele>583.2</ele>
        <time>2020-07-16T05:29:14Z</time>
      </trkpt>
      <trkpt lat="37.8545050" lon="-3.0891630">
        <ele>583.0</ele>
        <time>2020-07-16T05:29:15Z</time>
      </trkpt>
      <trkpt lat="37.8545560" lon="-3.0893380">
        <ele>582.0</ele>
        <time>2020-07-16T05:29:17Z</time>
      </trkpt>
      <trkpt lat="37.8546080" lon="-3.0893860">
        <ele>581.8</ele>
        <time>2020-07-16T05:29:18Z</time>
      </trkpt>
      <trkpt lat="37.8546710" lon="-3.0894220">
        <ele>581.2</ele>
        <time>2020-07-16T05:29:19Z</time>
      </trkpt>
      <trkpt lat="37.8547930" lon="-3.0894700">
        <ele>580.8</ele>
        <time>2020-07-16T05:29:21Z</time>
      </trkpt>
      <trkpt lat="37.8548580" lon="-3.0895070">
        <ele>580.8</ele>
        <time>2020-07-16T05:29:22Z</time>
      </trkpt>
      <trkpt lat="37.8549120" lon="-3.0895520">
        <ele>580.6</ele>
        <time>2020-07-16T05:29:23Z</time>
      </trkpt>
      <trkpt lat="37.8550940" lon="-3.0898050">
        <ele>580.4</ele>
        <time>2020-07-16T05:29:27Z</time>
      </trkpt>
      <trkpt lat="37.8551330" lon="-3.0898770">
        <ele>580.4</ele>
        <time>2020-07-16T05:29:28Z</time>
      </trkpt>
      <trkpt lat="37.8552790" lon="-3.0901870">
        <ele>580.4</ele>
        <time>2020-07-16T05:29:32Z</time>
      </trkpt>
      <trkpt lat="37.8553460" lon="-3.0903410">
        <ele>580.2</ele>
        <time>2020-07-16T05:29:34Z</time>
      </trkpt>
      <trkpt lat="37.8554090" lon="-3.0905870">
        <ele>580.4</ele>
        <time>2020-07-16T05:29:37Z</time>
      </trkpt>
      <trkpt lat="37.8554220" lon="-3.0907490">
        <ele>580.2</ele>
        <time>2020-07-16T05:29:39Z</time>
      </trkpt>
      <trkpt lat="37.8554960" lon="-3.0912920">
        <ele>580.4</ele>
        <time>2020-07-16T05:29:46Z</time>
      </trkpt>
      <trkpt lat="37.8555000" lon="-3.0914490">
        <ele>580.8</ele>
        <time>2020-07-16T05:29:48Z</time>
      </trkpt>
      <trkpt lat="37.8554800" lon="-3.0916190">
        <ele>580.8</ele>
        <time>2020-07-16T05:29:50Z</time>
      </trkpt>
      <trkpt lat="37.8553750" lon="-3.0919020">
        <ele>580.6</ele>
        <time>2020-07-16T05:29:54Z</time>
      </trkpt>
      <trkpt lat="37.8552990" lon="-3.0920180">
        <ele>580.8</ele>
        <time>2020-07-16T05:29:56Z</time>
      </trkpt>
      <trkpt lat="37.8551510" lon="-3.0922810">
        <ele>581.2</ele>
        <time>2020-07-16T05:30:00Z</time>
      </trkpt>
      <trkpt lat="37.8550440" lon="-3.0925030">
        <ele>581.0</ele>
        <time>2020-07-16T05:30:03Z</time>
      </trkpt>
      <trkpt lat="37.8549670" lon="-3.0927670">
        <ele>580.4</ele>
        <time>2020-07-16T05:30:06Z</time>
      </trkpt>
      <trkpt lat="37.8549640" lon="-3.0928520">
        <ele>580.0</ele>
        <time>2020-07-16T05:30:07Z</time>
      </trkpt>
      <trkpt lat="37.8549850" lon="-3.0930170">
        <ele>579.6</ele>
        <time>2020-07-16T05:30:09Z</time>
      </trkpt>
      <trkpt lat="37.8550230" lon="-3.0931800">
        <ele>579.6</ele>
        <time>2020-07-16T05:30:11Z</time>
      </trkpt>
      <trkpt lat="37.8551010" lon="-3.0934110">
        <ele>579.6</ele>
        <time>2020-07-16T05:30:14Z</time>
      </trkpt>
      <trkpt lat="37.8552150" lon="-3.0938580">
        <ele>579.8</ele>
        <time>2020-07-16T05:30:20Z</time>
      </trkpt>
      <trkpt lat="37.8553100" lon="-3.0942110">
        <ele>580.2</ele>
        <time>2020-07-16T05:30:25Z</time>
      </trkpt>
      <trkpt lat="37.8553530" lon="-3.0943440">
        <ele>580.4</ele>
        <time>2020-07-16T05:30:27Z</time>
      </trkpt>
      <trkpt lat="37.8554150" lon="-3.0945680">
        <ele>580.8</ele>
        <time>2020-07-16T05:30:30Z</time>
      </trkpt>
      <trkpt lat="37.8554370" lon="-3.0947070">
        <ele>581.0</ele>
        <time>2020-07-16T05:30:32Z</time>
      </trkpt>
      <trkpt lat="37.8554370" lon="-3.0947740">
        <ele>581.0</ele>
        <time>2020-07-16T05:30:33Z</time>
      </trkpt>
      <trkpt lat="37.8553920" lon="-3.0951600">
        <ele>580.8</ele>
        <time>2020-07-16T05:30:38Z</time>
      </trkpt>
      <trkpt lat="37.8552830" lon="-3.0956870">
        <ele>580.2</ele>
        <time>2020-07-16T05:30:44Z</time>
      </trkpt>
      <trkpt lat="37.8551710" lon="-3.0959480">
        <ele>579.8</ele>
        <time>2020-07-16T05:30:47Z</time>
      </trkpt>
      <trkpt lat="37.8551150" lon="-3.0961260">
        <ele>579.2</ele>
        <time>2020-07-16T05:30:49Z</time>
      </trkpt>
      <trkpt lat="37.8550880" lon="-3.0962960">
        <ele>578.8</ele>
        <time>2020-07-16T05:30:51Z</time>
      </trkpt>
      <trkpt lat="37.8550860" lon="-3.0964680">
        <ele>578.4</ele>
        <time>2020-07-16T05:30:53Z</time>
      </trkpt>
      <trkpt lat="37.8551100" lon="-3.0967040">
        <ele>578.8</ele>
        <time>2020-07-16T05:30:56Z</time>
      </trkpt>
      <trkpt lat="37.8551160" lon="-3.0968380">
        <ele>579.2</ele>
        <time>2020-07-16T05:30:58Z</time>
      </trkpt>
      <trkpt lat="37.8551090" lon="-3.0969060">
        <ele>579.6</ele>
        <time>2020-07-16T05:30:59Z</time>
      </trkpt>
      <trkpt lat="37.8550810" lon="-3.0970310">
        <ele>579.8</ele>
        <time>2020-07-16T05:31:01Z</time>
      </trkpt>
      <trkpt lat="37.8550630" lon="-3.0970900">
        <ele>580.2</ele>
        <time>2020-07-16T05:31:02Z</time>
      </trkpt>
      <trkpt lat="37.8549890" lon="-3.0972680">
        <ele>581.0</ele>
        <time>2020-07-16T05:31:05Z</time>
      </trkpt>
      <trkpt lat="37.8549160" lon="-3.0973610">
        <ele>581.2</ele>
        <time>2020-07-16T05:31:07Z</time>
      </trkpt>
      <trkpt lat="37.8547060" lon="-3.0974900">
        <ele>581.4</ele>
        <time>2020-07-16T05:31:11Z</time>
      </trkpt>
      <trkpt lat="37.8544100" lon="-3.0977350">
        <ele>580.4</ele>
        <time>2020-07-16T05:31:16Z</time>
      </trkpt>
      <trkpt lat="37.8543630" lon="-3.0978040">
        <ele>580.0</ele>
        <time>2020-07-16T05:31:17Z</time>
      </trkpt>
      <trkpt lat="37.8543230" lon="-3.0978770">
        <ele>580.0</ele>
        <time>2020-07-16T05:31:18Z</time>
      </trkpt>
      <trkpt lat="37.8542900" lon="-3.0980550">
        <ele>579.8</ele>
        <time>2020-07-16T05:31:20Z</time>
      </trkpt>
      <trkpt lat="37.8543470" lon="-3.0983930">
        <ele>579.6</ele>
        <time>2020-07-16T05:31:24Z</time>
      </trkpt>
      <trkpt lat="37.8545090" lon="-3.0985400">
        <ele>579.2</ele>
        <time>2020-07-16T05:31:27Z</time>
      </trkpt>
      <trkpt lat="37.8545700" lon="-3.0985830">
        <ele>579.2</ele>
        <time>2020-07-16T05:31:28Z</time>
      </trkpt>
      <trkpt lat="37.8548410" lon="-3.0987410">
        <ele>579.0</ele>
        <time>2020-07-16T05:31:32Z</time>
      </trkpt>
      <trkpt lat="37.8549060" lon="-3.0987590">
        <ele>578.8</ele>
        <time>2020-07-16T05:31:33Z</time>
      </trkpt>
      <trkpt lat="37.8551310" lon="-3.0987840">
        <ele>578.2</ele>
        <time>2020-07-16T05:31:36Z</time>
      </trkpt>
      <trkpt lat="37.8552650" lon="-3.0988140">
        <ele>578.4</ele>
        <time>2020-07-16T05:31:38Z</time>
      </trkpt>
      <trkpt lat="37.8554010" lon="-3.0988740">
        <ele>578.6</ele>
        <time>2020-07-16T05:31:40Z</time>
      </trkpt>
      <trkpt lat="37.8555150" lon="-3.0989820">
        <ele>578.6</ele>
        <time>2020-07-16T05:31:42Z</time>
      </trkpt>
      <trkpt lat="37.8556270" lon="-3.0992120">
        <ele>578.6</ele>
        <time>2020-07-16T05:31:45Z</time>
      </trkpt>
      <trkpt lat="37.8556790" lon="-3.0994810">
        <ele>578.4</ele>
        <time>2020-07-16T05:31:48Z</time>
      </trkpt>
      <trkpt lat="37.8556880" lon="-3.0995780">
        <ele>578.4</ele>
        <time>2020-07-16T05:31:49Z</time>
      </trkpt>
      <trkpt lat="37.8556760" lon="-3.0997560">
        <ele>578.0</ele>
        <time>2020-07-16T05:31:51Z</time>
      </trkpt>
      <trkpt lat="37.8555740" lon="-3.0999050">
        <ele>577.8</ele>
        <time>2020-07-16T05:31:53Z</time>
      </trkpt>
      <trkpt lat="37.8553140" lon="-3.1000070">
        <ele>576.6</ele>
        <time>2020-07-16T05:31:56Z</time>
      </trkpt>
      <trkpt lat="37.8552280" lon="-3.1000290">
        <ele>575.8</ele>
        <time>2020-07-16T05:31:57Z</time>
      </trkpt>
      <trkpt lat="37.8551410" lon="-3.1000550">
        <ele>575.2</ele>
        <time>2020-07-16T05:31:58Z</time>
      </trkpt>
      <trkpt lat="37.8549700" lon="-3.1001270">
        <ele>574.4</ele>
        <time>2020-07-16T05:32:00Z</time>
      </trkpt>
      <trkpt lat="37.8548960" lon="-3.1001760">
        <ele>574.0</ele>
        <time>2020-07-16T05:32:01Z</time>
      </trkpt>
      <trkpt lat="37.8548330" lon="-3.1002390">
        <ele>573.8</ele>
        <time>2020-07-16T05:32:02Z</time>
      </trkpt>
      <trkpt lat="37.8547920" lon="-3.1004230">
        <ele>573.6</ele>
        <time>2020-07-16T05:32:04Z</time>
      </trkpt>
      <trkpt lat="37.8548770" lon="-3.1005850">
        <ele>573.6</ele>
        <time>2020-07-16T05:32:06Z</time>
      </trkpt>
      <trkpt lat="37.8550640" lon="-3.1007530">
        <ele>573.8</ele>
        <time>2020-07-16T05:32:09Z</time>
      </trkpt>
      <trkpt lat="37.8553100" lon="-3.1010230">
        <ele>572.8</ele>
        <time>2020-07-16T05:32:13Z</time>
      </trkpt>
      <trkpt lat="37.8554930" lon="-3.1012260">
        <ele>572.2</ele>
        <time>2020-07-16T05:32:16Z</time>
      </trkpt>
      <trkpt lat="37.8558190" lon="-3.1014660">
        <ele>572.6</ele>
        <time>2020-07-16T05:32:21Z</time>
      </trkpt>
      <trkpt lat="37.8561500" lon="-3.1017040">
        <ele>572.2</ele>
        <time>2020-07-16T05:32:26Z</time>
      </trkpt>
      <trkpt lat="37.8561830" lon="-3.1017660">
        <ele>572.2</ele>
        <time>2020-07-16T05:32:27Z</time>
      </trkpt>
      <trkpt lat="37.8562970" lon="-3.1020730">
        <ele>571.6</ele>
        <time>2020-07-16T05:32:30Z</time>
      </trkpt>
      <trkpt lat="37.8563260" lon="-3.1021680">
        <ele>571.4</ele>
        <time>2020-07-16T05:32:31Z</time>
      </trkpt>
      <trkpt lat="37.8563820" lon="-3.1023520">
        <ele>570.6</ele>
        <time>2020-07-16T05:32:33Z</time>
      </trkpt>
      <trkpt lat="37.8564710" lon="-3.1025400">
        <ele>569.8</ele>
        <time>2020-07-16T05:32:35Z</time>
      </trkpt>
      <trkpt lat="37.8565320" lon="-3.1026090">
        <ele>569.6</ele>
        <time>2020-07-16T05:32:36Z</time>
      </trkpt>
      <trkpt lat="37.8567640" lon="-3.1028660">
        <ele>568.6</ele>
        <time>2020-07-16T05:32:40Z</time>
      </trkpt>
      <trkpt lat="37.8568070" lon="-3.1029490">
        <ele>568.4</ele>
        <time>2020-07-16T05:32:41Z</time>
      </trkpt>
      <trkpt lat="37.8568720" lon="-3.1032380">
        <ele>568.4</ele>
        <time>2020-07-16T05:32:44Z</time>
      </trkpt>
      <trkpt lat="37.8568710" lon="-3.1034430">
        <ele>568.2</ele>
        <time>2020-07-16T05:32:46Z</time>
      </trkpt>
      <trkpt lat="37.8568850" lon="-3.1035400">
        <ele>568.2</ele>
        <time>2020-07-16T05:32:47Z</time>
      </trkpt>
      <trkpt lat="37.8569180" lon="-3.1036280">
        <ele>568.0</ele>
        <time>2020-07-16T05:32:48Z</time>
      </trkpt>
      <trkpt lat="37.8570170" lon="-3.1037910">
        <ele>567.4</ele>
        <time>2020-07-16T05:32:50Z</time>
      </trkpt>
      <trkpt lat="37.8570690" lon="-3.1038570">
        <ele>567.2</ele>
        <time>2020-07-16T05:32:51Z</time>
      </trkpt>
      <trkpt lat="37.8571220" lon="-3.1039320">
        <ele>567.0</ele>
        <time>2020-07-16T05:32:52Z</time>
      </trkpt>
      <trkpt lat="37.8573360" lon="-3.1042500">
        <ele>566.4</ele>
        <time>2020-07-16T05:32:56Z</time>
      </trkpt>
      <trkpt lat="37.8575010" lon="-3.1044930">
        <ele>565.8</ele>
        <time>2020-07-16T05:32:59Z</time>
      </trkpt>
      <trkpt lat="37.8576450" lon="-3.1047650">
        <ele>565.2</ele>
        <time>2020-07-16T05:33:02Z</time>
      </trkpt>
      <trkpt lat="37.8576800" lon="-3.1049790">
        <ele>564.8</ele>
        <time>2020-07-16T05:33:04Z</time>
      </trkpt>
      <trkpt lat="37.8576300" lon="-3.1053060">
        <ele>564.2</ele>
        <time>2020-07-16T05:33:07Z</time>
      </trkpt>
      <trkpt lat="37.8575960" lon="-3.1054110">
        <ele>563.8</ele>
        <time>2020-07-16T05:33:08Z</time>
      </trkpt>
      <trkpt lat="37.8575600" lon="-3.1055160">
        <ele>563.4</ele>
        <time>2020-07-16T05:33:09Z</time>
      </trkpt>
      <trkpt lat="37.8575210" lon="-3.1057540">
        <ele>562.6</ele>
        <time>2020-07-16T05:33:11Z</time>
      </trkpt>
      <trkpt lat="37.8576450" lon="-3.1060620">
        <ele>561.0</ele>
        <time>2020-07-16T05:33:14Z</time>
      </trkpt>
      <trkpt lat="37.8578730" lon="-3.1062010">
        <ele>559.8</ele>
        <time>2020-07-16T05:33:17Z</time>
      </trkpt>
      <trkpt lat="37.8582780" lon="-3.1064270">
        <ele>560.6</ele>
        <time>2020-07-16T05:33:23Z</time>
      </trkpt>
      <trkpt lat="37.8583450" lon="-3.1064610">
        <ele>560.8</ele>
        <time>2020-07-16T05:33:24Z</time>
      </trkpt>
      <trkpt lat="37.8584050" lon="-3.1064970">
        <ele>561.0</ele>
        <time>2020-07-16T05:33:25Z</time>
      </trkpt>
      <trkpt lat="37.8585650" lon="-3.1066310">
        <ele>561.6</ele>
        <time>2020-07-16T05:33:28Z</time>
      </trkpt>
      <trkpt lat="37.8586090" lon="-3.1066990">
        <ele>561.8</ele>
        <time>2020-07-16T05:33:29Z</time>
      </trkpt>
      <trkpt lat="37.8586650" lon="-3.1069370">
        <ele>561.8</ele>
        <time>2020-07-16T05:33:32Z</time>
      </trkpt>
      <trkpt lat="37.8585860" lon="-3.1071610">
        <ele>561.8</ele>
        <time>2020-07-16T05:33:35Z</time>
      </trkpt>
      <trkpt lat="37.8584950" lon="-3.1072810">
        <ele>561.6</ele>
        <time>2020-07-16T05:33:37Z</time>
      </trkpt>
      <trkpt lat="37.8584090" lon="-3.1074160">
        <ele>561.6</ele>
        <time>2020-07-16T05:33:39Z</time>
      </trkpt>
      <trkpt lat="37.8582040" lon="-3.1076670">
        <ele>561.4</ele>
        <time>2020-07-16T05:33:43Z</time>
      </trkpt>
      <trkpt lat="37.8580870" lon="-3.1077560">
        <ele>561.0</ele>
        <time>2020-07-16T05:33:45Z</time>
      </trkpt>
      <trkpt lat="37.8580220" lon="-3.1077870">
        <ele>561.0</ele>
        <time>2020-07-16T05:33:46Z</time>
      </trkpt>
      <trkpt lat="37.8577960" lon="-3.1079050">
        <ele>561.0</ele>
        <time>2020-07-16T05:33:50Z</time>
      </trkpt>
      <trkpt lat="37.8576320" lon="-3.1079950">
        <ele>561.6</ele>
        <time>2020-07-16T05:33:53Z</time>
      </trkpt>
      <trkpt lat="37.8574600" lon="-3.1080900">
        <ele>562.2</ele>
        <time>2020-07-16T05:33:56Z</time>
      </trkpt>
      <trkpt lat="37.8573480" lon="-3.1081590">
        <ele>562.4</ele>
        <time>2020-07-16T05:33:58Z</time>
      </trkpt>
      <trkpt lat="37.8571290" lon="-3.1083340">
        <ele>562.2</ele>
        <time>2020-07-16T05:34:02Z</time>
      </trkpt>
      <trkpt lat="37.8569760" lon="-3.1084640">
        <ele>562.4</ele>
        <time>2020-07-16T05:34:05Z</time>
      </trkpt>
      <trkpt lat="37.8568130" lon="-3.1085520">
        <ele>562.6</ele>
        <time>2020-07-16T05:34:08Z</time>
      </trkpt>
      <trkpt lat="37.8566920" lon="-3.1085860">
        <ele>563.0</ele>
        <time>2020-07-16T05:34:10Z</time>
      </trkpt>
      <trkpt lat="37.8565840" lon="-3.1086070">
        <ele>563.2</ele>
        <time>2020-07-16T05:34:12Z</time>
      </trkpt>
      <trkpt lat="37.8563950" lon="-3.1086310">
        <ele>563.8</ele>
        <time>2020-07-16T05:34:16Z</time>
      </trkpt>
      <trkpt lat="37.8563160" lon="-3.1086420">
        <ele>564.2</ele>
        <time>2020-07-16T05:34:18Z</time>
      </trkpt>
      <trkpt lat="37.8561470" lon="-3.1086500">
        <ele>565.4</ele>
        <time>2020-07-16T05:34:23Z</time>
      </trkpt>
      <trkpt lat="37.8559890" lon="-3.1086700">
        <ele>566.6</ele>
        <time>2020-07-16T05:34:28Z</time>
      </trkpt>
      <trkpt lat="37.8558970" lon="-3.1086790">
        <ele>567.4</ele>
        <time>2020-07-16T05:34:31Z</time>
      </trkpt>
      <trkpt lat="37.8558680" lon="-3.1086870">
        <ele>567.6</ele>
        <time>2020-07-16T05:34:32Z</time>
      </trkpt>
      <trkpt lat="37.8557840" lon="-3.1087270">
        <ele>568.4</ele>
        <time>2020-07-16T05:34:35Z</time>
      </trkpt>
      <trkpt lat="37.8557590" lon="-3.1087470">
        <ele>568.8</ele>
        <time>2020-07-16T05:34:36Z</time>
      </trkpt>
      <trkpt lat="37.8557210" lon="-3.1087960">
        <ele>569.4</ele>
        <time>2020-07-16T05:34:38Z</time>
      </trkpt>
      <trkpt lat="37.8556860" lon="-3.1088590">
        <ele>570.0</ele>
        <time>2020-07-16T05:34:40Z</time>
      </trkpt>
      <trkpt lat="37.8556460" lon="-3.1089610">
        <ele>570.8</ele>
        <time>2020-07-16T05:34:43Z</time>
      </trkpt>
      <trkpt lat="37.8556290" lon="-3.1089970">
        <ele>571.0</ele>
        <time>2020-07-16T05:34:44Z</time>
      </trkpt>
      <trkpt lat="37.8556180" lon="-3.1090300">
        <ele>571.2</ele>
        <time>2020-07-16T05:34:45Z</time>
      </trkpt>
      <trkpt lat="37.8555560" lon="-3.1091900">
        <ele>572.4</ele>
        <time>2020-07-16T05:34:50Z</time>
      </trkpt>
      <trkpt lat="37.8555310" lon="-3.1092540">
        <ele>572.6</ele>
        <time>2020-07-16T05:34:52Z</time>
      </trkpt>
      <trkpt lat="37.8554770" lon="-3.1093740">
        <ele>573.6</ele>
        <time>2020-07-16T05:34:56Z</time>
      </trkpt>
      <trkpt lat="37.8554150" lon="-3.1095260">
        <ele>574.6</ele>
        <time>2020-07-16T05:35:01Z</time>
      </trkpt>
      <trkpt lat="37.8554010" lon="-3.1095560">
        <ele>574.8</ele>
        <time>2020-07-16T05:35:02Z</time>
      </trkpt>
      <trkpt lat="37.8553500" lon="-3.1096780">
        <ele>575.6</ele>
        <time>2020-07-16T05:35:06Z</time>
      </trkpt>
      <trkpt lat="37.8552890" lon="-3.1098280">
        <ele>576.8</ele>
        <time>2020-07-16T05:35:11Z</time>
      </trkpt>
      <trkpt lat="37.8552630" lon="-3.1098860">
        <ele>577.2</ele>
        <time>2020-07-16T05:35:13Z</time>
      </trkpt>
      <trkpt lat="37.8552360" lon="-3.1099840">
        <ele>577.8</ele>
        <time>2020-07-16T05:35:16Z</time>
      </trkpt>
      <trkpt lat="37.8551930" lon="-3.1101070">
        <ele>578.8</ele>
        <time>2020-07-16T05:35:20Z</time>
      </trkpt>
      <trkpt lat="37.8551520" lon="-3.1102650">
        <ele>580.0</ele>
        <time>2020-07-16T05:35:25Z</time>
      </trkpt>
      <trkpt lat="37.8551280" lon="-3.1103970">
        <ele>580.6</ele>
        <time>2020-07-16T05:35:29Z</time>
      </trkpt>
      <trkpt lat="37.8551070" lon="-3.1104890">
        <ele>581.2</ele>
        <time>2020-07-16T05:35:32Z</time>
      </trkpt>
      <trkpt lat="37.8550730" lon="-3.1106190">
        <ele>582.2</ele>
        <time>2020-07-16T05:35:36Z</time>
      </trkpt>
      <trkpt lat="37.8550630" lon="-3.1106490">
        <ele>582.4</ele>
        <time>2020-07-16T05:35:37Z</time>
      </trkpt>
      <trkpt lat="37.8550370" lon="-3.1108370">
        <ele>583.6</ele>
        <time>2020-07-16T05:35:43Z</time>
      </trkpt>
      <trkpt lat="37.8550340" lon="-3.1108700">
        <ele>584.0</ele>
        <time>2020-07-16T05:35:44Z</time>
      </trkpt>
      <trkpt lat="37.8550330" lon="-3.1109950">
        <ele>584.8</ele>
        <time>2020-07-16T05:35:48Z</time>
      </trkpt>
      <trkpt lat="37.8550320" lon="-3.1111480">
        <ele>586.0</ele>
        <time>2020-07-16T05:35:53Z</time>
      </trkpt>
      <trkpt lat="37.8550020" lon="-3.1113200">
        <ele>587.0</ele>
        <time>2020-07-16T05:35:59Z</time>
      </trkpt>
      <trkpt lat="37.8549950" lon="-3.1113470">
        <ele>587.4</ele>
        <time>2020-07-16T05:36:00Z</time>
      </trkpt>
      <trkpt lat="37.8549470" lon="-3.1114780">
        <ele>588.2</ele>
        <time>2020-07-16T05:36:05Z</time>
      </trkpt>
      <trkpt lat="37.8548950" lon="-3.1115740">
        <ele>589.4</ele>
        <time>2020-07-16T05:36:09Z</time>
      </trkpt>
      <trkpt lat="37.8548810" lon="-3.1115980">
        <ele>589.6</ele>
        <time>2020-07-16T05:36:10Z</time>
      </trkpt>
      <trkpt lat="37.8548260" lon="-3.1116900">
        <ele>590.4</ele>
        <time>2020-07-16T05:36:14Z</time>
      </trkpt>
      <trkpt lat="37.8547650" lon="-3.1118050">
        <ele>591.6</ele>
        <time>2020-07-16T05:36:19Z</time>
      </trkpt>
      <trkpt lat="37.8547050" lon="-3.1119210">
        <ele>592.6</ele>
        <time>2020-07-16T05:36:24Z</time>
      </trkpt>
      <trkpt lat="37.8546650" lon="-3.1120140">
        <ele>593.4</ele>
        <time>2020-07-16T05:36:28Z</time>
      </trkpt>
      <trkpt lat="37.8546400" lon="-3.1120640">
        <ele>593.8</ele>
        <time>2020-07-16T05:36:30Z</time>
      </trkpt>
      <trkpt lat="37.8545930" lon="-3.1121560">
        <ele>594.8</ele>
        <time>2020-07-16T05:36:34Z</time>
      </trkpt>
      <trkpt lat="37.8545320" lon="-3.1122400">
        <ele>596.0</ele>
        <time>2020-07-16T05:36:38Z</time>
      </trkpt>
      <trkpt lat="37.8544220" lon="-3.1123670">
        <ele>597.0</ele>
        <time>2020-07-16T05:36:44Z</time>
      </trkpt>
      <trkpt lat="37.8543670" lon="-3.1124300">
        <ele>597.6</ele>
        <time>2020-07-16T05:36:47Z</time>
      </trkpt>
      <trkpt lat="37.8543320" lon="-3.1124740">
        <ele>598.2</ele>
        <time>2020-07-16T05:36:49Z</time>
      </trkpt>
      <trkpt lat="37.8542270" lon="-3.1126340">
        <ele>599.4</ele>
        <time>2020-07-16T05:36:56Z</time>
      </trkpt>
      <trkpt lat="37.8541990" lon="-3.1126830">
        <ele>600.0</ele>
        <time>2020-07-16T05:36:58Z</time>
      </trkpt>
      <trkpt lat="37.8541670" lon="-3.1127370">
        <ele>600.6</ele>
        <time>2020-07-16T05:37:00Z</time>
      </trkpt>
      <trkpt lat="37.8541090" lon="-3.1128380">
        <ele>601.6</ele>
        <time>2020-07-16T05:37:04Z</time>
      </trkpt>
      <trkpt lat="37.8540490" lon="-3.1129310">
        <ele>602.4</ele>
        <time>2020-07-16T05:37:08Z</time>
      </trkpt>
      <trkpt lat="37.8540200" lon="-3.1129800">
        <ele>602.8</ele>
        <time>2020-07-16T05:37:10Z</time>
      </trkpt>
      <trkpt lat="37.8539350" lon="-3.1131160">
        <ele>603.8</ele>
        <time>2020-07-16T05:37:16Z</time>
      </trkpt>
      <trkpt lat="37.8538790" lon="-3.1132090">
        <ele>604.4</ele>
        <time>2020-07-16T05:37:20Z</time>
      </trkpt>
      <trkpt lat="37.8538500" lon="-3.1132530">
        <ele>605.0</ele>
        <time>2020-07-16T05:37:22Z</time>
      </trkpt>
      <trkpt lat="37.8537930" lon="-3.1133480">
        <ele>606.2</ele>
        <time>2020-07-16T05:37:26Z</time>
      </trkpt>
      <trkpt lat="37.8537390" lon="-3.1134420">
        <ele>607.0</ele>
        <time>2020-07-16T05:37:30Z</time>
      </trkpt>
      <trkpt lat="37.8537240" lon="-3.1134660">
        <ele>607.2</ele>
        <time>2020-07-16T05:37:31Z</time>
      </trkpt>
      <trkpt lat="37.8536660" lon="-3.1136230">
        <ele>608.4</ele>
        <time>2020-07-16T05:37:37Z</time>
      </trkpt>
      <trkpt lat="37.8536570" lon="-3.1136490">
        <ele>608.4</ele>
        <time>2020-07-16T05:37:38Z</time>
      </trkpt>
      <trkpt lat="37.8536410" lon="-3.1137870">
        <ele>609.6</ele>
        <time>2020-07-16T05:37:43Z</time>
      </trkpt>
      <trkpt lat="37.8536340" lon="-3.1138650">
        <ele>610.4</ele>
        <time>2020-07-16T05:37:46Z</time>
      </trkpt>
      <trkpt lat="37.8536360" lon="-3.1138920">
        <ele>610.6</ele>
        <time>2020-07-16T05:37:47Z</time>
      </trkpt>
      <trkpt lat="37.8536220" lon="-3.1140210">
        <ele>611.8</ele>
        <time>2020-07-16T05:37:52Z</time>
      </trkpt>
      <trkpt lat="37.8536120" lon="-3.1140770">
        <ele>612.2</ele>
        <time>2020-07-16T05:37:54Z</time>
      </trkpt>
      <trkpt lat="37.8535920" lon="-3.1141840">
        <ele>613.0</ele>
        <time>2020-07-16T05:37:58Z</time>
      </trkpt>
      <trkpt lat="37.8535600" lon="-3.1143150">
        <ele>614.0</ele>
        <time>2020-07-16T05:38:03Z</time>
      </trkpt>
      <trkpt lat="37.8535530" lon="-3.1143420">
        <ele>614.2</ele>
        <time>2020-07-16T05:38:04Z</time>
      </trkpt>
      <trkpt lat="37.8535040" lon="-3.1144420">
        <ele>615.2</ele>
        <time>2020-07-16T05:38:08Z</time>
      </trkpt>
      <trkpt lat="37.8534470" lon="-3.1145040">
        <ele>616.0</ele>
        <time>2020-07-16T05:38:11Z</time>
      </trkpt>
      <trkpt lat="37.8534110" lon="-3.1145370">
        <ele>616.4</ele>
        <time>2020-07-16T05:38:13Z</time>
      </trkpt>
      <trkpt lat="37.8533340" lon="-3.1146070">
        <ele>617.6</ele>
        <time>2020-07-16T05:38:17Z</time>
      </trkpt>
      <trkpt lat="37.8532940" lon="-3.1146310">
        <ele>618.0</ele>
        <time>2020-07-16T05:38:19Z</time>
      </trkpt>
      <trkpt lat="37.8532290" lon="-3.1146500">
        <ele>618.6</ele>
        <time>2020-07-16T05:38:22Z</time>
      </trkpt>
      <trkpt lat="37.8531150" lon="-3.1146720">
        <ele>619.6</ele>
        <time>2020-07-16T05:38:27Z</time>
      </trkpt>
      <trkpt lat="37.8530930" lon="-3.1146680">
        <ele>619.8</ele>
        <time>2020-07-16T05:38:28Z</time>
      </trkpt>
      <trkpt lat="37.8530280" lon="-3.1146540">
        <ele>620.8</ele>
        <time>2020-07-16T05:38:31Z</time>
      </trkpt>
      <trkpt lat="37.8529230" lon="-3.1146190">
        <ele>622.0</ele>
        <time>2020-07-16T05:38:36Z</time>
      </trkpt>
      <trkpt lat="37.8528620" lon="-3.1145870">
        <ele>622.6</ele>
        <time>2020-07-16T05:38:39Z</time>
      </trkpt>
      <trkpt lat="37.8528220" lon="-3.1145620">
        <ele>623.0</ele>
        <time>2020-07-16T05:38:41Z</time>
      </trkpt>
      <trkpt lat="37.8526960" lon="-3.1145080">
        <ele>624.2</ele>
        <time>2020-07-16T05:38:47Z</time>
      </trkpt>
      <trkpt lat="37.8526730" lon="-3.1145110">
        <ele>624.4</ele>
        <time>2020-07-16T05:38:48Z</time>
      </trkpt>
      <trkpt lat="37.8525810" lon="-3.1145350">
        <ele>625.2</ele>
        <time>2020-07-16T05:38:52Z</time>
      </trkpt>
      <trkpt lat="37.8524720" lon="-3.1145920">
        <ele>626.4</ele>
        <time>2020-07-16T05:38:57Z</time>
      </trkpt>
      <trkpt lat="37.8524550" lon="-3.1146060">
        <ele>626.6</ele>
        <time>2020-07-16T05:38:58Z</time>
      </trkpt>
      <trkpt lat="37.8523570" lon="-3.1146820">
        <ele>627.6</ele>
        <time>2020-07-16T05:39:03Z</time>
      </trkpt>
      <trkpt lat="37.8522720" lon="-3.1147350">
        <ele>628.6</ele>
        <time>2020-07-16T05:39:07Z</time>
      </trkpt>
      <trkpt lat="37.8522530" lon="-3.1147470">
        <ele>628.8</ele>
        <time>2020-07-16T05:39:08Z</time>
      </trkpt>
      <trkpt lat="37.8520900" lon="-3.1148060">
        <ele>629.8</ele>
        <time>2020-07-16T05:39:15Z</time>
      </trkpt>
      <trkpt lat="37.8519960" lon="-3.1148110">
        <ele>630.8</ele>
        <time>2020-07-16T05:39:19Z</time>
      </trkpt>
      <trkpt lat="37.8519070" lon="-3.1147930">
        <ele>631.8</ele>
        <time>2020-07-16T05:39:23Z</time>
      </trkpt>
      <trkpt lat="37.8518810" lon="-3.1147870">
        <ele>632.0</ele>
        <time>2020-07-16T05:39:24Z</time>
      </trkpt>
      <trkpt lat="37.8517610" lon="-3.1147680">
        <ele>633.0</ele>
        <time>2020-07-16T05:39:29Z</time>
      </trkpt>
      <trkpt lat="37.8516690" lon="-3.1147530">
        <ele>633.8</ele>
        <time>2020-07-16T05:39:33Z</time>
      </trkpt>
      <trkpt lat="37.8516160" lon="-3.1147440">
        <ele>634.2</ele>
        <time>2020-07-16T05:39:35Z</time>
      </trkpt>
      <trkpt lat="37.8515160" lon="-3.1147440">
        <ele>635.2</ele>
        <time>2020-07-16T05:39:39Z</time>
      </trkpt>
      <trkpt lat="37.8514660" lon="-3.1147430">
        <ele>635.8</ele>
        <time>2020-07-16T05:39:41Z</time>
      </trkpt>
      <trkpt lat="37.8514170" lon="-3.1147490">
        <ele>636.6</ele>
        <time>2020-07-16T05:39:43Z</time>
      </trkpt>
      <trkpt lat="37.8512960" lon="-3.1147820">
        <ele>637.6</ele>
        <time>2020-07-16T05:39:48Z</time>
      </trkpt>
      <trkpt lat="37.8512230" lon="-3.1148160">
        <ele>638.4</ele>
        <time>2020-07-16T05:39:51Z</time>
      </trkpt>
      <trkpt lat="37.8511830" lon="-3.1148390">
        <ele>638.6</ele>
        <time>2020-07-16T05:39:53Z</time>
      </trkpt>
      <trkpt lat="37.8510840" lon="-3.1149180">
        <ele>640.0</ele>
        <time>2020-07-16T05:39:58Z</time>
      </trkpt>
      <trkpt lat="37.8510410" lon="-3.1149650">
        <ele>640.6</ele>
        <time>2020-07-16T05:40:00Z</time>
      </trkpt>
      <trkpt lat="37.8510200" lon="-3.1150290">
        <ele>641.2</ele>
        <time>2020-07-16T05:40:02Z</time>
      </trkpt>
      <trkpt lat="37.8510210" lon="-3.1150970">
        <ele>641.8</ele>
        <time>2020-07-16T05:40:04Z</time>
      </trkpt>
      <trkpt lat="37.8510300" lon="-3.1151740">
        <ele>642.2</ele>
        <time>2020-07-16T05:40:06Z</time>
      </trkpt>
      <trkpt lat="37.8510880" lon="-3.1153560">
        <ele>642.8</ele>
        <time>2020-07-16T05:40:11Z</time>
      </trkpt>
      <trkpt lat="37.8511480" lon="-3.1155370">
        <ele>643.2</ele>
        <time>2020-07-16T05:40:16Z</time>
      </trkpt>
      <trkpt lat="37.8512340" lon="-3.1157870">
        <ele>644.2</ele>
        <time>2020-07-16T05:40:23Z</time>
      </trkpt>
      <trkpt lat="37.8512500" lon="-3.1158260">
        <ele>644.4</ele>
        <time>2020-07-16T05:40:24Z</time>
      </trkpt>
      <trkpt lat="37.8512620" lon="-3.1158590">
        <ele>644.6</ele>
        <time>2020-07-16T05:40:25Z</time>
      </trkpt>
      <trkpt lat="37.8513390" lon="-3.1160700">
        <ele>645.4</ele>
        <time>2020-07-16T05:40:31Z</time>
      </trkpt>
      <trkpt lat="37.8513800" lon="-3.1161770">
        <ele>645.8</ele>
        <time>2020-07-16T05:40:34Z</time>
      </trkpt>
      <trkpt lat="37.8514320" lon="-3.1163250">
        <ele>646.4</ele>
        <time>2020-07-16T05:40:38Z</time>
      </trkpt>
      <trkpt lat="37.8514530" lon="-3.1164010">
        <ele>646.6</ele>
        <time>2020-07-16T05:40:40Z</time>
      </trkpt>
      <trkpt lat="37.8514940" lon="-3.1165650">
        <ele>647.2</ele>
        <time>2020-07-16T05:40:44Z</time>
      </trkpt>
      <trkpt lat="37.8515370" lon="-3.1167970">
        <ele>647.8</ele>
        <time>2020-07-16T05:40:49Z</time>
      </trkpt>
      <trkpt lat="37.8516010" lon="-3.1170780">
        <ele>649.0</ele>
        <time>2020-07-16T05:40:55Z</time>
      </trkpt>
      <trkpt lat="37.8516920" lon="-3.1171780">
        <ele>649.2</ele>
        <time>2020-07-16T05:40:58Z</time>
      </trkpt>
      <trkpt lat="37.8517590" lon="-3.1172410">
        <ele>649.2</ele>
        <time>2020-07-16T05:41:00Z</time>
      </trkpt>
      <trkpt lat="37.8517900" lon="-3.1172770">
        <ele>649.4</ele>
        <time>2020-07-16T05:41:01Z</time>
      </trkpt>
      <trkpt lat="37.8518370" lon="-3.1173570">
        <ele>649.6</ele>
        <time>2020-07-16T05:41:03Z</time>
      </trkpt>
      <trkpt lat="37.8518520" lon="-3.1174660">
        <ele>649.8</ele>
        <time>2020-07-16T05:41:05Z</time>
      </trkpt>
      <trkpt lat="37.8518440" lon="-3.1175670">
        <ele>650.0</ele>
        <time>2020-07-16T05:41:07Z</time>
      </trkpt>
      <trkpt lat="37.8518130" lon="-3.1177630">
        <ele>650.6</ele>
        <time>2020-07-16T05:41:11Z</time>
      </trkpt>
      <trkpt lat="37.8518060" lon="-3.1179160">
        <ele>651.0</ele>
        <time>2020-07-16T05:41:14Z</time>
      </trkpt>
      <trkpt lat="37.8518200" lon="-3.1181970">
        <ele>652.0</ele>
        <time>2020-07-16T05:41:20Z</time>
      </trkpt>
      <trkpt lat="37.8518240" lon="-3.1182390">
        <ele>652.2</ele>
        <time>2020-07-16T05:41:21Z</time>
      </trkpt>
      <trkpt lat="37.8518290" lon="-3.1184020">
        <ele>653.2</ele>
        <time>2020-07-16T05:41:25Z</time>
      </trkpt>
      <trkpt lat="37.8518340" lon="-3.1185600">
        <ele>654.0</ele>
        <time>2020-07-16T05:41:29Z</time>
      </trkpt>
      <trkpt lat="37.8518350" lon="-3.1186000">
        <ele>654.4</ele>
        <time>2020-07-16T05:41:30Z</time>
      </trkpt>
      <trkpt lat="37.8518410" lon="-3.1187570">
        <ele>655.6</ele>
        <time>2020-07-16T05:41:34Z</time>
      </trkpt>
      <trkpt lat="37.8518480" lon="-3.1189430">
        <ele>656.2</ele>
        <time>2020-07-16T05:41:38Z</time>
      </trkpt>
      <trkpt lat="37.8518430" lon="-3.1190420">
        <ele>656.4</ele>
        <time>2020-07-16T05:41:40Z</time>
      </trkpt>
      <trkpt lat="37.8518360" lon="-3.1190940">
        <ele>656.6</ele>
        <time>2020-07-16T05:41:41Z</time>
      </trkpt>
      <trkpt lat="37.8517950" lon="-3.1193180">
        <ele>656.8</ele>
        <time>2020-07-16T05:41:45Z</time>
      </trkpt>
      <trkpt lat="37.8517090" lon="-3.1197040">
        <ele>656.6</ele>
        <time>2020-07-16T05:41:51Z</time>
      </trkpt>
      <trkpt lat="37.8516800" lon="-3.1198450">
        <ele>656.4</ele>
        <time>2020-07-16T05:41:53Z</time>
      </trkpt>
      <trkpt lat="37.8516710" lon="-3.1199180">
        <ele>656.4</ele>
        <time>2020-07-16T05:41:54Z</time>
      </trkpt>
      <trkpt lat="37.8516550" lon="-3.1201510">
        <ele>656.4</ele>
        <time>2020-07-16T05:41:57Z</time>
      </trkpt>
      <trkpt lat="37.8516490" lon="-3.1202390">
        <ele>656.4</ele>
        <time>2020-07-16T05:41:58Z</time>
      </trkpt>
      <trkpt lat="37.8516230" lon="-3.1204220">
        <ele>656.0</ele>
        <time>2020-07-16T05:42:00Z</time>
      </trkpt>
      <trkpt lat="37.8515710" lon="-3.1206060">
        <ele>655.6</ele>
        <time>2020-07-16T05:42:02Z</time>
      </trkpt>
      <trkpt lat="37.8515360" lon="-3.1206820">
        <ele>655.4</ele>
        <time>2020-07-16T05:42:03Z</time>
      </trkpt>
      <trkpt lat="37.8514520" lon="-3.1208600">
        <ele>654.8</ele>
        <time>2020-07-16T05:42:05Z</time>
      </trkpt>
      <trkpt lat="37.8513790" lon="-3.1210260">
        <ele>654.2</ele>
        <time>2020-07-16T05:42:07Z</time>
      </trkpt>
      <trkpt lat="37.8513080" lon="-3.1211860">
        <ele>653.6</ele>
        <time>2020-07-16T05:42:09Z</time>
      </trkpt>
      <trkpt lat="37.8512830" lon="-3.1212680">
        <ele>653.2</ele>
        <time>2020-07-16T05:42:10Z</time>
      </trkpt>
      <trkpt lat="37.8512420" lon="-3.1214390">
        <ele>652.8</ele>
        <time>2020-07-16T05:42:12Z</time>
      </trkpt>
      <trkpt lat="37.8512310" lon="-3.1216180">
        <ele>652.6</ele>
        <time>2020-07-16T05:42:14Z</time>
      </trkpt>
      <trkpt lat="37.8512390" lon="-3.1217790">
        <ele>652.6</ele>
        <time>2020-07-16T05:42:16Z</time>
      </trkpt>
      <trkpt lat="37.8512520" lon="-3.1219970">
        <ele>653.2</ele>
        <time>2020-07-16T05:42:19Z</time>
      </trkpt>
      <trkpt lat="37.8512260" lon="-3.1221330">
        <ele>653.8</ele>
        <time>2020-07-16T05:42:21Z</time>
      </trkpt>
      <trkpt lat="37.8511950" lon="-3.1221880">
        <ele>654.0</ele>
        <time>2020-07-16T05:42:22Z</time>
      </trkpt>
      <trkpt lat="37.8511560" lon="-3.1222500">
        <ele>654.2</ele>
        <time>2020-07-16T05:42:23Z</time>
      </trkpt>
      <trkpt lat="37.8511220" lon="-3.1223120">
        <ele>654.2</ele>
        <time>2020-07-16T05:42:24Z</time>
      </trkpt>
      <trkpt lat="37.8510580" lon="-3.1225390">
        <ele>654.4</ele>
        <time>2020-07-16T05:42:27Z</time>
      </trkpt>
      <trkpt lat="37.8510810" lon="-3.1226190">
        <ele>654.4</ele>
        <time>2020-07-16T05:42:28Z</time>
      </trkpt>
      <trkpt lat="37.8512150" lon="-3.1227920">
        <ele>654.2</ele>
        <time>2020-07-16T05:42:31Z</time>
      </trkpt>
      <trkpt lat="37.8512700" lon="-3.1228390">
        <ele>654.2</ele>
        <time>2020-07-16T05:42:32Z</time>
      </trkpt>
      <trkpt lat="37.8513200" lon="-3.1228980">
        <ele>653.8</ele>
        <time>2020-07-16T05:42:33Z</time>
      </trkpt>
      <trkpt lat="37.8513210" lon="-3.1230750">
        <ele>653.2</ele>
        <time>2020-07-16T05:42:35Z</time>
      </trkpt>
      <trkpt lat="37.8512260" lon="-3.1231840">
        <ele>652.6</ele>
        <time>2020-07-16T05:42:37Z</time>
      </trkpt>
      <trkpt lat="37.8511560" lon="-3.1232090">
        <ele>652.2</ele>
        <time>2020-07-16T05:42:38Z</time>
      </trkpt>
      <trkpt lat="37.8510120" lon="-3.1232550">
        <ele>651.2</ele>
        <time>2020-07-16T05:42:40Z</time>
      </trkpt>
      <trkpt lat="37.8509360" lon="-3.1232680">
        <ele>651.0</ele>
        <time>2020-07-16T05:42:41Z</time>
      </trkpt>
      <trkpt lat="37.8507940" lon="-3.1233230">
        <ele>650.2</ele>
        <time>2020-07-16T05:42:43Z</time>
      </trkpt>
      <trkpt lat="37.8507350" lon="-3.1233810">
        <ele>649.8</ele>
        <time>2020-07-16T05:42:44Z</time>
      </trkpt>
      <trkpt lat="37.8506270" lon="-3.1235240">
        <ele>649.0</ele>
        <time>2020-07-16T05:42:46Z</time>
      </trkpt>
      <trkpt lat="37.8505760" lon="-3.1235970">
        <ele>648.6</ele>
        <time>2020-07-16T05:42:47Z</time>
      </trkpt>
      <trkpt lat="37.8504710" lon="-3.1237330">
        <ele>647.6</ele>
        <time>2020-07-16T05:42:49Z</time>
      </trkpt>
      <trkpt lat="37.8503110" lon="-3.1239500">
        <ele>646.6</ele>
        <time>2020-07-16T05:42:52Z</time>
      </trkpt>
      <trkpt lat="37.8502650" lon="-3.1240210">
        <ele>646.0</ele>
        <time>2020-07-16T05:42:53Z</time>
      </trkpt>
      <trkpt lat="37.8501990" lon="-3.1241190">
        <ele>645.4</ele>
        <time>2020-07-16T05:42:54Z</time>
      </trkpt>
      <trkpt lat="37.8500660" lon="-3.1242840">
        <ele>644.4</ele>
        <time>2020-07-16T05:42:56Z</time>
      </trkpt>
      <trkpt lat="37.8499850" lon="-3.1243530">
        <ele>643.8</ele>
        <time>2020-07-16T05:42:57Z</time>
      </trkpt>
      <trkpt lat="37.8499070" lon="-3.1244040">
        <ele>643.4</ele>
        <time>2020-07-16T05:42:58Z</time>
      </trkpt>
      <trkpt lat="37.8497060" lon="-3.1245170">
        <ele>642.0</ele>
        <time>2020-07-16T05:43:00Z</time>
      </trkpt>
      <trkpt lat="37.8495060" lon="-3.1246130">
        <ele>640.6</ele>
        <time>2020-07-16T05:43:02Z</time>
      </trkpt>
      <trkpt lat="37.8492850" lon="-3.1247110">
        <ele>639.2</ele>
        <time>2020-07-16T05:43:04Z</time>
      </trkpt>
      <trkpt lat="37.8490850" lon="-3.1248140">
        <ele>637.8</ele>
        <time>2020-07-16T05:43:06Z</time>
      </trkpt>
      <trkpt lat="37.8489930" lon="-3.1248720">
        <ele>637.4</ele>
        <time>2020-07-16T05:43:07Z</time>
      </trkpt>
      <trkpt lat="37.8489450" lon="-3.1249660">
        <ele>636.8</ele>
        <time>2020-07-16T05:43:08Z</time>
      </trkpt>
      <trkpt lat="37.8488940" lon="-3.1250530">
        <ele>636.4</ele>
        <time>2020-07-16T05:43:09Z</time>
      </trkpt>
      <trkpt lat="37.8488980" lon="-3.1251560">
        <ele>635.6</ele>
        <time>2020-07-16T05:43:10Z</time>
      </trkpt>
      <trkpt lat="37.8489030" lon="-3.1252810">
        <ele>635.4</ele>
        <time>2020-07-16T05:43:12Z</time>
      </trkpt>
      <trkpt lat="37.8488410" lon="-3.1255550">
        <ele>633.8</ele>
        <time>2020-07-16T05:43:15Z</time>
      </trkpt>
      <trkpt lat="37.8487660" lon="-3.1257080">
        <ele>633.6</ele>
        <time>2020-07-16T05:43:17Z</time>
      </trkpt>
      <trkpt lat="37.8487570" lon="-3.1257850">
        <ele>633.6</ele>
        <time>2020-07-16T05:43:18Z</time>
      </trkpt>
      <trkpt lat="37.8488010" lon="-3.1260340">
        <ele>634.2</ele>
        <time>2020-07-16T05:43:21Z</time>
      </trkpt>
      <trkpt lat="37.8488260" lon="-3.1261950">
        <ele>634.8</ele>
        <time>2020-07-16T05:43:23Z</time>
      </trkpt>
      <trkpt lat="37.8488370" lon="-3.1263830">
        <ele>635.0</ele>
        <time>2020-07-16T05:43:25Z</time>
      </trkpt>
      <trkpt lat="37.8488630" lon="-3.1265720">
        <ele>634.6</ele>
        <time>2020-07-16T05:43:27Z</time>
      </trkpt>
      <trkpt lat="37.8489150" lon="-3.1267730">
        <ele>634.0</ele>
        <time>2020-07-16T05:43:29Z</time>
      </trkpt>
      <trkpt lat="37.8489480" lon="-3.1268790">
        <ele>633.6</ele>
        <time>2020-07-16T05:43:30Z</time>
      </trkpt>
      <trkpt lat="37.8490300" lon="-3.1272140">
        <ele>632.2</ele>
        <time>2020-07-16T05:43:33Z</time>
      </trkpt>
      <trkpt lat="37.8490450" lon="-3.1273360">
        <ele>631.4</ele>
        <time>2020-07-16T05:43:34Z</time>
      </trkpt>
      <trkpt lat="37.8490480" lon="-3.1274570">
        <ele>630.8</ele>
        <time>2020-07-16T05:43:35Z</time>
      </trkpt>
      <trkpt lat="37.8489770" lon="-3.1276540">
        <ele>629.6</ele>
        <time>2020-07-16T05:43:37Z</time>
      </trkpt>
      <trkpt lat="37.8488270" lon="-3.1277620">
        <ele>628.0</ele>
        <time>2020-07-16T05:43:39Z</time>
      </trkpt>
      <trkpt lat="37.8487350" lon="-3.1279100">
        <ele>626.6</ele>
        <time>2020-07-16T05:43:41Z</time>
      </trkpt>
      <trkpt lat="37.8487270" lon="-3.1281960">
        <ele>625.6</ele>
        <time>2020-07-16T05:43:44Z</time>
      </trkpt>
      <trkpt lat="37.8487150" lon="-3.1286030">
        <ele>624.6</ele>
        <time>2020-07-16T05:43:48Z</time>
      </trkpt>
      <trkpt lat="37.8487380" lon="-3.1287090">
        <ele>624.4</ele>
        <time>2020-07-16T05:43:49Z</time>
      </trkpt>
      <trkpt lat="37.8488910" lon="-3.1289620">
        <ele>623.4</ele>
        <time>2020-07-16T05:43:52Z</time>
      </trkpt>
      <trkpt lat="37.8489210" lon="-3.1290650">
        <ele>622.8</ele>
        <time>2020-07-16T05:43:53Z</time>
      </trkpt>
      <trkpt lat="37.8489470" lon="-3.1291850">
        <ele>622.6</ele>
        <time>2020-07-16T05:43:54Z</time>
      </trkpt>
      <trkpt lat="37.8489850" lon="-3.1295370">
        <ele>621.4</ele>
        <time>2020-07-16T05:43:57Z</time>
      </trkpt>
      <trkpt lat="37.8489830" lon="-3.1296330">
        <ele>621.0</ele>
        <time>2020-07-16T05:43:58Z</time>
      </trkpt>
      <trkpt lat="37.8489640" lon="-3.1297500">
        <ele>620.2</ele>
        <time>2020-07-16T05:43:59Z</time>
      </trkpt>
      <trkpt lat="37.8488420" lon="-3.1298980">
        <ele>618.4</ele>
        <time>2020-07-16T05:44:01Z</time>
      </trkpt>
      <trkpt lat="37.8486700" lon="-3.1299780">
        <ele>617.0</ele>
        <time>2020-07-16T05:44:03Z</time>
      </trkpt>
      <trkpt lat="37.8485800" lon="-3.1300140">
        <ele>616.2</ele>
        <time>2020-07-16T05:44:04Z</time>
      </trkpt>
      <trkpt lat="37.8484890" lon="-3.1300550">
        <ele>615.4</ele>
        <time>2020-07-16T05:44:05Z</time>
      </trkpt>
      <trkpt lat="37.8484160" lon="-3.1301050">
        <ele>614.6</ele>
        <time>2020-07-16T05:44:06Z</time>
      </trkpt>
      <trkpt lat="37.8483600" lon="-3.1301700">
        <ele>614.0</ele>
        <time>2020-07-16T05:44:07Z</time>
      </trkpt>
      <trkpt lat="37.8483370" lon="-3.1303340">
        <ele>612.6</ele>
        <time>2020-07-16T05:44:09Z</time>
      </trkpt>
      <trkpt lat="37.8484190" lon="-3.1304940">
        <ele>611.0</ele>
        <time>2020-07-16T05:44:11Z</time>
      </trkpt>
      <trkpt lat="37.8484610" lon="-3.1306730">
        <ele>609.6</ele>
        <time>2020-07-16T05:44:13Z</time>
      </trkpt>
      <trkpt lat="37.8484350" lon="-3.1307780">
        <ele>608.8</ele>
        <time>2020-07-16T05:44:14Z</time>
      </trkpt>
      <trkpt lat="37.8483910" lon="-3.1308750">
        <ele>608.0</ele>
        <time>2020-07-16T05:44:15Z</time>
      </trkpt>
      <trkpt lat="37.8483420" lon="-3.1309680">
        <ele>607.4</ele>
        <time>2020-07-16T05:44:16Z</time>
      </trkpt>
      <trkpt lat="37.8482840" lon="-3.1310770">
        <ele>606.6</ele>
        <time>2020-07-16T05:44:17Z</time>
      </trkpt>
      <trkpt lat="37.8481730" lon="-3.1312940">
        <ele>605.4</ele>
        <time>2020-07-16T05:44:19Z</time>
      </trkpt>
      <trkpt lat="37.8481330" lon="-3.1314020">
        <ele>604.4</ele>
        <time>2020-07-16T05:44:20Z</time>
      </trkpt>
      <trkpt lat="37.8481080" lon="-3.1314990">
        <ele>603.6</ele>
        <time>2020-07-16T05:44:21Z</time>
      </trkpt>
      <trkpt lat="37.8481030" lon="-3.1316410">
        <ele>601.8</ele>
        <time>2020-07-16T05:44:23Z</time>
      </trkpt>
      <trkpt lat="37.8481290" lon="-3.1317090">
        <ele>600.4</ele>
        <time>2020-07-16T05:44:24Z</time>
      </trkpt>
      <trkpt lat="37.8482360" lon="-3.1317900">
        <ele>598.8</ele>
        <time>2020-07-16T05:44:26Z</time>
      </trkpt>
      <trkpt lat="37.8483720" lon="-3.1318290">
        <ele>597.4</ele>
        <time>2020-07-16T05:44:28Z</time>
      </trkpt>
      <trkpt lat="37.8485370" lon="-3.1318820">
        <ele>596.0</ele>
        <time>2020-07-16T05:44:30Z</time>
      </trkpt>
      <trkpt lat="37.8486070" lon="-3.1319230">
        <ele>595.4</ele>
        <time>2020-07-16T05:44:31Z</time>
      </trkpt>
      <trkpt lat="37.8486640" lon="-3.1319870">
        <ele>595.0</ele>
        <time>2020-07-16T05:44:32Z</time>
      </trkpt>
      <trkpt lat="37.8486970" lon="-3.1320640">
        <ele>594.6</ele>
        <time>2020-07-16T05:44:33Z</time>
      </trkpt>
      <trkpt lat="37.8486990" lon="-3.1322730">
        <ele>594.2</ele>
        <time>2020-07-16T05:44:35Z</time>
      </trkpt>
      <trkpt lat="37.8486720" lon="-3.1323760">
        <ele>593.8</ele>
        <time>2020-07-16T05:44:36Z</time>
      </trkpt>
      <trkpt lat="37.8486020" lon="-3.1325750">
        <ele>593.4</ele>
        <time>2020-07-16T05:44:38Z</time>
      </trkpt>
      <trkpt lat="37.8485620" lon="-3.1326960">
        <ele>593.0</ele>
        <time>2020-07-16T05:44:39Z</time>
      </trkpt>
      <trkpt lat="37.8485280" lon="-3.1328030">
        <ele>592.6</ele>
        <time>2020-07-16T05:44:40Z</time>
      </trkpt>
      <trkpt lat="37.8484160" lon="-3.1331450">
        <ele>591.2</ele>
        <time>2020-07-16T05:44:43Z</time>
      </trkpt>
      <trkpt lat="37.8483840" lon="-3.1332700">
        <ele>590.2</ele>
        <time>2020-07-16T05:44:44Z</time>
      </trkpt>
      <trkpt lat="37.8483440" lon="-3.1335150">
        <ele>589.4</ele>
        <time>2020-07-16T05:44:46Z</time>
      </trkpt>
      <trkpt lat="37.8483320" lon="-3.1336500">
        <ele>588.8</ele>
        <time>2020-07-16T05:44:47Z</time>
      </trkpt>
      <trkpt lat="37.8482920" lon="-3.1340410">
        <ele>587.8</ele>
        <time>2020-07-16T05:44:50Z</time>
      </trkpt>
      <trkpt lat="37.8482530" lon="-3.1342940">
        <ele>586.8</ele>
        <time>2020-07-16T05:44:52Z</time>
      </trkpt>
      <trkpt lat="37.8482270" lon="-3.1344250">
        <ele>586.4</ele>
        <time>2020-07-16T05:44:53Z</time>
      </trkpt>
      <trkpt lat="37.8481760" lon="-3.1346970">
        <ele>585.2</ele>
        <time>2020-07-16T05:44:55Z</time>
      </trkpt>
      <trkpt lat="37.8481490" lon="-3.1349620">
        <ele>584.2</ele>
        <time>2020-07-16T05:44:57Z</time>
      </trkpt>
      <trkpt lat="37.8481490" lon="-3.1350760">
        <ele>583.6</ele>
        <time>2020-07-16T05:44:58Z</time>
      </trkpt>
      <trkpt lat="37.8481860" lon="-3.1354670">
        <ele>581.8</ele>
        <time>2020-07-16T05:45:01Z</time>
      </trkpt>
      <trkpt lat="37.8481890" lon="-3.1355910">
        <ele>581.2</ele>
        <time>2020-07-16T05:45:02Z</time>
      </trkpt>
      <trkpt lat="37.8481830" lon="-3.1357070">
        <ele>580.6</ele>
        <time>2020-07-16T05:45:03Z</time>
      </trkpt>
      <trkpt lat="37.8481330" lon="-3.1359390">
        <ele>578.8</ele>
        <time>2020-07-16T05:45:05Z</time>
      </trkpt>
      <trkpt lat="37.8480080" lon="-3.1360880">
        <ele>577.0</ele>
        <time>2020-07-16T05:45:07Z</time>
      </trkpt>
      <trkpt lat="37.8478350" lon="-3.1361420">
        <ele>575.4</ele>
        <time>2020-07-16T05:45:09Z</time>
      </trkpt>
      <trkpt lat="37.8477480" lon="-3.1361620">
        <ele>574.4</ele>
        <time>2020-07-16T05:45:10Z</time>
      </trkpt>
      <trkpt lat="37.8476570" lon="-3.1362060">
        <ele>573.4</ele>
        <time>2020-07-16T05:45:11Z</time>
      </trkpt>
      <trkpt lat="37.8475820" lon="-3.1362810">
        <ele>573.0</ele>
        <time>2020-07-16T05:45:12Z</time>
      </trkpt>
      <trkpt lat="37.8475240" lon="-3.1363700">
        <ele>572.0</ele>
        <time>2020-07-16T05:45:13Z</time>
      </trkpt>
      <trkpt lat="37.8473990" lon="-3.1366040">
        <ele>570.0</ele>
        <time>2020-07-16T05:45:15Z</time>
      </trkpt>
      <trkpt lat="37.8472790" lon="-3.1368420">
        <ele>568.2</ele>
        <time>2020-07-16T05:45:17Z</time>
      </trkpt>
      <trkpt lat="37.8471570" lon="-3.1370870">
        <ele>566.8</ele>
        <time>2020-07-16T05:45:19Z</time>
      </trkpt>
      <trkpt lat="37.8470300" lon="-3.1373410">
        <ele>565.0</ele>
        <time>2020-07-16T05:45:21Z</time>
      </trkpt>
      <trkpt lat="37.8469090" lon="-3.1375820">
        <ele>563.6</ele>
        <time>2020-07-16T05:45:23Z</time>
      </trkpt>
      <trkpt lat="37.8467790" lon="-3.1378370">
        <ele>562.4</ele>
        <time>2020-07-16T05:45:25Z</time>
      </trkpt>
      <trkpt lat="37.8466530" lon="-3.1380870">
        <ele>561.0</ele>
        <time>2020-07-16T05:45:27Z</time>
      </trkpt>
      <trkpt lat="37.8465330" lon="-3.1383320">
        <ele>559.8</ele>
        <time>2020-07-16T05:45:29Z</time>
      </trkpt>
      <trkpt lat="37.8464050" lon="-3.1385490">
        <ele>558.2</ele>
        <time>2020-07-16T05:45:31Z</time>
      </trkpt>
      <trkpt lat="37.8462510" lon="-3.1387240">
        <ele>557.0</ele>
        <time>2020-07-16T05:45:33Z</time>
      </trkpt>
      <trkpt lat="37.8460800" lon="-3.1389150">
        <ele>555.8</ele>
        <time>2020-07-16T05:45:35Z</time>
      </trkpt>
      <trkpt lat="37.8459200" lon="-3.1390920">
        <ele>554.4</ele>
        <time>2020-07-16T05:45:37Z</time>
      </trkpt>
      <trkpt lat="37.8458430" lon="-3.1391530">
        <ele>553.4</ele>
        <time>2020-07-16T05:45:38Z</time>
      </trkpt>
      <trkpt lat="37.8457520" lon="-3.1392050">
        <ele>552.2</ele>
        <time>2020-07-16T05:45:39Z</time>
      </trkpt>
      <trkpt lat="37.8455990" lon="-3.1392720">
        <ele>550.4</ele>
        <time>2020-07-16T05:45:41Z</time>
      </trkpt>
      <trkpt lat="37.8455330" lon="-3.1393070">
        <ele>549.4</ele>
        <time>2020-07-16T05:45:42Z</time>
      </trkpt>
      <trkpt lat="37.8454810" lon="-3.1393560">
        <ele>548.8</ele>
        <time>2020-07-16T05:45:43Z</time>
      </trkpt>
      <trkpt lat="37.8454050" lon="-3.1395130">
        <ele>546.8</ele>
        <time>2020-07-16T05:45:45Z</time>
      </trkpt>
      <trkpt lat="37.8453800" lon="-3.1395920">
        <ele>546.0</ele>
        <time>2020-07-16T05:45:46Z</time>
      </trkpt>
      <trkpt lat="37.8453500" lon="-3.1396760">
        <ele>545.2</ele>
        <time>2020-07-16T05:45:47Z</time>
      </trkpt>
      <trkpt lat="37.8452710" lon="-3.1398120">
        <ele>543.4</ele>
        <time>2020-07-16T05:45:49Z</time>
      </trkpt>
      <trkpt lat="37.8452170" lon="-3.1398610">
        <ele>542.6</ele>
        <time>2020-07-16T05:45:50Z</time>
      </trkpt>
      <trkpt lat="37.8451570" lon="-3.1398950">
        <ele>542.0</ele>
        <time>2020-07-16T05:45:51Z</time>
      </trkpt>
      <trkpt lat="37.8451010" lon="-3.1399210">
        <ele>541.4</ele>
        <time>2020-07-16T05:45:52Z</time>
      </trkpt>
      <trkpt lat="37.8450360" lon="-3.1399520">
        <ele>540.8</ele>
        <time>2020-07-16T05:45:53Z</time>
      </trkpt>
      <trkpt lat="37.8449610" lon="-3.1399870">
        <ele>540.0</ele>
        <time>2020-07-16T05:45:54Z</time>
      </trkpt>
      <trkpt lat="37.8448870" lon="-3.1400240">
        <ele>539.4</ele>
        <time>2020-07-16T05:45:55Z</time>
      </trkpt>
      <trkpt lat="37.8447380" lon="-3.1400980">
        <ele>538.4</ele>
        <time>2020-07-16T05:45:57Z</time>
      </trkpt>
      <trkpt lat="37.8446760" lon="-3.1401190">
        <ele>538.0</ele>
        <time>2020-07-16T05:45:58Z</time>
      </trkpt>
      <trkpt lat="37.8445890" lon="-3.1401170">
        <ele>537.4</ele>
        <time>2020-07-16T05:45:59Z</time>
      </trkpt>
      <trkpt lat="37.8444590" lon="-3.1400080">
        <ele>536.2</ele>
        <time>2020-07-16T05:46:01Z</time>
      </trkpt>
      <trkpt lat="37.8444020" lon="-3.1398120">
        <ele>534.8</ele>
        <time>2020-07-16T05:46:03Z</time>
      </trkpt>
      <trkpt lat="37.8443870" lon="-3.1397050">
        <ele>534.4</ele>
        <time>2020-07-16T05:46:04Z</time>
      </trkpt>
      <trkpt lat="37.8443620" lon="-3.1395990">
        <ele>533.8</ele>
        <time>2020-07-16T05:46:05Z</time>
      </trkpt>
      <trkpt lat="37.8442480" lon="-3.1394260">
        <ele>532.2</ele>
        <time>2020-07-16T05:46:07Z</time>
      </trkpt>
      <trkpt lat="37.8440990" lon="-3.1393030">
        <ele>530.8</ele>
        <time>2020-07-16T05:46:09Z</time>
      </trkpt>
      <trkpt lat="37.8439530" lon="-3.1391900">
        <ele>529.8</ele>
        <time>2020-07-16T05:46:11Z</time>
      </trkpt>
      <trkpt lat="37.8438230" lon="-3.1391180">
        <ele>529.0</ele>
        <time>2020-07-16T05:46:13Z</time>
      </trkpt>
      <trkpt lat="37.8437510" lon="-3.1391110">
        <ele>528.8</ele>
        <time>2020-07-16T05:46:14Z</time>
      </trkpt>
      <trkpt lat="37.8436960" lon="-3.1391320">
        <ele>528.6</ele>
        <time>2020-07-16T05:46:15Z</time>
      </trkpt>
      <trkpt lat="37.8436200" lon="-3.1392070">
        <ele>529.0</ele>
        <time>2020-07-16T05:46:17Z</time>
      </trkpt>
      <trkpt lat="37.8435750" lon="-3.1393000">
        <ele>529.8</ele>
        <time>2020-07-16T05:46:19Z</time>
      </trkpt>
      <trkpt lat="37.8435600" lon="-3.1393970">
        <ele>531.0</ele>
        <time>2020-07-16T05:46:21Z</time>
      </trkpt>
      <trkpt lat="37.8435600" lon="-3.1394430">
        <ele>531.4</ele>
        <time>2020-07-16T05:46:22Z</time>
      </trkpt>
      <trkpt lat="37.8435620" lon="-3.1394900">
        <ele>531.8</ele>
        <time>2020-07-16T05:46:23Z</time>
      </trkpt>
      <trkpt lat="37.8435670" lon="-3.1395870">
        <ele>532.4</ele>
        <time>2020-07-16T05:46:25Z</time>
      </trkpt>
      <trkpt lat="37.8435660" lon="-3.1396730">
        <ele>533.0</ele>
        <time>2020-07-16T05:46:27Z</time>
      </trkpt>
      <trkpt lat="37.8435660" lon="-3.1397090">
        <ele>533.4</ele>
        <time>2020-07-16T05:46:28Z</time>
      </trkpt>
      <trkpt lat="37.8435580" lon="-3.1398370">
        <ele>534.4</ele>
        <time>2020-07-16T05:46:31Z</time>
      </trkpt>
      <trkpt lat="37.8435530" lon="-3.1398760">
        <ele>534.6</ele>
        <time>2020-07-16T05:46:32Z</time>
      </trkpt>
      <trkpt lat="37.8435380" lon="-3.1399490">
        <ele>535.2</ele>
        <time>2020-07-16T05:46:34Z</time>
      </trkpt>
      <trkpt lat="37.8435280" lon="-3.1400220">
        <ele>535.8</ele>
        <time>2020-07-16T05:46:36Z</time>
      </trkpt>
      <trkpt lat="37.8435280" lon="-3.1401240">
        <ele>536.4</ele>
        <time>2020-07-16T05:46:39Z</time>
      </trkpt>
      <trkpt lat="37.8435290" lon="-3.1401580">
        <ele>536.8</ele>
        <time>2020-07-16T05:46:40Z</time>
      </trkpt>
      <trkpt lat="37.8435300" lon="-3.1401940">
        <ele>537.0</ele>
        <time>2020-07-16T05:46:41Z</time>
      </trkpt>
      <trkpt lat="37.8435480" lon="-3.1402930">
        <ele>537.8</ele>
        <time>2020-07-16T05:46:44Z</time>
      </trkpt>
      <trkpt lat="37.8435600" lon="-3.1403250">
        <ele>538.0</ele>
        <time>2020-07-16T05:46:45Z</time>
      </trkpt>
      <trkpt lat="37.8435930" lon="-3.1403820">
        <ele>538.6</ele>
        <time>2020-07-16T05:46:47Z</time>
      </trkpt>
      <trkpt lat="37.8436480" lon="-3.1404650">
        <ele>539.0</ele>
        <time>2020-07-16T05:46:50Z</time>
      </trkpt>
      <trkpt lat="37.8437200" lon="-3.1405820">
        <ele>540.0</ele>
        <time>2020-07-16T05:46:54Z</time>
      </trkpt>
      <trkpt lat="37.8437360" lon="-3.1406140">
        <ele>540.2</ele>
        <time>2020-07-16T05:46:55Z</time>
      </trkpt>
      <trkpt lat="37.8437620" lon="-3.1406820">
        <ele>540.6</ele>
        <time>2020-07-16T05:46:57Z</time>
      </trkpt>
      <trkpt lat="37.8438040" lon="-3.1408170">
        <ele>541.4</ele>
        <time>2020-07-16T05:47:01Z</time>
      </trkpt>
      <trkpt lat="37.8438230" lon="-3.1409530">
        <ele>542.2</ele>
        <time>2020-07-16T05:47:05Z</time>
      </trkpt>
      <trkpt lat="37.8438250" lon="-3.1409860">
        <ele>542.6</ele>
        <time>2020-07-16T05:47:06Z</time>
      </trkpt>
      <trkpt lat="37.8438270" lon="-3.1411130">
        <ele>543.6</ele>
        <time>2020-07-16T05:47:10Z</time>
      </trkpt>
      <trkpt lat="37.8438270" lon="-3.1411800">
        <ele>544.0</ele>
        <time>2020-07-16T05:47:12Z</time>
      </trkpt>
      <trkpt lat="37.8438240" lon="-3.1412780">
        <ele>544.6</ele>
        <time>2020-07-16T05:47:15Z</time>
      </trkpt>
      <trkpt lat="37.8438220" lon="-3.1414060">
        <ele>545.6</ele>
        <time>2020-07-16T05:47:19Z</time>
      </trkpt>
      <trkpt lat="37.8438220" lon="-3.1415260">
        <ele>546.6</ele>
        <time>2020-07-16T05:47:23Z</time>
      </trkpt>
      <trkpt lat="37.8438230" lon="-3.1415600">
        <ele>546.6</ele>
        <time>2020-07-16T05:47:24Z</time>
      </trkpt>
      <trkpt lat="37.8438120" lon="-3.1417910">
        <ele>547.8</ele>
        <time>2020-07-16T05:47:31Z</time>
      </trkpt>
      <trkpt lat="37.8438050" lon="-3.1418230">
        <ele>548.0</ele>
        <time>2020-07-16T05:47:32Z</time>
      </trkpt>
      <trkpt lat="37.8437180" lon="-3.1419940">
        <ele>548.8</ele>
        <time>2020-07-16T05:47:38Z</time>
      </trkpt>
      <trkpt lat="37.8436940" lon="-3.1420190">
        <ele>549.2</ele>
        <time>2020-07-16T05:47:39Z</time>
      </trkpt>
      <trkpt lat="37.8435290" lon="-3.1420800">
        <ele>550.0</ele>
        <time>2020-07-16T05:47:45Z</time>
      </trkpt>
      <trkpt lat="37.8432990" lon="-3.1420600">
        <ele>550.6</ele>
        <time>2020-07-16T05:47:52Z</time>
      </trkpt>
      <trkpt lat="37.8431210" lon="-3.1421470">
        <ele>551.0</ele>
        <time>2020-07-16T05:47:57Z</time>
      </trkpt>
      <trkpt lat="37.8430600" lon="-3.1422070">
        <ele>551.0</ele>
        <time>2020-07-16T05:47:59Z</time>
      </trkpt>
      <trkpt lat="37.8428880" lon="-3.1424010">
        <ele>551.4</ele>
        <time>2020-07-16T05:48:05Z</time>
      </trkpt>
      <trkpt lat="37.8428010" lon="-3.1425070">
        <ele>551.6</ele>
        <time>2020-07-16T05:48:08Z</time>
      </trkpt>
      <trkpt lat="37.8427160" lon="-3.1426470">
        <ele>551.6</ele>
        <time>2020-07-16T05:48:11Z</time>
      </trkpt>
      <trkpt lat="37.8426920" lon="-3.1427040">
        <ele>551.6</ele>
        <time>2020-07-16T05:48:12Z</time>
      </trkpt>
      <trkpt lat="37.8426730" lon="-3.1427580">
        <ele>551.6</ele>
        <time>2020-07-16T05:48:13Z</time>
      </trkpt>
      <trkpt lat="37.8426330" lon="-3.1428990">
        <ele>551.2</ele>
        <time>2020-07-16T05:48:15Z</time>
      </trkpt>
      <trkpt lat="37.8426090" lon="-3.1430460">
        <ele>551.0</ele>
        <time>2020-07-16T05:48:17Z</time>
      </trkpt>
      <trkpt lat="37.8426040" lon="-3.1431200">
        <ele>550.8</ele>
        <time>2020-07-16T05:48:18Z</time>
      </trkpt>
      <trkpt lat="37.8426210" lon="-3.1432800">
        <ele>550.4</ele>
        <time>2020-07-16T05:48:20Z</time>
      </trkpt>
      <trkpt lat="37.8426460" lon="-3.1433520">
        <ele>550.2</ele>
        <time>2020-07-16T05:48:21Z</time>
      </trkpt>
      <trkpt lat="37.8426760" lon="-3.1434160">
        <ele>550.0</ele>
        <time>2020-07-16T05:48:22Z</time>
      </trkpt>
      <trkpt lat="37.8427480" lon="-3.1435410">
        <ele>549.8</ele>
        <time>2020-07-16T05:48:24Z</time>
      </trkpt>
      <trkpt lat="37.8427860" lon="-3.1436010">
        <ele>549.8</ele>
        <time>2020-07-16T05:48:25Z</time>
      </trkpt>
      <trkpt lat="37.8428220" lon="-3.1436630">
        <ele>549.6</ele>
        <time>2020-07-16T05:48:26Z</time>
      </trkpt>
      <trkpt lat="37.8429320" lon="-3.1439290">
        <ele>549.8</ele>
        <time>2020-07-16T05:48:30Z</time>
      </trkpt>
      <trkpt lat="37.8429450" lon="-3.1440020">
        <ele>549.8</ele>
        <time>2020-07-16T05:48:31Z</time>
      </trkpt>
      <trkpt lat="37.8429600" lon="-3.1442190">
        <ele>550.0</ele>
        <time>2020-07-16T05:48:34Z</time>
      </trkpt>
      <trkpt lat="37.8429500" lon="-3.1443680">
        <ele>550.0</ele>
        <time>2020-07-16T05:48:36Z</time>
      </trkpt>
      <trkpt lat="37.8428980" lon="-3.1447170">
        <ele>549.8</ele>
        <time>2020-07-16T05:48:41Z</time>
      </trkpt>
      <trkpt lat="37.8428600" lon="-3.1449220">
        <ele>549.8</ele>
        <time>2020-07-16T05:48:44Z</time>
      </trkpt>
      <trkpt lat="37.8428320" lon="-3.1452030">
        <ele>550.2</ele>
        <time>2020-07-16T05:48:48Z</time>
      </trkpt>
      <trkpt lat="37.8428300" lon="-3.1453580">
        <ele>550.2</ele>
        <time>2020-07-16T05:48:50Z</time>
      </trkpt>
      <trkpt lat="37.8428370" lon="-3.1454350">
        <ele>550.2</ele>
        <time>2020-07-16T05:48:51Z</time>
      </trkpt>
      <trkpt lat="37.8428660" lon="-3.1455750">
        <ele>550.4</ele>
        <time>2020-07-16T05:48:53Z</time>
      </trkpt>
      <trkpt lat="37.8428880" lon="-3.1456470">
        <ele>550.4</ele>
        <time>2020-07-16T05:48:54Z</time>
      </trkpt>
      <trkpt lat="37.8429520" lon="-3.1458470">
        <ele>550.4</ele>
        <time>2020-07-16T05:48:57Z</time>
      </trkpt>
      <trkpt lat="37.8429760" lon="-3.1460510">
        <ele>550.6</ele>
        <time>2020-07-16T05:49:00Z</time>
      </trkpt>
      <trkpt lat="37.8429740" lon="-3.1461160">
        <ele>551.0</ele>
        <time>2020-07-16T05:49:01Z</time>
      </trkpt>
      <trkpt lat="37.8429520" lon="-3.1463010">
        <ele>551.6</ele>
        <time>2020-07-16T05:49:04Z</time>
      </trkpt>
      <trkpt lat="37.8429280" lon="-3.1464260">
        <ele>552.0</ele>
        <time>2020-07-16T05:49:06Z</time>
      </trkpt>
      <trkpt lat="37.8429050" lon="-3.1466000">
        <ele>552.2</ele>
        <time>2020-07-16T05:49:09Z</time>
      </trkpt>
      <trkpt lat="37.8429160" lon="-3.1467760">
        <ele>552.8</ele>
        <time>2020-07-16T05:49:12Z</time>
      </trkpt>
      <trkpt lat="37.8429280" lon="-3.1468910">
        <ele>553.2</ele>
        <time>2020-07-16T05:49:14Z</time>
      </trkpt>
      <trkpt lat="37.8429470" lon="-3.1470640">
        <ele>553.8</ele>
        <time>2020-07-16T05:49:17Z</time>
      </trkpt>
      <trkpt lat="37.8429550" lon="-3.1473100">
        <ele>554.2</ele>
        <time>2020-07-16T05:49:21Z</time>
      </trkpt>
      <trkpt lat="37.8429730" lon="-3.1478110">
        <ele>555.2</ele>
        <time>2020-07-16T05:49:29Z</time>
      </trkpt>
      <trkpt lat="37.8430570" lon="-3.1481480">
        <ele>555.2</ele>
        <time>2020-07-16T05:49:34Z</time>
      </trkpt>
      <trkpt lat="37.8430650" lon="-3.1482320">
        <ele>555.0</ele>
        <time>2020-07-16T05:49:35Z</time>
      </trkpt>
      <trkpt lat="37.8430330" lon="-3.1484700">
        <ele>554.4</ele>
        <time>2020-07-16T05:49:38Z</time>
      </trkpt>
      <trkpt lat="37.8430120" lon="-3.1485540">
        <ele>554.2</ele>
        <time>2020-07-16T05:49:39Z</time>
      </trkpt>
      <trkpt lat="37.8429700" lon="-3.1487240">
        <ele>553.8</ele>
        <time>2020-07-16T05:49:41Z</time>
      </trkpt>
      <trkpt lat="37.8429040" lon="-3.1489790">
        <ele>553.2</ele>
        <time>2020-07-16T05:49:44Z</time>
      </trkpt>
      <trkpt lat="37.8428440" lon="-3.1492480">
        <ele>552.8</ele>
        <time>2020-07-16T05:49:47Z</time>
      </trkpt>
      <trkpt lat="37.8427620" lon="-3.1496140">
        <ele>552.0</ele>
        <time>2020-07-16T05:49:51Z</time>
      </trkpt>
      <trkpt lat="37.8427430" lon="-3.1497000">
        <ele>552.0</ele>
        <time>2020-07-16T05:49:52Z</time>
      </trkpt>
      <trkpt lat="37.8426860" lon="-3.1499780">
        <ele>551.8</ele>
        <time>2020-07-16T05:49:55Z</time>
      </trkpt>
      <trkpt lat="37.8426450" lon="-3.1502470">
        <ele>551.4</ele>
        <time>2020-07-16T05:49:58Z</time>
      </trkpt>
      <trkpt lat="37.8426160" lon="-3.1504510">
        <ele>551.0</ele>
        <time>2020-07-16T05:50:00Z</time>
      </trkpt>
      <trkpt lat="37.8424920" lon="-3.1509270">
        <ele>550.2</ele>
        <time>2020-07-16T05:50:05Z</time>
      </trkpt>
      <trkpt lat="37.8424020" lon="-3.1512020">
        <ele>549.8</ele>
        <time>2020-07-16T05:50:08Z</time>
      </trkpt>
      <trkpt lat="37.8422820" lon="-3.1515770">
        <ele>548.8</ele>
        <time>2020-07-16T05:50:12Z</time>
      </trkpt>
      <trkpt lat="37.8422370" lon="-3.1517640">
        <ele>548.4</ele>
        <time>2020-07-16T05:50:14Z</time>
      </trkpt>
      <trkpt lat="37.8421820" lon="-3.1520550">
        <ele>548.0</ele>
        <time>2020-07-16T05:50:17Z</time>
      </trkpt>
      <trkpt lat="37.8421520" lon="-3.1522570">
        <ele>547.8</ele>
        <time>2020-07-16T05:50:19Z</time>
      </trkpt>
      <trkpt lat="37.8420990" lon="-3.1525680">
        <ele>546.6</ele>
        <time>2020-07-16T05:50:22Z</time>
      </trkpt>
      <trkpt lat="37.8420170" lon="-3.1530220">
        <ele>545.6</ele>
        <time>2020-07-16T05:50:26Z</time>
      </trkpt>
      <trkpt lat="37.8419830" lon="-3.1532280">
        <ele>544.6</ele>
        <time>2020-07-16T05:50:28Z</time>
      </trkpt>
      <trkpt lat="37.8419600" lon="-3.1533700">
        <ele>544.2</ele>
        <time>2020-07-16T05:50:29Z</time>
      </trkpt>
      <trkpt lat="37.8419410" lon="-3.1534880">
        <ele>543.6</ele>
        <time>2020-07-16T05:50:30Z</time>
      </trkpt>
      <trkpt lat="37.8419020" lon="-3.1537260">
        <ele>543.0</ele>
        <time>2020-07-16T05:50:32Z</time>
      </trkpt>
      <trkpt lat="37.8418620" lon="-3.1539620">
        <ele>542.0</ele>
        <time>2020-07-16T05:50:34Z</time>
      </trkpt>
      <trkpt lat="37.8418400" lon="-3.1540870">
        <ele>541.8</ele>
        <time>2020-07-16T05:50:35Z</time>
      </trkpt>
      <trkpt lat="37.8417910" lon="-3.1543140">
        <ele>541.2</ele>
        <time>2020-07-16T05:50:37Z</time>
      </trkpt>
      <trkpt lat="37.8417230" lon="-3.1545340">
        <ele>540.6</ele>
        <time>2020-07-16T05:50:39Z</time>
      </trkpt>
      <trkpt lat="37.8415400" lon="-3.1550180">
        <ele>539.8</ele>
        <time>2020-07-16T05:50:44Z</time>
      </trkpt>
      <trkpt lat="37.8415050" lon="-3.1551100">
        <ele>540.0</ele>
        <time>2020-07-16T05:50:45Z</time>
      </trkpt>
      <trkpt lat="37.8414370" lon="-3.1552860">
        <ele>539.8</ele>
        <time>2020-07-16T05:50:47Z</time>
      </trkpt>
      <trkpt lat="37.8413380" lon="-3.1555260">
        <ele>539.8</ele>
        <time>2020-07-16T05:50:50Z</time>
      </trkpt>
      <trkpt lat="37.8412970" lon="-3.1555970">
        <ele>539.8</ele>
        <time>2020-07-16T05:50:51Z</time>
      </trkpt>
      <trkpt lat="37.8412560" lon="-3.1556520">
        <ele>539.8</ele>
        <time>2020-07-16T05:50:52Z</time>
      </trkpt>
      <trkpt lat="37.8411500" lon="-3.1557610">
        <ele>540.2</ele>
        <time>2020-07-16T05:50:54Z</time>
      </trkpt>
      <trkpt lat="37.8410000" lon="-3.1558980">
        <ele>541.0</ele>
        <time>2020-07-16T05:50:57Z</time>
      </trkpt>
      <trkpt lat="37.8409070" lon="-3.1559930">
        <ele>541.4</ele>
        <time>2020-07-16T05:50:59Z</time>
      </trkpt>
      <trkpt lat="37.8408210" lon="-3.1560890">
        <ele>541.6</ele>
        <time>2020-07-16T05:51:01Z</time>
      </trkpt>
      <trkpt lat="37.8407030" lon="-3.1562310">
        <ele>542.0</ele>
        <time>2020-07-16T05:51:04Z</time>
      </trkpt>
      <trkpt lat="37.8406600" lon="-3.1562810">
        <ele>542.2</ele>
        <time>2020-07-16T05:51:05Z</time>
      </trkpt>
      <trkpt lat="37.8405030" lon="-3.1564450">
        <ele>542.6</ele>
        <time>2020-07-16T05:51:09Z</time>
      </trkpt>
      <trkpt lat="37.8403490" lon="-3.1565870">
        <ele>543.2</ele>
        <time>2020-07-16T05:51:13Z</time>
      </trkpt>
      <trkpt lat="37.8401890" lon="-3.1567130">
        <ele>543.4</ele>
        <time>2020-07-16T05:51:17Z</time>
      </trkpt>
      <trkpt lat="37.8401110" lon="-3.1567750">
        <ele>543.8</ele>
        <time>2020-07-16T05:51:19Z</time>
      </trkpt>
      <trkpt lat="37.8400760" lon="-3.1568100">
        <ele>543.8</ele>
        <time>2020-07-16T05:51:20Z</time>
      </trkpt>
      <trkpt lat="37.8400430" lon="-3.1568500">
        <ele>544.0</ele>
        <time>2020-07-16T05:51:21Z</time>
      </trkpt>
      <trkpt lat="37.8399350" lon="-3.1569830">
        <ele>544.4</ele>
        <time>2020-07-16T05:51:24Z</time>
      </trkpt>
      <trkpt lat="37.8398360" lon="-3.1570500">
        <ele>544.4</ele>
        <time>2020-07-16T05:51:26Z</time>
      </trkpt>
      <trkpt lat="37.8396260" lon="-3.1570570">
        <ele>544.2</ele>
        <time>2020-07-16T05:51:30Z</time>
      </trkpt>
      <trkpt lat="37.8394370" lon="-3.1570340">
        <ele>545.0</ele>
        <time>2020-07-16T05:51:34Z</time>
      </trkpt>
      <trkpt lat="37.8393870" lon="-3.1570350">
        <ele>545.2</ele>
        <time>2020-07-16T05:51:35Z</time>
      </trkpt>
      <trkpt lat="37.8392950" lon="-3.1570490">
        <ele>545.8</ele>
        <time>2020-07-16T05:51:37Z</time>
      </trkpt>
      <trkpt lat="37.8391660" lon="-3.1570970">
        <ele>546.2</ele>
        <time>2020-07-16T05:51:40Z</time>
      </trkpt>
      <trkpt lat="37.8391230" lon="-3.1571220">
        <ele>546.6</ele>
        <time>2020-07-16T05:51:41Z</time>
      </trkpt>
      <trkpt lat="37.8390530" lon="-3.1571790">
        <ele>546.8</ele>
        <time>2020-07-16T05:51:43Z</time>
      </trkpt>
      <trkpt lat="37.8389880" lon="-3.1572610">
        <ele>547.2</ele>
        <time>2020-07-16T05:51:45Z</time>
      </trkpt>
      <trkpt lat="37.8389140" lon="-3.1573950">
        <ele>547.6</ele>
        <time>2020-07-16T05:51:48Z</time>
      </trkpt>
      <trkpt lat="37.8388520" lon="-3.1575320">
        <ele>548.4</ele>
        <time>2020-07-16T05:51:51Z</time>
      </trkpt>
      <trkpt lat="37.8387670" lon="-3.1577020">
        <ele>549.4</ele>
        <time>2020-07-16T05:51:55Z</time>
      </trkpt>
      <trkpt lat="37.8387300" lon="-3.1577820">
        <ele>549.8</ele>
        <time>2020-07-16T05:51:57Z</time>
      </trkpt>
      <trkpt lat="37.8386940" lon="-3.1578610">
        <ele>550.4</ele>
        <time>2020-07-16T05:51:59Z</time>
      </trkpt>
      <trkpt lat="37.8385620" lon="-3.1581150">
        <ele>551.0</ele>
        <time>2020-07-16T05:52:05Z</time>
      </trkpt>
      <trkpt lat="37.8384030" lon="-3.1584190">
        <ele>550.8</ele>
        <time>2020-07-16T05:52:10Z</time>
      </trkpt>
      <trkpt lat="37.8382370" lon="-3.1587350">
        <ele>549.4</ele>
        <time>2020-07-16T05:52:14Z</time>
      </trkpt>
      <trkpt lat="37.8381040" lon="-3.1589610">
        <ele>548.4</ele>
        <time>2020-07-16T05:52:17Z</time>
      </trkpt>
      <trkpt lat="37.8380620" lon="-3.1590190">
        <ele>548.2</ele>
        <time>2020-07-16T05:52:18Z</time>
      </trkpt>
      <trkpt lat="37.8379510" lon="-3.1591500">
        <ele>547.8</ele>
        <time>2020-07-16T05:52:20Z</time>
      </trkpt>
      <trkpt lat="37.8377900" lon="-3.1593230">
        <ele>547.6</ele>
        <time>2020-07-16T05:52:23Z</time>
      </trkpt>
      <trkpt lat="37.8377290" lon="-3.1593850">
        <ele>547.2</ele>
        <time>2020-07-16T05:52:24Z</time>
      </trkpt>
      <trkpt lat="37.8376680" lon="-3.1594380">
        <ele>546.8</ele>
        <time>2020-07-16T05:52:25Z</time>
      </trkpt>
      <trkpt lat="37.8374810" lon="-3.1595210">
        <ele>546.0</ele>
        <time>2020-07-16T05:52:28Z</time>
      </trkpt>
      <trkpt lat="37.8372620" lon="-3.1595030">
        <ele>545.6</ele>
        <time>2020-07-16T05:52:31Z</time>
      </trkpt>
      <trkpt lat="37.8371930" lon="-3.1594950">
        <ele>545.6</ele>
        <time>2020-07-16T05:52:32Z</time>
      </trkpt>
      <trkpt lat="37.8369100" lon="-3.1594650">
        <ele>545.6</ele>
        <time>2020-07-16T05:52:36Z</time>
      </trkpt>
      <trkpt lat="37.8367620" lon="-3.1594680">
        <ele>545.2</ele>
        <time>2020-07-16T05:52:38Z</time>
      </trkpt>
      <trkpt lat="37.8366830" lon="-3.1594900">
        <ele>545.2</ele>
        <time>2020-07-16T05:52:39Z</time>
      </trkpt>
      <trkpt lat="37.8366140" lon="-3.1595250">
        <ele>545.0</ele>
        <time>2020-07-16T05:52:40Z</time>
      </trkpt>
      <trkpt lat="37.8364810" lon="-3.1596270">
        <ele>544.6</ele>
        <time>2020-07-16T05:52:42Z</time>
      </trkpt>
      <trkpt lat="37.8361630" lon="-3.1599400">
        <ele>544.4</ele>
        <time>2020-07-16T05:52:48Z</time>
      </trkpt>
      <trkpt lat="37.8358400" lon="-3.1603540">
        <ele>545.6</ele>
        <time>2020-07-16T05:52:56Z</time>
      </trkpt>
      <trkpt lat="37.8357800" lon="-3.1604590">
        <ele>545.8</ele>
        <time>2020-07-16T05:52:58Z</time>
      </trkpt>
      <trkpt lat="37.8357290" lon="-3.1605990">
        <ele>546.0</ele>
        <time>2020-07-16T05:53:00Z</time>
      </trkpt>
      <trkpt lat="37.8357110" lon="-3.1606660">
        <ele>546.2</ele>
        <time>2020-07-16T05:53:01Z</time>
      </trkpt>
      <trkpt lat="37.8356340" lon="-3.1610070">
        <ele>546.4</ele>
        <time>2020-07-16T05:53:06Z</time>
      </trkpt>
      <trkpt lat="37.8355600" lon="-3.1613430">
        <ele>547.0</ele>
        <time>2020-07-16T05:53:11Z</time>
      </trkpt>
      <trkpt lat="37.8354390" lon="-3.1618160">
        <ele>546.8</ele>
        <time>2020-07-16T05:53:18Z</time>
      </trkpt>
      <trkpt lat="37.8353660" lon="-3.1619210">
        <ele>546.6</ele>
        <time>2020-07-16T05:53:20Z</time>
      </trkpt>
      <trkpt lat="37.8352020" lon="-3.1619920">
        <ele>546.8</ele>
        <time>2020-07-16T05:53:23Z</time>
      </trkpt>
      <trkpt lat="37.8351220" lon="-3.1620050">
        <ele>546.6</ele>
        <time>2020-07-16T05:53:24Z</time>
      </trkpt>
      <trkpt lat="37.8348740" lon="-3.1620650">
        <ele>545.4</ele>
        <time>2020-07-16T05:53:27Z</time>
      </trkpt>
      <trkpt lat="37.8347880" lon="-3.1620960">
        <ele>544.8</ele>
        <time>2020-07-16T05:53:28Z</time>
      </trkpt>
      <trkpt lat="37.8347200" lon="-3.1621590">
        <ele>544.6</ele>
        <time>2020-07-16T05:53:29Z</time>
      </trkpt>
      <trkpt lat="37.8346330" lon="-3.1622390">
        <ele>543.6</ele>
        <time>2020-07-16T05:53:30Z</time>
      </trkpt>
      <trkpt lat="37.8345630" lon="-3.1623170">
        <ele>542.8</ele>
        <time>2020-07-16T05:53:31Z</time>
      </trkpt>
      <trkpt lat="37.8344950" lon="-3.1623950">
        <ele>542.0</ele>
        <time>2020-07-16T05:53:32Z</time>
      </trkpt>
      <trkpt lat="37.8343790" lon="-3.1625430">
        <ele>540.8</ele>
        <time>2020-07-16T05:53:34Z</time>
      </trkpt>
      <trkpt lat="37.8343310" lon="-3.1627680">
        <ele>539.6</ele>
        <time>2020-07-16T05:53:36Z</time>
      </trkpt>
      <trkpt lat="37.8343860" lon="-3.1629560">
        <ele>538.0</ele>
        <time>2020-07-16T05:53:38Z</time>
      </trkpt>
      <trkpt lat="37.8344840" lon="-3.1631040">
        <ele>536.8</ele>
        <time>2020-07-16T05:53:40Z</time>
      </trkpt>
      <trkpt lat="37.8345540" lon="-3.1631730">
        <ele>536.4</ele>
        <time>2020-07-16T05:53:41Z</time>
      </trkpt>
      <trkpt lat="37.8346860" lon="-3.1632780">
        <ele>536.4</ele>
        <time>2020-07-16T05:53:43Z</time>
      </trkpt>
      <trkpt lat="37.8350140" lon="-3.1635200">
        <ele>537.0</ele>
        <time>2020-07-16T05:53:48Z</time>
      </trkpt>
      <trkpt lat="37.8352650" lon="-3.1637210">
        <ele>537.4</ele>
        <time>2020-07-16T05:53:52Z</time>
      </trkpt>
      <trkpt lat="37.8353450" lon="-3.1638680">
        <ele>537.4</ele>
        <time>2020-07-16T05:53:54Z</time>
      </trkpt>
      <trkpt lat="37.8353510" lon="-3.1640450">
        <ele>537.8</ele>
        <time>2020-07-16T05:53:56Z</time>
      </trkpt>
      <trkpt lat="37.8353410" lon="-3.1641380">
        <ele>537.8</ele>
        <time>2020-07-16T05:53:57Z</time>
      </trkpt>
      <trkpt lat="37.8353330" lon="-3.1642180">
        <ele>538.0</ele>
        <time>2020-07-16T05:53:58Z</time>
      </trkpt>
      <trkpt lat="37.8353340" lon="-3.1644360">
        <ele>537.8</ele>
        <time>2020-07-16T05:54:00Z</time>
      </trkpt>
      <trkpt lat="37.8353540" lon="-3.1645330">
        <ele>537.6</ele>
        <time>2020-07-16T05:54:01Z</time>
      </trkpt>
      <trkpt lat="37.8354680" lon="-3.1649140">
        <ele>536.8</ele>
        <time>2020-07-16T05:54:05Z</time>
      </trkpt>
      <trkpt lat="37.8354620" lon="-3.1650140">
        <ele>536.8</ele>
        <time>2020-07-16T05:54:06Z</time>
      </trkpt>
      <trkpt lat="37.8353590" lon="-3.1652830">
        <ele>536.2</ele>
        <time>2020-07-16T05:54:09Z</time>
      </trkpt>
      <trkpt lat="37.8353000" lon="-3.1654690">
        <ele>535.8</ele>
        <time>2020-07-16T05:54:11Z</time>
      </trkpt>
      <trkpt lat="37.8352870" lon="-3.1656520">
        <ele>536.0</ele>
        <time>2020-07-16T05:54:13Z</time>
      </trkpt>
      <trkpt lat="37.8352880" lon="-3.1660710">
        <ele>536.4</ele>
        <time>2020-07-16T05:54:17Z</time>
      </trkpt>
      <trkpt lat="37.8352990" lon="-3.1664320">
        <ele>535.4</ele>
        <time>2020-07-16T05:54:21Z</time>
      </trkpt>
      <trkpt lat="37.8353330" lon="-3.1667010">
        <ele>535.2</ele>
        <time>2020-07-16T05:54:24Z</time>
      </trkpt>
      <trkpt lat="37.8353740" lon="-3.1668870">
        <ele>535.0</ele>
        <time>2020-07-16T05:54:26Z</time>
      </trkpt>
      <trkpt lat="37.8354250" lon="-3.1673750">
        <ele>534.6</ele>
        <time>2020-07-16T05:54:31Z</time>
      </trkpt>
      <trkpt lat="37.8354140" lon="-3.1674730">
        <ele>534.8</ele>
        <time>2020-07-16T05:54:32Z</time>
      </trkpt>
      <trkpt lat="37.8353860" lon="-3.1676650">
        <ele>534.4</ele>
        <time>2020-07-16T05:54:34Z</time>
      </trkpt>
      <trkpt lat="37.8353550" lon="-3.1677650">
        <ele>533.6</ele>
        <time>2020-07-16T05:54:35Z</time>
      </trkpt>
      <trkpt lat="37.8353120" lon="-3.1678550">
        <ele>533.2</ele>
        <time>2020-07-16T05:54:36Z</time>
      </trkpt>
      <trkpt lat="37.8352630" lon="-3.1679420">
        <ele>532.4</ele>
        <time>2020-07-16T05:54:37Z</time>
      </trkpt>
      <trkpt lat="37.8352100" lon="-3.1680240">
        <ele>531.6</ele>
        <time>2020-07-16T05:54:38Z</time>
      </trkpt>
      <trkpt lat="37.8351500" lon="-3.1681100">
        <ele>531.4</ele>
        <time>2020-07-16T05:54:39Z</time>
      </trkpt>
      <trkpt lat="37.8350390" lon="-3.1682800">
        <ele>530.6</ele>
        <time>2020-07-16T05:54:41Z</time>
      </trkpt>
      <trkpt lat="37.8350160" lon="-3.1683670">
        <ele>530.2</ele>
        <time>2020-07-16T05:54:42Z</time>
      </trkpt>
      <trkpt lat="37.8350350" lon="-3.1685780">
        <ele>529.2</ele>
        <time>2020-07-16T05:54:44Z</time>
      </trkpt>
      <trkpt lat="37.8350460" lon="-3.1687920">
        <ele>528.0</ele>
        <time>2020-07-16T05:54:46Z</time>
      </trkpt>
      <trkpt lat="37.8350390" lon="-3.1689170">
        <ele>527.6</ele>
        <time>2020-07-16T05:54:47Z</time>
      </trkpt>
      <trkpt lat="37.8350330" lon="-3.1690360">
        <ele>527.2</ele>
        <time>2020-07-16T05:54:48Z</time>
      </trkpt>
      <trkpt lat="37.8350330" lon="-3.1691670">
        <ele>526.8</ele>
        <time>2020-07-16T05:54:49Z</time>
      </trkpt>
      <trkpt lat="37.8350600" lon="-3.1695650">
        <ele>525.6</ele>
        <time>2020-07-16T05:54:52Z</time>
      </trkpt>
      <trkpt lat="37.8350980" lon="-3.1698330">
        <ele>524.0</ele>
        <time>2020-07-16T05:54:54Z</time>
      </trkpt>
      <trkpt lat="37.8351620" lon="-3.1700900">
        <ele>522.2</ele>
        <time>2020-07-16T05:54:56Z</time>
      </trkpt>
      <trkpt lat="37.8352010" lon="-3.1702160">
        <ele>520.8</ele>
        <time>2020-07-16T05:54:57Z</time>
      </trkpt>
      <trkpt lat="37.8352860" lon="-3.1704380">
        <ele>519.0</ele>
        <time>2020-07-16T05:54:59Z</time>
      </trkpt>
      <trkpt lat="37.8353350" lon="-3.1705410">
        <ele>518.0</ele>
        <time>2020-07-16T05:55:00Z</time>
      </trkpt>
      <trkpt lat="37.8353950" lon="-3.1706310">
        <ele>517.2</ele>
        <time>2020-07-16T05:55:01Z</time>
      </trkpt>
      <trkpt lat="37.8354620" lon="-3.1707130">
        <ele>516.2</ele>
        <time>2020-07-16T05:55:02Z</time>
      </trkpt>
      <trkpt lat="37.8356110" lon="-3.1708740">
        <ele>514.2</ele>
        <time>2020-07-16T05:55:04Z</time>
      </trkpt>
      <trkpt lat="37.8357050" lon="-3.1709650">
        <ele>513.0</ele>
        <time>2020-07-16T05:55:05Z</time>
      </trkpt>
      <trkpt lat="37.8357860" lon="-3.1710470">
        <ele>511.8</ele>
        <time>2020-07-16T05:55:06Z</time>
      </trkpt>
      <trkpt lat="37.8359440" lon="-3.1711970">
        <ele>509.8</ele>
        <time>2020-07-16T05:55:08Z</time>
      </trkpt>
      <trkpt lat="37.8361050" lon="-3.1713590">
        <ele>508.0</ele>
        <time>2020-07-16T05:55:10Z</time>
      </trkpt>
      <trkpt lat="37.8361810" lon="-3.1714560">
        <ele>507.0</ele>
        <time>2020-07-16T05:55:11Z</time>
      </trkpt>
      <trkpt lat="37.8363150" lon="-3.1716620">
        <ele>505.4</ele>
        <time>2020-07-16T05:55:13Z</time>
      </trkpt>
      <trkpt lat="37.8364610" lon="-3.1718910">
        <ele>504.0</ele>
        <time>2020-07-16T05:55:15Z</time>
      </trkpt>
      <trkpt lat="37.8365960" lon="-3.1721170">
        <ele>502.6</ele>
        <time>2020-07-16T05:55:17Z</time>
      </trkpt>
      <trkpt lat="37.8367190" lon="-3.1723510">
        <ele>501.4</ele>
        <time>2020-07-16T05:55:19Z</time>
      </trkpt>
      <trkpt lat="37.8368020" lon="-3.1725690">
        <ele>499.6</ele>
        <time>2020-07-16T05:55:21Z</time>
      </trkpt>
      <trkpt lat="37.8368110" lon="-3.1727880">
        <ele>497.8</ele>
        <time>2020-07-16T05:55:23Z</time>
      </trkpt>
      <trkpt lat="37.8367950" lon="-3.1729110">
        <ele>496.8</ele>
        <time>2020-07-16T05:55:24Z</time>
      </trkpt>
      <trkpt lat="37.8367770" lon="-3.1730430">
        <ele>495.8</ele>
        <time>2020-07-16T05:55:25Z</time>
      </trkpt>
      <trkpt lat="37.8367140" lon="-3.1733030">
        <ele>494.0</ele>
        <time>2020-07-16T05:55:27Z</time>
      </trkpt>
      <trkpt lat="37.8366760" lon="-3.1734180">
        <ele>493.2</ele>
        <time>2020-07-16T05:55:28Z</time>
      </trkpt>
      <trkpt lat="37.8366200" lon="-3.1735520">
        <ele>492.6</ele>
        <time>2020-07-16T05:55:29Z</time>
      </trkpt>
      <trkpt lat="37.8365230" lon="-3.1737540">
        <ele>491.2</ele>
        <time>2020-07-16T05:55:31Z</time>
      </trkpt>
      <trkpt lat="37.8364710" lon="-3.1738560">
        <ele>490.2</ele>
        <time>2020-07-16T05:55:32Z</time>
      </trkpt>
      <trkpt lat="37.8364180" lon="-3.1739480">
        <ele>489.2</ele>
        <time>2020-07-16T05:55:33Z</time>
      </trkpt>
      <trkpt lat="37.8363560" lon="-3.1740290">
        <ele>488.0</ele>
        <time>2020-07-16T05:55:34Z</time>
      </trkpt>
      <trkpt lat="37.8361890" lon="-3.1741830">
        <ele>486.0</ele>
        <time>2020-07-16T05:55:36Z</time>
      </trkpt>
      <trkpt lat="37.8360150" lon="-3.1743150">
        <ele>484.4</ele>
        <time>2020-07-16T05:55:38Z</time>
      </trkpt>
      <trkpt lat="37.8358670" lon="-3.1744400">
        <ele>483.4</ele>
        <time>2020-07-16T05:55:40Z</time>
      </trkpt>
      <trkpt lat="37.8358140" lon="-3.1745190">
        <ele>482.4</ele>
        <time>2020-07-16T05:55:41Z</time>
      </trkpt>
      <trkpt lat="37.8357800" lon="-3.1746010">
        <ele>481.6</ele>
        <time>2020-07-16T05:55:42Z</time>
      </trkpt>
      <trkpt lat="37.8357690" lon="-3.1747860">
        <ele>479.8</ele>
        <time>2020-07-16T05:55:44Z</time>
      </trkpt>
      <trkpt lat="37.8357790" lon="-3.1749790">
        <ele>478.4</ele>
        <time>2020-07-16T05:55:46Z</time>
      </trkpt>
      <trkpt lat="37.8357880" lon="-3.1751900">
        <ele>477.0</ele>
        <time>2020-07-16T05:55:48Z</time>
      </trkpt>
      <trkpt lat="37.8357850" lon="-3.1753080">
        <ele>476.6</ele>
        <time>2020-07-16T05:55:49Z</time>
      </trkpt>
      <trkpt lat="37.8357870" lon="-3.1755230">
        <ele>475.8</ele>
        <time>2020-07-16T05:55:51Z</time>
      </trkpt>
      <trkpt lat="37.8358050" lon="-3.1756040">
        <ele>475.4</ele>
        <time>2020-07-16T05:55:52Z</time>
      </trkpt>
      <trkpt lat="37.8358450" lon="-3.1756740">
        <ele>474.8</ele>
        <time>2020-07-16T05:55:53Z</time>
      </trkpt>
      <trkpt lat="37.8359810" lon="-3.1757420">
        <ele>473.2</ele>
        <time>2020-07-16T05:55:55Z</time>
      </trkpt>
      <trkpt lat="37.8361970" lon="-3.1757700">
        <ele>472.2</ele>
        <time>2020-07-16T05:55:58Z</time>
      </trkpt>
      <trkpt lat="37.8362820" lon="-3.1757860">
        <ele>472.0</ele>
        <time>2020-07-16T05:55:59Z</time>
      </trkpt>
      <trkpt lat="37.8365390" lon="-3.1758370">
        <ele>470.8</ele>
        <time>2020-07-16T05:56:02Z</time>
      </trkpt>
      <trkpt lat="37.8368020" lon="-3.1759040">
        <ele>469.6</ele>
        <time>2020-07-16T05:56:05Z</time>
      </trkpt>
      <trkpt lat="37.8370560" lon="-3.1760180">
        <ele>468.4</ele>
        <time>2020-07-16T05:56:08Z</time>
      </trkpt>
      <trkpt lat="37.8371310" lon="-3.1760900">
        <ele>468.2</ele>
        <time>2020-07-16T05:56:09Z</time>
      </trkpt>
      <trkpt lat="37.8372510" lon="-3.1762660">
        <ele>467.0</ele>
        <time>2020-07-16T05:56:11Z</time>
      </trkpt>
      <trkpt lat="37.8372960" lon="-3.1763730">
        <ele>466.8</ele>
        <time>2020-07-16T05:56:12Z</time>
      </trkpt>
      <trkpt lat="37.8373510" lon="-3.1766050">
        <ele>466.0</ele>
        <time>2020-07-16T05:56:14Z</time>
      </trkpt>
      <trkpt lat="37.8373650" lon="-3.1767270">
        <ele>465.8</ele>
        <time>2020-07-16T05:56:15Z</time>
      </trkpt>
      <trkpt lat="37.8373370" lon="-3.1770660">
        <ele>464.8</ele>
        <time>2020-07-16T05:56:18Z</time>
      </trkpt>
      <trkpt lat="37.8372070" lon="-3.1774460">
        <ele>464.4</ele>
        <time>2020-07-16T05:56:22Z</time>
      </trkpt>
      <trkpt lat="37.8370700" lon="-3.1777760">
        <ele>464.6</ele>
        <time>2020-07-16T05:56:26Z</time>
      </trkpt>
      <trkpt lat="37.8370200" lon="-3.1779110">
        <ele>464.4</ele>
        <time>2020-07-16T05:56:28Z</time>
      </trkpt>
      <trkpt lat="37.8369090" lon="-3.1782290">
        <ele>465.2</ele>
        <time>2020-07-16T05:56:32Z</time>
      </trkpt>
      <trkpt lat="37.8368290" lon="-3.1784430">
        <ele>465.6</ele>
        <time>2020-07-16T05:56:35Z</time>
      </trkpt>
      <trkpt lat="37.8367260" lon="-3.1787080">
        <ele>465.6</ele>
        <time>2020-07-16T05:56:39Z</time>
      </trkpt>
      <trkpt lat="37.8366930" lon="-3.1788430">
        <ele>465.8</ele>
        <time>2020-07-16T05:56:41Z</time>
      </trkpt>
      <trkpt lat="37.8366900" lon="-3.1789690">
        <ele>466.0</ele>
        <time>2020-07-16T05:56:43Z</time>
      </trkpt>
      <trkpt lat="37.8367220" lon="-3.1790860">
        <ele>466.0</ele>
        <time>2020-07-16T05:56:45Z</time>
      </trkpt>
      <trkpt lat="37.8367820" lon="-3.1792020">
        <ele>466.4</ele>
        <time>2020-07-16T05:56:47Z</time>
      </trkpt>
      <trkpt lat="37.8368450" lon="-3.1793430">
        <ele>466.8</ele>
        <time>2020-07-16T05:56:49Z</time>
      </trkpt>
      <trkpt lat="37.8369860" lon="-3.1796820">
        <ele>466.2</ele>
        <time>2020-07-16T05:56:53Z</time>
      </trkpt>
      <trkpt lat="37.8370110" lon="-3.1797940">
        <ele>465.8</ele>
        <time>2020-07-16T05:56:54Z</time>
      </trkpt>
      <trkpt lat="37.8370250" lon="-3.1800240">
        <ele>464.8</ele>
        <time>2020-07-16T05:56:56Z</time>
      </trkpt>
      <trkpt lat="37.8370230" lon="-3.1801410">
        <ele>464.0</ele>
        <time>2020-07-16T05:56:57Z</time>
      </trkpt>
      <trkpt lat="37.8370170" lon="-3.1802480">
        <ele>463.6</ele>
        <time>2020-07-16T05:56:58Z</time>
      </trkpt>
      <trkpt lat="37.8370010" lon="-3.1803760">
        <ele>463.2</ele>
        <time>2020-07-16T05:56:59Z</time>
      </trkpt>
      <trkpt lat="37.8369220" lon="-3.1805920">
        <ele>462.6</ele>
        <time>2020-07-16T05:57:01Z</time>
      </trkpt>
      <trkpt lat="37.8367320" lon="-3.1808380">
        <ele>461.8</ele>
        <time>2020-07-16T05:57:04Z</time>
      </trkpt>
      <trkpt lat="37.8366550" lon="-3.1809180">
        <ele>461.4</ele>
        <time>2020-07-16T05:57:05Z</time>
      </trkpt>
      <trkpt lat="37.8364380" lon="-3.1811760">
        <ele>460.4</ele>
        <time>2020-07-16T05:57:08Z</time>
      </trkpt>
      <trkpt lat="37.8363660" lon="-3.1812790">
        <ele>459.6</ele>
        <time>2020-07-16T05:57:09Z</time>
      </trkpt>
      <trkpt lat="37.8362980" lon="-3.1813770">
        <ele>458.8</ele>
        <time>2020-07-16T05:57:10Z</time>
      </trkpt>
      <trkpt lat="37.8361500" lon="-3.1815890">
        <ele>457.2</ele>
        <time>2020-07-16T05:57:12Z</time>
      </trkpt>
      <trkpt lat="37.8360010" lon="-3.1817900">
        <ele>455.6</ele>
        <time>2020-07-16T05:57:14Z</time>
      </trkpt>
      <trkpt lat="37.8359170" lon="-3.1818960">
        <ele>454.8</ele>
        <time>2020-07-16T05:57:15Z</time>
      </trkpt>
      <trkpt lat="37.8358420" lon="-3.1819930">
        <ele>453.8</ele>
        <time>2020-07-16T05:57:16Z</time>
      </trkpt>
      <trkpt lat="37.8356850" lon="-3.1821860">
        <ele>452.0</ele>
        <time>2020-07-16T05:57:18Z</time>
      </trkpt>
      <trkpt lat="37.8355400" lon="-3.1823880">
        <ele>450.2</ele>
        <time>2020-07-16T05:57:20Z</time>
      </trkpt>
      <trkpt lat="37.8354670" lon="-3.1824860">
        <ele>449.8</ele>
        <time>2020-07-16T05:57:21Z</time>
      </trkpt>
      <trkpt lat="37.8353300" lon="-3.1826870">
        <ele>448.8</ele>
        <time>2020-07-16T05:57:23Z</time>
      </trkpt>
      <trkpt lat="37.8351800" lon="-3.1828960">
        <ele>447.6</ele>
        <time>2020-07-16T05:57:25Z</time>
      </trkpt>
      <trkpt lat="37.8350290" lon="-3.1830960">
        <ele>446.2</ele>
        <time>2020-07-16T05:57:27Z</time>
      </trkpt>
      <trkpt lat="37.8349600" lon="-3.1831780">
        <ele>445.8</ele>
        <time>2020-07-16T05:57:28Z</time>
      </trkpt>
      <trkpt lat="37.8348630" lon="-3.1832710">
        <ele>445.2</ele>
        <time>2020-07-16T05:57:29Z</time>
      </trkpt>
      <trkpt lat="37.8347700" lon="-3.1833430">
        <ele>445.0</ele>
        <time>2020-07-16T05:57:30Z</time>
      </trkpt>
      <trkpt lat="37.8345790" lon="-3.1834720">
        <ele>444.0</ele>
        <time>2020-07-16T05:57:32Z</time>
      </trkpt>
      <trkpt lat="37.8344890" lon="-3.1835310">
        <ele>443.6</ele>
        <time>2020-07-16T05:57:33Z</time>
      </trkpt>
      <trkpt lat="37.8342950" lon="-3.1836540">
        <ele>442.6</ele>
        <time>2020-07-16T05:57:35Z</time>
      </trkpt>
      <trkpt lat="37.8341120" lon="-3.1837700">
        <ele>441.4</ele>
        <time>2020-07-16T05:57:37Z</time>
      </trkpt>
      <trkpt lat="37.8338660" lon="-3.1839420">
        <ele>440.2</ele>
        <time>2020-07-16T05:57:40Z</time>
      </trkpt>
      <trkpt lat="37.8337900" lon="-3.1840170">
        <ele>440.0</ele>
        <time>2020-07-16T05:57:41Z</time>
      </trkpt>
      <trkpt lat="37.8336750" lon="-3.1841790">
        <ele>439.4</ele>
        <time>2020-07-16T05:57:43Z</time>
      </trkpt>
      <trkpt lat="37.8335760" lon="-3.1843700">
        <ele>439.2</ele>
        <time>2020-07-16T05:57:45Z</time>
      </trkpt>
      <trkpt lat="37.8334450" lon="-3.1846430">
        <ele>438.6</ele>
        <time>2020-07-16T05:57:48Z</time>
      </trkpt>
      <trkpt lat="37.8333030" lon="-3.1849240">
        <ele>437.6</ele>
        <time>2020-07-16T05:57:51Z</time>
      </trkpt>
      <trkpt lat="37.8330730" lon="-3.1853940">
        <ele>436.4</ele>
        <time>2020-07-16T05:57:56Z</time>
      </trkpt>
      <trkpt lat="37.8329860" lon="-3.1855700">
        <ele>436.0</ele>
        <time>2020-07-16T05:57:58Z</time>
      </trkpt>
      <trkpt lat="37.8328600" lon="-3.1858720">
        <ele>435.2</ele>
        <time>2020-07-16T05:58:01Z</time>
      </trkpt>
      <trkpt lat="37.8328390" lon="-3.1859770">
        <ele>435.0</ele>
        <time>2020-07-16T05:58:02Z</time>
      </trkpt>
      <trkpt lat="37.8328260" lon="-3.1860810">
        <ele>434.4</ele>
        <time>2020-07-16T05:58:03Z</time>
      </trkpt>
      <trkpt lat="37.8328210" lon="-3.1861870">
        <ele>434.0</ele>
        <time>2020-07-16T05:58:04Z</time>
      </trkpt>
      <trkpt lat="37.8328340" lon="-3.1865290">
        <ele>433.6</ele>
        <time>2020-07-16T05:58:07Z</time>
      </trkpt>
      <trkpt lat="37.8328580" lon="-3.1868440">
        <ele>433.0</ele>
        <time>2020-07-16T05:58:10Z</time>
      </trkpt>
      <trkpt lat="37.8328990" lon="-3.1874240">
        <ele>431.8</ele>
        <time>2020-07-16T05:58:15Z</time>
      </trkpt>
      <trkpt lat="37.8329030" lon="-3.1875370">
        <ele>431.4</ele>
        <time>2020-07-16T05:58:16Z</time>
      </trkpt>
      <trkpt lat="37.8329190" lon="-3.1877840">
        <ele>430.4</ele>
        <time>2020-07-16T05:58:18Z</time>
      </trkpt>
      <trkpt lat="37.8329140" lon="-3.1882820">
        <ele>429.2</ele>
        <time>2020-07-16T05:58:22Z</time>
      </trkpt>
      <trkpt lat="37.8328970" lon="-3.1883910">
        <ele>428.6</ele>
        <time>2020-07-16T05:58:23Z</time>
      </trkpt>
      <trkpt lat="37.8328720" lon="-3.1884930">
        <ele>428.0</ele>
        <time>2020-07-16T05:58:24Z</time>
      </trkpt>
      <trkpt lat="37.8328270" lon="-3.1886540">
        <ele>427.2</ele>
        <time>2020-07-16T05:58:26Z</time>
      </trkpt>
      <trkpt lat="37.8328060" lon="-3.1887150">
        <ele>426.8</ele>
        <time>2020-07-16T05:58:27Z</time>
      </trkpt>
      <trkpt lat="37.8327930" lon="-3.1888520">
        <ele>425.8</ele>
        <time>2020-07-16T05:58:30Z</time>
      </trkpt>
      <trkpt lat="37.8327920" lon="-3.1888880">
        <ele>425.6</ele>
        <time>2020-07-16T05:58:31Z</time>
      </trkpt>
      <trkpt lat="37.8328120" lon="-3.1889220">
        <ele>425.4</ele>
        <time>2020-07-16T05:58:32Z</time>
      </trkpt>
      <trkpt lat="37.8328310" lon="-3.1889570">
        <ele>425.0</ele>
        <time>2020-07-16T05:58:33Z</time>
      </trkpt>
      <trkpt lat="37.8328790" lon="-3.1890540">
        <ele>425.0</ele>
        <time>2020-07-16T05:58:35Z</time>
      </trkpt>
      <trkpt lat="37.8329420" lon="-3.1891580">
        <ele>424.6</ele>
        <time>2020-07-16T05:58:37Z</time>
      </trkpt>
      <trkpt lat="37.8330430" lon="-3.1893390">
        <ele>424.4</ele>
        <time>2020-07-16T05:58:40Z</time>
      </trkpt>
      <trkpt lat="37.8333650" lon="-3.1898410">
        <ele>424.0</ele>
        <time>2020-07-16T05:58:48Z</time>
      </trkpt>
      <trkpt lat="37.8334960" lon="-3.1900230">
        <ele>424.0</ele>
        <time>2020-07-16T05:58:51Z</time>
      </trkpt>
      <trkpt lat="37.8336470" lon="-3.1901740">
        <ele>424.2</ele>
        <time>2020-07-16T05:58:54Z</time>
      </trkpt>
      <trkpt lat="37.8336970" lon="-3.1902180">
        <ele>424.2</ele>
        <time>2020-07-16T05:58:55Z</time>
      </trkpt>
      <trkpt lat="37.8338030" lon="-3.1902990">
        <ele>424.4</ele>
        <time>2020-07-16T05:58:57Z</time>
      </trkpt>
      <trkpt lat="37.8338860" lon="-3.1903550">
        <ele>424.4</ele>
        <time>2020-07-16T05:58:59Z</time>
      </trkpt>
      <trkpt lat="37.8339260" lon="-3.1903750">
        <ele>424.6</ele>
        <time>2020-07-16T05:59:00Z</time>
      </trkpt>
      <trkpt lat="37.8339650" lon="-3.1903950">
        <ele>424.8</ele>
        <time>2020-07-16T05:59:01Z</time>
      </trkpt>
      <trkpt lat="37.8340440" lon="-3.1904360">
        <ele>424.8</ele>
        <time>2020-07-16T05:59:02Z</time>
      </trkpt>
      <trkpt lat="37.8343930" lon="-3.1906070">
        <ele>425.8</ele>
        <time>2020-07-16T05:59:08Z</time>
      </trkpt>
      <trkpt lat="37.8346060" lon="-3.1907180">
        <ele>426.2</ele>
        <time>2020-07-16T05:59:12Z</time>
      </trkpt>
      <trkpt lat="37.8348680" lon="-3.1908800">
        <ele>426.8</ele>
        <time>2020-07-16T05:59:17Z</time>
      </trkpt>
      <trkpt lat="37.8349690" lon="-3.1909560">
        <ele>427.0</ele>
        <time>2020-07-16T05:59:19Z</time>
      </trkpt>
      <trkpt lat="37.8351160" lon="-3.1910670">
        <ele>427.4</ele>
        <time>2020-07-16T05:59:22Z</time>
      </trkpt>
      <trkpt lat="37.8354140" lon="-3.1913010">
        <ele>427.8</ele>
        <time>2020-07-16T05:59:28Z</time>
      </trkpt>
      <trkpt lat="37.8355200" lon="-3.1913850">
        <ele>428.0</ele>
        <time>2020-07-16T05:59:30Z</time>
      </trkpt>
      <trkpt lat="37.8358910" lon="-3.1916720">
        <ele>428.2</ele>
        <time>2020-07-16T05:59:37Z</time>
      </trkpt>
      <trkpt lat="37.8360050" lon="-3.1917600">
        <ele>428.2</ele>
        <time>2020-07-16T05:59:39Z</time>
      </trkpt>
      <trkpt lat="37.8363760" lon="-3.1920560">
        <ele>427.8</ele>
        <time>2020-07-16T05:59:45Z</time>
      </trkpt>
      <trkpt lat="37.8365040" lon="-3.1921640">
        <ele>427.6</ele>
        <time>2020-07-16T05:59:47Z</time>
      </trkpt>
      <trkpt lat="37.8366250" lon="-3.1922820">
        <ele>427.2</ele>
        <time>2020-07-16T05:59:49Z</time>
      </trkpt>
      <trkpt lat="37.8367410" lon="-3.1924270">
        <ele>427.0</ele>
        <time>2020-07-16T05:59:51Z</time>
      </trkpt>
      <trkpt lat="37.8367900" lon="-3.1925000">
        <ele>426.8</ele>
        <time>2020-07-16T05:59:52Z</time>
      </trkpt>
      <trkpt lat="37.8369670" lon="-3.1928520">
        <ele>426.0</ele>
        <time>2020-07-16T05:59:56Z</time>
      </trkpt>
      <trkpt lat="37.8370020" lon="-3.1929480">
        <ele>425.8</ele>
        <time>2020-07-16T05:59:57Z</time>
      </trkpt>
      <trkpt lat="37.8370290" lon="-3.1930330">
        <ele>425.8</ele>
        <time>2020-07-16T05:59:58Z</time>
      </trkpt>
      <trkpt lat="37.8371230" lon="-3.1934590">
        <ele>425.2</ele>
        <time>2020-07-16T06:00:02Z</time>
      </trkpt>
      <trkpt lat="37.8372070" lon="-3.1939970">
        <ele>424.6</ele>
        <time>2020-07-16T06:00:07Z</time>
      </trkpt>
      <trkpt lat="37.8372720" lon="-3.1944320">
        <ele>424.2</ele>
        <time>2020-07-16T06:00:11Z</time>
      </trkpt>
      <trkpt lat="37.8373510" lon="-3.1949560">
        <ele>423.6</ele>
        <time>2020-07-16T06:00:16Z</time>
      </trkpt>
      <trkpt lat="37.8373660" lon="-3.1950670">
        <ele>423.4</ele>
        <time>2020-07-16T06:00:17Z</time>
      </trkpt>
      <trkpt lat="37.8373970" lon="-3.1952710">
        <ele>423.4</ele>
        <time>2020-07-16T06:00:19Z</time>
      </trkpt>
      <trkpt lat="37.8375050" lon="-3.1960100">
        <ele>423.2</ele>
        <time>2020-07-16T06:00:26Z</time>
      </trkpt>
      <trkpt lat="37.8375640" lon="-3.1964150">
        <ele>422.8</ele>
        <time>2020-07-16T06:00:30Z</time>
      </trkpt>
      <trkpt lat="37.8377210" lon="-3.1971080">
        <ele>422.8</ele>
        <time>2020-07-16T06:00:37Z</time>
      </trkpt>
      <trkpt lat="37.8377580" lon="-3.1971970">
        <ele>422.6</ele>
        <time>2020-07-16T06:00:38Z</time>
      </trkpt>
      <trkpt lat="37.8378450" lon="-3.1973780">
        <ele>422.4</ele>
        <time>2020-07-16T06:00:40Z</time>
      </trkpt>
      <trkpt lat="37.8380440" lon="-3.1977200">
        <ele>422.2</ele>
        <time>2020-07-16T06:00:44Z</time>
      </trkpt>
      <trkpt lat="37.8384050" lon="-3.1983080">
        <ele>422.0</ele>
        <time>2020-07-16T06:00:51Z</time>
      </trkpt>
      <trkpt lat="37.8385580" lon="-3.1985510">
        <ele>422.0</ele>
        <time>2020-07-16T06:00:54Z</time>
      </trkpt>
      <trkpt lat="37.8389370" lon="-3.1991400">
        <ele>421.6</ele>
        <time>2020-07-16T06:01:01Z</time>
      </trkpt>
      <trkpt lat="37.8390430" lon="-3.1992940">
        <ele>421.6</ele>
        <time>2020-07-16T06:01:03Z</time>
      </trkpt>
      <trkpt lat="37.8392880" lon="-3.1996050">
        <ele>421.4</ele>
        <time>2020-07-16T06:01:07Z</time>
      </trkpt>
      <trkpt lat="37.8394780" lon="-3.1998190">
        <ele>421.0</ele>
        <time>2020-07-16T06:01:10Z</time>
      </trkpt>
      <trkpt lat="37.8399370" lon="-3.2003030">
        <ele>421.2</ele>
        <time>2020-07-16T06:01:17Z</time>
      </trkpt>
      <trkpt lat="37.8401340" lon="-3.2005020">
        <ele>421.0</ele>
        <time>2020-07-16T06:01:20Z</time>
      </trkpt>
      <trkpt lat="37.8405950" lon="-3.2009630">
        <ele>420.6</ele>
        <time>2020-07-16T06:01:27Z</time>
      </trkpt>
      <trkpt lat="37.8409780" lon="-3.2013480">
        <ele>420.6</ele>
        <time>2020-07-16T06:01:33Z</time>
      </trkpt>
      <trkpt lat="37.8414520" lon="-3.2017150">
        <ele>421.2</ele>
        <time>2020-07-16T06:01:40Z</time>
      </trkpt>
      <trkpt lat="37.8418290" lon="-3.2018600">
        <ele>421.0</ele>
        <time>2020-07-16T06:01:45Z</time>
      </trkpt>
      <trkpt lat="37.8420560" lon="-3.2019090">
        <ele>421.2</ele>
        <time>2020-07-16T06:01:48Z</time>
      </trkpt>
      <trkpt lat="37.8422950" lon="-3.2019400">
        <ele>421.6</ele>
        <time>2020-07-16T06:01:51Z</time>
      </trkpt>
      <trkpt lat="37.8423680" lon="-3.2019470">
        <ele>421.8</ele>
        <time>2020-07-16T06:01:52Z</time>
      </trkpt>
      <trkpt lat="37.8428220" lon="-3.2019990">
        <ele>422.4</ele>
        <time>2020-07-16T06:01:58Z</time>
      </trkpt>
      <trkpt lat="37.8430600" lon="-3.2020220">
        <ele>422.6</ele>
        <time>2020-07-16T06:02:01Z</time>
      </trkpt>
      <trkpt lat="37.8436120" lon="-3.2020870">
        <ele>422.6</ele>
        <time>2020-07-16T06:02:08Z</time>
      </trkpt>
      <trkpt lat="37.8438700" lon="-3.2021140">
        <ele>422.6</ele>
        <time>2020-07-16T06:02:11Z</time>
      </trkpt>
      <trkpt lat="37.8443150" lon="-3.2021660">
        <ele>422.0</ele>
        <time>2020-07-16T06:02:16Z</time>
      </trkpt>
      <trkpt lat="37.8446070" lon="-3.2021970">
        <ele>421.6</ele>
        <time>2020-07-16T06:02:19Z</time>
      </trkpt>
      <trkpt lat="37.8449810" lon="-3.2022500">
        <ele>421.2</ele>
        <time>2020-07-16T06:02:23Z</time>
      </trkpt>
      <trkpt lat="37.8452640" lon="-3.2023360">
        <ele>420.0</ele>
        <time>2020-07-16T06:02:26Z</time>
      </trkpt>
      <trkpt lat="37.8453510" lon="-3.2023820">
        <ele>419.6</ele>
        <time>2020-07-16T06:02:27Z</time>
      </trkpt>
      <trkpt lat="37.8454290" lon="-3.2024360">
        <ele>419.4</ele>
        <time>2020-07-16T06:02:28Z</time>
      </trkpt>
      <trkpt lat="37.8455950" lon="-3.2025840">
        <ele>419.0</ele>
        <time>2020-07-16T06:02:30Z</time>
      </trkpt>
      <trkpt lat="37.8456610" lon="-3.2026620">
        <ele>418.8</ele>
        <time>2020-07-16T06:02:31Z</time>
      </trkpt>
      <trkpt lat="37.8458820" lon="-3.2030660">
        <ele>418.0</ele>
        <time>2020-07-16T06:02:35Z</time>
      </trkpt>
      <trkpt lat="37.8459190" lon="-3.2031850">
        <ele>417.8</ele>
        <time>2020-07-16T06:02:36Z</time>
      </trkpt>
      <trkpt lat="37.8459650" lon="-3.2034120">
        <ele>417.6</ele>
        <time>2020-07-16T06:02:38Z</time>
      </trkpt>
      <trkpt lat="37.8459830" lon="-3.2035330">
        <ele>417.4</ele>
        <time>2020-07-16T06:02:39Z</time>
      </trkpt>
      <trkpt lat="37.8460180" lon="-3.2038710">
        <ele>417.2</ele>
        <time>2020-07-16T06:02:42Z</time>
      </trkpt>
      <trkpt lat="37.8460420" lon="-3.2042000">
        <ele>417.4</ele>
        <time>2020-07-16T06:02:45Z</time>
      </trkpt>
      <trkpt lat="37.8460590" lon="-3.2048030">
        <ele>417.6</ele>
        <time>2020-07-16T06:02:51Z</time>
      </trkpt>
      <trkpt lat="37.8459670" lon="-3.2052180">
        <ele>417.8</ele>
        <time>2020-07-16T06:02:56Z</time>
      </trkpt>
      <trkpt lat="37.8458610" lon="-3.2054810">
        <ele>418.8</ele>
        <time>2020-07-16T06:03:00Z</time>
      </trkpt>
      <trkpt lat="37.8458050" lon="-3.2055960">
        <ele>419.4</ele>
        <time>2020-07-16T06:03:02Z</time>
      </trkpt>
      <trkpt lat="37.8457510" lon="-3.2056950">
        <ele>419.8</ele>
        <time>2020-07-16T06:03:04Z</time>
      </trkpt>
      <trkpt lat="37.8456780" lon="-3.2058380">
        <ele>420.4</ele>
        <time>2020-07-16T06:03:07Z</time>
      </trkpt>
      <trkpt lat="37.8456560" lon="-3.2058810">
        <ele>420.6</ele>
        <time>2020-07-16T06:03:08Z</time>
      </trkpt>
      <trkpt lat="37.8456090" lon="-3.2059670">
        <ele>421.0</ele>
        <time>2020-07-16T06:03:10Z</time>
      </trkpt>
      <trkpt lat="37.8455480" lon="-3.2060980">
        <ele>421.6</ele>
        <time>2020-07-16T06:03:13Z</time>
      </trkpt>
      <trkpt lat="37.8455040" lon="-3.2061860">
        <ele>422.2</ele>
        <time>2020-07-16T06:03:15Z</time>
      </trkpt>
      <trkpt lat="37.8454450" lon="-3.2063110">
        <ele>423.0</ele>
        <time>2020-07-16T06:03:18Z</time>
      </trkpt>
      <trkpt lat="37.8454250" lon="-3.2063570">
        <ele>423.2</ele>
        <time>2020-07-16T06:03:19Z</time>
      </trkpt>
      <trkpt lat="37.8453700" lon="-3.2064890">
        <ele>424.0</ele>
        <time>2020-07-16T06:03:22Z</time>
      </trkpt>
      <trkpt lat="37.8453380" lon="-3.2065770">
        <ele>424.4</ele>
        <time>2020-07-16T06:03:24Z</time>
      </trkpt>
      <trkpt lat="37.8453250" lon="-3.2066260">
        <ele>424.4</ele>
        <time>2020-07-16T06:03:25Z</time>
      </trkpt>
      <trkpt lat="37.8452900" lon="-3.2067420">
        <ele>425.0</ele>
        <time>2020-07-16T06:03:28Z</time>
      </trkpt>
      <trkpt lat="37.8452670" lon="-3.2068190">
        <ele>425.4</ele>
        <time>2020-07-16T06:03:29Z</time>
      </trkpt>
      <trkpt lat="37.8452190" lon="-3.2069760">
        <ele>426.2</ele>
        <time>2020-07-16T06:03:32Z</time>
      </trkpt>
      <trkpt lat="37.8451720" lon="-3.2071380">
        <ele>426.4</ele>
        <time>2020-07-16T06:03:35Z</time>
      </trkpt>
      <trkpt lat="37.8451230" lon="-3.2072960">
        <ele>426.8</ele>
        <time>2020-07-16T06:03:38Z</time>
      </trkpt>
      <trkpt lat="37.8450620" lon="-3.2075040">
        <ele>427.2</ele>
        <time>2020-07-16T06:03:42Z</time>
      </trkpt>
      <trkpt lat="37.8450490" lon="-3.2075530">
        <ele>427.4</ele>
        <time>2020-07-16T06:03:43Z</time>
      </trkpt>
      <trkpt lat="37.8449680" lon="-3.2078160">
        <ele>428.4</ele>
        <time>2020-07-16T06:03:48Z</time>
      </trkpt>
      <trkpt lat="37.8449280" lon="-3.2079590">
        <ele>428.8</ele>
        <time>2020-07-16T06:03:51Z</time>
      </trkpt>
      <trkpt lat="37.8448600" lon="-3.2081810">
        <ele>429.6</ele>
        <time>2020-07-16T06:03:55Z</time>
      </trkpt>
      <trkpt lat="37.8448210" lon="-3.2083070">
        <ele>430.0</ele>
        <time>2020-07-16T06:03:58Z</time>
      </trkpt>
      <trkpt lat="37.8447800" lon="-3.2084450">
        <ele>430.6</ele>
        <time>2020-07-16T06:04:01Z</time>
      </trkpt>
      <trkpt lat="37.8447150" lon="-3.2086760">
        <ele>431.8</ele>
        <time>2020-07-16T06:04:06Z</time>
      </trkpt>
      <trkpt lat="37.8447030" lon="-3.2087200">
        <ele>432.0</ele>
        <time>2020-07-16T06:04:07Z</time>
      </trkpt>
      <trkpt lat="37.8446530" lon="-3.2089020">
        <ele>432.8</ele>
        <time>2020-07-16T06:04:11Z</time>
      </trkpt>
      <trkpt lat="37.8445780" lon="-3.2091670">
        <ele>434.0</ele>
        <time>2020-07-16T06:04:16Z</time>
      </trkpt>
      <trkpt lat="37.8445300" lon="-3.2094270">
        <ele>435.2</ele>
        <time>2020-07-16T06:04:21Z</time>
      </trkpt>
      <trkpt lat="37.8445050" lon="-3.2095830">
        <ele>435.6</ele>
        <time>2020-07-16T06:04:24Z</time>
      </trkpt>
      <trkpt lat="37.8444840" lon="-3.2097490">
        <ele>436.2</ele>
        <time>2020-07-16T06:04:27Z</time>
      </trkpt>
      <trkpt lat="37.8444750" lon="-3.2101390">
        <ele>437.2</ele>
        <time>2020-07-16T06:04:34Z</time>
      </trkpt>
      <trkpt lat="37.8444760" lon="-3.2102570">
        <ele>437.2</ele>
        <time>2020-07-16T06:04:36Z</time>
      </trkpt>
      <trkpt lat="37.8444490" lon="-3.2107470">
        <ele>438.2</ele>
        <time>2020-07-16T06:04:44Z</time>
      </trkpt>
      <trkpt lat="37.8444340" lon="-3.2108180">
        <ele>438.2</ele>
        <time>2020-07-16T06:04:45Z</time>
      </trkpt>
      <trkpt lat="37.8443310" lon="-3.2111540">
        <ele>438.6</ele>
        <time>2020-07-16T06:04:50Z</time>
      </trkpt>
      <trkpt lat="37.8442970" lon="-3.2112130">
        <ele>438.8</ele>
        <time>2020-07-16T06:04:51Z</time>
      </trkpt>
      <trkpt lat="37.8442260" lon="-3.2113290">
        <ele>438.8</ele>
        <time>2020-07-16T06:04:53Z</time>
      </trkpt>
      <trkpt lat="37.8440470" lon="-3.2115560">
        <ele>439.0</ele>
        <time>2020-07-16T06:04:57Z</time>
      </trkpt>
      <trkpt lat="37.8437750" lon="-3.2118100">
        <ele>439.0</ele>
        <time>2020-07-16T06:05:02Z</time>
      </trkpt>
      <trkpt lat="37.8436560" lon="-3.2119160">
        <ele>438.8</ele>
        <time>2020-07-16T06:05:04Z</time>
      </trkpt>
      <trkpt lat="37.8432320" lon="-3.2122370">
        <ele>438.0</ele>
        <time>2020-07-16T06:05:10Z</time>
      </trkpt>
      <trkpt lat="37.8431500" lon="-3.2122850">
        <ele>437.6</ele>
        <time>2020-07-16T06:05:11Z</time>
      </trkpt>
      <trkpt lat="37.8429040" lon="-3.2124280">
        <ele>437.0</ele>
        <time>2020-07-16T06:05:14Z</time>
      </trkpt>
      <trkpt lat="37.8427250" lon="-3.2124990">
        <ele>436.6</ele>
        <time>2020-07-16T06:05:16Z</time>
      </trkpt>
      <trkpt lat="37.8426270" lon="-3.2125290">
        <ele>436.2</ele>
        <time>2020-07-16T06:05:17Z</time>
      </trkpt>
      <trkpt lat="37.8425290" lon="-3.2125520">
        <ele>435.8</ele>
        <time>2020-07-16T06:05:18Z</time>
      </trkpt>
      <trkpt lat="37.8423370" lon="-3.2126000">
        <ele>434.8</ele>
        <time>2020-07-16T06:05:20Z</time>
      </trkpt>
      <trkpt lat="37.8422410" lon="-3.2126200">
        <ele>434.4</ele>
        <time>2020-07-16T06:05:21Z</time>
      </trkpt>
      <trkpt lat="37.8421490" lon="-3.2126310">
        <ele>434.0</ele>
        <time>2020-07-16T06:05:22Z</time>
      </trkpt>
      <trkpt lat="37.8420400" lon="-3.2126380">
        <ele>433.6</ele>
        <time>2020-07-16T06:05:23Z</time>
      </trkpt>
      <trkpt lat="37.8419390" lon="-3.2126470">
        <ele>433.0</ele>
        <time>2020-07-16T06:05:24Z</time>
      </trkpt>
      <trkpt lat="37.8417400" lon="-3.2126620">
        <ele>432.2</ele>
        <time>2020-07-16T06:05:26Z</time>
      </trkpt>
      <trkpt lat="37.8415410" lon="-3.2126830">
        <ele>431.6</ele>
        <time>2020-07-16T06:05:28Z</time>
      </trkpt>
      <trkpt lat="37.8412600" lon="-3.2127080">
        <ele>430.8</ele>
        <time>2020-07-16T06:05:31Z</time>
      </trkpt>
      <trkpt lat="37.8411720" lon="-3.2126920">
        <ele>430.8</ele>
        <time>2020-07-16T06:05:32Z</time>
      </trkpt>
      <trkpt lat="37.8410080" lon="-3.2126330">
        <ele>431.0</ele>
        <time>2020-07-16T06:05:34Z</time>
      </trkpt>
      <trkpt lat="37.8408260" lon="-3.2125630">
        <ele>430.6</ele>
        <time>2020-07-16T06:05:36Z</time>
      </trkpt>
      <trkpt lat="37.8407430" lon="-3.2125260">
        <ele>430.6</ele>
        <time>2020-07-16T06:05:37Z</time>
      </trkpt>
      <trkpt lat="37.8403430" lon="-3.2123570">
        <ele>430.0</ele>
        <time>2020-07-16T06:05:42Z</time>
      </trkpt>
      <trkpt lat="37.8402670" lon="-3.2123360">
        <ele>430.0</ele>
        <time>2020-07-16T06:05:43Z</time>
      </trkpt>
      <trkpt lat="37.8401870" lon="-3.2123270">
        <ele>429.8</ele>
        <time>2020-07-16T06:05:44Z</time>
      </trkpt>
      <trkpt lat="37.8400390" lon="-3.2123320">
        <ele>429.6</ele>
        <time>2020-07-16T06:05:46Z</time>
      </trkpt>
      <trkpt lat="37.8399640" lon="-3.2123400">
        <ele>429.6</ele>
        <time>2020-07-16T06:05:47Z</time>
      </trkpt>
      <trkpt lat="37.8397230" lon="-3.2123820">
        <ele>430.2</ele>
        <time>2020-07-16T06:05:51Z</time>
      </trkpt>
      <trkpt lat="37.8396850" lon="-3.2124130">
        <ele>430.4</ele>
        <time>2020-07-16T06:05:52Z</time>
      </trkpt>
      <trkpt lat="37.8396320" lon="-3.2125280">
        <ele>431.2</ele>
        <time>2020-07-16T06:05:55Z</time>
      </trkpt>
      <trkpt lat="37.8396400" lon="-3.2125690">
        <ele>431.6</ele>
        <time>2020-07-16T06:05:56Z</time>
      </trkpt>
      <trkpt lat="37.8396660" lon="-3.2126080">
        <ele>432.0</ele>
        <time>2020-07-16T06:05:57Z</time>
      </trkpt>
      <trkpt lat="37.8396950" lon="-3.2126330">
        <ele>432.4</ele>
        <time>2020-07-16T06:05:58Z</time>
      </trkpt>
      <trkpt lat="37.8397290" lon="-3.2126700">
        <ele>432.6</ele>
        <time>2020-07-16T06:05:59Z</time>
      </trkpt>
      <trkpt lat="37.8397520" lon="-3.2127100">
        <ele>433.0</ele>
        <time>2020-07-16T06:06:00Z</time>
      </trkpt>
      <trkpt lat="37.8397700" lon="-3.2127530">
        <ele>433.2</ele>
        <time>2020-07-16T06:06:01Z</time>
      </trkpt>
      <trkpt lat="37.8397880" lon="-3.2127970">
        <ele>433.4</ele>
        <time>2020-07-16T06:06:02Z</time>
      </trkpt>
      <trkpt lat="37.8398010" lon="-3.2128400">
        <ele>433.6</ele>
        <time>2020-07-16T06:06:03Z</time>
      </trkpt>
      <trkpt lat="37.8398200" lon="-3.2129330">
        <ele>434.0</ele>
        <time>2020-07-16T06:06:05Z</time>
      </trkpt>
      <trkpt lat="37.8398490" lon="-3.2130680">
        <ele>435.0</ele>
        <time>2020-07-16T06:06:08Z</time>
      </trkpt>
      <trkpt lat="37.8398560" lon="-3.2131150">
        <ele>435.2</ele>
        <time>2020-07-16T06:06:09Z</time>
      </trkpt>
      <trkpt lat="37.8398640" lon="-3.2131610">
        <ele>435.2</ele>
        <time>2020-07-16T06:06:10Z</time>
      </trkpt>
      <trkpt lat="37.8399000" lon="-3.2132940">
        <ele>436.0</ele>
        <time>2020-07-16T06:06:13Z</time>
      </trkpt>
      <trkpt lat="37.8399120" lon="-3.2133380">
        <ele>436.2</ele>
        <time>2020-07-16T06:06:14Z</time>
      </trkpt>
      <trkpt lat="37.8399540" lon="-3.2134650">
        <ele>437.0</ele>
        <time>2020-07-16T06:06:17Z</time>
      </trkpt>
      <trkpt lat="37.8399680" lon="-3.2135500">
        <ele>437.4</ele>
        <time>2020-07-16T06:06:19Z</time>
      </trkpt>
      <trkpt lat="37.8399640" lon="-3.2137160">
        <ele>438.2</ele>
        <time>2020-07-16T06:06:23Z</time>
      </trkpt>
      <trkpt lat="37.8399550" lon="-3.2137590">
        <ele>438.4</ele>
        <time>2020-07-16T06:06:24Z</time>
      </trkpt>
      <trkpt lat="37.8399170" lon="-3.2139690">
        <ele>439.6</ele>
        <time>2020-07-16T06:06:29Z</time>
      </trkpt>
      <trkpt lat="37.8399140" lon="-3.2140520">
        <ele>440.0</ele>
        <time>2020-07-16T06:06:31Z</time>
      </trkpt>
      <trkpt lat="37.8399180" lon="-3.2142150">
        <ele>440.8</ele>
        <time>2020-07-16T06:06:35Z</time>
      </trkpt>
      <trkpt lat="37.8399560" lon="-3.2144140">
        <ele>441.6</ele>
        <time>2020-07-16T06:06:40Z</time>
      </trkpt>
      <trkpt lat="37.8399630" lon="-3.2144580">
        <ele>442.0</ele>
        <time>2020-07-16T06:06:41Z</time>
      </trkpt>
      <trkpt lat="37.8399930" lon="-3.2146630">
        <ele>443.0</ele>
        <time>2020-07-16T06:06:46Z</time>
      </trkpt>
      <trkpt lat="37.8399950" lon="-3.2147900">
        <ele>443.4</ele>
        <time>2020-07-16T06:06:49Z</time>
      </trkpt>
      <trkpt lat="37.8399880" lon="-3.2149170">
        <ele>444.0</ele>
        <time>2020-07-16T06:06:52Z</time>
      </trkpt>
      <trkpt lat="37.8399570" lon="-3.2150830">
        <ele>445.0</ele>
        <time>2020-07-16T06:06:56Z</time>
      </trkpt>
      <trkpt lat="37.8399440" lon="-3.2151220">
        <ele>445.2</ele>
        <time>2020-07-16T06:06:57Z</time>
      </trkpt>
      <trkpt lat="37.8398740" lon="-3.2153180">
        <ele>446.2</ele>
        <time>2020-07-16T06:07:02Z</time>
      </trkpt>
      <trkpt lat="37.8398480" lon="-3.2153910">
        <ele>446.6</ele>
        <time>2020-07-16T06:07:04Z</time>
      </trkpt>
      <trkpt lat="37.8397900" lon="-3.2155490">
        <ele>447.2</ele>
        <time>2020-07-16T06:07:08Z</time>
      </trkpt>
      <trkpt lat="37.8397180" lon="-3.2157440">
        <ele>447.8</ele>
        <time>2020-07-16T06:07:13Z</time>
      </trkpt>
      <trkpt lat="37.8396860" lon="-3.2158230">
        <ele>448.4</ele>
        <time>2020-07-16T06:07:15Z</time>
      </trkpt>
      <trkpt lat="37.8396420" lon="-3.2159340">
        <ele>449.4</ele>
        <time>2020-07-16T06:07:18Z</time>
      </trkpt>
      <trkpt lat="37.8395850" lon="-3.2160860">
        <ele>450.2</ele>
        <time>2020-07-16T06:07:22Z</time>
      </trkpt>
      <trkpt lat="37.8395400" lon="-3.2162090">
        <ele>450.6</ele>
        <time>2020-07-16T06:07:25Z</time>
      </trkpt>
      <trkpt lat="37.8394610" lon="-3.2164170">
        <ele>451.6</ele>
        <time>2020-07-16T06:07:30Z</time>
      </trkpt>
      <trkpt lat="37.8394500" lon="-3.2164580">
        <ele>451.8</ele>
        <time>2020-07-16T06:07:31Z</time>
      </trkpt>
      <trkpt lat="37.8394460" lon="-3.2167140">
        <ele>452.8</ele>
        <time>2020-07-16T06:07:37Z</time>
      </trkpt>
      <trkpt lat="37.8395270" lon="-3.2168940">
        <ele>454.0</ele>
        <time>2020-07-16T06:07:42Z</time>
      </trkpt>
      <trkpt lat="37.8395480" lon="-3.2169220">
        <ele>454.2</ele>
        <time>2020-07-16T06:07:43Z</time>
      </trkpt>
      <trkpt lat="37.8396930" lon="-3.2170240">
        <ele>455.2</ele>
        <time>2020-07-16T06:07:48Z</time>
      </trkpt>
      <trkpt lat="37.8397250" lon="-3.2170340">
        <ele>455.4</ele>
        <time>2020-07-16T06:07:49Z</time>
      </trkpt>
      <trkpt lat="37.8398580" lon="-3.2170490">
        <ele>456.2</ele>
        <time>2020-07-16T06:07:53Z</time>
      </trkpt>
      <trkpt lat="37.8399570" lon="-3.2170490">
        <ele>457.0</ele>
        <time>2020-07-16T06:07:56Z</time>
      </trkpt>
      <trkpt lat="37.8400120" lon="-3.2170510">
        <ele>457.2</ele>
        <time>2020-07-16T06:07:58Z</time>
      </trkpt>
      <trkpt lat="37.8402090" lon="-3.2170530">
        <ele>458.4</ele>
        <time>2020-07-16T06:08:04Z</time>
      </trkpt>
      <trkpt lat="37.8403120" lon="-3.2170480">
        <ele>459.2</ele>
        <time>2020-07-16T06:08:07Z</time>
      </trkpt>
      <trkpt lat="37.8403780" lon="-3.2170490">
        <ele>459.6</ele>
        <time>2020-07-16T06:08:09Z</time>
      </trkpt>
      <trkpt lat="37.8405340" lon="-3.2171130">
        <ele>460.6</ele>
        <time>2020-07-16T06:08:14Z</time>
      </trkpt>
      <trkpt lat="37.8406260" lon="-3.2172900">
        <ele>461.4</ele>
        <time>2020-07-16T06:08:19Z</time>
      </trkpt>
      <trkpt lat="37.8406270" lon="-3.2173750">
        <ele>461.8</ele>
        <time>2020-07-16T06:08:21Z</time>
      </trkpt>
      <trkpt lat="37.8406080" lon="-3.2174980">
        <ele>462.6</ele>
        <time>2020-07-16T06:08:24Z</time>
      </trkpt>
      <trkpt lat="37.8406010" lon="-3.2175430">
        <ele>463.0</ele>
        <time>2020-07-16T06:08:25Z</time>
      </trkpt>
      <trkpt lat="37.8405540" lon="-3.2177990">
        <ele>464.0</ele>
        <time>2020-07-16T06:08:31Z</time>
      </trkpt>
      <trkpt lat="37.8405470" lon="-3.2178840">
        <ele>464.4</ele>
        <time>2020-07-16T06:08:33Z</time>
      </trkpt>
      <trkpt lat="37.8405260" lon="-3.2180100">
        <ele>465.0</ele>
        <time>2020-07-16T06:08:36Z</time>
      </trkpt>
      <trkpt lat="37.8405000" lon="-3.2182210">
        <ele>466.0</ele>
        <time>2020-07-16T06:08:41Z</time>
      </trkpt>
      <trkpt lat="37.8404950" lon="-3.2182640">
        <ele>466.2</ele>
        <time>2020-07-16T06:08:42Z</time>
      </trkpt>
      <trkpt lat="37.8404710" lon="-3.2184740">
        <ele>467.2</ele>
        <time>2020-07-16T06:08:47Z</time>
      </trkpt>
      <trkpt lat="37.8404480" lon="-3.2186820">
        <ele>468.4</ele>
        <time>2020-07-16T06:08:52Z</time>
      </trkpt>
      <trkpt lat="37.8404410" lon="-3.2187240">
        <ele>468.6</ele>
        <time>2020-07-16T06:08:53Z</time>
      </trkpt>
      <trkpt lat="37.8404270" lon="-3.2188940">
        <ele>469.4</ele>
        <time>2020-07-16T06:08:57Z</time>
      </trkpt>
      <trkpt lat="37.8404510" lon="-3.2191030">
        <ele>470.2</ele>
        <time>2020-07-16T06:09:02Z</time>
      </trkpt>
      <trkpt lat="37.8404680" lon="-3.2191400">
        <ele>470.4</ele>
        <time>2020-07-16T06:09:03Z</time>
      </trkpt>
      <trkpt lat="37.8405470" lon="-3.2192250">
        <ele>471.2</ele>
        <time>2020-07-16T06:09:06Z</time>
      </trkpt>
      <trkpt lat="37.8406050" lon="-3.2192650">
        <ele>471.6</ele>
        <time>2020-07-16T06:09:08Z</time>
      </trkpt>
      <trkpt lat="37.8407350" lon="-3.2193490">
        <ele>472.8</ele>
        <time>2020-07-16T06:09:12Z</time>
      </trkpt>
      <trkpt lat="37.8407660" lon="-3.2193670">
        <ele>473.2</ele>
        <time>2020-07-16T06:09:13Z</time>
      </trkpt>
      <trkpt lat="37.8408650" lon="-3.2194260">
        <ele>474.0</ele>
        <time>2020-07-16T06:09:16Z</time>
      </trkpt>
      <trkpt lat="37.8409910" lon="-3.2195870">
        <ele>475.0</ele>
        <time>2020-07-16T06:09:21Z</time>
      </trkpt>
      <trkpt lat="37.8410020" lon="-3.2197970">
        <ele>476.0</ele>
        <time>2020-07-16T06:09:26Z</time>
      </trkpt>
      <trkpt lat="37.8408930" lon="-3.2200010">
        <ele>477.2</ele>
        <time>2020-07-16T06:09:32Z</time>
      </trkpt>
      <trkpt lat="37.8407630" lon="-3.2201470">
        <ele>478.2</ele>
        <time>2020-07-16T06:09:37Z</time>
      </trkpt>
      <trkpt lat="37.8407360" lon="-3.2202290">
        <ele>478.6</ele>
        <time>2020-07-16T06:09:39Z</time>
      </trkpt>
      <trkpt lat="37.8407590" lon="-3.2203500">
        <ele>479.0</ele>
        <time>2020-07-16T06:09:42Z</time>
      </trkpt>
      <trkpt lat="37.8407820" lon="-3.2203800">
        <ele>479.0</ele>
        <time>2020-07-16T06:09:43Z</time>
      </trkpt>
      <trkpt lat="37.8408370" lon="-3.2204210">
        <ele>479.4</ele>
        <time>2020-07-16T06:09:45Z</time>
      </trkpt>
      <trkpt lat="37.8408960" lon="-3.2204360">
        <ele>480.0</ele>
        <time>2020-07-16T06:09:47Z</time>
      </trkpt>
      <trkpt lat="37.8409580" lon="-3.2204380">
        <ele>480.4</ele>
        <time>2020-07-16T06:09:49Z</time>
      </trkpt>
      <trkpt lat="37.8409880" lon="-3.2204360">
        <ele>480.6</ele>
        <time>2020-07-16T06:09:50Z</time>
      </trkpt>
      <trkpt lat="37.8411150" lon="-3.2204310">
        <ele>481.6</ele>
        <time>2020-07-16T06:09:54Z</time>
      </trkpt>
      <trkpt lat="37.8411490" lon="-3.2204300">
        <ele>481.8</ele>
        <time>2020-07-16T06:09:55Z</time>
      </trkpt>
      <trkpt lat="37.8412780" lon="-3.2204620">
        <ele>482.8</ele>
        <time>2020-07-16T06:09:59Z</time>
      </trkpt>
      <trkpt lat="37.8413410" lon="-3.2204860">
        <ele>483.2</ele>
        <time>2020-07-16T06:10:01Z</time>
      </trkpt>
      <trkpt lat="37.8413920" lon="-3.2205290">
        <ele>483.8</ele>
        <time>2020-07-16T06:10:03Z</time>
      </trkpt>
      <trkpt lat="37.8414920" lon="-3.2206270">
        <ele>484.6</ele>
        <time>2020-07-16T06:10:07Z</time>
      </trkpt>
      <trkpt lat="37.8415120" lon="-3.2206540">
        <ele>484.8</ele>
        <time>2020-07-16T06:10:08Z</time>
      </trkpt>
      <trkpt lat="37.8416480" lon="-3.2208200">
        <ele>486.0</ele>
        <time>2020-07-16T06:10:14Z</time>
      </trkpt>
      <trkpt lat="37.8417120" lon="-3.2209100">
        <ele>486.6</ele>
        <time>2020-07-16T06:10:17Z</time>
      </trkpt>
      <trkpt lat="37.8417530" lon="-3.2209710">
        <ele>487.0</ele>
        <time>2020-07-16T06:10:19Z</time>
      </trkpt>
      <trkpt lat="37.8418500" lon="-3.2211270">
        <ele>488.0</ele>
        <time>2020-07-16T06:10:24Z</time>
      </trkpt>
      <trkpt lat="37.8418990" lon="-3.2212330">
        <ele>488.6</ele>
        <time>2020-07-16T06:10:27Z</time>
      </trkpt>
      <trkpt lat="37.8419510" lon="-3.2213390">
        <ele>489.2</ele>
        <time>2020-07-16T06:10:30Z</time>
      </trkpt>
      <trkpt lat="37.8420670" lon="-3.2215860">
        <ele>490.4</ele>
        <time>2020-07-16T06:10:37Z</time>
      </trkpt>
      <trkpt lat="37.8421500" lon="-3.2217590">
        <ele>491.6</ele>
        <time>2020-07-16T06:10:42Z</time>
      </trkpt>
      <trkpt lat="37.8422310" lon="-3.2219340">
        <ele>492.6</ele>
        <time>2020-07-16T06:10:47Z</time>
      </trkpt>
      <trkpt lat="37.8422450" lon="-3.2219670">
        <ele>492.8</ele>
        <time>2020-07-16T06:10:48Z</time>
      </trkpt>
      <trkpt lat="37.8423060" lon="-3.2221110">
        <ele>493.8</ele>
        <time>2020-07-16T06:10:52Z</time>
      </trkpt>
      <trkpt lat="37.8424010" lon="-3.2223190">
        <ele>495.0</ele>
        <time>2020-07-16T06:10:58Z</time>
      </trkpt>
      <trkpt lat="37.8424150" lon="-3.2223470">
        <ele>495.0</ele>
        <time>2020-07-16T06:10:59Z</time>
      </trkpt>
      <trkpt lat="37.8424840" lon="-3.2224970">
        <ele>496.0</ele>
        <time>2020-07-16T06:11:03Z</time>
      </trkpt>
      <trkpt lat="37.8425520" lon="-3.2226410">
        <ele>497.2</ele>
        <time>2020-07-16T06:11:07Z</time>
      </trkpt>
      <trkpt lat="37.8425700" lon="-3.2226740">
        <ele>497.4</ele>
        <time>2020-07-16T06:11:08Z</time>
      </trkpt>
      <trkpt lat="37.8426380" lon="-3.2228240">
        <ele>498.2</ele>
        <time>2020-07-16T06:11:12Z</time>
      </trkpt>
      <trkpt lat="37.8427170" lon="-3.2230020">
        <ele>499.0</ele>
        <time>2020-07-16T06:11:17Z</time>
      </trkpt>
      <trkpt lat="37.8427330" lon="-3.2230350">
        <ele>499.2</ele>
        <time>2020-07-16T06:11:18Z</time>
      </trkpt>
      <trkpt lat="37.8428140" lon="-3.2232090">
        <ele>500.4</ele>
        <time>2020-07-16T06:11:23Z</time>
      </trkpt>
      <trkpt lat="37.8428960" lon="-3.2233870">
        <ele>501.6</ele>
        <time>2020-07-16T06:11:28Z</time>
      </trkpt>
      <trkpt lat="37.8429820" lon="-3.2235690">
        <ele>502.6</ele>
        <time>2020-07-16T06:11:33Z</time>
      </trkpt>
      <trkpt lat="37.8430680" lon="-3.2237510">
        <ele>503.8</ele>
        <time>2020-07-16T06:11:38Z</time>
      </trkpt>
      <trkpt lat="37.8431410" lon="-3.2239000">
        <ele>504.6</ele>
        <time>2020-07-16T06:11:42Z</time>
      </trkpt>
      <trkpt lat="37.8431840" lon="-3.2239680">
        <ele>504.8</ele>
        <time>2020-07-16T06:11:44Z</time>
      </trkpt>
      <trkpt lat="37.8432850" lon="-3.2241350">
        <ele>506.0</ele>
        <time>2020-07-16T06:11:49Z</time>
      </trkpt>
      <trkpt lat="37.8433450" lon="-3.2242310">
        <ele>506.6</ele>
        <time>2020-07-16T06:11:52Z</time>
      </trkpt>
      <trkpt lat="37.8433900" lon="-3.2242960">
        <ele>507.0</ele>
        <time>2020-07-16T06:11:54Z</time>
      </trkpt>
      <trkpt lat="37.8435010" lon="-3.2244510">
        <ele>508.0</ele>
        <time>2020-07-16T06:11:59Z</time>
      </trkpt>
      <trkpt lat="37.8435670" lon="-3.2245470">
        <ele>508.8</ele>
        <time>2020-07-16T06:12:02Z</time>
      </trkpt>
      <trkpt lat="37.8436090" lon="-3.2246080">
        <ele>509.2</ele>
        <time>2020-07-16T06:12:04Z</time>
      </trkpt>
      <trkpt lat="37.8437150" lon="-3.2247640">
        <ele>510.4</ele>
        <time>2020-07-16T06:12:09Z</time>
      </trkpt>
      <trkpt lat="37.8437770" lon="-3.2248570">
        <ele>511.0</ele>
        <time>2020-07-16T06:12:12Z</time>
      </trkpt>
      <trkpt lat="37.8438190" lon="-3.2249170">
        <ele>511.4</ele>
        <time>2020-07-16T06:12:14Z</time>
      </trkpt>
      <trkpt lat="37.8439200" lon="-3.2250700">
        <ele>512.4</ele>
        <time>2020-07-16T06:12:19Z</time>
      </trkpt>
      <trkpt lat="37.8439810" lon="-3.2251600">
        <ele>513.2</ele>
        <time>2020-07-16T06:12:22Z</time>
      </trkpt>
      <trkpt lat="37.8440270" lon="-3.2252230">
        <ele>513.4</ele>
        <time>2020-07-16T06:12:24Z</time>
      </trkpt>
      <trkpt lat="37.8441490" lon="-3.2254030">
        <ele>514.8</ele>
        <time>2020-07-16T06:12:30Z</time>
      </trkpt>
      <trkpt lat="37.8441690" lon="-3.2254340">
        <ele>515.0</ele>
        <time>2020-07-16T06:12:31Z</time>
      </trkpt>
      <trkpt lat="37.8442540" lon="-3.2255570">
        <ele>515.8</ele>
        <time>2020-07-16T06:12:35Z</time>
      </trkpt>
      <trkpt lat="37.8443650" lon="-3.2257550">
        <ele>517.0</ele>
        <time>2020-07-16T06:12:41Z</time>
      </trkpt>
      <trkpt lat="37.8444390" lon="-3.2259250">
        <ele>518.0</ele>
        <time>2020-07-16T06:12:46Z</time>
      </trkpt>
      <trkpt lat="37.8445040" lon="-3.2261150">
        <ele>519.2</ele>
        <time>2020-07-16T06:12:51Z</time>
      </trkpt>
      <trkpt lat="37.8445960" lon="-3.2263410">
        <ele>520.4</ele>
        <time>2020-07-16T06:12:57Z</time>
      </trkpt>
      <trkpt lat="37.8446660" lon="-3.2265210">
        <ele>521.4</ele>
        <time>2020-07-16T06:13:02Z</time>
      </trkpt>
      <trkpt lat="37.8446810" lon="-3.2265560">
        <ele>521.6</ele>
        <time>2020-07-16T06:13:03Z</time>
      </trkpt>
      <trkpt lat="37.8447430" lon="-3.2267160">
        <ele>522.6</ele>
        <time>2020-07-16T06:13:07Z</time>
      </trkpt>
      <trkpt lat="37.8447860" lon="-3.2268250">
        <ele>523.0</ele>
        <time>2020-07-16T06:13:10Z</time>
      </trkpt>
      <trkpt lat="37.8448340" lon="-3.2269350">
        <ele>523.6</ele>
        <time>2020-07-16T06:13:13Z</time>
      </trkpt>
      <trkpt lat="37.8449040" lon="-3.2270890">
        <ele>524.6</ele>
        <time>2020-07-16T06:13:17Z</time>
      </trkpt>
      <trkpt lat="37.8449800" lon="-3.2272350">
        <ele>525.6</ele>
        <time>2020-07-16T06:13:21Z</time>
      </trkpt>
      <trkpt lat="37.8450180" lon="-3.2273040">
        <ele>525.8</ele>
        <time>2020-07-16T06:13:23Z</time>
      </trkpt>
      <trkpt lat="37.8451890" lon="-3.2275830">
        <ele>526.8</ele>
        <time>2020-07-16T06:13:30Z</time>
      </trkpt>
      <trkpt lat="37.8452170" lon="-3.2276300">
        <ele>526.8</ele>
        <time>2020-07-16T06:13:31Z</time>
      </trkpt>
      <trkpt lat="37.8452420" lon="-3.2276840">
        <ele>526.8</ele>
        <time>2020-07-16T06:13:32Z</time>
      </trkpt>
      <trkpt lat="37.8453150" lon="-3.2279430">
        <ele>526.6</ele>
        <time>2020-07-16T06:13:36Z</time>
      </trkpt>
      <trkpt lat="37.8453320" lon="-3.2280960">
        <ele>526.4</ele>
        <time>2020-07-16T06:13:38Z</time>
      </trkpt>
      <trkpt lat="37.8453590" lon="-3.2283700">
        <ele>526.0</ele>
        <time>2020-07-16T06:13:41Z</time>
      </trkpt>
      <trkpt lat="37.8453600" lon="-3.2285600">
        <ele>525.6</ele>
        <time>2020-07-16T06:13:43Z</time>
      </trkpt>
      <trkpt lat="37.8452900" lon="-3.2287640">
        <ele>525.2</ele>
        <time>2020-07-16T06:13:45Z</time>
      </trkpt>
      <trkpt lat="37.8451380" lon="-3.2289040">
        <ele>524.2</ele>
        <time>2020-07-16T06:13:47Z</time>
      </trkpt>
      <trkpt lat="37.8449800" lon="-3.2290370">
        <ele>523.0</ele>
        <time>2020-07-16T06:13:49Z</time>
      </trkpt>
      <trkpt lat="37.8448470" lon="-3.2292140">
        <ele>522.2</ele>
        <time>2020-07-16T06:13:51Z</time>
      </trkpt>
      <trkpt lat="37.8448070" lon="-3.2293240">
        <ele>521.8</ele>
        <time>2020-07-16T06:13:52Z</time>
      </trkpt>
      <trkpt lat="37.8447730" lon="-3.2295880">
        <ele>521.0</ele>
        <time>2020-07-16T06:13:54Z</time>
      </trkpt>
      <trkpt lat="37.8447810" lon="-3.2297250">
        <ele>520.4</ele>
        <time>2020-07-16T06:13:55Z</time>
      </trkpt>
      <trkpt lat="37.8448170" lon="-3.2299940">
        <ele>519.2</ele>
        <time>2020-07-16T06:13:57Z</time>
      </trkpt>
      <trkpt lat="37.8448790" lon="-3.2302540">
        <ele>518.2</ele>
        <time>2020-07-16T06:13:59Z</time>
      </trkpt>
      <trkpt lat="37.8449190" lon="-3.2303550">
        <ele>517.8</ele>
        <time>2020-07-16T06:14:00Z</time>
      </trkpt>
      <trkpt lat="37.8449910" lon="-3.2305070">
        <ele>517.4</ele>
        <time>2020-07-16T06:14:01Z</time>
      </trkpt>
      <trkpt lat="37.8451190" lon="-3.2307320">
        <ele>516.4</ele>
        <time>2020-07-16T06:14:03Z</time>
      </trkpt>
      <trkpt lat="37.8452510" lon="-3.2309600">
        <ele>515.6</ele>
        <time>2020-07-16T06:14:05Z</time>
      </trkpt>
      <trkpt lat="37.8453170" lon="-3.2310690">
        <ele>515.2</ele>
        <time>2020-07-16T06:14:06Z</time>
      </trkpt>
      <trkpt lat="37.8456370" lon="-3.2316210">
        <ele>514.0</ele>
        <time>2020-07-16T06:14:11Z</time>
      </trkpt>
      <trkpt lat="37.8458250" lon="-3.2319330">
        <ele>513.4</ele>
        <time>2020-07-16T06:14:14Z</time>
      </trkpt>
      <trkpt lat="37.8458880" lon="-3.2320260">
        <ele>513.0</ele>
        <time>2020-07-16T06:14:15Z</time>
      </trkpt>
      <trkpt lat="37.8461120" lon="-3.2322840">
        <ele>511.6</ele>
        <time>2020-07-16T06:14:18Z</time>
      </trkpt>
      <trkpt lat="37.8462730" lon="-3.2324420">
        <ele>510.6</ele>
        <time>2020-07-16T06:14:20Z</time>
      </trkpt>
      <trkpt lat="37.8463380" lon="-3.2325020">
        <ele>510.4</ele>
        <time>2020-07-16T06:14:21Z</time>
      </trkpt>
      <trkpt lat="37.8464220" lon="-3.2326450">
        <ele>509.8</ele>
        <time>2020-07-16T06:14:23Z</time>
      </trkpt>
      <trkpt lat="37.8463980" lon="-3.2328530">
        <ele>509.4</ele>
        <time>2020-07-16T06:14:25Z</time>
      </trkpt>
      <trkpt lat="37.8462560" lon="-3.2331170">
        <ele>508.6</ele>
        <time>2020-07-16T06:14:28Z</time>
      </trkpt>
      <trkpt lat="37.8461970" lon="-3.2332220">
        <ele>508.4</ele>
        <time>2020-07-16T06:14:29Z</time>
      </trkpt>
      <trkpt lat="37.8460230" lon="-3.2335150">
        <ele>507.0</ele>
        <time>2020-07-16T06:14:32Z</time>
      </trkpt>
      <trkpt lat="37.8458410" lon="-3.2338170">
        <ele>506.0</ele>
        <time>2020-07-16T06:14:35Z</time>
      </trkpt>
      <trkpt lat="37.8455930" lon="-3.2342340">
        <ele>504.6</ele>
        <time>2020-07-16T06:14:39Z</time>
      </trkpt>
      <trkpt lat="37.8454080" lon="-3.2345330">
        <ele>503.0</ele>
        <time>2020-07-16T06:14:42Z</time>
      </trkpt>
      <trkpt lat="37.8452990" lon="-3.2347310">
        <ele>502.6</ele>
        <time>2020-07-16T06:14:44Z</time>
      </trkpt>
      <trkpt lat="37.8451400" lon="-3.2350000">
        <ele>502.0</ele>
        <time>2020-07-16T06:14:47Z</time>
      </trkpt>
      <trkpt lat="37.8449910" lon="-3.2352600">
        <ele>501.6</ele>
        <time>2020-07-16T06:14:50Z</time>
      </trkpt>
      <trkpt lat="37.8448930" lon="-3.2354250">
        <ele>501.6</ele>
        <time>2020-07-16T06:14:52Z</time>
      </trkpt>
      <trkpt lat="37.8446710" lon="-3.2358210">
        <ele>501.6</ele>
        <time>2020-07-16T06:14:57Z</time>
      </trkpt>
      <trkpt lat="37.8445490" lon="-3.2360320">
        <ele>501.8</ele>
        <time>2020-07-16T06:15:00Z</time>
      </trkpt>
      <trkpt lat="37.8444420" lon="-3.2362160">
        <ele>502.4</ele>
        <time>2020-07-16T06:15:03Z</time>
      </trkpt>
      <trkpt lat="37.8444070" lon="-3.2362760">
        <ele>502.4</ele>
        <time>2020-07-16T06:15:04Z</time>
      </trkpt>
      <trkpt lat="37.8443060" lon="-3.2364490">
        <ele>503.2</ele>
        <time>2020-07-16T06:15:07Z</time>
      </trkpt>
      <trkpt lat="37.8442120" lon="-3.2366070">
        <ele>504.0</ele>
        <time>2020-07-16T06:15:10Z</time>
      </trkpt>
      <trkpt lat="37.8441830" lon="-3.2366570">
        <ele>504.0</ele>
        <time>2020-07-16T06:15:11Z</time>
      </trkpt>
      <trkpt lat="37.8441550" lon="-3.2367000">
        <ele>504.4</ele>
        <time>2020-07-16T06:15:12Z</time>
      </trkpt>
      <trkpt lat="37.8440200" lon="-3.2369200">
        <ele>505.4</ele>
        <time>2020-07-16T06:15:17Z</time>
      </trkpt>
      <trkpt lat="37.8439950" lon="-3.2369610">
        <ele>505.6</ele>
        <time>2020-07-16T06:15:18Z</time>
      </trkpt>
      <trkpt lat="37.8439170" lon="-3.2370960">
        <ele>506.2</ele>
        <time>2020-07-16T06:15:21Z</time>
      </trkpt>
      <trkpt lat="37.8438950" lon="-3.2371380">
        <ele>506.6</ele>
        <time>2020-07-16T06:15:22Z</time>
      </trkpt>
      <trkpt lat="37.8438160" lon="-3.2372710">
        <ele>507.6</ele>
        <time>2020-07-16T06:15:25Z</time>
      </trkpt>
      <trkpt lat="37.8437890" lon="-3.2373140">
        <ele>507.8</ele>
        <time>2020-07-16T06:15:26Z</time>
      </trkpt>
      <trkpt lat="37.8437410" lon="-3.2373990">
        <ele>508.2</ele>
        <time>2020-07-16T06:15:28Z</time>
      </trkpt>
      <trkpt lat="37.8437110" lon="-3.2374510">
        <ele>508.4</ele>
        <time>2020-07-16T06:15:29Z</time>
      </trkpt>
      <trkpt lat="37.8436570" lon="-3.2375390">
        <ele>509.0</ele>
        <time>2020-07-16T06:15:31Z</time>
      </trkpt>
      <trkpt lat="37.8435750" lon="-3.2376800">
        <ele>509.6</ele>
        <time>2020-07-16T06:15:34Z</time>
      </trkpt>
      <trkpt lat="37.8435210" lon="-3.2377760">
        <ele>510.0</ele>
        <time>2020-07-16T06:15:36Z</time>
      </trkpt>
      <trkpt lat="37.8434950" lon="-3.2378230">
        <ele>510.2</ele>
        <time>2020-07-16T06:15:37Z</time>
      </trkpt>
      <trkpt lat="37.8433400" lon="-3.2380820">
        <ele>511.2</ele>
        <time>2020-07-16T06:15:43Z</time>
      </trkpt>
      <trkpt lat="37.8432290" lon="-3.2382410">
        <ele>512.2</ele>
        <time>2020-07-16T06:15:47Z</time>
      </trkpt>
      <trkpt lat="37.8432040" lon="-3.2382790">
        <ele>512.4</ele>
        <time>2020-07-16T06:15:48Z</time>
      </trkpt>
      <trkpt lat="37.8430630" lon="-3.2384670">
        <ele>513.6</ele>
        <time>2020-07-16T06:15:53Z</time>
      </trkpt>
      <trkpt lat="37.8429440" lon="-3.2386070">
        <ele>514.2</ele>
        <time>2020-07-16T06:15:57Z</time>
      </trkpt>
      <trkpt lat="37.8428600" lon="-3.2387090">
        <ele>514.6</ele>
        <time>2020-07-16T06:16:00Z</time>
      </trkpt>
      <trkpt lat="37.8427260" lon="-3.2388660">
        <ele>515.6</ele>
        <time>2020-07-16T06:16:05Z</time>
      </trkpt>
      <trkpt lat="37.8426710" lon="-3.2389250">
        <ele>516.0</ele>
        <time>2020-07-16T06:16:07Z</time>
      </trkpt>
      <trkpt lat="37.8425940" lon="-3.2390200">
        <ele>516.8</ele>
        <time>2020-07-16T06:16:10Z</time>
      </trkpt>
      <trkpt lat="37.8424740" lon="-3.2391540">
        <ele>517.6</ele>
        <time>2020-07-16T06:16:14Z</time>
      </trkpt>
      <trkpt lat="37.8424190" lon="-3.2392090">
        <ele>518.0</ele>
        <time>2020-07-16T06:16:16Z</time>
      </trkpt>
      <trkpt lat="37.8422720" lon="-3.2393370">
        <ele>519.2</ele>
        <time>2020-07-16T06:16:21Z</time>
      </trkpt>
      <trkpt lat="37.8422100" lon="-3.2393710">
        <ele>519.4</ele>
        <time>2020-07-16T06:16:23Z</time>
      </trkpt>
      <trkpt lat="37.8420790" lon="-3.2394320">
        <ele>520.2</ele>
        <time>2020-07-16T06:16:27Z</time>
      </trkpt>
      <trkpt lat="37.8419460" lon="-3.2394790">
        <ele>521.2</ele>
        <time>2020-07-16T06:16:31Z</time>
      </trkpt>
      <trkpt lat="37.8418820" lon="-3.2394990">
        <ele>521.6</ele>
        <time>2020-07-16T06:16:33Z</time>
      </trkpt>
      <trkpt lat="37.8416790" lon="-3.2395520">
        <ele>522.4</ele>
        <time>2020-07-16T06:16:39Z</time>
      </trkpt>
      <trkpt lat="37.8415400" lon="-3.2395830">
        <ele>523.0</ele>
        <time>2020-07-16T06:16:43Z</time>
      </trkpt>
      <trkpt lat="37.8414020" lon="-3.2396150">
        <ele>523.6</ele>
        <time>2020-07-16T06:16:47Z</time>
      </trkpt>
      <trkpt lat="37.8411990" lon="-3.2396570">
        <ele>524.8</ele>
        <time>2020-07-16T06:16:53Z</time>
      </trkpt>
      <trkpt lat="37.8411630" lon="-3.2396610">
        <ele>525.0</ele>
        <time>2020-07-16T06:16:54Z</time>
      </trkpt>
      <trkpt lat="37.8410010" lon="-3.2396850">
        <ele>526.0</ele>
        <time>2020-07-16T06:16:59Z</time>
      </trkpt>
      <trkpt lat="37.8408700" lon="-3.2397110">
        <ele>526.6</ele>
        <time>2020-07-16T06:17:03Z</time>
      </trkpt>
      <trkpt lat="37.8408030" lon="-3.2397270">
        <ele>527.0</ele>
        <time>2020-07-16T06:17:05Z</time>
      </trkpt>
      <trkpt lat="37.8406400" lon="-3.2397660">
        <ele>528.2</ele>
        <time>2020-07-16T06:17:10Z</time>
      </trkpt>
      <trkpt lat="37.8405430" lon="-3.2398040">
        <ele>528.8</ele>
        <time>2020-07-16T06:17:13Z</time>
      </trkpt>
      <trkpt lat="37.8404730" lon="-3.2398350">
        <ele>529.4</ele>
        <time>2020-07-16T06:17:15Z</time>
      </trkpt>
      <trkpt lat="37.8403130" lon="-3.2399250">
        <ele>530.4</ele>
        <time>2020-07-16T06:17:20Z</time>
      </trkpt>
      <trkpt lat="37.8402810" lon="-3.2399410">
        <ele>530.4</ele>
        <time>2020-07-16T06:17:21Z</time>
      </trkpt>
      <trkpt lat="37.8401230" lon="-3.2400350">
        <ele>531.4</ele>
        <time>2020-07-16T06:17:26Z</time>
      </trkpt>
      <trkpt lat="37.8399300" lon="-3.2401390">
        <ele>532.4</ele>
        <time>2020-07-16T06:17:32Z</time>
      </trkpt>
      <trkpt lat="37.8399000" lon="-3.2401570">
        <ele>532.6</ele>
        <time>2020-07-16T06:17:33Z</time>
      </trkpt>
      <trkpt lat="37.8397450" lon="-3.2402480">
        <ele>533.8</ele>
        <time>2020-07-16T06:17:38Z</time>
      </trkpt>
      <trkpt lat="37.8396190" lon="-3.2403250">
        <ele>534.8</ele>
        <time>2020-07-16T06:17:42Z</time>
      </trkpt>
      <trkpt lat="37.8395890" lon="-3.2403450">
        <ele>535.0</ele>
        <time>2020-07-16T06:17:43Z</time>
      </trkpt>
      <trkpt lat="37.8393880" lon="-3.2404650">
        <ele>536.2</ele>
        <time>2020-07-16T06:17:49Z</time>
      </trkpt>
      <trkpt lat="37.8392780" lon="-3.2405250">
        <ele>536.6</ele>
        <time>2020-07-16T06:17:52Z</time>
      </trkpt>
      <trkpt lat="37.8390040" lon="-3.2406190">
        <ele>536.8</ele>
        <time>2020-07-16T06:17:58Z</time>
      </trkpt>
      <trkpt lat="37.8386690" lon="-3.2407190">
        <ele>536.6</ele>
        <time>2020-07-16T06:18:04Z</time>
      </trkpt>
      <trkpt lat="37.8385480" lon="-3.2407640">
        <ele>536.2</ele>
        <time>2020-07-16T06:18:06Z</time>
      </trkpt>
      <trkpt lat="37.8383690" lon="-3.2408480">
        <ele>536.0</ele>
        <time>2020-07-16T06:18:09Z</time>
      </trkpt>
      <trkpt lat="37.8381250" lon="-3.2409820">
        <ele>535.6</ele>
        <time>2020-07-16T06:18:13Z</time>
      </trkpt>
      <trkpt lat="37.8380580" lon="-3.2410210">
        <ele>535.6</ele>
        <time>2020-07-16T06:18:14Z</time>
      </trkpt>
      <trkpt lat="37.8378650" lon="-3.2411320">
        <ele>535.0</ele>
        <time>2020-07-16T06:18:17Z</time>
      </trkpt>
      <trkpt lat="37.8377350" lon="-3.2412080">
        <ele>534.6</ele>
        <time>2020-07-16T06:18:19Z</time>
      </trkpt>
      <trkpt lat="37.8374710" lon="-3.2413510">
        <ele>534.0</ele>
        <time>2020-07-16T06:18:23Z</time>
      </trkpt>
      <trkpt lat="37.8374010" lon="-3.2413890">
        <ele>534.0</ele>
        <time>2020-07-16T06:18:24Z</time>
      </trkpt>
      <trkpt lat="37.8370710" lon="-3.2415670">
        <ele>533.6</ele>
        <time>2020-07-16T06:18:29Z</time>
      </trkpt>
      <trkpt lat="37.8368480" lon="-3.2416900">
        <ele>533.6</ele>
        <time>2020-07-16T06:18:33Z</time>
      </trkpt>
      <trkpt lat="37.8366210" lon="-3.2418130">
        <ele>534.6</ele>
        <time>2020-07-16T06:18:38Z</time>
      </trkpt>
      <trkpt lat="37.8365800" lon="-3.2418360">
        <ele>534.8</ele>
        <time>2020-07-16T06:18:39Z</time>
      </trkpt>
      <trkpt lat="37.8365450" lon="-3.2418520">
        <ele>535.2</ele>
        <time>2020-07-16T06:18:40Z</time>
      </trkpt>
      <trkpt lat="37.8364440" lon="-3.2419000">
        <ele>536.2</ele>
        <time>2020-07-16T06:18:43Z</time>
      </trkpt>
      <trkpt lat="37.8363860" lon="-3.2419350">
        <ele>537.0</ele>
        <time>2020-07-16T06:18:45Z</time>
      </trkpt>
      <trkpt lat="37.8363310" lon="-3.2419620">
        <ele>537.6</ele>
        <time>2020-07-16T06:18:47Z</time>
      </trkpt>
      <trkpt lat="37.8362510" lon="-3.2420070">
        <ele>538.4</ele>
        <time>2020-07-16T06:18:50Z</time>
      </trkpt>
      <trkpt lat="37.8362250" lon="-3.2420230">
        <ele>538.8</ele>
        <time>2020-07-16T06:18:51Z</time>
      </trkpt>
      <trkpt lat="37.8361480" lon="-3.2420630">
        <ele>539.8</ele>
        <time>2020-07-16T06:18:54Z</time>
      </trkpt>
      <trkpt lat="37.8361230" lon="-3.2420790">
        <ele>540.0</ele>
        <time>2020-07-16T06:18:55Z</time>
      </trkpt>
      <trkpt lat="37.8360500" lon="-3.2421120">
        <ele>541.0</ele>
        <time>2020-07-16T06:18:58Z</time>
      </trkpt>
      <trkpt lat="37.8360250" lon="-3.2421270">
        <ele>541.4</ele>
        <time>2020-07-16T06:18:59Z</time>
      </trkpt>
      <trkpt lat="37.8359510" lon="-3.2421640">
        <ele>542.4</ele>
        <time>2020-07-16T06:19:02Z</time>
      </trkpt>
      <trkpt lat="37.8359280" lon="-3.2421780">
        <ele>542.8</ele>
        <time>2020-07-16T06:19:03Z</time>
      </trkpt>
      <trkpt lat="37.8358790" lon="-3.2422070">
        <ele>543.4</ele>
        <time>2020-07-16T06:19:05Z</time>
      </trkpt>
      <trkpt lat="37.8358060" lon="-3.2422460">
        <ele>544.6</ele>
        <time>2020-07-16T06:19:08Z</time>
      </trkpt>
      <trkpt lat="37.8357260" lon="-3.2422820">
        <ele>545.6</ele>
        <time>2020-07-16T06:19:11Z</time>
      </trkpt>
      <trkpt lat="37.8356500" lon="-3.2423230">
        <ele>546.8</ele>
        <time>2020-07-16T06:19:14Z</time>
      </trkpt>
      <trkpt lat="37.8355560" lon="-3.2423910">
        <ele>547.8</ele>
        <time>2020-07-16T06:19:18Z</time>
      </trkpt>
      <trkpt lat="37.8354810" lon="-3.2424610">
        <ele>549.0</ele>
        <time>2020-07-16T06:19:21Z</time>
      </trkpt>
      <trkpt lat="37.8354060" lon="-3.2425890">
        <ele>549.8</ele>
        <time>2020-07-16T06:19:25Z</time>
      </trkpt>
      <trkpt lat="37.8353930" lon="-3.2426260">
        <ele>550.0</ele>
        <time>2020-07-16T06:19:26Z</time>
      </trkpt>
      <trkpt lat="37.8353400" lon="-3.2428270">
        <ele>551.2</ele>
        <time>2020-07-16T06:19:31Z</time>
      </trkpt>
      <trkpt lat="37.8353350" lon="-3.2429190">
        <ele>551.4</ele>
        <time>2020-07-16T06:19:33Z</time>
      </trkpt>
      <trkpt lat="37.8353450" lon="-3.2432820">
        <ele>551.2</ele>
        <time>2020-07-16T06:19:40Z</time>
      </trkpt>
      <trkpt lat="37.8353580" lon="-3.2437620">
        <ele>551.6</ele>
        <time>2020-07-16T06:19:47Z</time>
      </trkpt>
      <trkpt lat="37.8353800" lon="-3.2441740">
        <ele>550.4</ele>
        <time>2020-07-16T06:19:51Z</time>
      </trkpt>
      <trkpt lat="37.8353900" lon="-3.2442870">
        <ele>549.8</ele>
        <time>2020-07-16T06:19:52Z</time>
      </trkpt>
      <trkpt lat="37.8354160" lon="-3.2445600">
        <ele>548.4</ele>
        <time>2020-07-16T06:19:54Z</time>
      </trkpt>
      <trkpt lat="37.8354470" lon="-3.2448520">
        <ele>546.4</ele>
        <time>2020-07-16T06:19:56Z</time>
      </trkpt>
      <trkpt lat="37.8354860" lon="-3.2451470">
        <ele>544.2</ele>
        <time>2020-07-16T06:19:58Z</time>
      </trkpt>
      <trkpt lat="37.8355100" lon="-3.2453240">
        <ele>543.2</ele>
        <time>2020-07-16T06:19:59Z</time>
      </trkpt>
      <trkpt lat="37.8355300" lon="-3.2454850">
        <ele>542.0</ele>
        <time>2020-07-16T06:20:00Z</time>
      </trkpt>
      <trkpt lat="37.8355450" lon="-3.2456570">
        <ele>541.0</ele>
        <time>2020-07-16T06:20:01Z</time>
      </trkpt>
      <trkpt lat="37.8355630" lon="-3.2459870">
        <ele>539.0</ele>
        <time>2020-07-16T06:20:03Z</time>
      </trkpt>
      <trkpt lat="37.8355690" lon="-3.2461560">
        <ele>537.8</ele>
        <time>2020-07-16T06:20:04Z</time>
      </trkpt>
      <trkpt lat="37.8355730" lon="-3.2463270">
        <ele>536.6</ele>
        <time>2020-07-16T06:20:05Z</time>
      </trkpt>
      <trkpt lat="37.8355720" lon="-3.2464950">
        <ele>535.4</ele>
        <time>2020-07-16T06:20:06Z</time>
      </trkpt>
      <trkpt lat="37.8355730" lon="-3.2466540">
        <ele>534.4</ele>
        <time>2020-07-16T06:20:07Z</time>
      </trkpt>
      <trkpt lat="37.8355700" lon="-3.2469550">
        <ele>533.0</ele>
        <time>2020-07-16T06:20:09Z</time>
      </trkpt>
      <trkpt lat="37.8355660" lon="-3.2473660">
        <ele>532.2</ele>
        <time>2020-07-16T06:20:12Z</time>
      </trkpt>
      <trkpt lat="37.8355560" lon="-3.2476220">
        <ele>532.4</ele>
        <time>2020-07-16T06:20:14Z</time>
      </trkpt>
      <trkpt lat="37.8355080" lon="-3.2480990">
        <ele>532.8</ele>
        <time>2020-07-16T06:20:18Z</time>
      </trkpt>
      <trkpt lat="37.8353350" lon="-3.2487760">
        <ele>532.8</ele>
        <time>2020-07-16T06:20:24Z</time>
      </trkpt>
      <trkpt lat="37.8351740" lon="-3.2492100">
        <ele>531.8</ele>
        <time>2020-07-16T06:20:28Z</time>
      </trkpt>
      <trkpt lat="37.8350530" lon="-3.2495940">
        <ele>530.4</ele>
        <time>2020-07-16T06:20:31Z</time>
      </trkpt>
      <trkpt lat="37.8350150" lon="-3.2498590">
        <ele>529.2</ele>
        <time>2020-07-16T06:20:33Z</time>
      </trkpt>
      <trkpt lat="37.8349990" lon="-3.2501590">
        <ele>527.8</ele>
        <time>2020-07-16T06:20:35Z</time>
      </trkpt>
      <trkpt lat="37.8349970" lon="-3.2504670">
        <ele>526.0</ele>
        <time>2020-07-16T06:20:37Z</time>
      </trkpt>
      <trkpt lat="37.8350130" lon="-3.2506110">
        <ele>525.0</ele>
        <time>2020-07-16T06:20:38Z</time>
      </trkpt>
      <trkpt lat="37.8350480" lon="-3.2507620">
        <ele>524.2</ele>
        <time>2020-07-16T06:20:39Z</time>
      </trkpt>
      <trkpt lat="37.8351150" lon="-3.2510330">
        <ele>522.6</ele>
        <time>2020-07-16T06:20:41Z</time>
      </trkpt>
      <trkpt lat="37.8351980" lon="-3.2514180">
        <ele>522.0</ele>
        <time>2020-07-16T06:20:44Z</time>
      </trkpt>
      <trkpt lat="37.8352660" lon="-3.2520740">
        <ele>522.0</ele>
        <time>2020-07-16T06:20:49Z</time>
      </trkpt>
      <trkpt lat="37.8352910" lon="-3.2523550">
        <ele>521.2</ele>
        <time>2020-07-16T06:20:51Z</time>
      </trkpt>
      <trkpt lat="37.8353440" lon="-3.2527990">
        <ele>519.6</ele>
        <time>2020-07-16T06:20:54Z</time>
      </trkpt>
      <trkpt lat="37.8353750" lon="-3.2529470">
        <ele>518.8</ele>
        <time>2020-07-16T06:20:55Z</time>
      </trkpt>
      <trkpt lat="37.8354120" lon="-3.2530930">
        <ele>517.8</ele>
        <time>2020-07-16T06:20:56Z</time>
      </trkpt>
      <trkpt lat="37.8354650" lon="-3.2532240">
        <ele>517.0</ele>
        <time>2020-07-16T06:20:57Z</time>
      </trkpt>
      <trkpt lat="37.8355170" lon="-3.2533330">
        <ele>516.0</ele>
        <time>2020-07-16T06:20:58Z</time>
      </trkpt>
      <trkpt lat="37.8355780" lon="-3.2534700">
        <ele>515.4</ele>
        <time>2020-07-16T06:20:59Z</time>
      </trkpt>
      <trkpt lat="37.8356290" lon="-3.2535830">
        <ele>514.8</ele>
        <time>2020-07-16T06:21:00Z</time>
      </trkpt>
      <trkpt lat="37.8357320" lon="-3.2538050">
        <ele>514.4</ele>
        <time>2020-07-16T06:21:02Z</time>
      </trkpt>
      <trkpt lat="37.8358240" lon="-3.2539980">
        <ele>514.4</ele>
        <time>2020-07-16T06:21:04Z</time>
      </trkpt>
      <trkpt lat="37.8358670" lon="-3.2540930">
        <ele>514.6</ele>
        <time>2020-07-16T06:21:05Z</time>
      </trkpt>
      <trkpt lat="37.8359410" lon="-3.2542630">
        <ele>515.0</ele>
        <time>2020-07-16T06:21:07Z</time>
      </trkpt>
      <trkpt lat="37.8360110" lon="-3.2544080">
        <ele>516.0</ele>
        <time>2020-07-16T06:21:09Z</time>
      </trkpt>
      <trkpt lat="37.8360820" lon="-3.2545280">
        <ele>516.8</ele>
        <time>2020-07-16T06:21:11Z</time>
      </trkpt>
      <trkpt lat="37.8361150" lon="-3.2545830">
        <ele>517.2</ele>
        <time>2020-07-16T06:21:12Z</time>
      </trkpt>
      <trkpt lat="37.8361470" lon="-3.2546320">
        <ele>517.6</ele>
        <time>2020-07-16T06:21:13Z</time>
      </trkpt>
      <trkpt lat="37.8361830" lon="-3.2546860">
        <ele>518.0</ele>
        <time>2020-07-16T06:21:14Z</time>
      </trkpt>
      <trkpt lat="37.8362120" lon="-3.2547300">
        <ele>518.4</ele>
        <time>2020-07-16T06:21:15Z</time>
      </trkpt>
      <trkpt lat="37.8363050" lon="-3.2548490">
        <ele>519.8</ele>
        <time>2020-07-16T06:21:18Z</time>
      </trkpt>
      <trkpt lat="37.8363950" lon="-3.2549780">
        <ele>520.8</ele>
        <time>2020-07-16T06:21:21Z</time>
      </trkpt>
      <trkpt lat="37.8364460" lon="-3.2550570">
        <ele>521.6</ele>
        <time>2020-07-16T06:21:23Z</time>
      </trkpt>
      <trkpt lat="37.8364740" lon="-3.2550990">
        <ele>522.0</ele>
        <time>2020-07-16T06:21:24Z</time>
      </trkpt>
      <trkpt lat="37.8365460" lon="-3.2552230">
        <ele>522.8</ele>
        <time>2020-07-16T06:21:27Z</time>
      </trkpt>
      <trkpt lat="37.8365650" lon="-3.2552610">
        <ele>523.2</ele>
        <time>2020-07-16T06:21:28Z</time>
      </trkpt>
      <trkpt lat="37.8366210" lon="-3.2553640">
        <ele>523.6</ele>
        <time>2020-07-16T06:21:30Z</time>
      </trkpt>
      <trkpt lat="37.8366980" lon="-3.2555110">
        <ele>524.2</ele>
        <time>2020-07-16T06:21:33Z</time>
      </trkpt>
      <trkpt lat="37.8369300" lon="-3.2559810">
        <ele>525.0</ele>
        <time>2020-07-16T06:21:42Z</time>
      </trkpt>
      <trkpt lat="37.8369780" lon="-3.2560820">
        <ele>525.2</ele>
        <time>2020-07-16T06:21:44Z</time>
      </trkpt>
      <trkpt lat="37.8371210" lon="-3.2563810">
        <ele>526.2</ele>
        <time>2020-07-16T06:21:50Z</time>
      </trkpt>
      <trkpt lat="37.8372220" lon="-3.2565880">
        <ele>526.6</ele>
        <time>2020-07-16T06:21:54Z</time>
      </trkpt>
      <trkpt lat="37.8373650" lon="-3.2568830">
        <ele>527.4</ele>
        <time>2020-07-16T06:22:00Z</time>
      </trkpt>
      <trkpt lat="37.8374380" lon="-3.2570250">
        <ele>528.0</ele>
        <time>2020-07-16T06:22:03Z</time>
      </trkpt>
      <trkpt lat="37.8375520" lon="-3.2572670">
        <ele>528.6</ele>
        <time>2020-07-16T06:22:08Z</time>
      </trkpt>
      <trkpt lat="37.8376390" lon="-3.2574810">
        <ele>529.6</ele>
        <time>2020-07-16T06:22:12Z</time>
      </trkpt>
      <trkpt lat="37.8376560" lon="-3.2575380">
        <ele>529.8</ele>
        <time>2020-07-16T06:22:13Z</time>
      </trkpt>
      <trkpt lat="37.8377150" lon="-3.2578810">
        <ele>530.0</ele>
        <time>2020-07-16T06:22:18Z</time>
      </trkpt>
      <trkpt lat="37.8377590" lon="-3.2582690">
        <ele>529.6</ele>
        <time>2020-07-16T06:22:23Z</time>
      </trkpt>
      <trkpt lat="37.8377860" lon="-3.2585200">
        <ele>529.6</ele>
        <time>2020-07-16T06:22:26Z</time>
      </trkpt>
      <trkpt lat="37.8378090" lon="-3.2587690">
        <ele>529.4</ele>
        <time>2020-07-16T06:22:29Z</time>
      </trkpt>
      <trkpt lat="37.8378270" lon="-3.2589350">
        <ele>529.0</ele>
        <time>2020-07-16T06:22:31Z</time>
      </trkpt>
      <trkpt lat="37.8378940" lon="-3.2592600">
        <ele>528.8</ele>
        <time>2020-07-16T06:22:35Z</time>
      </trkpt>
      <trkpt lat="37.8379260" lon="-3.2593380">
        <ele>528.8</ele>
        <time>2020-07-16T06:22:36Z</time>
      </trkpt>
      <trkpt lat="37.8379630" lon="-3.2594130">
        <ele>528.8</ele>
        <time>2020-07-16T06:22:37Z</time>
      </trkpt>
      <trkpt lat="37.8380710" lon="-3.2595400">
        <ele>528.6</ele>
        <time>2020-07-16T06:22:39Z</time>
      </trkpt>
      <trkpt lat="37.8382770" lon="-3.2596500">
        <ele>528.2</ele>
        <time>2020-07-16T06:22:42Z</time>
      </trkpt>
      <trkpt lat="37.8383450" lon="-3.2596750">
        <ele>528.2</ele>
        <time>2020-07-16T06:22:43Z</time>
      </trkpt>
      <trkpt lat="37.8385530" lon="-3.2597520">
        <ele>528.0</ele>
        <time>2020-07-16T06:22:46Z</time>
      </trkpt>
      <trkpt lat="37.8387660" lon="-3.2598320">
        <ele>528.0</ele>
        <time>2020-07-16T06:22:49Z</time>
      </trkpt>
      <trkpt lat="37.8392750" lon="-3.2599350">
        <ele>528.0</ele>
        <time>2020-07-16T06:22:56Z</time>
      </trkpt>
      <trkpt lat="37.8393500" lon="-3.2599120">
        <ele>528.2</ele>
        <time>2020-07-16T06:22:57Z</time>
      </trkpt>
      <trkpt lat="37.8395580" lon="-3.2598120">
        <ele>528.2</ele>
        <time>2020-07-16T06:23:00Z</time>
      </trkpt>
      <trkpt lat="37.8396280" lon="-3.2597780">
        <ele>528.2</ele>
        <time>2020-07-16T06:23:01Z</time>
      </trkpt>
      <trkpt lat="37.8397640" lon="-3.2597360">
        <ele>528.4</ele>
        <time>2020-07-16T06:23:03Z</time>
      </trkpt>
      <trkpt lat="37.8399090" lon="-3.2597350">
        <ele>528.4</ele>
        <time>2020-07-16T06:23:05Z</time>
      </trkpt>
      <trkpt lat="37.8401850" lon="-3.2598710">
        <ele>528.8</ele>
        <time>2020-07-16T06:23:09Z</time>
      </trkpt>
      <trkpt lat="37.8403940" lon="-3.2601820">
        <ele>528.6</ele>
        <time>2020-07-16T06:23:13Z</time>
      </trkpt>
      <trkpt lat="37.8404840" lon="-3.2605360">
        <ele>527.6</ele>
        <time>2020-07-16T06:23:16Z</time>
      </trkpt>
      <trkpt lat="37.8405340" lon="-3.2608070">
        <ele>526.4</ele>
        <time>2020-07-16T06:23:18Z</time>
      </trkpt>
      <trkpt lat="37.8405980" lon="-3.2610980">
        <ele>525.0</ele>
        <time>2020-07-16T06:23:20Z</time>
      </trkpt>
      <trkpt lat="37.8406500" lon="-3.2612370">
        <ele>524.4</ele>
        <time>2020-07-16T06:23:21Z</time>
      </trkpt>
      <trkpt lat="37.8407170" lon="-3.2613540">
        <ele>523.6</ele>
        <time>2020-07-16T06:23:22Z</time>
      </trkpt>
      <trkpt lat="37.8408900" lon="-3.2615990">
        <ele>521.8</ele>
        <time>2020-07-16T06:23:24Z</time>
      </trkpt>
      <trkpt lat="37.8409800" lon="-3.2617140">
        <ele>521.0</ele>
        <time>2020-07-16T06:23:25Z</time>
      </trkpt>
      <trkpt lat="37.8410690" lon="-3.2618270">
        <ele>520.4</ele>
        <time>2020-07-16T06:23:26Z</time>
      </trkpt>
      <trkpt lat="37.8412230" lon="-3.2620550">
        <ele>519.0</ele>
        <time>2020-07-16T06:23:28Z</time>
      </trkpt>
      <trkpt lat="37.8413100" lon="-3.2622060">
        <ele>518.4</ele>
        <time>2020-07-16T06:23:29Z</time>
      </trkpt>
      <trkpt lat="37.8413770" lon="-3.2623410">
        <ele>517.8</ele>
        <time>2020-07-16T06:23:30Z</time>
      </trkpt>
      <trkpt lat="37.8415210" lon="-3.2626200">
        <ele>516.4</ele>
        <time>2020-07-16T06:23:32Z</time>
      </trkpt>
      <trkpt lat="37.8416010" lon="-3.2627360">
        <ele>515.6</ele>
        <time>2020-07-16T06:23:33Z</time>
      </trkpt>
      <trkpt lat="37.8416950" lon="-3.2628480">
        <ele>515.2</ele>
        <time>2020-07-16T06:23:34Z</time>
      </trkpt>
      <trkpt lat="37.8418690" lon="-3.2631140">
        <ele>513.4</ele>
        <time>2020-07-16T06:23:36Z</time>
      </trkpt>
      <trkpt lat="37.8419330" lon="-3.2632520">
        <ele>512.4</ele>
        <time>2020-07-16T06:23:37Z</time>
      </trkpt>
      <trkpt lat="37.8419860" lon="-3.2633910">
        <ele>511.2</ele>
        <time>2020-07-16T06:23:38Z</time>
      </trkpt>
      <trkpt lat="37.8420250" lon="-3.2635380">
        <ele>510.0</ele>
        <time>2020-07-16T06:23:39Z</time>
      </trkpt>
      <trkpt lat="37.8420410" lon="-3.2636720">
        <ele>509.0</ele>
        <time>2020-07-16T06:23:40Z</time>
      </trkpt>
      <trkpt lat="37.8420390" lon="-3.2638370">
        <ele>508.0</ele>
        <time>2020-07-16T06:23:41Z</time>
      </trkpt>
      <trkpt lat="37.8419600" lon="-3.2641180">
        <ele>506.4</ele>
        <time>2020-07-16T06:23:43Z</time>
      </trkpt>
      <trkpt lat="37.8418320" lon="-3.2643970">
        <ele>504.8</ele>
        <time>2020-07-16T06:23:45Z</time>
      </trkpt>
      <trkpt lat="37.8417640" lon="-3.2645350">
        <ele>503.8</ele>
        <time>2020-07-16T06:23:46Z</time>
      </trkpt>
      <trkpt lat="37.8416290" lon="-3.2647970">
        <ele>502.0</ele>
        <time>2020-07-16T06:23:48Z</time>
      </trkpt>
      <trkpt lat="37.8414790" lon="-3.2650470">
        <ele>500.8</ele>
        <time>2020-07-16T06:23:50Z</time>
      </trkpt>
      <trkpt lat="37.8413480" lon="-3.2652890">
        <ele>499.8</ele>
        <time>2020-07-16T06:23:52Z</time>
      </trkpt>
      <trkpt lat="37.8413090" lon="-3.2654460">
        <ele>499.0</ele>
        <time>2020-07-16T06:23:53Z</time>
      </trkpt>
      <trkpt lat="37.8412770" lon="-3.2655940">
        <ele>498.4</ele>
        <time>2020-07-16T06:23:54Z</time>
      </trkpt>
      <trkpt lat="37.8412410" lon="-3.2657410">
        <ele>498.0</ele>
        <time>2020-07-16T06:23:55Z</time>
      </trkpt>
      <trkpt lat="37.8411330" lon="-3.2660170">
        <ele>496.6</ele>
        <time>2020-07-16T06:23:57Z</time>
      </trkpt>
      <trkpt lat="37.8410590" lon="-3.2661170">
        <ele>496.2</ele>
        <time>2020-07-16T06:23:58Z</time>
      </trkpt>
      <trkpt lat="37.8409660" lon="-3.2662320">
        <ele>495.4</ele>
        <time>2020-07-16T06:23:59Z</time>
      </trkpt>
      <trkpt lat="37.8408750" lon="-3.2663410">
        <ele>494.6</ele>
        <time>2020-07-16T06:24:00Z</time>
      </trkpt>
      <trkpt lat="37.8407890" lon="-3.2664490">
        <ele>494.0</ele>
        <time>2020-07-16T06:24:01Z</time>
      </trkpt>
      <trkpt lat="37.8406180" lon="-3.2666480">
        <ele>492.6</ele>
        <time>2020-07-16T06:24:03Z</time>
      </trkpt>
      <trkpt lat="37.8404470" lon="-3.2668430">
        <ele>491.4</ele>
        <time>2020-07-16T06:24:05Z</time>
      </trkpt>
      <trkpt lat="37.8402640" lon="-3.2670390">
        <ele>490.0</ele>
        <time>2020-07-16T06:24:07Z</time>
      </trkpt>
      <trkpt lat="37.8401840" lon="-3.2671250">
        <ele>489.4</ele>
        <time>2020-07-16T06:24:08Z</time>
      </trkpt>
      <trkpt lat="37.8400950" lon="-3.2672220">
        <ele>488.6</ele>
        <time>2020-07-16T06:24:09Z</time>
      </trkpt>
      <trkpt lat="37.8399360" lon="-3.2674070">
        <ele>487.4</ele>
        <time>2020-07-16T06:24:11Z</time>
      </trkpt>
      <trkpt lat="37.8397990" lon="-3.2675980">
        <ele>486.8</ele>
        <time>2020-07-16T06:24:13Z</time>
      </trkpt>
      <trkpt lat="37.8397460" lon="-3.2677190">
        <ele>486.2</ele>
        <time>2020-07-16T06:24:14Z</time>
      </trkpt>
      <trkpt lat="37.8397080" lon="-3.2680960">
        <ele>485.6</ele>
        <time>2020-07-16T06:24:17Z</time>
      </trkpt>
      <trkpt lat="37.8397280" lon="-3.2682110">
        <ele>485.2</ele>
        <time>2020-07-16T06:24:18Z</time>
      </trkpt>
      <trkpt lat="37.8397800" lon="-3.2684590">
        <ele>484.8</ele>
        <time>2020-07-16T06:24:20Z</time>
      </trkpt>
      <trkpt lat="37.8398560" lon="-3.2688140">
        <ele>483.8</ele>
        <time>2020-07-16T06:24:23Z</time>
      </trkpt>
      <trkpt lat="37.8399900" lon="-3.2693850">
        <ele>482.8</ele>
        <time>2020-07-16T06:24:28Z</time>
      </trkpt>
      <trkpt lat="37.8400530" lon="-3.2696180">
        <ele>482.6</ele>
        <time>2020-07-16T06:24:30Z</time>
      </trkpt>
      <trkpt lat="37.8402400" lon="-3.2701160">
        <ele>482.0</ele>
        <time>2020-07-16T06:24:35Z</time>
      </trkpt>
      <trkpt lat="37.8403090" lon="-3.2703250">
        <ele>481.4</ele>
        <time>2020-07-16T06:24:37Z</time>
      </trkpt>
      <trkpt lat="37.8403420" lon="-3.2705480">
        <ele>481.2</ele>
        <time>2020-07-16T06:24:39Z</time>
      </trkpt>
      <trkpt lat="37.8403200" lon="-3.2706630">
        <ele>481.2</ele>
        <time>2020-07-16T06:24:40Z</time>
      </trkpt>
      <trkpt lat="37.8401790" lon="-3.2709830">
        <ele>480.0</ele>
        <time>2020-07-16T06:24:43Z</time>
      </trkpt>
      <trkpt lat="37.8400690" lon="-3.2712140">
        <ele>478.8</ele>
        <time>2020-07-16T06:24:45Z</time>
      </trkpt>
      <trkpt lat="37.8399610" lon="-3.2714410">
        <ele>477.6</ele>
        <time>2020-07-16T06:24:47Z</time>
      </trkpt>
      <trkpt lat="37.8398590" lon="-3.2716490">
        <ele>476.6</ele>
        <time>2020-07-16T06:24:49Z</time>
      </trkpt>
      <trkpt lat="37.8396760" lon="-3.2720000">
        <ele>475.8</ele>
        <time>2020-07-16T06:24:53Z</time>
      </trkpt>
      <trkpt lat="37.8396310" lon="-3.2720820">
        <ele>475.8</ele>
        <time>2020-07-16T06:24:54Z</time>
      </trkpt>
      <trkpt lat="37.8394490" lon="-3.2723470">
        <ele>476.2</ele>
        <time>2020-07-16T06:24:58Z</time>
      </trkpt>
      <trkpt lat="37.8393540" lon="-3.2724940">
        <ele>476.2</ele>
        <time>2020-07-16T06:25:00Z</time>
      </trkpt>
      <trkpt lat="37.8392150" lon="-3.2727980">
        <ele>476.2</ele>
        <time>2020-07-16T06:25:04Z</time>
      </trkpt>
      <trkpt lat="37.8392060" lon="-3.2728900">
        <ele>476.2</ele>
        <time>2020-07-16T06:25:05Z</time>
      </trkpt>
      <trkpt lat="37.8392470" lon="-3.2731510">
        <ele>476.0</ele>
        <time>2020-07-16T06:25:08Z</time>
      </trkpt>
      <trkpt lat="37.8392960" lon="-3.2733260">
        <ele>476.0</ele>
        <time>2020-07-16T06:25:10Z</time>
      </trkpt>
      <trkpt lat="37.8393750" lon="-3.2735920">
        <ele>476.2</ele>
        <time>2020-07-16T06:25:13Z</time>
      </trkpt>
      <trkpt lat="37.8394060" lon="-3.2736840">
        <ele>476.4</ele>
        <time>2020-07-16T06:25:14Z</time>
      </trkpt>
      <trkpt lat="37.8396140" lon="-3.2743570">
        <ele>476.4</ele>
        <time>2020-07-16T06:25:22Z</time>
      </trkpt>
      <trkpt lat="37.8397310" lon="-3.2747910">
        <ele>476.4</ele>
        <time>2020-07-16T06:25:27Z</time>
      </trkpt>
      <trkpt lat="37.8397630" lon="-3.2750350">
        <ele>476.4</ele>
        <time>2020-07-16T06:25:30Z</time>
      </trkpt>
      <trkpt lat="37.8397790" lon="-3.2753460">
        <ele>476.8</ele>
        <time>2020-07-16T06:25:34Z</time>
      </trkpt>
      <trkpt lat="37.8397870" lon="-3.2755700">
        <ele>477.6</ele>
        <time>2020-07-16T06:25:37Z</time>
      </trkpt>
      <trkpt lat="37.8397890" lon="-3.2756370">
        <ele>477.8</ele>
        <time>2020-07-16T06:25:38Z</time>
      </trkpt>
      <trkpt lat="37.8398000" lon="-3.2758440">
        <ele>478.6</ele>
        <time>2020-07-16T06:25:41Z</time>
      </trkpt>
      <trkpt lat="37.8398040" lon="-3.2759080">
        <ele>478.8</ele>
        <time>2020-07-16T06:25:42Z</time>
      </trkpt>
      <trkpt lat="37.8398300" lon="-3.2760830">
        <ele>479.8</ele>
        <time>2020-07-16T06:25:45Z</time>
      </trkpt>
      <trkpt lat="37.8398390" lon="-3.2761410">
        <ele>480.0</ele>
        <time>2020-07-16T06:25:46Z</time>
      </trkpt>
      <trkpt lat="37.8398980" lon="-3.2764440">
        <ele>481.0</ele>
        <time>2020-07-16T06:25:51Z</time>
      </trkpt>
      <trkpt lat="37.8399100" lon="-3.2765000">
        <ele>481.2</ele>
        <time>2020-07-16T06:25:52Z</time>
      </trkpt>
      <trkpt lat="37.8399420" lon="-3.2766880">
        <ele>481.6</ele>
        <time>2020-07-16T06:25:55Z</time>
      </trkpt>
      <trkpt lat="37.8399910" lon="-3.2769400">
        <ele>482.2</ele>
        <time>2020-07-16T06:25:59Z</time>
      </trkpt>
      <trkpt lat="37.8400350" lon="-3.2771870">
        <ele>482.6</ele>
        <time>2020-07-16T06:26:03Z</time>
      </trkpt>
      <trkpt lat="37.8401020" lon="-3.2775860">
        <ele>483.2</ele>
        <time>2020-07-16T06:26:09Z</time>
      </trkpt>
      <trkpt lat="37.8401360" lon="-3.2777800">
        <ele>483.4</ele>
        <time>2020-07-16T06:26:12Z</time>
      </trkpt>
      <trkpt lat="37.8401800" lon="-3.2781700">
        <ele>484.4</ele>
        <time>2020-07-16T06:26:18Z</time>
      </trkpt>
      <trkpt lat="37.8401860" lon="-3.2784330">
        <ele>484.8</ele>
        <time>2020-07-16T06:26:22Z</time>
      </trkpt>
      <trkpt lat="37.8401700" lon="-3.2787690">
        <ele>485.4</ele>
        <time>2020-07-16T06:26:27Z</time>
      </trkpt>
      <trkpt lat="37.8401480" lon="-3.2791100">
        <ele>485.8</ele>
        <time>2020-07-16T06:26:32Z</time>
      </trkpt>
      <trkpt lat="37.8401230" lon="-3.2794460">
        <ele>486.4</ele>
        <time>2020-07-16T06:26:37Z</time>
      </trkpt>
      <trkpt lat="37.8400930" lon="-3.2798370">
        <ele>487.2</ele>
        <time>2020-07-16T06:26:43Z</time>
      </trkpt>
      <trkpt lat="37.8400510" lon="-3.2801020">
        <ele>487.4</ele>
        <time>2020-07-16T06:26:47Z</time>
      </trkpt>
      <trkpt lat="37.8399720" lon="-3.2804190">
        <ele>487.8</ele>
        <time>2020-07-16T06:26:52Z</time>
      </trkpt>
      <trkpt lat="37.8398690" lon="-3.2808000">
        <ele>488.4</ele>
        <time>2020-07-16T06:26:58Z</time>
      </trkpt>
      <trkpt lat="37.8397440" lon="-3.2812420">
        <ele>489.2</ele>
        <time>2020-07-16T06:27:05Z</time>
      </trkpt>
      <trkpt lat="37.8396800" lon="-3.2814910">
        <ele>489.6</ele>
        <time>2020-07-16T06:27:09Z</time>
      </trkpt>
      <trkpt lat="37.8395560" lon="-3.2819040">
        <ele>490.6</ele>
        <time>2020-07-16T06:27:16Z</time>
      </trkpt>
      <trkpt lat="37.8393770" lon="-3.2822960">
        <ele>491.2</ele>
        <time>2020-07-16T06:27:23Z</time>
      </trkpt>
      <trkpt lat="37.8392140" lon="-3.2825610">
        <ele>491.6</ele>
        <time>2020-07-16T06:27:28Z</time>
      </trkpt>
      <trkpt lat="37.8390400" lon="-3.2828260">
        <ele>492.2</ele>
        <time>2020-07-16T06:27:33Z</time>
      </trkpt>
      <trkpt lat="37.8388730" lon="-3.2830880">
        <ele>492.8</ele>
        <time>2020-07-16T06:27:38Z</time>
      </trkpt>
      <trkpt lat="37.8387400" lon="-3.2833010">
        <ele>493.0</ele>
        <time>2020-07-16T06:27:42Z</time>
      </trkpt>
      <trkpt lat="37.8385760" lon="-3.2836280">
        <ele>493.8</ele>
        <time>2020-07-16T06:27:48Z</time>
      </trkpt>
      <trkpt lat="37.8385540" lon="-3.2836910">
        <ele>494.0</ele>
        <time>2020-07-16T06:27:49Z</time>
      </trkpt>
      <trkpt lat="37.8385400" lon="-3.2837580">
        <ele>494.0</ele>
        <time>2020-07-16T06:27:50Z</time>
      </trkpt>
      <trkpt lat="37.8385150" lon="-3.2840330">
        <ele>494.4</ele>
        <time>2020-07-16T06:27:54Z</time>
      </trkpt>
      <trkpt lat="37.8385580" lon="-3.2845310">
        <ele>494.8</ele>
        <time>2020-07-16T06:28:01Z</time>
      </trkpt>
      <trkpt lat="37.8386160" lon="-3.2851560">
        <ele>495.8</ele>
        <time>2020-07-16T06:28:10Z</time>
      </trkpt>
      <trkpt lat="37.8386240" lon="-3.2852270">
        <ele>496.0</ele>
        <time>2020-07-16T06:28:11Z</time>
      </trkpt>
      <trkpt lat="37.8386700" lon="-3.2858220">
        <ele>496.6</ele>
        <time>2020-07-16T06:28:20Z</time>
      </trkpt>
      <trkpt lat="37.8386770" lon="-3.2860160">
        <ele>497.0</ele>
        <time>2020-07-16T06:28:23Z</time>
      </trkpt>
      <trkpt lat="37.8386480" lon="-3.2863430">
        <ele>497.6</ele>
        <time>2020-07-16T06:28:28Z</time>
      </trkpt>
      <trkpt lat="37.8385850" lon="-3.2867780">
        <ele>498.0</ele>
        <time>2020-07-16T06:28:34Z</time>
      </trkpt>
      <trkpt lat="37.8385660" lon="-3.2870180">
        <ele>497.8</ele>
        <time>2020-07-16T06:28:37Z</time>
      </trkpt>
      <trkpt lat="37.8385320" lon="-3.2875740">
        <ele>497.6</ele>
        <time>2020-07-16T06:28:44Z</time>
      </trkpt>
      <trkpt lat="37.8385050" lon="-3.2878770">
        <ele>497.6</ele>
        <time>2020-07-16T06:28:48Z</time>
      </trkpt>
      <trkpt lat="37.8384700" lon="-3.2886090">
        <ele>498.4</ele>
        <time>2020-07-16T06:28:58Z</time>
      </trkpt>
      <trkpt lat="37.8383900" lon="-3.2889520">
        <ele>498.6</ele>
        <time>2020-07-16T06:29:03Z</time>
      </trkpt>
      <trkpt lat="37.8383650" lon="-3.2890000">
        <ele>498.8</ele>
        <time>2020-07-16T06:29:04Z</time>
      </trkpt>
      <trkpt lat="37.8382850" lon="-3.2891190">
        <ele>499.2</ele>
        <time>2020-07-16T06:29:06Z</time>
      </trkpt>
      <trkpt lat="37.8382440" lon="-3.2891670">
        <ele>499.4</ele>
        <time>2020-07-16T06:29:07Z</time>
      </trkpt>
      <trkpt lat="37.8381570" lon="-3.2892500">
        <ele>499.8</ele>
        <time>2020-07-16T06:29:09Z</time>
      </trkpt>
      <trkpt lat="37.8380180" lon="-3.2893600">
        <ele>500.2</ele>
        <time>2020-07-16T06:29:12Z</time>
      </trkpt>
      <trkpt lat="37.8379720" lon="-3.2893890">
        <ele>500.4</ele>
        <time>2020-07-16T06:29:13Z</time>
      </trkpt>
      <trkpt lat="37.8376510" lon="-3.2896200">
        <ele>501.0</ele>
        <time>2020-07-16T06:29:20Z</time>
      </trkpt>
      <trkpt lat="37.8376120" lon="-3.2896640">
        <ele>501.2</ele>
        <time>2020-07-16T06:29:21Z</time>
      </trkpt>
      <trkpt lat="37.8375820" lon="-3.2897150">
        <ele>501.4</ele>
        <time>2020-07-16T06:29:22Z</time>
      </trkpt>
      <trkpt lat="37.8375100" lon="-3.2899840">
        <ele>501.8</ele>
        <time>2020-07-16T06:29:26Z</time>
      </trkpt>
      <trkpt lat="37.8375020" lon="-3.2900530">
        <ele>501.8</ele>
        <time>2020-07-16T06:29:27Z</time>
      </trkpt>
      <trkpt lat="37.8374750" lon="-3.2903920">
        <ele>502.4</ele>
        <time>2020-07-16T06:29:32Z</time>
      </trkpt>
      <trkpt lat="37.8374700" lon="-3.2904540">
        <ele>502.6</ele>
        <time>2020-07-16T06:29:33Z</time>
      </trkpt>
      <trkpt lat="37.8374410" lon="-3.2908570">
        <ele>503.4</ele>
        <time>2020-07-16T06:29:39Z</time>
      </trkpt>
      <trkpt lat="37.8374170" lon="-3.2911920">
        <ele>504.0</ele>
        <time>2020-07-16T06:29:44Z</time>
      </trkpt>
      <trkpt lat="37.8373700" lon="-3.2916970">
        <ele>504.2</ele>
        <time>2020-07-16T06:29:51Z</time>
      </trkpt>
      <trkpt lat="37.8373810" lon="-3.2917680">
        <ele>504.2</ele>
        <time>2020-07-16T06:29:52Z</time>
      </trkpt>
      <trkpt lat="37.8374830" lon="-3.2920440">
        <ele>504.4</ele>
        <time>2020-07-16T06:29:56Z</time>
      </trkpt>
      <trkpt lat="37.8375150" lon="-3.2921030">
        <ele>504.4</ele>
        <time>2020-07-16T06:29:57Z</time>
      </trkpt>
      <trkpt lat="37.8376570" lon="-3.2924860">
        <ele>505.2</ele>
        <time>2020-07-16T06:30:03Z</time>
      </trkpt>
      <trkpt lat="37.8377090" lon="-3.2929390">
        <ele>505.4</ele>
        <time>2020-07-16T06:30:09Z</time>
      </trkpt>
      <trkpt lat="37.8377110" lon="-3.2930080">
        <ele>505.6</ele>
        <time>2020-07-16T06:30:10Z</time>
      </trkpt>
      <trkpt lat="37.8377260" lon="-3.2936100">
        <ele>506.2</ele>
        <time>2020-07-16T06:30:18Z</time>
      </trkpt>
      <trkpt lat="37.8377240" lon="-3.2937550">
        <ele>506.4</ele>
        <time>2020-07-16T06:30:20Z</time>
      </trkpt>
      <trkpt lat="37.8376960" lon="-3.2940610">
        <ele>506.6</ele>
        <time>2020-07-16T06:30:24Z</time>
      </trkpt>
      <trkpt lat="37.8376600" lon="-3.2943600">
        <ele>507.0</ele>
        <time>2020-07-16T06:30:28Z</time>
      </trkpt>
      <trkpt lat="37.8376700" lon="-3.2946150">
        <ele>507.4</ele>
        <time>2020-07-16T06:30:31Z</time>
      </trkpt>
      <trkpt lat="37.8377030" lon="-3.2947600">
        <ele>507.6</ele>
        <time>2020-07-16T06:30:33Z</time>
      </trkpt>
      <trkpt lat="37.8377210" lon="-3.2948370">
        <ele>507.6</ele>
        <time>2020-07-16T06:30:34Z</time>
      </trkpt>
      <trkpt lat="37.8377590" lon="-3.2949930">
        <ele>507.8</ele>
        <time>2020-07-16T06:30:36Z</time>
      </trkpt>
      <trkpt lat="37.8378530" lon="-3.2954370">
        <ele>508.2</ele>
        <time>2020-07-16T06:30:42Z</time>
      </trkpt>
      <trkpt lat="37.8378890" lon="-3.2959280">
        <ele>508.8</ele>
        <time>2020-07-16T06:30:49Z</time>
      </trkpt>
      <trkpt lat="37.8378900" lon="-3.2959810">
        <ele>509.0</ele>
        <time>2020-07-16T06:30:50Z</time>
      </trkpt>
      <trkpt lat="37.8378860" lon="-3.2960570">
        <ele>509.2</ele>
        <time>2020-07-16T06:30:51Z</time>
      </trkpt>
      <trkpt lat="37.8378710" lon="-3.2962330">
        <ele>509.8</ele>
        <time>2020-07-16T06:30:54Z</time>
      </trkpt>
      <trkpt lat="37.8378700" lon="-3.2962930">
        <ele>510.0</ele>
        <time>2020-07-16T06:30:55Z</time>
      </trkpt>
      <trkpt lat="37.8378480" lon="-3.2965200">
        <ele>510.8</ele>
        <time>2020-07-16T06:30:59Z</time>
      </trkpt>
      <trkpt lat="37.8378340" lon="-3.2966910">
        <ele>511.6</ele>
        <time>2020-07-16T06:31:02Z</time>
      </trkpt>
      <trkpt lat="37.8378370" lon="-3.2967450">
        <ele>511.8</ele>
        <time>2020-07-16T06:31:03Z</time>
      </trkpt>
      <trkpt lat="37.8378460" lon="-3.2968010">
        <ele>511.8</ele>
        <time>2020-07-16T06:31:04Z</time>
      </trkpt>
      <trkpt lat="37.8379540" lon="-3.2969790">
        <ele>512.6</ele>
        <time>2020-07-16T06:31:08Z</time>
      </trkpt>
      <trkpt lat="37.8380660" lon="-3.2970710">
        <ele>513.0</ele>
        <time>2020-07-16T06:31:11Z</time>
      </trkpt>
      <trkpt lat="37.8381570" lon="-3.2971430">
        <ele>513.0</ele>
        <time>2020-07-16T06:31:13Z</time>
      </trkpt>
      <trkpt lat="37.8383680" lon="-3.2973410">
        <ele>514.2</ele>
        <time>2020-07-16T06:31:19Z</time>
      </trkpt>
      <trkpt lat="37.8384320" lon="-3.2974410">
        <ele>515.2</ele>
        <time>2020-07-16T06:31:22Z</time>
      </trkpt>
      <trkpt lat="37.8384880" lon="-3.2975730">
        <ele>516.2</ele>
        <time>2020-07-16T06:31:25Z</time>
      </trkpt>
      <trkpt lat="37.8385130" lon="-3.2977140">
        <ele>517.6</ele>
        <time>2020-07-16T06:31:29Z</time>
      </trkpt>
      <trkpt lat="37.8385230" lon="-3.2977410">
        <ele>517.8</ele>
        <time>2020-07-16T06:31:30Z</time>
      </trkpt>
      <trkpt lat="37.8385400" lon="-3.2978360">
        <ele>518.8</ele>
        <time>2020-07-16T06:31:33Z</time>
      </trkpt>
      <trkpt lat="37.8385590" lon="-3.2979740">
        <ele>519.8</ele>
        <time>2020-07-16T06:31:37Z</time>
      </trkpt>
      <trkpt lat="37.8385610" lon="-3.2980040">
        <ele>520.2</ele>
        <time>2020-07-16T06:31:38Z</time>
      </trkpt>
      <trkpt lat="37.8385780" lon="-3.2981220">
        <ele>521.0</ele>
        <time>2020-07-16T06:31:41Z</time>
      </trkpt>
      <trkpt lat="37.8385980" lon="-3.2982640">
        <ele>521.8</ele>
        <time>2020-07-16T06:31:45Z</time>
      </trkpt>
      <trkpt lat="37.8386020" lon="-3.2983010">
        <ele>522.2</ele>
        <time>2020-07-16T06:31:46Z</time>
      </trkpt>
      <trkpt lat="37.8386260" lon="-3.2984480">
        <ele>523.2</ele>
        <time>2020-07-16T06:31:50Z</time>
      </trkpt>
      <trkpt lat="37.8386540" lon="-3.2986300">
        <ele>524.2</ele>
        <time>2020-07-16T06:31:55Z</time>
      </trkpt>
      <trkpt lat="37.8386580" lon="-3.2986660">
        <ele>524.6</ele>
        <time>2020-07-16T06:31:56Z</time>
      </trkpt>
      <trkpt lat="37.8386680" lon="-3.2987730">
        <ele>525.4</ele>
        <time>2020-07-16T06:31:59Z</time>
      </trkpt>
      <trkpt lat="37.8386860" lon="-3.2989470">
        <ele>526.4</ele>
        <time>2020-07-16T06:32:04Z</time>
      </trkpt>
      <trkpt lat="37.8387270" lon="-3.2991610">
        <ele>527.6</ele>
        <time>2020-07-16T06:32:10Z</time>
      </trkpt>
      <trkpt lat="37.8387430" lon="-3.2992390">
        <ele>527.8</ele>
        <time>2020-07-16T06:32:12Z</time>
      </trkpt>
      <trkpt lat="37.8387770" lon="-3.2994120">
        <ele>528.6</ele>
        <time>2020-07-16T06:32:17Z</time>
      </trkpt>
      <trkpt lat="37.8388000" lon="-3.2995210">
        <ele>529.6</ele>
        <time>2020-07-16T06:32:20Z</time>
      </trkpt>
      <trkpt lat="37.8388320" lon="-3.2996750">
        <ele>530.8</ele>
        <time>2020-07-16T06:32:24Z</time>
      </trkpt>
      <trkpt lat="37.8388970" lon="-3.2999950">
        <ele>531.8</ele>
        <time>2020-07-16T06:32:32Z</time>
      </trkpt>
      <trkpt lat="37.8389140" lon="-3.3000720">
        <ele>532.4</ele>
        <time>2020-07-16T06:32:34Z</time>
      </trkpt>
      <trkpt lat="37.8389420" lon="-3.3001920">
        <ele>533.0</ele>
        <time>2020-07-16T06:32:37Z</time>
      </trkpt>
      <trkpt lat="37.8389860" lon="-3.3003870">
        <ele>534.0</ele>
        <time>2020-07-16T06:32:42Z</time>
      </trkpt>
      <trkpt lat="37.8390170" lon="-3.3005450">
        <ele>534.6</ele>
        <time>2020-07-16T06:32:46Z</time>
      </trkpt>
      <trkpt lat="37.8390340" lon="-3.3006670">
        <ele>535.2</ele>
        <time>2020-07-16T06:32:49Z</time>
      </trkpt>
      <trkpt lat="37.8390610" lon="-3.3009080">
        <ele>536.2</ele>
        <time>2020-07-16T06:32:55Z</time>
      </trkpt>
      <trkpt lat="37.8390650" lon="-3.3009480">
        <ele>536.6</ele>
        <time>2020-07-16T06:32:56Z</time>
      </trkpt>
      <trkpt lat="37.8390750" lon="-3.3010670">
        <ele>537.4</ele>
        <time>2020-07-16T06:32:59Z</time>
      </trkpt>
      <trkpt lat="37.8390880" lon="-3.3012650">
        <ele>538.4</ele>
        <time>2020-07-16T06:33:04Z</time>
      </trkpt>
      <trkpt lat="37.8390970" lon="-3.3013900">
        <ele>539.0</ele>
        <time>2020-07-16T06:33:07Z</time>
      </trkpt>
      <trkpt lat="37.8391050" lon="-3.3014720">
        <ele>539.4</ele>
        <time>2020-07-16T06:33:09Z</time>
      </trkpt>
      <trkpt lat="37.8391810" lon="-3.3017500">
        <ele>540.6</ele>
        <time>2020-07-16T06:33:16Z</time>
      </trkpt>
      <trkpt lat="37.8393140" lon="-3.3019070">
        <ele>541.8</ele>
        <time>2020-07-16T06:33:21Z</time>
      </trkpt>
      <trkpt lat="37.8393420" lon="-3.3019360">
        <ele>542.0</ele>
        <time>2020-07-16T06:33:22Z</time>
      </trkpt>
      <trkpt lat="37.8396500" lon="-3.3022290">
        <ele>542.8</ele>
        <time>2020-07-16T06:33:31Z</time>
      </trkpt>
      <trkpt lat="37.8398250" lon="-3.3023980">
        <ele>543.6</ele>
        <time>2020-07-16T06:33:36Z</time>
      </trkpt>
      <trkpt lat="37.8399350" lon="-3.3025010">
        <ele>544.0</ele>
        <time>2020-07-16T06:33:39Z</time>
      </trkpt>
      <trkpt lat="37.8400390" lon="-3.3026120">
        <ele>544.4</ele>
        <time>2020-07-16T06:33:42Z</time>
      </trkpt>
      <trkpt lat="37.8402350" lon="-3.3028430">
        <ele>545.2</ele>
        <time>2020-07-16T06:33:48Z</time>
      </trkpt>
      <trkpt lat="37.8404290" lon="-3.3030940">
        <ele>545.8</ele>
        <time>2020-07-16T06:33:54Z</time>
      </trkpt>
      <trkpt lat="37.8405520" lon="-3.3032560">
        <ele>546.4</ele>
        <time>2020-07-16T06:33:58Z</time>
      </trkpt>
      <trkpt lat="37.8407090" lon="-3.3034680">
        <ele>547.4</ele>
        <time>2020-07-16T06:34:03Z</time>
      </trkpt>
      <trkpt lat="37.8408000" lon="-3.3036010">
        <ele>547.6</ele>
        <time>2020-07-16T06:34:06Z</time>
      </trkpt>
      <trkpt lat="37.8409360" lon="-3.3038250">
        <ele>548.4</ele>
        <time>2020-07-16T06:34:11Z</time>
      </trkpt>
      <trkpt lat="37.8411090" lon="-3.3041300">
        <ele>549.6</ele>
        <time>2020-07-16T06:34:18Z</time>
      </trkpt>
      <trkpt lat="37.8412010" lon="-3.3043000">
        <ele>550.6</ele>
        <time>2020-07-16T06:34:22Z</time>
      </trkpt>
      <trkpt lat="37.8412740" lon="-3.3044290">
        <ele>551.4</ele>
        <time>2020-07-16T06:34:25Z</time>
      </trkpt>
      <trkpt lat="37.8413210" lon="-3.3045150">
        <ele>551.8</ele>
        <time>2020-07-16T06:34:27Z</time>
      </trkpt>
      <trkpt lat="37.8413450" lon="-3.3045580">
        <ele>552.0</ele>
        <time>2020-07-16T06:34:28Z</time>
      </trkpt>
      <trkpt lat="37.8414500" lon="-3.3047320">
        <ele>553.0</ele>
        <time>2020-07-16T06:34:32Z</time>
      </trkpt>
      <trkpt lat="37.8415420" lon="-3.3049020">
        <ele>553.6</ele>
        <time>2020-07-16T06:34:36Z</time>
      </trkpt>
      <trkpt lat="37.8415870" lon="-3.3049830">
        <ele>554.0</ele>
        <time>2020-07-16T06:34:38Z</time>
      </trkpt>
      <trkpt lat="37.8416900" lon="-3.3052020">
        <ele>555.0</ele>
        <time>2020-07-16T06:34:43Z</time>
      </trkpt>
      <trkpt lat="37.8417580" lon="-3.3053920">
        <ele>556.0</ele>
        <time>2020-07-16T06:34:47Z</time>
      </trkpt>
      <trkpt lat="37.8417730" lon="-3.3054370">
        <ele>556.2</ele>
        <time>2020-07-16T06:34:48Z</time>
      </trkpt>
      <trkpt lat="37.8418770" lon="-3.3057700">
        <ele>557.2</ele>
        <time>2020-07-16T06:34:55Z</time>
      </trkpt>
      <trkpt lat="37.8418920" lon="-3.3058170">
        <ele>557.4</ele>
        <time>2020-07-16T06:34:56Z</time>
      </trkpt>
      <trkpt lat="37.8419760" lon="-3.3061030">
        <ele>558.2</ele>
        <time>2020-07-16T06:35:02Z</time>
      </trkpt>
      <trkpt lat="37.8420480" lon="-3.3063450">
        <ele>559.4</ele>
        <time>2020-07-16T06:35:07Z</time>
      </trkpt>
      <trkpt lat="37.8420610" lon="-3.3063880">
        <ele>559.8</ele>
        <time>2020-07-16T06:35:08Z</time>
      </trkpt>
      <trkpt lat="37.8421190" lon="-3.3065850">
        <ele>560.6</ele>
        <time>2020-07-16T06:35:12Z</time>
      </trkpt>
      <trkpt lat="37.8422030" lon="-3.3068680">
        <ele>561.6</ele>
        <time>2020-07-16T06:35:18Z</time>
      </trkpt>
      <trkpt lat="37.8422890" lon="-3.3071360">
        <ele>562.6</ele>
        <time>2020-07-16T06:35:24Z</time>
      </trkpt>
      <trkpt lat="37.8423160" lon="-3.3072210">
        <ele>563.0</ele>
        <time>2020-07-16T06:35:26Z</time>
      </trkpt>
      <trkpt lat="37.8423530" lon="-3.3073490">
        <ele>563.8</ele>
        <time>2020-07-16T06:35:29Z</time>
      </trkpt>
      <trkpt lat="37.8424030" lon="-3.3075110">
        <ele>565.0</ele>
        <time>2020-07-16T06:35:33Z</time>
      </trkpt>
      <trkpt lat="37.8424420" lon="-3.3076370">
        <ele>565.8</ele>
        <time>2020-07-16T06:35:36Z</time>
      </trkpt>
      <trkpt lat="37.8424640" lon="-3.3077150">
        <ele>566.4</ele>
        <time>2020-07-16T06:35:38Z</time>
      </trkpt>
      <trkpt lat="37.8425110" lon="-3.3078740">
        <ele>567.4</ele>
        <time>2020-07-16T06:35:42Z</time>
      </trkpt>
      <trkpt lat="37.8425580" lon="-3.3080250">
        <ele>568.0</ele>
        <time>2020-07-16T06:35:46Z</time>
      </trkpt>
      <trkpt lat="37.8425830" lon="-3.3081030">
        <ele>568.4</ele>
        <time>2020-07-16T06:35:48Z</time>
      </trkpt>
      <trkpt lat="37.8426310" lon="-3.3082680">
        <ele>569.6</ele>
        <time>2020-07-16T06:35:52Z</time>
      </trkpt>
      <trkpt lat="37.8426620" lon="-3.3083410">
        <ele>570.4</ele>
        <time>2020-07-16T06:35:54Z</time>
      </trkpt>
      <trkpt lat="37.8426760" lon="-3.3083760">
        <ele>570.6</ele>
        <time>2020-07-16T06:35:55Z</time>
      </trkpt>
      <trkpt lat="37.8427540" lon="-3.3085530">
        <ele>571.6</ele>
        <time>2020-07-16T06:36:00Z</time>
      </trkpt>
      <trkpt lat="37.8428360" lon="-3.3087250">
        <ele>572.6</ele>
        <time>2020-07-16T06:36:05Z</time>
      </trkpt>
      <trkpt lat="37.8428510" lon="-3.3087600">
        <ele>572.8</ele>
        <time>2020-07-16T06:36:06Z</time>
      </trkpt>
      <trkpt lat="37.8429720" lon="-3.3090390">
        <ele>574.0</ele>
        <time>2020-07-16T06:36:14Z</time>
      </trkpt>
      <trkpt lat="37.8429980" lon="-3.3091080">
        <ele>574.4</ele>
        <time>2020-07-16T06:36:16Z</time>
      </trkpt>
      <trkpt lat="37.8430370" lon="-3.3092180">
        <ele>575.2</ele>
        <time>2020-07-16T06:36:19Z</time>
      </trkpt>
      <trkpt lat="37.8430970" lon="-3.3094010">
        <ele>576.2</ele>
        <time>2020-07-16T06:36:24Z</time>
      </trkpt>
      <trkpt lat="37.8431070" lon="-3.3094390">
        <ele>576.4</ele>
        <time>2020-07-16T06:36:25Z</time>
      </trkpt>
      <trkpt lat="37.8431650" lon="-3.3096170">
        <ele>577.4</ele>
        <time>2020-07-16T06:36:30Z</time>
      </trkpt>
      <trkpt lat="37.8432000" lon="-3.3097480">
        <ele>578.0</ele>
        <time>2020-07-16T06:36:34Z</time>
      </trkpt>
      <trkpt lat="37.8432200" lon="-3.3098310">
        <ele>578.4</ele>
        <time>2020-07-16T06:36:36Z</time>
      </trkpt>
      <trkpt lat="37.8432690" lon="-3.3100050">
        <ele>579.6</ele>
        <time>2020-07-16T06:36:41Z</time>
      </trkpt>
      <trkpt lat="37.8432780" lon="-3.3100390">
        <ele>579.8</ele>
        <time>2020-07-16T06:36:42Z</time>
      </trkpt>
      <trkpt lat="37.8433160" lon="-3.3101660">
        <ele>580.8</ele>
        <time>2020-07-16T06:36:46Z</time>
      </trkpt>
      <trkpt lat="37.8433690" lon="-3.3103430">
        <ele>581.8</ele>
        <time>2020-07-16T06:36:51Z</time>
      </trkpt>
      <trkpt lat="37.8433900" lon="-3.3104170">
        <ele>582.0</ele>
        <time>2020-07-16T06:36:53Z</time>
      </trkpt>
      <trkpt lat="37.8434320" lon="-3.3105720">
        <ele>582.8</ele>
        <time>2020-07-16T06:36:57Z</time>
      </trkpt>
      <trkpt lat="37.8434820" lon="-3.3107560">
        <ele>584.0</ele>
        <time>2020-07-16T06:37:02Z</time>
      </trkpt>
      <trkpt lat="37.8435320" lon="-3.3109380">
        <ele>585.2</ele>
        <time>2020-07-16T06:37:07Z</time>
      </trkpt>
      <trkpt lat="37.8435770" lon="-3.3110850">
        <ele>586.4</ele>
        <time>2020-07-16T06:37:11Z</time>
      </trkpt>
      <trkpt lat="37.8436410" lon="-3.3113080">
        <ele>587.4</ele>
        <time>2020-07-16T06:37:17Z</time>
      </trkpt>
      <trkpt lat="37.8436510" lon="-3.3113430">
        <ele>587.6</ele>
        <time>2020-07-16T06:37:18Z</time>
      </trkpt>
      <trkpt lat="37.8436970" lon="-3.3114990">
        <ele>588.6</ele>
        <time>2020-07-16T06:37:22Z</time>
      </trkpt>
      <trkpt lat="37.8437550" lon="-3.3117030">
        <ele>589.6</ele>
        <time>2020-07-16T06:37:27Z</time>
      </trkpt>
      <trkpt lat="37.8437820" lon="-3.3118290">
        <ele>590.2</ele>
        <time>2020-07-16T06:37:30Z</time>
      </trkpt>
      <trkpt lat="37.8438040" lon="-3.3119140">
        <ele>590.8</ele>
        <time>2020-07-16T06:37:32Z</time>
      </trkpt>
      <trkpt lat="37.8438630" lon="-3.3121690">
        <ele>591.2</ele>
        <time>2020-07-16T06:37:38Z</time>
      </trkpt>
      <trkpt lat="37.8439270" lon="-3.3124180">
        <ele>592.0</ele>
        <time>2020-07-16T06:37:44Z</time>
      </trkpt>
      <trkpt lat="37.8439580" lon="-3.3125800">
        <ele>592.8</ele>
        <time>2020-07-16T06:37:48Z</time>
      </trkpt>
      <trkpt lat="37.8439650" lon="-3.3126230">
        <ele>593.0</ele>
        <time>2020-07-16T06:37:49Z</time>
      </trkpt>
      <trkpt lat="37.8440170" lon="-3.3128600">
        <ele>594.2</ele>
        <time>2020-07-16T06:37:55Z</time>
      </trkpt>
      <trkpt lat="37.8440380" lon="-3.3129370">
        <ele>594.6</ele>
        <time>2020-07-16T06:37:57Z</time>
      </trkpt>
      <trkpt lat="37.8440690" lon="-3.3130920">
        <ele>595.4</ele>
        <time>2020-07-16T06:38:01Z</time>
      </trkpt>
      <trkpt lat="37.8441120" lon="-3.3132810">
        <ele>596.6</ele>
        <time>2020-07-16T06:38:06Z</time>
      </trkpt>
      <trkpt lat="37.8441290" lon="-3.3133570">
        <ele>597.0</ele>
        <time>2020-07-16T06:38:08Z</time>
      </trkpt>
      <trkpt lat="37.8441490" lon="-3.3134320">
        <ele>597.6</ele>
        <time>2020-07-16T06:38:10Z</time>
      </trkpt>
      <trkpt lat="37.8441860" lon="-3.3135890">
        <ele>598.6</ele>
        <time>2020-07-16T06:38:14Z</time>
      </trkpt>
      <trkpt lat="37.8442440" lon="-3.3137930">
        <ele>599.8</ele>
        <time>2020-07-16T06:38:19Z</time>
      </trkpt>
      <trkpt lat="37.8443410" lon="-3.3140750">
        <ele>600.8</ele>
        <time>2020-07-16T06:38:26Z</time>
      </trkpt>
      <trkpt lat="37.8444150" lon="-3.3142220">
        <ele>602.2</ele>
        <time>2020-07-16T06:38:30Z</time>
      </trkpt>
      <trkpt lat="37.8444930" lon="-3.3143860">
        <ele>603.2</ele>
        <time>2020-07-16T06:38:34Z</time>
      </trkpt>
      <trkpt lat="37.8445610" lon="-3.3145830">
        <ele>603.4</ele>
        <time>2020-07-16T06:38:38Z</time>
      </trkpt>
      <trkpt lat="37.8446380" lon="-3.3149000">
        <ele>604.2</ele>
        <time>2020-07-16T06:38:44Z</time>
      </trkpt>
      <trkpt lat="37.8446570" lon="-3.3149460">
        <ele>604.6</ele>
        <time>2020-07-16T06:38:45Z</time>
      </trkpt>
      <trkpt lat="37.8447300" lon="-3.3151310">
        <ele>605.2</ele>
        <time>2020-07-16T06:38:49Z</time>
      </trkpt>
      <trkpt lat="37.8447800" lon="-3.3152850">
        <ele>606.0</ele>
        <time>2020-07-16T06:38:52Z</time>
      </trkpt>
      <trkpt lat="37.8447850" lon="-3.3153410">
        <ele>606.4</ele>
        <time>2020-07-16T06:38:53Z</time>
      </trkpt>
      <trkpt lat="37.8448140" lon="-3.3156140">
        <ele>606.8</ele>
        <time>2020-07-16T06:38:58Z</time>
      </trkpt>
      <trkpt lat="37.8448580" lon="-3.3158280">
        <ele>607.4</ele>
        <time>2020-07-16T06:39:02Z</time>
      </trkpt>
      <trkpt lat="37.8449040" lon="-3.3159650">
        <ele>608.2</ele>
        <time>2020-07-16T06:39:05Z</time>
      </trkpt>
      <trkpt lat="37.8449240" lon="-3.3160060">
        <ele>608.6</ele>
        <time>2020-07-16T06:39:06Z</time>
      </trkpt>
      <trkpt lat="37.8450130" lon="-3.3161520">
        <ele>610.0</ele>
        <time>2020-07-16T06:39:10Z</time>
      </trkpt>
      <trkpt lat="37.8450600" lon="-3.3162270">
        <ele>610.8</ele>
        <time>2020-07-16T06:39:12Z</time>
      </trkpt>
      <trkpt lat="37.8450850" lon="-3.3162690">
        <ele>611.0</ele>
        <time>2020-07-16T06:39:13Z</time>
      </trkpt>
      <trkpt lat="37.8452180" lon="-3.3164980">
        <ele>611.8</ele>
        <time>2020-07-16T06:39:18Z</time>
      </trkpt>
      <trkpt lat="37.8452850" lon="-3.3166680">
        <ele>612.2</ele>
        <time>2020-07-16T06:39:21Z</time>
      </trkpt>
      <trkpt lat="37.8453570" lon="-3.3169000">
        <ele>612.6</ele>
        <time>2020-07-16T06:39:25Z</time>
      </trkpt>
      <trkpt lat="37.8453980" lon="-3.3171460">
        <ele>613.2</ele>
        <time>2020-07-16T06:39:29Z</time>
      </trkpt>
      <trkpt lat="37.8454020" lon="-3.3172970">
        <ele>613.6</ele>
        <time>2020-07-16T06:39:31Z</time>
      </trkpt>
      <trkpt lat="37.8454020" lon="-3.3175470">
        <ele>613.6</ele>
        <time>2020-07-16T06:39:34Z</time>
      </trkpt>
      <trkpt lat="37.8453990" lon="-3.3177680">
        <ele>613.0</ele>
        <time>2020-07-16T06:39:36Z</time>
      </trkpt>
      <trkpt lat="37.8453960" lon="-3.3179780">
        <ele>612.2</ele>
        <time>2020-07-16T06:39:38Z</time>
      </trkpt>
      <trkpt lat="37.8453840" lon="-3.3183260">
        <ele>611.0</ele>
        <time>2020-07-16T06:39:41Z</time>
      </trkpt>
      <trkpt lat="37.8453770" lon="-3.3184420">
        <ele>610.6</ele>
        <time>2020-07-16T06:39:42Z</time>
      </trkpt>
      <trkpt lat="37.8453600" lon="-3.3186700">
        <ele>609.8</ele>
        <time>2020-07-16T06:39:44Z</time>
      </trkpt>
      <trkpt lat="37.8453460" lon="-3.3188800">
        <ele>609.4</ele>
        <time>2020-07-16T06:39:46Z</time>
      </trkpt>
      <trkpt lat="37.8453240" lon="-3.3192080">
        <ele>608.8</ele>
        <time>2020-07-16T06:39:49Z</time>
      </trkpt>
      <trkpt lat="37.8453090" lon="-3.3194170">
        <ele>608.4</ele>
        <time>2020-07-16T06:39:51Z</time>
      </trkpt>
      <trkpt lat="37.8452490" lon="-3.3201820">
        <ele>608.4</ele>
        <time>2020-07-16T06:39:59Z</time>
      </trkpt>
      <trkpt lat="37.8452340" lon="-3.3203570">
        <ele>609.0</ele>
        <time>2020-07-16T06:40:01Z</time>
      </trkpt>
      <trkpt lat="37.8452160" lon="-3.3206030">
        <ele>610.0</ele>
        <time>2020-07-16T06:40:04Z</time>
      </trkpt>
      <trkpt lat="37.8452020" lon="-3.3208480">
        <ele>610.4</ele>
        <time>2020-07-16T06:40:07Z</time>
      </trkpt>
      <trkpt lat="37.8451720" lon="-3.3212310">
        <ele>611.2</ele>
        <time>2020-07-16T06:40:12Z</time>
      </trkpt>
      <trkpt lat="37.8451560" lon="-3.3214790">
        <ele>612.0</ele>
        <time>2020-07-16T06:40:15Z</time>
      </trkpt>
      <trkpt lat="37.8451480" lon="-3.3215630">
        <ele>612.4</ele>
        <time>2020-07-16T06:40:16Z</time>
      </trkpt>
      <trkpt lat="37.8451310" lon="-3.3218520">
        <ele>612.4</ele>
        <time>2020-07-16T06:40:19Z</time>
      </trkpt>
      <trkpt lat="37.8451270" lon="-3.3220560">
        <ele>612.0</ele>
        <time>2020-07-16T06:40:21Z</time>
      </trkpt>
      <trkpt lat="37.8451150" lon="-3.3225180">
        <ele>611.2</ele>
        <time>2020-07-16T06:40:25Z</time>
      </trkpt>
      <trkpt lat="37.8451110" lon="-3.3227690">
        <ele>610.6</ele>
        <time>2020-07-16T06:40:27Z</time>
      </trkpt>
      <trkpt lat="37.8451170" lon="-3.3230340">
        <ele>609.8</ele>
        <time>2020-07-16T06:40:29Z</time>
      </trkpt>
      <trkpt lat="37.8451210" lon="-3.3231700">
        <ele>609.4</ele>
        <time>2020-07-16T06:40:30Z</time>
      </trkpt>
      <trkpt lat="37.8451240" lon="-3.3233020">
        <ele>608.8</ele>
        <time>2020-07-16T06:40:31Z</time>
      </trkpt>
      <trkpt lat="37.8451260" lon="-3.3234430">
        <ele>608.2</ele>
        <time>2020-07-16T06:40:32Z</time>
      </trkpt>
      <trkpt lat="37.8451340" lon="-3.3237150">
        <ele>607.6</ele>
        <time>2020-07-16T06:40:34Z</time>
      </trkpt>
      <trkpt lat="37.8451470" lon="-3.3239990">
        <ele>606.6</ele>
        <time>2020-07-16T06:40:36Z</time>
      </trkpt>
      <trkpt lat="37.8451530" lon="-3.3241420">
        <ele>606.2</ele>
        <time>2020-07-16T06:40:37Z</time>
      </trkpt>
      <trkpt lat="37.8451620" lon="-3.3244250">
        <ele>605.0</ele>
        <time>2020-07-16T06:40:39Z</time>
      </trkpt>
      <trkpt lat="37.8451690" lon="-3.3247090">
        <ele>603.8</ele>
        <time>2020-07-16T06:40:41Z</time>
      </trkpt>
      <trkpt lat="37.8451770" lon="-3.3249850">
        <ele>602.6</ele>
        <time>2020-07-16T06:40:43Z</time>
      </trkpt>
      <trkpt lat="37.8451760" lon="-3.3252720">
        <ele>601.6</ele>
        <time>2020-07-16T06:40:45Z</time>
      </trkpt>
      <trkpt lat="37.8451740" lon="-3.3254080">
        <ele>601.2</ele>
        <time>2020-07-16T06:40:46Z</time>
      </trkpt>
      <trkpt lat="37.8451650" lon="-3.3258350">
        <ele>600.0</ele>
        <time>2020-07-16T06:40:49Z</time>
      </trkpt>
      <trkpt lat="37.8451560" lon="-3.3261070">
        <ele>599.0</ele>
        <time>2020-07-16T06:40:51Z</time>
      </trkpt>
      <trkpt lat="37.8451510" lon="-3.3262420">
        <ele>598.6</ele>
        <time>2020-07-16T06:40:52Z</time>
      </trkpt>
      <trkpt lat="37.8451340" lon="-3.3267920">
        <ele>597.2</ele>
        <time>2020-07-16T06:40:56Z</time>
      </trkpt>
      <trkpt lat="37.8451250" lon="-3.3271990">
        <ele>596.2</ele>
        <time>2020-07-16T06:40:59Z</time>
      </trkpt>
      <trkpt lat="37.8451080" lon="-3.3277120">
        <ele>595.0</ele>
        <time>2020-07-16T06:41:03Z</time>
      </trkpt>
      <trkpt lat="37.8450830" lon="-3.3283580">
        <ele>594.0</ele>
        <time>2020-07-16T06:41:08Z</time>
      </trkpt>
      <trkpt lat="37.8450660" lon="-3.3287420">
        <ele>593.6</ele>
        <time>2020-07-16T06:41:11Z</time>
      </trkpt>
      <trkpt lat="37.8450380" lon="-3.3294620">
        <ele>593.8</ele>
        <time>2020-07-16T06:41:17Z</time>
      </trkpt>
      <trkpt lat="37.8450280" lon="-3.3296860">
        <ele>593.8</ele>
        <time>2020-07-16T06:41:19Z</time>
      </trkpt>
      <trkpt lat="37.8450140" lon="-3.3301160">
        <ele>593.8</ele>
        <time>2020-07-16T06:41:23Z</time>
      </trkpt>
      <trkpt lat="37.8450080" lon="-3.3304390">
        <ele>593.6</ele>
        <time>2020-07-16T06:41:26Z</time>
      </trkpt>
      <trkpt lat="37.8450030" lon="-3.3308770">
        <ele>593.0</ele>
        <time>2020-07-16T06:41:30Z</time>
      </trkpt>
      <trkpt lat="37.8450010" lon="-3.3309870">
        <ele>592.8</ele>
        <time>2020-07-16T06:41:31Z</time>
      </trkpt>
      <trkpt lat="37.8449930" lon="-3.3315350">
        <ele>592.8</ele>
        <time>2020-07-16T06:41:36Z</time>
      </trkpt>
      <trkpt lat="37.8449890" lon="-3.3317410">
        <ele>593.0</ele>
        <time>2020-07-16T06:41:38Z</time>
      </trkpt>
      <trkpt lat="37.8449720" lon="-3.3324270">
        <ele>593.2</ele>
        <time>2020-07-16T06:41:45Z</time>
      </trkpt>
      <trkpt lat="37.8449620" lon="-3.3328190">
        <ele>593.8</ele>
        <time>2020-07-16T06:41:49Z</time>
      </trkpt>
      <trkpt lat="37.8449540" lon="-3.3332490">
        <ele>593.6</ele>
        <time>2020-07-16T06:41:53Z</time>
      </trkpt>
      <trkpt lat="37.8449520" lon="-3.3336030">
        <ele>592.8</ele>
        <time>2020-07-16T06:41:56Z</time>
      </trkpt>
      <trkpt lat="37.8449810" lon="-3.3340850">
        <ele>592.2</ele>
        <time>2020-07-16T06:42:00Z</time>
      </trkpt>
      <trkpt lat="37.8450500" lon="-3.3345560">
        <ele>591.6</ele>
        <time>2020-07-16T06:42:04Z</time>
      </trkpt>
      <trkpt lat="37.8450970" lon="-3.3347960">
        <ele>591.0</ele>
        <time>2020-07-16T06:42:06Z</time>
      </trkpt>
      <trkpt lat="37.8451410" lon="-3.3350110">
        <ele>590.6</ele>
        <time>2020-07-16T06:42:08Z</time>
      </trkpt>
      <trkpt lat="37.8452230" lon="-3.3354300">
        <ele>591.8</ele>
        <time>2020-07-16T06:42:12Z</time>
      </trkpt>
      <trkpt lat="37.8452410" lon="-3.3355190">
        <ele>592.0</ele>
        <time>2020-07-16T06:42:13Z</time>
      </trkpt>
      <trkpt lat="37.8452980" lon="-3.3359620">
        <ele>592.8</ele>
        <time>2020-07-16T06:42:18Z</time>
      </trkpt>
      <trkpt lat="37.8453100" lon="-3.3360500">
        <ele>593.2</ele>
        <time>2020-07-16T06:42:19Z</time>
      </trkpt>
      <trkpt lat="37.8453710" lon="-3.3365180">
        <ele>594.0</ele>
        <time>2020-07-16T06:42:25Z</time>
      </trkpt>
      <trkpt lat="37.8453850" lon="-3.3365940">
        <ele>594.2</ele>
        <time>2020-07-16T06:42:26Z</time>
      </trkpt>
      <trkpt lat="37.8454530" lon="-3.3370530">
        <ele>595.0</ele>
        <time>2020-07-16T06:42:32Z</time>
      </trkpt>
      <trkpt lat="37.8455130" lon="-3.3374240">
        <ele>595.4</ele>
        <time>2020-07-16T06:42:37Z</time>
      </trkpt>
      <trkpt lat="37.8455550" lon="-3.3377140">
        <ele>595.8</ele>
        <time>2020-07-16T06:42:41Z</time>
      </trkpt>
      <trkpt lat="37.8456530" lon="-3.3384520">
        <ele>596.4</ele>
        <time>2020-07-16T06:42:51Z</time>
      </trkpt>
      <trkpt lat="37.8456660" lon="-3.3385230">
        <ele>596.4</ele>
        <time>2020-07-16T06:42:52Z</time>
      </trkpt>
      <trkpt lat="37.8457560" lon="-3.3390950">
        <ele>597.2</ele>
        <time>2020-07-16T06:42:59Z</time>
      </trkpt>
      <trkpt lat="37.8458320" lon="-3.3397310">
        <ele>596.2</ele>
        <time>2020-07-16T06:43:06Z</time>
      </trkpt>
      <trkpt lat="37.8458540" lon="-3.3399100">
        <ele>596.2</ele>
        <time>2020-07-16T06:43:08Z</time>
      </trkpt>
      <trkpt lat="37.8458540" lon="-3.3399960">
        <ele>596.2</ele>
        <time>2020-07-16T06:43:09Z</time>
      </trkpt>
      <trkpt lat="37.8457960" lon="-3.3401280">
        <ele>595.8</ele>
        <time>2020-07-16T06:43:11Z</time>
      </trkpt>
      <trkpt lat="37.8457070" lon="-3.3402160">
        <ele>595.6</ele>
        <time>2020-07-16T06:43:13Z</time>
      </trkpt>
      <trkpt lat="37.8456680" lon="-3.3402720">
        <ele>595.6</ele>
        <time>2020-07-16T06:43:14Z</time>
      </trkpt>
      <trkpt lat="37.8455710" lon="-3.3404130">
        <ele>596.0</ele>
        <time>2020-07-16T06:43:17Z</time>
      </trkpt>
      <trkpt lat="37.8454870" lon="-3.3405510">
        <ele>596.6</ele>
        <time>2020-07-16T06:43:20Z</time>
      </trkpt>
      <trkpt lat="37.8454430" lon="-3.3406440">
        <ele>597.4</ele>
        <time>2020-07-16T06:43:22Z</time>
      </trkpt>
      <trkpt lat="37.8454220" lon="-3.3406950">
        <ele>597.8</ele>
        <time>2020-07-16T06:43:23Z</time>
      </trkpt>
      <trkpt lat="37.8453440" lon="-3.3408940">
        <ele>598.6</ele>
        <time>2020-07-16T06:43:27Z</time>
      </trkpt>
      <trkpt lat="37.8452920" lon="-3.3410490">
        <ele>598.8</ele>
        <time>2020-07-16T06:43:30Z</time>
      </trkpt>
      <trkpt lat="37.8452090" lon="-3.3412960">
        <ele>599.8</ele>
        <time>2020-07-16T06:43:35Z</time>
      </trkpt>
      <trkpt lat="37.8451630" lon="-3.3414450">
        <ele>600.8</ele>
        <time>2020-07-16T06:43:38Z</time>
      </trkpt>
      <trkpt lat="37.8451460" lon="-3.3414960">
        <ele>601.0</ele>
        <time>2020-07-16T06:43:39Z</time>
      </trkpt>
      <trkpt lat="37.8450920" lon="-3.3416330">
        <ele>601.8</ele>
        <time>2020-07-16T06:43:42Z</time>
      </trkpt>
      <trkpt lat="37.8450710" lon="-3.3416720">
        <ele>602.0</ele>
        <time>2020-07-16T06:43:43Z</time>
      </trkpt>
      <trkpt lat="37.8450450" lon="-3.3417160">
        <ele>602.4</ele>
        <time>2020-07-16T06:43:44Z</time>
      </trkpt>
      <trkpt lat="37.8449380" lon="-3.3418660">
        <ele>603.2</ele>
        <time>2020-07-16T06:43:48Z</time>
      </trkpt>
      <trkpt lat="37.8448590" lon="-3.3419660">
        <ele>603.6</ele>
        <time>2020-07-16T06:43:51Z</time>
      </trkpt>
      <trkpt lat="37.8447280" lon="-3.3421300">
        <ele>604.2</ele>
        <time>2020-07-16T06:43:56Z</time>
      </trkpt>
      <trkpt lat="37.8445700" lon="-3.3423240">
        <ele>605.4</ele>
        <time>2020-07-16T06:44:02Z</time>
      </trkpt>
      <trkpt lat="37.8443910" lon="-3.3425520">
        <ele>606.4</ele>
        <time>2020-07-16T06:44:09Z</time>
      </trkpt>
      <trkpt lat="37.8442630" lon="-3.3427160">
        <ele>607.0</ele>
        <time>2020-07-16T06:44:14Z</time>
      </trkpt>
      <trkpt lat="37.8441580" lon="-3.3428460">
        <ele>607.6</ele>
        <time>2020-07-16T06:44:18Z</time>
      </trkpt>
      <trkpt lat="37.8439970" lon="-3.3430430">
        <ele>608.6</ele>
        <time>2020-07-16T06:44:24Z</time>
      </trkpt>
      <trkpt lat="37.8439710" lon="-3.3430740">
        <ele>608.8</ele>
        <time>2020-07-16T06:44:25Z</time>
      </trkpt>
      <trkpt lat="37.8438450" lon="-3.3432240">
        <ele>609.6</ele>
        <time>2020-07-16T06:44:30Z</time>
      </trkpt>
      <trkpt lat="37.8437520" lon="-3.3433320">
        <ele>610.2</ele>
        <time>2020-07-16T06:44:34Z</time>
      </trkpt>
      <trkpt lat="37.8436850" lon="-3.3434170">
        <ele>611.0</ele>
        <time>2020-07-16T06:44:37Z</time>
      </trkpt>
      <trkpt lat="37.8436230" lon="-3.3434930">
        <ele>612.0</ele>
        <time>2020-07-16T06:44:40Z</time>
      </trkpt>
      <trkpt lat="37.8435380" lon="-3.3435920">
        <ele>613.2</ele>
        <time>2020-07-16T06:44:44Z</time>
      </trkpt>
      <trkpt lat="37.8434300" lon="-3.3437130">
        <ele>614.4</ele>
        <time>2020-07-16T06:44:49Z</time>
      </trkpt>
      <trkpt lat="37.8433700" lon="-3.3437720">
        <ele>615.6</ele>
        <time>2020-07-16T06:44:52Z</time>
      </trkpt>
      <trkpt lat="37.8433250" lon="-3.3438390">
        <ele>616.8</ele>
        <time>2020-07-16T06:44:55Z</time>
      </trkpt>
      <trkpt lat="37.8432270" lon="-3.3439470">
        <ele>618.0</ele>
        <time>2020-07-16T06:45:01Z</time>
      </trkpt>
      <trkpt lat="37.8431980" lon="-3.3439650">
        <ele>618.2</ele>
        <time>2020-07-16T06:45:02Z</time>
      </trkpt>
      <trkpt lat="37.8430040" lon="-3.3439960">
        <ele>618.6</ele>
        <time>2020-07-16T06:45:07Z</time>
      </trkpt>
      <trkpt lat="37.8426630" lon="-3.3439920">
        <ele>618.6</ele>
        <time>2020-07-16T06:45:14Z</time>
      </trkpt>
      <trkpt lat="37.8425680" lon="-3.3439890">
        <ele>618.2</ele>
        <time>2020-07-16T06:45:16Z</time>
      </trkpt>
      <trkpt lat="37.8423180" lon="-3.3439890">
        <ele>618.4</ele>
        <time>2020-07-16T06:45:21Z</time>
      </trkpt>
      <trkpt lat="37.8421180" lon="-3.3439920">
        <ele>618.2</ele>
        <time>2020-07-16T06:45:25Z</time>
      </trkpt>
      <trkpt lat="37.8420700" lon="-3.3439930">
        <ele>618.2</ele>
        <time>2020-07-16T06:45:26Z</time>
      </trkpt>
      <trkpt lat="37.8418630" lon="-3.3440050">
        <ele>618.4</ele>
        <time>2020-07-16T06:45:30Z</time>
      </trkpt>
      <trkpt lat="37.8417120" lon="-3.3440140">
        <ele>618.4</ele>
        <time>2020-07-16T06:45:33Z</time>
      </trkpt>
      <trkpt lat="37.8414600" lon="-3.3440410">
        <ele>618.6</ele>
        <time>2020-07-16T06:45:38Z</time>
      </trkpt>
      <trkpt lat="37.8411580" lon="-3.3440800">
        <ele>619.0</ele>
        <time>2020-07-16T06:45:44Z</time>
      </trkpt>
      <trkpt lat="37.8410100" lon="-3.3441080">
        <ele>619.6</ele>
        <time>2020-07-16T06:45:47Z</time>
      </trkpt>
      <trkpt lat="37.8407270" lon="-3.3441640">
        <ele>620.2</ele>
        <time>2020-07-16T06:45:53Z</time>
      </trkpt>
      <trkpt lat="37.8404480" lon="-3.3442290">
        <ele>621.0</ele>
        <time>2020-07-16T06:45:59Z</time>
      </trkpt>
      <trkpt lat="37.8403590" lon="-3.3442530">
        <ele>621.2</ele>
        <time>2020-07-16T06:46:01Z</time>
      </trkpt>
      <trkpt lat="37.8400460" lon="-3.3443420">
        <ele>622.2</ele>
        <time>2020-07-16T06:46:08Z</time>
      </trkpt>
      <trkpt lat="37.8398710" lon="-3.3444050">
        <ele>623.0</ele>
        <time>2020-07-16T06:46:12Z</time>
      </trkpt>
      <trkpt lat="37.8397850" lon="-3.3444350">
        <ele>623.2</ele>
        <time>2020-07-16T06:46:14Z</time>
      </trkpt>
      <trkpt lat="37.8394910" lon="-3.3445450">
        <ele>624.4</ele>
        <time>2020-07-16T06:46:21Z</time>
      </trkpt>
      <trkpt lat="37.8393260" lon="-3.3446120">
        <ele>625.0</ele>
        <time>2020-07-16T06:46:25Z</time>
      </trkpt>
      <trkpt lat="37.8392480" lon="-3.3446490">
        <ele>625.6</ele>
        <time>2020-07-16T06:46:27Z</time>
      </trkpt>
      <trkpt lat="37.8390990" lon="-3.3447180">
        <ele>626.6</ele>
        <time>2020-07-16T06:46:31Z</time>
      </trkpt>
      <trkpt lat="37.8389890" lon="-3.3447710">
        <ele>626.8</ele>
        <time>2020-07-16T06:46:34Z</time>
      </trkpt>
      <trkpt lat="37.8388050" lon="-3.3448610">
        <ele>627.6</ele>
        <time>2020-07-16T06:46:39Z</time>
      </trkpt>
      <trkpt lat="37.8385230" lon="-3.3450050">
        <ele>628.4</ele>
        <time>2020-07-16T06:46:47Z</time>
      </trkpt>
      <trkpt lat="37.8384220" lon="-3.3450670">
        <ele>628.8</ele>
        <time>2020-07-16T06:46:50Z</time>
      </trkpt>
      <trkpt lat="37.8382570" lon="-3.3451720">
        <ele>629.8</ele>
        <time>2020-07-16T06:46:55Z</time>
      </trkpt>
      <trkpt lat="37.8381920" lon="-3.3452130">
        <ele>630.2</ele>
        <time>2020-07-16T06:46:57Z</time>
      </trkpt>
      <trkpt lat="37.8380700" lon="-3.3453070">
        <ele>631.0</ele>
        <time>2020-07-16T06:47:01Z</time>
      </trkpt>
      <trkpt lat="37.8379170" lon="-3.3454200">
        <ele>631.6</ele>
        <time>2020-07-16T06:47:06Z</time>
      </trkpt>
      <trkpt lat="37.8377280" lon="-3.3455500">
        <ele>632.0</ele>
        <time>2020-07-16T06:47:12Z</time>
      </trkpt>
      <trkpt lat="37.8376070" lon="-3.3456470">
        <ele>632.8</ele>
        <time>2020-07-16T06:47:16Z</time>
      </trkpt>
      <trkpt lat="37.8375520" lon="-3.3456990">
        <ele>633.2</ele>
        <time>2020-07-16T06:47:18Z</time>
      </trkpt>
      <trkpt lat="37.8374140" lon="-3.3458760">
        <ele>634.0</ele>
        <time>2020-07-16T06:47:24Z</time>
      </trkpt>
      <trkpt lat="37.8373690" lon="-3.3459310">
        <ele>634.4</ele>
        <time>2020-07-16T06:47:26Z</time>
      </trkpt>
      <trkpt lat="37.8373030" lon="-3.3460070">
        <ele>635.2</ele>
        <time>2020-07-16T06:47:30Z</time>
      </trkpt>
      <trkpt lat="37.8372610" lon="-3.3460220">
        <ele>635.4</ele>
        <time>2020-07-16T06:47:32Z</time>
      </trkpt>
      <trkpt lat="37.8372160" lon="-3.3460270">
        <ele>635.8</ele>
        <time>2020-07-16T06:47:34Z</time>
      </trkpt>
      <trkpt lat="37.8371380" lon="-3.3460260">
        <ele>636.0</ele>
        <time>2020-07-16T06:47:37Z</time>
      </trkpt>
      <trkpt lat="37.8370570" lon="-3.3460280">
        <ele>636.4</ele>
        <time>2020-07-16T06:47:40Z</time>
      </trkpt>
      <trkpt lat="37.8369190" lon="-3.3460750">
        <ele>637.2</ele>
        <time>2020-07-16T06:47:45Z</time>
      </trkpt>
      <trkpt lat="37.8367410" lon="-3.3462210">
        <ele>637.4</ele>
        <time>2020-07-16T06:47:52Z</time>
      </trkpt>
      <trkpt lat="37.8366880" lon="-3.3462610">
        <ele>637.4</ele>
        <time>2020-07-16T06:47:54Z</time>
      </trkpt>
      <trkpt lat="37.8365240" lon="-3.3463900">
        <ele>638.6</ele>
        <time>2020-07-16T06:48:00Z</time>
      </trkpt>
      <trkpt lat="37.8364970" lon="-3.3464120">
        <ele>638.8</ele>
        <time>2020-07-16T06:48:01Z</time>
      </trkpt>
      <trkpt lat="37.8363140" lon="-3.3465480">
        <ele>639.8</ele>
        <time>2020-07-16T06:48:07Z</time>
      </trkpt>
      <trkpt lat="37.8361850" lon="-3.3466430">
        <ele>640.6</ele>
        <time>2020-07-16T06:48:11Z</time>
      </trkpt>
      <trkpt lat="37.8360870" lon="-3.3467150">
        <ele>641.0</ele>
        <time>2020-07-16T06:48:14Z</time>
      </trkpt>
      <trkpt lat="37.8359460" lon="-3.3468170">
        <ele>642.0</ele>
        <time>2020-07-16T06:48:18Z</time>
      </trkpt>
      <trkpt lat="37.8358750" lon="-3.3468740">
        <ele>642.4</ele>
        <time>2020-07-16T06:48:20Z</time>
      </trkpt>
      <trkpt lat="37.8357090" lon="-3.3470170">
        <ele>643.2</ele>
        <time>2020-07-16T06:48:25Z</time>
      </trkpt>
      <trkpt lat="37.8355170" lon="-3.3471870">
        <ele>643.8</ele>
        <time>2020-07-16T06:48:31Z</time>
      </trkpt>
      <trkpt lat="37.8354210" lon="-3.3472700">
        <ele>644.2</ele>
        <time>2020-07-16T06:48:34Z</time>
      </trkpt>
      <trkpt lat="37.8352380" lon="-3.3474150">
        <ele>645.2</ele>
        <time>2020-07-16T06:48:40Z</time>
      </trkpt>
      <trkpt lat="37.8352130" lon="-3.3474380">
        <ele>645.4</ele>
        <time>2020-07-16T06:48:41Z</time>
      </trkpt>
      <trkpt lat="37.8349790" lon="-3.3476250">
        <ele>646.6</ele>
        <time>2020-07-16T06:48:48Z</time>
      </trkpt>
      <trkpt lat="37.8349130" lon="-3.3476780">
        <ele>646.8</ele>
        <time>2020-07-16T06:48:50Z</time>
      </trkpt>
      <trkpt lat="37.8347210" lon="-3.3478290">
        <ele>647.6</ele>
        <time>2020-07-16T06:48:56Z</time>
      </trkpt>
      <trkpt lat="37.8345300" lon="-3.3479800">
        <ele>648.8</ele>
        <time>2020-07-16T06:49:02Z</time>
      </trkpt>
      <trkpt lat="37.8344680" lon="-3.3480260">
        <ele>649.2</ele>
        <time>2020-07-16T06:49:04Z</time>
      </trkpt>
      <trkpt lat="37.8343470" lon="-3.3481140">
        <ele>649.8</ele>
        <time>2020-07-16T06:49:08Z</time>
      </trkpt>
      <trkpt lat="37.8342010" lon="-3.3482360">
        <ele>650.6</ele>
        <time>2020-07-16T06:49:13Z</time>
      </trkpt>
      <trkpt lat="37.8341370" lon="-3.3482810">
        <ele>650.8</ele>
        <time>2020-07-16T06:49:15Z</time>
      </trkpt>
      <trkpt lat="37.8339830" lon="-3.3483920">
        <ele>651.4</ele>
        <time>2020-07-16T06:49:20Z</time>
      </trkpt>
      <trkpt lat="37.8338620" lon="-3.3484760">
        <ele>652.0</ele>
        <time>2020-07-16T06:49:24Z</time>
      </trkpt>
      <trkpt lat="37.8337420" lon="-3.3485610">
        <ele>653.2</ele>
        <time>2020-07-16T06:49:28Z</time>
      </trkpt>
      <trkpt lat="37.8336780" lon="-3.3486070">
        <ele>653.6</ele>
        <time>2020-07-16T06:49:30Z</time>
      </trkpt>
      <trkpt lat="37.8335550" lon="-3.3486960">
        <ele>654.2</ele>
        <time>2020-07-16T06:49:34Z</time>
      </trkpt>
      <trkpt lat="37.8333410" lon="-3.3488450">
        <ele>655.0</ele>
        <time>2020-07-16T06:49:41Z</time>
      </trkpt>
      <trkpt lat="37.8332820" lon="-3.3488940">
        <ele>655.2</ele>
        <time>2020-07-16T06:49:43Z</time>
      </trkpt>
      <trkpt lat="37.8330940" lon="-3.3490330">
        <ele>656.6</ele>
        <time>2020-07-16T06:49:49Z</time>
      </trkpt>
      <trkpt lat="37.8330620" lon="-3.3490550">
        <ele>656.8</ele>
        <time>2020-07-16T06:49:50Z</time>
      </trkpt>
      <trkpt lat="37.8329380" lon="-3.3491500">
        <ele>657.2</ele>
        <time>2020-07-16T06:49:54Z</time>
      </trkpt>
      <trkpt lat="37.8328380" lon="-3.3492270">
        <ele>657.6</ele>
        <time>2020-07-16T06:49:57Z</time>
      </trkpt>
      <trkpt lat="37.8327740" lon="-3.3492750">
        <ele>658.0</ele>
        <time>2020-07-16T06:49:59Z</time>
      </trkpt>
      <trkpt lat="37.8326210" lon="-3.3493910">
        <ele>658.8</ele>
        <time>2020-07-16T06:50:04Z</time>
      </trkpt>
      <trkpt lat="37.8324440" lon="-3.3495260">
        <ele>659.8</ele>
        <time>2020-07-16T06:50:10Z</time>
      </trkpt>
      <trkpt lat="37.8324130" lon="-3.3495510">
        <ele>660.0</ele>
        <time>2020-07-16T06:50:11Z</time>
      </trkpt>
      <trkpt lat="37.8322680" lon="-3.3496610">
        <ele>661.0</ele>
        <time>2020-07-16T06:50:16Z</time>
      </trkpt>
      <trkpt lat="37.8321230" lon="-3.3497760">
        <ele>662.0</ele>
        <time>2020-07-16T06:50:21Z</time>
      </trkpt>
      <trkpt lat="37.8320940" lon="-3.3497970">
        <ele>662.2</ele>
        <time>2020-07-16T06:50:22Z</time>
      </trkpt>
      <trkpt lat="37.8319250" lon="-3.3499290">
        <ele>663.2</ele>
        <time>2020-07-16T06:50:28Z</time>
      </trkpt>
      <trkpt lat="37.8317740" lon="-3.3500430">
        <ele>664.2</ele>
        <time>2020-07-16T06:50:33Z</time>
      </trkpt>
      <trkpt lat="37.8317460" lon="-3.3500660">
        <ele>664.4</ele>
        <time>2020-07-16T06:50:34Z</time>
      </trkpt>
      <trkpt lat="37.8315730" lon="-3.3502040">
        <ele>665.4</ele>
        <time>2020-07-16T06:50:40Z</time>
      </trkpt>
      <trkpt lat="37.8314290" lon="-3.3503190">
        <ele>666.4</ele>
        <time>2020-07-16T06:50:45Z</time>
      </trkpt>
      <trkpt lat="37.8314030" lon="-3.3503380">
        <ele>666.4</ele>
        <time>2020-07-16T06:50:46Z</time>
      </trkpt>
      <trkpt lat="37.8311350" lon="-3.3505440">
        <ele>667.6</ele>
        <time>2020-07-16T06:50:55Z</time>
      </trkpt>
      <trkpt lat="37.8311070" lon="-3.3505660">
        <ele>668.0</ele>
        <time>2020-07-16T06:50:56Z</time>
      </trkpt>
      <trkpt lat="37.8309880" lon="-3.3506620">
        <ele>668.8</ele>
        <time>2020-07-16T06:51:00Z</time>
      </trkpt>
      <trkpt lat="37.8308390" lon="-3.3507750">
        <ele>670.0</ele>
        <time>2020-07-16T06:51:05Z</time>
      </trkpt>
      <trkpt lat="37.8307810" lon="-3.3508210">
        <ele>670.6</ele>
        <time>2020-07-16T06:51:07Z</time>
      </trkpt>
      <trkpt lat="37.8307240" lon="-3.3508670">
        <ele>671.0</ele>
        <time>2020-07-16T06:51:09Z</time>
      </trkpt>
      <trkpt lat="37.8305500" lon="-3.3510040">
        <ele>672.0</ele>
        <time>2020-07-16T06:51:15Z</time>
      </trkpt>
      <trkpt lat="37.8304050" lon="-3.3511250">
        <ele>672.8</ele>
        <time>2020-07-16T06:51:20Z</time>
      </trkpt>
      <trkpt lat="37.8302880" lon="-3.3512250">
        <ele>673.2</ele>
        <time>2020-07-16T06:51:24Z</time>
      </trkpt>
      <trkpt lat="37.8300880" lon="-3.3514080">
        <ele>674.2</ele>
        <time>2020-07-16T06:51:31Z</time>
      </trkpt>
      <trkpt lat="37.8300600" lon="-3.3514380">
        <ele>674.2</ele>
        <time>2020-07-16T06:51:32Z</time>
      </trkpt>
      <trkpt lat="37.8299210" lon="-3.3515760">
        <ele>675.2</ele>
        <time>2020-07-16T06:51:37Z</time>
      </trkpt>
      <trkpt lat="37.8298400" lon="-3.3516640">
        <ele>676.0</ele>
        <time>2020-07-16T06:51:40Z</time>
      </trkpt>
      <trkpt lat="37.8296800" lon="-3.3518410">
        <ele>676.4</ele>
        <time>2020-07-16T06:51:46Z</time>
      </trkpt>
      <trkpt lat="37.8295320" lon="-3.3520450">
        <ele>677.0</ele>
        <time>2020-07-16T06:51:52Z</time>
      </trkpt>
      <trkpt lat="37.8293930" lon="-3.3522500">
        <ele>677.6</ele>
        <time>2020-07-16T06:51:58Z</time>
      </trkpt>
      <trkpt lat="37.8293220" lon="-3.3523640">
        <ele>678.8</ele>
        <time>2020-07-16T06:52:01Z</time>
      </trkpt>
      <trkpt lat="37.8293010" lon="-3.3524020">
        <ele>679.0</ele>
        <time>2020-07-16T06:52:02Z</time>
      </trkpt>
      <trkpt lat="37.8290910" lon="-3.3528120">
        <ele>679.2</ele>
        <time>2020-07-16T06:52:12Z</time>
      </trkpt>
      <trkpt lat="37.8290140" lon="-3.3529850">
        <ele>679.8</ele>
        <time>2020-07-16T06:52:16Z</time>
      </trkpt>
      <trkpt lat="37.8288820" lon="-3.3533560">
        <ele>681.2</ele>
        <time>2020-07-16T06:52:24Z</time>
      </trkpt>
      <trkpt lat="37.8287830" lon="-3.3536930">
        <ele>682.2</ele>
        <time>2020-07-16T06:52:31Z</time>
      </trkpt>
      <trkpt lat="37.8287240" lon="-3.3539490">
        <ele>682.8</ele>
        <time>2020-07-16T06:52:36Z</time>
      </trkpt>
      <trkpt lat="37.8286550" lon="-3.3543820">
        <ele>683.4</ele>
        <time>2020-07-16T06:52:44Z</time>
      </trkpt>
      <trkpt lat="37.8286380" lon="-3.3545470">
        <ele>684.0</ele>
        <time>2020-07-16T06:52:47Z</time>
      </trkpt>
      <trkpt lat="37.8286160" lon="-3.3547690">
        <ele>684.4</ele>
        <time>2020-07-16T06:52:51Z</time>
      </trkpt>
      <trkpt lat="37.8286060" lon="-3.3551090">
        <ele>685.0</ele>
        <time>2020-07-16T06:52:57Z</time>
      </trkpt>
      <trkpt lat="37.8286150" lon="-3.3554560">
        <ele>685.4</ele>
        <time>2020-07-16T06:53:03Z</time>
      </trkpt>
      <trkpt lat="37.8286300" lon="-3.3556300">
        <ele>685.8</ele>
        <time>2020-07-16T06:53:06Z</time>
      </trkpt>
      <trkpt lat="37.8286570" lon="-3.3559170">
        <ele>686.4</ele>
        <time>2020-07-16T06:53:11Z</time>
      </trkpt>
      <trkpt lat="37.8287030" lon="-3.3562490">
        <ele>687.0</ele>
        <time>2020-07-16T06:53:17Z</time>
      </trkpt>
      <trkpt lat="37.8287530" lon="-3.3566460">
        <ele>687.6</ele>
        <time>2020-07-16T06:53:24Z</time>
      </trkpt>
      <trkpt lat="37.8287750" lon="-3.3568130">
        <ele>688.0</ele>
        <time>2020-07-16T06:53:27Z</time>
      </trkpt>
      <trkpt lat="37.8288160" lon="-3.3571370">
        <ele>688.6</ele>
        <time>2020-07-16T06:53:33Z</time>
      </trkpt>
      <trkpt lat="37.8288410" lon="-3.3573560">
        <ele>689.8</ele>
        <time>2020-07-16T06:53:37Z</time>
      </trkpt>
      <trkpt lat="37.8288460" lon="-3.3574090">
        <ele>690.0</ele>
        <time>2020-07-16T06:53:38Z</time>
      </trkpt>
      <trkpt lat="37.8288630" lon="-3.3576300">
        <ele>690.8</ele>
        <time>2020-07-16T06:53:42Z</time>
      </trkpt>
      <trkpt lat="37.8288660" lon="-3.3576800">
        <ele>690.8</ele>
        <time>2020-07-16T06:53:43Z</time>
      </trkpt>
      <trkpt lat="37.8288780" lon="-3.3578960">
        <ele>691.6</ele>
        <time>2020-07-16T06:53:47Z</time>
      </trkpt>
      <trkpt lat="37.8288830" lon="-3.3579450">
        <ele>691.8</ele>
        <time>2020-07-16T06:53:48Z</time>
      </trkpt>
      <trkpt lat="37.8288870" lon="-3.3579990">
        <ele>692.0</ele>
        <time>2020-07-16T06:53:49Z</time>
      </trkpt>
      <trkpt lat="37.8288950" lon="-3.3582090">
        <ele>693.2</ele>
        <time>2020-07-16T06:53:53Z</time>
      </trkpt>
      <trkpt lat="37.8288970" lon="-3.3584210">
        <ele>694.0</ele>
        <time>2020-07-16T06:53:57Z</time>
      </trkpt>
      <trkpt lat="37.8288970" lon="-3.3585800">
        <ele>694.2</ele>
        <time>2020-07-16T06:54:00Z</time>
      </trkpt>
      <trkpt lat="37.8288870" lon="-3.3588310">
        <ele>695.2</ele>
        <time>2020-07-16T06:54:05Z</time>
      </trkpt>
      <trkpt lat="37.8288840" lon="-3.3589270">
        <ele>695.6</ele>
        <time>2020-07-16T06:54:07Z</time>
      </trkpt>
      <trkpt lat="37.8288710" lon="-3.3591680">
        <ele>696.4</ele>
        <time>2020-07-16T06:54:12Z</time>
      </trkpt>
      <trkpt lat="37.8288510" lon="-3.3594090">
        <ele>697.4</ele>
        <time>2020-07-16T06:54:17Z</time>
      </trkpt>
      <trkpt lat="37.8288430" lon="-3.3595070">
        <ele>697.8</ele>
        <time>2020-07-16T06:54:19Z</time>
      </trkpt>
      <trkpt lat="37.8288270" lon="-3.3596510">
        <ele>698.4</ele>
        <time>2020-07-16T06:54:22Z</time>
      </trkpt>
      <trkpt lat="37.8287940" lon="-3.3599350">
        <ele>699.4</ele>
        <time>2020-07-16T06:54:28Z</time>
      </trkpt>
      <trkpt lat="37.8287790" lon="-3.3600340">
        <ele>700.0</ele>
        <time>2020-07-16T06:54:30Z</time>
      </trkpt>
      <trkpt lat="37.8287590" lon="-3.3601720">
        <ele>700.8</ele>
        <time>2020-07-16T06:54:33Z</time>
      </trkpt>
      <trkpt lat="37.8287040" lon="-3.3604930">
        <ele>702.0</ele>
        <time>2020-07-16T06:54:40Z</time>
      </trkpt>
      <trkpt lat="37.8286790" lon="-3.3606310">
        <ele>702.4</ele>
        <time>2020-07-16T06:54:43Z</time>
      </trkpt>
      <trkpt lat="37.8286110" lon="-3.3609470">
        <ele>703.0</ele>
        <time>2020-07-16T06:54:50Z</time>
      </trkpt>
      <trkpt lat="37.8285570" lon="-3.3611750">
        <ele>704.0</ele>
        <time>2020-07-16T06:54:55Z</time>
      </trkpt>
      <trkpt lat="37.8285450" lon="-3.3612200">
        <ele>704.2</ele>
        <time>2020-07-16T06:54:56Z</time>
      </trkpt>
      <trkpt lat="37.8284740" lon="-3.3614910">
        <ele>705.0</ele>
        <time>2020-07-16T06:55:02Z</time>
      </trkpt>
      <trkpt lat="37.8284100" lon="-3.3617080">
        <ele>705.6</ele>
        <time>2020-07-16T06:55:07Z</time>
      </trkpt>
      <trkpt lat="37.8283540" lon="-3.3618800">
        <ele>706.2</ele>
        <time>2020-07-16T06:55:11Z</time>
      </trkpt>
      <trkpt lat="37.8282320" lon="-3.3622330">
        <ele>707.0</ele>
        <time>2020-07-16T06:55:19Z</time>
      </trkpt>
      <trkpt lat="37.8282020" lon="-3.3623180">
        <ele>707.2</ele>
        <time>2020-07-16T06:55:21Z</time>
      </trkpt>
      <trkpt lat="37.8281370" lon="-3.3624840">
        <ele>707.8</ele>
        <time>2020-07-16T06:55:25Z</time>
      </trkpt>
      <trkpt lat="37.8280900" lon="-3.3626040">
        <ele>708.2</ele>
        <time>2020-07-16T06:55:28Z</time>
      </trkpt>
      <trkpt lat="37.8280080" lon="-3.3628170">
        <ele>708.8</ele>
        <time>2020-07-16T06:55:33Z</time>
      </trkpt>
      <trkpt lat="37.8279350" lon="-3.3629860">
        <ele>709.4</ele>
        <time>2020-07-16T06:55:37Z</time>
      </trkpt>
      <trkpt lat="37.8278190" lon="-3.3632330">
        <ele>710.2</ele>
        <time>2020-07-16T06:55:43Z</time>
      </trkpt>
      <trkpt lat="37.8277800" lon="-3.3633180">
        <ele>710.4</ele>
        <time>2020-07-16T06:55:45Z</time>
      </trkpt>
      <trkpt lat="37.8277600" lon="-3.3633570">
        <ele>710.4</ele>
        <time>2020-07-16T06:55:46Z</time>
      </trkpt>
      <trkpt lat="37.8275110" lon="-3.3638190">
        <ele>711.4</ele>
        <time>2020-07-16T06:55:57Z</time>
      </trkpt>
      <trkpt lat="37.8274920" lon="-3.3638560">
        <ele>711.6</ele>
        <time>2020-07-16T06:55:58Z</time>
      </trkpt>
      <trkpt lat="37.8272460" lon="-3.3642740">
        <ele>712.2</ele>
        <time>2020-07-16T06:56:08Z</time>
      </trkpt>
      <trkpt lat="37.8271910" lon="-3.3643570">
        <ele>712.2</ele>
        <time>2020-07-16T06:56:10Z</time>
      </trkpt>
      <trkpt lat="37.8271360" lon="-3.3644420">
        <ele>712.6</ele>
        <time>2020-07-16T06:56:12Z</time>
      </trkpt>
      <trkpt lat="37.8268580" lon="-3.3648460">
        <ele>713.2</ele>
        <time>2020-07-16T06:56:22Z</time>
      </trkpt>
      <trkpt lat="37.8267980" lon="-3.3649280">
        <ele>713.6</ele>
        <time>2020-07-16T06:56:24Z</time>
      </trkpt>
      <trkpt lat="37.8266280" lon="-3.3651680">
        <ele>714.6</ele>
        <time>2020-07-16T06:56:30Z</time>
      </trkpt>
      <trkpt lat="37.8265160" lon="-3.3653210">
        <ele>715.0</ele>
        <time>2020-07-16T06:56:34Z</time>
      </trkpt>
      <trkpt lat="37.8263790" lon="-3.3655140">
        <ele>715.6</ele>
        <time>2020-07-16T06:56:39Z</time>
      </trkpt>
      <trkpt lat="37.8262440" lon="-3.3657090">
        <ele>716.6</ele>
        <time>2020-07-16T06:56:44Z</time>
      </trkpt>
      <trkpt lat="37.8262170" lon="-3.3657460">
        <ele>716.6</ele>
        <time>2020-07-16T06:56:45Z</time>
      </trkpt>
      <trkpt lat="37.8261190" lon="-3.3658920">
        <ele>717.4</ele>
        <time>2020-07-16T06:56:49Z</time>
      </trkpt>
      <trkpt lat="37.8260940" lon="-3.3659260">
        <ele>717.6</ele>
        <time>2020-07-16T06:56:50Z</time>
      </trkpt>
      <trkpt lat="37.8259910" lon="-3.3660560">
        <ele>718.4</ele>
        <time>2020-07-16T06:56:54Z</time>
      </trkpt>
      <trkpt lat="37.8259420" lon="-3.3661260">
        <ele>718.8</ele>
        <time>2020-07-16T06:56:56Z</time>
      </trkpt>
      <trkpt lat="37.8257960" lon="-3.3663330">
        <ele>720.0</ele>
        <time>2020-07-16T06:57:02Z</time>
      </trkpt>
      <trkpt lat="37.8257730" lon="-3.3663640">
        <ele>720.2</ele>
        <time>2020-07-16T06:57:03Z</time>
      </trkpt>
      <trkpt lat="37.8256760" lon="-3.3664920">
        <ele>721.0</ele>
        <time>2020-07-16T06:57:07Z</time>
      </trkpt>
      <trkpt lat="37.8255600" lon="-3.3666420">
        <ele>722.0</ele>
        <time>2020-07-16T06:57:12Z</time>
      </trkpt>
      <trkpt lat="37.8254410" lon="-3.3667870">
        <ele>723.0</ele>
        <time>2020-07-16T06:57:17Z</time>
      </trkpt>
      <trkpt lat="37.8254180" lon="-3.3668140">
        <ele>723.2</ele>
        <time>2020-07-16T06:57:18Z</time>
      </trkpt>
      <trkpt lat="37.8253410" lon="-3.3668970">
        <ele>724.0</ele>
        <time>2020-07-16T06:57:21Z</time>
      </trkpt>
      <trkpt lat="37.8252630" lon="-3.3669760">
        <ele>724.4</ele>
        <time>2020-07-16T06:57:24Z</time>
      </trkpt>
      <trkpt lat="37.8250970" lon="-3.3671160">
        <ele>725.4</ele>
        <time>2020-07-16T06:57:30Z</time>
      </trkpt>
      <trkpt lat="37.8250420" lon="-3.3671630">
        <ele>725.8</ele>
        <time>2020-07-16T06:57:32Z</time>
      </trkpt>
      <trkpt lat="37.8249290" lon="-3.3672550">
        <ele>726.4</ele>
        <time>2020-07-16T06:57:36Z</time>
      </trkpt>
      <trkpt lat="37.8247520" lon="-3.3673700">
        <ele>727.6</ele>
        <time>2020-07-16T06:57:42Z</time>
      </trkpt>
      <trkpt lat="37.8246310" lon="-3.3674320">
        <ele>728.6</ele>
        <time>2020-07-16T06:57:46Z</time>
      </trkpt>
      <trkpt lat="37.8244770" lon="-3.3675110">
        <ele>729.6</ele>
        <time>2020-07-16T06:57:51Z</time>
      </trkpt>
      <trkpt lat="37.8244160" lon="-3.3675370">
        <ele>730.0</ele>
        <time>2020-07-16T06:57:53Z</time>
      </trkpt>
      <trkpt lat="37.8242620" lon="-3.3676050">
        <ele>730.8</ele>
        <time>2020-07-16T06:57:58Z</time>
      </trkpt>
      <trkpt lat="37.8241050" lon="-3.3676700">
        <ele>731.4</ele>
        <time>2020-07-16T06:58:03Z</time>
      </trkpt>
      <trkpt lat="37.8240400" lon="-3.3676960">
        <ele>731.8</ele>
        <time>2020-07-16T06:58:05Z</time>
      </trkpt>
      <trkpt lat="37.8238200" lon="-3.3677810">
        <ele>733.0</ele>
        <time>2020-07-16T06:58:12Z</time>
      </trkpt>
      <trkpt lat="37.8237280" lon="-3.3678160">
        <ele>733.4</ele>
        <time>2020-07-16T06:58:15Z</time>
      </trkpt>
      <trkpt lat="37.8236370" lon="-3.3678520">
        <ele>734.0</ele>
        <time>2020-07-16T06:58:18Z</time>
      </trkpt>
      <trkpt lat="37.8235180" lon="-3.3679050">
        <ele>735.0</ele>
        <time>2020-07-16T06:58:22Z</time>
      </trkpt>
      <trkpt lat="37.8233950" lon="-3.3679470">
        <ele>735.6</ele>
        <time>2020-07-16T06:58:26Z</time>
      </trkpt>
      <trkpt lat="37.8233390" lon="-3.3679710">
        <ele>736.0</ele>
        <time>2020-07-16T06:58:28Z</time>
      </trkpt>
      <trkpt lat="37.8231940" lon="-3.3680350">
        <ele>737.2</ele>
        <time>2020-07-16T06:58:33Z</time>
      </trkpt>
      <trkpt lat="37.8230720" lon="-3.3680890">
        <ele>737.8</ele>
        <time>2020-07-16T06:58:37Z</time>
      </trkpt>
      <trkpt lat="37.8229860" lon="-3.3681330">
        <ele>738.2</ele>
        <time>2020-07-16T06:58:40Z</time>
      </trkpt>
      <trkpt lat="37.8227540" lon="-3.3682390">
        <ele>739.4</ele>
        <time>2020-07-16T06:58:48Z</time>
      </trkpt>
      <trkpt lat="37.8225830" lon="-3.3683250">
        <ele>740.4</ele>
        <time>2020-07-16T06:58:54Z</time>
      </trkpt>
      <trkpt lat="37.8224700" lon="-3.3683710">
        <ele>741.2</ele>
        <time>2020-07-16T06:58:58Z</time>
      </trkpt>
      <trkpt lat="37.8223820" lon="-3.3684120">
        <ele>741.6</ele>
        <time>2020-07-16T06:59:01Z</time>
      </trkpt>
      <trkpt lat="37.8222050" lon="-3.3684790">
        <ele>742.4</ele>
        <time>2020-07-16T06:59:07Z</time>
      </trkpt>
      <trkpt lat="37.8221490" lon="-3.3685070">
        <ele>742.8</ele>
        <time>2020-07-16T06:59:09Z</time>
      </trkpt>
      <trkpt lat="37.8219460" lon="-3.3685970">
        <ele>743.6</ele>
        <time>2020-07-16T06:59:16Z</time>
      </trkpt>
      <trkpt lat="37.8218890" lon="-3.3686220">
        <ele>743.8</ele>
        <time>2020-07-16T06:59:18Z</time>
      </trkpt>
      <trkpt lat="37.8216920" lon="-3.3687020">
        <ele>745.0</ele>
        <time>2020-07-16T06:59:25Z</time>
      </trkpt>
      <trkpt lat="37.8216660" lon="-3.3687200">
        <ele>745.0</ele>
        <time>2020-07-16T06:59:26Z</time>
      </trkpt>
      <trkpt lat="37.8215210" lon="-3.3687650">
        <ele>746.0</ele>
        <time>2020-07-16T06:59:31Z</time>
      </trkpt>
      <trkpt lat="37.8214640" lon="-3.3687890">
        <ele>746.4</ele>
        <time>2020-07-16T06:59:33Z</time>
      </trkpt>
      <trkpt lat="37.8213470" lon="-3.3688300">
        <ele>747.0</ele>
        <time>2020-07-16T06:59:37Z</time>
      </trkpt>
      <trkpt lat="37.8212430" lon="-3.3688700">
        <ele>747.6</ele>
        <time>2020-07-16T06:59:41Z</time>
      </trkpt>
      <trkpt lat="37.8210850" lon="-3.3689350">
        <ele>748.2</ele>
        <time>2020-07-16T06:59:46Z</time>
      </trkpt>
      <trkpt lat="37.8209930" lon="-3.3689670">
        <ele>748.6</ele>
        <time>2020-07-16T06:59:49Z</time>
      </trkpt>
      <trkpt lat="37.8209050" lon="-3.3689990">
        <ele>749.2</ele>
        <time>2020-07-16T06:59:52Z</time>
      </trkpt>
      <trkpt lat="37.8207530" lon="-3.3690200">
        <ele>750.2</ele>
        <time>2020-07-16T06:59:57Z</time>
      </trkpt>
      <trkpt lat="37.8207250" lon="-3.3690250">
        <ele>750.2</ele>
        <time>2020-07-16T06:59:58Z</time>
      </trkpt>
      <trkpt lat="37.8205720" lon="-3.3690600">
        <ele>751.4</ele>
        <time>2020-07-16T07:00:03Z</time>
      </trkpt>
      <trkpt lat="37.8204220" lon="-3.3691110">
        <ele>752.2</ele>
        <time>2020-07-16T07:00:08Z</time>
      </trkpt>
      <trkpt lat="37.8203640" lon="-3.3691350">
        <ele>752.4</ele>
        <time>2020-07-16T07:00:10Z</time>
      </trkpt>
      <trkpt lat="37.8201670" lon="-3.3692120">
        <ele>753.4</ele>
        <time>2020-07-16T07:00:17Z</time>
      </trkpt>
      <trkpt lat="37.8200240" lon="-3.3692700">
        <ele>754.4</ele>
        <time>2020-07-16T07:00:22Z</time>
      </trkpt>
      <trkpt lat="37.8199630" lon="-3.3692910">
        <ele>754.6</ele>
        <time>2020-07-16T07:00:24Z</time>
      </trkpt>
      <trkpt lat="37.8197640" lon="-3.3693670">
        <ele>755.6</ele>
        <time>2020-07-16T07:00:31Z</time>
      </trkpt>
      <trkpt lat="37.8197360" lon="-3.3693780">
        <ele>755.8</ele>
        <time>2020-07-16T07:00:32Z</time>
      </trkpt>
      <trkpt lat="37.8194890" lon="-3.3694710">
        <ele>756.8</ele>
        <time>2020-07-16T07:00:40Z</time>
      </trkpt>
      <trkpt lat="37.8193640" lon="-3.3695200">
        <ele>758.0</ele>
        <time>2020-07-16T07:00:44Z</time>
      </trkpt>
      <trkpt lat="37.8191840" lon="-3.3695890">
        <ele>758.8</ele>
        <time>2020-07-16T07:00:50Z</time>
      </trkpt>
      <trkpt lat="37.8191560" lon="-3.3696000">
        <ele>759.0</ele>
        <time>2020-07-16T07:00:51Z</time>
      </trkpt>
      <trkpt lat="37.8189870" lon="-3.3696710">
        <ele>760.2</ele>
        <time>2020-07-16T07:00:57Z</time>
      </trkpt>
      <trkpt lat="37.8189620" lon="-3.3696830">
        <ele>760.4</ele>
        <time>2020-07-16T07:00:58Z</time>
      </trkpt>
      <trkpt lat="37.8187020" lon="-3.3697760">
        <ele>761.4</ele>
        <time>2020-07-16T07:01:07Z</time>
      </trkpt>
      <trkpt lat="37.8186760" lon="-3.3697880">
        <ele>761.4</ele>
        <time>2020-07-16T07:01:08Z</time>
      </trkpt>
      <trkpt lat="37.8185360" lon="-3.3698480">
        <ele>762.4</ele>
        <time>2020-07-16T07:01:13Z</time>
      </trkpt>
      <trkpt lat="37.8184270" lon="-3.3698870">
        <ele>763.4</ele>
        <time>2020-07-16T07:01:17Z</time>
      </trkpt>
      <trkpt lat="37.8183680" lon="-3.3699120">
        <ele>763.6</ele>
        <time>2020-07-16T07:01:19Z</time>
      </trkpt>
      <trkpt lat="37.8181650" lon="-3.3699950">
        <ele>764.4</ele>
        <time>2020-07-16T07:01:26Z</time>
      </trkpt>
      <trkpt lat="37.8181070" lon="-3.3700140">
        <ele>764.6</ele>
        <time>2020-07-16T07:01:28Z</time>
      </trkpt>
      <trkpt lat="37.8179270" lon="-3.3700850">
        <ele>765.6</ele>
        <time>2020-07-16T07:01:34Z</time>
      </trkpt>
      <trkpt lat="37.8177770" lon="-3.3701440">
        <ele>766.2</ele>
        <time>2020-07-16T07:01:39Z</time>
      </trkpt>
      <trkpt lat="37.8177200" lon="-3.3701690">
        <ele>766.6</ele>
        <time>2020-07-16T07:01:41Z</time>
      </trkpt>
      <trkpt lat="37.8174940" lon="-3.3702530">
        <ele>767.8</ele>
        <time>2020-07-16T07:01:49Z</time>
      </trkpt>
      <trkpt lat="37.8173850" lon="-3.3702990">
        <ele>769.0</ele>
        <time>2020-07-16T07:01:53Z</time>
      </trkpt>
      <trkpt lat="37.8171800" lon="-3.3703790">
        <ele>769.6</ele>
        <time>2020-07-16T07:02:00Z</time>
      </trkpt>
      <trkpt lat="37.8170930" lon="-3.3704140">
        <ele>770.0</ele>
        <time>2020-07-16T07:02:03Z</time>
      </trkpt>
      <trkpt lat="37.8169120" lon="-3.3704780">
        <ele>771.2</ele>
        <time>2020-07-16T07:02:09Z</time>
      </trkpt>
      <trkpt lat="37.8168210" lon="-3.3705110">
        <ele>771.6</ele>
        <time>2020-07-16T07:02:12Z</time>
      </trkpt>
      <trkpt lat="37.8167060" lon="-3.3705560">
        <ele>772.2</ele>
        <time>2020-07-16T07:02:16Z</time>
      </trkpt>
      <trkpt lat="37.8164970" lon="-3.3706270">
        <ele>773.2</ele>
        <time>2020-07-16T07:02:23Z</time>
      </trkpt>
      <trkpt lat="37.8164340" lon="-3.3706450">
        <ele>773.6</ele>
        <time>2020-07-16T07:02:25Z</time>
      </trkpt>
      <trkpt lat="37.8163460" lon="-3.3706700">
        <ele>774.4</ele>
        <time>2020-07-16T07:02:28Z</time>
      </trkpt>
      <trkpt lat="37.8162160" lon="-3.3706960">
        <ele>775.4</ele>
        <time>2020-07-16T07:02:32Z</time>
      </trkpt>
      <trkpt lat="37.8160560" lon="-3.3707170">
        <ele>776.0</ele>
        <time>2020-07-16T07:02:37Z</time>
      </trkpt>
      <trkpt lat="37.8158560" lon="-3.3707220">
        <ele>776.6</ele>
        <time>2020-07-16T07:02:43Z</time>
      </trkpt>
      <trkpt lat="37.8157570" lon="-3.3707160">
        <ele>777.0</ele>
        <time>2020-07-16T07:02:46Z</time>
      </trkpt>
      <trkpt lat="37.8156230" lon="-3.3707040">
        <ele>777.6</ele>
        <time>2020-07-16T07:02:50Z</time>
      </trkpt>
      <trkpt lat="37.8153630" lon="-3.3706430">
        <ele>778.6</ele>
        <time>2020-07-16T07:02:58Z</time>
      </trkpt>
      <trkpt lat="37.8153270" lon="-3.3706340">
        <ele>778.8</ele>
        <time>2020-07-16T07:02:59Z</time>
      </trkpt>
      <trkpt lat="37.8150630" lon="-3.3705400">
        <ele>779.2</ele>
        <time>2020-07-16T07:03:07Z</time>
      </trkpt>
      <trkpt lat="37.8149970" lon="-3.3705100">
        <ele>779.4</ele>
        <time>2020-07-16T07:03:09Z</time>
      </trkpt>
      <trkpt lat="37.8148660" lon="-3.3704500">
        <ele>779.8</ele>
        <time>2020-07-16T07:03:13Z</time>
      </trkpt>
      <trkpt lat="37.8147260" lon="-3.3703900">
        <ele>780.0</ele>
        <time>2020-07-16T07:03:17Z</time>
      </trkpt>
      <trkpt lat="37.8145900" lon="-3.3703270">
        <ele>780.4</ele>
        <time>2020-07-16T07:03:21Z</time>
      </trkpt>
      <trkpt lat="37.8143730" lon="-3.3702530">
        <ele>780.4</ele>
        <time>2020-07-16T07:03:27Z</time>
      </trkpt>
      <trkpt lat="37.8142600" lon="-3.3702140">
        <ele>780.8</ele>
        <time>2020-07-16T07:03:30Z</time>
      </trkpt>
      <trkpt lat="37.8142200" lon="-3.3701980">
        <ele>780.8</ele>
        <time>2020-07-16T07:03:31Z</time>
      </trkpt>
      <trkpt lat="37.8139680" lon="-3.3700580">
        <ele>780.6</ele>
        <time>2020-07-16T07:03:37Z</time>
      </trkpt>
      <trkpt lat="37.8136230" lon="-3.3699700">
        <ele>781.4</ele>
        <time>2020-07-16T07:03:44Z</time>
      </trkpt>
      <trkpt lat="37.8132460" lon="-3.3698900">
        <ele>780.8</ele>
        <time>2020-07-16T07:03:51Z</time>
      </trkpt>
      <trkpt lat="37.8131360" lon="-3.3698650">
        <ele>780.4</ele>
        <time>2020-07-16T07:03:53Z</time>
      </trkpt>
      <trkpt lat="37.8126500" lon="-3.3697770">
        <ele>780.4</ele>
        <time>2020-07-16T07:04:01Z</time>
      </trkpt>
      <trkpt lat="37.8122730" lon="-3.3697170">
        <ele>780.0</ele>
        <time>2020-07-16T07:04:07Z</time>
      </trkpt>
      <trkpt lat="37.8121450" lon="-3.3696980">
        <ele>779.8</ele>
        <time>2020-07-16T07:04:09Z</time>
      </trkpt>
      <trkpt lat="37.8117610" lon="-3.3696400">
        <ele>779.6</ele>
        <time>2020-07-16T07:04:15Z</time>
      </trkpt>
      <trkpt lat="37.8112190" lon="-3.3695580">
        <ele>780.2</ele>
        <time>2020-07-16T07:04:24Z</time>
      </trkpt>
      <trkpt lat="37.8110540" lon="-3.3695310">
        <ele>780.8</ele>
        <time>2020-07-16T07:04:27Z</time>
      </trkpt>
      <trkpt lat="37.8108940" lon="-3.3695110">
        <ele>781.2</ele>
        <time>2020-07-16T07:04:30Z</time>
      </trkpt>
      <trkpt lat="37.8108430" lon="-3.3695040">
        <ele>781.2</ele>
        <time>2020-07-16T07:04:31Z</time>
      </trkpt>
      <trkpt lat="37.8106440" lon="-3.3694720">
        <ele>781.8</ele>
        <time>2020-07-16T07:04:35Z</time>
      </trkpt>
      <trkpt lat="37.8104020" lon="-3.3694370">
        <ele>782.8</ele>
        <time>2020-07-16T07:04:40Z</time>
      </trkpt>
      <trkpt lat="37.8103560" lon="-3.3694280">
        <ele>783.0</ele>
        <time>2020-07-16T07:04:41Z</time>
      </trkpt>
      <trkpt lat="37.8100830" lon="-3.3693910">
        <ele>784.0</ele>
        <time>2020-07-16T07:04:47Z</time>
      </trkpt>
      <trkpt lat="37.8099980" lon="-3.3693760">
        <ele>784.4</ele>
        <time>2020-07-16T07:04:49Z</time>
      </trkpt>
      <trkpt lat="37.8098370" lon="-3.3693490">
        <ele>785.0</ele>
        <time>2020-07-16T07:04:53Z</time>
      </trkpt>
      <trkpt lat="37.8095290" lon="-3.3693030">
        <ele>786.2</ele>
        <time>2020-07-16T07:05:01Z</time>
      </trkpt>
      <trkpt lat="37.8092660" lon="-3.3692650">
        <ele>787.4</ele>
        <time>2020-07-16T07:05:08Z</time>
      </trkpt>
      <trkpt lat="37.8091560" lon="-3.3692490">
        <ele>788.0</ele>
        <time>2020-07-16T07:05:11Z</time>
      </trkpt>
      <trkpt lat="37.8090160" lon="-3.3692270">
        <ele>788.6</ele>
        <time>2020-07-16T07:05:15Z</time>
      </trkpt>
      <trkpt lat="37.8088140" lon="-3.3692000">
        <ele>788.8</ele>
        <time>2020-07-16T07:05:20Z</time>
      </trkpt>
      <trkpt lat="37.8086900" lon="-3.3691830">
        <ele>789.6</ele>
        <time>2020-07-16T07:05:23Z</time>
      </trkpt>
      <trkpt lat="37.8084280" lon="-3.3691390">
        <ele>790.4</ele>
        <time>2020-07-16T07:05:30Z</time>
      </trkpt>
      <trkpt lat="37.8083920" lon="-3.3691350">
        <ele>790.6</ele>
        <time>2020-07-16T07:05:31Z</time>
      </trkpt>
      <trkpt lat="37.8081700" lon="-3.3691030">
        <ele>791.6</ele>
        <time>2020-07-16T07:05:37Z</time>
      </trkpt>
      <trkpt lat="37.8081320" lon="-3.3691000">
        <ele>791.8</ele>
        <time>2020-07-16T07:05:38Z</time>
      </trkpt>
      <trkpt lat="37.8078450" lon="-3.3690570">
        <ele>792.6</ele>
        <time>2020-07-16T07:05:46Z</time>
      </trkpt>
      <trkpt lat="37.8076990" lon="-3.3690340">
        <ele>793.4</ele>
        <time>2020-07-16T07:05:50Z</time>
      </trkpt>
      <trkpt lat="37.8075200" lon="-3.3689990">
        <ele>793.8</ele>
        <time>2020-07-16T07:05:55Z</time>
      </trkpt>
      <trkpt lat="37.8073410" lon="-3.3689610">
        <ele>794.8</ele>
        <time>2020-07-16T07:06:00Z</time>
      </trkpt>
      <trkpt lat="37.8072400" lon="-3.3689280">
        <ele>795.6</ele>
        <time>2020-07-16T07:06:03Z</time>
      </trkpt>
      <trkpt lat="37.8071670" lon="-3.3689050">
        <ele>795.8</ele>
        <time>2020-07-16T07:06:05Z</time>
      </trkpt>
      <trkpt lat="37.8068610" lon="-3.3687720">
        <ele>797.0</ele>
        <time>2020-07-16T07:06:14Z</time>
      </trkpt>
      <trkpt lat="37.8068250" lon="-3.3687580">
        <ele>797.0</ele>
        <time>2020-07-16T07:06:15Z</time>
      </trkpt>
      <trkpt lat="37.8066930" lon="-3.3686720">
        <ele>798.0</ele>
        <time>2020-07-16T07:06:19Z</time>
      </trkpt>
      <trkpt lat="37.8066600" lon="-3.3686510">
        <ele>798.2</ele>
        <time>2020-07-16T07:06:20Z</time>
      </trkpt>
      <trkpt lat="37.8065350" lon="-3.3685540">
        <ele>798.4</ele>
        <time>2020-07-16T07:06:24Z</time>
      </trkpt>
      <trkpt lat="37.8063810" lon="-3.3684190">
        <ele>799.2</ele>
        <time>2020-07-16T07:06:29Z</time>
      </trkpt>
      <trkpt lat="37.8062680" lon="-3.3683060">
        <ele>800.2</ele>
        <time>2020-07-16T07:06:33Z</time>
      </trkpt>
      <trkpt lat="37.8062380" lon="-3.3682730">
        <ele>800.6</ele>
        <time>2020-07-16T07:06:34Z</time>
      </trkpt>
      <trkpt lat="37.8060130" lon="-3.3679820">
        <ele>801.6</ele>
        <time>2020-07-16T07:06:43Z</time>
      </trkpt>
      <trkpt lat="37.8059890" lon="-3.3679470">
        <ele>802.0</ele>
        <time>2020-07-16T07:06:44Z</time>
      </trkpt>
      <trkpt lat="37.8058990" lon="-3.3677960">
        <ele>802.8</ele>
        <time>2020-07-16T07:06:48Z</time>
      </trkpt>
      <trkpt lat="37.8058190" lon="-3.3676370">
        <ele>803.4</ele>
        <time>2020-07-16T07:06:52Z</time>
      </trkpt>
      <trkpt lat="37.8057760" lon="-3.3675390">
        <ele>803.8</ele>
        <time>2020-07-16T07:06:54Z</time>
      </trkpt>
      <trkpt lat="37.8056770" lon="-3.3673200">
        <ele>805.0</ele>
        <time>2020-07-16T07:07:00Z</time>
      </trkpt>
      <trkpt lat="37.8056130" lon="-3.3671650">
        <ele>805.6</ele>
        <time>2020-07-16T07:07:04Z</time>
      </trkpt>
      <trkpt lat="37.8055130" lon="-3.3669290">
        <ele>805.8</ele>
        <time>2020-07-16T07:07:10Z</time>
      </trkpt>
      <trkpt lat="37.8054410" lon="-3.3667670">
        <ele>806.2</ele>
        <time>2020-07-16T07:07:14Z</time>
      </trkpt>
      <trkpt lat="37.8052870" lon="-3.3664080">
        <ele>807.2</ele>
        <time>2020-07-16T07:07:23Z</time>
      </trkpt>
      <trkpt lat="37.8052400" lon="-3.3662910">
        <ele>807.8</ele>
        <time>2020-07-16T07:07:26Z</time>
      </trkpt>
      <trkpt lat="37.8052240" lon="-3.3662590">
        <ele>808.2</ele>
        <time>2020-07-16T07:07:27Z</time>
      </trkpt>
      <trkpt lat="37.8051620" lon="-3.3661120">
        <ele>809.2</ele>
        <time>2020-07-16T07:07:31Z</time>
      </trkpt>
      <trkpt lat="37.8051190" lon="-3.3660070">
        <ele>809.2</ele>
        <time>2020-07-16T07:07:34Z</time>
      </trkpt>
      <trkpt lat="37.8050040" lon="-3.3657310">
        <ele>809.6</ele>
        <time>2020-07-16T07:07:42Z</time>
      </trkpt>
      <trkpt lat="37.8048760" lon="-3.3654300">
        <ele>810.2</ele>
        <time>2020-07-16T07:07:50Z</time>
      </trkpt>
      <trkpt lat="37.8047270" lon="-3.3650840">
        <ele>811.4</ele>
        <time>2020-07-16T07:07:59Z</time>
      </trkpt>
      <trkpt lat="37.8046030" lon="-3.3647970">
        <ele>812.4</ele>
        <time>2020-07-16T07:08:07Z</time>
      </trkpt>
      <trkpt lat="37.8045710" lon="-3.3647260">
        <ele>812.6</ele>
        <time>2020-07-16T07:08:09Z</time>
      </trkpt>
      <trkpt lat="37.8044270" lon="-3.3644090">
        <ele>813.6</ele>
        <time>2020-07-16T07:08:18Z</time>
      </trkpt>
      <trkpt lat="37.8044080" lon="-3.3643720">
        <ele>813.8</ele>
        <time>2020-07-16T07:08:19Z</time>
      </trkpt>
      <trkpt lat="37.8042640" lon="-3.3641050">
        <ele>814.6</ele>
        <time>2020-07-16T07:08:27Z</time>
      </trkpt>
      <trkpt lat="37.8042040" lon="-3.3639960">
        <ele>815.0</ele>
        <time>2020-07-16T07:08:30Z</time>
      </trkpt>
      <trkpt lat="37.8040280" lon="-3.3637430">
        <ele>815.8</ele>
        <time>2020-07-16T07:08:38Z</time>
      </trkpt>
      <trkpt lat="37.8039810" lon="-3.3636850">
        <ele>816.0</ele>
        <time>2020-07-16T07:08:40Z</time>
      </trkpt>
      <trkpt lat="37.8038860" lon="-3.3635630">
        <ele>816.8</ele>
        <time>2020-07-16T07:08:44Z</time>
      </trkpt>
      <trkpt lat="37.8037360" lon="-3.3633950">
        <ele>817.2</ele>
        <time>2020-07-16T07:08:50Z</time>
      </trkpt>
      <trkpt lat="37.8035510" lon="-3.3632140">
        <ele>818.0</ele>
        <time>2020-07-16T07:08:57Z</time>
      </trkpt>
      <trkpt lat="37.8034970" lon="-3.3631680">
        <ele>818.0</ele>
        <time>2020-07-16T07:08:59Z</time>
      </trkpt>
      <trkpt lat="37.8031440" lon="-3.3629020">
        <ele>818.8</ele>
        <time>2020-07-16T07:09:10Z</time>
      </trkpt>
      <trkpt lat="37.8031060" lon="-3.3628760">
        <ele>819.0</ele>
        <time>2020-07-16T07:09:11Z</time>
      </trkpt>
      <trkpt lat="37.8028610" lon="-3.3627280">
        <ele>819.2</ele>
        <time>2020-07-16T07:09:17Z</time>
      </trkpt>
      <trkpt lat="37.8026900" lon="-3.3626240">
        <ele>819.8</ele>
        <time>2020-07-16T07:09:21Z</time>
      </trkpt>
      <trkpt lat="37.8025080" lon="-3.3625130">
        <ele>820.0</ele>
        <time>2020-07-16T07:09:25Z</time>
      </trkpt>
      <trkpt lat="37.8024160" lon="-3.3624590">
        <ele>820.0</ele>
        <time>2020-07-16T07:09:27Z</time>
      </trkpt>
      <trkpt lat="37.8020160" lon="-3.3622220">
        <ele>820.4</ele>
        <time>2020-07-16T07:09:35Z</time>
      </trkpt>
      <trkpt lat="37.8015160" lon="-3.3619050">
        <ele>820.8</ele>
        <time>2020-07-16T07:09:45Z</time>
      </trkpt>
      <trkpt lat="37.8013730" lon="-3.3617920">
        <ele>820.8</ele>
        <time>2020-07-16T07:09:48Z</time>
      </trkpt>
      <trkpt lat="37.8010020" lon="-3.3614100">
        <ele>820.8</ele>
        <time>2020-07-16T07:09:56Z</time>
      </trkpt>
      <trkpt lat="37.8007170" lon="-3.3609800">
        <ele>820.0</ele>
        <time>2020-07-16T07:10:03Z</time>
      </trkpt>
      <trkpt lat="37.8004270" lon="-3.3604810">
        <ele>818.8</ele>
        <time>2020-07-16T07:10:10Z</time>
      </trkpt>
      <trkpt lat="37.8003800" lon="-3.3604020">
        <ele>818.6</ele>
        <time>2020-07-16T07:10:11Z</time>
      </trkpt>
      <trkpt lat="37.8002010" lon="-3.3600880">
        <ele>817.8</ele>
        <time>2020-07-16T07:10:15Z</time>
      </trkpt>
      <trkpt lat="37.7999650" lon="-3.3596810">
        <ele>816.8</ele>
        <time>2020-07-16T07:10:20Z</time>
      </trkpt>
      <trkpt lat="37.7999170" lon="-3.3595970">
        <ele>816.4</ele>
        <time>2020-07-16T07:10:21Z</time>
      </trkpt>
      <trkpt lat="37.7997700" lon="-3.3593430">
        <ele>815.2</ele>
        <time>2020-07-16T07:10:24Z</time>
      </trkpt>
      <trkpt lat="37.7996140" lon="-3.3590850">
        <ele>814.0</ele>
        <time>2020-07-16T07:10:27Z</time>
      </trkpt>
      <trkpt lat="37.7994390" lon="-3.3588090">
        <ele>812.6</ele>
        <time>2020-07-16T07:10:30Z</time>
      </trkpt>
      <trkpt lat="37.7993130" lon="-3.3586190">
        <ele>811.4</ele>
        <time>2020-07-16T07:10:32Z</time>
      </trkpt>
      <trkpt lat="37.7991800" lon="-3.3584320">
        <ele>810.2</ele>
        <time>2020-07-16T07:10:34Z</time>
      </trkpt>
      <trkpt lat="37.7990290" lon="-3.3582290">
        <ele>809.2</ele>
        <time>2020-07-16T07:10:36Z</time>
      </trkpt>
      <trkpt lat="37.7987990" lon="-3.3579270">
        <ele>807.6</ele>
        <time>2020-07-16T07:10:39Z</time>
      </trkpt>
      <trkpt lat="37.7986390" lon="-3.3577240">
        <ele>806.4</ele>
        <time>2020-07-16T07:10:41Z</time>
      </trkpt>
      <trkpt lat="37.7984800" lon="-3.3575240">
        <ele>805.0</ele>
        <time>2020-07-16T07:10:43Z</time>
      </trkpt>
      <trkpt lat="37.7983990" lon="-3.3574170">
        <ele>804.4</ele>
        <time>2020-07-16T07:10:44Z</time>
      </trkpt>
      <trkpt lat="37.7983150" lon="-3.3573120">
        <ele>803.8</ele>
        <time>2020-07-16T07:10:45Z</time>
      </trkpt>
      <trkpt lat="37.7981520" lon="-3.3571040">
        <ele>802.4</ele>
        <time>2020-07-16T07:10:47Z</time>
      </trkpt>
      <trkpt lat="37.7979830" lon="-3.3568910">
        <ele>800.6</ele>
        <time>2020-07-16T07:10:49Z</time>
      </trkpt>
      <trkpt lat="37.7978180" lon="-3.3566750">
        <ele>799.0</ele>
        <time>2020-07-16T07:10:51Z</time>
      </trkpt>
      <trkpt lat="37.7977590" lon="-3.3566020">
        <ele>798.6</ele>
        <time>2020-07-16T07:10:52Z</time>
      </trkpt>
      <trkpt lat="37.7976500" lon="-3.3564680">
        <ele>797.8</ele>
        <time>2020-07-16T07:10:53Z</time>
      </trkpt>
      <trkpt lat="37.7974800" lon="-3.3562540">
        <ele>796.8</ele>
        <time>2020-07-16T07:10:55Z</time>
      </trkpt>
      <trkpt lat="37.7973170" lon="-3.3560470">
        <ele>795.6</ele>
        <time>2020-07-16T07:10:57Z</time>
      </trkpt>
      <trkpt lat="37.7970780" lon="-3.3557390">
        <ele>794.4</ele>
        <time>2020-07-16T07:11:00Z</time>
      </trkpt>
      <trkpt lat="37.7967330" lon="-3.3552270">
        <ele>793.4</ele>
        <time>2020-07-16T07:11:05Z</time>
      </trkpt>
      <trkpt lat="37.7966780" lon="-3.3551210">
        <ele>793.4</ele>
        <time>2020-07-16T07:11:06Z</time>
      </trkpt>
      <trkpt lat="37.7964480" lon="-3.3545880">
        <ele>792.4</ele>
        <time>2020-07-16T07:11:11Z</time>
      </trkpt>
      <trkpt lat="37.7964140" lon="-3.3544830">
        <ele>792.2</ele>
        <time>2020-07-16T07:11:12Z</time>
      </trkpt>
      <trkpt lat="37.7962630" lon="-3.3539160">
        <ele>791.2</ele>
        <time>2020-07-16T07:11:17Z</time>
      </trkpt>
      <trkpt lat="37.7962090" lon="-3.3536850">
        <ele>790.2</ele>
        <time>2020-07-16T07:11:19Z</time>
      </trkpt>
      <trkpt lat="37.7961560" lon="-3.3534560">
        <ele>790.2</ele>
        <time>2020-07-16T07:11:21Z</time>
      </trkpt>
      <trkpt lat="37.7960300" lon="-3.3528990">
        <ele>789.2</ele>
        <time>2020-07-16T07:11:26Z</time>
      </trkpt>
      <trkpt lat="37.7959320" lon="-3.3524680">
        <ele>788.4</ele>
        <time>2020-07-16T07:11:30Z</time>
      </trkpt>
      <trkpt lat="37.7959080" lon="-3.3523620">
        <ele>788.0</ele>
        <time>2020-07-16T07:11:31Z</time>
      </trkpt>
      <trkpt lat="37.7957600" lon="-3.3517270">
        <ele>787.0</ele>
        <time>2020-07-16T07:11:37Z</time>
      </trkpt>
      <trkpt lat="37.7956380" lon="-3.3511950">
        <ele>786.4</ele>
        <time>2020-07-16T07:11:42Z</time>
      </trkpt>
      <trkpt lat="37.7955650" lon="-3.3508710">
        <ele>786.0</ele>
        <time>2020-07-16T07:11:45Z</time>
      </trkpt>
      <trkpt lat="37.7954170" lon="-3.3502380">
        <ele>784.8</ele>
        <time>2020-07-16T07:11:51Z</time>
      </trkpt>
      <trkpt lat="37.7953940" lon="-3.3501390">
        <ele>784.6</ele>
        <time>2020-07-16T07:11:52Z</time>
      </trkpt>
      <trkpt lat="37.7952970" lon="-3.3497160">
        <ele>783.8</ele>
        <time>2020-07-16T07:11:56Z</time>
      </trkpt>
      <trkpt lat="37.7951300" lon="-3.3489870">
        <ele>782.8</ele>
        <time>2020-07-16T07:12:03Z</time>
      </trkpt>
      <trkpt lat="37.7950800" lon="-3.3487670">
        <ele>782.2</ele>
        <time>2020-07-16T07:12:05Z</time>
      </trkpt>
      <trkpt lat="37.7949870" lon="-3.3483540">
        <ele>781.6</ele>
        <time>2020-07-16T07:12:09Z</time>
      </trkpt>
      <trkpt lat="37.7948220" lon="-3.3476400">
        <ele>780.6</ele>
        <time>2020-07-16T07:12:16Z</time>
      </trkpt>
      <trkpt lat="37.7947750" lon="-3.3474370">
        <ele>780.2</ele>
        <time>2020-07-16T07:12:18Z</time>
      </trkpt>
      <trkpt lat="37.7947030" lon="-3.3471260">
        <ele>779.4</ele>
        <time>2020-07-16T07:12:21Z</time>
      </trkpt>
      <trkpt lat="37.7945850" lon="-3.3466090">
        <ele>778.2</ele>
        <time>2020-07-16T07:12:26Z</time>
      </trkpt>
      <trkpt lat="37.7944900" lon="-3.3461990">
        <ele>777.6</ele>
        <time>2020-07-16T07:12:30Z</time>
      </trkpt>
      <trkpt lat="37.7944410" lon="-3.3459960">
        <ele>777.2</ele>
        <time>2020-07-16T07:12:32Z</time>
      </trkpt>
      <trkpt lat="37.7943220" lon="-3.3454820">
        <ele>776.0</ele>
        <time>2020-07-16T07:12:37Z</time>
      </trkpt>
      <trkpt lat="37.7942500" lon="-3.3451740">
        <ele>775.4</ele>
        <time>2020-07-16T07:12:40Z</time>
      </trkpt>
      <trkpt lat="37.7942010" lon="-3.3449640">
        <ele>775.0</ele>
        <time>2020-07-16T07:12:42Z</time>
      </trkpt>
      <trkpt lat="37.7940770" lon="-3.3444320">
        <ele>773.8</ele>
        <time>2020-07-16T07:12:47Z</time>
      </trkpt>
      <trkpt lat="37.7939570" lon="-3.3439180">
        <ele>773.0</ele>
        <time>2020-07-16T07:12:52Z</time>
      </trkpt>
      <trkpt lat="37.7939080" lon="-3.3436990">
        <ele>772.6</ele>
        <time>2020-07-16T07:12:54Z</time>
      </trkpt>
      <trkpt lat="37.7937550" lon="-3.3430450">
        <ele>771.4</ele>
        <time>2020-07-16T07:13:00Z</time>
      </trkpt>
      <trkpt lat="37.7937300" lon="-3.3429400">
        <ele>771.2</ele>
        <time>2020-07-16T07:13:01Z</time>
      </trkpt>
      <trkpt lat="37.7936300" lon="-3.3425090">
        <ele>770.4</ele>
        <time>2020-07-16T07:13:05Z</time>
      </trkpt>
      <trkpt lat="37.7935080" lon="-3.3419830">
        <ele>769.2</ele>
        <time>2020-07-16T07:13:10Z</time>
      </trkpt>
      <trkpt lat="37.7934330" lon="-3.3416670">
        <ele>768.6</ele>
        <time>2020-07-16T07:13:13Z</time>
      </trkpt>
      <trkpt lat="37.7934080" lon="-3.3415560">
        <ele>768.2</ele>
        <time>2020-07-16T07:13:14Z</time>
      </trkpt>
      <trkpt lat="37.7933100" lon="-3.3411380">
        <ele>767.2</ele>
        <time>2020-07-16T07:13:18Z</time>
      </trkpt>
      <trkpt lat="37.7932350" lon="-3.3408220">
        <ele>766.6</ele>
        <time>2020-07-16T07:13:21Z</time>
      </trkpt>
      <trkpt lat="37.7931120" lon="-3.3403240">
        <ele>766.0</ele>
        <time>2020-07-16T07:13:26Z</time>
      </trkpt>
      <trkpt lat="37.7929800" lon="-3.3398390">
        <ele>765.2</ele>
        <time>2020-07-16T07:13:31Z</time>
      </trkpt>
      <trkpt lat="37.7929180" lon="-3.3396610">
        <ele>765.0</ele>
        <time>2020-07-16T07:13:33Z</time>
      </trkpt>
      <trkpt lat="37.7927510" lon="-3.3392060">
        <ele>764.6</ele>
        <time>2020-07-16T07:13:38Z</time>
      </trkpt>
      <trkpt lat="37.7925600" lon="-3.3387700">
        <ele>764.0</ele>
        <time>2020-07-16T07:13:43Z</time>
      </trkpt>
      <trkpt lat="37.7924310" lon="-3.3385140">
        <ele>763.6</ele>
        <time>2020-07-16T07:13:46Z</time>
      </trkpt>
      <trkpt lat="37.7922930" lon="-3.3382660">
        <ele>763.0</ele>
        <time>2020-07-16T07:13:49Z</time>
      </trkpt>
      <trkpt lat="37.7920070" lon="-3.3378020">
        <ele>762.4</ele>
        <time>2020-07-16T07:13:55Z</time>
      </trkpt>
      <trkpt lat="37.7919040" lon="-3.3376550">
        <ele>761.8</ele>
        <time>2020-07-16T07:13:57Z</time>
      </trkpt>
      <trkpt lat="37.7915790" lon="-3.3372470">
        <ele>761.2</ele>
        <time>2020-07-16T07:14:03Z</time>
      </trkpt>
      <trkpt lat="37.7913970" lon="-3.3370390">
        <ele>760.8</ele>
        <time>2020-07-16T07:14:06Z</time>
      </trkpt>
      <trkpt lat="37.7910870" lon="-3.3367160">
        <ele>760.0</ele>
        <time>2020-07-16T07:14:11Z</time>
      </trkpt>
      <trkpt lat="37.7908970" lon="-3.3365370">
        <ele>759.8</ele>
        <time>2020-07-16T07:14:14Z</time>
      </trkpt>
      <trkpt lat="37.7905030" lon="-3.3362100">
        <ele>759.2</ele>
        <time>2020-07-16T07:14:20Z</time>
      </trkpt>
      <trkpt lat="37.7899720" lon="-3.3358440">
        <ele>758.8</ele>
        <time>2020-07-16T07:14:28Z</time>
      </trkpt>
      <trkpt lat="37.7899060" lon="-3.3358060">
        <ele>758.8</ele>
        <time>2020-07-16T07:14:29Z</time>
      </trkpt>
      <trkpt lat="37.7896490" lon="-3.3356640">
        <ele>759.0</ele>
        <time>2020-07-16T07:14:33Z</time>
      </trkpt>
      <trkpt lat="37.7894560" lon="-3.3355620">
        <ele>759.2</ele>
        <time>2020-07-16T07:14:36Z</time>
      </trkpt>
      <trkpt lat="37.7892620" lon="-3.3354700">
        <ele>759.0</ele>
        <time>2020-07-16T07:14:39Z</time>
      </trkpt>
      <trkpt lat="37.7887060" lon="-3.3352230">
        <ele>759.0</ele>
        <time>2020-07-16T07:14:48Z</time>
      </trkpt>
      <trkpt lat="37.7886450" lon="-3.3351970">
        <ele>759.0</ele>
        <time>2020-07-16T07:14:49Z</time>
      </trkpt>
      <trkpt lat="37.7880990" lon="-3.3349530">
        <ele>759.2</ele>
        <time>2020-07-16T07:14:58Z</time>
      </trkpt>
      <trkpt lat="37.7875340" lon="-3.3347080">
        <ele>759.8</ele>
        <time>2020-07-16T07:15:07Z</time>
      </trkpt>
      <trkpt lat="37.7874770" lon="-3.3346830">
        <ele>759.8</ele>
        <time>2020-07-16T07:15:08Z</time>
      </trkpt>
      <trkpt lat="37.7869620" lon="-3.3345140">
        <ele>760.2</ele>
        <time>2020-07-16T07:15:16Z</time>
      </trkpt>
      <trkpt lat="37.7865620" lon="-3.3345070">
        <ele>760.8</ele>
        <time>2020-07-16T07:15:22Z</time>
      </trkpt>
      <trkpt lat="37.7864940" lon="-3.3345170">
        <ele>760.8</ele>
        <time>2020-07-16T07:15:23Z</time>
      </trkpt>
      <trkpt lat="37.7861760" lon="-3.3346260">
        <ele>761.4</ele>
        <time>2020-07-16T07:15:28Z</time>
      </trkpt>
      <trkpt lat="37.7857640" lon="-3.3349170">
        <ele>761.6</ele>
        <time>2020-07-16T07:15:35Z</time>
      </trkpt>
      <trkpt lat="37.7854210" lon="-3.3353650">
        <ele>759.8</ele>
        <time>2020-07-16T07:15:42Z</time>
      </trkpt>
      <trkpt lat="37.7850650" lon="-3.3360000">
        <ele>759.2</ele>
        <time>2020-07-16T07:15:50Z</time>
      </trkpt>
      <trkpt lat="37.7847190" lon="-3.3364520">
        <ele>758.8</ele>
        <time>2020-07-16T07:15:56Z</time>
      </trkpt>
      <trkpt lat="37.7846500" lon="-3.3365150">
        <ele>758.6</ele>
        <time>2020-07-16T07:15:57Z</time>
      </trkpt>
      <trkpt lat="37.7844880" lon="-3.3366480">
        <ele>758.4</ele>
        <time>2020-07-16T07:16:00Z</time>
      </trkpt>
      <trkpt lat="37.7843360" lon="-3.3367600">
        <ele>758.0</ele>
        <time>2020-07-16T07:16:02Z</time>
      </trkpt>
      <trkpt lat="37.7840960" lon="-3.3369250">
        <ele>757.2</ele>
        <time>2020-07-16T07:16:05Z</time>
      </trkpt>
      <trkpt lat="37.7838590" lon="-3.3371060">
        <ele>756.2</ele>
        <time>2020-07-16T07:16:08Z</time>
      </trkpt>
      <trkpt lat="37.7837760" lon="-3.3371780">
        <ele>755.8</ele>
        <time>2020-07-16T07:16:09Z</time>
      </trkpt>
      <trkpt lat="37.7836190" lon="-3.3373320">
        <ele>755.0</ele>
        <time>2020-07-16T07:16:11Z</time>
      </trkpt>
      <trkpt lat="37.7834820" lon="-3.3375110">
        <ele>754.2</ele>
        <time>2020-07-16T07:16:13Z</time>
      </trkpt>
      <trkpt lat="37.7834120" lon="-3.3376170">
        <ele>753.8</ele>
        <time>2020-07-16T07:16:14Z</time>
      </trkpt>
      <trkpt lat="37.7832400" lon="-3.3379490">
        <ele>752.8</ele>
        <time>2020-07-16T07:16:17Z</time>
      </trkpt>
      <trkpt lat="37.7831840" lon="-3.3380520">
        <ele>752.4</ele>
        <time>2020-07-16T07:16:18Z</time>
      </trkpt>
      <trkpt lat="37.7829800" lon="-3.3383970">
        <ele>751.2</ele>
        <time>2020-07-16T07:16:21Z</time>
      </trkpt>
      <trkpt lat="37.7828370" lon="-3.3386010">
        <ele>750.6</ele>
        <time>2020-07-16T07:16:23Z</time>
      </trkpt>
      <trkpt lat="37.7826650" lon="-3.3387930">
        <ele>750.0</ele>
        <time>2020-07-16T07:16:25Z</time>
      </trkpt>
      <trkpt lat="37.7824790" lon="-3.3389530">
        <ele>749.4</ele>
        <time>2020-07-16T07:16:27Z</time>
      </trkpt>
      <trkpt lat="37.7823940" lon="-3.3390170">
        <ele>749.0</ele>
        <time>2020-07-16T07:16:28Z</time>
      </trkpt>
      <trkpt lat="37.7820790" lon="-3.3392380">
        <ele>747.6</ele>
        <time>2020-07-16T07:16:31Z</time>
      </trkpt>
      <trkpt lat="37.7818830" lon="-3.3393860">
        <ele>746.6</ele>
        <time>2020-07-16T07:16:33Z</time>
      </trkpt>
      <trkpt lat="37.7817840" lon="-3.3394720">
        <ele>746.0</ele>
        <time>2020-07-16T07:16:34Z</time>
      </trkpt>
      <trkpt lat="37.7815940" lon="-3.3396740">
        <ele>744.8</ele>
        <time>2020-07-16T07:16:36Z</time>
      </trkpt>
      <trkpt lat="37.7815060" lon="-3.3397880">
        <ele>744.2</ele>
        <time>2020-07-16T07:16:37Z</time>
      </trkpt>
      <trkpt lat="37.7814290" lon="-3.3398970">
        <ele>743.6</ele>
        <time>2020-07-16T07:16:38Z</time>
      </trkpt>
      <trkpt lat="37.7811900" lon="-3.3402680">
        <ele>742.2</ele>
        <time>2020-07-16T07:16:41Z</time>
      </trkpt>
      <trkpt lat="37.7810350" lon="-3.3404980">
        <ele>741.4</ele>
        <time>2020-07-16T07:16:43Z</time>
      </trkpt>
      <trkpt lat="37.7809460" lon="-3.3406170">
        <ele>741.0</ele>
        <time>2020-07-16T07:16:44Z</time>
      </trkpt>
      <trkpt lat="37.7806650" lon="-3.3408990">
        <ele>740.0</ele>
        <time>2020-07-16T07:16:47Z</time>
      </trkpt>
      <trkpt lat="37.7805690" lon="-3.3409710">
        <ele>739.8</ele>
        <time>2020-07-16T07:16:48Z</time>
      </trkpt>
      <trkpt lat="37.7802410" lon="-3.3411410">
        <ele>739.0</ele>
        <time>2020-07-16T07:16:51Z</time>
      </trkpt>
      <trkpt lat="37.7798090" lon="-3.3412220">
        <ele>738.8</ele>
        <time>2020-07-16T07:16:55Z</time>
      </trkpt>
      <trkpt lat="37.7795200" lon="-3.3411960">
        <ele>738.6</ele>
        <time>2020-07-16T07:16:58Z</time>
      </trkpt>
      <trkpt lat="37.7794140" lon="-3.3411700">
        <ele>738.8</ele>
        <time>2020-07-16T07:16:59Z</time>
      </trkpt>
      <trkpt lat="37.7790110" lon="-3.3409840">
        <ele>739.6</ele>
        <time>2020-07-16T07:17:04Z</time>
      </trkpt>
      <trkpt lat="37.7788780" lon="-3.3408880">
        <ele>739.8</ele>
        <time>2020-07-16T07:17:06Z</time>
      </trkpt>
      <trkpt lat="37.7787080" lon="-3.3407270">
        <ele>740.2</ele>
        <time>2020-07-16T07:17:09Z</time>
      </trkpt>
      <trkpt lat="37.7785650" lon="-3.3405550">
        <ele>740.6</ele>
        <time>2020-07-16T07:17:12Z</time>
      </trkpt>
      <trkpt lat="37.7785260" lon="-3.3405000">
        <ele>740.8</ele>
        <time>2020-07-16T07:17:13Z</time>
      </trkpt>
      <trkpt lat="37.7784490" lon="-3.3403750">
        <ele>741.4</ele>
        <time>2020-07-16T07:17:15Z</time>
      </trkpt>
      <trkpt lat="37.7783840" lon="-3.3402510">
        <ele>742.0</ele>
        <time>2020-07-16T07:17:17Z</time>
      </trkpt>
      <trkpt lat="37.7783290" lon="-3.3401290">
        <ele>742.6</ele>
        <time>2020-07-16T07:17:19Z</time>
      </trkpt>
      <trkpt lat="37.7782840" lon="-3.3400120">
        <ele>743.2</ele>
        <time>2020-07-16T07:17:21Z</time>
      </trkpt>
      <trkpt lat="37.7782650" lon="-3.3399590">
        <ele>743.4</ele>
        <time>2020-07-16T07:17:22Z</time>
      </trkpt>
      <trkpt lat="37.7782160" lon="-3.3397940">
        <ele>744.2</ele>
        <time>2020-07-16T07:17:25Z</time>
      </trkpt>
      <trkpt lat="37.7781780" lon="-3.3396410">
        <ele>744.8</ele>
        <time>2020-07-16T07:17:28Z</time>
      </trkpt>
      <trkpt lat="37.7781480" lon="-3.3394740">
        <ele>745.2</ele>
        <time>2020-07-16T07:17:31Z</time>
      </trkpt>
      <trkpt lat="37.7781110" lon="-3.3392140">
        <ele>746.4</ele>
        <time>2020-07-16T07:17:36Z</time>
      </trkpt>
      <trkpt lat="37.7780950" lon="-3.3391150">
        <ele>746.8</ele>
        <time>2020-07-16T07:17:38Z</time>
      </trkpt>
      <trkpt lat="37.7780690" lon="-3.3389590">
        <ele>747.4</ele>
        <time>2020-07-16T07:17:41Z</time>
      </trkpt>
      <trkpt lat="37.7780340" lon="-3.3387110">
        <ele>748.6</ele>
        <time>2020-07-16T07:17:46Z</time>
      </trkpt>
      <trkpt lat="37.7780210" lon="-3.3386120">
        <ele>748.8</ele>
        <time>2020-07-16T07:17:48Z</time>
      </trkpt>
      <trkpt lat="37.7779950" lon="-3.3384110">
        <ele>749.8</ele>
        <time>2020-07-16T07:17:52Z</time>
      </trkpt>
      <trkpt lat="37.7779470" lon="-3.3381610">
        <ele>750.6</ele>
        <time>2020-07-16T07:17:57Z</time>
      </trkpt>
      <trkpt lat="37.7779370" lon="-3.3381190">
        <ele>751.0</ele>
        <time>2020-07-16T07:17:58Z</time>
      </trkpt>
      <trkpt lat="37.7778730" lon="-3.3378970">
        <ele>752.0</ele>
        <time>2020-07-16T07:18:03Z</time>
      </trkpt>
      <trkpt lat="37.7778580" lon="-3.3378540">
        <ele>752.4</ele>
        <time>2020-07-16T07:18:04Z</time>
      </trkpt>
      <trkpt lat="37.7777900" lon="-3.3376890">
        <ele>753.2</ele>
        <time>2020-07-16T07:18:08Z</time>
      </trkpt>
      <trkpt lat="37.7776830" lon="-3.3374860">
        <ele>753.8</ele>
        <time>2020-07-16T07:18:13Z</time>
      </trkpt>
      <trkpt lat="37.7776340" lon="-3.3374110">
        <ele>754.2</ele>
        <time>2020-07-16T07:18:15Z</time>
      </trkpt>
      <trkpt lat="37.7775130" lon="-3.3372420">
        <ele>755.4</ele>
        <time>2020-07-16T07:18:20Z</time>
      </trkpt>
      <trkpt lat="37.7774860" lon="-3.3372110">
        <ele>755.6</ele>
        <time>2020-07-16T07:18:21Z</time>
      </trkpt>
      <trkpt lat="37.7773450" lon="-3.3370710">
        <ele>756.6</ele>
        <time>2020-07-16T07:18:26Z</time>
      </trkpt>
      <trkpt lat="37.7772250" lon="-3.3369750">
        <ele>757.4</ele>
        <time>2020-07-16T07:18:30Z</time>
      </trkpt>
      <trkpt lat="37.7771950" lon="-3.3369510">
        <ele>757.8</ele>
        <time>2020-07-16T07:18:31Z</time>
      </trkpt>
      <trkpt lat="37.7770050" lon="-3.3368390">
        <ele>758.8</ele>
        <time>2020-07-16T07:18:37Z</time>
      </trkpt>
      <trkpt lat="37.7769730" lon="-3.3368240">
        <ele>758.8</ele>
        <time>2020-07-16T07:18:38Z</time>
      </trkpt>
      <trkpt lat="37.7767650" lon="-3.3367450">
        <ele>759.8</ele>
        <time>2020-07-16T07:18:44Z</time>
      </trkpt>
      <trkpt lat="37.7766980" lon="-3.3367280">
        <ele>760.4</ele>
        <time>2020-07-16T07:18:46Z</time>
      </trkpt>
      <trkpt lat="37.7765880" lon="-3.3367050">
        <ele>761.0</ele>
        <time>2020-07-16T07:18:49Z</time>
      </trkpt>
      <trkpt lat="37.7764050" lon="-3.3366940">
        <ele>761.6</ele>
        <time>2020-07-16T07:18:54Z</time>
      </trkpt>
      <trkpt lat="37.7762930" lon="-3.3367030">
        <ele>762.0</ele>
        <time>2020-07-16T07:18:57Z</time>
      </trkpt>
      <trkpt lat="37.7760270" lon="-3.3367650">
        <ele>762.8</ele>
        <time>2020-07-16T07:19:04Z</time>
      </trkpt>
      <trkpt lat="37.7759120" lon="-3.3368050">
        <ele>763.2</ele>
        <time>2020-07-16T07:19:07Z</time>
      </trkpt>
      <trkpt lat="37.7756820" lon="-3.3369280">
        <ele>763.6</ele>
        <time>2020-07-16T07:19:13Z</time>
      </trkpt>
      <trkpt lat="37.7753790" lon="-3.3371560">
        <ele>764.2</ele>
        <time>2020-07-16T07:19:21Z</time>
      </trkpt>
      <trkpt lat="37.7753420" lon="-3.3371870">
        <ele>764.4</ele>
        <time>2020-07-16T07:19:22Z</time>
      </trkpt>
      <trkpt lat="37.7751780" lon="-3.3373250">
        <ele>764.6</ele>
        <time>2020-07-16T07:19:26Z</time>
      </trkpt>
      <trkpt lat="37.7750040" lon="-3.3374690">
        <ele>764.8</ele>
        <time>2020-07-16T07:19:30Z</time>
      </trkpt>
      <trkpt lat="37.7746850" lon="-3.3377340">
        <ele>764.8</ele>
        <time>2020-07-16T07:19:37Z</time>
      </trkpt>
      <trkpt lat="37.7744940" lon="-3.3378940">
        <ele>764.8</ele>
        <time>2020-07-16T07:19:41Z</time>
      </trkpt>
      <trkpt lat="37.7741420" lon="-3.3381900">
        <ele>764.8</ele>
        <time>2020-07-16T07:19:48Z</time>
      </trkpt>
      <trkpt lat="37.7739750" lon="-3.3383270">
        <ele>764.6</ele>
        <time>2020-07-16T07:19:51Z</time>
      </trkpt>
      <trkpt lat="37.7735390" lon="-3.3386220">
        <ele>764.0</ele>
        <time>2020-07-16T07:19:58Z</time>
      </trkpt>
      <trkpt lat="37.7732090" lon="-3.3387380">
        <ele>762.8</ele>
        <time>2020-07-16T07:20:02Z</time>
      </trkpt>
      <trkpt lat="37.7731240" lon="-3.3387530">
        <ele>762.6</ele>
        <time>2020-07-16T07:20:03Z</time>
      </trkpt>
      <trkpt lat="37.7729300" lon="-3.3387660">
        <ele>761.8</ele>
        <time>2020-07-16T07:20:05Z</time>
      </trkpt>
      <trkpt lat="37.7727370" lon="-3.3387510">
        <ele>761.0</ele>
        <time>2020-07-16T07:20:07Z</time>
      </trkpt>
      <trkpt lat="37.7726460" lon="-3.3387360">
        <ele>760.6</ele>
        <time>2020-07-16T07:20:08Z</time>
      </trkpt>
      <trkpt lat="37.7723530" lon="-3.3386400">
        <ele>759.8</ele>
        <time>2020-07-16T07:20:11Z</time>
      </trkpt>
      <trkpt lat="37.7722630" lon="-3.3385950">
        <ele>759.4</ele>
        <time>2020-07-16T07:20:12Z</time>
      </trkpt>
      <trkpt lat="37.7720130" lon="-3.3384230">
        <ele>758.8</ele>
        <time>2020-07-16T07:20:15Z</time>
      </trkpt>
      <trkpt lat="37.7716890" lon="-3.3380800">
        <ele>758.8</ele>
        <time>2020-07-16T07:20:20Z</time>
      </trkpt>
      <trkpt lat="37.7714460" lon="-3.3376540">
        <ele>759.6</ele>
        <time>2020-07-16T07:20:26Z</time>
      </trkpt>
      <trkpt lat="37.7713210" lon="-3.3373890">
        <ele>760.4</ele>
        <time>2020-07-16T07:20:30Z</time>
      </trkpt>
      <trkpt lat="37.7712920" lon="-3.3373250">
        <ele>760.6</ele>
        <time>2020-07-16T07:20:31Z</time>
      </trkpt>
      <trkpt lat="37.7711740" lon="-3.3370660">
        <ele>760.6</ele>
        <time>2020-07-16T07:20:35Z</time>
      </trkpt>
      <trkpt lat="37.7709120" lon="-3.3366350">
        <ele>760.4</ele>
        <time>2020-07-16T07:20:42Z</time>
      </trkpt>
      <trkpt lat="37.7705750" lon="-3.3362760">
        <ele>759.4</ele>
        <time>2020-07-16T07:20:49Z</time>
      </trkpt>
      <trkpt lat="37.7702780" lon="-3.3360260">
        <ele>758.2</ele>
        <time>2020-07-16T07:20:54Z</time>
      </trkpt>
      <trkpt lat="37.7700870" lon="-3.3358810">
        <ele>757.6</ele>
        <time>2020-07-16T07:20:57Z</time>
      </trkpt>
      <trkpt lat="37.7699570" lon="-3.3357820">
        <ele>757.2</ele>
        <time>2020-07-16T07:20:59Z</time>
      </trkpt>
      <trkpt lat="37.7697010" lon="-3.3355880">
        <ele>756.2</ele>
        <time>2020-07-16T07:21:03Z</time>
      </trkpt>
      <trkpt lat="37.7694910" lon="-3.3354340">
        <ele>755.6</ele>
        <time>2020-07-16T07:21:06Z</time>
      </trkpt>
      <trkpt lat="37.7694220" lon="-3.3353820">
        <ele>755.2</ele>
        <time>2020-07-16T07:21:07Z</time>
      </trkpt>
      <trkpt lat="37.7689940" lon="-3.3350700">
        <ele>754.0</ele>
        <time>2020-07-16T07:21:13Z</time>
      </trkpt>
      <trkpt lat="37.7688320" lon="-3.3349600">
        <ele>753.4</ele>
        <time>2020-07-16T07:21:15Z</time>
      </trkpt>
      <trkpt lat="37.7687550" lon="-3.3349120">
        <ele>752.8</ele>
        <time>2020-07-16T07:21:16Z</time>
      </trkpt>
      <trkpt lat="37.7684880" lon="-3.3347640">
        <ele>751.8</ele>
        <time>2020-07-16T07:21:19Z</time>
      </trkpt>
      <trkpt lat="37.7682970" lon="-3.3346730">
        <ele>750.6</ele>
        <time>2020-07-16T07:21:21Z</time>
      </trkpt>
      <trkpt lat="37.7681070" lon="-3.3345930">
        <ele>749.4</ele>
        <time>2020-07-16T07:21:23Z</time>
      </trkpt>
      <trkpt lat="37.7678950" lon="-3.3345150">
        <ele>747.8</ele>
        <time>2020-07-16T07:21:25Z</time>
      </trkpt>
      <trkpt lat="37.7676810" lon="-3.3344450">
        <ele>746.8</ele>
        <time>2020-07-16T07:21:27Z</time>
      </trkpt>
      <trkpt lat="37.7675900" lon="-3.3344160">
        <ele>746.4</ele>
        <time>2020-07-16T07:21:28Z</time>
      </trkpt>
      <trkpt lat="37.7674600" lon="-3.3343750">
        <ele>745.6</ele>
        <time>2020-07-16T07:21:29Z</time>
      </trkpt>
      <trkpt lat="37.7672380" lon="-3.3343080">
        <ele>744.6</ele>
        <time>2020-07-16T07:21:31Z</time>
      </trkpt>
      <trkpt lat="37.7670190" lon="-3.3342400">
        <ele>743.6</ele>
        <time>2020-07-16T07:21:33Z</time>
      </trkpt>
      <trkpt lat="37.7667870" lon="-3.3341670">
        <ele>742.4</ele>
        <time>2020-07-16T07:21:35Z</time>
      </trkpt>
      <trkpt lat="37.7665600" lon="-3.3340950">
        <ele>740.6</ele>
        <time>2020-07-16T07:21:37Z</time>
      </trkpt>
      <trkpt lat="37.7663320" lon="-3.3340220">
        <ele>739.0</ele>
        <time>2020-07-16T07:21:39Z</time>
      </trkpt>
      <trkpt lat="37.7662200" lon="-3.3339880">
        <ele>738.0</ele>
        <time>2020-07-16T07:21:40Z</time>
      </trkpt>
      <trkpt lat="37.7659900" lon="-3.3339170">
        <ele>736.6</ele>
        <time>2020-07-16T07:21:42Z</time>
      </trkpt>
      <trkpt lat="37.7657680" lon="-3.3338460">
        <ele>735.2</ele>
        <time>2020-07-16T07:21:44Z</time>
      </trkpt>
      <trkpt lat="37.7654500" lon="-3.3337500">
        <ele>734.0</ele>
        <time>2020-07-16T07:21:47Z</time>
      </trkpt>
      <trkpt lat="37.7653590" lon="-3.3337210">
        <ele>733.8</ele>
        <time>2020-07-16T07:21:48Z</time>
      </trkpt>
      <trkpt lat="37.7649260" lon="-3.3335890">
        <ele>734.2</ele>
        <time>2020-07-16T07:21:53Z</time>
      </trkpt>
      <trkpt lat="37.7646480" lon="-3.3335030">
        <ele>734.6</ele>
        <time>2020-07-16T07:21:57Z</time>
      </trkpt>
      <trkpt lat="37.7645950" lon="-3.3334860">
        <ele>734.8</ele>
        <time>2020-07-16T07:21:58Z</time>
      </trkpt>
      <trkpt lat="37.7645310" lon="-3.3334670">
        <ele>735.2</ele>
        <time>2020-07-16T07:21:59Z</time>
      </trkpt>
      <trkpt lat="37.7644270" lon="-3.3334350">
        <ele>736.2</ele>
        <time>2020-07-16T07:22:01Z</time>
      </trkpt>
      <trkpt lat="37.7642850" lon="-3.3333910">
        <ele>737.2</ele>
        <time>2020-07-16T07:22:04Z</time>
      </trkpt>
      <trkpt lat="37.7641910" lon="-3.3333610">
        <ele>737.4</ele>
        <time>2020-07-16T07:22:06Z</time>
      </trkpt>
      <trkpt lat="37.7641060" lon="-3.3333350">
        <ele>738.2</ele>
        <time>2020-07-16T07:22:08Z</time>
      </trkpt>
      <trkpt lat="37.7640590" lon="-3.3333190">
        <ele>738.6</ele>
        <time>2020-07-16T07:22:09Z</time>
      </trkpt>
      <trkpt lat="37.7639710" lon="-3.3332960">
        <ele>739.0</ele>
        <time>2020-07-16T07:22:11Z</time>
      </trkpt>
      <trkpt lat="37.7639270" lon="-3.3332830">
        <ele>739.2</ele>
        <time>2020-07-16T07:22:12Z</time>
      </trkpt>
      <trkpt lat="37.7638880" lon="-3.3332720">
        <ele>739.6</ele>
        <time>2020-07-16T07:22:13Z</time>
      </trkpt>
      <trkpt lat="37.7637650" lon="-3.3332420">
        <ele>740.4</ele>
        <time>2020-07-16T07:22:16Z</time>
      </trkpt>
      <trkpt lat="37.7637230" lon="-3.3332330">
        <ele>740.6</ele>
        <time>2020-07-16T07:22:17Z</time>
      </trkpt>
      <trkpt lat="37.7636490" lon="-3.3332120">
        <ele>741.0</ele>
        <time>2020-07-16T07:22:19Z</time>
      </trkpt>
      <trkpt lat="37.7635430" lon="-3.3331900">
        <ele>741.6</ele>
        <time>2020-07-16T07:22:22Z</time>
      </trkpt>
      <trkpt lat="37.7633430" lon="-3.3331600">
        <ele>742.8</ele>
        <time>2020-07-16T07:22:28Z</time>
      </trkpt>
      <trkpt lat="37.7633070" lon="-3.3331550">
        <ele>743.0</ele>
        <time>2020-07-16T07:22:29Z</time>
      </trkpt>
      <trkpt lat="37.7632090" lon="-3.3331470">
        <ele>743.8</ele>
        <time>2020-07-16T07:22:32Z</time>
      </trkpt>
      <trkpt lat="37.7630470" lon="-3.3331410">
        <ele>744.8</ele>
        <time>2020-07-16T07:22:37Z</time>
      </trkpt>
      <trkpt lat="37.7630170" lon="-3.3331420">
        <ele>745.0</ele>
        <time>2020-07-16T07:22:38Z</time>
      </trkpt>
      <trkpt lat="37.7628610" lon="-3.3331430">
        <ele>746.0</ele>
        <time>2020-07-16T07:22:43Z</time>
      </trkpt>
      <trkpt lat="37.7627600" lon="-3.3331420">
        <ele>746.4</ele>
        <time>2020-07-16T07:22:46Z</time>
      </trkpt>
      <trkpt lat="37.7626640" lon="-3.3331440">
        <ele>747.0</ele>
        <time>2020-07-16T07:22:49Z</time>
      </trkpt>
      <trkpt lat="37.7624900" lon="-3.3331500">
        <ele>748.2</ele>
        <time>2020-07-16T07:22:55Z</time>
      </trkpt>
      <trkpt lat="37.7624620" lon="-3.3331510">
        <ele>748.4</ele>
        <time>2020-07-16T07:22:56Z</time>
      </trkpt>
      <trkpt lat="37.7623210" lon="-3.3331550">
        <ele>749.2</ele>
        <time>2020-07-16T07:23:01Z</time>
      </trkpt>
      <trkpt lat="37.7621820" lon="-3.3331610">
        <ele>750.2</ele>
        <time>2020-07-16T07:23:06Z</time>
      </trkpt>
      <trkpt lat="37.7621540" lon="-3.3331620">
        <ele>750.4</ele>
        <time>2020-07-16T07:23:07Z</time>
      </trkpt>
      <trkpt lat="37.7619900" lon="-3.3331720">
        <ele>751.4</ele>
        <time>2020-07-16T07:23:13Z</time>
      </trkpt>
      <trkpt lat="37.7619320" lon="-3.3331730">
        <ele>752.0</ele>
        <time>2020-07-16T07:23:15Z</time>
      </trkpt>
      <trkpt lat="37.7618240" lon="-3.3331800">
        <ele>752.8</ele>
        <time>2020-07-16T07:23:19Z</time>
      </trkpt>
      <trkpt lat="37.7617180" lon="-3.3331870">
        <ele>753.8</ele>
        <time>2020-07-16T07:23:23Z</time>
      </trkpt>
      <trkpt lat="37.7614920" lon="-3.3331980">
        <ele>755.0</ele>
        <time>2020-07-16T07:23:32Z</time>
      </trkpt>
      <trkpt lat="37.7613350" lon="-3.3332030">
        <ele>756.0</ele>
        <time>2020-07-16T07:23:38Z</time>
      </trkpt>
      <trkpt lat="37.7612310" lon="-3.3332100">
        <ele>757.2</ele>
        <time>2020-07-16T07:23:42Z</time>
      </trkpt>
      <trkpt lat="37.7610540" lon="-3.3332150">
        <ele>758.0</ele>
        <time>2020-07-16T07:23:49Z</time>
      </trkpt>
      <trkpt lat="37.7610290" lon="-3.3332150">
        <ele>758.2</ele>
        <time>2020-07-16T07:23:50Z</time>
      </trkpt>
      <trkpt lat="37.7610040" lon="-3.3332170">
        <ele>758.4</ele>
        <time>2020-07-16T07:23:51Z</time>
      </trkpt>
      <trkpt lat="37.7608520" lon="-3.3332220">
        <ele>759.4</ele>
        <time>2020-07-16T07:23:57Z</time>
      </trkpt>
      <trkpt lat="37.7606740" lon="-3.3332310">
        <ele>760.6</ele>
        <time>2020-07-16T07:24:04Z</time>
      </trkpt>
      <trkpt lat="37.7605160" lon="-3.3332350">
        <ele>761.6</ele>
        <time>2020-07-16T07:24:10Z</time>
      </trkpt>
      <trkpt lat="37.7603850" lon="-3.3332420">
        <ele>762.8</ele>
        <time>2020-07-16T07:24:15Z</time>
      </trkpt>
      <trkpt lat="37.7602280" lon="-3.3332530">
        <ele>763.8</ele>
        <time>2020-07-16T07:24:21Z</time>
      </trkpt>
      <trkpt lat="37.7601500" lon="-3.3332600">
        <ele>764.4</ele>
        <time>2020-07-16T07:24:24Z</time>
      </trkpt>
      <trkpt lat="37.7600470" lon="-3.3332800">
        <ele>765.0</ele>
        <time>2020-07-16T07:24:28Z</time>
      </trkpt>
      <trkpt lat="37.7598970" lon="-3.3333160">
        <ele>766.0</ele>
        <time>2020-07-16T07:24:34Z</time>
      </trkpt>
      <trkpt lat="37.7598700" lon="-3.3333240">
        <ele>766.2</ele>
        <time>2020-07-16T07:24:35Z</time>
      </trkpt>
      <trkpt lat="37.7597680" lon="-3.3333560">
        <ele>767.0</ele>
        <time>2020-07-16T07:24:39Z</time>
      </trkpt>
      <trkpt lat="37.7596140" lon="-3.3334170">
        <ele>768.0</ele>
        <time>2020-07-16T07:24:45Z</time>
      </trkpt>
      <trkpt lat="37.7595890" lon="-3.3334290">
        <ele>768.2</ele>
        <time>2020-07-16T07:24:46Z</time>
      </trkpt>
      <trkpt lat="37.7593920" lon="-3.3335330">
        <ele>769.2</ele>
        <time>2020-07-16T07:24:54Z</time>
      </trkpt>
      <trkpt lat="37.7593570" lon="-3.3335550">
        <ele>769.4</ele>
        <time>2020-07-16T07:24:55Z</time>
      </trkpt>
      <trkpt lat="37.7592550" lon="-3.3336280">
        <ele>770.4</ele>
        <time>2020-07-16T07:24:59Z</time>
      </trkpt>
      <trkpt lat="37.7591100" lon="-3.3337400">
        <ele>771.4</ele>
        <time>2020-07-16T07:25:05Z</time>
      </trkpt>
      <trkpt lat="37.7590610" lon="-3.3337800">
        <ele>771.8</ele>
        <time>2020-07-16T07:25:07Z</time>
      </trkpt>
      <trkpt lat="37.7589170" lon="-3.3339190">
        <ele>772.6</ele>
        <time>2020-07-16T07:25:13Z</time>
      </trkpt>
      <trkpt lat="37.7588670" lon="-3.3339730">
        <ele>773.0</ele>
        <time>2020-07-16T07:25:15Z</time>
      </trkpt>
      <trkpt lat="37.7586090" lon="-3.3343090">
        <ele>773.6</ele>
        <time>2020-07-16T07:25:26Z</time>
      </trkpt>
      <trkpt lat="37.7583880" lon="-3.3346890">
        <ele>774.6</ele>
        <time>2020-07-16T07:25:36Z</time>
      </trkpt>
      <trkpt lat="37.7583670" lon="-3.3347310">
        <ele>774.6</ele>
        <time>2020-07-16T07:25:37Z</time>
      </trkpt>
      <trkpt lat="37.7581690" lon="-3.3351310">
        <ele>775.0</ele>
        <time>2020-07-16T07:25:46Z</time>
      </trkpt>
      <trkpt lat="37.7579140" lon="-3.3356520">
        <ele>775.4</ele>
        <time>2020-07-16T07:25:57Z</time>
      </trkpt>
      <trkpt lat="37.7577760" lon="-3.3359300">
        <ele>775.6</ele>
        <time>2020-07-16T07:26:03Z</time>
      </trkpt>
      <trkpt lat="37.7576390" lon="-3.3362150">
        <ele>776.2</ele>
        <time>2020-07-16T07:26:09Z</time>
      </trkpt>
      <trkpt lat="37.7575240" lon="-3.3364490">
        <ele>776.8</ele>
        <time>2020-07-16T07:26:14Z</time>
      </trkpt>
      <trkpt lat="37.7573620" lon="-3.3367860">
        <ele>777.0</ele>
        <time>2020-07-16T07:26:21Z</time>
      </trkpt>
      <trkpt lat="37.7571220" lon="-3.3372690">
        <ele>777.6</ele>
        <time>2020-07-16T07:26:31Z</time>
      </trkpt>
      <trkpt lat="37.7570530" lon="-3.3374110">
        <ele>777.8</ele>
        <time>2020-07-16T07:26:34Z</time>
      </trkpt>
      <trkpt lat="37.7568660" lon="-3.3378480">
        <ele>778.4</ele>
        <time>2020-07-16T07:26:43Z</time>
      </trkpt>
      <trkpt lat="37.7567630" lon="-3.3381560">
        <ele>778.8</ele>
        <time>2020-07-16T07:26:49Z</time>
      </trkpt>
      <trkpt lat="37.7567040" lon="-3.3383560">
        <ele>779.0</ele>
        <time>2020-07-16T07:26:53Z</time>
      </trkpt>
      <trkpt lat="37.7565790" lon="-3.3389410">
        <ele>780.0</ele>
        <time>2020-07-16T07:27:04Z</time>
      </trkpt>
      <trkpt lat="37.7565680" lon="-3.3389990">
        <ele>780.0</ele>
        <time>2020-07-16T07:27:05Z</time>
      </trkpt>
      <trkpt lat="37.7565240" lon="-3.3392250">
        <ele>780.4</ele>
        <time>2020-07-16T07:27:09Z</time>
      </trkpt>
      <trkpt lat="37.7564620" lon="-3.3395590">
        <ele>780.6</ele>
        <time>2020-07-16T07:27:15Z</time>
      </trkpt>
      <trkpt lat="37.7564410" lon="-3.3396670">
        <ele>781.0</ele>
        <time>2020-07-16T07:27:17Z</time>
      </trkpt>
      <trkpt lat="37.7563400" lon="-3.3401390">
        <ele>781.4</ele>
        <time>2020-07-16T07:27:26Z</time>
      </trkpt>
      <trkpt lat="37.7562410" lon="-3.3404960">
        <ele>782.0</ele>
        <time>2020-07-16T07:27:33Z</time>
      </trkpt>
      <trkpt lat="37.7561880" lon="-3.3406580">
        <ele>782.0</ele>
        <time>2020-07-16T07:27:36Z</time>
      </trkpt>
      <trkpt lat="37.7559770" lon="-3.3411590">
        <ele>782.8</ele>
        <time>2020-07-16T07:27:46Z</time>
      </trkpt>
      <trkpt lat="37.7559520" lon="-3.3412080">
        <ele>783.0</ele>
        <time>2020-07-16T07:27:47Z</time>
      </trkpt>
      <trkpt lat="37.7557210" lon="-3.3416280">
        <ele>783.8</ele>
        <time>2020-07-16T07:27:56Z</time>
      </trkpt>
      <trkpt lat="37.7556450" lon="-3.3417620">
        <ele>784.0</ele>
        <time>2020-07-16T07:27:59Z</time>
      </trkpt>
      <trkpt lat="37.7554340" lon="-3.3421120">
        <ele>784.4</ele>
        <time>2020-07-16T07:28:07Z</time>
      </trkpt>
      <trkpt lat="37.7552460" lon="-3.3424260">
        <ele>785.0</ele>
        <time>2020-07-16T07:28:14Z</time>
      </trkpt>
      <trkpt lat="37.7551910" lon="-3.3425130">
        <ele>785.0</ele>
        <time>2020-07-16T07:28:16Z</time>
      </trkpt>
      <trkpt lat="37.7550480" lon="-3.3427430">
        <ele>785.2</ele>
        <time>2020-07-16T07:28:21Z</time>
      </trkpt>
      <trkpt lat="37.7547890" lon="-3.3431700">
        <ele>785.0</ele>
        <time>2020-07-16T07:28:30Z</time>
      </trkpt>
      <trkpt lat="37.7547310" lon="-3.3432690">
        <ele>784.8</ele>
        <time>2020-07-16T07:28:32Z</time>
      </trkpt>
      <trkpt lat="37.7545790" lon="-3.3435230">
        <ele>784.8</ele>
        <time>2020-07-16T07:28:37Z</time>
      </trkpt>
      <trkpt lat="37.7543770" lon="-3.3438480">
        <ele>784.2</ele>
        <time>2020-07-16T07:28:43Z</time>
      </trkpt>
      <trkpt lat="37.7543380" lon="-3.3439130">
        <ele>784.0</ele>
        <time>2020-07-16T07:28:44Z</time>
      </trkpt>
      <trkpt lat="37.7540740" lon="-3.3443580">
        <ele>783.2</ele>
        <time>2020-07-16T07:28:51Z</time>
      </trkpt>
      <trkpt lat="37.7540370" lon="-3.3444210">
        <ele>783.0</ele>
        <time>2020-07-16T07:28:52Z</time>
      </trkpt>
      <trkpt lat="37.7537810" lon="-3.3448460">
        <ele>781.8</ele>
        <time>2020-07-16T07:28:58Z</time>
      </trkpt>
      <trkpt lat="37.7536480" lon="-3.3450840">
        <ele>781.0</ele>
        <time>2020-07-16T07:29:01Z</time>
      </trkpt>
      <trkpt lat="37.7536030" lon="-3.3451660">
        <ele>780.8</ele>
        <time>2020-07-16T07:29:02Z</time>
      </trkpt>
      <trkpt lat="37.7534690" lon="-3.3454260">
        <ele>779.8</ele>
        <time>2020-07-16T07:29:05Z</time>
      </trkpt>
      <trkpt lat="37.7533420" lon="-3.3457000">
        <ele>778.6</ele>
        <time>2020-07-16T07:29:08Z</time>
      </trkpt>
      <trkpt lat="37.7532110" lon="-3.3460200">
        <ele>777.4</ele>
        <time>2020-07-16T07:29:11Z</time>
      </trkpt>
      <trkpt lat="37.7530920" lon="-3.3463530">
        <ele>776.4</ele>
        <time>2020-07-16T07:29:14Z</time>
      </trkpt>
      <trkpt lat="37.7530540" lon="-3.3464660">
        <ele>776.0</ele>
        <time>2020-07-16T07:29:15Z</time>
      </trkpt>
      <trkpt lat="37.7530190" lon="-3.3465780">
        <ele>775.4</ele>
        <time>2020-07-16T07:29:16Z</time>
      </trkpt>
      <trkpt lat="37.7529500" lon="-3.3468140">
        <ele>773.8</ele>
        <time>2020-07-16T07:29:18Z</time>
      </trkpt>
      <trkpt lat="37.7528830" lon="-3.3470730">
        <ele>772.2</ele>
        <time>2020-07-16T07:29:20Z</time>
      </trkpt>
      <trkpt lat="37.7528250" lon="-3.3473210">
        <ele>771.0</ele>
        <time>2020-07-16T07:29:22Z</time>
      </trkpt>
      <trkpt lat="37.7527690" lon="-3.3475940">
        <ele>769.8</ele>
        <time>2020-07-16T07:29:24Z</time>
      </trkpt>
      <trkpt lat="37.7527150" lon="-3.3478650">
        <ele>768.4</ele>
        <time>2020-07-16T07:29:26Z</time>
      </trkpt>
      <trkpt lat="37.7526320" lon="-3.3482790">
        <ele>766.6</ele>
        <time>2020-07-16T07:29:29Z</time>
      </trkpt>
      <trkpt lat="37.7525690" lon="-3.3485580">
        <ele>765.4</ele>
        <time>2020-07-16T07:29:31Z</time>
      </trkpt>
      <trkpt lat="37.7524960" lon="-3.3488270">
        <ele>764.2</ele>
        <time>2020-07-16T07:29:33Z</time>
      </trkpt>
      <trkpt lat="37.7523980" lon="-3.3491070">
        <ele>763.0</ele>
        <time>2020-07-16T07:29:35Z</time>
      </trkpt>
      <trkpt lat="37.7523440" lon="-3.3492380">
        <ele>762.6</ele>
        <time>2020-07-16T07:29:36Z</time>
      </trkpt>
      <trkpt lat="37.7522250" lon="-3.3494880">
        <ele>761.2</ele>
        <time>2020-07-16T07:29:38Z</time>
      </trkpt>
      <trkpt lat="37.7520850" lon="-3.3497440">
        <ele>759.2</ele>
        <time>2020-07-16T07:29:40Z</time>
      </trkpt>
      <trkpt lat="37.7520060" lon="-3.3498720">
        <ele>758.4</ele>
        <time>2020-07-16T07:29:41Z</time>
      </trkpt>
      <trkpt lat="37.7519260" lon="-3.3499910">
        <ele>757.2</ele>
        <time>2020-07-16T07:29:42Z</time>
      </trkpt>
      <trkpt lat="37.7517520" lon="-3.3502140">
        <ele>755.6</ele>
        <time>2020-07-16T07:29:44Z</time>
      </trkpt>
      <trkpt lat="37.7516590" lon="-3.3503170">
        <ele>755.0</ele>
        <time>2020-07-16T07:29:45Z</time>
      </trkpt>
      <trkpt lat="37.7515670" lon="-3.3504110">
        <ele>754.4</ele>
        <time>2020-07-16T07:29:46Z</time>
      </trkpt>
      <trkpt lat="37.7513680" lon="-3.3506010">
        <ele>753.2</ele>
        <time>2020-07-16T07:29:48Z</time>
      </trkpt>
      <trkpt lat="37.7511590" lon="-3.3507930">
        <ele>751.8</ele>
        <time>2020-07-16T07:29:50Z</time>
      </trkpt>
      <trkpt lat="37.7510590" lon="-3.3508870">
        <ele>751.0</ele>
        <time>2020-07-16T07:29:51Z</time>
      </trkpt>
      <trkpt lat="37.7509650" lon="-3.3509810">
        <ele>750.6</ele>
        <time>2020-07-16T07:29:52Z</time>
      </trkpt>
      <trkpt lat="37.7506750" lon="-3.3513040">
        <ele>749.0</ele>
        <time>2020-07-16T07:29:55Z</time>
      </trkpt>
      <trkpt lat="37.7505880" lon="-3.3514180">
        <ele>748.4</ele>
        <time>2020-07-16T07:29:56Z</time>
      </trkpt>
      <trkpt lat="37.7505080" lon="-3.3515360">
        <ele>747.6</ele>
        <time>2020-07-16T07:29:57Z</time>
      </trkpt>
      <trkpt lat="37.7503550" lon="-3.3517910">
        <ele>746.0</ele>
        <time>2020-07-16T07:29:59Z</time>
      </trkpt>
      <trkpt lat="37.7502860" lon="-3.3519230">
        <ele>745.0</ele>
        <time>2020-07-16T07:30:00Z</time>
      </trkpt>
      <trkpt lat="37.7502200" lon="-3.3520600">
        <ele>743.8</ele>
        <time>2020-07-16T07:30:01Z</time>
      </trkpt>
      <trkpt lat="37.7501600" lon="-3.3522010">
        <ele>742.8</ele>
        <time>2020-07-16T07:30:02Z</time>
      </trkpt>
      <trkpt lat="37.7501080" lon="-3.3523340">
        <ele>741.6</ele>
        <time>2020-07-16T07:30:03Z</time>
      </trkpt>
      <trkpt lat="37.7500580" lon="-3.3524770">
        <ele>740.4</ele>
        <time>2020-07-16T07:30:04Z</time>
      </trkpt>
      <trkpt lat="37.7500090" lon="-3.3526410">
        <ele>739.4</ele>
        <time>2020-07-16T07:30:05Z</time>
      </trkpt>
      <trkpt lat="37.7499700" lon="-3.3527930">
        <ele>738.4</ele>
        <time>2020-07-16T07:30:06Z</time>
      </trkpt>
      <trkpt lat="37.7499060" lon="-3.3530910">
        <ele>736.8</ele>
        <time>2020-07-16T07:30:08Z</time>
      </trkpt>
      <trkpt lat="37.7498520" lon="-3.3533980">
        <ele>735.2</ele>
        <time>2020-07-16T07:30:10Z</time>
      </trkpt>
      <trkpt lat="37.7497970" lon="-3.3537140">
        <ele>733.6</ele>
        <time>2020-07-16T07:30:12Z</time>
      </trkpt>
      <trkpt lat="37.7497440" lon="-3.3540260">
        <ele>732.0</ele>
        <time>2020-07-16T07:30:14Z</time>
      </trkpt>
      <trkpt lat="37.7496910" lon="-3.3543360">
        <ele>730.6</ele>
        <time>2020-07-16T07:30:16Z</time>
      </trkpt>
      <trkpt lat="37.7496300" lon="-3.3546950">
        <ele>729.4</ele>
        <time>2020-07-16T07:30:18Z</time>
      </trkpt>
      <trkpt lat="37.7496060" lon="-3.3548350">
        <ele>728.8</ele>
        <time>2020-07-16T07:30:19Z</time>
      </trkpt>
      <trkpt lat="37.7495690" lon="-3.3550240">
        <ele>728.2</ele>
        <time>2020-07-16T07:30:20Z</time>
      </trkpt>
      <trkpt lat="37.7494940" lon="-3.3553300">
        <ele>726.0</ele>
        <time>2020-07-16T07:30:22Z</time>
      </trkpt>
      <trkpt lat="37.7493830" lon="-3.3556310">
        <ele>724.2</ele>
        <time>2020-07-16T07:30:24Z</time>
      </trkpt>
      <trkpt lat="37.7493260" lon="-3.3557760">
        <ele>723.2</ele>
        <time>2020-07-16T07:30:25Z</time>
      </trkpt>
      <trkpt lat="37.7492220" lon="-3.3560630">
        <ele>721.6</ele>
        <time>2020-07-16T07:30:27Z</time>
      </trkpt>
      <trkpt lat="37.7491250" lon="-3.3563460">
        <ele>720.2</ele>
        <time>2020-07-16T07:30:29Z</time>
      </trkpt>
      <trkpt lat="37.7490400" lon="-3.3566130">
        <ele>719.0</ele>
        <time>2020-07-16T07:30:31Z</time>
      </trkpt>
      <trkpt lat="37.7489490" lon="-3.3568640">
        <ele>717.8</ele>
        <time>2020-07-16T07:30:33Z</time>
      </trkpt>
      <trkpt lat="37.7488880" lon="-3.3569900">
        <ele>717.4</ele>
        <time>2020-07-16T07:30:34Z</time>
      </trkpt>
      <trkpt lat="37.7488140" lon="-3.3571100">
        <ele>716.8</ele>
        <time>2020-07-16T07:30:35Z</time>
      </trkpt>
      <trkpt lat="37.7486460" lon="-3.3573160">
        <ele>715.8</ele>
        <time>2020-07-16T07:30:37Z</time>
      </trkpt>
      <trkpt lat="37.7484580" lon="-3.3574990">
        <ele>715.0</ele>
        <time>2020-07-16T07:30:39Z</time>
      </trkpt>
      <trkpt lat="37.7483720" lon="-3.3575780">
        <ele>714.6</ele>
        <time>2020-07-16T07:30:40Z</time>
      </trkpt>
      <trkpt lat="37.7481560" lon="-3.3577780">
        <ele>713.2</ele>
        <time>2020-07-16T07:30:42Z</time>
      </trkpt>
      <trkpt lat="37.7479530" lon="-3.3579440">
        <ele>711.8</ele>
        <time>2020-07-16T07:30:44Z</time>
      </trkpt>
      <trkpt lat="37.7477470" lon="-3.3580820">
        <ele>710.2</ele>
        <time>2020-07-16T07:30:46Z</time>
      </trkpt>
      <trkpt lat="37.7475420" lon="-3.3582020">
        <ele>708.8</ele>
        <time>2020-07-16T07:30:48Z</time>
      </trkpt>
      <trkpt lat="37.7473360" lon="-3.3583260">
        <ele>707.0</ele>
        <time>2020-07-16T07:30:50Z</time>
      </trkpt>
      <trkpt lat="37.7472430" lon="-3.3583830">
        <ele>706.4</ele>
        <time>2020-07-16T07:30:51Z</time>
      </trkpt>
      <trkpt lat="37.7471520" lon="-3.3584440">
        <ele>705.8</ele>
        <time>2020-07-16T07:30:52Z</time>
      </trkpt>
      <trkpt lat="37.7469030" lon="-3.3586720">
        <ele>705.0</ele>
        <time>2020-07-16T07:30:55Z</time>
      </trkpt>
      <trkpt lat="37.7468380" lon="-3.3587650">
        <ele>704.8</ele>
        <time>2020-07-16T07:30:56Z</time>
      </trkpt>
      <trkpt lat="37.7467500" lon="-3.3589490">
        <ele>704.6</ele>
        <time>2020-07-16T07:30:58Z</time>
      </trkpt>
      <trkpt lat="37.7466770" lon="-3.3591670">
        <ele>704.4</ele>
        <time>2020-07-16T07:31:00Z</time>
      </trkpt>
      <trkpt lat="37.7466250" lon="-3.3593500">
        <ele>704.6</ele>
        <time>2020-07-16T07:31:02Z</time>
      </trkpt>
      <trkpt lat="37.7465120" lon="-3.3596770">
        <ele>705.0</ele>
        <time>2020-07-16T07:31:06Z</time>
      </trkpt>
      <trkpt lat="37.7464540" lon="-3.3598090">
        <ele>705.4</ele>
        <time>2020-07-16T07:31:08Z</time>
      </trkpt>
      <trkpt lat="37.7463860" lon="-3.3599350">
        <ele>705.8</ele>
        <time>2020-07-16T07:31:10Z</time>
      </trkpt>
      <trkpt lat="37.7463030" lon="-3.3600410">
        <ele>706.4</ele>
        <time>2020-07-16T07:31:12Z</time>
      </trkpt>
      <trkpt lat="37.7462630" lon="-3.3600850">
        <ele>706.6</ele>
        <time>2020-07-16T07:31:13Z</time>
      </trkpt>
      <trkpt lat="37.7462140" lon="-3.3601310">
        <ele>707.0</ele>
        <time>2020-07-16T07:31:14Z</time>
      </trkpt>
      <trkpt lat="37.7460690" lon="-3.3602330">
        <ele>707.4</ele>
        <time>2020-07-16T07:31:17Z</time>
      </trkpt>
      <trkpt lat="37.7460260" lon="-3.3602600">
        <ele>707.6</ele>
        <time>2020-07-16T07:31:18Z</time>
      </trkpt>
      <trkpt lat="37.7459340" lon="-3.3603210">
        <ele>708.0</ele>
        <time>2020-07-16T07:31:20Z</time>
      </trkpt>
      <trkpt lat="37.7457760" lon="-3.3604310">
        <ele>708.8</ele>
        <time>2020-07-16T07:31:24Z</time>
      </trkpt>
      <trkpt lat="37.7456890" lon="-3.3604930">
        <ele>709.2</ele>
        <time>2020-07-16T07:31:26Z</time>
      </trkpt>
      <trkpt lat="37.7455070" lon="-3.3606270">
        <ele>710.0</ele>
        <time>2020-07-16T07:31:31Z</time>
      </trkpt>
      <trkpt lat="37.7454720" lon="-3.3606500">
        <ele>710.2</ele>
        <time>2020-07-16T07:31:32Z</time>
      </trkpt>
      <trkpt lat="37.7453980" lon="-3.3606910">
        <ele>710.6</ele>
        <time>2020-07-16T07:31:34Z</time>
      </trkpt>
      <trkpt lat="37.7453630" lon="-3.3607140">
        <ele>710.8</ele>
        <time>2020-07-16T07:31:35Z</time>
      </trkpt>
      <trkpt lat="37.7452270" lon="-3.3607830">
        <ele>711.4</ele>
        <time>2020-07-16T07:31:39Z</time>
      </trkpt>
      <trkpt lat="37.7451270" lon="-3.3608290">
        <ele>712.0</ele>
        <time>2020-07-16T07:31:42Z</time>
      </trkpt>
      <trkpt lat="37.7450260" lon="-3.3608660">
        <ele>712.6</ele>
        <time>2020-07-16T07:31:45Z</time>
      </trkpt>
      <trkpt lat="37.7449290" lon="-3.3608950">
        <ele>713.2</ele>
        <time>2020-07-16T07:31:48Z</time>
      </trkpt>
      <trkpt lat="37.7448890" lon="-3.3609030">
        <ele>713.4</ele>
        <time>2020-07-16T07:31:49Z</time>
      </trkpt>
      <trkpt lat="37.7448530" lon="-3.3609090">
        <ele>713.6</ele>
        <time>2020-07-16T07:31:50Z</time>
      </trkpt>
      <trkpt lat="37.7446870" lon="-3.3609420">
        <ele>714.8</ele>
        <time>2020-07-16T07:31:55Z</time>
      </trkpt>
      <trkpt lat="37.7446010" lon="-3.3609660">
        <ele>715.4</ele>
        <time>2020-07-16T07:31:58Z</time>
      </trkpt>
      <trkpt lat="37.7445060" lon="-3.3609820">
        <ele>716.0</ele>
        <time>2020-07-16T07:32:01Z</time>
      </trkpt>
      <trkpt lat="37.7443340" lon="-3.3610180">
        <ele>717.0</ele>
        <time>2020-07-16T07:32:07Z</time>
      </trkpt>
      <trkpt lat="37.7441630" lon="-3.3610640">
        <ele>718.0</ele>
        <time>2020-07-16T07:32:13Z</time>
      </trkpt>
      <trkpt lat="37.7439900" lon="-3.3611230">
        <ele>719.2</ele>
        <time>2020-07-16T07:32:19Z</time>
      </trkpt>
      <trkpt lat="37.7439610" lon="-3.3611330">
        <ele>719.4</ele>
        <time>2020-07-16T07:32:20Z</time>
      </trkpt>
      <trkpt lat="37.7438090" lon="-3.3611820">
        <ele>720.2</ele>
        <time>2020-07-16T07:32:25Z</time>
      </trkpt>
      <trkpt lat="37.7436370" lon="-3.3612330">
        <ele>720.8</ele>
        <time>2020-07-16T07:32:30Z</time>
      </trkpt>
      <trkpt lat="37.7435020" lon="-3.3612720">
        <ele>721.4</ele>
        <time>2020-07-16T07:32:34Z</time>
      </trkpt>
      <trkpt lat="37.7433080" lon="-3.3613270">
        <ele>721.8</ele>
        <time>2020-07-16T07:32:40Z</time>
      </trkpt>
      <trkpt lat="37.7432750" lon="-3.3613360">
        <ele>721.8</ele>
        <time>2020-07-16T07:32:41Z</time>
      </trkpt>
      <trkpt lat="37.7431720" lon="-3.3613680">
        <ele>722.4</ele>
        <time>2020-07-16T07:32:44Z</time>
      </trkpt>
      <trkpt lat="37.7429970" lon="-3.3614030">
        <ele>723.2</ele>
        <time>2020-07-16T07:32:49Z</time>
      </trkpt>
      <trkpt lat="37.7429610" lon="-3.3614080">
        <ele>723.4</ele>
        <time>2020-07-16T07:32:50Z</time>
      </trkpt>
      <trkpt lat="37.7427590" lon="-3.3614260">
        <ele>724.6</ele>
        <time>2020-07-16T07:32:56Z</time>
      </trkpt>
      <trkpt lat="37.7426310" lon="-3.3614330">
        <ele>725.2</ele>
        <time>2020-07-16T07:33:00Z</time>
      </trkpt>
      <trkpt lat="37.7425680" lon="-3.3614350">
        <ele>725.8</ele>
        <time>2020-07-16T07:33:02Z</time>
      </trkpt>
      <trkpt lat="37.7424160" lon="-3.3614310">
        <ele>726.8</ele>
        <time>2020-07-16T07:33:07Z</time>
      </trkpt>
      <trkpt lat="37.7423240" lon="-3.3614270">
        <ele>727.4</ele>
        <time>2020-07-16T07:33:10Z</time>
      </trkpt>
      <trkpt lat="37.7422310" lon="-3.3614190">
        <ele>728.0</ele>
        <time>2020-07-16T07:33:13Z</time>
      </trkpt>
      <trkpt lat="37.7420760" lon="-3.3613980">
        <ele>729.2</ele>
        <time>2020-07-16T07:33:18Z</time>
      </trkpt>
      <trkpt lat="37.7420130" lon="-3.3613910">
        <ele>729.4</ele>
        <time>2020-07-16T07:33:20Z</time>
      </trkpt>
      <trkpt lat="37.7418940" lon="-3.3613730">
        <ele>730.2</ele>
        <time>2020-07-16T07:33:24Z</time>
      </trkpt>
      <trkpt lat="37.7417140" lon="-3.3613470">
        <ele>731.2</ele>
        <time>2020-07-16T07:33:30Z</time>
      </trkpt>
      <trkpt lat="37.7414970" lon="-3.3613260">
        <ele>732.4</ele>
        <time>2020-07-16T07:33:37Z</time>
      </trkpt>
      <trkpt lat="37.7413500" lon="-3.3613140">
        <ele>733.4</ele>
        <time>2020-07-16T07:33:42Z</time>
      </trkpt>
      <trkpt lat="37.7413230" lon="-3.3613140">
        <ele>733.6</ele>
        <time>2020-07-16T07:33:43Z</time>
      </trkpt>
      <trkpt lat="37.7411220" lon="-3.3613180">
        <ele>734.8</ele>
        <time>2020-07-16T07:33:50Z</time>
      </trkpt>
      <trkpt lat="37.7410940" lon="-3.3613210">
        <ele>735.0</ele>
        <time>2020-07-16T07:33:51Z</time>
      </trkpt>
      <trkpt lat="37.7409800" lon="-3.3613330">
        <ele>736.0</ele>
        <time>2020-07-16T07:33:55Z</time>
      </trkpt>
      <trkpt lat="37.7407810" lon="-3.3613820">
        <ele>737.0</ele>
        <time>2020-07-16T07:34:02Z</time>
      </trkpt>
      <trkpt lat="37.7406150" lon="-3.3614370">
        <ele>738.2</ele>
        <time>2020-07-16T07:34:08Z</time>
      </trkpt>
      <trkpt lat="37.7404140" lon="-3.3615300">
        <ele>739.2</ele>
        <time>2020-07-16T07:34:15Z</time>
      </trkpt>
      <trkpt lat="37.7402480" lon="-3.3616250">
        <ele>740.2</ele>
        <time>2020-07-16T07:34:21Z</time>
      </trkpt>
      <trkpt lat="37.7401360" lon="-3.3617010">
        <ele>740.8</ele>
        <time>2020-07-16T07:34:25Z</time>
      </trkpt>
      <trkpt lat="37.7400340" lon="-3.3617800">
        <ele>741.4</ele>
        <time>2020-07-16T07:34:29Z</time>
      </trkpt>
      <trkpt lat="37.7399200" lon="-3.3618810">
        <ele>742.2</ele>
        <time>2020-07-16T07:34:33Z</time>
      </trkpt>
      <trkpt lat="37.7398320" lon="-3.3619590">
        <ele>742.4</ele>
        <time>2020-07-16T07:34:36Z</time>
      </trkpt>
      <trkpt lat="37.7396230" lon="-3.3621590">
        <ele>743.6</ele>
        <time>2020-07-16T07:34:43Z</time>
      </trkpt>
      <trkpt lat="37.7395890" lon="-3.3621910">
        <ele>743.6</ele>
        <time>2020-07-16T07:34:44Z</time>
      </trkpt>
      <trkpt lat="37.7392820" lon="-3.3624810">
        <ele>744.4</ele>
        <time>2020-07-16T07:34:53Z</time>
      </trkpt>
      <trkpt lat="37.7391270" lon="-3.3626250">
        <ele>744.6</ele>
        <time>2020-07-16T07:34:57Z</time>
      </trkpt>
      <trkpt lat="37.7389990" lon="-3.3627330">
        <ele>744.6</ele>
        <time>2020-07-16T07:35:00Z</time>
      </trkpt>
      <trkpt lat="37.7389100" lon="-3.3628070">
        <ele>744.8</ele>
        <time>2020-07-16T07:35:02Z</time>
      </trkpt>
      <trkpt lat="37.7386240" lon="-3.3630240">
        <ele>744.8</ele>
        <time>2020-07-16T07:35:08Z</time>
      </trkpt>
      <trkpt lat="37.7385170" lon="-3.3630940">
        <ele>744.8</ele>
        <time>2020-07-16T07:35:10Z</time>
      </trkpt>
      <trkpt lat="37.7383470" lon="-3.3631920">
        <ele>744.6</ele>
        <time>2020-07-16T07:35:13Z</time>
      </trkpt>
      <trkpt lat="37.7380270" lon="-3.3633460">
        <ele>743.8</ele>
        <time>2020-07-16T07:35:18Z</time>
      </trkpt>
      <trkpt lat="37.7378800" lon="-3.3634050">
        <ele>743.4</ele>
        <time>2020-07-16T07:35:20Z</time>
      </trkpt>
      <trkpt lat="37.7375600" lon="-3.3635060">
        <ele>742.2</ele>
        <time>2020-07-16T07:35:24Z</time>
      </trkpt>
      <trkpt lat="37.7372980" lon="-3.3635690">
        <ele>741.2</ele>
        <time>2020-07-16T07:35:27Z</time>
      </trkpt>
      <trkpt lat="37.7370250" lon="-3.3636080">
        <ele>740.2</ele>
        <time>2020-07-16T07:35:30Z</time>
      </trkpt>
      <trkpt lat="37.7364320" lon="-3.3636530">
        <ele>739.2</ele>
        <time>2020-07-16T07:35:37Z</time>
      </trkpt>
      <trkpt lat="37.7361410" lon="-3.3636840">
        <ele>739.2</ele>
        <time>2020-07-16T07:35:41Z</time>
      </trkpt>
      <trkpt lat="37.7360090" lon="-3.3637100">
        <ele>739.4</ele>
        <time>2020-07-16T07:35:43Z</time>
      </trkpt>
      <trkpt lat="37.7358120" lon="-3.3637610">
        <ele>739.4</ele>
        <time>2020-07-16T07:35:46Z</time>
      </trkpt>
      <trkpt lat="37.7356210" lon="-3.3638370">
        <ele>739.6</ele>
        <time>2020-07-16T07:35:49Z</time>
      </trkpt>
      <trkpt lat="37.7355600" lon="-3.3638730">
        <ele>739.6</ele>
        <time>2020-07-16T07:35:50Z</time>
      </trkpt>
      <trkpt lat="37.7353180" lon="-3.3640280">
        <ele>739.8</ele>
        <time>2020-07-16T07:35:54Z</time>
      </trkpt>
      <trkpt lat="37.7350880" lon="-3.3641760">
        <ele>740.0</ele>
        <time>2020-07-16T07:35:58Z</time>
      </trkpt>
      <trkpt lat="37.7350200" lon="-3.3642230">
        <ele>740.0</ele>
        <time>2020-07-16T07:35:59Z</time>
      </trkpt>
      <trkpt lat="37.7347910" lon="-3.3643890">
        <ele>740.2</ele>
        <time>2020-07-16T07:36:03Z</time>
      </trkpt>
      <trkpt lat="37.7344810" lon="-3.3646240">
        <ele>739.4</ele>
        <time>2020-07-16T07:36:08Z</time>
      </trkpt>
      <trkpt lat="37.7343520" lon="-3.3647250">
        <ele>739.2</ele>
        <time>2020-07-16T07:36:10Z</time>
      </trkpt>
      <trkpt lat="37.7338430" lon="-3.3651200">
        <ele>738.4</ele>
        <time>2020-07-16T07:36:18Z</time>
      </trkpt>
      <trkpt lat="37.7337070" lon="-3.3652240">
        <ele>738.2</ele>
        <time>2020-07-16T07:36:20Z</time>
      </trkpt>
      <trkpt lat="37.7332950" lon="-3.3655430">
        <ele>738.4</ele>
        <time>2020-07-16T07:36:27Z</time>
      </trkpt>
      <trkpt lat="37.7330870" lon="-3.3657080">
        <ele>738.6</ele>
        <time>2020-07-16T07:36:31Z</time>
      </trkpt>
      <trkpt lat="37.7329430" lon="-3.3658180">
        <ele>739.0</ele>
        <time>2020-07-16T07:36:34Z</time>
      </trkpt>
      <trkpt lat="37.7328920" lon="-3.3658550">
        <ele>739.2</ele>
        <time>2020-07-16T07:36:35Z</time>
      </trkpt>
      <trkpt lat="37.7327030" lon="-3.3659930">
        <ele>739.8</ele>
        <time>2020-07-16T07:36:39Z</time>
      </trkpt>
      <trkpt lat="37.7325120" lon="-3.3661230">
        <ele>740.2</ele>
        <time>2020-07-16T07:36:43Z</time>
      </trkpt>
      <trkpt lat="37.7324590" lon="-3.3661590">
        <ele>740.4</ele>
        <time>2020-07-16T07:36:44Z</time>
      </trkpt>
      <trkpt lat="37.7319850" lon="-3.3664570">
        <ele>741.2</ele>
        <time>2020-07-16T07:36:54Z</time>
      </trkpt>
      <trkpt lat="37.7319380" lon="-3.3664840">
        <ele>741.4</ele>
        <time>2020-07-16T07:36:55Z</time>
      </trkpt>
      <trkpt lat="37.7315760" lon="-3.3666840">
        <ele>742.0</ele>
        <time>2020-07-16T07:37:03Z</time>
      </trkpt>
      <trkpt lat="37.7315290" lon="-3.3667080">
        <ele>742.2</ele>
        <time>2020-07-16T07:37:04Z</time>
      </trkpt>
      <trkpt lat="37.7313930" lon="-3.3667740">
        <ele>742.4</ele>
        <time>2020-07-16T07:37:07Z</time>
      </trkpt>
      <trkpt lat="37.7310780" lon="-3.3669210">
        <ele>743.0</ele>
        <time>2020-07-16T07:37:14Z</time>
      </trkpt>
      <trkpt lat="37.7306070" lon="-3.3671090">
        <ele>743.2</ele>
        <time>2020-07-16T07:37:24Z</time>
      </trkpt>
      <trkpt lat="37.7305050" lon="-3.3671480">
        <ele>743.2</ele>
        <time>2020-07-16T07:37:26Z</time>
      </trkpt>
      <trkpt lat="37.7301860" lon="-3.3672550">
        <ele>743.2</ele>
        <time>2020-07-16T07:37:32Z</time>
      </trkpt>
      <trkpt lat="37.7300280" lon="-3.3673080">
        <ele>743.2</ele>
        <time>2020-07-16T07:37:35Z</time>
      </trkpt>
      <trkpt lat="37.7299750" lon="-3.3673250">
        <ele>743.4</ele>
        <time>2020-07-16T07:37:36Z</time>
      </trkpt>
      <trkpt lat="37.7299230" lon="-3.3673410">
        <ele>743.4</ele>
        <time>2020-07-16T07:37:37Z</time>
      </trkpt>
      <trkpt lat="37.7293760" lon="-3.3675170">
        <ele>743.2</ele>
        <time>2020-07-16T07:37:47Z</time>
      </trkpt>
      <trkpt lat="37.7288040" lon="-3.3676970">
        <ele>743.4</ele>
        <time>2020-07-16T07:37:57Z</time>
      </trkpt>
      <trkpt lat="37.7286310" lon="-3.3677530">
        <ele>743.4</ele>
        <time>2020-07-16T07:38:00Z</time>
      </trkpt>
      <trkpt lat="37.7280750" lon="-3.3679320">
        <ele>743.8</ele>
        <time>2020-07-16T07:38:10Z</time>
      </trkpt>
      <trkpt lat="37.7280190" lon="-3.3679490">
        <ele>743.8</ele>
        <time>2020-07-16T07:38:11Z</time>
      </trkpt>
      <trkpt lat="37.7275450" lon="-3.3680990">
        <ele>744.4</ele>
        <time>2020-07-16T07:38:20Z</time>
      </trkpt>
      <trkpt lat="37.7274450" lon="-3.3681320">
        <ele>744.6</ele>
        <time>2020-07-16T07:38:22Z</time>
      </trkpt>
      <trkpt lat="37.7268960" lon="-3.3683110">
        <ele>745.4</ele>
        <time>2020-07-16T07:38:33Z</time>
      </trkpt>
      <trkpt lat="37.7268410" lon="-3.3683280">
        <ele>745.4</ele>
        <time>2020-07-16T07:38:34Z</time>
      </trkpt>
      <trkpt lat="37.7265360" lon="-3.3684250">
        <ele>746.2</ele>
        <time>2020-07-16T07:38:40Z</time>
      </trkpt>
      <trkpt lat="37.7263290" lon="-3.3684900">
        <ele>746.6</ele>
        <time>2020-07-16T07:38:44Z</time>
      </trkpt>
      <trkpt lat="37.7259800" lon="-3.3686030">
        <ele>747.6</ele>
        <time>2020-07-16T07:38:51Z</time>
      </trkpt>
      <trkpt lat="37.7257340" lon="-3.3686920">
        <ele>748.2</ele>
        <time>2020-07-16T07:38:56Z</time>
      </trkpt>
      <trkpt lat="37.7253120" lon="-3.3689200">
        <ele>748.6</ele>
        <time>2020-07-16T07:39:05Z</time>
      </trkpt>
      <trkpt lat="37.7249080" lon="-3.3692450">
        <ele>749.8</ele>
        <time>2020-07-16T07:39:15Z</time>
      </trkpt>
      <trkpt lat="37.7248700" lon="-3.3692790">
        <ele>749.8</ele>
        <time>2020-07-16T07:39:16Z</time>
      </trkpt>
      <trkpt lat="37.7244560" lon="-3.3696730">
        <ele>750.6</ele>
        <time>2020-07-16T07:39:28Z</time>
      </trkpt>
      <trkpt lat="37.7244470" lon="-3.3697250">
        <ele>750.8</ele>
        <time>2020-07-16T07:39:29Z</time>
      </trkpt>
      <trkpt lat="37.7244350" lon="-3.3697960">
        <ele>751.0</ele>
        <time>2020-07-16T07:39:31Z</time>
      </trkpt>
      <trkpt lat="37.7244220" lon="-3.3698150">
        <ele>751.0</ele>
        <time>2020-07-16T07:39:32Z</time>
      </trkpt>
      <trkpt lat="37.7243800" lon="-3.3698600">
        <ele>750.8</ele>
        <time>2020-07-16T07:39:35Z</time>
      </trkpt>
      <trkpt lat="37.7243780" lon="-3.3698670">
        <ele>750.8</ele>
        <time>2020-07-16T07:39:38Z</time>
      </trkpt>
      <trkpt lat="37.7243610" lon="-3.3698390">
        <ele>751.4</ele>
        <time>2020-07-16T07:58:56Z</time>
      </trkpt>
      <trkpt lat="37.7243520" lon="-3.3698290">
        <ele>751.4</ele>
        <time>2020-07-16T07:58:57Z</time>
      </trkpt>
      <trkpt lat="37.7243200" lon="-3.3697910">
        <ele>751.4</ele>
        <time>2020-07-16T07:59:00Z</time>
      </trkpt>
      <trkpt lat="37.7242850" lon="-3.3697940">
        <ele>751.6</ele>
        <time>2020-07-16T07:59:02Z</time>
      </trkpt>
      <trkpt lat="37.7242220" lon="-3.3698100">
        <ele>751.8</ele>
        <time>2020-07-16T07:59:05Z</time>
      </trkpt>
      <trkpt lat="37.7241570" lon="-3.3698380">
        <ele>752.0</ele>
        <time>2020-07-16T07:59:08Z</time>
      </trkpt>
      <trkpt lat="37.7239350" lon="-3.3699160">
        <ele>752.4</ele>
        <time>2020-07-16T07:59:16Z</time>
      </trkpt>
      <trkpt lat="37.7239060" lon="-3.3699270">
        <ele>752.6</ele>
        <time>2020-07-16T07:59:17Z</time>
      </trkpt>
      <trkpt lat="37.7237780" lon="-3.3699490">
        <ele>752.6</ele>
        <time>2020-07-16T07:59:21Z</time>
      </trkpt>
      <trkpt lat="37.7236760" lon="-3.3699620">
        <ele>752.8</ele>
        <time>2020-07-16T07:59:24Z</time>
      </trkpt>
      <trkpt lat="37.7235440" lon="-3.3699760">
        <ele>752.8</ele>
        <time>2020-07-16T07:59:28Z</time>
      </trkpt>
      <trkpt lat="37.7233330" lon="-3.3699810">
        <ele>752.8</ele>
        <time>2020-07-16T07:59:34Z</time>
      </trkpt>
      <trkpt lat="37.7229600" lon="-3.3699870">
        <ele>753.0</ele>
        <time>2020-07-16T07:59:44Z</time>
      </trkpt>
      <trkpt lat="37.7225520" lon="-3.3700700">
        <ele>753.4</ele>
        <time>2020-07-16T07:59:54Z</time>
      </trkpt>
      <trkpt lat="37.7222410" lon="-3.3702170">
        <ele>753.8</ele>
        <time>2020-07-16T08:00:02Z</time>
      </trkpt>
      <trkpt lat="37.7220970" lon="-3.3703190">
        <ele>754.0</ele>
        <time>2020-07-16T08:00:06Z</time>
      </trkpt>
      <trkpt lat="37.7219310" lon="-3.3704740">
        <ele>754.2</ele>
        <time>2020-07-16T08:00:11Z</time>
      </trkpt>
      <trkpt lat="37.7217660" lon="-3.3706610">
        <ele>754.8</ele>
        <time>2020-07-16T08:00:16Z</time>
      </trkpt>
      <trkpt lat="37.7217000" lon="-3.3707440">
        <ele>754.8</ele>
        <time>2020-07-16T08:00:18Z</time>
      </trkpt>
      <trkpt lat="37.7215670" lon="-3.3709170">
        <ele>754.8</ele>
        <time>2020-07-16T08:00:22Z</time>
      </trkpt>
      <trkpt lat="37.7214040" lon="-3.3711300">
        <ele>755.0</ele>
        <time>2020-07-16T08:00:27Z</time>
      </trkpt>
      <trkpt lat="37.7213290" lon="-3.3712140">
        <ele>755.0</ele>
        <time>2020-07-16T08:00:29Z</time>
      </trkpt>
      <trkpt lat="37.7209690" lon="-3.3715510">
        <ele>754.8</ele>
        <time>2020-07-16T08:00:38Z</time>
      </trkpt>
      <trkpt lat="37.7207630" lon="-3.3716680">
        <ele>754.4</ele>
        <time>2020-07-16T08:00:42Z</time>
      </trkpt>
      <trkpt lat="37.7206460" lon="-3.3717170">
        <ele>754.2</ele>
        <time>2020-07-16T08:00:44Z</time>
      </trkpt>
      <trkpt lat="37.7204680" lon="-3.3717690">
        <ele>754.0</ele>
        <time>2020-07-16T08:00:47Z</time>
      </trkpt>
      <trkpt lat="37.7202930" lon="-3.3718040">
        <ele>753.6</ele>
        <time>2020-07-16T08:00:50Z</time>
      </trkpt>
      <trkpt lat="37.7202380" lon="-3.3718070">
        <ele>753.6</ele>
        <time>2020-07-16T08:00:51Z</time>
      </trkpt>
      <trkpt lat="37.7201240" lon="-3.3718030">
        <ele>753.6</ele>
        <time>2020-07-16T08:00:53Z</time>
      </trkpt>
      <trkpt lat="37.7198890" lon="-3.3717860">
        <ele>753.6</ele>
        <time>2020-07-16T08:00:58Z</time>
      </trkpt>
      <trkpt lat="37.7196500" lon="-3.3717420">
        <ele>753.8</ele>
        <time>2020-07-16T08:01:01Z</time>
      </trkpt>
      <trkpt lat="37.7194170" lon="-3.3716900">
        <ele>754.0</ele>
        <time>2020-07-16T08:01:05Z</time>
      </trkpt>
      <trkpt lat="37.7193620" lon="-3.3716780">
        <ele>754.4</ele>
        <time>2020-07-16T08:01:06Z</time>
      </trkpt>
      <trkpt lat="37.7191440" lon="-3.3716380">
        <ele>755.0</ele>
        <time>2020-07-16T08:01:10Z</time>
      </trkpt>
      <trkpt lat="37.7190030" lon="-3.3716220">
        <ele>755.2</ele>
        <time>2020-07-16T08:01:13Z</time>
      </trkpt>
      <trkpt lat="37.7187610" lon="-3.3716260">
        <ele>756.0</ele>
        <time>2020-07-16T08:01:19Z</time>
      </trkpt>
      <trkpt lat="37.7187260" lon="-3.3716290">
        <ele>756.0</ele>
        <time>2020-07-16T08:01:20Z</time>
      </trkpt>
      <trkpt lat="37.7185610" lon="-3.3716630">
        <ele>756.8</ele>
        <time>2020-07-16T08:01:25Z</time>
      </trkpt>
      <trkpt lat="37.7184960" lon="-3.3716790">
        <ele>757.2</ele>
        <time>2020-07-16T08:01:27Z</time>
      </trkpt>
      <trkpt lat="37.7184320" lon="-3.3716980">
        <ele>757.4</ele>
        <time>2020-07-16T08:01:29Z</time>
      </trkpt>
      <trkpt lat="37.7182720" lon="-3.3717640">
        <ele>758.2</ele>
        <time>2020-07-16T08:01:34Z</time>
      </trkpt>
      <trkpt lat="37.7181460" lon="-3.3718320">
        <ele>759.0</ele>
        <time>2020-07-16T08:01:38Z</time>
      </trkpt>
      <trkpt lat="37.7180780" lon="-3.3718770">
        <ele>759.2</ele>
        <time>2020-07-16T08:01:40Z</time>
      </trkpt>
      <trkpt lat="37.7178390" lon="-3.3720640">
        <ele>760.4</ele>
        <time>2020-07-16T08:01:48Z</time>
      </trkpt>
      <trkpt lat="37.7176410" lon="-3.3722520">
        <ele>761.4</ele>
        <time>2020-07-16T08:01:55Z</time>
      </trkpt>
      <trkpt lat="37.7174430" lon="-3.3724470">
        <ele>762.2</ele>
        <time>2020-07-16T08:02:02Z</time>
      </trkpt>
      <trkpt lat="37.7173580" lon="-3.3725340">
        <ele>762.6</ele>
        <time>2020-07-16T08:02:05Z</time>
      </trkpt>
      <trkpt lat="37.7171520" lon="-3.3727370">
        <ele>763.4</ele>
        <time>2020-07-16T08:02:12Z</time>
      </trkpt>
      <trkpt lat="37.7170620" lon="-3.3728250">
        <ele>763.6</ele>
        <time>2020-07-16T08:02:15Z</time>
      </trkpt>
      <trkpt lat="37.7167780" lon="-3.3731070">
        <ele>764.0</ele>
        <time>2020-07-16T08:02:24Z</time>
      </trkpt>
      <trkpt lat="37.7165550" lon="-3.3733320">
        <ele>764.6</ele>
        <time>2020-07-16T08:02:31Z</time>
      </trkpt>
      <trkpt lat="37.7164210" lon="-3.3734600">
        <ele>764.8</ele>
        <time>2020-07-16T08:02:35Z</time>
      </trkpt>
      <trkpt lat="37.7161870" lon="-3.3736920">
        <ele>765.2</ele>
        <time>2020-07-16T08:02:42Z</time>
      </trkpt>
      <trkpt lat="37.7159760" lon="-3.3738950">
        <ele>765.4</ele>
        <time>2020-07-16T08:02:48Z</time>
      </trkpt>
      <trkpt lat="37.7158220" lon="-3.3740340">
        <ele>765.2</ele>
        <time>2020-07-16T08:02:52Z</time>
      </trkpt>
      <trkpt lat="37.7156550" lon="-3.3741750">
        <ele>765.2</ele>
        <time>2020-07-16T08:02:56Z</time>
      </trkpt>
      <trkpt lat="37.7154840" lon="-3.3743140">
        <ele>765.2</ele>
        <time>2020-07-16T08:03:00Z</time>
      </trkpt>
      <trkpt lat="37.7150220" lon="-3.3746380">
        <ele>765.0</ele>
        <time>2020-07-16T08:03:10Z</time>
      </trkpt>
      <trkpt lat="37.7149700" lon="-3.3746680">
        <ele>764.8</ele>
        <time>2020-07-16T08:03:11Z</time>
      </trkpt>
      <trkpt lat="37.7147640" lon="-3.3747800">
        <ele>764.8</ele>
        <time>2020-07-16T08:03:15Z</time>
      </trkpt>
      <trkpt lat="37.7143400" lon="-3.3749830">
        <ele>764.6</ele>
        <time>2020-07-16T08:03:23Z</time>
      </trkpt>
      <trkpt lat="37.7138370" lon="-3.3751500">
        <ele>764.6</ele>
        <time>2020-07-16T08:03:32Z</time>
      </trkpt>
      <trkpt lat="37.7132990" lon="-3.3752230">
        <ele>764.2</ele>
        <time>2020-07-16T08:03:41Z</time>
      </trkpt>
      <trkpt lat="37.7127370" lon="-3.3752250">
        <ele>763.6</ele>
        <time>2020-07-16T08:03:50Z</time>
      </trkpt>
      <trkpt lat="37.7126740" lon="-3.3752250">
        <ele>763.6</ele>
        <time>2020-07-16T08:03:51Z</time>
      </trkpt>
      <trkpt lat="37.7124280" lon="-3.3752230">
        <ele>763.6</ele>
        <time>2020-07-16T08:03:55Z</time>
      </trkpt>
      <trkpt lat="37.7118850" lon="-3.3752210">
        <ele>763.4</ele>
        <time>2020-07-16T08:04:04Z</time>
      </trkpt>
      <trkpt lat="37.7116540" lon="-3.3752340">
        <ele>763.4</ele>
        <time>2020-07-16T08:04:08Z</time>
      </trkpt>
      <trkpt lat="37.7113150" lon="-3.3753050">
        <ele>763.8</ele>
        <time>2020-07-16T08:04:14Z</time>
      </trkpt>
      <trkpt lat="37.7112060" lon="-3.3753460">
        <ele>763.8</ele>
        <time>2020-07-16T08:04:16Z</time>
      </trkpt>
      <trkpt lat="37.7107440" lon="-3.3755940">
        <ele>764.2</ele>
        <time>2020-07-16T08:04:25Z</time>
      </trkpt>
      <trkpt lat="37.7103940" lon="-3.3758930">
        <ele>764.6</ele>
        <time>2020-07-16T08:04:33Z</time>
      </trkpt>
      <trkpt lat="37.7102260" lon="-3.3760670">
        <ele>764.8</ele>
        <time>2020-07-16T08:04:37Z</time>
      </trkpt>
      <trkpt lat="37.7099830" lon="-3.3763220">
        <ele>764.8</ele>
        <time>2020-07-16T08:04:43Z</time>
      </trkpt>
      <trkpt lat="37.7097480" lon="-3.3765740">
        <ele>765.6</ele>
        <time>2020-07-16T08:04:49Z</time>
      </trkpt>
      <trkpt lat="37.7096720" lon="-3.3766560">
        <ele>765.8</ele>
        <time>2020-07-16T08:04:51Z</time>
      </trkpt>
      <trkpt lat="37.7095140" lon="-3.3768250">
        <ele>766.2</ele>
        <time>2020-07-16T08:04:55Z</time>
      </trkpt>
      <trkpt lat="37.7094050" lon="-3.3769450">
        <ele>766.8</ele>
        <time>2020-07-16T08:04:58Z</time>
      </trkpt>
      <trkpt lat="37.7093670" lon="-3.3769870">
        <ele>767.2</ele>
        <time>2020-07-16T08:04:59Z</time>
      </trkpt>
      <trkpt lat="37.7093320" lon="-3.3770250">
        <ele>767.4</ele>
        <time>2020-07-16T08:05:00Z</time>
      </trkpt>
      <trkpt lat="37.7091990" lon="-3.3771700">
        <ele>768.2</ele>
        <time>2020-07-16T08:05:04Z</time>
      </trkpt>
      <trkpt lat="37.7090440" lon="-3.3773400">
        <ele>769.4</ele>
        <time>2020-07-16T08:05:09Z</time>
      </trkpt>
      <trkpt lat="37.7089000" lon="-3.3774920">
        <ele>770.4</ele>
        <time>2020-07-16T08:05:14Z</time>
      </trkpt>
      <trkpt lat="37.7087620" lon="-3.3776300">
        <ele>771.6</ele>
        <time>2020-07-16T08:05:19Z</time>
      </trkpt>
      <trkpt lat="37.7087360" lon="-3.3776560">
        <ele>772.0</ele>
        <time>2020-07-16T08:05:20Z</time>
      </trkpt>
      <trkpt lat="37.7086030" lon="-3.3777650">
        <ele>772.8</ele>
        <time>2020-07-16T08:05:25Z</time>
      </trkpt>
      <trkpt lat="37.7084710" lon="-3.3778650">
        <ele>773.8</ele>
        <time>2020-07-16T08:05:30Z</time>
      </trkpt>
      <trkpt lat="37.7084450" lon="-3.3778840">
        <ele>774.0</ele>
        <time>2020-07-16T08:05:31Z</time>
      </trkpt>
      <trkpt lat="37.7083090" lon="-3.3779740">
        <ele>775.0</ele>
        <time>2020-07-16T08:05:36Z</time>
      </trkpt>
      <trkpt lat="37.7082240" lon="-3.3780170">
        <ele>775.6</ele>
        <time>2020-07-16T08:05:39Z</time>
      </trkpt>
      <trkpt lat="37.7081360" lon="-3.3780520">
        <ele>776.2</ele>
        <time>2020-07-16T08:05:42Z</time>
      </trkpt>
      <trkpt lat="37.7079530" lon="-3.3781090">
        <ele>777.2</ele>
        <time>2020-07-16T08:05:48Z</time>
      </trkpt>
      <trkpt lat="37.7077250" lon="-3.3781440">
        <ele>778.4</ele>
        <time>2020-07-16T08:05:55Z</time>
      </trkpt>
      <trkpt lat="37.7075910" lon="-3.3781500">
        <ele>779.2</ele>
        <time>2020-07-16T08:05:59Z</time>
      </trkpt>
      <trkpt lat="37.7074570" lon="-3.3781450">
        <ele>779.6</ele>
        <time>2020-07-16T08:06:03Z</time>
      </trkpt>
      <trkpt lat="37.7072470" lon="-3.3781270">
        <ele>780.4</ele>
        <time>2020-07-16T08:06:09Z</time>
      </trkpt>
      <trkpt lat="37.7071760" lon="-3.3781200">
        <ele>780.8</ele>
        <time>2020-07-16T08:06:11Z</time>
      </trkpt>
      <trkpt lat="37.7069250" lon="-3.3780870">
        <ele>781.6</ele>
        <time>2020-07-16T08:06:18Z</time>
      </trkpt>
      <trkpt lat="37.7068850" lon="-3.3780820">
        <ele>781.6</ele>
        <time>2020-07-16T08:06:19Z</time>
      </trkpt>
      <trkpt lat="37.7068480" lon="-3.3780770">
        <ele>781.8</ele>
        <time>2020-07-16T08:06:20Z</time>
      </trkpt>
      <trkpt lat="37.7065000" lon="-3.3780410">
        <ele>782.6</ele>
        <time>2020-07-16T08:06:29Z</time>
      </trkpt>
      <trkpt lat="37.7064220" lon="-3.3780400">
        <ele>782.8</ele>
        <time>2020-07-16T08:06:31Z</time>
      </trkpt>
      <trkpt lat="37.7062690" lon="-3.3780360">
        <ele>783.0</ele>
        <time>2020-07-16T08:06:35Z</time>
      </trkpt>
      <trkpt lat="37.7061520" lon="-3.3780510">
        <ele>783.4</ele>
        <time>2020-07-16T08:06:38Z</time>
      </trkpt>
      <trkpt lat="37.7060330" lon="-3.3780730">
        <ele>783.8</ele>
        <time>2020-07-16T08:06:41Z</time>
      </trkpt>
      <trkpt lat="37.7058390" lon="-3.3781210">
        <ele>784.2</ele>
        <time>2020-07-16T08:06:46Z</time>
      </trkpt>
      <trkpt lat="37.7056830" lon="-3.3781760">
        <ele>784.8</ele>
        <time>2020-07-16T08:06:50Z</time>
      </trkpt>
      <trkpt lat="37.7056440" lon="-3.3781910">
        <ele>784.8</ele>
        <time>2020-07-16T08:06:51Z</time>
      </trkpt>
      <trkpt lat="37.7051940" lon="-3.3783670">
        <ele>785.8</ele>
        <time>2020-07-16T08:07:02Z</time>
      </trkpt>
      <trkpt lat="37.7051530" lon="-3.3783820">
        <ele>786.0</ele>
        <time>2020-07-16T08:07:03Z</time>
      </trkpt>
      <trkpt lat="37.7046030" lon="-3.3786010">
        <ele>786.6</ele>
        <time>2020-07-16T08:07:15Z</time>
      </trkpt>
      <trkpt lat="37.7043040" lon="-3.3787170">
        <ele>786.4</ele>
        <time>2020-07-16T08:07:21Z</time>
      </trkpt>
      <trkpt lat="37.7040890" lon="-3.3787970">
        <ele>786.4</ele>
        <time>2020-07-16T08:07:25Z</time>
      </trkpt>
      <trkpt lat="37.7038660" lon="-3.3788800">
        <ele>786.0</ele>
        <time>2020-07-16T08:07:29Z</time>
      </trkpt>
      <trkpt lat="37.7036330" lon="-3.3789620">
        <ele>785.8</ele>
        <time>2020-07-16T08:07:33Z</time>
      </trkpt>
      <trkpt lat="37.7035030" lon="-3.3790040">
        <ele>785.6</ele>
        <time>2020-07-16T08:07:35Z</time>
      </trkpt>
      <trkpt lat="37.7029870" lon="-3.3791430">
        <ele>784.8</ele>
        <time>2020-07-16T08:07:43Z</time>
      </trkpt>
      <trkpt lat="37.7029190" lon="-3.3791580">
        <ele>784.8</ele>
        <time>2020-07-16T08:07:44Z</time>
      </trkpt>
      <trkpt lat="37.7027960" lon="-3.3791830">
        <ele>784.6</ele>
        <time>2020-07-16T08:07:46Z</time>
      </trkpt>
      <trkpt lat="37.7027400" lon="-3.3791940">
        <ele>784.6</ele>
        <time>2020-07-16T08:07:47Z</time>
      </trkpt>
      <trkpt lat="37.7024960" lon="-3.3792320">
        <ele>784.8</ele>
        <time>2020-07-16T08:07:51Z</time>
      </trkpt>
      <trkpt lat="37.7024360" lon="-3.3792400">
        <ele>784.8</ele>
        <time>2020-07-16T08:07:52Z</time>
      </trkpt>
      <trkpt lat="37.7023750" lon="-3.3792490">
        <ele>784.8</ele>
        <time>2020-07-16T08:07:53Z</time>
      </trkpt>
      <trkpt lat="37.7022510" lon="-3.3792640">
        <ele>785.2</ele>
        <time>2020-07-16T08:07:55Z</time>
      </trkpt>
      <trkpt lat="37.7019540" lon="-3.3792810">
        <ele>785.4</ele>
        <time>2020-07-16T08:08:00Z</time>
      </trkpt>
      <trkpt lat="37.7016620" lon="-3.3792860">
        <ele>785.8</ele>
        <time>2020-07-16T08:08:05Z</time>
      </trkpt>
      <trkpt lat="37.7014830" lon="-3.3792860">
        <ele>786.2</ele>
        <time>2020-07-16T08:08:08Z</time>
      </trkpt>
      <trkpt lat="37.7010080" lon="-3.3792680">
        <ele>786.8</ele>
        <time>2020-07-16T08:08:16Z</time>
      </trkpt>
      <trkpt lat="37.7004110" lon="-3.3792330">
        <ele>786.6</ele>
        <time>2020-07-16T08:08:26Z</time>
      </trkpt>
      <trkpt lat="37.7003530" lon="-3.3792300">
        <ele>786.6</ele>
        <time>2020-07-16T08:08:27Z</time>
      </trkpt>
      <trkpt lat="37.7000940" lon="-3.3792130">
        <ele>786.4</ele>
        <time>2020-07-16T08:08:31Z</time>
      </trkpt>
      <trkpt lat="37.6997660" lon="-3.3791970">
        <ele>786.0</ele>
        <time>2020-07-16T08:08:36Z</time>
      </trkpt>
      <trkpt lat="37.6996990" lon="-3.3791930">
        <ele>786.0</ele>
        <time>2020-07-16T08:08:37Z</time>
      </trkpt>
      <trkpt lat="37.6992460" lon="-3.3792170">
        <ele>785.8</ele>
        <time>2020-07-16T08:08:44Z</time>
      </trkpt>
      <trkpt lat="37.6991850" lon="-3.3792310">
        <ele>785.8</ele>
        <time>2020-07-16T08:08:45Z</time>
      </trkpt>
      <trkpt lat="37.6989580" lon="-3.3793140">
        <ele>786.0</ele>
        <time>2020-07-16T08:08:49Z</time>
      </trkpt>
      <trkpt lat="37.6988570" lon="-3.3793670">
        <ele>786.2</ele>
        <time>2020-07-16T08:08:51Z</time>
      </trkpt>
      <trkpt lat="37.6987200" lon="-3.3794550">
        <ele>786.8</ele>
        <time>2020-07-16T08:08:54Z</time>
      </trkpt>
      <trkpt lat="37.6986780" lon="-3.3794880">
        <ele>787.2</ele>
        <time>2020-07-16T08:08:55Z</time>
      </trkpt>
      <trkpt lat="37.6986000" lon="-3.3795540">
        <ele>787.4</ele>
        <time>2020-07-16T08:08:57Z</time>
      </trkpt>
      <trkpt lat="37.6984870" lon="-3.3796610">
        <ele>788.0</ele>
        <time>2020-07-16T08:09:00Z</time>
      </trkpt>
      <trkpt lat="37.6984520" lon="-3.3796990">
        <ele>788.4</ele>
        <time>2020-07-16T08:09:01Z</time>
      </trkpt>
      <trkpt lat="37.6983220" lon="-3.3798600">
        <ele>789.2</ele>
        <time>2020-07-16T08:09:05Z</time>
      </trkpt>
      <trkpt lat="37.6982920" lon="-3.3799060">
        <ele>789.4</ele>
        <time>2020-07-16T08:09:06Z</time>
      </trkpt>
      <trkpt lat="37.6981570" lon="-3.3801470">
        <ele>790.4</ele>
        <time>2020-07-16T08:09:11Z</time>
      </trkpt>
      <trkpt lat="37.6981320" lon="-3.3801990">
        <ele>790.6</ele>
        <time>2020-07-16T08:09:12Z</time>
      </trkpt>
      <trkpt lat="37.6981090" lon="-3.3802480">
        <ele>790.8</ele>
        <time>2020-07-16T08:09:13Z</time>
      </trkpt>
      <trkpt lat="37.6980420" lon="-3.3804140">
        <ele>791.2</ele>
        <time>2020-07-16T08:09:16Z</time>
      </trkpt>
      <trkpt lat="37.6979780" lon="-3.3805880">
        <ele>791.6</ele>
        <time>2020-07-16T08:09:19Z</time>
      </trkpt>
      <trkpt lat="37.6979590" lon="-3.3806460">
        <ele>791.8</ele>
        <time>2020-07-16T08:09:20Z</time>
      </trkpt>
      <trkpt lat="37.6978240" lon="-3.3810380">
        <ele>792.6</ele>
        <time>2020-07-16T08:09:27Z</time>
      </trkpt>
      <trkpt lat="37.6978040" lon="-3.3810920">
        <ele>792.6</ele>
        <time>2020-07-16T08:09:28Z</time>
      </trkpt>
      <trkpt lat="37.6977830" lon="-3.3811520">
        <ele>792.6</ele>
        <time>2020-07-16T08:09:29Z</time>
      </trkpt>
      <trkpt lat="37.6976230" lon="-3.3814870">
        <ele>793.2</ele>
        <time>2020-07-16T08:09:35Z</time>
      </trkpt>
      <trkpt lat="37.6975550" lon="-3.3815960">
        <ele>793.2</ele>
        <time>2020-07-16T08:09:37Z</time>
      </trkpt>
      <trkpt lat="37.6973560" lon="-3.3818710">
        <ele>793.0</ele>
        <time>2020-07-16T08:09:42Z</time>
      </trkpt>
      <trkpt lat="37.6972660" lon="-3.3819840">
        <ele>792.8</ele>
        <time>2020-07-16T08:09:44Z</time>
      </trkpt>
      <trkpt lat="37.6970830" lon="-3.3822190">
        <ele>792.4</ele>
        <time>2020-07-16T08:09:48Z</time>
      </trkpt>
      <trkpt lat="37.6969410" lon="-3.3823910">
        <ele>792.0</ele>
        <time>2020-07-16T08:09:51Z</time>
      </trkpt>
      <trkpt lat="37.6968930" lon="-3.3824470">
        <ele>792.0</ele>
        <time>2020-07-16T08:09:52Z</time>
      </trkpt>
      <trkpt lat="37.6967510" lon="-3.3826170">
        <ele>792.2</ele>
        <time>2020-07-16T08:09:55Z</time>
      </trkpt>
      <trkpt lat="37.6965710" lon="-3.3828460">
        <ele>792.0</ele>
        <time>2020-07-16T08:09:59Z</time>
      </trkpt>
      <trkpt lat="37.6963510" lon="-3.3831210">
        <ele>792.2</ele>
        <time>2020-07-16T08:10:04Z</time>
      </trkpt>
      <trkpt lat="37.6959670" lon="-3.3836030">
        <ele>792.4</ele>
        <time>2020-07-16T08:10:13Z</time>
      </trkpt>
      <trkpt lat="37.6958340" lon="-3.3837630">
        <ele>792.4</ele>
        <time>2020-07-16T08:10:16Z</time>
      </trkpt>
      <trkpt lat="37.6954450" lon="-3.3842490">
        <ele>792.4</ele>
        <time>2020-07-16T08:10:25Z</time>
      </trkpt>
      <trkpt lat="37.6953160" lon="-3.3844060">
        <ele>792.6</ele>
        <time>2020-07-16T08:10:28Z</time>
      </trkpt>
      <trkpt lat="37.6949250" lon="-3.3848910">
        <ele>793.0</ele>
        <time>2020-07-16T08:10:37Z</time>
      </trkpt>
      <trkpt lat="37.6947950" lon="-3.3850500">
        <ele>793.2</ele>
        <time>2020-07-16T08:10:40Z</time>
      </trkpt>
      <trkpt lat="37.6943720" lon="-3.3855730">
        <ele>793.4</ele>
        <time>2020-07-16T08:10:50Z</time>
      </trkpt>
      <trkpt lat="37.6942060" lon="-3.3857800">
        <ele>793.6</ele>
        <time>2020-07-16T08:10:54Z</time>
      </trkpt>
      <trkpt lat="37.6937860" lon="-3.3863070">
        <ele>794.2</ele>
        <time>2020-07-16T08:11:04Z</time>
      </trkpt>
      <trkpt lat="37.6936250" lon="-3.3865250">
        <ele>794.4</ele>
        <time>2020-07-16T08:11:08Z</time>
      </trkpt>
      <trkpt lat="37.6934410" lon="-3.3868240">
        <ele>794.6</ele>
        <time>2020-07-16T08:11:13Z</time>
      </trkpt>
      <trkpt lat="37.6933120" lon="-3.3870810">
        <ele>795.0</ele>
        <time>2020-07-16T08:11:17Z</time>
      </trkpt>
      <trkpt lat="37.6931130" lon="-3.3875340">
        <ele>795.6</ele>
        <time>2020-07-16T08:11:24Z</time>
      </trkpt>
      <trkpt lat="37.6929430" lon="-3.3879130">
        <ele>796.2</ele>
        <time>2020-07-16T08:11:30Z</time>
      </trkpt>
      <trkpt lat="37.6927750" lon="-3.3882110">
        <ele>796.6</ele>
        <time>2020-07-16T08:11:35Z</time>
      </trkpt>
      <trkpt lat="37.6926620" lon="-3.3883760">
        <ele>797.0</ele>
        <time>2020-07-16T08:11:38Z</time>
      </trkpt>
      <trkpt lat="37.6922560" lon="-3.3888240">
        <ele>797.8</ele>
        <time>2020-07-16T08:11:47Z</time>
      </trkpt>
      <trkpt lat="37.6917860" lon="-3.3891790">
        <ele>797.8</ele>
        <time>2020-07-16T08:11:56Z</time>
      </trkpt>
      <trkpt lat="37.6914180" lon="-3.3894380">
        <ele>798.0</ele>
        <time>2020-07-16T08:12:03Z</time>
      </trkpt>
      <trkpt lat="37.6909530" lon="-3.3897600">
        <ele>798.8</ele>
        <time>2020-07-16T08:12:12Z</time>
      </trkpt>
      <trkpt lat="37.6909050" lon="-3.3897930">
        <ele>798.8</ele>
        <time>2020-07-16T08:12:13Z</time>
      </trkpt>
      <trkpt lat="37.6904110" lon="-3.3901330">
        <ele>799.6</ele>
        <time>2020-07-16T08:12:23Z</time>
      </trkpt>
      <trkpt lat="37.6903100" lon="-3.3902080">
        <ele>799.8</ele>
        <time>2020-07-16T08:12:25Z</time>
      </trkpt>
      <trkpt lat="37.6902620" lon="-3.3902440">
        <ele>800.0</ele>
        <time>2020-07-16T08:12:26Z</time>
      </trkpt>
      <trkpt lat="37.6898540" lon="-3.3905270">
        <ele>800.4</ele>
        <time>2020-07-16T08:12:34Z</time>
      </trkpt>
      <trkpt lat="37.6895430" lon="-3.3907510">
        <ele>800.8</ele>
        <time>2020-07-16T08:12:40Z</time>
      </trkpt>
      <trkpt lat="37.6893870" lon="-3.3908610">
        <ele>801.0</ele>
        <time>2020-07-16T08:12:43Z</time>
      </trkpt>
      <trkpt lat="37.6892260" lon="-3.3909780">
        <ele>801.2</ele>
        <time>2020-07-16T08:12:46Z</time>
      </trkpt>
      <trkpt lat="37.6887580" lon="-3.3913780">
        <ele>801.6</ele>
        <time>2020-07-16T08:12:55Z</time>
      </trkpt>
      <trkpt lat="37.6886610" lon="-3.3914750">
        <ele>801.8</ele>
        <time>2020-07-16T08:12:57Z</time>
      </trkpt>
      <trkpt lat="37.6883780" lon="-3.3917800">
        <ele>801.8</ele>
        <time>2020-07-16T08:13:03Z</time>
      </trkpt>
      <trkpt lat="37.6882980" lon="-3.3918720">
        <ele>802.0</ele>
        <time>2020-07-16T08:13:05Z</time>
      </trkpt>
      <trkpt lat="37.6882580" lon="-3.3919200">
        <ele>802.0</ele>
        <time>2020-07-16T08:13:06Z</time>
      </trkpt>
      <trkpt lat="37.6879760" lon="-3.3922650">
        <ele>802.4</ele>
        <time>2020-07-16T08:13:13Z</time>
      </trkpt>
      <trkpt lat="37.6878480" lon="-3.3924370">
        <ele>802.8</ele>
        <time>2020-07-16T08:13:16Z</time>
      </trkpt>
      <trkpt lat="37.6877200" lon="-3.3926220">
        <ele>803.0</ele>
        <time>2020-07-16T08:13:19Z</time>
      </trkpt>
      <trkpt lat="37.6876760" lon="-3.3926840">
        <ele>803.0</ele>
        <time>2020-07-16T08:13:20Z</time>
      </trkpt>
      <trkpt lat="37.6872810" lon="-3.3932200">
        <ele>803.6</ele>
        <time>2020-07-16T08:13:29Z</time>
      </trkpt>
      <trkpt lat="37.6871880" lon="-3.3933270">
        <ele>803.6</ele>
        <time>2020-07-16T08:13:31Z</time>
      </trkpt>
      <trkpt lat="37.6868980" lon="-3.3936300">
        <ele>804.0</ele>
        <time>2020-07-16T08:13:37Z</time>
      </trkpt>
      <trkpt lat="37.6867450" lon="-3.3937710">
        <ele>804.2</ele>
        <time>2020-07-16T08:13:40Z</time>
      </trkpt>
      <trkpt lat="37.6862740" lon="-3.3941630">
        <ele>804.6</ele>
        <time>2020-07-16T08:13:49Z</time>
      </trkpt>
      <trkpt lat="37.6861200" lon="-3.3942890">
        <ele>804.8</ele>
        <time>2020-07-16T08:13:52Z</time>
      </trkpt>
      <trkpt lat="37.6858730" lon="-3.3944990">
        <ele>805.2</ele>
        <time>2020-07-16T08:13:57Z</time>
      </trkpt>
      <trkpt lat="37.6854850" lon="-3.3948160">
        <ele>806.0</ele>
        <time>2020-07-16T08:14:05Z</time>
      </trkpt>
      <trkpt lat="37.6853930" lon="-3.3948930">
        <ele>806.2</ele>
        <time>2020-07-16T08:14:07Z</time>
      </trkpt>
      <trkpt lat="37.6849230" lon="-3.3952790">
        <ele>807.2</ele>
        <time>2020-07-16T08:14:17Z</time>
      </trkpt>
      <trkpt lat="37.6848820" lon="-3.3953140">
        <ele>807.2</ele>
        <time>2020-07-16T08:14:18Z</time>
      </trkpt>
      <trkpt lat="37.6844590" lon="-3.3956690">
        <ele>808.0</ele>
        <time>2020-07-16T08:14:27Z</time>
      </trkpt>
      <trkpt lat="37.6842690" lon="-3.3958290">
        <ele>808.4</ele>
        <time>2020-07-16T08:14:31Z</time>
      </trkpt>
      <trkpt lat="37.6838960" lon="-3.3961440">
        <ele>809.0</ele>
        <time>2020-07-16T08:14:39Z</time>
      </trkpt>
      <trkpt lat="37.6837090" lon="-3.3963010">
        <ele>809.4</ele>
        <time>2020-07-16T08:14:43Z</time>
      </trkpt>
      <trkpt lat="37.6832430" lon="-3.3966970">
        <ele>810.4</ele>
        <time>2020-07-16T08:14:53Z</time>
      </trkpt>
      <trkpt lat="37.6831930" lon="-3.3967380">
        <ele>810.4</ele>
        <time>2020-07-16T08:14:54Z</time>
      </trkpt>
      <trkpt lat="37.6826990" lon="-3.3971510">
        <ele>811.4</ele>
        <time>2020-07-16T08:15:05Z</time>
      </trkpt>
      <trkpt lat="37.6826540" lon="-3.3971880">
        <ele>811.6</ele>
        <time>2020-07-16T08:15:06Z</time>
      </trkpt>
      <trkpt lat="37.6822020" lon="-3.3975710">
        <ele>812.0</ele>
        <time>2020-07-16T08:15:16Z</time>
      </trkpt>
      <trkpt lat="37.6821070" lon="-3.3976520">
        <ele>812.2</ele>
        <time>2020-07-16T08:15:18Z</time>
      </trkpt>
      <trkpt lat="37.6816530" lon="-3.3980370">
        <ele>812.6</ele>
        <time>2020-07-16T08:15:27Z</time>
      </trkpt>
      <trkpt lat="37.6816030" lon="-3.3980800">
        <ele>812.6</ele>
        <time>2020-07-16T08:15:28Z</time>
      </trkpt>
      <trkpt lat="37.6815470" lon="-3.3981260">
        <ele>812.6</ele>
        <time>2020-07-16T08:15:29Z</time>
      </trkpt>
      <trkpt lat="37.6811320" lon="-3.3984750">
        <ele>813.0</ele>
        <time>2020-07-16T08:15:37Z</time>
      </trkpt>
      <trkpt lat="37.6808840" lon="-3.3986830">
        <ele>813.2</ele>
        <time>2020-07-16T08:15:42Z</time>
      </trkpt>
      <trkpt lat="37.6807410" lon="-3.3988000">
        <ele>813.6</ele>
        <time>2020-07-16T08:15:45Z</time>
      </trkpt>
      <trkpt lat="37.6804060" lon="-3.3990790">
        <ele>814.4</ele>
        <time>2020-07-16T08:15:52Z</time>
      </trkpt>
      <trkpt lat="37.6803130" lon="-3.3991550">
        <ele>814.6</ele>
        <time>2020-07-16T08:15:54Z</time>
      </trkpt>
      <trkpt lat="37.6800820" lon="-3.3993510">
        <ele>815.4</ele>
        <time>2020-07-16T08:15:59Z</time>
      </trkpt>
      <trkpt lat="37.6800350" lon="-3.3993920">
        <ele>815.6</ele>
        <time>2020-07-16T08:16:00Z</time>
      </trkpt>
      <trkpt lat="37.6799440" lon="-3.3994680">
        <ele>815.8</ele>
        <time>2020-07-16T08:16:02Z</time>
      </trkpt>
      <trkpt lat="37.6795490" lon="-3.3997990">
        <ele>816.8</ele>
        <time>2020-07-16T08:16:11Z</time>
      </trkpt>
      <trkpt lat="37.6795050" lon="-3.3998340">
        <ele>816.8</ele>
        <time>2020-07-16T08:16:12Z</time>
      </trkpt>
      <trkpt lat="37.6792040" lon="-3.4000850">
        <ele>817.8</ele>
        <time>2020-07-16T08:16:19Z</time>
      </trkpt>
      <trkpt lat="37.6789880" lon="-3.4002500">
        <ele>818.4</ele>
        <time>2020-07-16T08:16:24Z</time>
      </trkpt>
      <trkpt lat="37.6788610" lon="-3.4003380">
        <ele>818.8</ele>
        <time>2020-07-16T08:16:27Z</time>
      </trkpt>
      <trkpt lat="37.6785040" lon="-3.4005550">
        <ele>819.8</ele>
        <time>2020-07-16T08:16:35Z</time>
      </trkpt>
      <trkpt lat="37.6784600" lon="-3.4005780">
        <ele>820.0</ele>
        <time>2020-07-16T08:16:36Z</time>
      </trkpt>
      <trkpt lat="37.6780850" lon="-3.4007250">
        <ele>820.8</ele>
        <time>2020-07-16T08:16:44Z</time>
      </trkpt>
      <trkpt lat="37.6779390" lon="-3.4007720">
        <ele>821.0</ele>
        <time>2020-07-16T08:16:47Z</time>
      </trkpt>
      <trkpt lat="37.6774520" lon="-3.4008870">
        <ele>822.0</ele>
        <time>2020-07-16T08:16:57Z</time>
      </trkpt>
      <trkpt lat="37.6769530" lon="-3.4010040">
        <ele>823.2</ele>
        <time>2020-07-16T08:17:07Z</time>
      </trkpt>
      <trkpt lat="37.6767560" lon="-3.4010610">
        <ele>823.6</ele>
        <time>2020-07-16T08:17:11Z</time>
      </trkpt>
      <trkpt lat="37.6765070" lon="-3.4011470">
        <ele>824.2</ele>
        <time>2020-07-16T08:17:16Z</time>
      </trkpt>
      <trkpt lat="37.6762100" lon="-3.4012850">
        <ele>824.8</ele>
        <time>2020-07-16T08:17:22Z</time>
      </trkpt>
      <trkpt lat="37.6760640" lon="-3.4013680">
        <ele>825.2</ele>
        <time>2020-07-16T08:17:25Z</time>
      </trkpt>
      <trkpt lat="37.6757430" lon="-3.4015800">
        <ele>826.2</ele>
        <time>2020-07-16T08:17:32Z</time>
      </trkpt>
      <trkpt lat="37.6753780" lon="-3.4018610">
        <ele>826.8</ele>
        <time>2020-07-16T08:17:40Z</time>
      </trkpt>
      <trkpt lat="37.6748980" lon="-3.4022360">
        <ele>827.2</ele>
        <time>2020-07-16T08:17:50Z</time>
      </trkpt>
      <trkpt lat="37.6748010" lon="-3.4023140">
        <ele>827.2</ele>
        <time>2020-07-16T08:17:52Z</time>
      </trkpt>
      <trkpt lat="37.6745120" lon="-3.4025400">
        <ele>827.6</ele>
        <time>2020-07-16T08:17:58Z</time>
      </trkpt>
      <trkpt lat="37.6741740" lon="-3.4028110">
        <ele>828.0</ele>
        <time>2020-07-16T08:18:05Z</time>
      </trkpt>
      <trkpt lat="37.6739870" lon="-3.4029580">
        <ele>828.2</ele>
        <time>2020-07-16T08:18:09Z</time>
      </trkpt>
      <trkpt lat="37.6739370" lon="-3.4029970">
        <ele>828.2</ele>
        <time>2020-07-16T08:18:10Z</time>
      </trkpt>
      <trkpt lat="37.6735680" lon="-3.4032860">
        <ele>828.8</ele>
        <time>2020-07-16T08:18:18Z</time>
      </trkpt>
      <trkpt lat="37.6733360" lon="-3.4034680">
        <ele>829.4</ele>
        <time>2020-07-16T08:18:23Z</time>
      </trkpt>
      <trkpt lat="37.6729600" lon="-3.4037810">
        <ele>829.8</ele>
        <time>2020-07-16T08:18:31Z</time>
      </trkpt>
      <trkpt lat="37.6726620" lon="-3.4040710">
        <ele>830.4</ele>
        <time>2020-07-16T08:18:38Z</time>
      </trkpt>
      <trkpt lat="37.6725470" lon="-3.4041980">
        <ele>831.0</ele>
        <time>2020-07-16T08:18:41Z</time>
      </trkpt>
      <trkpt lat="37.6724430" lon="-3.4043300">
        <ele>831.4</ele>
        <time>2020-07-16T08:18:44Z</time>
      </trkpt>
      <trkpt lat="37.6722860" lon="-3.4045570">
        <ele>831.8</ele>
        <time>2020-07-16T08:18:49Z</time>
      </trkpt>
      <trkpt lat="37.6720830" lon="-3.4049390">
        <ele>832.6</ele>
        <time>2020-07-16T08:18:57Z</time>
      </trkpt>
      <trkpt lat="37.6720370" lon="-3.4050440">
        <ele>832.8</ele>
        <time>2020-07-16T08:18:59Z</time>
      </trkpt>
      <trkpt lat="37.6719390" lon="-3.4053090">
        <ele>833.6</ele>
        <time>2020-07-16T08:19:04Z</time>
      </trkpt>
      <trkpt lat="37.6719220" lon="-3.4053630">
        <ele>833.8</ele>
        <time>2020-07-16T08:19:05Z</time>
      </trkpt>
      <trkpt lat="37.6718590" lon="-3.4055710">
        <ele>834.6</ele>
        <time>2020-07-16T08:19:09Z</time>
      </trkpt>
      <trkpt lat="37.6717840" lon="-3.4058270">
        <ele>835.6</ele>
        <time>2020-07-16T08:19:14Z</time>
      </trkpt>
      <trkpt lat="37.6717480" lon="-3.4059790">
        <ele>836.4</ele>
        <time>2020-07-16T08:19:17Z</time>
      </trkpt>
      <trkpt lat="37.6717100" lon="-3.4061600">
        <ele>836.8</ele>
        <time>2020-07-16T08:19:20Z</time>
      </trkpt>
      <trkpt lat="37.6716310" lon="-3.4065160">
        <ele>837.4</ele>
        <time>2020-07-16T08:19:27Z</time>
      </trkpt>
      <trkpt lat="37.6716100" lon="-3.4066260">
        <ele>838.0</ele>
        <time>2020-07-16T08:19:29Z</time>
      </trkpt>
      <trkpt lat="37.6715330" lon="-3.4069570">
        <ele>839.0</ele>
        <time>2020-07-16T08:19:35Z</time>
      </trkpt>
      <trkpt lat="37.6715190" lon="-3.4070130">
        <ele>839.0</ele>
        <time>2020-07-16T08:19:36Z</time>
      </trkpt>
      <trkpt lat="37.6714300" lon="-3.4073500">
        <ele>840.0</ele>
        <time>2020-07-16T08:19:42Z</time>
      </trkpt>
      <trkpt lat="37.6713210" lon="-3.4076870">
        <ele>840.6</ele>
        <time>2020-07-16T08:19:48Z</time>
      </trkpt>
      <trkpt lat="37.6712100" lon="-3.4079700">
        <ele>840.8</ele>
        <time>2020-07-16T08:19:53Z</time>
      </trkpt>
      <trkpt lat="37.6711270" lon="-3.4081500">
        <ele>840.8</ele>
        <time>2020-07-16T08:19:56Z</time>
      </trkpt>
      <trkpt lat="37.6711000" lon="-3.4082060">
        <ele>841.0</ele>
        <time>2020-07-16T08:19:57Z</time>
      </trkpt>
      <trkpt lat="37.6710380" lon="-3.4083300">
        <ele>841.0</ele>
        <time>2020-07-16T08:19:59Z</time>
      </trkpt>
      <trkpt lat="37.6709210" lon="-3.4085670">
        <ele>841.0</ele>
        <time>2020-07-16T08:20:03Z</time>
      </trkpt>
      <trkpt lat="37.6708260" lon="-3.4087630">
        <ele>841.2</ele>
        <time>2020-07-16T08:20:06Z</time>
      </trkpt>
      <trkpt lat="37.6706450" lon="-3.4091400">
        <ele>841.4</ele>
        <time>2020-07-16T08:20:12Z</time>
      </trkpt>
      <trkpt lat="37.6705250" lon="-3.4093870">
        <ele>841.4</ele>
        <time>2020-07-16T08:20:16Z</time>
      </trkpt>
      <trkpt lat="37.6704350" lon="-3.4095730">
        <ele>841.6</ele>
        <time>2020-07-16T08:20:19Z</time>
      </trkpt>
      <trkpt lat="37.6701340" lon="-3.4101860">
        <ele>842.0</ele>
        <time>2020-07-16T08:20:29Z</time>
      </trkpt>
      <trkpt lat="37.6700430" lon="-3.4103670">
        <ele>842.2</ele>
        <time>2020-07-16T08:20:32Z</time>
      </trkpt>
      <trkpt lat="37.6697470" lon="-3.4109740">
        <ele>842.4</ele>
        <time>2020-07-16T08:20:42Z</time>
      </trkpt>
      <trkpt lat="37.6696560" lon="-3.4111510">
        <ele>842.6</ele>
        <time>2020-07-16T08:20:45Z</time>
      </trkpt>
      <trkpt lat="37.6694230" lon="-3.4116340">
        <ele>843.2</ele>
        <time>2020-07-16T08:20:53Z</time>
      </trkpt>
      <trkpt lat="37.6693920" lon="-3.4116960">
        <ele>843.2</ele>
        <time>2020-07-16T08:20:54Z</time>
      </trkpt>
      <trkpt lat="37.6690960" lon="-3.4122830">
        <ele>844.0</ele>
        <time>2020-07-16T08:21:04Z</time>
      </trkpt>
      <trkpt lat="37.6690660" lon="-3.4123410">
        <ele>844.4</ele>
        <time>2020-07-16T08:21:05Z</time>
      </trkpt>
      <trkpt lat="37.6687400" lon="-3.4128950">
        <ele>845.0</ele>
        <time>2020-07-16T08:21:15Z</time>
      </trkpt>
      <trkpt lat="37.6685070" lon="-3.4131960">
        <ele>845.4</ele>
        <time>2020-07-16T08:21:21Z</time>
      </trkpt>
      <trkpt lat="37.6683760" lon="-3.4133400">
        <ele>845.4</ele>
        <time>2020-07-16T08:21:24Z</time>
      </trkpt>
      <trkpt lat="37.6680680" lon="-3.4136480">
        <ele>846.4</ele>
        <time>2020-07-16T08:21:31Z</time>
      </trkpt>
      <trkpt lat="37.6678440" lon="-3.4138590">
        <ele>846.8</ele>
        <time>2020-07-16T08:21:36Z</time>
      </trkpt>
      <trkpt lat="37.6675750" lon="-3.4141090">
        <ele>847.4</ele>
        <time>2020-07-16T08:21:42Z</time>
      </trkpt>
      <trkpt lat="37.6672640" lon="-3.4143850">
        <ele>848.0</ele>
        <time>2020-07-16T08:21:49Z</time>
      </trkpt>
      <trkpt lat="37.6670480" lon="-3.4145780">
        <ele>848.4</ele>
        <time>2020-07-16T08:21:54Z</time>
      </trkpt>
      <trkpt lat="37.6667480" lon="-3.4148530">
        <ele>849.0</ele>
        <time>2020-07-16T08:22:01Z</time>
      </trkpt>
      <trkpt lat="37.6663260" lon="-3.4152450">
        <ele>849.6</ele>
        <time>2020-07-16T08:22:11Z</time>
      </trkpt>
      <trkpt lat="37.6661960" lon="-3.4153630">
        <ele>849.8</ele>
        <time>2020-07-16T08:22:14Z</time>
      </trkpt>
      <trkpt lat="37.6659740" lon="-3.4155640">
        <ele>850.2</ele>
        <time>2020-07-16T08:22:19Z</time>
      </trkpt>
      <trkpt lat="37.6658080" lon="-3.4157160">
        <ele>850.4</ele>
        <time>2020-07-16T08:22:23Z</time>
      </trkpt>
      <trkpt lat="37.6656430" lon="-3.4158660">
        <ele>850.6</ele>
        <time>2020-07-16T08:22:27Z</time>
      </trkpt>
      <trkpt lat="37.6653610" lon="-3.4161300">
        <ele>851.2</ele>
        <time>2020-07-16T08:22:34Z</time>
      </trkpt>
      <trkpt lat="37.6649970" lon="-3.4164670">
        <ele>851.6</ele>
        <time>2020-07-16T08:22:43Z</time>
      </trkpt>
      <trkpt lat="37.6649540" lon="-3.4165060">
        <ele>851.6</ele>
        <time>2020-07-16T08:22:44Z</time>
      </trkpt>
      <trkpt lat="37.6645100" lon="-3.4169130">
        <ele>852.4</ele>
        <time>2020-07-16T08:22:55Z</time>
      </trkpt>
      <trkpt lat="37.6644320" lon="-3.4169860">
        <ele>852.4</ele>
        <time>2020-07-16T08:22:57Z</time>
      </trkpt>
      <trkpt lat="37.6642290" lon="-3.4171730">
        <ele>852.6</ele>
        <time>2020-07-16T08:23:02Z</time>
      </trkpt>
      <trkpt lat="37.6640280" lon="-3.4173490">
        <ele>853.0</ele>
        <time>2020-07-16T08:23:07Z</time>
      </trkpt>
      <trkpt lat="37.6637450" lon="-3.4175480">
        <ele>853.6</ele>
        <time>2020-07-16T08:23:14Z</time>
      </trkpt>
      <trkpt lat="37.6637040" lon="-3.4175710">
        <ele>853.6</ele>
        <time>2020-07-16T08:23:15Z</time>
      </trkpt>
      <trkpt lat="37.6635240" lon="-3.4176490">
        <ele>854.0</ele>
        <time>2020-07-16T08:23:19Z</time>
      </trkpt>
      <trkpt lat="37.6633430" lon="-3.4177080">
        <ele>854.6</ele>
        <time>2020-07-16T08:23:23Z</time>
      </trkpt>
      <trkpt lat="37.6632470" lon="-3.4177280">
        <ele>854.8</ele>
        <time>2020-07-16T08:23:25Z</time>
      </trkpt>
      <trkpt lat="37.6629990" lon="-3.4177420">
        <ele>855.4</ele>
        <time>2020-07-16T08:23:30Z</time>
      </trkpt>
      <trkpt lat="37.6627550" lon="-3.4177140">
        <ele>856.0</ele>
        <time>2020-07-16T08:23:35Z</time>
      </trkpt>
      <trkpt lat="37.6625680" lon="-3.4176760">
        <ele>856.4</ele>
        <time>2020-07-16T08:23:39Z</time>
      </trkpt>
      <trkpt lat="37.6623380" lon="-3.4176090">
        <ele>857.0</ele>
        <time>2020-07-16T08:23:44Z</time>
      </trkpt>
      <trkpt lat="37.6620580" lon="-3.4175250">
        <ele>857.6</ele>
        <time>2020-07-16T08:23:50Z</time>
      </trkpt>
      <trkpt lat="37.6618720" lon="-3.4174760">
        <ele>858.0</ele>
        <time>2020-07-16T08:23:54Z</time>
      </trkpt>
      <trkpt lat="37.6616400" lon="-3.4174440">
        <ele>858.6</ele>
        <time>2020-07-16T08:23:59Z</time>
      </trkpt>
      <trkpt lat="37.6613130" lon="-3.4174760">
        <ele>859.0</ele>
        <time>2020-07-16T08:24:06Z</time>
      </trkpt>
      <trkpt lat="37.6608870" lon="-3.4176180">
        <ele>859.8</ele>
        <time>2020-07-16T08:24:15Z</time>
      </trkpt>
      <trkpt lat="37.6607470" lon="-3.4176750">
        <ele>860.2</ele>
        <time>2020-07-16T08:24:18Z</time>
      </trkpt>
      <trkpt lat="37.6605030" lon="-3.4177800">
        <ele>860.8</ele>
        <time>2020-07-16T08:24:23Z</time>
      </trkpt>
      <trkpt lat="37.6601510" lon="-3.4179380">
        <ele>861.2</ele>
        <time>2020-07-16T08:24:30Z</time>
      </trkpt>
      <trkpt lat="37.6599550" lon="-3.4180260">
        <ele>861.4</ele>
        <time>2020-07-16T08:24:34Z</time>
      </trkpt>
      <trkpt lat="37.6598550" lon="-3.4180720">
        <ele>861.6</ele>
        <time>2020-07-16T08:24:36Z</time>
      </trkpt>
      <trkpt lat="37.6593440" lon="-3.4182880">
        <ele>861.6</ele>
        <time>2020-07-16T08:24:46Z</time>
      </trkpt>
      <trkpt lat="37.6588280" lon="-3.4185060">
        <ele>862.0</ele>
        <time>2020-07-16T08:24:56Z</time>
      </trkpt>
      <trkpt lat="37.6587820" lon="-3.4185250">
        <ele>862.0</ele>
        <time>2020-07-16T08:24:57Z</time>
      </trkpt>
      <trkpt lat="37.6586250" lon="-3.4185950">
        <ele>862.2</ele>
        <time>2020-07-16T08:25:00Z</time>
      </trkpt>
      <trkpt lat="37.6582670" lon="-3.4187480">
        <ele>862.6</ele>
        <time>2020-07-16T08:25:07Z</time>
      </trkpt>
      <trkpt lat="37.6578560" lon="-3.4189330">
        <ele>863.4</ele>
        <time>2020-07-16T08:25:15Z</time>
      </trkpt>
      <trkpt lat="37.6577990" lon="-3.4189580">
        <ele>863.4</ele>
        <time>2020-07-16T08:25:16Z</time>
      </trkpt>
      <trkpt lat="37.6574360" lon="-3.4191080">
        <ele>863.4</ele>
        <time>2020-07-16T08:25:23Z</time>
      </trkpt>
      <trkpt lat="37.6572680" lon="-3.4191800">
        <ele>863.6</ele>
        <time>2020-07-16T08:25:26Z</time>
      </trkpt>
      <trkpt lat="37.6567260" lon="-3.4194150">
        <ele>864.2</ele>
        <time>2020-07-16T08:25:36Z</time>
      </trkpt>
      <trkpt lat="37.6565090" lon="-3.4195110">
        <ele>864.4</ele>
        <time>2020-07-16T08:25:40Z</time>
      </trkpt>
      <trkpt lat="37.6559780" lon="-3.4197350">
        <ele>865.0</ele>
        <time>2020-07-16T08:25:50Z</time>
      </trkpt>
      <trkpt lat="37.6559320" lon="-3.4197540">
        <ele>865.0</ele>
        <time>2020-07-16T08:25:51Z</time>
      </trkpt>
      <trkpt lat="37.6556690" lon="-3.4198670">
        <ele>865.4</ele>
        <time>2020-07-16T08:25:56Z</time>
      </trkpt>
      <trkpt lat="37.6553480" lon="-3.4200020">
        <ele>865.6</ele>
        <time>2020-07-16T08:26:02Z</time>
      </trkpt>
      <trkpt lat="37.6548170" lon="-3.4202300">
        <ele>866.2</ele>
        <time>2020-07-16T08:26:12Z</time>
      </trkpt>
      <trkpt lat="37.6547120" lon="-3.4202700">
        <ele>866.6</ele>
        <time>2020-07-16T08:26:14Z</time>
      </trkpt>
      <trkpt lat="37.6542610" lon="-3.4204720">
        <ele>867.2</ele>
        <time>2020-07-16T08:26:23Z</time>
      </trkpt>
      <trkpt lat="37.6541060" lon="-3.4205350">
        <ele>867.6</ele>
        <time>2020-07-16T08:26:26Z</time>
      </trkpt>
      <trkpt lat="37.6539580" lon="-3.4206000">
        <ele>867.8</ele>
        <time>2020-07-16T08:26:29Z</time>
      </trkpt>
      <trkpt lat="37.6538580" lon="-3.4206420">
        <ele>868.0</ele>
        <time>2020-07-16T08:26:31Z</time>
      </trkpt>
      <trkpt lat="37.6536590" lon="-3.4207290">
        <ele>868.6</ele>
        <time>2020-07-16T08:26:35Z</time>
      </trkpt>
      <trkpt lat="37.6535230" lon="-3.4207840">
        <ele>869.0</ele>
        <time>2020-07-16T08:26:38Z</time>
      </trkpt>
      <trkpt lat="37.6532850" lon="-3.4208790">
        <ele>869.6</ele>
        <time>2020-07-16T08:26:43Z</time>
      </trkpt>
      <trkpt lat="37.6532320" lon="-3.4209000">
        <ele>869.8</ele>
        <time>2020-07-16T08:26:44Z</time>
      </trkpt>
      <trkpt lat="37.6529300" lon="-3.4210270">
        <ele>870.8</ele>
        <time>2020-07-16T08:26:51Z</time>
      </trkpt>
      <trkpt lat="37.6528460" lon="-3.4210570">
        <ele>871.2</ele>
        <time>2020-07-16T08:26:53Z</time>
      </trkpt>
      <trkpt lat="37.6524900" lon="-3.4211640">
        <ele>871.8</ele>
        <time>2020-07-16T08:27:01Z</time>
      </trkpt>
      <trkpt lat="37.6524430" lon="-3.4211710">
        <ele>871.8</ele>
        <time>2020-07-16T08:27:02Z</time>
      </trkpt>
      <trkpt lat="37.6519670" lon="-3.4212190">
        <ele>872.8</ele>
        <time>2020-07-16T08:27:12Z</time>
      </trkpt>
      <trkpt lat="37.6518680" lon="-3.4212220">
        <ele>873.0</ele>
        <time>2020-07-16T08:27:14Z</time>
      </trkpt>
      <trkpt lat="37.6515380" lon="-3.4211940">
        <ele>874.0</ele>
        <time>2020-07-16T08:27:21Z</time>
      </trkpt>
      <trkpt lat="37.6514890" lon="-3.4211880">
        <ele>874.2</ele>
        <time>2020-07-16T08:27:22Z</time>
      </trkpt>
      <trkpt lat="37.6511580" lon="-3.4211180">
        <ele>874.6</ele>
        <time>2020-07-16T08:27:29Z</time>
      </trkpt>
      <trkpt lat="37.6509720" lon="-3.4210660">
        <ele>874.8</ele>
        <time>2020-07-16T08:27:33Z</time>
      </trkpt>
      <trkpt lat="37.6508690" lon="-3.4210370">
        <ele>875.0</ele>
        <time>2020-07-16T08:27:35Z</time>
      </trkpt>
      <trkpt lat="37.6505440" lon="-3.4209380">
        <ele>875.6</ele>
        <time>2020-07-16T08:27:42Z</time>
      </trkpt>
      <trkpt lat="37.6505010" lon="-3.4209270">
        <ele>875.8</ele>
        <time>2020-07-16T08:27:43Z</time>
      </trkpt>
      <trkpt lat="37.6503470" lon="-3.4208830">
        <ele>876.0</ele>
        <time>2020-07-16T08:27:46Z</time>
      </trkpt>
      <trkpt lat="37.6500220" lon="-3.4207840">
        <ele>876.6</ele>
        <time>2020-07-16T08:27:53Z</time>
      </trkpt>
      <trkpt lat="37.6498500" lon="-3.4207160">
        <ele>877.0</ele>
        <time>2020-07-16T08:27:57Z</time>
      </trkpt>
      <trkpt lat="37.6495930" lon="-3.4206500">
        <ele>877.8</ele>
        <time>2020-07-16T08:28:02Z</time>
      </trkpt>
      <trkpt lat="37.6495540" lon="-3.4206600">
        <ele>877.8</ele>
        <time>2020-07-16T08:28:03Z</time>
      </trkpt>
      <trkpt lat="37.6494270" lon="-3.4207740">
        <ele>878.0</ele>
        <time>2020-07-16T08:28:06Z</time>
      </trkpt>
      <trkpt lat="37.6493990" lon="-3.4208320">
        <ele>878.0</ele>
        <time>2020-07-16T08:28:07Z</time>
      </trkpt>
      <trkpt lat="37.6493700" lon="-3.4210180">
        <ele>878.6</ele>
        <time>2020-07-16T08:28:10Z</time>
      </trkpt>
      <trkpt lat="37.6493710" lon="-3.4211590">
        <ele>878.8</ele>
        <time>2020-07-16T08:28:12Z</time>
      </trkpt>
      <trkpt lat="37.6493910" lon="-3.4214650">
        <ele>879.0</ele>
        <time>2020-07-16T08:28:16Z</time>
      </trkpt>
      <trkpt lat="37.6494480" lon="-3.4222040">
        <ele>878.8</ele>
        <time>2020-07-16T08:28:25Z</time>
      </trkpt>
      <trkpt lat="37.6494520" lon="-3.4222800">
        <ele>878.8</ele>
        <time>2020-07-16T08:28:26Z</time>
      </trkpt>
      <trkpt lat="37.6494630" lon="-3.4225290">
        <ele>878.8</ele>
        <time>2020-07-16T08:28:29Z</time>
      </trkpt>
      <trkpt lat="37.6494630" lon="-3.4227760">
        <ele>879.0</ele>
        <time>2020-07-16T08:28:32Z</time>
      </trkpt>
      <trkpt lat="37.6494520" lon="-3.4229420">
        <ele>879.0</ele>
        <time>2020-07-16T08:28:34Z</time>
      </trkpt>
      <trkpt lat="37.6493840" lon="-3.4234450">
        <ele>879.0</ele>
        <time>2020-07-16T08:28:40Z</time>
      </trkpt>
      <trkpt lat="37.6493710" lon="-3.4235330">
        <ele>879.0</ele>
        <time>2020-07-16T08:28:41Z</time>
      </trkpt>
      <trkpt lat="37.6493470" lon="-3.4237030">
        <ele>878.8</ele>
        <time>2020-07-16T08:28:43Z</time>
      </trkpt>
      <trkpt lat="37.6493080" lon="-3.4239810">
        <ele>878.4</ele>
        <time>2020-07-16T08:28:46Z</time>
      </trkpt>
      <trkpt lat="37.6492410" lon="-3.4244290">
        <ele>878.4</ele>
        <time>2020-07-16T08:28:51Z</time>
      </trkpt>
      <trkpt lat="37.6491370" lon="-3.4251520">
        <ele>878.6</ele>
        <time>2020-07-16T08:28:59Z</time>
      </trkpt>
      <trkpt lat="37.6491140" lon="-3.4253120">
        <ele>878.4</ele>
        <time>2020-07-16T08:29:01Z</time>
      </trkpt>
      <trkpt lat="37.6490240" lon="-3.4259000">
        <ele>879.0</ele>
        <time>2020-07-16T08:29:08Z</time>
      </trkpt>
      <trkpt lat="37.6490130" lon="-3.4259870">
        <ele>879.0</ele>
        <time>2020-07-16T08:29:09Z</time>
      </trkpt>
      <trkpt lat="37.6489910" lon="-3.4261580">
        <ele>879.2</ele>
        <time>2020-07-16T08:29:11Z</time>
      </trkpt>
      <trkpt lat="37.6489050" lon="-3.4268150">
        <ele>879.6</ele>
        <time>2020-07-16T08:29:19Z</time>
      </trkpt>
      <trkpt lat="37.6488960" lon="-3.4273840">
        <ele>880.2</ele>
        <time>2020-07-16T08:29:26Z</time>
      </trkpt>
      <trkpt lat="37.6488990" lon="-3.4274530">
        <ele>880.4</ele>
        <time>2020-07-16T08:29:27Z</time>
      </trkpt>
      <trkpt lat="37.6489300" lon="-3.4277570">
        <ele>881.2</ele>
        <time>2020-07-16T08:29:31Z</time>
      </trkpt>
      <trkpt lat="37.6489580" lon="-3.4279660">
        <ele>881.8</ele>
        <time>2020-07-16T08:29:34Z</time>
      </trkpt>
      <trkpt lat="37.6489780" lon="-3.4280990">
        <ele>882.4</ele>
        <time>2020-07-16T08:29:36Z</time>
      </trkpt>
      <trkpt lat="37.6490060" lon="-3.4282890">
        <ele>883.0</ele>
        <time>2020-07-16T08:29:39Z</time>
      </trkpt>
      <trkpt lat="37.6490270" lon="-3.4284170">
        <ele>883.4</ele>
        <time>2020-07-16T08:29:41Z</time>
      </trkpt>
      <trkpt lat="37.6490370" lon="-3.4284820">
        <ele>883.4</ele>
        <time>2020-07-16T08:29:42Z</time>
      </trkpt>
      <trkpt lat="37.6490930" lon="-3.4288540">
        <ele>884.6</ele>
        <time>2020-07-16T08:29:48Z</time>
      </trkpt>
      <trkpt lat="37.6491090" lon="-3.4289760">
        <ele>885.0</ele>
        <time>2020-07-16T08:29:50Z</time>
      </trkpt>
      <trkpt lat="37.6491270" lon="-3.4290930">
        <ele>885.8</ele>
        <time>2020-07-16T08:29:52Z</time>
      </trkpt>
      <trkpt lat="37.6491890" lon="-3.4294360">
        <ele>886.8</ele>
        <time>2020-07-16T08:29:58Z</time>
      </trkpt>
      <trkpt lat="37.6492150" lon="-3.4296120">
        <ele>887.2</ele>
        <time>2020-07-16T08:30:01Z</time>
      </trkpt>
      <trkpt lat="37.6492630" lon="-3.4298920">
        <ele>887.6</ele>
        <time>2020-07-16T08:30:06Z</time>
      </trkpt>
      <trkpt lat="37.6492870" lon="-3.4300570">
        <ele>888.2</ele>
        <time>2020-07-16T08:30:09Z</time>
      </trkpt>
      <trkpt lat="37.6493340" lon="-3.4303380">
        <ele>889.4</ele>
        <time>2020-07-16T08:30:14Z</time>
      </trkpt>
      <trkpt lat="37.6493880" lon="-3.4306680">
        <ele>890.4</ele>
        <time>2020-07-16T08:30:20Z</time>
      </trkpt>
      <trkpt lat="37.6494050" lon="-3.4307780">
        <ele>890.8</ele>
        <time>2020-07-16T08:30:22Z</time>
      </trkpt>
      <trkpt lat="37.6494790" lon="-3.4312200">
        <ele>891.6</ele>
        <time>2020-07-16T08:30:30Z</time>
      </trkpt>
      <trkpt lat="37.6495140" lon="-3.4313770">
        <ele>892.2</ele>
        <time>2020-07-16T08:30:33Z</time>
      </trkpt>
      <trkpt lat="37.6495370" lon="-3.4314390">
        <ele>892.4</ele>
        <time>2020-07-16T08:30:34Z</time>
      </trkpt>
      <trkpt lat="37.6495600" lon="-3.4314890">
        <ele>892.6</ele>
        <time>2020-07-16T08:30:35Z</time>
      </trkpt>
      <trkpt lat="37.6496480" lon="-3.4316200">
        <ele>893.0</ele>
        <time>2020-07-16T08:30:38Z</time>
      </trkpt>
      <trkpt lat="37.6496830" lon="-3.4316630">
        <ele>893.2</ele>
        <time>2020-07-16T08:30:39Z</time>
      </trkpt>
      <trkpt lat="37.6497470" lon="-3.4317600">
        <ele>893.4</ele>
        <time>2020-07-16T08:30:41Z</time>
      </trkpt>
      <trkpt lat="37.6497840" lon="-3.4318760">
        <ele>893.6</ele>
        <time>2020-07-16T08:30:43Z</time>
      </trkpt>
      <trkpt lat="37.6497600" lon="-3.4321400">
        <ele>894.0</ele>
        <time>2020-07-16T08:30:47Z</time>
      </trkpt>
      <trkpt lat="37.6496540" lon="-3.4322990">
        <ele>894.0</ele>
        <time>2020-07-16T08:30:50Z</time>
      </trkpt>
      <trkpt lat="37.6496190" lon="-3.4323480">
        <ele>894.2</ele>
        <time>2020-07-16T08:30:51Z</time>
      </trkpt>
      <trkpt lat="37.6495530" lon="-3.4324630">
        <ele>894.2</ele>
        <time>2020-07-16T08:30:53Z</time>
      </trkpt>
      <trkpt lat="37.6494890" lon="-3.4326760">
        <ele>894.2</ele>
        <time>2020-07-16T08:30:56Z</time>
      </trkpt>
      <trkpt lat="37.6494100" lon="-3.4330180">
        <ele>894.8</ele>
        <time>2020-07-16T08:31:01Z</time>
      </trkpt>
      <trkpt lat="37.6493480" lon="-3.4332940">
        <ele>895.0</ele>
        <time>2020-07-16T08:31:05Z</time>
      </trkpt>
      <trkpt lat="37.6493160" lon="-3.4334320">
        <ele>895.2</ele>
        <time>2020-07-16T08:31:07Z</time>
      </trkpt>
      <trkpt lat="37.6492420" lon="-3.4337740">
        <ele>895.4</ele>
        <time>2020-07-16T08:31:12Z</time>
      </trkpt>
      <trkpt lat="37.6491780" lon="-3.4340460">
        <ele>895.8</ele>
        <time>2020-07-16T08:31:16Z</time>
      </trkpt>
      <trkpt lat="37.6491630" lon="-3.4341150">
        <ele>895.8</ele>
        <time>2020-07-16T08:31:17Z</time>
      </trkpt>
      <trkpt lat="37.6490060" lon="-3.4348010">
        <ele>896.4</ele>
        <time>2020-07-16T08:31:27Z</time>
      </trkpt>
      <trkpt lat="37.6489560" lon="-3.4350140">
        <ele>896.6</ele>
        <time>2020-07-16T08:31:30Z</time>
      </trkpt>
      <trkpt lat="37.6488970" lon="-3.4352930">
        <ele>896.8</ele>
        <time>2020-07-16T08:31:34Z</time>
      </trkpt>
      <trkpt lat="37.6487990" lon="-3.4357120">
        <ele>897.4</ele>
        <time>2020-07-16T08:31:40Z</time>
      </trkpt>
      <trkpt lat="37.6486910" lon="-3.4361940">
        <ele>897.8</ele>
        <time>2020-07-16T08:31:47Z</time>
      </trkpt>
      <trkpt lat="37.6486430" lon="-3.4363980">
        <ele>898.0</ele>
        <time>2020-07-16T08:31:50Z</time>
      </trkpt>
      <trkpt lat="37.6484880" lon="-3.4370790">
        <ele>898.8</ele>
        <time>2020-07-16T08:32:00Z</time>
      </trkpt>
      <trkpt lat="37.6484730" lon="-3.4371490">
        <ele>899.0</ele>
        <time>2020-07-16T08:32:01Z</time>
      </trkpt>
      <trkpt lat="37.6483260" lon="-3.4378240">
        <ele>899.6</ele>
        <time>2020-07-16T08:32:11Z</time>
      </trkpt>
      <trkpt lat="37.6482780" lon="-3.4380260">
        <ele>900.0</ele>
        <time>2020-07-16T08:32:14Z</time>
      </trkpt>
      <trkpt lat="37.6482240" lon="-3.4382720">
        <ele>900.2</ele>
        <time>2020-07-16T08:32:18Z</time>
      </trkpt>
      <trkpt lat="37.6481880" lon="-3.4384360">
        <ele>900.4</ele>
        <time>2020-07-16T08:32:20Z</time>
      </trkpt>
      <trkpt lat="37.6481460" lon="-3.4386260">
        <ele>901.0</ele>
        <time>2020-07-16T08:32:23Z</time>
      </trkpt>
      <trkpt lat="37.6480450" lon="-3.4390820">
        <ele>902.0</ele>
        <time>2020-07-16T08:32:30Z</time>
      </trkpt>
      <trkpt lat="37.6480030" lon="-3.4392610">
        <ele>902.6</ele>
        <time>2020-07-16T08:32:33Z</time>
      </trkpt>
      <trkpt lat="37.6479020" lon="-3.4397150">
        <ele>903.0</ele>
        <time>2020-07-16T08:32:40Z</time>
      </trkpt>
      <trkpt lat="37.6478280" lon="-3.4400300">
        <ele>903.8</ele>
        <time>2020-07-16T08:32:45Z</time>
      </trkpt>
      <trkpt lat="37.6477880" lon="-3.4402180">
        <ele>904.2</ele>
        <time>2020-07-16T08:32:48Z</time>
      </trkpt>
      <trkpt lat="37.6477120" lon="-3.4405420">
        <ele>904.6</ele>
        <time>2020-07-16T08:32:53Z</time>
      </trkpt>
      <trkpt lat="37.6476220" lon="-3.4409490">
        <ele>905.2</ele>
        <time>2020-07-16T08:32:59Z</time>
      </trkpt>
      <trkpt lat="37.6475140" lon="-3.4414290">
        <ele>906.0</ele>
        <time>2020-07-16T08:33:06Z</time>
      </trkpt>
      <trkpt lat="37.6474700" lon="-3.4416350">
        <ele>906.2</ele>
        <time>2020-07-16T08:33:09Z</time>
      </trkpt>
      <trkpt lat="37.6473880" lon="-3.4420610">
        <ele>907.0</ele>
        <time>2020-07-16T08:33:15Z</time>
      </trkpt>
      <trkpt lat="37.6473750" lon="-3.4421360">
        <ele>907.2</ele>
        <time>2020-07-16T08:33:16Z</time>
      </trkpt>
      <trkpt lat="37.6473280" lon="-3.4424270">
        <ele>907.2</ele>
        <time>2020-07-16T08:33:20Z</time>
      </trkpt>
      <trkpt lat="37.6472680" lon="-3.4428540">
        <ele>907.8</ele>
        <time>2020-07-16T08:33:26Z</time>
      </trkpt>
      <trkpt lat="37.6472260" lon="-3.4432080">
        <ele>908.4</ele>
        <time>2020-07-16T08:33:31Z</time>
      </trkpt>
      <trkpt lat="37.6471960" lon="-3.4434860">
        <ele>908.6</ele>
        <time>2020-07-16T08:33:35Z</time>
      </trkpt>
      <trkpt lat="37.6471510" lon="-3.4438810">
        <ele>909.6</ele>
        <time>2020-07-16T08:33:41Z</time>
      </trkpt>
      <trkpt lat="37.6471340" lon="-3.4440670">
        <ele>910.0</ele>
        <time>2020-07-16T08:33:44Z</time>
      </trkpt>
      <trkpt lat="37.6471150" lon="-3.4442430">
        <ele>910.6</ele>
        <time>2020-07-16T08:33:47Z</time>
      </trkpt>
      <trkpt lat="37.6470920" lon="-3.4444710">
        <ele>911.4</ele>
        <time>2020-07-16T08:33:51Z</time>
      </trkpt>
      <trkpt lat="37.6470850" lon="-3.4445300">
        <ele>911.6</ele>
        <time>2020-07-16T08:33:52Z</time>
      </trkpt>
      <trkpt lat="37.6470660" lon="-3.4446960">
        <ele>912.4</ele>
        <time>2020-07-16T08:33:55Z</time>
      </trkpt>
      <trkpt lat="37.6470520" lon="-3.4448020">
        <ele>913.0</ele>
        <time>2020-07-16T08:33:57Z</time>
      </trkpt>
      <trkpt lat="37.6470220" lon="-3.4450730">
        <ele>914.0</ele>
        <time>2020-07-16T08:34:02Z</time>
      </trkpt>
      <trkpt lat="37.6470170" lon="-3.4451180">
        <ele>914.2</ele>
        <time>2020-07-16T08:34:03Z</time>
      </trkpt>
      <trkpt lat="37.6469890" lon="-3.4453350">
        <ele>915.2</ele>
        <time>2020-07-16T08:34:07Z</time>
      </trkpt>
      <trkpt lat="37.6469660" lon="-3.4455480">
        <ele>916.0</ele>
        <time>2020-07-16T08:34:11Z</time>
      </trkpt>
      <trkpt lat="37.6469590" lon="-3.4456000">
        <ele>916.4</ele>
        <time>2020-07-16T08:34:12Z</time>
      </trkpt>
      <trkpt lat="37.6469380" lon="-3.4458000">
        <ele>917.4</ele>
        <time>2020-07-16T08:34:16Z</time>
      </trkpt>
      <trkpt lat="37.6469180" lon="-3.4460370">
        <ele>918.2</ele>
        <time>2020-07-16T08:34:21Z</time>
      </trkpt>
      <trkpt lat="37.6469110" lon="-3.4461330">
        <ele>918.4</ele>
        <time>2020-07-16T08:34:23Z</time>
      </trkpt>
      <trkpt lat="37.6469050" lon="-3.4464840">
        <ele>919.6</ele>
        <time>2020-07-16T08:34:30Z</time>
      </trkpt>
      <trkpt lat="37.6469120" lon="-3.4466310">
        <ele>920.2</ele>
        <time>2020-07-16T08:34:33Z</time>
      </trkpt>
      <trkpt lat="37.6469210" lon="-3.4467380">
        <ele>920.6</ele>
        <time>2020-07-16T08:34:35Z</time>
      </trkpt>
      <trkpt lat="37.6469460" lon="-3.4469870">
        <ele>921.6</ele>
        <time>2020-07-16T08:34:40Z</time>
      </trkpt>
      <trkpt lat="37.6469840" lon="-3.4472780">
        <ele>922.8</ele>
        <time>2020-07-16T08:34:46Z</time>
      </trkpt>
      <trkpt lat="37.6470390" lon="-3.4476730">
        <ele>923.8</ele>
        <time>2020-07-16T08:34:54Z</time>
      </trkpt>
      <trkpt lat="37.6470620" lon="-3.4478200">
        <ele>924.2</ele>
        <time>2020-07-16T08:34:57Z</time>
      </trkpt>
      <trkpt lat="37.6470820" lon="-3.4479750">
        <ele>924.8</ele>
        <time>2020-07-16T08:35:00Z</time>
      </trkpt>
      <trkpt lat="37.6471270" lon="-3.4483330">
        <ele>925.8</ele>
        <time>2020-07-16T08:35:07Z</time>
      </trkpt>
      <trkpt lat="37.6471340" lon="-3.4483820">
        <ele>926.0</ele>
        <time>2020-07-16T08:35:08Z</time>
      </trkpt>
      <trkpt lat="37.6471950" lon="-3.4487800">
        <ele>926.6</ele>
        <time>2020-07-16T08:35:16Z</time>
      </trkpt>
      <trkpt lat="37.6472090" lon="-3.4488770">
        <ele>927.0</ele>
        <time>2020-07-16T08:35:18Z</time>
      </trkpt>
      <trkpt lat="37.6472580" lon="-3.4492330">
        <ele>927.8</ele>
        <time>2020-07-16T08:35:25Z</time>
      </trkpt>
      <trkpt lat="37.6472650" lon="-3.4492850">
        <ele>928.0</ele>
        <time>2020-07-16T08:35:26Z</time>
      </trkpt>
      <trkpt lat="37.6473230" lon="-3.4497110">
        <ele>929.0</ele>
        <time>2020-07-16T08:35:34Z</time>
      </trkpt>
      <trkpt lat="37.6473370" lon="-3.4498190">
        <ele>929.0</ele>
        <time>2020-07-16T08:35:36Z</time>
      </trkpt>
      <trkpt lat="37.6473820" lon="-3.4501330">
        <ele>930.0</ele>
        <time>2020-07-16T08:35:42Z</time>
      </trkpt>
      <trkpt lat="37.6473890" lon="-3.4501820">
        <ele>930.0</ele>
        <time>2020-07-16T08:35:43Z</time>
      </trkpt>
      <trkpt lat="37.6473970" lon="-3.4502400">
        <ele>930.2</ele>
        <time>2020-07-16T08:35:44Z</time>
      </trkpt>
      <trkpt lat="37.6474560" lon="-3.4506720">
        <ele>931.2</ele>
        <time>2020-07-16T08:35:52Z</time>
      </trkpt>
      <trkpt lat="37.6474720" lon="-3.4507810">
        <ele>931.4</ele>
        <time>2020-07-16T08:35:54Z</time>
      </trkpt>
      <trkpt lat="37.6475340" lon="-3.4512290">
        <ele>932.2</ele>
        <time>2020-07-16T08:36:02Z</time>
      </trkpt>
      <trkpt lat="37.6475500" lon="-3.4513410">
        <ele>932.4</ele>
        <time>2020-07-16T08:36:04Z</time>
      </trkpt>
      <trkpt lat="37.6475930" lon="-3.4517300">
        <ele>933.2</ele>
        <time>2020-07-16T08:36:11Z</time>
      </trkpt>
      <trkpt lat="37.6475990" lon="-3.4517820">
        <ele>933.4</ele>
        <time>2020-07-16T08:36:12Z</time>
      </trkpt>
      <trkpt lat="37.6476220" lon="-3.4519480">
        <ele>933.8</ele>
        <time>2020-07-16T08:36:16Z</time>
      </trkpt>
      <trkpt lat="37.6476290" lon="-3.4520070">
        <ele>934.0</ele>
        <time>2020-07-16T08:36:18Z</time>
      </trkpt>
      <trkpt lat="37.6476310" lon="-3.4520560">
        <ele>934.2</ele>
        <time>2020-07-16T08:36:20Z</time>
      </trkpt>
      <trkpt lat="37.6476360" lon="-3.4520760">
        <ele>934.4</ele>
        <time>2020-07-16T08:36:22Z</time>
      </trkpt>
      <trkpt lat="37.6476350" lon="-3.4520730">
        <ele>934.4</ele>
        <time>2020-07-16T08:36:23Z</time>
      </trkpt>
      <trkpt lat="37.6476490" lon="-3.4521070">
        <ele>934.4</ele>
        <time>2020-07-16T08:36:27Z</time>
      </trkpt>
      <trkpt lat="37.6476640" lon="-3.4521650">
        <ele>934.4</ele>
        <time>2020-07-16T08:36:29Z</time>
      </trkpt>
      <trkpt lat="37.6477450" lon="-3.4523730">
        <ele>934.8</ele>
        <time>2020-07-16T08:36:35Z</time>
      </trkpt>
      <trkpt lat="37.6478880" lon="-3.4525660">
        <ele>935.4</ele>
        <time>2020-07-16T08:36:41Z</time>
      </trkpt>
      <trkpt lat="37.6480800" lon="-3.4526960">
        <ele>936.2</ele>
        <time>2020-07-16T08:36:47Z</time>
      </trkpt>
      <trkpt lat="37.6481140" lon="-3.4526980">
        <ele>936.4</ele>
        <time>2020-07-16T08:36:48Z</time>
      </trkpt>
      <trkpt lat="37.6481520" lon="-3.4527070">
        <ele>936.6</ele>
        <time>2020-07-16T08:36:49Z</time>
      </trkpt>
      <trkpt lat="37.6483380" lon="-3.4527260">
        <ele>937.4</ele>
        <time>2020-07-16T08:36:54Z</time>
      </trkpt>
      <trkpt lat="37.6483740" lon="-3.4527200">
        <ele>937.8</ele>
        <time>2020-07-16T08:36:55Z</time>
      </trkpt>
      <trkpt lat="37.6484110" lon="-3.4527120">
        <ele>937.8</ele>
        <time>2020-07-16T08:36:56Z</time>
      </trkpt>
      <trkpt lat="37.6485530" lon="-3.4526600">
        <ele>938.6</ele>
        <time>2020-07-16T08:37:00Z</time>
      </trkpt>
      <trkpt lat="37.6485850" lon="-3.4526400">
        <ele>938.8</ele>
        <time>2020-07-16T08:37:01Z</time>
      </trkpt>
      <trkpt lat="37.6486420" lon="-3.4525940">
        <ele>939.2</ele>
        <time>2020-07-16T08:37:03Z</time>
      </trkpt>
      <trkpt lat="37.6487350" lon="-3.4525110">
        <ele>940.0</ele>
        <time>2020-07-16T08:37:06Z</time>
      </trkpt>
      <trkpt lat="37.6488490" lon="-3.4523350">
        <ele>940.6</ele>
        <time>2020-07-16T08:37:11Z</time>
      </trkpt>
      <trkpt lat="37.6488870" lon="-3.4522020">
        <ele>941.0</ele>
        <time>2020-07-16T08:37:14Z</time>
      </trkpt>
      <trkpt lat="37.6489210" lon="-3.4520280">
        <ele>941.8</ele>
        <time>2020-07-16T08:37:18Z</time>
      </trkpt>
      <trkpt lat="37.6489300" lon="-3.4519340">
        <ele>942.2</ele>
        <time>2020-07-16T08:37:20Z</time>
      </trkpt>
      <trkpt lat="37.6489500" lon="-3.4515600">
        <ele>943.2</ele>
        <time>2020-07-16T08:37:28Z</time>
      </trkpt>
      <trkpt lat="37.6489560" lon="-3.4513220">
        <ele>944.4</ele>
        <time>2020-07-16T08:37:33Z</time>
      </trkpt>
      <trkpt lat="37.6489650" lon="-3.4509820">
        <ele>945.4</ele>
        <time>2020-07-16T08:37:40Z</time>
      </trkpt>
      <trkpt lat="37.6489670" lon="-3.4509330">
        <ele>945.4</ele>
        <time>2020-07-16T08:37:41Z</time>
      </trkpt>
      <trkpt lat="37.6489840" lon="-3.4504510">
        <ele>946.6</ele>
        <time>2020-07-16T08:37:51Z</time>
      </trkpt>
      <trkpt lat="37.6489950" lon="-3.4501090">
        <ele>947.2</ele>
        <time>2020-07-16T08:37:58Z</time>
      </trkpt>
      <trkpt lat="37.6489950" lon="-3.4500080">
        <ele>947.4</ele>
        <time>2020-07-16T08:38:00Z</time>
      </trkpt>
      <trkpt lat="37.6489980" lon="-3.4499110">
        <ele>947.6</ele>
        <time>2020-07-16T08:38:02Z</time>
      </trkpt>
      <trkpt lat="37.6490090" lon="-3.4494680">
        <ele>948.8</ele>
        <time>2020-07-16T08:38:11Z</time>
      </trkpt>
      <trkpt lat="37.6490140" lon="-3.4494140">
        <ele>948.8</ele>
        <time>2020-07-16T08:38:12Z</time>
      </trkpt>
      <trkpt lat="37.6490150" lon="-3.4490680">
        <ele>949.4</ele>
        <time>2020-07-16T08:38:19Z</time>
      </trkpt>
      <trkpt lat="37.6490130" lon="-3.4490160">
        <ele>949.4</ele>
        <time>2020-07-16T08:38:20Z</time>
      </trkpt>
      <trkpt lat="37.6490060" lon="-3.4488730">
        <ele>949.8</ele>
        <time>2020-07-16T08:38:23Z</time>
      </trkpt>
      <trkpt lat="37.6490000" lon="-3.4486820">
        <ele>950.4</ele>
        <time>2020-07-16T08:38:27Z</time>
      </trkpt>
      <trkpt lat="37.6489870" lon="-3.4485340">
        <ele>950.4</ele>
        <time>2020-07-16T08:38:30Z</time>
      </trkpt>
      <trkpt lat="37.6489780" lon="-3.4483970">
        <ele>950.8</ele>
        <time>2020-07-16T08:38:33Z</time>
      </trkpt>
      <trkpt lat="37.6489580" lon="-3.4480700">
        <ele>951.8</ele>
        <time>2020-07-16T08:38:40Z</time>
      </trkpt>
      <trkpt lat="37.6489510" lon="-3.4479440">
        <ele>952.4</ele>
        <time>2020-07-16T08:38:43Z</time>
      </trkpt>
      <trkpt lat="37.6489520" lon="-3.4477810">
        <ele>953.0</ele>
        <time>2020-07-16T08:38:47Z</time>
      </trkpt>
      <trkpt lat="37.6489520" lon="-3.4475750">
        <ele>954.0</ele>
        <time>2020-07-16T08:38:52Z</time>
      </trkpt>
      <trkpt lat="37.6489730" lon="-3.4474100">
        <ele>954.8</ele>
        <time>2020-07-16T08:38:56Z</time>
      </trkpt>
      <trkpt lat="37.6489880" lon="-3.4473280">
        <ele>955.2</ele>
        <time>2020-07-16T08:38:58Z</time>
      </trkpt>
      <trkpt lat="37.6490580" lon="-3.4471300">
        <ele>956.0</ele>
        <time>2020-07-16T08:39:03Z</time>
      </trkpt>
      <trkpt lat="37.6490740" lon="-3.4470980">
        <ele>956.0</ele>
        <time>2020-07-16T08:39:04Z</time>
      </trkpt>
      <trkpt lat="37.6491190" lon="-3.4470220">
        <ele>956.2</ele>
        <time>2020-07-16T08:39:06Z</time>
      </trkpt>
      <trkpt lat="37.6492480" lon="-3.4468690">
        <ele>957.0</ele>
        <time>2020-07-16T08:39:11Z</time>
      </trkpt>
      <trkpt lat="37.6493060" lon="-3.4468220">
        <ele>957.4</ele>
        <time>2020-07-16T08:39:13Z</time>
      </trkpt>
      <trkpt lat="37.6494780" lon="-3.4467320">
        <ele>958.4</ele>
        <time>2020-07-16T08:39:19Z</time>
      </trkpt>
      <trkpt lat="37.6496810" lon="-3.4467060">
        <ele>959.6</ele>
        <time>2020-07-16T08:39:25Z</time>
      </trkpt>
      <trkpt lat="37.6497160" lon="-3.4467090">
        <ele>959.8</ele>
        <time>2020-07-16T08:39:26Z</time>
      </trkpt>
      <trkpt lat="37.6499120" lon="-3.4467710">
        <ele>960.8</ele>
        <time>2020-07-16T08:39:32Z</time>
      </trkpt>
      <trkpt lat="37.6499740" lon="-3.4468050">
        <ele>961.2</ele>
        <time>2020-07-16T08:39:34Z</time>
      </trkpt>
      <trkpt lat="37.6500660" lon="-3.4468620">
        <ele>961.8</ele>
        <time>2020-07-16T08:39:37Z</time>
      </trkpt>
      <trkpt lat="37.6502240" lon="-3.4470120">
        <ele>962.8</ele>
        <time>2020-07-16T08:39:43Z</time>
      </trkpt>
      <trkpt lat="37.6503530" lon="-3.4472030">
        <ele>963.8</ele>
        <time>2020-07-16T08:39:49Z</time>
      </trkpt>
      <trkpt lat="37.6504310" lon="-3.4473430">
        <ele>964.8</ele>
        <time>2020-07-16T08:39:53Z</time>
      </trkpt>
      <trkpt lat="37.6504510" lon="-3.4473770">
        <ele>965.0</ele>
        <time>2020-07-16T08:39:54Z</time>
      </trkpt>
      <trkpt lat="37.6505560" lon="-3.4475960">
        <ele>966.0</ele>
        <time>2020-07-16T08:40:00Z</time>
      </trkpt>
      <trkpt lat="37.6505870" lon="-3.4476730">
        <ele>966.2</ele>
        <time>2020-07-16T08:40:02Z</time>
      </trkpt>
      <trkpt lat="37.6506520" lon="-3.4478670">
        <ele>967.0</ele>
        <time>2020-07-16T08:40:07Z</time>
      </trkpt>
      <trkpt lat="37.6506940" lon="-3.4480280">
        <ele>967.6</ele>
        <time>2020-07-16T08:40:11Z</time>
      </trkpt>
      <trkpt lat="37.6507280" lon="-3.4481910">
        <ele>968.0</ele>
        <time>2020-07-16T08:40:15Z</time>
      </trkpt>
      <trkpt lat="37.6507730" lon="-3.4483920">
        <ele>969.2</ele>
        <time>2020-07-16T08:40:20Z</time>
      </trkpt>
      <trkpt lat="37.6507990" lon="-3.4486410">
        <ele>970.2</ele>
        <time>2020-07-16T08:40:26Z</time>
      </trkpt>
      <trkpt lat="37.6508180" lon="-3.4488160">
        <ele>971.0</ele>
        <time>2020-07-16T08:40:30Z</time>
      </trkpt>
      <trkpt lat="37.6508240" lon="-3.4489020">
        <ele>971.6</ele>
        <time>2020-07-16T08:40:32Z</time>
      </trkpt>
      <trkpt lat="37.6508250" lon="-3.4491960">
        <ele>972.6</ele>
        <time>2020-07-16T08:40:39Z</time>
      </trkpt>
      <trkpt lat="37.6508250" lon="-3.4492400">
        <ele>972.8</ele>
        <time>2020-07-16T08:40:40Z</time>
      </trkpt>
      <trkpt lat="37.6508000" lon="-3.4494920">
        <ele>973.8</ele>
        <time>2020-07-16T08:40:46Z</time>
      </trkpt>
      <trkpt lat="37.6507800" lon="-3.4496580">
        <ele>974.6</ele>
        <time>2020-07-16T08:40:50Z</time>
      </trkpt>
      <trkpt lat="37.6507650" lon="-3.4497420">
        <ele>974.8</ele>
        <time>2020-07-16T08:40:52Z</time>
      </trkpt>
      <trkpt lat="37.6507110" lon="-3.4500720">
        <ele>976.0</ele>
        <time>2020-07-16T08:41:00Z</time>
      </trkpt>
      <trkpt lat="37.6507030" lon="-3.4501120">
        <ele>976.2</ele>
        <time>2020-07-16T08:41:01Z</time>
      </trkpt>
      <trkpt lat="37.6506530" lon="-3.4503180">
        <ele>977.0</ele>
        <time>2020-07-16T08:41:06Z</time>
      </trkpt>
      <trkpt lat="37.6505810" lon="-3.4506060">
        <ele>978.2</ele>
        <time>2020-07-16T08:41:13Z</time>
      </trkpt>
      <trkpt lat="37.6505260" lon="-3.4508580">
        <ele>979.4</ele>
        <time>2020-07-16T08:41:19Z</time>
      </trkpt>
      <trkpt lat="37.6504980" lon="-3.4509870">
        <ele>979.8</ele>
        <time>2020-07-16T08:41:22Z</time>
      </trkpt>
      <trkpt lat="37.6504670" lon="-3.4511630">
        <ele>980.4</ele>
        <time>2020-07-16T08:41:26Z</time>
      </trkpt>
      <trkpt lat="37.6504310" lon="-3.4514280">
        <ele>981.6</ele>
        <time>2020-07-16T08:41:32Z</time>
      </trkpt>
      <trkpt lat="37.6504210" lon="-3.4515140">
        <ele>981.8</ele>
        <time>2020-07-16T08:41:34Z</time>
      </trkpt>
      <trkpt lat="37.6504080" lon="-3.4517270">
        <ele>982.6</ele>
        <time>2020-07-16T08:41:39Z</time>
      </trkpt>
      <trkpt lat="37.6503990" lon="-3.4519580">
        <ele>983.6</ele>
        <time>2020-07-16T08:41:44Z</time>
      </trkpt>
      <trkpt lat="37.6503980" lon="-3.4520060">
        <ele>983.8</ele>
        <time>2020-07-16T08:41:45Z</time>
      </trkpt>
      <trkpt lat="37.6504020" lon="-3.4522890">
        <ele>984.8</ele>
        <time>2020-07-16T08:41:51Z</time>
      </trkpt>
      <trkpt lat="37.6504080" lon="-3.4524520">
        <ele>985.4</ele>
        <time>2020-07-16T08:41:55Z</time>
      </trkpt>
      <trkpt lat="37.6504220" lon="-3.4526170">
        <ele>985.8</ele>
        <time>2020-07-16T08:41:58Z</time>
      </trkpt>
      <trkpt lat="37.6504520" lon="-3.4528540">
        <ele>987.0</ele>
        <time>2020-07-16T08:42:03Z</time>
      </trkpt>
      <trkpt lat="37.6504570" lon="-3.4528920">
        <ele>987.0</ele>
        <time>2020-07-16T08:42:04Z</time>
      </trkpt>
      <trkpt lat="37.6505010" lon="-3.4531810">
        <ele>988.0</ele>
        <time>2020-07-16T08:42:10Z</time>
      </trkpt>
      <trkpt lat="37.6505400" lon="-3.4533560">
        <ele>989.0</ele>
        <time>2020-07-16T08:42:14Z</time>
      </trkpt>
      <trkpt lat="37.6505490" lon="-3.4534000">
        <ele>989.0</ele>
        <time>2020-07-16T08:42:15Z</time>
      </trkpt>
      <trkpt lat="37.6506230" lon="-3.4537090">
        <ele>990.2</ele>
        <time>2020-07-16T08:42:22Z</time>
      </trkpt>
      <trkpt lat="37.6506760" lon="-3.4539290">
        <ele>990.8</ele>
        <time>2020-07-16T08:42:27Z</time>
      </trkpt>
      <trkpt lat="37.6506990" lon="-3.4540170">
        <ele>991.2</ele>
        <time>2020-07-16T08:42:29Z</time>
      </trkpt>
      <trkpt lat="37.6507680" lon="-3.4542830">
        <ele>992.4</ele>
        <time>2020-07-16T08:42:35Z</time>
      </trkpt>
      <trkpt lat="37.6508520" lon="-3.4545430">
        <ele>993.2</ele>
        <time>2020-07-16T08:42:41Z</time>
      </trkpt>
      <trkpt lat="37.6508690" lon="-3.4545850">
        <ele>993.4</ele>
        <time>2020-07-16T08:42:42Z</time>
      </trkpt>
      <trkpt lat="37.6509850" lon="-3.4548140">
        <ele>994.6</ele>
        <time>2020-07-16T08:42:48Z</time>
      </trkpt>
      <trkpt lat="37.6510280" lon="-3.4548820">
        <ele>995.0</ele>
        <time>2020-07-16T08:42:50Z</time>
      </trkpt>
      <trkpt lat="37.6511120" lon="-3.4550120">
        <ele>995.6</ele>
        <time>2020-07-16T08:42:54Z</time>
      </trkpt>
      <trkpt lat="37.6512400" lon="-3.4551740">
        <ele>996.6</ele>
        <time>2020-07-16T08:42:59Z</time>
      </trkpt>
      <trkpt lat="37.6513720" lon="-3.4553210">
        <ele>997.6</ele>
        <time>2020-07-16T08:43:04Z</time>
      </trkpt>
      <trkpt lat="37.6515010" lon="-3.4554580">
        <ele>998.4</ele>
        <time>2020-07-16T08:43:09Z</time>
      </trkpt>
      <trkpt lat="37.6515580" lon="-3.4555130">
        <ele>998.8</ele>
        <time>2020-07-16T08:43:11Z</time>
      </trkpt>
      <trkpt lat="37.6517080" lon="-3.4556760">
        <ele>999.8</ele>
        <time>2020-07-16T08:43:17Z</time>
      </trkpt>
      <trkpt lat="37.6517870" lon="-3.4557590">
        <ele>1000.4</ele>
        <time>2020-07-16T08:43:20Z</time>
      </trkpt>
      <trkpt lat="37.6518430" lon="-3.4558110">
        <ele>1000.8</ele>
        <time>2020-07-16T08:43:22Z</time>
      </trkpt>
      <trkpt lat="37.6520520" lon="-3.4559420">
        <ele>1002.0</ele>
        <time>2020-07-16T08:43:29Z</time>
      </trkpt>
      <trkpt lat="37.6522870" lon="-3.4559750">
        <ele>1003.0</ele>
        <time>2020-07-16T08:43:36Z</time>
      </trkpt>
      <trkpt lat="37.6524800" lon="-3.4559050">
        <ele>1004.0</ele>
        <time>2020-07-16T08:43:42Z</time>
      </trkpt>
      <trkpt lat="37.6525120" lon="-3.4558870">
        <ele>1004.0</ele>
        <time>2020-07-16T08:43:43Z</time>
      </trkpt>
      <trkpt lat="37.6527040" lon="-3.4557070">
        <ele>1005.2</ele>
        <time>2020-07-16T08:43:50Z</time>
      </trkpt>
      <trkpt lat="37.6529380" lon="-3.4553980">
        <ele>1006.2</ele>
        <time>2020-07-16T08:43:59Z</time>
      </trkpt>
      <trkpt lat="37.6529650" lon="-3.4553640">
        <ele>1006.4</ele>
        <time>2020-07-16T08:44:00Z</time>
      </trkpt>
      <trkpt lat="37.6530960" lon="-3.4551910">
        <ele>1007.2</ele>
        <time>2020-07-16T08:44:05Z</time>
      </trkpt>
      <trkpt lat="37.6532300" lon="-3.4550130">
        <ele>1007.8</ele>
        <time>2020-07-16T08:44:10Z</time>
      </trkpt>
      <trkpt lat="37.6533630" lon="-3.4548310">
        <ele>1008.4</ele>
        <time>2020-07-16T08:44:15Z</time>
      </trkpt>
      <trkpt lat="37.6535620" lon="-3.4545720">
        <ele>1009.2</ele>
        <time>2020-07-16T08:44:22Z</time>
      </trkpt>
      <trkpt lat="37.6536200" lon="-3.4544970">
        <ele>1009.4</ele>
        <time>2020-07-16T08:44:24Z</time>
      </trkpt>
      <trkpt lat="37.6538250" lon="-3.4542220">
        <ele>1010.6</ele>
        <time>2020-07-16T08:44:31Z</time>
      </trkpt>
      <trkpt lat="37.6539040" lon="-3.4541120">
        <ele>1010.8</ele>
        <time>2020-07-16T08:44:34Z</time>
      </trkpt>
      <trkpt lat="37.6541420" lon="-3.4537950">
        <ele>1011.4</ele>
        <time>2020-07-16T08:44:42Z</time>
      </trkpt>
      <trkpt lat="37.6541980" lon="-3.4537150">
        <ele>1011.6</ele>
        <time>2020-07-16T08:44:44Z</time>
      </trkpt>
      <trkpt lat="37.6543160" lon="-3.4535600">
        <ele>1012.0</ele>
        <time>2020-07-16T08:44:48Z</time>
      </trkpt>
      <trkpt lat="37.6545470" lon="-3.4532540">
        <ele>1012.4</ele>
        <time>2020-07-16T08:44:56Z</time>
      </trkpt>
      <trkpt lat="37.6548290" lon="-3.4528760">
        <ele>1012.6</ele>
        <time>2020-07-16T08:45:05Z</time>
      </trkpt>
      <trkpt lat="37.6548600" lon="-3.4528330">
        <ele>1012.4</ele>
        <time>2020-07-16T08:45:06Z</time>
      </trkpt>
      <trkpt lat="37.6550510" lon="-3.4525660">
        <ele>1012.6</ele>
        <time>2020-07-16T08:45:12Z</time>
      </trkpt>
      <trkpt lat="37.6552760" lon="-3.4522310">
        <ele>1012.6</ele>
        <time>2020-07-16T08:45:19Z</time>
      </trkpt>
      <trkpt lat="37.6555660" lon="-3.4517360">
        <ele>1012.6</ele>
        <time>2020-07-16T08:45:28Z</time>
      </trkpt>
      <trkpt lat="37.6558570" lon="-3.4511630">
        <ele>1012.4</ele>
        <time>2020-07-16T08:45:37Z</time>
      </trkpt>
      <trkpt lat="37.6559600" lon="-3.4509580">
        <ele>1012.2</ele>
        <time>2020-07-16T08:45:40Z</time>
      </trkpt>
      <trkpt lat="37.6560720" lon="-3.4507450">
        <ele>1012.4</ele>
        <time>2020-07-16T08:45:43Z</time>
      </trkpt>
      <trkpt lat="37.6561980" lon="-3.4505260">
        <ele>1012.2</ele>
        <time>2020-07-16T08:45:46Z</time>
      </trkpt>
      <trkpt lat="37.6563410" lon="-3.4503090">
        <ele>1011.6</ele>
        <time>2020-07-16T08:45:49Z</time>
      </trkpt>
      <trkpt lat="37.6564450" lon="-3.4501670">
        <ele>1011.2</ele>
        <time>2020-07-16T08:45:51Z</time>
      </trkpt>
      <trkpt lat="37.6566220" lon="-3.4499600">
        <ele>1010.6</ele>
        <time>2020-07-16T08:45:54Z</time>
      </trkpt>
      <trkpt lat="37.6566840" lon="-3.4498930">
        <ele>1010.4</ele>
        <time>2020-07-16T08:45:55Z</time>
      </trkpt>
      <trkpt lat="37.6570810" lon="-3.4495400">
        <ele>1009.4</ele>
        <time>2020-07-16T08:46:01Z</time>
      </trkpt>
      <trkpt lat="37.6574730" lon="-3.4492900">
        <ele>1009.0</ele>
        <time>2020-07-16T08:46:07Z</time>
      </trkpt>
      <trkpt lat="37.6578770" lon="-3.4491170">
        <ele>1009.8</ele>
        <time>2020-07-16T08:46:14Z</time>
      </trkpt>
      <trkpt lat="37.6580390" lon="-3.4490690">
        <ele>1010.4</ele>
        <time>2020-07-16T08:46:17Z</time>
      </trkpt>
      <trkpt lat="37.6583070" lon="-3.4490160">
        <ele>1011.2</ele>
        <time>2020-07-16T08:46:22Z</time>
      </trkpt>
      <trkpt lat="37.6583590" lon="-3.4490100">
        <ele>1011.4</ele>
        <time>2020-07-16T08:46:23Z</time>
      </trkpt>
      <trkpt lat="37.6584140" lon="-3.4490030">
        <ele>1011.6</ele>
        <time>2020-07-16T08:46:24Z</time>
      </trkpt>
      <trkpt lat="37.6586220" lon="-3.4489860">
        <ele>1011.8</ele>
        <time>2020-07-16T08:46:28Z</time>
      </trkpt>
      <trkpt lat="37.6587330" lon="-3.4489780">
        <ele>1012.2</ele>
        <time>2020-07-16T08:46:30Z</time>
      </trkpt>
      <trkpt lat="37.6589480" lon="-3.4489670">
        <ele>1012.6</ele>
        <time>2020-07-16T08:46:34Z</time>
      </trkpt>
      <trkpt lat="37.6592780" lon="-3.4489570">
        <ele>1013.4</ele>
        <time>2020-07-16T08:46:40Z</time>
      </trkpt>
      <trkpt lat="37.6593900" lon="-3.4489550">
        <ele>1013.6</ele>
        <time>2020-07-16T08:46:42Z</time>
      </trkpt>
      <trkpt lat="37.6597670" lon="-3.4489380">
        <ele>1014.6</ele>
        <time>2020-07-16T08:46:49Z</time>
      </trkpt>
      <trkpt lat="37.6600270" lon="-3.4489310">
        <ele>1015.6</ele>
        <time>2020-07-16T08:46:54Z</time>
      </trkpt>
      <trkpt lat="37.6601300" lon="-3.4489330">
        <ele>1015.6</ele>
        <time>2020-07-16T08:46:56Z</time>
      </trkpt>
      <trkpt lat="37.6602770" lon="-3.4489360">
        <ele>1015.6</ele>
        <time>2020-07-16T08:46:59Z</time>
      </trkpt>
      <trkpt lat="37.6603830" lon="-3.4489400">
        <ele>1015.8</ele>
        <time>2020-07-16T08:47:01Z</time>
      </trkpt>
      <trkpt lat="37.6607500" lon="-3.4489970">
        <ele>1016.4</ele>
        <time>2020-07-16T08:47:08Z</time>
      </trkpt>
      <trkpt lat="37.6609630" lon="-3.4490570">
        <ele>1016.8</ele>
        <time>2020-07-16T08:47:12Z</time>
      </trkpt>
      <trkpt lat="37.6613330" lon="-3.4492000">
        <ele>1017.0</ele>
        <time>2020-07-16T08:47:19Z</time>
      </trkpt>
      <trkpt lat="37.6615480" lon="-3.4493150">
        <ele>1017.2</ele>
        <time>2020-07-16T08:47:23Z</time>
      </trkpt>
      <trkpt lat="37.6618070" lon="-3.4494930">
        <ele>1017.2</ele>
        <time>2020-07-16T08:47:28Z</time>
      </trkpt>
      <trkpt lat="37.6621080" lon="-3.4497510">
        <ele>1017.4</ele>
        <time>2020-07-16T08:47:34Z</time>
      </trkpt>
      <trkpt lat="37.6622560" lon="-3.4499000">
        <ele>1017.0</ele>
        <time>2020-07-16T08:47:37Z</time>
      </trkpt>
      <trkpt lat="37.6624050" lon="-3.4500510">
        <ele>1017.0</ele>
        <time>2020-07-16T08:47:40Z</time>
      </trkpt>
      <trkpt lat="37.6628100" lon="-3.4504870">
        <ele>1016.4</ele>
        <time>2020-07-16T08:47:48Z</time>
      </trkpt>
      <trkpt lat="37.6630290" lon="-3.4507250">
        <ele>1016.0</ele>
        <time>2020-07-16T08:47:52Z</time>
      </trkpt>
      <trkpt lat="37.6631420" lon="-3.4508450">
        <ele>1015.8</ele>
        <time>2020-07-16T08:47:54Z</time>
      </trkpt>
      <trkpt lat="37.6631980" lon="-3.4509050">
        <ele>1015.8</ele>
        <time>2020-07-16T08:47:55Z</time>
      </trkpt>
      <trkpt lat="37.6636190" lon="-3.4513420">
        <ele>1015.2</ele>
        <time>2020-07-16T08:48:02Z</time>
      </trkpt>
      <trkpt lat="37.6637450" lon="-3.4514750">
        <ele>1015.0</ele>
        <time>2020-07-16T08:48:04Z</time>
      </trkpt>
      <trkpt lat="37.6639410" lon="-3.4516820">
        <ele>1014.6</ele>
        <time>2020-07-16T08:48:07Z</time>
      </trkpt>
      <trkpt lat="37.6644070" lon="-3.4521830">
        <ele>1013.6</ele>
        <time>2020-07-16T08:48:14Z</time>
      </trkpt>
      <trkpt lat="37.6648290" lon="-3.4526880">
        <ele>1012.4</ele>
        <time>2020-07-16T08:48:20Z</time>
      </trkpt>
      <trkpt lat="37.6648990" lon="-3.4527760">
        <ele>1012.2</ele>
        <time>2020-07-16T08:48:21Z</time>
      </trkpt>
      <trkpt lat="37.6651160" lon="-3.4530570">
        <ele>1011.0</ele>
        <time>2020-07-16T08:48:24Z</time>
      </trkpt>
      <trkpt lat="37.6652660" lon="-3.4532560">
        <ele>1009.8</ele>
        <time>2020-07-16T08:48:26Z</time>
      </trkpt>
      <trkpt lat="37.6653990" lon="-3.4534460">
        <ele>1009.0</ele>
        <time>2020-07-16T08:48:28Z</time>
      </trkpt>
      <trkpt lat="37.6655160" lon="-3.4536690">
        <ele>1008.8</ele>
        <time>2020-07-16T08:48:30Z</time>
      </trkpt>
      <trkpt lat="37.6655990" lon="-3.4538900">
        <ele>1009.0</ele>
        <time>2020-07-16T08:48:32Z</time>
      </trkpt>
      <trkpt lat="37.6657250" lon="-3.4544120">
        <ele>1009.8</ele>
        <time>2020-07-16T08:48:37Z</time>
      </trkpt>
      <trkpt lat="37.6657450" lon="-3.4545090">
        <ele>1010.2</ele>
        <time>2020-07-16T08:48:38Z</time>
      </trkpt>
      <trkpt lat="37.6657890" lon="-3.4546940">
        <ele>1010.4</ele>
        <time>2020-07-16T08:48:40Z</time>
      </trkpt>
      <trkpt lat="37.6658700" lon="-3.4549480">
        <ele>1011.2</ele>
        <time>2020-07-16T08:48:43Z</time>
      </trkpt>
      <trkpt lat="37.6659010" lon="-3.4550230">
        <ele>1011.2</ele>
        <time>2020-07-16T08:48:44Z</time>
      </trkpt>
      <trkpt lat="37.6659710" lon="-3.4551620">
        <ele>1012.0</ele>
        <time>2020-07-16T08:48:46Z</time>
      </trkpt>
      <trkpt lat="37.6660100" lon="-3.4552270">
        <ele>1012.4</ele>
        <time>2020-07-16T08:48:47Z</time>
      </trkpt>
      <trkpt lat="37.6661320" lon="-3.4554050">
        <ele>1013.2</ele>
        <time>2020-07-16T08:48:50Z</time>
      </trkpt>
      <trkpt lat="37.6661720" lon="-3.4554620">
        <ele>1013.6</ele>
        <time>2020-07-16T08:48:51Z</time>
      </trkpt>
      <trkpt lat="37.6663190" lon="-3.4556790">
        <ele>1014.8</ele>
        <time>2020-07-16T08:48:55Z</time>
      </trkpt>
      <trkpt lat="37.6664050" lon="-3.4558020">
        <ele>1015.2</ele>
        <time>2020-07-16T08:48:58Z</time>
      </trkpt>
      <trkpt lat="37.6665770" lon="-3.4560680">
        <ele>1015.8</ele>
        <time>2020-07-16T08:49:03Z</time>
      </trkpt>
      <trkpt lat="37.6666690" lon="-3.4561970">
        <ele>1016.6</ele>
        <time>2020-07-16T08:49:06Z</time>
      </trkpt>
      <trkpt lat="37.6667000" lon="-3.4562390">
        <ele>1016.8</ele>
        <time>2020-07-16T08:49:07Z</time>
      </trkpt>
      <trkpt lat="37.6669240" lon="-3.4565070">
        <ele>1018.0</ele>
        <time>2020-07-16T08:49:14Z</time>
      </trkpt>
      <trkpt lat="37.6670010" lon="-3.4565770">
        <ele>1018.4</ele>
        <time>2020-07-16T08:49:16Z</time>
      </trkpt>
      <trkpt lat="37.6671570" lon="-3.4566710">
        <ele>1019.0</ele>
        <time>2020-07-16T08:49:20Z</time>
      </trkpt>
      <trkpt lat="37.6671960" lon="-3.4566900">
        <ele>1019.2</ele>
        <time>2020-07-16T08:49:21Z</time>
      </trkpt>
      <trkpt lat="37.6672750" lon="-3.4567200">
        <ele>1019.6</ele>
        <time>2020-07-16T08:49:23Z</time>
      </trkpt>
      <trkpt lat="37.6673160" lon="-3.4567260">
        <ele>1019.6</ele>
        <time>2020-07-16T08:49:24Z</time>
      </trkpt>
      <trkpt lat="37.6673970" lon="-3.4567400">
        <ele>1020.2</ele>
        <time>2020-07-16T08:49:26Z</time>
      </trkpt>
      <trkpt lat="37.6675050" lon="-3.4567420">
        <ele>1020.8</ele>
        <time>2020-07-16T08:49:29Z</time>
      </trkpt>
      <trkpt lat="37.6675400" lon="-3.4567360">
        <ele>1021.2</ele>
        <time>2020-07-16T08:49:30Z</time>
      </trkpt>
      <trkpt lat="37.6676930" lon="-3.4567020">
        <ele>1022.4</ele>
        <time>2020-07-16T08:49:35Z</time>
      </trkpt>
      <trkpt lat="37.6677220" lon="-3.4566910">
        <ele>1022.6</ele>
        <time>2020-07-16T08:49:36Z</time>
      </trkpt>
      <trkpt lat="37.6678350" lon="-3.4566430">
        <ele>1023.4</ele>
        <time>2020-07-16T08:49:40Z</time>
      </trkpt>
      <trkpt lat="37.6679560" lon="-3.4565550">
        <ele>1024.6</ele>
        <time>2020-07-16T08:49:45Z</time>
      </trkpt>
      <trkpt lat="37.6679860" lon="-3.4565300">
        <ele>1024.8</ele>
        <time>2020-07-16T08:49:46Z</time>
      </trkpt>
      <trkpt lat="37.6680740" lon="-3.4564380">
        <ele>1025.8</ele>
        <time>2020-07-16T08:49:50Z</time>
      </trkpt>
      <trkpt lat="37.6681330" lon="-3.4563650">
        <ele>1026.4</ele>
        <time>2020-07-16T08:49:53Z</time>
      </trkpt>
      <trkpt lat="37.6681790" lon="-3.4562820">
        <ele>1027.0</ele>
        <time>2020-07-16T08:49:56Z</time>
      </trkpt>
      <trkpt lat="37.6682480" lon="-3.4561360">
        <ele>1028.2</ele>
        <time>2020-07-16T08:50:01Z</time>
      </trkpt>
      <trkpt lat="37.6682800" lon="-3.4560470">
        <ele>1028.8</ele>
        <time>2020-07-16T08:50:04Z</time>
      </trkpt>
      <trkpt lat="37.6682970" lon="-3.4559870">
        <ele>1029.2</ele>
        <time>2020-07-16T08:50:06Z</time>
      </trkpt>
      <trkpt lat="37.6683290" lon="-3.4558320">
        <ele>1030.4</ele>
        <time>2020-07-16T08:50:11Z</time>
      </trkpt>
      <trkpt lat="37.6683450" lon="-3.4557110">
        <ele>1031.4</ele>
        <time>2020-07-16T08:50:15Z</time>
      </trkpt>
      <trkpt lat="37.6683480" lon="-3.4555540">
        <ele>1032.6</ele>
        <time>2020-07-16T08:50:20Z</time>
      </trkpt>
      <trkpt lat="37.6683450" lon="-3.4554300">
        <ele>1033.4</ele>
        <time>2020-07-16T08:50:24Z</time>
      </trkpt>
      <trkpt lat="37.6683450" lon="-3.4554020">
        <ele>1033.6</ele>
        <time>2020-07-16T08:50:25Z</time>
      </trkpt>
      <trkpt lat="37.6683470" lon="-3.4551940">
        <ele>1034.8</ele>
        <time>2020-07-16T08:50:32Z</time>
      </trkpt>
      <trkpt lat="37.6683490" lon="-3.4551670">
        <ele>1035.0</ele>
        <time>2020-07-16T08:50:33Z</time>
      </trkpt>
      <trkpt lat="37.6683410" lon="-3.4550420">
        <ele>1036.2</ele>
        <time>2020-07-16T08:50:37Z</time>
      </trkpt>
      <trkpt lat="37.6683350" lon="-3.4548850">
        <ele>1036.8</ele>
        <time>2020-07-16T08:50:42Z</time>
      </trkpt>
      <trkpt lat="37.6683350" lon="-3.4548220">
        <ele>1037.4</ele>
        <time>2020-07-16T08:50:44Z</time>
      </trkpt>
      <trkpt lat="37.6683260" lon="-3.4546710">
        <ele>1038.4</ele>
        <time>2020-07-16T08:50:49Z</time>
      </trkpt>
      <trkpt lat="37.6683260" lon="-3.4546380">
        <ele>1038.6</ele>
        <time>2020-07-16T08:50:50Z</time>
      </trkpt>
      <trkpt lat="37.6683250" lon="-3.4544800">
        <ele>1039.4</ele>
        <time>2020-07-16T08:50:55Z</time>
      </trkpt>
      <trkpt lat="37.6683180" lon="-3.4542560">
        <ele>1040.4</ele>
        <time>2020-07-16T08:51:02Z</time>
      </trkpt>
      <trkpt lat="37.6683160" lon="-3.4540930">
        <ele>1041.6</ele>
        <time>2020-07-16T08:51:07Z</time>
      </trkpt>
      <trkpt lat="37.6683120" lon="-3.4539260">
        <ele>1042.6</ele>
        <time>2020-07-16T08:51:12Z</time>
      </trkpt>
      <trkpt lat="37.6683100" lon="-3.4537280">
        <ele>1043.6</ele>
        <time>2020-07-16T08:51:18Z</time>
      </trkpt>
      <trkpt lat="37.6683120" lon="-3.4534940">
        <ele>1044.4</ele>
        <time>2020-07-16T08:51:25Z</time>
      </trkpt>
      <trkpt lat="37.6683090" lon="-3.4534260">
        <ele>1044.6</ele>
        <time>2020-07-16T08:51:27Z</time>
      </trkpt>
      <trkpt lat="37.6683110" lon="-3.4532880">
        <ele>1045.8</ele>
        <time>2020-07-16T08:51:31Z</time>
      </trkpt>
      <trkpt lat="37.6683060" lon="-3.4531150">
        <ele>1046.8</ele>
        <time>2020-07-16T08:51:36Z</time>
      </trkpt>
      <trkpt lat="37.6683010" lon="-3.4527940">
        <ele>1047.8</ele>
        <time>2020-07-16T08:51:45Z</time>
      </trkpt>
      <trkpt lat="37.6683020" lon="-3.4527170">
        <ele>1047.8</ele>
        <time>2020-07-16T08:51:47Z</time>
      </trkpt>
      <trkpt lat="37.6682980" lon="-3.4524860">
        <ele>1048.8</ele>
        <time>2020-07-16T08:51:53Z</time>
      </trkpt>
      <trkpt lat="37.6682980" lon="-3.4524030">
        <ele>1049.2</ele>
        <time>2020-07-16T08:51:55Z</time>
      </trkpt>
      <trkpt lat="37.6682960" lon="-3.4521130">
        <ele>1049.8</ele>
        <time>2020-07-16T08:52:02Z</time>
      </trkpt>
      <trkpt lat="37.6682970" lon="-3.4519770">
        <ele>1050.0</ele>
        <time>2020-07-16T08:52:05Z</time>
      </trkpt>
      <trkpt lat="37.6682910" lon="-3.4516100">
        <ele>1050.8</ele>
        <time>2020-07-16T08:52:13Z</time>
      </trkpt>
      <trkpt lat="37.6682900" lon="-3.4514230">
        <ele>1051.4</ele>
        <time>2020-07-16T08:52:17Z</time>
      </trkpt>
      <trkpt lat="37.6683100" lon="-3.4511040">
        <ele>1052.0</ele>
        <time>2020-07-16T08:52:24Z</time>
      </trkpt>
      <trkpt lat="37.6683260" lon="-3.4510140">
        <ele>1052.4</ele>
        <time>2020-07-16T08:52:26Z</time>
      </trkpt>
      <trkpt lat="37.6683770" lon="-3.4508420">
        <ele>1053.0</ele>
        <time>2020-07-16T08:52:30Z</time>
      </trkpt>
      <trkpt lat="37.6684520" lon="-3.4506800">
        <ele>1053.6</ele>
        <time>2020-07-16T08:52:34Z</time>
      </trkpt>
      <trkpt lat="37.6685910" lon="-3.4505150">
        <ele>1054.2</ele>
        <time>2020-07-16T08:52:39Z</time>
      </trkpt>
      <trkpt lat="37.6686570" lon="-3.4504590">
        <ele>1054.4</ele>
        <time>2020-07-16T08:52:41Z</time>
      </trkpt>
      <trkpt lat="37.6688860" lon="-3.4503700">
        <ele>1055.2</ele>
        <time>2020-07-16T08:52:47Z</time>
      </trkpt>
      <trkpt lat="37.6691580" lon="-3.4503770">
        <ele>1056.0</ele>
        <time>2020-07-16T08:52:54Z</time>
      </trkpt>
      <trkpt lat="37.6692360" lon="-3.4504010">
        <ele>1056.2</ele>
        <time>2020-07-16T08:52:56Z</time>
      </trkpt>
      <trkpt lat="37.6693790" lon="-3.4504900">
        <ele>1057.0</ele>
        <time>2020-07-16T08:53:00Z</time>
      </trkpt>
      <trkpt lat="37.6694440" lon="-3.4505490">
        <ele>1057.2</ele>
        <time>2020-07-16T08:53:02Z</time>
      </trkpt>
      <trkpt lat="37.6695820" lon="-3.4507200">
        <ele>1058.0</ele>
        <time>2020-07-16T08:53:07Z</time>
      </trkpt>
      <trkpt lat="37.6696380" lon="-3.4508340">
        <ele>1058.6</ele>
        <time>2020-07-16T08:53:10Z</time>
      </trkpt>
      <trkpt lat="37.6696860" lon="-3.4510020">
        <ele>1059.0</ele>
        <time>2020-07-16T08:53:14Z</time>
      </trkpt>
      <trkpt lat="37.6697060" lon="-3.4511350">
        <ele>1059.8</ele>
        <time>2020-07-16T08:53:17Z</time>
      </trkpt>
      <trkpt lat="37.6697190" lon="-3.4513590">
        <ele>1060.6</ele>
        <time>2020-07-16T08:53:22Z</time>
      </trkpt>
      <trkpt lat="37.6697210" lon="-3.4514010">
        <ele>1060.8</ele>
        <time>2020-07-16T08:53:23Z</time>
      </trkpt>
      <trkpt lat="37.6697280" lon="-3.4516150">
        <ele>1062.0</ele>
        <time>2020-07-16T08:53:28Z</time>
      </trkpt>
      <trkpt lat="37.6697270" lon="-3.4517820">
        <ele>1062.6</ele>
        <time>2020-07-16T08:53:32Z</time>
      </trkpt>
      <trkpt lat="37.6697250" lon="-3.4518990">
        <ele>1063.0</ele>
        <time>2020-07-16T08:53:35Z</time>
      </trkpt>
      <trkpt lat="37.6697230" lon="-3.4521630">
        <ele>1064.0</ele>
        <time>2020-07-16T08:53:42Z</time>
      </trkpt>
      <trkpt lat="37.6697200" lon="-3.4522360">
        <ele>1064.4</ele>
        <time>2020-07-16T08:53:44Z</time>
      </trkpt>
      <trkpt lat="37.6697200" lon="-3.4523430">
        <ele>1065.0</ele>
        <time>2020-07-16T08:53:47Z</time>
      </trkpt>
      <trkpt lat="37.6697170" lon="-3.4525540">
        <ele>1066.2</ele>
        <time>2020-07-16T08:53:53Z</time>
      </trkpt>
      <trkpt lat="37.6697180" lon="-3.4525910">
        <ele>1066.4</ele>
        <time>2020-07-16T08:53:54Z</time>
      </trkpt>
      <trkpt lat="37.6697210" lon="-3.4527670">
        <ele>1067.2</ele>
        <time>2020-07-16T08:53:59Z</time>
      </trkpt>
      <trkpt lat="37.6697260" lon="-3.4528720">
        <ele>1067.8</ele>
        <time>2020-07-16T08:54:02Z</time>
      </trkpt>
      <trkpt lat="37.6697350" lon="-3.4529410">
        <ele>1068.4</ele>
        <time>2020-07-16T08:54:04Z</time>
      </trkpt>
      <trkpt lat="37.6697580" lon="-3.4531230">
        <ele>1069.4</ele>
        <time>2020-07-16T08:54:09Z</time>
      </trkpt>
      <trkpt lat="37.6697720" lon="-3.4531970">
        <ele>1069.8</ele>
        <time>2020-07-16T08:54:11Z</time>
      </trkpt>
      <trkpt lat="37.6697970" lon="-3.4533000">
        <ele>1070.4</ele>
        <time>2020-07-16T08:54:14Z</time>
      </trkpt>
      <trkpt lat="37.6698530" lon="-3.4535010">
        <ele>1071.6</ele>
        <time>2020-07-16T08:54:20Z</time>
      </trkpt>
      <trkpt lat="37.6698750" lon="-3.4535640">
        <ele>1072.0</ele>
        <time>2020-07-16T08:54:22Z</time>
      </trkpt>
      <trkpt lat="37.6699060" lon="-3.4536520">
        <ele>1072.6</ele>
        <time>2020-07-16T08:54:25Z</time>
      </trkpt>
      <trkpt lat="37.6699380" lon="-3.4537370">
        <ele>1073.4</ele>
        <time>2020-07-16T08:54:28Z</time>
      </trkpt>
      <trkpt lat="37.6699610" lon="-3.4537970">
        <ele>1073.6</ele>
        <time>2020-07-16T08:54:30Z</time>
      </trkpt>
      <trkpt lat="37.6699720" lon="-3.4538250">
        <ele>1074.0</ele>
        <time>2020-07-16T08:54:31Z</time>
      </trkpt>
      <trkpt lat="37.6700330" lon="-3.4539560">
        <ele>1074.8</ele>
        <time>2020-07-16T08:54:36Z</time>
      </trkpt>
      <trkpt lat="37.6700910" lon="-3.4540910">
        <ele>1075.8</ele>
        <time>2020-07-16T08:54:41Z</time>
      </trkpt>
      <trkpt lat="37.6701030" lon="-3.4541180">
        <ele>1076.0</ele>
        <time>2020-07-16T08:54:42Z</time>
      </trkpt>
      <trkpt lat="37.6701360" lon="-3.4541960">
        <ele>1077.0</ele>
        <time>2020-07-16T08:54:45Z</time>
      </trkpt>
      <trkpt lat="37.6702060" lon="-3.4543440">
        <ele>1078.2</ele>
        <time>2020-07-16T08:54:50Z</time>
      </trkpt>
      <trkpt lat="37.6702740" lon="-3.4544840">
        <ele>1079.2</ele>
        <time>2020-07-16T08:54:55Z</time>
      </trkpt>
      <trkpt lat="37.6703460" lon="-3.4546530">
        <ele>1080.2</ele>
        <time>2020-07-16T08:55:01Z</time>
      </trkpt>
      <trkpt lat="37.6703600" lon="-3.4546790">
        <ele>1080.4</ele>
        <time>2020-07-16T08:55:02Z</time>
      </trkpt>
      <trkpt lat="37.6704110" lon="-3.4547880">
        <ele>1081.2</ele>
        <time>2020-07-16T08:55:06Z</time>
      </trkpt>
      <trkpt lat="37.6704720" lon="-3.4549240">
        <ele>1082.4</ele>
        <time>2020-07-16T08:55:11Z</time>
      </trkpt>
      <trkpt lat="37.6704950" lon="-3.4549780">
        <ele>1083.0</ele>
        <time>2020-07-16T08:55:13Z</time>
      </trkpt>
      <trkpt lat="37.6705370" lon="-3.4550610">
        <ele>1083.6</ele>
        <time>2020-07-16T08:55:16Z</time>
      </trkpt>
      <trkpt lat="37.6706150" lon="-3.4552270">
        <ele>1084.8</ele>
        <time>2020-07-16T08:55:22Z</time>
      </trkpt>
      <trkpt lat="37.6706390" lon="-3.4552830">
        <ele>1085.0</ele>
        <time>2020-07-16T08:55:24Z</time>
      </trkpt>
      <trkpt lat="37.6706900" lon="-3.4553890">
        <ele>1085.8</ele>
        <time>2020-07-16T08:55:28Z</time>
      </trkpt>
      <trkpt lat="37.6707560" lon="-3.4555320">
        <ele>1087.0</ele>
        <time>2020-07-16T08:55:33Z</time>
      </trkpt>
      <trkpt lat="37.6707870" lon="-3.4555980">
        <ele>1087.4</ele>
        <time>2020-07-16T08:55:35Z</time>
      </trkpt>
      <trkpt lat="37.6708250" lon="-3.4556840">
        <ele>1088.0</ele>
        <time>2020-07-16T08:55:38Z</time>
      </trkpt>
      <trkpt lat="37.6708980" lon="-3.4558260">
        <ele>1088.8</ele>
        <time>2020-07-16T08:55:43Z</time>
      </trkpt>
      <trkpt lat="37.6709130" lon="-3.4558530">
        <ele>1089.0</ele>
        <time>2020-07-16T08:55:44Z</time>
      </trkpt>
      <trkpt lat="37.6709980" lon="-3.4560370">
        <ele>1090.0</ele>
        <time>2020-07-16T08:55:50Z</time>
      </trkpt>
      <trkpt lat="37.6710540" lon="-3.4561600">
        <ele>1090.6</ele>
        <time>2020-07-16T08:55:54Z</time>
      </trkpt>
      <trkpt lat="37.6710980" lon="-3.4562550">
        <ele>1091.0</ele>
        <time>2020-07-16T08:55:57Z</time>
      </trkpt>
      <trkpt lat="37.6711920" lon="-3.4564500">
        <ele>1092.2</ele>
        <time>2020-07-16T08:56:03Z</time>
      </trkpt>
      <trkpt lat="37.6712070" lon="-3.4564830">
        <ele>1092.4</ele>
        <time>2020-07-16T08:56:04Z</time>
      </trkpt>
      <trkpt lat="37.6713010" lon="-3.4567000">
        <ele>1093.2</ele>
        <time>2020-07-16T08:56:10Z</time>
      </trkpt>
      <trkpt lat="37.6713690" lon="-3.4568430">
        <ele>1093.8</ele>
        <time>2020-07-16T08:56:14Z</time>
      </trkpt>
      <trkpt lat="37.6714200" lon="-3.4569510">
        <ele>1094.4</ele>
        <time>2020-07-16T08:56:17Z</time>
      </trkpt>
      <trkpt lat="37.6715380" lon="-3.4571930">
        <ele>1095.2</ele>
        <time>2020-07-16T08:56:24Z</time>
      </trkpt>
      <trkpt lat="37.6715700" lon="-3.4572640">
        <ele>1095.6</ele>
        <time>2020-07-16T08:56:26Z</time>
      </trkpt>
      <trkpt lat="37.6716370" lon="-3.4573970">
        <ele>1096.0</ele>
        <time>2020-07-16T08:56:30Z</time>
      </trkpt>
      <trkpt lat="37.6716850" lon="-3.4574960">
        <ele>1096.6</ele>
        <time>2020-07-16T08:56:33Z</time>
      </trkpt>
      <trkpt lat="37.6717330" lon="-3.4576050">
        <ele>1097.0</ele>
        <time>2020-07-16T08:56:36Z</time>
      </trkpt>
      <trkpt lat="37.6718090" lon="-3.4577790">
        <ele>1097.8</ele>
        <time>2020-07-16T08:56:41Z</time>
      </trkpt>
      <trkpt lat="37.6719160" lon="-3.4580270">
        <ele>1098.6</ele>
        <time>2020-07-16T08:56:48Z</time>
      </trkpt>
      <trkpt lat="37.6719330" lon="-3.4580650">
        <ele>1098.8</ele>
        <time>2020-07-16T08:56:49Z</time>
      </trkpt>
      <trkpt lat="37.6720640" lon="-3.4583930">
        <ele>1100.0</ele>
        <time>2020-07-16T08:56:58Z</time>
      </trkpt>
      <trkpt lat="37.6720820" lon="-3.4584370">
        <ele>1100.0</ele>
        <time>2020-07-16T08:56:59Z</time>
      </trkpt>
      <trkpt lat="37.6721470" lon="-3.4586310">
        <ele>1101.2</ele>
        <time>2020-07-16T08:57:04Z</time>
      </trkpt>
      <trkpt lat="37.6722310" lon="-3.4589160">
        <ele>1102.2</ele>
        <time>2020-07-16T08:57:11Z</time>
      </trkpt>
      <trkpt lat="37.6722420" lon="-3.4589560">
        <ele>1102.2</ele>
        <time>2020-07-16T08:57:12Z</time>
      </trkpt>
      <trkpt lat="37.6723170" lon="-3.4592360">
        <ele>1103.4</ele>
        <time>2020-07-16T08:57:19Z</time>
      </trkpt>
      <trkpt lat="37.6723480" lon="-3.4593900">
        <ele>1104.0</ele>
        <time>2020-07-16T08:57:23Z</time>
      </trkpt>
      <trkpt lat="37.6723600" lon="-3.4594720">
        <ele>1104.4</ele>
        <time>2020-07-16T08:57:25Z</time>
      </trkpt>
      <trkpt lat="37.6724000" lon="-3.4597030">
        <ele>1105.4</ele>
        <time>2020-07-16T08:57:31Z</time>
      </trkpt>
      <trkpt lat="37.6724050" lon="-3.4597420">
        <ele>1105.6</ele>
        <time>2020-07-16T08:57:32Z</time>
      </trkpt>
      <trkpt lat="37.6724380" lon="-3.4599690">
        <ele>1106.6</ele>
        <time>2020-07-16T08:57:38Z</time>
      </trkpt>
      <trkpt lat="37.6724530" lon="-3.4600940">
        <ele>1107.2</ele>
        <time>2020-07-16T08:57:41Z</time>
      </trkpt>
      <trkpt lat="37.6724660" lon="-3.4602170">
        <ele>1107.6</ele>
        <time>2020-07-16T08:57:44Z</time>
      </trkpt>
      <trkpt lat="37.6724770" lon="-3.4603410">
        <ele>1108.2</ele>
        <time>2020-07-16T08:57:47Z</time>
      </trkpt>
      <trkpt lat="37.6724820" lon="-3.4604250">
        <ele>1108.6</ele>
        <time>2020-07-16T08:57:49Z</time>
      </trkpt>
      <trkpt lat="37.6724900" lon="-3.4605120">
        <ele>1109.2</ele>
        <time>2020-07-16T08:57:51Z</time>
      </trkpt>
      <trkpt lat="37.6725000" lon="-3.4606390">
        <ele>1109.8</ele>
        <time>2020-07-16T08:57:54Z</time>
      </trkpt>
      <trkpt lat="37.6725170" lon="-3.4608280">
        <ele>1110.8</ele>
        <time>2020-07-16T08:57:59Z</time>
      </trkpt>
      <trkpt lat="37.6725320" lon="-3.4610480">
        <ele>1111.8</ele>
        <time>2020-07-16T08:58:05Z</time>
      </trkpt>
      <trkpt lat="37.6725460" lon="-3.4612610">
        <ele>1113.0</ele>
        <time>2020-07-16T08:58:11Z</time>
      </trkpt>
      <trkpt lat="37.6725480" lon="-3.4612960">
        <ele>1113.2</ele>
        <time>2020-07-16T08:58:12Z</time>
      </trkpt>
      <trkpt lat="37.6725640" lon="-3.4614710">
        <ele>1114.2</ele>
        <time>2020-07-16T08:58:17Z</time>
      </trkpt>
      <trkpt lat="37.6725740" lon="-3.4616150">
        <ele>1114.8</ele>
        <time>2020-07-16T08:58:21Z</time>
      </trkpt>
      <trkpt lat="37.6725810" lon="-3.4616830">
        <ele>1115.2</ele>
        <time>2020-07-16T08:58:23Z</time>
      </trkpt>
      <trkpt lat="37.6725970" lon="-3.4619020">
        <ele>1116.4</ele>
        <time>2020-07-16T08:58:29Z</time>
      </trkpt>
      <trkpt lat="37.6726000" lon="-3.4619370">
        <ele>1116.6</ele>
        <time>2020-07-16T08:58:30Z</time>
      </trkpt>
      <trkpt lat="37.6726130" lon="-3.4621200">
        <ele>1117.6</ele>
        <time>2020-07-16T08:58:35Z</time>
      </trkpt>
      <trkpt lat="37.6726270" lon="-3.4623360">
        <ele>1118.8</ele>
        <time>2020-07-16T08:58:41Z</time>
      </trkpt>
      <trkpt lat="37.6726300" lon="-3.4623720">
        <ele>1118.8</ele>
        <time>2020-07-16T08:58:42Z</time>
      </trkpt>
      <trkpt lat="37.6726470" lon="-3.4625840">
        <ele>1119.8</ele>
        <time>2020-07-16T08:58:48Z</time>
      </trkpt>
      <trkpt lat="37.6726580" lon="-3.4627250">
        <ele>1120.4</ele>
        <time>2020-07-16T08:58:52Z</time>
      </trkpt>
      <trkpt lat="37.6726600" lon="-3.4627980">
        <ele>1121.0</ele>
        <time>2020-07-16T08:58:54Z</time>
      </trkpt>
      <trkpt lat="37.6726760" lon="-3.4630070">
        <ele>1122.2</ele>
        <time>2020-07-16T08:59:00Z</time>
      </trkpt>
      <trkpt lat="37.6726780" lon="-3.4630420">
        <ele>1122.4</ele>
        <time>2020-07-16T08:59:01Z</time>
      </trkpt>
      <trkpt lat="37.6726890" lon="-3.4632560">
        <ele>1123.4</ele>
        <time>2020-07-16T08:59:07Z</time>
      </trkpt>
      <trkpt lat="37.6727040" lon="-3.4634760">
        <ele>1124.4</ele>
        <time>2020-07-16T08:59:13Z</time>
      </trkpt>
      <trkpt lat="37.6727250" lon="-3.4637810">
        <ele>1125.6</ele>
        <time>2020-07-16T08:59:21Z</time>
      </trkpt>
      <trkpt lat="37.6727340" lon="-3.4638980">
        <ele>1126.0</ele>
        <time>2020-07-16T08:59:24Z</time>
      </trkpt>
      <trkpt lat="37.6727470" lon="-3.4640490">
        <ele>1126.6</ele>
        <time>2020-07-16T08:59:28Z</time>
      </trkpt>
      <trkpt lat="37.6727640" lon="-3.4642900">
        <ele>1127.4</ele>
        <time>2020-07-16T08:59:34Z</time>
      </trkpt>
      <trkpt lat="37.6727680" lon="-3.4643350">
        <ele>1127.6</ele>
        <time>2020-07-16T08:59:35Z</time>
      </trkpt>
      <trkpt lat="37.6727940" lon="-3.4646960">
        <ele>1128.8</ele>
        <time>2020-07-16T08:59:44Z</time>
      </trkpt>
      <trkpt lat="37.6728000" lon="-3.4647730">
        <ele>1129.0</ele>
        <time>2020-07-16T08:59:46Z</time>
      </trkpt>
      <trkpt lat="37.6728270" lon="-3.4651170">
        <ele>1129.8</ele>
        <time>2020-07-16T08:59:54Z</time>
      </trkpt>
      <trkpt lat="37.6728460" lon="-3.4653810">
        <ele>1130.8</ele>
        <time>2020-07-16T09:00:00Z</time>
      </trkpt>
      <trkpt lat="37.6728510" lon="-3.4654690">
        <ele>1130.8</ele>
        <time>2020-07-16T09:00:02Z</time>
      </trkpt>
      <trkpt lat="37.6728720" lon="-3.4657240">
        <ele>1131.8</ele>
        <time>2020-07-16T09:00:08Z</time>
      </trkpt>
      <trkpt lat="37.6728980" lon="-3.4659800">
        <ele>1132.6</ele>
        <time>2020-07-16T09:00:14Z</time>
      </trkpt>
      <trkpt lat="37.6729070" lon="-3.4660600">
        <ele>1133.0</ele>
        <time>2020-07-16T09:00:16Z</time>
      </trkpt>
      <trkpt lat="37.6729410" lon="-3.4663060">
        <ele>1134.0</ele>
        <time>2020-07-16T09:00:22Z</time>
      </trkpt>
      <trkpt lat="37.6729820" lon="-3.4665160">
        <ele>1134.8</ele>
        <time>2020-07-16T09:00:27Z</time>
      </trkpt>
      <trkpt lat="37.6729900" lon="-3.4665490">
        <ele>1135.0</ele>
        <time>2020-07-16T09:00:28Z</time>
      </trkpt>
      <trkpt lat="37.6730260" lon="-3.4666750">
        <ele>1135.6</ele>
        <time>2020-07-16T09:00:31Z</time>
      </trkpt>
      <trkpt lat="37.6730630" lon="-3.4667890">
        <ele>1136.2</ele>
        <time>2020-07-16T09:00:34Z</time>
      </trkpt>
      <trkpt lat="37.6731340" lon="-3.4670170">
        <ele>1137.4</ele>
        <time>2020-07-16T09:00:40Z</time>
      </trkpt>
      <trkpt lat="37.6731920" lon="-3.4672130">
        <ele>1138.6</ele>
        <time>2020-07-16T09:00:45Z</time>
      </trkpt>
      <trkpt lat="37.6732360" lon="-3.4673640">
        <ele>1139.4</ele>
        <time>2020-07-16T09:00:49Z</time>
      </trkpt>
      <trkpt lat="37.6732460" lon="-3.4674010">
        <ele>1139.6</ele>
        <time>2020-07-16T09:00:50Z</time>
      </trkpt>
      <trkpt lat="37.6733350" lon="-3.4676270">
        <ele>1140.6</ele>
        <time>2020-07-16T09:00:56Z</time>
      </trkpt>
      <trkpt lat="37.6733520" lon="-3.4676620">
        <ele>1140.8</ele>
        <time>2020-07-16T09:00:57Z</time>
      </trkpt>
      <trkpt lat="37.6734190" lon="-3.4678020">
        <ele>1141.8</ele>
        <time>2020-07-16T09:01:01Z</time>
      </trkpt>
      <trkpt lat="37.6735160" lon="-3.4679810">
        <ele>1142.8</ele>
        <time>2020-07-16T09:01:06Z</time>
      </trkpt>
      <trkpt lat="37.6735370" lon="-3.4680170">
        <ele>1142.8</ele>
        <time>2020-07-16T09:01:07Z</time>
      </trkpt>
      <trkpt lat="37.6737130" lon="-3.4682850">
        <ele>1143.6</ele>
        <time>2020-07-16T09:01:15Z</time>
      </trkpt>
      <trkpt lat="37.6737530" lon="-3.4683410">
        <ele>1143.8</ele>
        <time>2020-07-16T09:01:17Z</time>
      </trkpt>
      <trkpt lat="37.6738750" lon="-3.4685050">
        <ele>1144.4</ele>
        <time>2020-07-16T09:01:23Z</time>
      </trkpt>
      <trkpt lat="37.6739020" lon="-3.4685450">
        <ele>1144.4</ele>
        <time>2020-07-16T09:01:25Z</time>
      </trkpt>
      <trkpt lat="37.6739000" lon="-3.4685410">
        <ele>1144.4</ele>
        <time>2020-07-16T09:01:26Z</time>
      </trkpt>
      <trkpt lat="37.6739480" lon="-3.4685820">
        <ele>1145.0</ele>
        <time>2020-07-16T09:06:09Z</time>
      </trkpt>
      <trkpt lat="37.6740600" lon="-3.4687150">
        <ele>1144.8</ele>
        <time>2020-07-16T09:06:16Z</time>
      </trkpt>
      <trkpt lat="37.6742110" lon="-3.4688800">
        <ele>1144.8</ele>
        <time>2020-07-16T09:06:22Z</time>
      </trkpt>
      <trkpt lat="37.6744390" lon="-3.4691020">
        <ele>1144.6</ele>
        <time>2020-07-16T09:06:28Z</time>
      </trkpt>
      <trkpt lat="37.6746510" lon="-3.4693030">
        <ele>1143.8</ele>
        <time>2020-07-16T09:06:32Z</time>
      </trkpt>
      <trkpt lat="37.6747670" lon="-3.4694140">
        <ele>1143.4</ele>
        <time>2020-07-16T09:06:34Z</time>
      </trkpt>
      <trkpt lat="37.6749050" lon="-3.4695450">
        <ele>1142.8</ele>
        <time>2020-07-16T09:06:36Z</time>
      </trkpt>
      <trkpt lat="37.6751300" lon="-3.4697550">
        <ele>1141.8</ele>
        <time>2020-07-16T09:06:39Z</time>
      </trkpt>
      <trkpt lat="37.6753760" lon="-3.4699930">
        <ele>1140.6</ele>
        <time>2020-07-16T09:06:42Z</time>
      </trkpt>
      <trkpt lat="37.6756410" lon="-3.4702460">
        <ele>1139.0</ele>
        <time>2020-07-16T09:06:45Z</time>
      </trkpt>
      <trkpt lat="37.6758220" lon="-3.4704150">
        <ele>1137.6</ele>
        <time>2020-07-16T09:06:47Z</time>
      </trkpt>
      <trkpt lat="37.6761010" lon="-3.4706710">
        <ele>1136.2</ele>
        <time>2020-07-16T09:06:50Z</time>
      </trkpt>
      <trkpt lat="37.6763740" lon="-3.4709270">
        <ele>1135.2</ele>
        <time>2020-07-16T09:06:53Z</time>
      </trkpt>
      <trkpt lat="37.6765660" lon="-3.4711080">
        <ele>1134.0</ele>
        <time>2020-07-16T09:06:55Z</time>
      </trkpt>
      <trkpt lat="37.6768250" lon="-3.4713490">
        <ele>1132.6</ele>
        <time>2020-07-16T09:06:58Z</time>
      </trkpt>
      <trkpt lat="37.6771110" lon="-3.4716180">
        <ele>1132.0</ele>
        <time>2020-07-16T09:07:01Z</time>
      </trkpt>
      <trkpt lat="37.6773690" lon="-3.4718610">
        <ele>1131.6</ele>
        <time>2020-07-16T09:07:04Z</time>
      </trkpt>
      <trkpt lat="37.6774620" lon="-3.4719460">
        <ele>1131.4</ele>
        <time>2020-07-16T09:07:05Z</time>
      </trkpt>
      <trkpt lat="37.6778130" lon="-3.4722750">
        <ele>1130.2</ele>
        <time>2020-07-16T09:07:09Z</time>
      </trkpt>
      <trkpt lat="37.6781520" lon="-3.4725990">
        <ele>1129.0</ele>
        <time>2020-07-16T09:07:13Z</time>
      </trkpt>
      <trkpt lat="37.6784890" lon="-3.4729590">
        <ele>1128.0</ele>
        <time>2020-07-16T09:07:17Z</time>
      </trkpt>
      <trkpt lat="37.6788040" lon="-3.4733290">
        <ele>1127.6</ele>
        <time>2020-07-16T09:07:22Z</time>
      </trkpt>
      <trkpt lat="37.6790850" lon="-3.4737310">
        <ele>1127.4</ele>
        <time>2020-07-16T09:07:26Z</time>
      </trkpt>
      <trkpt lat="37.6793910" lon="-3.4742270">
        <ele>1127.4</ele>
        <time>2020-07-16T09:07:31Z</time>
      </trkpt>
      <trkpt lat="37.6795630" lon="-3.4745160">
        <ele>1126.8</ele>
        <time>2020-07-16T09:07:34Z</time>
      </trkpt>
      <trkpt lat="37.6796810" lon="-3.4747170">
        <ele>1126.4</ele>
        <time>2020-07-16T09:07:36Z</time>
      </trkpt>
      <trkpt lat="37.6800200" lon="-3.4752850">
        <ele>1126.0</ele>
        <time>2020-07-16T09:07:42Z</time>
      </trkpt>
      <trkpt lat="37.6802420" lon="-3.4756570">
        <ele>1126.0</ele>
        <time>2020-07-16T09:07:46Z</time>
      </trkpt>
      <trkpt lat="37.6804060" lon="-3.4759340">
        <ele>1125.8</ele>
        <time>2020-07-16T09:07:49Z</time>
      </trkpt>
      <trkpt lat="37.6807310" lon="-3.4764870">
        <ele>1125.4</ele>
        <time>2020-07-16T09:07:55Z</time>
      </trkpt>
      <trkpt lat="37.6810070" lon="-3.4769590">
        <ele>1124.8</ele>
        <time>2020-07-16T09:08:00Z</time>
      </trkpt>
      <trkpt lat="37.6811220" lon="-3.4771550">
        <ele>1124.6</ele>
        <time>2020-07-16T09:08:02Z</time>
      </trkpt>
      <trkpt lat="37.6814800" lon="-3.4777680">
        <ele>1123.8</ele>
        <time>2020-07-16T09:08:08Z</time>
      </trkpt>
      <trkpt lat="37.6815420" lon="-3.4778750">
        <ele>1123.6</ele>
        <time>2020-07-16T09:08:09Z</time>
      </trkpt>
      <trkpt lat="37.6819270" lon="-3.4785260">
        <ele>1122.4</ele>
        <time>2020-07-16T09:08:15Z</time>
      </trkpt>
      <trkpt lat="37.6821170" lon="-3.4788600">
        <ele>1121.6</ele>
        <time>2020-07-16T09:08:18Z</time>
      </trkpt>
      <trkpt lat="37.6821740" lon="-3.4789690">
        <ele>1121.4</ele>
        <time>2020-07-16T09:08:19Z</time>
      </trkpt>
      <trkpt lat="37.6824400" lon="-3.4795800">
        <ele>1120.4</ele>
        <time>2020-07-16T09:08:24Z</time>
      </trkpt>
      <trkpt lat="37.6824820" lon="-3.4797140">
        <ele>1120.0</ele>
        <time>2020-07-16T09:08:25Z</time>
      </trkpt>
      <trkpt lat="37.6826100" lon="-3.4802730">
        <ele>1118.8</ele>
        <time>2020-07-16T09:08:29Z</time>
      </trkpt>
      <trkpt lat="37.6827180" lon="-3.4808480">
        <ele>1117.4</ele>
        <time>2020-07-16T09:08:33Z</time>
      </trkpt>
      <trkpt lat="37.6827990" lon="-3.4812830">
        <ele>1115.8</ele>
        <time>2020-07-16T09:08:36Z</time>
      </trkpt>
      <trkpt lat="37.6828510" lon="-3.4815650">
        <ele>1114.8</ele>
        <time>2020-07-16T09:08:38Z</time>
      </trkpt>
      <trkpt lat="37.6829330" lon="-3.4820050">
        <ele>1113.4</ele>
        <time>2020-07-16T09:08:41Z</time>
      </trkpt>
      <trkpt lat="37.6830150" lon="-3.4824450">
        <ele>1112.2</ele>
        <time>2020-07-16T09:08:44Z</time>
      </trkpt>
      <trkpt lat="37.6830660" lon="-3.4827330">
        <ele>1111.2</ele>
        <time>2020-07-16T09:08:46Z</time>
      </trkpt>
      <trkpt lat="37.6831520" lon="-3.4831930">
        <ele>1110.0</ele>
        <time>2020-07-16T09:08:49Z</time>
      </trkpt>
      <trkpt lat="37.6831820" lon="-3.4833430">
        <ele>1109.6</ele>
        <time>2020-07-16T09:08:50Z</time>
      </trkpt>
      <trkpt lat="37.6832410" lon="-3.4836140">
        <ele>1109.0</ele>
        <time>2020-07-16T09:08:52Z</time>
      </trkpt>
      <trkpt lat="37.6833740" lon="-3.4842130">
        <ele>1107.6</ele>
        <time>2020-07-16T09:08:56Z</time>
      </trkpt>
      <trkpt lat="37.6834090" lon="-3.4843570">
        <ele>1107.2</ele>
        <time>2020-07-16T09:08:57Z</time>
      </trkpt>
      <trkpt lat="37.6834810" lon="-3.4846420">
        <ele>1106.2</ele>
        <time>2020-07-16T09:08:59Z</time>
      </trkpt>
      <trkpt lat="37.6835980" lon="-3.4850740">
        <ele>1105.0</ele>
        <time>2020-07-16T09:09:02Z</time>
      </trkpt>
      <trkpt lat="37.6837490" lon="-3.4856310">
        <ele>1103.8</ele>
        <time>2020-07-16T09:09:06Z</time>
      </trkpt>
      <trkpt lat="37.6837870" lon="-3.4857700">
        <ele>1103.6</ele>
        <time>2020-07-16T09:09:07Z</time>
      </trkpt>
      <trkpt lat="37.6838600" lon="-3.4860470">
        <ele>1102.4</ele>
        <time>2020-07-16T09:09:09Z</time>
      </trkpt>
      <trkpt lat="37.6839360" lon="-3.4863260">
        <ele>1101.4</ele>
        <time>2020-07-16T09:09:11Z</time>
      </trkpt>
      <trkpt lat="37.6840480" lon="-3.4867510">
        <ele>1100.2</ele>
        <time>2020-07-16T09:09:14Z</time>
      </trkpt>
      <trkpt lat="37.6841220" lon="-3.4870260">
        <ele>1099.4</ele>
        <time>2020-07-16T09:09:16Z</time>
      </trkpt>
      <trkpt lat="37.6841660" lon="-3.4871890">
        <ele>1098.6</ele>
        <time>2020-07-16T09:09:17Z</time>
      </trkpt>
      <trkpt lat="37.6842830" lon="-3.4876350">
        <ele>1097.2</ele>
        <time>2020-07-16T09:09:20Z</time>
      </trkpt>
      <trkpt lat="37.6843660" lon="-3.4879270">
        <ele>1096.2</ele>
        <time>2020-07-16T09:09:22Z</time>
      </trkpt>
      <trkpt lat="37.6844140" lon="-3.4880800">
        <ele>1095.4</ele>
        <time>2020-07-16T09:09:23Z</time>
      </trkpt>
      <trkpt lat="37.6844760" lon="-3.4882530">
        <ele>1094.6</ele>
        <time>2020-07-16T09:09:24Z</time>
      </trkpt>
      <trkpt lat="37.6846090" lon="-3.4885560">
        <ele>1092.6</ele>
        <time>2020-07-16T09:09:26Z</time>
      </trkpt>
      <trkpt lat="37.6846900" lon="-3.4887040">
        <ele>1091.8</ele>
        <time>2020-07-16T09:09:27Z</time>
      </trkpt>
      <trkpt lat="37.6847730" lon="-3.4888500">
        <ele>1091.2</ele>
        <time>2020-07-16T09:09:28Z</time>
      </trkpt>
      <trkpt lat="37.6848720" lon="-3.4889760">
        <ele>1090.4</ele>
        <time>2020-07-16T09:09:29Z</time>
      </trkpt>
      <trkpt lat="37.6849720" lon="-3.4891010">
        <ele>1089.2</ele>
        <time>2020-07-16T09:09:30Z</time>
      </trkpt>
      <trkpt lat="37.6850780" lon="-3.4892180">
        <ele>1088.2</ele>
        <time>2020-07-16T09:09:31Z</time>
      </trkpt>
      <trkpt lat="37.6851870" lon="-3.4893300">
        <ele>1087.4</ele>
        <time>2020-07-16T09:09:32Z</time>
      </trkpt>
      <trkpt lat="37.6853980" lon="-3.4895310">
        <ele>1086.4</ele>
        <time>2020-07-16T09:09:34Z</time>
      </trkpt>
      <trkpt lat="37.6855250" lon="-3.4896490">
        <ele>1085.4</ele>
        <time>2020-07-16T09:09:35Z</time>
      </trkpt>
      <trkpt lat="37.6857400" lon="-3.4898500">
        <ele>1083.8</ele>
        <time>2020-07-16T09:09:37Z</time>
      </trkpt>
      <trkpt lat="37.6859520" lon="-3.4900490">
        <ele>1082.4</ele>
        <time>2020-07-16T09:09:39Z</time>
      </trkpt>
      <trkpt lat="37.6861620" lon="-3.4902450">
        <ele>1080.8</ele>
        <time>2020-07-16T09:09:41Z</time>
      </trkpt>
      <trkpt lat="37.6862650" lon="-3.4903390">
        <ele>1080.4</ele>
        <time>2020-07-16T09:09:42Z</time>
      </trkpt>
      <trkpt lat="37.6863540" lon="-3.4904180">
        <ele>1079.8</ele>
        <time>2020-07-16T09:09:43Z</time>
      </trkpt>
      <trkpt lat="37.6865720" lon="-3.4906180">
        <ele>1078.8</ele>
        <time>2020-07-16T09:09:45Z</time>
      </trkpt>
      <trkpt lat="37.6866610" lon="-3.4907020">
        <ele>1078.4</ele>
        <time>2020-07-16T09:09:46Z</time>
      </trkpt>
      <trkpt lat="37.6869680" lon="-3.4909910">
        <ele>1077.0</ele>
        <time>2020-07-16T09:09:49Z</time>
      </trkpt>
      <trkpt lat="37.6872570" lon="-3.4912620">
        <ele>1076.0</ele>
        <time>2020-07-16T09:09:52Z</time>
      </trkpt>
      <trkpt lat="37.6875660" lon="-3.4915510">
        <ele>1074.8</ele>
        <time>2020-07-16T09:09:55Z</time>
      </trkpt>
      <trkpt lat="37.6877600" lon="-3.4917360">
        <ele>1074.4</ele>
        <time>2020-07-16T09:09:57Z</time>
      </trkpt>
      <trkpt lat="37.6879510" lon="-3.4919180">
        <ele>1073.6</ele>
        <time>2020-07-16T09:09:59Z</time>
      </trkpt>
      <trkpt lat="37.6883200" lon="-3.4922800">
        <ele>1072.4</ele>
        <time>2020-07-16T09:10:03Z</time>
      </trkpt>
      <trkpt lat="37.6884830" lon="-3.4924620">
        <ele>1072.0</ele>
        <time>2020-07-16T09:10:05Z</time>
      </trkpt>
      <trkpt lat="37.6887860" lon="-3.4928420">
        <ele>1072.6</ele>
        <time>2020-07-16T09:10:09Z</time>
      </trkpt>
      <trkpt lat="37.6889230" lon="-3.4930320">
        <ele>1072.8</ele>
        <time>2020-07-16T09:10:11Z</time>
      </trkpt>
      <trkpt lat="37.6891870" lon="-3.4933930">
        <ele>1072.8</ele>
        <time>2020-07-16T09:10:15Z</time>
      </trkpt>
      <trkpt lat="37.6893660" lon="-3.4936360">
        <ele>1073.2</ele>
        <time>2020-07-16T09:10:18Z</time>
      </trkpt>
      <trkpt lat="37.6894910" lon="-3.4938100">
        <ele>1073.4</ele>
        <time>2020-07-16T09:10:20Z</time>
      </trkpt>
      <trkpt lat="37.6897610" lon="-3.4942070">
        <ele>1074.0</ele>
        <time>2020-07-16T09:10:25Z</time>
      </trkpt>
      <trkpt lat="37.6900050" lon="-3.4947460">
        <ele>1074.0</ele>
        <time>2020-07-16T09:10:31Z</time>
      </trkpt>
      <trkpt lat="37.6901370" lon="-3.4952750">
        <ele>1073.6</ele>
        <time>2020-07-16T09:10:36Z</time>
      </trkpt>
      <trkpt lat="37.6902820" lon="-3.4960290">
        <ele>1072.2</ele>
        <time>2020-07-16T09:10:42Z</time>
      </trkpt>
      <trkpt lat="37.6903640" lon="-3.4964570">
        <ele>1071.0</ele>
        <time>2020-07-16T09:10:45Z</time>
      </trkpt>
      <trkpt lat="37.6904180" lon="-3.4967630">
        <ele>1069.4</ele>
        <time>2020-07-16T09:10:47Z</time>
      </trkpt>
      <trkpt lat="37.6904440" lon="-3.4969020">
        <ele>1068.8</ele>
        <time>2020-07-16T09:10:48Z</time>
      </trkpt>
      <trkpt lat="37.6904790" lon="-3.4970770">
        <ele>1068.0</ele>
        <time>2020-07-16T09:10:49Z</time>
      </trkpt>
      <trkpt lat="37.6905430" lon="-3.4974000">
        <ele>1066.6</ele>
        <time>2020-07-16T09:10:51Z</time>
      </trkpt>
      <trkpt lat="37.6905940" lon="-3.4977150">
        <ele>1065.4</ele>
        <time>2020-07-16T09:10:53Z</time>
      </trkpt>
      <trkpt lat="37.6906170" lon="-3.4979050">
        <ele>1064.6</ele>
        <time>2020-07-16T09:10:54Z</time>
      </trkpt>
      <trkpt lat="37.6906330" lon="-3.4980790">
        <ele>1064.0</ele>
        <time>2020-07-16T09:10:55Z</time>
      </trkpt>
      <trkpt lat="37.6906410" lon="-3.4982550">
        <ele>1062.8</ele>
        <time>2020-07-16T09:10:56Z</time>
      </trkpt>
      <trkpt lat="37.6906380" lon="-3.4985810">
        <ele>1061.4</ele>
        <time>2020-07-16T09:10:58Z</time>
      </trkpt>
      <trkpt lat="37.6906220" lon="-3.4987910">
        <ele>1060.4</ele>
        <time>2020-07-16T09:10:59Z</time>
      </trkpt>
      <trkpt lat="37.6905780" lon="-3.4991520">
        <ele>1058.6</ele>
        <time>2020-07-16T09:11:01Z</time>
      </trkpt>
      <trkpt lat="37.6905480" lon="-3.4993330">
        <ele>1057.6</ele>
        <time>2020-07-16T09:11:02Z</time>
      </trkpt>
      <trkpt lat="37.6905170" lon="-3.4994890">
        <ele>1057.2</ele>
        <time>2020-07-16T09:11:03Z</time>
      </trkpt>
      <trkpt lat="37.6904220" lon="-3.4998490">
        <ele>1056.0</ele>
        <time>2020-07-16T09:11:05Z</time>
      </trkpt>
      <trkpt lat="37.6903730" lon="-3.5000230">
        <ele>1055.2</ele>
        <time>2020-07-16T09:11:06Z</time>
      </trkpt>
      <trkpt lat="37.6903270" lon="-3.5001930">
        <ele>1054.8</ele>
        <time>2020-07-16T09:11:07Z</time>
      </trkpt>
      <trkpt lat="37.6902530" lon="-3.5005370">
        <ele>1053.0</ele>
        <time>2020-07-16T09:11:09Z</time>
      </trkpt>
      <trkpt lat="37.6902070" lon="-3.5008850">
        <ele>1051.4</ele>
        <time>2020-07-16T09:11:11Z</time>
      </trkpt>
      <trkpt lat="37.6901880" lon="-3.5012190">
        <ele>1050.2</ele>
        <time>2020-07-16T09:11:13Z</time>
      </trkpt>
      <trkpt lat="37.6901900" lon="-3.5015980">
        <ele>1049.4</ele>
        <time>2020-07-16T09:11:15Z</time>
      </trkpt>
      <trkpt lat="37.6902010" lon="-3.5017600">
        <ele>1048.8</ele>
        <time>2020-07-16T09:11:16Z</time>
      </trkpt>
      <trkpt lat="37.6902450" lon="-3.5021170">
        <ele>1047.6</ele>
        <time>2020-07-16T09:11:18Z</time>
      </trkpt>
      <trkpt lat="37.6902810" lon="-3.5023240">
        <ele>1046.6</ele>
        <time>2020-07-16T09:11:19Z</time>
      </trkpt>
      <trkpt lat="37.6903510" lon="-3.5026890">
        <ele>1045.0</ele>
        <time>2020-07-16T09:11:21Z</time>
      </trkpt>
      <trkpt lat="37.6904210" lon="-3.5030330">
        <ele>1043.4</ele>
        <time>2020-07-16T09:11:23Z</time>
      </trkpt>
      <trkpt lat="37.6905030" lon="-3.5034240">
        <ele>1042.0</ele>
        <time>2020-07-16T09:11:25Z</time>
      </trkpt>
      <trkpt lat="37.6905780" lon="-3.5037960">
        <ele>1040.4</ele>
        <time>2020-07-16T09:11:27Z</time>
      </trkpt>
      <trkpt lat="37.6906080" lon="-3.5039510">
        <ele>1039.6</ele>
        <time>2020-07-16T09:11:28Z</time>
      </trkpt>
      <trkpt lat="37.6906490" lon="-3.5041690">
        <ele>1038.8</ele>
        <time>2020-07-16T09:11:29Z</time>
      </trkpt>
      <trkpt lat="37.6906850" lon="-3.5043550">
        <ele>1037.8</ele>
        <time>2020-07-16T09:11:30Z</time>
      </trkpt>
      <trkpt lat="37.6907590" lon="-3.5047170">
        <ele>1036.2</ele>
        <time>2020-07-16T09:11:32Z</time>
      </trkpt>
      <trkpt lat="37.6908320" lon="-3.5050760">
        <ele>1034.6</ele>
        <time>2020-07-16T09:11:34Z</time>
      </trkpt>
      <trkpt lat="37.6909060" lon="-3.5054450">
        <ele>1033.2</ele>
        <time>2020-07-16T09:11:36Z</time>
      </trkpt>
      <trkpt lat="37.6909430" lon="-3.5056270">
        <ele>1032.4</ele>
        <time>2020-07-16T09:11:37Z</time>
      </trkpt>
      <trkpt lat="37.6909750" lon="-3.5057840">
        <ele>1031.8</ele>
        <time>2020-07-16T09:11:38Z</time>
      </trkpt>
      <trkpt lat="37.6910490" lon="-3.5061480">
        <ele>1030.4</ele>
        <time>2020-07-16T09:11:40Z</time>
      </trkpt>
      <trkpt lat="37.6911350" lon="-3.5064960">
        <ele>1029.0</ele>
        <time>2020-07-16T09:11:42Z</time>
      </trkpt>
      <trkpt lat="37.6911780" lon="-3.5066340">
        <ele>1028.8</ele>
        <time>2020-07-16T09:11:43Z</time>
      </trkpt>
      <trkpt lat="37.6913090" lon="-3.5069720">
        <ele>1028.0</ele>
        <time>2020-07-16T09:11:45Z</time>
      </trkpt>
      <trkpt lat="37.6913750" lon="-3.5071040">
        <ele>1027.8</ele>
        <time>2020-07-16T09:11:46Z</time>
      </trkpt>
      <trkpt lat="37.6914660" lon="-3.5072560">
        <ele>1027.4</ele>
        <time>2020-07-16T09:11:47Z</time>
      </trkpt>
      <trkpt lat="37.6917620" lon="-3.5076170">
        <ele>1026.8</ele>
        <time>2020-07-16T09:11:50Z</time>
      </trkpt>
      <trkpt lat="37.6921020" lon="-3.5078810">
        <ele>1025.8</ele>
        <time>2020-07-16T09:11:53Z</time>
      </trkpt>
      <trkpt lat="37.6922300" lon="-3.5079850">
        <ele>1025.2</ele>
        <time>2020-07-16T09:11:54Z</time>
      </trkpt>
      <trkpt lat="37.6923400" lon="-3.5080910">
        <ele>1024.6</ele>
        <time>2020-07-16T09:11:55Z</time>
      </trkpt>
      <trkpt lat="37.6925400" lon="-3.5083310">
        <ele>1023.6</ele>
        <time>2020-07-16T09:11:57Z</time>
      </trkpt>
      <trkpt lat="37.6927350" lon="-3.5085810">
        <ele>1022.4</ele>
        <time>2020-07-16T09:11:59Z</time>
      </trkpt>
      <trkpt lat="37.6929460" lon="-3.5087990">
        <ele>1021.4</ele>
        <time>2020-07-16T09:12:01Z</time>
      </trkpt>
      <trkpt lat="37.6930690" lon="-3.5088750">
        <ele>1020.4</ele>
        <time>2020-07-16T09:12:02Z</time>
      </trkpt>
      <trkpt lat="37.6931800" lon="-3.5089190">
        <ele>1019.8</ele>
        <time>2020-07-16T09:12:03Z</time>
      </trkpt>
      <trkpt lat="37.6934690" lon="-3.5090000">
        <ele>1018.6</ele>
        <time>2020-07-16T09:12:05Z</time>
      </trkpt>
      <trkpt lat="37.6938090" lon="-3.5092260">
        <ele>1017.4</ele>
        <time>2020-07-16T09:12:08Z</time>
      </trkpt>
      <trkpt lat="37.6940660" lon="-3.5096320">
        <ele>1016.2</ele>
        <time>2020-07-16T09:12:11Z</time>
      </trkpt>
      <trkpt lat="37.6941620" lon="-3.5101000">
        <ele>1014.8</ele>
        <time>2020-07-16T09:12:14Z</time>
      </trkpt>
      <trkpt lat="37.6941150" lon="-3.5103920">
        <ele>1013.6</ele>
        <time>2020-07-16T09:12:16Z</time>
      </trkpt>
      <trkpt lat="37.6940120" lon="-3.5106830">
        <ele>1012.6</ele>
        <time>2020-07-16T09:12:18Z</time>
      </trkpt>
      <trkpt lat="37.6939170" lon="-3.5109930">
        <ele>1011.4</ele>
        <time>2020-07-16T09:12:20Z</time>
      </trkpt>
      <trkpt lat="37.6938820" lon="-3.5112920">
        <ele>1010.2</ele>
        <time>2020-07-16T09:12:22Z</time>
      </trkpt>
      <trkpt lat="37.6938820" lon="-3.5114480">
        <ele>1009.4</ele>
        <time>2020-07-16T09:12:23Z</time>
      </trkpt>
      <trkpt lat="37.6938850" lon="-3.5116260">
        <ele>1008.8</ele>
        <time>2020-07-16T09:12:24Z</time>
      </trkpt>
      <trkpt lat="37.6938690" lon="-3.5119480">
        <ele>1006.8</ele>
        <time>2020-07-16T09:12:26Z</time>
      </trkpt>
      <trkpt lat="37.6938500" lon="-3.5122400">
        <ele>1005.8</ele>
        <time>2020-07-16T09:12:28Z</time>
      </trkpt>
      <trkpt lat="37.6938330" lon="-3.5124330">
        <ele>1005.6</ele>
        <time>2020-07-16T09:12:29Z</time>
      </trkpt>
      <trkpt lat="37.6937500" lon="-3.5129240">
        <ele>1004.4</ele>
        <time>2020-07-16T09:12:32Z</time>
      </trkpt>
      <trkpt lat="37.6936770" lon="-3.5132300">
        <ele>1003.2</ele>
        <time>2020-07-16T09:12:34Z</time>
      </trkpt>
      <trkpt lat="37.6935790" lon="-3.5135660">
        <ele>1001.6</ele>
        <time>2020-07-16T09:12:36Z</time>
      </trkpt>
      <trkpt lat="37.6935250" lon="-3.5137240">
        <ele>1000.8</ele>
        <time>2020-07-16T09:12:37Z</time>
      </trkpt>
      <trkpt lat="37.6934760" lon="-3.5138540">
        <ele>999.8</ele>
        <time>2020-07-16T09:12:38Z</time>
      </trkpt>
      <trkpt lat="37.6933400" lon="-3.5141650">
        <ele>998.2</ele>
        <time>2020-07-16T09:12:40Z</time>
      </trkpt>
      <trkpt lat="37.6931890" lon="-3.5144880">
        <ele>996.0</ele>
        <time>2020-07-16T09:12:42Z</time>
      </trkpt>
      <trkpt lat="37.6930460" lon="-3.5148050">
        <ele>994.2</ele>
        <time>2020-07-16T09:12:44Z</time>
      </trkpt>
      <trkpt lat="37.6929790" lon="-3.5149690">
        <ele>993.0</ele>
        <time>2020-07-16T09:12:45Z</time>
      </trkpt>
      <trkpt lat="37.6929220" lon="-3.5151200">
        <ele>991.6</ele>
        <time>2020-07-16T09:12:46Z</time>
      </trkpt>
      <trkpt lat="37.6928530" lon="-3.5153110">
        <ele>990.6</ele>
        <time>2020-07-16T09:12:47Z</time>
      </trkpt>
      <trkpt lat="37.6927980" lon="-3.5154670">
        <ele>989.6</ele>
        <time>2020-07-16T09:12:48Z</time>
      </trkpt>
      <trkpt lat="37.6926660" lon="-3.5158390">
        <ele>987.8</ele>
        <time>2020-07-16T09:12:50Z</time>
      </trkpt>
      <trkpt lat="37.6925510" lon="-3.5161680">
        <ele>986.0</ele>
        <time>2020-07-16T09:12:52Z</time>
      </trkpt>
      <trkpt lat="37.6924220" lon="-3.5165350">
        <ele>984.6</ele>
        <time>2020-07-16T09:12:54Z</time>
      </trkpt>
      <trkpt lat="37.6923000" lon="-3.5168900">
        <ele>983.2</ele>
        <time>2020-07-16T09:12:56Z</time>
      </trkpt>
      <trkpt lat="37.6922420" lon="-3.5170610">
        <ele>982.0</ele>
        <time>2020-07-16T09:12:57Z</time>
      </trkpt>
      <trkpt lat="37.6921130" lon="-3.5174260">
        <ele>979.4</ele>
        <time>2020-07-16T09:12:59Z</time>
      </trkpt>
      <trkpt lat="37.6920470" lon="-3.5176040">
        <ele>978.0</ele>
        <time>2020-07-16T09:13:00Z</time>
      </trkpt>
      <trkpt lat="37.6919790" lon="-3.5177820">
        <ele>976.8</ele>
        <time>2020-07-16T09:13:01Z</time>
      </trkpt>
      <trkpt lat="37.6919110" lon="-3.5179590">
        <ele>975.8</ele>
        <time>2020-07-16T09:13:02Z</time>
      </trkpt>
      <trkpt lat="37.6917730" lon="-3.5182990">
        <ele>974.0</ele>
        <time>2020-07-16T09:13:04Z</time>
      </trkpt>
      <trkpt lat="37.6916950" lon="-3.5184830">
        <ele>972.8</ele>
        <time>2020-07-16T09:13:05Z</time>
      </trkpt>
      <trkpt lat="37.6916200" lon="-3.5186580">
        <ele>971.8</ele>
        <time>2020-07-16T09:13:06Z</time>
      </trkpt>
      <trkpt lat="37.6914690" lon="-3.5189960">
        <ele>969.2</ele>
        <time>2020-07-16T09:13:08Z</time>
      </trkpt>
      <trkpt lat="37.6913130" lon="-3.5193420">
        <ele>967.8</ele>
        <time>2020-07-16T09:13:10Z</time>
      </trkpt>
      <trkpt lat="37.6912320" lon="-3.5195250">
        <ele>966.8</ele>
        <time>2020-07-16T09:13:11Z</time>
      </trkpt>
      <trkpt lat="37.6911540" lon="-3.5196990">
        <ele>965.8</ele>
        <time>2020-07-16T09:13:12Z</time>
      </trkpt>
      <trkpt lat="37.6909990" lon="-3.5200480">
        <ele>964.4</ele>
        <time>2020-07-16T09:13:14Z</time>
      </trkpt>
      <trkpt lat="37.6908640" lon="-3.5203930">
        <ele>962.4</ele>
        <time>2020-07-16T09:13:16Z</time>
      </trkpt>
      <trkpt lat="37.6908010" lon="-3.5205890">
        <ele>961.2</ele>
        <time>2020-07-16T09:13:17Z</time>
      </trkpt>
      <trkpt lat="37.6907520" lon="-3.5207670">
        <ele>959.8</ele>
        <time>2020-07-16T09:13:18Z</time>
      </trkpt>
      <trkpt lat="37.6907040" lon="-3.5209700">
        <ele>958.6</ele>
        <time>2020-07-16T09:13:19Z</time>
      </trkpt>
      <trkpt lat="37.6906670" lon="-3.5211630">
        <ele>957.0</ele>
        <time>2020-07-16T09:13:20Z</time>
      </trkpt>
      <trkpt lat="37.6906080" lon="-3.5216520">
        <ele>954.8</ele>
        <time>2020-07-16T09:13:22Z</time>
      </trkpt>
      <trkpt lat="37.6905980" lon="-3.5218420">
        <ele>953.2</ele>
        <time>2020-07-16T09:13:23Z</time>
      </trkpt>
      <trkpt lat="37.6905960" lon="-3.5220610">
        <ele>952.0</ele>
        <time>2020-07-16T09:13:24Z</time>
      </trkpt>
      <trkpt lat="37.6906190" lon="-3.5224610">
        <ele>950.4</ele>
        <time>2020-07-16T09:13:26Z</time>
      </trkpt>
      <trkpt lat="37.6906680" lon="-3.5228320">
        <ele>948.2</ele>
        <time>2020-07-16T09:13:28Z</time>
      </trkpt>
      <trkpt lat="37.6907100" lon="-3.5230430">
        <ele>947.2</ele>
        <time>2020-07-16T09:13:29Z</time>
      </trkpt>
      <trkpt lat="37.6907560" lon="-3.5232280">
        <ele>946.0</ele>
        <time>2020-07-16T09:13:30Z</time>
      </trkpt>
      <trkpt lat="37.6908080" lon="-3.5234130">
        <ele>944.8</ele>
        <time>2020-07-16T09:13:31Z</time>
      </trkpt>
      <trkpt lat="37.6908660" lon="-3.5235890">
        <ele>943.4</ele>
        <time>2020-07-16T09:13:32Z</time>
      </trkpt>
      <trkpt lat="37.6910070" lon="-3.5239080">
        <ele>941.2</ele>
        <time>2020-07-16T09:13:34Z</time>
      </trkpt>
      <trkpt lat="37.6911040" lon="-3.5240690">
        <ele>940.2</ele>
        <time>2020-07-16T09:13:35Z</time>
      </trkpt>
      <trkpt lat="37.6912080" lon="-3.5242100">
        <ele>939.0</ele>
        <time>2020-07-16T09:13:36Z</time>
      </trkpt>
      <trkpt lat="37.6913200" lon="-3.5243460">
        <ele>938.0</ele>
        <time>2020-07-16T09:13:37Z</time>
      </trkpt>
      <trkpt lat="37.6916880" lon="-3.5246820">
        <ele>937.8</ele>
        <time>2020-07-16T09:13:40Z</time>
      </trkpt>
      <trkpt lat="37.6918250" lon="-3.5247910">
        <ele>936.2</ele>
        <time>2020-07-16T09:13:41Z</time>
      </trkpt>
      <trkpt lat="37.6919590" lon="-3.5248970">
        <ele>934.4</ele>
        <time>2020-07-16T09:13:42Z</time>
      </trkpt>
      <trkpt lat="37.6920810" lon="-3.5249900">
        <ele>932.6</ele>
        <time>2020-07-16T09:13:43Z</time>
      </trkpt>
      <trkpt lat="37.6922310" lon="-3.5251040">
        <ele>931.4</ele>
        <time>2020-07-16T09:13:44Z</time>
      </trkpt>
      <trkpt lat="37.6923680" lon="-3.5252060">
        <ele>930.2</ele>
        <time>2020-07-16T09:13:45Z</time>
      </trkpt>
      <trkpt lat="37.6926410" lon="-3.5254040">
        <ele>928.2</ele>
        <time>2020-07-16T09:13:47Z</time>
      </trkpt>
      <trkpt lat="37.6927710" lon="-3.5254880">
        <ele>927.2</ele>
        <time>2020-07-16T09:13:48Z</time>
      </trkpt>
      <trkpt lat="37.6930710" lon="-3.5256440">
        <ele>925.2</ele>
        <time>2020-07-16T09:13:50Z</time>
      </trkpt>
      <trkpt lat="37.6932180" lon="-3.5257080">
        <ele>924.2</ele>
        <time>2020-07-16T09:13:51Z</time>
      </trkpt>
      <trkpt lat="37.6933590" lon="-3.5257600">
        <ele>923.0</ele>
        <time>2020-07-16T09:13:52Z</time>
      </trkpt>
      <trkpt lat="37.6936360" lon="-3.5258400">
        <ele>922.2</ele>
        <time>2020-07-16T09:13:54Z</time>
      </trkpt>
      <trkpt lat="37.6938020" lon="-3.5258690">
        <ele>921.6</ele>
        <time>2020-07-16T09:13:55Z</time>
      </trkpt>
      <trkpt lat="37.6939450" lon="-3.5258820">
        <ele>920.6</ele>
        <time>2020-07-16T09:13:56Z</time>
      </trkpt>
      <trkpt lat="37.6942040" lon="-3.5258890">
        <ele>919.4</ele>
        <time>2020-07-16T09:13:58Z</time>
      </trkpt>
      <trkpt lat="37.6943620" lon="-3.5258920">
        <ele>919.0</ele>
        <time>2020-07-16T09:13:59Z</time>
      </trkpt>
      <trkpt lat="37.6944990" lon="-3.5258960">
        <ele>918.4</ele>
        <time>2020-07-16T09:14:00Z</time>
      </trkpt>
      <trkpt lat="37.6947620" lon="-3.5259380">
        <ele>917.6</ele>
        <time>2020-07-16T09:14:02Z</time>
      </trkpt>
      <trkpt lat="37.6948710" lon="-3.5259950">
        <ele>917.4</ele>
        <time>2020-07-16T09:14:03Z</time>
      </trkpt>
      <trkpt lat="37.6949830" lon="-3.5260880">
        <ele>917.2</ele>
        <time>2020-07-16T09:14:04Z</time>
      </trkpt>
      <trkpt lat="37.6950800" lon="-3.5261990">
        <ele>917.0</ele>
        <time>2020-07-16T09:14:05Z</time>
      </trkpt>
      <trkpt lat="37.6952100" lon="-3.5264620">
        <ele>916.0</ele>
        <time>2020-07-16T09:14:07Z</time>
      </trkpt>
      <trkpt lat="37.6952390" lon="-3.5265930">
        <ele>915.4</ele>
        <time>2020-07-16T09:14:08Z</time>
      </trkpt>
      <trkpt lat="37.6952470" lon="-3.5268850">
        <ele>915.0</ele>
        <time>2020-07-16T09:14:10Z</time>
      </trkpt>
      <trkpt lat="37.6952230" lon="-3.5270300">
        <ele>915.0</ele>
        <time>2020-07-16T09:14:11Z</time>
      </trkpt>
      <trkpt lat="37.6950630" lon="-3.5273860">
        <ele>914.2</ele>
        <time>2020-07-16T09:14:14Z</time>
      </trkpt>
      <trkpt lat="37.6949830" lon="-3.5274760">
        <ele>914.0</ele>
        <time>2020-07-16T09:14:15Z</time>
      </trkpt>
      <trkpt lat="37.6947950" lon="-3.5275990">
        <ele>913.4</ele>
        <time>2020-07-16T09:14:17Z</time>
      </trkpt>
      <trkpt lat="37.6944920" lon="-3.5276510">
        <ele>913.4</ele>
        <time>2020-07-16T09:14:20Z</time>
      </trkpt>
      <trkpt lat="37.6943910" lon="-3.5276550">
        <ele>912.8</ele>
        <time>2020-07-16T09:14:21Z</time>
      </trkpt>
      <trkpt lat="37.6941970" lon="-3.5276550">
        <ele>911.8</ele>
        <time>2020-07-16T09:14:23Z</time>
      </trkpt>
      <trkpt lat="37.6939820" lon="-3.5276530">
        <ele>910.2</ele>
        <time>2020-07-16T09:14:25Z</time>
      </trkpt>
      <trkpt lat="37.6937730" lon="-3.5276530">
        <ele>909.4</ele>
        <time>2020-07-16T09:14:27Z</time>
      </trkpt>
      <trkpt lat="37.6935770" lon="-3.5276520">
        <ele>908.8</ele>
        <time>2020-07-16T09:14:29Z</time>
      </trkpt>
      <trkpt lat="37.6932090" lon="-3.5276500">
        <ele>906.8</ele>
        <time>2020-07-16T09:14:32Z</time>
      </trkpt>
      <trkpt lat="37.6930980" lon="-3.5276520">
        <ele>906.2</ele>
        <time>2020-07-16T09:14:33Z</time>
      </trkpt>
      <trkpt lat="37.6929690" lon="-3.5276530">
        <ele>905.4</ele>
        <time>2020-07-16T09:14:34Z</time>
      </trkpt>
      <trkpt lat="37.6927050" lon="-3.5276510">
        <ele>903.6</ele>
        <time>2020-07-16T09:14:36Z</time>
      </trkpt>
      <trkpt lat="37.6924520" lon="-3.5276500">
        <ele>902.2</ele>
        <time>2020-07-16T09:14:38Z</time>
      </trkpt>
      <trkpt lat="37.6923000" lon="-3.5276530">
        <ele>901.2</ele>
        <time>2020-07-16T09:14:39Z</time>
      </trkpt>
      <trkpt lat="37.6920160" lon="-3.5276570">
        <ele>899.0</ele>
        <time>2020-07-16T09:14:41Z</time>
      </trkpt>
      <trkpt lat="37.6917350" lon="-3.5276520">
        <ele>897.0</ele>
        <time>2020-07-16T09:14:43Z</time>
      </trkpt>
      <trkpt lat="37.6915770" lon="-3.5276560">
        <ele>895.6</ele>
        <time>2020-07-16T09:14:44Z</time>
      </trkpt>
      <trkpt lat="37.6914290" lon="-3.5276570">
        <ele>895.2</ele>
        <time>2020-07-16T09:14:45Z</time>
      </trkpt>
      <trkpt lat="37.6912860" lon="-3.5276580">
        <ele>893.4</ele>
        <time>2020-07-16T09:14:46Z</time>
      </trkpt>
      <trkpt lat="37.6911250" lon="-3.5276570">
        <ele>891.6</ele>
        <time>2020-07-16T09:14:47Z</time>
      </trkpt>
      <trkpt lat="37.6909910" lon="-3.5276570">
        <ele>889.6</ele>
        <time>2020-07-16T09:14:48Z</time>
      </trkpt>
      <trkpt lat="37.6908340" lon="-3.5276600">
        <ele>888.6</ele>
        <time>2020-07-16T09:14:49Z</time>
      </trkpt>
      <trkpt lat="37.6906890" lon="-3.5276620">
        <ele>887.6</ele>
        <time>2020-07-16T09:14:50Z</time>
      </trkpt>
      <trkpt lat="37.6902820" lon="-3.5276660">
        <ele>885.8</ele>
        <time>2020-07-16T09:14:53Z</time>
      </trkpt>
      <trkpt lat="37.6901270" lon="-3.5276660">
        <ele>885.2</ele>
        <time>2020-07-16T09:14:54Z</time>
      </trkpt>
      <trkpt lat="37.6899970" lon="-3.5276640">
        <ele>884.6</ele>
        <time>2020-07-16T09:14:55Z</time>
      </trkpt>
      <trkpt lat="37.6898670" lon="-3.5276650">
        <ele>883.4</ele>
        <time>2020-07-16T09:14:56Z</time>
      </trkpt>
      <trkpt lat="37.6896230" lon="-3.5276670">
        <ele>882.4</ele>
        <time>2020-07-16T09:14:58Z</time>
      </trkpt>
      <trkpt lat="37.6895410" lon="-3.5276650">
        <ele>882.0</ele>
        <time>2020-07-16T09:14:59Z</time>
      </trkpt>
      <trkpt lat="37.6892130" lon="-3.5276650">
        <ele>880.8</ele>
        <time>2020-07-16T09:15:01Z</time>
      </trkpt>
      <trkpt lat="37.6888210" lon="-3.5276690">
        <ele>879.4</ele>
        <time>2020-07-16T09:15:04Z</time>
      </trkpt>
      <trkpt lat="37.6885480" lon="-3.5276930">
        <ele>878.2</ele>
        <time>2020-07-16T09:15:06Z</time>
      </trkpt>
      <trkpt lat="37.6882930" lon="-3.5277330">
        <ele>876.2</ele>
        <time>2020-07-16T09:15:08Z</time>
      </trkpt>
      <trkpt lat="37.6881430" lon="-3.5277680">
        <ele>874.8</ele>
        <time>2020-07-16T09:15:09Z</time>
      </trkpt>
      <trkpt lat="37.6878730" lon="-3.5278540">
        <ele>873.0</ele>
        <time>2020-07-16T09:15:11Z</time>
      </trkpt>
      <trkpt lat="37.6877400" lon="-3.5279080">
        <ele>871.8</ele>
        <time>2020-07-16T09:15:12Z</time>
      </trkpt>
      <trkpt lat="37.6876200" lon="-3.5279640">
        <ele>870.8</ele>
        <time>2020-07-16T09:15:13Z</time>
      </trkpt>
      <trkpt lat="37.6874760" lon="-3.5280380">
        <ele>869.8</ele>
        <time>2020-07-16T09:15:14Z</time>
      </trkpt>
      <trkpt lat="37.6873460" lon="-3.5281120">
        <ele>868.6</ele>
        <time>2020-07-16T09:15:15Z</time>
      </trkpt>
      <trkpt lat="37.6872250" lon="-3.5281880">
        <ele>867.6</ele>
        <time>2020-07-16T09:15:16Z</time>
      </trkpt>
      <trkpt lat="37.6869810" lon="-3.5283500">
        <ele>866.2</ele>
        <time>2020-07-16T09:15:18Z</time>
      </trkpt>
      <trkpt lat="37.6868470" lon="-3.5284440">
        <ele>865.2</ele>
        <time>2020-07-16T09:15:19Z</time>
      </trkpt>
      <trkpt lat="37.6866040" lon="-3.5286140">
        <ele>862.8</ele>
        <time>2020-07-16T09:15:21Z</time>
      </trkpt>
      <trkpt lat="37.6862430" lon="-3.5288670">
        <ele>861.2</ele>
        <time>2020-07-16T09:15:24Z</time>
      </trkpt>
      <trkpt lat="37.6860060" lon="-3.5290350">
        <ele>859.6</ele>
        <time>2020-07-16T09:15:26Z</time>
      </trkpt>
      <trkpt lat="37.6858880" lon="-3.5291200">
        <ele>859.0</ele>
        <time>2020-07-16T09:15:27Z</time>
      </trkpt>
      <trkpt lat="37.6857880" lon="-3.5291920">
        <ele>858.2</ele>
        <time>2020-07-16T09:15:28Z</time>
      </trkpt>
      <trkpt lat="37.6855320" lon="-3.5293720">
        <ele>856.4</ele>
        <time>2020-07-16T09:15:30Z</time>
      </trkpt>
      <trkpt lat="37.6854130" lon="-3.5294520">
        <ele>855.2</ele>
        <time>2020-07-16T09:15:31Z</time>
      </trkpt>
      <trkpt lat="37.6851780" lon="-3.5296140">
        <ele>854.0</ele>
        <time>2020-07-16T09:15:33Z</time>
      </trkpt>
      <trkpt lat="37.6849280" lon="-3.5297920">
        <ele>852.8</ele>
        <time>2020-07-16T09:15:35Z</time>
      </trkpt>
      <trkpt lat="37.6846990" lon="-3.5299500">
        <ele>852.0</ele>
        <time>2020-07-16T09:15:37Z</time>
      </trkpt>
      <trkpt lat="37.6845890" lon="-3.5300240">
        <ele>851.4</ele>
        <time>2020-07-16T09:15:38Z</time>
      </trkpt>
      <trkpt lat="37.6843480" lon="-3.5301900">
        <ele>850.0</ele>
        <time>2020-07-16T09:15:40Z</time>
      </trkpt>
      <trkpt lat="37.6840330" lon="-3.5304570">
        <ele>848.8</ele>
        <time>2020-07-16T09:15:43Z</time>
      </trkpt>
      <trkpt lat="37.6839250" lon="-3.5305760">
        <ele>848.2</ele>
        <time>2020-07-16T09:15:44Z</time>
      </trkpt>
      <trkpt lat="37.6837650" lon="-3.5307960">
        <ele>847.4</ele>
        <time>2020-07-16T09:15:46Z</time>
      </trkpt>
      <trkpt lat="37.6836750" lon="-3.5309590">
        <ele>847.0</ele>
        <time>2020-07-16T09:15:47Z</time>
      </trkpt>
      <trkpt lat="37.6836230" lon="-3.5310810">
        <ele>846.6</ele>
        <time>2020-07-16T09:15:48Z</time>
      </trkpt>
      <trkpt lat="37.6835680" lon="-3.5312260">
        <ele>846.4</ele>
        <time>2020-07-16T09:15:49Z</time>
      </trkpt>
      <trkpt lat="37.6834670" lon="-3.5316670">
        <ele>845.2</ele>
        <time>2020-07-16T09:15:52Z</time>
      </trkpt>
      <trkpt lat="37.6834420" lon="-3.5319900">
        <ele>844.2</ele>
        <time>2020-07-16T09:15:54Z</time>
      </trkpt>
      <trkpt lat="37.6834330" lon="-3.5321440">
        <ele>844.2</ele>
        <time>2020-07-16T09:15:55Z</time>
      </trkpt>
      <trkpt lat="37.6834540" lon="-3.5322640">
        <ele>843.6</ele>
        <time>2020-07-16T09:15:56Z</time>
      </trkpt>
      <trkpt lat="37.6835000" lon="-3.5325920">
        <ele>842.6</ele>
        <time>2020-07-16T09:15:58Z</time>
      </trkpt>
      <trkpt lat="37.6835610" lon="-3.5329300">
        <ele>841.4</ele>
        <time>2020-07-16T09:16:00Z</time>
      </trkpt>
      <trkpt lat="37.6836100" lon="-3.5332400">
        <ele>840.6</ele>
        <time>2020-07-16T09:16:02Z</time>
      </trkpt>
      <trkpt lat="37.6836270" lon="-3.5333830">
        <ele>840.0</ele>
        <time>2020-07-16T09:16:03Z</time>
      </trkpt>
      <trkpt lat="37.6836610" lon="-3.5338680">
        <ele>838.6</ele>
        <time>2020-07-16T09:16:06Z</time>
      </trkpt>
      <trkpt lat="37.6836540" lon="-3.5343520">
        <ele>837.4</ele>
        <time>2020-07-16T09:16:09Z</time>
      </trkpt>
      <trkpt lat="37.6836290" lon="-3.5346730">
        <ele>836.6</ele>
        <time>2020-07-16T09:16:11Z</time>
      </trkpt>
      <trkpt lat="37.6836090" lon="-3.5348320">
        <ele>836.0</ele>
        <time>2020-07-16T09:16:12Z</time>
      </trkpt>
      <trkpt lat="37.6835200" lon="-3.5353090">
        <ele>834.8</ele>
        <time>2020-07-16T09:16:15Z</time>
      </trkpt>
      <trkpt lat="37.6834840" lon="-3.5354580">
        <ele>834.2</ele>
        <time>2020-07-16T09:16:16Z</time>
      </trkpt>
      <trkpt lat="37.6834400" lon="-3.5356190">
        <ele>833.8</ele>
        <time>2020-07-16T09:16:17Z</time>
      </trkpt>
      <trkpt lat="37.6832420" lon="-3.5362000">
        <ele>832.6</ele>
        <time>2020-07-16T09:16:21Z</time>
      </trkpt>
      <trkpt lat="37.6829430" lon="-3.5368740">
        <ele>831.4</ele>
        <time>2020-07-16T09:16:26Z</time>
      </trkpt>
      <trkpt lat="37.6827850" lon="-3.5374730">
        <ele>830.8</ele>
        <time>2020-07-16T09:16:30Z</time>
      </trkpt>
      <trkpt lat="37.6827250" lon="-3.5377920">
        <ele>830.2</ele>
        <time>2020-07-16T09:16:32Z</time>
      </trkpt>
      <trkpt lat="37.6826220" lon="-3.5382650">
        <ele>829.0</ele>
        <time>2020-07-16T09:16:35Z</time>
      </trkpt>
      <trkpt lat="37.6825500" lon="-3.5385790">
        <ele>828.0</ele>
        <time>2020-07-16T09:16:37Z</time>
      </trkpt>
      <trkpt lat="37.6824760" lon="-3.5388950">
        <ele>827.2</ele>
        <time>2020-07-16T09:16:39Z</time>
      </trkpt>
      <trkpt lat="37.6824410" lon="-3.5390460">
        <ele>826.8</ele>
        <time>2020-07-16T09:16:40Z</time>
      </trkpt>
      <trkpt lat="37.6823320" lon="-3.5396930">
        <ele>825.4</ele>
        <time>2020-07-16T09:16:44Z</time>
      </trkpt>
      <trkpt lat="37.6823200" lon="-3.5398480">
        <ele>824.8</ele>
        <time>2020-07-16T09:16:45Z</time>
      </trkpt>
      <trkpt lat="37.6823120" lon="-3.5401570">
        <ele>824.0</ele>
        <time>2020-07-16T09:16:47Z</time>
      </trkpt>
      <trkpt lat="37.6823310" lon="-3.5406090">
        <ele>823.6</ele>
        <time>2020-07-16T09:16:50Z</time>
      </trkpt>
      <trkpt lat="37.6823360" lon="-3.5413250">
        <ele>823.0</ele>
        <time>2020-07-16T09:16:55Z</time>
      </trkpt>
      <trkpt lat="37.6823170" lon="-3.5414670">
        <ele>822.6</ele>
        <time>2020-07-16T09:16:56Z</time>
      </trkpt>
      <trkpt lat="37.6822370" lon="-3.5418850">
        <ele>821.2</ele>
        <time>2020-07-16T09:16:59Z</time>
      </trkpt>
      <trkpt lat="37.6821740" lon="-3.5421630">
        <ele>820.6</ele>
        <time>2020-07-16T09:17:01Z</time>
      </trkpt>
      <trkpt lat="37.6821110" lon="-3.5424230">
        <ele>820.0</ele>
        <time>2020-07-16T09:17:03Z</time>
      </trkpt>
      <trkpt lat="37.6819530" lon="-3.5428310">
        <ele>819.0</ele>
        <time>2020-07-16T09:17:06Z</time>
      </trkpt>
      <trkpt lat="37.6817520" lon="-3.5431570">
        <ele>818.4</ele>
        <time>2020-07-16T09:17:09Z</time>
      </trkpt>
      <trkpt lat="37.6816950" lon="-3.5432580">
        <ele>818.0</ele>
        <time>2020-07-16T09:17:10Z</time>
      </trkpt>
      <trkpt lat="37.6816400" lon="-3.5433810">
        <ele>817.8</ele>
        <time>2020-07-16T09:17:11Z</time>
      </trkpt>
      <trkpt lat="37.6815690" lon="-3.5436150">
        <ele>817.6</ele>
        <time>2020-07-16T09:17:13Z</time>
      </trkpt>
      <trkpt lat="37.6815210" lon="-3.5438710">
        <ele>817.4</ele>
        <time>2020-07-16T09:17:15Z</time>
      </trkpt>
      <trkpt lat="37.6815070" lon="-3.5439910">
        <ele>817.2</ele>
        <time>2020-07-16T09:17:16Z</time>
      </trkpt>
      <trkpt lat="37.6814900" lon="-3.5441200">
        <ele>817.2</ele>
        <time>2020-07-16T09:17:17Z</time>
      </trkpt>
      <trkpt lat="37.6814440" lon="-3.5444990">
        <ele>816.8</ele>
        <time>2020-07-16T09:17:20Z</time>
      </trkpt>
      <trkpt lat="37.6813500" lon="-3.5448630">
        <ele>816.0</ele>
        <time>2020-07-16T09:17:23Z</time>
      </trkpt>
      <trkpt lat="37.6812990" lon="-3.5449890">
        <ele>815.8</ele>
        <time>2020-07-16T09:17:24Z</time>
      </trkpt>
      <trkpt lat="37.6811190" lon="-3.5453410">
        <ele>814.6</ele>
        <time>2020-07-16T09:17:27Z</time>
      </trkpt>
      <trkpt lat="37.6809280" lon="-3.5457090">
        <ele>813.0</ele>
        <time>2020-07-16T09:17:30Z</time>
      </trkpt>
      <trkpt lat="37.6808240" lon="-3.5459820">
        <ele>811.6</ele>
        <time>2020-07-16T09:17:32Z</time>
      </trkpt>
      <trkpt lat="37.6807850" lon="-3.5461120">
        <ele>811.0</ele>
        <time>2020-07-16T09:17:33Z</time>
      </trkpt>
      <trkpt lat="37.6807450" lon="-3.5462610">
        <ele>810.4</ele>
        <time>2020-07-16T09:17:34Z</time>
      </trkpt>
      <trkpt lat="37.6806680" lon="-3.5465540">
        <ele>809.0</ele>
        <time>2020-07-16T09:17:36Z</time>
      </trkpt>
      <trkpt lat="37.6805590" lon="-3.5469670">
        <ele>807.6</ele>
        <time>2020-07-16T09:17:39Z</time>
      </trkpt>
      <trkpt lat="37.6804910" lon="-3.5472270">
        <ele>806.6</ele>
        <time>2020-07-16T09:17:41Z</time>
      </trkpt>
      <trkpt lat="37.6803750" lon="-3.5477290">
        <ele>805.8</ele>
        <time>2020-07-16T09:17:45Z</time>
      </trkpt>
      <trkpt lat="37.6803630" lon="-3.5478570">
        <ele>805.6</ele>
        <time>2020-07-16T09:17:46Z</time>
      </trkpt>
      <trkpt lat="37.6803620" lon="-3.5479970">
        <ele>805.4</ele>
        <time>2020-07-16T09:17:47Z</time>
      </trkpt>
      <trkpt lat="37.6803730" lon="-3.5482690">
        <ele>804.8</ele>
        <time>2020-07-16T09:17:49Z</time>
      </trkpt>
      <trkpt lat="37.6803720" lon="-3.5484040">
        <ele>804.6</ele>
        <time>2020-07-16T09:17:50Z</time>
      </trkpt>
      <trkpt lat="37.6803320" lon="-3.5487880">
        <ele>803.8</ele>
        <time>2020-07-16T09:17:53Z</time>
      </trkpt>
      <trkpt lat="37.6803070" lon="-3.5489420">
        <ele>803.4</ele>
        <time>2020-07-16T09:17:54Z</time>
      </trkpt>
      <trkpt lat="37.6802480" lon="-3.5493580">
        <ele>802.2</ele>
        <time>2020-07-16T09:17:57Z</time>
      </trkpt>
      <trkpt lat="37.6802360" lon="-3.5496380">
        <ele>801.4</ele>
        <time>2020-07-16T09:17:59Z</time>
      </trkpt>
      <trkpt lat="37.6802280" lon="-3.5497770">
        <ele>801.0</ele>
        <time>2020-07-16T09:18:00Z</time>
      </trkpt>
      <trkpt lat="37.6802090" lon="-3.5501720">
        <ele>800.0</ele>
        <time>2020-07-16T09:18:03Z</time>
      </trkpt>
      <trkpt lat="37.6801920" lon="-3.5505700">
        <ele>799.6</ele>
        <time>2020-07-16T09:18:06Z</time>
      </trkpt>
      <trkpt lat="37.6801840" lon="-3.5508190">
        <ele>799.4</ele>
        <time>2020-07-16T09:18:08Z</time>
      </trkpt>
      <trkpt lat="37.6801660" lon="-3.5512200">
        <ele>799.2</ele>
        <time>2020-07-16T09:18:11Z</time>
      </trkpt>
      <trkpt lat="37.6801640" lon="-3.5513540">
        <ele>798.8</ele>
        <time>2020-07-16T09:18:12Z</time>
      </trkpt>
      <trkpt lat="37.6801680" lon="-3.5516210">
        <ele>798.4</ele>
        <time>2020-07-16T09:18:14Z</time>
      </trkpt>
      <trkpt lat="37.6801890" lon="-3.5518840">
        <ele>797.4</ele>
        <time>2020-07-16T09:18:16Z</time>
      </trkpt>
      <trkpt lat="37.6802440" lon="-3.5523030">
        <ele>796.2</ele>
        <time>2020-07-16T09:18:19Z</time>
      </trkpt>
      <trkpt lat="37.6803070" lon="-3.5527190">
        <ele>794.8</ele>
        <time>2020-07-16T09:18:22Z</time>
      </trkpt>
      <trkpt lat="37.6803560" lon="-3.5530170">
        <ele>793.8</ele>
        <time>2020-07-16T09:18:24Z</time>
      </trkpt>
      <trkpt lat="37.6804250" lon="-3.5533060">
        <ele>792.6</ele>
        <time>2020-07-16T09:18:26Z</time>
      </trkpt>
      <trkpt lat="37.6805400" lon="-3.5537330">
        <ele>791.2</ele>
        <time>2020-07-16T09:18:29Z</time>
      </trkpt>
      <trkpt lat="37.6805600" lon="-3.5538850">
        <ele>790.8</ele>
        <time>2020-07-16T09:18:30Z</time>
      </trkpt>
      <trkpt lat="37.6805600" lon="-3.5541860">
        <ele>790.0</ele>
        <time>2020-07-16T09:18:32Z</time>
      </trkpt>
      <trkpt lat="37.6805440" lon="-3.5543230">
        <ele>789.6</ele>
        <time>2020-07-16T09:18:33Z</time>
      </trkpt>
      <trkpt lat="37.6804940" lon="-3.5546230">
        <ele>789.0</ele>
        <time>2020-07-16T09:18:35Z</time>
      </trkpt>
      <trkpt lat="37.6804270" lon="-3.5550300">
        <ele>788.2</ele>
        <time>2020-07-16T09:18:38Z</time>
      </trkpt>
      <trkpt lat="37.6804030" lon="-3.5551810">
        <ele>788.0</ele>
        <time>2020-07-16T09:18:39Z</time>
      </trkpt>
      <trkpt lat="37.6803260" lon="-3.5558570">
        <ele>786.8</ele>
        <time>2020-07-16T09:18:44Z</time>
      </trkpt>
      <trkpt lat="37.6803230" lon="-3.5559840">
        <ele>786.8</ele>
        <time>2020-07-16T09:18:45Z</time>
      </trkpt>
      <trkpt lat="37.6803460" lon="-3.5566330">
        <ele>785.6</ele>
        <time>2020-07-16T09:18:50Z</time>
      </trkpt>
      <trkpt lat="37.6803540" lon="-3.5567570">
        <ele>785.6</ele>
        <time>2020-07-16T09:18:51Z</time>
      </trkpt>
      <trkpt lat="37.6803450" lon="-3.5574750">
        <ele>784.8</ele>
        <time>2020-07-16T09:18:57Z</time>
      </trkpt>
      <trkpt lat="37.6803240" lon="-3.5575650">
        <ele>784.6</ele>
        <time>2020-07-16T09:18:58Z</time>
      </trkpt>
      <trkpt lat="37.6802850" lon="-3.5576930">
        <ele>784.6</ele>
        <time>2020-07-16T09:18:59Z</time>
      </trkpt>
      <trkpt lat="37.6802000" lon="-3.5578930">
        <ele>784.2</ele>
        <time>2020-07-16T09:19:01Z</time>
      </trkpt>
      <trkpt lat="37.6801540" lon="-3.5579890">
        <ele>784.0</ele>
        <time>2020-07-16T09:19:02Z</time>
      </trkpt>
      <trkpt lat="37.6799370" lon="-3.5584660">
        <ele>783.4</ele>
        <time>2020-07-16T09:19:07Z</time>
      </trkpt>
      <trkpt lat="37.6799100" lon="-3.5585510">
        <ele>783.4</ele>
        <time>2020-07-16T09:19:08Z</time>
      </trkpt>
      <trkpt lat="37.6798680" lon="-3.5587620">
        <ele>783.0</ele>
        <time>2020-07-16T09:19:10Z</time>
      </trkpt>
      <trkpt lat="37.6798460" lon="-3.5589720">
        <ele>782.6</ele>
        <time>2020-07-16T09:19:12Z</time>
      </trkpt>
      <trkpt lat="37.6797980" lon="-3.5596460">
        <ele>782.6</ele>
        <time>2020-07-16T09:19:19Z</time>
      </trkpt>
      <trkpt lat="37.6797870" lon="-3.5597360">
        <ele>782.4</ele>
        <time>2020-07-16T09:19:20Z</time>
      </trkpt>
      <trkpt lat="37.6797020" lon="-3.5601740">
        <ele>782.6</ele>
        <time>2020-07-16T09:19:25Z</time>
      </trkpt>
      <trkpt lat="37.6795330" lon="-3.5607990">
        <ele>782.4</ele>
        <time>2020-07-16T09:19:33Z</time>
      </trkpt>
      <trkpt lat="37.6795110" lon="-3.5611090">
        <ele>782.2</ele>
        <time>2020-07-16T09:19:37Z</time>
      </trkpt>
      <trkpt lat="37.6795170" lon="-3.5611780">
        <ele>782.0</ele>
        <time>2020-07-16T09:19:38Z</time>
      </trkpt>
      <trkpt lat="37.6795890" lon="-3.5617560">
        <ele>781.8</ele>
        <time>2020-07-16T09:19:46Z</time>
      </trkpt>
      <trkpt lat="37.6795330" lon="-3.5620680">
        <ele>782.0</ele>
        <time>2020-07-16T09:19:51Z</time>
      </trkpt>
      <trkpt lat="37.6794510" lon="-3.5622330">
        <ele>782.0</ele>
        <time>2020-07-16T09:19:54Z</time>
      </trkpt>
      <trkpt lat="37.6793750" lon="-3.5624010">
        <ele>782.0</ele>
        <time>2020-07-16T09:19:57Z</time>
      </trkpt>
      <trkpt lat="37.6793620" lon="-3.5624440">
        <ele>782.2</ele>
        <time>2020-07-16T09:19:58Z</time>
      </trkpt>
      <trkpt lat="37.6793240" lon="-3.5626890">
        <ele>782.2</ele>
        <time>2020-07-16T09:20:02Z</time>
      </trkpt>
      <trkpt lat="37.6793270" lon="-3.5628730">
        <ele>782.2</ele>
        <time>2020-07-16T09:20:06Z</time>
      </trkpt>
      <trkpt lat="37.6793340" lon="-3.5629130">
        <ele>782.2</ele>
        <time>2020-07-16T09:20:07Z</time>
      </trkpt>
      <trkpt lat="37.6793880" lon="-3.5631160">
        <ele>782.0</ele>
        <time>2020-07-16T09:20:13Z</time>
      </trkpt>
      <trkpt lat="37.6795000" lon="-3.5633820">
        <ele>783.2</ele>
        <time>2020-07-16T09:20:21Z</time>
      </trkpt>
      <trkpt lat="37.6795280" lon="-3.5634390">
        <ele>783.4</ele>
        <time>2020-07-16T09:20:23Z</time>
      </trkpt>
      <trkpt lat="37.6796140" lon="-3.5636320">
        <ele>784.4</ele>
        <time>2020-07-16T09:20:29Z</time>
      </trkpt>
      <trkpt lat="37.6796460" lon="-3.5636870">
        <ele>784.6</ele>
        <time>2020-07-16T09:20:31Z</time>
      </trkpt>
      <trkpt lat="37.6797420" lon="-3.5638280">
        <ele>785.2</ele>
        <time>2020-07-16T09:20:36Z</time>
      </trkpt>
      <trkpt lat="37.6797900" lon="-3.5638650">
        <ele>785.6</ele>
        <time>2020-07-16T09:20:38Z</time>
      </trkpt>
      <trkpt lat="37.6798830" lon="-3.5639540">
        <ele>786.4</ele>
        <time>2020-07-16T09:20:42Z</time>
      </trkpt>
      <trkpt lat="37.6799030" lon="-3.5639730">
        <ele>786.8</ele>
        <time>2020-07-16T09:20:43Z</time>
      </trkpt>
      <trkpt lat="37.6800280" lon="-3.5641330">
        <ele>788.0</ele>
        <time>2020-07-16T09:20:49Z</time>
      </trkpt>
      <trkpt lat="37.6800650" lon="-3.5641920">
        <ele>788.4</ele>
        <time>2020-07-16T09:20:51Z</time>
      </trkpt>
      <trkpt lat="37.6801760" lon="-3.5643690">
        <ele>789.0</ele>
        <time>2020-07-16T09:20:57Z</time>
      </trkpt>
      <trkpt lat="37.6802970" lon="-3.5645360">
        <ele>789.8</ele>
        <time>2020-07-16T09:21:03Z</time>
      </trkpt>
      <trkpt lat="37.6803180" lon="-3.5645690">
        <ele>790.0</ele>
        <time>2020-07-16T09:21:04Z</time>
      </trkpt>
      <trkpt lat="37.6804460" lon="-3.5647130">
        <ele>791.0</ele>
        <time>2020-07-16T09:21:10Z</time>
      </trkpt>
      <trkpt lat="37.6804840" lon="-3.5647190">
        <ele>791.2</ele>
        <time>2020-07-16T09:21:11Z</time>
      </trkpt>
      <trkpt lat="37.6805670" lon="-3.5646880">
        <ele>791.6</ele>
        <time>2020-07-16T09:21:14Z</time>
      </trkpt>
      <trkpt lat="37.6807370" lon="-3.5646880">
        <ele>792.2</ele>
        <time>2020-07-16T09:21:20Z</time>
      </trkpt>
      <trkpt lat="37.6807630" lon="-3.5646910">
        <ele>792.2</ele>
        <time>2020-07-16T09:21:21Z</time>
      </trkpt>
      <trkpt lat="37.6808510" lon="-3.5647060">
        <ele>792.8</ele>
        <time>2020-07-16T09:21:26Z</time>
      </trkpt>
      <trkpt lat="37.6808720" lon="-3.5646770">
        <ele>793.0</ele>
        <time>2020-07-16T09:21:29Z</time>
      </trkpt>
      <trkpt lat="37.6808590" lon="-3.5646690">
        <ele>793.2</ele>
        <time>2020-07-16T09:21:30Z</time>
      </trkpt>
      <trkpt lat="37.6808020" lon="-3.5646690">
        <ele>793.2</ele>
        <time>2020-07-16T09:21:33Z</time>
      </trkpt>
      <trkpt lat="37.6807750" lon="-3.5646760">
        <ele>793.2</ele>
        <time>2020-07-16T09:21:34Z</time>
      </trkpt>
      <trkpt lat="37.6807580" lon="-3.5646890">
        <ele>793.2</ele>
        <time>2020-07-16T09:21:35Z</time>
      </trkpt>
      <trkpt lat="37.6807600" lon="-3.5647100">
        <ele>793.2</ele>
        <time>2020-07-16T09:21:36Z</time>
      </trkpt>
      <trkpt lat="37.6807600" lon="-3.5647090">
        <ele>793.0</ele>
        <time>2020-07-16T09:21:38Z</time>
      </trkpt>
      <trkpt lat="37.6809130" lon="-3.5645790">
        <ele>792.8</ele>
        <time>2020-07-16T09:33:14Z</time>
      </trkpt>
      <trkpt lat="37.6808930" lon="-3.5645830">
        <ele>792.8</ele>
        <time>2020-07-16T09:33:15Z</time>
      </trkpt>
      <trkpt lat="37.6808370" lon="-3.5645950">
        <ele>792.8</ele>
        <time>2020-07-16T09:33:17Z</time>
      </trkpt>
      <trkpt lat="37.6807100" lon="-3.5646260">
        <ele>792.6</ele>
        <time>2020-07-16T09:33:21Z</time>
      </trkpt>
      <trkpt lat="37.6806870" lon="-3.5646580">
        <ele>792.6</ele>
        <time>2020-07-16T09:33:22Z</time>
      </trkpt>
      <trkpt lat="37.6806760" lon="-3.5647640">
        <ele>792.2</ele>
        <time>2020-07-16T09:33:25Z</time>
      </trkpt>
      <trkpt lat="37.6806860" lon="-3.5647990">
        <ele>792.2</ele>
        <time>2020-07-16T09:33:26Z</time>
      </trkpt>
      <trkpt lat="37.6807450" lon="-3.5648970">
        <ele>792.2</ele>
        <time>2020-07-16T09:33:29Z</time>
      </trkpt>
      <trkpt lat="37.6808100" lon="-3.5649970">
        <ele>792.4</ele>
        <time>2020-07-16T09:33:32Z</time>
      </trkpt>
      <trkpt lat="37.6808690" lon="-3.5650990">
        <ele>792.6</ele>
        <time>2020-07-16T09:33:35Z</time>
      </trkpt>
      <trkpt lat="37.6808920" lon="-3.5651280">
        <ele>792.8</ele>
        <time>2020-07-16T09:33:36Z</time>
      </trkpt>
      <trkpt lat="37.6809820" lon="-3.5652530">
        <ele>793.0</ele>
        <time>2020-07-16T09:33:40Z</time>
      </trkpt>
      <trkpt lat="37.6810270" lon="-3.5653160">
        <ele>793.2</ele>
        <time>2020-07-16T09:33:42Z</time>
      </trkpt>
      <trkpt lat="37.6810950" lon="-3.5654000">
        <ele>793.6</ele>
        <time>2020-07-16T09:33:45Z</time>
      </trkpt>
      <trkpt lat="37.6811150" lon="-3.5654280">
        <ele>793.6</ele>
        <time>2020-07-16T09:33:46Z</time>
      </trkpt>
      <trkpt lat="37.6811920" lon="-3.5655050">
        <ele>794.0</ele>
        <time>2020-07-16T09:33:49Z</time>
      </trkpt>
      <trkpt lat="37.6812680" lon="-3.5655810">
        <ele>794.4</ele>
        <time>2020-07-16T09:33:52Z</time>
      </trkpt>
      <trkpt lat="37.6812940" lon="-3.5656060">
        <ele>794.4</ele>
        <time>2020-07-16T09:33:53Z</time>
      </trkpt>
      <trkpt lat="37.6813770" lon="-3.5656810">
        <ele>794.8</ele>
        <time>2020-07-16T09:33:56Z</time>
      </trkpt>
      <trkpt lat="37.6815240" lon="-3.5657900">
        <ele>795.2</ele>
        <time>2020-07-16T09:34:01Z</time>
      </trkpt>
      <trkpt lat="37.6815860" lon="-3.5658270">
        <ele>795.4</ele>
        <time>2020-07-16T09:34:03Z</time>
      </trkpt>
      <trkpt lat="37.6818130" lon="-3.5659590">
        <ele>796.0</ele>
        <time>2020-07-16T09:34:10Z</time>
      </trkpt>
      <trkpt lat="37.6819120" lon="-3.5660200">
        <ele>796.4</ele>
        <time>2020-07-16T09:34:13Z</time>
      </trkpt>
      <trkpt lat="37.6819500" lon="-3.5660410">
        <ele>796.4</ele>
        <time>2020-07-16T09:34:14Z</time>
      </trkpt>
      <trkpt lat="37.6822480" lon="-3.5662510">
        <ele>797.2</ele>
        <time>2020-07-16T09:34:23Z</time>
      </trkpt>
      <trkpt lat="37.6823710" lon="-3.5663680">
        <ele>797.4</ele>
        <time>2020-07-16T09:34:27Z</time>
      </trkpt>
      <trkpt lat="37.6824760" lon="-3.5665200">
        <ele>797.8</ele>
        <time>2020-07-16T09:34:31Z</time>
      </trkpt>
      <trkpt lat="37.6826070" lon="-3.5668000">
        <ele>797.8</ele>
        <time>2020-07-16T09:34:37Z</time>
      </trkpt>
      <trkpt lat="37.6826510" lon="-3.5669000">
        <ele>797.8</ele>
        <time>2020-07-16T09:34:39Z</time>
      </trkpt>
      <trkpt lat="37.6828500" lon="-3.5673410">
        <ele>798.0</ele>
        <time>2020-07-16T09:34:48Z</time>
      </trkpt>
      <trkpt lat="37.6828750" lon="-3.5673850">
        <ele>798.0</ele>
        <time>2020-07-16T09:34:49Z</time>
      </trkpt>
      <trkpt lat="37.6829230" lon="-3.5674690">
        <ele>798.0</ele>
        <time>2020-07-16T09:34:51Z</time>
      </trkpt>
      <trkpt lat="37.6830840" lon="-3.5677060">
        <ele>798.0</ele>
        <time>2020-07-16T09:34:57Z</time>
      </trkpt>
      <trkpt lat="37.6832350" lon="-3.5678660">
        <ele>798.6</ele>
        <time>2020-07-16T09:35:02Z</time>
      </trkpt>
      <trkpt lat="37.6833300" lon="-3.5679480">
        <ele>798.8</ele>
        <time>2020-07-16T09:35:05Z</time>
      </trkpt>
      <trkpt lat="37.6835770" lon="-3.5681230">
        <ele>799.8</ele>
        <time>2020-07-16T09:35:13Z</time>
      </trkpt>
      <trkpt lat="37.6836100" lon="-3.5681420">
        <ele>799.8</ele>
        <time>2020-07-16T09:35:14Z</time>
      </trkpt>
      <trkpt lat="37.6837890" lon="-3.5682740">
        <ele>800.6</ele>
        <time>2020-07-16T09:35:20Z</time>
      </trkpt>
      <trkpt lat="37.6838510" lon="-3.5683150">
        <ele>800.6</ele>
        <time>2020-07-16T09:35:22Z</time>
      </trkpt>
      <trkpt lat="37.6839160" lon="-3.5683600">
        <ele>800.8</ele>
        <time>2020-07-16T09:35:24Z</time>
      </trkpt>
      <trkpt lat="37.6841360" lon="-3.5685250">
        <ele>801.4</ele>
        <time>2020-07-16T09:35:31Z</time>
      </trkpt>
      <trkpt lat="37.6841990" lon="-3.5685630">
        <ele>801.8</ele>
        <time>2020-07-16T09:35:33Z</time>
      </trkpt>
      <trkpt lat="37.6843540" lon="-3.5686660">
        <ele>802.0</ele>
        <time>2020-07-16T09:35:37Z</time>
      </trkpt>
      <trkpt lat="37.6843910" lon="-3.5686950">
        <ele>802.0</ele>
        <time>2020-07-16T09:35:38Z</time>
      </trkpt>
      <trkpt lat="37.6845570" lon="-3.5688050">
        <ele>802.8</ele>
        <time>2020-07-16T09:35:42Z</time>
      </trkpt>
      <trkpt lat="37.6845910" lon="-3.5688280">
        <ele>802.8</ele>
        <time>2020-07-16T09:35:43Z</time>
      </trkpt>
      <trkpt lat="37.6846690" lon="-3.5688810">
        <ele>803.2</ele>
        <time>2020-07-16T09:35:45Z</time>
      </trkpt>
      <trkpt lat="37.6848740" lon="-3.5690270">
        <ele>804.0</ele>
        <time>2020-07-16T09:35:51Z</time>
      </trkpt>
      <trkpt lat="37.6849720" lon="-3.5690870">
        <ele>804.6</ele>
        <time>2020-07-16T09:35:54Z</time>
      </trkpt>
      <trkpt lat="37.6850630" lon="-3.5691480">
        <ele>805.2</ele>
        <time>2020-07-16T09:35:57Z</time>
      </trkpt>
      <trkpt lat="37.6852040" lon="-3.5692530">
        <ele>806.2</ele>
        <time>2020-07-16T09:36:02Z</time>
      </trkpt>
      <trkpt lat="37.6853440" lon="-3.5693510">
        <ele>807.2</ele>
        <time>2020-07-16T09:36:07Z</time>
      </trkpt>
      <trkpt lat="37.6854790" lon="-3.5694540">
        <ele>808.2</ele>
        <time>2020-07-16T09:36:12Z</time>
      </trkpt>
      <trkpt lat="37.6855020" lon="-3.5694740">
        <ele>808.4</ele>
        <time>2020-07-16T09:36:13Z</time>
      </trkpt>
      <trkpt lat="37.6856310" lon="-3.5695740">
        <ele>809.6</ele>
        <time>2020-07-16T09:36:18Z</time>
      </trkpt>
      <trkpt lat="37.6857250" lon="-3.5696610">
        <ele>810.4</ele>
        <time>2020-07-16T09:36:22Z</time>
      </trkpt>
      <trkpt lat="37.6857480" lon="-3.5696790">
        <ele>810.6</ele>
        <time>2020-07-16T09:36:23Z</time>
      </trkpt>
      <trkpt lat="37.6858570" lon="-3.5697880">
        <ele>811.6</ele>
        <time>2020-07-16T09:36:28Z</time>
      </trkpt>
      <trkpt lat="37.6858830" lon="-3.5698130">
        <ele>811.8</ele>
        <time>2020-07-16T09:36:29Z</time>
      </trkpt>
      <trkpt lat="37.6859860" lon="-3.5699380">
        <ele>812.8</ele>
        <time>2020-07-16T09:36:34Z</time>
      </trkpt>
      <trkpt lat="37.6860480" lon="-3.5700110">
        <ele>813.4</ele>
        <time>2020-07-16T09:36:37Z</time>
      </trkpt>
      <trkpt lat="37.6860840" lon="-3.5700570">
        <ele>814.0</ele>
        <time>2020-07-16T09:36:39Z</time>
      </trkpt>
      <trkpt lat="37.6861510" lon="-3.5701490">
        <ele>815.0</ele>
        <time>2020-07-16T09:36:43Z</time>
      </trkpt>
      <trkpt lat="37.6861830" lon="-3.5702020">
        <ele>815.8</ele>
        <time>2020-07-16T09:36:45Z</time>
      </trkpt>
      <trkpt lat="37.6862130" lon="-3.5702590">
        <ele>816.2</ele>
        <time>2020-07-16T09:36:47Z</time>
      </trkpt>
      <trkpt lat="37.6862800" lon="-3.5703970">
        <ele>817.0</ele>
        <time>2020-07-16T09:36:52Z</time>
      </trkpt>
      <trkpt lat="37.6862930" lon="-3.5704230">
        <ele>817.2</ele>
        <time>2020-07-16T09:36:53Z</time>
      </trkpt>
      <trkpt lat="37.6863550" lon="-3.5705510">
        <ele>818.2</ele>
        <time>2020-07-16T09:36:58Z</time>
      </trkpt>
      <trkpt lat="37.6864080" lon="-3.5706880">
        <ele>819.2</ele>
        <time>2020-07-16T09:37:03Z</time>
      </trkpt>
      <trkpt lat="37.6864500" lon="-3.5708270">
        <ele>820.2</ele>
        <time>2020-07-16T09:37:08Z</time>
      </trkpt>
      <trkpt lat="37.6864860" lon="-3.5709370">
        <ele>821.0</ele>
        <time>2020-07-16T09:37:12Z</time>
      </trkpt>
      <trkpt lat="37.6865090" lon="-3.5710220">
        <ele>821.4</ele>
        <time>2020-07-16T09:37:15Z</time>
      </trkpt>
      <trkpt lat="37.6865380" lon="-3.5711370">
        <ele>822.4</ele>
        <time>2020-07-16T09:37:19Z</time>
      </trkpt>
      <trkpt lat="37.6865550" lon="-3.5712250">
        <ele>823.0</ele>
        <time>2020-07-16T09:37:22Z</time>
      </trkpt>
      <trkpt lat="37.6865670" lon="-3.5712880">
        <ele>823.4</ele>
        <time>2020-07-16T09:37:24Z</time>
      </trkpt>
      <trkpt lat="37.6865970" lon="-3.5714680">
        <ele>824.6</ele>
        <time>2020-07-16T09:37:30Z</time>
      </trkpt>
      <trkpt lat="37.6866000" lon="-3.5714990">
        <ele>824.8</ele>
        <time>2020-07-16T09:37:31Z</time>
      </trkpt>
      <trkpt lat="37.6866130" lon="-3.5716810">
        <ele>825.6</ele>
        <time>2020-07-16T09:37:37Z</time>
      </trkpt>
      <trkpt lat="37.6866180" lon="-3.5717990">
        <ele>826.6</ele>
        <time>2020-07-16T09:37:41Z</time>
      </trkpt>
      <trkpt lat="37.6866180" lon="-3.5718560">
        <ele>827.2</ele>
        <time>2020-07-16T09:37:43Z</time>
      </trkpt>
      <trkpt lat="37.6866130" lon="-3.5719460">
        <ele>827.6</ele>
        <time>2020-07-16T09:37:46Z</time>
      </trkpt>
      <trkpt lat="37.6866100" lon="-3.5721220">
        <ele>828.6</ele>
        <time>2020-07-16T09:37:52Z</time>
      </trkpt>
      <trkpt lat="37.6866080" lon="-3.5721500">
        <ele>828.8</ele>
        <time>2020-07-16T09:37:53Z</time>
      </trkpt>
      <trkpt lat="37.6865880" lon="-3.5723300">
        <ele>830.0</ele>
        <time>2020-07-16T09:37:59Z</time>
      </trkpt>
      <trkpt lat="37.6865820" lon="-3.5723890">
        <ele>830.6</ele>
        <time>2020-07-16T09:38:01Z</time>
      </trkpt>
      <trkpt lat="37.6865780" lon="-3.5724180">
        <ele>831.0</ele>
        <time>2020-07-16T09:38:02Z</time>
      </trkpt>
      <trkpt lat="37.6865570" lon="-3.5725630">
        <ele>832.0</ele>
        <time>2020-07-16T09:38:07Z</time>
      </trkpt>
      <trkpt lat="37.6865400" lon="-3.5726760">
        <ele>832.4</ele>
        <time>2020-07-16T09:38:11Z</time>
      </trkpt>
      <trkpt lat="37.6865240" lon="-3.5728200">
        <ele>833.0</ele>
        <time>2020-07-16T09:38:16Z</time>
      </trkpt>
      <trkpt lat="37.6865090" lon="-3.5729370">
        <ele>833.6</ele>
        <time>2020-07-16T09:38:20Z</time>
      </trkpt>
      <trkpt lat="37.6865000" lon="-3.5730220">
        <ele>834.2</ele>
        <time>2020-07-16T09:38:23Z</time>
      </trkpt>
      <trkpt lat="37.6864840" lon="-3.5731660">
        <ele>835.2</ele>
        <time>2020-07-16T09:38:28Z</time>
      </trkpt>
      <trkpt lat="37.6864800" lon="-3.5732310">
        <ele>835.6</ele>
        <time>2020-07-16T09:38:30Z</time>
      </trkpt>
      <trkpt lat="37.6864770" lon="-3.5733720">
        <ele>836.4</ele>
        <time>2020-07-16T09:38:35Z</time>
      </trkpt>
      <trkpt lat="37.6864860" lon="-3.5735750">
        <ele>837.4</ele>
        <time>2020-07-16T09:38:42Z</time>
      </trkpt>
      <trkpt lat="37.6865090" lon="-3.5736920">
        <ele>838.6</ele>
        <time>2020-07-16T09:38:46Z</time>
      </trkpt>
      <trkpt lat="37.6865310" lon="-3.5738070">
        <ele>839.4</ele>
        <time>2020-07-16T09:38:50Z</time>
      </trkpt>
      <trkpt lat="37.6865380" lon="-3.5738360">
        <ele>839.6</ele>
        <time>2020-07-16T09:38:51Z</time>
      </trkpt>
      <trkpt lat="37.6866060" lon="-3.5740510">
        <ele>840.6</ele>
        <time>2020-07-16T09:38:58Z</time>
      </trkpt>
      <trkpt lat="37.6866140" lon="-3.5740710">
        <ele>840.8</ele>
        <time>2020-07-16T09:38:59Z</time>
      </trkpt>
      <trkpt lat="37.6866840" lon="-3.5742250">
        <ele>841.8</ele>
        <time>2020-07-16T09:39:04Z</time>
      </trkpt>
      <trkpt lat="37.6867250" lon="-3.5743090">
        <ele>842.8</ele>
        <time>2020-07-16T09:39:07Z</time>
      </trkpt>
      <trkpt lat="37.6867380" lon="-3.5743340">
        <ele>843.0</ele>
        <time>2020-07-16T09:39:08Z</time>
      </trkpt>
      <trkpt lat="37.6868000" lon="-3.5744410">
        <ele>844.2</ele>
        <time>2020-07-16T09:39:12Z</time>
      </trkpt>
      <trkpt lat="37.6868420" lon="-3.5745220">
        <ele>844.8</ele>
        <time>2020-07-16T09:39:15Z</time>
      </trkpt>
      <trkpt lat="37.6868710" lon="-3.5745740">
        <ele>845.2</ele>
        <time>2020-07-16T09:39:17Z</time>
      </trkpt>
      <trkpt lat="37.6869490" lon="-3.5746970">
        <ele>846.4</ele>
        <time>2020-07-16T09:39:22Z</time>
      </trkpt>
      <trkpt lat="37.6869970" lon="-3.5747770">
        <ele>846.8</ele>
        <time>2020-07-16T09:39:25Z</time>
      </trkpt>
      <trkpt lat="37.6870390" lon="-3.5748530">
        <ele>847.6</ele>
        <time>2020-07-16T09:39:28Z</time>
      </trkpt>
      <trkpt lat="37.6870880" lon="-3.5749330">
        <ele>848.6</ele>
        <time>2020-07-16T09:39:31Z</time>
      </trkpt>
      <trkpt lat="37.6871430" lon="-3.5750390">
        <ele>849.6</ele>
        <time>2020-07-16T09:39:35Z</time>
      </trkpt>
      <trkpt lat="37.6872080" lon="-3.5752120">
        <ele>850.8</ele>
        <time>2020-07-16T09:39:41Z</time>
      </trkpt>
      <trkpt lat="37.6872460" lon="-3.5753300">
        <ele>851.4</ele>
        <time>2020-07-16T09:39:45Z</time>
      </trkpt>
      <trkpt lat="37.6872630" lon="-3.5753920">
        <ele>852.0</ele>
        <time>2020-07-16T09:39:47Z</time>
      </trkpt>
      <trkpt lat="37.6872940" lon="-3.5755500">
        <ele>853.0</ele>
        <time>2020-07-16T09:39:52Z</time>
      </trkpt>
      <trkpt lat="37.6873090" lon="-3.5756470">
        <ele>853.8</ele>
        <time>2020-07-16T09:39:55Z</time>
      </trkpt>
      <trkpt lat="37.6873150" lon="-3.5757110">
        <ele>854.2</ele>
        <time>2020-07-16T09:39:57Z</time>
      </trkpt>
      <trkpt lat="37.6873210" lon="-3.5759360">
        <ele>855.4</ele>
        <time>2020-07-16T09:40:04Z</time>
      </trkpt>
      <trkpt lat="37.6873190" lon="-3.5759700">
        <ele>855.6</ele>
        <time>2020-07-16T09:40:05Z</time>
      </trkpt>
      <trkpt lat="37.6873150" lon="-3.5760950">
        <ele>856.4</ele>
        <time>2020-07-16T09:40:09Z</time>
      </trkpt>
      <trkpt lat="37.6872910" lon="-3.5762800">
        <ele>857.8</ele>
        <time>2020-07-16T09:40:15Z</time>
      </trkpt>
      <trkpt lat="37.6872600" lon="-3.5763990">
        <ele>858.8</ele>
        <time>2020-07-16T09:40:19Z</time>
      </trkpt>
      <trkpt lat="37.6872010" lon="-3.5765780">
        <ele>860.0</ele>
        <time>2020-07-16T09:40:25Z</time>
      </trkpt>
      <trkpt lat="37.6871290" lon="-3.5767550">
        <ele>861.0</ele>
        <time>2020-07-16T09:40:31Z</time>
      </trkpt>
      <trkpt lat="37.6870590" lon="-3.5768980">
        <ele>862.0</ele>
        <time>2020-07-16T09:40:36Z</time>
      </trkpt>
      <trkpt lat="37.6869790" lon="-3.5770290">
        <ele>863.2</ele>
        <time>2020-07-16T09:40:41Z</time>
      </trkpt>
      <trkpt lat="37.6868760" lon="-3.5771890">
        <ele>864.4</ele>
        <time>2020-07-16T09:40:47Z</time>
      </trkpt>
      <trkpt lat="37.6867200" lon="-3.5774070">
        <ele>865.4</ele>
        <time>2020-07-16T09:40:55Z</time>
      </trkpt>
      <trkpt lat="37.6866800" lon="-3.5774610">
        <ele>865.8</ele>
        <time>2020-07-16T09:40:57Z</time>
      </trkpt>
      <trkpt lat="37.6866390" lon="-3.5775150">
        <ele>866.4</ele>
        <time>2020-07-16T09:40:59Z</time>
      </trkpt>
      <trkpt lat="37.6864890" lon="-3.5777140">
        <ele>867.6</ele>
        <time>2020-07-16T09:41:06Z</time>
      </trkpt>
      <trkpt lat="37.6864770" lon="-3.5777280">
        <ele>867.6</ele>
        <time>2020-07-16T09:41:07Z</time>
      </trkpt>
      <trkpt lat="37.6862640" lon="-3.5780370">
        <ele>868.6</ele>
        <time>2020-07-16T09:41:16Z</time>
      </trkpt>
      <trkpt lat="37.6862380" lon="-3.5780770">
        <ele>868.6</ele>
        <time>2020-07-16T09:41:17Z</time>
      </trkpt>
      <trkpt lat="37.6861610" lon="-3.5781980">
        <ele>868.8</ele>
        <time>2020-07-16T09:41:20Z</time>
      </trkpt>
      <trkpt lat="37.6860910" lon="-3.5783380">
        <ele>869.0</ele>
        <time>2020-07-16T09:41:23Z</time>
      </trkpt>
      <trkpt lat="37.6860680" lon="-3.5783950">
        <ele>869.2</ele>
        <time>2020-07-16T09:41:24Z</time>
      </trkpt>
      <trkpt lat="37.6859980" lon="-3.5786220">
        <ele>869.0</ele>
        <time>2020-07-16T09:41:28Z</time>
      </trkpt>
      <trkpt lat="37.6859730" lon="-3.5787620">
        <ele>869.0</ele>
        <time>2020-07-16T09:41:30Z</time>
      </trkpt>
      <trkpt lat="37.6859640" lon="-3.5788340">
        <ele>869.0</ele>
        <time>2020-07-16T09:41:31Z</time>
      </trkpt>
      <trkpt lat="37.6859510" lon="-3.5790400">
        <ele>869.0</ele>
        <time>2020-07-16T09:41:34Z</time>
      </trkpt>
      <trkpt lat="37.6859570" lon="-3.5793060">
        <ele>868.8</ele>
        <time>2020-07-16T09:41:37Z</time>
      </trkpt>
      <trkpt lat="37.6859920" lon="-3.5795810">
        <ele>867.8</ele>
        <time>2020-07-16T09:41:40Z</time>
      </trkpt>
      <trkpt lat="37.6860010" lon="-3.5796870">
        <ele>867.4</ele>
        <time>2020-07-16T09:41:41Z</time>
      </trkpt>
      <trkpt lat="37.6860100" lon="-3.5797920">
        <ele>867.0</ele>
        <time>2020-07-16T09:41:42Z</time>
      </trkpt>
      <trkpt lat="37.6860100" lon="-3.5800150">
        <ele>866.2</ele>
        <time>2020-07-16T09:41:44Z</time>
      </trkpt>
      <trkpt lat="37.6859800" lon="-3.5802540">
        <ele>865.2</ele>
        <time>2020-07-16T09:41:46Z</time>
      </trkpt>
      <trkpt lat="37.6858510" lon="-3.5806100">
        <ele>864.0</ele>
        <time>2020-07-16T09:41:49Z</time>
      </trkpt>
      <trkpt lat="37.6857130" lon="-3.5808220">
        <ele>863.0</ele>
        <time>2020-07-16T09:41:51Z</time>
      </trkpt>
      <trkpt lat="37.6855570" lon="-3.5810110">
        <ele>861.8</ele>
        <time>2020-07-16T09:41:53Z</time>
      </trkpt>
      <trkpt lat="37.6853720" lon="-3.5812200">
        <ele>860.4</ele>
        <time>2020-07-16T09:41:55Z</time>
      </trkpt>
      <trkpt lat="37.6852110" lon="-3.5814590">
        <ele>859.2</ele>
        <time>2020-07-16T09:41:57Z</time>
      </trkpt>
      <trkpt lat="37.6851580" lon="-3.5815780">
        <ele>858.4</ele>
        <time>2020-07-16T09:41:58Z</time>
      </trkpt>
      <trkpt lat="37.6851020" lon="-3.5817520">
        <ele>858.0</ele>
        <time>2020-07-16T09:41:59Z</time>
      </trkpt>
      <trkpt lat="37.6850650" lon="-3.5820870">
        <ele>856.6</ele>
        <time>2020-07-16T09:42:01Z</time>
      </trkpt>
      <trkpt lat="37.6851070" lon="-3.5824190">
        <ele>855.0</ele>
        <time>2020-07-16T09:42:03Z</time>
      </trkpt>
      <trkpt lat="37.6851480" lon="-3.5825750">
        <ele>854.0</ele>
        <time>2020-07-16T09:42:04Z</time>
      </trkpt>
      <trkpt lat="37.6852020" lon="-3.5827360">
        <ele>852.6</ele>
        <time>2020-07-16T09:42:05Z</time>
      </trkpt>
      <trkpt lat="37.6852600" lon="-3.5828980">
        <ele>851.6</ele>
        <time>2020-07-16T09:42:06Z</time>
      </trkpt>
      <trkpt lat="37.6853210" lon="-3.5830580">
        <ele>850.8</ele>
        <time>2020-07-16T09:42:07Z</time>
      </trkpt>
      <trkpt lat="37.6853760" lon="-3.5832040">
        <ele>850.2</ele>
        <time>2020-07-16T09:42:08Z</time>
      </trkpt>
      <trkpt lat="37.6854340" lon="-3.5833840">
        <ele>849.4</ele>
        <time>2020-07-16T09:42:09Z</time>
      </trkpt>
      <trkpt lat="37.6855200" lon="-3.5837220">
        <ele>847.6</ele>
        <time>2020-07-16T09:42:11Z</time>
      </trkpt>
      <trkpt lat="37.6855510" lon="-3.5838980">
        <ele>846.8</ele>
        <time>2020-07-16T09:42:12Z</time>
      </trkpt>
      <trkpt lat="37.6855700" lon="-3.5840580">
        <ele>846.2</ele>
        <time>2020-07-16T09:42:13Z</time>
      </trkpt>
      <trkpt lat="37.6855960" lon="-3.5844390">
        <ele>844.6</ele>
        <time>2020-07-16T09:42:15Z</time>
      </trkpt>
      <trkpt lat="37.6855990" lon="-3.5846160">
        <ele>844.0</ele>
        <time>2020-07-16T09:42:16Z</time>
      </trkpt>
      <trkpt lat="37.6855970" lon="-3.5848080">
        <ele>843.0</ele>
        <time>2020-07-16T09:42:17Z</time>
      </trkpt>
      <trkpt lat="37.6855920" lon="-3.5851710">
        <ele>841.8</ele>
        <time>2020-07-16T09:42:19Z</time>
      </trkpt>
      <trkpt lat="37.6855880" lon="-3.5855450">
        <ele>840.2</ele>
        <time>2020-07-16T09:42:21Z</time>
      </trkpt>
      <trkpt lat="37.6855810" lon="-3.5859050">
        <ele>837.8</ele>
        <time>2020-07-16T09:42:23Z</time>
      </trkpt>
      <trkpt lat="37.6855760" lon="-3.5861100">
        <ele>836.6</ele>
        <time>2020-07-16T09:42:24Z</time>
      </trkpt>
      <trkpt lat="37.6855730" lon="-3.5862970">
        <ele>835.4</ele>
        <time>2020-07-16T09:42:25Z</time>
      </trkpt>
      <trkpt lat="37.6855650" lon="-3.5866680">
        <ele>833.6</ele>
        <time>2020-07-16T09:42:27Z</time>
      </trkpt>
      <trkpt lat="37.6855590" lon="-3.5870460">
        <ele>831.8</ele>
        <time>2020-07-16T09:42:29Z</time>
      </trkpt>
      <trkpt lat="37.6855570" lon="-3.5874150">
        <ele>829.8</ele>
        <time>2020-07-16T09:42:31Z</time>
      </trkpt>
      <trkpt lat="37.6855540" lon="-3.5876010">
        <ele>828.6</ele>
        <time>2020-07-16T09:42:32Z</time>
      </trkpt>
      <trkpt lat="37.6855510" lon="-3.5879590">
        <ele>827.0</ele>
        <time>2020-07-16T09:42:34Z</time>
      </trkpt>
      <trkpt lat="37.6855510" lon="-3.5881430">
        <ele>826.0</ele>
        <time>2020-07-16T09:42:35Z</time>
      </trkpt>
      <trkpt lat="37.6855530" lon="-3.5883200">
        <ele>825.2</ele>
        <time>2020-07-16T09:42:36Z</time>
      </trkpt>
      <trkpt lat="37.6855770" lon="-3.5886500">
        <ele>824.0</ele>
        <time>2020-07-16T09:42:38Z</time>
      </trkpt>
      <trkpt lat="37.6856280" lon="-3.5889830">
        <ele>822.4</ele>
        <time>2020-07-16T09:42:40Z</time>
      </trkpt>
      <trkpt lat="37.6857100" lon="-3.5893070">
        <ele>821.2</ele>
        <time>2020-07-16T09:42:42Z</time>
      </trkpt>
      <trkpt lat="37.6858090" lon="-3.5896090">
        <ele>820.0</ele>
        <time>2020-07-16T09:42:44Z</time>
      </trkpt>
      <trkpt lat="37.6859060" lon="-3.5899020">
        <ele>819.0</ele>
        <time>2020-07-16T09:42:46Z</time>
      </trkpt>
      <trkpt lat="37.6860290" lon="-3.5903730">
        <ele>817.6</ele>
        <time>2020-07-16T09:42:49Z</time>
      </trkpt>
      <trkpt lat="37.6860510" lon="-3.5905430">
        <ele>817.0</ele>
        <time>2020-07-16T09:42:50Z</time>
      </trkpt>
      <trkpt lat="37.6860590" lon="-3.5907120">
        <ele>816.6</ele>
        <time>2020-07-16T09:42:51Z</time>
      </trkpt>
      <trkpt lat="37.6860410" lon="-3.5910380">
        <ele>815.0</ele>
        <time>2020-07-16T09:42:53Z</time>
      </trkpt>
      <trkpt lat="37.6860180" lon="-3.5912300">
        <ele>814.2</ele>
        <time>2020-07-16T09:42:54Z</time>
      </trkpt>
      <trkpt lat="37.6859910" lon="-3.5914050">
        <ele>813.4</ele>
        <time>2020-07-16T09:42:55Z</time>
      </trkpt>
      <trkpt lat="37.6859330" lon="-3.5917630">
        <ele>811.8</ele>
        <time>2020-07-16T09:42:57Z</time>
      </trkpt>
      <trkpt lat="37.6859060" lon="-3.5919150">
        <ele>811.0</ele>
        <time>2020-07-16T09:42:58Z</time>
      </trkpt>
      <trkpt lat="37.6858680" lon="-3.5921220">
        <ele>810.2</ele>
        <time>2020-07-16T09:42:59Z</time>
      </trkpt>
      <trkpt lat="37.6858040" lon="-3.5924830">
        <ele>808.4</ele>
        <time>2020-07-16T09:43:01Z</time>
      </trkpt>
      <trkpt lat="37.6857720" lon="-3.5926670">
        <ele>807.2</ele>
        <time>2020-07-16T09:43:02Z</time>
      </trkpt>
      <trkpt lat="37.6857110" lon="-3.5930120">
        <ele>805.0</ele>
        <time>2020-07-16T09:43:04Z</time>
      </trkpt>
      <trkpt lat="37.6856410" lon="-3.5933910">
        <ele>803.0</ele>
        <time>2020-07-16T09:43:06Z</time>
      </trkpt>
      <trkpt lat="37.6856030" lon="-3.5935710">
        <ele>802.0</ele>
        <time>2020-07-16T09:43:07Z</time>
      </trkpt>
      <trkpt lat="37.6855650" lon="-3.5937420">
        <ele>800.8</ele>
        <time>2020-07-16T09:43:08Z</time>
      </trkpt>
      <trkpt lat="37.6854710" lon="-3.5941030">
        <ele>798.8</ele>
        <time>2020-07-16T09:43:10Z</time>
      </trkpt>
      <trkpt lat="37.6854160" lon="-3.5942820">
        <ele>797.8</ele>
        <time>2020-07-16T09:43:11Z</time>
      </trkpt>
      <trkpt lat="37.6852990" lon="-3.5946120">
        <ele>795.8</ele>
        <time>2020-07-16T09:43:13Z</time>
      </trkpt>
      <trkpt lat="37.6851580" lon="-3.5949520">
        <ele>793.8</ele>
        <time>2020-07-16T09:43:15Z</time>
      </trkpt>
      <trkpt lat="37.6850090" lon="-3.5952710">
        <ele>792.2</ele>
        <time>2020-07-16T09:43:17Z</time>
      </trkpt>
      <trkpt lat="37.6849380" lon="-3.5954130">
        <ele>791.4</ele>
        <time>2020-07-16T09:43:18Z</time>
      </trkpt>
      <trkpt lat="37.6848480" lon="-3.5955870">
        <ele>790.4</ele>
        <time>2020-07-16T09:43:19Z</time>
      </trkpt>
      <trkpt lat="37.6847660" lon="-3.5957390">
        <ele>789.4</ele>
        <time>2020-07-16T09:43:20Z</time>
      </trkpt>
      <trkpt lat="37.6846810" lon="-3.5958930">
        <ele>788.2</ele>
        <time>2020-07-16T09:43:21Z</time>
      </trkpt>
      <trkpt lat="37.6845190" lon="-3.5961870">
        <ele>786.6</ele>
        <time>2020-07-16T09:43:23Z</time>
      </trkpt>
      <trkpt lat="37.6844310" lon="-3.5963480">
        <ele>786.0</ele>
        <time>2020-07-16T09:43:24Z</time>
      </trkpt>
      <trkpt lat="37.6843490" lon="-3.5964990">
        <ele>785.0</ele>
        <time>2020-07-16T09:43:25Z</time>
      </trkpt>
      <trkpt lat="37.6842630" lon="-3.5966520">
        <ele>784.0</ele>
        <time>2020-07-16T09:43:26Z</time>
      </trkpt>
      <trkpt lat="37.6841110" lon="-3.5969230">
        <ele>782.2</ele>
        <time>2020-07-16T09:43:28Z</time>
      </trkpt>
      <trkpt lat="37.6839380" lon="-3.5972340">
        <ele>780.6</ele>
        <time>2020-07-16T09:43:30Z</time>
      </trkpt>
      <trkpt lat="37.6837110" lon="-3.5976520">
        <ele>779.4</ele>
        <time>2020-07-16T09:43:33Z</time>
      </trkpt>
      <trkpt lat="37.6836340" lon="-3.5977950">
        <ele>778.8</ele>
        <time>2020-07-16T09:43:34Z</time>
      </trkpt>
      <trkpt lat="37.6835540" lon="-3.5979420">
        <ele>778.4</ele>
        <time>2020-07-16T09:43:35Z</time>
      </trkpt>
      <trkpt lat="37.6834040" lon="-3.5982200">
        <ele>777.0</ele>
        <time>2020-07-16T09:43:37Z</time>
      </trkpt>
      <trkpt lat="37.6831830" lon="-3.5986220">
        <ele>775.6</ele>
        <time>2020-07-16T09:43:40Z</time>
      </trkpt>
      <trkpt lat="37.6830320" lon="-3.5988990">
        <ele>775.2</ele>
        <time>2020-07-16T09:43:42Z</time>
      </trkpt>
      <trkpt lat="37.6828850" lon="-3.5991680">
        <ele>774.4</ele>
        <time>2020-07-16T09:43:44Z</time>
      </trkpt>
      <trkpt lat="37.6828120" lon="-3.5993020">
        <ele>774.0</ele>
        <time>2020-07-16T09:43:45Z</time>
      </trkpt>
      <trkpt lat="37.6826660" lon="-3.5995670">
        <ele>773.0</ele>
        <time>2020-07-16T09:43:47Z</time>
      </trkpt>
      <trkpt lat="37.6825200" lon="-3.5998330">
        <ele>771.8</ele>
        <time>2020-07-16T09:43:49Z</time>
      </trkpt>
      <trkpt lat="37.6823740" lon="-3.6000980">
        <ele>770.8</ele>
        <time>2020-07-16T09:43:51Z</time>
      </trkpt>
      <trkpt lat="37.6822340" lon="-3.6003620">
        <ele>769.4</ele>
        <time>2020-07-16T09:43:53Z</time>
      </trkpt>
      <trkpt lat="37.6820950" lon="-3.6006490">
        <ele>768.0</ele>
        <time>2020-07-16T09:43:55Z</time>
      </trkpt>
      <trkpt lat="37.6818540" lon="-3.6012140">
        <ele>766.6</ele>
        <time>2020-07-16T09:43:59Z</time>
      </trkpt>
      <trkpt lat="37.6817040" lon="-3.6016440">
        <ele>765.4</ele>
        <time>2020-07-16T09:44:02Z</time>
      </trkpt>
      <trkpt lat="37.6815030" lon="-3.6023390">
        <ele>764.4</ele>
        <time>2020-07-16T09:44:07Z</time>
      </trkpt>
      <trkpt lat="37.6814360" lon="-3.6026060">
        <ele>764.0</ele>
        <time>2020-07-16T09:44:09Z</time>
      </trkpt>
      <trkpt lat="37.6813680" lon="-3.6028650">
        <ele>763.4</ele>
        <time>2020-07-16T09:44:11Z</time>
      </trkpt>
      <trkpt lat="37.6812410" lon="-3.6033400">
        <ele>762.8</ele>
        <time>2020-07-16T09:44:15Z</time>
      </trkpt>
      <trkpt lat="37.6811570" lon="-3.6036380">
        <ele>762.8</ele>
        <time>2020-07-16T09:44:17Z</time>
      </trkpt>
      <trkpt lat="37.6810070" lon="-3.6041230">
        <ele>762.4</ele>
        <time>2020-07-16T09:44:21Z</time>
      </trkpt>
      <trkpt lat="37.6809730" lon="-3.6042330">
        <ele>762.2</ele>
        <time>2020-07-16T09:44:22Z</time>
      </trkpt>
      <trkpt lat="37.6808770" lon="-3.6045940">
        <ele>761.8</ele>
        <time>2020-07-16T09:44:25Z</time>
      </trkpt>
      <trkpt lat="37.6806930" lon="-3.6052820">
        <ele>761.4</ele>
        <time>2020-07-16T09:44:31Z</time>
      </trkpt>
      <trkpt lat="37.6805730" lon="-3.6057270">
        <ele>761.2</ele>
        <time>2020-07-16T09:44:35Z</time>
      </trkpt>
      <trkpt lat="37.6804020" lon="-3.6063790">
        <ele>761.2</ele>
        <time>2020-07-16T09:44:41Z</time>
      </trkpt>
      <trkpt lat="37.6802640" lon="-3.6069000">
        <ele>761.2</ele>
        <time>2020-07-16T09:44:46Z</time>
      </trkpt>
      <trkpt lat="37.6800910" lon="-3.6075460">
        <ele>760.4</ele>
        <time>2020-07-16T09:44:52Z</time>
      </trkpt>
      <trkpt lat="37.6800620" lon="-3.6076540">
        <ele>760.2</ele>
        <time>2020-07-16T09:44:53Z</time>
      </trkpt>
      <trkpt lat="37.6799640" lon="-3.6080100">
        <ele>759.4</ele>
        <time>2020-07-16T09:44:56Z</time>
      </trkpt>
      <trkpt lat="37.6799320" lon="-3.6081290">
        <ele>759.0</ele>
        <time>2020-07-16T09:44:57Z</time>
      </trkpt>
      <trkpt lat="37.6798420" lon="-3.6085070">
        <ele>757.6</ele>
        <time>2020-07-16T09:45:00Z</time>
      </trkpt>
      <trkpt lat="37.6797990" lon="-3.6087860">
        <ele>756.6</ele>
        <time>2020-07-16T09:45:02Z</time>
      </trkpt>
      <trkpt lat="37.6797750" lon="-3.6090690">
        <ele>755.6</ele>
        <time>2020-07-16T09:45:04Z</time>
      </trkpt>
      <trkpt lat="37.6797710" lon="-3.6092320">
        <ele>755.0</ele>
        <time>2020-07-16T09:45:05Z</time>
      </trkpt>
      <trkpt lat="37.6797760" lon="-3.6093920">
        <ele>754.4</ele>
        <time>2020-07-16T09:45:06Z</time>
      </trkpt>
      <trkpt lat="37.6797870" lon="-3.6095490">
        <ele>753.8</ele>
        <time>2020-07-16T09:45:07Z</time>
      </trkpt>
      <trkpt lat="37.6798300" lon="-3.6098800">
        <ele>752.2</ele>
        <time>2020-07-16T09:45:09Z</time>
      </trkpt>
      <trkpt lat="37.6798600" lon="-3.6100330">
        <ele>751.4</ele>
        <time>2020-07-16T09:45:10Z</time>
      </trkpt>
      <trkpt lat="37.6798930" lon="-3.6102090">
        <ele>750.6</ele>
        <time>2020-07-16T09:45:11Z</time>
      </trkpt>
      <trkpt lat="37.6799570" lon="-3.6105340">
        <ele>749.4</ele>
        <time>2020-07-16T09:45:13Z</time>
      </trkpt>
      <trkpt lat="37.6800240" lon="-3.6108910">
        <ele>747.4</ele>
        <time>2020-07-16T09:45:15Z</time>
      </trkpt>
      <trkpt lat="37.6800710" lon="-3.6112440">
        <ele>745.8</ele>
        <time>2020-07-16T09:45:17Z</time>
      </trkpt>
      <trkpt lat="37.6800830" lon="-3.6114090">
        <ele>744.6</ele>
        <time>2020-07-16T09:45:18Z</time>
      </trkpt>
      <trkpt lat="37.6800940" lon="-3.6116100">
        <ele>743.4</ele>
        <time>2020-07-16T09:45:19Z</time>
      </trkpt>
      <trkpt lat="37.6800990" lon="-3.6117940">
        <ele>742.2</ele>
        <time>2020-07-16T09:45:20Z</time>
      </trkpt>
      <trkpt lat="37.6800970" lon="-3.6119800">
        <ele>741.4</ele>
        <time>2020-07-16T09:45:21Z</time>
      </trkpt>
      <trkpt lat="37.6800940" lon="-3.6121560">
        <ele>740.4</ele>
        <time>2020-07-16T09:45:22Z</time>
      </trkpt>
      <trkpt lat="37.6800880" lon="-3.6123410">
        <ele>739.4</ele>
        <time>2020-07-16T09:45:23Z</time>
      </trkpt>
      <trkpt lat="37.6800700" lon="-3.6127260">
        <ele>737.4</ele>
        <time>2020-07-16T09:45:25Z</time>
      </trkpt>
      <trkpt lat="37.6800620" lon="-3.6129170">
        <ele>736.2</ele>
        <time>2020-07-16T09:45:26Z</time>
      </trkpt>
      <trkpt lat="37.6800570" lon="-3.6131060">
        <ele>735.0</ele>
        <time>2020-07-16T09:45:27Z</time>
      </trkpt>
      <trkpt lat="37.6800600" lon="-3.6132750">
        <ele>734.4</ele>
        <time>2020-07-16T09:45:28Z</time>
      </trkpt>
      <trkpt lat="37.6800700" lon="-3.6134890">
        <ele>733.2</ele>
        <time>2020-07-16T09:45:29Z</time>
      </trkpt>
      <trkpt lat="37.6800880" lon="-3.6136790">
        <ele>732.2</ele>
        <time>2020-07-16T09:45:30Z</time>
      </trkpt>
      <trkpt lat="37.6801130" lon="-3.6138710">
        <ele>731.0</ele>
        <time>2020-07-16T09:45:31Z</time>
      </trkpt>
      <trkpt lat="37.6801440" lon="-3.6140600">
        <ele>729.8</ele>
        <time>2020-07-16T09:45:32Z</time>
      </trkpt>
      <trkpt lat="37.6802180" lon="-3.6144270">
        <ele>728.2</ele>
        <time>2020-07-16T09:45:34Z</time>
      </trkpt>
      <trkpt lat="37.6802630" lon="-3.6146320">
        <ele>727.2</ele>
        <time>2020-07-16T09:45:35Z</time>
      </trkpt>
      <trkpt lat="37.6803480" lon="-3.6150120">
        <ele>725.6</ele>
        <time>2020-07-16T09:45:37Z</time>
      </trkpt>
      <trkpt lat="37.6803900" lon="-3.6151930">
        <ele>724.0</ele>
        <time>2020-07-16T09:45:38Z</time>
      </trkpt>
      <trkpt lat="37.6804360" lon="-3.6153900">
        <ele>722.6</ele>
        <time>2020-07-16T09:45:39Z</time>
      </trkpt>
      <trkpt lat="37.6804790" lon="-3.6155740">
        <ele>721.4</ele>
        <time>2020-07-16T09:45:40Z</time>
      </trkpt>
      <trkpt lat="37.6805230" lon="-3.6157720">
        <ele>719.8</ele>
        <time>2020-07-16T09:45:41Z</time>
      </trkpt>
      <trkpt lat="37.6806160" lon="-3.6161090">
        <ele>717.8</ele>
        <time>2020-07-16T09:45:43Z</time>
      </trkpt>
      <trkpt lat="37.6806800" lon="-3.6162710">
        <ele>716.6</ele>
        <time>2020-07-16T09:45:44Z</time>
      </trkpt>
      <trkpt lat="37.6807570" lon="-3.6164170">
        <ele>715.4</ele>
        <time>2020-07-16T09:45:45Z</time>
      </trkpt>
      <trkpt lat="37.6808410" lon="-3.6165330">
        <ele>714.4</ele>
        <time>2020-07-16T09:45:46Z</time>
      </trkpt>
      <trkpt lat="37.6809510" lon="-3.6166480">
        <ele>713.0</ele>
        <time>2020-07-16T09:45:47Z</time>
      </trkpt>
      <trkpt lat="37.6810620" lon="-3.6167340">
        <ele>712.0</ele>
        <time>2020-07-16T09:45:48Z</time>
      </trkpt>
      <trkpt lat="37.6811930" lon="-3.6168140">
        <ele>710.8</ele>
        <time>2020-07-16T09:45:49Z</time>
      </trkpt>
      <trkpt lat="37.6813250" lon="-3.6168760">
        <ele>709.6</ele>
        <time>2020-07-16T09:45:50Z</time>
      </trkpt>
      <trkpt lat="37.6814610" lon="-3.6169290">
        <ele>708.6</ele>
        <time>2020-07-16T09:45:51Z</time>
      </trkpt>
      <trkpt lat="37.6815890" lon="-3.6169780">
        <ele>707.6</ele>
        <time>2020-07-16T09:45:52Z</time>
      </trkpt>
      <trkpt lat="37.6817270" lon="-3.6170310">
        <ele>707.0</ele>
        <time>2020-07-16T09:45:53Z</time>
      </trkpt>
      <trkpt lat="37.6820170" lon="-3.6171440">
        <ele>705.2</ele>
        <time>2020-07-16T09:45:55Z</time>
      </trkpt>
      <trkpt lat="37.6822970" lon="-3.6172910">
        <ele>702.6</ele>
        <time>2020-07-16T09:45:57Z</time>
      </trkpt>
      <trkpt lat="37.6824110" lon="-3.6173790">
        <ele>701.8</ele>
        <time>2020-07-16T09:45:58Z</time>
      </trkpt>
      <trkpt lat="37.6825390" lon="-3.6175090">
        <ele>701.0</ele>
        <time>2020-07-16T09:45:59Z</time>
      </trkpt>
      <trkpt lat="37.6826390" lon="-3.6176540">
        <ele>700.0</ele>
        <time>2020-07-16T09:46:00Z</time>
      </trkpt>
      <trkpt lat="37.6827160" lon="-3.6178090">
        <ele>699.0</ele>
        <time>2020-07-16T09:46:01Z</time>
      </trkpt>
      <trkpt lat="37.6827720" lon="-3.6179620">
        <ele>697.8</ele>
        <time>2020-07-16T09:46:02Z</time>
      </trkpt>
      <trkpt lat="37.6828000" lon="-3.6181140">
        <ele>696.6</ele>
        <time>2020-07-16T09:46:03Z</time>
      </trkpt>
      <trkpt lat="37.6828150" lon="-3.6182730">
        <ele>695.6</ele>
        <time>2020-07-16T09:46:04Z</time>
      </trkpt>
      <trkpt lat="37.6828120" lon="-3.6184560">
        <ele>694.4</ele>
        <time>2020-07-16T09:46:05Z</time>
      </trkpt>
      <trkpt lat="37.6827870" lon="-3.6186230">
        <ele>693.2</ele>
        <time>2020-07-16T09:46:06Z</time>
      </trkpt>
      <trkpt lat="37.6827420" lon="-3.6187840">
        <ele>692.0</ele>
        <time>2020-07-16T09:46:07Z</time>
      </trkpt>
      <trkpt lat="37.6826090" lon="-3.6190680">
        <ele>690.4</ele>
        <time>2020-07-16T09:46:09Z</time>
      </trkpt>
      <trkpt lat="37.6825270" lon="-3.6191800">
        <ele>689.6</ele>
        <time>2020-07-16T09:46:10Z</time>
      </trkpt>
      <trkpt lat="37.6824260" lon="-3.6192890">
        <ele>688.8</ele>
        <time>2020-07-16T09:46:11Z</time>
      </trkpt>
      <trkpt lat="37.6821980" lon="-3.6194390">
        <ele>687.0</ele>
        <time>2020-07-16T09:46:13Z</time>
      </trkpt>
      <trkpt lat="37.6820640" lon="-3.6194810">
        <ele>686.0</ele>
        <time>2020-07-16T09:46:14Z</time>
      </trkpt>
      <trkpt lat="37.6819320" lon="-3.6194990">
        <ele>684.8</ele>
        <time>2020-07-16T09:46:15Z</time>
      </trkpt>
      <trkpt lat="37.6818030" lon="-3.6194970">
        <ele>683.8</ele>
        <time>2020-07-16T09:46:16Z</time>
      </trkpt>
      <trkpt lat="37.6815420" lon="-3.6194450">
        <ele>681.8</ele>
        <time>2020-07-16T09:46:18Z</time>
      </trkpt>
      <trkpt lat="37.6814100" lon="-3.6194040">
        <ele>681.0</ele>
        <time>2020-07-16T09:46:19Z</time>
      </trkpt>
      <trkpt lat="37.6812800" lon="-3.6193550">
        <ele>680.2</ele>
        <time>2020-07-16T09:46:20Z</time>
      </trkpt>
      <trkpt lat="37.6811550" lon="-3.6193070">
        <ele>679.0</ele>
        <time>2020-07-16T09:46:21Z</time>
      </trkpt>
      <trkpt lat="37.6809170" lon="-3.6192140">
        <ele>677.4</ele>
        <time>2020-07-16T09:46:23Z</time>
      </trkpt>
      <trkpt lat="37.6806520" lon="-3.6191160">
        <ele>675.6</ele>
        <time>2020-07-16T09:46:25Z</time>
      </trkpt>
      <trkpt lat="37.6805270" lon="-3.6190720">
        <ele>674.4</ele>
        <time>2020-07-16T09:46:26Z</time>
      </trkpt>
      <trkpt lat="37.6803940" lon="-3.6190450">
        <ele>673.4</ele>
        <time>2020-07-16T09:46:27Z</time>
      </trkpt>
      <trkpt lat="37.6802770" lon="-3.6190510">
        <ele>672.4</ele>
        <time>2020-07-16T09:46:28Z</time>
      </trkpt>
      <trkpt lat="37.6801310" lon="-3.6190860">
        <ele>671.0</ele>
        <time>2020-07-16T09:46:29Z</time>
      </trkpt>
      <trkpt lat="37.6800080" lon="-3.6191470">
        <ele>670.0</ele>
        <time>2020-07-16T09:46:30Z</time>
      </trkpt>
      <trkpt lat="37.6798920" lon="-3.6192310">
        <ele>668.8</ele>
        <time>2020-07-16T09:46:31Z</time>
      </trkpt>
      <trkpt lat="37.6797830" lon="-3.6193250">
        <ele>667.8</ele>
        <time>2020-07-16T09:46:32Z</time>
      </trkpt>
      <trkpt lat="37.6796820" lon="-3.6194170">
        <ele>666.6</ele>
        <time>2020-07-16T09:46:33Z</time>
      </trkpt>
      <trkpt lat="37.6795760" lon="-3.6195130">
        <ele>665.4</ele>
        <time>2020-07-16T09:46:34Z</time>
      </trkpt>
      <trkpt lat="37.6793500" lon="-3.6197090">
        <ele>663.6</ele>
        <time>2020-07-16T09:46:36Z</time>
      </trkpt>
      <trkpt lat="37.6791170" lon="-3.6198540">
        <ele>662.0</ele>
        <time>2020-07-16T09:46:38Z</time>
      </trkpt>
      <trkpt lat="37.6788540" lon="-3.6199250">
        <ele>660.6</ele>
        <time>2020-07-16T09:46:40Z</time>
      </trkpt>
      <trkpt lat="37.6787120" lon="-3.6199450">
        <ele>659.6</ele>
        <time>2020-07-16T09:46:41Z</time>
      </trkpt>
      <trkpt lat="37.6785770" lon="-3.6199620">
        <ele>658.6</ele>
        <time>2020-07-16T09:46:42Z</time>
      </trkpt>
      <trkpt lat="37.6783120" lon="-3.6200240">
        <ele>657.2</ele>
        <time>2020-07-16T09:46:44Z</time>
      </trkpt>
      <trkpt lat="37.6781750" lon="-3.6200730">
        <ele>655.8</ele>
        <time>2020-07-16T09:46:45Z</time>
      </trkpt>
      <trkpt lat="37.6780510" lon="-3.6201380">
        <ele>654.6</ele>
        <time>2020-07-16T09:46:46Z</time>
      </trkpt>
      <trkpt lat="37.6779210" lon="-3.6202320">
        <ele>653.4</ele>
        <time>2020-07-16T09:46:47Z</time>
      </trkpt>
      <trkpt lat="37.6778150" lon="-3.6203310">
        <ele>652.4</ele>
        <time>2020-07-16T09:46:48Z</time>
      </trkpt>
      <trkpt lat="37.6776960" lon="-3.6204410">
        <ele>651.2</ele>
        <time>2020-07-16T09:46:49Z</time>
      </trkpt>
      <trkpt lat="37.6775780" lon="-3.6205500">
        <ele>650.0</ele>
        <time>2020-07-16T09:46:50Z</time>
      </trkpt>
      <trkpt lat="37.6773560" lon="-3.6207650">
        <ele>648.0</ele>
        <time>2020-07-16T09:46:52Z</time>
      </trkpt>
      <trkpt lat="37.6772410" lon="-3.6208800">
        <ele>647.0</ele>
        <time>2020-07-16T09:46:53Z</time>
      </trkpt>
      <trkpt lat="37.6771310" lon="-3.6210030">
        <ele>645.8</ele>
        <time>2020-07-16T09:46:54Z</time>
      </trkpt>
      <trkpt lat="37.6769550" lon="-3.6212780">
        <ele>643.8</ele>
        <time>2020-07-16T09:46:56Z</time>
      </trkpt>
      <trkpt lat="37.6768970" lon="-3.6214330">
        <ele>642.8</ele>
        <time>2020-07-16T09:46:57Z</time>
      </trkpt>
      <trkpt lat="37.6768430" lon="-3.6217610">
        <ele>641.2</ele>
        <time>2020-07-16T09:46:59Z</time>
      </trkpt>
      <trkpt lat="37.6768480" lon="-3.6219290">
        <ele>640.0</ele>
        <time>2020-07-16T09:47:00Z</time>
      </trkpt>
      <trkpt lat="37.6768710" lon="-3.6220990">
        <ele>638.8</ele>
        <time>2020-07-16T09:47:01Z</time>
      </trkpt>
      <trkpt lat="37.6769040" lon="-3.6222650">
        <ele>637.6</ele>
        <time>2020-07-16T09:47:02Z</time>
      </trkpt>
      <trkpt lat="37.6769800" lon="-3.6225850">
        <ele>636.0</ele>
        <time>2020-07-16T09:47:04Z</time>
      </trkpt>
      <trkpt lat="37.6770230" lon="-3.6227590">
        <ele>634.8</ele>
        <time>2020-07-16T09:47:05Z</time>
      </trkpt>
      <trkpt lat="37.6771070" lon="-3.6230880">
        <ele>633.2</ele>
        <time>2020-07-16T09:47:07Z</time>
      </trkpt>
      <trkpt lat="37.6771970" lon="-3.6234200">
        <ele>631.2</ele>
        <time>2020-07-16T09:47:09Z</time>
      </trkpt>
      <trkpt lat="37.6772810" lon="-3.6237370">
        <ele>629.4</ele>
        <time>2020-07-16T09:47:11Z</time>
      </trkpt>
      <trkpt lat="37.6773270" lon="-3.6238780">
        <ele>628.2</ele>
        <time>2020-07-16T09:47:12Z</time>
      </trkpt>
      <trkpt lat="37.6773850" lon="-3.6239980">
        <ele>627.2</ele>
        <time>2020-07-16T09:47:13Z</time>
      </trkpt>
      <trkpt lat="37.6774650" lon="-3.6241210">
        <ele>626.0</ele>
        <time>2020-07-16T09:47:14Z</time>
      </trkpt>
      <trkpt lat="37.6775640" lon="-3.6242150">
        <ele>624.8</ele>
        <time>2020-07-16T09:47:15Z</time>
      </trkpt>
      <trkpt lat="37.6776710" lon="-3.6242730">
        <ele>623.4</ele>
        <time>2020-07-16T09:47:16Z</time>
      </trkpt>
      <trkpt lat="37.6778010" lon="-3.6243100">
        <ele>622.6</ele>
        <time>2020-07-16T09:47:17Z</time>
      </trkpt>
      <trkpt lat="37.6778990" lon="-3.6243230">
        <ele>621.8</ele>
        <time>2020-07-16T09:47:18Z</time>
      </trkpt>
      <trkpt lat="37.6780490" lon="-3.6243390">
        <ele>620.8</ele>
        <time>2020-07-16T09:47:19Z</time>
      </trkpt>
      <trkpt lat="37.6781830" lon="-3.6243530">
        <ele>620.0</ele>
        <time>2020-07-16T09:47:20Z</time>
      </trkpt>
      <trkpt lat="37.6783130" lon="-3.6243740">
        <ele>619.0</ele>
        <time>2020-07-16T09:47:21Z</time>
      </trkpt>
      <trkpt lat="37.6784310" lon="-3.6244150">
        <ele>618.0</ele>
        <time>2020-07-16T09:47:22Z</time>
      </trkpt>
      <trkpt lat="37.6785560" lon="-3.6244750">
        <ele>617.2</ele>
        <time>2020-07-16T09:47:23Z</time>
      </trkpt>
      <trkpt lat="37.6788010" lon="-3.6246420">
        <ele>615.2</ele>
        <time>2020-07-16T09:47:25Z</time>
      </trkpt>
      <trkpt lat="37.6789180" lon="-3.6247320">
        <ele>614.2</ele>
        <time>2020-07-16T09:47:26Z</time>
      </trkpt>
      <trkpt lat="37.6790360" lon="-3.6248240">
        <ele>613.0</ele>
        <time>2020-07-16T09:47:27Z</time>
      </trkpt>
      <trkpt lat="37.6791350" lon="-3.6248990">
        <ele>612.0</ele>
        <time>2020-07-16T09:47:28Z</time>
      </trkpt>
      <trkpt lat="37.6793980" lon="-3.6250910">
        <ele>610.0</ele>
        <time>2020-07-16T09:47:30Z</time>
      </trkpt>
      <trkpt lat="37.6795230" lon="-3.6251780">
        <ele>609.0</ele>
        <time>2020-07-16T09:47:31Z</time>
      </trkpt>
      <trkpt lat="37.6796510" lon="-3.6252600">
        <ele>608.0</ele>
        <time>2020-07-16T09:47:32Z</time>
      </trkpt>
      <trkpt lat="37.6797780" lon="-3.6253360">
        <ele>607.0</ele>
        <time>2020-07-16T09:47:33Z</time>
      </trkpt>
      <trkpt lat="37.6800260" lon="-3.6254740">
        <ele>605.0</ele>
        <time>2020-07-16T09:47:35Z</time>
      </trkpt>
      <trkpt lat="37.6801870" lon="-3.6255600">
        <ele>604.0</ele>
        <time>2020-07-16T09:47:36Z</time>
      </trkpt>
      <trkpt lat="37.6804560" lon="-3.6257030">
        <ele>602.4</ele>
        <time>2020-07-16T09:47:38Z</time>
      </trkpt>
      <trkpt lat="37.6807380" lon="-3.6258480">
        <ele>600.2</ele>
        <time>2020-07-16T09:47:40Z</time>
      </trkpt>
      <trkpt lat="37.6808820" lon="-3.6259240">
        <ele>599.2</ele>
        <time>2020-07-16T09:47:41Z</time>
      </trkpt>
      <trkpt lat="37.6810170" lon="-3.6259970">
        <ele>598.0</ele>
        <time>2020-07-16T09:47:42Z</time>
      </trkpt>
      <trkpt lat="37.6812760" lon="-3.6261550">
        <ele>596.0</ele>
        <time>2020-07-16T09:47:44Z</time>
      </trkpt>
      <trkpt lat="37.6813890" lon="-3.6262520">
        <ele>595.2</ele>
        <time>2020-07-16T09:47:45Z</time>
      </trkpt>
      <trkpt lat="37.6814910" lon="-3.6263440">
        <ele>594.6</ele>
        <time>2020-07-16T09:47:46Z</time>
      </trkpt>
      <trkpt lat="37.6816080" lon="-3.6264280">
        <ele>594.0</ele>
        <time>2020-07-16T09:47:47Z</time>
      </trkpt>
      <trkpt lat="37.6817170" lon="-3.6264680">
        <ele>593.8</ele>
        <time>2020-07-16T09:47:48Z</time>
      </trkpt>
      <trkpt lat="37.6819420" lon="-3.6265290">
        <ele>593.4</ele>
        <time>2020-07-16T09:47:50Z</time>
      </trkpt>
      <trkpt lat="37.6821300" lon="-3.6265660">
        <ele>593.8</ele>
        <time>2020-07-16T09:47:52Z</time>
      </trkpt>
      <trkpt lat="37.6822150" lon="-3.6265790">
        <ele>594.2</ele>
        <time>2020-07-16T09:47:53Z</time>
      </trkpt>
      <trkpt lat="37.6823060" lon="-3.6265930">
        <ele>594.8</ele>
        <time>2020-07-16T09:47:54Z</time>
      </trkpt>
      <trkpt lat="37.6824600" lon="-3.6266100">
        <ele>595.8</ele>
        <time>2020-07-16T09:47:56Z</time>
      </trkpt>
      <trkpt lat="37.6825280" lon="-3.6266190">
        <ele>596.4</ele>
        <time>2020-07-16T09:47:57Z</time>
      </trkpt>
      <trkpt lat="37.6826430" lon="-3.6266340">
        <ele>597.6</ele>
        <time>2020-07-16T09:47:59Z</time>
      </trkpt>
      <trkpt lat="37.6826890" lon="-3.6266530">
        <ele>598.2</ele>
        <time>2020-07-16T09:48:00Z</time>
      </trkpt>
      <trkpt lat="37.6827510" lon="-3.6267190">
        <ele>598.8</ele>
        <time>2020-07-16T09:48:02Z</time>
      </trkpt>
      <trkpt lat="37.6827830" lon="-3.6268690">
        <ele>599.8</ele>
        <time>2020-07-16T09:48:05Z</time>
      </trkpt>
      <trkpt lat="37.6827780" lon="-3.6269260">
        <ele>600.2</ele>
        <time>2020-07-16T09:48:06Z</time>
      </trkpt>
      <trkpt lat="37.6827590" lon="-3.6270370">
        <ele>600.4</ele>
        <time>2020-07-16T09:48:08Z</time>
      </trkpt>
      <trkpt lat="37.6827380" lon="-3.6270920">
        <ele>600.4</ele>
        <time>2020-07-16T09:48:09Z</time>
      </trkpt>
      <trkpt lat="37.6826970" lon="-3.6272000">
        <ele>600.6</ele>
        <time>2020-07-16T09:48:11Z</time>
      </trkpt>
      <trkpt lat="37.6826510" lon="-3.6273030">
        <ele>600.8</ele>
        <time>2020-07-16T09:48:13Z</time>
      </trkpt>
      <trkpt lat="37.6826050" lon="-3.6274210">
        <ele>601.0</ele>
        <time>2020-07-16T09:48:15Z</time>
      </trkpt>
      <trkpt lat="37.6825590" lon="-3.6275400">
        <ele>601.0</ele>
        <time>2020-07-16T09:48:17Z</time>
      </trkpt>
      <trkpt lat="37.6825360" lon="-3.6275930">
        <ele>601.2</ele>
        <time>2020-07-16T09:48:18Z</time>
      </trkpt>
      <trkpt lat="37.6824660" lon="-3.6277880">
        <ele>601.2</ele>
        <time>2020-07-16T09:48:21Z</time>
      </trkpt>
      <trkpt lat="37.6824680" lon="-3.6278530">
        <ele>601.4</ele>
        <time>2020-07-16T09:48:22Z</time>
      </trkpt>
      <trkpt lat="37.6824950" lon="-3.6279120">
        <ele>601.4</ele>
        <time>2020-07-16T09:48:23Z</time>
      </trkpt>
      <trkpt lat="37.6826680" lon="-3.6280620">
        <ele>601.2</ele>
        <time>2020-07-16T09:48:26Z</time>
      </trkpt>
      <trkpt lat="37.6827390" lon="-3.6281090">
        <ele>600.8</ele>
        <time>2020-07-16T09:48:27Z</time>
      </trkpt>
      <trkpt lat="37.6829790" lon="-3.6282790">
        <ele>599.8</ele>
        <time>2020-07-16T09:48:30Z</time>
      </trkpt>
      <trkpt lat="37.6831590" lon="-3.6284230">
        <ele>598.6</ele>
        <time>2020-07-16T09:48:32Z</time>
      </trkpt>
      <trkpt lat="37.6833450" lon="-3.6285750">
        <ele>597.2</ele>
        <time>2020-07-16T09:48:34Z</time>
      </trkpt>
      <trkpt lat="37.6834560" lon="-3.6286660">
        <ele>596.0</ele>
        <time>2020-07-16T09:48:35Z</time>
      </trkpt>
      <trkpt lat="37.6835580" lon="-3.6287640">
        <ele>594.8</ele>
        <time>2020-07-16T09:48:36Z</time>
      </trkpt>
      <trkpt lat="37.6836620" lon="-3.6288660">
        <ele>593.6</ele>
        <time>2020-07-16T09:48:37Z</time>
      </trkpt>
      <trkpt lat="37.6837590" lon="-3.6289680">
        <ele>592.4</ele>
        <time>2020-07-16T09:48:38Z</time>
      </trkpt>
      <trkpt lat="37.6838710" lon="-3.6290810">
        <ele>591.2</ele>
        <time>2020-07-16T09:48:39Z</time>
      </trkpt>
      <trkpt lat="37.6839690" lon="-3.6291810">
        <ele>590.0</ele>
        <time>2020-07-16T09:48:40Z</time>
      </trkpt>
      <trkpt lat="37.6840740" lon="-3.6292920">
        <ele>589.0</ele>
        <time>2020-07-16T09:48:41Z</time>
      </trkpt>
      <trkpt lat="37.6842600" lon="-3.6294890">
        <ele>587.6</ele>
        <time>2020-07-16T09:48:43Z</time>
      </trkpt>
      <trkpt lat="37.6843630" lon="-3.6295850">
        <ele>587.2</ele>
        <time>2020-07-16T09:48:44Z</time>
      </trkpt>
      <trkpt lat="37.6846740" lon="-3.6298170">
        <ele>586.4</ele>
        <time>2020-07-16T09:48:47Z</time>
      </trkpt>
      <trkpt lat="37.6847760" lon="-3.6298690">
        <ele>586.2</ele>
        <time>2020-07-16T09:48:48Z</time>
      </trkpt>
      <trkpt lat="37.6852130" lon="-3.6300040">
        <ele>586.0</ele>
        <time>2020-07-16T09:48:52Z</time>
      </trkpt>
      <trkpt lat="37.6854430" lon="-3.6300160">
        <ele>585.8</ele>
        <time>2020-07-16T09:48:54Z</time>
      </trkpt>
      <trkpt lat="37.6856550" lon="-3.6300060">
        <ele>585.8</ele>
        <time>2020-07-16T09:48:56Z</time>
      </trkpt>
      <trkpt lat="37.6861170" lon="-3.6299270">
        <ele>585.4</ele>
        <time>2020-07-16T09:49:01Z</time>
      </trkpt>
      <trkpt lat="37.6862200" lon="-3.6299110">
        <ele>585.4</ele>
        <time>2020-07-16T09:49:02Z</time>
      </trkpt>
      <trkpt lat="37.6867870" lon="-3.6298330">
        <ele>584.8</ele>
        <time>2020-07-16T09:49:07Z</time>
      </trkpt>
      <trkpt lat="37.6869890" lon="-3.6298340">
        <ele>584.6</ele>
        <time>2020-07-16T09:49:09Z</time>
      </trkpt>
      <trkpt lat="37.6871850" lon="-3.6298420">
        <ele>584.4</ele>
        <time>2020-07-16T09:49:11Z</time>
      </trkpt>
      <trkpt lat="37.6875730" lon="-3.6299080">
        <ele>584.0</ele>
        <time>2020-07-16T09:49:15Z</time>
      </trkpt>
      <trkpt lat="37.6880300" lon="-3.6300950">
        <ele>583.6</ele>
        <time>2020-07-16T09:49:20Z</time>
      </trkpt>
      <trkpt lat="37.6882840" lon="-3.6302530">
        <ele>583.2</ele>
        <time>2020-07-16T09:49:23Z</time>
      </trkpt>
      <trkpt lat="37.6884530" lon="-3.6303800">
        <ele>583.0</ele>
        <time>2020-07-16T09:49:25Z</time>
      </trkpt>
      <trkpt lat="37.6889000" lon="-3.6308160">
        <ele>582.2</ele>
        <time>2020-07-16T09:49:31Z</time>
      </trkpt>
      <trkpt lat="37.6892030" lon="-3.6312660">
        <ele>582.0</ele>
        <time>2020-07-16T09:49:36Z</time>
      </trkpt>
      <trkpt lat="37.6894860" lon="-3.6318600">
        <ele>581.2</ele>
        <time>2020-07-16T09:49:42Z</time>
      </trkpt>
      <trkpt lat="37.6897910" lon="-3.6325560">
        <ele>580.8</ele>
        <time>2020-07-16T09:49:49Z</time>
      </trkpt>
      <trkpt lat="37.6898400" lon="-3.6326510">
        <ele>580.6</ele>
        <time>2020-07-16T09:49:50Z</time>
      </trkpt>
      <trkpt lat="37.6900010" lon="-3.6329160">
        <ele>580.0</ele>
        <time>2020-07-16T09:49:53Z</time>
      </trkpt>
      <trkpt lat="37.6902000" lon="-3.6331540">
        <ele>579.6</ele>
        <time>2020-07-16T09:49:56Z</time>
      </trkpt>
      <trkpt lat="37.6905710" lon="-3.6334640">
        <ele>579.4</ele>
        <time>2020-07-16T09:50:01Z</time>
      </trkpt>
      <trkpt lat="37.6907320" lon="-3.6335530">
        <ele>579.0</ele>
        <time>2020-07-16T09:50:03Z</time>
      </trkpt>
      <trkpt lat="37.6910050" lon="-3.6336500">
        <ele>578.4</ele>
        <time>2020-07-16T09:50:06Z</time>
      </trkpt>
      <trkpt lat="37.6914720" lon="-3.6337180">
        <ele>577.8</ele>
        <time>2020-07-16T09:50:11Z</time>
      </trkpt>
      <trkpt lat="37.6919520" lon="-3.6337300">
        <ele>576.8</ele>
        <time>2020-07-16T09:50:16Z</time>
      </trkpt>
      <trkpt lat="37.6922460" lon="-3.6337490">
        <ele>576.8</ele>
        <time>2020-07-16T09:50:19Z</time>
      </trkpt>
      <trkpt lat="37.6927210" lon="-3.6338620">
        <ele>576.2</ele>
        <time>2020-07-16T09:50:24Z</time>
      </trkpt>
      <trkpt lat="37.6930650" lon="-3.6340610">
        <ele>575.8</ele>
        <time>2020-07-16T09:50:28Z</time>
      </trkpt>
      <trkpt lat="37.6931570" lon="-3.6341390">
        <ele>575.6</ele>
        <time>2020-07-16T09:50:29Z</time>
      </trkpt>
      <trkpt lat="37.6935130" lon="-3.6345620">
        <ele>575.0</ele>
        <time>2020-07-16T09:50:34Z</time>
      </trkpt>
      <trkpt lat="37.6936990" lon="-3.6348770">
        <ele>574.6</ele>
        <time>2020-07-16T09:50:37Z</time>
      </trkpt>
      <trkpt lat="37.6938140" lon="-3.6350920">
        <ele>574.2</ele>
        <time>2020-07-16T09:50:39Z</time>
      </trkpt>
      <trkpt lat="37.6939870" lon="-3.6354200">
        <ele>573.4</ele>
        <time>2020-07-16T09:50:42Z</time>
      </trkpt>
      <trkpt lat="37.6942600" lon="-3.6359640">
        <ele>572.6</ele>
        <time>2020-07-16T09:50:47Z</time>
      </trkpt>
      <trkpt lat="37.6943110" lon="-3.6360650">
        <ele>572.4</ele>
        <time>2020-07-16T09:50:48Z</time>
      </trkpt>
      <trkpt lat="37.6945970" lon="-3.6365930">
        <ele>571.4</ele>
        <time>2020-07-16T09:50:53Z</time>
      </trkpt>
      <trkpt lat="37.6947940" lon="-3.6369580">
        <ele>570.6</ele>
        <time>2020-07-16T09:50:57Z</time>
      </trkpt>
      <trkpt lat="37.6950000" lon="-3.6373380">
        <ele>570.2</ele>
        <time>2020-07-16T09:51:00Z</time>
      </trkpt>
      <trkpt lat="37.6952570" lon="-3.6377220">
        <ele>569.4</ele>
        <time>2020-07-16T09:51:04Z</time>
      </trkpt>
      <trkpt lat="37.6953290" lon="-3.6378180">
        <ele>569.0</ele>
        <time>2020-07-16T09:51:05Z</time>
      </trkpt>
      <trkpt lat="37.6956310" lon="-3.6381330">
        <ele>568.8</ele>
        <time>2020-07-16T09:51:09Z</time>
      </trkpt>
      <trkpt lat="37.6961130" lon="-3.6384900">
        <ele>568.2</ele>
        <time>2020-07-16T09:51:15Z</time>
      </trkpt>
      <trkpt lat="37.6965390" lon="-3.6386770">
        <ele>567.8</ele>
        <time>2020-07-16T09:51:20Z</time>
      </trkpt>
      <trkpt lat="37.6966250" lon="-3.6386980">
        <ele>568.0</ele>
        <time>2020-07-16T09:51:21Z</time>
      </trkpt>
      <trkpt lat="37.6971430" lon="-3.6387650">
        <ele>567.6</ele>
        <time>2020-07-16T09:51:27Z</time>
      </trkpt>
      <trkpt lat="37.6977350" lon="-3.6387610">
        <ele>567.8</ele>
        <time>2020-07-16T09:51:34Z</time>
      </trkpt>
      <trkpt lat="37.6979160" lon="-3.6387590">
        <ele>567.8</ele>
        <time>2020-07-16T09:51:36Z</time>
      </trkpt>
      <trkpt lat="37.6981750" lon="-3.6387580">
        <ele>567.6</ele>
        <time>2020-07-16T09:51:39Z</time>
      </trkpt>
      <trkpt lat="37.6984290" lon="-3.6387640">
        <ele>567.6</ele>
        <time>2020-07-16T09:51:42Z</time>
      </trkpt>
      <trkpt lat="37.6990180" lon="-3.6388680">
        <ele>567.6</ele>
        <time>2020-07-16T09:51:49Z</time>
      </trkpt>
      <trkpt lat="37.6994060" lon="-3.6390920">
        <ele>567.8</ele>
        <time>2020-07-16T09:51:54Z</time>
      </trkpt>
      <trkpt lat="37.6997530" lon="-3.6394190">
        <ele>567.2</ele>
        <time>2020-07-16T09:51:59Z</time>
      </trkpt>
      <trkpt lat="37.7001430" lon="-3.6399000">
        <ele>567.2</ele>
        <time>2020-07-16T09:52:05Z</time>
      </trkpt>
      <trkpt lat="37.7002730" lon="-3.6400610">
        <ele>567.4</ele>
        <time>2020-07-16T09:52:07Z</time>
      </trkpt>
      <trkpt lat="37.7007410" lon="-3.6405950">
        <ele>566.8</ele>
        <time>2020-07-16T09:52:14Z</time>
      </trkpt>
      <trkpt lat="37.7008830" lon="-3.6407220">
        <ele>567.0</ele>
        <time>2020-07-16T09:52:16Z</time>
      </trkpt>
      <trkpt lat="37.7012940" lon="-3.6409730">
        <ele>566.2</ele>
        <time>2020-07-16T09:52:21Z</time>
      </trkpt>
      <trkpt lat="37.7017400" lon="-3.6410970">
        <ele>565.8</ele>
        <time>2020-07-16T09:52:26Z</time>
      </trkpt>
      <trkpt lat="37.7019150" lon="-3.6411090">
        <ele>565.8</ele>
        <time>2020-07-16T09:52:28Z</time>
      </trkpt>
      <trkpt lat="37.7022110" lon="-3.6410830">
        <ele>565.2</ele>
        <time>2020-07-16T09:52:31Z</time>
      </trkpt>
      <trkpt lat="37.7023500" lon="-3.6410550">
        <ele>564.6</ele>
        <time>2020-07-16T09:52:33Z</time>
      </trkpt>
      <trkpt lat="37.7026870" lon="-3.6409430">
        <ele>564.0</ele>
        <time>2020-07-16T09:52:36Z</time>
      </trkpt>
      <trkpt lat="37.7028200" lon="-3.6408850">
        <ele>563.4</ele>
        <time>2020-07-16T09:52:38Z</time>
      </trkpt>
      <trkpt lat="37.7032470" lon="-3.6406830">
        <ele>562.4</ele>
        <time>2020-07-16T09:52:42Z</time>
      </trkpt>
      <trkpt lat="37.7034390" lon="-3.6405900">
        <ele>562.0</ele>
        <time>2020-07-16T09:52:44Z</time>
      </trkpt>
      <trkpt lat="37.7036300" lon="-3.6404990">
        <ele>561.2</ele>
        <time>2020-07-16T09:52:46Z</time>
      </trkpt>
      <trkpt lat="37.7041370" lon="-3.6402590">
        <ele>560.4</ele>
        <time>2020-07-16T09:52:51Z</time>
      </trkpt>
      <trkpt lat="37.7042340" lon="-3.6402160">
        <ele>560.2</ele>
        <time>2020-07-16T09:52:52Z</time>
      </trkpt>
      <trkpt lat="37.7043350" lon="-3.6401750">
        <ele>560.0</ele>
        <time>2020-07-16T09:52:53Z</time>
      </trkpt>
      <trkpt lat="37.7048650" lon="-3.6400540">
        <ele>559.0</ele>
        <time>2020-07-16T09:52:58Z</time>
      </trkpt>
      <trkpt lat="37.7053240" lon="-3.6400750">
        <ele>557.8</ele>
        <time>2020-07-16T09:53:02Z</time>
      </trkpt>
      <trkpt lat="37.7054270" lon="-3.6400920">
        <ele>557.6</ele>
        <time>2020-07-16T09:53:03Z</time>
      </trkpt>
      <trkpt lat="37.7059800" lon="-3.6402040">
        <ele>556.6</ele>
        <time>2020-07-16T09:53:08Z</time>
      </trkpt>
      <trkpt lat="37.7064190" lon="-3.6403040">
        <ele>555.6</ele>
        <time>2020-07-16T09:53:12Z</time>
      </trkpt>
      <trkpt lat="37.7065200" lon="-3.6403270">
        <ele>555.4</ele>
        <time>2020-07-16T09:53:13Z</time>
      </trkpt>
      <trkpt lat="37.7071560" lon="-3.6404750">
        <ele>554.8</ele>
        <time>2020-07-16T09:53:19Z</time>
      </trkpt>
      <trkpt lat="37.7074540" lon="-3.6405430">
        <ele>554.4</ele>
        <time>2020-07-16T09:53:22Z</time>
      </trkpt>
      <trkpt lat="37.7075540" lon="-3.6405670">
        <ele>554.4</ele>
        <time>2020-07-16T09:53:23Z</time>
      </trkpt>
      <trkpt lat="37.7081500" lon="-3.6407030">
        <ele>554.0</ele>
        <time>2020-07-16T09:53:29Z</time>
      </trkpt>
      <trkpt lat="37.7085300" lon="-3.6407920">
        <ele>553.4</ele>
        <time>2020-07-16T09:53:33Z</time>
      </trkpt>
      <trkpt lat="37.7086270" lon="-3.6408150">
        <ele>553.4</ele>
        <time>2020-07-16T09:53:34Z</time>
      </trkpt>
      <trkpt lat="37.7091990" lon="-3.6409980">
        <ele>553.0</ele>
        <time>2020-07-16T09:53:40Z</time>
      </trkpt>
      <trkpt lat="37.7093900" lon="-3.6410940">
        <ele>552.6</ele>
        <time>2020-07-16T09:53:42Z</time>
      </trkpt>
      <trkpt lat="37.7096530" lon="-3.6412740">
        <ele>552.4</ele>
        <time>2020-07-16T09:53:45Z</time>
      </trkpt>
      <trkpt lat="37.7098200" lon="-3.6414220">
        <ele>552.4</ele>
        <time>2020-07-16T09:53:47Z</time>
      </trkpt>
      <trkpt lat="37.7101880" lon="-3.6418520">
        <ele>551.4</ele>
        <time>2020-07-16T09:53:52Z</time>
      </trkpt>
      <trkpt lat="37.7102540" lon="-3.6419510">
        <ele>551.2</ele>
        <time>2020-07-16T09:53:53Z</time>
      </trkpt>
      <trkpt lat="37.7104860" lon="-3.6423820">
        <ele>550.6</ele>
        <time>2020-07-16T09:53:57Z</time>
      </trkpt>
      <trkpt lat="37.7106810" lon="-3.6429790">
        <ele>550.2</ele>
        <time>2020-07-16T09:54:02Z</time>
      </trkpt>
      <trkpt lat="37.7107070" lon="-3.6430950">
        <ele>550.0</ele>
        <time>2020-07-16T09:54:03Z</time>
      </trkpt>
      <trkpt lat="37.7107680" lon="-3.6436030">
        <ele>549.6</ele>
        <time>2020-07-16T09:54:07Z</time>
      </trkpt>
      <trkpt lat="37.7107810" lon="-3.6439720">
        <ele>549.0</ele>
        <time>2020-07-16T09:54:10Z</time>
      </trkpt>
      <trkpt lat="37.7107730" lon="-3.6444630">
        <ele>548.2</ele>
        <time>2020-07-16T09:54:14Z</time>
      </trkpt>
      <trkpt lat="37.7107680" lon="-3.6446960">
        <ele>548.0</ele>
        <time>2020-07-16T09:54:16Z</time>
      </trkpt>
      <trkpt lat="37.7107490" lon="-3.6451670">
        <ele>548.0</ele>
        <time>2020-07-16T09:54:20Z</time>
      </trkpt>
      <trkpt lat="37.7107450" lon="-3.6453840">
        <ele>547.8</ele>
        <time>2020-07-16T09:54:22Z</time>
      </trkpt>
      <trkpt lat="37.7107330" lon="-3.6458230">
        <ele>547.8</ele>
        <time>2020-07-16T09:54:26Z</time>
      </trkpt>
      <trkpt lat="37.7107300" lon="-3.6459270">
        <ele>547.8</ele>
        <time>2020-07-16T09:54:27Z</time>
      </trkpt>
      <trkpt lat="37.7107590" lon="-3.6466410">
        <ele>548.2</ele>
        <time>2020-07-16T09:54:34Z</time>
      </trkpt>
      <trkpt lat="37.7108850" lon="-3.6470970">
        <ele>548.8</ele>
        <time>2020-07-16T09:54:39Z</time>
      </trkpt>
      <trkpt lat="37.7110910" lon="-3.6474670">
        <ele>548.2</ele>
        <time>2020-07-16T09:54:44Z</time>
      </trkpt>
      <trkpt lat="37.7113680" lon="-3.6477650">
        <ele>548.4</ele>
        <time>2020-07-16T09:54:49Z</time>
      </trkpt>
      <trkpt lat="37.7114300" lon="-3.6478150">
        <ele>548.6</ele>
        <time>2020-07-16T09:54:50Z</time>
      </trkpt>
      <trkpt lat="37.7116880" lon="-3.6480260">
        <ele>548.6</ele>
        <time>2020-07-16T09:54:54Z</time>
      </trkpt>
      <trkpt lat="37.7118870" lon="-3.6481890">
        <ele>549.0</ele>
        <time>2020-07-16T09:54:57Z</time>
      </trkpt>
      <trkpt lat="37.7119470" lon="-3.6482390">
        <ele>549.0</ele>
        <time>2020-07-16T09:54:58Z</time>
      </trkpt>
      <trkpt lat="37.7124260" lon="-3.6486330">
        <ele>548.6</ele>
        <time>2020-07-16T09:55:05Z</time>
      </trkpt>
      <trkpt lat="37.7126980" lon="-3.6488690">
        <ele>548.8</ele>
        <time>2020-07-16T09:55:09Z</time>
      </trkpt>
      <trkpt lat="37.7129490" lon="-3.6491590">
        <ele>547.8</ele>
        <time>2020-07-16T09:55:13Z</time>
      </trkpt>
      <trkpt lat="37.7130080" lon="-3.6492510">
        <ele>547.6</ele>
        <time>2020-07-16T09:55:14Z</time>
      </trkpt>
      <trkpt lat="37.7131860" lon="-3.6496510">
        <ele>546.6</ele>
        <time>2020-07-16T09:55:18Z</time>
      </trkpt>
      <trkpt lat="37.7132770" lon="-3.6501210">
        <ele>545.8</ele>
        <time>2020-07-16T09:55:22Z</time>
      </trkpt>
      <trkpt lat="37.7132820" lon="-3.6502440">
        <ele>545.4</ele>
        <time>2020-07-16T09:55:23Z</time>
      </trkpt>
      <trkpt lat="37.7132590" lon="-3.6506230">
        <ele>544.6</ele>
        <time>2020-07-16T09:55:26Z</time>
      </trkpt>
      <trkpt lat="37.7132360" lon="-3.6507460">
        <ele>544.2</ele>
        <time>2020-07-16T09:55:27Z</time>
      </trkpt>
      <trkpt lat="37.7132080" lon="-3.6508470">
        <ele>544.2</ele>
        <time>2020-07-16T09:55:28Z</time>
      </trkpt>
      <trkpt lat="37.7131280" lon="-3.6510910">
        <ele>544.2</ele>
        <time>2020-07-16T09:55:30Z</time>
      </trkpt>
      <trkpt lat="37.7129080" lon="-3.6515100">
        <ele>543.2</ele>
        <time>2020-07-16T09:55:34Z</time>
      </trkpt>
      <trkpt lat="37.7127120" lon="-3.6518120">
        <ele>542.0</ele>
        <time>2020-07-16T09:55:37Z</time>
      </trkpt>
      <trkpt lat="37.7124530" lon="-3.6522030">
        <ele>541.0</ele>
        <time>2020-07-16T09:55:41Z</time>
      </trkpt>
      <trkpt lat="37.7123890" lon="-3.6523010">
        <ele>540.6</ele>
        <time>2020-07-16T09:55:42Z</time>
      </trkpt>
      <trkpt lat="37.7120040" lon="-3.6528800">
        <ele>539.6</ele>
        <time>2020-07-16T09:55:48Z</time>
      </trkpt>
      <trkpt lat="37.7116870" lon="-3.6533680">
        <ele>538.8</ele>
        <time>2020-07-16T09:55:53Z</time>
      </trkpt>
      <trkpt lat="37.7115630" lon="-3.6535780">
        <ele>538.6</ele>
        <time>2020-07-16T09:55:55Z</time>
      </trkpt>
      <trkpt lat="37.7112910" lon="-3.6541240">
        <ele>537.6</ele>
        <time>2020-07-16T09:56:00Z</time>
      </trkpt>
      <trkpt lat="37.7112420" lon="-3.6542360">
        <ele>537.6</ele>
        <time>2020-07-16T09:56:01Z</time>
      </trkpt>
      <trkpt lat="37.7109810" lon="-3.6549220">
        <ele>537.2</ele>
        <time>2020-07-16T09:56:07Z</time>
      </trkpt>
      <trkpt lat="37.7109440" lon="-3.6550300">
        <ele>537.2</ele>
        <time>2020-07-16T09:56:08Z</time>
      </trkpt>
      <trkpt lat="37.7107110" lon="-3.6556990">
        <ele>536.8</ele>
        <time>2020-07-16T09:56:14Z</time>
      </trkpt>
      <trkpt lat="37.7105740" lon="-3.6561230">
        <ele>537.0</ele>
        <time>2020-07-16T09:56:18Z</time>
      </trkpt>
      <trkpt lat="37.7104970" lon="-3.6565560">
        <ele>537.0</ele>
        <time>2020-07-16T09:56:22Z</time>
      </trkpt>
      <trkpt lat="37.7104890" lon="-3.6566640">
        <ele>536.8</ele>
        <time>2020-07-16T09:56:23Z</time>
      </trkpt>
      <trkpt lat="37.7105070" lon="-3.6569950">
        <ele>537.2</ele>
        <time>2020-07-16T09:56:26Z</time>
      </trkpt>
      <trkpt lat="37.7105250" lon="-3.6570990">
        <ele>537.4</ele>
        <time>2020-07-16T09:56:27Z</time>
      </trkpt>
      <trkpt lat="37.7105980" lon="-3.6573950">
        <ele>538.0</ele>
        <time>2020-07-16T09:56:30Z</time>
      </trkpt>
      <trkpt lat="37.7106730" lon="-3.6575760">
        <ele>538.6</ele>
        <time>2020-07-16T09:56:32Z</time>
      </trkpt>
      <trkpt lat="37.7107590" lon="-3.6577390">
        <ele>538.8</ele>
        <time>2020-07-16T09:56:34Z</time>
      </trkpt>
      <trkpt lat="37.7108580" lon="-3.6578870">
        <ele>539.0</ele>
        <time>2020-07-16T09:56:36Z</time>
      </trkpt>
      <trkpt lat="37.7109240" lon="-3.6579740">
        <ele>539.2</ele>
        <time>2020-07-16T09:56:37Z</time>
      </trkpt>
      <trkpt lat="37.7111830" lon="-3.6582120">
        <ele>540.0</ele>
        <time>2020-07-16T09:56:41Z</time>
      </trkpt>
      <trkpt lat="37.7112510" lon="-3.6582590">
        <ele>540.2</ele>
        <time>2020-07-16T09:56:42Z</time>
      </trkpt>
      <trkpt lat="37.7115090" lon="-3.6583970">
        <ele>541.0</ele>
        <time>2020-07-16T09:56:46Z</time>
      </trkpt>
      <trkpt lat="37.7116500" lon="-3.6584650">
        <ele>541.4</ele>
        <time>2020-07-16T09:56:48Z</time>
      </trkpt>
      <trkpt lat="37.7119110" lon="-3.6585800">
        <ele>542.0</ele>
        <time>2020-07-16T09:56:52Z</time>
      </trkpt>
      <trkpt lat="37.7122400" lon="-3.6587280">
        <ele>542.6</ele>
        <time>2020-07-16T09:56:57Z</time>
      </trkpt>
      <trkpt lat="37.7124350" lon="-3.6588130">
        <ele>543.2</ele>
        <time>2020-07-16T09:57:00Z</time>
      </trkpt>
      <trkpt lat="37.7127630" lon="-3.6589610">
        <ele>543.8</ele>
        <time>2020-07-16T09:57:05Z</time>
      </trkpt>
      <trkpt lat="37.7129470" lon="-3.6590590">
        <ele>544.2</ele>
        <time>2020-07-16T09:57:08Z</time>
      </trkpt>
      <trkpt lat="37.7132590" lon="-3.6592760">
        <ele>544.6</ele>
        <time>2020-07-16T09:57:13Z</time>
      </trkpt>
      <trkpt lat="37.7135310" lon="-3.6596040">
        <ele>544.8</ele>
        <time>2020-07-16T09:57:18Z</time>
      </trkpt>
      <trkpt lat="37.7137360" lon="-3.6600330">
        <ele>544.4</ele>
        <time>2020-07-16T09:57:23Z</time>
      </trkpt>
      <trkpt lat="37.7138620" lon="-3.6604430">
        <ele>543.6</ele>
        <time>2020-07-16T09:57:27Z</time>
      </trkpt>
      <trkpt lat="37.7138880" lon="-3.6605380">
        <ele>543.2</ele>
        <time>2020-07-16T09:57:28Z</time>
      </trkpt>
      <trkpt lat="37.7139220" lon="-3.6606600">
        <ele>542.8</ele>
        <time>2020-07-16T09:57:29Z</time>
      </trkpt>
      <trkpt lat="37.7139870" lon="-3.6608950">
        <ele>542.2</ele>
        <time>2020-07-16T09:57:31Z</time>
      </trkpt>
      <trkpt lat="37.7140530" lon="-3.6611280">
        <ele>541.6</ele>
        <time>2020-07-16T09:57:33Z</time>
      </trkpt>
      <trkpt lat="37.7140880" lon="-3.6612490">
        <ele>541.0</ele>
        <time>2020-07-16T09:57:34Z</time>
      </trkpt>
      <trkpt lat="37.7141660" lon="-3.6615160">
        <ele>540.4</ele>
        <time>2020-07-16T09:57:36Z</time>
      </trkpt>
      <trkpt lat="37.7142010" lon="-3.6616460">
        <ele>540.0</ele>
        <time>2020-07-16T09:57:37Z</time>
      </trkpt>
      <trkpt lat="37.7143090" lon="-3.6620290">
        <ele>539.4</ele>
        <time>2020-07-16T09:57:40Z</time>
      </trkpt>
      <trkpt lat="37.7143470" lon="-3.6621690">
        <ele>539.0</ele>
        <time>2020-07-16T09:57:41Z</time>
      </trkpt>
      <trkpt lat="37.7144540" lon="-3.6625520">
        <ele>538.0</ele>
        <time>2020-07-16T09:57:44Z</time>
      </trkpt>
      <trkpt lat="37.7144900" lon="-3.6626820">
        <ele>538.0</ele>
        <time>2020-07-16T09:57:45Z</time>
      </trkpt>
      <trkpt lat="37.7146630" lon="-3.6632840">
        <ele>537.6</ele>
        <time>2020-07-16T09:57:50Z</time>
      </trkpt>
      <trkpt lat="37.7147610" lon="-3.6636250">
        <ele>537.4</ele>
        <time>2020-07-16T09:57:53Z</time>
      </trkpt>
      <trkpt lat="37.7148610" lon="-3.6639780">
        <ele>537.4</ele>
        <time>2020-07-16T09:57:56Z</time>
      </trkpt>
      <trkpt lat="37.7149240" lon="-3.6641930">
        <ele>537.4</ele>
        <time>2020-07-16T09:57:58Z</time>
      </trkpt>
      <trkpt lat="37.7149930" lon="-3.6644380">
        <ele>537.4</ele>
        <time>2020-07-16T09:58:00Z</time>
      </trkpt>
      <trkpt lat="37.7150550" lon="-3.6646710">
        <ele>537.4</ele>
        <time>2020-07-16T09:58:02Z</time>
      </trkpt>
      <trkpt lat="37.7151510" lon="-3.6650300">
        <ele>537.4</ele>
        <time>2020-07-16T09:58:05Z</time>
      </trkpt>
      <trkpt lat="37.7153380" lon="-3.6657670">
        <ele>536.8</ele>
        <time>2020-07-16T09:58:11Z</time>
      </trkpt>
      <trkpt lat="37.7154600" lon="-3.6662730">
        <ele>536.0</ele>
        <time>2020-07-16T09:58:15Z</time>
      </trkpt>
      <trkpt lat="37.7154880" lon="-3.6663940">
        <ele>535.8</ele>
        <time>2020-07-16T09:58:16Z</time>
      </trkpt>
      <trkpt lat="37.7156060" lon="-3.6669290">
        <ele>534.8</ele>
        <time>2020-07-16T09:58:20Z</time>
      </trkpt>
      <trkpt lat="37.7156350" lon="-3.6670630">
        <ele>534.6</ele>
        <time>2020-07-16T09:58:21Z</time>
      </trkpt>
      <trkpt lat="37.7157230" lon="-3.6674600">
        <ele>533.8</ele>
        <time>2020-07-16T09:58:24Z</time>
      </trkpt>
      <trkpt lat="37.7157830" lon="-3.6677290">
        <ele>533.4</ele>
        <time>2020-07-16T09:58:26Z</time>
      </trkpt>
      <trkpt lat="37.7159320" lon="-3.6683980">
        <ele>532.4</ele>
        <time>2020-07-16T09:58:31Z</time>
      </trkpt>
      <trkpt lat="37.7159870" lon="-3.6686590">
        <ele>531.8</ele>
        <time>2020-07-16T09:58:33Z</time>
      </trkpt>
      <trkpt lat="37.7160150" lon="-3.6687920">
        <ele>531.4</ele>
        <time>2020-07-16T09:58:34Z</time>
      </trkpt>
      <trkpt lat="37.7161670" lon="-3.6694580">
        <ele>530.8</ele>
        <time>2020-07-16T09:58:39Z</time>
      </trkpt>
      <trkpt lat="37.7162240" lon="-3.6697160">
        <ele>530.4</ele>
        <time>2020-07-16T09:58:41Z</time>
      </trkpt>
      <trkpt lat="37.7162510" lon="-3.6698420">
        <ele>530.2</ele>
        <time>2020-07-16T09:58:42Z</time>
      </trkpt>
      <trkpt lat="37.7164150" lon="-3.6705870">
        <ele>530.0</ele>
        <time>2020-07-16T09:58:48Z</time>
      </trkpt>
      <trkpt lat="37.7165250" lon="-3.6710810">
        <ele>529.6</ele>
        <time>2020-07-16T09:58:52Z</time>
      </trkpt>
      <trkpt lat="37.7166860" lon="-3.6718070">
        <ele>529.6</ele>
        <time>2020-07-16T09:58:58Z</time>
      </trkpt>
      <trkpt lat="37.7167480" lon="-3.6720600">
        <ele>529.6</ele>
        <time>2020-07-16T09:59:00Z</time>
      </trkpt>
      <trkpt lat="37.7168100" lon="-3.6722970">
        <ele>529.2</ele>
        <time>2020-07-16T09:59:02Z</time>
      </trkpt>
      <trkpt lat="37.7170460" lon="-3.6729750">
        <ele>529.0</ele>
        <time>2020-07-16T09:59:08Z</time>
      </trkpt>
      <trkpt lat="37.7173550" lon="-3.6736150">
        <ele>528.6</ele>
        <time>2020-07-16T09:59:14Z</time>
      </trkpt>
      <trkpt lat="37.7174130" lon="-3.6737190">
        <ele>528.6</ele>
        <time>2020-07-16T09:59:15Z</time>
      </trkpt>
      <trkpt lat="37.7176550" lon="-3.6741020">
        <ele>528.2</ele>
        <time>2020-07-16T09:59:19Z</time>
      </trkpt>
      <trkpt lat="37.7178530" lon="-3.6743710">
        <ele>528.0</ele>
        <time>2020-07-16T09:59:22Z</time>
      </trkpt>
      <trkpt lat="37.7182720" lon="-3.6748650">
        <ele>527.6</ele>
        <time>2020-07-16T09:59:28Z</time>
      </trkpt>
      <trkpt lat="37.7184970" lon="-3.6751140">
        <ele>527.6</ele>
        <time>2020-07-16T09:59:31Z</time>
      </trkpt>
      <trkpt lat="37.7189350" lon="-3.6755790">
        <ele>527.8</ele>
        <time>2020-07-16T09:59:37Z</time>
      </trkpt>
      <trkpt lat="37.7191050" lon="-3.6757340">
        <ele>527.4</ele>
        <time>2020-07-16T09:59:39Z</time>
      </trkpt>
      <trkpt lat="37.7191930" lon="-3.6758100">
        <ele>527.0</ele>
        <time>2020-07-16T09:59:40Z</time>
      </trkpt>
      <trkpt lat="37.7194800" lon="-3.6760370">
        <ele>525.8</ele>
        <time>2020-07-16T09:59:43Z</time>
      </trkpt>
      <trkpt lat="37.7196830" lon="-3.6761950">
        <ele>525.0</ele>
        <time>2020-07-16T09:59:45Z</time>
      </trkpt>
      <trkpt lat="37.7197800" lon="-3.6762640">
        <ele>524.8</ele>
        <time>2020-07-16T09:59:46Z</time>
      </trkpt>
      <trkpt lat="37.7200980" lon="-3.6764820">
        <ele>523.6</ele>
        <time>2020-07-16T09:59:49Z</time>
      </trkpt>
      <trkpt lat="37.7204060" lon="-3.6766860">
        <ele>522.4</ele>
        <time>2020-07-16T09:59:52Z</time>
      </trkpt>
      <trkpt lat="37.7207140" lon="-3.6768910">
        <ele>521.0</ele>
        <time>2020-07-16T09:59:55Z</time>
      </trkpt>
      <trkpt lat="37.7212030" lon="-3.6772140">
        <ele>520.0</ele>
        <time>2020-07-16T10:00:00Z</time>
      </trkpt>
      <trkpt lat="37.7216580" lon="-3.6775240">
        <ele>518.8</ele>
        <time>2020-07-16T10:00:05Z</time>
      </trkpt>
      <trkpt lat="37.7219290" lon="-3.6777010">
        <ele>518.4</ele>
        <time>2020-07-16T10:00:08Z</time>
      </trkpt>
      <trkpt lat="37.7223840" lon="-3.6780070">
        <ele>517.8</ele>
        <time>2020-07-16T10:00:13Z</time>
      </trkpt>
      <trkpt lat="37.7229150" lon="-3.6784120">
        <ele>517.0</ele>
        <time>2020-07-16T10:00:19Z</time>
      </trkpt>
      <trkpt lat="37.7232300" lon="-3.6787140">
        <ele>516.6</ele>
        <time>2020-07-16T10:00:23Z</time>
      </trkpt>
      <trkpt lat="37.7233800" lon="-3.6788770">
        <ele>516.6</ele>
        <time>2020-07-16T10:00:25Z</time>
      </trkpt>
      <trkpt lat="37.7237580" lon="-3.6793700">
        <ele>516.6</ele>
        <time>2020-07-16T10:00:31Z</time>
      </trkpt>
      <trkpt lat="37.7239760" lon="-3.6796920">
        <ele>516.8</ele>
        <time>2020-07-16T10:00:35Z</time>
      </trkpt>
      <trkpt lat="37.7241210" lon="-3.6798650">
        <ele>517.2</ele>
        <time>2020-07-16T10:00:38Z</time>
      </trkpt>
      <trkpt lat="37.7242030" lon="-3.6799340">
        <ele>517.4</ele>
        <time>2020-07-16T10:00:39Z</time>
      </trkpt>
      <trkpt lat="37.7243370" lon="-3.6799860">
        <ele>517.8</ele>
        <time>2020-07-16T10:00:41Z</time>
      </trkpt>
      <trkpt lat="37.7244000" lon="-3.6799790">
        <ele>518.0</ele>
        <time>2020-07-16T10:00:42Z</time>
      </trkpt>
      <trkpt lat="37.7245530" lon="-3.6798990">
        <ele>519.2</ele>
        <time>2020-07-16T10:00:45Z</time>
      </trkpt>
      <trkpt lat="37.7246880" lon="-3.6798290">
        <ele>520.2</ele>
        <time>2020-07-16T10:00:48Z</time>
      </trkpt>
      <trkpt lat="37.7247700" lon="-3.6797620">
        <ele>520.6</ele>
        <time>2020-07-16T10:00:50Z</time>
      </trkpt>
      <trkpt lat="37.7248050" lon="-3.6797190">
        <ele>520.8</ele>
        <time>2020-07-16T10:00:51Z</time>
      </trkpt>
      <trkpt lat="37.7248850" lon="-3.6795820">
        <ele>521.2</ele>
        <time>2020-07-16T10:00:54Z</time>
      </trkpt>
      <trkpt lat="37.7249070" lon="-3.6795330">
        <ele>521.6</ele>
        <time>2020-07-16T10:00:55Z</time>
      </trkpt>
      <trkpt lat="37.7249280" lon="-3.6794850">
        <ele>521.8</ele>
        <time>2020-07-16T10:00:56Z</time>
      </trkpt>
      <trkpt lat="37.7249690" lon="-3.6793950">
        <ele>522.6</ele>
        <time>2020-07-16T10:00:58Z</time>
      </trkpt>
      <trkpt lat="37.7250740" lon="-3.6791510">
        <ele>523.4</ele>
        <time>2020-07-16T10:01:03Z</time>
      </trkpt>
      <trkpt lat="37.7251160" lon="-3.6790500">
        <ele>523.8</ele>
        <time>2020-07-16T10:01:05Z</time>
      </trkpt>
      <trkpt lat="37.7251570" lon="-3.6789420">
        <ele>524.0</ele>
        <time>2020-07-16T10:01:07Z</time>
      </trkpt>
      <trkpt lat="37.7252570" lon="-3.6786020">
        <ele>524.6</ele>
        <time>2020-07-16T10:01:13Z</time>
      </trkpt>
      <trkpt lat="37.7252620" lon="-3.6785330">
        <ele>524.8</ele>
        <time>2020-07-16T10:01:14Z</time>
      </trkpt>
      <trkpt lat="37.7252630" lon="-3.6784640">
        <ele>524.8</ele>
        <time>2020-07-16T10:01:15Z</time>
      </trkpt>
      <trkpt lat="37.7252260" lon="-3.6782850">
        <ele>524.8</ele>
        <time>2020-07-16T10:01:18Z</time>
      </trkpt>
      <trkpt lat="37.7251390" lon="-3.6781480">
        <ele>525.0</ele>
        <time>2020-07-16T10:01:22Z</time>
      </trkpt>
      <trkpt lat="37.7250650" lon="-3.6780810">
        <ele>525.6</ele>
        <time>2020-07-16T10:01:24Z</time>
      </trkpt>
      <trkpt lat="37.7250310" lon="-3.6780620">
        <ele>526.2</ele>
        <time>2020-07-16T10:01:25Z</time>
      </trkpt>
      <trkpt lat="37.7249590" lon="-3.6780290">
        <ele>527.0</ele>
        <time>2020-07-16T10:01:28Z</time>
      </trkpt>
      <trkpt lat="37.7249150" lon="-3.6780120">
        <ele>527.2</ele>
        <time>2020-07-16T10:01:29Z</time>
      </trkpt>
      <trkpt lat="37.7247970" lon="-3.6779600">
        <ele>528.4</ele>
        <time>2020-07-16T10:01:33Z</time>
      </trkpt>
      <trkpt lat="37.7246990" lon="-3.6779290">
        <ele>529.2</ele>
        <time>2020-07-16T10:01:36Z</time>
      </trkpt>
      <trkpt lat="37.7246690" lon="-3.6779200">
        <ele>529.4</ele>
        <time>2020-07-16T10:01:37Z</time>
      </trkpt>
      <trkpt lat="37.7245260" lon="-3.6778810">
        <ele>530.6</ele>
        <time>2020-07-16T10:01:42Z</time>
      </trkpt>
      <trkpt lat="37.7245000" lon="-3.6778750">
        <ele>531.0</ele>
        <time>2020-07-16T10:01:43Z</time>
      </trkpt>
      <trkpt lat="37.7244430" lon="-3.6778540">
        <ele>531.8</ele>
        <time>2020-07-16T10:01:45Z</time>
      </trkpt>
      <trkpt lat="37.7243020" lon="-3.6778090">
        <ele>532.8</ele>
        <time>2020-07-16T10:01:50Z</time>
      </trkpt>
      <trkpt lat="37.7242200" lon="-3.6777840">
        <ele>533.6</ele>
        <time>2020-07-16T10:01:53Z</time>
      </trkpt>
      <trkpt lat="37.7241640" lon="-3.6777620">
        <ele>534.0</ele>
        <time>2020-07-16T10:01:55Z</time>
      </trkpt>
      <trkpt lat="37.7239780" lon="-3.6776650">
        <ele>535.2</ele>
        <time>2020-07-16T10:02:02Z</time>
      </trkpt>
      <trkpt lat="37.7239550" lon="-3.6776520">
        <ele>535.4</ele>
        <time>2020-07-16T10:02:03Z</time>
      </trkpt>
      <trkpt lat="37.7238570" lon="-3.6775910">
        <ele>536.4</ele>
        <time>2020-07-16T10:02:07Z</time>
      </trkpt>
      <trkpt lat="37.7237780" lon="-3.6775150">
        <ele>537.0</ele>
        <time>2020-07-16T10:02:11Z</time>
      </trkpt>
      <trkpt lat="37.7237370" lon="-3.6774660">
        <ele>537.6</ele>
        <time>2020-07-16T10:02:13Z</time>
      </trkpt>
      <trkpt lat="37.7236680" lon="-3.6773740">
        <ele>538.8</ele>
        <time>2020-07-16T10:02:17Z</time>
      </trkpt>
      <trkpt lat="37.7236390" lon="-3.6773260">
        <ele>539.2</ele>
        <time>2020-07-16T10:02:19Z</time>
      </trkpt>
      <trkpt lat="37.7235990" lon="-3.6772540">
        <ele>539.8</ele>
        <time>2020-07-16T10:02:22Z</time>
      </trkpt>
      <trkpt lat="37.7235540" lon="-3.6771560">
        <ele>540.8</ele>
        <time>2020-07-16T10:02:26Z</time>
      </trkpt>
      <trkpt lat="37.7235400" lon="-3.6771220">
        <ele>541.2</ele>
        <time>2020-07-16T10:02:28Z</time>
      </trkpt>
      <trkpt lat="37.7235060" lon="-3.6770260">
        <ele>542.0</ele>
        <time>2020-07-16T10:02:31Z</time>
      </trkpt>
      <trkpt lat="37.7234680" lon="-3.6768670">
        <ele>543.2</ele>
        <time>2020-07-16T10:02:36Z</time>
      </trkpt>
      <trkpt lat="37.7234640" lon="-3.6768320">
        <ele>543.4</ele>
        <time>2020-07-16T10:02:37Z</time>
      </trkpt>
      <trkpt lat="37.7234400" lon="-3.6766960">
        <ele>544.2</ele>
        <time>2020-07-16T10:02:41Z</time>
      </trkpt>
      <trkpt lat="37.7234340" lon="-3.6765950">
        <ele>544.4</ele>
        <time>2020-07-16T10:02:44Z</time>
      </trkpt>
      <trkpt lat="37.7234290" lon="-3.6764600">
        <ele>545.2</ele>
        <time>2020-07-16T10:02:48Z</time>
      </trkpt>
      <trkpt lat="37.7234400" lon="-3.6762900">
        <ele>546.2</ele>
        <time>2020-07-16T10:02:53Z</time>
      </trkpt>
      <trkpt lat="37.7234520" lon="-3.6762210">
        <ele>546.6</ele>
        <time>2020-07-16T10:02:55Z</time>
      </trkpt>
      <trkpt lat="37.7234840" lon="-3.6760870">
        <ele>547.4</ele>
        <time>2020-07-16T10:02:59Z</time>
      </trkpt>
      <trkpt lat="37.7235420" lon="-3.6758900">
        <ele>548.4</ele>
        <time>2020-07-16T10:03:05Z</time>
      </trkpt>
      <trkpt lat="37.7235980" lon="-3.6757710">
        <ele>549.2</ele>
        <time>2020-07-16T10:03:09Z</time>
      </trkpt>
      <trkpt lat="37.7236220" lon="-3.6757080">
        <ele>549.6</ele>
        <time>2020-07-16T10:03:11Z</time>
      </trkpt>
      <trkpt lat="37.7236300" lon="-3.6756740">
        <ele>549.6</ele>
        <time>2020-07-16T10:03:12Z</time>
      </trkpt>
      <trkpt lat="37.7236820" lon="-3.6754780">
        <ele>550.6</ele>
        <time>2020-07-16T10:03:18Z</time>
      </trkpt>
      <trkpt lat="37.7236880" lon="-3.6754410">
        <ele>550.8</ele>
        <time>2020-07-16T10:03:19Z</time>
      </trkpt>
      <trkpt lat="37.7236990" lon="-3.6753080">
        <ele>551.6</ele>
        <time>2020-07-16T10:03:23Z</time>
      </trkpt>
      <trkpt lat="37.7237090" lon="-3.6751760">
        <ele>552.4</ele>
        <time>2020-07-16T10:03:27Z</time>
      </trkpt>
      <trkpt lat="37.7237130" lon="-3.6751140">
        <ele>552.6</ele>
        <time>2020-07-16T10:03:29Z</time>
      </trkpt>
      <trkpt lat="37.7237200" lon="-3.6749120">
        <ele>553.8</ele>
        <time>2020-07-16T10:03:35Z</time>
      </trkpt>
      <trkpt lat="37.7237200" lon="-3.6748130">
        <ele>554.4</ele>
        <time>2020-07-16T10:03:38Z</time>
      </trkpt>
      <trkpt lat="37.7237160" lon="-3.6747360">
        <ele>555.0</ele>
        <time>2020-07-16T10:03:40Z</time>
      </trkpt>
      <trkpt lat="37.7237210" lon="-3.6745630">
        <ele>556.2</ele>
        <time>2020-07-16T10:03:45Z</time>
      </trkpt>
      <trkpt lat="37.7237200" lon="-3.6745320">
        <ele>556.4</ele>
        <time>2020-07-16T10:03:46Z</time>
      </trkpt>
      <trkpt lat="37.7237160" lon="-3.6743650">
        <ele>557.4</ele>
        <time>2020-07-16T10:03:51Z</time>
      </trkpt>
      <trkpt lat="37.7237110" lon="-3.6742350">
        <ele>558.2</ele>
        <time>2020-07-16T10:03:55Z</time>
      </trkpt>
      <trkpt lat="37.7237110" lon="-3.6741710">
        <ele>558.6</ele>
        <time>2020-07-16T10:03:57Z</time>
      </trkpt>
      <trkpt lat="37.7237060" lon="-3.6739870">
        <ele>559.6</ele>
        <time>2020-07-16T10:04:03Z</time>
      </trkpt>
      <trkpt lat="37.7236910" lon="-3.6738600">
        <ele>560.4</ele>
        <time>2020-07-16T10:04:07Z</time>
      </trkpt>
      <trkpt lat="37.7236840" lon="-3.6737970">
        <ele>560.6</ele>
        <time>2020-07-16T10:04:09Z</time>
      </trkpt>
      <trkpt lat="37.7236540" lon="-3.6735800">
        <ele>561.8</ele>
        <time>2020-07-16T10:04:16Z</time>
      </trkpt>
      <trkpt lat="37.7236500" lon="-3.6735470">
        <ele>562.0</ele>
        <time>2020-07-16T10:04:17Z</time>
      </trkpt>
      <trkpt lat="37.7236260" lon="-3.6734270">
        <ele>563.0</ele>
        <time>2020-07-16T10:04:21Z</time>
      </trkpt>
      <trkpt lat="37.7235900" lon="-3.6732440">
        <ele>564.0</ele>
        <time>2020-07-16T10:04:27Z</time>
      </trkpt>
      <trkpt lat="37.7235860" lon="-3.6732180">
        <ele>564.2</ele>
        <time>2020-07-16T10:04:28Z</time>
      </trkpt>
      <trkpt lat="37.7235460" lon="-3.6730330">
        <ele>565.2</ele>
        <time>2020-07-16T10:04:34Z</time>
      </trkpt>
      <trkpt lat="37.7235300" lon="-3.6729700">
        <ele>565.4</ele>
        <time>2020-07-16T10:04:36Z</time>
      </trkpt>
      <trkpt lat="37.7235060" lon="-3.6728490">
        <ele>566.2</ele>
        <time>2020-07-16T10:04:40Z</time>
      </trkpt>
      <trkpt lat="37.7234690" lon="-3.6726790">
        <ele>567.2</ele>
        <time>2020-07-16T10:04:45Z</time>
      </trkpt>
      <trkpt lat="37.7234520" lon="-3.6726110">
        <ele>567.4</ele>
        <time>2020-07-16T10:04:47Z</time>
      </trkpt>
      <trkpt lat="37.7234240" lon="-3.6724710">
        <ele>568.2</ele>
        <time>2020-07-16T10:04:51Z</time>
      </trkpt>
      <trkpt lat="37.7233730" lon="-3.6722570">
        <ele>569.2</ele>
        <time>2020-07-16T10:04:57Z</time>
      </trkpt>
      <trkpt lat="37.7233570" lon="-3.6721830">
        <ele>569.4</ele>
        <time>2020-07-16T10:04:59Z</time>
      </trkpt>
      <trkpt lat="37.7233150" lon="-3.6719990">
        <ele>570.6</ele>
        <time>2020-07-16T10:05:04Z</time>
      </trkpt>
      <trkpt lat="37.7233010" lon="-3.6719190">
        <ele>571.0</ele>
        <time>2020-07-16T10:05:06Z</time>
      </trkpt>
      <trkpt lat="37.7232730" lon="-3.6717710">
        <ele>571.8</ele>
        <time>2020-07-16T10:05:10Z</time>
      </trkpt>
      <trkpt lat="37.7232480" lon="-3.6716580">
        <ele>572.4</ele>
        <time>2020-07-16T10:05:13Z</time>
      </trkpt>
      <trkpt lat="37.7232320" lon="-3.6715860">
        <ele>573.0</ele>
        <time>2020-07-16T10:05:15Z</time>
      </trkpt>
      <trkpt lat="37.7232020" lon="-3.6714470">
        <ele>573.6</ele>
        <time>2020-07-16T10:05:19Z</time>
      </trkpt>
      <trkpt lat="37.7231710" lon="-3.6713450">
        <ele>574.0</ele>
        <time>2020-07-16T10:05:22Z</time>
      </trkpt>
      <trkpt lat="37.7231370" lon="-3.6711990">
        <ele>575.0</ele>
        <time>2020-07-16T10:05:26Z</time>
      </trkpt>
      <trkpt lat="37.7231300" lon="-3.6711630">
        <ele>575.2</ele>
        <time>2020-07-16T10:05:27Z</time>
      </trkpt>
      <trkpt lat="37.7230940" lon="-3.6709870">
        <ele>576.2</ele>
        <time>2020-07-16T10:05:32Z</time>
      </trkpt>
      <trkpt lat="37.7230630" lon="-3.6708520">
        <ele>576.8</ele>
        <time>2020-07-16T10:05:36Z</time>
      </trkpt>
      <trkpt lat="37.7230370" lon="-3.6707530">
        <ele>577.4</ele>
        <time>2020-07-16T10:05:39Z</time>
      </trkpt>
      <trkpt lat="37.7230000" lon="-3.6705850">
        <ele>578.4</ele>
        <time>2020-07-16T10:05:44Z</time>
      </trkpt>
      <trkpt lat="37.7229780" lon="-3.6704840">
        <ele>579.2</ele>
        <time>2020-07-16T10:05:47Z</time>
      </trkpt>
      <trkpt lat="37.7229700" lon="-3.6704540">
        <ele>579.4</ele>
        <time>2020-07-16T10:05:48Z</time>
      </trkpt>
      <trkpt lat="37.7229260" lon="-3.6702570">
        <ele>580.6</ele>
        <time>2020-07-16T10:05:54Z</time>
      </trkpt>
      <trkpt lat="37.7229060" lon="-3.6701560">
        <ele>581.2</ele>
        <time>2020-07-16T10:05:57Z</time>
      </trkpt>
      <trkpt lat="37.7228880" lon="-3.6700530">
        <ele>581.6</ele>
        <time>2020-07-16T10:06:00Z</time>
      </trkpt>
      <trkpt lat="37.7228600" lon="-3.6698500">
        <ele>582.6</ele>
        <time>2020-07-16T10:06:06Z</time>
      </trkpt>
      <trkpt lat="37.7228570" lon="-3.6698160">
        <ele>582.8</ele>
        <time>2020-07-16T10:06:07Z</time>
      </trkpt>
      <trkpt lat="37.7228280" lon="-3.6696060">
        <ele>584.0</ele>
        <time>2020-07-16T10:06:13Z</time>
      </trkpt>
      <trkpt lat="37.7228230" lon="-3.6695320">
        <ele>584.2</ele>
        <time>2020-07-16T10:06:15Z</time>
      </trkpt>
      <trkpt lat="37.7228130" lon="-3.6693620">
        <ele>585.0</ele>
        <time>2020-07-16T10:06:20Z</time>
      </trkpt>
      <trkpt lat="37.7228060" lon="-3.6692340">
        <ele>585.8</ele>
        <time>2020-07-16T10:06:24Z</time>
      </trkpt>
      <trkpt lat="37.7227990" lon="-3.6691390">
        <ele>586.2</ele>
        <time>2020-07-16T10:06:27Z</time>
      </trkpt>
      <trkpt lat="37.7227970" lon="-3.6690080">
        <ele>587.4</ele>
        <time>2020-07-16T10:06:31Z</time>
      </trkpt>
      <trkpt lat="37.7227920" lon="-3.6688710">
        <ele>588.0</ele>
        <time>2020-07-16T10:06:35Z</time>
      </trkpt>
      <trkpt lat="37.7227810" lon="-3.6687980">
        <ele>588.4</ele>
        <time>2020-07-16T10:06:37Z</time>
      </trkpt>
      <trkpt lat="37.7227630" lon="-3.6686240">
        <ele>589.6</ele>
        <time>2020-07-16T10:06:42Z</time>
      </trkpt>
      <trkpt lat="37.7227520" lon="-3.6685550">
        <ele>590.0</ele>
        <time>2020-07-16T10:06:44Z</time>
      </trkpt>
      <trkpt lat="37.7227390" lon="-3.6684510">
        <ele>590.6</ele>
        <time>2020-07-16T10:06:47Z</time>
      </trkpt>
      <trkpt lat="37.7227100" lon="-3.6682850">
        <ele>591.6</ele>
        <time>2020-07-16T10:06:52Z</time>
      </trkpt>
      <trkpt lat="37.7227050" lon="-3.6682520">
        <ele>591.8</ele>
        <time>2020-07-16T10:06:53Z</time>
      </trkpt>
      <trkpt lat="37.7226620" lon="-3.6680450">
        <ele>592.8</ele>
        <time>2020-07-16T10:06:59Z</time>
      </trkpt>
      <trkpt lat="37.7226410" lon="-3.6679370">
        <ele>593.4</ele>
        <time>2020-07-16T10:07:02Z</time>
      </trkpt>
      <trkpt lat="37.7226190" lon="-3.6678290">
        <ele>594.0</ele>
        <time>2020-07-16T10:07:05Z</time>
      </trkpt>
      <trkpt lat="37.7225720" lon="-3.6676170">
        <ele>595.0</ele>
        <time>2020-07-16T10:07:11Z</time>
      </trkpt>
      <trkpt lat="37.7225570" lon="-3.6675500">
        <ele>595.4</ele>
        <time>2020-07-16T10:07:13Z</time>
      </trkpt>
      <trkpt lat="37.7225330" lon="-3.6674470">
        <ele>596.2</ele>
        <time>2020-07-16T10:07:16Z</time>
      </trkpt>
      <trkpt lat="37.7224980" lon="-3.6672730">
        <ele>597.2</ele>
        <time>2020-07-16T10:07:21Z</time>
      </trkpt>
      <trkpt lat="37.7224620" lon="-3.6671000">
        <ele>598.0</ele>
        <time>2020-07-16T10:07:26Z</time>
      </trkpt>
      <trkpt lat="37.7224550" lon="-3.6670650">
        <ele>598.2</ele>
        <time>2020-07-16T10:07:27Z</time>
      </trkpt>
      <trkpt lat="37.7224070" lon="-3.6668220">
        <ele>599.4</ele>
        <time>2020-07-16T10:07:34Z</time>
      </trkpt>
      <trkpt lat="37.7223910" lon="-3.6667120">
        <ele>600.2</ele>
        <time>2020-07-16T10:07:37Z</time>
      </trkpt>
      <trkpt lat="37.7223810" lon="-3.6666400">
        <ele>600.6</ele>
        <time>2020-07-16T10:07:39Z</time>
      </trkpt>
      <trkpt lat="37.7223490" lon="-3.6663560">
        <ele>601.6</ele>
        <time>2020-07-16T10:07:46Z</time>
      </trkpt>
      <trkpt lat="37.7223480" lon="-3.6663090">
        <ele>601.6</ele>
        <time>2020-07-16T10:07:47Z</time>
      </trkpt>
      <trkpt lat="37.7223350" lon="-3.6659900">
        <ele>602.4</ele>
        <time>2020-07-16T10:07:54Z</time>
      </trkpt>
      <trkpt lat="37.7223300" lon="-3.6658940">
        <ele>602.6</ele>
        <time>2020-07-16T10:07:56Z</time>
      </trkpt>
      <trkpt lat="37.7223290" lon="-3.6658450">
        <ele>602.6</ele>
        <time>2020-07-16T10:07:57Z</time>
      </trkpt>
      <trkpt lat="37.7223310" lon="-3.6655550">
        <ele>603.0</ele>
        <time>2020-07-16T10:08:03Z</time>
      </trkpt>
      <trkpt lat="37.7223370" lon="-3.6654460">
        <ele>603.2</ele>
        <time>2020-07-16T10:08:05Z</time>
      </trkpt>
      <trkpt lat="37.7223460" lon="-3.6652630">
        <ele>603.6</ele>
        <time>2020-07-16T10:08:09Z</time>
      </trkpt>
      <trkpt lat="37.7223530" lon="-3.6651350">
        <ele>603.8</ele>
        <time>2020-07-16T10:08:11Z</time>
      </trkpt>
      <trkpt lat="37.7223650" lon="-3.6649680">
        <ele>603.8</ele>
        <time>2020-07-16T10:08:14Z</time>
      </trkpt>
      <trkpt lat="37.7223840" lon="-3.6647470">
        <ele>604.2</ele>
        <time>2020-07-16T10:08:18Z</time>
      </trkpt>
      <trkpt lat="37.7224040" lon="-3.6645580">
        <ele>604.4</ele>
        <time>2020-07-16T10:08:22Z</time>
      </trkpt>
      <trkpt lat="37.7224450" lon="-3.6643360">
        <ele>604.6</ele>
        <time>2020-07-16T10:08:26Z</time>
      </trkpt>
      <trkpt lat="37.7224770" lon="-3.6641790">
        <ele>604.8</ele>
        <time>2020-07-16T10:08:29Z</time>
      </trkpt>
      <trkpt lat="37.7225680" lon="-3.6638870">
        <ele>605.4</ele>
        <time>2020-07-16T10:08:35Z</time>
      </trkpt>
      <trkpt lat="37.7227060" lon="-3.6635510">
        <ele>605.8</ele>
        <time>2020-07-16T10:08:42Z</time>
      </trkpt>
      <trkpt lat="37.7227470" lon="-3.6634550">
        <ele>606.0</ele>
        <time>2020-07-16T10:08:44Z</time>
      </trkpt>
      <trkpt lat="37.7229310" lon="-3.6630480">
        <ele>606.6</ele>
        <time>2020-07-16T10:08:53Z</time>
      </trkpt>
      <trkpt lat="37.7229890" lon="-3.6629150">
        <ele>606.8</ele>
        <time>2020-07-16T10:08:56Z</time>
      </trkpt>
      <trkpt lat="37.7231300" lon="-3.6626230">
        <ele>607.6</ele>
        <time>2020-07-16T10:09:03Z</time>
      </trkpt>
      <trkpt lat="37.7231730" lon="-3.6625410">
        <ele>608.0</ele>
        <time>2020-07-16T10:09:05Z</time>
      </trkpt>
      <trkpt lat="37.7232320" lon="-3.6624290">
        <ele>608.4</ele>
        <time>2020-07-16T10:09:08Z</time>
      </trkpt>
      <trkpt lat="37.7233360" lon="-3.6622530">
        <ele>609.0</ele>
        <time>2020-07-16T10:09:13Z</time>
      </trkpt>
      <trkpt lat="37.7233580" lon="-3.6622190">
        <ele>609.0</ele>
        <time>2020-07-16T10:09:14Z</time>
      </trkpt>
      <trkpt lat="37.7234670" lon="-3.6620520">
        <ele>610.2</ele>
        <time>2020-07-16T10:09:19Z</time>
      </trkpt>
      <trkpt lat="37.7235820" lon="-3.6618760">
        <ele>610.8</ele>
        <time>2020-07-16T10:09:24Z</time>
      </trkpt>
      <trkpt lat="37.7236640" lon="-3.6617420">
        <ele>611.2</ele>
        <time>2020-07-16T10:09:28Z</time>
      </trkpt>
      <trkpt lat="37.7237770" lon="-3.6615490">
        <ele>612.2</ele>
        <time>2020-07-16T10:09:34Z</time>
      </trkpt>
      <trkpt lat="37.7237940" lon="-3.6615140">
        <ele>612.4</ele>
        <time>2020-07-16T10:09:35Z</time>
      </trkpt>
      <trkpt lat="37.7238780" lon="-3.6613220">
        <ele>613.4</ele>
        <time>2020-07-16T10:09:41Z</time>
      </trkpt>
      <trkpt lat="37.7239000" lon="-3.6612600">
        <ele>614.0</ele>
        <time>2020-07-16T10:09:43Z</time>
      </trkpt>
      <trkpt lat="37.7239340" lon="-3.6611620">
        <ele>614.6</ele>
        <time>2020-07-16T10:09:46Z</time>
      </trkpt>
      <trkpt lat="37.7239960" lon="-3.6609620">
        <ele>615.8</ele>
        <time>2020-07-16T10:09:52Z</time>
      </trkpt>
      <trkpt lat="37.7240140" lon="-3.6608950">
        <ele>616.0</ele>
        <time>2020-07-16T10:09:54Z</time>
      </trkpt>
      <trkpt lat="37.7240560" lon="-3.6607370">
        <ele>617.0</ele>
        <time>2020-07-16T10:09:59Z</time>
      </trkpt>
      <trkpt lat="37.7240880" lon="-3.6606070">
        <ele>618.0</ele>
        <time>2020-07-16T10:10:03Z</time>
      </trkpt>
      <trkpt lat="37.7240960" lon="-3.6605740">
        <ele>618.2</ele>
        <time>2020-07-16T10:10:04Z</time>
      </trkpt>
      <trkpt lat="37.7241480" lon="-3.6603740">
        <ele>619.0</ele>
        <time>2020-07-16T10:10:10Z</time>
      </trkpt>
      <trkpt lat="37.7241920" lon="-3.6602020">
        <ele>620.0</ele>
        <time>2020-07-16T10:10:15Z</time>
      </trkpt>
      <trkpt lat="37.7242020" lon="-3.6601700">
        <ele>620.0</ele>
        <time>2020-07-16T10:10:16Z</time>
      </trkpt>
      <trkpt lat="37.7243020" lon="-3.6598820">
        <ele>621.2</ele>
        <time>2020-07-16T10:10:24Z</time>
      </trkpt>
      <trkpt lat="37.7243660" lon="-3.6597090">
        <ele>622.4</ele>
        <time>2020-07-16T10:10:29Z</time>
      </trkpt>
      <trkpt lat="37.7244170" lon="-3.6595810">
        <ele>623.0</ele>
        <time>2020-07-16T10:10:33Z</time>
      </trkpt>
      <trkpt lat="37.7244580" lon="-3.6594810">
        <ele>623.4</ele>
        <time>2020-07-16T10:10:36Z</time>
      </trkpt>
      <trkpt lat="37.7245290" lon="-3.6592920">
        <ele>624.4</ele>
        <time>2020-07-16T10:10:42Z</time>
      </trkpt>
      <trkpt lat="37.7245750" lon="-3.6591370">
        <ele>625.6</ele>
        <time>2020-07-16T10:10:47Z</time>
      </trkpt>
      <trkpt lat="37.7246080" lon="-3.6589840">
        <ele>626.6</ele>
        <time>2020-07-16T10:10:52Z</time>
      </trkpt>
      <trkpt lat="37.7246130" lon="-3.6589540">
        <ele>626.8</ele>
        <time>2020-07-16T10:10:53Z</time>
      </trkpt>
      <trkpt lat="37.7246280" lon="-3.6588320">
        <ele>627.6</ele>
        <time>2020-07-16T10:10:57Z</time>
      </trkpt>
      <trkpt lat="37.7246400" lon="-3.6586580">
        <ele>629.0</ele>
        <time>2020-07-16T10:11:03Z</time>
      </trkpt>
      <trkpt lat="37.7246370" lon="-3.6585410">
        <ele>630.2</ele>
        <time>2020-07-16T10:11:07Z</time>
      </trkpt>
      <trkpt lat="37.7246310" lon="-3.6584270">
        <ele>631.4</ele>
        <time>2020-07-16T10:11:11Z</time>
      </trkpt>
      <trkpt lat="37.7246200" lon="-3.6583160">
        <ele>632.6</ele>
        <time>2020-07-16T10:11:15Z</time>
      </trkpt>
      <trkpt lat="37.7246130" lon="-3.6582020">
        <ele>633.6</ele>
        <time>2020-07-16T10:11:19Z</time>
      </trkpt>
      <trkpt lat="37.7246110" lon="-3.6581750">
        <ele>633.8</ele>
        <time>2020-07-16T10:11:20Z</time>
      </trkpt>
      <trkpt lat="37.7246060" lon="-3.6580370">
        <ele>634.8</ele>
        <time>2020-07-16T10:11:25Z</time>
      </trkpt>
      <trkpt lat="37.7246010" lon="-3.6579030">
        <ele>635.6</ele>
        <time>2020-07-16T10:11:30Z</time>
      </trkpt>
      <trkpt lat="37.7246010" lon="-3.6578760">
        <ele>635.8</ele>
        <time>2020-07-16T10:11:31Z</time>
      </trkpt>
      <trkpt lat="37.7246020" lon="-3.6577770">
        <ele>636.8</ele>
        <time>2020-07-16T10:11:35Z</time>
      </trkpt>
      <trkpt lat="37.7246070" lon="-3.6577060">
        <ele>638.0</ele>
        <time>2020-07-16T10:11:38Z</time>
      </trkpt>
      <trkpt lat="37.7246070" lon="-3.6576810">
        <ele>638.2</ele>
        <time>2020-07-16T10:11:39Z</time>
      </trkpt>
      <trkpt lat="37.7246160" lon="-3.6575860">
        <ele>639.2</ele>
        <time>2020-07-16T10:11:43Z</time>
      </trkpt>
      <trkpt lat="37.7246300" lon="-3.6574890">
        <ele>640.0</ele>
        <time>2020-07-16T10:11:47Z</time>
      </trkpt>
      <trkpt lat="37.7246340" lon="-3.6574670">
        <ele>640.2</ele>
        <time>2020-07-16T10:11:48Z</time>
      </trkpt>
      <trkpt lat="37.7246900" lon="-3.6572950">
        <ele>641.2</ele>
        <time>2020-07-16T10:11:55Z</time>
      </trkpt>
      <trkpt lat="37.7247030" lon="-3.6572720">
        <ele>641.4</ele>
        <time>2020-07-16T10:11:56Z</time>
      </trkpt>
      <trkpt lat="37.7247430" lon="-3.6572070">
        <ele>642.4</ele>
        <time>2020-07-16T10:11:59Z</time>
      </trkpt>
      <trkpt lat="37.7247990" lon="-3.6571190">
        <ele>643.4</ele>
        <time>2020-07-16T10:12:03Z</time>
      </trkpt>
      <trkpt lat="37.7248120" lon="-3.6570940">
        <ele>643.8</ele>
        <time>2020-07-16T10:12:04Z</time>
      </trkpt>
      <trkpt lat="37.7248650" lon="-3.6570420">
        <ele>644.6</ele>
        <time>2020-07-16T10:12:07Z</time>
      </trkpt>
      <trkpt lat="37.7249200" lon="-3.6569940">
        <ele>645.0</ele>
        <time>2020-07-16T10:12:10Z</time>
      </trkpt>
      <trkpt lat="37.7249960" lon="-3.6569230">
        <ele>645.6</ele>
        <time>2020-07-16T10:12:14Z</time>
      </trkpt>
      <trkpt lat="37.7250690" lon="-3.6568560">
        <ele>646.4</ele>
        <time>2020-07-16T10:12:18Z</time>
      </trkpt>
      <trkpt lat="37.7250890" lon="-3.6568370">
        <ele>646.8</ele>
        <time>2020-07-16T10:12:19Z</time>
      </trkpt>
      <trkpt lat="37.7252020" lon="-3.6567380">
        <ele>648.0</ele>
        <time>2020-07-16T10:12:25Z</time>
      </trkpt>
      <trkpt lat="37.7252980" lon="-3.6566580">
        <ele>648.8</ele>
        <time>2020-07-16T10:12:30Z</time>
      </trkpt>
      <trkpt lat="37.7253170" lon="-3.6566420">
        <ele>649.0</ele>
        <time>2020-07-16T10:12:31Z</time>
      </trkpt>
      <trkpt lat="37.7254470" lon="-3.6565320">
        <ele>650.2</ele>
        <time>2020-07-16T10:12:38Z</time>
      </trkpt>
      <trkpt lat="37.7255030" lon="-3.6564820">
        <ele>651.0</ele>
        <time>2020-07-16T10:12:41Z</time>
      </trkpt>
      <trkpt lat="37.7255210" lon="-3.6564670">
        <ele>651.2</ele>
        <time>2020-07-16T10:12:42Z</time>
      </trkpt>
      <trkpt lat="37.7256160" lon="-3.6563920">
        <ele>652.4</ele>
        <time>2020-07-16T10:12:47Z</time>
      </trkpt>
      <trkpt lat="37.7256900" lon="-3.6563290">
        <ele>653.2</ele>
        <time>2020-07-16T10:12:51Z</time>
      </trkpt>
      <trkpt lat="37.7257260" lon="-3.6562980">
        <ele>653.6</ele>
        <time>2020-07-16T10:12:53Z</time>
      </trkpt>
      <trkpt lat="37.7258560" lon="-3.6561870">
        <ele>654.8</ele>
        <time>2020-07-16T10:13:00Z</time>
      </trkpt>
      <trkpt lat="37.7258750" lon="-3.6561730">
        <ele>655.0</ele>
        <time>2020-07-16T10:13:01Z</time>
      </trkpt>
      <trkpt lat="37.7259110" lon="-3.6561460">
        <ele>656.0</ele>
        <time>2020-07-16T10:13:03Z</time>
      </trkpt>
      <trkpt lat="37.7259810" lon="-3.6560880">
        <ele>657.0</ele>
        <time>2020-07-16T10:13:07Z</time>
      </trkpt>
      <trkpt lat="37.7260520" lon="-3.6560260">
        <ele>657.6</ele>
        <time>2020-07-16T10:13:11Z</time>
      </trkpt>
      <trkpt lat="37.7261050" lon="-3.6559830">
        <ele>658.2</ele>
        <time>2020-07-16T10:13:14Z</time>
      </trkpt>
      <trkpt lat="37.7261790" lon="-3.6559290">
        <ele>658.8</ele>
        <time>2020-07-16T10:13:18Z</time>
      </trkpt>
      <trkpt lat="37.7262340" lon="-3.6558850">
        <ele>659.4</ele>
        <time>2020-07-16T10:13:21Z</time>
      </trkpt>
      <trkpt lat="37.7263050" lon="-3.6558300">
        <ele>660.8</ele>
        <time>2020-07-16T10:13:25Z</time>
      </trkpt>
      <trkpt lat="37.7263230" lon="-3.6558160">
        <ele>661.0</ele>
        <time>2020-07-16T10:13:26Z</time>
      </trkpt>
      <trkpt lat="37.7263960" lon="-3.6557770">
        <ele>661.8</ele>
        <time>2020-07-16T10:13:30Z</time>
      </trkpt>
      <trkpt lat="37.7264420" lon="-3.6557390">
        <ele>662.4</ele>
        <time>2020-07-16T10:13:33Z</time>
      </trkpt>
      <trkpt lat="37.7264950" lon="-3.6557080">
        <ele>663.0</ele>
        <time>2020-07-16T10:13:36Z</time>
      </trkpt>
      <trkpt lat="37.7265600" lon="-3.6556660">
        <ele>663.6</ele>
        <time>2020-07-16T10:13:40Z</time>
      </trkpt>
      <trkpt lat="37.7265930" lon="-3.6556410">
        <ele>664.0</ele>
        <time>2020-07-16T10:13:42Z</time>
      </trkpt>
      <trkpt lat="37.7266810" lon="-3.6555860">
        <ele>665.2</ele>
        <time>2020-07-16T10:13:47Z</time>
      </trkpt>
      <trkpt lat="37.7266980" lon="-3.6555760">
        <ele>665.6</ele>
        <time>2020-07-16T10:13:48Z</time>
      </trkpt>
      <trkpt lat="37.7267500" lon="-3.6555430">
        <ele>666.2</ele>
        <time>2020-07-16T10:13:51Z</time>
      </trkpt>
      <trkpt lat="37.7268580" lon="-3.6554810">
        <ele>667.4</ele>
        <time>2020-07-16T10:13:57Z</time>
      </trkpt>
      <trkpt lat="37.7268760" lon="-3.6554690">
        <ele>667.6</ele>
        <time>2020-07-16T10:13:58Z</time>
      </trkpt>
      <trkpt lat="37.7269700" lon="-3.6554050">
        <ele>668.4</ele>
        <time>2020-07-16T10:14:03Z</time>
      </trkpt>
      <trkpt lat="37.7270620" lon="-3.6553450">
        <ele>669.6</ele>
        <time>2020-07-16T10:14:08Z</time>
      </trkpt>
      <trkpt lat="37.7271180" lon="-3.6553080">
        <ele>670.6</ele>
        <time>2020-07-16T10:14:11Z</time>
      </trkpt>
      <trkpt lat="37.7272120" lon="-3.6552480">
        <ele>671.8</ele>
        <time>2020-07-16T10:14:16Z</time>
      </trkpt>
      <trkpt lat="37.7272480" lon="-3.6552280">
        <ele>672.0</ele>
        <time>2020-07-16T10:14:18Z</time>
      </trkpt>
      <trkpt lat="37.7273200" lon="-3.6551840">
        <ele>672.8</ele>
        <time>2020-07-16T10:14:22Z</time>
      </trkpt>
      <trkpt lat="37.7273980" lon="-3.6551450">
        <ele>673.6</ele>
        <time>2020-07-16T10:14:26Z</time>
      </trkpt>
      <trkpt lat="37.7274170" lon="-3.6551350">
        <ele>673.8</ele>
        <time>2020-07-16T10:14:27Z</time>
      </trkpt>
      <trkpt lat="37.7275500" lon="-3.6550750">
        <ele>675.0</ele>
        <time>2020-07-16T10:14:34Z</time>
      </trkpt>
      <trkpt lat="37.7276290" lon="-3.6550420">
        <ele>676.0</ele>
        <time>2020-07-16T10:14:38Z</time>
      </trkpt>
      <trkpt lat="37.7277090" lon="-3.6550230">
        <ele>677.2</ele>
        <time>2020-07-16T10:14:42Z</time>
      </trkpt>
      <trkpt lat="37.7277450" lon="-3.6550040">
        <ele>677.6</ele>
        <time>2020-07-16T10:14:44Z</time>
      </trkpt>
      <trkpt lat="37.7278240" lon="-3.6549690">
        <ele>678.4</ele>
        <time>2020-07-16T10:14:48Z</time>
      </trkpt>
      <trkpt lat="37.7278860" lon="-3.6549440">
        <ele>679.0</ele>
        <time>2020-07-16T10:14:51Z</time>
      </trkpt>
      <trkpt lat="37.7279280" lon="-3.6549320">
        <ele>679.6</ele>
        <time>2020-07-16T10:14:53Z</time>
      </trkpt>
      <trkpt lat="37.7280290" lon="-3.6548920">
        <ele>680.6</ele>
        <time>2020-07-16T10:14:58Z</time>
      </trkpt>
      <trkpt lat="37.7280460" lon="-3.6548860">
        <ele>680.8</ele>
        <time>2020-07-16T10:14:59Z</time>
      </trkpt>
      <trkpt lat="37.7281240" lon="-3.6548560">
        <ele>681.8</ele>
        <time>2020-07-16T10:15:03Z</time>
      </trkpt>
      <trkpt lat="37.7282420" lon="-3.6548170">
        <ele>682.8</ele>
        <time>2020-07-16T10:15:09Z</time>
      </trkpt>
      <trkpt lat="37.7283570" lon="-3.6547790">
        <ele>683.8</ele>
        <time>2020-07-16T10:15:14Z</time>
      </trkpt>
      <trkpt lat="37.7284030" lon="-3.6547620">
        <ele>684.4</ele>
        <time>2020-07-16T10:15:16Z</time>
      </trkpt>
      <trkpt lat="37.7284480" lon="-3.6547460">
        <ele>684.8</ele>
        <time>2020-07-16T10:15:18Z</time>
      </trkpt>
      <trkpt lat="37.7285580" lon="-3.6547080">
        <ele>686.0</ele>
        <time>2020-07-16T10:15:23Z</time>
      </trkpt>
      <trkpt lat="37.7286930" lon="-3.6546630">
        <ele>687.2</ele>
        <time>2020-07-16T10:15:29Z</time>
      </trkpt>
      <trkpt lat="37.7287170" lon="-3.6546570">
        <ele>687.2</ele>
        <time>2020-07-16T10:15:30Z</time>
      </trkpt>
      <trkpt lat="37.7288500" lon="-3.6546180">
        <ele>688.2</ele>
        <time>2020-07-16T10:15:36Z</time>
      </trkpt>
      <trkpt lat="37.7288710" lon="-3.6546160">
        <ele>688.4</ele>
        <time>2020-07-16T10:15:37Z</time>
      </trkpt>
      <trkpt lat="37.7289590" lon="-3.6545840">
        <ele>689.4</ele>
        <time>2020-07-16T10:15:41Z</time>
      </trkpt>
      <trkpt lat="37.7290260" lon="-3.6545580">
        <ele>689.8</ele>
        <time>2020-07-16T10:15:44Z</time>
      </trkpt>
      <trkpt lat="37.7290950" lon="-3.6545330">
        <ele>690.4</ele>
        <time>2020-07-16T10:15:47Z</time>
      </trkpt>
      <trkpt lat="37.7292870" lon="-3.6544530">
        <ele>691.4</ele>
        <time>2020-07-16T10:15:55Z</time>
      </trkpt>
      <trkpt lat="37.7293360" lon="-3.6544330">
        <ele>691.6</ele>
        <time>2020-07-16T10:15:57Z</time>
      </trkpt>
      <trkpt lat="37.7294850" lon="-3.6543630">
        <ele>692.6</ele>
        <time>2020-07-16T10:16:03Z</time>
      </trkpt>
      <trkpt lat="37.7295900" lon="-3.6543150">
        <ele>693.2</ele>
        <time>2020-07-16T10:16:07Z</time>
      </trkpt>
      <trkpt lat="37.7296930" lon="-3.6542550">
        <ele>693.8</ele>
        <time>2020-07-16T10:16:11Z</time>
      </trkpt>
      <trkpt lat="37.7298710" lon="-3.6541240">
        <ele>694.6</ele>
        <time>2020-07-16T10:16:18Z</time>
      </trkpt>
      <trkpt lat="37.7298940" lon="-3.6541040">
        <ele>694.8</ele>
        <time>2020-07-16T10:16:19Z</time>
      </trkpt>
      <trkpt lat="37.7300130" lon="-3.6539920">
        <ele>696.0</ele>
        <time>2020-07-16T10:16:24Z</time>
      </trkpt>
      <trkpt lat="37.7301350" lon="-3.6538920">
        <ele>696.8</ele>
        <time>2020-07-16T10:16:29Z</time>
      </trkpt>
      <trkpt lat="37.7301630" lon="-3.6538730">
        <ele>697.0</ele>
        <time>2020-07-16T10:16:30Z</time>
      </trkpt>
      <trkpt lat="37.7303130" lon="-3.6537630">
        <ele>698.0</ele>
        <time>2020-07-16T10:16:36Z</time>
      </trkpt>
      <trkpt lat="37.7303350" lon="-3.6537390">
        <ele>698.2</ele>
        <time>2020-07-16T10:16:37Z</time>
      </trkpt>
      <trkpt lat="37.7304710" lon="-3.6535990">
        <ele>699.4</ele>
        <time>2020-07-16T10:16:43Z</time>
      </trkpt>
      <trkpt lat="37.7305710" lon="-3.6535280">
        <ele>700.4</ele>
        <time>2020-07-16T10:16:47Z</time>
      </trkpt>
      <trkpt lat="37.7306540" lon="-3.6535500">
        <ele>701.0</ele>
        <time>2020-07-16T10:16:50Z</time>
      </trkpt>
      <trkpt lat="37.7306770" lon="-3.6535700">
        <ele>701.0</ele>
        <time>2020-07-16T10:16:51Z</time>
      </trkpt>
      <trkpt lat="37.7307510" lon="-3.6536360">
        <ele>701.4</ele>
        <time>2020-07-16T10:16:54Z</time>
      </trkpt>
      <trkpt lat="37.7308810" lon="-3.6537810">
        <ele>702.2</ele>
        <time>2020-07-16T10:17:00Z</time>
      </trkpt>
      <trkpt lat="37.7309020" lon="-3.6538060">
        <ele>702.6</ele>
        <time>2020-07-16T10:17:01Z</time>
      </trkpt>
      <trkpt lat="37.7310490" lon="-3.6539230">
        <ele>703.6</ele>
        <time>2020-07-16T10:17:07Z</time>
      </trkpt>
      <trkpt lat="37.7310740" lon="-3.6539390">
        <ele>703.8</ele>
        <time>2020-07-16T10:17:08Z</time>
      </trkpt>
      <trkpt lat="37.7312430" lon="-3.6539610">
        <ele>704.6</ele>
        <time>2020-07-16T10:17:14Z</time>
      </trkpt>
      <trkpt lat="37.7312720" lon="-3.6539570">
        <ele>704.8</ele>
        <time>2020-07-16T10:17:15Z</time>
      </trkpt>
      <trkpt lat="37.7314840" lon="-3.6539190">
        <ele>706.0</ele>
        <time>2020-07-16T10:17:23Z</time>
      </trkpt>
      <trkpt lat="37.7315820" lon="-3.6538850">
        <ele>707.0</ele>
        <time>2020-07-16T10:17:27Z</time>
      </trkpt>
      <trkpt lat="37.7316660" lon="-3.6538610">
        <ele>708.0</ele>
        <time>2020-07-16T10:17:31Z</time>
      </trkpt>
      <trkpt lat="37.7316880" lon="-3.6538550">
        <ele>708.2</ele>
        <time>2020-07-16T10:17:32Z</time>
      </trkpt>
      <trkpt lat="37.7318080" lon="-3.6538170">
        <ele>709.2</ele>
        <time>2020-07-16T10:17:38Z</time>
      </trkpt>
      <trkpt lat="37.7318660" lon="-3.6538000">
        <ele>709.8</ele>
        <time>2020-07-16T10:17:41Z</time>
      </trkpt>
      <trkpt lat="37.7319090" lon="-3.6537820">
        <ele>710.2</ele>
        <time>2020-07-16T10:17:43Z</time>
      </trkpt>
      <trkpt lat="37.7319890" lon="-3.6537540">
        <ele>711.4</ele>
        <time>2020-07-16T10:17:47Z</time>
      </trkpt>
      <trkpt lat="37.7320270" lon="-3.6537290">
        <ele>711.8</ele>
        <time>2020-07-16T10:17:49Z</time>
      </trkpt>
      <trkpt lat="37.7320910" lon="-3.6537050">
        <ele>712.4</ele>
        <time>2020-07-16T10:17:52Z</time>
      </trkpt>
      <trkpt lat="37.7321900" lon="-3.6536660">
        <ele>713.6</ele>
        <time>2020-07-16T10:17:57Z</time>
      </trkpt>
      <trkpt lat="37.7323100" lon="-3.6536100">
        <ele>714.6</ele>
        <time>2020-07-16T10:18:03Z</time>
      </trkpt>
      <trkpt lat="37.7323900" lon="-3.6535690">
        <ele>715.4</ele>
        <time>2020-07-16T10:18:07Z</time>
      </trkpt>
      <trkpt lat="37.7324110" lon="-3.6535620">
        <ele>715.8</ele>
        <time>2020-07-16T10:18:08Z</time>
      </trkpt>
      <trkpt lat="37.7324870" lon="-3.6535280">
        <ele>716.8</ele>
        <time>2020-07-16T10:18:12Z</time>
      </trkpt>
      <trkpt lat="37.7325620" lon="-3.6534940">
        <ele>718.0</ele>
        <time>2020-07-16T10:18:16Z</time>
      </trkpt>
      <trkpt lat="37.7326760" lon="-3.6534420">
        <ele>719.0</ele>
        <time>2020-07-16T10:18:22Z</time>
      </trkpt>
      <trkpt lat="37.7327520" lon="-3.6534050">
        <ele>719.6</ele>
        <time>2020-07-16T10:18:26Z</time>
      </trkpt>
      <trkpt lat="37.7327900" lon="-3.6533890">
        <ele>720.0</ele>
        <time>2020-07-16T10:18:28Z</time>
      </trkpt>
      <trkpt lat="37.7328920" lon="-3.6533440">
        <ele>721.2</ele>
        <time>2020-07-16T10:18:33Z</time>
      </trkpt>
      <trkpt lat="37.7329330" lon="-3.6533330">
        <ele>721.8</ele>
        <time>2020-07-16T10:18:35Z</time>
      </trkpt>
      <trkpt lat="37.7329740" lon="-3.6533150">
        <ele>722.2</ele>
        <time>2020-07-16T10:18:37Z</time>
      </trkpt>
      <trkpt lat="37.7330630" lon="-3.6532670">
        <ele>723.4</ele>
        <time>2020-07-16T10:18:42Z</time>
      </trkpt>
      <trkpt lat="37.7330850" lon="-3.6532560">
        <ele>723.6</ele>
        <time>2020-07-16T10:18:43Z</time>
      </trkpt>
      <trkpt lat="37.7331840" lon="-3.6532450">
        <ele>724.4</ele>
        <time>2020-07-16T10:18:48Z</time>
      </trkpt>
      <trkpt lat="37.7332210" lon="-3.6532290">
        <ele>724.8</ele>
        <time>2020-07-16T10:18:50Z</time>
      </trkpt>
      <trkpt lat="37.7332540" lon="-3.6532090">
        <ele>725.4</ele>
        <time>2020-07-16T10:18:52Z</time>
      </trkpt>
      <trkpt lat="37.7333260" lon="-3.6531960">
        <ele>726.4</ele>
        <time>2020-07-16T10:18:56Z</time>
      </trkpt>
      <trkpt lat="37.7333630" lon="-3.6531900">
        <ele>726.8</ele>
        <time>2020-07-16T10:18:58Z</time>
      </trkpt>
      <trkpt lat="37.7334130" lon="-3.6531800">
        <ele>727.4</ele>
        <time>2020-07-16T10:19:01Z</time>
      </trkpt>
      <trkpt lat="37.7334840" lon="-3.6531740">
        <ele>728.2</ele>
        <time>2020-07-16T10:19:05Z</time>
      </trkpt>
      <trkpt lat="37.7335210" lon="-3.6531640">
        <ele>728.6</ele>
        <time>2020-07-16T10:19:07Z</time>
      </trkpt>
      <trkpt lat="37.7336070" lon="-3.6531560">
        <ele>729.8</ele>
        <time>2020-07-16T10:19:12Z</time>
      </trkpt>
      <trkpt lat="37.7336240" lon="-3.6531600">
        <ele>730.0</ele>
        <time>2020-07-16T10:19:13Z</time>
      </trkpt>
      <trkpt lat="37.7336930" lon="-3.6531540">
        <ele>730.8</ele>
        <time>2020-07-16T10:19:17Z</time>
      </trkpt>
      <trkpt lat="37.7337600" lon="-3.6531550">
        <ele>731.8</ele>
        <time>2020-07-16T10:19:21Z</time>
      </trkpt>
      <trkpt lat="37.7337790" lon="-3.6531540">
        <ele>731.8</ele>
        <time>2020-07-16T10:19:22Z</time>
      </trkpt>
      <trkpt lat="37.7338660" lon="-3.6531600">
        <ele>733.0</ele>
        <time>2020-07-16T10:19:27Z</time>
      </trkpt>
      <trkpt lat="37.7338830" lon="-3.6531610">
        <ele>733.0</ele>
        <time>2020-07-16T10:19:28Z</time>
      </trkpt>
      <trkpt lat="37.7339830" lon="-3.6531640">
        <ele>734.0</ele>
        <time>2020-07-16T10:19:34Z</time>
      </trkpt>
      <trkpt lat="37.7340230" lon="-3.6531700">
        <ele>734.6</ele>
        <time>2020-07-16T10:19:36Z</time>
      </trkpt>
      <trkpt lat="37.7340590" lon="-3.6531740">
        <ele>735.2</ele>
        <time>2020-07-16T10:19:38Z</time>
      </trkpt>
      <trkpt lat="37.7341490" lon="-3.6531830">
        <ele>736.2</ele>
        <time>2020-07-16T10:19:43Z</time>
      </trkpt>
      <trkpt lat="37.7341660" lon="-3.6531870">
        <ele>736.4</ele>
        <time>2020-07-16T10:19:44Z</time>
      </trkpt>
      <trkpt lat="37.7342550" lon="-3.6532040">
        <ele>737.4</ele>
        <time>2020-07-16T10:19:49Z</time>
      </trkpt>
      <trkpt lat="37.7343280" lon="-3.6532250">
        <ele>738.2</ele>
        <time>2020-07-16T10:19:53Z</time>
      </trkpt>
      <trkpt lat="37.7343820" lon="-3.6532280">
        <ele>738.6</ele>
        <time>2020-07-16T10:19:56Z</time>
      </trkpt>
      <trkpt lat="37.7344580" lon="-3.6532320">
        <ele>739.6</ele>
        <time>2020-07-16T10:20:00Z</time>
      </trkpt>
      <trkpt lat="37.7345290" lon="-3.6532440">
        <ele>740.6</ele>
        <time>2020-07-16T10:20:04Z</time>
      </trkpt>
      <trkpt lat="37.7345660" lon="-3.6532480">
        <ele>741.0</ele>
        <time>2020-07-16T10:20:06Z</time>
      </trkpt>
      <trkpt lat="37.7346220" lon="-3.6532590">
        <ele>741.6</ele>
        <time>2020-07-16T10:20:09Z</time>
      </trkpt>
      <trkpt lat="37.7346900" lon="-3.6532670">
        <ele>742.6</ele>
        <time>2020-07-16T10:20:13Z</time>
      </trkpt>
      <trkpt lat="37.7347060" lon="-3.6532710">
        <ele>742.8</ele>
        <time>2020-07-16T10:20:14Z</time>
      </trkpt>
      <trkpt lat="37.7347940" lon="-3.6532970">
        <ele>743.8</ele>
        <time>2020-07-16T10:20:19Z</time>
      </trkpt>
      <trkpt lat="37.7348310" lon="-3.6532960">
        <ele>744.2</ele>
        <time>2020-07-16T10:20:21Z</time>
      </trkpt>
      <trkpt lat="37.7348660" lon="-3.6533000">
        <ele>744.8</ele>
        <time>2020-07-16T10:20:23Z</time>
      </trkpt>
      <trkpt lat="37.7349470" lon="-3.6533160">
        <ele>745.8</ele>
        <time>2020-07-16T10:20:28Z</time>
      </trkpt>
      <trkpt lat="37.7350340" lon="-3.6533500">
        <ele>747.0</ele>
        <time>2020-07-16T10:20:33Z</time>
      </trkpt>
      <trkpt lat="37.7350670" lon="-3.6533580">
        <ele>747.2</ele>
        <time>2020-07-16T10:20:35Z</time>
      </trkpt>
      <trkpt lat="37.7351310" lon="-3.6534150">
        <ele>748.0</ele>
        <time>2020-07-16T10:20:39Z</time>
      </trkpt>
      <trkpt lat="37.7351640" lon="-3.6534470">
        <ele>748.2</ele>
        <time>2020-07-16T10:20:41Z</time>
      </trkpt>
      <trkpt lat="37.7352070" lon="-3.6534980">
        <ele>749.2</ele>
        <time>2020-07-16T10:20:44Z</time>
      </trkpt>
      <trkpt lat="37.7352350" lon="-3.6535690">
        <ele>750.0</ele>
        <time>2020-07-16T10:20:47Z</time>
      </trkpt>
      <trkpt lat="37.7352470" lon="-3.6535900">
        <ele>750.4</ele>
        <time>2020-07-16T10:20:48Z</time>
      </trkpt>
      <trkpt lat="37.7352770" lon="-3.6537100">
        <ele>751.2</ele>
        <time>2020-07-16T10:20:53Z</time>
      </trkpt>
      <trkpt lat="37.7352840" lon="-3.6537300">
        <ele>751.4</ele>
        <time>2020-07-16T10:20:54Z</time>
      </trkpt>
      <trkpt lat="37.7352910" lon="-3.6537750">
        <ele>752.0</ele>
        <time>2020-07-16T10:20:56Z</time>
      </trkpt>
      <trkpt lat="37.7352920" lon="-3.6538450">
        <ele>752.6</ele>
        <time>2020-07-16T10:20:59Z</time>
      </trkpt>
      <trkpt lat="37.7353010" lon="-3.6539380">
        <ele>753.2</ele>
        <time>2020-07-16T10:21:03Z</time>
      </trkpt>
      <trkpt lat="37.7352800" lon="-3.6539790">
        <ele>753.8</ele>
        <time>2020-07-16T10:21:05Z</time>
      </trkpt>
      <trkpt lat="37.7352950" lon="-3.6541030">
        <ele>755.0</ele>
        <time>2020-07-16T10:21:10Z</time>
      </trkpt>
      <trkpt lat="37.7352960" lon="-3.6541820">
        <ele>755.4</ele>
        <time>2020-07-16T10:21:13Z</time>
      </trkpt>
      <trkpt lat="37.7352970" lon="-3.6542560">
        <ele>756.2</ele>
        <time>2020-07-16T10:21:16Z</time>
      </trkpt>
      <trkpt lat="37.7353040" lon="-3.6542820">
        <ele>756.4</ele>
        <time>2020-07-16T10:21:17Z</time>
      </trkpt>
      <trkpt lat="37.7353570" lon="-3.6544540">
        <ele>757.2</ele>
        <time>2020-07-16T10:21:24Z</time>
      </trkpt>
      <trkpt lat="37.7353790" lon="-3.6544690">
        <ele>757.4</ele>
        <time>2020-07-16T10:21:25Z</time>
      </trkpt>
      <trkpt lat="37.7354310" lon="-3.6544610">
        <ele>757.8</ele>
        <time>2020-07-16T10:21:27Z</time>
      </trkpt>
      <trkpt lat="37.7354630" lon="-3.6544100">
        <ele>758.4</ele>
        <time>2020-07-16T10:21:29Z</time>
      </trkpt>
      <trkpt lat="37.7354780" lon="-3.6542820">
        <ele>759.6</ele>
        <time>2020-07-16T10:21:33Z</time>
      </trkpt>
      <trkpt lat="37.7354790" lon="-3.6542550">
        <ele>759.8</ele>
        <time>2020-07-16T10:21:34Z</time>
      </trkpt>
      <trkpt lat="37.7354760" lon="-3.6541600">
        <ele>760.6</ele>
        <time>2020-07-16T10:21:37Z</time>
      </trkpt>
      <trkpt lat="37.7354680" lon="-3.6539770">
        <ele>761.8</ele>
        <time>2020-07-16T10:21:43Z</time>
      </trkpt>
      <trkpt lat="37.7354890" lon="-3.6537730">
        <ele>762.8</ele>
        <time>2020-07-16T10:21:50Z</time>
      </trkpt>
      <trkpt lat="37.7354940" lon="-3.6537450">
        <ele>763.2</ele>
        <time>2020-07-16T10:21:51Z</time>
      </trkpt>
      <trkpt lat="37.7355070" lon="-3.6536630">
        <ele>764.2</ele>
        <time>2020-07-16T10:21:54Z</time>
      </trkpt>
      <trkpt lat="37.7355430" lon="-3.6535330">
        <ele>765.4</ele>
        <time>2020-07-16T10:21:59Z</time>
      </trkpt>
      <trkpt lat="37.7355510" lon="-3.6535070">
        <ele>765.6</ele>
        <time>2020-07-16T10:22:00Z</time>
      </trkpt>
      <trkpt lat="37.7355890" lon="-3.6534140">
        <ele>766.4</ele>
        <time>2020-07-16T10:22:04Z</time>
      </trkpt>
      <trkpt lat="37.7356400" lon="-3.6532960">
        <ele>767.4</ele>
        <time>2020-07-16T10:22:09Z</time>
      </trkpt>
      <trkpt lat="37.7356530" lon="-3.6532720">
        <ele>767.8</ele>
        <time>2020-07-16T10:22:10Z</time>
      </trkpt>
      <trkpt lat="37.7357320" lon="-3.6531820">
        <ele>768.6</ele>
        <time>2020-07-16T10:22:15Z</time>
      </trkpt>
      <trkpt lat="37.7357640" lon="-3.6531460">
        <ele>769.0</ele>
        <time>2020-07-16T10:22:17Z</time>
      </trkpt>
      <trkpt lat="37.7358020" lon="-3.6531180">
        <ele>769.6</ele>
        <time>2020-07-16T10:22:19Z</time>
      </trkpt>
      <trkpt lat="37.7358890" lon="-3.6530510">
        <ele>770.6</ele>
        <time>2020-07-16T10:22:24Z</time>
      </trkpt>
      <trkpt lat="37.7359090" lon="-3.6530380">
        <ele>770.8</ele>
        <time>2020-07-16T10:22:25Z</time>
      </trkpt>
      <trkpt lat="37.7360050" lon="-3.6529800">
        <ele>771.8</ele>
        <time>2020-07-16T10:22:30Z</time>
      </trkpt>
      <trkpt lat="37.7360240" lon="-3.6529680">
        <ele>772.0</ele>
        <time>2020-07-16T10:22:31Z</time>
      </trkpt>
      <trkpt lat="37.7361490" lon="-3.6529400">
        <ele>773.0</ele>
        <time>2020-07-16T10:22:37Z</time>
      </trkpt>
      <trkpt lat="37.7361670" lon="-3.6529280">
        <ele>773.2</ele>
        <time>2020-07-16T10:22:38Z</time>
      </trkpt>
      <trkpt lat="37.7362240" lon="-3.6528960">
        <ele>774.2</ele>
        <time>2020-07-16T10:22:41Z</time>
      </trkpt>
      <trkpt lat="37.7363220" lon="-3.6528580">
        <ele>775.2</ele>
        <time>2020-07-16T10:22:46Z</time>
      </trkpt>
      <trkpt lat="37.7363440" lon="-3.6528550">
        <ele>775.6</ele>
        <time>2020-07-16T10:22:47Z</time>
      </trkpt>
      <trkpt lat="37.7364360" lon="-3.6528240">
        <ele>776.4</ele>
        <time>2020-07-16T10:22:52Z</time>
      </trkpt>
      <trkpt lat="37.7364930" lon="-3.6528080">
        <ele>777.2</ele>
        <time>2020-07-16T10:22:55Z</time>
      </trkpt>
      <trkpt lat="37.7365280" lon="-3.6527920">
        <ele>777.4</ele>
        <time>2020-07-16T10:22:57Z</time>
      </trkpt>
      <trkpt lat="37.7366240" lon="-3.6527610">
        <ele>778.6</ele>
        <time>2020-07-16T10:23:02Z</time>
      </trkpt>
      <trkpt lat="37.7366420" lon="-3.6527530">
        <ele>778.8</ele>
        <time>2020-07-16T10:23:03Z</time>
      </trkpt>
      <trkpt lat="37.7367130" lon="-3.6527340">
        <ele>779.6</ele>
        <time>2020-07-16T10:23:07Z</time>
      </trkpt>
      <trkpt lat="37.7367950" lon="-3.6527200">
        <ele>780.4</ele>
        <time>2020-07-16T10:23:11Z</time>
      </trkpt>
      <trkpt lat="37.7368170" lon="-3.6527190">
        <ele>780.8</ele>
        <time>2020-07-16T10:23:12Z</time>
      </trkpt>
      <trkpt lat="37.7369250" lon="-3.6527070">
        <ele>781.8</ele>
        <time>2020-07-16T10:23:17Z</time>
      </trkpt>
      <trkpt lat="37.7369910" lon="-3.6526970">
        <ele>782.4</ele>
        <time>2020-07-16T10:23:20Z</time>
      </trkpt>
      <trkpt lat="37.7370360" lon="-3.6526840">
        <ele>783.0</ele>
        <time>2020-07-16T10:23:22Z</time>
      </trkpt>
      <trkpt lat="37.7371380" lon="-3.6526680">
        <ele>784.0</ele>
        <time>2020-07-16T10:23:27Z</time>
      </trkpt>
      <trkpt lat="37.7372030" lon="-3.6526460">
        <ele>784.6</ele>
        <time>2020-07-16T10:23:30Z</time>
      </trkpt>
      <trkpt lat="37.7372510" lon="-3.6526280">
        <ele>785.2</ele>
        <time>2020-07-16T10:23:32Z</time>
      </trkpt>
      <trkpt lat="37.7373440" lon="-3.6526090">
        <ele>785.8</ele>
        <time>2020-07-16T10:23:36Z</time>
      </trkpt>
      <trkpt lat="37.7373660" lon="-3.6526010">
        <ele>786.2</ele>
        <time>2020-07-16T10:23:37Z</time>
      </trkpt>
      <trkpt lat="37.7374760" lon="-3.6525620">
        <ele>787.4</ele>
        <time>2020-07-16T10:23:42Z</time>
      </trkpt>
      <trkpt lat="37.7375890" lon="-3.6525250">
        <ele>788.6</ele>
        <time>2020-07-16T10:23:47Z</time>
      </trkpt>
      <trkpt lat="37.7376100" lon="-3.6525170">
        <ele>788.8</ele>
        <time>2020-07-16T10:23:48Z</time>
      </trkpt>
      <trkpt lat="37.7376970" lon="-3.6524780">
        <ele>789.8</ele>
        <time>2020-07-16T10:23:52Z</time>
      </trkpt>
      <trkpt lat="37.7378040" lon="-3.6524440">
        <ele>791.0</ele>
        <time>2020-07-16T10:23:57Z</time>
      </trkpt>
      <trkpt lat="37.7379270" lon="-3.6524030">
        <ele>792.0</ele>
        <time>2020-07-16T10:24:03Z</time>
      </trkpt>
      <trkpt lat="37.7379910" lon="-3.6523770">
        <ele>793.0</ele>
        <time>2020-07-16T10:24:06Z</time>
      </trkpt>
      <trkpt lat="37.7380120" lon="-3.6523680">
        <ele>793.2</ele>
        <time>2020-07-16T10:24:07Z</time>
      </trkpt>
      <trkpt lat="37.7380900" lon="-3.6523230">
        <ele>794.2</ele>
        <time>2020-07-16T10:24:11Z</time>
      </trkpt>
      <trkpt lat="37.7381210" lon="-3.6522790">
        <ele>794.8</ele>
        <time>2020-07-16T10:24:13Z</time>
      </trkpt>
      <trkpt lat="37.7381640" lon="-3.6521870">
        <ele>795.4</ele>
        <time>2020-07-16T10:24:16Z</time>
      </trkpt>
      <trkpt lat="37.7382280" lon="-3.6520650">
        <ele>796.2</ele>
        <time>2020-07-16T10:24:20Z</time>
      </trkpt>
      <trkpt lat="37.7382690" lon="-3.6520110">
        <ele>796.6</ele>
        <time>2020-07-16T10:24:22Z</time>
      </trkpt>
      <trkpt lat="37.7382750" lon="-3.6519500">
        <ele>796.8</ele>
        <time>2020-07-16T10:24:24Z</time>
      </trkpt>
      <trkpt lat="37.7382700" lon="-3.6519150">
        <ele>797.0</ele>
        <time>2020-07-16T10:24:25Z</time>
      </trkpt>
      <trkpt lat="37.7382880" lon="-3.6517120">
        <ele>797.4</ele>
        <time>2020-07-16T10:24:30Z</time>
      </trkpt>
      <trkpt lat="37.7383210" lon="-3.6515390">
        <ele>797.6</ele>
        <time>2020-07-16T10:24:34Z</time>
      </trkpt>
      <trkpt lat="37.7383270" lon="-3.6514990">
        <ele>797.6</ele>
        <time>2020-07-16T10:24:35Z</time>
      </trkpt>
      <trkpt lat="37.7383540" lon="-3.6514480">
        <ele>797.6</ele>
        <time>2020-07-16T10:24:36Z</time>
      </trkpt>
      <trkpt lat="37.7383820" lon="-3.6513550">
        <ele>798.0</ele>
        <time>2020-07-16T10:24:38Z</time>
      </trkpt>
      <trkpt lat="37.7384710" lon="-3.6511000">
        <ele>798.8</ele>
        <time>2020-07-16T10:24:44Z</time>
      </trkpt>
      <trkpt lat="37.7384870" lon="-3.6510600">
        <ele>798.8</ele>
        <time>2020-07-16T10:24:45Z</time>
      </trkpt>
      <trkpt lat="37.7385900" lon="-3.6508820">
        <ele>799.8</ele>
        <time>2020-07-16T10:24:50Z</time>
      </trkpt>
      <trkpt lat="37.7386350" lon="-3.6508220">
        <ele>800.2</ele>
        <time>2020-07-16T10:24:52Z</time>
      </trkpt>
      <trkpt lat="37.7387110" lon="-3.6507280">
        <ele>801.0</ele>
        <time>2020-07-16T10:24:55Z</time>
      </trkpt>
      <trkpt lat="37.7387940" lon="-3.6506010">
        <ele>801.6</ele>
        <time>2020-07-16T10:24:59Z</time>
      </trkpt>
      <trkpt lat="37.7388290" lon="-3.6505040">
        <ele>802.0</ele>
        <time>2020-07-16T10:25:02Z</time>
      </trkpt>
      <trkpt lat="37.7388770" lon="-3.6503890">
        <ele>802.4</ele>
        <time>2020-07-16T10:25:05Z</time>
      </trkpt>
      <trkpt lat="37.7388460" lon="-3.6502530">
        <ele>802.4</ele>
        <time>2020-07-16T10:25:08Z</time>
      </trkpt>
      <trkpt lat="37.7388260" lon="-3.6500330">
        <ele>803.0</ele>
        <time>2020-07-16T10:25:13Z</time>
      </trkpt>
      <trkpt lat="37.7388310" lon="-3.6499890">
        <ele>803.4</ele>
        <time>2020-07-16T10:25:14Z</time>
      </trkpt>
      <trkpt lat="37.7388420" lon="-3.6498270">
        <ele>804.4</ele>
        <time>2020-07-16T10:25:18Z</time>
      </trkpt>
      <trkpt lat="37.7388460" lon="-3.6497930">
        <ele>804.8</ele>
        <time>2020-07-16T10:25:19Z</time>
      </trkpt>
      <trkpt lat="37.7388790" lon="-3.6496900">
        <ele>805.6</ele>
        <time>2020-07-16T10:25:22Z</time>
      </trkpt>
      <trkpt lat="37.7388900" lon="-3.6496270">
        <ele>806.2</ele>
        <time>2020-07-16T10:25:24Z</time>
      </trkpt>
      <trkpt lat="37.7389040" lon="-3.6495340">
        <ele>806.8</ele>
        <time>2020-07-16T10:25:26Z</time>
      </trkpt>
      <trkpt lat="37.7389220" lon="-3.6493690">
        <ele>806.8</ele>
        <time>2020-07-16T10:25:29Z</time>
      </trkpt>
      <trkpt lat="37.7388650" lon="-3.6491510">
        <ele>806.6</ele>
        <time>2020-07-16T10:25:32Z</time>
      </trkpt>
      <trkpt lat="37.7388490" lon="-3.6490610">
        <ele>806.4</ele>
        <time>2020-07-16T10:25:33Z</time>
      </trkpt>
      <trkpt lat="37.7388260" lon="-3.6488700">
        <ele>805.8</ele>
        <time>2020-07-16T10:25:35Z</time>
      </trkpt>
      <trkpt lat="37.7388120" lon="-3.6487710">
        <ele>805.2</ele>
        <time>2020-07-16T10:25:36Z</time>
      </trkpt>
      <trkpt lat="37.7388080" lon="-3.6485690">
        <ele>803.6</ele>
        <time>2020-07-16T10:25:38Z</time>
      </trkpt>
      <trkpt lat="37.7388230" lon="-3.6484020">
        <ele>801.8</ele>
        <time>2020-07-16T10:25:40Z</time>
      </trkpt>
      <trkpt lat="37.7388540" lon="-3.6483230">
        <ele>801.2</ele>
        <time>2020-07-16T10:25:41Z</time>
      </trkpt>
      <trkpt lat="37.7389030" lon="-3.6482420">
        <ele>800.8</ele>
        <time>2020-07-16T10:25:42Z</time>
      </trkpt>
      <trkpt lat="37.7389460" lon="-3.6481740">
        <ele>800.4</ele>
        <time>2020-07-16T10:25:43Z</time>
      </trkpt>
      <trkpt lat="37.7389940" lon="-3.6480630">
        <ele>800.2</ele>
        <time>2020-07-16T10:25:45Z</time>
      </trkpt>
      <trkpt lat="37.7390160" lon="-3.6480300">
        <ele>800.0</ele>
        <time>2020-07-16T10:25:46Z</time>
      </trkpt>
      <trkpt lat="37.7390490" lon="-3.6480000">
        <ele>800.0</ele>
        <time>2020-07-16T10:25:47Z</time>
      </trkpt>
      <trkpt lat="37.7391210" lon="-3.6479390">
        <ele>800.2</ele>
        <time>2020-07-16T10:25:49Z</time>
      </trkpt>
      <trkpt lat="37.7391550" lon="-3.6479040">
        <ele>800.4</ele>
        <time>2020-07-16T10:25:50Z</time>
      </trkpt>
      <trkpt lat="37.7393750" lon="-3.6477720">
        <ele>801.2</ele>
        <time>2020-07-16T10:25:56Z</time>
      </trkpt>
      <trkpt lat="37.7394920" lon="-3.6477700">
        <ele>801.4</ele>
        <time>2020-07-16T10:25:59Z</time>
      </trkpt>
      <trkpt lat="37.7395810" lon="-3.6477760">
        <ele>801.6</ele>
        <time>2020-07-16T10:26:01Z</time>
      </trkpt>
      <trkpt lat="37.7397270" lon="-3.6477690">
        <ele>801.4</ele>
        <time>2020-07-16T10:26:04Z</time>
      </trkpt>
      <trkpt lat="37.7397740" lon="-3.6477510">
        <ele>801.2</ele>
        <time>2020-07-16T10:26:05Z</time>
      </trkpt>
      <trkpt lat="37.7398110" lon="-3.6477160">
        <ele>801.0</ele>
        <time>2020-07-16T10:26:06Z</time>
      </trkpt>
      <trkpt lat="37.7398500" lon="-3.6476060">
        <ele>800.6</ele>
        <time>2020-07-16T10:26:09Z</time>
      </trkpt>
      <trkpt lat="37.7399090" lon="-3.6475710">
        <ele>800.6</ele>
        <time>2020-07-16T10:26:13Z</time>
      </trkpt>
      <trkpt lat="37.7399010" lon="-3.6476090">
        <ele>800.6</ele>
        <time>2020-07-16T10:26:15Z</time>
      </trkpt>
      <trkpt lat="37.7398760" lon="-3.6476640">
        <ele>800.8</ele>
        <time>2020-07-16T10:26:18Z</time>
      </trkpt>
      <trkpt lat="37.7398750" lon="-3.6475980">
        <ele>800.8</ele>
        <time>2020-07-16T10:26:20Z</time>
      </trkpt>
      <trkpt lat="37.7399070" lon="-3.6474700">
        <ele>800.6</ele>
        <time>2020-07-16T10:26:23Z</time>
      </trkpt>
      <trkpt lat="37.7399380" lon="-3.6473310">
        <ele>800.6</ele>
        <time>2020-07-16T10:26:26Z</time>
      </trkpt>
      <trkpt lat="37.7399420" lon="-3.6471790">
        <ele>800.8</ele>
        <time>2020-07-16T10:26:29Z</time>
      </trkpt>
      <trkpt lat="37.7399430" lon="-3.6471260">
        <ele>800.8</ele>
        <time>2020-07-16T10:26:30Z</time>
      </trkpt>
      <trkpt lat="37.7399490" lon="-3.6470720">
        <ele>801.0</ele>
        <time>2020-07-16T10:26:31Z</time>
      </trkpt>
      <trkpt lat="37.7399500" lon="-3.6468590">
        <ele>801.6</ele>
        <time>2020-07-16T10:26:35Z</time>
      </trkpt>
      <trkpt lat="37.7399220" lon="-3.6468150">
        <ele>801.6</ele>
        <time>2020-07-16T10:26:36Z</time>
      </trkpt>
      <trkpt lat="37.7399020" lon="-3.6467710">
        <ele>801.6</ele>
        <time>2020-07-16T10:26:37Z</time>
      </trkpt>
      <trkpt lat="37.7398910" lon="-3.6467270">
        <ele>801.8</ele>
        <time>2020-07-16T10:26:38Z</time>
      </trkpt>
      <trkpt lat="37.7398330" lon="-3.6465100">
        <ele>802.2</ele>
        <time>2020-07-16T10:26:42Z</time>
      </trkpt>
      <trkpt lat="37.7397920" lon="-3.6463450">
        <ele>802.4</ele>
        <time>2020-07-16T10:26:47Z</time>
      </trkpt>
      <trkpt lat="37.7397210" lon="-3.6461700">
        <ele>802.2</ele>
        <time>2020-07-16T10:26:52Z</time>
      </trkpt>
      <trkpt lat="37.7396020" lon="-3.6458070">
        <ele>802.4</ele>
        <time>2020-07-16T10:26:59Z</time>
      </trkpt>
      <trkpt lat="37.7395760" lon="-3.6457060">
        <ele>802.4</ele>
        <time>2020-07-16T10:27:01Z</time>
      </trkpt>
      <trkpt lat="37.7395140" lon="-3.6454250">
        <ele>803.0</ele>
        <time>2020-07-16T10:27:06Z</time>
      </trkpt>
      <trkpt lat="37.7394530" lon="-3.6451670">
        <ele>802.8</ele>
        <time>2020-07-16T10:27:11Z</time>
      </trkpt>
      <trkpt lat="37.7394230" lon="-3.6451070">
        <ele>802.6</ele>
        <time>2020-07-16T10:27:13Z</time>
      </trkpt>
      <trkpt lat="37.7393580" lon="-3.6450590">
        <ele>802.4</ele>
        <time>2020-07-16T10:27:16Z</time>
      </trkpt>
      <trkpt lat="37.7393150" lon="-3.6450340">
        <ele>802.2</ele>
        <time>2020-07-16T10:27:18Z</time>
      </trkpt>
      <trkpt lat="37.7392660" lon="-3.6450140">
        <ele>802.2</ele>
        <time>2020-07-16T10:27:20Z</time>
      </trkpt>
      <trkpt lat="37.7391640" lon="-3.6449540">
        <ele>802.0</ele>
        <time>2020-07-16T10:27:24Z</time>
      </trkpt>
      <trkpt lat="37.7391320" lon="-3.6449380">
        <ele>802.0</ele>
        <time>2020-07-16T10:27:25Z</time>
      </trkpt>
      <trkpt lat="37.7390470" lon="-3.6448930">
        <ele>801.8</ele>
        <time>2020-07-16T10:27:28Z</time>
      </trkpt>
      <trkpt lat="37.7390100" lon="-3.6448320">
        <ele>801.6</ele>
        <time>2020-07-16T10:27:30Z</time>
      </trkpt>
      <trkpt lat="37.7390040" lon="-3.6448010">
        <ele>801.6</ele>
        <time>2020-07-16T10:27:31Z</time>
      </trkpt>
      <trkpt lat="37.7390330" lon="-3.6446880">
        <ele>801.6</ele>
        <time>2020-07-16T10:27:34Z</time>
      </trkpt>
      <trkpt lat="37.7390600" lon="-3.6446530">
        <ele>801.6</ele>
        <time>2020-07-16T10:27:35Z</time>
      </trkpt>
      <trkpt lat="37.7391140" lon="-3.6445920">
        <ele>801.6</ele>
        <time>2020-07-16T10:27:37Z</time>
      </trkpt>
      <trkpt lat="37.7391930" lon="-3.6444980">
        <ele>801.8</ele>
        <time>2020-07-16T10:27:40Z</time>
      </trkpt>
      <trkpt lat="37.7392240" lon="-3.6444630">
        <ele>801.8</ele>
        <time>2020-07-16T10:27:41Z</time>
      </trkpt>
      <trkpt lat="37.7392720" lon="-3.6443950">
        <ele>802.0</ele>
        <time>2020-07-16T10:27:43Z</time>
      </trkpt>
      <trkpt lat="37.7393960" lon="-3.6442100">
        <ele>802.0</ele>
        <time>2020-07-16T10:27:49Z</time>
      </trkpt>
      <trkpt lat="37.7395020" lon="-3.6440880">
        <ele>801.8</ele>
        <time>2020-07-16T10:27:54Z</time>
      </trkpt>
      <trkpt lat="37.7395590" lon="-3.6440070">
        <ele>802.0</ele>
        <time>2020-07-16T10:27:57Z</time>
      </trkpt>
      <trkpt lat="37.7396780" lon="-3.6438660">
        <ele>801.8</ele>
        <time>2020-07-16T10:28:04Z</time>
      </trkpt>
      <trkpt lat="37.7397040" lon="-3.6438720">
        <ele>801.8</ele>
        <time>2020-07-16T10:28:05Z</time>
      </trkpt>
      <trkpt lat="37.7397650" lon="-3.6438920">
        <ele>801.8</ele>
        <time>2020-07-16T10:28:08Z</time>
      </trkpt>
      <trkpt lat="37.7397750" lon="-3.6439000">
        <ele>801.8</ele>
        <time>2020-07-16T10:28:11Z</time>
      </trkpt>
      <trkpt lat="37.7406450" lon="-3.6382550">
        <ele>776.6</ele>
        <time>2020-07-17T04:36:11Z</time>
      </trkpt>
      <trkpt lat="37.7406450" lon="-3.6382550">
        <ele>776.6</ele>
        <time>2020-07-17T04:36:12Z</time>
      </trkpt>
      <trkpt lat="37.7406450" lon="-3.6382550">
        <ele>776.6</ele>
        <time>2020-07-17T04:36:13Z</time>
      </trkpt>
      <trkpt lat="37.7406450" lon="-3.6382550">
        <ele>776.6</ele>
        <time>2020-07-17T04:36:15Z</time>
      </trkpt>
      <trkpt lat="37.7406450" lon="-3.6382550">
        <ele>776.6</ele>
        <time>2020-07-17T04:36:17Z</time>
      </trkpt>
      <trkpt lat="37.7406450" lon="-3.6382550">
        <ele>776.8</ele>
        <time>2020-07-17T04:36:26Z</time>
      </trkpt>
      <trkpt lat="37.7406450" lon="-3.6382550">
        <ele>777.0</ele>
        <time>2020-07-17T04:36:27Z</time>
      </trkpt>
      <trkpt lat="37.7406450" lon="-3.6382550">
        <ele>777.0</ele>
        <time>2020-07-17T04:36:28Z</time>
      </trkpt>
      <trkpt lat="37.7406450" lon="-3.6382550">
        <ele>777.2</ele>
        <time>2020-07-17T04:36:29Z</time>
      </trkpt>
      <trkpt lat="37.7406450" lon="-3.6382550">
        <ele>777.4</ele>
        <time>2020-07-17T04:36:30Z</time>
      </trkpt>
      <trkpt lat="37.7406450" lon="-3.6382550">
        <ele>777.4</ele>
        <time>2020-07-17T04:36:31Z</time>
      </trkpt>
      <trkpt lat="37.7406450" lon="-3.6382550">
        <ele>777.6</ele>
        <time>2020-07-17T04:36:32Z</time>
      </trkpt>
      <trkpt lat="37.7406450" lon="-3.6382550">
        <ele>777.8</ele>
        <time>2020-07-17T04:36:33Z</time>
      </trkpt>
      <trkpt lat="37.7406450" lon="-3.6382550">
        <ele>778.2</ele>
        <time>2020-07-17T04:36:35Z</time>
      </trkpt>
      <trkpt lat="37.7406450" lon="-3.6382550">
        <ele>778.4</ele>
        <time>2020-07-17T04:36:36Z</time>
      </trkpt>
      <trkpt lat="37.7406450" lon="-3.6382550">
        <ele>778.6</ele>
        <time>2020-07-17T04:36:37Z</time>
      </trkpt>
      <trkpt lat="37.7406450" lon="-3.6382550">
        <ele>779.0</ele>
        <time>2020-07-17T04:36:38Z</time>
      </trkpt>
      <trkpt lat="37.7406450" lon="-3.6382550">
        <ele>779.2</ele>
        <time>2020-07-17T04:36:39Z</time>
      </trkpt>
      <trkpt lat="37.7406450" lon="-3.6382550">
        <ele>779.6</ele>
        <time>2020-07-17T04:36:40Z</time>
      </trkpt>
      <trkpt lat="37.7406450" lon="-3.6382550">
        <ele>779.8</ele>
        <time>2020-07-17T04:36:41Z</time>
      </trkpt>
      <trkpt lat="37.7406450" lon="-3.6382550">
        <ele>780.4</ele>
        <time>2020-07-17T04:36:43Z</time>
      </trkpt>
      <trkpt lat="37.7406450" lon="-3.6382550">
        <ele>780.6</ele>
        <time>2020-07-17T04:36:44Z</time>
      </trkpt>
      <trkpt lat="37.7406450" lon="-3.6382550">
        <ele>780.8</ele>
        <time>2020-07-17T04:36:45Z</time>
      </trkpt>
      <trkpt lat="37.7406450" lon="-3.6382550">
        <ele>780.8</ele>
        <time>2020-07-17T04:36:46Z</time>
      </trkpt>
      <trkpt lat="37.7406450" lon="-3.6382550">
        <ele>781.0</ele>
        <time>2020-07-17T04:36:47Z</time>
      </trkpt>
      <trkpt lat="37.7406450" lon="-3.6382550">
        <ele>781.2</ele>
        <time>2020-07-17T04:36:49Z</time>
      </trkpt>
      <trkpt lat="37.7406450" lon="-3.6382550">
        <ele>781.6</ele>
        <time>2020-07-17T04:36:52Z</time>
      </trkpt>
      <trkpt lat="37.7406450" lon="-3.6382550">
        <ele>781.8</ele>
        <time>2020-07-17T04:37:13Z</time>
      </trkpt>
      <trkpt lat="37.7406450" lon="-3.6382550">
        <ele>782.0</ele>
        <time>2020-07-17T04:37:14Z</time>
      </trkpt>
      <trkpt lat="37.7406450" lon="-3.6382550">
        <ele>782.0</ele>
        <time>2020-07-17T04:37:16Z</time>
      </trkpt>
      <trkpt lat="37.7406450" lon="-3.6382550">
        <ele>782.2</ele>
        <time>2020-07-17T04:37:18Z</time>
      </trkpt>
      <trkpt lat="37.7406450" lon="-3.6382550">
        <ele>782.2</ele>
        <time>2020-07-17T04:37:20Z</time>
      </trkpt>
      <trkpt lat="37.7406450" lon="-3.6382550">
        <ele>782.2</ele>
        <time>2020-07-17T04:37:22Z</time>
      </trkpt>
      <trkpt lat="37.7406450" lon="-3.6382550">
        <ele>782.4</ele>
        <time>2020-07-17T04:37:25Z</time>
      </trkpt>
      <trkpt lat="37.7406450" lon="-3.6382550">
        <ele>782.4</ele>
        <time>2020-07-17T04:37:27Z</time>
      </trkpt>
      <trkpt lat="37.7406450" lon="-3.6382550">
        <ele>782.2</ele>
        <time>2020-07-17T04:37:29Z</time>
      </trkpt>
      <trkpt lat="37.7406450" lon="-3.6382550">
        <ele>782.2</ele>
        <time>2020-07-17T04:37:30Z</time>
      </trkpt>
      <trkpt lat="37.7406450" lon="-3.6382550">
        <ele>782.2</ele>
        <time>2020-07-17T04:37:31Z</time>
      </trkpt>
      <trkpt lat="37.7406450" lon="-3.6382550">
        <ele>782.2</ele>
        <time>2020-07-17T04:37:32Z</time>
      </trkpt>
      <trkpt lat="37.7406450" lon="-3.6382550">
        <ele>782.2</ele>
        <time>2020-07-17T04:37:33Z</time>
      </trkpt>
      <trkpt lat="37.7406450" lon="-3.6382550">
        <ele>782.2</ele>
        <time>2020-07-17T04:37:34Z</time>
      </trkpt>
      <trkpt lat="37.7406450" lon="-3.6382550">
        <ele>782.2</ele>
        <time>2020-07-17T04:37:36Z</time>
      </trkpt>
      <trkpt lat="37.7406450" lon="-3.6382550">
        <ele>782.2</ele>
        <time>2020-07-17T04:37:37Z</time>
      </trkpt>
      <trkpt lat="37.7406450" lon="-3.6382550">
        <ele>782.2</ele>
        <time>2020-07-17T04:37:40Z</time>
      </trkpt>
      <trkpt lat="37.7406450" lon="-3.6382550">
        <ele>782.2</ele>
        <time>2020-07-17T04:37:43Z</time>
      </trkpt>
      <trkpt lat="37.7406450" lon="-3.6382550">
        <ele>782.2</ele>
        <time>2020-07-17T04:37:44Z</time>
      </trkpt>
      <trkpt lat="37.7406450" lon="-3.6382550">
        <ele>782.4</ele>
        <time>2020-07-17T04:37:47Z</time>
      </trkpt>
      <trkpt lat="37.7406450" lon="-3.6382550">
        <ele>782.6</ele>
        <time>2020-07-17T04:37:48Z</time>
      </trkpt>
      <trkpt lat="37.7406450" lon="-3.6382550">
        <ele>782.8</ele>
        <time>2020-07-17T04:37:54Z</time>
      </trkpt>
      <trkpt lat="37.7406450" lon="-3.6382550">
        <ele>783.0</ele>
        <time>2020-07-17T04:37:56Z</time>
      </trkpt>
      <trkpt lat="37.7406450" lon="-3.6382550">
        <ele>783.2</ele>
        <time>2020-07-17T04:37:57Z</time>
      </trkpt>
      <trkpt lat="37.7406450" lon="-3.6382550">
        <ele>783.4</ele>
        <time>2020-07-17T04:38:00Z</time>
      </trkpt>
      <trkpt lat="37.7406450" lon="-3.6382550">
        <ele>783.4</ele>
        <time>2020-07-17T04:38:01Z</time>
      </trkpt>
      <trkpt lat="37.7406450" lon="-3.6382550">
        <ele>783.4</ele>
        <time>2020-07-17T04:38:08Z</time>
      </trkpt>
      <trkpt lat="37.7406450" lon="-3.6382550">
        <ele>783.6</ele>
        <time>2020-07-17T04:38:11Z</time>
      </trkpt>
      <trkpt lat="37.7406450" lon="-3.6382550">
        <ele>783.4</ele>
        <time>2020-07-17T04:38:12Z</time>
      </trkpt>
      <trkpt lat="37.7406450" lon="-3.6382550">
        <ele>782.8</ele>
        <time>2020-07-17T04:38:18Z</time>
      </trkpt>
      <trkpt lat="37.7406450" lon="-3.6382550">
        <ele>782.8</ele>
        <time>2020-07-17T04:38:19Z</time>
      </trkpt>
      <trkpt lat="37.7406450" lon="-3.6382550">
        <ele>782.8</ele>
        <time>2020-07-17T04:38:20Z</time>
      </trkpt>
      <trkpt lat="37.7406450" lon="-3.6382550">
        <ele>782.6</ele>
        <time>2020-07-17T04:38:21Z</time>
      </trkpt>
      <trkpt lat="37.7406450" lon="-3.6382550">
        <ele>782.6</ele>
        <time>2020-07-17T04:38:22Z</time>
      </trkpt>
      <trkpt lat="37.7406450" lon="-3.6382550">
        <ele>782.4</ele>
        <time>2020-07-17T04:38:23Z</time>
      </trkpt>
      <trkpt lat="37.7406450" lon="-3.6382550">
        <ele>782.2</ele>
        <time>2020-07-17T04:38:24Z</time>
      </trkpt>
      <trkpt lat="37.7406450" lon="-3.6382550">
        <ele>782.2</ele>
        <time>2020-07-17T04:38:25Z</time>
      </trkpt>
      <trkpt lat="37.7406450" lon="-3.6382550">
        <ele>782.0</ele>
        <time>2020-07-17T04:38:27Z</time>
      </trkpt>
      <trkpt lat="37.7406450" lon="-3.6382550">
        <ele>781.6</ele>
        <time>2020-07-17T04:38:31Z</time>
      </trkpt>
      <trkpt lat="37.7406450" lon="-3.6382550">
        <ele>781.0</ele>
        <time>2020-07-17T04:38:39Z</time>
      </trkpt>
      <trkpt lat="37.7404330" lon="-3.6382610">
        <ele>779.8</ele>
        <time>2020-07-17T04:38:42Z</time>
      </trkpt>
      <trkpt lat="37.7402570" lon="-3.6382700">
        <ele>778.8</ele>
        <time>2020-07-17T04:38:44Z</time>
      </trkpt>
      <trkpt lat="37.7399540" lon="-3.6382830">
        <ele>777.2</ele>
        <time>2020-07-17T04:38:47Z</time>
      </trkpt>
      <trkpt lat="37.7397270" lon="-3.6382950">
        <ele>776.0</ele>
        <time>2020-07-17T04:38:49Z</time>
      </trkpt>
      <trkpt lat="37.7395340" lon="-3.6383020">
        <ele>774.4</ele>
        <time>2020-07-17T04:38:51Z</time>
      </trkpt>
      <trkpt lat="37.7394280" lon="-3.6383070">
        <ele>773.0</ele>
        <time>2020-07-17T04:38:52Z</time>
      </trkpt>
      <trkpt lat="37.7392250" lon="-3.6383230">
        <ele>771.0</ele>
        <time>2020-07-17T04:38:54Z</time>
      </trkpt>
      <trkpt lat="37.7391210" lon="-3.6383310">
        <ele>769.8</ele>
        <time>2020-07-17T04:38:55Z</time>
      </trkpt>
      <trkpt lat="37.7390230" lon="-3.6383400">
        <ele>768.8</ele>
        <time>2020-07-17T04:38:56Z</time>
      </trkpt>
      <trkpt lat="37.7387900" lon="-3.6383690">
        <ele>767.0</ele>
        <time>2020-07-17T04:38:58Z</time>
      </trkpt>
      <trkpt lat="37.7385590" lon="-3.6384120">
        <ele>765.0</ele>
        <time>2020-07-17T04:39:00Z</time>
      </trkpt>
      <trkpt lat="37.7383220" lon="-3.6384690">
        <ele>763.0</ele>
        <time>2020-07-17T04:39:02Z</time>
      </trkpt>
      <trkpt lat="37.7380810" lon="-3.6385400">
        <ele>761.0</ele>
        <time>2020-07-17T04:39:04Z</time>
      </trkpt>
      <trkpt lat="37.7379220" lon="-3.6385900">
        <ele>760.2</ele>
        <time>2020-07-17T04:39:06Z</time>
      </trkpt>
      <trkpt lat="37.7377610" lon="-3.6386430">
        <ele>758.8</ele>
        <time>2020-07-17T04:39:07Z</time>
      </trkpt>
      <trkpt lat="37.7376000" lon="-3.6386950">
        <ele>757.8</ele>
        <time>2020-07-17T04:39:08Z</time>
      </trkpt>
      <trkpt lat="37.7374770" lon="-3.6387360">
        <ele>756.6</ele>
        <time>2020-07-17T04:39:09Z</time>
      </trkpt>
      <trkpt lat="37.7373570" lon="-3.6387760">
        <ele>755.6</ele>
        <time>2020-07-17T04:39:10Z</time>
      </trkpt>
      <trkpt lat="37.7371070" lon="-3.6388580">
        <ele>753.6</ele>
        <time>2020-07-17T04:39:12Z</time>
      </trkpt>
      <trkpt lat="37.7369860" lon="-3.6388980">
        <ele>752.4</ele>
        <time>2020-07-17T04:39:13Z</time>
      </trkpt>
      <trkpt lat="37.7367460" lon="-3.6389770">
        <ele>749.8</ele>
        <time>2020-07-17T04:39:15Z</time>
      </trkpt>
      <trkpt lat="37.7366330" lon="-3.6390150">
        <ele>748.8</ele>
        <time>2020-07-17T04:39:16Z</time>
      </trkpt>
      <trkpt lat="37.7365140" lon="-3.6390550">
        <ele>748.0</ele>
        <time>2020-07-17T04:39:17Z</time>
      </trkpt>
      <trkpt lat="37.7363860" lon="-3.6390990">
        <ele>747.2</ele>
        <time>2020-07-17T04:39:18Z</time>
      </trkpt>
      <trkpt lat="37.7361390" lon="-3.6391820">
        <ele>745.6</ele>
        <time>2020-07-17T04:39:20Z</time>
      </trkpt>
      <trkpt lat="37.7358910" lon="-3.6392620">
        <ele>744.0</ele>
        <time>2020-07-17T04:39:22Z</time>
      </trkpt>
      <trkpt lat="37.7356420" lon="-3.6393450">
        <ele>742.2</ele>
        <time>2020-07-17T04:39:24Z</time>
      </trkpt>
      <trkpt lat="37.7355220" lon="-3.6393910">
        <ele>741.4</ele>
        <time>2020-07-17T04:39:25Z</time>
      </trkpt>
      <trkpt lat="37.7354010" lon="-3.6394390">
        <ele>740.8</ele>
        <time>2020-07-17T04:39:26Z</time>
      </trkpt>
      <trkpt lat="37.7352860" lon="-3.6395000">
        <ele>739.6</ele>
        <time>2020-07-17T04:39:27Z</time>
      </trkpt>
      <trkpt lat="37.7351730" lon="-3.6395660">
        <ele>738.6</ele>
        <time>2020-07-17T04:39:28Z</time>
      </trkpt>
      <trkpt lat="37.7349620" lon="-3.6397230">
        <ele>736.6</ele>
        <time>2020-07-17T04:39:30Z</time>
      </trkpt>
      <trkpt lat="37.7348610" lon="-3.6398080">
        <ele>735.8</ele>
        <time>2020-07-17T04:39:31Z</time>
      </trkpt>
      <trkpt lat="37.7347640" lon="-3.6399110">
        <ele>734.4</ele>
        <time>2020-07-17T04:39:32Z</time>
      </trkpt>
      <trkpt lat="37.7345830" lon="-3.6401350">
        <ele>732.6</ele>
        <time>2020-07-17T04:39:34Z</time>
      </trkpt>
      <trkpt lat="37.7345080" lon="-3.6402530">
        <ele>731.4</ele>
        <time>2020-07-17T04:39:35Z</time>
      </trkpt>
      <trkpt lat="37.7344320" lon="-3.6403820">
        <ele>731.0</ele>
        <time>2020-07-17T04:39:36Z</time>
      </trkpt>
      <trkpt lat="37.7343710" lon="-3.6405320">
        <ele>729.6</ele>
        <time>2020-07-17T04:39:37Z</time>
      </trkpt>
      <trkpt lat="37.7343140" lon="-3.6406750">
        <ele>728.6</ele>
        <time>2020-07-17T04:39:38Z</time>
      </trkpt>
      <trkpt lat="37.7342620" lon="-3.6408190">
        <ele>727.6</ele>
        <time>2020-07-17T04:39:39Z</time>
      </trkpt>
      <trkpt lat="37.7342140" lon="-3.6409660">
        <ele>726.4</ele>
        <time>2020-07-17T04:39:40Z</time>
      </trkpt>
      <trkpt lat="37.7341270" lon="-3.6412650">
        <ele>724.2</ele>
        <time>2020-07-17T04:39:42Z</time>
      </trkpt>
      <trkpt lat="37.7340850" lon="-3.6414140">
        <ele>723.0</ele>
        <time>2020-07-17T04:39:43Z</time>
      </trkpt>
      <trkpt lat="37.7340430" lon="-3.6415660">
        <ele>721.8</ele>
        <time>2020-07-17T04:39:44Z</time>
      </trkpt>
      <trkpt lat="37.7340020" lon="-3.6417210">
        <ele>720.8</ele>
        <time>2020-07-17T04:39:45Z</time>
      </trkpt>
      <trkpt lat="37.7339620" lon="-3.6418690">
        <ele>719.8</ele>
        <time>2020-07-17T04:39:46Z</time>
      </trkpt>
      <trkpt lat="37.7338720" lon="-3.6422030">
        <ele>717.8</ele>
        <time>2020-07-17T04:39:48Z</time>
      </trkpt>
      <trkpt lat="37.7337830" lon="-3.6425360">
        <ele>715.8</ele>
        <time>2020-07-17T04:39:50Z</time>
      </trkpt>
      <trkpt lat="37.7337410" lon="-3.6426920">
        <ele>714.8</ele>
        <time>2020-07-17T04:39:51Z</time>
      </trkpt>
      <trkpt lat="37.7336950" lon="-3.6428690">
        <ele>713.8</ele>
        <time>2020-07-17T04:39:52Z</time>
      </trkpt>
      <trkpt lat="37.7336060" lon="-3.6431960">
        <ele>712.6</ele>
        <time>2020-07-17T04:39:54Z</time>
      </trkpt>
      <trkpt lat="37.7335590" lon="-3.6433670">
        <ele>711.6</ele>
        <time>2020-07-17T04:39:55Z</time>
      </trkpt>
      <trkpt lat="37.7334730" lon="-3.6436900">
        <ele>709.6</ele>
        <time>2020-07-17T04:39:57Z</time>
      </trkpt>
      <trkpt lat="37.7333880" lon="-3.6440070">
        <ele>708.2</ele>
        <time>2020-07-17T04:39:59Z</time>
      </trkpt>
      <trkpt lat="37.7333020" lon="-3.6443270">
        <ele>706.8</ele>
        <time>2020-07-17T04:40:01Z</time>
      </trkpt>
      <trkpt lat="37.7332600" lon="-3.6444770">
        <ele>706.0</ele>
        <time>2020-07-17T04:40:02Z</time>
      </trkpt>
      <trkpt lat="37.7332210" lon="-3.6446240">
        <ele>705.6</ele>
        <time>2020-07-17T04:40:03Z</time>
      </trkpt>
      <trkpt lat="37.7331430" lon="-3.6449140">
        <ele>704.8</ele>
        <time>2020-07-17T04:40:05Z</time>
      </trkpt>
      <trkpt lat="37.7331080" lon="-3.6450460">
        <ele>704.4</ele>
        <time>2020-07-17T04:40:06Z</time>
      </trkpt>
      <trkpt lat="37.7330690" lon="-3.6451890">
        <ele>704.0</ele>
        <time>2020-07-17T04:40:07Z</time>
      </trkpt>
      <trkpt lat="37.7329960" lon="-3.6454610">
        <ele>703.4</ele>
        <time>2020-07-17T04:40:09Z</time>
      </trkpt>
      <trkpt lat="37.7329600" lon="-3.6455960">
        <ele>703.2</ele>
        <time>2020-07-17T04:40:10Z</time>
      </trkpt>
      <trkpt lat="37.7327750" lon="-3.6462500">
        <ele>702.0</ele>
        <time>2020-07-17T04:40:15Z</time>
      </trkpt>
      <trkpt lat="37.7327400" lon="-3.6463750">
        <ele>701.6</ele>
        <time>2020-07-17T04:40:16Z</time>
      </trkpt>
      <trkpt lat="37.7326640" lon="-3.6466530">
        <ele>700.6</ele>
        <time>2020-07-17T04:40:18Z</time>
      </trkpt>
      <trkpt lat="37.7325870" lon="-3.6469360">
        <ele>699.4</ele>
        <time>2020-07-17T04:40:20Z</time>
      </trkpt>
      <trkpt lat="37.7325080" lon="-3.6472230">
        <ele>698.2</ele>
        <time>2020-07-17T04:40:22Z</time>
      </trkpt>
      <trkpt lat="37.7324300" lon="-3.6475180">
        <ele>696.8</ele>
        <time>2020-07-17T04:40:24Z</time>
      </trkpt>
      <trkpt lat="37.7323510" lon="-3.6478180">
        <ele>695.4</ele>
        <time>2020-07-17T04:40:26Z</time>
      </trkpt>
      <trkpt lat="37.7323110" lon="-3.6479640">
        <ele>694.4</ele>
        <time>2020-07-17T04:40:27Z</time>
      </trkpt>
      <trkpt lat="37.7322290" lon="-3.6482660">
        <ele>693.2</ele>
        <time>2020-07-17T04:40:29Z</time>
      </trkpt>
      <trkpt lat="37.7321480" lon="-3.6485730">
        <ele>691.8</ele>
        <time>2020-07-17T04:40:31Z</time>
      </trkpt>
      <trkpt lat="37.7320610" lon="-3.6488870">
        <ele>690.2</ele>
        <time>2020-07-17T04:40:33Z</time>
      </trkpt>
      <trkpt lat="37.7320180" lon="-3.6490380">
        <ele>689.4</ele>
        <time>2020-07-17T04:40:34Z</time>
      </trkpt>
      <trkpt lat="37.7319760" lon="-3.6491890">
        <ele>689.0</ele>
        <time>2020-07-17T04:40:35Z</time>
      </trkpt>
      <trkpt lat="37.7319000" lon="-3.6494800">
        <ele>687.8</ele>
        <time>2020-07-17T04:40:37Z</time>
      </trkpt>
      <trkpt lat="37.7317810" lon="-3.6499180">
        <ele>686.4</ele>
        <time>2020-07-17T04:40:40Z</time>
      </trkpt>
      <trkpt lat="37.7317060" lon="-3.6501990">
        <ele>685.6</ele>
        <time>2020-07-17T04:40:42Z</time>
      </trkpt>
      <trkpt lat="37.7316690" lon="-3.6503360">
        <ele>685.2</ele>
        <time>2020-07-17T04:40:43Z</time>
      </trkpt>
      <trkpt lat="37.7315240" lon="-3.6508580">
        <ele>684.0</ele>
        <time>2020-07-17T04:40:47Z</time>
      </trkpt>
      <trkpt lat="37.7313790" lon="-3.6513850">
        <ele>683.0</ele>
        <time>2020-07-17T04:40:51Z</time>
      </trkpt>
      <trkpt lat="37.7313450" lon="-3.6515100">
        <ele>682.8</ele>
        <time>2020-07-17T04:40:52Z</time>
      </trkpt>
      <trkpt lat="37.7311800" lon="-3.6521260">
        <ele>681.4</ele>
        <time>2020-07-17T04:40:57Z</time>
      </trkpt>
      <trkpt lat="37.7310700" lon="-3.6524840">
        <ele>680.4</ele>
        <time>2020-07-17T04:41:00Z</time>
      </trkpt>
      <trkpt lat="37.7309010" lon="-3.6529330">
        <ele>679.0</ele>
        <time>2020-07-17T04:41:04Z</time>
      </trkpt>
      <trkpt lat="37.7308030" lon="-3.6531430">
        <ele>678.0</ele>
        <time>2020-07-17T04:41:06Z</time>
      </trkpt>
      <trkpt lat="37.7307420" lon="-3.6532530">
        <ele>677.4</ele>
        <time>2020-07-17T04:41:07Z</time>
      </trkpt>
      <trkpt lat="37.7306150" lon="-3.6534550">
        <ele>676.2</ele>
        <time>2020-07-17T04:41:09Z</time>
      </trkpt>
      <trkpt lat="37.7304740" lon="-3.6536530">
        <ele>675.4</ele>
        <time>2020-07-17T04:41:11Z</time>
      </trkpt>
      <trkpt lat="37.7303950" lon="-3.6537430">
        <ele>674.8</ele>
        <time>2020-07-17T04:41:12Z</time>
      </trkpt>
      <trkpt lat="37.7302350" lon="-3.6539140">
        <ele>673.8</ele>
        <time>2020-07-17T04:41:14Z</time>
      </trkpt>
      <trkpt lat="37.7301510" lon="-3.6539930">
        <ele>673.2</ele>
        <time>2020-07-17T04:41:15Z</time>
      </trkpt>
      <trkpt lat="37.7300690" lon="-3.6540710">
        <ele>672.6</ele>
        <time>2020-07-17T04:41:16Z</time>
      </trkpt>
      <trkpt lat="37.7298900" lon="-3.6542070">
        <ele>671.2</ele>
        <time>2020-07-17T04:41:18Z</time>
      </trkpt>
      <trkpt lat="37.7297000" lon="-3.6543320">
        <ele>670.0</ele>
        <time>2020-07-17T04:41:20Z</time>
      </trkpt>
      <trkpt lat="37.7296030" lon="-3.6543910">
        <ele>669.8</ele>
        <time>2020-07-17T04:41:21Z</time>
      </trkpt>
      <trkpt lat="37.7294990" lon="-3.6544400">
        <ele>669.4</ele>
        <time>2020-07-17T04:41:22Z</time>
      </trkpt>
      <trkpt lat="37.7293950" lon="-3.6544900">
        <ele>669.0</ele>
        <time>2020-07-17T04:41:23Z</time>
      </trkpt>
      <trkpt lat="37.7291720" lon="-3.6545710">
        <ele>668.0</ele>
        <time>2020-07-17T04:41:25Z</time>
      </trkpt>
      <trkpt lat="37.7289510" lon="-3.6546510">
        <ele>666.8</ele>
        <time>2020-07-17T04:41:27Z</time>
      </trkpt>
      <trkpt lat="37.7287340" lon="-3.6547250">
        <ele>665.6</ele>
        <time>2020-07-17T04:41:29Z</time>
      </trkpt>
      <trkpt lat="37.7286260" lon="-3.6547620">
        <ele>664.2</ele>
        <time>2020-07-17T04:41:30Z</time>
      </trkpt>
      <trkpt lat="37.7284100" lon="-3.6548340">
        <ele>662.4</ele>
        <time>2020-07-17T04:41:32Z</time>
      </trkpt>
      <trkpt lat="37.7283010" lon="-3.6548700">
        <ele>661.4</ele>
        <time>2020-07-17T04:41:33Z</time>
      </trkpt>
      <trkpt lat="37.7281910" lon="-3.6549050">
        <ele>660.6</ele>
        <time>2020-07-17T04:41:34Z</time>
      </trkpt>
      <trkpt lat="37.7280810" lon="-3.6549410">
        <ele>659.8</ele>
        <time>2020-07-17T04:41:35Z</time>
      </trkpt>
      <trkpt lat="37.7278580" lon="-3.6550170">
        <ele>657.8</ele>
        <time>2020-07-17T04:41:37Z</time>
      </trkpt>
      <trkpt lat="37.7277460" lon="-3.6550590">
        <ele>656.8</ele>
        <time>2020-07-17T04:41:38Z</time>
      </trkpt>
      <trkpt lat="37.7276330" lon="-3.6551000">
        <ele>655.8</ele>
        <time>2020-07-17T04:41:39Z</time>
      </trkpt>
      <trkpt lat="37.7274050" lon="-3.6551880">
        <ele>654.2</ele>
        <time>2020-07-17T04:41:41Z</time>
      </trkpt>
      <trkpt lat="37.7272920" lon="-3.6552490">
        <ele>653.0</ele>
        <time>2020-07-17T04:41:42Z</time>
      </trkpt>
      <trkpt lat="37.7271810" lon="-3.6553120">
        <ele>651.8</ele>
        <time>2020-07-17T04:41:43Z</time>
      </trkpt>
      <trkpt lat="37.7270700" lon="-3.6553820">
        <ele>650.2</ele>
        <time>2020-07-17T04:41:44Z</time>
      </trkpt>
      <trkpt lat="37.7269610" lon="-3.6554510">
        <ele>649.0</ele>
        <time>2020-07-17T04:41:45Z</time>
      </trkpt>
      <trkpt lat="37.7267510" lon="-3.6555840">
        <ele>646.6</ele>
        <time>2020-07-17T04:41:47Z</time>
      </trkpt>
      <trkpt lat="37.7266320" lon="-3.6556570">
        <ele>644.8</ele>
        <time>2020-07-17T04:41:48Z</time>
      </trkpt>
      <trkpt lat="37.7265240" lon="-3.6557240">
        <ele>643.4</ele>
        <time>2020-07-17T04:41:49Z</time>
      </trkpt>
      <trkpt lat="37.7264150" lon="-3.6557950">
        <ele>641.8</ele>
        <time>2020-07-17T04:41:50Z</time>
      </trkpt>
      <trkpt lat="37.7262030" lon="-3.6559420">
        <ele>638.8</ele>
        <time>2020-07-17T04:41:52Z</time>
      </trkpt>
      <trkpt lat="37.7261000" lon="-3.6560200">
        <ele>637.8</ele>
        <time>2020-07-17T04:41:53Z</time>
      </trkpt>
      <trkpt lat="37.7259950" lon="-3.6561060">
        <ele>636.0</ele>
        <time>2020-07-17T04:41:54Z</time>
      </trkpt>
      <trkpt lat="37.7258920" lon="-3.6561900">
        <ele>634.6</ele>
        <time>2020-07-17T04:41:55Z</time>
      </trkpt>
      <trkpt lat="37.7256820" lon="-3.6563580">
        <ele>632.0</ele>
        <time>2020-07-17T04:41:57Z</time>
      </trkpt>
      <trkpt lat="37.7255760" lon="-3.6564440">
        <ele>630.6</ele>
        <time>2020-07-17T04:41:58Z</time>
      </trkpt>
      <trkpt lat="37.7253650" lon="-3.6566180">
        <ele>628.2</ele>
        <time>2020-07-17T04:42:00Z</time>
      </trkpt>
      <trkpt lat="37.7251620" lon="-3.6567860">
        <ele>626.0</ele>
        <time>2020-07-17T04:42:02Z</time>
      </trkpt>
      <trkpt lat="37.7250610" lon="-3.6568710">
        <ele>625.0</ele>
        <time>2020-07-17T04:42:03Z</time>
      </trkpt>
      <trkpt lat="37.7249650" lon="-3.6569560">
        <ele>623.8</ele>
        <time>2020-07-17T04:42:04Z</time>
      </trkpt>
      <trkpt lat="37.7248700" lon="-3.6570430">
        <ele>623.0</ele>
        <time>2020-07-17T04:42:05Z</time>
      </trkpt>
      <trkpt lat="37.7247890" lon="-3.6571320">
        <ele>621.8</ele>
        <time>2020-07-17T04:42:06Z</time>
      </trkpt>
      <trkpt lat="37.7247160" lon="-3.6572410">
        <ele>620.6</ele>
        <time>2020-07-17T04:42:07Z</time>
      </trkpt>
      <trkpt lat="37.7246590" lon="-3.6573530">
        <ele>619.0</ele>
        <time>2020-07-17T04:42:08Z</time>
      </trkpt>
      <trkpt lat="37.7246200" lon="-3.6574800">
        <ele>617.6</ele>
        <time>2020-07-17T04:42:09Z</time>
      </trkpt>
      <trkpt lat="37.7245970" lon="-3.6576220">
        <ele>616.4</ele>
        <time>2020-07-17T04:42:10Z</time>
      </trkpt>
      <trkpt lat="37.7245810" lon="-3.6577680">
        <ele>615.6</ele>
        <time>2020-07-17T04:42:11Z</time>
      </trkpt>
      <trkpt lat="37.7245880" lon="-3.6579340">
        <ele>614.2</ele>
        <time>2020-07-17T04:42:12Z</time>
      </trkpt>
      <trkpt lat="37.7245940" lon="-3.6580940">
        <ele>613.0</ele>
        <time>2020-07-17T04:42:13Z</time>
      </trkpt>
      <trkpt lat="37.7246010" lon="-3.6582570">
        <ele>611.8</ele>
        <time>2020-07-17T04:42:14Z</time>
      </trkpt>
      <trkpt lat="37.7246080" lon="-3.6584180">
        <ele>610.6</ele>
        <time>2020-07-17T04:42:15Z</time>
      </trkpt>
      <trkpt lat="37.7246100" lon="-3.6587310">
        <ele>608.4</ele>
        <time>2020-07-17T04:42:17Z</time>
      </trkpt>
      <trkpt lat="37.7245980" lon="-3.6589020">
        <ele>606.6</ele>
        <time>2020-07-17T04:42:18Z</time>
      </trkpt>
      <trkpt lat="37.7245710" lon="-3.6590650">
        <ele>605.2</ele>
        <time>2020-07-17T04:42:19Z</time>
      </trkpt>
      <trkpt lat="37.7245280" lon="-3.6592310">
        <ele>603.6</ele>
        <time>2020-07-17T04:42:20Z</time>
      </trkpt>
      <trkpt lat="37.7244200" lon="-3.6595500">
        <ele>601.0</ele>
        <time>2020-07-17T04:42:22Z</time>
      </trkpt>
      <trkpt lat="37.7243110" lon="-3.6598600">
        <ele>598.8</ele>
        <time>2020-07-17T04:42:24Z</time>
      </trkpt>
      <trkpt lat="37.7242590" lon="-3.6600160">
        <ele>597.8</ele>
        <time>2020-07-17T04:42:25Z</time>
      </trkpt>
      <trkpt lat="37.7242130" lon="-3.6601600">
        <ele>596.6</ele>
        <time>2020-07-17T04:42:26Z</time>
      </trkpt>
      <trkpt lat="37.7241230" lon="-3.6604680">
        <ele>594.6</ele>
        <time>2020-07-17T04:42:28Z</time>
      </trkpt>
      <trkpt lat="37.7240450" lon="-3.6607660">
        <ele>592.8</ele>
        <time>2020-07-17T04:42:30Z</time>
      </trkpt>
      <trkpt lat="37.7239690" lon="-3.6610520">
        <ele>591.6</ele>
        <time>2020-07-17T04:42:32Z</time>
      </trkpt>
      <trkpt lat="37.7238690" lon="-3.6613410">
        <ele>589.8</ele>
        <time>2020-07-17T04:42:34Z</time>
      </trkpt>
      <trkpt lat="37.7237510" lon="-3.6616090">
        <ele>588.6</ele>
        <time>2020-07-17T04:42:36Z</time>
      </trkpt>
      <trkpt lat="37.7236510" lon="-3.6617780">
        <ele>587.8</ele>
        <time>2020-07-17T04:42:37Z</time>
      </trkpt>
      <trkpt lat="37.7235500" lon="-3.6619460">
        <ele>586.6</ele>
        <time>2020-07-17T04:42:38Z</time>
      </trkpt>
      <trkpt lat="37.7233780" lon="-3.6622220">
        <ele>584.8</ele>
        <time>2020-07-17T04:42:40Z</time>
      </trkpt>
      <trkpt lat="37.7232230" lon="-3.6624830">
        <ele>583.6</ele>
        <time>2020-07-17T04:42:42Z</time>
      </trkpt>
      <trkpt lat="37.7230880" lon="-3.6627470">
        <ele>582.2</ele>
        <time>2020-07-17T04:42:44Z</time>
      </trkpt>
      <trkpt lat="37.7229670" lon="-3.6630070">
        <ele>580.8</ele>
        <time>2020-07-17T04:42:46Z</time>
      </trkpt>
      <trkpt lat="37.7228410" lon="-3.6632780">
        <ele>579.8</ele>
        <time>2020-07-17T04:42:48Z</time>
      </trkpt>
      <trkpt lat="37.7226720" lon="-3.6636650">
        <ele>578.6</ele>
        <time>2020-07-17T04:42:51Z</time>
      </trkpt>
      <trkpt lat="37.7225280" lon="-3.6640670">
        <ele>577.6</ele>
        <time>2020-07-17T04:42:54Z</time>
      </trkpt>
      <trkpt lat="37.7224870" lon="-3.6642010">
        <ele>577.2</ele>
        <time>2020-07-17T04:42:55Z</time>
      </trkpt>
      <trkpt lat="37.7224030" lon="-3.6646030">
        <ele>576.2</ele>
        <time>2020-07-17T04:42:58Z</time>
      </trkpt>
      <trkpt lat="37.7223860" lon="-3.6647290">
        <ele>576.0</ele>
        <time>2020-07-17T04:42:59Z</time>
      </trkpt>
      <trkpt lat="37.7223510" lon="-3.6652630">
        <ele>575.2</ele>
        <time>2020-07-17T04:43:03Z</time>
      </trkpt>
      <trkpt lat="37.7223450" lon="-3.6653970">
        <ele>575.2</ele>
        <time>2020-07-17T04:43:04Z</time>
      </trkpt>
      <trkpt lat="37.7223480" lon="-3.6660280">
        <ele>574.4</ele>
        <time>2020-07-17T04:43:09Z</time>
      </trkpt>
      <trkpt lat="37.7223510" lon="-3.6661290">
        <ele>574.0</ele>
        <time>2020-07-17T04:43:10Z</time>
      </trkpt>
      <trkpt lat="37.7223790" lon="-3.6664880">
        <ele>573.4</ele>
        <time>2020-07-17T04:43:14Z</time>
      </trkpt>
      <trkpt lat="37.7224000" lon="-3.6666650">
        <ele>572.8</ele>
        <time>2020-07-17T04:43:16Z</time>
      </trkpt>
      <trkpt lat="37.7224840" lon="-3.6671620">
        <ele>571.2</ele>
        <time>2020-07-17T04:43:21Z</time>
      </trkpt>
      <trkpt lat="37.7225530" lon="-3.6675050">
        <ele>569.8</ele>
        <time>2020-07-17T04:43:24Z</time>
      </trkpt>
      <trkpt lat="37.7225980" lon="-3.6677260">
        <ele>568.8</ele>
        <time>2020-07-17T04:43:26Z</time>
      </trkpt>
      <trkpt lat="37.7226250" lon="-3.6678560">
        <ele>568.2</ele>
        <time>2020-07-17T04:43:27Z</time>
      </trkpt>
      <trkpt lat="37.7226490" lon="-3.6679760">
        <ele>567.6</ele>
        <time>2020-07-17T04:43:28Z</time>
      </trkpt>
      <trkpt lat="37.7226970" lon="-3.6682220">
        <ele>566.4</ele>
        <time>2020-07-17T04:43:30Z</time>
      </trkpt>
      <trkpt lat="37.7227450" lon="-3.6684870">
        <ele>565.0</ele>
        <time>2020-07-17T04:43:32Z</time>
      </trkpt>
      <trkpt lat="37.7227790" lon="-3.6687710">
        <ele>563.8</ele>
        <time>2020-07-17T04:43:34Z</time>
      </trkpt>
      <trkpt lat="37.7228060" lon="-3.6690560">
        <ele>562.8</ele>
        <time>2020-07-17T04:43:36Z</time>
      </trkpt>
      <trkpt lat="37.7228330" lon="-3.6693790">
        <ele>561.0</ele>
        <time>2020-07-17T04:43:38Z</time>
      </trkpt>
      <trkpt lat="37.7228610" lon="-3.6696710">
        <ele>559.4</ele>
        <time>2020-07-17T04:43:40Z</time>
      </trkpt>
      <trkpt lat="37.7228960" lon="-3.6699610">
        <ele>558.0</ele>
        <time>2020-07-17T04:43:42Z</time>
      </trkpt>
      <trkpt lat="37.7229500" lon="-3.6702540">
        <ele>556.0</ele>
        <time>2020-07-17T04:43:44Z</time>
      </trkpt>
      <trkpt lat="37.7229810" lon="-3.6704010">
        <ele>555.0</ele>
        <time>2020-07-17T04:43:45Z</time>
      </trkpt>
      <trkpt lat="37.7230120" lon="-3.6705400">
        <ele>553.8</ele>
        <time>2020-07-17T04:43:46Z</time>
      </trkpt>
      <trkpt lat="37.7230740" lon="-3.6708170">
        <ele>552.2</ele>
        <time>2020-07-17T04:43:48Z</time>
      </trkpt>
      <trkpt lat="37.7231430" lon="-3.6711350">
        <ele>550.4</ele>
        <time>2020-07-17T04:43:50Z</time>
      </trkpt>
      <trkpt lat="37.7232050" lon="-3.6714210">
        <ele>548.6</ele>
        <time>2020-07-17T04:43:52Z</time>
      </trkpt>
      <trkpt lat="37.7232690" lon="-3.6717100">
        <ele>547.4</ele>
        <time>2020-07-17T04:43:54Z</time>
      </trkpt>
      <trkpt lat="37.7233340" lon="-3.6719970">
        <ele>546.2</ele>
        <time>2020-07-17T04:43:56Z</time>
      </trkpt>
      <trkpt lat="37.7233690" lon="-3.6721560">
        <ele>545.2</ele>
        <time>2020-07-17T04:43:57Z</time>
      </trkpt>
      <trkpt lat="37.7234010" lon="-3.6723020">
        <ele>544.4</ele>
        <time>2020-07-17T04:43:58Z</time>
      </trkpt>
      <trkpt lat="37.7234670" lon="-3.6725930">
        <ele>543.0</ele>
        <time>2020-07-17T04:44:00Z</time>
      </trkpt>
      <trkpt lat="37.7235330" lon="-3.6728850">
        <ele>541.8</ele>
        <time>2020-07-17T04:44:02Z</time>
      </trkpt>
      <trkpt lat="37.7235950" lon="-3.6731800">
        <ele>540.2</ele>
        <time>2020-07-17T04:44:04Z</time>
      </trkpt>
      <trkpt lat="37.7236520" lon="-3.6734650">
        <ele>538.4</ele>
        <time>2020-07-17T04:44:06Z</time>
      </trkpt>
      <trkpt lat="37.7237050" lon="-3.6737930">
        <ele>536.4</ele>
        <time>2020-07-17T04:44:08Z</time>
      </trkpt>
      <trkpt lat="37.7237370" lon="-3.6741220">
        <ele>534.4</ele>
        <time>2020-07-17T04:44:10Z</time>
      </trkpt>
      <trkpt lat="37.7237510" lon="-3.6744480">
        <ele>532.6</ele>
        <time>2020-07-17T04:44:12Z</time>
      </trkpt>
      <trkpt lat="37.7237520" lon="-3.6746150">
        <ele>531.6</ele>
        <time>2020-07-17T04:44:13Z</time>
      </trkpt>
      <trkpt lat="37.7237530" lon="-3.6747790">
        <ele>530.8</ele>
        <time>2020-07-17T04:44:14Z</time>
      </trkpt>
      <trkpt lat="37.7237520" lon="-3.6750970">
        <ele>529.2</ele>
        <time>2020-07-17T04:44:16Z</time>
      </trkpt>
      <trkpt lat="37.7237340" lon="-3.6754200">
        <ele>527.6</ele>
        <time>2020-07-17T04:44:18Z</time>
      </trkpt>
      <trkpt lat="37.7237130" lon="-3.6755620">
        <ele>526.6</ele>
        <time>2020-07-17T04:44:19Z</time>
      </trkpt>
      <trkpt lat="37.7236790" lon="-3.6757010">
        <ele>525.6</ele>
        <time>2020-07-17T04:44:20Z</time>
      </trkpt>
      <trkpt lat="37.7235910" lon="-3.6759520">
        <ele>523.8</ele>
        <time>2020-07-17T04:44:22Z</time>
      </trkpt>
      <trkpt lat="37.7235190" lon="-3.6761980">
        <ele>522.4</ele>
        <time>2020-07-17T04:44:24Z</time>
      </trkpt>
      <trkpt lat="37.7234890" lon="-3.6764420">
        <ele>521.0</ele>
        <time>2020-07-17T04:44:26Z</time>
      </trkpt>
      <trkpt lat="37.7234970" lon="-3.6767080">
        <ele>519.4</ele>
        <time>2020-07-17T04:44:28Z</time>
      </trkpt>
      <trkpt lat="37.7235120" lon="-3.6768270">
        <ele>518.2</ele>
        <time>2020-07-17T04:44:29Z</time>
      </trkpt>
      <trkpt lat="37.7235350" lon="-3.6769610">
        <ele>517.2</ele>
        <time>2020-07-17T04:44:30Z</time>
      </trkpt>
      <trkpt lat="37.7235640" lon="-3.6770700">
        <ele>516.2</ele>
        <time>2020-07-17T04:44:31Z</time>
      </trkpt>
      <trkpt lat="37.7236120" lon="-3.6772010">
        <ele>515.2</ele>
        <time>2020-07-17T04:44:32Z</time>
      </trkpt>
      <trkpt lat="37.7236730" lon="-3.6773110">
        <ele>514.4</ele>
        <time>2020-07-17T04:44:33Z</time>
      </trkpt>
      <trkpt lat="37.7237440" lon="-3.6774120">
        <ele>513.6</ele>
        <time>2020-07-17T04:44:34Z</time>
      </trkpt>
      <trkpt lat="37.7239070" lon="-3.6775850">
        <ele>511.6</ele>
        <time>2020-07-17T04:44:36Z</time>
      </trkpt>
      <trkpt lat="37.7241120" lon="-3.6777080">
        <ele>509.6</ele>
        <time>2020-07-17T04:44:38Z</time>
      </trkpt>
      <trkpt lat="37.7242130" lon="-3.6777490">
        <ele>508.4</ele>
        <time>2020-07-17T04:44:39Z</time>
      </trkpt>
      <trkpt lat="37.7243100" lon="-3.6777820">
        <ele>507.4</ele>
        <time>2020-07-17T04:44:40Z</time>
      </trkpt>
      <trkpt lat="37.7244880" lon="-3.6778400">
        <ele>506.0</ele>
        <time>2020-07-17T04:44:42Z</time>
      </trkpt>
      <trkpt lat="37.7245740" lon="-3.6778670">
        <ele>505.0</ele>
        <time>2020-07-17T04:44:43Z</time>
      </trkpt>
      <trkpt lat="37.7246610" lon="-3.6778920">
        <ele>504.2</ele>
        <time>2020-07-17T04:44:44Z</time>
      </trkpt>
      <trkpt lat="37.7248330" lon="-3.6779350">
        <ele>502.6</ele>
        <time>2020-07-17T04:44:46Z</time>
      </trkpt>
      <trkpt lat="37.7250160" lon="-3.6779650">
        <ele>501.2</ele>
        <time>2020-07-17T04:44:48Z</time>
      </trkpt>
      <trkpt lat="37.7251900" lon="-3.6779840">
        <ele>499.8</ele>
        <time>2020-07-17T04:44:50Z</time>
      </trkpt>
      <trkpt lat="37.7253320" lon="-3.6780070">
        <ele>498.2</ele>
        <time>2020-07-17T04:44:52Z</time>
      </trkpt>
      <trkpt lat="37.7254650" lon="-3.6780390">
        <ele>496.6</ele>
        <time>2020-07-17T04:44:54Z</time>
      </trkpt>
      <trkpt lat="37.7255880" lon="-3.6780850">
        <ele>495.2</ele>
        <time>2020-07-17T04:44:56Z</time>
      </trkpt>
      <trkpt lat="37.7257200" lon="-3.6781520">
        <ele>494.0</ele>
        <time>2020-07-17T04:44:58Z</time>
      </trkpt>
      <trkpt lat="37.7257820" lon="-3.6781890">
        <ele>493.6</ele>
        <time>2020-07-17T04:44:59Z</time>
      </trkpt>
      <trkpt lat="37.7259190" lon="-3.6782880">
        <ele>492.6</ele>
        <time>2020-07-17T04:45:01Z</time>
      </trkpt>
      <trkpt lat="37.7260580" lon="-3.6784310">
        <ele>491.6</ele>
        <time>2020-07-17T04:45:03Z</time>
      </trkpt>
      <trkpt lat="37.7261240" lon="-3.6785130">
        <ele>491.2</ele>
        <time>2020-07-17T04:45:04Z</time>
      </trkpt>
      <trkpt lat="37.7263130" lon="-3.6788040">
        <ele>489.6</ele>
        <time>2020-07-17T04:45:07Z</time>
      </trkpt>
      <trkpt lat="37.7264340" lon="-3.6790240">
        <ele>488.4</ele>
        <time>2020-07-17T04:45:09Z</time>
      </trkpt>
      <trkpt lat="37.7265550" lon="-3.6792310">
        <ele>487.2</ele>
        <time>2020-07-17T04:45:11Z</time>
      </trkpt>
      <trkpt lat="37.7266940" lon="-3.6794710">
        <ele>486.0</ele>
        <time>2020-07-17T04:45:13Z</time>
      </trkpt>
      <trkpt lat="37.7268270" lon="-3.6796810">
        <ele>484.8</ele>
        <time>2020-07-17T04:45:15Z</time>
      </trkpt>
      <trkpt lat="37.7269660" lon="-3.6798780">
        <ele>483.6</ele>
        <time>2020-07-17T04:45:17Z</time>
      </trkpt>
      <trkpt lat="37.7271250" lon="-3.6800700">
        <ele>482.6</ele>
        <time>2020-07-17T04:45:19Z</time>
      </trkpt>
      <trkpt lat="37.7274380" lon="-3.6803900">
        <ele>481.4</ele>
        <time>2020-07-17T04:45:23Z</time>
      </trkpt>
      <trkpt lat="37.7276060" lon="-3.6805360">
        <ele>481.2</ele>
        <time>2020-07-17T04:45:25Z</time>
      </trkpt>
      <trkpt lat="37.7280850" lon="-3.6809270">
        <ele>480.4</ele>
        <time>2020-07-17T04:45:31Z</time>
      </trkpt>
      <trkpt lat="37.7283220" lon="-3.6811090">
        <ele>480.0</ele>
        <time>2020-07-17T04:45:34Z</time>
      </trkpt>
      <trkpt lat="37.7287100" lon="-3.6813860">
        <ele>479.4</ele>
        <time>2020-07-17T04:45:39Z</time>
      </trkpt>
      <trkpt lat="37.7290210" lon="-3.6815980">
        <ele>479.2</ele>
        <time>2020-07-17T04:45:43Z</time>
      </trkpt>
      <trkpt lat="37.7291740" lon="-3.6817020">
        <ele>479.2</ele>
        <time>2020-07-17T04:45:45Z</time>
      </trkpt>
      <trkpt lat="37.7296880" lon="-3.6820490">
        <ele>478.6</ele>
        <time>2020-07-17T04:45:52Z</time>
      </trkpt>
      <trkpt lat="37.7298350" lon="-3.6821510">
        <ele>478.6</ele>
        <time>2020-07-17T04:45:54Z</time>
      </trkpt>
      <trkpt lat="37.7299120" lon="-3.6822040">
        <ele>478.4</ele>
        <time>2020-07-17T04:45:55Z</time>
      </trkpt>
      <trkpt lat="37.7301980" lon="-3.6823990">
        <ele>478.2</ele>
        <time>2020-07-17T04:45:59Z</time>
      </trkpt>
      <trkpt lat="37.7305810" lon="-3.6826490">
        <ele>478.0</ele>
        <time>2020-07-17T04:46:04Z</time>
      </trkpt>
      <trkpt lat="37.7307240" lon="-3.6827460">
        <ele>477.8</ele>
        <time>2020-07-17T04:46:06Z</time>
      </trkpt>
      <trkpt lat="37.7310780" lon="-3.6829870">
        <ele>477.4</ele>
        <time>2020-07-17T04:46:11Z</time>
      </trkpt>
      <trkpt lat="37.7311550" lon="-3.6830400">
        <ele>477.2</ele>
        <time>2020-07-17T04:46:12Z</time>
      </trkpt>
      <trkpt lat="37.7314340" lon="-3.6832230">
        <ele>476.8</ele>
        <time>2020-07-17T04:46:16Z</time>
      </trkpt>
      <trkpt lat="37.7315820" lon="-3.6833230">
        <ele>476.8</ele>
        <time>2020-07-17T04:46:18Z</time>
      </trkpt>
      <trkpt lat="37.7319420" lon="-3.6835660">
        <ele>476.4</ele>
        <time>2020-07-17T04:46:23Z</time>
      </trkpt>
      <trkpt lat="37.7321710" lon="-3.6836940">
        <ele>476.2</ele>
        <time>2020-07-17T04:46:26Z</time>
      </trkpt>
      <trkpt lat="37.7322530" lon="-3.6837350">
        <ele>476.2</ele>
        <time>2020-07-17T04:46:27Z</time>
      </trkpt>
      <trkpt lat="37.7326730" lon="-3.6838290">
        <ele>475.6</ele>
        <time>2020-07-17T04:46:32Z</time>
      </trkpt>
      <trkpt lat="37.7330910" lon="-3.6838040">
        <ele>475.2</ele>
        <time>2020-07-17T04:46:37Z</time>
      </trkpt>
      <trkpt lat="37.7331770" lon="-3.6837920">
        <ele>475.2</ele>
        <time>2020-07-17T04:46:38Z</time>
      </trkpt>
      <trkpt lat="37.7338010" lon="-3.6837060">
        <ele>474.0</ele>
        <time>2020-07-17T04:46:45Z</time>
      </trkpt>
      <trkpt lat="37.7339670" lon="-3.6836840">
        <ele>473.6</ele>
        <time>2020-07-17T04:46:47Z</time>
      </trkpt>
      <trkpt lat="37.7342640" lon="-3.6836440">
        <ele>473.0</ele>
        <time>2020-07-17T04:46:50Z</time>
      </trkpt>
      <trkpt lat="37.7346320" lon="-3.6836020">
        <ele>472.0</ele>
        <time>2020-07-17T04:46:54Z</time>
      </trkpt>
      <trkpt lat="37.7347180" lon="-3.6835920">
        <ele>471.8</ele>
        <time>2020-07-17T04:46:55Z</time>
      </trkpt>
      <trkpt lat="37.7350510" lon="-3.6835750">
        <ele>470.8</ele>
        <time>2020-07-17T04:46:59Z</time>
      </trkpt>
      <trkpt lat="37.7351360" lon="-3.6835930">
        <ele>470.4</ele>
        <time>2020-07-17T04:47:00Z</time>
      </trkpt>
      <trkpt lat="37.7352150" lon="-3.6836160">
        <ele>470.2</ele>
        <time>2020-07-17T04:47:01Z</time>
      </trkpt>
      <trkpt lat="37.7353840" lon="-3.6836870">
        <ele>469.6</ele>
        <time>2020-07-17T04:47:03Z</time>
      </trkpt>
      <trkpt lat="37.7355620" lon="-3.6837170">
        <ele>469.0</ele>
        <time>2020-07-17T04:47:05Z</time>
      </trkpt>
      <trkpt lat="37.7356640" lon="-3.6837150">
        <ele>468.6</ele>
        <time>2020-07-17T04:47:06Z</time>
      </trkpt>
      <trkpt lat="37.7358710" lon="-3.6836960">
        <ele>467.4</ele>
        <time>2020-07-17T04:47:08Z</time>
      </trkpt>
      <trkpt lat="37.7359640" lon="-3.6836780">
        <ele>466.8</ele>
        <time>2020-07-17T04:47:09Z</time>
      </trkpt>
      <trkpt lat="37.7360520" lon="-3.6836670">
        <ele>466.4</ele>
        <time>2020-07-17T04:47:10Z</time>
      </trkpt>
      <trkpt lat="37.7363980" lon="-3.6836470">
        <ele>466.4</ele>
        <time>2020-07-17T04:47:14Z</time>
      </trkpt>
      <trkpt lat="37.7367580" lon="-3.6836460">
        <ele>466.0</ele>
        <time>2020-07-17T04:47:18Z</time>
      </trkpt>
      <trkpt lat="37.7368280" lon="-3.6836980">
        <ele>465.8</ele>
        <time>2020-07-17T04:47:19Z</time>
      </trkpt>
      <trkpt lat="37.7369160" lon="-3.6838670">
        <ele>465.2</ele>
        <time>2020-07-17T04:47:21Z</time>
      </trkpt>
      <trkpt lat="37.7369770" lon="-3.6840480">
        <ele>464.6</ele>
        <time>2020-07-17T04:47:23Z</time>
      </trkpt>
      <trkpt lat="37.7370150" lon="-3.6841450">
        <ele>464.2</ele>
        <time>2020-07-17T04:47:24Z</time>
      </trkpt>
      <trkpt lat="37.7370730" lon="-3.6843070">
        <ele>463.8</ele>
        <time>2020-07-17T04:47:26Z</time>
      </trkpt>
      <trkpt lat="37.7371080" lon="-3.6844910">
        <ele>463.6</ele>
        <time>2020-07-17T04:47:28Z</time>
      </trkpt>
      <trkpt lat="37.7370930" lon="-3.6846580">
        <ele>463.8</ele>
        <time>2020-07-17T04:47:30Z</time>
      </trkpt>
      <trkpt lat="37.7370240" lon="-3.6848360">
        <ele>464.4</ele>
        <time>2020-07-17T04:47:33Z</time>
      </trkpt>
      <trkpt lat="37.7370060" lon="-3.6848840">
        <ele>464.6</ele>
        <time>2020-07-17T04:47:34Z</time>
      </trkpt>
      <trkpt lat="37.7369750" lon="-3.6849640">
        <ele>465.4</ele>
        <time>2020-07-17T04:47:36Z</time>
      </trkpt>
      <trkpt lat="37.7369490" lon="-3.6850360">
        <ele>466.0</ele>
        <time>2020-07-17T04:47:38Z</time>
      </trkpt>
      <trkpt lat="37.7369290" lon="-3.6851020">
        <ele>466.8</ele>
        <time>2020-07-17T04:47:40Z</time>
      </trkpt>
      <trkpt lat="37.7368820" lon="-3.6852350">
        <ele>467.8</ele>
        <time>2020-07-17T04:47:44Z</time>
      </trkpt>
      <trkpt lat="37.7368670" lon="-3.6852780">
        <ele>468.0</ele>
        <time>2020-07-17T04:47:45Z</time>
      </trkpt>
      <trkpt lat="37.7368650" lon="-3.6853530">
        <ele>468.4</ele>
        <time>2020-07-17T04:47:47Z</time>
      </trkpt>
      <trkpt lat="37.7368560" lon="-3.6854290">
        <ele>468.8</ele>
        <time>2020-07-17T04:47:49Z</time>
      </trkpt>
      <trkpt lat="37.7368450" lon="-3.6854980">
        <ele>469.2</ele>
        <time>2020-07-17T04:47:51Z</time>
      </trkpt>
      <trkpt lat="37.7368640" lon="-3.6855480">
        <ele>469.8</ele>
        <time>2020-07-17T04:47:53Z</time>
      </trkpt>
      <trkpt lat="37.7368750" lon="-3.6855780">
        <ele>470.0</ele>
        <time>2020-07-17T04:47:54Z</time>
      </trkpt>
      <trkpt lat="37.7368950" lon="-3.6855940">
        <ele>470.2</ele>
        <time>2020-07-17T04:47:55Z</time>
      </trkpt>
      <trkpt lat="37.7369370" lon="-3.6856510">
        <ele>471.0</ele>
        <time>2020-07-17T04:47:58Z</time>
      </trkpt>
      <trkpt lat="37.7369790" lon="-3.6856870">
        <ele>471.6</ele>
        <time>2020-07-17T04:48:00Z</time>
      </trkpt>
      <trkpt lat="37.7370220" lon="-3.6857100">
        <ele>472.0</ele>
        <time>2020-07-17T04:48:02Z</time>
      </trkpt>
      <trkpt lat="37.7370660" lon="-3.6857180">
        <ele>472.6</ele>
        <time>2020-07-17T04:48:04Z</time>
      </trkpt>
      <trkpt lat="37.7371070" lon="-3.6857240">
        <ele>473.0</ele>
        <time>2020-07-17T04:48:06Z</time>
      </trkpt>
      <trkpt lat="37.7371300" lon="-3.6857280">
        <ele>473.2</ele>
        <time>2020-07-17T04:48:07Z</time>
      </trkpt>
      <trkpt lat="37.7372040" lon="-3.6857140">
        <ele>474.4</ele>
        <time>2020-07-17T04:48:11Z</time>
      </trkpt>
      <trkpt lat="37.7372370" lon="-3.6856950">
        <ele>474.6</ele>
        <time>2020-07-17T04:48:12Z</time>
      </trkpt>
      <trkpt lat="37.7373130" lon="-3.6856610">
        <ele>475.4</ele>
        <time>2020-07-17T04:48:16Z</time>
      </trkpt>
      <trkpt lat="37.7374090" lon="-3.6856140">
        <ele>476.2</ele>
        <time>2020-07-17T04:48:20Z</time>
      </trkpt>
      <trkpt lat="37.7374490" lon="-3.6855950">
        <ele>476.6</ele>
        <time>2020-07-17T04:48:22Z</time>
      </trkpt>
      <trkpt lat="37.7375760" lon="-3.6855430">
        <ele>477.8</ele>
        <time>2020-07-17T04:48:28Z</time>
      </trkpt>
      <trkpt lat="37.7375940" lon="-3.6855330">
        <ele>478.0</ele>
        <time>2020-07-17T04:48:29Z</time>
      </trkpt>
      <trkpt lat="37.7376760" lon="-3.6855030">
        <ele>478.8</ele>
        <time>2020-07-17T04:48:33Z</time>
      </trkpt>
      <trkpt lat="37.7377590" lon="-3.6854680">
        <ele>479.4</ele>
        <time>2020-07-17T04:48:37Z</time>
      </trkpt>
      <trkpt lat="37.7377930" lon="-3.6854440">
        <ele>479.8</ele>
        <time>2020-07-17T04:48:39Z</time>
      </trkpt>
      <trkpt lat="37.7378940" lon="-3.6854030">
        <ele>480.6</ele>
        <time>2020-07-17T04:48:44Z</time>
      </trkpt>
      <trkpt lat="37.7379140" lon="-3.6853960">
        <ele>480.8</ele>
        <time>2020-07-17T04:48:45Z</time>
      </trkpt>
      <trkpt lat="37.7380290" lon="-3.6853460">
        <ele>482.0</ele>
        <time>2020-07-17T04:48:51Z</time>
      </trkpt>
      <trkpt lat="37.7381250" lon="-3.6853030">
        <ele>482.8</ele>
        <time>2020-07-17T04:48:56Z</time>
      </trkpt>
      <trkpt lat="37.7381450" lon="-3.6852960">
        <ele>483.0</ele>
        <time>2020-07-17T04:48:57Z</time>
      </trkpt>
      <trkpt lat="37.7382640" lon="-3.6852380">
        <ele>484.2</ele>
        <time>2020-07-17T04:49:03Z</time>
      </trkpt>
      <trkpt lat="37.7383030" lon="-3.6852200">
        <ele>484.4</ele>
        <time>2020-07-17T04:49:05Z</time>
      </trkpt>
      <trkpt lat="37.7384080" lon="-3.6851740">
        <ele>485.2</ele>
        <time>2020-07-17T04:49:10Z</time>
      </trkpt>
      <trkpt lat="37.7384950" lon="-3.6851550">
        <ele>486.0</ele>
        <time>2020-07-17T04:49:14Z</time>
      </trkpt>
      <trkpt lat="37.7385370" lon="-3.6851450">
        <ele>486.4</ele>
        <time>2020-07-17T04:49:16Z</time>
      </trkpt>
      <trkpt lat="37.7386720" lon="-3.6851590">
        <ele>487.6</ele>
        <time>2020-07-17T04:49:22Z</time>
      </trkpt>
      <trkpt lat="37.7387810" lon="-3.6852510">
        <ele>488.6</ele>
        <time>2020-07-17T04:49:28Z</time>
      </trkpt>
      <trkpt lat="37.7387950" lon="-3.6852710">
        <ele>488.6</ele>
        <time>2020-07-17T04:49:29Z</time>
      </trkpt>
      <trkpt lat="37.7388690" lon="-3.6854120">
        <ele>489.6</ele>
        <time>2020-07-17T04:49:35Z</time>
      </trkpt>
      <trkpt lat="37.7388750" lon="-3.6854420">
        <ele>489.8</ele>
        <time>2020-07-17T04:49:36Z</time>
      </trkpt>
      <trkpt lat="37.7388570" lon="-3.6856480">
        <ele>490.8</ele>
        <time>2020-07-17T04:49:43Z</time>
      </trkpt>
      <trkpt lat="37.7387800" lon="-3.6858010">
        <ele>491.8</ele>
        <time>2020-07-17T04:49:49Z</time>
      </trkpt>
      <trkpt lat="37.7387540" lon="-3.6858470">
        <ele>492.0</ele>
        <time>2020-07-17T04:49:51Z</time>
      </trkpt>
      <trkpt lat="37.7386730" lon="-3.6859880">
        <ele>492.8</ele>
        <time>2020-07-17T04:49:57Z</time>
      </trkpt>
      <trkpt lat="37.7386480" lon="-3.6860330">
        <ele>493.0</ele>
        <time>2020-07-17T04:49:59Z</time>
      </trkpt>
      <trkpt lat="37.7385630" lon="-3.6861760">
        <ele>493.8</ele>
        <time>2020-07-17T04:50:05Z</time>
      </trkpt>
      <trkpt lat="37.7385140" lon="-3.6862450">
        <ele>494.2</ele>
        <time>2020-07-17T04:50:08Z</time>
      </trkpt>
      <trkpt lat="37.7384590" lon="-3.6863450">
        <ele>494.8</ele>
        <time>2020-07-17T04:50:12Z</time>
      </trkpt>
      <trkpt lat="37.7384020" lon="-3.6864400">
        <ele>495.4</ele>
        <time>2020-07-17T04:50:16Z</time>
      </trkpt>
      <trkpt lat="37.7383630" lon="-3.6865190">
        <ele>496.0</ele>
        <time>2020-07-17T04:50:19Z</time>
      </trkpt>
      <trkpt lat="37.7382710" lon="-3.6866840">
        <ele>497.0</ele>
        <time>2020-07-17T04:50:26Z</time>
      </trkpt>
      <trkpt lat="37.7381900" lon="-3.6868590">
        <ele>498.2</ele>
        <time>2020-07-17T04:50:33Z</time>
      </trkpt>
      <trkpt lat="37.7381620" lon="-3.6869030">
        <ele>498.6</ele>
        <time>2020-07-17T04:50:35Z</time>
      </trkpt>
      <trkpt lat="37.7381260" lon="-3.6869740">
        <ele>499.2</ele>
        <time>2020-07-17T04:50:38Z</time>
      </trkpt>
      <trkpt lat="37.7380580" lon="-3.6871130">
        <ele>500.2</ele>
        <time>2020-07-17T04:50:44Z</time>
      </trkpt>
      <trkpt lat="37.7380050" lon="-3.6872450">
        <ele>501.4</ele>
        <time>2020-07-17T04:50:49Z</time>
      </trkpt>
      <trkpt lat="37.7379710" lon="-3.6873230">
        <ele>502.0</ele>
        <time>2020-07-17T04:50:52Z</time>
      </trkpt>
      <trkpt lat="37.7379210" lon="-3.6874330">
        <ele>502.4</ele>
        <time>2020-07-17T04:50:56Z</time>
      </trkpt>
      <trkpt lat="37.7378500" lon="-3.6875560">
        <ele>503.2</ele>
        <time>2020-07-17T04:51:01Z</time>
      </trkpt>
      <trkpt lat="37.7378250" lon="-3.6876090">
        <ele>503.6</ele>
        <time>2020-07-17T04:51:03Z</time>
      </trkpt>
      <trkpt lat="37.7377510" lon="-3.6877250">
        <ele>504.4</ele>
        <time>2020-07-17T04:51:08Z</time>
      </trkpt>
      <trkpt lat="37.7377090" lon="-3.6877550">
        <ele>504.6</ele>
        <time>2020-07-17T04:51:10Z</time>
      </trkpt>
      <trkpt lat="37.7375930" lon="-3.6878090">
        <ele>505.4</ele>
        <time>2020-07-17T04:51:15Z</time>
      </trkpt>
      <trkpt lat="37.7375480" lon="-3.6878200">
        <ele>505.8</ele>
        <time>2020-07-17T04:51:17Z</time>
      </trkpt>
      <trkpt lat="37.7373970" lon="-3.6878560">
        <ele>507.0</ele>
        <time>2020-07-17T04:51:23Z</time>
      </trkpt>
      <trkpt lat="37.7373040" lon="-3.6879730">
        <ele>507.6</ele>
        <time>2020-07-17T04:51:28Z</time>
      </trkpt>
      <trkpt lat="37.7372930" lon="-3.6880330">
        <ele>508.0</ele>
        <time>2020-07-17T04:51:30Z</time>
      </trkpt>
      <trkpt lat="37.7373070" lon="-3.6880980">
        <ele>508.6</ele>
        <time>2020-07-17T04:51:33Z</time>
      </trkpt>
      <trkpt lat="37.7373140" lon="-3.6881820">
        <ele>509.2</ele>
        <time>2020-07-17T04:51:36Z</time>
      </trkpt>
      <trkpt lat="37.7373220" lon="-3.6882380">
        <ele>509.6</ele>
        <time>2020-07-17T04:51:38Z</time>
      </trkpt>
      <trkpt lat="37.7373460" lon="-3.6883440">
        <ele>510.2</ele>
        <time>2020-07-17T04:51:42Z</time>
      </trkpt>
      <trkpt lat="37.7373690" lon="-3.6884760">
        <ele>511.4</ele>
        <time>2020-07-17T04:51:47Z</time>
      </trkpt>
      <trkpt lat="37.7373940" lon="-3.6886060">
        <ele>512.2</ele>
        <time>2020-07-17T04:51:52Z</time>
      </trkpt>
      <trkpt lat="37.7374010" lon="-3.6886280">
        <ele>512.4</ele>
        <time>2020-07-17T04:51:53Z</time>
      </trkpt>
      <trkpt lat="37.7374150" lon="-3.6887300">
        <ele>513.2</ele>
        <time>2020-07-17T04:51:57Z</time>
      </trkpt>
      <trkpt lat="37.7374190" lon="-3.6887800">
        <ele>513.6</ele>
        <time>2020-07-17T04:51:59Z</time>
      </trkpt>
      <trkpt lat="37.7374290" lon="-3.6889070">
        <ele>514.6</ele>
        <time>2020-07-17T04:52:04Z</time>
      </trkpt>
      <trkpt lat="37.7374320" lon="-3.6889540">
        <ele>515.0</ele>
        <time>2020-07-17T04:52:06Z</time>
      </trkpt>
      <trkpt lat="37.7374490" lon="-3.6890570">
        <ele>515.8</ele>
        <time>2020-07-17T04:52:10Z</time>
      </trkpt>
      <trkpt lat="37.7374480" lon="-3.6891330">
        <ele>516.4</ele>
        <time>2020-07-17T04:52:13Z</time>
      </trkpt>
      <trkpt lat="37.7374490" lon="-3.6892100">
        <ele>517.0</ele>
        <time>2020-07-17T04:52:16Z</time>
      </trkpt>
      <trkpt lat="37.7374440" lon="-3.6893100">
        <ele>517.8</ele>
        <time>2020-07-17T04:52:20Z</time>
      </trkpt>
      <trkpt lat="37.7374460" lon="-3.6893590">
        <ele>518.2</ele>
        <time>2020-07-17T04:52:22Z</time>
      </trkpt>
      <trkpt lat="37.7374550" lon="-3.6895000">
        <ele>519.4</ele>
        <time>2020-07-17T04:52:28Z</time>
      </trkpt>
      <trkpt lat="37.7374700" lon="-3.6896440">
        <ele>520.4</ele>
        <time>2020-07-17T04:52:34Z</time>
      </trkpt>
      <trkpt lat="37.7374940" lon="-3.6897100">
        <ele>521.0</ele>
        <time>2020-07-17T04:52:37Z</time>
      </trkpt>
      <trkpt lat="37.7375190" lon="-3.6897500">
        <ele>521.4</ele>
        <time>2020-07-17T04:52:39Z</time>
      </trkpt>
      <trkpt lat="37.7375980" lon="-3.6898210">
        <ele>522.4</ele>
        <time>2020-07-17T04:52:44Z</time>
      </trkpt>
      <trkpt lat="37.7376160" lon="-3.6898290">
        <ele>522.6</ele>
        <time>2020-07-17T04:52:45Z</time>
      </trkpt>
      <trkpt lat="37.7376940" lon="-3.6898420">
        <ele>523.8</ele>
        <time>2020-07-17T04:52:49Z</time>
      </trkpt>
      <trkpt lat="37.7377290" lon="-3.6898330">
        <ele>524.4</ele>
        <time>2020-07-17T04:52:51Z</time>
      </trkpt>
      <trkpt lat="37.7377650" lon="-3.6898160">
        <ele>524.8</ele>
        <time>2020-07-17T04:52:53Z</time>
      </trkpt>
      <trkpt lat="37.7378340" lon="-3.6897700">
        <ele>526.2</ele>
        <time>2020-07-17T04:52:57Z</time>
      </trkpt>
      <trkpt lat="37.7378480" lon="-3.6897490">
        <ele>526.4</ele>
        <time>2020-07-17T04:52:58Z</time>
      </trkpt>
      <trkpt lat="37.7378800" lon="-3.6896780">
        <ele>527.2</ele>
        <time>2020-07-17T04:53:01Z</time>
      </trkpt>
      <trkpt lat="37.7379040" lon="-3.6895620">
        <ele>528.2</ele>
        <time>2020-07-17T04:53:05Z</time>
      </trkpt>
      <trkpt lat="37.7379070" lon="-3.6895330">
        <ele>528.4</ele>
        <time>2020-07-17T04:53:06Z</time>
      </trkpt>
      <trkpt lat="37.7379010" lon="-3.6893550">
        <ele>529.4</ele>
        <time>2020-07-17T04:53:12Z</time>
      </trkpt>
      <trkpt lat="37.7379030" lon="-3.6893260">
        <ele>529.8</ele>
        <time>2020-07-17T04:53:13Z</time>
      </trkpt>
      <trkpt lat="37.7378990" lon="-3.6891790">
        <ele>530.6</ele>
        <time>2020-07-17T04:53:18Z</time>
      </trkpt>
      <trkpt lat="37.7378950" lon="-3.6890840">
        <ele>531.2</ele>
        <time>2020-07-17T04:53:21Z</time>
      </trkpt>
      <trkpt lat="37.7378880" lon="-3.6889100">
        <ele>531.8</ele>
        <time>2020-07-17T04:53:26Z</time>
      </trkpt>
      <trkpt lat="37.7379010" lon="-3.6887710">
        <ele>532.2</ele>
        <time>2020-07-17T04:53:30Z</time>
      </trkpt>
      <trkpt lat="37.7379350" lon="-3.6886390">
        <ele>533.0</ele>
        <time>2020-07-17T04:53:34Z</time>
      </trkpt>
      <trkpt lat="37.7379870" lon="-3.6885530">
        <ele>533.6</ele>
        <time>2020-07-17T04:53:37Z</time>
      </trkpt>
      <trkpt lat="37.7380670" lon="-3.6884540">
        <ele>534.0</ele>
        <time>2020-07-17T04:53:41Z</time>
      </trkpt>
      <trkpt lat="37.7381640" lon="-3.6883820">
        <ele>534.6</ele>
        <time>2020-07-17T04:53:45Z</time>
      </trkpt>
      <trkpt lat="37.7382420" lon="-3.6883620">
        <ele>535.2</ele>
        <time>2020-07-17T04:53:48Z</time>
      </trkpt>
      <trkpt lat="37.7383460" lon="-3.6883390">
        <ele>535.8</ele>
        <time>2020-07-17T04:53:52Z</time>
      </trkpt>
      <trkpt lat="37.7384020" lon="-3.6883460">
        <ele>536.2</ele>
        <time>2020-07-17T04:53:54Z</time>
      </trkpt>
      <trkpt lat="37.7384720" lon="-3.6883960">
        <ele>537.0</ele>
        <time>2020-07-17T04:53:57Z</time>
      </trkpt>
      <trkpt lat="37.7385070" lon="-3.6884450">
        <ele>537.4</ele>
        <time>2020-07-17T04:53:59Z</time>
      </trkpt>
      <trkpt lat="37.7385480" lon="-3.6885400">
        <ele>537.8</ele>
        <time>2020-07-17T04:54:02Z</time>
      </trkpt>
      <trkpt lat="37.7385820" lon="-3.6886620">
        <ele>538.4</ele>
        <time>2020-07-17T04:54:06Z</time>
      </trkpt>
      <trkpt lat="37.7386040" lon="-3.6887840">
        <ele>539.2</ele>
        <time>2020-07-17T04:54:10Z</time>
      </trkpt>
      <trkpt lat="37.7386180" lon="-3.6888400">
        <ele>539.6</ele>
        <time>2020-07-17T04:54:12Z</time>
      </trkpt>
      <trkpt lat="37.7386570" lon="-3.6889780">
        <ele>540.8</ele>
        <time>2020-07-17T04:54:17Z</time>
      </trkpt>
      <trkpt lat="37.7386890" lon="-3.6890610">
        <ele>541.6</ele>
        <time>2020-07-17T04:54:20Z</time>
      </trkpt>
      <trkpt lat="37.7387210" lon="-3.6891060">
        <ele>542.0</ele>
        <time>2020-07-17T04:54:22Z</time>
      </trkpt>
      <trkpt lat="37.7387770" lon="-3.6891550">
        <ele>542.6</ele>
        <time>2020-07-17T04:54:25Z</time>
      </trkpt>
      <trkpt lat="37.7387970" lon="-3.6891640">
        <ele>543.0</ele>
        <time>2020-07-17T04:54:26Z</time>
      </trkpt>
      <trkpt lat="37.7388830" lon="-3.6891980">
        <ele>544.0</ele>
        <time>2020-07-17T04:54:30Z</time>
      </trkpt>
      <trkpt lat="37.7389040" lon="-3.6892020">
        <ele>544.2</ele>
        <time>2020-07-17T04:54:31Z</time>
      </trkpt>
      <trkpt lat="37.7389690" lon="-3.6892120">
        <ele>545.0</ele>
        <time>2020-07-17T04:54:34Z</time>
      </trkpt>
      <trkpt lat="37.7390900" lon="-3.6892170">
        <ele>546.2</ele>
        <time>2020-07-17T04:54:39Z</time>
      </trkpt>
      <trkpt lat="37.7392180" lon="-3.6892120">
        <ele>547.2</ele>
        <time>2020-07-17T04:54:44Z</time>
      </trkpt>
      <trkpt lat="37.7393170" lon="-3.6891950">
        <ele>548.0</ele>
        <time>2020-07-17T04:54:48Z</time>
      </trkpt>
      <trkpt lat="37.7393420" lon="-3.6891900">
        <ele>548.4</ele>
        <time>2020-07-17T04:54:49Z</time>
      </trkpt>
      <trkpt lat="37.7394670" lon="-3.6891580">
        <ele>549.4</ele>
        <time>2020-07-17T04:54:54Z</time>
      </trkpt>
      <trkpt lat="37.7395430" lon="-3.6891460">
        <ele>550.0</ele>
        <time>2020-07-17T04:54:57Z</time>
      </trkpt>
      <trkpt lat="37.7396210" lon="-3.6891390">
        <ele>550.6</ele>
        <time>2020-07-17T04:55:00Z</time>
      </trkpt>
      <trkpt lat="37.7398050" lon="-3.6891460">
        <ele>551.6</ele>
        <time>2020-07-17T04:55:07Z</time>
      </trkpt>
      <trkpt lat="37.7398340" lon="-3.6891500">
        <ele>551.8</ele>
        <time>2020-07-17T04:55:08Z</time>
      </trkpt>
      <trkpt lat="37.7399940" lon="-3.6891820">
        <ele>552.6</ele>
        <time>2020-07-17T04:55:14Z</time>
      </trkpt>
      <trkpt lat="37.7400190" lon="-3.6891890">
        <ele>552.8</ele>
        <time>2020-07-17T04:55:15Z</time>
      </trkpt>
      <trkpt lat="37.7401730" lon="-3.6892140">
        <ele>553.6</ele>
        <time>2020-07-17T04:55:21Z</time>
      </trkpt>
      <trkpt lat="37.7402810" lon="-3.6892220">
        <ele>554.4</ele>
        <time>2020-07-17T04:55:25Z</time>
      </trkpt>
      <trkpt lat="37.7403340" lon="-3.6892280">
        <ele>554.8</ele>
        <time>2020-07-17T04:55:27Z</time>
      </trkpt>
      <trkpt lat="37.7404950" lon="-3.6892190">
        <ele>555.8</ele>
        <time>2020-07-17T04:55:33Z</time>
      </trkpt>
      <trkpt lat="37.7405720" lon="-3.6892070">
        <ele>556.2</ele>
        <time>2020-07-17T04:55:36Z</time>
      </trkpt>
      <trkpt lat="37.7406500" lon="-3.6891880">
        <ele>556.8</ele>
        <time>2020-07-17T04:55:39Z</time>
      </trkpt>
      <trkpt lat="37.7408000" lon="-3.6891260">
        <ele>558.0</ele>
        <time>2020-07-17T04:55:45Z</time>
      </trkpt>
      <trkpt lat="37.7408220" lon="-3.6891170">
        <ele>558.2</ele>
        <time>2020-07-17T04:55:46Z</time>
      </trkpt>
      <trkpt lat="37.7409300" lon="-3.6890930">
        <ele>559.2</ele>
        <time>2020-07-17T04:55:50Z</time>
      </trkpt>
      <trkpt lat="37.7410370" lon="-3.6890730">
        <ele>560.0</ele>
        <time>2020-07-17T04:55:54Z</time>
      </trkpt>
      <trkpt lat="37.7410630" lon="-3.6890690">
        <ele>560.2</ele>
        <time>2020-07-17T04:55:55Z</time>
      </trkpt>
      <trkpt lat="37.7412220" lon="-3.6890420">
        <ele>561.4</ele>
        <time>2020-07-17T04:56:01Z</time>
      </trkpt>
      <trkpt lat="37.7413280" lon="-3.6890310">
        <ele>562.0</ele>
        <time>2020-07-17T04:56:05Z</time>
      </trkpt>
      <trkpt lat="37.7414110" lon="-3.6890290">
        <ele>562.4</ele>
        <time>2020-07-17T04:56:08Z</time>
      </trkpt>
      <trkpt lat="37.7415970" lon="-3.6890370">
        <ele>563.6</ele>
        <time>2020-07-17T04:56:15Z</time>
      </trkpt>
      <trkpt lat="37.7417540" lon="-3.6890430">
        <ele>564.8</ele>
        <time>2020-07-17T04:56:21Z</time>
      </trkpt>
      <trkpt lat="37.7418640" lon="-3.6890520">
        <ele>565.6</ele>
        <time>2020-07-17T04:56:25Z</time>
      </trkpt>
      <trkpt lat="37.7418900" lon="-3.6890560">
        <ele>565.8</ele>
        <time>2020-07-17T04:56:26Z</time>
      </trkpt>
      <trkpt lat="37.7420510" lon="-3.6891190">
        <ele>566.8</ele>
        <time>2020-07-17T04:56:32Z</time>
      </trkpt>
      <trkpt lat="37.7420990" lon="-3.6891670">
        <ele>567.4</ele>
        <time>2020-07-17T04:56:34Z</time>
      </trkpt>
      <trkpt lat="37.7421640" lon="-3.6892530">
        <ele>567.8</ele>
        <time>2020-07-17T04:56:37Z</time>
      </trkpt>
      <trkpt lat="37.7422380" lon="-3.6893760">
        <ele>568.2</ele>
        <time>2020-07-17T04:56:41Z</time>
      </trkpt>
      <trkpt lat="37.7423300" lon="-3.6895300">
        <ele>569.0</ele>
        <time>2020-07-17T04:56:46Z</time>
      </trkpt>
      <trkpt lat="37.7424380" lon="-3.6897050">
        <ele>569.8</ele>
        <time>2020-07-17T04:56:52Z</time>
      </trkpt>
      <trkpt lat="37.7424540" lon="-3.6897320">
        <ele>570.0</ele>
        <time>2020-07-17T04:56:53Z</time>
      </trkpt>
      <trkpt lat="37.7425740" lon="-3.6899350">
        <ele>571.2</ele>
        <time>2020-07-17T04:57:00Z</time>
      </trkpt>
      <trkpt lat="37.7426530" lon="-3.6901000">
        <ele>572.0</ele>
        <time>2020-07-17T04:57:05Z</time>
      </trkpt>
      <trkpt lat="37.7426700" lon="-3.6901330">
        <ele>572.2</ele>
        <time>2020-07-17T04:57:06Z</time>
      </trkpt>
      <trkpt lat="37.7426990" lon="-3.6902030">
        <ele>572.4</ele>
        <time>2020-07-17T04:57:08Z</time>
      </trkpt>
      <trkpt lat="37.7427900" lon="-3.6904660">
        <ele>573.2</ele>
        <time>2020-07-17T04:57:15Z</time>
      </trkpt>
      <trkpt lat="37.7428210" lon="-3.6905890">
        <ele>573.6</ele>
        <time>2020-07-17T04:57:18Z</time>
      </trkpt>
      <trkpt lat="37.7428650" lon="-3.6907900">
        <ele>573.8</ele>
        <time>2020-07-17T04:57:23Z</time>
      </trkpt>
      <trkpt lat="37.7428830" lon="-3.6910010">
        <ele>574.4</ele>
        <time>2020-07-17T04:57:28Z</time>
      </trkpt>
      <trkpt lat="37.7428790" lon="-3.6912500">
        <ele>575.0</ele>
        <time>2020-07-17T04:57:34Z</time>
      </trkpt>
      <trkpt lat="37.7428770" lon="-3.6913280">
        <ele>575.2</ele>
        <time>2020-07-17T04:57:36Z</time>
      </trkpt>
      <trkpt lat="37.7428810" lon="-3.6914110">
        <ele>575.4</ele>
        <time>2020-07-17T04:57:38Z</time>
      </trkpt>
      <trkpt lat="37.7429070" lon="-3.6917040">
        <ele>576.0</ele>
        <time>2020-07-17T04:57:45Z</time>
      </trkpt>
      <trkpt lat="37.7429410" lon="-3.6919040">
        <ele>576.2</ele>
        <time>2020-07-17T04:57:50Z</time>
      </trkpt>
      <trkpt lat="37.7429100" lon="-3.6920080">
        <ele>576.2</ele>
        <time>2020-07-17T04:57:53Z</time>
      </trkpt>
      <trkpt lat="37.7429060" lon="-3.6920560">
        <ele>576.2</ele>
        <time>2020-07-17T04:57:54Z</time>
      </trkpt>
      <trkpt lat="37.7429280" lon="-3.6921610">
        <ele>576.4</ele>
        <time>2020-07-17T04:57:56Z</time>
      </trkpt>
      <trkpt lat="37.7429690" lon="-3.6923100">
        <ele>576.2</ele>
        <time>2020-07-17T04:57:58Z</time>
      </trkpt>
      <trkpt lat="37.7430630" lon="-3.6925300">
        <ele>575.0</ele>
        <time>2020-07-17T04:58:01Z</time>
      </trkpt>
      <trkpt lat="37.7431060" lon="-3.6925940">
        <ele>574.2</ele>
        <time>2020-07-17T04:58:02Z</time>
      </trkpt>
      <trkpt lat="37.7431580" lon="-3.6926440">
        <ele>573.4</ele>
        <time>2020-07-17T04:58:03Z</time>
      </trkpt>
      <trkpt lat="37.7432180" lon="-3.6926890">
        <ele>572.8</ele>
        <time>2020-07-17T04:58:04Z</time>
      </trkpt>
      <trkpt lat="37.7432690" lon="-3.6927310">
        <ele>572.2</ele>
        <time>2020-07-17T04:58:05Z</time>
      </trkpt>
      <trkpt lat="37.7433250" lon="-3.6927890">
        <ele>571.4</ele>
        <time>2020-07-17T04:58:06Z</time>
      </trkpt>
      <trkpt lat="37.7433800" lon="-3.6928290">
        <ele>571.0</ele>
        <time>2020-07-17T04:58:07Z</time>
      </trkpt>
      <trkpt lat="37.7433980" lon="-3.6928480">
        <ele>570.4</ele>
        <time>2020-07-17T04:58:08Z</time>
      </trkpt>
      <trkpt lat="37.7434070" lon="-3.6928610">
        <ele>570.2</ele>
        <time>2020-07-17T04:58:09Z</time>
      </trkpt>
      <trkpt lat="37.7434570" lon="-3.6929450">
        <ele>570.4</ele>
        <time>2020-07-17T04:58:14Z</time>
      </trkpt>
      <trkpt lat="37.7435020" lon="-3.6930100">
        <ele>570.8</ele>
        <time>2020-07-17T04:58:17Z</time>
      </trkpt>
      <trkpt lat="37.7435500" lon="-3.6930780">
        <ele>571.4</ele>
        <time>2020-07-17T04:58:20Z</time>
      </trkpt>
      <trkpt lat="37.7435620" lon="-3.6931030">
        <ele>571.6</ele>
        <time>2020-07-17T04:58:21Z</time>
      </trkpt>
      <trkpt lat="37.7436200" lon="-3.6931940">
        <ele>572.8</ele>
        <time>2020-07-17T04:58:25Z</time>
      </trkpt>
      <trkpt lat="37.7436560" lon="-3.6932630">
        <ele>573.6</ele>
        <time>2020-07-17T04:58:28Z</time>
      </trkpt>
      <trkpt lat="37.7436740" lon="-3.6932820">
        <ele>573.8</ele>
        <time>2020-07-17T04:58:29Z</time>
      </trkpt>
      <trkpt lat="37.7437410" lon="-3.6933530">
        <ele>574.6</ele>
        <time>2020-07-17T04:58:33Z</time>
      </trkpt>
      <trkpt lat="37.7437590" lon="-3.6933750">
        <ele>574.8</ele>
        <time>2020-07-17T04:58:34Z</time>
      </trkpt>
      <trkpt lat="37.7438050" lon="-3.6934380">
        <ele>575.6</ele>
        <time>2020-07-17T04:58:37Z</time>
      </trkpt>
      <trkpt lat="37.7438160" lon="-3.6934700">
        <ele>575.8</ele>
        <time>2020-07-17T04:58:38Z</time>
      </trkpt>
      <trkpt lat="37.7438250" lon="-3.6935050">
        <ele>576.0</ele>
        <time>2020-07-17T04:58:39Z</time>
      </trkpt>
      <trkpt lat="37.7438910" lon="-3.6937660">
        <ele>576.8</ele>
        <time>2020-07-17T04:58:44Z</time>
      </trkpt>
      <trkpt lat="37.7439130" lon="-3.6938260">
        <ele>576.6</ele>
        <time>2020-07-17T04:58:45Z</time>
      </trkpt>
      <trkpt lat="37.7440310" lon="-3.6940350">
        <ele>576.2</ele>
        <time>2020-07-17T04:58:49Z</time>
      </trkpt>
      <trkpt lat="37.7441400" lon="-3.6942310">
        <ele>575.8</ele>
        <time>2020-07-17T04:58:53Z</time>
      </trkpt>
      <trkpt lat="37.7441960" lon="-3.6943310">
        <ele>575.8</ele>
        <time>2020-07-17T04:58:55Z</time>
      </trkpt>
      <trkpt lat="37.7443700" lon="-3.6946480">
        <ele>575.4</ele>
        <time>2020-07-17T04:59:01Z</time>
      </trkpt>
      <trkpt lat="37.7444580" lon="-3.6947980">
        <ele>575.4</ele>
        <time>2020-07-17T04:59:04Z</time>
      </trkpt>
      <trkpt lat="37.7445420" lon="-3.6949350">
        <ele>575.4</ele>
        <time>2020-07-17T04:59:07Z</time>
      </trkpt>
      <trkpt lat="37.7446290" lon="-3.6950470">
        <ele>575.8</ele>
        <time>2020-07-17T04:59:10Z</time>
      </trkpt>
      <trkpt lat="37.7447170" lon="-3.6951300">
        <ele>576.2</ele>
        <time>2020-07-17T04:59:13Z</time>
      </trkpt>
      <trkpt lat="37.7448290" lon="-3.6952080">
        <ele>577.0</ele>
        <time>2020-07-17T04:59:17Z</time>
      </trkpt>
      <trkpt lat="37.7448540" lon="-3.6952200">
        <ele>577.2</ele>
        <time>2020-07-17T04:59:18Z</time>
      </trkpt>
      <trkpt lat="37.7448820" lon="-3.6952380">
        <ele>577.4</ele>
        <time>2020-07-17T04:59:19Z</time>
      </trkpt>
      <trkpt lat="37.7449690" lon="-3.6952740">
        <ele>578.4</ele>
        <time>2020-07-17T04:59:22Z</time>
      </trkpt>
      <trkpt lat="37.7450470" lon="-3.6953010">
        <ele>579.2</ele>
        <time>2020-07-17T04:59:25Z</time>
      </trkpt>
      <trkpt lat="37.7450760" lon="-3.6953090">
        <ele>579.6</ele>
        <time>2020-07-17T04:59:26Z</time>
      </trkpt>
      <trkpt lat="37.7452150" lon="-3.6953630">
        <ele>580.4</ele>
        <time>2020-07-17T04:59:31Z</time>
      </trkpt>
      <trkpt lat="37.7452440" lon="-3.6953700">
        <ele>580.8</ele>
        <time>2020-07-17T04:59:32Z</time>
      </trkpt>
      <trkpt lat="37.7453930" lon="-3.6954210">
        <ele>581.6</ele>
        <time>2020-07-17T04:59:37Z</time>
      </trkpt>
      <trkpt lat="37.7454250" lon="-3.6954340">
        <ele>581.8</ele>
        <time>2020-07-17T04:59:38Z</time>
      </trkpt>
      <trkpt lat="37.7454850" lon="-3.6954560">
        <ele>582.2</ele>
        <time>2020-07-17T04:59:40Z</time>
      </trkpt>
      <trkpt lat="37.7455990" lon="-3.6954920">
        <ele>583.0</ele>
        <time>2020-07-17T04:59:44Z</time>
      </trkpt>
      <trkpt lat="37.7457440" lon="-3.6955370">
        <ele>584.0</ele>
        <time>2020-07-17T04:59:49Z</time>
      </trkpt>
      <trkpt lat="37.7457720" lon="-3.6955470">
        <ele>584.2</ele>
        <time>2020-07-17T04:59:50Z</time>
      </trkpt>
      <trkpt lat="37.7459190" lon="-3.6955920">
        <ele>585.0</ele>
        <time>2020-07-17T04:59:55Z</time>
      </trkpt>
      <trkpt lat="37.7460700" lon="-3.6956500">
        <ele>585.8</ele>
        <time>2020-07-17T05:00:00Z</time>
      </trkpt>
      <trkpt lat="37.7461000" lon="-3.6956670">
        <ele>586.0</ele>
        <time>2020-07-17T05:00:01Z</time>
      </trkpt>
      <trkpt lat="37.7462520" lon="-3.6957380">
        <ele>586.2</ele>
        <time>2020-07-17T05:00:05Z</time>
      </trkpt>
      <trkpt lat="37.7462910" lon="-3.6957670">
        <ele>586.2</ele>
        <time>2020-07-17T05:00:06Z</time>
      </trkpt>
      <trkpt lat="37.7465130" lon="-3.6959410">
        <ele>586.4</ele>
        <time>2020-07-17T05:00:11Z</time>
      </trkpt>
      <trkpt lat="37.7465690" lon="-3.6959940">
        <ele>586.4</ele>
        <time>2020-07-17T05:00:12Z</time>
      </trkpt>
      <trkpt lat="37.7467280" lon="-3.6961780">
        <ele>585.6</ele>
        <time>2020-07-17T05:00:15Z</time>
      </trkpt>
      <trkpt lat="37.7468230" lon="-3.6963280">
        <ele>585.0</ele>
        <time>2020-07-17T05:00:17Z</time>
      </trkpt>
      <trkpt lat="37.7469370" lon="-3.6965220">
        <ele>584.2</ele>
        <time>2020-07-17T05:00:19Z</time>
      </trkpt>
      <trkpt lat="37.7469980" lon="-3.6966200">
        <ele>583.6</ele>
        <time>2020-07-17T05:00:20Z</time>
      </trkpt>
      <trkpt lat="37.7471210" lon="-3.6968120">
        <ele>582.8</ele>
        <time>2020-07-17T05:00:22Z</time>
      </trkpt>
      <trkpt lat="37.7471830" lon="-3.6969090">
        <ele>582.2</ele>
        <time>2020-07-17T05:00:23Z</time>
      </trkpt>
      <trkpt lat="37.7472490" lon="-3.6970140">
        <ele>581.8</ele>
        <time>2020-07-17T05:00:24Z</time>
      </trkpt>
      <trkpt lat="37.7473650" lon="-3.6972010">
        <ele>581.0</ele>
        <time>2020-07-17T05:00:26Z</time>
      </trkpt>
      <trkpt lat="37.7474820" lon="-3.6973800">
        <ele>580.6</ele>
        <time>2020-07-17T05:00:28Z</time>
      </trkpt>
      <trkpt lat="37.7475340" lon="-3.6974580">
        <ele>580.6</ele>
        <time>2020-07-17T05:00:29Z</time>
      </trkpt>
      <trkpt lat="37.7476890" lon="-3.6977000">
        <ele>580.8</ele>
        <time>2020-07-17T05:00:32Z</time>
      </trkpt>
      <trkpt lat="37.7478240" lon="-3.6979170">
        <ele>581.0</ele>
        <time>2020-07-17T05:00:35Z</time>
      </trkpt>
      <trkpt lat="37.7480380" lon="-3.6982510">
        <ele>581.2</ele>
        <time>2020-07-17T05:00:40Z</time>
      </trkpt>
      <trkpt lat="37.7481190" lon="-3.6983780">
        <ele>581.4</ele>
        <time>2020-07-17T05:00:42Z</time>
      </trkpt>
      <trkpt lat="37.7485110" lon="-3.6988840">
        <ele>581.8</ele>
        <time>2020-07-17T05:00:51Z</time>
      </trkpt>
      <trkpt lat="37.7486070" lon="-3.6989740">
        <ele>582.0</ele>
        <time>2020-07-17T05:00:53Z</time>
      </trkpt>
      <trkpt lat="37.7488050" lon="-3.6991450">
        <ele>582.8</ele>
        <time>2020-07-17T05:00:57Z</time>
      </trkpt>
      <trkpt lat="37.7489960" lon="-3.6993060">
        <ele>583.0</ele>
        <time>2020-07-17T05:01:01Z</time>
      </trkpt>
      <trkpt lat="37.7491870" lon="-3.6994550">
        <ele>583.2</ele>
        <time>2020-07-17T05:01:05Z</time>
      </trkpt>
      <trkpt lat="37.7494640" lon="-3.6996850">
        <ele>584.0</ele>
        <time>2020-07-17T05:01:11Z</time>
      </trkpt>
      <trkpt lat="37.7495110" lon="-3.6997300">
        <ele>584.4</ele>
        <time>2020-07-17T05:01:12Z</time>
      </trkpt>
      <trkpt lat="37.7496730" lon="-3.6999030">
        <ele>585.0</ele>
        <time>2020-07-17T05:01:16Z</time>
      </trkpt>
      <trkpt lat="37.7497410" lon="-3.6999940">
        <ele>585.4</ele>
        <time>2020-07-17T05:01:18Z</time>
      </trkpt>
      <trkpt lat="37.7498230" lon="-3.7001240">
        <ele>586.4</ele>
        <time>2020-07-17T05:01:21Z</time>
      </trkpt>
      <trkpt lat="37.7498460" lon="-3.7001680">
        <ele>586.8</ele>
        <time>2020-07-17T05:01:22Z</time>
      </trkpt>
      <trkpt lat="37.7499000" lon="-3.7002940">
        <ele>587.6</ele>
        <time>2020-07-17T05:01:25Z</time>
      </trkpt>
      <trkpt lat="37.7499150" lon="-3.7003330">
        <ele>588.0</ele>
        <time>2020-07-17T05:01:26Z</time>
      </trkpt>
      <trkpt lat="37.7499770" lon="-3.7004900">
        <ele>589.0</ele>
        <time>2020-07-17T05:01:30Z</time>
      </trkpt>
      <trkpt lat="37.7500140" lon="-3.7005970">
        <ele>589.8</ele>
        <time>2020-07-17T05:01:33Z</time>
      </trkpt>
      <trkpt lat="37.7500230" lon="-3.7006370">
        <ele>590.4</ele>
        <time>2020-07-17T05:01:34Z</time>
      </trkpt>
      <trkpt lat="37.7500470" lon="-3.7007860">
        <ele>591.6</ele>
        <time>2020-07-17T05:01:38Z</time>
      </trkpt>
      <trkpt lat="37.7500590" lon="-3.7008930">
        <ele>592.4</ele>
        <time>2020-07-17T05:01:41Z</time>
      </trkpt>
      <trkpt lat="37.7500630" lon="-3.7009320">
        <ele>592.6</ele>
        <time>2020-07-17T05:01:42Z</time>
      </trkpt>
      <trkpt lat="37.7500710" lon="-3.7010860">
        <ele>593.4</ele>
        <time>2020-07-17T05:01:46Z</time>
      </trkpt>
      <trkpt lat="37.7500720" lon="-3.7011250">
        <ele>593.6</ele>
        <time>2020-07-17T05:01:47Z</time>
      </trkpt>
      <trkpt lat="37.7500780" lon="-3.7013020">
        <ele>594.6</ele>
        <time>2020-07-17T05:01:51Z</time>
      </trkpt>
      <trkpt lat="37.7500810" lon="-3.7013470">
        <ele>594.8</ele>
        <time>2020-07-17T05:01:52Z</time>
      </trkpt>
      <trkpt lat="37.7500840" lon="-3.7017700">
        <ele>595.6</ele>
        <time>2020-07-17T05:02:01Z</time>
      </trkpt>
      <trkpt lat="37.7500860" lon="-3.7019370">
        <ele>595.8</ele>
        <time>2020-07-17T05:02:04Z</time>
      </trkpt>
      <trkpt lat="37.7501150" lon="-3.7022570">
        <ele>595.8</ele>
        <time>2020-07-17T05:02:09Z</time>
      </trkpt>
      <trkpt lat="37.7501920" lon="-3.7025590">
        <ele>595.4</ele>
        <time>2020-07-17T05:02:13Z</time>
      </trkpt>
      <trkpt lat="37.7502170" lon="-3.7026390">
        <ele>595.2</ele>
        <time>2020-07-17T05:02:14Z</time>
      </trkpt>
      <trkpt lat="37.7502760" lon="-3.7027990">
        <ele>594.6</ele>
        <time>2020-07-17T05:02:16Z</time>
      </trkpt>
      <trkpt lat="37.7504410" lon="-3.7031300">
        <ele>593.6</ele>
        <time>2020-07-17T05:02:20Z</time>
      </trkpt>
      <trkpt lat="37.7504880" lon="-3.7032050">
        <ele>593.6</ele>
        <time>2020-07-17T05:02:21Z</time>
      </trkpt>
      <trkpt lat="37.7506690" lon="-3.7034310">
        <ele>593.0</ele>
        <time>2020-07-17T05:02:24Z</time>
      </trkpt>
      <trkpt lat="37.7507360" lon="-3.7035000">
        <ele>592.8</ele>
        <time>2020-07-17T05:02:25Z</time>
      </trkpt>
      <trkpt lat="37.7508020" lon="-3.7035630">
        <ele>592.4</ele>
        <time>2020-07-17T05:02:26Z</time>
      </trkpt>
      <trkpt lat="37.7510270" lon="-3.7037360">
        <ele>591.8</ele>
        <time>2020-07-17T05:02:29Z</time>
      </trkpt>
      <trkpt lat="37.7511120" lon="-3.7037870">
        <ele>591.6</ele>
        <time>2020-07-17T05:02:30Z</time>
      </trkpt>
      <trkpt lat="37.7511900" lon="-3.7038280">
        <ele>591.4</ele>
        <time>2020-07-17T05:02:31Z</time>
      </trkpt>
      <trkpt lat="37.7515270" lon="-3.7039540">
        <ele>591.0</ele>
        <time>2020-07-17T05:02:35Z</time>
      </trkpt>
      <trkpt lat="37.7516950" lon="-3.7040130">
        <ele>590.8</ele>
        <time>2020-07-17T05:02:37Z</time>
      </trkpt>
      <trkpt lat="37.7519320" lon="-3.7041340">
        <ele>590.4</ele>
        <time>2020-07-17T05:02:40Z</time>
      </trkpt>
      <trkpt lat="37.7520680" lon="-3.7042370">
        <ele>590.0</ele>
        <time>2020-07-17T05:02:42Z</time>
      </trkpt>
      <trkpt lat="37.7522510" lon="-3.7044210">
        <ele>589.6</ele>
        <time>2020-07-17T05:02:45Z</time>
      </trkpt>
      <trkpt lat="37.7523030" lon="-3.7044820">
        <ele>589.6</ele>
        <time>2020-07-17T05:02:46Z</time>
      </trkpt>
      <trkpt lat="37.7523410" lon="-3.7045290">
        <ele>589.4</ele>
        <time>2020-07-17T05:02:47Z</time>
      </trkpt>
      <trkpt lat="37.7524090" lon="-3.7046100">
        <ele>589.2</ele>
        <time>2020-07-17T05:02:48Z</time>
      </trkpt>
      <trkpt lat="37.7526460" lon="-3.7049340">
        <ele>588.2</ele>
        <time>2020-07-17T05:02:53Z</time>
      </trkpt>
      <trkpt lat="37.7526940" lon="-3.7050090">
        <ele>588.2</ele>
        <time>2020-07-17T05:02:54Z</time>
      </trkpt>
      <trkpt lat="37.7529210" lon="-3.7054260">
        <ele>588.0</ele>
        <time>2020-07-17T05:02:59Z</time>
      </trkpt>
      <trkpt lat="37.7531320" lon="-3.7058560">
        <ele>586.8</ele>
        <time>2020-07-17T05:03:03Z</time>
      </trkpt>
      <trkpt lat="37.7531880" lon="-3.7059770">
        <ele>586.0</ele>
        <time>2020-07-17T05:03:04Z</time>
      </trkpt>
      <trkpt lat="37.7532420" lon="-3.7061000">
        <ele>585.0</ele>
        <time>2020-07-17T05:03:05Z</time>
      </trkpt>
      <trkpt lat="37.7533620" lon="-3.7063770">
        <ele>583.2</ele>
        <time>2020-07-17T05:03:07Z</time>
      </trkpt>
      <trkpt lat="37.7534760" lon="-3.7066550">
        <ele>581.4</ele>
        <time>2020-07-17T05:03:09Z</time>
      </trkpt>
      <trkpt lat="37.7536450" lon="-3.7070570">
        <ele>580.0</ele>
        <time>2020-07-17T05:03:12Z</time>
      </trkpt>
      <trkpt lat="37.7537770" lon="-3.7073390">
        <ele>579.0</ele>
        <time>2020-07-17T05:03:14Z</time>
      </trkpt>
      <trkpt lat="37.7538940" lon="-3.7076010">
        <ele>578.0</ele>
        <time>2020-07-17T05:03:16Z</time>
      </trkpt>
      <trkpt lat="37.7539520" lon="-3.7077260">
        <ele>577.4</ele>
        <time>2020-07-17T05:03:17Z</time>
      </trkpt>
      <trkpt lat="37.7541210" lon="-3.7081000">
        <ele>576.8</ele>
        <time>2020-07-17T05:03:20Z</time>
      </trkpt>
      <trkpt lat="37.7542100" lon="-3.7083240">
        <ele>576.6</ele>
        <time>2020-07-17T05:03:22Z</time>
      </trkpt>
      <trkpt lat="37.7543540" lon="-3.7088780">
        <ele>577.0</ele>
        <time>2020-07-17T05:03:27Z</time>
      </trkpt>
      <trkpt lat="37.7543750" lon="-3.7089810">
        <ele>577.2</ele>
        <time>2020-07-17T05:03:28Z</time>
      </trkpt>
      <trkpt lat="37.7544260" lon="-3.7093590">
        <ele>577.8</ele>
        <time>2020-07-17T05:03:32Z</time>
      </trkpt>
      <trkpt lat="37.7544420" lon="-3.7094490">
        <ele>578.0</ele>
        <time>2020-07-17T05:03:33Z</time>
      </trkpt>
      <trkpt lat="37.7544760" lon="-3.7096920">
        <ele>578.4</ele>
        <time>2020-07-17T05:03:36Z</time>
      </trkpt>
      <trkpt lat="37.7545020" lon="-3.7098550">
        <ele>579.0</ele>
        <time>2020-07-17T05:03:38Z</time>
      </trkpt>
      <trkpt lat="37.7545350" lon="-3.7100820">
        <ele>579.6</ele>
        <time>2020-07-17T05:03:41Z</time>
      </trkpt>
      <trkpt lat="37.7545790" lon="-3.7103320">
        <ele>580.0</ele>
        <time>2020-07-17T05:03:44Z</time>
      </trkpt>
      <trkpt lat="37.7546570" lon="-3.7106630">
        <ele>580.0</ele>
        <time>2020-07-17T05:03:48Z</time>
      </trkpt>
      <trkpt lat="37.7547560" lon="-3.7108950">
        <ele>579.6</ele>
        <time>2020-07-17T05:03:51Z</time>
      </trkpt>
      <trkpt lat="37.7548650" lon="-3.7110400">
        <ele>579.0</ele>
        <time>2020-07-17T05:03:53Z</time>
      </trkpt>
      <trkpt lat="37.7549270" lon="-3.7111170">
        <ele>578.6</ele>
        <time>2020-07-17T05:03:54Z</time>
      </trkpt>
      <trkpt lat="37.7551330" lon="-3.7113170">
        <ele>577.2</ele>
        <time>2020-07-17T05:03:57Z</time>
      </trkpt>
      <trkpt lat="37.7552060" lon="-3.7113740">
        <ele>576.4</ele>
        <time>2020-07-17T05:03:58Z</time>
      </trkpt>
      <trkpt lat="37.7552800" lon="-3.7114230">
        <ele>576.0</ele>
        <time>2020-07-17T05:03:59Z</time>
      </trkpt>
      <trkpt lat="37.7554450" lon="-3.7115120">
        <ele>575.0</ele>
        <time>2020-07-17T05:04:01Z</time>
      </trkpt>
      <trkpt lat="37.7556200" lon="-3.7116030">
        <ele>573.8</ele>
        <time>2020-07-17T05:04:03Z</time>
      </trkpt>
      <trkpt lat="37.7557840" lon="-3.7116970">
        <ele>572.6</ele>
        <time>2020-07-17T05:04:05Z</time>
      </trkpt>
      <trkpt lat="37.7559710" lon="-3.7117880">
        <ele>571.2</ele>
        <time>2020-07-17T05:04:07Z</time>
      </trkpt>
      <trkpt lat="37.7560680" lon="-3.7118360">
        <ele>570.2</ele>
        <time>2020-07-17T05:04:08Z</time>
      </trkpt>
      <trkpt lat="37.7561680" lon="-3.7118860">
        <ele>569.0</ele>
        <time>2020-07-17T05:04:09Z</time>
      </trkpt>
      <trkpt lat="37.7562730" lon="-3.7119380">
        <ele>567.8</ele>
        <time>2020-07-17T05:04:10Z</time>
      </trkpt>
      <trkpt lat="37.7564860" lon="-3.7120460">
        <ele>566.0</ele>
        <time>2020-07-17T05:04:12Z</time>
      </trkpt>
      <trkpt lat="37.7566000" lon="-3.7121130">
        <ele>565.0</ele>
        <time>2020-07-17T05:04:13Z</time>
      </trkpt>
      <trkpt lat="37.7567150" lon="-3.7121900">
        <ele>564.0</ele>
        <time>2020-07-17T05:04:14Z</time>
      </trkpt>
      <trkpt lat="37.7569230" lon="-3.7123780">
        <ele>561.8</ele>
        <time>2020-07-17T05:04:16Z</time>
      </trkpt>
      <trkpt lat="37.7570190" lon="-3.7124900">
        <ele>560.6</ele>
        <time>2020-07-17T05:04:17Z</time>
      </trkpt>
      <trkpt lat="37.7571090" lon="-3.7126200">
        <ele>559.6</ele>
        <time>2020-07-17T05:04:18Z</time>
      </trkpt>
      <trkpt lat="37.7571800" lon="-3.7127410">
        <ele>558.4</ele>
        <time>2020-07-17T05:04:19Z</time>
      </trkpt>
      <trkpt lat="37.7572480" lon="-3.7128840">
        <ele>557.2</ele>
        <time>2020-07-17T05:04:20Z</time>
      </trkpt>
      <trkpt lat="37.7573000" lon="-3.7130260">
        <ele>556.0</ele>
        <time>2020-07-17T05:04:21Z</time>
      </trkpt>
      <trkpt lat="37.7573470" lon="-3.7131860">
        <ele>554.8</ele>
        <time>2020-07-17T05:04:22Z</time>
      </trkpt>
      <trkpt lat="37.7573850" lon="-3.7133520">
        <ele>553.4</ele>
        <time>2020-07-17T05:04:23Z</time>
      </trkpt>
      <trkpt lat="37.7574220" lon="-3.7135260">
        <ele>552.2</ele>
        <time>2020-07-17T05:04:24Z</time>
      </trkpt>
      <trkpt lat="37.7574570" lon="-3.7136900">
        <ele>550.8</ele>
        <time>2020-07-17T05:04:25Z</time>
      </trkpt>
      <trkpt lat="37.7575290" lon="-3.7140190">
        <ele>548.4</ele>
        <time>2020-07-17T05:04:27Z</time>
      </trkpt>
      <trkpt lat="37.7575650" lon="-3.7141840">
        <ele>546.4</ele>
        <time>2020-07-17T05:04:28Z</time>
      </trkpt>
      <trkpt lat="37.7576620" lon="-3.7146380">
        <ele>545.2</ele>
        <time>2020-07-17T05:04:31Z</time>
      </trkpt>
      <trkpt lat="37.7576950" lon="-3.7147940">
        <ele>543.8</ele>
        <time>2020-07-17T05:04:32Z</time>
      </trkpt>
      <trkpt lat="37.7577250" lon="-3.7149360">
        <ele>542.4</ele>
        <time>2020-07-17T05:04:33Z</time>
      </trkpt>
      <trkpt lat="37.7577550" lon="-3.7150700">
        <ele>541.0</ele>
        <time>2020-07-17T05:04:34Z</time>
      </trkpt>
      <trkpt lat="37.7577830" lon="-3.7151910">
        <ele>539.8</ele>
        <time>2020-07-17T05:04:35Z</time>
      </trkpt>
      <trkpt lat="37.7578130" lon="-3.7153240">
        <ele>538.6</ele>
        <time>2020-07-17T05:04:36Z</time>
      </trkpt>
      <trkpt lat="37.7578410" lon="-3.7154550">
        <ele>537.4</ele>
        <time>2020-07-17T05:04:37Z</time>
      </trkpt>
      <trkpt lat="37.7578650" lon="-3.7155720">
        <ele>536.2</ele>
        <time>2020-07-17T05:04:38Z</time>
      </trkpt>
      <trkpt lat="37.7578900" lon="-3.7156740">
        <ele>535.2</ele>
        <time>2020-07-17T05:04:39Z</time>
      </trkpt>
      <trkpt lat="37.7579330" lon="-3.7158630">
        <ele>533.6</ele>
        <time>2020-07-17T05:04:41Z</time>
      </trkpt>
      <trkpt lat="37.7579880" lon="-3.7161080">
        <ele>532.2</ele>
        <time>2020-07-17T05:04:43Z</time>
      </trkpt>
      <trkpt lat="37.7580130" lon="-3.7162230">
        <ele>531.0</ele>
        <time>2020-07-17T05:04:44Z</time>
      </trkpt>
      <trkpt lat="37.7580880" lon="-3.7165800">
        <ele>529.8</ele>
        <time>2020-07-17T05:04:47Z</time>
      </trkpt>
      <trkpt lat="37.7581140" lon="-3.7167110">
        <ele>529.2</ele>
        <time>2020-07-17T05:04:48Z</time>
      </trkpt>
      <trkpt lat="37.7581680" lon="-3.7169540">
        <ele>528.6</ele>
        <time>2020-07-17T05:04:50Z</time>
      </trkpt>
      <trkpt lat="37.7582170" lon="-3.7171780">
        <ele>527.6</ele>
        <time>2020-07-17T05:04:52Z</time>
      </trkpt>
      <trkpt lat="37.7582590" lon="-3.7173680">
        <ele>526.6</ele>
        <time>2020-07-17T05:04:54Z</time>
      </trkpt>
      <trkpt lat="37.7583230" lon="-3.7176390">
        <ele>525.6</ele>
        <time>2020-07-17T05:04:58Z</time>
      </trkpt>
      <trkpt lat="37.7583340" lon="-3.7176910">
        <ele>525.4</ele>
        <time>2020-07-17T05:04:59Z</time>
      </trkpt>
      <trkpt lat="37.7583680" lon="-3.7178540">
        <ele>525.0</ele>
        <time>2020-07-17T05:05:03Z</time>
      </trkpt>
      <trkpt lat="37.7583700" lon="-3.7178730">
        <ele>524.6</ele>
        <time>2020-07-17T05:05:06Z</time>
      </trkpt>
      <trkpt lat="37.7583730" lon="-3.7178800">
        <ele>517.2</ele>
        <time>2020-07-17T05:06:09Z</time>
      </trkpt>
      <trkpt lat="37.7583830" lon="-3.7179510">
        <ele>517.2</ele>
        <time>2020-07-17T05:06:12Z</time>
      </trkpt>
      <trkpt lat="37.7584040" lon="-3.7180710">
        <ele>517.2</ele>
        <time>2020-07-17T05:06:15Z</time>
      </trkpt>
      <trkpt lat="37.7584250" lon="-3.7181670">
        <ele>517.2</ele>
        <time>2020-07-17T05:06:17Z</time>
      </trkpt>
      <trkpt lat="37.7585180" lon="-3.7186120">
        <ele>516.6</ele>
        <time>2020-07-17T05:06:24Z</time>
      </trkpt>
      <trkpt lat="37.7585410" lon="-3.7188300">
        <ele>516.2</ele>
        <time>2020-07-17T05:06:27Z</time>
      </trkpt>
      <trkpt lat="37.7585400" lon="-3.7189100">
        <ele>516.2</ele>
        <time>2020-07-17T05:06:28Z</time>
      </trkpt>
      <trkpt lat="37.7585200" lon="-3.7190610">
        <ele>516.0</ele>
        <time>2020-07-17T05:06:30Z</time>
      </trkpt>
      <trkpt lat="37.7584050" lon="-3.7193470">
        <ele>515.8</ele>
        <time>2020-07-17T05:06:34Z</time>
      </trkpt>
      <trkpt lat="37.7583680" lon="-3.7194110">
        <ele>515.6</ele>
        <time>2020-07-17T05:06:35Z</time>
      </trkpt>
      <trkpt lat="37.7582430" lon="-3.7196160">
        <ele>515.2</ele>
        <time>2020-07-17T05:06:38Z</time>
      </trkpt>
      <trkpt lat="37.7581690" lon="-3.7197630">
        <ele>515.0</ele>
        <time>2020-07-17T05:06:40Z</time>
      </trkpt>
      <trkpt lat="37.7581160" lon="-3.7199270">
        <ele>514.2</ele>
        <time>2020-07-17T05:06:42Z</time>
      </trkpt>
      <trkpt lat="37.7581010" lon="-3.7200160">
        <ele>514.0</ele>
        <time>2020-07-17T05:06:43Z</time>
      </trkpt>
      <trkpt lat="37.7580920" lon="-3.7201090">
        <ele>513.8</ele>
        <time>2020-07-17T05:06:44Z</time>
      </trkpt>
      <trkpt lat="37.7580850" lon="-3.7202990">
        <ele>513.2</ele>
        <time>2020-07-17T05:06:46Z</time>
      </trkpt>
      <trkpt lat="37.7580880" lon="-3.7205130">
        <ele>512.6</ele>
        <time>2020-07-17T05:06:48Z</time>
      </trkpt>
      <trkpt lat="37.7580960" lon="-3.7206180">
        <ele>512.4</ele>
        <time>2020-07-17T05:06:49Z</time>
      </trkpt>
      <trkpt lat="37.7581220" lon="-3.7208260">
        <ele>511.6</ele>
        <time>2020-07-17T05:06:51Z</time>
      </trkpt>
      <trkpt lat="37.7581500" lon="-3.7209390">
        <ele>511.2</ele>
        <time>2020-07-17T05:06:52Z</time>
      </trkpt>
      <trkpt lat="37.7582220" lon="-3.7211520">
        <ele>510.4</ele>
        <time>2020-07-17T05:06:54Z</time>
      </trkpt>
      <trkpt lat="37.7583510" lon="-3.7214720">
        <ele>509.2</ele>
        <time>2020-07-17T05:06:57Z</time>
      </trkpt>
      <trkpt lat="37.7584460" lon="-3.7218010">
        <ele>508.2</ele>
        <time>2020-07-17T05:07:00Z</time>
      </trkpt>
      <trkpt lat="37.7585390" lon="-3.7222360">
        <ele>506.8</ele>
        <time>2020-07-17T05:07:04Z</time>
      </trkpt>
      <trkpt lat="37.7585980" lon="-3.7225310">
        <ele>506.0</ele>
        <time>2020-07-17T05:07:07Z</time>
      </trkpt>
      <trkpt lat="37.7586820" lon="-3.7229970">
        <ele>506.0</ele>
        <time>2020-07-17T05:07:12Z</time>
      </trkpt>
      <trkpt lat="37.7587100" lon="-3.7231670">
        <ele>506.2</ele>
        <time>2020-07-17T05:07:14Z</time>
      </trkpt>
      <trkpt lat="37.7587250" lon="-3.7235590">
        <ele>506.2</ele>
        <time>2020-07-17T05:07:19Z</time>
      </trkpt>
      <trkpt lat="37.7587150" lon="-3.7236340">
        <ele>506.2</ele>
        <time>2020-07-17T05:07:20Z</time>
      </trkpt>
      <trkpt lat="37.7586070" lon="-3.7240680">
        <ele>506.0</ele>
        <time>2020-07-17T05:07:26Z</time>
      </trkpt>
      <trkpt lat="37.7585620" lon="-3.7242250">
        <ele>505.6</ele>
        <time>2020-07-17T05:07:28Z</time>
      </trkpt>
      <trkpt lat="37.7584980" lon="-3.7244660">
        <ele>505.2</ele>
        <time>2020-07-17T05:07:31Z</time>
      </trkpt>
      <trkpt lat="37.7584650" lon="-3.7246510">
        <ele>505.0</ele>
        <time>2020-07-17T05:07:33Z</time>
      </trkpt>
      <trkpt lat="37.7584450" lon="-3.7248370">
        <ele>505.0</ele>
        <time>2020-07-17T05:07:35Z</time>
      </trkpt>
      <trkpt lat="37.7584410" lon="-3.7250430">
        <ele>504.6</ele>
        <time>2020-07-17T05:07:37Z</time>
      </trkpt>
      <trkpt lat="37.7584410" lon="-3.7251400">
        <ele>504.6</ele>
        <time>2020-07-17T05:07:38Z</time>
      </trkpt>
      <trkpt lat="37.7584240" lon="-3.7257310">
        <ele>504.0</ele>
        <time>2020-07-17T05:07:44Z</time>
      </trkpt>
      <trkpt lat="37.7584190" lon="-3.7259230">
        <ele>503.8</ele>
        <time>2020-07-17T05:07:46Z</time>
      </trkpt>
      <trkpt lat="37.7584170" lon="-3.7260210">
        <ele>503.4</ele>
        <time>2020-07-17T05:07:47Z</time>
      </trkpt>
      <trkpt lat="37.7583920" lon="-3.7267390">
        <ele>502.4</ele>
        <time>2020-07-17T05:07:54Z</time>
      </trkpt>
      <trkpt lat="37.7583790" lon="-3.7268390">
        <ele>502.2</ele>
        <time>2020-07-17T05:07:55Z</time>
      </trkpt>
      <trkpt lat="37.7582780" lon="-3.7272240">
        <ele>501.4</ele>
        <time>2020-07-17T05:07:59Z</time>
      </trkpt>
      <trkpt lat="37.7582420" lon="-3.7273250">
        <ele>501.0</ele>
        <time>2020-07-17T05:08:00Z</time>
      </trkpt>
      <trkpt lat="37.7581760" lon="-3.7275220">
        <ele>500.6</ele>
        <time>2020-07-17T05:08:02Z</time>
      </trkpt>
      <trkpt lat="37.7581440" lon="-3.7276250">
        <ele>500.2</ele>
        <time>2020-07-17T05:08:03Z</time>
      </trkpt>
      <trkpt lat="37.7581030" lon="-3.7278390">
        <ele>499.6</ele>
        <time>2020-07-17T05:08:05Z</time>
      </trkpt>
      <trkpt lat="37.7580940" lon="-3.7279530">
        <ele>499.4</ele>
        <time>2020-07-17T05:08:06Z</time>
      </trkpt>
      <trkpt lat="37.7580880" lon="-3.7280800">
        <ele>499.2</ele>
        <time>2020-07-17T05:08:07Z</time>
      </trkpt>
      <trkpt lat="37.7581070" lon="-3.7284650">
        <ele>498.0</ele>
        <time>2020-07-17T05:08:10Z</time>
      </trkpt>
      <trkpt lat="37.7581410" lon="-3.7287090">
        <ele>496.6</ele>
        <time>2020-07-17T05:08:12Z</time>
      </trkpt>
      <trkpt lat="37.7581890" lon="-3.7289680">
        <ele>494.8</ele>
        <time>2020-07-17T05:08:14Z</time>
      </trkpt>
      <trkpt lat="37.7582170" lon="-3.7290970">
        <ele>494.0</ele>
        <time>2020-07-17T05:08:15Z</time>
      </trkpt>
      <trkpt lat="37.7582500" lon="-3.7292130">
        <ele>493.2</ele>
        <time>2020-07-17T05:08:16Z</time>
      </trkpt>
      <trkpt lat="37.7583430" lon="-3.7294650">
        <ele>491.6</ele>
        <time>2020-07-17T05:08:18Z</time>
      </trkpt>
      <trkpt lat="37.7583880" lon="-3.7295870">
        <ele>491.2</ele>
        <time>2020-07-17T05:08:19Z</time>
      </trkpt>
      <trkpt lat="37.7584300" lon="-3.7297160">
        <ele>490.6</ele>
        <time>2020-07-17T05:08:20Z</time>
      </trkpt>
      <trkpt lat="37.7584830" lon="-3.7299670">
        <ele>489.6</ele>
        <time>2020-07-17T05:08:22Z</time>
      </trkpt>
      <trkpt lat="37.7584970" lon="-3.7300670">
        <ele>489.2</ele>
        <time>2020-07-17T05:08:23Z</time>
      </trkpt>
      <trkpt lat="37.7585120" lon="-3.7302260">
        <ele>488.2</ele>
        <time>2020-07-17T05:08:25Z</time>
      </trkpt>
      <trkpt lat="37.7585150" lon="-3.7302740">
        <ele>487.8</ele>
        <time>2020-07-17T05:08:26Z</time>
      </trkpt>
      <trkpt lat="37.7585130" lon="-3.7303650">
        <ele>486.8</ele>
        <time>2020-07-17T05:08:28Z</time>
      </trkpt>
      <trkpt lat="37.7585050" lon="-3.7304760">
        <ele>485.4</ele>
        <time>2020-07-17T05:08:31Z</time>
      </trkpt>
      <trkpt lat="37.7585020" lon="-3.7305800">
        <ele>484.2</ele>
        <time>2020-07-17T05:08:34Z</time>
      </trkpt>
      <trkpt lat="37.7584940" lon="-3.7307410">
        <ele>483.2</ele>
        <time>2020-07-17T05:08:38Z</time>
      </trkpt>
      <trkpt lat="37.7584990" lon="-3.7310930">
        <ele>482.2</ele>
        <time>2020-07-17T05:08:44Z</time>
      </trkpt>
      <trkpt lat="37.7585250" lon="-3.7315050">
        <ele>481.2</ele>
        <time>2020-07-17T05:08:49Z</time>
      </trkpt>
      <trkpt lat="37.7585380" lon="-3.7315910">
        <ele>481.0</ele>
        <time>2020-07-17T05:08:50Z</time>
      </trkpt>
      <trkpt lat="37.7586110" lon="-3.7319260">
        <ele>480.0</ele>
        <time>2020-07-17T05:08:54Z</time>
      </trkpt>
      <trkpt lat="37.7586450" lon="-3.7320900">
        <ele>479.6</ele>
        <time>2020-07-17T05:08:56Z</time>
      </trkpt>
      <trkpt lat="37.7587370" lon="-3.7325080">
        <ele>479.0</ele>
        <time>2020-07-17T05:09:01Z</time>
      </trkpt>
      <trkpt lat="37.7588450" lon="-3.7329430">
        <ele>478.4</ele>
        <time>2020-07-17T05:09:06Z</time>
      </trkpt>
      <trkpt lat="37.7589350" lon="-3.7331960">
        <ele>478.0</ele>
        <time>2020-07-17T05:09:09Z</time>
      </trkpt>
      <trkpt lat="37.7590410" lon="-3.7334380">
        <ele>477.6</ele>
        <time>2020-07-17T05:09:12Z</time>
      </trkpt>
      <trkpt lat="37.7591890" lon="-3.7337650">
        <ele>476.8</ele>
        <time>2020-07-17T05:09:16Z</time>
      </trkpt>
      <trkpt lat="37.7593170" lon="-3.7341540">
        <ele>475.8</ele>
        <time>2020-07-17T05:09:20Z</time>
      </trkpt>
      <trkpt lat="37.7593390" lon="-3.7342540">
        <ele>475.6</ele>
        <time>2020-07-17T05:09:21Z</time>
      </trkpt>
      <trkpt lat="37.7593910" lon="-3.7346000">
        <ele>474.4</ele>
        <time>2020-07-17T05:09:24Z</time>
      </trkpt>
      <trkpt lat="37.7594000" lon="-3.7347190">
        <ele>473.8</ele>
        <time>2020-07-17T05:09:25Z</time>
      </trkpt>
      <trkpt lat="37.7594080" lon="-3.7348360">
        <ele>473.2</ele>
        <time>2020-07-17T05:09:26Z</time>
      </trkpt>
      <trkpt lat="37.7594230" lon="-3.7351060">
        <ele>471.6</ele>
        <time>2020-07-17T05:09:28Z</time>
      </trkpt>
      <trkpt lat="37.7594370" lon="-3.7353840">
        <ele>470.0</ele>
        <time>2020-07-17T05:09:30Z</time>
      </trkpt>
      <trkpt lat="37.7594480" lon="-3.7356760">
        <ele>468.6</ele>
        <time>2020-07-17T05:09:32Z</time>
      </trkpt>
      <trkpt lat="37.7594570" lon="-3.7359860">
        <ele>466.8</ele>
        <time>2020-07-17T05:09:34Z</time>
      </trkpt>
      <trkpt lat="37.7594710" lon="-3.7362900">
        <ele>465.0</ele>
        <time>2020-07-17T05:09:36Z</time>
      </trkpt>
      <trkpt lat="37.7594890" lon="-3.7366170">
        <ele>463.4</ele>
        <time>2020-07-17T05:09:38Z</time>
      </trkpt>
      <trkpt lat="37.7594970" lon="-3.7367810">
        <ele>462.2</ele>
        <time>2020-07-17T05:09:39Z</time>
      </trkpt>
      <trkpt lat="37.7595050" lon="-3.7369520">
        <ele>460.8</ele>
        <time>2020-07-17T05:09:40Z</time>
      </trkpt>
      <trkpt lat="37.7595140" lon="-3.7371090">
        <ele>459.2</ele>
        <time>2020-07-17T05:09:41Z</time>
      </trkpt>
      <trkpt lat="37.7595280" lon="-3.7373020">
        <ele>457.6</ele>
        <time>2020-07-17T05:09:42Z</time>
      </trkpt>
      <trkpt lat="37.7595430" lon="-3.7374710">
        <ele>456.2</ele>
        <time>2020-07-17T05:09:43Z</time>
      </trkpt>
      <trkpt lat="37.7595630" lon="-3.7376490">
        <ele>454.6</ele>
        <time>2020-07-17T05:09:44Z</time>
      </trkpt>
      <trkpt lat="37.7595880" lon="-3.7378210">
        <ele>453.2</ele>
        <time>2020-07-17T05:09:45Z</time>
      </trkpt>
      <trkpt lat="37.7596200" lon="-3.7379820">
        <ele>451.8</ele>
        <time>2020-07-17T05:09:46Z</time>
      </trkpt>
      <trkpt lat="37.7596590" lon="-3.7381480">
        <ele>450.8</ele>
        <time>2020-07-17T05:09:47Z</time>
      </trkpt>
      <trkpt lat="37.7597080" lon="-3.7383250">
        <ele>449.4</ele>
        <time>2020-07-17T05:09:48Z</time>
      </trkpt>
      <trkpt lat="37.7597540" lon="-3.7384840">
        <ele>448.4</ele>
        <time>2020-07-17T05:09:49Z</time>
      </trkpt>
      <trkpt lat="37.7597980" lon="-3.7386430">
        <ele>447.4</ele>
        <time>2020-07-17T05:09:50Z</time>
      </trkpt>
      <trkpt lat="37.7598940" lon="-3.7389510">
        <ele>446.0</ele>
        <time>2020-07-17T05:09:52Z</time>
      </trkpt>
      <trkpt lat="37.7600080" lon="-3.7392290">
        <ele>445.0</ele>
        <time>2020-07-17T05:09:54Z</time>
      </trkpt>
      <trkpt lat="37.7601410" lon="-3.7394940">
        <ele>444.0</ele>
        <time>2020-07-17T05:09:56Z</time>
      </trkpt>
      <trkpt lat="37.7602120" lon="-3.7396360">
        <ele>443.6</ele>
        <time>2020-07-17T05:09:57Z</time>
      </trkpt>
      <trkpt lat="37.7603390" lon="-3.7399290">
        <ele>442.6</ele>
        <time>2020-07-17T05:09:59Z</time>
      </trkpt>
      <trkpt lat="37.7604460" lon="-3.7402430">
        <ele>441.0</ele>
        <time>2020-07-17T05:10:01Z</time>
      </trkpt>
      <trkpt lat="37.7605500" lon="-3.7405730">
        <ele>439.0</ele>
        <time>2020-07-17T05:10:03Z</time>
      </trkpt>
      <trkpt lat="37.7605960" lon="-3.7407330">
        <ele>437.8</ele>
        <time>2020-07-17T05:10:04Z</time>
      </trkpt>
      <trkpt lat="37.7606640" lon="-3.7410360">
        <ele>436.0</ele>
        <time>2020-07-17T05:10:06Z</time>
      </trkpt>
      <trkpt lat="37.7606840" lon="-3.7412030">
        <ele>434.8</ele>
        <time>2020-07-17T05:10:07Z</time>
      </trkpt>
      <trkpt lat="37.7606900" lon="-3.7413610">
        <ele>433.8</ele>
        <time>2020-07-17T05:10:08Z</time>
      </trkpt>
      <trkpt lat="37.7606470" lon="-3.7416850">
        <ele>431.8</ele>
        <time>2020-07-17T05:10:10Z</time>
      </trkpt>
      <trkpt lat="37.7605420" lon="-3.7419840">
        <ele>430.0</ele>
        <time>2020-07-17T05:10:12Z</time>
      </trkpt>
      <trkpt lat="37.7604860" lon="-3.7421440">
        <ele>429.2</ele>
        <time>2020-07-17T05:10:13Z</time>
      </trkpt>
      <trkpt lat="37.7604380" lon="-3.7423070">
        <ele>428.4</ele>
        <time>2020-07-17T05:10:14Z</time>
      </trkpt>
      <trkpt lat="37.7603510" lon="-3.7426310">
        <ele>426.8</ele>
        <time>2020-07-17T05:10:16Z</time>
      </trkpt>
      <trkpt lat="37.7602650" lon="-3.7429730">
        <ele>425.4</ele>
        <time>2020-07-17T05:10:18Z</time>
      </trkpt>
      <trkpt lat="37.7601970" lon="-3.7433150">
        <ele>423.6</ele>
        <time>2020-07-17T05:10:20Z</time>
      </trkpt>
      <trkpt lat="37.7601680" lon="-3.7436650">
        <ele>421.4</ele>
        <time>2020-07-17T05:10:22Z</time>
      </trkpt>
      <trkpt lat="37.7601610" lon="-3.7440020">
        <ele>419.4</ele>
        <time>2020-07-17T05:10:24Z</time>
      </trkpt>
      <trkpt lat="37.7601560" lon="-3.7443160">
        <ele>417.8</ele>
        <time>2020-07-17T05:10:26Z</time>
      </trkpt>
      <trkpt lat="37.7601500" lon="-3.7444840">
        <ele>417.0</ele>
        <time>2020-07-17T05:10:27Z</time>
      </trkpt>
      <trkpt lat="37.7601450" lon="-3.7446380">
        <ele>416.4</ele>
        <time>2020-07-17T05:10:28Z</time>
      </trkpt>
      <trkpt lat="37.7601450" lon="-3.7449430">
        <ele>415.2</ele>
        <time>2020-07-17T05:10:30Z</time>
      </trkpt>
      <trkpt lat="37.7601650" lon="-3.7452500">
        <ele>414.0</ele>
        <time>2020-07-17T05:10:32Z</time>
      </trkpt>
      <trkpt lat="37.7601910" lon="-3.7453950">
        <ele>413.4</ele>
        <time>2020-07-17T05:10:33Z</time>
      </trkpt>
      <trkpt lat="37.7602250" lon="-3.7455380">
        <ele>412.8</ele>
        <time>2020-07-17T05:10:34Z</time>
      </trkpt>
      <trkpt lat="37.7603270" lon="-3.7459550">
        <ele>411.8</ele>
        <time>2020-07-17T05:10:37Z</time>
      </trkpt>
      <trkpt lat="37.7603540" lon="-3.7460920">
        <ele>411.4</ele>
        <time>2020-07-17T05:10:38Z</time>
      </trkpt>
      <trkpt lat="37.7603970" lon="-3.7466400">
        <ele>410.6</ele>
        <time>2020-07-17T05:10:42Z</time>
      </trkpt>
      <trkpt lat="37.7604080" lon="-3.7469210">
        <ele>409.6</ele>
        <time>2020-07-17T05:10:44Z</time>
      </trkpt>
      <trkpt lat="37.7604160" lon="-3.7471980">
        <ele>408.4</ele>
        <time>2020-07-17T05:10:46Z</time>
      </trkpt>
      <trkpt lat="37.7604260" lon="-3.7475000">
        <ele>407.2</ele>
        <time>2020-07-17T05:10:48Z</time>
      </trkpt>
      <trkpt lat="37.7604440" lon="-3.7477980">
        <ele>406.0</ele>
        <time>2020-07-17T05:10:50Z</time>
      </trkpt>
      <trkpt lat="37.7605040" lon="-3.7480930">
        <ele>404.4</ele>
        <time>2020-07-17T05:10:52Z</time>
      </trkpt>
      <trkpt lat="37.7605480" lon="-3.7482280">
        <ele>403.4</ele>
        <time>2020-07-17T05:10:53Z</time>
      </trkpt>
      <trkpt lat="37.7606050" lon="-3.7483830">
        <ele>402.6</ele>
        <time>2020-07-17T05:10:54Z</time>
      </trkpt>
      <trkpt lat="37.7607150" lon="-3.7486690">
        <ele>401.0</ele>
        <time>2020-07-17T05:10:56Z</time>
      </trkpt>
      <trkpt lat="37.7607970" lon="-3.7489870">
        <ele>399.2</ele>
        <time>2020-07-17T05:10:58Z</time>
      </trkpt>
      <trkpt lat="37.7608210" lon="-3.7493020">
        <ele>397.6</ele>
        <time>2020-07-17T05:11:00Z</time>
      </trkpt>
      <trkpt lat="37.7608190" lon="-3.7494390">
        <ele>397.4</ele>
        <time>2020-07-17T05:11:01Z</time>
      </trkpt>
      <trkpt lat="37.7608140" lon="-3.7495770">
        <ele>397.0</ele>
        <time>2020-07-17T05:11:02Z</time>
      </trkpt>
      <trkpt lat="37.7608090" lon="-3.7496980">
        <ele>396.4</ele>
        <time>2020-07-17T05:11:03Z</time>
      </trkpt>
      <trkpt lat="37.7608020" lon="-3.7499290">
        <ele>395.2</ele>
        <time>2020-07-17T05:11:05Z</time>
      </trkpt>
      <trkpt lat="37.7607980" lon="-3.7501660">
        <ele>394.0</ele>
        <time>2020-07-17T05:11:07Z</time>
      </trkpt>
      <trkpt lat="37.7607790" lon="-3.7504630">
        <ele>393.2</ele>
        <time>2020-07-17T05:11:10Z</time>
      </trkpt>
      <trkpt lat="37.7607730" lon="-3.7505370">
        <ele>393.0</ele>
        <time>2020-07-17T05:11:11Z</time>
      </trkpt>
      <trkpt lat="37.7607670" lon="-3.7506930">
        <ele>392.0</ele>
        <time>2020-07-17T05:11:14Z</time>
      </trkpt>
      <trkpt lat="37.7607220" lon="-3.7507850">
        <ele>391.0</ele>
        <time>2020-07-17T05:11:18Z</time>
      </trkpt>
      <trkpt lat="37.7607040" lon="-3.7507690">
        <ele>390.8</ele>
        <time>2020-07-17T05:11:19Z</time>
      </trkpt>
      <trkpt lat="37.7607220" lon="-3.7507030">
        <ele>391.0</ele>
        <time>2020-07-17T05:11:21Z</time>
      </trkpt>
      <trkpt lat="37.7607290" lon="-3.7505830">
        <ele>391.0</ele>
        <time>2020-07-17T05:11:24Z</time>
      </trkpt>
      <trkpt lat="37.7607360" lon="-3.7504940">
        <ele>391.0</ele>
        <time>2020-07-17T05:11:26Z</time>
      </trkpt>
      <trkpt lat="37.7607460" lon="-3.7503580">
        <ele>391.2</ele>
        <time>2020-07-17T05:11:29Z</time>
      </trkpt>
      <trkpt lat="37.7607460" lon="-3.7502210">
        <ele>391.6</ele>
        <time>2020-07-17T05:11:32Z</time>
      </trkpt>
      <trkpt lat="37.7606960" lon="-3.7501090">
        <ele>392.0</ele>
        <time>2020-07-17T05:11:35Z</time>
      </trkpt>
      <trkpt lat="37.7606690" lon="-3.7500810">
        <ele>392.2</ele>
        <time>2020-07-17T05:11:36Z</time>
      </trkpt>
      <trkpt lat="37.7605760" lon="-3.7500040">
        <ele>393.0</ele>
        <time>2020-07-17T05:11:40Z</time>
      </trkpt>
      <trkpt lat="37.7605270" lon="-3.7499720">
        <ele>393.2</ele>
        <time>2020-07-17T05:11:42Z</time>
      </trkpt>
      <trkpt lat="37.7604540" lon="-3.7499170">
        <ele>393.4</ele>
        <time>2020-07-17T05:11:45Z</time>
      </trkpt>
      <trkpt lat="37.7604110" lon="-3.7498900">
        <ele>393.6</ele>
        <time>2020-07-17T05:11:47Z</time>
      </trkpt>
      <trkpt lat="37.7603520" lon="-3.7498520">
        <ele>393.8</ele>
        <time>2020-07-17T05:11:49Z</time>
      </trkpt>
      <trkpt lat="37.7603010" lon="-3.7498190">
        <ele>394.2</ele>
        <time>2020-07-17T05:11:51Z</time>
      </trkpt>
      <trkpt lat="37.7602740" lon="-3.7497980">
        <ele>394.2</ele>
        <time>2020-07-17T05:11:52Z</time>
      </trkpt>
      <trkpt lat="37.7601980" lon="-3.7497300">
        <ele>394.6</ele>
        <time>2020-07-17T05:11:55Z</time>
      </trkpt>
      <trkpt lat="37.7601740" lon="-3.7497100">
        <ele>394.8</ele>
        <time>2020-07-17T05:11:56Z</time>
      </trkpt>
      <trkpt lat="37.7600970" lon="-3.7496470">
        <ele>395.4</ele>
        <time>2020-07-17T05:11:59Z</time>
      </trkpt>
      <trkpt lat="37.7599470" lon="-3.7495090">
        <ele>396.2</ele>
        <time>2020-07-17T05:12:05Z</time>
      </trkpt>
      <trkpt lat="37.7599240" lon="-3.7494860">
        <ele>396.4</ele>
        <time>2020-07-17T05:12:06Z</time>
      </trkpt>
      <trkpt lat="37.7598000" lon="-3.7493860">
        <ele>397.6</ele>
        <time>2020-07-17T05:12:11Z</time>
      </trkpt>
      <trkpt lat="37.7596830" lon="-3.7493260">
        <ele>398.6</ele>
        <time>2020-07-17T05:12:15Z</time>
      </trkpt>
      <trkpt lat="37.7595130" lon="-3.7492550">
        <ele>399.6</ele>
        <time>2020-07-17T05:12:20Z</time>
      </trkpt>
      <trkpt lat="37.7593960" lon="-3.7492070">
        <ele>400.2</ele>
        <time>2020-07-17T05:12:23Z</time>
      </trkpt>
      <trkpt lat="37.7590890" lon="-3.7491120">
        <ele>400.2</ele>
        <time>2020-07-17T05:12:29Z</time>
      </trkpt>
      <trkpt lat="37.7590270" lon="-3.7491020">
        <ele>400.0</ele>
        <time>2020-07-17T05:12:30Z</time>
      </trkpt>
      <trkpt lat="37.7587740" lon="-3.7491280">
        <ele>399.0</ele>
        <time>2020-07-17T05:12:34Z</time>
      </trkpt>
      <trkpt lat="37.7586500" lon="-3.7491600">
        <ele>398.6</ele>
        <time>2020-07-17T05:12:36Z</time>
      </trkpt>
      <trkpt lat="37.7584460" lon="-3.7492250">
        <ele>398.0</ele>
        <time>2020-07-17T05:12:39Z</time>
      </trkpt>
      <trkpt lat="37.7583760" lon="-3.7492460">
        <ele>397.6</ele>
        <time>2020-07-17T05:12:40Z</time>
      </trkpt>
      <trkpt lat="37.7582360" lon="-3.7492860">
        <ele>397.0</ele>
        <time>2020-07-17T05:12:42Z</time>
      </trkpt>
      <trkpt lat="37.7581660" lon="-3.7493060">
        <ele>396.6</ele>
        <time>2020-07-17T05:12:43Z</time>
      </trkpt>
      <trkpt lat="37.7580940" lon="-3.7493270">
        <ele>396.4</ele>
        <time>2020-07-17T05:12:44Z</time>
      </trkpt>
      <trkpt lat="37.7577460" lon="-3.7494360">
        <ele>396.0</ele>
        <time>2020-07-17T05:12:49Z</time>
      </trkpt>
      <trkpt lat="37.7575510" lon="-3.7495070">
        <ele>395.8</ele>
        <time>2020-07-17T05:12:52Z</time>
      </trkpt>
      <trkpt lat="37.7574950" lon="-3.7495260">
        <ele>395.8</ele>
        <time>2020-07-17T05:12:53Z</time>
      </trkpt>
      <trkpt lat="37.7573120" lon="-3.7495900">
        <ele>395.8</ele>
        <time>2020-07-17T05:12:56Z</time>
      </trkpt>
      <trkpt lat="37.7570580" lon="-3.7496080">
        <ele>395.6</ele>
        <time>2020-07-17T05:13:00Z</time>
      </trkpt>
      <trkpt lat="37.7570010" lon="-3.7495910">
        <ele>395.6</ele>
        <time>2020-07-17T05:13:01Z</time>
      </trkpt>
      <trkpt lat="37.7568320" lon="-3.7494760">
        <ele>395.6</ele>
        <time>2020-07-17T05:13:04Z</time>
      </trkpt>
      <trkpt lat="37.7567820" lon="-3.7494350">
        <ele>395.6</ele>
        <time>2020-07-17T05:13:05Z</time>
      </trkpt>
      <trkpt lat="37.7563480" lon="-3.7490480">
        <ele>396.2</ele>
        <time>2020-07-17T05:13:14Z</time>
      </trkpt>
      <trkpt lat="37.7559930" lon="-3.7488240">
        <ele>396.6</ele>
        <time>2020-07-17T05:13:21Z</time>
      </trkpt>
      <trkpt lat="37.7557250" lon="-3.7487050">
        <ele>396.8</ele>
        <time>2020-07-17T05:13:26Z</time>
      </trkpt>
      <trkpt lat="37.7555080" lon="-3.7485950">
        <ele>397.0</ele>
        <time>2020-07-17T05:13:30Z</time>
      </trkpt>
      <trkpt lat="37.7551080" lon="-3.7483630">
        <ele>397.4</ele>
        <time>2020-07-17T05:13:38Z</time>
      </trkpt>
      <trkpt lat="37.7550630" lon="-3.7483350">
        <ele>397.6</ele>
        <time>2020-07-17T05:13:39Z</time>
      </trkpt>
      <trkpt lat="37.7549370" lon="-3.7482490">
        <ele>398.2</ele>
        <time>2020-07-17T05:13:42Z</time>
      </trkpt>
      <trkpt lat="37.7548560" lon="-3.7481980">
        <ele>398.6</ele>
        <time>2020-07-17T05:13:44Z</time>
      </trkpt>
      <trkpt lat="37.7547780" lon="-3.7481500">
        <ele>399.2</ele>
        <time>2020-07-17T05:13:46Z</time>
      </trkpt>
      <trkpt lat="37.7546740" lon="-3.7480920">
        <ele>399.8</ele>
        <time>2020-07-17T05:13:49Z</time>
      </trkpt>
      <trkpt lat="37.7545930" lon="-3.7480630">
        <ele>400.0</ele>
        <time>2020-07-17T05:13:51Z</time>
      </trkpt>
      <trkpt lat="37.7544920" lon="-3.7480670">
        <ele>400.6</ele>
        <time>2020-07-17T05:13:53Z</time>
      </trkpt>
      <trkpt lat="37.7544550" lon="-3.7480830">
        <ele>400.8</ele>
        <time>2020-07-17T05:13:54Z</time>
      </trkpt>
      <trkpt lat="37.7543300" lon="-3.7481810">
        <ele>401.8</ele>
        <time>2020-07-17T05:13:58Z</time>
      </trkpt>
      <trkpt lat="37.7542750" lon="-3.7482470">
        <ele>402.4</ele>
        <time>2020-07-17T05:14:00Z</time>
      </trkpt>
      <trkpt lat="37.7542160" lon="-3.7483060">
        <ele>403.0</ele>
        <time>2020-07-17T05:14:02Z</time>
      </trkpt>
      <trkpt lat="37.7541260" lon="-3.7483850">
        <ele>404.0</ele>
        <time>2020-07-17T05:14:05Z</time>
      </trkpt>
      <trkpt lat="37.7540920" lon="-3.7484090">
        <ele>404.2</ele>
        <time>2020-07-17T05:14:06Z</time>
      </trkpt>
      <trkpt lat="37.7540300" lon="-3.7484430">
        <ele>404.6</ele>
        <time>2020-07-17T05:14:08Z</time>
      </trkpt>
      <trkpt lat="37.7538830" lon="-3.7485300">
        <ele>405.0</ele>
        <time>2020-07-17T05:14:11Z</time>
      </trkpt>
      <trkpt lat="37.7536160" lon="-3.7487320">
        <ele>404.4</ele>
        <time>2020-07-17T05:14:16Z</time>
      </trkpt>
      <trkpt lat="37.7533890" lon="-3.7489790">
        <ele>403.6</ele>
        <time>2020-07-17T05:14:21Z</time>
      </trkpt>
      <trkpt lat="37.7531510" lon="-3.7492200">
        <ele>404.8</ele>
        <time>2020-07-17T05:14:27Z</time>
      </trkpt>
      <trkpt lat="37.7529220" lon="-3.7494470">
        <ele>405.0</ele>
        <time>2020-07-17T05:14:32Z</time>
      </trkpt>
      <trkpt lat="37.7527900" lon="-3.7495740">
        <ele>405.4</ele>
        <time>2020-07-17T05:14:36Z</time>
      </trkpt>
      <trkpt lat="37.7527560" lon="-3.7496080">
        <ele>405.6</ele>
        <time>2020-07-17T05:14:37Z</time>
      </trkpt>
      <trkpt lat="37.7526680" lon="-3.7496890">
        <ele>406.6</ele>
        <time>2020-07-17T05:14:40Z</time>
      </trkpt>
      <trkpt lat="37.7525570" lon="-3.7497990">
        <ele>407.6</ele>
        <time>2020-07-17T05:14:44Z</time>
      </trkpt>
      <trkpt lat="37.7524580" lon="-3.7498940">
        <ele>408.4</ele>
        <time>2020-07-17T05:14:47Z</time>
      </trkpt>
      <trkpt lat="37.7523750" lon="-3.7499600">
        <ele>408.8</ele>
        <time>2020-07-17T05:14:49Z</time>
      </trkpt>
      <trkpt lat="37.7523320" lon="-3.7499890">
        <ele>408.8</ele>
        <time>2020-07-17T05:14:50Z</time>
      </trkpt>
      <trkpt lat="37.7520550" lon="-3.7500870">
        <ele>409.4</ele>
        <time>2020-07-17T05:14:56Z</time>
      </trkpt>
      <trkpt lat="37.7518720" lon="-3.7500870">
        <ele>409.8</ele>
        <time>2020-07-17T05:15:00Z</time>
      </trkpt>
      <trkpt lat="37.7517380" lon="-3.7500630">
        <ele>410.0</ele>
        <time>2020-07-17T05:15:03Z</time>
      </trkpt>
      <trkpt lat="37.7513290" lon="-3.7499900">
        <ele>410.4</ele>
        <time>2020-07-17T05:15:11Z</time>
      </trkpt>
      <trkpt lat="37.7511680" lon="-3.7499790">
        <ele>410.2</ele>
        <time>2020-07-17T05:15:14Z</time>
      </trkpt>
      <trkpt lat="37.7510350" lon="-3.7499910">
        <ele>410.6</ele>
        <time>2020-07-17T05:15:17Z</time>
      </trkpt>
      <trkpt lat="37.7509910" lon="-3.7500030">
        <ele>410.8</ele>
        <time>2020-07-17T05:15:18Z</time>
      </trkpt>
      <trkpt lat="37.7507980" lon="-3.7500860">
        <ele>411.6</ele>
        <time>2020-07-17T05:15:22Z</time>
      </trkpt>
      <trkpt lat="37.7506330" lon="-3.7501710">
        <ele>411.4</ele>
        <time>2020-07-17T05:15:25Z</time>
      </trkpt>
      <trkpt lat="37.7505120" lon="-3.7502360">
        <ele>411.2</ele>
        <time>2020-07-17T05:15:27Z</time>
      </trkpt>
      <trkpt lat="37.7503880" lon="-3.7503080">
        <ele>410.8</ele>
        <time>2020-07-17T05:15:29Z</time>
      </trkpt>
      <trkpt lat="37.7502540" lon="-3.7503830">
        <ele>410.2</ele>
        <time>2020-07-17T05:15:31Z</time>
      </trkpt>
      <trkpt lat="37.7501070" lon="-3.7504570">
        <ele>409.6</ele>
        <time>2020-07-17T05:15:33Z</time>
      </trkpt>
      <trkpt lat="37.7499640" lon="-3.7505180">
        <ele>408.8</ele>
        <time>2020-07-17T05:15:35Z</time>
      </trkpt>
      <trkpt lat="37.7498900" lon="-3.7505460">
        <ele>408.6</ele>
        <time>2020-07-17T05:15:36Z</time>
      </trkpt>
      <trkpt lat="37.7498100" lon="-3.7505760">
        <ele>408.2</ele>
        <time>2020-07-17T05:15:37Z</time>
      </trkpt>
      <trkpt lat="37.7495230" lon="-3.7506770">
        <ele>407.4</ele>
        <time>2020-07-17T05:15:41Z</time>
      </trkpt>
      <trkpt lat="37.7493550" lon="-3.7507390">
        <ele>407.0</ele>
        <time>2020-07-17T05:15:43Z</time>
      </trkpt>
      <trkpt lat="37.7492000" lon="-3.7507880">
        <ele>406.6</ele>
        <time>2020-07-17T05:15:45Z</time>
      </trkpt>
      <trkpt lat="37.7489700" lon="-3.7508600">
        <ele>405.8</ele>
        <time>2020-07-17T05:15:48Z</time>
      </trkpt>
      <trkpt lat="37.7488180" lon="-3.7509090">
        <ele>405.4</ele>
        <time>2020-07-17T05:15:50Z</time>
      </trkpt>
      <trkpt lat="37.7485320" lon="-3.7509900">
        <ele>405.2</ele>
        <time>2020-07-17T05:15:54Z</time>
      </trkpt>
      <trkpt lat="37.7484630" lon="-3.7509970">
        <ele>405.2</ele>
        <time>2020-07-17T05:15:55Z</time>
      </trkpt>
      <trkpt lat="37.7483270" lon="-3.7509810">
        <ele>405.4</ele>
        <time>2020-07-17T05:15:57Z</time>
      </trkpt>
      <trkpt lat="37.7482650" lon="-3.7509630">
        <ele>405.4</ele>
        <time>2020-07-17T05:15:58Z</time>
      </trkpt>
      <trkpt lat="37.7482030" lon="-3.7509400">
        <ele>405.4</ele>
        <time>2020-07-17T05:15:59Z</time>
      </trkpt>
      <trkpt lat="37.7477770" lon="-3.7507480">
        <ele>406.0</ele>
        <time>2020-07-17T05:16:06Z</time>
      </trkpt>
      <trkpt lat="37.7474180" lon="-3.7505970">
        <ele>406.2</ele>
        <time>2020-07-17T05:16:12Z</time>
      </trkpt>
      <trkpt lat="37.7472990" lon="-3.7505750">
        <ele>406.4</ele>
        <time>2020-07-17T05:16:14Z</time>
      </trkpt>
      <trkpt lat="37.7470080" lon="-3.7505920">
        <ele>406.8</ele>
        <time>2020-07-17T05:16:19Z</time>
      </trkpt>
      <trkpt lat="37.7469490" lon="-3.7505980">
        <ele>407.0</ele>
        <time>2020-07-17T05:16:20Z</time>
      </trkpt>
      <trkpt lat="37.7467180" lon="-3.7506310">
        <ele>407.4</ele>
        <time>2020-07-17T05:16:24Z</time>
      </trkpt>
      <trkpt lat="37.7464900" lon="-3.7506910">
        <ele>407.6</ele>
        <time>2020-07-17T05:16:28Z</time>
      </trkpt>
      <trkpt lat="37.7462090" lon="-3.7508300">
        <ele>407.6</ele>
        <time>2020-07-17T05:16:33Z</time>
      </trkpt>
      <trkpt lat="37.7461550" lon="-3.7508700">
        <ele>407.8</ele>
        <time>2020-07-17T05:16:34Z</time>
      </trkpt>
      <trkpt lat="37.7459050" lon="-3.7510910">
        <ele>407.8</ele>
        <time>2020-07-17T05:16:39Z</time>
      </trkpt>
      <trkpt lat="37.7454370" lon="-3.7514750">
        <ele>407.6</ele>
        <time>2020-07-17T05:16:48Z</time>
      </trkpt>
      <trkpt lat="37.7453880" lon="-3.7515200">
        <ele>407.6</ele>
        <time>2020-07-17T05:16:49Z</time>
      </trkpt>
      <trkpt lat="37.7452120" lon="-3.7517170">
        <ele>408.0</ele>
        <time>2020-07-17T05:16:53Z</time>
      </trkpt>
      <trkpt lat="37.7450850" lon="-3.7518770">
        <ele>408.2</ele>
        <time>2020-07-17T05:16:56Z</time>
      </trkpt>
      <trkpt lat="37.7447140" lon="-3.7523360">
        <ele>409.0</ele>
        <time>2020-07-17T05:17:05Z</time>
      </trkpt>
      <trkpt lat="37.7446800" lon="-3.7523800">
        <ele>409.2</ele>
        <time>2020-07-17T05:17:06Z</time>
      </trkpt>
      <trkpt lat="37.7445600" lon="-3.7525570">
        <ele>410.2</ele>
        <time>2020-07-17T05:17:10Z</time>
      </trkpt>
      <trkpt lat="37.7444760" lon="-3.7526910">
        <ele>411.0</ele>
        <time>2020-07-17T05:17:13Z</time>
      </trkpt>
      <trkpt lat="37.7444500" lon="-3.7527370">
        <ele>411.2</ele>
        <time>2020-07-17T05:17:14Z</time>
      </trkpt>
      <trkpt lat="37.7443780" lon="-3.7528690">
        <ele>412.2</ele>
        <time>2020-07-17T05:17:17Z</time>
      </trkpt>
      <trkpt lat="37.7443530" lon="-3.7529140">
        <ele>412.4</ele>
        <time>2020-07-17T05:17:18Z</time>
      </trkpt>
      <trkpt lat="37.7442870" lon="-3.7530340">
        <ele>413.4</ele>
        <time>2020-07-17T05:17:21Z</time>
      </trkpt>
      <trkpt lat="37.7442610" lon="-3.7530720">
        <ele>413.6</ele>
        <time>2020-07-17T05:17:22Z</time>
      </trkpt>
      <trkpt lat="37.7441690" lon="-3.7531720">
        <ele>414.6</ele>
        <time>2020-07-17T05:17:25Z</time>
      </trkpt>
      <trkpt lat="37.7441350" lon="-3.7532010">
        <ele>414.8</ele>
        <time>2020-07-17T05:17:26Z</time>
      </trkpt>
      <trkpt lat="37.7440960" lon="-3.7532300">
        <ele>415.0</ele>
        <time>2020-07-17T05:17:27Z</time>
      </trkpt>
      <trkpt lat="37.7438920" lon="-3.7533440">
        <ele>416.0</ele>
        <time>2020-07-17T05:17:32Z</time>
      </trkpt>
      <trkpt lat="37.7438060" lon="-3.7533870">
        <ele>416.2</ele>
        <time>2020-07-17T05:17:34Z</time>
      </trkpt>
      <trkpt lat="37.7436520" lon="-3.7534520">
        <ele>417.0</ele>
        <time>2020-07-17T05:17:38Z</time>
      </trkpt>
      <trkpt lat="37.7435380" lon="-3.7534910">
        <ele>417.4</ele>
        <time>2020-07-17T05:17:41Z</time>
      </trkpt>
      <trkpt lat="37.7433640" lon="-3.7535330">
        <ele>418.2</ele>
        <time>2020-07-17T05:17:45Z</time>
      </trkpt>
      <trkpt lat="37.7431390" lon="-3.7535760">
        <ele>418.8</ele>
        <time>2020-07-17T05:17:50Z</time>
      </trkpt>
      <trkpt lat="37.7429310" lon="-3.7535990">
        <ele>419.2</ele>
        <time>2020-07-17T05:17:54Z</time>
      </trkpt>
      <trkpt lat="37.7427290" lon="-3.7536220">
        <ele>419.2</ele>
        <time>2020-07-17T05:17:58Z</time>
      </trkpt>
      <trkpt lat="37.7423700" lon="-3.7536490">
        <ele>420.2</ele>
        <time>2020-07-17T05:18:06Z</time>
      </trkpt>
      <trkpt lat="37.7423240" lon="-3.7536410">
        <ele>420.4</ele>
        <time>2020-07-17T05:18:07Z</time>
      </trkpt>
      <trkpt lat="37.7422820" lon="-3.7536280">
        <ele>420.6</ele>
        <time>2020-07-17T05:18:08Z</time>
      </trkpt>
      <trkpt lat="37.7421020" lon="-3.7534700">
        <ele>421.4</ele>
        <time>2020-07-17T05:18:13Z</time>
      </trkpt>
      <trkpt lat="37.7420170" lon="-3.7533100">
        <ele>421.6</ele>
        <time>2020-07-17T05:18:16Z</time>
      </trkpt>
      <trkpt lat="37.7419340" lon="-3.7531250">
        <ele>421.6</ele>
        <time>2020-07-17T05:18:19Z</time>
      </trkpt>
      <trkpt lat="37.7418320" lon="-3.7529400">
        <ele>421.6</ele>
        <time>2020-07-17T05:18:22Z</time>
      </trkpt>
      <trkpt lat="37.7417070" lon="-3.7527440">
        <ele>421.0</ele>
        <time>2020-07-17T05:18:25Z</time>
      </trkpt>
      <trkpt lat="37.7415730" lon="-3.7525610">
        <ele>420.4</ele>
        <time>2020-07-17T05:18:28Z</time>
      </trkpt>
      <trkpt lat="37.7414500" lon="-3.7523930">
        <ele>420.4</ele>
        <time>2020-07-17T05:18:31Z</time>
      </trkpt>
      <trkpt lat="37.7414140" lon="-3.7523300">
        <ele>420.4</ele>
        <time>2020-07-17T05:18:32Z</time>
      </trkpt>
      <trkpt lat="37.7413870" lon="-3.7522670">
        <ele>420.6</ele>
        <time>2020-07-17T05:18:33Z</time>
      </trkpt>
      <trkpt lat="37.7412730" lon="-3.7520100">
        <ele>420.8</ele>
        <time>2020-07-17T05:18:37Z</time>
      </trkpt>
      <trkpt lat="37.7412390" lon="-3.7519520">
        <ele>420.8</ele>
        <time>2020-07-17T05:18:38Z</time>
      </trkpt>
      <trkpt lat="37.7411960" lon="-3.7518970">
        <ele>420.8</ele>
        <time>2020-07-17T05:18:39Z</time>
      </trkpt>
      <trkpt lat="37.7410530" lon="-3.7517690">
        <ele>420.8</ele>
        <time>2020-07-17T05:18:42Z</time>
      </trkpt>
      <trkpt lat="37.7410010" lon="-3.7517330">
        <ele>420.8</ele>
        <time>2020-07-17T05:18:43Z</time>
      </trkpt>
      <trkpt lat="37.7406990" lon="-3.7515200">
        <ele>421.4</ele>
        <time>2020-07-17T05:18:49Z</time>
      </trkpt>
      <trkpt lat="37.7405500" lon="-3.7514030">
        <ele>421.6</ele>
        <time>2020-07-17T05:18:52Z</time>
      </trkpt>
      <trkpt lat="37.7400580" lon="-3.7510120">
        <ele>422.2</ele>
        <time>2020-07-17T05:19:02Z</time>
      </trkpt>
      <trkpt lat="37.7399610" lon="-3.7509360">
        <ele>422.4</ele>
        <time>2020-07-17T05:19:04Z</time>
      </trkpt>
      <trkpt lat="37.7394850" lon="-3.7505480">
        <ele>423.0</ele>
        <time>2020-07-17T05:19:14Z</time>
      </trkpt>
      <trkpt lat="37.7394360" lon="-3.7505100">
        <ele>423.2</ele>
        <time>2020-07-17T05:19:15Z</time>
      </trkpt>
      <trkpt lat="37.7393400" lon="-3.7504350">
        <ele>423.4</ele>
        <time>2020-07-17T05:19:17Z</time>
      </trkpt>
      <trkpt lat="37.7389510" lon="-3.7501160">
        <ele>424.4</ele>
        <time>2020-07-17T05:19:25Z</time>
      </trkpt>
      <trkpt lat="37.7388550" lon="-3.7500400">
        <ele>424.4</ele>
        <time>2020-07-17T05:19:27Z</time>
      </trkpt>
      <trkpt lat="37.7384640" lon="-3.7497500">
        <ele>425.0</ele>
        <time>2020-07-17T05:19:35Z</time>
      </trkpt>
      <trkpt lat="37.7379590" lon="-3.7494760">
        <ele>425.4</ele>
        <time>2020-07-17T05:19:44Z</time>
      </trkpt>
      <trkpt lat="37.7378470" lon="-3.7494350">
        <ele>425.4</ele>
        <time>2020-07-17T05:19:46Z</time>
      </trkpt>
      <trkpt lat="37.7377890" lon="-3.7494190">
        <ele>425.4</ele>
        <time>2020-07-17T05:19:47Z</time>
      </trkpt>
      <trkpt lat="37.7374280" lon="-3.7493570">
        <ele>425.6</ele>
        <time>2020-07-17T05:19:53Z</time>
      </trkpt>
      <trkpt lat="37.7368440" lon="-3.7492720">
        <ele>425.4</ele>
        <time>2020-07-17T05:20:02Z</time>
      </trkpt>
      <trkpt lat="37.7367790" lon="-3.7492680">
        <ele>425.2</ele>
        <time>2020-07-17T05:20:03Z</time>
      </trkpt>
      <trkpt lat="37.7366570" lon="-3.7492730">
        <ele>425.2</ele>
        <time>2020-07-17T05:20:05Z</time>
      </trkpt>
      <trkpt lat="37.7364710" lon="-3.7493280">
        <ele>425.4</ele>
        <time>2020-07-17T05:20:08Z</time>
      </trkpt>
      <trkpt lat="37.7360370" lon="-3.7494530">
        <ele>425.6</ele>
        <time>2020-07-17T05:20:15Z</time>
      </trkpt>
      <trkpt lat="37.7359730" lon="-3.7494570">
        <ele>425.4</ele>
        <time>2020-07-17T05:20:16Z</time>
      </trkpt>
      <trkpt lat="37.7359140" lon="-3.7494390">
        <ele>425.4</ele>
        <time>2020-07-17T05:20:17Z</time>
      </trkpt>
      <trkpt lat="37.7357850" lon="-3.7493960">
        <ele>425.4</ele>
        <time>2020-07-17T05:20:19Z</time>
      </trkpt>
      <trkpt lat="37.7357290" lon="-3.7493630">
        <ele>425.4</ele>
        <time>2020-07-17T05:20:20Z</time>
      </trkpt>
      <trkpt lat="37.7355030" lon="-3.7492130">
        <ele>425.4</ele>
        <time>2020-07-17T05:20:24Z</time>
      </trkpt>
      <trkpt lat="37.7351040" lon="-3.7490010">
        <ele>425.2</ele>
        <time>2020-07-17T05:20:31Z</time>
      </trkpt>
      <trkpt lat="37.7349820" lon="-3.7489840">
        <ele>425.4</ele>
        <time>2020-07-17T05:20:33Z</time>
      </trkpt>
      <trkpt lat="37.7348020" lon="-3.7490050">
        <ele>425.6</ele>
        <time>2020-07-17T05:20:36Z</time>
      </trkpt>
      <trkpt lat="37.7345010" lon="-3.7491300">
        <ele>425.6</ele>
        <time>2020-07-17T05:20:41Z</time>
      </trkpt>
      <trkpt lat="37.7339690" lon="-3.7494170">
        <ele>425.6</ele>
        <time>2020-07-17T05:20:50Z</time>
      </trkpt>
      <trkpt lat="37.7336390" lon="-3.7495460">
        <ele>425.4</ele>
        <time>2020-07-17T05:20:56Z</time>
      </trkpt>
      <trkpt lat="37.7334270" lon="-3.7496300">
        <ele>425.4</ele>
        <time>2020-07-17T05:21:00Z</time>
      </trkpt>
      <trkpt lat="37.7333780" lon="-3.7496400">
        <ele>425.4</ele>
        <time>2020-07-17T05:21:01Z</time>
      </trkpt>
      <trkpt lat="37.7332630" lon="-3.7496570">
        <ele>425.6</ele>
        <time>2020-07-17T05:21:03Z</time>
      </trkpt>
      <trkpt lat="37.7331000" lon="-3.7496390">
        <ele>426.0</ele>
        <time>2020-07-17T05:21:06Z</time>
      </trkpt>
      <trkpt lat="37.7327700" lon="-3.7495850">
        <ele>426.2</ele>
        <time>2020-07-17T05:21:12Z</time>
      </trkpt>
      <trkpt lat="37.7323730" lon="-3.7496330">
        <ele>426.2</ele>
        <time>2020-07-17T05:21:19Z</time>
      </trkpt>
      <trkpt lat="37.7322080" lon="-3.7496940">
        <ele>426.0</ele>
        <time>2020-07-17T05:21:22Z</time>
      </trkpt>
      <trkpt lat="37.7321050" lon="-3.7497630">
        <ele>426.0</ele>
        <time>2020-07-17T05:21:24Z</time>
      </trkpt>
      <trkpt lat="37.7317330" lon="-3.7501320">
        <ele>426.2</ele>
        <time>2020-07-17T05:21:32Z</time>
      </trkpt>
      <trkpt lat="37.7314930" lon="-3.7503480">
        <ele>426.6</ele>
        <time>2020-07-17T05:21:37Z</time>
      </trkpt>
      <trkpt lat="37.7313270" lon="-3.7504210">
        <ele>426.8</ele>
        <time>2020-07-17T05:21:40Z</time>
      </trkpt>
      <trkpt lat="37.7312730" lon="-3.7504340">
        <ele>426.8</ele>
        <time>2020-07-17T05:21:41Z</time>
      </trkpt>
      <trkpt lat="37.7308920" lon="-3.7505150">
        <ele>426.6</ele>
        <time>2020-07-17T05:21:47Z</time>
      </trkpt>
      <trkpt lat="37.7307180" lon="-3.7506690">
        <ele>426.2</ele>
        <time>2020-07-17T05:21:50Z</time>
      </trkpt>
      <trkpt lat="37.7305590" lon="-3.7509600">
        <ele>425.6</ele>
        <time>2020-07-17T05:21:54Z</time>
      </trkpt>
      <trkpt lat="37.7305250" lon="-3.7510300">
        <ele>425.6</ele>
        <time>2020-07-17T05:21:55Z</time>
      </trkpt>
      <trkpt lat="37.7304220" lon="-3.7512340">
        <ele>425.6</ele>
        <time>2020-07-17T05:21:58Z</time>
      </trkpt>
      <trkpt lat="37.7301950" lon="-3.7515990">
        <ele>426.0</ele>
        <time>2020-07-17T05:22:04Z</time>
      </trkpt>
      <trkpt lat="37.7299540" lon="-3.7518180">
        <ele>426.6</ele>
        <time>2020-07-17T05:22:09Z</time>
      </trkpt>
      <trkpt lat="37.7298980" lon="-3.7518480">
        <ele>426.6</ele>
        <time>2020-07-17T05:22:10Z</time>
      </trkpt>
      <trkpt lat="37.7296590" lon="-3.7518870">
        <ele>426.6</ele>
        <time>2020-07-17T05:22:14Z</time>
      </trkpt>
      <trkpt lat="37.7295390" lon="-3.7518700">
        <ele>426.6</ele>
        <time>2020-07-17T05:22:16Z</time>
      </trkpt>
      <trkpt lat="37.7292770" lon="-3.7518300">
        <ele>426.6</ele>
        <time>2020-07-17T05:22:20Z</time>
      </trkpt>
      <trkpt lat="37.7288330" lon="-3.7518720">
        <ele>426.2</ele>
        <time>2020-07-17T05:22:27Z</time>
      </trkpt>
      <trkpt lat="37.7287260" lon="-3.7519140">
        <ele>426.2</ele>
        <time>2020-07-17T05:22:29Z</time>
      </trkpt>
      <trkpt lat="37.7285770" lon="-3.7520250">
        <ele>426.4</ele>
        <time>2020-07-17T05:22:32Z</time>
      </trkpt>
      <trkpt lat="37.7285330" lon="-3.7520680">
        <ele>426.4</ele>
        <time>2020-07-17T05:22:33Z</time>
      </trkpt>
      <trkpt lat="37.7281550" lon="-3.7524400">
        <ele>427.0</ele>
        <time>2020-07-17T05:22:41Z</time>
      </trkpt>
      <trkpt lat="37.7276620" lon="-3.7528620">
        <ele>427.0</ele>
        <time>2020-07-17T05:22:50Z</time>
      </trkpt>
      <trkpt lat="37.7273190" lon="-3.7530640">
        <ele>427.2</ele>
        <time>2020-07-17T05:22:56Z</time>
      </trkpt>
      <trkpt lat="37.7271790" lon="-3.7532120">
        <ele>427.2</ele>
        <time>2020-07-17T05:22:59Z</time>
      </trkpt>
      <trkpt lat="37.7271020" lon="-3.7533300">
        <ele>427.6</ele>
        <time>2020-07-17T05:23:01Z</time>
      </trkpt>
      <trkpt lat="37.7270660" lon="-3.7533950">
        <ele>427.8</ele>
        <time>2020-07-17T05:23:02Z</time>
      </trkpt>
      <trkpt lat="37.7269190" lon="-3.7537220">
        <ele>428.0</ele>
        <time>2020-07-17T05:23:07Z</time>
      </trkpt>
      <trkpt lat="37.7268350" lon="-3.7539150">
        <ele>428.8</ele>
        <time>2020-07-17T05:23:10Z</time>
      </trkpt>
      <trkpt lat="37.7268080" lon="-3.7539740">
        <ele>429.0</ele>
        <time>2020-07-17T05:23:11Z</time>
      </trkpt>
      <trkpt lat="37.7266680" lon="-3.7542570">
        <ele>429.2</ele>
        <time>2020-07-17T05:23:15Z</time>
      </trkpt>
      <trkpt lat="37.7263880" lon="-3.7546410">
        <ele>428.6</ele>
        <time>2020-07-17T05:23:21Z</time>
      </trkpt>
      <trkpt lat="37.7260970" lon="-3.7551140">
        <ele>428.4</ele>
        <time>2020-07-17T05:23:28Z</time>
      </trkpt>
      <trkpt lat="37.7257390" lon="-3.7556530">
        <ele>428.0</ele>
        <time>2020-07-17T05:23:36Z</time>
      </trkpt>
      <trkpt lat="37.7255670" lon="-3.7558710">
        <ele>427.8</ele>
        <time>2020-07-17T05:23:39Z</time>
      </trkpt>
      <trkpt lat="37.7254600" lon="-3.7560080">
        <ele>427.4</ele>
        <time>2020-07-17T05:23:41Z</time>
      </trkpt>
      <trkpt lat="37.7253600" lon="-3.7561630">
        <ele>426.6</ele>
        <time>2020-07-17T05:23:43Z</time>
      </trkpt>
      <trkpt lat="37.7251380" lon="-3.7565620">
        <ele>427.2</ele>
        <time>2020-07-17T05:23:49Z</time>
      </trkpt>
      <trkpt lat="37.7250660" lon="-3.7566790">
        <ele>427.8</ele>
        <time>2020-07-17T05:23:51Z</time>
      </trkpt>
      <trkpt lat="37.7249210" lon="-3.7568590">
        <ele>428.4</ele>
        <time>2020-07-17T05:23:54Z</time>
      </trkpt>
      <trkpt lat="37.7248680" lon="-3.7569130">
        <ele>428.4</ele>
        <time>2020-07-17T05:23:55Z</time>
      </trkpt>
      <trkpt lat="37.7244520" lon="-3.7572940">
        <ele>428.8</ele>
        <time>2020-07-17T05:24:03Z</time>
      </trkpt>
      <trkpt lat="37.7241530" lon="-3.7575510">
        <ele>430.0</ele>
        <time>2020-07-17T05:24:09Z</time>
      </trkpt>
      <trkpt lat="37.7240040" lon="-3.7577150">
        <ele>430.4</ele>
        <time>2020-07-17T05:24:12Z</time>
      </trkpt>
      <trkpt lat="37.7238150" lon="-3.7580730">
        <ele>430.0</ele>
        <time>2020-07-17T05:24:17Z</time>
      </trkpt>
      <trkpt lat="37.7235400" lon="-3.7586470">
        <ele>430.2</ele>
        <time>2020-07-17T05:24:25Z</time>
      </trkpt>
      <trkpt lat="37.7233300" lon="-3.7588980">
        <ele>429.8</ele>
        <time>2020-07-17T05:24:29Z</time>
      </trkpt>
      <trkpt lat="37.7230800" lon="-3.7591410">
        <ele>428.8</ele>
        <time>2020-07-17T05:24:33Z</time>
      </trkpt>
      <trkpt lat="37.7229250" lon="-3.7593130">
        <ele>428.6</ele>
        <time>2020-07-17T05:24:36Z</time>
      </trkpt>
      <trkpt lat="37.7226730" lon="-3.7596710">
        <ele>429.6</ele>
        <time>2020-07-17T05:24:42Z</time>
      </trkpt>
      <trkpt lat="37.7225290" lon="-3.7599300">
        <ele>430.0</ele>
        <time>2020-07-17T05:24:46Z</time>
      </trkpt>
      <trkpt lat="37.7224180" lon="-3.7601320">
        <ele>430.2</ele>
        <time>2020-07-17T05:24:49Z</time>
      </trkpt>
      <trkpt lat="37.7223410" lon="-3.7602380">
        <ele>430.4</ele>
        <time>2020-07-17T05:24:51Z</time>
      </trkpt>
      <trkpt lat="37.7222450" lon="-3.7603270">
        <ele>430.4</ele>
        <time>2020-07-17T05:24:53Z</time>
      </trkpt>
      <trkpt lat="37.7219740" lon="-3.7604590">
        <ele>430.0</ele>
        <time>2020-07-17T05:24:57Z</time>
      </trkpt>
      <trkpt lat="37.7216600" lon="-3.7605790">
        <ele>429.0</ele>
        <time>2020-07-17T05:25:01Z</time>
      </trkpt>
      <trkpt lat="37.7214230" lon="-3.7606890">
        <ele>428.0</ele>
        <time>2020-07-17T05:25:04Z</time>
      </trkpt>
      <trkpt lat="37.7213580" lon="-3.7607300">
        <ele>427.6</ele>
        <time>2020-07-17T05:25:05Z</time>
      </trkpt>
      <trkpt lat="37.7211490" lon="-3.7608810">
        <ele>427.0</ele>
        <time>2020-07-17T05:25:08Z</time>
      </trkpt>
      <trkpt lat="37.7210210" lon="-3.7609860">
        <ele>426.6</ele>
        <time>2020-07-17T05:25:10Z</time>
      </trkpt>
      <trkpt lat="37.7205070" lon="-3.7613500">
        <ele>425.8</ele>
        <time>2020-07-17T05:25:18Z</time>
      </trkpt>
      <trkpt lat="37.7204400" lon="-3.7613710">
        <ele>426.0</ele>
        <time>2020-07-17T05:25:19Z</time>
      </trkpt>
      <trkpt lat="37.7202450" lon="-3.7614420">
        <ele>425.6</ele>
        <time>2020-07-17T05:25:22Z</time>
      </trkpt>
      <trkpt lat="37.7201990" lon="-3.7614910">
        <ele>425.6</ele>
        <time>2020-07-17T05:25:23Z</time>
      </trkpt>
      <trkpt lat="37.7201360" lon="-3.7617320">
        <ele>425.2</ele>
        <time>2020-07-17T05:25:26Z</time>
      </trkpt>
      <trkpt lat="37.7201110" lon="-3.7619110">
        <ele>425.0</ele>
        <time>2020-07-17T05:25:28Z</time>
      </trkpt>
      <trkpt lat="37.7200970" lon="-3.7622890">
        <ele>424.4</ele>
        <time>2020-07-17T05:25:32Z</time>
      </trkpt>
      <trkpt lat="37.7201380" lon="-3.7625800">
        <ele>424.8</ele>
        <time>2020-07-17T05:25:36Z</time>
      </trkpt>
      <trkpt lat="37.7201600" lon="-3.7627140">
        <ele>425.6</ele>
        <time>2020-07-17T05:25:38Z</time>
      </trkpt>
      <trkpt lat="37.7202060" lon="-3.7630040">
        <ele>426.2</ele>
        <time>2020-07-17T05:25:42Z</time>
      </trkpt>
      <trkpt lat="37.7202070" lon="-3.7630760">
        <ele>426.0</ele>
        <time>2020-07-17T05:25:43Z</time>
      </trkpt>
      <trkpt lat="37.7201780" lon="-3.7633490">
        <ele>425.8</ele>
        <time>2020-07-17T05:25:47Z</time>
      </trkpt>
      <trkpt lat="37.7201650" lon="-3.7634140">
        <ele>425.8</ele>
        <time>2020-07-17T05:25:48Z</time>
      </trkpt>
      <trkpt lat="37.7200990" lon="-3.7634990">
        <ele>425.8</ele>
        <time>2020-07-17T05:25:50Z</time>
      </trkpt>
      <trkpt lat="37.7199950" lon="-3.7634760">
        <ele>425.6</ele>
        <time>2020-07-17T05:25:52Z</time>
      </trkpt>
      <trkpt lat="37.7199390" lon="-3.7634660">
        <ele>425.6</ele>
        <time>2020-07-17T05:25:53Z</time>
      </trkpt>
      <trkpt lat="37.7197400" lon="-3.7634730">
        <ele>425.2</ele>
        <time>2020-07-17T05:25:56Z</time>
      </trkpt>
      <trkpt lat="37.7194620" lon="-3.7635180">
        <ele>424.4</ele>
        <time>2020-07-17T05:26:00Z</time>
      </trkpt>
      <trkpt lat="37.7191920" lon="-3.7635650">
        <ele>424.2</ele>
        <time>2020-07-17T05:26:04Z</time>
      </trkpt>
      <trkpt lat="37.7189390" lon="-3.7635850">
        <ele>424.4</ele>
        <time>2020-07-17T05:26:08Z</time>
      </trkpt>
      <trkpt lat="37.7187620" lon="-3.7635900">
        <ele>424.6</ele>
        <time>2020-07-17T05:26:11Z</time>
      </trkpt>
      <trkpt lat="37.7186930" lon="-3.7636000">
        <ele>424.6</ele>
        <time>2020-07-17T05:26:12Z</time>
      </trkpt>
      <trkpt lat="37.7185100" lon="-3.7636610">
        <ele>425.0</ele>
        <time>2020-07-17T05:26:15Z</time>
      </trkpt>
      <trkpt lat="37.7184550" lon="-3.7636870">
        <ele>425.2</ele>
        <time>2020-07-17T05:26:16Z</time>
      </trkpt>
      <trkpt lat="37.7183400" lon="-3.7637450">
        <ele>425.6</ele>
        <time>2020-07-17T05:26:18Z</time>
      </trkpt>
      <trkpt lat="37.7179400" lon="-3.7639270">
        <ele>426.2</ele>
        <time>2020-07-17T05:26:25Z</time>
      </trkpt>
      <trkpt lat="37.7174320" lon="-3.7641500">
        <ele>426.6</ele>
        <time>2020-07-17T05:26:34Z</time>
      </trkpt>
      <trkpt lat="37.7173200" lon="-3.7641860">
        <ele>426.6</ele>
        <time>2020-07-17T05:26:36Z</time>
      </trkpt>
      <trkpt lat="37.7171980" lon="-3.7642140">
        <ele>426.8</ele>
        <time>2020-07-17T05:26:38Z</time>
      </trkpt>
      <trkpt lat="37.7169590" lon="-3.7642660">
        <ele>427.0</ele>
        <time>2020-07-17T05:26:42Z</time>
      </trkpt>
      <trkpt lat="37.7167240" lon="-3.7643420">
        <ele>427.0</ele>
        <time>2020-07-17T05:26:46Z</time>
      </trkpt>
      <trkpt lat="37.7166170" lon="-3.7644070">
        <ele>427.2</ele>
        <time>2020-07-17T05:26:48Z</time>
      </trkpt>
      <trkpt lat="37.7162670" lon="-3.7646880">
        <ele>427.6</ele>
        <time>2020-07-17T05:26:55Z</time>
      </trkpt>
      <trkpt lat="37.7159390" lon="-3.7648280">
        <ele>428.0</ele>
        <time>2020-07-17T05:27:01Z</time>
      </trkpt>
      <trkpt lat="37.7156450" lon="-3.7647880">
        <ele>428.4</ele>
        <time>2020-07-17T05:27:06Z</time>
      </trkpt>
      <trkpt lat="37.7154700" lon="-3.7647450">
        <ele>428.8</ele>
        <time>2020-07-17T05:27:09Z</time>
      </trkpt>
      <trkpt lat="37.7151930" lon="-3.7647220">
        <ele>429.0</ele>
        <time>2020-07-17T05:27:14Z</time>
      </trkpt>
      <trkpt lat="37.7150420" lon="-3.7647450">
        <ele>429.2</ele>
        <time>2020-07-17T05:27:17Z</time>
      </trkpt>
      <trkpt lat="37.7149010" lon="-3.7647990">
        <ele>429.8</ele>
        <time>2020-07-17T05:27:20Z</time>
      </trkpt>
      <trkpt lat="37.7148600" lon="-3.7648190">
        <ele>430.0</ele>
        <time>2020-07-17T05:27:21Z</time>
      </trkpt>
      <trkpt lat="37.7147440" lon="-3.7648910">
        <ele>430.8</ele>
        <time>2020-07-17T05:27:24Z</time>
      </trkpt>
      <trkpt lat="37.7146520" lon="-3.7649580">
        <ele>432.0</ele>
        <time>2020-07-17T05:27:27Z</time>
      </trkpt>
      <trkpt lat="37.7145460" lon="-3.7650280">
        <ele>433.2</ele>
        <time>2020-07-17T05:27:31Z</time>
      </trkpt>
      <trkpt lat="37.7144650" lon="-3.7650810">
        <ele>434.2</ele>
        <time>2020-07-17T05:27:34Z</time>
      </trkpt>
      <trkpt lat="37.7144400" lon="-3.7650980">
        <ele>434.4</ele>
        <time>2020-07-17T05:27:35Z</time>
      </trkpt>
      <trkpt lat="37.7142990" lon="-3.7651750">
        <ele>435.4</ele>
        <time>2020-07-17T05:27:40Z</time>
      </trkpt>
      <trkpt lat="37.7142730" lon="-3.7651870">
        <ele>435.8</ele>
        <time>2020-07-17T05:27:41Z</time>
      </trkpt>
      <trkpt lat="37.7142120" lon="-3.7652210">
        <ele>436.4</ele>
        <time>2020-07-17T05:27:43Z</time>
      </trkpt>
      <trkpt lat="37.7140910" lon="-3.7652770">
        <ele>437.6</ele>
        <time>2020-07-17T05:27:47Z</time>
      </trkpt>
      <trkpt lat="37.7139990" lon="-3.7653040">
        <ele>438.6</ele>
        <time>2020-07-17T05:27:50Z</time>
      </trkpt>
      <trkpt lat="37.7139690" lon="-3.7653070">
        <ele>438.8</ele>
        <time>2020-07-17T05:27:51Z</time>
      </trkpt>
      <trkpt lat="37.7138470" lon="-3.7652570">
        <ele>439.6</ele>
        <time>2020-07-17T05:27:55Z</time>
      </trkpt>
      <trkpt lat="37.7138300" lon="-3.7652270">
        <ele>439.8</ele>
        <time>2020-07-17T05:27:56Z</time>
      </trkpt>
      <trkpt lat="37.7138130" lon="-3.7651230">
        <ele>440.8</ele>
        <time>2020-07-17T05:27:59Z</time>
      </trkpt>
      <trkpt lat="37.7138130" lon="-3.7650870">
        <ele>441.0</ele>
        <time>2020-07-17T05:28:00Z</time>
      </trkpt>
      <trkpt lat="37.7138170" lon="-3.7649300">
        <ele>442.4</ele>
        <time>2020-07-17T05:28:04Z</time>
      </trkpt>
      <trkpt lat="37.7138080" lon="-3.7647730">
        <ele>443.4</ele>
        <time>2020-07-17T05:28:08Z</time>
      </trkpt>
      <trkpt lat="37.7137600" lon="-3.7646750">
        <ele>444.2</ele>
        <time>2020-07-17T05:28:11Z</time>
      </trkpt>
      <trkpt lat="37.7137000" lon="-3.7646610">
        <ele>444.6</ele>
        <time>2020-07-17T05:28:13Z</time>
      </trkpt>
      <trkpt lat="37.7136720" lon="-3.7646740">
        <ele>444.8</ele>
        <time>2020-07-17T05:28:14Z</time>
      </trkpt>
      <trkpt lat="37.7136210" lon="-3.7647400">
        <ele>445.8</ele>
        <time>2020-07-17T05:28:17Z</time>
      </trkpt>
      <trkpt lat="37.7135880" lon="-3.7647880">
        <ele>446.4</ele>
        <time>2020-07-17T05:28:19Z</time>
      </trkpt>
      <trkpt lat="37.7135600" lon="-3.7648400">
        <ele>447.0</ele>
        <time>2020-07-17T05:28:21Z</time>
      </trkpt>
      <trkpt lat="37.7134990" lon="-3.7649340">
        <ele>448.0</ele>
        <time>2020-07-17T05:28:25Z</time>
      </trkpt>
      <trkpt lat="37.7134840" lon="-3.7649570">
        <ele>448.2</ele>
        <time>2020-07-17T05:28:26Z</time>
      </trkpt>
      <trkpt lat="37.7134070" lon="-3.7650530">
        <ele>449.4</ele>
        <time>2020-07-17T05:28:30Z</time>
      </trkpt>
      <trkpt lat="37.7133530" lon="-3.7651240">
        <ele>450.2</ele>
        <time>2020-07-17T05:28:33Z</time>
      </trkpt>
      <trkpt lat="37.7133320" lon="-3.7651490">
        <ele>450.4</ele>
        <time>2020-07-17T05:28:34Z</time>
      </trkpt>
      <trkpt lat="37.7132490" lon="-3.7652290">
        <ele>451.6</ele>
        <time>2020-07-17T05:28:38Z</time>
      </trkpt>
      <trkpt lat="37.7132040" lon="-3.7652670">
        <ele>452.2</ele>
        <time>2020-07-17T05:28:40Z</time>
      </trkpt>
      <trkpt lat="37.7131350" lon="-3.7653050">
        <ele>452.8</ele>
        <time>2020-07-17T05:28:43Z</time>
      </trkpt>
      <trkpt lat="37.7130660" lon="-3.7653380">
        <ele>453.4</ele>
        <time>2020-07-17T05:28:46Z</time>
      </trkpt>
      <trkpt lat="37.7129920" lon="-3.7653630">
        <ele>453.8</ele>
        <time>2020-07-17T05:28:49Z</time>
      </trkpt>
      <trkpt lat="37.7128960" lon="-3.7653860">
        <ele>454.8</ele>
        <time>2020-07-17T05:28:53Z</time>
      </trkpt>
      <trkpt lat="37.7128690" lon="-3.7653930">
        <ele>455.2</ele>
        <time>2020-07-17T05:28:54Z</time>
      </trkpt>
      <trkpt lat="37.7127750" lon="-3.7654170">
        <ele>456.4</ele>
        <time>2020-07-17T05:28:58Z</time>
      </trkpt>
      <trkpt lat="37.7126790" lon="-3.7654310">
        <ele>457.6</ele>
        <time>2020-07-17T05:29:02Z</time>
      </trkpt>
      <trkpt lat="37.7125820" lon="-3.7654320">
        <ele>458.6</ele>
        <time>2020-07-17T05:29:06Z</time>
      </trkpt>
      <trkpt lat="37.7124480" lon="-3.7654320">
        <ele>459.6</ele>
        <time>2020-07-17T05:29:11Z</time>
      </trkpt>
      <trkpt lat="37.7122290" lon="-3.7654390">
        <ele>460.6</ele>
        <time>2020-07-17T05:29:18Z</time>
      </trkpt>
      <trkpt lat="37.7121680" lon="-3.7654450">
        <ele>461.0</ele>
        <time>2020-07-17T05:29:20Z</time>
      </trkpt>
      <trkpt lat="37.7120490" lon="-3.7654580">
        <ele>461.6</ele>
        <time>2020-07-17T05:29:24Z</time>
      </trkpt>
      <trkpt lat="37.7119030" lon="-3.7654800">
        <ele>462.8</ele>
        <time>2020-07-17T05:29:29Z</time>
      </trkpt>
      <trkpt lat="37.7117850" lon="-3.7655000">
        <ele>463.4</ele>
        <time>2020-07-17T05:29:33Z</time>
      </trkpt>
      <trkpt lat="37.7117260" lon="-3.7655140">
        <ele>463.8</ele>
        <time>2020-07-17T05:29:35Z</time>
      </trkpt>
      <trkpt lat="37.7115430" lon="-3.7655550">
        <ele>464.8</ele>
        <time>2020-07-17T05:29:41Z</time>
      </trkpt>
      <trkpt lat="37.7114040" lon="-3.7655890">
        <ele>466.0</ele>
        <time>2020-07-17T05:29:46Z</time>
      </trkpt>
      <trkpt lat="37.7112630" lon="-3.7656250">
        <ele>467.0</ele>
        <time>2020-07-17T05:29:51Z</time>
      </trkpt>
      <trkpt lat="37.7111260" lon="-3.7656510">
        <ele>468.0</ele>
        <time>2020-07-17T05:29:56Z</time>
      </trkpt>
      <trkpt lat="37.7110970" lon="-3.7656530">
        <ele>468.2</ele>
        <time>2020-07-17T05:29:57Z</time>
      </trkpt>
      <trkpt lat="37.7109950" lon="-3.7656550">
        <ele>469.4</ele>
        <time>2020-07-17T05:30:01Z</time>
      </trkpt>
      <trkpt lat="37.7108960" lon="-3.7656530">
        <ele>470.4</ele>
        <time>2020-07-17T05:30:05Z</time>
      </trkpt>
      <trkpt lat="37.7108710" lon="-3.7656530">
        <ele>470.6</ele>
        <time>2020-07-17T05:30:06Z</time>
      </trkpt>
      <trkpt lat="37.7108010" lon="-3.7656530">
        <ele>471.6</ele>
        <time>2020-07-17T05:30:09Z</time>
      </trkpt>
      <trkpt lat="37.7107110" lon="-3.7656380">
        <ele>472.6</ele>
        <time>2020-07-17T05:30:13Z</time>
      </trkpt>
      <trkpt lat="37.7106850" lon="-3.7656340">
        <ele>473.0</ele>
        <time>2020-07-17T05:30:14Z</time>
      </trkpt>
      <trkpt lat="37.7105910" lon="-3.7656250">
        <ele>473.8</ele>
        <time>2020-07-17T05:30:18Z</time>
      </trkpt>
      <trkpt lat="37.7104740" lon="-3.7656160">
        <ele>474.8</ele>
        <time>2020-07-17T05:30:23Z</time>
      </trkpt>
      <trkpt lat="37.7104280" lon="-3.7656130">
        <ele>475.4</ele>
        <time>2020-07-17T05:30:25Z</time>
      </trkpt>
      <trkpt lat="37.7103630" lon="-3.7656110">
        <ele>476.0</ele>
        <time>2020-07-17T05:30:28Z</time>
      </trkpt>
      <trkpt lat="37.7102720" lon="-3.7656160">
        <ele>477.2</ele>
        <time>2020-07-17T05:30:32Z</time>
      </trkpt>
      <trkpt lat="37.7102500" lon="-3.7656180">
        <ele>477.4</ele>
        <time>2020-07-17T05:30:33Z</time>
      </trkpt>
      <trkpt lat="37.7101820" lon="-3.7656270">
        <ele>478.2</ele>
        <time>2020-07-17T05:30:36Z</time>
      </trkpt>
      <trkpt lat="37.7100920" lon="-3.7656370">
        <ele>479.2</ele>
        <time>2020-07-17T05:30:40Z</time>
      </trkpt>
      <trkpt lat="37.7100240" lon="-3.7656450">
        <ele>480.0</ele>
        <time>2020-07-17T05:30:43Z</time>
      </trkpt>
      <trkpt lat="37.7099820" lon="-3.7656490">
        <ele>480.4</ele>
        <time>2020-07-17T05:30:45Z</time>
      </trkpt>
      <trkpt lat="37.7098980" lon="-3.7656480">
        <ele>481.6</ele>
        <time>2020-07-17T05:30:49Z</time>
      </trkpt>
      <trkpt lat="37.7098600" lon="-3.7656480">
        <ele>482.2</ele>
        <time>2020-07-17T05:30:51Z</time>
      </trkpt>
      <trkpt lat="37.7098200" lon="-3.7656430">
        <ele>482.8</ele>
        <time>2020-07-17T05:30:53Z</time>
      </trkpt>
      <trkpt lat="37.7097350" lon="-3.7656240">
        <ele>483.8</ele>
        <time>2020-07-17T05:30:57Z</time>
      </trkpt>
      <trkpt lat="37.7097150" lon="-3.7656200">
        <ele>484.2</ele>
        <time>2020-07-17T05:30:58Z</time>
      </trkpt>
      <trkpt lat="37.7096540" lon="-3.7655900">
        <ele>485.0</ele>
        <time>2020-07-17T05:31:01Z</time>
      </trkpt>
      <trkpt lat="37.7095760" lon="-3.7655430">
        <ele>486.0</ele>
        <time>2020-07-17T05:31:05Z</time>
      </trkpt>
      <trkpt lat="37.7095570" lon="-3.7655320">
        <ele>486.0</ele>
        <time>2020-07-17T05:31:06Z</time>
      </trkpt>
      <trkpt lat="37.7094600" lon="-3.7654780">
        <ele>487.2</ele>
        <time>2020-07-17T05:31:11Z</time>
      </trkpt>
      <trkpt lat="37.7094210" lon="-3.7654510">
        <ele>487.8</ele>
        <time>2020-07-17T05:31:13Z</time>
      </trkpt>
      <trkpt lat="37.7093850" lon="-3.7654190">
        <ele>488.6</ele>
        <time>2020-07-17T05:31:15Z</time>
      </trkpt>
      <trkpt lat="37.7093300" lon="-3.7653730">
        <ele>489.6</ele>
        <time>2020-07-17T05:31:18Z</time>
      </trkpt>
      <trkpt lat="37.7092710" lon="-3.7653330">
        <ele>490.2</ele>
        <time>2020-07-17T05:31:21Z</time>
      </trkpt>
      <trkpt lat="37.7092280" lon="-3.7653030">
        <ele>490.6</ele>
        <time>2020-07-17T05:31:23Z</time>
      </trkpt>
      <trkpt lat="37.7091180" lon="-3.7652220">
        <ele>491.8</ele>
        <time>2020-07-17T05:31:28Z</time>
      </trkpt>
      <trkpt lat="37.7090350" lon="-3.7651530">
        <ele>493.0</ele>
        <time>2020-07-17T05:31:32Z</time>
      </trkpt>
      <trkpt lat="37.7089560" lon="-3.7650870">
        <ele>494.0</ele>
        <time>2020-07-17T05:31:36Z</time>
      </trkpt>
      <trkpt lat="37.7088730" lon="-3.7650270">
        <ele>495.0</ele>
        <time>2020-07-17T05:31:40Z</time>
      </trkpt>
      <trkpt lat="37.7088540" lon="-3.7650130">
        <ele>495.2</ele>
        <time>2020-07-17T05:31:41Z</time>
      </trkpt>
      <trkpt lat="37.7087560" lon="-3.7649200">
        <ele>496.2</ele>
        <time>2020-07-17T05:31:46Z</time>
      </trkpt>
      <trkpt lat="37.7086750" lon="-3.7648480">
        <ele>497.0</ele>
        <time>2020-07-17T05:31:50Z</time>
      </trkpt>
      <trkpt lat="37.7086330" lon="-3.7648140">
        <ele>497.6</ele>
        <time>2020-07-17T05:31:52Z</time>
      </trkpt>
      <trkpt lat="37.7085060" lon="-3.7647000">
        <ele>498.8</ele>
        <time>2020-07-17T05:31:58Z</time>
      </trkpt>
      <trkpt lat="37.7084620" lon="-3.7646620">
        <ele>499.2</ele>
        <time>2020-07-17T05:32:00Z</time>
      </trkpt>
      <trkpt lat="37.7083640" lon="-3.7645900">
        <ele>500.0</ele>
        <time>2020-07-17T05:32:04Z</time>
      </trkpt>
      <trkpt lat="37.7082230" lon="-3.7644980">
        <ele>500.8</ele>
        <time>2020-07-17T05:32:09Z</time>
      </trkpt>
      <trkpt lat="37.7081680" lon="-3.7644670">
        <ele>501.0</ele>
        <time>2020-07-17T05:32:11Z</time>
      </trkpt>
      <trkpt lat="37.7079530" lon="-3.7643570">
        <ele>502.0</ele>
        <time>2020-07-17T05:32:18Z</time>
      </trkpt>
      <trkpt lat="37.7077990" lon="-3.7642830">
        <ele>502.8</ele>
        <time>2020-07-17T05:32:23Z</time>
      </trkpt>
      <trkpt lat="37.7077380" lon="-3.7642490">
        <ele>503.2</ele>
        <time>2020-07-17T05:32:25Z</time>
      </trkpt>
      <trkpt lat="37.7075450" lon="-3.7641460">
        <ele>504.2</ele>
        <time>2020-07-17T05:32:32Z</time>
      </trkpt>
      <trkpt lat="37.7075210" lon="-3.7641330">
        <ele>504.4</ele>
        <time>2020-07-17T05:32:33Z</time>
      </trkpt>
      <trkpt lat="37.7074270" lon="-3.7640840">
        <ele>505.6</ele>
        <time>2020-07-17T05:32:37Z</time>
      </trkpt>
      <trkpt lat="37.7073610" lon="-3.7640500">
        <ele>506.6</ele>
        <time>2020-07-17T05:32:40Z</time>
      </trkpt>
      <trkpt lat="37.7072940" lon="-3.7640210">
        <ele>507.8</ele>
        <time>2020-07-17T05:32:43Z</time>
      </trkpt>
      <trkpt lat="37.7072730" lon="-3.7640110">
        <ele>508.0</ele>
        <time>2020-07-17T05:32:44Z</time>
      </trkpt>
      <trkpt lat="37.7072110" lon="-3.7639810">
        <ele>508.8</ele>
        <time>2020-07-17T05:32:47Z</time>
      </trkpt>
      <trkpt lat="37.7071030" lon="-3.7639320">
        <ele>509.8</ele>
        <time>2020-07-17T05:32:52Z</time>
      </trkpt>
      <trkpt lat="37.7070640" lon="-3.7639130">
        <ele>510.2</ele>
        <time>2020-07-17T05:32:54Z</time>
      </trkpt>
      <trkpt lat="37.7069870" lon="-3.7638690">
        <ele>511.0</ele>
        <time>2020-07-17T05:32:58Z</time>
      </trkpt>
      <trkpt lat="37.7069070" lon="-3.7638300">
        <ele>512.0</ele>
        <time>2020-07-17T05:33:02Z</time>
      </trkpt>
      <trkpt lat="37.7068670" lon="-3.7638100">
        <ele>512.6</ele>
        <time>2020-07-17T05:33:04Z</time>
      </trkpt>
      <trkpt lat="37.7068290" lon="-3.7637920">
        <ele>513.0</ele>
        <time>2020-07-17T05:33:06Z</time>
      </trkpt>
      <trkpt lat="37.7067300" lon="-3.7637480">
        <ele>514.2</ele>
        <time>2020-07-17T05:33:11Z</time>
      </trkpt>
      <trkpt lat="37.7066700" lon="-3.7637190">
        <ele>514.8</ele>
        <time>2020-07-17T05:33:14Z</time>
      </trkpt>
      <trkpt lat="37.7066340" lon="-3.7637000">
        <ele>515.2</ele>
        <time>2020-07-17T05:33:16Z</time>
      </trkpt>
      <trkpt lat="37.7065410" lon="-3.7636600">
        <ele>516.4</ele>
        <time>2020-07-17T05:33:21Z</time>
      </trkpt>
      <trkpt lat="37.7065050" lon="-3.7636420">
        <ele>517.0</ele>
        <time>2020-07-17T05:33:23Z</time>
      </trkpt>
      <trkpt lat="37.7064690" lon="-3.7636160">
        <ele>517.4</ele>
        <time>2020-07-17T05:33:25Z</time>
      </trkpt>
      <trkpt lat="37.7063960" lon="-3.7635820">
        <ele>518.6</ele>
        <time>2020-07-17T05:33:29Z</time>
      </trkpt>
      <trkpt lat="37.7063750" lon="-3.7635710">
        <ele>518.8</ele>
        <time>2020-07-17T05:33:30Z</time>
      </trkpt>
      <trkpt lat="37.7063010" lon="-3.7635330">
        <ele>519.8</ele>
        <time>2020-07-17T05:33:34Z</time>
      </trkpt>
      <trkpt lat="37.7062060" lon="-3.7634860">
        <ele>521.0</ele>
        <time>2020-07-17T05:33:39Z</time>
      </trkpt>
      <trkpt lat="37.7061150" lon="-3.7634400">
        <ele>522.0</ele>
        <time>2020-07-17T05:33:44Z</time>
      </trkpt>
      <trkpt lat="37.7060450" lon="-3.7634050">
        <ele>523.0</ele>
        <time>2020-07-17T05:33:48Z</time>
      </trkpt>
      <trkpt lat="37.7059670" lon="-3.7633860">
        <ele>524.2</ele>
        <time>2020-07-17T05:33:52Z</time>
      </trkpt>
      <trkpt lat="37.7058870" lon="-3.7633840">
        <ele>525.2</ele>
        <time>2020-07-17T05:33:56Z</time>
      </trkpt>
      <trkpt lat="37.7058660" lon="-3.7633880">
        <ele>525.4</ele>
        <time>2020-07-17T05:33:57Z</time>
      </trkpt>
      <trkpt lat="37.7057600" lon="-3.7634060">
        <ele>526.6</ele>
        <time>2020-07-17T05:34:02Z</time>
      </trkpt>
      <trkpt lat="37.7056740" lon="-3.7634490">
        <ele>527.4</ele>
        <time>2020-07-17T05:34:06Z</time>
      </trkpt>
      <trkpt lat="37.7056280" lon="-3.7634850">
        <ele>527.8</ele>
        <time>2020-07-17T05:34:08Z</time>
      </trkpt>
      <trkpt lat="37.7055490" lon="-3.7635790">
        <ele>528.8</ele>
        <time>2020-07-17T05:34:12Z</time>
      </trkpt>
      <trkpt lat="37.7055190" lon="-3.7636360">
        <ele>529.2</ele>
        <time>2020-07-17T05:34:14Z</time>
      </trkpt>
      <trkpt lat="37.7054810" lon="-3.7637240">
        <ele>529.8</ele>
        <time>2020-07-17T05:34:17Z</time>
      </trkpt>
      <trkpt lat="37.7054220" lon="-3.7638810">
        <ele>531.0</ele>
        <time>2020-07-17T05:34:22Z</time>
      </trkpt>
      <trkpt lat="37.7054110" lon="-3.7639120">
        <ele>531.2</ele>
        <time>2020-07-17T05:34:23Z</time>
      </trkpt>
      <trkpt lat="37.7053500" lon="-3.7641110">
        <ele>532.2</ele>
        <time>2020-07-17T05:34:29Z</time>
      </trkpt>
      <trkpt lat="37.7053260" lon="-3.7641780">
        <ele>532.8</ele>
        <time>2020-07-17T05:34:31Z</time>
      </trkpt>
      <trkpt lat="37.7052880" lon="-3.7642760">
        <ele>533.6</ele>
        <time>2020-07-17T05:34:34Z</time>
      </trkpt>
      <trkpt lat="37.7052320" lon="-3.7644360">
        <ele>534.6</ele>
        <time>2020-07-17T05:34:39Z</time>
      </trkpt>
      <trkpt lat="37.7051950" lon="-3.7645650">
        <ele>535.4</ele>
        <time>2020-07-17T05:34:43Z</time>
      </trkpt>
      <trkpt lat="37.7051850" lon="-3.7645980">
        <ele>535.6</ele>
        <time>2020-07-17T05:34:44Z</time>
      </trkpt>
      <trkpt lat="37.7051200" lon="-3.7648060">
        <ele>536.6</ele>
        <time>2020-07-17T05:34:50Z</time>
      </trkpt>
      <trkpt lat="37.7050900" lon="-3.7649110">
        <ele>537.0</ele>
        <time>2020-07-17T05:34:53Z</time>
      </trkpt>
      <trkpt lat="37.7050610" lon="-3.7650690">
        <ele>537.8</ele>
        <time>2020-07-17T05:34:57Z</time>
      </trkpt>
      <trkpt lat="37.7050490" lon="-3.7652640">
        <ele>538.6</ele>
        <time>2020-07-17T05:35:02Z</time>
      </trkpt>
      <trkpt lat="37.7050550" lon="-3.7653440">
        <ele>539.0</ele>
        <time>2020-07-17T05:35:04Z</time>
      </trkpt>
      <trkpt lat="37.7050730" lon="-3.7655370">
        <ele>540.0</ele>
        <time>2020-07-17T05:35:09Z</time>
      </trkpt>
      <trkpt lat="37.7050840" lon="-3.7656090">
        <ele>540.4</ele>
        <time>2020-07-17T05:35:11Z</time>
      </trkpt>
      <trkpt lat="37.7051030" lon="-3.7657280">
        <ele>541.0</ele>
        <time>2020-07-17T05:35:14Z</time>
      </trkpt>
      <trkpt lat="37.7051250" lon="-3.7658800">
        <ele>542.2</ele>
        <time>2020-07-17T05:35:18Z</time>
      </trkpt>
      <trkpt lat="37.7051310" lon="-3.7660340">
        <ele>543.0</ele>
        <time>2020-07-17T05:35:22Z</time>
      </trkpt>
      <trkpt lat="37.7051310" lon="-3.7660710">
        <ele>543.2</ele>
        <time>2020-07-17T05:35:23Z</time>
      </trkpt>
      <trkpt lat="37.7051280" lon="-3.7662600">
        <ele>544.4</ele>
        <time>2020-07-17T05:35:28Z</time>
      </trkpt>
      <trkpt lat="37.7051110" lon="-3.7663690">
        <ele>545.0</ele>
        <time>2020-07-17T05:35:31Z</time>
      </trkpt>
      <trkpt lat="37.7050860" lon="-3.7664400">
        <ele>545.6</ele>
        <time>2020-07-17T05:35:33Z</time>
      </trkpt>
      <trkpt lat="37.7050230" lon="-3.7665190">
        <ele>546.2</ele>
        <time>2020-07-17T05:35:36Z</time>
      </trkpt>
      <trkpt lat="37.7049680" lon="-3.7665540">
        <ele>546.6</ele>
        <time>2020-07-17T05:35:38Z</time>
      </trkpt>
      <trkpt lat="37.7048460" lon="-3.7665890">
        <ele>547.4</ele>
        <time>2020-07-17T05:35:42Z</time>
      </trkpt>
      <trkpt lat="37.7048140" lon="-3.7665900">
        <ele>547.6</ele>
        <time>2020-07-17T05:35:43Z</time>
      </trkpt>
      <trkpt lat="37.7046970" lon="-3.7665740">
        <ele>548.6</ele>
        <time>2020-07-17T05:35:47Z</time>
      </trkpt>
      <trkpt lat="37.7046060" lon="-3.7665570">
        <ele>549.4</ele>
        <time>2020-07-17T05:35:50Z</time>
      </trkpt>
      <trkpt lat="37.7045190" lon="-3.7665350">
        <ele>549.8</ele>
        <time>2020-07-17T05:35:53Z</time>
      </trkpt>
      <trkpt lat="37.7043290" lon="-3.7664880">
        <ele>550.6</ele>
        <time>2020-07-17T05:35:59Z</time>
      </trkpt>
      <trkpt lat="37.7042680" lon="-3.7664730">
        <ele>551.0</ele>
        <time>2020-07-17T05:36:01Z</time>
      </trkpt>
      <trkpt lat="37.7041210" lon="-3.7664470">
        <ele>551.8</ele>
        <time>2020-07-17T05:36:06Z</time>
      </trkpt>
      <trkpt lat="37.7040930" lon="-3.7664350">
        <ele>552.2</ele>
        <time>2020-07-17T05:36:07Z</time>
      </trkpt>
      <trkpt lat="37.7039650" lon="-3.7664020">
        <ele>553.2</ele>
        <time>2020-07-17T05:36:12Z</time>
      </trkpt>
      <trkpt lat="37.7039110" lon="-3.7663900">
        <ele>553.8</ele>
        <time>2020-07-17T05:36:14Z</time>
      </trkpt>
      <trkpt lat="37.7038350" lon="-3.7663680">
        <ele>554.4</ele>
        <time>2020-07-17T05:36:17Z</time>
      </trkpt>
      <trkpt lat="37.7036830" lon="-3.7663280">
        <ele>555.6</ele>
        <time>2020-07-17T05:36:23Z</time>
      </trkpt>
      <trkpt lat="37.7035540" lon="-3.7663080">
        <ele>556.6</ele>
        <time>2020-07-17T05:36:28Z</time>
      </trkpt>
      <trkpt lat="37.7034270" lon="-3.7663020">
        <ele>557.8</ele>
        <time>2020-07-17T05:36:33Z</time>
      </trkpt>
      <trkpt lat="37.7033740" lon="-3.7663120">
        <ele>558.0</ele>
        <time>2020-07-17T05:36:35Z</time>
      </trkpt>
      <trkpt lat="37.7032640" lon="-3.7663420">
        <ele>559.0</ele>
        <time>2020-07-17T05:36:39Z</time>
      </trkpt>
      <trkpt lat="37.7031820" lon="-3.7663710">
        <ele>559.6</ele>
        <time>2020-07-17T05:36:42Z</time>
      </trkpt>
      <trkpt lat="37.7031280" lon="-3.7663880">
        <ele>560.0</ele>
        <time>2020-07-17T05:36:44Z</time>
      </trkpt>
      <trkpt lat="37.7029430" lon="-3.7664460">
        <ele>561.0</ele>
        <time>2020-07-17T05:36:51Z</time>
      </trkpt>
      <trkpt lat="37.7028880" lon="-3.7664540">
        <ele>561.4</ele>
        <time>2020-07-17T05:36:53Z</time>
      </trkpt>
      <trkpt lat="37.7027720" lon="-3.7664610">
        <ele>562.2</ele>
        <time>2020-07-17T05:36:57Z</time>
      </trkpt>
      <trkpt lat="37.7026600" lon="-3.7664220">
        <ele>562.8</ele>
        <time>2020-07-17T05:37:01Z</time>
      </trkpt>
      <trkpt lat="37.7026050" lon="-3.7663900">
        <ele>563.2</ele>
        <time>2020-07-17T05:37:03Z</time>
      </trkpt>
      <trkpt lat="37.7024760" lon="-3.7663030">
        <ele>564.4</ele>
        <time>2020-07-17T05:37:08Z</time>
      </trkpt>
      <trkpt lat="37.7024270" lon="-3.7662740">
        <ele>564.6</ele>
        <time>2020-07-17T05:37:10Z</time>
      </trkpt>
      <trkpt lat="37.7023290" lon="-3.7662180">
        <ele>565.4</ele>
        <time>2020-07-17T05:37:14Z</time>
      </trkpt>
      <trkpt lat="37.7022300" lon="-3.7661610">
        <ele>566.2</ele>
        <time>2020-07-17T05:37:18Z</time>
      </trkpt>
      <trkpt lat="37.7022060" lon="-3.7661470">
        <ele>566.6</ele>
        <time>2020-07-17T05:37:19Z</time>
      </trkpt>
      <trkpt lat="37.7020930" lon="-3.7660830">
        <ele>567.6</ele>
        <time>2020-07-17T05:37:24Z</time>
      </trkpt>
      <trkpt lat="37.7020080" lon="-3.7660260">
        <ele>568.6</ele>
        <time>2020-07-17T05:37:28Z</time>
      </trkpt>
      <trkpt lat="37.7019870" lon="-3.7660140">
        <ele>569.0</ele>
        <time>2020-07-17T05:37:29Z</time>
      </trkpt>
      <trkpt lat="37.7018970" lon="-3.7659560">
        <ele>569.8</ele>
        <time>2020-07-17T05:37:33Z</time>
      </trkpt>
      <trkpt lat="37.7018050" lon="-3.7659040">
        <ele>571.0</ele>
        <time>2020-07-17T05:37:37Z</time>
      </trkpt>
      <trkpt lat="37.7017170" lon="-3.7658530">
        <ele>571.8</ele>
        <time>2020-07-17T05:37:41Z</time>
      </trkpt>
      <trkpt lat="37.7016930" lon="-3.7658370">
        <ele>572.2</ele>
        <time>2020-07-17T05:37:42Z</time>
      </trkpt>
      <trkpt lat="37.7015830" lon="-3.7657010">
        <ele>573.2</ele>
        <time>2020-07-17T05:37:48Z</time>
      </trkpt>
      <trkpt lat="37.7015010" lon="-3.7654820">
        <ele>574.4</ele>
        <time>2020-07-17T05:37:54Z</time>
      </trkpt>
      <trkpt lat="37.7014600" lon="-3.7653650">
        <ele>575.0</ele>
        <time>2020-07-17T05:37:57Z</time>
      </trkpt>
      <trkpt lat="37.7014210" lon="-3.7652510">
        <ele>575.4</ele>
        <time>2020-07-17T05:38:00Z</time>
      </trkpt>
      <trkpt lat="37.7013880" lon="-3.7651410">
        <ele>576.2</ele>
        <time>2020-07-17T05:38:03Z</time>
      </trkpt>
      <trkpt lat="37.7013680" lon="-3.7650730">
        <ele>576.6</ele>
        <time>2020-07-17T05:38:05Z</time>
      </trkpt>
      <trkpt lat="37.7013110" lon="-3.7648830">
        <ele>577.6</ele>
        <time>2020-07-17T05:38:11Z</time>
      </trkpt>
      <trkpt lat="37.7013030" lon="-3.7648490">
        <ele>578.0</ele>
        <time>2020-07-17T05:38:12Z</time>
      </trkpt>
      <trkpt lat="37.7012760" lon="-3.7647660">
        <ele>578.8</ele>
        <time>2020-07-17T05:38:15Z</time>
      </trkpt>
      <trkpt lat="37.7012260" lon="-3.7646350">
        <ele>580.0</ele>
        <time>2020-07-17T05:38:20Z</time>
      </trkpt>
      <trkpt lat="37.7011710" lon="-3.7645120">
        <ele>581.2</ele>
        <time>2020-07-17T05:38:25Z</time>
      </trkpt>
      <trkpt lat="37.7011370" lon="-3.7644750">
        <ele>581.6</ele>
        <time>2020-07-17T05:38:27Z</time>
      </trkpt>
      <trkpt lat="37.7010740" lon="-3.7644390">
        <ele>582.4</ele>
        <time>2020-07-17T05:38:30Z</time>
      </trkpt>
      <trkpt lat="37.7010060" lon="-3.7644320">
        <ele>583.0</ele>
        <time>2020-07-17T05:38:33Z</time>
      </trkpt>
      <trkpt lat="37.7009840" lon="-3.7644360">
        <ele>583.4</ele>
        <time>2020-07-17T05:38:34Z</time>
      </trkpt>
      <trkpt lat="37.7009150" lon="-3.7644490">
        <ele>584.6</ele>
        <time>2020-07-17T05:38:37Z</time>
      </trkpt>
      <trkpt lat="37.7008460" lon="-3.7644620">
        <ele>585.4</ele>
        <time>2020-07-17T05:38:40Z</time>
      </trkpt>
      <trkpt lat="37.7008260" lon="-3.7644670">
        <ele>585.8</ele>
        <time>2020-07-17T05:38:41Z</time>
      </trkpt>
      <trkpt lat="37.7007330" lon="-3.7644810">
        <ele>586.8</ele>
        <time>2020-07-17T05:38:45Z</time>
      </trkpt>
      <trkpt lat="37.7006900" lon="-3.7644940">
        <ele>587.2</ele>
        <time>2020-07-17T05:38:47Z</time>
      </trkpt>
      <trkpt lat="37.7006230" lon="-3.7645130">
        <ele>588.0</ele>
        <time>2020-07-17T05:38:50Z</time>
      </trkpt>
      <trkpt lat="37.7005380" lon="-3.7645300">
        <ele>589.2</ele>
        <time>2020-07-17T05:38:54Z</time>
      </trkpt>
      <trkpt lat="37.7004970" lon="-3.7645380">
        <ele>590.0</ele>
        <time>2020-07-17T05:38:56Z</time>
      </trkpt>
      <trkpt lat="37.7004540" lon="-3.7645490">
        <ele>590.6</ele>
        <time>2020-07-17T05:38:58Z</time>
      </trkpt>
      <trkpt lat="37.7003520" lon="-3.7645810">
        <ele>591.8</ele>
        <time>2020-07-17T05:39:02Z</time>
      </trkpt>
      <trkpt lat="37.7003280" lon="-3.7645910">
        <ele>592.0</ele>
        <time>2020-07-17T05:39:03Z</time>
      </trkpt>
      <trkpt lat="37.7002270" lon="-3.7646300">
        <ele>592.8</ele>
        <time>2020-07-17T05:39:07Z</time>
      </trkpt>
      <trkpt lat="37.7001220" lon="-3.7647020">
        <ele>593.6</ele>
        <time>2020-07-17T05:39:11Z</time>
      </trkpt>
      <trkpt lat="37.6999140" lon="-3.7648890">
        <ele>593.8</ele>
        <time>2020-07-17T05:39:17Z</time>
      </trkpt>
      <trkpt lat="37.6997790" lon="-3.7649730">
        <ele>593.6</ele>
        <time>2020-07-17T05:39:20Z</time>
      </trkpt>
      <trkpt lat="37.6996350" lon="-3.7650430">
        <ele>593.6</ele>
        <time>2020-07-17T05:39:23Z</time>
      </trkpt>
      <trkpt lat="37.6993640" lon="-3.7652160">
        <ele>593.4</ele>
        <time>2020-07-17T05:39:28Z</time>
      </trkpt>
      <trkpt lat="37.6993210" lon="-3.7652760">
        <ele>593.2</ele>
        <time>2020-07-17T05:39:29Z</time>
      </trkpt>
      <trkpt lat="37.6992450" lon="-3.7655050">
        <ele>593.0</ele>
        <time>2020-07-17T05:39:32Z</time>
      </trkpt>
      <trkpt lat="37.6992200" lon="-3.7656680">
        <ele>592.8</ele>
        <time>2020-07-17T05:39:34Z</time>
      </trkpt>
      <trkpt lat="37.6991660" lon="-3.7659160">
        <ele>592.8</ele>
        <time>2020-07-17T05:39:37Z</time>
      </trkpt>
      <trkpt lat="37.6991310" lon="-3.7659910">
        <ele>592.8</ele>
        <time>2020-07-17T05:39:38Z</time>
      </trkpt>
      <trkpt lat="37.6989750" lon="-3.7661570">
        <ele>592.8</ele>
        <time>2020-07-17T05:39:41Z</time>
      </trkpt>
      <trkpt lat="37.6987610" lon="-3.7662190">
        <ele>592.6</ele>
        <time>2020-07-17T05:39:44Z</time>
      </trkpt>
      <trkpt lat="37.6986900" lon="-3.7662290">
        <ele>592.4</ele>
        <time>2020-07-17T05:39:45Z</time>
      </trkpt>
      <trkpt lat="37.6984860" lon="-3.7662590">
        <ele>592.2</ele>
        <time>2020-07-17T05:39:48Z</time>
      </trkpt>
      <trkpt lat="37.6982860" lon="-3.7663080">
        <ele>592.2</ele>
        <time>2020-07-17T05:39:51Z</time>
      </trkpt>
      <trkpt lat="37.6982150" lon="-3.7663430">
        <ele>592.2</ele>
        <time>2020-07-17T05:39:52Z</time>
      </trkpt>
      <trkpt lat="37.6980310" lon="-3.7664940">
        <ele>592.2</ele>
        <time>2020-07-17T05:39:55Z</time>
      </trkpt>
      <trkpt lat="37.6979740" lon="-3.7665470">
        <ele>592.2</ele>
        <time>2020-07-17T05:39:56Z</time>
      </trkpt>
      <trkpt lat="37.6978040" lon="-3.7667360">
        <ele>591.8</ele>
        <time>2020-07-17T05:39:59Z</time>
      </trkpt>
      <trkpt lat="37.6976410" lon="-3.7669430">
        <ele>591.6</ele>
        <time>2020-07-17T05:40:02Z</time>
      </trkpt>
      <trkpt lat="37.6974260" lon="-3.7671890">
        <ele>591.6</ele>
        <time>2020-07-17T05:40:06Z</time>
      </trkpt>
      <trkpt lat="37.6972880" lon="-3.7672620">
        <ele>591.4</ele>
        <time>2020-07-17T05:40:08Z</time>
      </trkpt>
      <trkpt lat="37.6971480" lon="-3.7672200">
        <ele>591.4</ele>
        <time>2020-07-17T05:40:10Z</time>
      </trkpt>
      <trkpt lat="37.6969830" lon="-3.7670450">
        <ele>591.6</ele>
        <time>2020-07-17T05:40:13Z</time>
      </trkpt>
      <trkpt lat="37.6969320" lon="-3.7669830">
        <ele>591.6</ele>
        <time>2020-07-17T05:40:14Z</time>
      </trkpt>
      <trkpt lat="37.6967070" lon="-3.7667520">
        <ele>591.4</ele>
        <time>2020-07-17T05:40:18Z</time>
      </trkpt>
      <trkpt lat="37.6966370" lon="-3.7667350">
        <ele>591.4</ele>
        <time>2020-07-17T05:40:19Z</time>
      </trkpt>
      <trkpt lat="37.6965050" lon="-3.7667830">
        <ele>591.4</ele>
        <time>2020-07-17T05:40:21Z</time>
      </trkpt>
      <trkpt lat="37.6963530" lon="-3.7669890">
        <ele>591.4</ele>
        <time>2020-07-17T05:40:24Z</time>
      </trkpt>
      <trkpt lat="37.6960980" lon="-3.7673700">
        <ele>590.8</ele>
        <time>2020-07-17T05:40:29Z</time>
      </trkpt>
      <trkpt lat="37.6960320" lon="-3.7674500">
        <ele>590.6</ele>
        <time>2020-07-17T05:40:30Z</time>
      </trkpt>
      <trkpt lat="37.6958160" lon="-3.7676610">
        <ele>589.6</ele>
        <time>2020-07-17T05:40:33Z</time>
      </trkpt>
      <trkpt lat="37.6957340" lon="-3.7677200">
        <ele>589.4</ele>
        <time>2020-07-17T05:40:34Z</time>
      </trkpt>
      <trkpt lat="37.6955690" lon="-3.7678280">
        <ele>588.6</ele>
        <time>2020-07-17T05:40:36Z</time>
      </trkpt>
      <trkpt lat="37.6953030" lon="-3.7679930">
        <ele>587.6</ele>
        <time>2020-07-17T05:40:39Z</time>
      </trkpt>
      <trkpt lat="37.6952140" lon="-3.7680360">
        <ele>587.4</ele>
        <time>2020-07-17T05:40:40Z</time>
      </trkpt>
      <trkpt lat="37.6948440" lon="-3.7681890">
        <ele>586.6</ele>
        <time>2020-07-17T05:40:44Z</time>
      </trkpt>
      <trkpt lat="37.6947570" lon="-3.7682420">
        <ele>586.2</ele>
        <time>2020-07-17T05:40:45Z</time>
      </trkpt>
      <trkpt lat="37.6946770" lon="-3.7683070">
        <ele>585.8</ele>
        <time>2020-07-17T05:40:46Z</time>
      </trkpt>
      <trkpt lat="37.6945660" lon="-3.7684920">
        <ele>585.2</ele>
        <time>2020-07-17T05:40:48Z</time>
      </trkpt>
      <trkpt lat="37.6945290" lon="-3.7688040">
        <ele>584.6</ele>
        <time>2020-07-17T05:40:51Z</time>
      </trkpt>
      <trkpt lat="37.6945190" lon="-3.7690090">
        <ele>584.6</ele>
        <time>2020-07-17T05:40:53Z</time>
      </trkpt>
      <trkpt lat="37.6944960" lon="-3.7693080">
        <ele>584.8</ele>
        <time>2020-07-17T05:40:56Z</time>
      </trkpt>
      <trkpt lat="37.6944560" lon="-3.7693950">
        <ele>585.0</ele>
        <time>2020-07-17T05:40:57Z</time>
      </trkpt>
      <trkpt lat="37.6943250" lon="-3.7694680">
        <ele>585.2</ele>
        <time>2020-07-17T05:40:59Z</time>
      </trkpt>
      <trkpt lat="37.6940220" lon="-3.7695120">
        <ele>585.4</ele>
        <time>2020-07-17T05:41:03Z</time>
      </trkpt>
      <trkpt lat="37.6937520" lon="-3.7696780">
        <ele>585.6</ele>
        <time>2020-07-17T05:41:07Z</time>
      </trkpt>
      <trkpt lat="37.6936320" lon="-3.7697860">
        <ele>585.6</ele>
        <time>2020-07-17T05:41:09Z</time>
      </trkpt>
      <trkpt lat="37.6935440" lon="-3.7699170">
        <ele>585.6</ele>
        <time>2020-07-17T05:41:11Z</time>
      </trkpt>
      <trkpt lat="37.6933870" lon="-3.7702760">
        <ele>585.8</ele>
        <time>2020-07-17T05:41:16Z</time>
      </trkpt>
      <trkpt lat="37.6933200" lon="-3.7704050">
        <ele>586.2</ele>
        <time>2020-07-17T05:41:18Z</time>
      </trkpt>
      <trkpt lat="37.6931980" lon="-3.7705470">
        <ele>586.6</ele>
        <time>2020-07-17T05:41:21Z</time>
      </trkpt>
      <trkpt lat="37.6929760" lon="-3.7706280">
        <ele>587.2</ele>
        <time>2020-07-17T05:41:25Z</time>
      </trkpt>
      <trkpt lat="37.6928130" lon="-3.7705030">
        <ele>587.0</ele>
        <time>2020-07-17T05:41:28Z</time>
      </trkpt>
      <trkpt lat="37.6926790" lon="-3.7702730">
        <ele>587.0</ele>
        <time>2020-07-17T05:41:32Z</time>
      </trkpt>
      <trkpt lat="37.6926360" lon="-3.7701630">
        <ele>587.8</ele>
        <time>2020-07-17T05:41:34Z</time>
      </trkpt>
      <trkpt lat="37.6926210" lon="-3.7701110">
        <ele>588.2</ele>
        <time>2020-07-17T05:41:35Z</time>
      </trkpt>
      <trkpt lat="37.6926000" lon="-3.7699990">
        <ele>588.8</ele>
        <time>2020-07-17T05:41:37Z</time>
      </trkpt>
      <trkpt lat="37.6925940" lon="-3.7699420">
        <ele>589.2</ele>
        <time>2020-07-17T05:41:38Z</time>
      </trkpt>
      <trkpt lat="37.6925790" lon="-3.7697770">
        <ele>590.0</ele>
        <time>2020-07-17T05:41:41Z</time>
      </trkpt>
      <trkpt lat="37.6925610" lon="-3.7695870">
        <ele>590.8</ele>
        <time>2020-07-17T05:41:44Z</time>
      </trkpt>
      <trkpt lat="37.6925540" lon="-3.7695190">
        <ele>591.0</ele>
        <time>2020-07-17T05:41:45Z</time>
      </trkpt>
      <trkpt lat="37.6925470" lon="-3.7694530">
        <ele>591.2</ele>
        <time>2020-07-17T05:41:46Z</time>
      </trkpt>
      <trkpt lat="37.6925000" lon="-3.7689440">
        <ele>591.8</ele>
        <time>2020-07-17T05:41:53Z</time>
      </trkpt>
      <trkpt lat="37.6924580" lon="-3.7684830">
        <ele>592.0</ele>
        <time>2020-07-17T05:41:59Z</time>
      </trkpt>
      <trkpt lat="37.6924540" lon="-3.7682440">
        <ele>592.2</ele>
        <time>2020-07-17T05:42:02Z</time>
      </trkpt>
      <trkpt lat="37.6925400" lon="-3.7679900">
        <ele>592.6</ele>
        <time>2020-07-17T05:42:06Z</time>
      </trkpt>
      <trkpt lat="37.6925720" lon="-3.7679300">
        <ele>592.8</ele>
        <time>2020-07-17T05:42:07Z</time>
      </trkpt>
      <trkpt lat="37.6926300" lon="-3.7678210">
        <ele>593.2</ele>
        <time>2020-07-17T05:42:09Z</time>
      </trkpt>
      <trkpt lat="37.6927460" lon="-3.7676170">
        <ele>594.0</ele>
        <time>2020-07-17T05:42:13Z</time>
      </trkpt>
      <trkpt lat="37.6927700" lon="-3.7675650">
        <ele>594.2</ele>
        <time>2020-07-17T05:42:14Z</time>
      </trkpt>
      <trkpt lat="37.6928440" lon="-3.7673530">
        <ele>595.2</ele>
        <time>2020-07-17T05:42:18Z</time>
      </trkpt>
      <trkpt lat="37.6928620" lon="-3.7672990">
        <ele>595.6</ele>
        <time>2020-07-17T05:42:19Z</time>
      </trkpt>
      <trkpt lat="37.6929040" lon="-3.7671940">
        <ele>596.0</ele>
        <time>2020-07-17T05:42:21Z</time>
      </trkpt>
      <trkpt lat="37.6929670" lon="-3.7670940">
        <ele>596.4</ele>
        <time>2020-07-17T05:42:23Z</time>
      </trkpt>
      <trkpt lat="37.6930060" lon="-3.7670430">
        <ele>596.4</ele>
        <time>2020-07-17T05:42:24Z</time>
      </trkpt>
      <trkpt lat="37.6931370" lon="-3.7668340">
        <ele>597.0</ele>
        <time>2020-07-17T05:42:29Z</time>
      </trkpt>
      <trkpt lat="37.6931740" lon="-3.7667650">
        <ele>597.4</ele>
        <time>2020-07-17T05:42:31Z</time>
      </trkpt>
      <trkpt lat="37.6932420" lon="-3.7666510">
        <ele>598.6</ele>
        <time>2020-07-17T05:42:35Z</time>
      </trkpt>
      <trkpt lat="37.6932580" lon="-3.7666230">
        <ele>598.8</ele>
        <time>2020-07-17T05:42:36Z</time>
      </trkpt>
      <trkpt lat="37.6932970" lon="-3.7665350">
        <ele>599.8</ele>
        <time>2020-07-17T05:42:39Z</time>
      </trkpt>
      <trkpt lat="37.6933240" lon="-3.7664100">
        <ele>600.8</ele>
        <time>2020-07-17T05:42:43Z</time>
      </trkpt>
      <trkpt lat="37.6933290" lon="-3.7663810">
        <ele>601.0</ele>
        <time>2020-07-17T05:42:44Z</time>
      </trkpt>
      <trkpt lat="37.6933450" lon="-3.7662570">
        <ele>602.2</ele>
        <time>2020-07-17T05:42:48Z</time>
      </trkpt>
      <trkpt lat="37.6933510" lon="-3.7661930">
        <ele>602.6</ele>
        <time>2020-07-17T05:42:50Z</time>
      </trkpt>
      <trkpt lat="37.6933630" lon="-3.7660990">
        <ele>603.2</ele>
        <time>2020-07-17T05:42:53Z</time>
      </trkpt>
      <trkpt lat="37.6933740" lon="-3.7660050">
        <ele>604.0</ele>
        <time>2020-07-17T05:42:56Z</time>
      </trkpt>
      <trkpt lat="37.6933760" lon="-3.7659710">
        <ele>604.2</ele>
        <time>2020-07-17T05:42:57Z</time>
      </trkpt>
      <trkpt lat="37.6934010" lon="-3.7658210">
        <ele>605.6</ele>
        <time>2020-07-17T05:43:02Z</time>
      </trkpt>
      <trkpt lat="37.6934140" lon="-3.7657640">
        <ele>606.0</ele>
        <time>2020-07-17T05:43:04Z</time>
      </trkpt>
      <trkpt lat="37.6934310" lon="-3.7656770">
        <ele>606.8</ele>
        <time>2020-07-17T05:43:07Z</time>
      </trkpt>
      <trkpt lat="37.6934360" lon="-3.7655860">
        <ele>607.4</ele>
        <time>2020-07-17T05:43:10Z</time>
      </trkpt>
      <trkpt lat="37.6934450" lon="-3.7655270">
        <ele>607.8</ele>
        <time>2020-07-17T05:43:12Z</time>
      </trkpt>
      <trkpt lat="37.6934520" lon="-3.7653780">
        <ele>609.0</ele>
        <time>2020-07-17T05:43:17Z</time>
      </trkpt>
      <trkpt lat="37.6934540" lon="-3.7652480">
        <ele>610.0</ele>
        <time>2020-07-17T05:43:21Z</time>
      </trkpt>
      <trkpt lat="37.6934570" lon="-3.7651870">
        <ele>610.6</ele>
        <time>2020-07-17T05:43:23Z</time>
      </trkpt>
      <trkpt lat="37.6934640" lon="-3.7651230">
        <ele>611.2</ele>
        <time>2020-07-17T05:43:25Z</time>
      </trkpt>
      <trkpt lat="37.6934630" lon="-3.7649670">
        <ele>612.4</ele>
        <time>2020-07-17T05:43:30Z</time>
      </trkpt>
      <trkpt lat="37.6934640" lon="-3.7649050">
        <ele>612.8</ele>
        <time>2020-07-17T05:43:32Z</time>
      </trkpt>
      <trkpt lat="37.6934680" lon="-3.7648160">
        <ele>613.6</ele>
        <time>2020-07-17T05:43:35Z</time>
      </trkpt>
      <trkpt lat="37.6934820" lon="-3.7646590">
        <ele>614.6</ele>
        <time>2020-07-17T05:43:40Z</time>
      </trkpt>
      <trkpt lat="37.6934870" lon="-3.7646310">
        <ele>615.0</ele>
        <time>2020-07-17T05:43:41Z</time>
      </trkpt>
      <trkpt lat="37.6935300" lon="-3.7645150">
        <ele>615.8</ele>
        <time>2020-07-17T05:43:45Z</time>
      </trkpt>
      <trkpt lat="37.6935710" lon="-3.7644370">
        <ele>616.4</ele>
        <time>2020-07-17T05:43:48Z</time>
      </trkpt>
      <trkpt lat="37.6936010" lon="-3.7643870">
        <ele>616.8</ele>
        <time>2020-07-17T05:43:50Z</time>
      </trkpt>
      <trkpt lat="37.6937010" lon="-3.7642930">
        <ele>617.8</ele>
        <time>2020-07-17T05:43:55Z</time>
      </trkpt>
      <trkpt lat="37.6937210" lon="-3.7642760">
        <ele>618.0</ele>
        <time>2020-07-17T05:43:56Z</time>
      </trkpt>
      <trkpt lat="37.6938400" lon="-3.7641600">
        <ele>619.2</ele>
        <time>2020-07-17T05:44:02Z</time>
      </trkpt>
      <trkpt lat="37.6938880" lon="-3.7640900">
        <ele>619.6</ele>
        <time>2020-07-17T05:44:05Z</time>
      </trkpt>
      <trkpt lat="37.6939300" lon="-3.7640100">
        <ele>620.4</ele>
        <time>2020-07-17T05:44:08Z</time>
      </trkpt>
      <trkpt lat="37.6939610" lon="-3.7638970">
        <ele>621.2</ele>
        <time>2020-07-17T05:44:12Z</time>
      </trkpt>
      <trkpt lat="37.6939700" lon="-3.7638720">
        <ele>621.4</ele>
        <time>2020-07-17T05:44:13Z</time>
      </trkpt>
      <trkpt lat="37.6940140" lon="-3.7637460">
        <ele>622.6</ele>
        <time>2020-07-17T05:44:18Z</time>
      </trkpt>
      <trkpt lat="37.6940260" lon="-3.7637220">
        <ele>622.8</ele>
        <time>2020-07-17T05:44:19Z</time>
      </trkpt>
      <trkpt lat="37.6940600" lon="-3.7636500">
        <ele>623.6</ele>
        <time>2020-07-17T05:44:22Z</time>
      </trkpt>
      <trkpt lat="37.6940980" lon="-3.7635270">
        <ele>624.6</ele>
        <time>2020-07-17T05:44:26Z</time>
      </trkpt>
      <trkpt lat="37.6941010" lon="-3.7634900">
        <ele>624.8</ele>
        <time>2020-07-17T05:44:27Z</time>
      </trkpt>
      <trkpt lat="37.6940920" lon="-3.7632740">
        <ele>625.6</ele>
        <time>2020-07-17T05:44:32Z</time>
      </trkpt>
      <trkpt lat="37.6940060" lon="-3.7630580">
        <ele>625.4</ele>
        <time>2020-07-17T05:44:36Z</time>
      </trkpt>
      <trkpt lat="37.6938520" lon="-3.7629040">
        <ele>625.0</ele>
        <time>2020-07-17T05:44:39Z</time>
      </trkpt>
      <trkpt lat="37.6937840" lon="-3.7628550">
        <ele>624.8</ele>
        <time>2020-07-17T05:44:40Z</time>
      </trkpt>
      <trkpt lat="37.6935550" lon="-3.7627030">
        <ele>623.4</ele>
        <time>2020-07-17T05:44:43Z</time>
      </trkpt>
      <trkpt lat="37.6934700" lon="-3.7626490">
        <ele>622.6</ele>
        <time>2020-07-17T05:44:44Z</time>
      </trkpt>
      <trkpt lat="37.6933790" lon="-3.7625910">
        <ele>621.6</ele>
        <time>2020-07-17T05:44:45Z</time>
      </trkpt>
      <trkpt lat="37.6932020" lon="-3.7624620">
        <ele>620.0</ele>
        <time>2020-07-17T05:44:47Z</time>
      </trkpt>
      <trkpt lat="37.6931120" lon="-3.7623650">
        <ele>619.2</ele>
        <time>2020-07-17T05:44:48Z</time>
      </trkpt>
      <trkpt lat="37.6930380" lon="-3.7622620">
        <ele>618.6</ele>
        <time>2020-07-17T05:44:49Z</time>
      </trkpt>
      <trkpt lat="37.6928980" lon="-3.7620280">
        <ele>616.6</ele>
        <time>2020-07-17T05:44:51Z</time>
      </trkpt>
      <trkpt lat="37.6928270" lon="-3.7618950">
        <ele>615.8</ele>
        <time>2020-07-17T05:44:52Z</time>
      </trkpt>
      <trkpt lat="37.6927620" lon="-3.7617750">
        <ele>615.0</ele>
        <time>2020-07-17T05:44:53Z</time>
      </trkpt>
      <trkpt lat="37.6926390" lon="-3.7615490">
        <ele>613.4</ele>
        <time>2020-07-17T05:44:55Z</time>
      </trkpt>
      <trkpt lat="37.6925830" lon="-3.7614660">
        <ele>612.8</ele>
        <time>2020-07-17T05:44:56Z</time>
      </trkpt>
      <trkpt lat="37.6925160" lon="-3.7613950">
        <ele>612.0</ele>
        <time>2020-07-17T05:44:57Z</time>
      </trkpt>
      <trkpt lat="37.6924400" lon="-3.7613540">
        <ele>611.0</ele>
        <time>2020-07-17T05:44:58Z</time>
      </trkpt>
      <trkpt lat="37.6923640" lon="-3.7613430">
        <ele>610.4</ele>
        <time>2020-07-17T05:44:59Z</time>
      </trkpt>
      <trkpt lat="37.6922820" lon="-3.7613680">
        <ele>609.6</ele>
        <time>2020-07-17T05:45:00Z</time>
      </trkpt>
      <trkpt lat="37.6922270" lon="-3.7614160">
        <ele>608.8</ele>
        <time>2020-07-17T05:45:01Z</time>
      </trkpt>
      <trkpt lat="37.6921750" lon="-3.7616160">
        <ele>607.2</ele>
        <time>2020-07-17T05:45:03Z</time>
      </trkpt>
      <trkpt lat="37.6921590" lon="-3.7618470">
        <ele>605.2</ele>
        <time>2020-07-17T05:45:05Z</time>
      </trkpt>
      <trkpt lat="37.6921410" lon="-3.7619720">
        <ele>604.4</ele>
        <time>2020-07-17T05:45:06Z</time>
      </trkpt>
      <trkpt lat="37.6921040" lon="-3.7621030">
        <ele>603.4</ele>
        <time>2020-07-17T05:45:07Z</time>
      </trkpt>
      <trkpt lat="37.6919680" lon="-3.7623240">
        <ele>601.6</ele>
        <time>2020-07-17T05:45:09Z</time>
      </trkpt>
      <trkpt lat="37.6918660" lon="-3.7624090">
        <ele>600.8</ele>
        <time>2020-07-17T05:45:10Z</time>
      </trkpt>
      <trkpt lat="37.6917750" lon="-3.7624720">
        <ele>600.0</ele>
        <time>2020-07-17T05:45:11Z</time>
      </trkpt>
      <trkpt lat="37.6915550" lon="-3.7626200">
        <ele>597.8</ele>
        <time>2020-07-17T05:45:13Z</time>
      </trkpt>
      <trkpt lat="37.6913230" lon="-3.7627460">
        <ele>596.0</ele>
        <time>2020-07-17T05:45:15Z</time>
      </trkpt>
      <trkpt lat="37.6912070" lon="-3.7627920">
        <ele>594.8</ele>
        <time>2020-07-17T05:45:16Z</time>
      </trkpt>
      <trkpt lat="37.6910780" lon="-3.7628370">
        <ele>593.8</ele>
        <time>2020-07-17T05:45:17Z</time>
      </trkpt>
      <trkpt lat="37.6909370" lon="-3.7628810">
        <ele>592.8</ele>
        <time>2020-07-17T05:45:18Z</time>
      </trkpt>
      <trkpt lat="37.6908080" lon="-3.7629200">
        <ele>591.6</ele>
        <time>2020-07-17T05:45:19Z</time>
      </trkpt>
      <trkpt lat="37.6906780" lon="-3.7629470">
        <ele>590.6</ele>
        <time>2020-07-17T05:45:20Z</time>
      </trkpt>
      <trkpt lat="37.6905590" lon="-3.7629600">
        <ele>589.2</ele>
        <time>2020-07-17T05:45:21Z</time>
      </trkpt>
      <trkpt lat="37.6904130" lon="-3.7629660">
        <ele>588.0</ele>
        <time>2020-07-17T05:45:22Z</time>
      </trkpt>
      <trkpt lat="37.6902920" lon="-3.7629700">
        <ele>586.6</ele>
        <time>2020-07-17T05:45:23Z</time>
      </trkpt>
      <trkpt lat="37.6901600" lon="-3.7629640">
        <ele>585.6</ele>
        <time>2020-07-17T05:45:24Z</time>
      </trkpt>
      <trkpt lat="37.6900320" lon="-3.7629430">
        <ele>584.6</ele>
        <time>2020-07-17T05:45:25Z</time>
      </trkpt>
      <trkpt lat="37.6897720" lon="-3.7629140">
        <ele>583.0</ele>
        <time>2020-07-17T05:45:27Z</time>
      </trkpt>
      <trkpt lat="37.6895140" lon="-3.7629450">
        <ele>581.6</ele>
        <time>2020-07-17T05:45:29Z</time>
      </trkpt>
      <trkpt lat="37.6893820" lon="-3.7629480">
        <ele>580.6</ele>
        <time>2020-07-17T05:45:30Z</time>
      </trkpt>
      <trkpt lat="37.6892640" lon="-3.7629330">
        <ele>579.8</ele>
        <time>2020-07-17T05:45:31Z</time>
      </trkpt>
      <trkpt lat="37.6891340" lon="-3.7628980">
        <ele>579.2</ele>
        <time>2020-07-17T05:45:32Z</time>
      </trkpt>
      <trkpt lat="37.6890200" lon="-3.7628520">
        <ele>578.6</ele>
        <time>2020-07-17T05:45:33Z</time>
      </trkpt>
      <trkpt lat="37.6887950" lon="-3.7627420">
        <ele>577.0</ele>
        <time>2020-07-17T05:45:35Z</time>
      </trkpt>
      <trkpt lat="37.6886820" lon="-3.7626830">
        <ele>576.2</ele>
        <time>2020-07-17T05:45:36Z</time>
      </trkpt>
      <trkpt lat="37.6885590" lon="-3.7626300">
        <ele>575.6</ele>
        <time>2020-07-17T05:45:37Z</time>
      </trkpt>
      <trkpt lat="37.6883210" lon="-3.7625740">
        <ele>574.6</ele>
        <time>2020-07-17T05:45:39Z</time>
      </trkpt>
      <trkpt lat="37.6881990" lon="-3.7625640">
        <ele>574.2</ele>
        <time>2020-07-17T05:45:40Z</time>
      </trkpt>
      <trkpt lat="37.6881020" lon="-3.7625510">
        <ele>573.8</ele>
        <time>2020-07-17T05:45:41Z</time>
      </trkpt>
      <trkpt lat="37.6879980" lon="-3.7625040">
        <ele>573.6</ele>
        <time>2020-07-17T05:45:42Z</time>
      </trkpt>
      <trkpt lat="37.6878960" lon="-3.7623220">
        <ele>572.4</ele>
        <time>2020-07-17T05:45:44Z</time>
      </trkpt>
      <trkpt lat="37.6879400" lon="-3.7621160">
        <ele>571.8</ele>
        <time>2020-07-17T05:45:46Z</time>
      </trkpt>
      <trkpt lat="37.6879890" lon="-3.7620230">
        <ele>571.4</ele>
        <time>2020-07-17T05:45:47Z</time>
      </trkpt>
      <trkpt lat="37.6880390" lon="-3.7619370">
        <ele>571.0</ele>
        <time>2020-07-17T05:45:48Z</time>
      </trkpt>
      <trkpt lat="37.6880850" lon="-3.7618590">
        <ele>571.0</ele>
        <time>2020-07-17T05:45:49Z</time>
      </trkpt>
      <trkpt lat="37.6881280" lon="-3.7617780">
        <ele>571.0</ele>
        <time>2020-07-17T05:45:50Z</time>
      </trkpt>
      <trkpt lat="37.6881940" lon="-3.7616250">
        <ele>571.6</ele>
        <time>2020-07-17T05:45:52Z</time>
      </trkpt>
      <trkpt lat="37.6882170" lon="-3.7615540">
        <ele>572.0</ele>
        <time>2020-07-17T05:45:53Z</time>
      </trkpt>
      <trkpt lat="37.6882420" lon="-3.7614810">
        <ele>572.4</ele>
        <time>2020-07-17T05:45:54Z</time>
      </trkpt>
      <trkpt lat="37.6882570" lon="-3.7614060">
        <ele>572.8</ele>
        <time>2020-07-17T05:45:55Z</time>
      </trkpt>
      <trkpt lat="37.6882200" lon="-3.7612740">
        <ele>573.8</ele>
        <time>2020-07-17T05:45:57Z</time>
      </trkpt>
      <trkpt lat="37.6881710" lon="-3.7612090">
        <ele>574.6</ele>
        <time>2020-07-17T05:45:59Z</time>
      </trkpt>
      <trkpt lat="37.6881520" lon="-3.7611790">
        <ele>575.0</ele>
        <time>2020-07-17T05:46:00Z</time>
      </trkpt>
      <trkpt lat="37.6881460" lon="-3.7610300">
        <ele>576.2</ele>
        <time>2020-07-17T05:46:03Z</time>
      </trkpt>
      <trkpt lat="37.6881270" lon="-3.7609060">
        <ele>576.2</ele>
        <time>2020-07-17T05:46:05Z</time>
      </trkpt>
      <trkpt lat="37.6880690" lon="-3.7607010">
        <ele>576.2</ele>
        <time>2020-07-17T05:46:08Z</time>
      </trkpt>
      <trkpt lat="37.6878870" lon="-3.7602010">
        <ele>575.8</ele>
        <time>2020-07-17T05:46:15Z</time>
      </trkpt>
      <trkpt lat="37.6878320" lon="-3.7600850">
        <ele>576.0</ele>
        <time>2020-07-17T05:46:17Z</time>
      </trkpt>
      <trkpt lat="37.6877240" lon="-3.7598230">
        <ele>576.0</ele>
        <time>2020-07-17T05:46:20Z</time>
      </trkpt>
      <trkpt lat="37.6875630" lon="-3.7593250">
        <ele>575.2</ele>
        <time>2020-07-17T05:46:26Z</time>
      </trkpt>
      <trkpt lat="37.6873600" lon="-3.7589450">
        <ele>574.6</ele>
        <time>2020-07-17T05:46:30Z</time>
      </trkpt>
      <trkpt lat="37.6872540" lon="-3.7587410">
        <ele>573.8</ele>
        <time>2020-07-17T05:46:32Z</time>
      </trkpt>
      <trkpt lat="37.6871270" lon="-3.7585260">
        <ele>572.8</ele>
        <time>2020-07-17T05:46:34Z</time>
      </trkpt>
      <trkpt lat="37.6870640" lon="-3.7584350">
        <ele>572.4</ele>
        <time>2020-07-17T05:46:35Z</time>
      </trkpt>
      <trkpt lat="37.6869880" lon="-3.7583410">
        <ele>571.8</ele>
        <time>2020-07-17T05:46:36Z</time>
      </trkpt>
      <trkpt lat="37.6868910" lon="-3.7582390">
        <ele>571.0</ele>
        <time>2020-07-17T05:46:37Z</time>
      </trkpt>
      <trkpt lat="37.6868030" lon="-3.7581540">
        <ele>570.4</ele>
        <time>2020-07-17T05:46:38Z</time>
      </trkpt>
      <trkpt lat="37.6867120" lon="-3.7580710">
        <ele>569.6</ele>
        <time>2020-07-17T05:46:39Z</time>
      </trkpt>
      <trkpt lat="37.6865310" lon="-3.7579180">
        <ele>567.8</ele>
        <time>2020-07-17T05:46:41Z</time>
      </trkpt>
      <trkpt lat="37.6863260" lon="-3.7577390">
        <ele>566.6</ele>
        <time>2020-07-17T05:46:43Z</time>
      </trkpt>
      <trkpt lat="37.6862410" lon="-3.7576590">
        <ele>566.0</ele>
        <time>2020-07-17T05:46:44Z</time>
      </trkpt>
      <trkpt lat="37.6861430" lon="-3.7575590">
        <ele>565.4</ele>
        <time>2020-07-17T05:46:45Z</time>
      </trkpt>
      <trkpt lat="37.6860580" lon="-3.7574820">
        <ele>564.6</ele>
        <time>2020-07-17T05:46:46Z</time>
      </trkpt>
      <trkpt lat="37.6859660" lon="-3.7574120">
        <ele>564.0</ele>
        <time>2020-07-17T05:46:47Z</time>
      </trkpt>
      <trkpt lat="37.6858440" lon="-3.7573270">
        <ele>563.4</ele>
        <time>2020-07-17T05:46:48Z</time>
      </trkpt>
      <trkpt lat="37.6857430" lon="-3.7572560">
        <ele>563.0</ele>
        <time>2020-07-17T05:46:49Z</time>
      </trkpt>
      <trkpt lat="37.6854460" lon="-3.7570600">
        <ele>561.6</ele>
        <time>2020-07-17T05:46:52Z</time>
      </trkpt>
      <trkpt lat="37.6853600" lon="-3.7569980">
        <ele>561.2</ele>
        <time>2020-07-17T05:46:53Z</time>
      </trkpt>
      <trkpt lat="37.6852570" lon="-3.7569260">
        <ele>560.2</ele>
        <time>2020-07-17T05:46:54Z</time>
      </trkpt>
      <trkpt lat="37.6851570" lon="-3.7568600">
        <ele>559.6</ele>
        <time>2020-07-17T05:46:55Z</time>
      </trkpt>
      <trkpt lat="37.6850750" lon="-3.7568080">
        <ele>559.0</ele>
        <time>2020-07-17T05:46:56Z</time>
      </trkpt>
      <trkpt lat="37.6849690" lon="-3.7567550">
        <ele>558.6</ele>
        <time>2020-07-17T05:46:57Z</time>
      </trkpt>
      <trkpt lat="37.6848690" lon="-3.7567160">
        <ele>558.2</ele>
        <time>2020-07-17T05:46:58Z</time>
      </trkpt>
      <trkpt lat="37.6846690" lon="-3.7566750">
        <ele>557.6</ele>
        <time>2020-07-17T05:47:00Z</time>
      </trkpt>
      <trkpt lat="37.6845820" lon="-3.7566650">
        <ele>557.4</ele>
        <time>2020-07-17T05:47:01Z</time>
      </trkpt>
      <trkpt lat="37.6844730" lon="-3.7566520">
        <ele>557.2</ele>
        <time>2020-07-17T05:47:02Z</time>
      </trkpt>
      <trkpt lat="37.6842980" lon="-3.7566060">
        <ele>557.0</ele>
        <time>2020-07-17T05:47:04Z</time>
      </trkpt>
      <trkpt lat="37.6841310" lon="-3.7565210">
        <ele>557.0</ele>
        <time>2020-07-17T05:47:06Z</time>
      </trkpt>
      <trkpt lat="37.6838730" lon="-3.7564200">
        <ele>556.8</ele>
        <time>2020-07-17T05:47:09Z</time>
      </trkpt>
      <trkpt lat="37.6837110" lon="-3.7563960">
        <ele>556.8</ele>
        <time>2020-07-17T05:47:11Z</time>
      </trkpt>
      <trkpt lat="37.6836090" lon="-3.7563850">
        <ele>556.6</ele>
        <time>2020-07-17T05:47:12Z</time>
      </trkpt>
      <trkpt lat="37.6833540" lon="-3.7563300">
        <ele>556.4</ele>
        <time>2020-07-17T05:47:15Z</time>
      </trkpt>
      <trkpt lat="37.6832060" lon="-3.7562470">
        <ele>556.4</ele>
        <time>2020-07-17T05:47:17Z</time>
      </trkpt>
      <trkpt lat="37.6830610" lon="-3.7561200">
        <ele>556.0</ele>
        <time>2020-07-17T05:47:19Z</time>
      </trkpt>
      <trkpt lat="37.6830050" lon="-3.7560320">
        <ele>556.0</ele>
        <time>2020-07-17T05:47:20Z</time>
      </trkpt>
      <trkpt lat="37.6829500" lon="-3.7559590">
        <ele>556.0</ele>
        <time>2020-07-17T05:47:21Z</time>
      </trkpt>
      <trkpt lat="37.6826880" lon="-3.7555320">
        <ele>555.8</ele>
        <time>2020-07-17T05:47:26Z</time>
      </trkpt>
      <trkpt lat="37.6826280" lon="-3.7554450">
        <ele>555.6</ele>
        <time>2020-07-17T05:47:27Z</time>
      </trkpt>
      <trkpt lat="37.6824300" lon="-3.7552300">
        <ele>554.8</ele>
        <time>2020-07-17T05:47:30Z</time>
      </trkpt>
      <trkpt lat="37.6823630" lon="-3.7551750">
        <ele>554.6</ele>
        <time>2020-07-17T05:47:31Z</time>
      </trkpt>
      <trkpt lat="37.6820920" lon="-3.7549660">
        <ele>554.6</ele>
        <time>2020-07-17T05:47:35Z</time>
      </trkpt>
      <trkpt lat="37.6818770" lon="-3.7547040">
        <ele>555.4</ele>
        <time>2020-07-17T05:47:39Z</time>
      </trkpt>
      <trkpt lat="37.6818290" lon="-3.7546340">
        <ele>555.6</ele>
        <time>2020-07-17T05:47:40Z</time>
      </trkpt>
      <trkpt lat="37.6816600" lon="-3.7543660">
        <ele>556.4</ele>
        <time>2020-07-17T05:47:44Z</time>
      </trkpt>
      <trkpt lat="37.6815760" lon="-3.7542440">
        <ele>556.8</ele>
        <time>2020-07-17T05:47:46Z</time>
      </trkpt>
      <trkpt lat="37.6815360" lon="-3.7541820">
        <ele>557.0</ele>
        <time>2020-07-17T05:47:47Z</time>
      </trkpt>
      <trkpt lat="37.6813940" lon="-3.7539420">
        <ele>558.0</ele>
        <time>2020-07-17T05:47:51Z</time>
      </trkpt>
      <trkpt lat="37.6813300" lon="-3.7538180">
        <ele>558.2</ele>
        <time>2020-07-17T05:47:53Z</time>
      </trkpt>
      <trkpt lat="37.6811790" lon="-3.7535070">
        <ele>559.0</ele>
        <time>2020-07-17T05:47:58Z</time>
      </trkpt>
      <trkpt lat="37.6811080" lon="-3.7534010">
        <ele>559.4</ele>
        <time>2020-07-17T05:48:00Z</time>
      </trkpt>
      <trkpt lat="37.6809450" lon="-3.7532240">
        <ele>560.2</ele>
        <time>2020-07-17T05:48:04Z</time>
      </trkpt>
      <trkpt lat="37.6809030" lon="-3.7531820">
        <ele>560.4</ele>
        <time>2020-07-17T05:48:05Z</time>
      </trkpt>
      <trkpt lat="37.6807310" lon="-3.7530170">
        <ele>560.8</ele>
        <time>2020-07-17T05:48:09Z</time>
      </trkpt>
      <trkpt lat="37.6806470" lon="-3.7529390">
        <ele>561.2</ele>
        <time>2020-07-17T05:48:11Z</time>
      </trkpt>
      <trkpt lat="37.6805050" lon="-3.7528310">
        <ele>561.8</ele>
        <time>2020-07-17T05:48:14Z</time>
      </trkpt>
      <trkpt lat="37.6803510" lon="-3.7527430">
        <ele>562.2</ele>
        <time>2020-07-17T05:48:17Z</time>
      </trkpt>
      <trkpt lat="37.6801910" lon="-3.7526710">
        <ele>562.6</ele>
        <time>2020-07-17T05:48:20Z</time>
      </trkpt>
      <trkpt lat="37.6800020" lon="-3.7525970">
        <ele>563.4</ele>
        <time>2020-07-17T05:48:24Z</time>
      </trkpt>
      <trkpt lat="37.6798670" lon="-3.7525630">
        <ele>564.2</ele>
        <time>2020-07-17T05:48:27Z</time>
      </trkpt>
      <trkpt lat="37.6797890" lon="-3.7525460">
        <ele>564.6</ele>
        <time>2020-07-17T05:48:29Z</time>
      </trkpt>
      <trkpt lat="37.6795670" lon="-3.7525070">
        <ele>565.6</ele>
        <time>2020-07-17T05:48:34Z</time>
      </trkpt>
      <trkpt lat="37.6793580" lon="-3.7524710">
        <ele>566.6</ele>
        <time>2020-07-17T05:48:39Z</time>
      </trkpt>
      <trkpt lat="37.6791920" lon="-3.7524370">
        <ele>567.8</ele>
        <time>2020-07-17T05:48:43Z</time>
      </trkpt>
      <trkpt lat="37.6789890" lon="-3.7523450">
        <ele>568.4</ele>
        <time>2020-07-17T05:48:48Z</time>
      </trkpt>
      <trkpt lat="37.6789550" lon="-3.7523200">
        <ele>568.6</ele>
        <time>2020-07-17T05:48:49Z</time>
      </trkpt>
      <trkpt lat="37.6789110" lon="-3.7522850">
        <ele>568.8</ele>
        <time>2020-07-17T05:48:50Z</time>
      </trkpt>
      <trkpt lat="37.6787180" lon="-3.7521090">
        <ele>569.4</ele>
        <time>2020-07-17T05:48:55Z</time>
      </trkpt>
      <trkpt lat="37.6785490" lon="-3.7518470">
        <ele>569.4</ele>
        <time>2020-07-17T05:49:00Z</time>
      </trkpt>
      <trkpt lat="37.6784770" lon="-3.7515780">
        <ele>569.6</ele>
        <time>2020-07-17T05:49:04Z</time>
      </trkpt>
      <trkpt lat="37.6784610" lon="-3.7515080">
        <ele>569.4</ele>
        <time>2020-07-17T05:49:05Z</time>
      </trkpt>
      <trkpt lat="37.6784130" lon="-3.7513680">
        <ele>569.4</ele>
        <time>2020-07-17T05:49:07Z</time>
      </trkpt>
      <trkpt lat="37.6783430" lon="-3.7512480">
        <ele>569.4</ele>
        <time>2020-07-17T05:49:09Z</time>
      </trkpt>
      <trkpt lat="37.6781930" lon="-3.7510920">
        <ele>569.4</ele>
        <time>2020-07-17T05:49:12Z</time>
      </trkpt>
      <trkpt lat="37.6781360" lon="-3.7510420">
        <ele>569.2</ele>
        <time>2020-07-17T05:49:13Z</time>
      </trkpt>
      <trkpt lat="37.6779550" lon="-3.7508780">
        <ele>568.6</ele>
        <time>2020-07-17T05:49:16Z</time>
      </trkpt>
      <trkpt lat="37.6778150" lon="-3.7507660">
        <ele>568.2</ele>
        <time>2020-07-17T05:49:18Z</time>
      </trkpt>
      <trkpt lat="37.6777380" lon="-3.7507300">
        <ele>567.8</ele>
        <time>2020-07-17T05:49:19Z</time>
      </trkpt>
      <trkpt lat="37.6776590" lon="-3.7507080">
        <ele>567.6</ele>
        <time>2020-07-17T05:49:20Z</time>
      </trkpt>
      <trkpt lat="37.6774990" lon="-3.7506880">
        <ele>567.2</ele>
        <time>2020-07-17T05:49:22Z</time>
      </trkpt>
      <trkpt lat="37.6774230" lon="-3.7506840">
        <ele>567.0</ele>
        <time>2020-07-17T05:49:23Z</time>
      </trkpt>
      <trkpt lat="37.6771850" lon="-3.7506670">
        <ele>566.4</ele>
        <time>2020-07-17T05:49:26Z</time>
      </trkpt>
      <trkpt lat="37.6770270" lon="-3.7506280">
        <ele>566.2</ele>
        <time>2020-07-17T05:49:28Z</time>
      </trkpt>
      <trkpt lat="37.6769620" lon="-3.7505980">
        <ele>566.4</ele>
        <time>2020-07-17T05:49:29Z</time>
      </trkpt>
      <trkpt lat="37.6768870" lon="-3.7505540">
        <ele>566.2</ele>
        <time>2020-07-17T05:49:30Z</time>
      </trkpt>
      <trkpt lat="37.6767690" lon="-3.7504460">
        <ele>566.2</ele>
        <time>2020-07-17T05:49:32Z</time>
      </trkpt>
      <trkpt lat="37.6767180" lon="-3.7503860">
        <ele>566.4</ele>
        <time>2020-07-17T05:49:33Z</time>
      </trkpt>
      <trkpt lat="37.6766730" lon="-3.7503280">
        <ele>566.4</ele>
        <time>2020-07-17T05:49:34Z</time>
      </trkpt>
      <trkpt lat="37.6764510" lon="-3.7500060">
        <ele>566.2</ele>
        <time>2020-07-17T05:49:39Z</time>
      </trkpt>
      <trkpt lat="37.6762730" lon="-3.7497210">
        <ele>565.4</ele>
        <time>2020-07-17T05:49:43Z</time>
      </trkpt>
      <trkpt lat="37.6761860" lon="-3.7495890">
        <ele>564.8</ele>
        <time>2020-07-17T05:49:45Z</time>
      </trkpt>
      <trkpt lat="37.6761030" lon="-3.7494600">
        <ele>564.2</ele>
        <time>2020-07-17T05:49:47Z</time>
      </trkpt>
      <trkpt lat="37.6758680" lon="-3.7491280">
        <ele>563.6</ele>
        <time>2020-07-17T05:49:52Z</time>
      </trkpt>
      <trkpt lat="37.6758320" lon="-3.7490600">
        <ele>563.4</ele>
        <time>2020-07-17T05:49:53Z</time>
      </trkpt>
      <trkpt lat="37.6757510" lon="-3.7488240">
        <ele>563.6</ele>
        <time>2020-07-17T05:49:56Z</time>
      </trkpt>
      <trkpt lat="37.6757140" lon="-3.7486410">
        <ele>563.4</ele>
        <time>2020-07-17T05:49:58Z</time>
      </trkpt>
      <trkpt lat="37.6756990" lon="-3.7485570">
        <ele>563.0</ele>
        <time>2020-07-17T05:49:59Z</time>
      </trkpt>
      <trkpt lat="37.6756780" lon="-3.7483650">
        <ele>562.2</ele>
        <time>2020-07-17T05:50:01Z</time>
      </trkpt>
      <trkpt lat="37.6756840" lon="-3.7482540">
        <ele>561.8</ele>
        <time>2020-07-17T05:50:02Z</time>
      </trkpt>
      <trkpt lat="37.6757190" lon="-3.7480520">
        <ele>560.6</ele>
        <time>2020-07-17T05:50:04Z</time>
      </trkpt>
      <trkpt lat="37.6757420" lon="-3.7479540">
        <ele>560.0</ele>
        <time>2020-07-17T05:50:05Z</time>
      </trkpt>
      <trkpt lat="37.6757560" lon="-3.7478640">
        <ele>559.6</ele>
        <time>2020-07-17T05:50:06Z</time>
      </trkpt>
      <trkpt lat="37.6757180" lon="-3.7475950">
        <ele>558.8</ele>
        <time>2020-07-17T05:50:09Z</time>
      </trkpt>
      <trkpt lat="37.6756180" lon="-3.7473750">
        <ele>558.6</ele>
        <time>2020-07-17T05:50:12Z</time>
      </trkpt>
      <trkpt lat="37.6755380" lon="-3.7472390">
        <ele>558.4</ele>
        <time>2020-07-17T05:50:14Z</time>
      </trkpt>
      <trkpt lat="37.6753870" lon="-3.7470730">
        <ele>558.8</ele>
        <time>2020-07-17T05:50:17Z</time>
      </trkpt>
      <trkpt lat="37.6753250" lon="-3.7470230">
        <ele>558.8</ele>
        <time>2020-07-17T05:50:18Z</time>
      </trkpt>
      <trkpt lat="37.6752010" lon="-3.7469550">
        <ele>559.0</ele>
        <time>2020-07-17T05:50:20Z</time>
      </trkpt>
      <trkpt lat="37.6751410" lon="-3.7469280">
        <ele>559.0</ele>
        <time>2020-07-17T05:50:21Z</time>
      </trkpt>
      <trkpt lat="37.6750130" lon="-3.7468850">
        <ele>559.2</ele>
        <time>2020-07-17T05:50:23Z</time>
      </trkpt>
      <trkpt lat="37.6747510" lon="-3.7468330">
        <ele>559.2</ele>
        <time>2020-07-17T05:50:27Z</time>
      </trkpt>
      <trkpt lat="37.6745040" lon="-3.7468050">
        <ele>559.4</ele>
        <time>2020-07-17T05:50:31Z</time>
      </trkpt>
      <trkpt lat="37.6742510" lon="-3.7467660">
        <ele>559.4</ele>
        <time>2020-07-17T05:50:35Z</time>
      </trkpt>
      <trkpt lat="37.6741900" lon="-3.7467470">
        <ele>559.6</ele>
        <time>2020-07-17T05:50:36Z</time>
      </trkpt>
      <trkpt lat="37.6741260" lon="-3.7467240">
        <ele>559.8</ele>
        <time>2020-07-17T05:50:37Z</time>
      </trkpt>
      <trkpt lat="37.6740650" lon="-3.7466950">
        <ele>559.8</ele>
        <time>2020-07-17T05:50:38Z</time>
      </trkpt>
      <trkpt lat="37.6738380" lon="-3.7465460">
        <ele>559.8</ele>
        <time>2020-07-17T05:50:42Z</time>
      </trkpt>
      <trkpt lat="37.6733570" lon="-3.7461990">
        <ele>560.2</ele>
        <time>2020-07-17T05:50:51Z</time>
      </trkpt>
      <trkpt lat="37.6729790" lon="-3.7459360">
        <ele>560.6</ele>
        <time>2020-07-17T05:50:58Z</time>
      </trkpt>
      <trkpt lat="37.6728640" lon="-3.7458760">
        <ele>560.4</ele>
        <time>2020-07-17T05:51:00Z</time>
      </trkpt>
      <trkpt lat="37.6724080" lon="-3.7456500">
        <ele>561.0</ele>
        <time>2020-07-17T05:51:08Z</time>
      </trkpt>
      <trkpt lat="37.6720850" lon="-3.7454780">
        <ele>561.2</ele>
        <time>2020-07-17T05:51:14Z</time>
      </trkpt>
      <trkpt lat="37.6720320" lon="-3.7454490">
        <ele>561.2</ele>
        <time>2020-07-17T05:51:15Z</time>
      </trkpt>
      <trkpt lat="37.6717660" lon="-3.7452760">
        <ele>561.6</ele>
        <time>2020-07-17T05:51:20Z</time>
      </trkpt>
      <trkpt lat="37.6712870" lon="-3.7449630">
        <ele>561.4</ele>
        <time>2020-07-17T05:51:29Z</time>
      </trkpt>
      <trkpt lat="37.6712300" lon="-3.7449330">
        <ele>561.6</ele>
        <time>2020-07-17T05:51:30Z</time>
      </trkpt>
      <trkpt lat="37.6708440" lon="-3.7448010">
        <ele>562.0</ele>
        <time>2020-07-17T05:51:37Z</time>
      </trkpt>
      <trkpt lat="37.6705420" lon="-3.7448090">
        <ele>562.6</ele>
        <time>2020-07-17T05:51:43Z</time>
      </trkpt>
      <trkpt lat="37.6704930" lon="-3.7448200">
        <ele>562.8</ele>
        <time>2020-07-17T05:51:44Z</time>
      </trkpt>
      <trkpt lat="37.6702610" lon="-3.7448920">
        <ele>563.6</ele>
        <time>2020-07-17T05:51:49Z</time>
      </trkpt>
      <trkpt lat="37.6702150" lon="-3.7449080">
        <ele>563.8</ele>
        <time>2020-07-17T05:51:50Z</time>
      </trkpt>
      <trkpt lat="37.6701730" lon="-3.7449230">
        <ele>564.0</ele>
        <time>2020-07-17T05:51:51Z</time>
      </trkpt>
      <trkpt lat="37.6699890" lon="-3.7449710">
        <ele>565.0</ele>
        <time>2020-07-17T05:51:55Z</time>
      </trkpt>
      <trkpt lat="37.6699480" lon="-3.7449780">
        <ele>565.0</ele>
        <time>2020-07-17T05:51:56Z</time>
      </trkpt>
      <trkpt lat="37.6697380" lon="-3.7450040">
        <ele>566.0</ele>
        <time>2020-07-17T05:52:01Z</time>
      </trkpt>
      <trkpt lat="37.6696900" lon="-3.7449950">
        <ele>566.4</ele>
        <time>2020-07-17T05:52:02Z</time>
      </trkpt>
      <trkpt lat="37.6694390" lon="-3.7449480">
        <ele>567.4</ele>
        <time>2020-07-17T05:52:08Z</time>
      </trkpt>
      <trkpt lat="37.6691890" lon="-3.7449250">
        <ele>568.2</ele>
        <time>2020-07-17T05:52:14Z</time>
      </trkpt>
      <trkpt lat="37.6691430" lon="-3.7449310">
        <ele>568.4</ele>
        <time>2020-07-17T05:52:15Z</time>
      </trkpt>
      <trkpt lat="37.6688410" lon="-3.7449600">
        <ele>569.6</ele>
        <time>2020-07-17T05:52:22Z</time>
      </trkpt>
      <trkpt lat="37.6687570" lon="-3.7449540">
        <ele>570.0</ele>
        <time>2020-07-17T05:52:24Z</time>
      </trkpt>
      <trkpt lat="37.6686740" lon="-3.7449330">
        <ele>570.6</ele>
        <time>2020-07-17T05:52:26Z</time>
      </trkpt>
      <trkpt lat="37.6685120" lon="-3.7448550">
        <ele>571.4</ele>
        <time>2020-07-17T05:52:30Z</time>
      </trkpt>
      <trkpt lat="37.6683670" lon="-3.7447530">
        <ele>571.8</ele>
        <time>2020-07-17T05:52:34Z</time>
      </trkpt>
      <trkpt lat="37.6682600" lon="-3.7446580">
        <ele>572.0</ele>
        <time>2020-07-17T05:52:37Z</time>
      </trkpt>
      <trkpt lat="37.6680840" lon="-3.7444960">
        <ele>572.8</ele>
        <time>2020-07-17T05:52:42Z</time>
      </trkpt>
      <trkpt lat="37.6679440" lon="-3.7443940">
        <ele>573.2</ele>
        <time>2020-07-17T05:52:46Z</time>
      </trkpt>
      <trkpt lat="37.6677780" lon="-3.7443300">
        <ele>574.0</ele>
        <time>2020-07-17T05:52:50Z</time>
      </trkpt>
      <trkpt lat="37.6676960" lon="-3.7443000">
        <ele>574.2</ele>
        <time>2020-07-17T05:52:52Z</time>
      </trkpt>
      <trkpt lat="37.6675300" lon="-3.7442400">
        <ele>575.0</ele>
        <time>2020-07-17T05:52:56Z</time>
      </trkpt>
      <trkpt lat="37.6673180" lon="-3.7441390">
        <ele>575.8</ele>
        <time>2020-07-17T05:53:01Z</time>
      </trkpt>
      <trkpt lat="37.6672740" lon="-3.7441200">
        <ele>576.0</ele>
        <time>2020-07-17T05:53:02Z</time>
      </trkpt>
      <trkpt lat="37.6671070" lon="-3.7440490">
        <ele>576.8</ele>
        <time>2020-07-17T05:53:06Z</time>
      </trkpt>
      <trkpt lat="37.6670630" lon="-3.7440300">
        <ele>576.8</ele>
        <time>2020-07-17T05:53:07Z</time>
      </trkpt>
      <trkpt lat="37.6669320" lon="-3.7439870">
        <ele>577.0</ele>
        <time>2020-07-17T05:53:10Z</time>
      </trkpt>
      <trkpt lat="37.6668920" lon="-3.7439770">
        <ele>577.2</ele>
        <time>2020-07-17T05:53:11Z</time>
      </trkpt>
      <trkpt lat="37.6668450" lon="-3.7439590">
        <ele>577.4</ele>
        <time>2020-07-17T05:53:12Z</time>
      </trkpt>
      <trkpt lat="37.6666850" lon="-3.7438860">
        <ele>578.2</ele>
        <time>2020-07-17T05:53:16Z</time>
      </trkpt>
      <trkpt lat="37.6664120" lon="-3.7437180">
        <ele>579.4</ele>
        <time>2020-07-17T05:53:23Z</time>
      </trkpt>
      <trkpt lat="37.6662320" lon="-3.7435600">
        <ele>580.2</ele>
        <time>2020-07-17T05:53:28Z</time>
      </trkpt>
      <trkpt lat="37.6662010" lon="-3.7435240">
        <ele>580.4</ele>
        <time>2020-07-17T05:53:29Z</time>
      </trkpt>
      <trkpt lat="37.6660380" lon="-3.7433400">
        <ele>580.8</ele>
        <time>2020-07-17T05:53:34Z</time>
      </trkpt>
      <trkpt lat="37.6659850" lon="-3.7432660">
        <ele>581.2</ele>
        <time>2020-07-17T05:53:36Z</time>
      </trkpt>
      <trkpt lat="37.6659310" lon="-3.7431960">
        <ele>581.6</ele>
        <time>2020-07-17T05:53:38Z</time>
      </trkpt>
      <trkpt lat="37.6658240" lon="-3.7430640">
        <ele>582.6</ele>
        <time>2020-07-17T05:53:42Z</time>
      </trkpt>
      <trkpt lat="37.6656540" lon="-3.7428660">
        <ele>583.6</ele>
        <time>2020-07-17T05:53:48Z</time>
      </trkpt>
      <trkpt lat="37.6655300" lon="-3.7426910">
        <ele>584.6</ele>
        <time>2020-07-17T05:53:53Z</time>
      </trkpt>
      <trkpt lat="37.6655030" lon="-3.7426530">
        <ele>584.8</ele>
        <time>2020-07-17T05:53:54Z</time>
      </trkpt>
      <trkpt lat="37.6653970" lon="-3.7425090">
        <ele>585.6</ele>
        <time>2020-07-17T05:53:58Z</time>
      </trkpt>
      <trkpt lat="37.6653400" lon="-3.7424400">
        <ele>585.8</ele>
        <time>2020-07-17T05:54:00Z</time>
      </trkpt>
      <trkpt lat="37.6652160" lon="-3.7423350">
        <ele>587.0</ele>
        <time>2020-07-17T05:54:04Z</time>
      </trkpt>
      <trkpt lat="37.6651780" lon="-3.7423170">
        <ele>587.2</ele>
        <time>2020-07-17T05:54:05Z</time>
      </trkpt>
      <trkpt lat="37.6650570" lon="-3.7422710">
        <ele>587.6</ele>
        <time>2020-07-17T05:54:08Z</time>
      </trkpt>
      <trkpt lat="37.6649820" lon="-3.7422340">
        <ele>588.0</ele>
        <time>2020-07-17T05:54:10Z</time>
      </trkpt>
      <trkpt lat="37.6648710" lon="-3.7421830">
        <ele>588.6</ele>
        <time>2020-07-17T05:54:13Z</time>
      </trkpt>
      <trkpt lat="37.6647750" lon="-3.7421240">
        <ele>589.2</ele>
        <time>2020-07-17T05:54:16Z</time>
      </trkpt>
      <trkpt lat="37.6646780" lon="-3.7420480">
        <ele>589.8</ele>
        <time>2020-07-17T05:54:19Z</time>
      </trkpt>
      <trkpt lat="37.6646470" lon="-3.7420210">
        <ele>590.2</ele>
        <time>2020-07-17T05:54:20Z</time>
      </trkpt>
      <trkpt lat="37.6644900" lon="-3.7418690">
        <ele>591.0</ele>
        <time>2020-07-17T05:54:25Z</time>
      </trkpt>
      <trkpt lat="37.6644590" lon="-3.7418440">
        <ele>591.2</ele>
        <time>2020-07-17T05:54:26Z</time>
      </trkpt>
      <trkpt lat="37.6642990" lon="-3.7417250">
        <ele>592.0</ele>
        <time>2020-07-17T05:54:31Z</time>
      </trkpt>
      <trkpt lat="37.6642630" lon="-3.7417010">
        <ele>592.2</ele>
        <time>2020-07-17T05:54:32Z</time>
      </trkpt>
      <trkpt lat="37.6641070" lon="-3.7415610">
        <ele>593.4</ele>
        <time>2020-07-17T05:54:37Z</time>
      </trkpt>
      <trkpt lat="37.6639870" lon="-3.7413790">
        <ele>594.6</ele>
        <time>2020-07-17T05:54:42Z</time>
      </trkpt>
      <trkpt lat="37.6639260" lon="-3.7412100">
        <ele>595.6</ele>
        <time>2020-07-17T05:54:46Z</time>
      </trkpt>
      <trkpt lat="37.6639110" lon="-3.7411590">
        <ele>595.8</ele>
        <time>2020-07-17T05:54:47Z</time>
      </trkpt>
      <trkpt lat="37.6638940" lon="-3.7409620">
        <ele>596.6</ele>
        <time>2020-07-17T05:54:51Z</time>
      </trkpt>
      <trkpt lat="37.6638920" lon="-3.7409130">
        <ele>596.8</ele>
        <time>2020-07-17T05:54:52Z</time>
      </trkpt>
      <trkpt lat="37.6638870" lon="-3.7406770">
        <ele>597.6</ele>
        <time>2020-07-17T05:54:57Z</time>
      </trkpt>
      <trkpt lat="37.6638550" lon="-3.7405350">
        <ele>598.4</ele>
        <time>2020-07-17T05:55:00Z</time>
      </trkpt>
      <trkpt lat="37.6638180" lon="-3.7404510">
        <ele>598.8</ele>
        <time>2020-07-17T05:55:02Z</time>
      </trkpt>
      <trkpt lat="37.6637650" lon="-3.7403830">
        <ele>599.0</ele>
        <time>2020-07-17T05:55:04Z</time>
      </trkpt>
      <trkpt lat="37.6635920" lon="-3.7402780">
        <ele>600.0</ele>
        <time>2020-07-17T05:55:09Z</time>
      </trkpt>
      <trkpt lat="37.6634180" lon="-3.7401780">
        <ele>601.2</ele>
        <time>2020-07-17T05:55:14Z</time>
      </trkpt>
      <trkpt lat="37.6633310" lon="-3.7400980">
        <ele>601.8</ele>
        <time>2020-07-17T05:55:17Z</time>
      </trkpt>
      <trkpt lat="37.6632360" lon="-3.7399960">
        <ele>602.2</ele>
        <time>2020-07-17T05:55:20Z</time>
      </trkpt>
      <trkpt lat="37.6631520" lon="-3.7398970">
        <ele>602.8</ele>
        <time>2020-07-17T05:55:23Z</time>
      </trkpt>
      <trkpt lat="37.6631090" lon="-3.7398590">
        <ele>602.8</ele>
        <time>2020-07-17T05:55:24Z</time>
      </trkpt>
      <trkpt lat="37.6630520" lon="-3.7397970">
        <ele>603.2</ele>
        <time>2020-07-17T05:55:26Z</time>
      </trkpt>
      <trkpt lat="37.6630250" lon="-3.7397610">
        <ele>603.2</ele>
        <time>2020-07-17T05:55:27Z</time>
      </trkpt>
      <trkpt lat="37.6630000" lon="-3.7397290">
        <ele>603.4</ele>
        <time>2020-07-17T05:55:28Z</time>
      </trkpt>
      <trkpt lat="37.6628810" lon="-3.7396160">
        <ele>604.4</ele>
        <time>2020-07-17T05:55:32Z</time>
      </trkpt>
      <trkpt lat="37.6627320" lon="-3.7394940">
        <ele>605.2</ele>
        <time>2020-07-17T05:55:37Z</time>
      </trkpt>
      <trkpt lat="37.6627020" lon="-3.7394760">
        <ele>605.4</ele>
        <time>2020-07-17T05:55:38Z</time>
      </trkpt>
      <trkpt lat="37.6626270" lon="-3.7394330">
        <ele>606.4</ele>
        <time>2020-07-17T05:55:41Z</time>
      </trkpt>
      <trkpt lat="37.6625910" lon="-3.7394170">
        <ele>606.6</ele>
        <time>2020-07-17T05:55:42Z</time>
      </trkpt>
      <trkpt lat="37.6624970" lon="-3.7393700">
        <ele>607.4</ele>
        <time>2020-07-17T05:55:45Z</time>
      </trkpt>
      <trkpt lat="37.6624340" lon="-3.7393430">
        <ele>607.8</ele>
        <time>2020-07-17T05:55:47Z</time>
      </trkpt>
      <trkpt lat="37.6623520" lon="-3.7393200">
        <ele>608.4</ele>
        <time>2020-07-17T05:55:50Z</time>
      </trkpt>
      <trkpt lat="37.6623260" lon="-3.7393110">
        <ele>608.8</ele>
        <time>2020-07-17T05:55:51Z</time>
      </trkpt>
      <trkpt lat="37.6621930" lon="-3.7392780">
        <ele>609.8</ele>
        <time>2020-07-17T05:55:55Z</time>
      </trkpt>
      <trkpt lat="37.6620270" lon="-3.7392560">
        <ele>611.0</ele>
        <time>2020-07-17T05:56:00Z</time>
      </trkpt>
      <trkpt lat="37.6619000" lon="-3.7392530">
        <ele>612.2</ele>
        <time>2020-07-17T05:56:04Z</time>
      </trkpt>
      <trkpt lat="37.6618100" lon="-3.7392590">
        <ele>612.8</ele>
        <time>2020-07-17T05:56:07Z</time>
      </trkpt>
      <trkpt lat="37.6617460" lon="-3.7392630">
        <ele>613.2</ele>
        <time>2020-07-17T05:56:09Z</time>
      </trkpt>
      <trkpt lat="37.6615370" lon="-3.7392640">
        <ele>614.4</ele>
        <time>2020-07-17T05:56:15Z</time>
      </trkpt>
      <trkpt lat="37.6613730" lon="-3.7392950">
        <ele>615.4</ele>
        <time>2020-07-17T05:56:20Z</time>
      </trkpt>
      <trkpt lat="37.6613090" lon="-3.7393230">
        <ele>615.8</ele>
        <time>2020-07-17T05:56:22Z</time>
      </trkpt>
      <trkpt lat="37.6611790" lon="-3.7393760">
        <ele>616.4</ele>
        <time>2020-07-17T05:56:26Z</time>
      </trkpt>
      <trkpt lat="37.6610650" lon="-3.7393980">
        <ele>617.0</ele>
        <time>2020-07-17T05:56:29Z</time>
      </trkpt>
      <trkpt lat="37.6609270" lon="-3.7394500">
        <ele>617.6</ele>
        <time>2020-07-17T05:56:33Z</time>
      </trkpt>
      <trkpt lat="37.6608920" lon="-3.7394580">
        <ele>617.8</ele>
        <time>2020-07-17T05:56:34Z</time>
      </trkpt>
      <trkpt lat="37.6607160" lon="-3.7394830">
        <ele>618.4</ele>
        <time>2020-07-17T05:56:39Z</time>
      </trkpt>
      <trkpt lat="37.6606810" lon="-3.7394900">
        <ele>618.6</ele>
        <time>2020-07-17T05:56:40Z</time>
      </trkpt>
      <trkpt lat="37.6604620" lon="-3.7395590">
        <ele>619.4</ele>
        <time>2020-07-17T05:56:46Z</time>
      </trkpt>
      <trkpt lat="37.6604260" lon="-3.7395830">
        <ele>619.8</ele>
        <time>2020-07-17T05:56:47Z</time>
      </trkpt>
      <trkpt lat="37.6602680" lon="-3.7397230">
        <ele>620.4</ele>
        <time>2020-07-17T05:56:52Z</time>
      </trkpt>
      <trkpt lat="37.6602140" lon="-3.7397830">
        <ele>620.8</ele>
        <time>2020-07-17T05:56:54Z</time>
      </trkpt>
      <trkpt lat="37.6601200" lon="-3.7399140">
        <ele>621.6</ele>
        <time>2020-07-17T05:56:58Z</time>
      </trkpt>
      <trkpt lat="37.6600960" lon="-3.7399450">
        <ele>621.8</ele>
        <time>2020-07-17T05:56:59Z</time>
      </trkpt>
      <trkpt lat="37.6599650" lon="-3.7400780">
        <ele>622.6</ele>
        <time>2020-07-17T05:57:04Z</time>
      </trkpt>
      <trkpt lat="37.6599410" lon="-3.7401040">
        <ele>622.8</ele>
        <time>2020-07-17T05:57:05Z</time>
      </trkpt>
      <trkpt lat="37.6598370" lon="-3.7401900">
        <ele>624.0</ele>
        <time>2020-07-17T05:57:09Z</time>
      </trkpt>
      <trkpt lat="37.6597900" lon="-3.7402340">
        <ele>624.4</ele>
        <time>2020-07-17T05:57:11Z</time>
      </trkpt>
      <trkpt lat="37.6597110" lon="-3.7403100">
        <ele>625.2</ele>
        <time>2020-07-17T05:57:14Z</time>
      </trkpt>
      <trkpt lat="37.6595890" lon="-3.7403760">
        <ele>626.2</ele>
        <time>2020-07-17T05:57:18Z</time>
      </trkpt>
      <trkpt lat="37.6595570" lon="-3.7403870">
        <ele>626.6</ele>
        <time>2020-07-17T05:57:19Z</time>
      </trkpt>
      <trkpt lat="37.6594320" lon="-3.7404030">
        <ele>627.4</ele>
        <time>2020-07-17T05:57:23Z</time>
      </trkpt>
      <trkpt lat="37.6593430" lon="-3.7403960">
        <ele>628.2</ele>
        <time>2020-07-17T05:57:26Z</time>
      </trkpt>
      <trkpt lat="37.6593130" lon="-3.7403940">
        <ele>628.4</ele>
        <time>2020-07-17T05:57:27Z</time>
      </trkpt>
      <trkpt lat="37.6591950" lon="-3.7403820">
        <ele>629.4</ele>
        <time>2020-07-17T05:57:31Z</time>
      </trkpt>
      <trkpt lat="37.6591620" lon="-3.7403770">
        <ele>629.6</ele>
        <time>2020-07-17T05:57:32Z</time>
      </trkpt>
      <trkpt lat="37.6590380" lon="-3.7403850">
        <ele>630.6</ele>
        <time>2020-07-17T05:57:36Z</time>
      </trkpt>
      <trkpt lat="37.6589730" lon="-3.7403940">
        <ele>630.8</ele>
        <time>2020-07-17T05:57:38Z</time>
      </trkpt>
      <trkpt lat="37.6588430" lon="-3.7404330">
        <ele>631.8</ele>
        <time>2020-07-17T05:57:42Z</time>
      </trkpt>
      <trkpt lat="37.6587810" lon="-3.7404710">
        <ele>632.2</ele>
        <time>2020-07-17T05:57:44Z</time>
      </trkpt>
      <trkpt lat="37.6586990" lon="-3.7405520">
        <ele>632.8</ele>
        <time>2020-07-17T05:57:47Z</time>
      </trkpt>
      <trkpt lat="37.6586500" lon="-3.7406170">
        <ele>633.2</ele>
        <time>2020-07-17T05:57:49Z</time>
      </trkpt>
      <trkpt lat="37.6585240" lon="-3.7407780">
        <ele>634.0</ele>
        <time>2020-07-17T05:57:54Z</time>
      </trkpt>
      <trkpt lat="37.6584700" lon="-3.7408350">
        <ele>634.4</ele>
        <time>2020-07-17T05:57:56Z</time>
      </trkpt>
      <trkpt lat="37.6583170" lon="-3.7409480">
        <ele>634.8</ele>
        <time>2020-07-17T05:58:01Z</time>
      </trkpt>
      <trkpt lat="37.6582810" lon="-3.7409620">
        <ele>635.0</ele>
        <time>2020-07-17T05:58:02Z</time>
      </trkpt>
      <trkpt lat="37.6581000" lon="-3.7410060">
        <ele>636.2</ele>
        <time>2020-07-17T05:58:07Z</time>
      </trkpt>
      <trkpt lat="37.6580630" lon="-3.7410070">
        <ele>636.4</ele>
        <time>2020-07-17T05:58:08Z</time>
      </trkpt>
      <trkpt lat="37.6578440" lon="-3.7409960">
        <ele>637.2</ele>
        <time>2020-07-17T05:58:14Z</time>
      </trkpt>
      <trkpt lat="37.6577460" lon="-3.7409950">
        <ele>637.8</ele>
        <time>2020-07-17T05:58:17Z</time>
      </trkpt>
      <trkpt lat="37.6576450" lon="-3.7410130">
        <ele>638.4</ele>
        <time>2020-07-17T05:58:20Z</time>
      </trkpt>
      <trkpt lat="37.6575250" lon="-3.7410380">
        <ele>639.2</ele>
        <time>2020-07-17T05:58:24Z</time>
      </trkpt>
      <trkpt lat="37.6574560" lon="-3.7410450">
        <ele>639.4</ele>
        <time>2020-07-17T05:58:26Z</time>
      </trkpt>
      <trkpt lat="37.6573510" lon="-3.7410600">
        <ele>640.0</ele>
        <time>2020-07-17T05:58:29Z</time>
      </trkpt>
      <trkpt lat="37.6572790" lon="-3.7410700">
        <ele>640.4</ele>
        <time>2020-07-17T05:58:31Z</time>
      </trkpt>
      <trkpt lat="37.6571040" lon="-3.7411000">
        <ele>641.4</ele>
        <time>2020-07-17T05:58:36Z</time>
      </trkpt>
      <trkpt lat="37.6570040" lon="-3.7411170">
        <ele>642.0</ele>
        <time>2020-07-17T05:58:39Z</time>
      </trkpt>
      <trkpt lat="37.6569080" lon="-3.7411210">
        <ele>642.6</ele>
        <time>2020-07-17T05:58:42Z</time>
      </trkpt>
      <trkpt lat="37.6568110" lon="-3.7411310">
        <ele>643.2</ele>
        <time>2020-07-17T05:58:45Z</time>
      </trkpt>
      <trkpt lat="37.6567890" lon="-3.7411350">
        <ele>643.4</ele>
        <time>2020-07-17T05:58:46Z</time>
      </trkpt>
      <trkpt lat="37.6567610" lon="-3.7411400">
        <ele>643.8</ele>
        <time>2020-07-17T05:58:47Z</time>
      </trkpt>
      <trkpt lat="37.6567050" lon="-3.7411550">
        <ele>644.4</ele>
        <time>2020-07-17T05:58:49Z</time>
      </trkpt>
      <trkpt lat="37.6566520" lon="-3.7411630">
        <ele>644.8</ele>
        <time>2020-07-17T05:58:51Z</time>
      </trkpt>
      <trkpt lat="37.6565410" lon="-3.7411790">
        <ele>645.8</ele>
        <time>2020-07-17T05:58:55Z</time>
      </trkpt>
      <trkpt lat="37.6565110" lon="-3.7411840">
        <ele>646.0</ele>
        <time>2020-07-17T05:58:56Z</time>
      </trkpt>
      <trkpt lat="37.6563550" lon="-3.7412250">
        <ele>647.2</ele>
        <time>2020-07-17T05:59:01Z</time>
      </trkpt>
      <trkpt lat="37.6562930" lon="-3.7412350">
        <ele>647.8</ele>
        <time>2020-07-17T05:59:03Z</time>
      </trkpt>
      <trkpt lat="37.6562380" lon="-3.7412400">
        <ele>648.4</ele>
        <time>2020-07-17T05:59:05Z</time>
      </trkpt>
      <trkpt lat="37.6560950" lon="-3.7412660">
        <ele>649.6</ele>
        <time>2020-07-17T05:59:10Z</time>
      </trkpt>
      <trkpt lat="37.6559550" lon="-3.7412860">
        <ele>650.8</ele>
        <time>2020-07-17T05:59:15Z</time>
      </trkpt>
      <trkpt lat="37.6559030" lon="-3.7412990">
        <ele>651.2</ele>
        <time>2020-07-17T05:59:17Z</time>
      </trkpt>
      <trkpt lat="37.6558500" lon="-3.7413100">
        <ele>651.8</ele>
        <time>2020-07-17T05:59:19Z</time>
      </trkpt>
      <trkpt lat="37.6557140" lon="-3.7413330">
        <ele>652.8</ele>
        <time>2020-07-17T05:59:24Z</time>
      </trkpt>
      <trkpt lat="37.6555830" lon="-3.7413110">
        <ele>654.0</ele>
        <time>2020-07-17T05:59:29Z</time>
      </trkpt>
      <trkpt lat="37.6554560" lon="-3.7411730">
        <ele>655.0</ele>
        <time>2020-07-17T05:59:35Z</time>
      </trkpt>
      <trkpt lat="37.6554390" lon="-3.7411400">
        <ele>655.2</ele>
        <time>2020-07-17T05:59:36Z</time>
      </trkpt>
      <trkpt lat="37.6553970" lon="-3.7410170">
        <ele>656.0</ele>
        <time>2020-07-17T05:59:40Z</time>
      </trkpt>
      <trkpt lat="37.6553850" lon="-3.7409930">
        <ele>656.2</ele>
        <time>2020-07-17T05:59:41Z</time>
      </trkpt>
      <trkpt lat="37.6553100" lon="-3.7408600">
        <ele>657.4</ele>
        <time>2020-07-17T05:59:46Z</time>
      </trkpt>
      <trkpt lat="37.6552640" lon="-3.7408200">
        <ele>658.0</ele>
        <time>2020-07-17T05:59:48Z</time>
      </trkpt>
      <trkpt lat="37.6552250" lon="-3.7407870">
        <ele>658.6</ele>
        <time>2020-07-17T05:59:50Z</time>
      </trkpt>
      <trkpt lat="37.6551310" lon="-3.7407260">
        <ele>659.6</ele>
        <time>2020-07-17T05:59:55Z</time>
      </trkpt>
      <trkpt lat="37.6551150" lon="-3.7407190">
        <ele>659.8</ele>
        <time>2020-07-17T05:59:56Z</time>
      </trkpt>
      <trkpt lat="37.6550380" lon="-3.7406930">
        <ele>660.8</ele>
        <time>2020-07-17T06:00:00Z</time>
      </trkpt>
      <trkpt lat="37.6549860" lon="-3.7406930">
        <ele>661.2</ele>
        <time>2020-07-17T06:00:02Z</time>
      </trkpt>
      <trkpt lat="37.6549030" lon="-3.7407010">
        <ele>662.0</ele>
        <time>2020-07-17T06:00:05Z</time>
      </trkpt>
      <trkpt lat="37.6547900" lon="-3.7407260">
        <ele>663.2</ele>
        <time>2020-07-17T06:00:09Z</time>
      </trkpt>
      <trkpt lat="37.6545960" lon="-3.7407800">
        <ele>664.2</ele>
        <time>2020-07-17T06:00:15Z</time>
      </trkpt>
      <trkpt lat="37.6545610" lon="-3.7407900">
        <ele>664.2</ele>
        <time>2020-07-17T06:00:16Z</time>
      </trkpt>
      <trkpt lat="37.6543310" lon="-3.7408900">
        <ele>664.4</ele>
        <time>2020-07-17T06:00:22Z</time>
      </trkpt>
      <trkpt lat="37.6542570" lon="-3.7409180">
        <ele>664.4</ele>
        <time>2020-07-17T06:00:23Z</time>
      </trkpt>
      <trkpt lat="37.6540970" lon="-3.7409640">
        <ele>664.2</ele>
        <time>2020-07-17T06:00:26Z</time>
      </trkpt>
      <trkpt lat="37.6539800" lon="-3.7409730">
        <ele>664.0</ele>
        <time>2020-07-17T06:00:28Z</time>
      </trkpt>
      <trkpt lat="37.6538000" lon="-3.7409560">
        <ele>663.8</ele>
        <time>2020-07-17T06:00:31Z</time>
      </trkpt>
      <trkpt lat="37.6536640" lon="-3.7409560">
        <ele>663.6</ele>
        <time>2020-07-17T06:00:33Z</time>
      </trkpt>
      <trkpt lat="37.6534690" lon="-3.7409730">
        <ele>663.6</ele>
        <time>2020-07-17T06:00:36Z</time>
      </trkpt>
      <trkpt lat="37.6531900" lon="-3.7409640">
        <ele>663.2</ele>
        <time>2020-07-17T06:00:40Z</time>
      </trkpt>
      <trkpt lat="37.6530520" lon="-3.7409520">
        <ele>663.2</ele>
        <time>2020-07-17T06:00:42Z</time>
      </trkpt>
      <trkpt lat="37.6527570" lon="-3.7409870">
        <ele>663.4</ele>
        <time>2020-07-17T06:00:47Z</time>
      </trkpt>
      <trkpt lat="37.6525860" lon="-3.7410050">
        <ele>664.6</ele>
        <time>2020-07-17T06:00:51Z</time>
      </trkpt>
      <trkpt lat="37.6525500" lon="-3.7410100">
        <ele>665.0</ele>
        <time>2020-07-17T06:00:52Z</time>
      </trkpt>
      <trkpt lat="37.6525140" lon="-3.7410120">
        <ele>665.4</ele>
        <time>2020-07-17T06:00:53Z</time>
      </trkpt>
      <trkpt lat="37.6524120" lon="-3.7410190">
        <ele>666.4</ele>
        <time>2020-07-17T06:00:56Z</time>
      </trkpt>
      <trkpt lat="37.6523780" lon="-3.7410190">
        <ele>666.6</ele>
        <time>2020-07-17T06:00:57Z</time>
      </trkpt>
      <trkpt lat="37.6522830" lon="-3.7410000">
        <ele>667.6</ele>
        <time>2020-07-17T06:01:00Z</time>
      </trkpt>
      <trkpt lat="37.6521880" lon="-3.7409630">
        <ele>668.8</ele>
        <time>2020-07-17T06:01:03Z</time>
      </trkpt>
      <trkpt lat="37.6520300" lon="-3.7408970">
        <ele>670.0</ele>
        <time>2020-07-17T06:01:08Z</time>
      </trkpt>
      <trkpt lat="37.6519630" lon="-3.7408950">
        <ele>670.6</ele>
        <time>2020-07-17T06:01:10Z</time>
      </trkpt>
      <trkpt lat="37.6518910" lon="-3.7409130">
        <ele>671.0</ele>
        <time>2020-07-17T06:01:12Z</time>
      </trkpt>
      <trkpt lat="37.6517710" lon="-3.7409560">
        <ele>671.4</ele>
        <time>2020-07-17T06:01:15Z</time>
      </trkpt>
      <trkpt lat="37.6516450" lon="-3.7410020">
        <ele>671.6</ele>
        <time>2020-07-17T06:01:18Z</time>
      </trkpt>
      <trkpt lat="37.6515460" lon="-3.7410120">
        <ele>671.2</ele>
        <time>2020-07-17T06:01:20Z</time>
      </trkpt>
      <trkpt lat="37.6513550" lon="-3.7410100">
        <ele>671.2</ele>
        <time>2020-07-17T06:01:23Z</time>
      </trkpt>
      <trkpt lat="37.6513100" lon="-3.7410260">
        <ele>671.2</ele>
        <time>2020-07-17T06:01:24Z</time>
      </trkpt>
      <trkpt lat="37.6512550" lon="-3.7410450">
        <ele>671.4</ele>
        <time>2020-07-17T06:01:25Z</time>
      </trkpt>
      <trkpt lat="37.6508970" lon="-3.7411330">
        <ele>671.6</ele>
        <time>2020-07-17T06:01:32Z</time>
      </trkpt>
      <trkpt lat="37.6506850" lon="-3.7411400">
        <ele>672.2</ele>
        <time>2020-07-17T06:01:36Z</time>
      </trkpt>
      <trkpt lat="37.6505820" lon="-3.7411390">
        <ele>672.4</ele>
        <time>2020-07-17T06:01:38Z</time>
      </trkpt>
      <trkpt lat="37.6503250" lon="-3.7411500">
        <ele>673.0</ele>
        <time>2020-07-17T06:01:43Z</time>
      </trkpt>
      <trkpt lat="37.6502150" lon="-3.7411730">
        <ele>673.2</ele>
        <time>2020-07-17T06:01:45Z</time>
      </trkpt>
      <trkpt lat="37.6501720" lon="-3.7411860">
        <ele>673.2</ele>
        <time>2020-07-17T06:01:46Z</time>
      </trkpt>
      <trkpt lat="37.6498160" lon="-3.7412980">
        <ele>673.0</ele>
        <time>2020-07-17T06:01:52Z</time>
      </trkpt>
      <trkpt lat="37.6497650" lon="-3.7413370">
        <ele>673.0</ele>
        <time>2020-07-17T06:01:53Z</time>
      </trkpt>
      <trkpt lat="37.6496420" lon="-3.7415130">
        <ele>673.0</ele>
        <time>2020-07-17T06:01:56Z</time>
      </trkpt>
      <trkpt lat="37.6495750" lon="-3.7416030">
        <ele>673.0</ele>
        <time>2020-07-17T06:01:58Z</time>
      </trkpt>
      <trkpt lat="37.6494540" lon="-3.7417260">
        <ele>672.8</ele>
        <time>2020-07-17T06:02:00Z</time>
      </trkpt>
      <trkpt lat="37.6493970" lon="-3.7417510">
        <ele>672.6</ele>
        <time>2020-07-17T06:02:01Z</time>
      </trkpt>
      <trkpt lat="37.6491610" lon="-3.7417400">
        <ele>673.4</ele>
        <time>2020-07-17T06:02:05Z</time>
      </trkpt>
      <trkpt lat="37.6490470" lon="-3.7415770">
        <ele>673.6</ele>
        <time>2020-07-17T06:02:08Z</time>
      </trkpt>
      <trkpt lat="37.6490080" lon="-3.7413570">
        <ele>673.4</ele>
        <time>2020-07-17T06:02:11Z</time>
      </trkpt>
      <trkpt lat="37.6489960" lon="-3.7412690">
        <ele>673.6</ele>
        <time>2020-07-17T06:02:12Z</time>
      </trkpt>
      <trkpt lat="37.6489490" lon="-3.7410070">
        <ele>673.2</ele>
        <time>2020-07-17T06:02:15Z</time>
      </trkpt>
      <trkpt lat="37.6488870" lon="-3.7408110">
        <ele>672.8</ele>
        <time>2020-07-17T06:02:17Z</time>
      </trkpt>
      <trkpt lat="37.6488220" lon="-3.7405960">
        <ele>672.0</ele>
        <time>2020-07-17T06:02:19Z</time>
      </trkpt>
      <trkpt lat="37.6487560" lon="-3.7403090">
        <ele>671.0</ele>
        <time>2020-07-17T06:02:22Z</time>
      </trkpt>
      <trkpt lat="37.6486870" lon="-3.7400170">
        <ele>669.8</ele>
        <time>2020-07-17T06:02:24Z</time>
      </trkpt>
      <trkpt lat="37.6486360" lon="-3.7398030">
        <ele>668.8</ele>
        <time>2020-07-17T06:02:26Z</time>
      </trkpt>
      <trkpt lat="37.6485890" lon="-3.7395390">
        <ele>668.0</ele>
        <time>2020-07-17T06:02:29Z</time>
      </trkpt>
      <trkpt lat="37.6484960" lon="-3.7391460">
        <ele>668.6</ele>
        <time>2020-07-17T06:02:33Z</time>
      </trkpt>
      <trkpt lat="37.6484650" lon="-3.7390800">
        <ele>668.8</ele>
        <time>2020-07-17T06:02:34Z</time>
      </trkpt>
      <trkpt lat="37.6482770" lon="-3.7389110">
        <ele>670.0</ele>
        <time>2020-07-17T06:02:38Z</time>
      </trkpt>
      <trkpt lat="37.6480870" lon="-3.7388830">
        <ele>670.2</ele>
        <time>2020-07-17T06:02:41Z</time>
      </trkpt>
      <trkpt lat="37.6479350" lon="-3.7387010">
        <ele>669.8</ele>
        <time>2020-07-17T06:02:44Z</time>
      </trkpt>
      <trkpt lat="37.6478970" lon="-3.7386320">
        <ele>669.4</ele>
        <time>2020-07-17T06:02:45Z</time>
      </trkpt>
      <trkpt lat="37.6477900" lon="-3.7384810">
        <ele>668.8</ele>
        <time>2020-07-17T06:02:47Z</time>
      </trkpt>
      <trkpt lat="37.6477250" lon="-3.7384200">
        <ele>668.4</ele>
        <time>2020-07-17T06:02:48Z</time>
      </trkpt>
      <trkpt lat="37.6475680" lon="-3.7383410">
        <ele>667.4</ele>
        <time>2020-07-17T06:02:50Z</time>
      </trkpt>
      <trkpt lat="37.6474900" lon="-3.7383190">
        <ele>666.8</ele>
        <time>2020-07-17T06:02:51Z</time>
      </trkpt>
      <trkpt lat="37.6474090" lon="-3.7382770">
        <ele>666.0</ele>
        <time>2020-07-17T06:02:52Z</time>
      </trkpt>
      <trkpt lat="37.6472860" lon="-3.7381370">
        <ele>664.8</ele>
        <time>2020-07-17T06:02:54Z</time>
      </trkpt>
      <trkpt lat="37.6471920" lon="-3.7379500">
        <ele>663.4</ele>
        <time>2020-07-17T06:02:56Z</time>
      </trkpt>
      <trkpt lat="37.6471410" lon="-3.7378440">
        <ele>663.0</ele>
        <time>2020-07-17T06:02:57Z</time>
      </trkpt>
      <trkpt lat="37.6470800" lon="-3.7377520">
        <ele>662.4</ele>
        <time>2020-07-17T06:02:58Z</time>
      </trkpt>
      <trkpt lat="37.6469100" lon="-3.7376200">
        <ele>661.4</ele>
        <time>2020-07-17T06:03:00Z</time>
      </trkpt>
      <trkpt lat="37.6467330" lon="-3.7375190">
        <ele>660.4</ele>
        <time>2020-07-17T06:03:02Z</time>
      </trkpt>
      <trkpt lat="37.6465630" lon="-3.7374260">
        <ele>659.0</ele>
        <time>2020-07-17T06:03:04Z</time>
      </trkpt>
      <trkpt lat="37.6464890" lon="-3.7373770">
        <ele>658.8</ele>
        <time>2020-07-17T06:03:05Z</time>
      </trkpt>
      <trkpt lat="37.6464280" lon="-3.7373130">
        <ele>658.4</ele>
        <time>2020-07-17T06:03:06Z</time>
      </trkpt>
      <trkpt lat="37.6463670" lon="-3.7372480">
        <ele>658.4</ele>
        <time>2020-07-17T06:03:07Z</time>
      </trkpt>
      <trkpt lat="37.6463200" lon="-3.7371900">
        <ele>658.4</ele>
        <time>2020-07-17T06:03:08Z</time>
      </trkpt>
      <trkpt lat="37.6462760" lon="-3.7371280">
        <ele>658.6</ele>
        <time>2020-07-17T06:03:09Z</time>
      </trkpt>
      <trkpt lat="37.6462290" lon="-3.7370730">
        <ele>658.8</ele>
        <time>2020-07-17T06:03:10Z</time>
      </trkpt>
      <trkpt lat="37.6461430" lon="-3.7369840">
        <ele>659.6</ele>
        <time>2020-07-17T06:03:12Z</time>
      </trkpt>
      <trkpt lat="37.6460940" lon="-3.7369570">
        <ele>660.0</ele>
        <time>2020-07-17T06:03:13Z</time>
      </trkpt>
      <trkpt lat="37.6460160" lon="-3.7369010">
        <ele>660.8</ele>
        <time>2020-07-17T06:03:15Z</time>
      </trkpt>
      <trkpt lat="37.6459890" lon="-3.7368670">
        <ele>661.2</ele>
        <time>2020-07-17T06:03:16Z</time>
      </trkpt>
      <trkpt lat="37.6459610" lon="-3.7368230">
        <ele>661.6</ele>
        <time>2020-07-17T06:03:17Z</time>
      </trkpt>
      <trkpt lat="37.6459040" lon="-3.7367010">
        <ele>662.4</ele>
        <time>2020-07-17T06:03:20Z</time>
      </trkpt>
      <trkpt lat="37.6458600" lon="-3.7365800">
        <ele>663.2</ele>
        <time>2020-07-17T06:03:23Z</time>
      </trkpt>
      <trkpt lat="37.6458440" lon="-3.7365420">
        <ele>663.4</ele>
        <time>2020-07-17T06:03:24Z</time>
      </trkpt>
      <trkpt lat="37.6457700" lon="-3.7364510">
        <ele>664.4</ele>
        <time>2020-07-17T06:03:27Z</time>
      </trkpt>
      <trkpt lat="37.6457370" lon="-3.7364300">
        <ele>664.6</ele>
        <time>2020-07-17T06:03:28Z</time>
      </trkpt>
      <trkpt lat="37.6456630" lon="-3.7363770">
        <ele>665.6</ele>
        <time>2020-07-17T06:03:31Z</time>
      </trkpt>
      <trkpt lat="37.6456360" lon="-3.7363620">
        <ele>665.8</ele>
        <time>2020-07-17T06:03:32Z</time>
      </trkpt>
      <trkpt lat="37.6455850" lon="-3.7363310">
        <ele>666.2</ele>
        <time>2020-07-17T06:03:34Z</time>
      </trkpt>
      <trkpt lat="37.6455320" lon="-3.7362990">
        <ele>666.6</ele>
        <time>2020-07-17T06:03:36Z</time>
      </trkpt>
      <trkpt lat="37.6455090" lon="-3.7362800">
        <ele>666.8</ele>
        <time>2020-07-17T06:03:37Z</time>
      </trkpt>
      <trkpt lat="37.6454440" lon="-3.7362400">
        <ele>667.4</ele>
        <time>2020-07-17T06:03:39Z</time>
      </trkpt>
      <trkpt lat="37.6453960" lon="-3.7362150">
        <ele>668.0</ele>
        <time>2020-07-17T06:03:41Z</time>
      </trkpt>
      <trkpt lat="37.6452740" lon="-3.7361620">
        <ele>669.0</ele>
        <time>2020-07-17T06:03:45Z</time>
      </trkpt>
      <trkpt lat="37.6452740" lon="-3.7361620">
        <ele>669.4</ele>
        <time>2020-07-17T06:03:46Z</time>
      </trkpt>
      <trkpt lat="37.6451590" lon="-3.7361440">
        <ele>670.2</ele>
        <time>2020-07-17T06:03:49Z</time>
      </trkpt>
      <trkpt lat="37.6451470" lon="-3.7361520">
        <ele>670.6</ele>
        <time>2020-07-17T06:03:50Z</time>
      </trkpt>
      <trkpt lat="37.6450600" lon="-3.7361390">
        <ele>671.0</ele>
        <time>2020-07-17T06:03:53Z</time>
      </trkpt>
      <trkpt lat="37.6450020" lon="-3.7361350">
        <ele>671.4</ele>
        <time>2020-07-17T06:03:55Z</time>
      </trkpt>
      <trkpt lat="37.6449190" lon="-3.7361390">
        <ele>672.0</ele>
        <time>2020-07-17T06:03:58Z</time>
      </trkpt>
      <trkpt lat="37.6448610" lon="-3.7361530">
        <ele>672.6</ele>
        <time>2020-07-17T06:04:00Z</time>
      </trkpt>
      <trkpt lat="37.6447270" lon="-3.7361980">
        <ele>673.6</ele>
        <time>2020-07-17T06:04:05Z</time>
      </trkpt>
      <trkpt lat="37.6446080" lon="-3.7362630">
        <ele>674.6</ele>
        <time>2020-07-17T06:04:10Z</time>
      </trkpt>
      <trkpt lat="37.6445130" lon="-3.7363000">
        <ele>675.6</ele>
        <time>2020-07-17T06:04:14Z</time>
      </trkpt>
      <trkpt lat="37.6445020" lon="-3.7363010">
        <ele>675.8</ele>
        <time>2020-07-17T06:04:15Z</time>
      </trkpt>
      <trkpt lat="37.6443670" lon="-3.7362800">
        <ele>676.8</ele>
        <time>2020-07-17T06:04:20Z</time>
      </trkpt>
      <trkpt lat="37.6442500" lon="-3.7361960">
        <ele>677.8</ele>
        <time>2020-07-17T06:04:25Z</time>
      </trkpt>
      <trkpt lat="37.6442150" lon="-3.7361480">
        <ele>678.2</ele>
        <time>2020-07-17T06:04:27Z</time>
      </trkpt>
      <trkpt lat="37.6441540" lon="-3.7360710">
        <ele>679.0</ele>
        <time>2020-07-17T06:04:30Z</time>
      </trkpt>
      <trkpt lat="37.6440610" lon="-3.7359910">
        <ele>680.0</ele>
        <time>2020-07-17T06:04:34Z</time>
      </trkpt>
      <trkpt lat="37.6438480" lon="-3.7359010">
        <ele>681.2</ele>
        <time>2020-07-17T06:04:41Z</time>
      </trkpt>
      <trkpt lat="37.6436240" lon="-3.7357810">
        <ele>681.6</ele>
        <time>2020-07-17T06:04:48Z</time>
      </trkpt>
      <trkpt lat="37.6434880" lon="-3.7357160">
        <ele>682.2</ele>
        <time>2020-07-17T06:04:52Z</time>
      </trkpt>
      <trkpt lat="37.6434170" lon="-3.7356730">
        <ele>682.4</ele>
        <time>2020-07-17T06:04:54Z</time>
      </trkpt>
      <trkpt lat="37.6433430" lon="-3.7356440">
        <ele>682.6</ele>
        <time>2020-07-17T06:04:56Z</time>
      </trkpt>
      <trkpt lat="37.6431730" lon="-3.7355860">
        <ele>682.8</ele>
        <time>2020-07-17T06:05:00Z</time>
      </trkpt>
      <trkpt lat="37.6430180" lon="-3.7355760">
        <ele>682.8</ele>
        <time>2020-07-17T06:05:03Z</time>
      </trkpt>
      <trkpt lat="37.6429660" lon="-3.7356000">
        <ele>682.8</ele>
        <time>2020-07-17T06:05:04Z</time>
      </trkpt>
      <trkpt lat="37.6427810" lon="-3.7358160">
        <ele>682.2</ele>
        <time>2020-07-17T06:05:08Z</time>
      </trkpt>
      <trkpt lat="37.6427590" lon="-3.7360540">
        <ele>681.2</ele>
        <time>2020-07-17T06:05:11Z</time>
      </trkpt>
      <trkpt lat="37.6427660" lon="-3.7361410">
        <ele>681.2</ele>
        <time>2020-07-17T06:05:12Z</time>
      </trkpt>
      <trkpt lat="37.6427710" lon="-3.7362210">
        <ele>681.0</ele>
        <time>2020-07-17T06:05:13Z</time>
      </trkpt>
      <trkpt lat="37.6427660" lon="-3.7363020">
        <ele>681.0</ele>
        <time>2020-07-17T06:05:14Z</time>
      </trkpt>
      <trkpt lat="37.6426950" lon="-3.7364190">
        <ele>681.2</ele>
        <time>2020-07-17T06:05:16Z</time>
      </trkpt>
      <trkpt lat="37.6425620" lon="-3.7364290">
        <ele>681.2</ele>
        <time>2020-07-17T06:05:18Z</time>
      </trkpt>
      <trkpt lat="37.6424000" lon="-3.7363400">
        <ele>681.4</ele>
        <time>2020-07-17T06:05:21Z</time>
      </trkpt>
      <trkpt lat="37.6422630" lon="-3.7362550">
        <ele>682.0</ele>
        <time>2020-07-17T06:05:24Z</time>
      </trkpt>
      <trkpt lat="37.6422250" lon="-3.7362210">
        <ele>682.2</ele>
        <time>2020-07-17T06:05:25Z</time>
      </trkpt>
      <trkpt lat="37.6421900" lon="-3.7361850">
        <ele>682.6</ele>
        <time>2020-07-17T06:05:26Z</time>
      </trkpt>
      <trkpt lat="37.6421150" lon="-3.7361170">
        <ele>683.4</ele>
        <time>2020-07-17T06:05:28Z</time>
      </trkpt>
      <trkpt lat="37.6420120" lon="-3.7360310">
        <ele>684.2</ele>
        <time>2020-07-17T06:05:31Z</time>
      </trkpt>
      <trkpt lat="37.6419780" lon="-3.7360070">
        <ele>684.6</ele>
        <time>2020-07-17T06:05:32Z</time>
      </trkpt>
      <trkpt lat="37.6418680" lon="-3.7359020">
        <ele>685.8</ele>
        <time>2020-07-17T06:05:36Z</time>
      </trkpt>
      <trkpt lat="37.6418400" lon="-3.7358740">
        <ele>686.2</ele>
        <time>2020-07-17T06:05:37Z</time>
      </trkpt>
      <trkpt lat="37.6417830" lon="-3.7358380">
        <ele>686.8</ele>
        <time>2020-07-17T06:05:39Z</time>
      </trkpt>
      <trkpt lat="37.6416610" lon="-3.7357720">
        <ele>687.8</ele>
        <time>2020-07-17T06:05:43Z</time>
      </trkpt>
      <trkpt lat="37.6416320" lon="-3.7357560">
        <ele>688.2</ele>
        <time>2020-07-17T06:05:44Z</time>
      </trkpt>
      <trkpt lat="37.6414950" lon="-3.7356470">
        <ele>689.2</ele>
        <time>2020-07-17T06:05:49Z</time>
      </trkpt>
      <trkpt lat="37.6414680" lon="-3.7356220">
        <ele>689.4</ele>
        <time>2020-07-17T06:05:50Z</time>
      </trkpt>
      <trkpt lat="37.6413710" lon="-3.7355130">
        <ele>690.4</ele>
        <time>2020-07-17T06:05:54Z</time>
      </trkpt>
      <trkpt lat="37.6413210" lon="-3.7354740">
        <ele>690.8</ele>
        <time>2020-07-17T06:05:56Z</time>
      </trkpt>
      <trkpt lat="37.6412420" lon="-3.7354120">
        <ele>691.4</ele>
        <time>2020-07-17T06:05:59Z</time>
      </trkpt>
      <trkpt lat="37.6410980" lon="-3.7353470">
        <ele>692.6</ele>
        <time>2020-07-17T06:06:04Z</time>
      </trkpt>
      <trkpt lat="37.6409310" lon="-3.7352930">
        <ele>693.8</ele>
        <time>2020-07-17T06:06:09Z</time>
      </trkpt>
      <trkpt lat="37.6408960" lon="-3.7352710">
        <ele>694.0</ele>
        <time>2020-07-17T06:06:10Z</time>
      </trkpt>
      <trkpt lat="37.6407650" lon="-3.7351130">
        <ele>694.8</ele>
        <time>2020-07-17T06:06:15Z</time>
      </trkpt>
      <trkpt lat="37.6407380" lon="-3.7350830">
        <ele>695.0</ele>
        <time>2020-07-17T06:06:16Z</time>
      </trkpt>
      <trkpt lat="37.6405700" lon="-3.7350030">
        <ele>695.8</ele>
        <time>2020-07-17T06:06:21Z</time>
      </trkpt>
      <trkpt lat="37.6404960" lon="-3.7350030">
        <ele>696.2</ele>
        <time>2020-07-17T06:06:23Z</time>
      </trkpt>
      <trkpt lat="37.6403480" lon="-3.7349730">
        <ele>697.4</ele>
        <time>2020-07-17T06:06:27Z</time>
      </trkpt>
      <trkpt lat="37.6403120" lon="-3.7349570">
        <ele>697.4</ele>
        <time>2020-07-17T06:06:28Z</time>
      </trkpt>
      <trkpt lat="37.6401460" lon="-3.7348440">
        <ele>698.4</ele>
        <time>2020-07-17T06:06:33Z</time>
      </trkpt>
      <trkpt lat="37.6401010" lon="-3.7348120">
        <ele>698.6</ele>
        <time>2020-07-17T06:06:35Z</time>
      </trkpt>
      <trkpt lat="37.6399520" lon="-3.7346480">
        <ele>699.4</ele>
        <time>2020-07-17T06:06:40Z</time>
      </trkpt>
      <trkpt lat="37.6398220" lon="-3.7344560">
        <ele>700.4</ele>
        <time>2020-07-17T06:06:45Z</time>
      </trkpt>
      <trkpt lat="37.6397290" lon="-3.7343130">
        <ele>701.2</ele>
        <time>2020-07-17T06:06:49Z</time>
      </trkpt>
      <trkpt lat="37.6396840" lon="-3.7342470">
        <ele>701.6</ele>
        <time>2020-07-17T06:06:51Z</time>
      </trkpt>
      <trkpt lat="37.6395930" lon="-3.7340880">
        <ele>702.8</ele>
        <time>2020-07-17T06:06:56Z</time>
      </trkpt>
      <trkpt lat="37.6395730" lon="-3.7340590">
        <ele>703.0</ele>
        <time>2020-07-17T06:06:57Z</time>
      </trkpt>
      <trkpt lat="37.6394840" lon="-3.7339710">
        <ele>703.8</ele>
        <time>2020-07-17T06:07:01Z</time>
      </trkpt>
      <trkpt lat="37.6394290" lon="-3.7339390">
        <ele>704.4</ele>
        <time>2020-07-17T06:07:03Z</time>
      </trkpt>
      <trkpt lat="37.6393740" lon="-3.7339270">
        <ele>705.0</ele>
        <time>2020-07-17T06:07:05Z</time>
      </trkpt>
      <trkpt lat="37.6392870" lon="-3.7339340">
        <ele>705.8</ele>
        <time>2020-07-17T06:07:08Z</time>
      </trkpt>
      <trkpt lat="37.6392590" lon="-3.7339400">
        <ele>706.0</ele>
        <time>2020-07-17T06:07:09Z</time>
      </trkpt>
      <trkpt lat="37.6391110" lon="-3.7339780">
        <ele>707.2</ele>
        <time>2020-07-17T06:07:14Z</time>
      </trkpt>
      <trkpt lat="37.6390020" lon="-3.7340240">
        <ele>708.0</ele>
        <time>2020-07-17T06:07:18Z</time>
      </trkpt>
      <trkpt lat="37.6389730" lon="-3.7340310">
        <ele>708.2</ele>
        <time>2020-07-17T06:07:19Z</time>
      </trkpt>
      <trkpt lat="37.6388410" lon="-3.7340560">
        <ele>709.4</ele>
        <time>2020-07-17T06:07:24Z</time>
      </trkpt>
      <trkpt lat="37.6387010" lon="-3.7340690">
        <ele>710.6</ele>
        <time>2020-07-17T06:07:29Z</time>
      </trkpt>
      <trkpt lat="37.6386730" lon="-3.7340760">
        <ele>710.8</ele>
        <time>2020-07-17T06:07:30Z</time>
      </trkpt>
      <trkpt lat="37.6385600" lon="-3.7341130">
        <ele>711.6</ele>
        <time>2020-07-17T06:07:34Z</time>
      </trkpt>
      <trkpt lat="37.6385120" lon="-3.7341470">
        <ele>712.2</ele>
        <time>2020-07-17T06:07:36Z</time>
      </trkpt>
      <trkpt lat="37.6384410" lon="-3.7342020">
        <ele>712.8</ele>
        <time>2020-07-17T06:07:39Z</time>
      </trkpt>
      <trkpt lat="37.6383410" lon="-3.7342600">
        <ele>713.6</ele>
        <time>2020-07-17T06:07:43Z</time>
      </trkpt>
      <trkpt lat="37.6382980" lon="-3.7342810">
        <ele>714.0</ele>
        <time>2020-07-17T06:07:45Z</time>
      </trkpt>
      <trkpt lat="37.6382400" lon="-3.7342830">
        <ele>714.6</ele>
        <time>2020-07-17T06:07:47Z</time>
      </trkpt>
      <trkpt lat="37.6381810" lon="-3.7342640">
        <ele>715.2</ele>
        <time>2020-07-17T06:07:49Z</time>
      </trkpt>
      <trkpt lat="37.6380800" lon="-3.7341880">
        <ele>716.2</ele>
        <time>2020-07-17T06:07:53Z</time>
      </trkpt>
      <trkpt lat="37.6380560" lon="-3.7341640">
        <ele>716.4</ele>
        <time>2020-07-17T06:07:54Z</time>
      </trkpt>
      <trkpt lat="37.6379520" lon="-3.7340360">
        <ele>717.4</ele>
        <time>2020-07-17T06:07:59Z</time>
      </trkpt>
      <trkpt lat="37.6379000" lon="-3.7339480">
        <ele>718.0</ele>
        <time>2020-07-17T06:08:02Z</time>
      </trkpt>
      <trkpt lat="37.6378520" lon="-3.7338670">
        <ele>718.6</ele>
        <time>2020-07-17T06:08:05Z</time>
      </trkpt>
      <trkpt lat="37.6377580" lon="-3.7337960">
        <ele>720.0</ele>
        <time>2020-07-17T06:08:09Z</time>
      </trkpt>
      <trkpt lat="37.6376250" lon="-3.7337540">
        <ele>721.0</ele>
        <time>2020-07-17T06:08:14Z</time>
      </trkpt>
      <trkpt lat="37.6376000" lon="-3.7337530">
        <ele>721.4</ele>
        <time>2020-07-17T06:08:15Z</time>
      </trkpt>
      <trkpt lat="37.6374770" lon="-3.7337310">
        <ele>722.2</ele>
        <time>2020-07-17T06:08:19Z</time>
      </trkpt>
      <trkpt lat="37.6374180" lon="-3.7337220">
        <ele>722.6</ele>
        <time>2020-07-17T06:08:21Z</time>
      </trkpt>
      <trkpt lat="37.6373350" lon="-3.7336860">
        <ele>723.4</ele>
        <time>2020-07-17T06:08:24Z</time>
      </trkpt>
      <trkpt lat="37.6372710" lon="-3.7336180">
        <ele>723.8</ele>
        <time>2020-07-17T06:08:27Z</time>
      </trkpt>
      <trkpt lat="37.6372400" lon="-3.7335510">
        <ele>724.4</ele>
        <time>2020-07-17T06:08:29Z</time>
      </trkpt>
      <trkpt lat="37.6372130" lon="-3.7334500">
        <ele>725.2</ele>
        <time>2020-07-17T06:08:32Z</time>
      </trkpt>
      <trkpt lat="37.6371780" lon="-3.7333750">
        <ele>725.4</ele>
        <time>2020-07-17T06:08:35Z</time>
      </trkpt>
      <trkpt lat="37.6371320" lon="-3.7332630">
        <ele>726.4</ele>
        <time>2020-07-17T06:08:38Z</time>
      </trkpt>
      <trkpt lat="37.6370900" lon="-3.7331530">
        <ele>727.8</ele>
        <time>2020-07-17T06:08:42Z</time>
      </trkpt>
      <trkpt lat="37.6370610" lon="-3.7330710">
        <ele>728.4</ele>
        <time>2020-07-17T06:08:45Z</time>
      </trkpt>
      <trkpt lat="37.6370470" lon="-3.7330130">
        <ele>728.8</ele>
        <time>2020-07-17T06:08:47Z</time>
      </trkpt>
      <trkpt lat="37.6370230" lon="-3.7328830">
        <ele>729.6</ele>
        <time>2020-07-17T06:08:51Z</time>
      </trkpt>
      <trkpt lat="37.6370210" lon="-3.7328110">
        <ele>730.0</ele>
        <time>2020-07-17T06:08:53Z</time>
      </trkpt>
      <trkpt lat="37.6370410" lon="-3.7326720">
        <ele>730.6</ele>
        <time>2020-07-17T06:08:57Z</time>
      </trkpt>
      <trkpt lat="37.6370540" lon="-3.7326040">
        <ele>731.2</ele>
        <time>2020-07-17T06:08:59Z</time>
      </trkpt>
      <trkpt lat="37.6370890" lon="-3.7324330">
        <ele>732.4</ele>
        <time>2020-07-17T06:09:04Z</time>
      </trkpt>
      <trkpt lat="37.6370970" lon="-3.7324000">
        <ele>732.6</ele>
        <time>2020-07-17T06:09:05Z</time>
      </trkpt>
      <trkpt lat="37.6371120" lon="-3.7322500">
        <ele>733.4</ele>
        <time>2020-07-17T06:09:09Z</time>
      </trkpt>
      <trkpt lat="37.6370800" lon="-3.7321480">
        <ele>734.2</ele>
        <time>2020-07-17T06:09:12Z</time>
      </trkpt>
      <trkpt lat="37.6370620" lon="-3.7321210">
        <ele>734.6</ele>
        <time>2020-07-17T06:09:13Z</time>
      </trkpt>
      <trkpt lat="37.6369820" lon="-3.7320800">
        <ele>735.2</ele>
        <time>2020-07-17T06:09:16Z</time>
      </trkpt>
      <trkpt lat="37.6369220" lon="-3.7320750">
        <ele>735.6</ele>
        <time>2020-07-17T06:09:18Z</time>
      </trkpt>
      <trkpt lat="37.6367360" lon="-3.7321060">
        <ele>736.6</ele>
        <time>2020-07-17T06:09:24Z</time>
      </trkpt>
      <trkpt lat="37.6367050" lon="-3.7321160">
        <ele>736.6</ele>
        <time>2020-07-17T06:09:25Z</time>
      </trkpt>
      <trkpt lat="37.6365710" lon="-3.7322200">
        <ele>737.4</ele>
        <time>2020-07-17T06:09:30Z</time>
      </trkpt>
      <trkpt lat="37.6365130" lon="-3.7322490">
        <ele>737.6</ele>
        <time>2020-07-17T06:09:32Z</time>
      </trkpt>
      <trkpt lat="37.6363910" lon="-3.7322930">
        <ele>738.4</ele>
        <time>2020-07-17T06:09:36Z</time>
      </trkpt>
      <trkpt lat="37.6362930" lon="-3.7322790">
        <ele>738.8</ele>
        <time>2020-07-17T06:09:39Z</time>
      </trkpt>
      <trkpt lat="37.6362000" lon="-3.7322320">
        <ele>739.4</ele>
        <time>2020-07-17T06:09:42Z</time>
      </trkpt>
      <trkpt lat="37.6361490" lon="-3.7322020">
        <ele>739.8</ele>
        <time>2020-07-17T06:09:44Z</time>
      </trkpt>
      <trkpt lat="37.6360540" lon="-3.7321840">
        <ele>740.6</ele>
        <time>2020-07-17T06:09:47Z</time>
      </trkpt>
      <trkpt lat="37.6360070" lon="-3.7321950">
        <ele>740.8</ele>
        <time>2020-07-17T06:09:48Z</time>
      </trkpt>
      <trkpt lat="37.6360070" lon="-3.7321950">
        <ele>741.2</ele>
        <time>2020-07-17T06:09:50Z</time>
      </trkpt>
      <trkpt lat="37.6358280" lon="-3.7321580">
        <ele>741.6</ele>
        <time>2020-07-17T06:09:53Z</time>
      </trkpt>
      <trkpt lat="37.6357980" lon="-3.7321350">
        <ele>742.0</ele>
        <time>2020-07-17T06:09:54Z</time>
      </trkpt>
      <trkpt lat="37.6356600" lon="-3.7319720">
        <ele>743.0</ele>
        <time>2020-07-17T06:10:00Z</time>
      </trkpt>
      <trkpt lat="37.6356100" lon="-3.7319200">
        <ele>743.4</ele>
        <time>2020-07-17T06:10:02Z</time>
      </trkpt>
      <trkpt lat="37.6354940" lon="-3.7318340">
        <ele>744.2</ele>
        <time>2020-07-17T06:10:06Z</time>
      </trkpt>
      <trkpt lat="37.6353440" lon="-3.7317890">
        <ele>744.8</ele>
        <time>2020-07-17T06:10:11Z</time>
      </trkpt>
      <trkpt lat="37.6352860" lon="-3.7317830">
        <ele>745.2</ele>
        <time>2020-07-17T06:10:13Z</time>
      </trkpt>
      <trkpt lat="37.6351420" lon="-3.7317320">
        <ele>746.2</ele>
        <time>2020-07-17T06:10:18Z</time>
      </trkpt>
      <trkpt lat="37.6351130" lon="-3.7317200">
        <ele>746.4</ele>
        <time>2020-07-17T06:10:19Z</time>
      </trkpt>
      <trkpt lat="37.6349670" lon="-3.7316470">
        <ele>747.2</ele>
        <time>2020-07-17T06:10:24Z</time>
      </trkpt>
      <trkpt lat="37.6348290" lon="-3.7315600">
        <ele>748.2</ele>
        <time>2020-07-17T06:10:29Z</time>
      </trkpt>
      <trkpt lat="37.6347990" lon="-3.7315470">
        <ele>748.4</ele>
        <time>2020-07-17T06:10:30Z</time>
      </trkpt>
      <trkpt lat="37.6345740" lon="-3.7314580">
        <ele>749.4</ele>
        <time>2020-07-17T06:10:37Z</time>
      </trkpt>
      <trkpt lat="37.6345410" lon="-3.7314390">
        <ele>749.4</ele>
        <time>2020-07-17T06:10:38Z</time>
      </trkpt>
      <trkpt lat="37.6345410" lon="-3.7314390">
        <ele>750.4</ele>
        <time>2020-07-17T06:10:45Z</time>
      </trkpt>
      <trkpt lat="37.6345410" lon="-3.7314390">
        <ele>750.8</ele>
        <time>2020-07-17T06:10:47Z</time>
      </trkpt>
      <trkpt lat="37.6340900" lon="-3.7311790">
        <ele>751.2</ele>
        <time>2020-07-17T06:10:52Z</time>
      </trkpt>
      <trkpt lat="37.6339760" lon="-3.7311560">
        <ele>751.6</ele>
        <time>2020-07-17T06:10:55Z</time>
      </trkpt>
      <trkpt lat="37.6339620" lon="-3.7311490">
        <ele>752.2</ele>
        <time>2020-07-17T06:10:59Z</time>
      </trkpt>
      <trkpt lat="37.6339480" lon="-3.7311420">
        <ele>752.4</ele>
        <time>2020-07-17T06:11:01Z</time>
      </trkpt>
      <trkpt lat="37.6339340" lon="-3.7311360">
        <ele>752.8</ele>
        <time>2020-07-17T06:11:03Z</time>
      </trkpt>
      <trkpt lat="37.6339200" lon="-3.7311290">
        <ele>753.4</ele>
        <time>2020-07-17T06:11:08Z</time>
      </trkpt>
      <trkpt lat="37.6339060" lon="-3.7311220">
        <ele>753.8</ele>
        <time>2020-07-17T06:11:10Z</time>
      </trkpt>
      <trkpt lat="37.6338930" lon="-3.7311150">
        <ele>754.8</ele>
        <time>2020-07-17T06:11:17Z</time>
      </trkpt>
      <trkpt lat="37.6338790" lon="-3.7311090">
        <ele>755.0</ele>
        <time>2020-07-17T06:11:18Z</time>
      </trkpt>
      <trkpt lat="37.6338650" lon="-3.7311020">
        <ele>755.2</ele>
        <time>2020-07-17T06:11:19Z</time>
      </trkpt>
      <trkpt lat="37.6338510" lon="-3.7310950">
        <ele>755.8</ele>
        <time>2020-07-17T06:11:22Z</time>
      </trkpt>
      <trkpt lat="37.6338370" lon="-3.7310880">
        <ele>756.0</ele>
        <time>2020-07-17T06:11:23Z</time>
      </trkpt>
      <trkpt lat="37.6338230" lon="-3.7310810">
        <ele>756.2</ele>
        <time>2020-07-17T06:11:24Z</time>
      </trkpt>
      <trkpt lat="37.6338090" lon="-3.7310750">
        <ele>756.8</ele>
        <time>2020-07-17T06:11:29Z</time>
      </trkpt>
      <trkpt lat="37.6337950" lon="-3.7310680">
        <ele>757.0</ele>
        <time>2020-07-17T06:11:31Z</time>
      </trkpt>
      <trkpt lat="37.6337810" lon="-3.7310610">
        <ele>757.6</ele>
        <time>2020-07-17T06:11:34Z</time>
      </trkpt>
      <trkpt lat="37.6337670" lon="-3.7310540">
        <ele>757.6</ele>
        <time>2020-07-17T06:11:35Z</time>
      </trkpt>
      <trkpt lat="37.6337540" lon="-3.7310480">
        <ele>757.8</ele>
        <time>2020-07-17T06:11:36Z</time>
      </trkpt>
      <trkpt lat="37.6337400" lon="-3.7310410">
        <ele>758.4</ele>
        <time>2020-07-17T06:11:39Z</time>
      </trkpt>
      <trkpt lat="37.6337260" lon="-3.7310340">
        <ele>758.8</ele>
        <time>2020-07-17T06:11:41Z</time>
      </trkpt>
      <trkpt lat="37.6337120" lon="-3.7310270">
        <ele>759.0</ele>
        <time>2020-07-17T06:11:44Z</time>
      </trkpt>
      <trkpt lat="37.6336980" lon="-3.7310210">
        <ele>758.8</ele>
        <time>2020-07-17T06:11:45Z</time>
      </trkpt>
      <trkpt lat="37.6336840" lon="-3.7310140">
        <ele>758.8</ele>
        <time>2020-07-17T06:11:46Z</time>
      </trkpt>
      <trkpt lat="37.6336700" lon="-3.7310070">
        <ele>758.8</ele>
        <time>2020-07-17T06:11:48Z</time>
      </trkpt>
      <trkpt lat="37.6336560" lon="-3.7310000">
        <ele>758.8</ele>
        <time>2020-07-17T06:11:50Z</time>
      </trkpt>
      <trkpt lat="37.6336420" lon="-3.7309930">
        <ele>759.0</ele>
        <time>2020-07-17T06:11:51Z</time>
      </trkpt>
      <trkpt lat="37.6336280" lon="-3.7309870">
        <ele>759.0</ele>
        <time>2020-07-17T06:11:53Z</time>
      </trkpt>
      <trkpt lat="37.6336150" lon="-3.7309800">
        <ele>759.2</ele>
        <time>2020-07-17T06:11:55Z</time>
      </trkpt>
      <trkpt lat="37.6336010" lon="-3.7309730">
        <ele>759.2</ele>
        <time>2020-07-17T06:11:56Z</time>
      </trkpt>
      <trkpt lat="37.6335870" lon="-3.7309660">
        <ele>759.4</ele>
        <time>2020-07-17T06:11:58Z</time>
      </trkpt>
      <trkpt lat="37.6335730" lon="-3.7309600">
        <ele>759.8</ele>
        <time>2020-07-17T06:12:00Z</time>
      </trkpt>
      <trkpt lat="37.6335590" lon="-3.7309530">
        <ele>759.8</ele>
        <time>2020-07-17T06:12:01Z</time>
      </trkpt>
      <trkpt lat="37.6335450" lon="-3.7309460">
        <ele>760.0</ele>
        <time>2020-07-17T06:12:02Z</time>
      </trkpt>
      <trkpt lat="37.6318190" lon="-3.7301040">
        <ele>759.4</ele>
        <time>2020-07-17T06:12:06Z</time>
      </trkpt>
      <trkpt lat="37.6317550" lon="-3.7299600">
        <ele>759.4</ele>
        <time>2020-07-17T06:12:09Z</time>
      </trkpt>
      <trkpt lat="37.6317610" lon="-3.7298940">
        <ele>759.4</ele>
        <time>2020-07-17T06:12:11Z</time>
      </trkpt>
      <trkpt lat="37.6318660" lon="-3.7298180">
        <ele>759.4</ele>
        <time>2020-07-17T06:12:15Z</time>
      </trkpt>
      <trkpt lat="37.6319260" lon="-3.7298070">
        <ele>759.4</ele>
        <time>2020-07-17T06:12:17Z</time>
      </trkpt>
      <trkpt lat="37.6319990" lon="-3.7297980">
        <ele>760.4</ele>
        <time>2020-07-17T06:12:20Z</time>
      </trkpt>
      <trkpt lat="37.6320180" lon="-3.7297950">
        <ele>761.0</ele>
        <time>2020-07-17T06:12:21Z</time>
      </trkpt>
      <trkpt lat="37.6320760" lon="-3.7297880">
        <ele>762.0</ele>
        <time>2020-07-17T06:12:24Z</time>
      </trkpt>
      <trkpt lat="37.6320940" lon="-3.7297800">
        <ele>762.4</ele>
        <time>2020-07-17T06:12:26Z</time>
      </trkpt>
      <trkpt lat="37.6320970" lon="-3.7297590">
        <ele>762.8</ele>
        <time>2020-07-17T06:12:27Z</time>
      </trkpt>
      <trkpt lat="37.6320970" lon="-3.7297460">
        <ele>763.0</ele>
        <time>2020-07-17T06:12:28Z</time>
      </trkpt>
      <trkpt lat="37.6320910" lon="-3.7296980">
        <ele>763.4</ele>
        <time>2020-07-17T06:12:33Z</time>
      </trkpt>
      <trkpt lat="37.6320950" lon="-3.7296890">
        <ele>763.4</ele>
        <time>2020-07-17T06:12:34Z</time>
      </trkpt>
      <trkpt lat="37.6320650" lon="-3.7298080">
        <ele>763.8</ele>
        <time>2020-07-17T06:18:05Z</time>
      </trkpt>
      <trkpt lat="37.6320480" lon="-3.7298050">
        <ele>763.8</ele>
        <time>2020-07-17T06:18:06Z</time>
      </trkpt>
      <trkpt lat="37.6320200" lon="-3.7298030">
        <ele>763.6</ele>
        <time>2020-07-17T06:18:07Z</time>
      </trkpt>
      <trkpt lat="37.6319210" lon="-3.7298320">
        <ele>763.6</ele>
        <time>2020-07-17T06:18:10Z</time>
      </trkpt>
      <trkpt lat="37.6318680" lon="-3.7298470">
        <ele>763.4</ele>
        <time>2020-07-17T06:18:11Z</time>
      </trkpt>
      <trkpt lat="37.6318160" lon="-3.7298740">
        <ele>763.0</ele>
        <time>2020-07-17T06:18:12Z</time>
      </trkpt>
      <trkpt lat="37.6317290" lon="-3.7299550">
        <ele>761.8</ele>
        <time>2020-07-17T06:18:14Z</time>
      </trkpt>
      <trkpt lat="37.6316990" lon="-3.7300000">
        <ele>761.2</ele>
        <time>2020-07-17T06:18:15Z</time>
      </trkpt>
      <trkpt lat="37.6316730" lon="-3.7300470">
        <ele>760.6</ele>
        <time>2020-07-17T06:18:16Z</time>
      </trkpt>
      <trkpt lat="37.6316180" lon="-3.7302150">
        <ele>760.0</ele>
        <time>2020-07-17T06:18:19Z</time>
      </trkpt>
      <trkpt lat="37.6316180" lon="-3.7302720">
        <ele>760.0</ele>
        <time>2020-07-17T06:18:20Z</time>
      </trkpt>
      <trkpt lat="37.6316480" lon="-3.7305750">
        <ele>760.2</ele>
        <time>2020-07-17T06:18:26Z</time>
      </trkpt>
      <trkpt lat="37.6316550" lon="-3.7308690">
        <ele>761.2</ele>
        <time>2020-07-17T06:18:33Z</time>
      </trkpt>
      <trkpt lat="37.6316570" lon="-3.7309090">
        <ele>761.2</ele>
        <time>2020-07-17T06:18:34Z</time>
      </trkpt>
      <trkpt lat="37.6316660" lon="-3.7310540">
        <ele>762.0</ele>
        <time>2020-07-17T06:18:38Z</time>
      </trkpt>
      <trkpt lat="37.6316670" lon="-3.7311220">
        <ele>762.2</ele>
        <time>2020-07-17T06:18:40Z</time>
      </trkpt>
      <trkpt lat="37.6316640" lon="-3.7312210">
        <ele>762.8</ele>
        <time>2020-07-17T06:18:43Z</time>
      </trkpt>
      <trkpt lat="37.6316660" lon="-3.7312530">
        <ele>763.0</ele>
        <time>2020-07-17T06:18:44Z</time>
      </trkpt>
      <trkpt lat="37.6316710" lon="-3.7312850">
        <ele>763.2</ele>
        <time>2020-07-17T06:18:45Z</time>
      </trkpt>
      <trkpt lat="37.6316750" lon="-3.7313840">
        <ele>763.8</ele>
        <time>2020-07-17T06:18:48Z</time>
      </trkpt>
      <trkpt lat="37.6316750" lon="-3.7314140">
        <ele>764.0</ele>
        <time>2020-07-17T06:18:49Z</time>
      </trkpt>
      <trkpt lat="37.6316780" lon="-3.7315120">
        <ele>764.8</ele>
        <time>2020-07-17T06:18:52Z</time>
      </trkpt>
      <trkpt lat="37.6316790" lon="-3.7316050">
        <ele>765.2</ele>
        <time>2020-07-17T06:18:55Z</time>
      </trkpt>
      <trkpt lat="37.6316780" lon="-3.7316910">
        <ele>765.8</ele>
        <time>2020-07-17T06:18:58Z</time>
      </trkpt>
      <trkpt lat="37.6316740" lon="-3.7317430">
        <ele>766.4</ele>
        <time>2020-07-17T06:19:00Z</time>
      </trkpt>
      <trkpt lat="37.6316630" lon="-3.7318520">
        <ele>767.6</ele>
        <time>2020-07-17T06:19:04Z</time>
      </trkpt>
      <trkpt lat="37.6316580" lon="-3.7320330">
        <ele>768.8</ele>
        <time>2020-07-17T06:19:10Z</time>
      </trkpt>
      <trkpt lat="37.6316530" lon="-3.7321630">
        <ele>769.8</ele>
        <time>2020-07-17T06:19:15Z</time>
      </trkpt>
      <trkpt lat="37.6316490" lon="-3.7322110">
        <ele>770.4</ele>
        <time>2020-07-17T06:19:17Z</time>
      </trkpt>
      <trkpt lat="37.6316360" lon="-3.7322860">
        <ele>771.0</ele>
        <time>2020-07-17T06:19:20Z</time>
      </trkpt>
      <trkpt lat="37.6316280" lon="-3.7323850">
        <ele>772.0</ele>
        <time>2020-07-17T06:19:24Z</time>
      </trkpt>
      <trkpt lat="37.6316250" lon="-3.7324120">
        <ele>772.0</ele>
        <time>2020-07-17T06:19:25Z</time>
      </trkpt>
      <trkpt lat="37.6316170" lon="-3.7325330">
        <ele>773.0</ele>
        <time>2020-07-17T06:19:30Z</time>
      </trkpt>
      <trkpt lat="37.6316110" lon="-3.7325550">
        <ele>773.4</ele>
        <time>2020-07-17T06:19:31Z</time>
      </trkpt>
      <trkpt lat="37.6315940" lon="-3.7326530">
        <ele>774.2</ele>
        <time>2020-07-17T06:19:35Z</time>
      </trkpt>
      <trkpt lat="37.6315800" lon="-3.7327000">
        <ele>774.6</ele>
        <time>2020-07-17T06:19:37Z</time>
      </trkpt>
      <trkpt lat="37.6315700" lon="-3.7327730">
        <ele>775.2</ele>
        <time>2020-07-17T06:19:40Z</time>
      </trkpt>
      <trkpt lat="37.6315570" lon="-3.7328430">
        <ele>775.6</ele>
        <time>2020-07-17T06:19:43Z</time>
      </trkpt>
      <trkpt lat="37.6315500" lon="-3.7329110">
        <ele>776.4</ele>
        <time>2020-07-17T06:19:46Z</time>
      </trkpt>
      <trkpt lat="37.6315380" lon="-3.7329710">
        <ele>777.0</ele>
        <time>2020-07-17T06:19:49Z</time>
      </trkpt>
      <trkpt lat="37.6315310" lon="-3.7330080">
        <ele>777.6</ele>
        <time>2020-07-17T06:19:52Z</time>
      </trkpt>
      <trkpt lat="37.6315210" lon="-3.7330420">
        <ele>778.0</ele>
        <time>2020-07-17T06:19:54Z</time>
      </trkpt>
      <trkpt lat="37.6314830" lon="-3.7330920">
        <ele>778.6</ele>
        <time>2020-07-17T06:19:57Z</time>
      </trkpt>
      <trkpt lat="37.6314660" lon="-3.7331300">
        <ele>778.8</ele>
        <time>2020-07-17T06:19:59Z</time>
      </trkpt>
      <trkpt lat="37.6314150" lon="-3.7332180">
        <ele>779.6</ele>
        <time>2020-07-17T06:20:03Z</time>
      </trkpt>
      <trkpt lat="37.6314020" lon="-3.7332330">
        <ele>779.8</ele>
        <time>2020-07-17T06:20:04Z</time>
      </trkpt>
      <trkpt lat="37.6313590" lon="-3.7332920">
        <ele>780.8</ele>
        <time>2020-07-17T06:20:08Z</time>
      </trkpt>
      <trkpt lat="37.6313410" lon="-3.7333210">
        <ele>781.2</ele>
        <time>2020-07-17T06:20:10Z</time>
      </trkpt>
      <trkpt lat="37.6313310" lon="-3.7333410">
        <ele>781.4</ele>
        <time>2020-07-17T06:20:11Z</time>
      </trkpt>
      <trkpt lat="37.6313000" lon="-3.7334090">
        <ele>781.8</ele>
        <time>2020-07-17T06:20:14Z</time>
      </trkpt>
      <trkpt lat="37.6312800" lon="-3.7334540">
        <ele>782.2</ele>
        <time>2020-07-17T06:20:16Z</time>
      </trkpt>
      <trkpt lat="37.6312460" lon="-3.7335190">
        <ele>783.0</ele>
        <time>2020-07-17T06:20:19Z</time>
      </trkpt>
      <trkpt lat="37.6312310" lon="-3.7335550">
        <ele>783.4</ele>
        <time>2020-07-17T06:20:21Z</time>
      </trkpt>
      <trkpt lat="37.6311960" lon="-3.7336230">
        <ele>784.0</ele>
        <time>2020-07-17T06:20:24Z</time>
      </trkpt>
      <trkpt lat="37.6311780" lon="-3.7336450">
        <ele>784.2</ele>
        <time>2020-07-17T06:20:25Z</time>
      </trkpt>
      <trkpt lat="37.6311760" lon="-3.7336730">
        <ele>784.4</ele>
        <time>2020-07-17T06:20:26Z</time>
      </trkpt>
      <trkpt lat="37.6311650" lon="-3.7337280">
        <ele>784.8</ele>
        <time>2020-07-17T06:20:28Z</time>
      </trkpt>
      <trkpt lat="37.6311510" lon="-3.7337770">
        <ele>785.2</ele>
        <time>2020-07-17T06:20:30Z</time>
      </trkpt>
      <trkpt lat="37.6311310" lon="-3.7338570">
        <ele>786.2</ele>
        <time>2020-07-17T06:20:33Z</time>
      </trkpt>
      <trkpt lat="37.6311230" lon="-3.7338840">
        <ele>786.4</ele>
        <time>2020-07-17T06:20:34Z</time>
      </trkpt>
      <trkpt lat="37.6311040" lon="-3.7339840">
        <ele>787.4</ele>
        <time>2020-07-17T06:20:38Z</time>
      </trkpt>
      <trkpt lat="37.6310960" lon="-3.7340110">
        <ele>787.6</ele>
        <time>2020-07-17T06:20:39Z</time>
      </trkpt>
      <trkpt lat="37.6310260" lon="-3.7341340">
        <ele>788.6</ele>
        <time>2020-07-17T06:20:44Z</time>
      </trkpt>
      <trkpt lat="37.6309830" lon="-3.7342230">
        <ele>789.8</ele>
        <time>2020-07-17T06:20:49Z</time>
      </trkpt>
      <trkpt lat="37.6310070" lon="-3.7341870">
        <ele>790.4</ele>
        <time>2020-07-17T06:20:52Z</time>
      </trkpt>
      <trkpt lat="37.6310270" lon="-3.7341660">
        <ele>790.4</ele>
        <time>2020-07-17T06:20:53Z</time>
      </trkpt>
      <trkpt lat="37.6310820" lon="-3.7341120">
        <ele>790.0</ele>
        <time>2020-07-17T06:20:56Z</time>
      </trkpt>
      <trkpt lat="37.6311080" lon="-3.7339880">
        <ele>789.2</ele>
        <time>2020-07-17T06:20:59Z</time>
      </trkpt>
      <trkpt lat="37.6311240" lon="-3.7339230">
        <ele>789.0</ele>
        <time>2020-07-17T06:21:00Z</time>
      </trkpt>
      <trkpt lat="37.6311390" lon="-3.7338700">
        <ele>788.8</ele>
        <time>2020-07-17T06:21:01Z</time>
      </trkpt>
      <trkpt lat="37.6311830" lon="-3.7337350">
        <ele>788.0</ele>
        <time>2020-07-17T06:21:03Z</time>
      </trkpt>
      <trkpt lat="37.6312040" lon="-3.7336740">
        <ele>787.6</ele>
        <time>2020-07-17T06:21:04Z</time>
      </trkpt>
      <trkpt lat="37.6312230" lon="-3.7336090">
        <ele>787.0</ele>
        <time>2020-07-17T06:21:05Z</time>
      </trkpt>
      <trkpt lat="37.6312550" lon="-3.7335590">
        <ele>786.6</ele>
        <time>2020-07-17T06:21:06Z</time>
      </trkpt>
      <trkpt lat="37.6312840" lon="-3.7335120">
        <ele>786.2</ele>
        <time>2020-07-17T06:21:07Z</time>
      </trkpt>
      <trkpt lat="37.6313220" lon="-3.7334680">
        <ele>785.8</ele>
        <time>2020-07-17T06:21:08Z</time>
      </trkpt>
      <trkpt lat="37.6313660" lon="-3.7334370">
        <ele>785.2</ele>
        <time>2020-07-17T06:21:09Z</time>
      </trkpt>
      <trkpt lat="37.6314810" lon="-3.7334150">
        <ele>784.2</ele>
        <time>2020-07-17T06:21:11Z</time>
      </trkpt>
      <trkpt lat="37.6315360" lon="-3.7334110">
        <ele>783.8</ele>
        <time>2020-07-17T06:21:12Z</time>
      </trkpt>
      <trkpt lat="37.6315810" lon="-3.7333990">
        <ele>783.6</ele>
        <time>2020-07-17T06:21:13Z</time>
      </trkpt>
      <trkpt lat="37.6316510" lon="-3.7333630">
        <ele>783.2</ele>
        <time>2020-07-17T06:21:15Z</time>
      </trkpt>
      <trkpt lat="37.6317440" lon="-3.7333020">
        <ele>783.6</ele>
        <time>2020-07-17T06:21:18Z</time>
      </trkpt>
      <trkpt lat="37.6318240" lon="-3.7332430">
        <ele>784.6</ele>
        <time>2020-07-17T06:21:21Z</time>
      </trkpt>
      <trkpt lat="37.6318810" lon="-3.7332040">
        <ele>785.4</ele>
        <time>2020-07-17T06:21:23Z</time>
      </trkpt>
      <trkpt lat="37.6319440" lon="-3.7331480">
        <ele>786.8</ele>
        <time>2020-07-17T06:21:26Z</time>
      </trkpt>
      <trkpt lat="37.6320080" lon="-3.7330820">
        <ele>787.8</ele>
        <time>2020-07-17T06:21:29Z</time>
      </trkpt>
      <trkpt lat="37.6320690" lon="-3.7329940">
        <ele>788.6</ele>
        <time>2020-07-17T06:21:32Z</time>
      </trkpt>
      <trkpt lat="37.6320900" lon="-3.7329640">
        <ele>788.8</ele>
        <time>2020-07-17T06:21:33Z</time>
      </trkpt>
      <trkpt lat="37.6321650" lon="-3.7327630">
        <ele>789.4</ele>
        <time>2020-07-17T06:21:38Z</time>
      </trkpt>
      <trkpt lat="37.6321770" lon="-3.7326860">
        <ele>789.8</ele>
        <time>2020-07-17T06:21:40Z</time>
      </trkpt>
      <trkpt lat="37.6322080" lon="-3.7325600">
        <ele>790.8</ele>
        <time>2020-07-17T06:21:44Z</time>
      </trkpt>
      <trkpt lat="37.6322170" lon="-3.7325350">
        <ele>791.0</ele>
        <time>2020-07-17T06:21:45Z</time>
      </trkpt>
      <trkpt lat="37.6322740" lon="-3.7324560">
        <ele>792.2</ele>
        <time>2020-07-17T06:21:49Z</time>
      </trkpt>
      <trkpt lat="37.6322940" lon="-3.7324480">
        <ele>792.4</ele>
        <time>2020-07-17T06:21:50Z</time>
      </trkpt>
      <trkpt lat="37.6323180" lon="-3.7324480">
        <ele>792.6</ele>
        <time>2020-07-17T06:21:51Z</time>
      </trkpt>
      <trkpt lat="37.6323810" lon="-3.7324830">
        <ele>793.4</ele>
        <time>2020-07-17T06:21:54Z</time>
      </trkpt>
      <trkpt lat="37.6324100" lon="-3.7325780">
        <ele>794.6</ele>
        <time>2020-07-17T06:21:58Z</time>
      </trkpt>
      <trkpt lat="37.6324070" lon="-3.7326040">
        <ele>795.0</ele>
        <time>2020-07-17T06:21:59Z</time>
      </trkpt>
      <trkpt lat="37.6324030" lon="-3.7326310">
        <ele>795.2</ele>
        <time>2020-07-17T06:22:00Z</time>
      </trkpt>
      <trkpt lat="37.6323910" lon="-3.7326850">
        <ele>795.8</ele>
        <time>2020-07-17T06:22:02Z</time>
      </trkpt>
      <trkpt lat="37.6323640" lon="-3.7328140">
        <ele>797.0</ele>
        <time>2020-07-17T06:22:07Z</time>
      </trkpt>
      <trkpt lat="37.6323590" lon="-3.7328390">
        <ele>797.2</ele>
        <time>2020-07-17T06:22:08Z</time>
      </trkpt>
      <trkpt lat="37.6323370" lon="-3.7329430">
        <ele>798.0</ele>
        <time>2020-07-17T06:22:12Z</time>
      </trkpt>
      <trkpt lat="37.6323160" lon="-3.7330380">
        <ele>798.8</ele>
        <time>2020-07-17T06:22:16Z</time>
      </trkpt>
      <trkpt lat="37.6323070" lon="-3.7330890">
        <ele>799.0</ele>
        <time>2020-07-17T06:22:18Z</time>
      </trkpt>
      <trkpt lat="37.6322860" lon="-3.7332380">
        <ele>800.2</ele>
        <time>2020-07-17T06:22:23Z</time>
      </trkpt>
      <trkpt lat="37.6322800" lon="-3.7332690">
        <ele>800.4</ele>
        <time>2020-07-17T06:22:24Z</time>
      </trkpt>
      <trkpt lat="37.6322560" lon="-3.7333960">
        <ele>801.2</ele>
        <time>2020-07-17T06:22:28Z</time>
      </trkpt>
      <trkpt lat="37.6322210" lon="-3.7335530">
        <ele>802.4</ele>
        <time>2020-07-17T06:22:33Z</time>
      </trkpt>
      <trkpt lat="37.6321850" lon="-3.7337060">
        <ele>803.4</ele>
        <time>2020-07-17T06:22:38Z</time>
      </trkpt>
      <trkpt lat="37.6321500" lon="-3.7337810">
        <ele>804.0</ele>
        <time>2020-07-17T06:22:41Z</time>
      </trkpt>
      <trkpt lat="37.6321240" lon="-3.7338330">
        <ele>804.4</ele>
        <time>2020-07-17T06:22:43Z</time>
      </trkpt>
      <trkpt lat="37.6320800" lon="-3.7339360">
        <ele>805.4</ele>
        <time>2020-07-17T06:22:47Z</time>
      </trkpt>
      <trkpt lat="37.6320230" lon="-3.7340700">
        <ele>806.6</ele>
        <time>2020-07-17T06:22:52Z</time>
      </trkpt>
      <trkpt lat="37.6320080" lon="-3.7340940">
        <ele>806.8</ele>
        <time>2020-07-17T06:22:53Z</time>
      </trkpt>
      <trkpt lat="37.6319540" lon="-3.7341940">
        <ele>807.6</ele>
        <time>2020-07-17T06:22:57Z</time>
      </trkpt>
      <trkpt lat="37.6318820" lon="-3.7343160">
        <ele>808.6</ele>
        <time>2020-07-17T06:23:02Z</time>
      </trkpt>
      <trkpt lat="37.6318480" lon="-3.7344220">
        <ele>809.6</ele>
        <time>2020-07-17T06:23:06Z</time>
      </trkpt>
      <trkpt lat="37.6318480" lon="-3.7345010">
        <ele>810.4</ele>
        <time>2020-07-17T06:23:09Z</time>
      </trkpt>
      <trkpt lat="37.6318600" lon="-3.7345250">
        <ele>810.6</ele>
        <time>2020-07-17T06:23:10Z</time>
      </trkpt>
      <trkpt lat="37.6318940" lon="-3.7345590">
        <ele>811.2</ele>
        <time>2020-07-17T06:23:12Z</time>
      </trkpt>
      <trkpt lat="37.6319230" lon="-3.7345620">
        <ele>811.6</ele>
        <time>2020-07-17T06:23:13Z</time>
      </trkpt>
      <trkpt lat="37.6319480" lon="-3.7345670">
        <ele>811.8</ele>
        <time>2020-07-17T06:23:14Z</time>
      </trkpt>
      <trkpt lat="37.6320290" lon="-3.7345490">
        <ele>813.0</ele>
        <time>2020-07-17T06:23:18Z</time>
      </trkpt>
      <trkpt lat="37.6320760" lon="-3.7345040">
        <ele>813.6</ele>
        <time>2020-07-17T06:23:21Z</time>
      </trkpt>
      <trkpt lat="37.6321110" lon="-3.7344520">
        <ele>814.2</ele>
        <time>2020-07-17T06:23:23Z</time>
      </trkpt>
      <trkpt lat="37.6321780" lon="-3.7343630">
        <ele>815.2</ele>
        <time>2020-07-17T06:23:27Z</time>
      </trkpt>
      <trkpt lat="37.6321900" lon="-3.7343360">
        <ele>815.4</ele>
        <time>2020-07-17T06:23:28Z</time>
      </trkpt>
      <trkpt lat="37.6322740" lon="-3.7342220">
        <ele>816.4</ele>
        <time>2020-07-17T06:23:33Z</time>
      </trkpt>
      <trkpt lat="37.6323710" lon="-3.7341400">
        <ele>817.6</ele>
        <time>2020-07-17T06:23:38Z</time>
      </trkpt>
      <trkpt lat="37.6324300" lon="-3.7340970">
        <ele>818.2</ele>
        <time>2020-07-17T06:23:41Z</time>
      </trkpt>
      <trkpt lat="37.6324720" lon="-3.7340620">
        <ele>818.8</ele>
        <time>2020-07-17T06:23:43Z</time>
      </trkpt>
      <trkpt lat="37.6325530" lon="-3.7339950">
        <ele>819.8</ele>
        <time>2020-07-17T06:23:47Z</time>
      </trkpt>
      <trkpt lat="37.6326290" lon="-3.7339300">
        <ele>820.8</ele>
        <time>2020-07-17T06:23:51Z</time>
      </trkpt>
      <trkpt lat="37.6326670" lon="-3.7338990">
        <ele>821.4</ele>
        <time>2020-07-17T06:23:53Z</time>
      </trkpt>
      <trkpt lat="37.6327040" lon="-3.7338680">
        <ele>822.0</ele>
        <time>2020-07-17T06:23:55Z</time>
      </trkpt>
      <trkpt lat="37.6327940" lon="-3.7338020">
        <ele>823.0</ele>
        <time>2020-07-17T06:24:00Z</time>
      </trkpt>
      <trkpt lat="37.6328680" lon="-3.7337810">
        <ele>824.2</ele>
        <time>2020-07-17T06:24:04Z</time>
      </trkpt>
      <trkpt lat="37.6329320" lon="-3.7337970">
        <ele>824.8</ele>
        <time>2020-07-17T06:24:07Z</time>
      </trkpt>
      <trkpt lat="37.6329660" lon="-3.7338290">
        <ele>825.2</ele>
        <time>2020-07-17T06:24:09Z</time>
      </trkpt>
      <trkpt lat="37.6330060" lon="-3.7339110">
        <ele>826.4</ele>
        <time>2020-07-17T06:24:13Z</time>
      </trkpt>
      <trkpt lat="37.6330210" lon="-3.7340100">
        <ele>827.6</ele>
        <time>2020-07-17T06:24:17Z</time>
      </trkpt>
      <trkpt lat="37.6330240" lon="-3.7340800">
        <ele>828.4</ele>
        <time>2020-07-17T06:24:20Z</time>
      </trkpt>
      <trkpt lat="37.6330220" lon="-3.7341020">
        <ele>828.6</ele>
        <time>2020-07-17T06:24:21Z</time>
      </trkpt>
      <trkpt lat="37.6329940" lon="-3.7342170">
        <ele>829.6</ele>
        <time>2020-07-17T06:24:26Z</time>
      </trkpt>
      <trkpt lat="37.6329800" lon="-3.7342600">
        <ele>830.0</ele>
        <time>2020-07-17T06:24:28Z</time>
      </trkpt>
      <trkpt lat="37.6329480" lon="-3.7343150">
        <ele>830.8</ele>
        <time>2020-07-17T06:24:31Z</time>
      </trkpt>
      <trkpt lat="37.6329110" lon="-3.7343650">
        <ele>831.4</ele>
        <time>2020-07-17T06:24:34Z</time>
      </trkpt>
      <trkpt lat="37.6328900" lon="-3.7343980">
        <ele>832.0</ele>
        <time>2020-07-17T06:24:36Z</time>
      </trkpt>
      <trkpt lat="37.6328400" lon="-3.7344920">
        <ele>833.2</ele>
        <time>2020-07-17T06:24:41Z</time>
      </trkpt>
      <trkpt lat="37.6328130" lon="-3.7345340">
        <ele>833.6</ele>
        <time>2020-07-17T06:24:43Z</time>
      </trkpt>
      <trkpt lat="37.6327900" lon="-3.7346020">
        <ele>834.2</ele>
        <time>2020-07-17T06:24:46Z</time>
      </trkpt>
      <trkpt lat="37.6328110" lon="-3.7346870">
        <ele>834.8</ele>
        <time>2020-07-17T06:24:49Z</time>
      </trkpt>
      <trkpt lat="37.6328600" lon="-3.7347470">
        <ele>835.4</ele>
        <time>2020-07-17T06:24:52Z</time>
      </trkpt>
      <trkpt lat="37.6329070" lon="-3.7347970">
        <ele>835.8</ele>
        <time>2020-07-17T06:24:55Z</time>
      </trkpt>
      <trkpt lat="37.6329430" lon="-3.7348160">
        <ele>836.4</ele>
        <time>2020-07-17T06:24:57Z</time>
      </trkpt>
      <trkpt lat="37.6329910" lon="-3.7348550">
        <ele>837.2</ele>
        <time>2020-07-17T06:25:00Z</time>
      </trkpt>
      <trkpt lat="37.6330080" lon="-3.7348660">
        <ele>837.4</ele>
        <time>2020-07-17T06:25:01Z</time>
      </trkpt>
      <trkpt lat="37.6330540" lon="-3.7349000">
        <ele>838.2</ele>
        <time>2020-07-17T06:25:04Z</time>
      </trkpt>
      <trkpt lat="37.6330750" lon="-3.7349080">
        <ele>838.6</ele>
        <time>2020-07-17T06:25:05Z</time>
      </trkpt>
      <trkpt lat="37.6331510" lon="-3.7349300">
        <ele>839.8</ele>
        <time>2020-07-17T06:25:09Z</time>
      </trkpt>
      <trkpt lat="37.6331870" lon="-3.7349300">
        <ele>840.4</ele>
        <time>2020-07-17T06:25:11Z</time>
      </trkpt>
      <trkpt lat="37.6332090" lon="-3.7349300">
        <ele>840.8</ele>
        <time>2020-07-17T06:25:12Z</time>
      </trkpt>
      <trkpt lat="37.6332280" lon="-3.7349300">
        <ele>841.0</ele>
        <time>2020-07-17T06:25:13Z</time>
      </trkpt>
      <trkpt lat="37.6333010" lon="-3.7349100">
        <ele>842.2</ele>
        <time>2020-07-17T06:25:17Z</time>
      </trkpt>
      <trkpt lat="37.6333390" lon="-3.7348940">
        <ele>842.8</ele>
        <time>2020-07-17T06:25:19Z</time>
      </trkpt>
      <trkpt lat="37.6333750" lon="-3.7348670">
        <ele>843.4</ele>
        <time>2020-07-17T06:25:21Z</time>
      </trkpt>
      <trkpt lat="37.6334350" lon="-3.7348040">
        <ele>844.6</ele>
        <time>2020-07-17T06:25:25Z</time>
      </trkpt>
      <trkpt lat="37.6334780" lon="-3.7347160">
        <ele>845.8</ele>
        <time>2020-07-17T06:25:29Z</time>
      </trkpt>
      <trkpt lat="37.6335130" lon="-3.7346260">
        <ele>847.0</ele>
        <time>2020-07-17T06:25:33Z</time>
      </trkpt>
      <trkpt lat="37.6335400" lon="-3.7345920">
        <ele>847.6</ele>
        <time>2020-07-17T06:25:35Z</time>
      </trkpt>
      <trkpt lat="37.6335600" lon="-3.7345490">
        <ele>848.0</ele>
        <time>2020-07-17T06:25:37Z</time>
      </trkpt>
      <trkpt lat="37.6335710" lon="-3.7345290">
        <ele>848.2</ele>
        <time>2020-07-17T06:25:38Z</time>
      </trkpt>
      <trkpt lat="37.6336040" lon="-3.7344660">
        <ele>849.0</ele>
        <time>2020-07-17T06:25:41Z</time>
      </trkpt>
      <trkpt lat="37.6336180" lon="-3.7344450">
        <ele>849.2</ele>
        <time>2020-07-17T06:25:42Z</time>
      </trkpt>
      <trkpt lat="37.6336310" lon="-3.7344270">
        <ele>849.4</ele>
        <time>2020-07-17T06:25:43Z</time>
      </trkpt>
      <trkpt lat="37.6336630" lon="-3.7344010">
        <ele>850.0</ele>
        <time>2020-07-17T06:25:45Z</time>
      </trkpt>
      <trkpt lat="37.6337350" lon="-3.7343750">
        <ele>851.0</ele>
        <time>2020-07-17T06:25:49Z</time>
      </trkpt>
      <trkpt lat="37.6337890" lon="-3.7343690">
        <ele>851.8</ele>
        <time>2020-07-17T06:25:52Z</time>
      </trkpt>
      <trkpt lat="37.6338310" lon="-3.7343850">
        <ele>852.4</ele>
        <time>2020-07-17T06:25:54Z</time>
      </trkpt>
      <trkpt lat="37.6338850" lon="-3.7344420">
        <ele>853.2</ele>
        <time>2020-07-17T06:25:57Z</time>
      </trkpt>
      <trkpt lat="37.6338920" lon="-3.7344700">
        <ele>853.4</ele>
        <time>2020-07-17T06:25:58Z</time>
      </trkpt>
      <trkpt lat="37.6339000" lon="-3.7346760">
        <ele>854.2</ele>
        <time>2020-07-17T06:26:03Z</time>
      </trkpt>
      <trkpt lat="37.6338850" lon="-3.7347220">
        <ele>854.2</ele>
        <time>2020-07-17T06:26:04Z</time>
      </trkpt>
      <trkpt lat="37.6337650" lon="-3.7349320">
        <ele>854.0</ele>
        <time>2020-07-17T06:26:08Z</time>
      </trkpt>
      <trkpt lat="37.6337200" lon="-3.7349860">
        <ele>854.0</ele>
        <time>2020-07-17T06:26:09Z</time>
      </trkpt>
      <trkpt lat="37.6335030" lon="-3.7352280">
        <ele>853.0</ele>
        <time>2020-07-17T06:26:14Z</time>
      </trkpt>
      <trkpt lat="37.6334710" lon="-3.7352710">
        <ele>853.2</ele>
        <time>2020-07-17T06:26:15Z</time>
      </trkpt>
      <trkpt lat="37.6333640" lon="-3.7354090">
        <ele>853.8</ele>
        <time>2020-07-17T06:26:19Z</time>
      </trkpt>
      <trkpt lat="37.6332820" lon="-3.7354860">
        <ele>854.8</ele>
        <time>2020-07-17T06:26:23Z</time>
      </trkpt>
      <trkpt lat="37.6332440" lon="-3.7355250">
        <ele>855.4</ele>
        <time>2020-07-17T06:26:25Z</time>
      </trkpt>
      <trkpt lat="37.6332060" lon="-3.7355590">
        <ele>856.0</ele>
        <time>2020-07-17T06:26:27Z</time>
      </trkpt>
      <trkpt lat="37.6331380" lon="-3.7356320">
        <ele>857.0</ele>
        <time>2020-07-17T06:26:31Z</time>
      </trkpt>
      <trkpt lat="37.6331200" lon="-3.7356510">
        <ele>857.4</ele>
        <time>2020-07-17T06:26:32Z</time>
      </trkpt>
      <trkpt lat="37.6330860" lon="-3.7356850">
        <ele>858.2</ele>
        <time>2020-07-17T06:26:34Z</time>
      </trkpt>
      <trkpt lat="37.6330090" lon="-3.7357590">
        <ele>859.4</ele>
        <time>2020-07-17T06:26:38Z</time>
      </trkpt>
      <trkpt lat="37.6329520" lon="-3.7358200">
        <ele>859.8</ele>
        <time>2020-07-17T06:26:41Z</time>
      </trkpt>
      <trkpt lat="37.6328970" lon="-3.7359020">
        <ele>860.4</ele>
        <time>2020-07-17T06:26:44Z</time>
      </trkpt>
      <trkpt lat="37.6328200" lon="-3.7360070">
        <ele>861.2</ele>
        <time>2020-07-17T06:26:48Z</time>
      </trkpt>
      <trkpt lat="37.6327820" lon="-3.7360570">
        <ele>861.6</ele>
        <time>2020-07-17T06:26:50Z</time>
      </trkpt>
      <trkpt lat="37.6326800" lon="-3.7361790">
        <ele>862.8</ele>
        <time>2020-07-17T06:26:55Z</time>
      </trkpt>
      <trkpt lat="37.6326170" lon="-3.7362540">
        <ele>863.2</ele>
        <time>2020-07-17T06:26:58Z</time>
      </trkpt>
      <trkpt lat="37.6325670" lon="-3.7363430">
        <ele>863.8</ele>
        <time>2020-07-17T06:27:01Z</time>
      </trkpt>
      <trkpt lat="37.6324710" lon="-3.7365260">
        <ele>864.6</ele>
        <time>2020-07-17T06:27:07Z</time>
      </trkpt>
      <trkpt lat="37.6324390" lon="-3.7365900">
        <ele>865.0</ele>
        <time>2020-07-17T06:27:09Z</time>
      </trkpt>
      <trkpt lat="37.6323600" lon="-3.7368040">
        <ele>865.8</ele>
        <time>2020-07-17T06:27:15Z</time>
      </trkpt>
      <trkpt lat="37.6323500" lon="-3.7368370">
        <ele>866.0</ele>
        <time>2020-07-17T06:27:16Z</time>
      </trkpt>
      <trkpt lat="37.6322660" lon="-3.7370400">
        <ele>867.2</ele>
        <time>2020-07-17T06:27:23Z</time>
      </trkpt>
      <trkpt lat="37.6322530" lon="-3.7370690">
        <ele>867.6</ele>
        <time>2020-07-17T06:27:24Z</time>
      </trkpt>
      <trkpt lat="37.6322270" lon="-3.7371550">
        <ele>868.4</ele>
        <time>2020-07-17T06:27:27Z</time>
      </trkpt>
      <trkpt lat="37.6322180" lon="-3.7372430">
        <ele>869.2</ele>
        <time>2020-07-17T06:27:30Z</time>
      </trkpt>
      <trkpt lat="37.6322140" lon="-3.7372680">
        <ele>869.4</ele>
        <time>2020-07-17T06:27:31Z</time>
      </trkpt>
      <trkpt lat="37.6322090" lon="-3.7373920">
        <ele>870.6</ele>
        <time>2020-07-17T06:27:35Z</time>
      </trkpt>
      <trkpt lat="37.6322200" lon="-3.7375450">
        <ele>871.6</ele>
        <time>2020-07-17T06:27:40Z</time>
      </trkpt>
      <trkpt lat="37.6322240" lon="-3.7375740">
        <ele>871.8</ele>
        <time>2020-07-17T06:27:41Z</time>
      </trkpt>
      <trkpt lat="37.6322290" lon="-3.7376060">
        <ele>872.0</ele>
        <time>2020-07-17T06:27:42Z</time>
      </trkpt>
      <trkpt lat="37.6322350" lon="-3.7376660">
        <ele>872.6</ele>
        <time>2020-07-17T06:27:44Z</time>
      </trkpt>
      <trkpt lat="37.6322400" lon="-3.7377850">
        <ele>873.8</ele>
        <time>2020-07-17T06:27:48Z</time>
      </trkpt>
      <trkpt lat="37.6322390" lon="-3.7378150">
        <ele>874.0</ele>
        <time>2020-07-17T06:27:49Z</time>
      </trkpt>
      <trkpt lat="37.6322330" lon="-3.7379020">
        <ele>874.8</ele>
        <time>2020-07-17T06:27:52Z</time>
      </trkpt>
      <trkpt lat="37.6322000" lon="-3.7380120">
        <ele>875.8</ele>
        <time>2020-07-17T06:27:56Z</time>
      </trkpt>
      <trkpt lat="37.6321230" lon="-3.7381260">
        <ele>877.0</ele>
        <time>2020-07-17T06:28:01Z</time>
      </trkpt>
      <trkpt lat="37.6321070" lon="-3.7381500">
        <ele>877.2</ele>
        <time>2020-07-17T06:28:02Z</time>
      </trkpt>
      <trkpt lat="37.6320500" lon="-3.7382460">
        <ele>878.2</ele>
        <time>2020-07-17T06:28:06Z</time>
      </trkpt>
      <trkpt lat="37.6319930" lon="-3.7383810">
        <ele>879.4</ele>
        <time>2020-07-17T06:28:11Z</time>
      </trkpt>
      <trkpt lat="37.6319510" lon="-3.7384960">
        <ele>880.6</ele>
        <time>2020-07-17T06:28:15Z</time>
      </trkpt>
      <trkpt lat="37.6319080" lon="-3.7386450">
        <ele>881.8</ele>
        <time>2020-07-17T06:28:20Z</time>
      </trkpt>
      <trkpt lat="37.6318920" lon="-3.7387070">
        <ele>882.2</ele>
        <time>2020-07-17T06:28:22Z</time>
      </trkpt>
      <trkpt lat="37.6318780" lon="-3.7387720">
        <ele>882.8</ele>
        <time>2020-07-17T06:28:24Z</time>
      </trkpt>
      <trkpt lat="37.6318480" lon="-3.7389760">
        <ele>883.8</ele>
        <time>2020-07-17T06:28:30Z</time>
      </trkpt>
      <trkpt lat="37.6318170" lon="-3.7392410">
        <ele>885.0</ele>
        <time>2020-07-17T06:28:37Z</time>
      </trkpt>
      <trkpt lat="37.6317940" lon="-3.7393560">
        <ele>885.4</ele>
        <time>2020-07-17T06:28:40Z</time>
      </trkpt>
      <trkpt lat="37.6317320" lon="-3.7395080">
        <ele>886.0</ele>
        <time>2020-07-17T06:28:44Z</time>
      </trkpt>
      <trkpt lat="37.6316930" lon="-3.7395860">
        <ele>886.2</ele>
        <time>2020-07-17T06:28:46Z</time>
      </trkpt>
      <trkpt lat="37.6315700" lon="-3.7397900">
        <ele>886.4</ele>
        <time>2020-07-17T06:28:51Z</time>
      </trkpt>
      <trkpt lat="37.6315090" lon="-3.7398570">
        <ele>886.4</ele>
        <time>2020-07-17T06:28:53Z</time>
      </trkpt>
      <trkpt lat="37.6313860" lon="-3.7399700">
        <ele>886.8</ele>
        <time>2020-07-17T06:28:57Z</time>
      </trkpt>
      <trkpt lat="37.6312980" lon="-3.7400500">
        <ele>887.2</ele>
        <time>2020-07-17T06:29:00Z</time>
      </trkpt>
      <trkpt lat="37.6312710" lon="-3.7400750">
        <ele>887.4</ele>
        <time>2020-07-17T06:29:01Z</time>
      </trkpt>
      <trkpt lat="37.6311380" lon="-3.7402220">
        <ele>888.2</ele>
        <time>2020-07-17T06:29:06Z</time>
      </trkpt>
      <trkpt lat="37.6310750" lon="-3.7403250">
        <ele>889.0</ele>
        <time>2020-07-17T06:29:09Z</time>
      </trkpt>
      <trkpt lat="37.6310390" lon="-3.7403850">
        <ele>889.4</ele>
        <time>2020-07-17T06:29:11Z</time>
      </trkpt>
      <trkpt lat="37.6309690" lon="-3.7405600">
        <ele>890.4</ele>
        <time>2020-07-17T06:29:16Z</time>
      </trkpt>
      <trkpt lat="37.6309240" lon="-3.7407640">
        <ele>891.6</ele>
        <time>2020-07-17T06:29:21Z</time>
      </trkpt>
      <trkpt lat="37.6309340" lon="-3.7408130">
        <ele>891.8</ele>
        <time>2020-07-17T06:29:22Z</time>
      </trkpt>
      <trkpt lat="37.6310240" lon="-3.7410270">
        <ele>892.6</ele>
        <time>2020-07-17T06:29:27Z</time>
      </trkpt>
      <trkpt lat="37.6310430" lon="-3.7410610">
        <ele>892.8</ele>
        <time>2020-07-17T06:29:28Z</time>
      </trkpt>
      <trkpt lat="37.6311950" lon="-3.7412840">
        <ele>893.8</ele>
        <time>2020-07-17T06:29:34Z</time>
      </trkpt>
      <trkpt lat="37.6312440" lon="-3.7413620">
        <ele>894.0</ele>
        <time>2020-07-17T06:29:36Z</time>
      </trkpt>
      <trkpt lat="37.6314540" lon="-3.7417010">
        <ele>894.8</ele>
        <time>2020-07-17T06:29:44Z</time>
      </trkpt>
      <trkpt lat="37.6314790" lon="-3.7417420">
        <ele>895.0</ele>
        <time>2020-07-17T06:29:45Z</time>
      </trkpt>
      <trkpt lat="37.6315860" lon="-3.7419480">
        <ele>895.8</ele>
        <time>2020-07-17T06:29:50Z</time>
      </trkpt>
      <trkpt lat="37.6315880" lon="-3.7420080">
        <ele>896.0</ele>
        <time>2020-07-17T06:29:51Z</time>
      </trkpt>
      <trkpt lat="37.6314830" lon="-3.7422790">
        <ele>895.6</ele>
        <time>2020-07-17T06:29:55Z</time>
      </trkpt>
      <trkpt lat="37.6314390" lon="-3.7423410">
        <ele>895.6</ele>
        <time>2020-07-17T06:29:56Z</time>
      </trkpt>
      <trkpt lat="37.6313780" lon="-3.7424160">
        <ele>895.2</ele>
        <time>2020-07-17T06:29:57Z</time>
      </trkpt>
      <trkpt lat="37.6312600" lon="-3.7425330">
        <ele>894.6</ele>
        <time>2020-07-17T06:29:59Z</time>
      </trkpt>
      <trkpt lat="37.6310140" lon="-3.7427230">
        <ele>893.8</ele>
        <time>2020-07-17T06:30:03Z</time>
      </trkpt>
      <trkpt lat="37.6309590" lon="-3.7427550">
        <ele>893.8</ele>
        <time>2020-07-17T06:30:04Z</time>
      </trkpt>
      <trkpt lat="37.6308010" lon="-3.7428320">
        <ele>894.2</ele>
        <time>2020-07-17T06:30:07Z</time>
      </trkpt>
      <trkpt lat="37.6307110" lon="-3.7428480">
        <ele>894.8</ele>
        <time>2020-07-17T06:30:09Z</time>
      </trkpt>
      <trkpt lat="37.6306730" lon="-3.7428510">
        <ele>895.2</ele>
        <time>2020-07-17T06:30:10Z</time>
      </trkpt>
      <trkpt lat="37.6306000" lon="-3.7428560">
        <ele>896.0</ele>
        <time>2020-07-17T06:30:12Z</time>
      </trkpt>
      <trkpt lat="37.6305370" lon="-3.7428490">
        <ele>896.8</ele>
        <time>2020-07-17T06:30:14Z</time>
      </trkpt>
      <trkpt lat="37.6305070" lon="-3.7428410">
        <ele>897.2</ele>
        <time>2020-07-17T06:30:15Z</time>
      </trkpt>
      <trkpt lat="37.6304520" lon="-3.7428220">
        <ele>897.8</ele>
        <time>2020-07-17T06:30:17Z</time>
      </trkpt>
      <trkpt lat="37.6304000" lon="-3.7428090">
        <ele>898.6</ele>
        <time>2020-07-17T06:30:19Z</time>
      </trkpt>
      <trkpt lat="37.6303290" lon="-3.7427900">
        <ele>899.6</ele>
        <time>2020-07-17T06:30:22Z</time>
      </trkpt>
      <trkpt lat="37.6303090" lon="-3.7427810">
        <ele>899.8</ele>
        <time>2020-07-17T06:30:23Z</time>
      </trkpt>
      <trkpt lat="37.6302360" lon="-3.7427600">
        <ele>901.0</ele>
        <time>2020-07-17T06:30:26Z</time>
      </trkpt>
      <trkpt lat="37.6301870" lon="-3.7427410">
        <ele>901.6</ele>
        <time>2020-07-17T06:30:28Z</time>
      </trkpt>
      <trkpt lat="37.6301460" lon="-3.7427130">
        <ele>902.4</ele>
        <time>2020-07-17T06:30:30Z</time>
      </trkpt>
      <trkpt lat="37.6301260" lon="-3.7427060">
        <ele>902.6</ele>
        <time>2020-07-17T06:30:31Z</time>
      </trkpt>
      <trkpt lat="37.6300800" lon="-3.7427030">
        <ele>903.2</ele>
        <time>2020-07-17T06:30:33Z</time>
      </trkpt>
      <trkpt lat="37.6300600" lon="-3.7426990">
        <ele>903.6</ele>
        <time>2020-07-17T06:30:34Z</time>
      </trkpt>
      <trkpt lat="37.6299770" lon="-3.7426850">
        <ele>904.6</ele>
        <time>2020-07-17T06:30:38Z</time>
      </trkpt>
      <trkpt lat="37.6299390" lon="-3.7426910">
        <ele>905.0</ele>
        <time>2020-07-17T06:30:40Z</time>
      </trkpt>
      <trkpt lat="37.6298830" lon="-3.7426930">
        <ele>905.8</ele>
        <time>2020-07-17T06:30:43Z</time>
      </trkpt>
      <trkpt lat="37.6298280" lon="-3.7427040">
        <ele>906.4</ele>
        <time>2020-07-17T06:30:46Z</time>
      </trkpt>
      <trkpt lat="37.6297940" lon="-3.7427210">
        <ele>907.0</ele>
        <time>2020-07-17T06:30:48Z</time>
      </trkpt>
      <trkpt lat="37.6297370" lon="-3.7427430">
        <ele>907.4</ele>
        <time>2020-07-17T06:30:51Z</time>
      </trkpt>
      <trkpt lat="37.6296770" lon="-3.7427760">
        <ele>908.0</ele>
        <time>2020-07-17T06:30:54Z</time>
      </trkpt>
      <trkpt lat="37.6295820" lon="-3.7428540">
        <ele>909.0</ele>
        <time>2020-07-17T06:30:59Z</time>
      </trkpt>
      <trkpt lat="37.6295650" lon="-3.7428760">
        <ele>909.2</ele>
        <time>2020-07-17T06:31:00Z</time>
      </trkpt>
      <trkpt lat="37.6295030" lon="-3.7430400">
        <ele>910.4</ele>
        <time>2020-07-17T06:31:06Z</time>
      </trkpt>
      <trkpt lat="37.6294780" lon="-3.7431980">
        <ele>911.4</ele>
        <time>2020-07-17T06:31:11Z</time>
      </trkpt>
      <trkpt lat="37.6294710" lon="-3.7433340">
        <ele>912.2</ele>
        <time>2020-07-17T06:31:15Z</time>
      </trkpt>
      <trkpt lat="37.6294680" lon="-3.7433610">
        <ele>912.4</ele>
        <time>2020-07-17T06:31:16Z</time>
      </trkpt>
      <trkpt lat="37.6294410" lon="-3.7435220">
        <ele>913.6</ele>
        <time>2020-07-17T06:31:21Z</time>
      </trkpt>
      <trkpt lat="37.6294230" lon="-3.7435920">
        <ele>914.0</ele>
        <time>2020-07-17T06:31:23Z</time>
      </trkpt>
      <trkpt lat="37.6293730" lon="-3.7437460">
        <ele>914.6</ele>
        <time>2020-07-17T06:31:27Z</time>
      </trkpt>
      <trkpt lat="37.6293310" lon="-3.7439240">
        <ele>915.0</ele>
        <time>2020-07-17T06:31:31Z</time>
      </trkpt>
      <trkpt lat="37.6292730" lon="-3.7442770">
        <ele>915.6</ele>
        <time>2020-07-17T06:31:38Z</time>
      </trkpt>
      <trkpt lat="37.6292540" lon="-3.7443180">
        <ele>915.8</ele>
        <time>2020-07-17T06:31:39Z</time>
      </trkpt>
      <trkpt lat="37.6291420" lon="-3.7444790">
        <ele>916.8</ele>
        <time>2020-07-17T06:31:44Z</time>
      </trkpt>
      <trkpt lat="37.6290590" lon="-3.7445880">
        <ele>917.6</ele>
        <time>2020-07-17T06:31:48Z</time>
      </trkpt>
      <trkpt lat="37.6290380" lon="-3.7446170">
        <ele>918.0</ele>
        <time>2020-07-17T06:31:49Z</time>
      </trkpt>
      <trkpt lat="37.6289870" lon="-3.7446900">
        <ele>918.8</ele>
        <time>2020-07-17T06:31:52Z</time>
      </trkpt>
      <trkpt lat="37.6289690" lon="-3.7447180">
        <ele>919.0</ele>
        <time>2020-07-17T06:31:53Z</time>
      </trkpt>
      <trkpt lat="37.6288910" lon="-3.7448460">
        <ele>920.2</ele>
        <time>2020-07-17T06:31:58Z</time>
      </trkpt>
      <trkpt lat="37.6288630" lon="-3.7449020">
        <ele>920.8</ele>
        <time>2020-07-17T06:32:00Z</time>
      </trkpt>
      <trkpt lat="37.6288380" lon="-3.7449540">
        <ele>921.4</ele>
        <time>2020-07-17T06:32:02Z</time>
      </trkpt>
      <trkpt lat="37.6287880" lon="-3.7450560">
        <ele>922.4</ele>
        <time>2020-07-17T06:32:06Z</time>
      </trkpt>
      <trkpt lat="37.6287410" lon="-3.7451550">
        <ele>923.2</ele>
        <time>2020-07-17T06:32:10Z</time>
      </trkpt>
      <trkpt lat="37.6287330" lon="-3.7451790">
        <ele>923.4</ele>
        <time>2020-07-17T06:32:11Z</time>
      </trkpt>
      <trkpt lat="37.6286740" lon="-3.7452980">
        <ele>924.6</ele>
        <time>2020-07-17T06:32:16Z</time>
      </trkpt>
      <trkpt lat="37.6286600" lon="-3.7453210">
        <ele>924.8</ele>
        <time>2020-07-17T06:32:17Z</time>
      </trkpt>
      <trkpt lat="37.6286230" lon="-3.7453800">
        <ele>925.6</ele>
        <time>2020-07-17T06:32:20Z</time>
      </trkpt>
      <trkpt lat="37.6285720" lon="-3.7454590">
        <ele>926.8</ele>
        <time>2020-07-17T06:32:24Z</time>
      </trkpt>
      <trkpt lat="37.6284980" lon="-3.7455440">
        <ele>928.0</ele>
        <time>2020-07-17T06:32:29Z</time>
      </trkpt>
      <trkpt lat="37.6284450" lon="-3.7456300">
        <ele>929.2</ele>
        <time>2020-07-17T06:32:33Z</time>
      </trkpt>
      <trkpt lat="37.6284070" lon="-3.7456980">
        <ele>930.0</ele>
        <time>2020-07-17T06:32:36Z</time>
      </trkpt>
      <trkpt lat="37.6283940" lon="-3.7457230">
        <ele>930.2</ele>
        <time>2020-07-17T06:32:37Z</time>
      </trkpt>
      <trkpt lat="37.6283410" lon="-3.7458830">
        <ele>931.2</ele>
        <time>2020-07-17T06:32:43Z</time>
      </trkpt>
      <trkpt lat="37.6283320" lon="-3.7459100">
        <ele>931.6</ele>
        <time>2020-07-17T06:32:44Z</time>
      </trkpt>
      <trkpt lat="37.6282960" lon="-3.7460160">
        <ele>932.6</ele>
        <time>2020-07-17T06:32:48Z</time>
      </trkpt>
      <trkpt lat="37.6282510" lon="-3.7461160">
        <ele>933.2</ele>
        <time>2020-07-17T06:32:52Z</time>
      </trkpt>
      <trkpt lat="37.6282370" lon="-3.7461410">
        <ele>933.6</ele>
        <time>2020-07-17T06:32:53Z</time>
      </trkpt>
      <trkpt lat="37.6281700" lon="-3.7462590">
        <ele>934.6</ele>
        <time>2020-07-17T06:32:58Z</time>
      </trkpt>
      <trkpt lat="37.6281080" lon="-3.7463910">
        <ele>935.2</ele>
        <time>2020-07-17T06:33:03Z</time>
      </trkpt>
      <trkpt lat="37.6280880" lon="-3.7464460">
        <ele>935.8</ele>
        <time>2020-07-17T06:33:05Z</time>
      </trkpt>
      <trkpt lat="37.6280460" lon="-3.7465840">
        <ele>936.8</ele>
        <time>2020-07-17T06:33:10Z</time>
      </trkpt>
      <trkpt lat="37.6280130" lon="-3.7466970">
        <ele>937.8</ele>
        <time>2020-07-17T06:33:14Z</time>
      </trkpt>
      <trkpt lat="37.6280040" lon="-3.7467240">
        <ele>937.8</ele>
        <time>2020-07-17T06:33:15Z</time>
      </trkpt>
      <trkpt lat="37.6279670" lon="-3.7468320">
        <ele>939.0</ele>
        <time>2020-07-17T06:33:19Z</time>
      </trkpt>
      <trkpt lat="37.6279170" lon="-3.7469670">
        <ele>940.0</ele>
        <time>2020-07-17T06:33:24Z</time>
      </trkpt>
      <trkpt lat="37.6278590" lon="-3.7471020">
        <ele>941.0</ele>
        <time>2020-07-17T06:33:29Z</time>
      </trkpt>
      <trkpt lat="37.6277910" lon="-3.7472000">
        <ele>941.8</ele>
        <time>2020-07-17T06:33:33Z</time>
      </trkpt>
      <trkpt lat="37.6277700" lon="-3.7472200">
        <ele>942.2</ele>
        <time>2020-07-17T06:33:34Z</time>
      </trkpt>
      <trkpt lat="37.6276590" lon="-3.7472480">
        <ele>942.6</ele>
        <time>2020-07-17T06:33:38Z</time>
      </trkpt>
      <trkpt lat="37.6275330" lon="-3.7472220">
        <ele>943.2</ele>
        <time>2020-07-17T06:33:42Z</time>
      </trkpt>
      <trkpt lat="37.6274320" lon="-3.7472030">
        <ele>943.6</ele>
        <time>2020-07-17T06:33:45Z</time>
      </trkpt>
      <trkpt lat="37.6272130" lon="-3.7472350">
        <ele>944.0</ele>
        <time>2020-07-17T06:33:51Z</time>
      </trkpt>
      <trkpt lat="37.6270520" lon="-3.7472760">
        <ele>944.2</ele>
        <time>2020-07-17T06:33:55Z</time>
      </trkpt>
      <trkpt lat="37.6269340" lon="-3.7472950">
        <ele>944.6</ele>
        <time>2020-07-17T06:33:58Z</time>
      </trkpt>
      <trkpt lat="37.6267190" lon="-3.7473260">
        <ele>944.8</ele>
        <time>2020-07-17T06:34:03Z</time>
      </trkpt>
      <trkpt lat="37.6265370" lon="-3.7473520">
        <ele>944.8</ele>
        <time>2020-07-17T06:34:07Z</time>
      </trkpt>
      <trkpt lat="37.6263760" lon="-3.7473600">
        <ele>945.4</ele>
        <time>2020-07-17T06:34:11Z</time>
      </trkpt>
      <trkpt lat="37.6262600" lon="-3.7473550">
        <ele>945.8</ele>
        <time>2020-07-17T06:34:14Z</time>
      </trkpt>
      <trkpt lat="37.6261080" lon="-3.7473470">
        <ele>946.4</ele>
        <time>2020-07-17T06:34:19Z</time>
      </trkpt>
      <trkpt lat="37.6260780" lon="-3.7473470">
        <ele>946.6</ele>
        <time>2020-07-17T06:34:20Z</time>
      </trkpt>
      <trkpt lat="37.6259930" lon="-3.7473660">
        <ele>947.4</ele>
        <time>2020-07-17T06:34:23Z</time>
      </trkpt>
      <trkpt lat="37.6259170" lon="-3.7473990">
        <ele>948.2</ele>
        <time>2020-07-17T06:34:26Z</time>
      </trkpt>
      <trkpt lat="37.6258680" lon="-3.7474080">
        <ele>948.6</ele>
        <time>2020-07-17T06:34:28Z</time>
      </trkpt>
      <trkpt lat="37.6257990" lon="-3.7474360">
        <ele>949.4</ele>
        <time>2020-07-17T06:34:31Z</time>
      </trkpt>
      <trkpt lat="37.6257550" lon="-3.7474500">
        <ele>949.8</ele>
        <time>2020-07-17T06:34:33Z</time>
      </trkpt>
      <trkpt lat="37.6256900" lon="-3.7474570">
        <ele>950.8</ele>
        <time>2020-07-17T06:34:36Z</time>
      </trkpt>
      <trkpt lat="37.6255940" lon="-3.7474460">
        <ele>952.0</ele>
        <time>2020-07-17T06:34:40Z</time>
      </trkpt>
      <trkpt lat="37.6255200" lon="-3.7474280">
        <ele>953.0</ele>
        <time>2020-07-17T06:34:43Z</time>
      </trkpt>
      <trkpt lat="37.6253930" lon="-3.7474060">
        <ele>954.2</ele>
        <time>2020-07-17T06:34:48Z</time>
      </trkpt>
      <trkpt lat="37.6253650" lon="-3.7474050">
        <ele>954.4</ele>
        <time>2020-07-17T06:34:49Z</time>
      </trkpt>
      <trkpt lat="37.6252560" lon="-3.7473980">
        <ele>955.4</ele>
        <time>2020-07-17T06:34:53Z</time>
      </trkpt>
      <trkpt lat="37.6250970" lon="-3.7473540">
        <ele>956.4</ele>
        <time>2020-07-17T06:34:59Z</time>
      </trkpt>
      <trkpt lat="37.6249340" lon="-3.7472960">
        <ele>957.6</ele>
        <time>2020-07-17T06:35:06Z</time>
      </trkpt>
      <trkpt lat="37.6248900" lon="-3.7472820">
        <ele>958.0</ele>
        <time>2020-07-17T06:35:08Z</time>
      </trkpt>
      <trkpt lat="37.6248500" lon="-3.7472750">
        <ele>958.6</ele>
        <time>2020-07-17T06:35:10Z</time>
      </trkpt>
      <trkpt lat="37.6247680" lon="-3.7472640">
        <ele>959.6</ele>
        <time>2020-07-17T06:35:14Z</time>
      </trkpt>
      <trkpt lat="37.6247300" lon="-3.7472580">
        <ele>960.2</ele>
        <time>2020-07-17T06:35:16Z</time>
      </trkpt>
      <trkpt lat="37.6246880" lon="-3.7472520">
        <ele>960.8</ele>
        <time>2020-07-17T06:35:18Z</time>
      </trkpt>
      <trkpt lat="37.6245810" lon="-3.7472480">
        <ele>961.8</ele>
        <time>2020-07-17T06:35:23Z</time>
      </trkpt>
      <trkpt lat="37.6245290" lon="-3.7472520">
        <ele>962.2</ele>
        <time>2020-07-17T06:35:25Z</time>
      </trkpt>
      <trkpt lat="37.6244620" lon="-3.7472610">
        <ele>962.8</ele>
        <time>2020-07-17T06:35:28Z</time>
      </trkpt>
      <trkpt lat="37.6243250" lon="-3.7472910">
        <ele>963.8</ele>
        <time>2020-07-17T06:35:33Z</time>
      </trkpt>
      <trkpt lat="37.6242640" lon="-3.7473150">
        <ele>963.8</ele>
        <time>2020-07-17T06:35:35Z</time>
      </trkpt>
      <trkpt lat="37.6241050" lon="-3.7474140">
        <ele>964.4</ele>
        <time>2020-07-17T06:35:40Z</time>
      </trkpt>
      <trkpt lat="37.6238590" lon="-3.7475240">
        <ele>964.6</ele>
        <time>2020-07-17T06:35:47Z</time>
      </trkpt>
      <trkpt lat="37.6237650" lon="-3.7475080">
        <ele>965.0</ele>
        <time>2020-07-17T06:35:50Z</time>
      </trkpt>
      <trkpt lat="37.6237190" lon="-3.7474820">
        <ele>965.4</ele>
        <time>2020-07-17T06:35:52Z</time>
      </trkpt>
      <trkpt lat="37.6236740" lon="-3.7474610">
        <ele>966.2</ele>
        <time>2020-07-17T06:35:54Z</time>
      </trkpt>
      <trkpt lat="37.6235920" lon="-3.7474240">
        <ele>967.2</ele>
        <time>2020-07-17T06:35:58Z</time>
      </trkpt>
      <trkpt lat="37.6235690" lon="-3.7474170">
        <ele>967.4</ele>
        <time>2020-07-17T06:35:59Z</time>
      </trkpt>
      <trkpt lat="37.6234730" lon="-3.7473990">
        <ele>968.6</ele>
        <time>2020-07-17T06:36:03Z</time>
      </trkpt>
      <trkpt lat="37.6234170" lon="-3.7473920">
        <ele>969.0</ele>
        <time>2020-07-17T06:36:05Z</time>
      </trkpt>
      <trkpt lat="37.6233270" lon="-3.7473910">
        <ele>969.6</ele>
        <time>2020-07-17T06:36:08Z</time>
      </trkpt>
      <trkpt lat="37.6231270" lon="-3.7474170">
        <ele>970.4</ele>
        <time>2020-07-17T06:36:14Z</time>
      </trkpt>
      <trkpt lat="37.6230200" lon="-3.7474360">
        <ele>970.6</ele>
        <time>2020-07-17T06:36:17Z</time>
      </trkpt>
      <trkpt lat="37.6227670" lon="-3.7474690">
        <ele>971.2</ele>
        <time>2020-07-17T06:36:24Z</time>
      </trkpt>
      <trkpt lat="37.6226170" lon="-3.7474850">
        <ele>971.6</ele>
        <time>2020-07-17T06:36:28Z</time>
      </trkpt>
      <trkpt lat="37.6225750" lon="-3.7474950">
        <ele>971.6</ele>
        <time>2020-07-17T06:36:29Z</time>
      </trkpt>
      <trkpt lat="37.6225040" lon="-3.7475190">
        <ele>971.8</ele>
        <time>2020-07-17T06:36:31Z</time>
      </trkpt>
      <trkpt lat="37.6222620" lon="-3.7476820">
        <ele>972.4</ele>
        <time>2020-07-17T06:36:38Z</time>
      </trkpt>
      <trkpt lat="37.6222040" lon="-3.7477410">
        <ele>972.6</ele>
        <time>2020-07-17T06:36:40Z</time>
      </trkpt>
      <trkpt lat="37.6220150" lon="-3.7478930">
        <ele>973.4</ele>
        <time>2020-07-17T06:36:46Z</time>
      </trkpt>
      <trkpt lat="37.6219750" lon="-3.7479140">
        <ele>973.8</ele>
        <time>2020-07-17T06:36:47Z</time>
      </trkpt>
      <trkpt lat="37.6217720" lon="-3.7479890">
        <ele>974.8</ele>
        <time>2020-07-17T06:36:53Z</time>
      </trkpt>
      <trkpt lat="37.6217040" lon="-3.7480010">
        <ele>975.4</ele>
        <time>2020-07-17T06:36:55Z</time>
      </trkpt>
      <trkpt lat="37.6216330" lon="-3.7480050">
        <ele>975.8</ele>
        <time>2020-07-17T06:36:57Z</time>
      </trkpt>
      <trkpt lat="37.6215140" lon="-3.7479600">
        <ele>976.6</ele>
        <time>2020-07-17T06:37:01Z</time>
      </trkpt>
      <trkpt lat="37.6214740" lon="-3.7479020">
        <ele>976.8</ele>
        <time>2020-07-17T06:37:02Z</time>
      </trkpt>
      <trkpt lat="37.6214370" lon="-3.7478210">
        <ele>977.2</ele>
        <time>2020-07-17T06:37:04Z</time>
      </trkpt>
      <trkpt lat="37.6213980" lon="-3.7475820">
        <ele>977.8</ele>
        <time>2020-07-17T06:37:09Z</time>
      </trkpt>
      <trkpt lat="37.6213980" lon="-3.7475380">
        <ele>978.0</ele>
        <time>2020-07-17T06:37:10Z</time>
      </trkpt>
      <trkpt lat="37.6214060" lon="-3.7471960">
        <ele>979.2</ele>
        <time>2020-07-17T06:37:17Z</time>
      </trkpt>
      <trkpt lat="37.6214120" lon="-3.7471380">
        <ele>979.2</ele>
        <time>2020-07-17T06:37:18Z</time>
      </trkpt>
      <trkpt lat="37.6214700" lon="-3.7467980">
        <ele>979.6</ele>
        <time>2020-07-17T06:37:24Z</time>
      </trkpt>
      <trkpt lat="37.6214700" lon="-3.7466900">
        <ele>979.6</ele>
        <time>2020-07-17T06:37:26Z</time>
      </trkpt>
      <trkpt lat="37.6213990" lon="-3.7465850">
        <ele>980.0</ele>
        <time>2020-07-17T06:37:29Z</time>
      </trkpt>
      <trkpt lat="37.6213370" lon="-3.7465910">
        <ele>980.4</ele>
        <time>2020-07-17T06:37:31Z</time>
      </trkpt>
      <trkpt lat="37.6213100" lon="-3.7466100">
        <ele>980.6</ele>
        <time>2020-07-17T06:37:32Z</time>
      </trkpt>
      <trkpt lat="37.6212450" lon="-3.7466910">
        <ele>981.6</ele>
        <time>2020-07-17T06:37:35Z</time>
      </trkpt>
      <trkpt lat="37.6212110" lon="-3.7467480">
        <ele>982.4</ele>
        <time>2020-07-17T06:37:37Z</time>
      </trkpt>
      <trkpt lat="37.6211960" lon="-3.7467780">
        <ele>982.8</ele>
        <time>2020-07-17T06:37:38Z</time>
      </trkpt>
      <trkpt lat="37.6211210" lon="-3.7469300">
        <ele>984.0</ele>
        <time>2020-07-17T06:37:43Z</time>
      </trkpt>
      <trkpt lat="37.6211000" lon="-3.7469930">
        <ele>984.4</ele>
        <time>2020-07-17T06:37:45Z</time>
      </trkpt>
      <trkpt lat="37.6210850" lon="-3.7470520">
        <ele>985.0</ele>
        <time>2020-07-17T06:37:47Z</time>
      </trkpt>
      <trkpt lat="37.6210510" lon="-3.7471680">
        <ele>986.2</ele>
        <time>2020-07-17T06:37:51Z</time>
      </trkpt>
      <trkpt lat="37.6210380" lon="-3.7472230">
        <ele>986.8</ele>
        <time>2020-07-17T06:37:53Z</time>
      </trkpt>
      <trkpt lat="37.6210190" lon="-3.7472780">
        <ele>987.2</ele>
        <time>2020-07-17T06:37:55Z</time>
      </trkpt>
      <trkpt lat="37.6209910" lon="-3.7473860">
        <ele>988.2</ele>
        <time>2020-07-17T06:37:59Z</time>
      </trkpt>
      <trkpt lat="37.6209670" lon="-3.7474630">
        <ele>989.0</ele>
        <time>2020-07-17T06:38:02Z</time>
      </trkpt>
      <trkpt lat="37.6209580" lon="-3.7474890">
        <ele>989.4</ele>
        <time>2020-07-17T06:38:03Z</time>
      </trkpt>
      <trkpt lat="37.6208950" lon="-3.7475940">
        <ele>990.4</ele>
        <time>2020-07-17T06:38:08Z</time>
      </trkpt>
      <trkpt lat="37.6208770" lon="-3.7476080">
        <ele>990.8</ele>
        <time>2020-07-17T06:38:09Z</time>
      </trkpt>
      <trkpt lat="37.6208210" lon="-3.7476460">
        <ele>991.4</ele>
        <time>2020-07-17T06:38:12Z</time>
      </trkpt>
      <trkpt lat="37.6207490" lon="-3.7476740">
        <ele>992.4</ele>
        <time>2020-07-17T06:38:16Z</time>
      </trkpt>
      <trkpt lat="37.6207310" lon="-3.7476800">
        <ele>992.8</ele>
        <time>2020-07-17T06:38:17Z</time>
      </trkpt>
      <trkpt lat="37.6206700" lon="-3.7476930">
        <ele>993.4</ele>
        <time>2020-07-17T06:38:20Z</time>
      </trkpt>
      <trkpt lat="37.6206510" lon="-3.7476970">
        <ele>993.6</ele>
        <time>2020-07-17T06:38:21Z</time>
      </trkpt>
      <trkpt lat="37.6205920" lon="-3.7477020">
        <ele>994.4</ele>
        <time>2020-07-17T06:38:24Z</time>
      </trkpt>
      <trkpt lat="37.6205730" lon="-3.7477060">
        <ele>994.6</ele>
        <time>2020-07-17T06:38:25Z</time>
      </trkpt>
      <trkpt lat="37.6204660" lon="-3.7477430">
        <ele>995.6</ele>
        <time>2020-07-17T06:38:30Z</time>
      </trkpt>
      <trkpt lat="37.6204210" lon="-3.7477500">
        <ele>996.2</ele>
        <time>2020-07-17T06:38:32Z</time>
      </trkpt>
      <trkpt lat="37.6203480" lon="-3.7477620">
        <ele>996.8</ele>
        <time>2020-07-17T06:38:35Z</time>
      </trkpt>
      <trkpt lat="37.6202270" lon="-3.7478340">
        <ele>997.4</ele>
        <time>2020-07-17T06:38:40Z</time>
      </trkpt>
      <trkpt lat="37.6201690" lon="-3.7479980">
        <ele>997.8</ele>
        <time>2020-07-17T06:38:45Z</time>
      </trkpt>
      <trkpt lat="37.6201720" lon="-3.7480310">
        <ele>997.8</ele>
        <time>2020-07-17T06:38:46Z</time>
      </trkpt>
      <trkpt lat="37.6202320" lon="-3.7481550">
        <ele>998.4</ele>
        <time>2020-07-17T06:38:50Z</time>
      </trkpt>
      <trkpt lat="37.6202780" lon="-3.7481960">
        <ele>998.8</ele>
        <time>2020-07-17T06:38:52Z</time>
      </trkpt>
      <trkpt lat="37.6204120" lon="-3.7482840">
        <ele>999.8</ele>
        <time>2020-07-17T06:38:57Z</time>
      </trkpt>
      <trkpt lat="37.6206250" lon="-3.7484340">
        <ele>1001.0</ele>
        <time>2020-07-17T06:39:05Z</time>
      </trkpt>
      <trkpt lat="37.6206520" lon="-3.7484540">
        <ele>1001.2</ele>
        <time>2020-07-17T06:39:06Z</time>
      </trkpt>
      <trkpt lat="37.6208710" lon="-3.7486430">
        <ele>1002.0</ele>
        <time>2020-07-17T06:39:14Z</time>
      </trkpt>
      <trkpt lat="37.6208880" lon="-3.7486750">
        <ele>1002.2</ele>
        <time>2020-07-17T06:39:15Z</time>
      </trkpt>
      <trkpt lat="37.6208940" lon="-3.7488190">
        <ele>1003.2</ele>
        <time>2020-07-17T06:39:19Z</time>
      </trkpt>
      <trkpt lat="37.6208770" lon="-3.7488490">
        <ele>1003.6</ele>
        <time>2020-07-17T06:39:20Z</time>
      </trkpt>
      <trkpt lat="37.6208430" lon="-3.7488950">
        <ele>1004.4</ele>
        <time>2020-07-17T06:39:23Z</time>
      </trkpt>
      <trkpt lat="37.6208240" lon="-3.7489020">
        <ele>1004.8</ele>
        <time>2020-07-17T06:39:24Z</time>
      </trkpt>
      <trkpt lat="37.6207740" lon="-3.7489070">
        <ele>1005.2</ele>
        <time>2020-07-17T06:39:26Z</time>
      </trkpt>
      <trkpt lat="37.6206920" lon="-3.7488950">
        <ele>1005.8</ele>
        <time>2020-07-17T06:39:29Z</time>
      </trkpt>
      <trkpt lat="37.6205910" lon="-3.7488690">
        <ele>1006.8</ele>
        <time>2020-07-17T06:39:33Z</time>
      </trkpt>
      <trkpt lat="37.6205670" lon="-3.7488610">
        <ele>1007.0</ele>
        <time>2020-07-17T06:39:34Z</time>
      </trkpt>
      <trkpt lat="37.6204510" lon="-3.7488210">
        <ele>1008.2</ele>
        <time>2020-07-17T06:39:39Z</time>
      </trkpt>
      <trkpt lat="37.6203570" lon="-3.7487910">
        <ele>1009.0</ele>
        <time>2020-07-17T06:39:43Z</time>
      </trkpt>
      <trkpt lat="37.6203340" lon="-3.7487810">
        <ele>1009.2</ele>
        <time>2020-07-17T06:39:44Z</time>
      </trkpt>
      <trkpt lat="37.6202690" lon="-3.7487580">
        <ele>1010.0</ele>
        <time>2020-07-17T06:39:47Z</time>
      </trkpt>
      <trkpt lat="37.6202230" lon="-3.7487460">
        <ele>1010.4</ele>
        <time>2020-07-17T06:39:49Z</time>
      </trkpt>
      <trkpt lat="37.6201290" lon="-3.7487150">
        <ele>1011.2</ele>
        <time>2020-07-17T06:39:53Z</time>
      </trkpt>
      <trkpt lat="37.6200770" lon="-3.7487030">
        <ele>1011.6</ele>
        <time>2020-07-17T06:39:55Z</time>
      </trkpt>
      <trkpt lat="37.6199080" lon="-3.7486610">
        <ele>1012.8</ele>
        <time>2020-07-17T06:40:01Z</time>
      </trkpt>
      <trkpt lat="37.6197780" lon="-3.7486000">
        <ele>1013.8</ele>
        <time>2020-07-17T06:40:06Z</time>
      </trkpt>
      <trkpt lat="37.6196750" lon="-3.7485480">
        <ele>1014.6</ele>
        <time>2020-07-17T06:40:10Z</time>
      </trkpt>
      <trkpt lat="37.6196510" lon="-3.7485340">
        <ele>1015.0</ele>
        <time>2020-07-17T06:40:11Z</time>
      </trkpt>
      <trkpt lat="37.6195440" lon="-3.7484910">
        <ele>1016.0</ele>
        <time>2020-07-17T06:40:15Z</time>
      </trkpt>
      <trkpt lat="37.6194680" lon="-3.7484510">
        <ele>1016.6</ele>
        <time>2020-07-17T06:40:18Z</time>
      </trkpt>
      <trkpt lat="37.6193990" lon="-3.7484060">
        <ele>1017.2</ele>
        <time>2020-07-17T06:40:21Z</time>
      </trkpt>
      <trkpt lat="37.6193330" lon="-3.7483520">
        <ele>1018.0</ele>
        <time>2020-07-17T06:40:24Z</time>
      </trkpt>
      <trkpt lat="37.6193110" lon="-3.7483330">
        <ele>1018.4</ele>
        <time>2020-07-17T06:40:25Z</time>
      </trkpt>
      <trkpt lat="37.6191960" lon="-3.7482430">
        <ele>1019.2</ele>
        <time>2020-07-17T06:40:30Z</time>
      </trkpt>
      <trkpt lat="37.6191740" lon="-3.7482260">
        <ele>1019.4</ele>
        <time>2020-07-17T06:40:31Z</time>
      </trkpt>
      <trkpt lat="37.6191250" lon="-3.7481790">
        <ele>1019.8</ele>
        <time>2020-07-17T06:40:33Z</time>
      </trkpt>
      <trkpt lat="37.6190390" lon="-3.7480730">
        <ele>1020.4</ele>
        <time>2020-07-17T06:40:37Z</time>
      </trkpt>
      <trkpt lat="37.6189840" lon="-3.7479620">
        <ele>1020.8</ele>
        <time>2020-07-17T06:40:40Z</time>
      </trkpt>
      <trkpt lat="37.6189130" lon="-3.7476860">
        <ele>1021.2</ele>
        <time>2020-07-17T06:40:46Z</time>
      </trkpt>
      <trkpt lat="37.6188940" lon="-3.7475980">
        <ele>1021.4</ele>
        <time>2020-07-17T06:40:48Z</time>
      </trkpt>
      <trkpt lat="37.6188830" lon="-3.7475590">
        <ele>1021.6</ele>
        <time>2020-07-17T06:40:49Z</time>
      </trkpt>
      <trkpt lat="37.6188400" lon="-3.7474450">
        <ele>1022.4</ele>
        <time>2020-07-17T06:40:52Z</time>
      </trkpt>
      <trkpt lat="37.6188270" lon="-3.7474050">
        <ele>1022.6</ele>
        <time>2020-07-17T06:40:53Z</time>
      </trkpt>
      <trkpt lat="37.6187730" lon="-3.7472720">
        <ele>1024.0</ele>
        <time>2020-07-17T06:40:57Z</time>
      </trkpt>
      <trkpt lat="37.6187550" lon="-3.7471530">
        <ele>1025.0</ele>
        <time>2020-07-17T06:41:01Z</time>
      </trkpt>
      <trkpt lat="37.6187550" lon="-3.7471240">
        <ele>1025.4</ele>
        <time>2020-07-17T06:41:02Z</time>
      </trkpt>
      <trkpt lat="37.6187570" lon="-3.7470420">
        <ele>1026.2</ele>
        <time>2020-07-17T06:41:05Z</time>
      </trkpt>
      <trkpt lat="37.6187570" lon="-3.7469880">
        <ele>1027.0</ele>
        <time>2020-07-17T06:41:07Z</time>
      </trkpt>
      <trkpt lat="37.6187580" lon="-3.7469220">
        <ele>1027.6</ele>
        <time>2020-07-17T06:41:09Z</time>
      </trkpt>
      <trkpt lat="37.6187960" lon="-3.7467920">
        <ele>1028.8</ele>
        <time>2020-07-17T06:41:14Z</time>
      </trkpt>
      <trkpt lat="37.6188070" lon="-3.7467660">
        <ele>1029.2</ele>
        <time>2020-07-17T06:41:15Z</time>
      </trkpt>
      <trkpt lat="37.6188400" lon="-3.7466900">
        <ele>1030.2</ele>
        <time>2020-07-17T06:41:18Z</time>
      </trkpt>
      <trkpt lat="37.6188810" lon="-3.7465640">
        <ele>1031.2</ele>
        <time>2020-07-17T06:41:23Z</time>
      </trkpt>
      <trkpt lat="37.6189200" lon="-3.7464350">
        <ele>1032.6</ele>
        <time>2020-07-17T06:41:28Z</time>
      </trkpt>
      <trkpt lat="37.6189460" lon="-3.7463570">
        <ele>1033.4</ele>
        <time>2020-07-17T06:41:31Z</time>
      </trkpt>
      <trkpt lat="37.6189550" lon="-3.7463290">
        <ele>1033.6</ele>
        <time>2020-07-17T06:41:32Z</time>
      </trkpt>
      <trkpt lat="37.6189790" lon="-3.7461570">
        <ele>1034.8</ele>
        <time>2020-07-17T06:41:38Z</time>
      </trkpt>
      <trkpt lat="37.6189850" lon="-3.7460980">
        <ele>1035.0</ele>
        <time>2020-07-17T06:41:40Z</time>
      </trkpt>
      <trkpt lat="37.6189890" lon="-3.7459740">
        <ele>1035.8</ele>
        <time>2020-07-17T06:41:44Z</time>
      </trkpt>
      <trkpt lat="37.6189630" lon="-3.7458040">
        <ele>1036.8</ele>
        <time>2020-07-17T06:41:49Z</time>
      </trkpt>
      <trkpt lat="37.6189540" lon="-3.7457670">
        <ele>1037.0</ele>
        <time>2020-07-17T06:41:50Z</time>
      </trkpt>
      <trkpt lat="37.6188650" lon="-3.7454500">
        <ele>1037.8</ele>
        <time>2020-07-17T06:41:58Z</time>
      </trkpt>
      <trkpt lat="37.6188270" lon="-3.7453200">
        <ele>1038.0</ele>
        <time>2020-07-17T06:42:01Z</time>
      </trkpt>
      <trkpt lat="37.6187130" lon="-3.7451290">
        <ele>1038.6</ele>
        <time>2020-07-17T06:42:06Z</time>
      </trkpt>
      <trkpt lat="37.6186370" lon="-3.7450790">
        <ele>1039.0</ele>
        <time>2020-07-17T06:42:08Z</time>
      </trkpt>
      <trkpt lat="37.6184250" lon="-3.7449240">
        <ele>1039.8</ele>
        <time>2020-07-17T06:42:14Z</time>
      </trkpt>
      <trkpt lat="37.6183710" lon="-3.7448660">
        <ele>1040.0</ele>
        <time>2020-07-17T06:42:16Z</time>
      </trkpt>
      <trkpt lat="37.6182850" lon="-3.7447450">
        <ele>1040.8</ele>
        <time>2020-07-17T06:42:20Z</time>
      </trkpt>
      <trkpt lat="37.6182560" lon="-3.7447020">
        <ele>1041.2</ele>
        <time>2020-07-17T06:42:22Z</time>
      </trkpt>
      <trkpt lat="37.6181560" lon="-3.7446130">
        <ele>1042.4</ele>
        <time>2020-07-17T06:42:26Z</time>
      </trkpt>
      <trkpt lat="37.6180750" lon="-3.7445480">
        <ele>1043.2</ele>
        <time>2020-07-17T06:42:30Z</time>
      </trkpt>
      <trkpt lat="37.6180300" lon="-3.7445150">
        <ele>1043.8</ele>
        <time>2020-07-17T06:42:32Z</time>
      </trkpt>
      <trkpt lat="37.6179470" lon="-3.7444800">
        <ele>1044.6</ele>
        <time>2020-07-17T06:42:35Z</time>
      </trkpt>
      <trkpt lat="37.6179200" lon="-3.7444730">
        <ele>1044.8</ele>
        <time>2020-07-17T06:42:36Z</time>
      </trkpt>
      <trkpt lat="37.6177840" lon="-3.7444530">
        <ele>1045.8</ele>
        <time>2020-07-17T06:42:41Z</time>
      </trkpt>
      <trkpt lat="37.6176490" lon="-3.7444580">
        <ele>1046.8</ele>
        <time>2020-07-17T06:42:46Z</time>
      </trkpt>
      <trkpt lat="37.6175940" lon="-3.7444670">
        <ele>1047.4</ele>
        <time>2020-07-17T06:42:48Z</time>
      </trkpt>
      <trkpt lat="37.6175070" lon="-3.7444830">
        <ele>1048.0</ele>
        <time>2020-07-17T06:42:51Z</time>
      </trkpt>
      <trkpt lat="37.6174090" lon="-3.7445090">
        <ele>1048.6</ele>
        <time>2020-07-17T06:42:55Z</time>
      </trkpt>
      <trkpt lat="37.6173720" lon="-3.7445200">
        <ele>1049.0</ele>
        <time>2020-07-17T06:42:57Z</time>
      </trkpt>
      <trkpt lat="37.6172470" lon="-3.7445420">
        <ele>1049.8</ele>
        <time>2020-07-17T06:43:02Z</time>
      </trkpt>
      <trkpt lat="37.6172180" lon="-3.7445460">
        <ele>1050.0</ele>
        <time>2020-07-17T06:43:03Z</time>
      </trkpt>
      <trkpt lat="37.6170720" lon="-3.7445350">
        <ele>1051.2</ele>
        <time>2020-07-17T06:43:08Z</time>
      </trkpt>
      <trkpt lat="37.6170430" lon="-3.7445280">
        <ele>1051.6</ele>
        <time>2020-07-17T06:43:09Z</time>
      </trkpt>
      <trkpt lat="37.6169680" lon="-3.7444930">
        <ele>1052.4</ele>
        <time>2020-07-17T06:43:12Z</time>
      </trkpt>
      <trkpt lat="37.6168980" lon="-3.7444440">
        <ele>1053.2</ele>
        <time>2020-07-17T06:43:15Z</time>
      </trkpt>
      <trkpt lat="37.6168760" lon="-3.7444260">
        <ele>1053.6</ele>
        <time>2020-07-17T06:43:16Z</time>
      </trkpt>
      <trkpt lat="37.6168190" lon="-3.7443490">
        <ele>1054.2</ele>
        <time>2020-07-17T06:43:19Z</time>
      </trkpt>
      <trkpt lat="37.6167850" lon="-3.7442960">
        <ele>1054.8</ele>
        <time>2020-07-17T06:43:21Z</time>
      </trkpt>
      <trkpt lat="37.6166950" lon="-3.7441290">
        <ele>1055.8</ele>
        <time>2020-07-17T06:43:27Z</time>
      </trkpt>
      <trkpt lat="37.6166250" lon="-3.7439900">
        <ele>1056.8</ele>
        <time>2020-07-17T06:43:32Z</time>
      </trkpt>
      <trkpt lat="37.6165140" lon="-3.7438340">
        <ele>1057.8</ele>
        <time>2020-07-17T06:43:38Z</time>
      </trkpt>
      <trkpt lat="37.6164980" lon="-3.7438060">
        <ele>1058.0</ele>
        <time>2020-07-17T06:43:39Z</time>
      </trkpt>
      <trkpt lat="37.6164090" lon="-3.7436350">
        <ele>1059.2</ele>
        <time>2020-07-17T06:43:45Z</time>
      </trkpt>
      <trkpt lat="37.6163770" lon="-3.7435760">
        <ele>1059.4</ele>
        <time>2020-07-17T06:43:47Z</time>
      </trkpt>
      <trkpt lat="37.6163330" lon="-3.7434600">
        <ele>1060.2</ele>
        <time>2020-07-17T06:43:51Z</time>
      </trkpt>
      <trkpt lat="37.6163110" lon="-3.7434080">
        <ele>1060.8</ele>
        <time>2020-07-17T06:43:53Z</time>
      </trkpt>
      <trkpt lat="37.6162670" lon="-3.7433360">
        <ele>1061.4</ele>
        <time>2020-07-17T06:43:56Z</time>
      </trkpt>
      <trkpt lat="37.6162350" lon="-3.7432950">
        <ele>1062.0</ele>
        <time>2020-07-17T06:43:58Z</time>
      </trkpt>
      <trkpt lat="37.6162130" lon="-3.7432840">
        <ele>1062.2</ele>
        <time>2020-07-17T06:43:59Z</time>
      </trkpt>
      <trkpt lat="37.6161660" lon="-3.7432710">
        <ele>1062.8</ele>
        <time>2020-07-17T06:44:01Z</time>
      </trkpt>
      <trkpt lat="37.6161410" lon="-3.7432700">
        <ele>1063.0</ele>
        <time>2020-07-17T06:44:02Z</time>
      </trkpt>
      <trkpt lat="37.6160930" lon="-3.7432920">
        <ele>1063.4</ele>
        <time>2020-07-17T06:44:04Z</time>
      </trkpt>
      <trkpt lat="37.6160340" lon="-3.7433550">
        <ele>1063.8</ele>
        <time>2020-07-17T06:44:07Z</time>
      </trkpt>
      <trkpt lat="37.6160060" lon="-3.7434130">
        <ele>1064.2</ele>
        <time>2020-07-17T06:44:09Z</time>
      </trkpt>
      <trkpt lat="37.6159920" lon="-3.7435280">
        <ele>1065.0</ele>
        <time>2020-07-17T06:44:12Z</time>
      </trkpt>
      <trkpt lat="37.6159910" lon="-3.7435670">
        <ele>1065.2</ele>
        <time>2020-07-17T06:44:13Z</time>
      </trkpt>
      <trkpt lat="37.6160290" lon="-3.7437570">
        <ele>1066.2</ele>
        <time>2020-07-17T06:44:18Z</time>
      </trkpt>
      <trkpt lat="37.6160890" lon="-3.7439000">
        <ele>1066.8</ele>
        <time>2020-07-17T06:44:22Z</time>
      </trkpt>
      <trkpt lat="37.6161210" lon="-3.7439700">
        <ele>1067.2</ele>
        <time>2020-07-17T06:44:24Z</time>
      </trkpt>
      <trkpt lat="37.6161400" lon="-3.7440060">
        <ele>1067.4</ele>
        <time>2020-07-17T06:44:25Z</time>
      </trkpt>
      <trkpt lat="37.6161940" lon="-3.7441940">
        <ele>1068.4</ele>
        <time>2020-07-17T06:44:30Z</time>
      </trkpt>
      <trkpt lat="37.6162040" lon="-3.7442310">
        <ele>1068.6</ele>
        <time>2020-07-17T06:44:31Z</time>
      </trkpt>
      <trkpt lat="37.6162050" lon="-3.7442610">
        <ele>1069.0</ele>
        <time>2020-07-17T06:44:32Z</time>
      </trkpt>
      <trkpt lat="37.6161970" lon="-3.7443320">
        <ele>1069.6</ele>
        <time>2020-07-17T06:44:34Z</time>
      </trkpt>
      <trkpt lat="37.6161930" lon="-3.7443680">
        <ele>1070.0</ele>
        <time>2020-07-17T06:44:35Z</time>
      </trkpt>
      <trkpt lat="37.6161690" lon="-3.7444690">
        <ele>1070.8</ele>
        <time>2020-07-17T06:44:38Z</time>
      </trkpt>
      <trkpt lat="37.6161330" lon="-3.7445670">
        <ele>1071.4</ele>
        <time>2020-07-17T06:44:41Z</time>
      </trkpt>
      <trkpt lat="37.6161050" lon="-3.7446740">
        <ele>1072.0</ele>
        <time>2020-07-17T06:44:44Z</time>
      </trkpt>
      <trkpt lat="37.6160770" lon="-3.7447820">
        <ele>1072.6</ele>
        <time>2020-07-17T06:44:47Z</time>
      </trkpt>
      <trkpt lat="37.6160580" lon="-3.7448440">
        <ele>1073.0</ele>
        <time>2020-07-17T06:44:49Z</time>
      </trkpt>
      <trkpt lat="37.6160330" lon="-3.7449590">
        <ele>1073.4</ele>
        <time>2020-07-17T06:44:52Z</time>
      </trkpt>
      <trkpt lat="37.6160240" lon="-3.7450020">
        <ele>1073.6</ele>
        <time>2020-07-17T06:44:53Z</time>
      </trkpt>
      <trkpt lat="37.6160060" lon="-3.7451630">
        <ele>1074.2</ele>
        <time>2020-07-17T06:44:57Z</time>
      </trkpt>
      <trkpt lat="37.6160080" lon="-3.7452430">
        <ele>1074.6</ele>
        <time>2020-07-17T06:44:59Z</time>
      </trkpt>
      <trkpt lat="37.6160380" lon="-3.7454280">
        <ele>1075.4</ele>
        <time>2020-07-17T06:45:04Z</time>
      </trkpt>
      <trkpt lat="37.6160610" lon="-3.7454930">
        <ele>1076.0</ele>
        <time>2020-07-17T06:45:06Z</time>
      </trkpt>
      <trkpt lat="37.6160990" lon="-3.7455560">
        <ele>1076.4</ele>
        <time>2020-07-17T06:45:08Z</time>
      </trkpt>
      <trkpt lat="37.6161500" lon="-3.7456460">
        <ele>1077.2</ele>
        <time>2020-07-17T06:45:11Z</time>
      </trkpt>
      <trkpt lat="37.6161860" lon="-3.7457070">
        <ele>1077.6</ele>
        <time>2020-07-17T06:45:13Z</time>
      </trkpt>
      <trkpt lat="37.6162540" lon="-3.7458520">
        <ele>1078.8</ele>
        <time>2020-07-17T06:45:18Z</time>
      </trkpt>
      <trkpt lat="37.6162860" lon="-3.7460110">
        <ele>1080.0</ele>
        <time>2020-07-17T06:45:23Z</time>
      </trkpt>
      <trkpt lat="37.6162880" lon="-3.7461930">
        <ele>1081.2</ele>
        <time>2020-07-17T06:45:28Z</time>
      </trkpt>
      <trkpt lat="37.6162870" lon="-3.7462300">
        <ele>1081.4</ele>
        <time>2020-07-17T06:45:29Z</time>
      </trkpt>
      <trkpt lat="37.6162840" lon="-3.7464030">
        <ele>1082.4</ele>
        <time>2020-07-17T06:45:34Z</time>
      </trkpt>
      <trkpt lat="37.6162880" lon="-3.7465130">
        <ele>1083.0</ele>
        <time>2020-07-17T06:45:37Z</time>
      </trkpt>
      <trkpt lat="37.6162890" lon="-3.7465820">
        <ele>1083.4</ele>
        <time>2020-07-17T06:45:39Z</time>
      </trkpt>
      <trkpt lat="37.6162730" lon="-3.7467520">
        <ele>1084.8</ele>
        <time>2020-07-17T06:45:44Z</time>
      </trkpt>
      <trkpt lat="37.6162670" lon="-3.7467840">
        <ele>1085.0</ele>
        <time>2020-07-17T06:45:45Z</time>
      </trkpt>
      <trkpt lat="37.6162340" lon="-3.7469560">
        <ele>1085.8</ele>
        <time>2020-07-17T06:45:50Z</time>
      </trkpt>
      <trkpt lat="37.6162050" lon="-3.7470520">
        <ele>1086.2</ele>
        <time>2020-07-17T06:45:53Z</time>
      </trkpt>
      <trkpt lat="37.6161050" lon="-3.7472150">
        <ele>1086.8</ele>
        <time>2020-07-17T06:45:58Z</time>
      </trkpt>
      <trkpt lat="37.6160840" lon="-3.7472490">
        <ele>1086.8</ele>
        <time>2020-07-17T06:45:59Z</time>
      </trkpt>
      <trkpt lat="37.6160020" lon="-3.7473780">
        <ele>1087.4</ele>
        <time>2020-07-17T06:46:03Z</time>
      </trkpt>
      <trkpt lat="37.6159470" lon="-3.7474780">
        <ele>1087.8</ele>
        <time>2020-07-17T06:46:06Z</time>
      </trkpt>
      <trkpt lat="37.6158950" lon="-3.7475960">
        <ele>1088.2</ele>
        <time>2020-07-17T06:46:09Z</time>
      </trkpt>
      <trkpt lat="37.6157960" lon="-3.7478270">
        <ele>1088.8</ele>
        <time>2020-07-17T06:46:15Z</time>
      </trkpt>
      <trkpt lat="37.6157640" lon="-3.7479050">
        <ele>1089.2</ele>
        <time>2020-07-17T06:46:17Z</time>
      </trkpt>
      <trkpt lat="37.6156970" lon="-3.7481420">
        <ele>1089.8</ele>
        <time>2020-07-17T06:46:23Z</time>
      </trkpt>
      <trkpt lat="37.6156830" lon="-3.7481710">
        <ele>1090.0</ele>
        <time>2020-07-17T06:46:24Z</time>
      </trkpt>
      <trkpt lat="37.6156620" lon="-3.7482360">
        <ele>1090.4</ele>
        <time>2020-07-17T06:46:26Z</time>
      </trkpt>
      <trkpt lat="37.6156310" lon="-3.7482970">
        <ele>1091.0</ele>
        <time>2020-07-17T06:46:28Z</time>
      </trkpt>
      <trkpt lat="37.6155490" lon="-3.7484460">
        <ele>1092.2</ele>
        <time>2020-07-17T06:46:33Z</time>
      </trkpt>
      <trkpt lat="37.6155380" lon="-3.7484680">
        <ele>1092.4</ele>
        <time>2020-07-17T06:46:34Z</time>
      </trkpt>
      <trkpt lat="37.6155280" lon="-3.7484900">
        <ele>1092.6</ele>
        <time>2020-07-17T06:46:35Z</time>
      </trkpt>
      <trkpt lat="37.6155150" lon="-3.7485060">
        <ele>1093.0</ele>
        <time>2020-07-17T06:46:36Z</time>
      </trkpt>
      <trkpt lat="37.6155010" lon="-3.7485220">
        <ele>1093.2</ele>
        <time>2020-07-17T06:46:37Z</time>
      </trkpt>
      <trkpt lat="37.6154880" lon="-3.7485340">
        <ele>1093.4</ele>
        <time>2020-07-17T06:46:38Z</time>
      </trkpt>
      <trkpt lat="37.6154500" lon="-3.7485720">
        <ele>1094.2</ele>
        <time>2020-07-17T06:46:41Z</time>
      </trkpt>
      <trkpt lat="37.6154180" lon="-3.7486060">
        <ele>1094.6</ele>
        <time>2020-07-17T06:46:43Z</time>
      </trkpt>
      <trkpt lat="37.6153560" lon="-3.7486660">
        <ele>1095.2</ele>
        <time>2020-07-17T06:46:46Z</time>
      </trkpt>
      <trkpt lat="37.6153120" lon="-3.7487270">
        <ele>1095.8</ele>
        <time>2020-07-17T06:46:48Z</time>
      </trkpt>
      <trkpt lat="37.6152740" lon="-3.7488230">
        <ele>1096.4</ele>
        <time>2020-07-17T06:46:51Z</time>
      </trkpt>
      <trkpt lat="37.6152530" lon="-3.7488910">
        <ele>1096.8</ele>
        <time>2020-07-17T06:46:53Z</time>
      </trkpt>
      <trkpt lat="37.6152050" lon="-3.7489840">
        <ele>1097.6</ele>
        <time>2020-07-17T06:46:56Z</time>
      </trkpt>
      <trkpt lat="37.6151790" lon="-3.7490540">
        <ele>1098.0</ele>
        <time>2020-07-17T06:46:58Z</time>
      </trkpt>
      <trkpt lat="37.6151590" lon="-3.7491580">
        <ele>1098.6</ele>
        <time>2020-07-17T06:47:01Z</time>
      </trkpt>
      <trkpt lat="37.6151310" lon="-3.7492700">
        <ele>1099.2</ele>
        <time>2020-07-17T06:47:04Z</time>
      </trkpt>
      <trkpt lat="37.6151260" lon="-3.7494510">
        <ele>1099.8</ele>
        <time>2020-07-17T06:47:09Z</time>
      </trkpt>
      <trkpt lat="37.6151230" lon="-3.7495210">
        <ele>1100.2</ele>
        <time>2020-07-17T06:47:11Z</time>
      </trkpt>
      <trkpt lat="37.6151420" lon="-3.7496610">
        <ele>1101.4</ele>
        <time>2020-07-17T06:47:15Z</time>
      </trkpt>
      <trkpt lat="37.6151480" lon="-3.7496900">
        <ele>1101.6</ele>
        <time>2020-07-17T06:47:16Z</time>
      </trkpt>
      <trkpt lat="37.6151800" lon="-3.7498670">
        <ele>1102.4</ele>
        <time>2020-07-17T06:47:21Z</time>
      </trkpt>
      <trkpt lat="37.6151950" lon="-3.7499400">
        <ele>1102.8</ele>
        <time>2020-07-17T06:47:23Z</time>
      </trkpt>
      <trkpt lat="37.6152160" lon="-3.7500850">
        <ele>1103.6</ele>
        <time>2020-07-17T06:47:27Z</time>
      </trkpt>
      <trkpt lat="37.6152430" lon="-3.7502580">
        <ele>1104.6</ele>
        <time>2020-07-17T06:47:32Z</time>
      </trkpt>
      <trkpt lat="37.6152460" lon="-3.7502920">
        <ele>1105.0</ele>
        <time>2020-07-17T06:47:33Z</time>
      </trkpt>
      <trkpt lat="37.6152850" lon="-3.7504500">
        <ele>1106.0</ele>
        <time>2020-07-17T06:47:38Z</time>
      </trkpt>
      <trkpt lat="37.6152900" lon="-3.7504810">
        <ele>1106.2</ele>
        <time>2020-07-17T06:47:39Z</time>
      </trkpt>
      <trkpt lat="37.6153090" lon="-3.7505650">
        <ele>1106.8</ele>
        <time>2020-07-17T06:47:42Z</time>
      </trkpt>
      <trkpt lat="37.6153120" lon="-3.7505900">
        <ele>1107.0</ele>
        <time>2020-07-17T06:47:43Z</time>
      </trkpt>
      <trkpt lat="37.6153260" lon="-3.7506390">
        <ele>1107.6</ele>
        <time>2020-07-17T06:47:45Z</time>
      </trkpt>
      <trkpt lat="37.6153520" lon="-3.7507140">
        <ele>1108.2</ele>
        <time>2020-07-17T06:47:48Z</time>
      </trkpt>
      <trkpt lat="37.6154040" lon="-3.7508110">
        <ele>1109.0</ele>
        <time>2020-07-17T06:47:52Z</time>
      </trkpt>
      <trkpt lat="37.6154150" lon="-3.7508370">
        <ele>1109.2</ele>
        <time>2020-07-17T06:47:53Z</time>
      </trkpt>
      <trkpt lat="37.6154630" lon="-3.7509130">
        <ele>1109.8</ele>
        <time>2020-07-17T06:47:56Z</time>
      </trkpt>
      <trkpt lat="37.6155040" lon="-3.7509870">
        <ele>1110.4</ele>
        <time>2020-07-17T06:47:59Z</time>
      </trkpt>
      <trkpt lat="37.6155470" lon="-3.7510310">
        <ele>1111.0</ele>
        <time>2020-07-17T06:48:01Z</time>
      </trkpt>
      <trkpt lat="37.6156070" lon="-3.7510960">
        <ele>1111.6</ele>
        <time>2020-07-17T06:48:04Z</time>
      </trkpt>
      <trkpt lat="37.6156700" lon="-3.7511740">
        <ele>1112.4</ele>
        <time>2020-07-17T06:48:08Z</time>
      </trkpt>
      <trkpt lat="37.6156780" lon="-3.7511960">
        <ele>1112.6</ele>
        <time>2020-07-17T06:48:09Z</time>
      </trkpt>
      <trkpt lat="37.6157520" lon="-3.7512750">
        <ele>1113.6</ele>
        <time>2020-07-17T06:48:13Z</time>
      </trkpt>
      <trkpt lat="37.6158020" lon="-3.7513670">
        <ele>1114.6</ele>
        <time>2020-07-17T06:48:17Z</time>
      </trkpt>
      <trkpt lat="37.6158240" lon="-3.7513900">
        <ele>1114.8</ele>
        <time>2020-07-17T06:48:18Z</time>
      </trkpt>
      <trkpt lat="37.6160060" lon="-3.7515110">
        <ele>1115.8</ele>
        <time>2020-07-17T06:48:24Z</time>
      </trkpt>
      <trkpt lat="37.6160290" lon="-3.7515300">
        <ele>1116.0</ele>
        <time>2020-07-17T06:48:25Z</time>
      </trkpt>
      <trkpt lat="37.6161110" lon="-3.7516040">
        <ele>1116.8</ele>
        <time>2020-07-17T06:48:29Z</time>
      </trkpt>
      <trkpt lat="37.6161450" lon="-3.7516430">
        <ele>1117.0</ele>
        <time>2020-07-17T06:48:31Z</time>
      </trkpt>
      <trkpt lat="37.6162010" lon="-3.7517300">
        <ele>1118.0</ele>
        <time>2020-07-17T06:48:35Z</time>
      </trkpt>
      <trkpt lat="37.6162600" lon="-3.7518170">
        <ele>1119.0</ele>
        <time>2020-07-17T06:48:39Z</time>
      </trkpt>
      <trkpt lat="37.6163390" lon="-3.7519240">
        <ele>1120.2</ele>
        <time>2020-07-17T06:48:44Z</time>
      </trkpt>
      <trkpt lat="37.6163920" lon="-3.7520150">
        <ele>1121.4</ele>
        <time>2020-07-17T06:48:48Z</time>
      </trkpt>
      <trkpt lat="37.6164020" lon="-3.7520400">
        <ele>1121.6</ele>
        <time>2020-07-17T06:48:49Z</time>
      </trkpt>
      <trkpt lat="37.6164120" lon="-3.7521220">
        <ele>1122.4</ele>
        <time>2020-07-17T06:48:52Z</time>
      </trkpt>
      <trkpt lat="37.6164060" lon="-3.7522120">
        <ele>1123.0</ele>
        <time>2020-07-17T06:48:55Z</time>
      </trkpt>
      <trkpt lat="37.6163920" lon="-3.7522700">
        <ele>1123.6</ele>
        <time>2020-07-17T06:48:57Z</time>
      </trkpt>
      <trkpt lat="37.6163420" lon="-3.7524180">
        <ele>1124.4</ele>
        <time>2020-07-17T06:49:02Z</time>
      </trkpt>
      <trkpt lat="37.6163310" lon="-3.7524490">
        <ele>1124.6</ele>
        <time>2020-07-17T06:49:03Z</time>
      </trkpt>
      <trkpt lat="37.6162560" lon="-3.7526570">
        <ele>1125.6</ele>
        <time>2020-07-17T06:49:10Z</time>
      </trkpt>
      <trkpt lat="37.6162470" lon="-3.7526870">
        <ele>1125.8</ele>
        <time>2020-07-17T06:49:11Z</time>
      </trkpt>
      <trkpt lat="37.6162200" lon="-3.7528390">
        <ele>1126.8</ele>
        <time>2020-07-17T06:49:16Z</time>
      </trkpt>
      <trkpt lat="37.6162060" lon="-3.7529040">
        <ele>1127.2</ele>
        <time>2020-07-17T06:49:18Z</time>
      </trkpt>
      <trkpt lat="37.6161670" lon="-3.7530550">
        <ele>1128.0</ele>
        <time>2020-07-17T06:49:23Z</time>
      </trkpt>
      <trkpt lat="37.6161600" lon="-3.7530850">
        <ele>1128.2</ele>
        <time>2020-07-17T06:49:24Z</time>
      </trkpt>
      <trkpt lat="37.6161340" lon="-3.7531820">
        <ele>1129.0</ele>
        <time>2020-07-17T06:49:27Z</time>
      </trkpt>
      <trkpt lat="37.6160910" lon="-3.7533670">
        <ele>1129.8</ele>
        <time>2020-07-17T06:49:33Z</time>
      </trkpt>
      <trkpt lat="37.6160850" lon="-3.7533980">
        <ele>1130.0</ele>
        <time>2020-07-17T06:49:34Z</time>
      </trkpt>
      <trkpt lat="37.6160730" lon="-3.7534960">
        <ele>1130.6</ele>
        <time>2020-07-17T06:49:37Z</time>
      </trkpt>
      <trkpt lat="37.6160660" lon="-3.7535580">
        <ele>1131.2</ele>
        <time>2020-07-17T06:49:39Z</time>
      </trkpt>
      <trkpt lat="37.6160590" lon="-3.7535860">
        <ele>1131.2</ele>
        <time>2020-07-17T06:49:40Z</time>
      </trkpt>
      <trkpt lat="37.6160250" lon="-3.7537130">
        <ele>1132.4</ele>
        <time>2020-07-17T06:49:45Z</time>
      </trkpt>
      <trkpt lat="37.6160170" lon="-3.7537370">
        <ele>1132.6</ele>
        <time>2020-07-17T06:49:46Z</time>
      </trkpt>
      <trkpt lat="37.6159960" lon="-3.7538450">
        <ele>1133.6</ele>
        <time>2020-07-17T06:49:50Z</time>
      </trkpt>
      <trkpt lat="37.6159600" lon="-3.7539560">
        <ele>1134.8</ele>
        <time>2020-07-17T06:49:55Z</time>
      </trkpt>
      <trkpt lat="37.6159070" lon="-3.7541100">
        <ele>1135.8</ele>
        <time>2020-07-17T06:50:00Z</time>
      </trkpt>
      <trkpt lat="37.6159100" lon="-3.7541190">
        <ele>1135.8</ele>
        <time>2020-07-17T06:50:01Z</time>
      </trkpt>
      <trkpt lat="37.6158960" lon="-3.7542460">
        <ele>1136.4</ele>
        <time>2020-07-17T06:50:04Z</time>
      </trkpt>
      <trkpt lat="37.6158950" lon="-3.7542880">
        <ele>1136.8</ele>
        <time>2020-07-17T06:50:05Z</time>
      </trkpt>
      <trkpt lat="37.6159050" lon="-3.7543990">
        <ele>1137.8</ele>
        <time>2020-07-17T06:50:08Z</time>
      </trkpt>
      <trkpt lat="37.6159830" lon="-3.7546650">
        <ele>1139.0</ele>
        <time>2020-07-17T06:50:16Z</time>
      </trkpt>
      <trkpt lat="37.6160030" lon="-3.7546970">
        <ele>1139.2</ele>
        <time>2020-07-17T06:50:17Z</time>
      </trkpt>
      <trkpt lat="37.6160800" lon="-3.7548330">
        <ele>1140.2</ele>
        <time>2020-07-17T06:50:22Z</time>
      </trkpt>
      <trkpt lat="37.6161220" lon="-3.7549120">
        <ele>1141.0</ele>
        <time>2020-07-17T06:50:25Z</time>
      </trkpt>
      <trkpt lat="37.6161260" lon="-3.7549350">
        <ele>1141.2</ele>
        <time>2020-07-17T06:50:26Z</time>
      </trkpt>
      <trkpt lat="37.6161500" lon="-3.7550080">
        <ele>1142.0</ele>
        <time>2020-07-17T06:50:29Z</time>
      </trkpt>
      <trkpt lat="37.6161720" lon="-3.7550580">
        <ele>1142.4</ele>
        <time>2020-07-17T06:50:31Z</time>
      </trkpt>
      <trkpt lat="37.6161840" lon="-3.7550850">
        <ele>1142.8</ele>
        <time>2020-07-17T06:50:32Z</time>
      </trkpt>
      <trkpt lat="37.6162190" lon="-3.7551600">
        <ele>1143.6</ele>
        <time>2020-07-17T06:50:35Z</time>
      </trkpt>
      <trkpt lat="37.6162290" lon="-3.7551850">
        <ele>1143.8</ele>
        <time>2020-07-17T06:50:36Z</time>
      </trkpt>
      <trkpt lat="37.6162600" lon="-3.7552770">
        <ele>1144.6</ele>
        <time>2020-07-17T06:50:39Z</time>
      </trkpt>
      <trkpt lat="37.6163200" lon="-3.7555010">
        <ele>1145.6</ele>
        <time>2020-07-17T06:50:46Z</time>
      </trkpt>
      <trkpt lat="37.6163930" lon="-3.7557820">
        <ele>1146.4</ele>
        <time>2020-07-17T06:50:53Z</time>
      </trkpt>
      <trkpt lat="37.6164250" lon="-3.7558470">
        <ele>1146.6</ele>
        <time>2020-07-17T06:50:55Z</time>
      </trkpt>
      <trkpt lat="37.6164440" lon="-3.7558720">
        <ele>1146.8</ele>
        <time>2020-07-17T06:50:56Z</time>
      </trkpt>
      <trkpt lat="37.6164890" lon="-3.7559260">
        <ele>1147.2</ele>
        <time>2020-07-17T06:50:58Z</time>
      </trkpt>
      <trkpt lat="37.6165750" lon="-3.7560340">
        <ele>1147.8</ele>
        <time>2020-07-17T06:51:02Z</time>
      </trkpt>
      <trkpt lat="37.6166180" lon="-3.7560820">
        <ele>1148.2</ele>
        <time>2020-07-17T06:51:04Z</time>
      </trkpt>
      <trkpt lat="37.6167140" lon="-3.7562000">
        <ele>1149.0</ele>
        <time>2020-07-17T06:51:08Z</time>
      </trkpt>
      <trkpt lat="37.6167930" lon="-3.7563160">
        <ele>1149.8</ele>
        <time>2020-07-17T06:51:12Z</time>
      </trkpt>
      <trkpt lat="37.6168330" lon="-3.7563640">
        <ele>1150.2</ele>
        <time>2020-07-17T06:51:14Z</time>
      </trkpt>
      <trkpt lat="37.6169340" lon="-3.7564390">
        <ele>1151.2</ele>
        <time>2020-07-17T06:51:18Z</time>
      </trkpt>
      <trkpt lat="37.6170550" lon="-3.7565260">
        <ele>1152.4</ele>
        <time>2020-07-17T06:51:23Z</time>
      </trkpt>
      <trkpt lat="37.6171490" lon="-3.7566260">
        <ele>1153.6</ele>
        <time>2020-07-17T06:51:27Z</time>
      </trkpt>
      <trkpt lat="37.6171840" lon="-3.7566820">
        <ele>1154.0</ele>
        <time>2020-07-17T06:51:29Z</time>
      </trkpt>
      <trkpt lat="37.6172300" lon="-3.7567890">
        <ele>1154.8</ele>
        <time>2020-07-17T06:51:32Z</time>
      </trkpt>
      <trkpt lat="37.6172650" lon="-3.7568950">
        <ele>1155.6</ele>
        <time>2020-07-17T06:51:35Z</time>
      </trkpt>
      <trkpt lat="37.6172750" lon="-3.7569290">
        <ele>1155.8</ele>
        <time>2020-07-17T06:51:36Z</time>
      </trkpt>
      <trkpt lat="37.6173080" lon="-3.7571660">
        <ele>1157.0</ele>
        <time>2020-07-17T06:51:42Z</time>
      </trkpt>
      <trkpt lat="37.6173150" lon="-3.7573920">
        <ele>1158.0</ele>
        <time>2020-07-17T06:51:48Z</time>
      </trkpt>
      <trkpt lat="37.6173160" lon="-3.7574230">
        <ele>1158.2</ele>
        <time>2020-07-17T06:51:49Z</time>
      </trkpt>
      <trkpt lat="37.6173140" lon="-3.7574880">
        <ele>1158.6</ele>
        <time>2020-07-17T06:51:51Z</time>
      </trkpt>
      <trkpt lat="37.6173090" lon="-3.7575550">
        <ele>1159.0</ele>
        <time>2020-07-17T06:51:53Z</time>
      </trkpt>
      <trkpt lat="37.6173070" lon="-3.7575850">
        <ele>1159.2</ele>
        <time>2020-07-17T06:51:54Z</time>
      </trkpt>
      <trkpt lat="37.6172970" lon="-3.7576470">
        <ele>1159.8</ele>
        <time>2020-07-17T06:51:56Z</time>
      </trkpt>
      <trkpt lat="37.6172930" lon="-3.7576830">
        <ele>1160.0</ele>
        <time>2020-07-17T06:51:57Z</time>
      </trkpt>
      <trkpt lat="37.6172920" lon="-3.7577120">
        <ele>1160.2</ele>
        <time>2020-07-17T06:51:58Z</time>
      </trkpt>
      <trkpt lat="37.6172890" lon="-3.7577790">
        <ele>1160.8</ele>
        <time>2020-07-17T06:52:00Z</time>
      </trkpt>
      <trkpt lat="37.6172900" lon="-3.7578750">
        <ele>1161.4</ele>
        <time>2020-07-17T06:52:03Z</time>
      </trkpt>
      <trkpt lat="37.6173110" lon="-3.7580090">
        <ele>1162.2</ele>
        <time>2020-07-17T06:52:07Z</time>
      </trkpt>
      <trkpt lat="37.6173200" lon="-3.7580400">
        <ele>1162.6</ele>
        <time>2020-07-17T06:52:08Z</time>
      </trkpt>
      <trkpt lat="37.6173550" lon="-3.7581630">
        <ele>1163.6</ele>
        <time>2020-07-17T06:52:12Z</time>
      </trkpt>
      <trkpt lat="37.6173970" lon="-3.7583170">
        <ele>1164.8</ele>
        <time>2020-07-17T06:52:17Z</time>
      </trkpt>
      <trkpt lat="37.6174120" lon="-3.7583750">
        <ele>1165.0</ele>
        <time>2020-07-17T06:52:19Z</time>
      </trkpt>
      <trkpt lat="37.6174300" lon="-3.7584640">
        <ele>1166.0</ele>
        <time>2020-07-17T06:52:22Z</time>
      </trkpt>
      <trkpt lat="37.6174560" lon="-3.7586210">
        <ele>1167.0</ele>
        <time>2020-07-17T06:52:27Z</time>
      </trkpt>
      <trkpt lat="37.6174590" lon="-3.7586480">
        <ele>1167.4</ele>
        <time>2020-07-17T06:52:28Z</time>
      </trkpt>
      <trkpt lat="37.6174640" lon="-3.7587450">
        <ele>1168.0</ele>
        <time>2020-07-17T06:52:31Z</time>
      </trkpt>
      <trkpt lat="37.6174700" lon="-3.7588830">
        <ele>1169.4</ele>
        <time>2020-07-17T06:52:36Z</time>
      </trkpt>
      <trkpt lat="37.6174670" lon="-3.7589140">
        <ele>1169.6</ele>
        <time>2020-07-17T06:52:37Z</time>
      </trkpt>
      <trkpt lat="37.6174730" lon="-3.7590290">
        <ele>1170.4</ele>
        <time>2020-07-17T06:52:41Z</time>
      </trkpt>
      <trkpt lat="37.6174720" lon="-3.7590890">
        <ele>1170.8</ele>
        <time>2020-07-17T06:52:43Z</time>
      </trkpt>
      <trkpt lat="37.6174660" lon="-3.7591960">
        <ele>1171.6</ele>
        <time>2020-07-17T06:52:47Z</time>
      </trkpt>
      <trkpt lat="37.6174620" lon="-3.7592800">
        <ele>1172.4</ele>
        <time>2020-07-17T06:52:50Z</time>
      </trkpt>
      <trkpt lat="37.6174570" lon="-3.7593350">
        <ele>1172.8</ele>
        <time>2020-07-17T06:52:52Z</time>
      </trkpt>
      <trkpt lat="37.6174520" lon="-3.7594770">
        <ele>1174.2</ele>
        <time>2020-07-17T06:52:57Z</time>
      </trkpt>
      <trkpt lat="37.6174480" lon="-3.7595050">
        <ele>1174.4</ele>
        <time>2020-07-17T06:52:58Z</time>
      </trkpt>
      <trkpt lat="37.6174350" lon="-3.7595920">
        <ele>1175.2</ele>
        <time>2020-07-17T06:53:01Z</time>
      </trkpt>
      <trkpt lat="37.6174270" lon="-3.7597430">
        <ele>1176.4</ele>
        <time>2020-07-17T06:53:06Z</time>
      </trkpt>
      <trkpt lat="37.6174240" lon="-3.7597790">
        <ele>1176.6</ele>
        <time>2020-07-17T06:53:07Z</time>
      </trkpt>
      <trkpt lat="37.6174190" lon="-3.7599380">
        <ele>1177.4</ele>
        <time>2020-07-17T06:53:12Z</time>
      </trkpt>
      <trkpt lat="37.6174180" lon="-3.7599710">
        <ele>1177.6</ele>
        <time>2020-07-17T06:53:13Z</time>
      </trkpt>
      <trkpt lat="37.6174220" lon="-3.7601390">
        <ele>1178.6</ele>
        <time>2020-07-17T06:53:18Z</time>
      </trkpt>
      <trkpt lat="37.6174240" lon="-3.7603180">
        <ele>1179.6</ele>
        <time>2020-07-17T06:53:23Z</time>
      </trkpt>
      <trkpt lat="37.6174270" lon="-3.7603530">
        <ele>1179.8</ele>
        <time>2020-07-17T06:53:24Z</time>
      </trkpt>
      <trkpt lat="37.6174560" lon="-3.7605330">
        <ele>1180.8</ele>
        <time>2020-07-17T06:53:29Z</time>
      </trkpt>
      <trkpt lat="37.6174920" lon="-3.7606370">
        <ele>1181.2</ele>
        <time>2020-07-17T06:53:32Z</time>
      </trkpt>
      <trkpt lat="37.6175340" lon="-3.7607350">
        <ele>1181.8</ele>
        <time>2020-07-17T06:53:35Z</time>
      </trkpt>
      <trkpt lat="37.6176360" lon="-3.7609630">
        <ele>1183.0</ele>
        <time>2020-07-17T06:53:42Z</time>
      </trkpt>
      <trkpt lat="37.6177150" lon="-3.7611120">
        <ele>1184.0</ele>
        <time>2020-07-17T06:53:47Z</time>
      </trkpt>
      <trkpt lat="37.6177970" lon="-3.7612520">
        <ele>1185.2</ele>
        <time>2020-07-17T06:53:52Z</time>
      </trkpt>
      <trkpt lat="37.6178290" lon="-3.7613100">
        <ele>1185.6</ele>
        <time>2020-07-17T06:53:54Z</time>
      </trkpt>
      <trkpt lat="37.6178910" lon="-3.7614290">
        <ele>1186.2</ele>
        <time>2020-07-17T06:53:58Z</time>
      </trkpt>
      <trkpt lat="37.6179830" lon="-3.7615730">
        <ele>1187.2</ele>
        <time>2020-07-17T06:54:03Z</time>
      </trkpt>
      <trkpt lat="37.6180230" lon="-3.7616310">
        <ele>1187.4</ele>
        <time>2020-07-17T06:54:05Z</time>
      </trkpt>
      <trkpt lat="37.6181410" lon="-3.7617980">
        <ele>1188.4</ele>
        <time>2020-07-17T06:54:11Z</time>
      </trkpt>
      <trkpt lat="37.6182180" lon="-3.7619100">
        <ele>1189.0</ele>
        <time>2020-07-17T06:54:15Z</time>
      </trkpt>
      <trkpt lat="37.6182940" lon="-3.7620050">
        <ele>1189.6</ele>
        <time>2020-07-17T06:54:19Z</time>
      </trkpt>
      <trkpt lat="37.6183820" lon="-3.7621190">
        <ele>1190.8</ele>
        <time>2020-07-17T06:54:24Z</time>
      </trkpt>
      <trkpt lat="37.6184000" lon="-3.7621410">
        <ele>1191.0</ele>
        <time>2020-07-17T06:54:25Z</time>
      </trkpt>
      <trkpt lat="37.6184510" lon="-3.7622100">
        <ele>1192.0</ele>
        <time>2020-07-17T06:54:28Z</time>
      </trkpt>
      <trkpt lat="37.6185230" lon="-3.7623600">
        <ele>1193.0</ele>
        <time>2020-07-17T06:54:33Z</time>
      </trkpt>
      <trkpt lat="37.6186080" lon="-3.7625780">
        <ele>1194.2</ele>
        <time>2020-07-17T06:54:40Z</time>
      </trkpt>
      <trkpt lat="37.6186550" lon="-3.7627240">
        <ele>1195.0</ele>
        <time>2020-07-17T06:54:44Z</time>
      </trkpt>
      <trkpt lat="37.6186660" lon="-3.7627600">
        <ele>1195.2</ele>
        <time>2020-07-17T06:54:45Z</time>
      </trkpt>
      <trkpt lat="37.6187250" lon="-3.7629790">
        <ele>1196.4</ele>
        <time>2020-07-17T06:54:51Z</time>
      </trkpt>
      <trkpt lat="37.6187470" lon="-3.7630530">
        <ele>1196.8</ele>
        <time>2020-07-17T06:54:53Z</time>
      </trkpt>
      <trkpt lat="37.6187690" lon="-3.7631600">
        <ele>1197.6</ele>
        <time>2020-07-17T06:54:56Z</time>
      </trkpt>
      <trkpt lat="37.6187740" lon="-3.7633190">
        <ele>1198.6</ele>
        <time>2020-07-17T06:55:00Z</time>
      </trkpt>
      <trkpt lat="37.6187700" lon="-3.7633580">
        <ele>1198.6</ele>
        <time>2020-07-17T06:55:01Z</time>
      </trkpt>
      <trkpt lat="37.6187420" lon="-3.7634770">
        <ele>1199.0</ele>
        <time>2020-07-17T06:55:05Z</time>
      </trkpt>
      <trkpt lat="37.6187060" lon="-3.7635910">
        <ele>1198.4</ele>
        <time>2020-07-17T06:55:09Z</time>
      </trkpt>
      <trkpt lat="37.6186630" lon="-3.7636590">
        <ele>1198.2</ele>
        <time>2020-07-17T06:55:11Z</time>
      </trkpt>
      <trkpt lat="37.6185410" lon="-3.7637820">
        <ele>1197.4</ele>
        <time>2020-07-17T06:55:15Z</time>
      </trkpt>
      <trkpt lat="37.6184690" lon="-3.7638410">
        <ele>1197.0</ele>
        <time>2020-07-17T06:55:17Z</time>
      </trkpt>
      <trkpt lat="37.6183440" lon="-3.7639470">
        <ele>1196.0</ele>
        <time>2020-07-17T06:55:20Z</time>
      </trkpt>
      <trkpt lat="37.6182550" lon="-3.7640220">
        <ele>1195.0</ele>
        <time>2020-07-17T06:55:22Z</time>
      </trkpt>
      <trkpt lat="37.6182040" lon="-3.7640660">
        <ele>1194.6</ele>
        <time>2020-07-17T06:55:23Z</time>
      </trkpt>
      <trkpt lat="37.6181010" lon="-3.7641510">
        <ele>1193.6</ele>
        <time>2020-07-17T06:55:25Z</time>
      </trkpt>
      <trkpt lat="37.6179960" lon="-3.7642380">
        <ele>1192.4</ele>
        <time>2020-07-17T06:55:27Z</time>
      </trkpt>
      <trkpt lat="37.6178930" lon="-3.7643320">
        <ele>1191.4</ele>
        <time>2020-07-17T06:55:29Z</time>
      </trkpt>
      <trkpt lat="37.6178370" lon="-3.7643860">
        <ele>1190.8</ele>
        <time>2020-07-17T06:55:30Z</time>
      </trkpt>
      <trkpt lat="37.6177850" lon="-3.7644380">
        <ele>1190.4</ele>
        <time>2020-07-17T06:55:31Z</time>
      </trkpt>
      <trkpt lat="37.6177270" lon="-3.7644990">
        <ele>1189.8</ele>
        <time>2020-07-17T06:55:32Z</time>
      </trkpt>
      <trkpt lat="37.6176740" lon="-3.7645600">
        <ele>1189.2</ele>
        <time>2020-07-17T06:55:33Z</time>
      </trkpt>
      <trkpt lat="37.6176270" lon="-3.7646160">
        <ele>1188.6</ele>
        <time>2020-07-17T06:55:34Z</time>
      </trkpt>
      <trkpt lat="37.6175750" lon="-3.7646840">
        <ele>1188.2</ele>
        <time>2020-07-17T06:55:35Z</time>
      </trkpt>
      <trkpt lat="37.6175010" lon="-3.7648160">
        <ele>1187.0</ele>
        <time>2020-07-17T06:55:37Z</time>
      </trkpt>
      <trkpt lat="37.6174210" lon="-3.7650740">
        <ele>1185.4</ele>
        <time>2020-07-17T06:55:40Z</time>
      </trkpt>
      <trkpt lat="37.6174080" lon="-3.7651450">
        <ele>1185.0</ele>
        <time>2020-07-17T06:55:41Z</time>
      </trkpt>
      <trkpt lat="37.6173640" lon="-3.7653720">
        <ele>1184.2</ele>
        <time>2020-07-17T06:55:43Z</time>
      </trkpt>
      <trkpt lat="37.6173340" lon="-3.7655680">
        <ele>1183.2</ele>
        <time>2020-07-17T06:55:45Z</time>
      </trkpt>
      <trkpt lat="37.6173250" lon="-3.7656680">
        <ele>1183.0</ele>
        <time>2020-07-17T06:55:46Z</time>
      </trkpt>
      <trkpt lat="37.6173390" lon="-3.7657720">
        <ele>1182.0</ele>
        <time>2020-07-17T06:55:47Z</time>
      </trkpt>
      <trkpt lat="37.6173520" lon="-3.7658690">
        <ele>1181.2</ele>
        <time>2020-07-17T06:55:48Z</time>
      </trkpt>
      <trkpt lat="37.6173670" lon="-3.7659600">
        <ele>1180.6</ele>
        <time>2020-07-17T06:55:49Z</time>
      </trkpt>
      <trkpt lat="37.6173820" lon="-3.7660580">
        <ele>1179.8</ele>
        <time>2020-07-17T06:55:50Z</time>
      </trkpt>
      <trkpt lat="37.6173940" lon="-3.7662540">
        <ele>1178.4</ele>
        <time>2020-07-17T06:55:52Z</time>
      </trkpt>
      <trkpt lat="37.6173760" lon="-3.7664670">
        <ele>1176.8</ele>
        <time>2020-07-17T06:55:54Z</time>
      </trkpt>
      <trkpt lat="37.6173490" lon="-3.7666760">
        <ele>1175.4</ele>
        <time>2020-07-17T06:55:56Z</time>
      </trkpt>
      <trkpt lat="37.6173340" lon="-3.7667920">
        <ele>1174.8</ele>
        <time>2020-07-17T06:55:57Z</time>
      </trkpt>
      <trkpt lat="37.6173250" lon="-3.7668980">
        <ele>1174.0</ele>
        <time>2020-07-17T06:55:58Z</time>
      </trkpt>
      <trkpt lat="37.6173250" lon="-3.7671360">
        <ele>1172.2</ele>
        <time>2020-07-17T06:56:00Z</time>
      </trkpt>
      <trkpt lat="37.6173320" lon="-3.7672390">
        <ele>1171.2</ele>
        <time>2020-07-17T06:56:01Z</time>
      </trkpt>
      <trkpt lat="37.6173340" lon="-3.7673540">
        <ele>1170.2</ele>
        <time>2020-07-17T06:56:02Z</time>
      </trkpt>
      <trkpt lat="37.6173240" lon="-3.7674630">
        <ele>1169.0</ele>
        <time>2020-07-17T06:56:03Z</time>
      </trkpt>
      <trkpt lat="37.6172790" lon="-3.7676840">
        <ele>1167.2</ele>
        <time>2020-07-17T06:56:05Z</time>
      </trkpt>
      <trkpt lat="37.6172130" lon="-3.7679210">
        <ele>1166.0</ele>
        <time>2020-07-17T06:56:07Z</time>
      </trkpt>
      <trkpt lat="37.6171720" lon="-3.7680420">
        <ele>1164.8</ele>
        <time>2020-07-17T06:56:08Z</time>
      </trkpt>
      <trkpt lat="37.6171260" lon="-3.7681580">
        <ele>1163.8</ele>
        <time>2020-07-17T06:56:09Z</time>
      </trkpt>
      <trkpt lat="37.6170780" lon="-3.7682730">
        <ele>1162.6</ele>
        <time>2020-07-17T06:56:10Z</time>
      </trkpt>
      <trkpt lat="37.6169870" lon="-3.7684820">
        <ele>1161.0</ele>
        <time>2020-07-17T06:56:12Z</time>
      </trkpt>
      <trkpt lat="37.6169810" lon="-3.7685540">
        <ele>1159.6</ele>
        <time>2020-07-17T06:56:13Z</time>
      </trkpt>
      <trkpt lat="37.6169730" lon="-3.7686840">
        <ele>1158.2</ele>
        <time>2020-07-17T06:56:14Z</time>
      </trkpt>
      <trkpt lat="37.6169740" lon="-3.7688130">
        <ele>1157.0</ele>
        <time>2020-07-17T06:56:15Z</time>
      </trkpt>
      <trkpt lat="37.6169820" lon="-3.7689920">
        <ele>1155.6</ele>
        <time>2020-07-17T06:56:16Z</time>
      </trkpt>
      <trkpt lat="37.6169890" lon="-3.7691080">
        <ele>1154.0</ele>
        <time>2020-07-17T06:56:17Z</time>
      </trkpt>
      <trkpt lat="37.6170020" lon="-3.7691920">
        <ele>1152.8</ele>
        <time>2020-07-17T06:56:18Z</time>
      </trkpt>
      <trkpt lat="37.6170250" lon="-3.7692520">
        <ele>1151.4</ele>
        <time>2020-07-17T06:56:19Z</time>
      </trkpt>
      <trkpt lat="37.6170630" lon="-3.7692810">
        <ele>1150.2</ele>
        <time>2020-07-17T06:56:20Z</time>
      </trkpt>
      <trkpt lat="37.6171110" lon="-3.7692760">
        <ele>1148.6</ele>
        <time>2020-07-17T06:56:21Z</time>
      </trkpt>
      <trkpt lat="37.6171660" lon="-3.7692380">
        <ele>1147.6</ele>
        <time>2020-07-17T06:56:22Z</time>
      </trkpt>
      <trkpt lat="37.6172230" lon="-3.7691810">
        <ele>1146.0</ele>
        <time>2020-07-17T06:56:23Z</time>
      </trkpt>
      <trkpt lat="37.6173300" lon="-3.7691430">
        <ele>1144.0</ele>
        <time>2020-07-17T06:56:25Z</time>
      </trkpt>
      <trkpt lat="37.6173780" lon="-3.7692580">
        <ele>1142.4</ele>
        <time>2020-07-17T06:56:27Z</time>
      </trkpt>
      <trkpt lat="37.6173590" lon="-3.7694330">
        <ele>1141.0</ele>
        <time>2020-07-17T06:56:29Z</time>
      </trkpt>
      <trkpt lat="37.6173530" lon="-3.7695420">
        <ele>1140.2</ele>
        <time>2020-07-17T06:56:30Z</time>
      </trkpt>
      <trkpt lat="37.6173600" lon="-3.7696480">
        <ele>1139.6</ele>
        <time>2020-07-17T06:56:31Z</time>
      </trkpt>
      <trkpt lat="37.6174310" lon="-3.7698890">
        <ele>1137.8</ele>
        <time>2020-07-17T06:56:33Z</time>
      </trkpt>
      <trkpt lat="37.6174810" lon="-3.7699990">
        <ele>1137.0</ele>
        <time>2020-07-17T06:56:34Z</time>
      </trkpt>
      <trkpt lat="37.6175410" lon="-3.7701250">
        <ele>1136.0</ele>
        <time>2020-07-17T06:56:35Z</time>
      </trkpt>
      <trkpt lat="37.6175950" lon="-3.7702400">
        <ele>1135.0</ele>
        <time>2020-07-17T06:56:36Z</time>
      </trkpt>
      <trkpt lat="37.6176990" lon="-3.7704940">
        <ele>1132.8</ele>
        <time>2020-07-17T06:56:38Z</time>
      </trkpt>
      <trkpt lat="37.6177300" lon="-3.7706170">
        <ele>1131.8</ele>
        <time>2020-07-17T06:56:39Z</time>
      </trkpt>
      <trkpt lat="37.6177480" lon="-3.7708410">
        <ele>1130.0</ele>
        <time>2020-07-17T06:56:41Z</time>
      </trkpt>
      <trkpt lat="37.6177200" lon="-3.7709550">
        <ele>1128.8</ele>
        <time>2020-07-17T06:56:42Z</time>
      </trkpt>
      <trkpt lat="37.6176720" lon="-3.7710530">
        <ele>1127.8</ele>
        <time>2020-07-17T06:56:43Z</time>
      </trkpt>
      <trkpt lat="37.6176170" lon="-3.7711430">
        <ele>1126.0</ele>
        <time>2020-07-17T06:56:44Z</time>
      </trkpt>
      <trkpt lat="37.6175760" lon="-3.7712310">
        <ele>1124.8</ele>
        <time>2020-07-17T06:56:45Z</time>
      </trkpt>
      <trkpt lat="37.6175430" lon="-3.7713210">
        <ele>1124.4</ele>
        <time>2020-07-17T06:56:46Z</time>
      </trkpt>
      <trkpt lat="37.6175840" lon="-3.7714390">
        <ele>1122.4</ele>
        <time>2020-07-17T06:56:47Z</time>
      </trkpt>
      <trkpt lat="37.6176270" lon="-3.7715500">
        <ele>1120.8</ele>
        <time>2020-07-17T06:56:48Z</time>
      </trkpt>
      <trkpt lat="37.6176840" lon="-3.7716650">
        <ele>1119.6</ele>
        <time>2020-07-17T06:56:49Z</time>
      </trkpt>
      <trkpt lat="37.6177490" lon="-3.7717860">
        <ele>1118.2</ele>
        <time>2020-07-17T06:56:50Z</time>
      </trkpt>
      <trkpt lat="37.6178630" lon="-3.7720440">
        <ele>1115.6</ele>
        <time>2020-07-17T06:56:52Z</time>
      </trkpt>
      <trkpt lat="37.6179050" lon="-3.7721970">
        <ele>1114.2</ele>
        <time>2020-07-17T06:56:53Z</time>
      </trkpt>
      <trkpt lat="37.6179340" lon="-3.7723400">
        <ele>1112.8</ele>
        <time>2020-07-17T06:56:54Z</time>
      </trkpt>
      <trkpt lat="37.6179580" lon="-3.7724910">
        <ele>1111.8</ele>
        <time>2020-07-17T06:56:55Z</time>
      </trkpt>
      <trkpt lat="37.6179720" lon="-3.7726300">
        <ele>1110.8</ele>
        <time>2020-07-17T06:56:56Z</time>
      </trkpt>
      <trkpt lat="37.6179760" lon="-3.7727870">
        <ele>1110.0</ele>
        <time>2020-07-17T06:56:57Z</time>
      </trkpt>
      <trkpt lat="37.6179640" lon="-3.7730680">
        <ele>1108.8</ele>
        <time>2020-07-17T06:56:59Z</time>
      </trkpt>
      <trkpt lat="37.6179650" lon="-3.7734790">
        <ele>1107.8</ele>
        <time>2020-07-17T06:57:02Z</time>
      </trkpt>
      <trkpt lat="37.6179890" lon="-3.7736110">
        <ele>1107.8</ele>
        <time>2020-07-17T06:57:03Z</time>
      </trkpt>
      <trkpt lat="37.6181350" lon="-3.7739470">
        <ele>1107.6</ele>
        <time>2020-07-17T06:57:06Z</time>
      </trkpt>
      <trkpt lat="37.6182920" lon="-3.7741320">
        <ele>1107.0</ele>
        <time>2020-07-17T06:57:08Z</time>
      </trkpt>
      <trkpt lat="37.6183710" lon="-3.7742230">
        <ele>1106.6</ele>
        <time>2020-07-17T06:57:09Z</time>
      </trkpt>
      <trkpt lat="37.6185050" lon="-3.7744220">
        <ele>1106.0</ele>
        <time>2020-07-17T06:57:11Z</time>
      </trkpt>
      <trkpt lat="37.6185580" lon="-3.7745470">
        <ele>1105.4</ele>
        <time>2020-07-17T06:57:12Z</time>
      </trkpt>
      <trkpt lat="37.6185830" lon="-3.7748010">
        <ele>1104.0</ele>
        <time>2020-07-17T06:57:14Z</time>
      </trkpt>
      <trkpt lat="37.6185560" lon="-3.7750610">
        <ele>1103.0</ele>
        <time>2020-07-17T06:57:16Z</time>
      </trkpt>
      <trkpt lat="37.6185160" lon="-3.7751590">
        <ele>1102.2</ele>
        <time>2020-07-17T06:57:17Z</time>
      </trkpt>
      <trkpt lat="37.6184740" lon="-3.7752470">
        <ele>1101.2</ele>
        <time>2020-07-17T06:57:18Z</time>
      </trkpt>
      <trkpt lat="37.6184290" lon="-3.7753270">
        <ele>1100.2</ele>
        <time>2020-07-17T06:57:19Z</time>
      </trkpt>
      <trkpt lat="37.6183820" lon="-3.7754130">
        <ele>1098.8</ele>
        <time>2020-07-17T06:57:20Z</time>
      </trkpt>
      <trkpt lat="37.6183350" lon="-3.7754900">
        <ele>1097.4</ele>
        <time>2020-07-17T06:57:21Z</time>
      </trkpt>
      <trkpt lat="37.6182790" lon="-3.7755740">
        <ele>1096.0</ele>
        <time>2020-07-17T06:57:22Z</time>
      </trkpt>
      <trkpt lat="37.6182140" lon="-3.7756590">
        <ele>1094.6</ele>
        <time>2020-07-17T06:57:23Z</time>
      </trkpt>
      <trkpt lat="37.6181430" lon="-3.7757300">
        <ele>1093.4</ele>
        <time>2020-07-17T06:57:24Z</time>
      </trkpt>
      <trkpt lat="37.6180600" lon="-3.7757850">
        <ele>1092.2</ele>
        <time>2020-07-17T06:57:25Z</time>
      </trkpt>
      <trkpt lat="37.6179750" lon="-3.7758290">
        <ele>1090.8</ele>
        <time>2020-07-17T06:57:26Z</time>
      </trkpt>
      <trkpt lat="37.6178730" lon="-3.7758710">
        <ele>1089.8</ele>
        <time>2020-07-17T06:57:27Z</time>
      </trkpt>
      <trkpt lat="37.6177800" lon="-3.7759060">
        <ele>1088.8</ele>
        <time>2020-07-17T06:57:28Z</time>
      </trkpt>
      <trkpt lat="37.6176740" lon="-3.7759480">
        <ele>1087.8</ele>
        <time>2020-07-17T06:57:29Z</time>
      </trkpt>
      <trkpt lat="37.6175650" lon="-3.7759910">
        <ele>1086.2</ele>
        <time>2020-07-17T06:57:30Z</time>
      </trkpt>
      <trkpt lat="37.6173690" lon="-3.7760710">
        <ele>1083.8</ele>
        <time>2020-07-17T06:57:32Z</time>
      </trkpt>
      <trkpt lat="37.6171790" lon="-3.7761210">
        <ele>1084.0</ele>
        <time>2020-07-17T06:57:34Z</time>
      </trkpt>
      <trkpt lat="37.6170680" lon="-3.7761220">
        <ele>1082.4</ele>
        <time>2020-07-17T06:57:35Z</time>
      </trkpt>
      <trkpt lat="37.6169720" lon="-3.7761120">
        <ele>1080.8</ele>
        <time>2020-07-17T06:57:36Z</time>
      </trkpt>
      <trkpt lat="37.6168730" lon="-3.7761020">
        <ele>1079.8</ele>
        <time>2020-07-17T06:57:37Z</time>
      </trkpt>
      <trkpt lat="37.6167860" lon="-3.7761070">
        <ele>1078.6</ele>
        <time>2020-07-17T06:57:38Z</time>
      </trkpt>
      <trkpt lat="37.6166300" lon="-3.7761670">
        <ele>1077.0</ele>
        <time>2020-07-17T06:57:40Z</time>
      </trkpt>
      <trkpt lat="37.6164670" lon="-3.7762350">
        <ele>1076.2</ele>
        <time>2020-07-17T06:57:42Z</time>
      </trkpt>
      <trkpt lat="37.6163860" lon="-3.7762550">
        <ele>1075.8</ele>
        <time>2020-07-17T06:57:43Z</time>
      </trkpt>
      <trkpt lat="37.6163080" lon="-3.7762610">
        <ele>1076.0</ele>
        <time>2020-07-17T06:57:44Z</time>
      </trkpt>
      <trkpt lat="37.6161590" lon="-3.7762480">
        <ele>1076.0</ele>
        <time>2020-07-17T06:57:46Z</time>
      </trkpt>
      <trkpt lat="37.6160910" lon="-3.7762220">
        <ele>1076.2</ele>
        <time>2020-07-17T06:57:47Z</time>
      </trkpt>
      <trkpt lat="37.6160250" lon="-3.7762000">
        <ele>1076.4</ele>
        <time>2020-07-17T06:57:48Z</time>
      </trkpt>
      <trkpt lat="37.6158430" lon="-3.7761500">
        <ele>1076.6</ele>
        <time>2020-07-17T06:57:51Z</time>
      </trkpt>
      <trkpt lat="37.6157270" lon="-3.7761620">
        <ele>1076.6</ele>
        <time>2020-07-17T06:57:53Z</time>
      </trkpt>
      <trkpt lat="37.6156310" lon="-3.7762170">
        <ele>1076.8</ele>
        <time>2020-07-17T06:57:55Z</time>
      </trkpt>
      <trkpt lat="37.6155560" lon="-3.7763000">
        <ele>1076.8</ele>
        <time>2020-07-17T06:57:57Z</time>
      </trkpt>
      <trkpt lat="37.6154730" lon="-3.7765390">
        <ele>1077.0</ele>
        <time>2020-07-17T06:58:01Z</time>
      </trkpt>
      <trkpt lat="37.6154700" lon="-3.7767630">
        <ele>1076.4</ele>
        <time>2020-07-17T06:58:04Z</time>
      </trkpt>
      <trkpt lat="37.6154710" lon="-3.7768480">
        <ele>1075.8</ele>
        <time>2020-07-17T06:58:05Z</time>
      </trkpt>
      <trkpt lat="37.6154700" lon="-3.7769360">
        <ele>1075.4</ele>
        <time>2020-07-17T06:58:06Z</time>
      </trkpt>
      <trkpt lat="37.6154700" lon="-3.7771430">
        <ele>1074.4</ele>
        <time>2020-07-17T06:58:08Z</time>
      </trkpt>
      <trkpt lat="37.6154620" lon="-3.7773420">
        <ele>1072.8</ele>
        <time>2020-07-17T06:58:10Z</time>
      </trkpt>
      <trkpt lat="37.6154480" lon="-3.7774440">
        <ele>1072.0</ele>
        <time>2020-07-17T06:58:11Z</time>
      </trkpt>
      <trkpt lat="37.6154210" lon="-3.7775470">
        <ele>1071.0</ele>
        <time>2020-07-17T06:58:12Z</time>
      </trkpt>
      <trkpt lat="37.6153860" lon="-3.7776370">
        <ele>1070.0</ele>
        <time>2020-07-17T06:58:13Z</time>
      </trkpt>
      <trkpt lat="37.6153560" lon="-3.7777200">
        <ele>1069.0</ele>
        <time>2020-07-17T06:58:14Z</time>
      </trkpt>
      <trkpt lat="37.6153270" lon="-3.7778040">
        <ele>1068.0</ele>
        <time>2020-07-17T06:58:15Z</time>
      </trkpt>
      <trkpt lat="37.6152920" lon="-3.7779600">
        <ele>1066.2</ele>
        <time>2020-07-17T06:58:17Z</time>
      </trkpt>
      <trkpt lat="37.6152940" lon="-3.7781230">
        <ele>1064.2</ele>
        <time>2020-07-17T06:58:19Z</time>
      </trkpt>
      <trkpt lat="37.6153120" lon="-3.7782190">
        <ele>1062.6</ele>
        <time>2020-07-17T06:58:20Z</time>
      </trkpt>
      <trkpt lat="37.6153310" lon="-3.7783110">
        <ele>1061.8</ele>
        <time>2020-07-17T06:58:21Z</time>
      </trkpt>
      <trkpt lat="37.6153480" lon="-3.7784170">
        <ele>1060.6</ele>
        <time>2020-07-17T06:58:22Z</time>
      </trkpt>
      <trkpt lat="37.6153550" lon="-3.7785340">
        <ele>1059.4</ele>
        <time>2020-07-17T06:58:23Z</time>
      </trkpt>
      <trkpt lat="37.6153500" lon="-3.7786430">
        <ele>1058.2</ele>
        <time>2020-07-17T06:58:24Z</time>
      </trkpt>
      <trkpt lat="37.6153340" lon="-3.7787570">
        <ele>1056.8</ele>
        <time>2020-07-17T06:58:25Z</time>
      </trkpt>
      <trkpt lat="37.6153110" lon="-3.7788580">
        <ele>1055.4</ele>
        <time>2020-07-17T06:58:26Z</time>
      </trkpt>
      <trkpt lat="37.6152810" lon="-3.7789740">
        <ele>1054.2</ele>
        <time>2020-07-17T06:58:27Z</time>
      </trkpt>
      <trkpt lat="37.6152540" lon="-3.7790750">
        <ele>1053.0</ele>
        <time>2020-07-17T06:58:28Z</time>
      </trkpt>
      <trkpt lat="37.6151950" lon="-3.7792900">
        <ele>1051.4</ele>
        <time>2020-07-17T06:58:30Z</time>
      </trkpt>
      <trkpt lat="37.6151260" lon="-3.7794780">
        <ele>1050.0</ele>
        <time>2020-07-17T06:58:32Z</time>
      </trkpt>
      <trkpt lat="37.6150840" lon="-3.7795550">
        <ele>1049.2</ele>
        <time>2020-07-17T06:58:33Z</time>
      </trkpt>
      <trkpt lat="37.6150390" lon="-3.7796140">
        <ele>1048.6</ele>
        <time>2020-07-17T06:58:34Z</time>
      </trkpt>
      <trkpt lat="37.6148940" lon="-3.7796880">
        <ele>1046.4</ele>
        <time>2020-07-17T06:58:36Z</time>
      </trkpt>
      <trkpt lat="37.6147990" lon="-3.7796880">
        <ele>1045.4</ele>
        <time>2020-07-17T06:58:37Z</time>
      </trkpt>
      <trkpt lat="37.6146180" lon="-3.7796350">
        <ele>1043.6</ele>
        <time>2020-07-17T06:58:39Z</time>
      </trkpt>
      <trkpt lat="37.6144670" lon="-3.7795310">
        <ele>1042.4</ele>
        <time>2020-07-17T06:58:41Z</time>
      </trkpt>
      <trkpt lat="37.6143990" lon="-3.7794750">
        <ele>1041.6</ele>
        <time>2020-07-17T06:58:42Z</time>
      </trkpt>
      <trkpt lat="37.6143340" lon="-3.7794390">
        <ele>1041.0</ele>
        <time>2020-07-17T06:58:43Z</time>
      </trkpt>
      <trkpt lat="37.6142080" lon="-3.7794200">
        <ele>1039.8</ele>
        <time>2020-07-17T06:58:45Z</time>
      </trkpt>
      <trkpt lat="37.6141190" lon="-3.7795010">
        <ele>1038.2</ele>
        <time>2020-07-17T06:58:47Z</time>
      </trkpt>
      <trkpt lat="37.6141110" lon="-3.7796470">
        <ele>1036.8</ele>
        <time>2020-07-17T06:58:49Z</time>
      </trkpt>
      <trkpt lat="37.6141610" lon="-3.7798190">
        <ele>1035.6</ele>
        <time>2020-07-17T06:58:51Z</time>
      </trkpt>
      <trkpt lat="37.6141930" lon="-3.7799170">
        <ele>1034.8</ele>
        <time>2020-07-17T06:58:52Z</time>
      </trkpt>
      <trkpt lat="37.6142260" lon="-3.7800250">
        <ele>1034.0</ele>
        <time>2020-07-17T06:58:53Z</time>
      </trkpt>
      <trkpt lat="37.6142880" lon="-3.7802380">
        <ele>1032.4</ele>
        <time>2020-07-17T06:58:55Z</time>
      </trkpt>
      <trkpt lat="37.6143190" lon="-3.7803350">
        <ele>1031.4</ele>
        <time>2020-07-17T06:58:56Z</time>
      </trkpt>
      <trkpt lat="37.6144040" lon="-3.7805540">
        <ele>1029.6</ele>
        <time>2020-07-17T06:58:58Z</time>
      </trkpt>
      <trkpt lat="37.6144500" lon="-3.7806710">
        <ele>1028.4</ele>
        <time>2020-07-17T06:58:59Z</time>
      </trkpt>
      <trkpt lat="37.6144950" lon="-3.7807830">
        <ele>1027.2</ele>
        <time>2020-07-17T06:59:00Z</time>
      </trkpt>
      <trkpt lat="37.6145850" lon="-3.7810010">
        <ele>1025.4</ele>
        <time>2020-07-17T06:59:02Z</time>
      </trkpt>
      <trkpt lat="37.6146700" lon="-3.7812150">
        <ele>1023.4</ele>
        <time>2020-07-17T06:59:04Z</time>
      </trkpt>
      <trkpt lat="37.6147320" lon="-3.7814450">
        <ele>1022.0</ele>
        <time>2020-07-17T06:59:06Z</time>
      </trkpt>
      <trkpt lat="37.6147690" lon="-3.7816980">
        <ele>1020.4</ele>
        <time>2020-07-17T06:59:08Z</time>
      </trkpt>
      <trkpt lat="37.6147560" lon="-3.7819400">
        <ele>1019.2</ele>
        <time>2020-07-17T06:59:10Z</time>
      </trkpt>
      <trkpt lat="37.6147230" lon="-3.7822050">
        <ele>1018.0</ele>
        <time>2020-07-17T06:59:12Z</time>
      </trkpt>
      <trkpt lat="37.6146960" lon="-3.7824710">
        <ele>1016.4</ele>
        <time>2020-07-17T06:59:14Z</time>
      </trkpt>
      <trkpt lat="37.6146750" lon="-3.7827390">
        <ele>1015.2</ele>
        <time>2020-07-17T06:59:16Z</time>
      </trkpt>
      <trkpt lat="37.6146640" lon="-3.7828770">
        <ele>1014.2</ele>
        <time>2020-07-17T06:59:17Z</time>
      </trkpt>
      <trkpt lat="37.6146340" lon="-3.7831430">
        <ele>1012.4</ele>
        <time>2020-07-17T06:59:19Z</time>
      </trkpt>
      <trkpt lat="37.6146300" lon="-3.7832720">
        <ele>1011.6</ele>
        <time>2020-07-17T06:59:20Z</time>
      </trkpt>
      <trkpt lat="37.6146360" lon="-3.7833920">
        <ele>1011.2</ele>
        <time>2020-07-17T06:59:21Z</time>
      </trkpt>
      <trkpt lat="37.6146790" lon="-3.7836570">
        <ele>1010.0</ele>
        <time>2020-07-17T06:59:23Z</time>
      </trkpt>
      <trkpt lat="37.6147070" lon="-3.7837850">
        <ele>1009.2</ele>
        <time>2020-07-17T06:59:24Z</time>
      </trkpt>
      <trkpt lat="37.6147380" lon="-3.7839120">
        <ele>1008.2</ele>
        <time>2020-07-17T06:59:25Z</time>
      </trkpt>
      <trkpt lat="37.6147930" lon="-3.7841500">
        <ele>1006.6</ele>
        <time>2020-07-17T06:59:27Z</time>
      </trkpt>
      <trkpt lat="37.6148150" lon="-3.7842560">
        <ele>1005.6</ele>
        <time>2020-07-17T06:59:28Z</time>
      </trkpt>
      <trkpt lat="37.6148340" lon="-3.7843760">
        <ele>1004.6</ele>
        <time>2020-07-17T06:59:29Z</time>
      </trkpt>
      <trkpt lat="37.6148410" lon="-3.7844930">
        <ele>1003.6</ele>
        <time>2020-07-17T06:59:30Z</time>
      </trkpt>
      <trkpt lat="37.6148300" lon="-3.7847340">
        <ele>1002.0</ele>
        <time>2020-07-17T06:59:32Z</time>
      </trkpt>
      <trkpt lat="37.6148230" lon="-3.7849640">
        <ele>1000.4</ele>
        <time>2020-07-17T06:59:34Z</time>
      </trkpt>
      <trkpt lat="37.6148180" lon="-3.7851950">
        <ele>999.2</ele>
        <time>2020-07-17T06:59:36Z</time>
      </trkpt>
      <trkpt lat="37.6148060" lon="-3.7853170">
        <ele>998.4</ele>
        <time>2020-07-17T06:59:37Z</time>
      </trkpt>
      <trkpt lat="37.6147900" lon="-3.7854310">
        <ele>997.6</ele>
        <time>2020-07-17T06:59:38Z</time>
      </trkpt>
      <trkpt lat="37.6147660" lon="-3.7856560">
        <ele>995.8</ele>
        <time>2020-07-17T06:59:40Z</time>
      </trkpt>
      <trkpt lat="37.6147790" lon="-3.7859120">
        <ele>993.6</ele>
        <time>2020-07-17T06:59:42Z</time>
      </trkpt>
      <trkpt lat="37.6147960" lon="-3.7860330">
        <ele>992.2</ele>
        <time>2020-07-17T06:59:43Z</time>
      </trkpt>
      <trkpt lat="37.6148400" lon="-3.7862790">
        <ele>990.2</ele>
        <time>2020-07-17T06:59:45Z</time>
      </trkpt>
      <trkpt lat="37.6148840" lon="-3.7865010">
        <ele>987.8</ele>
        <time>2020-07-17T06:59:47Z</time>
      </trkpt>
      <trkpt lat="37.6148960" lon="-3.7866090">
        <ele>986.4</ele>
        <time>2020-07-17T06:59:48Z</time>
      </trkpt>
      <trkpt lat="37.6148950" lon="-3.7867180">
        <ele>985.4</ele>
        <time>2020-07-17T06:59:49Z</time>
      </trkpt>
      <trkpt lat="37.6148550" lon="-3.7869310">
        <ele>983.6</ele>
        <time>2020-07-17T06:59:51Z</time>
      </trkpt>
      <trkpt lat="37.6148240" lon="-3.7870390">
        <ele>982.8</ele>
        <time>2020-07-17T06:59:52Z</time>
      </trkpt>
      <trkpt lat="37.6147890" lon="-3.7871520">
        <ele>982.2</ele>
        <time>2020-07-17T06:59:53Z</time>
      </trkpt>
      <trkpt lat="37.6146970" lon="-3.7874510">
        <ele>980.8</ele>
        <time>2020-07-17T06:59:56Z</time>
      </trkpt>
      <trkpt lat="37.6146590" lon="-3.7875470">
        <ele>980.4</ele>
        <time>2020-07-17T06:59:57Z</time>
      </trkpt>
      <trkpt lat="37.6145360" lon="-3.7877840">
        <ele>979.6</ele>
        <time>2020-07-17T07:00:00Z</time>
      </trkpt>
      <trkpt lat="37.6145090" lon="-3.7878670">
        <ele>979.4</ele>
        <time>2020-07-17T07:00:01Z</time>
      </trkpt>
      <trkpt lat="37.6144870" lon="-3.7881540">
        <ele>979.0</ele>
        <time>2020-07-17T07:00:04Z</time>
      </trkpt>
      <trkpt lat="37.6144830" lon="-3.7883650">
        <ele>978.6</ele>
        <time>2020-07-17T07:00:06Z</time>
      </trkpt>
      <trkpt lat="37.6144230" lon="-3.7885700">
        <ele>977.8</ele>
        <time>2020-07-17T07:00:08Z</time>
      </trkpt>
      <trkpt lat="37.6143930" lon="-3.7886620">
        <ele>977.4</ele>
        <time>2020-07-17T07:00:09Z</time>
      </trkpt>
      <trkpt lat="37.6143810" lon="-3.7888520">
        <ele>976.2</ele>
        <time>2020-07-17T07:00:11Z</time>
      </trkpt>
      <trkpt lat="37.6145040" lon="-3.7891200">
        <ele>974.6</ele>
        <time>2020-07-17T07:00:14Z</time>
      </trkpt>
      <trkpt lat="37.6145710" lon="-3.7891960">
        <ele>974.0</ele>
        <time>2020-07-17T07:00:15Z</time>
      </trkpt>
      <trkpt lat="37.6147150" lon="-3.7893620">
        <ele>973.0</ele>
        <time>2020-07-17T07:00:17Z</time>
      </trkpt>
      <trkpt lat="37.6147760" lon="-3.7894570">
        <ele>972.2</ele>
        <time>2020-07-17T07:00:18Z</time>
      </trkpt>
      <trkpt lat="37.6148220" lon="-3.7895550">
        <ele>971.0</ele>
        <time>2020-07-17T07:00:19Z</time>
      </trkpt>
      <trkpt lat="37.6148790" lon="-3.7897580">
        <ele>969.0</ele>
        <time>2020-07-17T07:00:21Z</time>
      </trkpt>
      <trkpt lat="37.6148900" lon="-3.7898710">
        <ele>967.6</ele>
        <time>2020-07-17T07:00:22Z</time>
      </trkpt>
      <trkpt lat="37.6148920" lon="-3.7899950">
        <ele>966.6</ele>
        <time>2020-07-17T07:00:23Z</time>
      </trkpt>
      <trkpt lat="37.6148940" lon="-3.7901070">
        <ele>965.2</ele>
        <time>2020-07-17T07:00:24Z</time>
      </trkpt>
      <trkpt lat="37.6148970" lon="-3.7902360">
        <ele>964.4</ele>
        <time>2020-07-17T07:00:25Z</time>
      </trkpt>
      <trkpt lat="37.6149030" lon="-3.7903520">
        <ele>963.4</ele>
        <time>2020-07-17T07:00:26Z</time>
      </trkpt>
      <trkpt lat="37.6149210" lon="-3.7906040">
        <ele>961.8</ele>
        <time>2020-07-17T07:00:28Z</time>
      </trkpt>
      <trkpt lat="37.6149450" lon="-3.7908740">
        <ele>960.4</ele>
        <time>2020-07-17T07:00:30Z</time>
      </trkpt>
      <trkpt lat="37.6149510" lon="-3.7909980">
        <ele>960.0</ele>
        <time>2020-07-17T07:00:31Z</time>
      </trkpt>
      <trkpt lat="37.6149530" lon="-3.7913990">
        <ele>958.8</ele>
        <time>2020-07-17T07:00:34Z</time>
      </trkpt>
      <trkpt lat="37.6149490" lon="-3.7915510">
        <ele>957.4</ele>
        <time>2020-07-17T07:00:35Z</time>
      </trkpt>
      <trkpt lat="37.6149440" lon="-3.7916780">
        <ele>956.2</ele>
        <time>2020-07-17T07:00:36Z</time>
      </trkpt>
      <trkpt lat="37.6149370" lon="-3.7918170">
        <ele>955.2</ele>
        <time>2020-07-17T07:00:37Z</time>
      </trkpt>
      <trkpt lat="37.6149290" lon="-3.7919400">
        <ele>953.8</ele>
        <time>2020-07-17T07:00:38Z</time>
      </trkpt>
      <trkpt lat="37.6149140" lon="-3.7920620">
        <ele>952.6</ele>
        <time>2020-07-17T07:00:39Z</time>
      </trkpt>
      <trkpt lat="37.6148880" lon="-3.7921730">
        <ele>951.2</ele>
        <time>2020-07-17T07:00:40Z</time>
      </trkpt>
      <trkpt lat="37.6148510" lon="-3.7922880">
        <ele>950.2</ele>
        <time>2020-07-17T07:00:41Z</time>
      </trkpt>
      <trkpt lat="37.6147680" lon="-3.7925240">
        <ele>948.2</ele>
        <time>2020-07-17T07:00:43Z</time>
      </trkpt>
      <trkpt lat="37.6147350" lon="-3.7926470">
        <ele>946.8</ele>
        <time>2020-07-17T07:00:44Z</time>
      </trkpt>
      <trkpt lat="37.6147100" lon="-3.7927750">
        <ele>945.4</ele>
        <time>2020-07-17T07:00:45Z</time>
      </trkpt>
      <trkpt lat="37.6146900" lon="-3.7929080">
        <ele>944.6</ele>
        <time>2020-07-17T07:00:46Z</time>
      </trkpt>
      <trkpt lat="37.6146720" lon="-3.7930510">
        <ele>943.4</ele>
        <time>2020-07-17T07:00:47Z</time>
      </trkpt>
      <trkpt lat="37.6146430" lon="-3.7931900">
        <ele>942.2</ele>
        <time>2020-07-17T07:00:48Z</time>
      </trkpt>
      <trkpt lat="37.6146090" lon="-3.7933230">
        <ele>941.0</ele>
        <time>2020-07-17T07:00:49Z</time>
      </trkpt>
      <trkpt lat="37.6145790" lon="-3.7934520">
        <ele>939.8</ele>
        <time>2020-07-17T07:00:50Z</time>
      </trkpt>
      <trkpt lat="37.6145590" lon="-3.7935760">
        <ele>939.4</ele>
        <time>2020-07-17T07:00:51Z</time>
      </trkpt>
      <trkpt lat="37.6145470" lon="-3.7937110">
        <ele>938.6</ele>
        <time>2020-07-17T07:00:52Z</time>
      </trkpt>
      <trkpt lat="37.6145300" lon="-3.7939820">
        <ele>937.6</ele>
        <time>2020-07-17T07:00:54Z</time>
      </trkpt>
      <trkpt lat="37.6145110" lon="-3.7941080">
        <ele>937.4</ele>
        <time>2020-07-17T07:00:55Z</time>
      </trkpt>
      <trkpt lat="37.6144150" lon="-3.7943340">
        <ele>936.6</ele>
        <time>2020-07-17T07:00:57Z</time>
      </trkpt>
      <trkpt lat="37.6142870" lon="-3.7945390">
        <ele>935.6</ele>
        <time>2020-07-17T07:00:59Z</time>
      </trkpt>
      <trkpt lat="37.6140870" lon="-3.7948360">
        <ele>934.0</ele>
        <time>2020-07-17T07:01:02Z</time>
      </trkpt>
      <trkpt lat="37.6140130" lon="-3.7949260">
        <ele>933.6</ele>
        <time>2020-07-17T07:01:03Z</time>
      </trkpt>
      <trkpt lat="37.6138400" lon="-3.7950690">
        <ele>932.6</ele>
        <time>2020-07-17T07:01:05Z</time>
      </trkpt>
      <trkpt lat="37.6137520" lon="-3.7951260">
        <ele>932.2</ele>
        <time>2020-07-17T07:01:06Z</time>
      </trkpt>
      <trkpt lat="37.6135600" lon="-3.7952570">
        <ele>931.4</ele>
        <time>2020-07-17T07:01:08Z</time>
      </trkpt>
      <trkpt lat="37.6133190" lon="-3.7954850">
        <ele>930.4</ele>
        <time>2020-07-17T07:01:11Z</time>
      </trkpt>
      <trkpt lat="37.6131000" lon="-3.7957980">
        <ele>928.4</ele>
        <time>2020-07-17T07:01:14Z</time>
      </trkpt>
      <trkpt lat="37.6130320" lon="-3.7959010">
        <ele>928.0</ele>
        <time>2020-07-17T07:01:15Z</time>
      </trkpt>
      <trkpt lat="37.6129620" lon="-3.7960060">
        <ele>927.4</ele>
        <time>2020-07-17T07:01:16Z</time>
      </trkpt>
      <trkpt lat="37.6128770" lon="-3.7961030">
        <ele>926.8</ele>
        <time>2020-07-17T07:01:17Z</time>
      </trkpt>
      <trkpt lat="37.6128000" lon="-3.7962000">
        <ele>926.0</ele>
        <time>2020-07-17T07:01:18Z</time>
      </trkpt>
      <trkpt lat="37.6127330" lon="-3.7962990">
        <ele>925.2</ele>
        <time>2020-07-17T07:01:19Z</time>
      </trkpt>
      <trkpt lat="37.6126840" lon="-3.7964000">
        <ele>924.8</ele>
        <time>2020-07-17T07:01:20Z</time>
      </trkpt>
      <trkpt lat="37.6126220" lon="-3.7967310">
        <ele>923.6</ele>
        <time>2020-07-17T07:01:23Z</time>
      </trkpt>
      <trkpt lat="37.6125660" lon="-3.7971450">
        <ele>923.0</ele>
        <time>2020-07-17T07:01:27Z</time>
      </trkpt>
      <trkpt lat="37.6125410" lon="-3.7973470">
        <ele>923.0</ele>
        <time>2020-07-17T07:01:29Z</time>
      </trkpt>
      <trkpt lat="37.6125220" lon="-3.7975520">
        <ele>923.2</ele>
        <time>2020-07-17T07:01:31Z</time>
      </trkpt>
      <trkpt lat="37.6125090" lon="-3.7977620">
        <ele>923.2</ele>
        <time>2020-07-17T07:01:33Z</time>
      </trkpt>
      <trkpt lat="37.6125010" lon="-3.7979560">
        <ele>923.4</ele>
        <time>2020-07-17T07:01:35Z</time>
      </trkpt>
      <trkpt lat="37.6125000" lon="-3.7980430">
        <ele>923.2</ele>
        <time>2020-07-17T07:01:36Z</time>
      </trkpt>
      <trkpt lat="37.6125320" lon="-3.7985760">
        <ele>923.2</ele>
        <time>2020-07-17T07:01:42Z</time>
      </trkpt>
      <trkpt lat="37.6125420" lon="-3.7988210">
        <ele>923.0</ele>
        <time>2020-07-17T07:01:45Z</time>
      </trkpt>
      <trkpt lat="37.6125260" lon="-3.7989800">
        <ele>922.8</ele>
        <time>2020-07-17T07:01:47Z</time>
      </trkpt>
      <trkpt lat="37.6125020" lon="-3.7992190">
        <ele>922.6</ele>
        <time>2020-07-17T07:01:50Z</time>
      </trkpt>
      <trkpt lat="37.6124800" lon="-3.7994760">
        <ele>922.4</ele>
        <time>2020-07-17T07:01:53Z</time>
      </trkpt>
      <trkpt lat="37.6124210" lon="-3.8000220">
        <ele>921.2</ele>
        <time>2020-07-17T07:01:59Z</time>
      </trkpt>
      <trkpt lat="37.6124110" lon="-3.8001200">
        <ele>920.8</ele>
        <time>2020-07-17T07:02:00Z</time>
      </trkpt>
      <trkpt lat="37.6124070" lon="-3.8002170">
        <ele>920.6</ele>
        <time>2020-07-17T07:02:01Z</time>
      </trkpt>
      <trkpt lat="37.6124130" lon="-3.8003280">
        <ele>920.0</ele>
        <time>2020-07-17T07:02:02Z</time>
      </trkpt>
      <trkpt lat="37.6124500" lon="-3.8005350">
        <ele>919.2</ele>
        <time>2020-07-17T07:02:04Z</time>
      </trkpt>
      <trkpt lat="37.6124810" lon="-3.8006500">
        <ele>918.8</ele>
        <time>2020-07-17T07:02:05Z</time>
      </trkpt>
      <trkpt lat="37.6125120" lon="-3.8007540">
        <ele>918.4</ele>
        <time>2020-07-17T07:02:06Z</time>
      </trkpt>
      <trkpt lat="37.6125660" lon="-3.8009950">
        <ele>917.6</ele>
        <time>2020-07-17T07:02:08Z</time>
      </trkpt>
      <trkpt lat="37.6125740" lon="-3.8011170">
        <ele>917.0</ele>
        <time>2020-07-17T07:02:09Z</time>
      </trkpt>
      <trkpt lat="37.6125350" lon="-3.8013330">
        <ele>916.2</ele>
        <time>2020-07-17T07:02:11Z</time>
      </trkpt>
      <trkpt lat="37.6124850" lon="-3.8014370">
        <ele>915.8</ele>
        <time>2020-07-17T07:02:12Z</time>
      </trkpt>
      <trkpt lat="37.6123710" lon="-3.8016190">
        <ele>915.0</ele>
        <time>2020-07-17T07:02:14Z</time>
      </trkpt>
      <trkpt lat="37.6121740" lon="-3.8018910">
        <ele>914.2</ele>
        <time>2020-07-17T07:02:17Z</time>
      </trkpt>
      <trkpt lat="37.6121090" lon="-3.8019830">
        <ele>914.0</ele>
        <time>2020-07-17T07:02:18Z</time>
      </trkpt>
      <trkpt lat="37.6119880" lon="-3.8021810">
        <ele>913.0</ele>
        <time>2020-07-17T07:02:20Z</time>
      </trkpt>
      <trkpt lat="37.6119350" lon="-3.8022750">
        <ele>913.0</ele>
        <time>2020-07-17T07:02:21Z</time>
      </trkpt>
      <trkpt lat="37.6118800" lon="-3.8023720">
        <ele>912.6</ele>
        <time>2020-07-17T07:02:22Z</time>
      </trkpt>
      <trkpt lat="37.6117820" lon="-3.8025750">
        <ele>911.8</ele>
        <time>2020-07-17T07:02:24Z</time>
      </trkpt>
      <trkpt lat="37.6117240" lon="-3.8027830">
        <ele>910.6</ele>
        <time>2020-07-17T07:02:26Z</time>
      </trkpt>
      <trkpt lat="37.6115870" lon="-3.8033270">
        <ele>909.4</ele>
        <time>2020-07-17T07:02:31Z</time>
      </trkpt>
      <trkpt lat="37.6114870" lon="-3.8035440">
        <ele>909.2</ele>
        <time>2020-07-17T07:02:33Z</time>
      </trkpt>
      <trkpt lat="37.6112780" lon="-3.8040250">
        <ele>908.0</ele>
        <time>2020-07-17T07:02:38Z</time>
      </trkpt>
      <trkpt lat="37.6111320" lon="-3.8044170">
        <ele>906.8</ele>
        <time>2020-07-17T07:02:42Z</time>
      </trkpt>
      <trkpt lat="37.6110960" lon="-3.8045130">
        <ele>906.6</ele>
        <time>2020-07-17T07:02:43Z</time>
      </trkpt>
      <trkpt lat="37.6108880" lon="-3.8050930">
        <ele>905.8</ele>
        <time>2020-07-17T07:02:49Z</time>
      </trkpt>
      <trkpt lat="37.6108560" lon="-3.8051900">
        <ele>905.6</ele>
        <time>2020-07-17T07:02:50Z</time>
      </trkpt>
      <trkpt lat="37.6107600" lon="-3.8054700">
        <ele>905.2</ele>
        <time>2020-07-17T07:02:53Z</time>
      </trkpt>
      <trkpt lat="37.6106220" lon="-3.8059180">
        <ele>905.0</ele>
        <time>2020-07-17T07:02:58Z</time>
      </trkpt>
      <trkpt lat="37.6105500" lon="-3.8061850">
        <ele>905.0</ele>
        <time>2020-07-17T07:03:01Z</time>
      </trkpt>
      <trkpt lat="37.6104690" lon="-3.8064450">
        <ele>904.6</ele>
        <time>2020-07-17T07:03:04Z</time>
      </trkpt>
      <trkpt lat="37.6103070" lon="-3.8068880">
        <ele>904.2</ele>
        <time>2020-07-17T07:03:09Z</time>
      </trkpt>
      <trkpt lat="37.6102420" lon="-3.8070760">
        <ele>903.6</ele>
        <time>2020-07-17T07:03:11Z</time>
      </trkpt>
      <trkpt lat="37.6101770" lon="-3.8072930">
        <ele>902.6</ele>
        <time>2020-07-17T07:03:13Z</time>
      </trkpt>
      <trkpt lat="37.6101150" lon="-3.8075140">
        <ele>901.8</ele>
        <time>2020-07-17T07:03:15Z</time>
      </trkpt>
      <trkpt lat="37.6100880" lon="-3.8076120">
        <ele>901.4</ele>
        <time>2020-07-17T07:03:16Z</time>
      </trkpt>
      <trkpt lat="37.6099820" lon="-3.8079600">
        <ele>899.8</ele>
        <time>2020-07-17T07:03:19Z</time>
      </trkpt>
      <trkpt lat="37.6099050" lon="-3.8081880">
        <ele>898.4</ele>
        <time>2020-07-17T07:03:21Z</time>
      </trkpt>
      <trkpt lat="37.6098630" lon="-3.8083050">
        <ele>897.6</ele>
        <time>2020-07-17T07:03:22Z</time>
      </trkpt>
      <trkpt lat="37.6098210" lon="-3.8084220">
        <ele>897.0</ele>
        <time>2020-07-17T07:03:23Z</time>
      </trkpt>
      <trkpt lat="37.6097500" lon="-3.8086100">
        <ele>895.6</ele>
        <time>2020-07-17T07:03:25Z</time>
      </trkpt>
      <trkpt lat="37.6097280" lon="-3.8086880">
        <ele>894.8</ele>
        <time>2020-07-17T07:03:26Z</time>
      </trkpt>
      <trkpt lat="37.6097120" lon="-3.8087830">
        <ele>894.0</ele>
        <time>2020-07-17T07:03:27Z</time>
      </trkpt>
      <trkpt lat="37.6096920" lon="-3.8089660">
        <ele>893.0</ele>
        <time>2020-07-17T07:03:29Z</time>
      </trkpt>
      <trkpt lat="37.6096720" lon="-3.8090510">
        <ele>892.6</ele>
        <time>2020-07-17T07:03:30Z</time>
      </trkpt>
      <trkpt lat="37.6095770" lon="-3.8092730">
        <ele>892.4</ele>
        <time>2020-07-17T07:03:33Z</time>
      </trkpt>
      <trkpt lat="37.6095430" lon="-3.8093330">
        <ele>892.6</ele>
        <time>2020-07-17T07:03:34Z</time>
      </trkpt>
      <trkpt lat="37.6092330" lon="-3.8098710">
        <ele>893.0</ele>
        <time>2020-07-17T07:03:42Z</time>
      </trkpt>
      <trkpt lat="37.6090980" lon="-3.8100670">
        <ele>892.4</ele>
        <time>2020-07-17T07:03:45Z</time>
      </trkpt>
      <trkpt lat="37.6090520" lon="-3.8100970">
        <ele>892.4</ele>
        <time>2020-07-17T07:03:46Z</time>
      </trkpt>
      <trkpt lat="37.6089170" lon="-3.8101270">
        <ele>891.8</ele>
        <time>2020-07-17T07:03:48Z</time>
      </trkpt>
      <trkpt lat="37.6088440" lon="-3.8101290">
        <ele>891.2</ele>
        <time>2020-07-17T07:03:49Z</time>
      </trkpt>
      <trkpt lat="37.6087740" lon="-3.8101310">
        <ele>890.6</ele>
        <time>2020-07-17T07:03:50Z</time>
      </trkpt>
      <trkpt lat="37.6085430" lon="-3.8101480">
        <ele>889.6</ele>
        <time>2020-07-17T07:03:53Z</time>
      </trkpt>
      <trkpt lat="37.6084720" lon="-3.8101690">
        <ele>889.4</ele>
        <time>2020-07-17T07:03:54Z</time>
      </trkpt>
      <trkpt lat="37.6083980" lon="-3.8102080">
        <ele>889.2</ele>
        <time>2020-07-17T07:03:55Z</time>
      </trkpt>
      <trkpt lat="37.6080650" lon="-3.8104650">
        <ele>888.4</ele>
        <time>2020-07-17T07:04:00Z</time>
      </trkpt>
      <trkpt lat="37.6076400" lon="-3.8109000">
        <ele>887.6</ele>
        <time>2020-07-17T07:04:07Z</time>
      </trkpt>
      <trkpt lat="37.6075840" lon="-3.8109660">
        <ele>887.6</ele>
        <time>2020-07-17T07:04:08Z</time>
      </trkpt>
      <trkpt lat="37.6074200" lon="-3.8111240">
        <ele>887.6</ele>
        <time>2020-07-17T07:04:11Z</time>
      </trkpt>
      <trkpt lat="37.6073610" lon="-3.8111560">
        <ele>887.8</ele>
        <time>2020-07-17T07:04:12Z</time>
      </trkpt>
      <trkpt lat="37.6072170" lon="-3.8112070">
        <ele>888.8</ele>
        <time>2020-07-17T07:04:15Z</time>
      </trkpt>
      <trkpt lat="37.6071800" lon="-3.8112180">
        <ele>889.2</ele>
        <time>2020-07-17T07:04:16Z</time>
      </trkpt>
      <trkpt lat="37.6071410" lon="-3.8112290">
        <ele>889.6</ele>
        <time>2020-07-17T07:04:17Z</time>
      </trkpt>
      <trkpt lat="37.6070480" lon="-3.8112480">
        <ele>890.6</ele>
        <time>2020-07-17T07:04:19Z</time>
      </trkpt>
      <trkpt lat="37.6069750" lon="-3.8112670">
        <ele>891.6</ele>
        <time>2020-07-17T07:04:21Z</time>
      </trkpt>
      <trkpt lat="37.6069370" lon="-3.8112760">
        <ele>892.0</ele>
        <time>2020-07-17T07:04:22Z</time>
      </trkpt>
      <trkpt lat="37.6069030" lon="-3.8112830">
        <ele>892.4</ele>
        <time>2020-07-17T07:04:23Z</time>
      </trkpt>
      <trkpt lat="37.6068390" lon="-3.8112990">
        <ele>893.4</ele>
        <time>2020-07-17T07:04:25Z</time>
      </trkpt>
      <trkpt lat="37.6067800" lon="-3.8113110">
        <ele>894.0</ele>
        <time>2020-07-17T07:04:27Z</time>
      </trkpt>
      <trkpt lat="37.6067230" lon="-3.8113210">
        <ele>894.6</ele>
        <time>2020-07-17T07:04:29Z</time>
      </trkpt>
      <trkpt lat="37.6066940" lon="-3.8113280">
        <ele>894.8</ele>
        <time>2020-07-17T07:04:30Z</time>
      </trkpt>
      <trkpt lat="37.6066390" lon="-3.8113420">
        <ele>895.4</ele>
        <time>2020-07-17T07:04:32Z</time>
      </trkpt>
      <trkpt lat="37.6066120" lon="-3.8113500">
        <ele>895.6</ele>
        <time>2020-07-17T07:04:33Z</time>
      </trkpt>
      <trkpt lat="37.6065030" lon="-3.8113680">
        <ele>896.8</ele>
        <time>2020-07-17T07:04:37Z</time>
      </trkpt>
      <trkpt lat="37.6064530" lon="-3.8113760">
        <ele>897.2</ele>
        <time>2020-07-17T07:04:39Z</time>
      </trkpt>
      <trkpt lat="37.6064090" lon="-3.8113870">
        <ele>897.8</ele>
        <time>2020-07-17T07:04:41Z</time>
      </trkpt>
      <trkpt lat="37.6063160" lon="-3.8114180">
        <ele>898.8</ele>
        <time>2020-07-17T07:04:45Z</time>
      </trkpt>
      <trkpt lat="37.6062960" lon="-3.8114250">
        <ele>899.0</ele>
        <time>2020-07-17T07:04:46Z</time>
      </trkpt>
      <trkpt lat="37.6062250" lon="-3.8114410">
        <ele>899.8</ele>
        <time>2020-07-17T07:04:49Z</time>
      </trkpt>
      <trkpt lat="37.6062030" lon="-3.8114470">
        <ele>900.0</ele>
        <time>2020-07-17T07:04:50Z</time>
      </trkpt>
      <trkpt lat="37.6061160" lon="-3.8114890">
        <ele>901.2</ele>
        <time>2020-07-17T07:04:54Z</time>
      </trkpt>
      <trkpt lat="37.6060580" lon="-3.8115450">
        <ele>901.8</ele>
        <time>2020-07-17T07:04:57Z</time>
      </trkpt>
      <trkpt lat="37.6060410" lon="-3.8115630">
        <ele>902.2</ele>
        <time>2020-07-17T07:04:58Z</time>
      </trkpt>
      <trkpt lat="37.6059890" lon="-3.8116270">
        <ele>903.0</ele>
        <time>2020-07-17T07:05:01Z</time>
      </trkpt>
      <trkpt lat="37.6059640" lon="-3.8116420">
        <ele>903.2</ele>
        <time>2020-07-17T07:05:02Z</time>
      </trkpt>
      <trkpt lat="37.6059360" lon="-3.8116510">
        <ele>903.4</ele>
        <time>2020-07-17T07:05:03Z</time>
      </trkpt>
      <trkpt lat="37.6057800" lon="-3.8116010">
        <ele>903.8</ele>
        <time>2020-07-17T07:05:07Z</time>
      </trkpt>
      <trkpt lat="37.6055010" lon="-3.8114550">
        <ele>903.2</ele>
        <time>2020-07-17T07:05:12Z</time>
      </trkpt>
      <trkpt lat="37.6052290" lon="-3.8113010">
        <ele>902.0</ele>
        <time>2020-07-17T07:05:16Z</time>
      </trkpt>
      <trkpt lat="37.6050670" lon="-3.8112090">
        <ele>901.2</ele>
        <time>2020-07-17T07:05:18Z</time>
      </trkpt>
      <trkpt lat="37.6049850" lon="-3.8111620">
        <ele>900.8</ele>
        <time>2020-07-17T07:05:19Z</time>
      </trkpt>
      <trkpt lat="37.6048250" lon="-3.8110630">
        <ele>900.0</ele>
        <time>2020-07-17T07:05:21Z</time>
      </trkpt>
      <trkpt lat="37.6047390" lon="-3.8110070">
        <ele>899.6</ele>
        <time>2020-07-17T07:05:22Z</time>
      </trkpt>
      <trkpt lat="37.6045630" lon="-3.8108810">
        <ele>898.6</ele>
        <time>2020-07-17T07:05:24Z</time>
      </trkpt>
      <trkpt lat="37.6044800" lon="-3.8108210">
        <ele>898.2</ele>
        <time>2020-07-17T07:05:25Z</time>
      </trkpt>
      <trkpt lat="37.6043090" lon="-3.8107070">
        <ele>897.2</ele>
        <time>2020-07-17T07:05:27Z</time>
      </trkpt>
      <trkpt lat="37.6042270" lon="-3.8106590">
        <ele>896.6</ele>
        <time>2020-07-17T07:05:28Z</time>
      </trkpt>
      <trkpt lat="37.6040380" lon="-3.8105560">
        <ele>895.6</ele>
        <time>2020-07-17T07:05:30Z</time>
      </trkpt>
      <trkpt lat="37.6039450" lon="-3.8105160">
        <ele>895.0</ele>
        <time>2020-07-17T07:05:31Z</time>
      </trkpt>
      <trkpt lat="37.6038390" lon="-3.8104820">
        <ele>894.2</ele>
        <time>2020-07-17T07:05:32Z</time>
      </trkpt>
      <trkpt lat="37.6036380" lon="-3.8104480">
        <ele>892.8</ele>
        <time>2020-07-17T07:05:34Z</time>
      </trkpt>
      <trkpt lat="37.6034220" lon="-3.8104470">
        <ele>891.8</ele>
        <time>2020-07-17T07:05:36Z</time>
      </trkpt>
      <trkpt lat="37.6033040" lon="-3.8104580">
        <ele>891.4</ele>
        <time>2020-07-17T07:05:37Z</time>
      </trkpt>
      <trkpt lat="37.6031900" lon="-3.8104760">
        <ele>890.8</ele>
        <time>2020-07-17T07:05:38Z</time>
      </trkpt>
      <trkpt lat="37.6030740" lon="-3.8104990">
        <ele>890.2</ele>
        <time>2020-07-17T07:05:39Z</time>
      </trkpt>
      <trkpt lat="37.6028550" lon="-3.8105490">
        <ele>889.2</ele>
        <time>2020-07-17T07:05:41Z</time>
      </trkpt>
      <trkpt lat="37.6026290" lon="-3.8106150">
        <ele>888.2</ele>
        <time>2020-07-17T07:05:43Z</time>
      </trkpt>
      <trkpt lat="37.6025170" lon="-3.8106520">
        <ele>887.6</ele>
        <time>2020-07-17T07:05:44Z</time>
      </trkpt>
      <trkpt lat="37.6024030" lon="-3.8106980">
        <ele>887.0</ele>
        <time>2020-07-17T07:05:45Z</time>
      </trkpt>
      <trkpt lat="37.6023050" lon="-3.8107510">
        <ele>886.2</ele>
        <time>2020-07-17T07:05:46Z</time>
      </trkpt>
      <trkpt lat="37.6020770" lon="-3.8109190">
        <ele>884.8</ele>
        <time>2020-07-17T07:05:48Z</time>
      </trkpt>
      <trkpt lat="37.6018700" lon="-3.8111060">
        <ele>883.2</ele>
        <time>2020-07-17T07:05:50Z</time>
      </trkpt>
      <trkpt lat="37.6016740" lon="-3.8112870">
        <ele>881.8</ele>
        <time>2020-07-17T07:05:52Z</time>
      </trkpt>
      <trkpt lat="37.6014590" lon="-3.8114560">
        <ele>880.2</ele>
        <time>2020-07-17T07:05:54Z</time>
      </trkpt>
      <trkpt lat="37.6013490" lon="-3.8115210">
        <ele>879.2</ele>
        <time>2020-07-17T07:05:55Z</time>
      </trkpt>
      <trkpt lat="37.6012440" lon="-3.8115670">
        <ele>878.0</ele>
        <time>2020-07-17T07:05:56Z</time>
      </trkpt>
      <trkpt lat="37.6011140" lon="-3.8116110">
        <ele>877.2</ele>
        <time>2020-07-17T07:05:57Z</time>
      </trkpt>
      <trkpt lat="37.6009970" lon="-3.8116440">
        <ele>876.2</ele>
        <time>2020-07-17T07:05:58Z</time>
      </trkpt>
      <trkpt lat="37.6007390" lon="-3.8117090">
        <ele>874.6</ele>
        <time>2020-07-17T07:06:00Z</time>
      </trkpt>
      <trkpt lat="37.6004940" lon="-3.8117400">
        <ele>873.2</ele>
        <time>2020-07-17T07:06:02Z</time>
      </trkpt>
      <trkpt lat="37.6001470" lon="-3.8117190">
        <ele>872.0</ele>
        <time>2020-07-17T07:06:05Z</time>
      </trkpt>
      <trkpt lat="37.6000430" lon="-3.8117010">
        <ele>871.8</ele>
        <time>2020-07-17T07:06:06Z</time>
      </trkpt>
      <trkpt lat="37.5999280" lon="-3.8116810">
        <ele>871.6</ele>
        <time>2020-07-17T07:06:07Z</time>
      </trkpt>
      <trkpt lat="37.5997210" lon="-3.8116490">
        <ele>871.4</ele>
        <time>2020-07-17T07:06:09Z</time>
      </trkpt>
      <trkpt lat="37.5994350" lon="-3.8116120">
        <ele>871.8</ele>
        <time>2020-07-17T07:06:12Z</time>
      </trkpt>
      <trkpt lat="37.5991830" lon="-3.8116340">
        <ele>872.6</ele>
        <time>2020-07-17T07:06:15Z</time>
      </trkpt>
      <trkpt lat="37.5991170" lon="-3.8116570">
        <ele>872.8</ele>
        <time>2020-07-17T07:06:16Z</time>
      </trkpt>
      <trkpt lat="37.5990320" lon="-3.8116920">
        <ele>873.0</ele>
        <time>2020-07-17T07:06:17Z</time>
      </trkpt>
      <trkpt lat="37.5986760" lon="-3.8118300">
        <ele>872.8</ele>
        <time>2020-07-17T07:06:22Z</time>
      </trkpt>
      <trkpt lat="37.5984130" lon="-3.8119100">
        <ele>872.6</ele>
        <time>2020-07-17T07:06:26Z</time>
      </trkpt>
      <trkpt lat="37.5982240" lon="-3.8119780">
        <ele>872.4</ele>
        <time>2020-07-17T07:06:29Z</time>
      </trkpt>
      <trkpt lat="37.5980480" lon="-3.8120850">
        <ele>872.2</ele>
        <time>2020-07-17T07:06:32Z</time>
      </trkpt>
      <trkpt lat="37.5979950" lon="-3.8121330">
        <ele>872.2</ele>
        <time>2020-07-17T07:06:33Z</time>
      </trkpt>
      <trkpt lat="37.5979490" lon="-3.8121840">
        <ele>872.2</ele>
        <time>2020-07-17T07:06:34Z</time>
      </trkpt>
      <trkpt lat="37.5978580" lon="-3.8122960">
        <ele>872.4</ele>
        <time>2020-07-17T07:06:36Z</time>
      </trkpt>
      <trkpt lat="37.5976690" lon="-3.8125580">
        <ele>872.0</ele>
        <time>2020-07-17T07:06:40Z</time>
      </trkpt>
      <trkpt lat="37.5976210" lon="-3.8126250">
        <ele>871.8</ele>
        <time>2020-07-17T07:06:41Z</time>
      </trkpt>
      <trkpt lat="37.5974090" lon="-3.8128820">
        <ele>871.4</ele>
        <time>2020-07-17T07:06:45Z</time>
      </trkpt>
      <trkpt lat="37.5973550" lon="-3.8129280">
        <ele>871.2</ele>
        <time>2020-07-17T07:06:46Z</time>
      </trkpt>
      <trkpt lat="37.5972820" lon="-3.8129780">
        <ele>871.0</ele>
        <time>2020-07-17T07:06:47Z</time>
      </trkpt>
      <trkpt lat="37.5972150" lon="-3.8130170">
        <ele>870.8</ele>
        <time>2020-07-17T07:06:48Z</time>
      </trkpt>
      <trkpt lat="37.5970760" lon="-3.8130790">
        <ele>870.4</ele>
        <time>2020-07-17T07:06:50Z</time>
      </trkpt>
      <trkpt lat="37.5969280" lon="-3.8131230">
        <ele>870.0</ele>
        <time>2020-07-17T07:06:52Z</time>
      </trkpt>
      <trkpt lat="37.5968500" lon="-3.8131420">
        <ele>869.8</ele>
        <time>2020-07-17T07:06:53Z</time>
      </trkpt>
      <trkpt lat="37.5965570" lon="-3.8132190">
        <ele>869.2</ele>
        <time>2020-07-17T07:06:57Z</time>
      </trkpt>
      <trkpt lat="37.5964120" lon="-3.8132620">
        <ele>868.8</ele>
        <time>2020-07-17T07:06:59Z</time>
      </trkpt>
      <trkpt lat="37.5961900" lon="-3.8133480">
        <ele>868.2</ele>
        <time>2020-07-17T07:07:02Z</time>
      </trkpt>
      <trkpt lat="37.5960570" lon="-3.8134330">
        <ele>867.8</ele>
        <time>2020-07-17T07:07:04Z</time>
      </trkpt>
      <trkpt lat="37.5959940" lon="-3.8134970">
        <ele>867.6</ele>
        <time>2020-07-17T07:07:05Z</time>
      </trkpt>
      <trkpt lat="37.5958550" lon="-3.8137130">
        <ele>867.2</ele>
        <time>2020-07-17T07:07:08Z</time>
      </trkpt>
      <trkpt lat="37.5958150" lon="-3.8137870">
        <ele>867.2</ele>
        <time>2020-07-17T07:07:09Z</time>
      </trkpt>
      <trkpt lat="37.5957330" lon="-3.8139190">
        <ele>867.0</ele>
        <time>2020-07-17T07:07:11Z</time>
      </trkpt>
      <trkpt lat="37.5956200" lon="-3.8140360">
        <ele>866.8</ele>
        <time>2020-07-17T07:07:13Z</time>
      </trkpt>
      <trkpt lat="37.5955610" lon="-3.8140880">
        <ele>866.8</ele>
        <time>2020-07-17T07:07:14Z</time>
      </trkpt>
      <trkpt lat="37.5954980" lon="-3.8141370">
        <ele>866.8</ele>
        <time>2020-07-17T07:07:15Z</time>
      </trkpt>
      <trkpt lat="37.5953700" lon="-3.8142310">
        <ele>866.8</ele>
        <time>2020-07-17T07:07:17Z</time>
      </trkpt>
      <trkpt lat="37.5952370" lon="-3.8143230">
        <ele>866.6</ele>
        <time>2020-07-17T07:07:19Z</time>
      </trkpt>
      <trkpt lat="37.5950350" lon="-3.8144560">
        <ele>866.0</ele>
        <time>2020-07-17T07:07:22Z</time>
      </trkpt>
      <trkpt lat="37.5948810" lon="-3.8145490">
        <ele>865.8</ele>
        <time>2020-07-17T07:07:24Z</time>
      </trkpt>
      <trkpt lat="37.5947340" lon="-3.8146220">
        <ele>865.4</ele>
        <time>2020-07-17T07:07:26Z</time>
      </trkpt>
      <trkpt lat="37.5944950" lon="-3.8147120">
        <ele>864.8</ele>
        <time>2020-07-17T07:07:29Z</time>
      </trkpt>
      <trkpt lat="37.5942620" lon="-3.8147760">
        <ele>864.6</ele>
        <time>2020-07-17T07:07:32Z</time>
      </trkpt>
      <trkpt lat="37.5941870" lon="-3.8147940">
        <ele>864.4</ele>
        <time>2020-07-17T07:07:33Z</time>
      </trkpt>
      <trkpt lat="37.5940380" lon="-3.8148320">
        <ele>864.6</ele>
        <time>2020-07-17T07:07:35Z</time>
      </trkpt>
      <trkpt lat="37.5938300" lon="-3.8148910">
        <ele>864.4</ele>
        <time>2020-07-17T07:07:38Z</time>
      </trkpt>
      <trkpt lat="37.5937640" lon="-3.8149140">
        <ele>864.4</ele>
        <time>2020-07-17T07:07:39Z</time>
      </trkpt>
      <trkpt lat="37.5935040" lon="-3.8150590">
        <ele>864.4</ele>
        <time>2020-07-17T07:07:43Z</time>
      </trkpt>
      <trkpt lat="37.5934500" lon="-3.8151070">
        <ele>864.6</ele>
        <time>2020-07-17T07:07:44Z</time>
      </trkpt>
      <trkpt lat="37.5933120" lon="-3.8152550">
        <ele>864.6</ele>
        <time>2020-07-17T07:07:47Z</time>
      </trkpt>
      <trkpt lat="37.5931930" lon="-3.8153960">
        <ele>865.0</ele>
        <time>2020-07-17T07:07:50Z</time>
      </trkpt>
      <trkpt lat="37.5931260" lon="-3.8154890">
        <ele>865.4</ele>
        <time>2020-07-17T07:07:52Z</time>
      </trkpt>
      <trkpt lat="37.5930670" lon="-3.8155720">
        <ele>865.8</ele>
        <time>2020-07-17T07:07:54Z</time>
      </trkpt>
      <trkpt lat="37.5930160" lon="-3.8156340">
        <ele>866.4</ele>
        <time>2020-07-17T07:07:56Z</time>
      </trkpt>
      <trkpt lat="37.5929820" lon="-3.8156650">
        <ele>866.6</ele>
        <time>2020-07-17T07:07:57Z</time>
      </trkpt>
      <trkpt lat="37.5929170" lon="-3.8157570">
        <ele>867.8</ele>
        <time>2020-07-17T07:08:00Z</time>
      </trkpt>
      <trkpt lat="37.5928470" lon="-3.8158260">
        <ele>868.6</ele>
        <time>2020-07-17T07:08:03Z</time>
      </trkpt>
      <trkpt lat="37.5928230" lon="-3.8158420">
        <ele>869.0</ele>
        <time>2020-07-17T07:08:04Z</time>
      </trkpt>
      <trkpt lat="37.5927730" lon="-3.8158820">
        <ele>869.6</ele>
        <time>2020-07-17T07:08:06Z</time>
      </trkpt>
      <trkpt lat="37.5927320" lon="-3.8159180">
        <ele>870.2</ele>
        <time>2020-07-17T07:08:08Z</time>
      </trkpt>
      <trkpt lat="37.5926780" lon="-3.8159350">
        <ele>870.6</ele>
        <time>2020-07-17T07:08:10Z</time>
      </trkpt>
      <trkpt lat="37.5926190" lon="-3.8159410">
        <ele>871.2</ele>
        <time>2020-07-17T07:08:12Z</time>
      </trkpt>
      <trkpt lat="37.5925030" lon="-3.8159390">
        <ele>872.2</ele>
        <time>2020-07-17T07:08:16Z</time>
      </trkpt>
      <trkpt lat="37.5924700" lon="-3.8159370">
        <ele>872.4</ele>
        <time>2020-07-17T07:08:17Z</time>
      </trkpt>
      <trkpt lat="37.5923240" lon="-3.8159380">
        <ele>873.6</ele>
        <time>2020-07-17T07:08:22Z</time>
      </trkpt>
      <trkpt lat="37.5922660" lon="-3.8159380">
        <ele>874.0</ele>
        <time>2020-07-17T07:08:24Z</time>
      </trkpt>
      <trkpt lat="37.5921840" lon="-3.8159460">
        <ele>874.8</ele>
        <time>2020-07-17T07:08:27Z</time>
      </trkpt>
      <trkpt lat="37.5920530" lon="-3.8159610">
        <ele>875.8</ele>
        <time>2020-07-17T07:08:32Z</time>
      </trkpt>
      <trkpt lat="37.5920020" lon="-3.8159700">
        <ele>876.4</ele>
        <time>2020-07-17T07:08:34Z</time>
      </trkpt>
      <trkpt lat="37.5919230" lon="-3.8159880">
        <ele>877.0</ele>
        <time>2020-07-17T07:08:37Z</time>
      </trkpt>
      <trkpt lat="37.5917910" lon="-3.8160300">
        <ele>878.2</ele>
        <time>2020-07-17T07:08:42Z</time>
      </trkpt>
      <trkpt lat="37.5917030" lon="-3.8160850">
        <ele>879.2</ele>
        <time>2020-07-17T07:08:46Z</time>
      </trkpt>
      <trkpt lat="37.5916670" lon="-3.8161380">
        <ele>879.8</ele>
        <time>2020-07-17T07:08:48Z</time>
      </trkpt>
      <trkpt lat="37.5916470" lon="-3.8161970">
        <ele>880.4</ele>
        <time>2020-07-17T07:08:50Z</time>
      </trkpt>
      <trkpt lat="37.5916480" lon="-3.8162790">
        <ele>881.2</ele>
        <time>2020-07-17T07:08:53Z</time>
      </trkpt>
      <trkpt lat="37.5916420" lon="-3.8163150">
        <ele>881.4</ele>
        <time>2020-07-17T07:08:54Z</time>
      </trkpt>
      <trkpt lat="37.5916230" lon="-3.8164020">
        <ele>882.0</ele>
        <time>2020-07-17T07:08:57Z</time>
      </trkpt>
      <trkpt lat="37.5916170" lon="-3.8164460">
        <ele>882.4</ele>
        <time>2020-07-17T07:08:59Z</time>
      </trkpt>
      <trkpt lat="37.5916070" lon="-3.8164990">
        <ele>883.0</ele>
        <time>2020-07-17T07:09:02Z</time>
      </trkpt>
      <trkpt lat="37.5915890" lon="-3.8165860">
        <ele>883.4</ele>
        <time>2020-07-17T07:09:05Z</time>
      </trkpt>
      <trkpt lat="37.5915860" lon="-3.8166170">
        <ele>883.6</ele>
        <time>2020-07-17T07:09:06Z</time>
      </trkpt>
      <trkpt lat="37.5915380" lon="-3.8167330">
        <ele>884.6</ele>
        <time>2020-07-17T07:09:10Z</time>
      </trkpt>
      <trkpt lat="37.5915300" lon="-3.8167720">
        <ele>884.8</ele>
        <time>2020-07-17T07:09:11Z</time>
      </trkpt>
      <trkpt lat="37.5915130" lon="-3.8168710">
        <ele>885.6</ele>
        <time>2020-07-17T07:09:14Z</time>
      </trkpt>
      <trkpt lat="37.5914570" lon="-3.8169860">
        <ele>886.4</ele>
        <time>2020-07-17T07:09:18Z</time>
      </trkpt>
      <trkpt lat="37.5914300" lon="-3.8170080">
        <ele>886.6</ele>
        <time>2020-07-17T07:09:19Z</time>
      </trkpt>
      <trkpt lat="37.5913170" lon="-3.8171010">
        <ele>887.6</ele>
        <time>2020-07-17T07:09:24Z</time>
      </trkpt>
      <trkpt lat="37.5913000" lon="-3.8171160">
        <ele>887.8</ele>
        <time>2020-07-17T07:09:25Z</time>
      </trkpt>
      <trkpt lat="37.5912850" lon="-3.8171310">
        <ele>888.0</ele>
        <time>2020-07-17T07:09:28Z</time>
      </trkpt>
      <trkpt lat="37.5912800" lon="-3.8171660">
        <ele>888.4</ele>
        <time>2020-07-17T07:09:38Z</time>
      </trkpt>
      <trkpt lat="37.5912530" lon="-3.8171880">
        <ele>888.6</ele>
        <time>2020-07-17T07:09:40Z</time>
      </trkpt>
      <trkpt lat="37.5912500" lon="-3.8171920">
        <ele>888.6</ele>
        <time>2020-07-17T07:09:42Z</time>
      </trkpt>
      <trkpt lat="37.5912170" lon="-3.8172230">
        <ele>888.6</ele>
        <time>2020-07-17T07:09:44Z</time>
      </trkpt>
      <trkpt lat="37.5911800" lon="-3.8172440">
        <ele>888.8</ele>
        <time>2020-07-17T07:09:46Z</time>
      </trkpt>
      <trkpt lat="37.5911490" lon="-3.8172980">
        <ele>888.8</ele>
        <time>2020-07-17T07:09:48Z</time>
      </trkpt>
      <trkpt lat="37.5911210" lon="-3.8173570">
        <ele>889.0</ele>
        <time>2020-07-17T07:09:50Z</time>
      </trkpt>
      <trkpt lat="37.5911020" lon="-3.8174060">
        <ele>889.2</ele>
        <time>2020-07-17T07:09:52Z</time>
      </trkpt>
      <trkpt lat="37.5910880" lon="-3.8174400">
        <ele>889.2</ele>
        <time>2020-07-17T07:09:53Z</time>
      </trkpt>
      <trkpt lat="37.5910530" lon="-3.8175290">
        <ele>889.4</ele>
        <time>2020-07-17T07:09:56Z</time>
      </trkpt>
      <trkpt lat="37.5910520" lon="-3.8175630">
        <ele>889.4</ele>
        <time>2020-07-17T07:09:58Z</time>
      </trkpt>
      <trkpt lat="37.5910550" lon="-3.8175680">
        <ele>889.4</ele>
        <time>2020-07-17T07:09:59Z</time>
      </trkpt>
      <trkpt lat="37.5910540" lon="-3.8175660">
        <ele>889.4</ele>
        <time>2020-07-17T07:10:00Z</time>
      </trkpt>
      <trkpt lat="37.5910420" lon="-3.8176030">
        <ele>889.2</ele>
        <time>2020-07-17T07:10:02Z</time>
      </trkpt>
      <trkpt lat="37.5910280" lon="-3.8176440">
        <ele>889.2</ele>
        <time>2020-07-17T07:10:04Z</time>
      </trkpt>
      <trkpt lat="37.5910180" lon="-3.8176700">
        <ele>889.2</ele>
        <time>2020-07-17T07:10:05Z</time>
      </trkpt>
      <trkpt lat="37.5909860" lon="-3.8177140">
        <ele>889.0</ele>
        <time>2020-07-17T07:10:07Z</time>
      </trkpt>
      <trkpt lat="37.5909730" lon="-3.8177340">
        <ele>888.8</ele>
        <time>2020-07-17T07:10:09Z</time>
      </trkpt>
      <trkpt lat="37.5909740" lon="-3.8177310">
        <ele>888.8</ele>
        <time>2020-07-17T07:10:10Z</time>
      </trkpt>
      <trkpt lat="37.5909050" lon="-3.8177490">
        <ele>888.8</ele>
        <time>2020-07-17T07:31:05Z</time>
      </trkpt>
      <trkpt lat="37.5909060" lon="-3.8177390">
        <ele>888.8</ele>
        <time>2020-07-17T07:31:06Z</time>
      </trkpt>
      <trkpt lat="37.5909150" lon="-3.8177330">
        <ele>888.8</ele>
        <time>2020-07-17T07:31:08Z</time>
      </trkpt>
      <trkpt lat="37.5909250" lon="-3.8177250">
        <ele>888.8</ele>
        <time>2020-07-17T07:31:11Z</time>
      </trkpt>
      <trkpt lat="37.5909710" lon="-3.8176770">
        <ele>889.0</ele>
        <time>2020-07-17T07:31:56Z</time>
      </trkpt>
      <trkpt lat="37.5909730" lon="-3.8176380">
        <ele>889.2</ele>
        <time>2020-07-17T07:31:58Z</time>
      </trkpt>
      <trkpt lat="37.5909330" lon="-3.8176000">
        <ele>889.2</ele>
        <time>2020-07-17T07:32:02Z</time>
      </trkpt>
      <trkpt lat="37.5909140" lon="-3.8175890">
        <ele>889.4</ele>
        <time>2020-07-17T07:32:03Z</time>
      </trkpt>
      <trkpt lat="37.5908910" lon="-3.8175780">
        <ele>889.4</ele>
        <time>2020-07-17T07:32:04Z</time>
      </trkpt>
      <trkpt lat="37.5907810" lon="-3.8175290">
        <ele>889.6</ele>
        <time>2020-07-17T07:32:08Z</time>
      </trkpt>
      <trkpt lat="37.5907310" lon="-3.8175060">
        <ele>889.8</ele>
        <time>2020-07-17T07:32:10Z</time>
      </trkpt>
      <trkpt lat="37.5906400" lon="-3.8174570">
        <ele>890.2</ele>
        <time>2020-07-17T07:32:14Z</time>
      </trkpt>
      <trkpt lat="37.5905830" lon="-3.8174200">
        <ele>890.4</ele>
        <time>2020-07-17T07:32:17Z</time>
      </trkpt>
      <trkpt lat="37.5905680" lon="-3.8174110">
        <ele>890.4</ele>
        <time>2020-07-17T07:32:18Z</time>
      </trkpt>
      <trkpt lat="37.5905250" lon="-3.8174420">
        <ele>890.6</ele>
        <time>2020-07-17T07:32:22Z</time>
      </trkpt>
      <trkpt lat="37.5904780" lon="-3.8175620">
        <ele>890.8</ele>
        <time>2020-07-17T07:32:25Z</time>
      </trkpt>
      <trkpt lat="37.5904590" lon="-3.8176140">
        <ele>890.8</ele>
        <time>2020-07-17T07:32:26Z</time>
      </trkpt>
      <trkpt lat="37.5903820" lon="-3.8178320">
        <ele>890.2</ele>
        <time>2020-07-17T07:32:31Z</time>
      </trkpt>
      <trkpt lat="37.5903110" lon="-3.8180470">
        <ele>889.4</ele>
        <time>2020-07-17T07:32:35Z</time>
      </trkpt>
      <trkpt lat="37.5902760" lon="-3.8181740">
        <ele>888.8</ele>
        <time>2020-07-17T07:32:37Z</time>
      </trkpt>
      <trkpt lat="37.5902560" lon="-3.8182700">
        <ele>888.2</ele>
        <time>2020-07-17T07:32:39Z</time>
      </trkpt>
      <trkpt lat="37.5902410" lon="-3.8183380">
        <ele>887.8</ele>
        <time>2020-07-17T07:32:41Z</time>
      </trkpt>
      <trkpt lat="37.5902260" lon="-3.8183870">
        <ele>887.6</ele>
        <time>2020-07-17T07:32:42Z</time>
      </trkpt>
      <trkpt lat="37.5902190" lon="-3.8183950">
        <ele>887.4</ele>
        <time>2020-07-17T07:32:43Z</time>
      </trkpt>
      <trkpt lat="37.5901620" lon="-3.8183770">
        <ele>887.2</ele>
        <time>2020-07-17T07:32:45Z</time>
      </trkpt>
      <trkpt lat="37.5901280" lon="-3.8183660">
        <ele>887.0</ele>
        <time>2020-07-17T07:32:46Z</time>
      </trkpt>
      <trkpt lat="37.5900890" lon="-3.8183590">
        <ele>887.0</ele>
        <time>2020-07-17T07:32:47Z</time>
      </trkpt>
      <trkpt lat="37.5899360" lon="-3.8182870">
        <ele>886.6</ele>
        <time>2020-07-17T07:32:51Z</time>
      </trkpt>
      <trkpt lat="37.5898870" lon="-3.8182600">
        <ele>886.4</ele>
        <time>2020-07-17T07:32:52Z</time>
      </trkpt>
      <trkpt lat="37.5897630" lon="-3.8182290">
        <ele>886.0</ele>
        <time>2020-07-17T07:32:55Z</time>
      </trkpt>
      <trkpt lat="37.5897260" lon="-3.8182150">
        <ele>885.6</ele>
        <time>2020-07-17T07:32:56Z</time>
      </trkpt>
      <trkpt lat="37.5896210" lon="-3.8181360">
        <ele>884.6</ele>
        <time>2020-07-17T07:32:59Z</time>
      </trkpt>
      <trkpt lat="37.5895880" lon="-3.8181110">
        <ele>884.2</ele>
        <time>2020-07-17T07:33:00Z</time>
      </trkpt>
      <trkpt lat="37.5895280" lon="-3.8180610">
        <ele>883.4</ele>
        <time>2020-07-17T07:33:02Z</time>
      </trkpt>
      <trkpt lat="37.5894460" lon="-3.8180050">
        <ele>882.2</ele>
        <time>2020-07-17T07:33:05Z</time>
      </trkpt>
      <trkpt lat="37.5894180" lon="-3.8180120">
        <ele>881.8</ele>
        <time>2020-07-17T07:33:06Z</time>
      </trkpt>
      <trkpt lat="37.5893600" lon="-3.8180530">
        <ele>881.2</ele>
        <time>2020-07-17T07:33:08Z</time>
      </trkpt>
      <trkpt lat="37.5893360" lon="-3.8180720">
        <ele>881.0</ele>
        <time>2020-07-17T07:33:09Z</time>
      </trkpt>
      <trkpt lat="37.5893130" lon="-3.8180880">
        <ele>880.8</ele>
        <time>2020-07-17T07:33:10Z</time>
      </trkpt>
      <trkpt lat="37.5892470" lon="-3.8181410">
        <ele>880.0</ele>
        <time>2020-07-17T07:33:13Z</time>
      </trkpt>
      <trkpt lat="37.5892020" lon="-3.8182030">
        <ele>879.4</ele>
        <time>2020-07-17T07:33:15Z</time>
      </trkpt>
      <trkpt lat="37.5891510" lon="-3.8182760">
        <ele>878.8</ele>
        <time>2020-07-17T07:33:17Z</time>
      </trkpt>
      <trkpt lat="37.5890470" lon="-3.8184040">
        <ele>877.6</ele>
        <time>2020-07-17T07:33:20Z</time>
      </trkpt>
      <trkpt lat="37.5890090" lon="-3.8184410">
        <ele>877.2</ele>
        <time>2020-07-17T07:33:21Z</time>
      </trkpt>
      <trkpt lat="37.5889250" lon="-3.8185420">
        <ele>876.6</ele>
        <time>2020-07-17T07:33:23Z</time>
      </trkpt>
      <trkpt lat="37.5887940" lon="-3.8187130">
        <ele>875.8</ele>
        <time>2020-07-17T07:33:26Z</time>
      </trkpt>
      <trkpt lat="37.5887360" lon="-3.8187720">
        <ele>875.2</ele>
        <time>2020-07-17T07:33:27Z</time>
      </trkpt>
      <trkpt lat="37.5886170" lon="-3.8188830">
        <ele>873.8</ele>
        <time>2020-07-17T07:33:29Z</time>
      </trkpt>
      <trkpt lat="37.5884970" lon="-3.8189980">
        <ele>872.8</ele>
        <time>2020-07-17T07:33:31Z</time>
      </trkpt>
      <trkpt lat="37.5883250" lon="-3.8191720">
        <ele>871.6</ele>
        <time>2020-07-17T07:33:34Z</time>
      </trkpt>
      <trkpt lat="37.5881190" lon="-3.8193740">
        <ele>871.2</ele>
        <time>2020-07-17T07:33:38Z</time>
      </trkpt>
      <trkpt lat="37.5880300" lon="-3.8194690">
        <ele>871.2</ele>
        <time>2020-07-17T07:33:40Z</time>
      </trkpt>
      <trkpt lat="37.5879620" lon="-3.8195710">
        <ele>871.8</ele>
        <time>2020-07-17T07:33:42Z</time>
      </trkpt>
      <trkpt lat="37.5879410" lon="-3.8196250">
        <ele>872.0</ele>
        <time>2020-07-17T07:33:43Z</time>
      </trkpt>
      <trkpt lat="37.5879240" lon="-3.8197310">
        <ele>872.6</ele>
        <time>2020-07-17T07:33:45Z</time>
      </trkpt>
      <trkpt lat="37.5879210" lon="-3.8198370">
        <ele>873.2</ele>
        <time>2020-07-17T07:33:47Z</time>
      </trkpt>
      <trkpt lat="37.5879190" lon="-3.8199420">
        <ele>873.8</ele>
        <time>2020-07-17T07:33:49Z</time>
      </trkpt>
      <trkpt lat="37.5879190" lon="-3.8200370">
        <ele>874.4</ele>
        <time>2020-07-17T07:33:51Z</time>
      </trkpt>
      <trkpt lat="37.5879190" lon="-3.8201410">
        <ele>874.8</ele>
        <time>2020-07-17T07:33:53Z</time>
      </trkpt>
      <trkpt lat="37.5879150" lon="-3.8203010">
        <ele>875.4</ele>
        <time>2020-07-17T07:33:56Z</time>
      </trkpt>
      <trkpt lat="37.5879050" lon="-3.8206270">
        <ele>875.6</ele>
        <time>2020-07-17T07:34:01Z</time>
      </trkpt>
      <trkpt lat="37.5879030" lon="-3.8207070">
        <ele>875.4</ele>
        <time>2020-07-17T07:34:02Z</time>
      </trkpt>
      <trkpt lat="37.5878640" lon="-3.8210230">
        <ele>874.8</ele>
        <time>2020-07-17T07:34:06Z</time>
      </trkpt>
      <trkpt lat="37.5878250" lon="-3.8211990">
        <ele>874.4</ele>
        <time>2020-07-17T07:34:08Z</time>
      </trkpt>
      <trkpt lat="37.5877700" lon="-3.8214610">
        <ele>873.8</ele>
        <time>2020-07-17T07:34:11Z</time>
      </trkpt>
      <trkpt lat="37.5876830" lon="-3.8218420">
        <ele>872.8</ele>
        <time>2020-07-17T07:34:15Z</time>
      </trkpt>
      <trkpt lat="37.5876660" lon="-3.8219230">
        <ele>872.6</ele>
        <time>2020-07-17T07:34:16Z</time>
      </trkpt>
      <trkpt lat="37.5876140" lon="-3.8221930">
        <ele>872.0</ele>
        <time>2020-07-17T07:34:19Z</time>
      </trkpt>
      <trkpt lat="37.5875960" lon="-3.8222860">
        <ele>871.6</ele>
        <time>2020-07-17T07:34:20Z</time>
      </trkpt>
      <trkpt lat="37.5875540" lon="-3.8224730">
        <ele>871.2</ele>
        <time>2020-07-17T07:34:22Z</time>
      </trkpt>
      <trkpt lat="37.5875330" lon="-3.8225650">
        <ele>870.8</ele>
        <time>2020-07-17T07:34:23Z</time>
      </trkpt>
      <trkpt lat="37.5875080" lon="-3.8226660">
        <ele>870.4</ele>
        <time>2020-07-17T07:34:24Z</time>
      </trkpt>
      <trkpt lat="37.5874280" lon="-3.8230850">
        <ele>869.2</ele>
        <time>2020-07-17T07:34:28Z</time>
      </trkpt>
      <trkpt lat="37.5873300" lon="-3.8236620">
        <ele>868.0</ele>
        <time>2020-07-17T07:34:33Z</time>
      </trkpt>
      <trkpt lat="37.5872720" lon="-3.8238900">
        <ele>867.4</ele>
        <time>2020-07-17T07:34:35Z</time>
      </trkpt>
      <trkpt lat="37.5871370" lon="-3.8242230">
        <ele>866.6</ele>
        <time>2020-07-17T07:34:38Z</time>
      </trkpt>
      <trkpt lat="37.5870860" lon="-3.8243310">
        <ele>866.4</ele>
        <time>2020-07-17T07:34:39Z</time>
      </trkpt>
      <trkpt lat="37.5868220" lon="-3.8248620">
        <ele>865.6</ele>
        <time>2020-07-17T07:34:44Z</time>
      </trkpt>
      <trkpt lat="37.5867340" lon="-3.8250630">
        <ele>865.0</ele>
        <time>2020-07-17T07:34:46Z</time>
      </trkpt>
      <trkpt lat="37.5866470" lon="-3.8252850">
        <ele>864.2</ele>
        <time>2020-07-17T07:34:48Z</time>
      </trkpt>
      <trkpt lat="37.5865630" lon="-3.8255230">
        <ele>863.0</ele>
        <time>2020-07-17T07:34:50Z</time>
      </trkpt>
      <trkpt lat="37.5865240" lon="-3.8256430">
        <ele>862.4</ele>
        <time>2020-07-17T07:34:51Z</time>
      </trkpt>
      <trkpt lat="37.5864830" lon="-3.8257860">
        <ele>861.6</ele>
        <time>2020-07-17T07:34:52Z</time>
      </trkpt>
      <trkpt lat="37.5864140" lon="-3.8260680">
        <ele>860.2</ele>
        <time>2020-07-17T07:34:54Z</time>
      </trkpt>
      <trkpt lat="37.5863440" lon="-3.8263480">
        <ele>858.6</ele>
        <time>2020-07-17T07:34:56Z</time>
      </trkpt>
      <trkpt lat="37.5862800" lon="-3.8266570">
        <ele>857.0</ele>
        <time>2020-07-17T07:34:58Z</time>
      </trkpt>
      <trkpt lat="37.5862370" lon="-3.8269630">
        <ele>855.4</ele>
        <time>2020-07-17T07:35:00Z</time>
      </trkpt>
      <trkpt lat="37.5862130" lon="-3.8271150">
        <ele>854.8</ele>
        <time>2020-07-17T07:35:01Z</time>
      </trkpt>
      <trkpt lat="37.5861910" lon="-3.8272800">
        <ele>854.0</ele>
        <time>2020-07-17T07:35:02Z</time>
      </trkpt>
      <trkpt lat="37.5861520" lon="-3.8275830">
        <ele>852.4</ele>
        <time>2020-07-17T07:35:04Z</time>
      </trkpt>
      <trkpt lat="37.5860960" lon="-3.8278630">
        <ele>850.8</ele>
        <time>2020-07-17T07:35:06Z</time>
      </trkpt>
      <trkpt lat="37.5860580" lon="-3.8280130">
        <ele>850.0</ele>
        <time>2020-07-17T07:35:07Z</time>
      </trkpt>
      <trkpt lat="37.5860180" lon="-3.8281520">
        <ele>849.2</ele>
        <time>2020-07-17T07:35:08Z</time>
      </trkpt>
      <trkpt lat="37.5859360" lon="-3.8284240">
        <ele>848.2</ele>
        <time>2020-07-17T07:35:10Z</time>
      </trkpt>
      <trkpt lat="37.5857970" lon="-3.8288040">
        <ele>847.0</ele>
        <time>2020-07-17T07:35:13Z</time>
      </trkpt>
      <trkpt lat="37.5856000" lon="-3.8290990">
        <ele>845.8</ele>
        <time>2020-07-17T07:35:16Z</time>
      </trkpt>
      <trkpt lat="37.5854860" lon="-3.8293060">
        <ele>845.4</ele>
        <time>2020-07-17T07:35:18Z</time>
      </trkpt>
      <trkpt lat="37.5854490" lon="-3.8294130">
        <ele>845.4</ele>
        <time>2020-07-17T07:35:19Z</time>
      </trkpt>
      <trkpt lat="37.5853960" lon="-3.8298410">
        <ele>845.2</ele>
        <time>2020-07-17T07:35:23Z</time>
      </trkpt>
      <trkpt lat="37.5854510" lon="-3.8301510">
        <ele>845.2</ele>
        <time>2020-07-17T07:35:26Z</time>
      </trkpt>
      <trkpt lat="37.5854870" lon="-3.8302580">
        <ele>845.2</ele>
        <time>2020-07-17T07:35:27Z</time>
      </trkpt>
      <trkpt lat="37.5855250" lon="-3.8304770">
        <ele>845.2</ele>
        <time>2020-07-17T07:35:29Z</time>
      </trkpt>
      <trkpt lat="37.5855280" lon="-3.8305970">
        <ele>845.0</ele>
        <time>2020-07-17T07:35:30Z</time>
      </trkpt>
      <trkpt lat="37.5855270" lon="-3.8307040">
        <ele>844.6</ele>
        <time>2020-07-17T07:35:31Z</time>
      </trkpt>
      <trkpt lat="37.5855090" lon="-3.8309480">
        <ele>843.6</ele>
        <time>2020-07-17T07:35:33Z</time>
      </trkpt>
      <trkpt lat="37.5854810" lon="-3.8311860">
        <ele>842.4</ele>
        <time>2020-07-17T07:35:35Z</time>
      </trkpt>
      <trkpt lat="37.5854370" lon="-3.8314340">
        <ele>841.0</ele>
        <time>2020-07-17T07:35:37Z</time>
      </trkpt>
      <trkpt lat="37.5853800" lon="-3.8316710">
        <ele>840.0</ele>
        <time>2020-07-17T07:35:39Z</time>
      </trkpt>
      <trkpt lat="37.5853490" lon="-3.8317860">
        <ele>839.4</ele>
        <time>2020-07-17T07:35:40Z</time>
      </trkpt>
      <trkpt lat="37.5852920" lon="-3.8320180">
        <ele>838.8</ele>
        <time>2020-07-17T07:35:42Z</time>
      </trkpt>
      <trkpt lat="37.5851510" lon="-3.8326910">
        <ele>838.2</ele>
        <time>2020-07-17T07:35:48Z</time>
      </trkpt>
      <trkpt lat="37.5851210" lon="-3.8329970">
        <ele>837.6</ele>
        <time>2020-07-17T07:35:51Z</time>
      </trkpt>
      <trkpt lat="37.5850970" lon="-3.8332940">
        <ele>837.6</ele>
        <time>2020-07-17T07:35:54Z</time>
      </trkpt>
      <trkpt lat="37.5850800" lon="-3.8334850">
        <ele>837.4</ele>
        <time>2020-07-17T07:35:56Z</time>
      </trkpt>
      <trkpt lat="37.5850600" lon="-3.8336870">
        <ele>837.0</ele>
        <time>2020-07-17T07:35:58Z</time>
      </trkpt>
      <trkpt lat="37.5850230" lon="-3.8339730">
        <ele>837.0</ele>
        <time>2020-07-17T07:36:01Z</time>
      </trkpt>
      <trkpt lat="37.5850080" lon="-3.8340730">
        <ele>837.0</ele>
        <time>2020-07-17T07:36:02Z</time>
      </trkpt>
      <trkpt lat="37.5849350" lon="-3.8344340">
        <ele>836.8</ele>
        <time>2020-07-17T07:36:06Z</time>
      </trkpt>
      <trkpt lat="37.5848810" lon="-3.8346170">
        <ele>837.0</ele>
        <time>2020-07-17T07:36:08Z</time>
      </trkpt>
      <trkpt lat="37.5847730" lon="-3.8349570">
        <ele>836.6</ele>
        <time>2020-07-17T07:36:12Z</time>
      </trkpt>
      <trkpt lat="37.5846140" lon="-3.8353590">
        <ele>836.6</ele>
        <time>2020-07-17T07:36:17Z</time>
      </trkpt>
      <trkpt lat="37.5844060" lon="-3.8356590">
        <ele>837.0</ele>
        <time>2020-07-17T07:36:22Z</time>
      </trkpt>
      <trkpt lat="37.5841940" lon="-3.8359440">
        <ele>837.6</ele>
        <time>2020-07-17T07:36:27Z</time>
      </trkpt>
      <trkpt lat="37.5841590" lon="-3.8360060">
        <ele>837.8</ele>
        <time>2020-07-17T07:36:28Z</time>
      </trkpt>
      <trkpt lat="37.5841320" lon="-3.8360720">
        <ele>838.0</ele>
        <time>2020-07-17T07:36:29Z</time>
      </trkpt>
      <trkpt lat="37.5841060" lon="-3.8363070">
        <ele>838.2</ele>
        <time>2020-07-17T07:36:32Z</time>
      </trkpt>
      <trkpt lat="37.5841750" lon="-3.8365410">
        <ele>838.0</ele>
        <time>2020-07-17T07:36:35Z</time>
      </trkpt>
      <trkpt lat="37.5842030" lon="-3.8366150">
        <ele>838.0</ele>
        <time>2020-07-17T07:36:36Z</time>
      </trkpt>
      <trkpt lat="37.5843420" lon="-3.8370370">
        <ele>837.4</ele>
        <time>2020-07-17T07:36:41Z</time>
      </trkpt>
      <trkpt lat="37.5843510" lon="-3.8371170">
        <ele>837.4</ele>
        <time>2020-07-17T07:36:42Z</time>
      </trkpt>
      <trkpt lat="37.5843660" lon="-3.8376850">
        <ele>836.8</ele>
        <time>2020-07-17T07:36:48Z</time>
      </trkpt>
      <trkpt lat="37.5843630" lon="-3.8377730">
        <ele>836.8</ele>
        <time>2020-07-17T07:36:49Z</time>
      </trkpt>
      <trkpt lat="37.5843210" lon="-3.8382840">
        <ele>837.0</ele>
        <time>2020-07-17T07:36:55Z</time>
      </trkpt>
      <trkpt lat="37.5842910" lon="-3.8387080">
        <ele>837.8</ele>
        <time>2020-07-17T07:37:01Z</time>
      </trkpt>
      <trkpt lat="37.5842870" lon="-3.8388980">
        <ele>838.8</ele>
        <time>2020-07-17T07:37:04Z</time>
      </trkpt>
      <trkpt lat="37.5842890" lon="-3.8389530">
        <ele>839.2</ele>
        <time>2020-07-17T07:37:05Z</time>
      </trkpt>
      <trkpt lat="37.5842920" lon="-3.8390660">
        <ele>839.8</ele>
        <time>2020-07-17T07:37:07Z</time>
      </trkpt>
      <trkpt lat="37.5842930" lon="-3.8391660">
        <ele>840.4</ele>
        <time>2020-07-17T07:37:09Z</time>
      </trkpt>
      <trkpt lat="37.5842940" lon="-3.8393070">
        <ele>841.0</ele>
        <time>2020-07-17T07:37:12Z</time>
      </trkpt>
      <trkpt lat="37.5842940" lon="-3.8393530">
        <ele>841.2</ele>
        <time>2020-07-17T07:37:13Z</time>
      </trkpt>
      <trkpt lat="37.5842940" lon="-3.8393980">
        <ele>841.4</ele>
        <time>2020-07-17T07:37:14Z</time>
      </trkpt>
      <trkpt lat="37.5843110" lon="-3.8396090">
        <ele>842.4</ele>
        <time>2020-07-17T07:37:19Z</time>
      </trkpt>
      <trkpt lat="37.5843140" lon="-3.8396510">
        <ele>842.6</ele>
        <time>2020-07-17T07:37:20Z</time>
      </trkpt>
      <trkpt lat="37.5843090" lon="-3.8398620">
        <ele>843.6</ele>
        <time>2020-07-17T07:37:25Z</time>
      </trkpt>
      <trkpt lat="37.5842890" lon="-3.8399460">
        <ele>844.0</ele>
        <time>2020-07-17T07:37:27Z</time>
      </trkpt>
      <trkpt lat="37.5842030" lon="-3.8401020">
        <ele>844.8</ele>
        <time>2020-07-17T07:37:31Z</time>
      </trkpt>
      <trkpt lat="37.5841700" lon="-3.8401330">
        <ele>845.0</ele>
        <time>2020-07-17T07:37:32Z</time>
      </trkpt>
      <trkpt lat="37.5839720" lon="-3.8402570">
        <ele>846.0</ele>
        <time>2020-07-17T07:37:38Z</time>
      </trkpt>
      <trkpt lat="37.5839390" lon="-3.8402740">
        <ele>846.2</ele>
        <time>2020-07-17T07:37:39Z</time>
      </trkpt>
      <trkpt lat="37.5838130" lon="-3.8403400">
        <ele>847.0</ele>
        <time>2020-07-17T07:37:43Z</time>
      </trkpt>
      <trkpt lat="37.5836310" lon="-3.8404320">
        <ele>848.2</ele>
        <time>2020-07-17T07:37:49Z</time>
      </trkpt>
      <trkpt lat="37.5835730" lon="-3.8404650">
        <ele>848.6</ele>
        <time>2020-07-17T07:37:51Z</time>
      </trkpt>
      <trkpt lat="37.5834840" lon="-3.8405210">
        <ele>849.2</ele>
        <time>2020-07-17T07:37:54Z</time>
      </trkpt>
      <trkpt lat="37.5833210" lon="-3.8406340">
        <ele>850.4</ele>
        <time>2020-07-17T07:38:00Z</time>
      </trkpt>
      <trkpt lat="37.5832950" lon="-3.8406480">
        <ele>850.6</ele>
        <time>2020-07-17T07:38:01Z</time>
      </trkpt>
      <trkpt lat="37.5831840" lon="-3.8407120">
        <ele>851.4</ele>
        <time>2020-07-17T07:38:05Z</time>
      </trkpt>
      <trkpt lat="37.5830190" lon="-3.8407750">
        <ele>852.6</ele>
        <time>2020-07-17T07:38:11Z</time>
      </trkpt>
      <trkpt lat="37.5828760" lon="-3.8408140">
        <ele>853.6</ele>
        <time>2020-07-17T07:38:16Z</time>
      </trkpt>
      <trkpt lat="37.5827580" lon="-3.8408410">
        <ele>854.6</ele>
        <time>2020-07-17T07:38:20Z</time>
      </trkpt>
      <trkpt lat="37.5827320" lon="-3.8408490">
        <ele>854.6</ele>
        <time>2020-07-17T07:38:21Z</time>
      </trkpt>
      <trkpt lat="37.5825680" lon="-3.8409120">
        <ele>855.8</ele>
        <time>2020-07-17T07:38:27Z</time>
      </trkpt>
      <trkpt lat="37.5824910" lon="-3.8409480">
        <ele>856.4</ele>
        <time>2020-07-17T07:38:30Z</time>
      </trkpt>
      <trkpt lat="37.5824420" lon="-3.8409780">
        <ele>856.8</ele>
        <time>2020-07-17T07:38:32Z</time>
      </trkpt>
      <trkpt lat="37.5823260" lon="-3.8410520">
        <ele>857.8</ele>
        <time>2020-07-17T07:38:37Z</time>
      </trkpt>
      <trkpt lat="37.5822820" lon="-3.8410830">
        <ele>858.2</ele>
        <time>2020-07-17T07:38:39Z</time>
      </trkpt>
      <trkpt lat="37.5822140" lon="-3.8411300">
        <ele>858.8</ele>
        <time>2020-07-17T07:38:42Z</time>
      </trkpt>
      <trkpt lat="37.5821030" lon="-3.8412120">
        <ele>859.8</ele>
        <time>2020-07-17T07:38:47Z</time>
      </trkpt>
      <trkpt lat="37.5820780" lon="-3.8412280">
        <ele>859.8</ele>
        <time>2020-07-17T07:38:48Z</time>
      </trkpt>
      <trkpt lat="37.5819650" lon="-3.8413040">
        <ele>861.0</ele>
        <time>2020-07-17T07:38:53Z</time>
      </trkpt>
      <trkpt lat="37.5819430" lon="-3.8413180">
        <ele>861.2</ele>
        <time>2020-07-17T07:38:54Z</time>
      </trkpt>
      <trkpt lat="37.5818530" lon="-3.8413880">
        <ele>862.0</ele>
        <time>2020-07-17T07:38:58Z</time>
      </trkpt>
      <trkpt lat="37.5817610" lon="-3.8414550">
        <ele>862.6</ele>
        <time>2020-07-17T07:39:02Z</time>
      </trkpt>
      <trkpt lat="37.5817140" lon="-3.8414890">
        <ele>863.0</ele>
        <time>2020-07-17T07:39:04Z</time>
      </trkpt>
      <trkpt lat="37.5815990" lon="-3.8415810">
        <ele>864.0</ele>
        <time>2020-07-17T07:39:09Z</time>
      </trkpt>
      <trkpt lat="37.5815560" lon="-3.8416190">
        <ele>864.4</ele>
        <time>2020-07-17T07:39:11Z</time>
      </trkpt>
      <trkpt lat="37.5814480" lon="-3.8417280">
        <ele>865.2</ele>
        <time>2020-07-17T07:39:16Z</time>
      </trkpt>
      <trkpt lat="37.5813760" lon="-3.8418340">
        <ele>866.0</ele>
        <time>2020-07-17T07:39:20Z</time>
      </trkpt>
      <trkpt lat="37.5813620" lon="-3.8418590">
        <ele>866.4</ele>
        <time>2020-07-17T07:39:21Z</time>
      </trkpt>
      <trkpt lat="37.5812870" lon="-3.8419950">
        <ele>867.4</ele>
        <time>2020-07-17T07:39:26Z</time>
      </trkpt>
      <trkpt lat="37.5812720" lon="-3.8420280">
        <ele>867.6</ele>
        <time>2020-07-17T07:39:27Z</time>
      </trkpt>
      <trkpt lat="37.5811980" lon="-3.8421790">
        <ele>868.6</ele>
        <time>2020-07-17T07:39:32Z</time>
      </trkpt>
      <trkpt lat="37.5811830" lon="-3.8422100">
        <ele>868.8</ele>
        <time>2020-07-17T07:39:33Z</time>
      </trkpt>
      <trkpt lat="37.5811090" lon="-3.8423170">
        <ele>869.8</ele>
        <time>2020-07-17T07:39:37Z</time>
      </trkpt>
      <trkpt lat="37.5810880" lon="-3.8423400">
        <ele>870.0</ele>
        <time>2020-07-17T07:39:38Z</time>
      </trkpt>
      <trkpt lat="37.5810490" lon="-3.8423890">
        <ele>870.4</ele>
        <time>2020-07-17T07:39:40Z</time>
      </trkpt>
      <trkpt lat="37.5810200" lon="-3.8424450">
        <ele>870.8</ele>
        <time>2020-07-17T07:39:42Z</time>
      </trkpt>
      <trkpt lat="37.5809550" lon="-3.8425050">
        <ele>871.4</ele>
        <time>2020-07-17T07:39:45Z</time>
      </trkpt>
      <trkpt lat="37.5808760" lon="-3.8425450">
        <ele>872.0</ele>
        <time>2020-07-17T07:39:48Z</time>
      </trkpt>
      <trkpt lat="37.5808480" lon="-3.8425510">
        <ele>872.2</ele>
        <time>2020-07-17T07:39:49Z</time>
      </trkpt>
      <trkpt lat="37.5807920" lon="-3.8425570">
        <ele>872.6</ele>
        <time>2020-07-17T07:39:51Z</time>
      </trkpt>
      <trkpt lat="37.5807600" lon="-3.8425580">
        <ele>872.8</ele>
        <time>2020-07-17T07:39:52Z</time>
      </trkpt>
      <trkpt lat="37.5807330" lon="-3.8425570">
        <ele>873.0</ele>
        <time>2020-07-17T07:39:53Z</time>
      </trkpt>
      <trkpt lat="37.5806720" lon="-3.8425530">
        <ele>873.4</ele>
        <time>2020-07-17T07:39:55Z</time>
      </trkpt>
      <trkpt lat="37.5805580" lon="-3.8425510">
        <ele>874.2</ele>
        <time>2020-07-17T07:39:59Z</time>
      </trkpt>
      <trkpt lat="37.5805020" lon="-3.8425460">
        <ele>874.6</ele>
        <time>2020-07-17T07:40:01Z</time>
      </trkpt>
      <trkpt lat="37.5803910" lon="-3.8425420">
        <ele>875.4</ele>
        <time>2020-07-17T07:40:05Z</time>
      </trkpt>
      <trkpt lat="37.5802320" lon="-3.8425620">
        <ele>876.6</ele>
        <time>2020-07-17T07:40:11Z</time>
      </trkpt>
      <trkpt lat="37.5801050" lon="-3.8426350">
        <ele>877.8</ele>
        <time>2020-07-17T07:40:16Z</time>
      </trkpt>
      <trkpt lat="37.5800820" lon="-3.8426550">
        <ele>878.0</ele>
        <time>2020-07-17T07:40:17Z</time>
      </trkpt>
      <trkpt lat="37.5800590" lon="-3.8426780">
        <ele>878.2</ele>
        <time>2020-07-17T07:40:18Z</time>
      </trkpt>
      <trkpt lat="37.5800170" lon="-3.8427230">
        <ele>878.8</ele>
        <time>2020-07-17T07:40:20Z</time>
      </trkpt>
      <trkpt lat="37.5800020" lon="-3.8427440">
        <ele>879.0</ele>
        <time>2020-07-17T07:40:21Z</time>
      </trkpt>
      <trkpt lat="37.5799830" lon="-3.8427680">
        <ele>879.2</ele>
        <time>2020-07-17T07:40:22Z</time>
      </trkpt>
      <trkpt lat="37.5799480" lon="-3.8428220">
        <ele>879.6</ele>
        <time>2020-07-17T07:40:24Z</time>
      </trkpt>
      <trkpt lat="37.5799200" lon="-3.8428760">
        <ele>880.0</ele>
        <time>2020-07-17T07:40:26Z</time>
      </trkpt>
      <trkpt lat="37.5798520" lon="-3.8430210">
        <ele>881.0</ele>
        <time>2020-07-17T07:40:31Z</time>
      </trkpt>
      <trkpt lat="37.5797810" lon="-3.8431810">
        <ele>882.4</ele>
        <time>2020-07-17T07:40:36Z</time>
      </trkpt>
      <trkpt lat="37.5797280" lon="-3.8432940">
        <ele>883.4</ele>
        <time>2020-07-17T07:40:40Z</time>
      </trkpt>
      <trkpt lat="37.5796510" lon="-3.8434830">
        <ele>884.4</ele>
        <time>2020-07-17T07:40:46Z</time>
      </trkpt>
      <trkpt lat="37.5795910" lon="-3.8436090">
        <ele>885.4</ele>
        <time>2020-07-17T07:40:50Z</time>
      </trkpt>
      <trkpt lat="37.5795770" lon="-3.8436380">
        <ele>885.6</ele>
        <time>2020-07-17T07:40:51Z</time>
      </trkpt>
      <trkpt lat="37.5795190" lon="-3.8437690">
        <ele>886.4</ele>
        <time>2020-07-17T07:40:55Z</time>
      </trkpt>
      <trkpt lat="37.5795050" lon="-3.8438020">
        <ele>886.6</ele>
        <time>2020-07-17T07:40:56Z</time>
      </trkpt>
      <trkpt lat="37.5794730" lon="-3.8438810">
        <ele>886.8</ele>
        <time>2020-07-17T07:40:58Z</time>
      </trkpt>
      <trkpt lat="37.5794390" lon="-3.8439570">
        <ele>887.0</ele>
        <time>2020-07-17T07:41:00Z</time>
      </trkpt>
      <trkpt lat="37.5794030" lon="-3.8440420">
        <ele>887.2</ele>
        <time>2020-07-17T07:41:02Z</time>
      </trkpt>
      <trkpt lat="37.5792930" lon="-3.8443460">
        <ele>887.8</ele>
        <time>2020-07-17T07:41:09Z</time>
      </trkpt>
      <trkpt lat="37.5792810" lon="-3.8443930">
        <ele>887.8</ele>
        <time>2020-07-17T07:41:10Z</time>
      </trkpt>
      <trkpt lat="37.5792600" lon="-3.8444890">
        <ele>888.0</ele>
        <time>2020-07-17T07:41:12Z</time>
      </trkpt>
      <trkpt lat="37.5792500" lon="-3.8445380">
        <ele>888.2</ele>
        <time>2020-07-17T07:41:13Z</time>
      </trkpt>
      <trkpt lat="37.5792220" lon="-3.8446850">
        <ele>888.6</ele>
        <time>2020-07-17T07:41:16Z</time>
      </trkpt>
      <trkpt lat="37.5792110" lon="-3.8447380">
        <ele>888.8</ele>
        <time>2020-07-17T07:41:17Z</time>
      </trkpt>
      <trkpt lat="37.5791790" lon="-3.8448940">
        <ele>889.2</ele>
        <time>2020-07-17T07:41:20Z</time>
      </trkpt>
      <trkpt lat="37.5791330" lon="-3.8451590">
        <ele>889.8</ele>
        <time>2020-07-17T07:41:25Z</time>
      </trkpt>
      <trkpt lat="37.5791250" lon="-3.8452050">
        <ele>889.8</ele>
        <time>2020-07-17T07:41:26Z</time>
      </trkpt>
      <trkpt lat="37.5790800" lon="-3.8454170">
        <ele>890.4</ele>
        <time>2020-07-17T07:41:30Z</time>
      </trkpt>
      <trkpt lat="37.5790340" lon="-3.8456780">
        <ele>891.0</ele>
        <time>2020-07-17T07:41:35Z</time>
      </trkpt>
      <trkpt lat="37.5790060" lon="-3.8458360">
        <ele>891.2</ele>
        <time>2020-07-17T07:41:38Z</time>
      </trkpt>
      <trkpt lat="37.5789250" lon="-3.8461330">
        <ele>892.0</ele>
        <time>2020-07-17T07:41:44Z</time>
      </trkpt>
      <trkpt lat="37.5788780" lon="-3.8462770">
        <ele>892.6</ele>
        <time>2020-07-17T07:41:47Z</time>
      </trkpt>
      <trkpt lat="37.5788000" lon="-3.8464700">
        <ele>893.0</ele>
        <time>2020-07-17T07:41:51Z</time>
      </trkpt>
      <trkpt lat="37.5787200" lon="-3.8466090">
        <ele>893.2</ele>
        <time>2020-07-17T07:41:54Z</time>
      </trkpt>
      <trkpt lat="37.5786860" lon="-3.8466490">
        <ele>893.4</ele>
        <time>2020-07-17T07:41:55Z</time>
      </trkpt>
      <trkpt lat="37.5785200" lon="-3.8467760">
        <ele>893.6</ele>
        <time>2020-07-17T07:41:59Z</time>
      </trkpt>
      <trkpt lat="37.5784710" lon="-3.8468040">
        <ele>893.6</ele>
        <time>2020-07-17T07:42:00Z</time>
      </trkpt>
      <trkpt lat="37.5781020" lon="-3.8470350">
        <ele>893.4</ele>
        <time>2020-07-17T07:42:07Z</time>
      </trkpt>
      <trkpt lat="37.5780520" lon="-3.8470860">
        <ele>893.4</ele>
        <time>2020-07-17T07:42:08Z</time>
      </trkpt>
      <trkpt lat="37.5779220" lon="-3.8472560">
        <ele>893.0</ele>
        <time>2020-07-17T07:42:11Z</time>
      </trkpt>
      <trkpt lat="37.5777400" lon="-3.8475240">
        <ele>892.8</ele>
        <time>2020-07-17T07:42:15Z</time>
      </trkpt>
      <trkpt lat="37.5775350" lon="-3.8477620">
        <ele>892.8</ele>
        <time>2020-07-17T07:42:19Z</time>
      </trkpt>
      <trkpt lat="37.5773140" lon="-3.8478370">
        <ele>892.8</ele>
        <time>2020-07-17T07:42:22Z</time>
      </trkpt>
      <trkpt lat="37.5771110" lon="-3.8477340">
        <ele>892.6</ele>
        <time>2020-07-17T07:42:25Z</time>
      </trkpt>
      <trkpt lat="37.5770470" lon="-3.8476930">
        <ele>892.6</ele>
        <time>2020-07-17T07:42:26Z</time>
      </trkpt>
      <trkpt lat="37.5767470" lon="-3.8475150">
        <ele>892.0</ele>
        <time>2020-07-17T07:42:30Z</time>
      </trkpt>
      <trkpt lat="37.5766740" lon="-3.8474810">
        <ele>891.8</ele>
        <time>2020-07-17T07:42:31Z</time>
      </trkpt>
      <trkpt lat="37.5764870" lon="-3.8474280">
        <ele>891.2</ele>
        <time>2020-07-17T07:42:33Z</time>
      </trkpt>
      <trkpt lat="37.5763910" lon="-3.8474210">
        <ele>890.8</ele>
        <time>2020-07-17T07:42:34Z</time>
      </trkpt>
      <trkpt lat="37.5763000" lon="-3.8474240">
        <ele>890.6</ele>
        <time>2020-07-17T07:42:35Z</time>
      </trkpt>
      <trkpt lat="37.5761020" lon="-3.8474370">
        <ele>889.8</ele>
        <time>2020-07-17T07:42:37Z</time>
      </trkpt>
      <trkpt lat="37.5758040" lon="-3.8474540">
        <ele>888.6</ele>
        <time>2020-07-17T07:42:40Z</time>
      </trkpt>
      <trkpt lat="37.5756020" lon="-3.8474490">
        <ele>888.0</ele>
        <time>2020-07-17T07:42:42Z</time>
      </trkpt>
      <trkpt lat="37.5755000" lon="-3.8474210">
        <ele>887.4</ele>
        <time>2020-07-17T07:42:43Z</time>
      </trkpt>
      <trkpt lat="37.5753070" lon="-3.8473200">
        <ele>886.8</ele>
        <time>2020-07-17T07:42:45Z</time>
      </trkpt>
      <trkpt lat="37.5752210" lon="-3.8472610">
        <ele>886.4</ele>
        <time>2020-07-17T07:42:46Z</time>
      </trkpt>
      <trkpt lat="37.5749440" lon="-3.8470230">
        <ele>885.0</ele>
        <time>2020-07-17T07:42:49Z</time>
      </trkpt>
      <trkpt lat="37.5747760" lon="-3.8468750">
        <ele>884.0</ele>
        <time>2020-07-17T07:42:51Z</time>
      </trkpt>
      <trkpt lat="37.5746710" lon="-3.8468410">
        <ele>883.0</ele>
        <time>2020-07-17T07:42:52Z</time>
      </trkpt>
      <trkpt lat="37.5745830" lon="-3.8468670">
        <ele>882.4</ele>
        <time>2020-07-17T07:42:53Z</time>
      </trkpt>
      <trkpt lat="37.5745000" lon="-3.8469470">
        <ele>882.0</ele>
        <time>2020-07-17T07:42:54Z</time>
      </trkpt>
      <trkpt lat="37.5744560" lon="-3.8470420">
        <ele>881.6</ele>
        <time>2020-07-17T07:42:55Z</time>
      </trkpt>
      <trkpt lat="37.5743940" lon="-3.8472370">
        <ele>880.8</ele>
        <time>2020-07-17T07:42:57Z</time>
      </trkpt>
      <trkpt lat="37.5743670" lon="-3.8473290">
        <ele>880.6</ele>
        <time>2020-07-17T07:42:58Z</time>
      </trkpt>
      <trkpt lat="37.5743460" lon="-3.8474120">
        <ele>880.8</ele>
        <time>2020-07-17T07:42:59Z</time>
      </trkpt>
      <trkpt lat="37.5743000" lon="-3.8475760">
        <ele>881.6</ele>
        <time>2020-07-17T07:43:01Z</time>
      </trkpt>
      <trkpt lat="37.5742730" lon="-3.8476640">
        <ele>881.8</ele>
        <time>2020-07-17T07:43:02Z</time>
      </trkpt>
      <trkpt lat="37.5742270" lon="-3.8478140">
        <ele>882.4</ele>
        <time>2020-07-17T07:43:04Z</time>
      </trkpt>
      <trkpt lat="37.5741890" lon="-3.8479500">
        <ele>883.0</ele>
        <time>2020-07-17T07:43:06Z</time>
      </trkpt>
      <trkpt lat="37.5741250" lon="-3.8481600">
        <ele>884.0</ele>
        <time>2020-07-17T07:43:09Z</time>
      </trkpt>
      <trkpt lat="37.5741020" lon="-3.8482210">
        <ele>884.0</ele>
        <time>2020-07-17T07:43:10Z</time>
      </trkpt>
      <trkpt lat="37.5740790" lon="-3.8482710">
        <ele>884.2</ele>
        <time>2020-07-17T07:43:11Z</time>
      </trkpt>
      <trkpt lat="37.5740420" lon="-3.8483300">
        <ele>884.4</ele>
        <time>2020-07-17T07:43:12Z</time>
      </trkpt>
      <trkpt lat="37.5739030" lon="-3.8484090">
        <ele>885.2</ele>
        <time>2020-07-17T07:43:15Z</time>
      </trkpt>
      <trkpt lat="37.5737540" lon="-3.8483760">
        <ele>886.0</ele>
        <time>2020-07-17T07:43:18Z</time>
      </trkpt>
      <trkpt lat="37.5737100" lon="-3.8483460">
        <ele>886.4</ele>
        <time>2020-07-17T07:43:19Z</time>
      </trkpt>
      <trkpt lat="37.5736280" lon="-3.8482820">
        <ele>886.8</ele>
        <time>2020-07-17T07:43:21Z</time>
      </trkpt>
      <trkpt lat="37.5735420" lon="-3.8482060">
        <ele>887.2</ele>
        <time>2020-07-17T07:43:23Z</time>
      </trkpt>
      <trkpt lat="37.5734590" lon="-3.8481320">
        <ele>887.4</ele>
        <time>2020-07-17T07:43:25Z</time>
      </trkpt>
      <trkpt lat="37.5732700" lon="-3.8479650">
        <ele>888.2</ele>
        <time>2020-07-17T07:43:30Z</time>
      </trkpt>
      <trkpt lat="37.5731980" lon="-3.8479170">
        <ele>888.4</ele>
        <time>2020-07-17T07:43:32Z</time>
      </trkpt>
      <trkpt lat="37.5730100" lon="-3.8478430">
        <ele>889.6</ele>
        <time>2020-07-17T07:43:37Z</time>
      </trkpt>
      <trkpt lat="37.5729360" lon="-3.8478360">
        <ele>890.0</ele>
        <time>2020-07-17T07:43:39Z</time>
      </trkpt>
      <trkpt lat="37.5728230" lon="-3.8478330">
        <ele>890.6</ele>
        <time>2020-07-17T07:43:42Z</time>
      </trkpt>
      <trkpt lat="37.5727130" lon="-3.8478520">
        <ele>891.2</ele>
        <time>2020-07-17T07:43:45Z</time>
      </trkpt>
      <trkpt lat="37.5726780" lon="-3.8478600">
        <ele>891.4</ele>
        <time>2020-07-17T07:43:46Z</time>
      </trkpt>
      <trkpt lat="37.5726080" lon="-3.8478800">
        <ele>891.8</ele>
        <time>2020-07-17T07:43:48Z</time>
      </trkpt>
      <trkpt lat="37.5724200" lon="-3.8479830">
        <ele>892.8</ele>
        <time>2020-07-17T07:43:54Z</time>
      </trkpt>
      <trkpt lat="37.5723940" lon="-3.8480090">
        <ele>893.0</ele>
        <time>2020-07-17T07:43:55Z</time>
      </trkpt>
      <trkpt lat="37.5723210" lon="-3.8480970">
        <ele>893.6</ele>
        <time>2020-07-17T07:43:58Z</time>
      </trkpt>
      <trkpt lat="37.5722950" lon="-3.8481200">
        <ele>893.8</ele>
        <time>2020-07-17T07:43:59Z</time>
      </trkpt>
      <trkpt lat="37.5722700" lon="-3.8481530">
        <ele>894.0</ele>
        <time>2020-07-17T07:44:00Z</time>
      </trkpt>
      <trkpt lat="37.5721990" lon="-3.8482590">
        <ele>894.8</ele>
        <time>2020-07-17T07:44:03Z</time>
      </trkpt>
      <trkpt lat="37.5721520" lon="-3.8483380">
        <ele>895.2</ele>
        <time>2020-07-17T07:44:05Z</time>
      </trkpt>
      <trkpt lat="37.5720950" lon="-3.8484240">
        <ele>895.4</ele>
        <time>2020-07-17T07:44:07Z</time>
      </trkpt>
      <trkpt lat="37.5718410" lon="-3.8488320">
        <ele>895.8</ele>
        <time>2020-07-17T07:44:16Z</time>
      </trkpt>
      <trkpt lat="37.5717570" lon="-3.8489610">
        <ele>896.4</ele>
        <time>2020-07-17T07:44:19Z</time>
      </trkpt>
      <trkpt lat="37.5716400" lon="-3.8490910">
        <ele>897.2</ele>
        <time>2020-07-17T07:44:23Z</time>
      </trkpt>
      <trkpt lat="37.5716060" lon="-3.8491200">
        <ele>897.6</ele>
        <time>2020-07-17T07:44:24Z</time>
      </trkpt>
      <trkpt lat="37.5714230" lon="-3.8492020">
        <ele>898.2</ele>
        <time>2020-07-17T07:44:29Z</time>
      </trkpt>
      <trkpt lat="37.5713480" lon="-3.8492090">
        <ele>898.6</ele>
        <time>2020-07-17T07:44:31Z</time>
      </trkpt>
      <trkpt lat="37.5711030" lon="-3.8492160">
        <ele>899.6</ele>
        <time>2020-07-17T07:44:37Z</time>
      </trkpt>
      <trkpt lat="37.5710640" lon="-3.8492180">
        <ele>899.8</ele>
        <time>2020-07-17T07:44:38Z</time>
      </trkpt>
      <trkpt lat="37.5708450" lon="-3.8492680">
        <ele>900.8</ele>
        <time>2020-07-17T07:44:44Z</time>
      </trkpt>
      <trkpt lat="37.5707790" lon="-3.8492890">
        <ele>901.2</ele>
        <time>2020-07-17T07:44:46Z</time>
      </trkpt>
      <trkpt lat="37.5706370" lon="-3.8493350">
        <ele>901.8</ele>
        <time>2020-07-17T07:44:50Z</time>
      </trkpt>
      <trkpt lat="37.5703950" lon="-3.8494380">
        <ele>902.8</ele>
        <time>2020-07-17T07:44:57Z</time>
      </trkpt>
      <trkpt lat="37.5702800" lon="-3.8496200">
        <ele>903.8</ele>
        <time>2020-07-17T07:45:02Z</time>
      </trkpt>
      <trkpt lat="37.5702650" lon="-3.8496590">
        <ele>904.0</ele>
        <time>2020-07-17T07:45:03Z</time>
      </trkpt>
      <trkpt lat="37.5702070" lon="-3.8498720">
        <ele>905.0</ele>
        <time>2020-07-17T07:45:08Z</time>
      </trkpt>
      <trkpt lat="37.5701350" lon="-3.8501280">
        <ele>906.2</ele>
        <time>2020-07-17T07:45:14Z</time>
      </trkpt>
      <trkpt lat="37.5700570" lon="-3.8503990">
        <ele>907.2</ele>
        <time>2020-07-17T07:45:20Z</time>
      </trkpt>
      <trkpt lat="37.5698990" lon="-3.8506690">
        <ele>908.0</ele>
        <time>2020-07-17T07:45:27Z</time>
      </trkpt>
      <trkpt lat="37.5698680" lon="-3.8507010">
        <ele>908.2</ele>
        <time>2020-07-17T07:45:28Z</time>
      </trkpt>
      <trkpt lat="37.5696980" lon="-3.8508080">
        <ele>909.0</ele>
        <time>2020-07-17T07:45:33Z</time>
      </trkpt>
      <trkpt lat="37.5696250" lon="-3.8508250">
        <ele>909.4</ele>
        <time>2020-07-17T07:45:35Z</time>
      </trkpt>
      <trkpt lat="37.5694740" lon="-3.8508210">
        <ele>910.0</ele>
        <time>2020-07-17T07:45:39Z</time>
      </trkpt>
      <trkpt lat="37.5694020" lon="-3.8508230">
        <ele>910.4</ele>
        <time>2020-07-17T07:45:41Z</time>
      </trkpt>
      <trkpt lat="37.5691720" lon="-3.8508350">
        <ele>911.6</ele>
        <time>2020-07-17T07:45:47Z</time>
      </trkpt>
      <trkpt lat="37.5690960" lon="-3.8508560">
        <ele>912.0</ele>
        <time>2020-07-17T07:45:49Z</time>
      </trkpt>
      <trkpt lat="37.5689590" lon="-3.8509500">
        <ele>912.6</ele>
        <time>2020-07-17T07:45:53Z</time>
      </trkpt>
      <trkpt lat="37.5689270" lon="-3.8509850">
        <ele>912.8</ele>
        <time>2020-07-17T07:45:54Z</time>
      </trkpt>
      <trkpt lat="37.5688250" lon="-3.8512080">
        <ele>913.6</ele>
        <time>2020-07-17T07:45:59Z</time>
      </trkpt>
      <trkpt lat="37.5688150" lon="-3.8512530">
        <ele>913.8</ele>
        <time>2020-07-17T07:46:00Z</time>
      </trkpt>
      <trkpt lat="37.5688060" lon="-3.8513970">
        <ele>914.2</ele>
        <time>2020-07-17T07:46:03Z</time>
      </trkpt>
      <trkpt lat="37.5688050" lon="-3.8514410">
        <ele>914.4</ele>
        <time>2020-07-17T07:46:04Z</time>
      </trkpt>
      <trkpt lat="37.5688100" lon="-3.8515230">
        <ele>915.0</ele>
        <time>2020-07-17T07:46:06Z</time>
      </trkpt>
      <trkpt lat="37.5688230" lon="-3.8517020">
        <ele>915.8</ele>
        <time>2020-07-17T07:46:10Z</time>
      </trkpt>
      <trkpt lat="37.5688250" lon="-3.8517390">
        <ele>916.0</ele>
        <time>2020-07-17T07:46:11Z</time>
      </trkpt>
      <trkpt lat="37.5688060" lon="-3.8519000">
        <ele>917.0</ele>
        <time>2020-07-17T07:46:15Z</time>
      </trkpt>
      <trkpt lat="37.5687750" lon="-3.8519710">
        <ele>917.6</ele>
        <time>2020-07-17T07:46:17Z</time>
      </trkpt>
      <trkpt lat="37.5687380" lon="-3.8520330">
        <ele>918.0</ele>
        <time>2020-07-17T07:46:19Z</time>
      </trkpt>
      <trkpt lat="37.5686490" lon="-3.8521290">
        <ele>919.0</ele>
        <time>2020-07-17T07:46:23Z</time>
      </trkpt>
      <trkpt lat="37.5685200" lon="-3.8522320">
        <ele>920.2</ele>
        <time>2020-07-17T07:46:28Z</time>
      </trkpt>
      <trkpt lat="37.5684660" lon="-3.8522710">
        <ele>920.8</ele>
        <time>2020-07-17T07:46:30Z</time>
      </trkpt>
      <trkpt lat="37.5684180" lon="-3.8523240">
        <ele>921.2</ele>
        <time>2020-07-17T07:46:32Z</time>
      </trkpt>
      <trkpt lat="37.5682750" lon="-3.8525370">
        <ele>922.4</ele>
        <time>2020-07-17T07:46:39Z</time>
      </trkpt>
      <trkpt lat="37.5682590" lon="-3.8525730">
        <ele>922.6</ele>
        <time>2020-07-17T07:46:40Z</time>
      </trkpt>
      <trkpt lat="37.5682080" lon="-3.8527970">
        <ele>923.6</ele>
        <time>2020-07-17T07:46:46Z</time>
      </trkpt>
      <trkpt lat="37.5682030" lon="-3.8528360">
        <ele>923.8</ele>
        <time>2020-07-17T07:46:47Z</time>
      </trkpt>
      <trkpt lat="37.5681990" lon="-3.8528750">
        <ele>924.0</ele>
        <time>2020-07-17T07:46:48Z</time>
      </trkpt>
      <trkpt lat="37.5681900" lon="-3.8529880">
        <ele>924.6</ele>
        <time>2020-07-17T07:46:51Z</time>
      </trkpt>
      <trkpt lat="37.5682030" lon="-3.8531810">
        <ele>925.4</ele>
        <time>2020-07-17T07:46:56Z</time>
      </trkpt>
      <trkpt lat="37.5682360" lon="-3.8532550">
        <ele>925.6</ele>
        <time>2020-07-17T07:46:58Z</time>
      </trkpt>
      <trkpt lat="37.5682980" lon="-3.8533410">
        <ele>926.0</ele>
        <time>2020-07-17T07:47:01Z</time>
      </trkpt>
      <trkpt lat="37.5684120" lon="-3.8534230">
        <ele>926.8</ele>
        <time>2020-07-17T07:47:05Z</time>
      </trkpt>
      <trkpt lat="37.5684750" lon="-3.8534500">
        <ele>927.2</ele>
        <time>2020-07-17T07:47:07Z</time>
      </trkpt>
      <trkpt lat="37.5686090" lon="-3.8534670">
        <ele>928.0</ele>
        <time>2020-07-17T07:47:11Z</time>
      </trkpt>
      <trkpt lat="37.5687300" lon="-3.8534810">
        <ele>928.4</ele>
        <time>2020-07-17T07:47:14Z</time>
      </trkpt>
      <trkpt lat="37.5690290" lon="-3.8534790">
        <ele>928.6</ele>
        <time>2020-07-17T07:47:21Z</time>
      </trkpt>
      <trkpt lat="37.5690800" lon="-3.8534750">
        <ele>928.6</ele>
        <time>2020-07-17T07:47:22Z</time>
      </trkpt>
      <trkpt lat="37.5692600" lon="-3.8534550">
        <ele>928.8</ele>
        <time>2020-07-17T07:47:26Z</time>
      </trkpt>
      <trkpt lat="37.5693120" lon="-3.8534510">
        <ele>929.0</ele>
        <time>2020-07-17T07:47:27Z</time>
      </trkpt>
      <trkpt lat="37.5694540" lon="-3.8534540">
        <ele>929.0</ele>
        <time>2020-07-17T07:47:30Z</time>
      </trkpt>
      <trkpt lat="37.5694940" lon="-3.8534680">
        <ele>929.0</ele>
        <time>2020-07-17T07:47:31Z</time>
      </trkpt>
      <trkpt lat="37.5696290" lon="-3.8535960">
        <ele>929.4</ele>
        <time>2020-07-17T07:47:35Z</time>
      </trkpt>
      <trkpt lat="37.5696520" lon="-3.8538260">
        <ele>930.0</ele>
        <time>2020-07-17T07:47:39Z</time>
      </trkpt>
      <trkpt lat="37.5696140" lon="-3.8539580">
        <ele>930.6</ele>
        <time>2020-07-17T07:47:42Z</time>
      </trkpt>
      <trkpt lat="37.5695740" lon="-3.8540340">
        <ele>931.0</ele>
        <time>2020-07-17T07:47:44Z</time>
      </trkpt>
      <trkpt lat="37.5695510" lon="-3.8540680">
        <ele>931.2</ele>
        <time>2020-07-17T07:47:45Z</time>
      </trkpt>
      <trkpt lat="37.5694680" lon="-3.8541530">
        <ele>932.0</ele>
        <time>2020-07-17T07:47:48Z</time>
      </trkpt>
      <trkpt lat="37.5694180" lon="-3.8542110">
        <ele>932.4</ele>
        <time>2020-07-17T07:47:50Z</time>
      </trkpt>
      <trkpt lat="37.5693370" lon="-3.8542970">
        <ele>933.0</ele>
        <time>2020-07-17T07:47:53Z</time>
      </trkpt>
      <trkpt lat="37.5692390" lon="-3.8544100">
        <ele>934.0</ele>
        <time>2020-07-17T07:47:57Z</time>
      </trkpt>
      <trkpt lat="37.5692150" lon="-3.8544370">
        <ele>934.2</ele>
        <time>2020-07-17T07:47:58Z</time>
      </trkpt>
      <trkpt lat="37.5691660" lon="-3.8544910">
        <ele>934.8</ele>
        <time>2020-07-17T07:48:00Z</time>
      </trkpt>
      <trkpt lat="37.5690920" lon="-3.8545730">
        <ele>935.4</ele>
        <time>2020-07-17T07:48:03Z</time>
      </trkpt>
      <trkpt lat="37.5690180" lon="-3.8546460">
        <ele>936.0</ele>
        <time>2020-07-17T07:48:06Z</time>
      </trkpt>
      <trkpt lat="37.5689510" lon="-3.8546940">
        <ele>936.4</ele>
        <time>2020-07-17T07:48:08Z</time>
      </trkpt>
      <trkpt lat="37.5687830" lon="-3.8547700">
        <ele>937.4</ele>
        <time>2020-07-17T07:48:13Z</time>
      </trkpt>
      <trkpt lat="37.5686140" lon="-3.8547930">
        <ele>938.6</ele>
        <time>2020-07-17T07:48:18Z</time>
      </trkpt>
      <trkpt lat="37.5685160" lon="-3.8547880">
        <ele>939.4</ele>
        <time>2020-07-17T07:48:21Z</time>
      </trkpt>
      <trkpt lat="37.5684500" lon="-3.8547850">
        <ele>939.8</ele>
        <time>2020-07-17T07:48:23Z</time>
      </trkpt>
      <trkpt lat="37.5682890" lon="-3.8547620">
        <ele>940.8</ele>
        <time>2020-07-17T07:48:28Z</time>
      </trkpt>
      <trkpt lat="37.5681990" lon="-3.8547540">
        <ele>941.4</ele>
        <time>2020-07-17T07:48:31Z</time>
      </trkpt>
      <trkpt lat="37.5681350" lon="-3.8547430">
        <ele>941.8</ele>
        <time>2020-07-17T07:48:33Z</time>
      </trkpt>
      <trkpt lat="37.5679830" lon="-3.8547130">
        <ele>943.0</ele>
        <time>2020-07-17T07:48:38Z</time>
      </trkpt>
      <trkpt lat="37.5678950" lon="-3.8547000">
        <ele>943.6</ele>
        <time>2020-07-17T07:48:41Z</time>
      </trkpt>
      <trkpt lat="37.5678300" lon="-3.8546940">
        <ele>944.0</ele>
        <time>2020-07-17T07:48:43Z</time>
      </trkpt>
      <trkpt lat="37.5676770" lon="-3.8547420">
        <ele>944.8</ele>
        <time>2020-07-17T07:48:48Z</time>
      </trkpt>
      <trkpt lat="37.5676520" lon="-3.8547670">
        <ele>945.0</ele>
        <time>2020-07-17T07:48:49Z</time>
      </trkpt>
      <trkpt lat="37.5675660" lon="-3.8548880">
        <ele>946.0</ele>
        <time>2020-07-17T07:48:53Z</time>
      </trkpt>
      <trkpt lat="37.5675070" lon="-3.8550220">
        <ele>947.2</ele>
        <time>2020-07-17T07:48:57Z</time>
      </trkpt>
      <trkpt lat="37.5674730" lon="-3.8551290">
        <ele>947.8</ele>
        <time>2020-07-17T07:49:00Z</time>
      </trkpt>
      <trkpt lat="37.5674440" lon="-3.8551970">
        <ele>948.2</ele>
        <time>2020-07-17T07:49:02Z</time>
      </trkpt>
      <trkpt lat="37.5673570" lon="-3.8553630">
        <ele>949.2</ele>
        <time>2020-07-17T07:49:07Z</time>
      </trkpt>
      <trkpt lat="37.5673230" lon="-3.8554320">
        <ele>949.6</ele>
        <time>2020-07-17T07:49:09Z</time>
      </trkpt>
      <trkpt lat="37.5672490" lon="-3.8555690">
        <ele>950.4</ele>
        <time>2020-07-17T07:49:13Z</time>
      </trkpt>
      <trkpt lat="37.5671360" lon="-3.8557570">
        <ele>951.4</ele>
        <time>2020-07-17T07:49:19Z</time>
      </trkpt>
      <trkpt lat="37.5670640" lon="-3.8559200">
        <ele>952.6</ele>
        <time>2020-07-17T07:49:24Z</time>
      </trkpt>
      <trkpt lat="37.5670290" lon="-3.8560590">
        <ele>953.6</ele>
        <time>2020-07-17T07:49:28Z</time>
      </trkpt>
      <trkpt lat="37.5670260" lon="-3.8560960">
        <ele>953.8</ele>
        <time>2020-07-17T07:49:29Z</time>
      </trkpt>
      <trkpt lat="37.5669640" lon="-3.8563110">
        <ele>955.0</ele>
        <time>2020-07-17T07:49:35Z</time>
      </trkpt>
      <trkpt lat="37.5668330" lon="-3.8564390">
        <ele>955.8</ele>
        <time>2020-07-17T07:49:40Z</time>
      </trkpt>
      <trkpt lat="37.5667670" lon="-3.8564780">
        <ele>956.0</ele>
        <time>2020-07-17T07:49:42Z</time>
      </trkpt>
      <trkpt lat="37.5666140" lon="-3.8565750">
        <ele>956.2</ele>
        <time>2020-07-17T07:49:46Z</time>
      </trkpt>
      <trkpt lat="37.5665270" lon="-3.8568110">
        <ele>956.2</ele>
        <time>2020-07-17T07:49:50Z</time>
      </trkpt>
      <trkpt lat="37.5665470" lon="-3.8570030">
        <ele>956.2</ele>
        <time>2020-07-17T07:49:53Z</time>
      </trkpt>
      <trkpt lat="37.5665570" lon="-3.8570660">
        <ele>956.2</ele>
        <time>2020-07-17T07:49:54Z</time>
      </trkpt>
      <trkpt lat="37.5665730" lon="-3.8571800">
        <ele>956.2</ele>
        <time>2020-07-17T07:49:56Z</time>
      </trkpt>
      <trkpt lat="37.5665820" lon="-3.8573560">
        <ele>956.6</ele>
        <time>2020-07-17T07:49:59Z</time>
      </trkpt>
      <trkpt lat="37.5665790" lon="-3.8574120">
        <ele>956.6</ele>
        <time>2020-07-17T07:50:00Z</time>
      </trkpt>
      <trkpt lat="37.5665710" lon="-3.8574570">
        <ele>957.0</ele>
        <time>2020-07-17T07:50:01Z</time>
      </trkpt>
      <trkpt lat="37.5665440" lon="-3.8575570">
        <ele>957.2</ele>
        <time>2020-07-17T07:50:03Z</time>
      </trkpt>
      <trkpt lat="37.5665300" lon="-3.8576020">
        <ele>957.4</ele>
        <time>2020-07-17T07:50:04Z</time>
      </trkpt>
      <trkpt lat="37.5664820" lon="-3.8577300">
        <ele>958.2</ele>
        <time>2020-07-17T07:50:07Z</time>
      </trkpt>
      <trkpt lat="37.5664660" lon="-3.8577720">
        <ele>958.4</ele>
        <time>2020-07-17T07:50:08Z</time>
      </trkpt>
      <trkpt lat="37.5664010" lon="-3.8579280">
        <ele>959.2</ele>
        <time>2020-07-17T07:50:12Z</time>
      </trkpt>
      <trkpt lat="37.5663830" lon="-3.8579670">
        <ele>959.4</ele>
        <time>2020-07-17T07:50:13Z</time>
      </trkpt>
      <trkpt lat="37.5663530" lon="-3.8580400">
        <ele>959.8</ele>
        <time>2020-07-17T07:50:15Z</time>
      </trkpt>
      <trkpt lat="37.5663090" lon="-3.8581470">
        <ele>960.6</ele>
        <time>2020-07-17T07:50:18Z</time>
      </trkpt>
      <trkpt lat="37.5662950" lon="-3.8581850">
        <ele>960.8</ele>
        <time>2020-07-17T07:50:19Z</time>
      </trkpt>
      <trkpt lat="37.5662610" lon="-3.8583470">
        <ele>961.6</ele>
        <time>2020-07-17T07:50:23Z</time>
      </trkpt>
      <trkpt lat="37.5662450" lon="-3.8585460">
        <ele>962.8</ele>
        <time>2020-07-17T07:50:28Z</time>
      </trkpt>
      <trkpt lat="37.5662160" lon="-3.8586530">
        <ele>963.4</ele>
        <time>2020-07-17T07:50:31Z</time>
      </trkpt>
      <trkpt lat="37.5661870" lon="-3.8587270">
        <ele>963.8</ele>
        <time>2020-07-17T07:50:33Z</time>
      </trkpt>
      <trkpt lat="37.5660820" lon="-3.8588800">
        <ele>964.6</ele>
        <time>2020-07-17T07:50:38Z</time>
      </trkpt>
      <trkpt lat="37.5660560" lon="-3.8589060">
        <ele>965.0</ele>
        <time>2020-07-17T07:50:39Z</time>
      </trkpt>
      <trkpt lat="37.5659320" lon="-3.8590420">
        <ele>966.2</ele>
        <time>2020-07-17T07:50:44Z</time>
      </trkpt>
      <trkpt lat="37.5659080" lon="-3.8590700">
        <ele>966.4</ele>
        <time>2020-07-17T07:50:45Z</time>
      </trkpt>
      <trkpt lat="37.5657330" lon="-3.8592650">
        <ele>967.2</ele>
        <time>2020-07-17T07:50:52Z</time>
      </trkpt>
      <trkpt lat="37.5656860" lon="-3.8593180">
        <ele>967.6</ele>
        <time>2020-07-17T07:50:54Z</time>
      </trkpt>
      <trkpt lat="37.5655970" lon="-3.8594290">
        <ele>968.4</ele>
        <time>2020-07-17T07:50:58Z</time>
      </trkpt>
      <trkpt lat="37.5654780" lon="-3.8595470">
        <ele>969.6</ele>
        <time>2020-07-17T07:51:03Z</time>
      </trkpt>
      <trkpt lat="37.5654520" lon="-3.8595680">
        <ele>969.8</ele>
        <time>2020-07-17T07:51:04Z</time>
      </trkpt>
      <trkpt lat="37.5653390" lon="-3.8596300">
        <ele>970.6</ele>
        <time>2020-07-17T07:51:08Z</time>
      </trkpt>
      <trkpt lat="37.5652260" lon="-3.8596870">
        <ele>971.4</ele>
        <time>2020-07-17T07:51:12Z</time>
      </trkpt>
      <trkpt lat="37.5651970" lon="-3.8597010">
        <ele>971.6</ele>
        <time>2020-07-17T07:51:13Z</time>
      </trkpt>
      <trkpt lat="37.5650390" lon="-3.8598290">
        <ele>972.6</ele>
        <time>2020-07-17T07:51:19Z</time>
      </trkpt>
      <trkpt lat="37.5649770" lon="-3.8600040">
        <ele>973.6</ele>
        <time>2020-07-17T07:51:24Z</time>
      </trkpt>
      <trkpt lat="37.5649530" lon="-3.8601980">
        <ele>974.8</ele>
        <time>2020-07-17T07:51:29Z</time>
      </trkpt>
      <trkpt lat="37.5649430" lon="-3.8602810">
        <ele>975.2</ele>
        <time>2020-07-17T07:51:31Z</time>
      </trkpt>
      <trkpt lat="37.5649290" lon="-3.8604060">
        <ele>975.8</ele>
        <time>2020-07-17T07:51:34Z</time>
      </trkpt>
      <trkpt lat="37.5648950" lon="-3.8605980">
        <ele>976.8</ele>
        <time>2020-07-17T07:51:39Z</time>
      </trkpt>
      <trkpt lat="37.5648420" lon="-3.8607760">
        <ele>978.2</ele>
        <time>2020-07-17T07:51:44Z</time>
      </trkpt>
      <trkpt lat="37.5647830" lon="-3.8609060">
        <ele>979.0</ele>
        <time>2020-07-17T07:51:48Z</time>
      </trkpt>
      <trkpt lat="37.5647720" lon="-3.8609410">
        <ele>979.2</ele>
        <time>2020-07-17T07:51:49Z</time>
      </trkpt>
      <trkpt lat="37.5646840" lon="-3.8611070">
        <ele>980.2</ele>
        <time>2020-07-17T07:51:54Z</time>
      </trkpt>
      <trkpt lat="37.5646660" lon="-3.8611360">
        <ele>980.4</ele>
        <time>2020-07-17T07:51:55Z</time>
      </trkpt>
      <trkpt lat="37.5645690" lon="-3.8612730">
        <ele>981.4</ele>
        <time>2020-07-17T07:52:00Z</time>
      </trkpt>
      <trkpt lat="37.5644680" lon="-3.8613930">
        <ele>982.6</ele>
        <time>2020-07-17T07:52:05Z</time>
      </trkpt>
      <trkpt lat="37.5643500" lon="-3.8615360">
        <ele>983.8</ele>
        <time>2020-07-17T07:52:11Z</time>
      </trkpt>
      <trkpt lat="37.5642720" lon="-3.8616390">
        <ele>984.6</ele>
        <time>2020-07-17T07:52:15Z</time>
      </trkpt>
      <trkpt lat="37.5642540" lon="-3.8616620">
        <ele>984.8</ele>
        <time>2020-07-17T07:52:16Z</time>
      </trkpt>
      <trkpt lat="37.5641540" lon="-3.8617770">
        <ele>985.8</ele>
        <time>2020-07-17T07:52:21Z</time>
      </trkpt>
      <trkpt lat="37.5640740" lon="-3.8618710">
        <ele>986.6</ele>
        <time>2020-07-17T07:52:25Z</time>
      </trkpt>
      <trkpt lat="37.5640360" lon="-3.8619180">
        <ele>987.0</ele>
        <time>2020-07-17T07:52:27Z</time>
      </trkpt>
      <trkpt lat="37.5639400" lon="-3.8620200">
        <ele>988.0</ele>
        <time>2020-07-17T07:52:32Z</time>
      </trkpt>
      <trkpt lat="37.5638620" lon="-3.8620810">
        <ele>988.8</ele>
        <time>2020-07-17T07:52:36Z</time>
      </trkpt>
      <trkpt lat="37.5638400" lon="-3.8620950">
        <ele>989.0</ele>
        <time>2020-07-17T07:52:37Z</time>
      </trkpt>
      <trkpt lat="37.5637330" lon="-3.8621620">
        <ele>990.2</ele>
        <time>2020-07-17T07:52:42Z</time>
      </trkpt>
      <trkpt lat="37.5636170" lon="-3.8622310">
        <ele>991.0</ele>
        <time>2020-07-17T07:52:47Z</time>
      </trkpt>
      <trkpt lat="37.5635690" lon="-3.8622580">
        <ele>991.4</ele>
        <time>2020-07-17T07:52:49Z</time>
      </trkpt>
      <trkpt lat="37.5634170" lon="-3.8623380">
        <ele>992.6</ele>
        <time>2020-07-17T07:52:55Z</time>
      </trkpt>
      <trkpt lat="37.5633640" lon="-3.8623670">
        <ele>993.0</ele>
        <time>2020-07-17T07:52:57Z</time>
      </trkpt>
      <trkpt lat="37.5632630" lon="-3.8624240">
        <ele>993.8</ele>
        <time>2020-07-17T07:53:01Z</time>
      </trkpt>
      <trkpt lat="37.5631360" lon="-3.8624970">
        <ele>994.6</ele>
        <time>2020-07-17T07:53:06Z</time>
      </trkpt>
      <trkpt lat="37.5630840" lon="-3.8625240">
        <ele>994.8</ele>
        <time>2020-07-17T07:53:08Z</time>
      </trkpt>
      <trkpt lat="37.5629720" lon="-3.8626250">
        <ele>995.8</ele>
        <time>2020-07-17T07:53:13Z</time>
      </trkpt>
      <trkpt lat="37.5628970" lon="-3.8627660">
        <ele>997.0</ele>
        <time>2020-07-17T07:53:18Z</time>
      </trkpt>
      <trkpt lat="37.5628850" lon="-3.8627990">
        <ele>997.2</ele>
        <time>2020-07-17T07:53:19Z</time>
      </trkpt>
      <trkpt lat="37.5628840" lon="-3.8629450">
        <ele>998.2</ele>
        <time>2020-07-17T07:53:23Z</time>
      </trkpt>
      <trkpt lat="37.5628890" lon="-3.8629840">
        <ele>998.4</ele>
        <time>2020-07-17T07:53:24Z</time>
      </trkpt>
      <trkpt lat="37.5629310" lon="-3.8631600">
        <ele>999.2</ele>
        <time>2020-07-17T07:53:29Z</time>
      </trkpt>
      <trkpt lat="37.5629700" lon="-3.8632580">
        <ele>1000.0</ele>
        <time>2020-07-17T07:53:32Z</time>
      </trkpt>
      <trkpt lat="37.5629940" lon="-3.8633260">
        <ele>1000.4</ele>
        <time>2020-07-17T07:53:34Z</time>
      </trkpt>
      <trkpt lat="37.5630670" lon="-3.8635290">
        <ele>1001.4</ele>
        <time>2020-07-17T07:53:40Z</time>
      </trkpt>
      <trkpt lat="37.5630950" lon="-3.8635920">
        <ele>1001.8</ele>
        <time>2020-07-17T07:53:42Z</time>
      </trkpt>
      <trkpt lat="37.5631460" lon="-3.8637180">
        <ele>1002.6</ele>
        <time>2020-07-17T07:53:46Z</time>
      </trkpt>
      <trkpt lat="37.5631870" lon="-3.8638480">
        <ele>1003.6</ele>
        <time>2020-07-17T07:53:50Z</time>
      </trkpt>
      <trkpt lat="37.5631950" lon="-3.8638780">
        <ele>1003.8</ele>
        <time>2020-07-17T07:53:51Z</time>
      </trkpt>
      <trkpt lat="37.5632120" lon="-3.8639800">
        <ele>1004.6</ele>
        <time>2020-07-17T07:53:54Z</time>
      </trkpt>
      <trkpt lat="37.5632120" lon="-3.8640140">
        <ele>1005.0</ele>
        <time>2020-07-17T07:53:55Z</time>
      </trkpt>
      <trkpt lat="37.5632060" lon="-3.8641170">
        <ele>1005.6</ele>
        <time>2020-07-17T07:53:58Z</time>
      </trkpt>
      <trkpt lat="37.5631940" lon="-3.8641850">
        <ele>1006.0</ele>
        <time>2020-07-17T07:54:00Z</time>
      </trkpt>
      <trkpt lat="37.5631600" lon="-3.8643880">
        <ele>1007.2</ele>
        <time>2020-07-17T07:54:06Z</time>
      </trkpt>
      <trkpt lat="37.5631520" lon="-3.8644250">
        <ele>1007.4</ele>
        <time>2020-07-17T07:54:07Z</time>
      </trkpt>
      <trkpt lat="37.5631240" lon="-3.8645930">
        <ele>1008.4</ele>
        <time>2020-07-17T07:54:12Z</time>
      </trkpt>
      <trkpt lat="37.5631100" lon="-3.8647250">
        <ele>1009.4</ele>
        <time>2020-07-17T07:54:16Z</time>
      </trkpt>
      <trkpt lat="37.5631070" lon="-3.8647600">
        <ele>1009.6</ele>
        <time>2020-07-17T07:54:17Z</time>
      </trkpt>
      <trkpt lat="37.5630930" lon="-3.8649650">
        <ele>1010.8</ele>
        <time>2020-07-17T07:54:23Z</time>
      </trkpt>
      <trkpt lat="37.5631080" lon="-3.8651070">
        <ele>1011.4</ele>
        <time>2020-07-17T07:54:27Z</time>
      </trkpt>
      <trkpt lat="37.5631290" lon="-3.8652090">
        <ele>1011.8</ele>
        <time>2020-07-17T07:54:30Z</time>
      </trkpt>
      <trkpt lat="37.5631920" lon="-3.8653300">
        <ele>1012.8</ele>
        <time>2020-07-17T07:54:34Z</time>
      </trkpt>
      <trkpt lat="37.5632100" lon="-3.8653580">
        <ele>1013.0</ele>
        <time>2020-07-17T07:54:35Z</time>
      </trkpt>
      <trkpt lat="37.5633390" lon="-3.8654610">
        <ele>1014.0</ele>
        <time>2020-07-17T07:54:40Z</time>
      </trkpt>
      <trkpt lat="37.5633650" lon="-3.8654710">
        <ele>1014.0</ele>
        <time>2020-07-17T07:54:41Z</time>
      </trkpt>
      <trkpt lat="37.5635830" lon="-3.8655230">
        <ele>1015.0</ele>
        <time>2020-07-17T07:54:48Z</time>
      </trkpt>
      <trkpt lat="37.5636130" lon="-3.8655400">
        <ele>1015.0</ele>
        <time>2020-07-17T07:54:49Z</time>
      </trkpt>
      <trkpt lat="37.5637260" lon="-3.8656290">
        <ele>1015.8</ele>
        <time>2020-07-17T07:54:53Z</time>
      </trkpt>
      <trkpt lat="37.5637850" lon="-3.8658250">
        <ele>1016.2</ele>
        <time>2020-07-17T07:54:58Z</time>
      </trkpt>
      <trkpt lat="37.5637490" lon="-3.8660180">
        <ele>1017.0</ele>
        <time>2020-07-17T07:55:03Z</time>
      </trkpt>
      <trkpt lat="37.5637400" lon="-3.8660940">
        <ele>1017.2</ele>
        <time>2020-07-17T07:55:05Z</time>
      </trkpt>
      <trkpt lat="37.5637600" lon="-3.8662520">
        <ele>1018.0</ele>
        <time>2020-07-17T07:55:09Z</time>
      </trkpt>
      <trkpt lat="37.5637750" lon="-3.8662860">
        <ele>1018.2</ele>
        <time>2020-07-17T07:55:10Z</time>
      </trkpt>
      <trkpt lat="37.5638370" lon="-3.8664030">
        <ele>1019.0</ele>
        <time>2020-07-17T07:55:14Z</time>
      </trkpt>
      <trkpt lat="37.5638540" lon="-3.8664310">
        <ele>1019.2</ele>
        <time>2020-07-17T07:55:15Z</time>
      </trkpt>
      <trkpt lat="37.5638680" lon="-3.8664580">
        <ele>1019.4</ele>
        <time>2020-07-17T07:55:16Z</time>
      </trkpt>
      <trkpt lat="37.5639200" lon="-3.8665830">
        <ele>1020.6</ele>
        <time>2020-07-17T07:55:20Z</time>
      </trkpt>
      <trkpt lat="37.5639600" lon="-3.8667160">
        <ele>1021.4</ele>
        <time>2020-07-17T07:55:24Z</time>
      </trkpt>
      <trkpt lat="37.5639720" lon="-3.8667880">
        <ele>1021.8</ele>
        <time>2020-07-17T07:55:26Z</time>
      </trkpt>
      <trkpt lat="37.5639890" lon="-3.8669020">
        <ele>1022.4</ele>
        <time>2020-07-17T07:55:29Z</time>
      </trkpt>
      <trkpt lat="37.5640000" lon="-3.8669740">
        <ele>1022.6</ele>
        <time>2020-07-17T07:55:31Z</time>
      </trkpt>
      <trkpt lat="37.5640040" lon="-3.8670120">
        <ele>1022.8</ele>
        <time>2020-07-17T07:55:32Z</time>
      </trkpt>
      <trkpt lat="37.5640240" lon="-3.8672260">
        <ele>1024.0</ele>
        <time>2020-07-17T07:55:38Z</time>
      </trkpt>
      <trkpt lat="37.5640460" lon="-3.8672980">
        <ele>1024.4</ele>
        <time>2020-07-17T07:55:40Z</time>
      </trkpt>
      <trkpt lat="37.5641190" lon="-3.8674200">
        <ele>1025.2</ele>
        <time>2020-07-17T07:55:44Z</time>
      </trkpt>
      <trkpt lat="37.5641710" lon="-3.8674530">
        <ele>1025.4</ele>
        <time>2020-07-17T07:55:46Z</time>
      </trkpt>
      <trkpt lat="37.5642580" lon="-3.8674790">
        <ele>1026.2</ele>
        <time>2020-07-17T07:55:49Z</time>
      </trkpt>
      <trkpt lat="37.5642850" lon="-3.8674870">
        <ele>1026.4</ele>
        <time>2020-07-17T07:55:50Z</time>
      </trkpt>
      <trkpt lat="37.5643390" lon="-3.8674920">
        <ele>1026.6</ele>
        <time>2020-07-17T07:55:52Z</time>
      </trkpt>
      <trkpt lat="37.5643920" lon="-3.8674790">
        <ele>1027.2</ele>
        <time>2020-07-17T07:55:54Z</time>
      </trkpt>
      <trkpt lat="37.5645320" lon="-3.8674390">
        <ele>1028.4</ele>
        <time>2020-07-17T07:55:59Z</time>
      </trkpt>
      <trkpt lat="37.5647150" lon="-3.8674180">
        <ele>1029.4</ele>
        <time>2020-07-17T07:56:05Z</time>
      </trkpt>
      <trkpt lat="37.5647550" lon="-3.8674290">
        <ele>1029.6</ele>
        <time>2020-07-17T07:56:06Z</time>
      </trkpt>
      <trkpt lat="37.5649300" lon="-3.8675450">
        <ele>1030.8</ele>
        <time>2020-07-17T07:56:12Z</time>
      </trkpt>
      <trkpt lat="37.5649550" lon="-3.8675690">
        <ele>1031.0</ele>
        <time>2020-07-17T07:56:13Z</time>
      </trkpt>
      <trkpt lat="37.5650510" lon="-3.8676660">
        <ele>1031.8</ele>
        <time>2020-07-17T07:56:17Z</time>
      </trkpt>
      <trkpt lat="37.5651470" lon="-3.8678150">
        <ele>1032.8</ele>
        <time>2020-07-17T07:56:22Z</time>
      </trkpt>
      <trkpt lat="37.5651600" lon="-3.8678480">
        <ele>1033.0</ele>
        <time>2020-07-17T07:56:23Z</time>
      </trkpt>
      <trkpt lat="37.5652140" lon="-3.8680310">
        <ele>1034.0</ele>
        <time>2020-07-17T07:56:28Z</time>
      </trkpt>
      <trkpt lat="37.5652390" lon="-3.8681400">
        <ele>1034.8</ele>
        <time>2020-07-17T07:56:31Z</time>
      </trkpt>
      <trkpt lat="37.5652460" lon="-3.8681800">
        <ele>1035.2</ele>
        <time>2020-07-17T07:56:32Z</time>
      </trkpt>
      <trkpt lat="37.5652550" lon="-3.8684070">
        <ele>1036.2</ele>
        <time>2020-07-17T07:56:38Z</time>
      </trkpt>
      <trkpt lat="37.5652520" lon="-3.8684440">
        <ele>1036.4</ele>
        <time>2020-07-17T07:56:39Z</time>
      </trkpt>
      <trkpt lat="37.5652400" lon="-3.8685970">
        <ele>1037.4</ele>
        <time>2020-07-17T07:56:43Z</time>
      </trkpt>
      <trkpt lat="37.5652270" lon="-3.8688250">
        <ele>1038.4</ele>
        <time>2020-07-17T07:56:49Z</time>
      </trkpt>
      <trkpt lat="37.5652290" lon="-3.8688630">
        <ele>1038.6</ele>
        <time>2020-07-17T07:56:50Z</time>
      </trkpt>
      <trkpt lat="37.5652710" lon="-3.8690360">
        <ele>1039.8</ele>
        <time>2020-07-17T07:56:55Z</time>
      </trkpt>
      <trkpt lat="37.5652850" lon="-3.8690620">
        <ele>1040.0</ele>
        <time>2020-07-17T07:56:56Z</time>
      </trkpt>
      <trkpt lat="37.5653370" lon="-3.8691440">
        <ele>1040.8</ele>
        <time>2020-07-17T07:56:59Z</time>
      </trkpt>
      <trkpt lat="37.5654210" lon="-3.8692700">
        <ele>1042.0</ele>
        <time>2020-07-17T07:57:04Z</time>
      </trkpt>
      <trkpt lat="37.5654380" lon="-3.8692950">
        <ele>1042.2</ele>
        <time>2020-07-17T07:57:05Z</time>
      </trkpt>
      <trkpt lat="37.5655070" lon="-3.8693990">
        <ele>1043.2</ele>
        <time>2020-07-17T07:57:09Z</time>
      </trkpt>
      <trkpt lat="37.5655500" lon="-3.8694840">
        <ele>1043.8</ele>
        <time>2020-07-17T07:57:12Z</time>
      </trkpt>
      <trkpt lat="37.5655720" lon="-3.8695450">
        <ele>1044.4</ele>
        <time>2020-07-17T07:57:14Z</time>
      </trkpt>
      <trkpt lat="37.5656000" lon="-3.8696440">
        <ele>1045.0</ele>
        <time>2020-07-17T07:57:17Z</time>
      </trkpt>
      <trkpt lat="37.5656160" lon="-3.8697150">
        <ele>1045.6</ele>
        <time>2020-07-17T07:57:19Z</time>
      </trkpt>
      <trkpt lat="37.5656240" lon="-3.8697510">
        <ele>1045.8</ele>
        <time>2020-07-17T07:57:20Z</time>
      </trkpt>
      <trkpt lat="37.5656420" lon="-3.8699050">
        <ele>1046.6</ele>
        <time>2020-07-17T07:57:24Z</time>
      </trkpt>
      <trkpt lat="37.5656680" lon="-3.8700730">
        <ele>1047.4</ele>
        <time>2020-07-17T07:57:28Z</time>
      </trkpt>
      <trkpt lat="37.5656900" lon="-3.8701990">
        <ele>1047.8</ele>
        <time>2020-07-17T07:57:31Z</time>
      </trkpt>
      <trkpt lat="37.5657490" lon="-3.8706070">
        <ele>1048.6</ele>
        <time>2020-07-17T07:57:40Z</time>
      </trkpt>
      <trkpt lat="37.5657680" lon="-3.8707900">
        <ele>1048.8</ele>
        <time>2020-07-17T07:57:44Z</time>
      </trkpt>
      <trkpt lat="37.5658010" lon="-3.8709060">
        <ele>1049.0</ele>
        <time>2020-07-17T07:57:47Z</time>
      </trkpt>
      <trkpt lat="37.5658140" lon="-3.8709420">
        <ele>1049.2</ele>
        <time>2020-07-17T07:57:48Z</time>
      </trkpt>
      <trkpt lat="37.5658150" lon="-3.8709460">
        <ele>1049.2</ele>
        <time>2020-07-17T07:57:50Z</time>
      </trkpt>
      <trkpt lat="37.5658060" lon="-3.8710010">
        <ele>1049.2</ele>
        <time>2020-07-17T08:01:58Z</time>
      </trkpt>
      <trkpt lat="37.5658530" lon="-3.8711750">
        <ele>1049.2</ele>
        <time>2020-07-17T08:02:03Z</time>
      </trkpt>
      <trkpt lat="37.5658640" lon="-3.8712170">
        <ele>1049.0</ele>
        <time>2020-07-17T08:02:04Z</time>
      </trkpt>
      <trkpt lat="37.5658820" lon="-3.8712840">
        <ele>1049.0</ele>
        <time>2020-07-17T08:02:06Z</time>
      </trkpt>
      <trkpt lat="37.5659670" lon="-3.8715660">
        <ele>1048.4</ele>
        <time>2020-07-17T08:02:11Z</time>
      </trkpt>
      <trkpt lat="37.5660830" lon="-3.8719780">
        <ele>1047.8</ele>
        <time>2020-07-17T08:02:17Z</time>
      </trkpt>
      <trkpt lat="37.5661050" lon="-3.8720550">
        <ele>1047.8</ele>
        <time>2020-07-17T08:02:18Z</time>
      </trkpt>
      <trkpt lat="37.5662500" lon="-3.8725470">
        <ele>1046.8</ele>
        <time>2020-07-17T08:02:24Z</time>
      </trkpt>
      <trkpt lat="37.5662750" lon="-3.8726410">
        <ele>1046.6</ele>
        <time>2020-07-17T08:02:25Z</time>
      </trkpt>
      <trkpt lat="37.5663610" lon="-3.8730560">
        <ele>1045.6</ele>
        <time>2020-07-17T08:02:29Z</time>
      </trkpt>
      <trkpt lat="37.5663860" lon="-3.8734260">
        <ele>1044.4</ele>
        <time>2020-07-17T08:02:32Z</time>
      </trkpt>
      <trkpt lat="37.5663880" lon="-3.8735550">
        <ele>1044.0</ele>
        <time>2020-07-17T08:02:33Z</time>
      </trkpt>
      <trkpt lat="37.5663880" lon="-3.8738210">
        <ele>1043.0</ele>
        <time>2020-07-17T08:02:35Z</time>
      </trkpt>
      <trkpt lat="37.5663950" lon="-3.8741110">
        <ele>1041.8</ele>
        <time>2020-07-17T08:02:37Z</time>
      </trkpt>
      <trkpt lat="37.5664280" lon="-3.8744010">
        <ele>1040.4</ele>
        <time>2020-07-17T08:02:39Z</time>
      </trkpt>
      <trkpt lat="37.5664720" lon="-3.8746730">
        <ele>1039.0</ele>
        <time>2020-07-17T08:02:41Z</time>
      </trkpt>
      <trkpt lat="37.5665210" lon="-3.8749780">
        <ele>1037.6</ele>
        <time>2020-07-17T08:02:43Z</time>
      </trkpt>
      <trkpt lat="37.5665590" lon="-3.8752610">
        <ele>1036.6</ele>
        <time>2020-07-17T08:02:45Z</time>
      </trkpt>
      <trkpt lat="37.5665700" lon="-3.8753870">
        <ele>1036.2</ele>
        <time>2020-07-17T08:02:46Z</time>
      </trkpt>
      <trkpt lat="37.5665770" lon="-3.8755350">
        <ele>1035.6</ele>
        <time>2020-07-17T08:02:47Z</time>
      </trkpt>
      <trkpt lat="37.5665530" lon="-3.8759530">
        <ele>1034.8</ele>
        <time>2020-07-17T08:02:50Z</time>
      </trkpt>
      <trkpt lat="37.5665370" lon="-3.8760770">
        <ele>1034.4</ele>
        <time>2020-07-17T08:02:51Z</time>
      </trkpt>
      <trkpt lat="37.5664920" lon="-3.8764550">
        <ele>1033.4</ele>
        <time>2020-07-17T08:02:54Z</time>
      </trkpt>
      <trkpt lat="37.5664490" lon="-3.8765590">
        <ele>1033.4</ele>
        <time>2020-07-17T08:02:55Z</time>
      </trkpt>
      <trkpt lat="37.5662990" lon="-3.8770420">
        <ele>1032.8</ele>
        <time>2020-07-17T08:03:00Z</time>
      </trkpt>
      <trkpt lat="37.5662820" lon="-3.8774070">
        <ele>1032.6</ele>
        <time>2020-07-17T08:03:04Z</time>
      </trkpt>
      <trkpt lat="37.5662820" lon="-3.8774870">
        <ele>1032.4</ele>
        <time>2020-07-17T08:03:05Z</time>
      </trkpt>
      <trkpt lat="37.5662690" lon="-3.8779440">
        <ele>1031.6</ele>
        <time>2020-07-17T08:03:11Z</time>
      </trkpt>
      <trkpt lat="37.5662620" lon="-3.8780750">
        <ele>1031.6</ele>
        <time>2020-07-17T08:03:13Z</time>
      </trkpt>
      <trkpt lat="37.5662390" lon="-3.8781680">
        <ele>1031.2</ele>
        <time>2020-07-17T08:03:15Z</time>
      </trkpt>
      <trkpt lat="37.5662210" lon="-3.8782540">
        <ele>1030.6</ele>
        <time>2020-07-17T08:03:17Z</time>
      </trkpt>
      <trkpt lat="37.5662010" lon="-3.8783940">
        <ele>1030.0</ele>
        <time>2020-07-17T08:03:20Z</time>
      </trkpt>
      <trkpt lat="37.5661910" lon="-3.8784340">
        <ele>1029.8</ele>
        <time>2020-07-17T08:03:21Z</time>
      </trkpt>
      <trkpt lat="37.5661560" lon="-3.8786610">
        <ele>1029.0</ele>
        <time>2020-07-17T08:03:26Z</time>
      </trkpt>
      <trkpt lat="37.5661430" lon="-3.8787100">
        <ele>1028.8</ele>
        <time>2020-07-17T08:03:27Z</time>
      </trkpt>
      <trkpt lat="37.5660670" lon="-3.8789580">
        <ele>1027.8</ele>
        <time>2020-07-17T08:03:33Z</time>
      </trkpt>
      <trkpt lat="37.5660280" lon="-3.8790870">
        <ele>1027.4</ele>
        <time>2020-07-17T08:03:36Z</time>
      </trkpt>
      <trkpt lat="37.5660030" lon="-3.8791380">
        <ele>1027.2</ele>
        <time>2020-07-17T08:03:37Z</time>
      </trkpt>
      <trkpt lat="37.5659870" lon="-3.8791910">
        <ele>1027.0</ele>
        <time>2020-07-17T08:03:38Z</time>
      </trkpt>
      <trkpt lat="37.5659580" lon="-3.8792980">
        <ele>1026.8</ele>
        <time>2020-07-17T08:03:40Z</time>
      </trkpt>
      <trkpt lat="37.5659290" lon="-3.8793990">
        <ele>1026.4</ele>
        <time>2020-07-17T08:03:42Z</time>
      </trkpt>
      <trkpt lat="37.5658900" lon="-3.8795720">
        <ele>1026.0</ele>
        <time>2020-07-17T08:03:45Z</time>
      </trkpt>
      <trkpt lat="37.5658930" lon="-3.8796180">
        <ele>1025.8</ele>
        <time>2020-07-17T08:03:46Z</time>
      </trkpt>
      <trkpt lat="37.5658900" lon="-3.8796690">
        <ele>1025.8</ele>
        <time>2020-07-17T08:03:47Z</time>
      </trkpt>
      <trkpt lat="37.5658710" lon="-3.8797510">
        <ele>1025.6</ele>
        <time>2020-07-17T08:03:49Z</time>
      </trkpt>
      <trkpt lat="37.5658660" lon="-3.8798160">
        <ele>1025.6</ele>
        <time>2020-07-17T08:03:51Z</time>
      </trkpt>
      <trkpt lat="37.5658600" lon="-3.8799330">
        <ele>1026.2</ele>
        <time>2020-07-17T08:03:56Z</time>
      </trkpt>
      <trkpt lat="37.5658490" lon="-3.8799900">
        <ele>1026.4</ele>
        <time>2020-07-17T08:03:59Z</time>
      </trkpt>
      <trkpt lat="37.5658460" lon="-3.8800280">
        <ele>1026.4</ele>
        <time>2020-07-17T08:04:01Z</time>
      </trkpt>
      <trkpt lat="37.5658180" lon="-3.8800090">
        <ele>1026.4</ele>
        <time>2020-07-17T08:04:04Z</time>
      </trkpt>
      <trkpt lat="37.5658460" lon="-3.8800170">
        <ele>1026.6</ele>
        <time>2020-07-17T08:04:07Z</time>
      </trkpt>
      <trkpt lat="37.5658310" lon="-3.8800650">
        <ele>1026.6</ele>
        <time>2020-07-17T08:04:10Z</time>
      </trkpt>
      <trkpt lat="37.5658240" lon="-3.8800830">
        <ele>1026.6</ele>
        <time>2020-07-17T08:04:11Z</time>
      </trkpt>
      <trkpt lat="37.5658150" lon="-3.8801110">
        <ele>1026.6</ele>
        <time>2020-07-17T08:04:12Z</time>
      </trkpt>
      <trkpt lat="37.5657350" lon="-3.8802870">
        <ele>1026.6</ele>
        <time>2020-07-17T08:04:17Z</time>
      </trkpt>
      <trkpt lat="37.5657060" lon="-3.8803340">
        <ele>1026.6</ele>
        <time>2020-07-17T08:04:18Z</time>
      </trkpt>
      <trkpt lat="37.5655800" lon="-3.8804520">
        <ele>1026.4</ele>
        <time>2020-07-17T08:04:21Z</time>
      </trkpt>
      <trkpt lat="37.5652920" lon="-3.8806260">
        <ele>1025.2</ele>
        <time>2020-07-17T08:04:25Z</time>
      </trkpt>
      <trkpt lat="37.5651090" lon="-3.8807140">
        <ele>1024.2</ele>
        <time>2020-07-17T08:04:27Z</time>
      </trkpt>
      <trkpt lat="37.5649130" lon="-3.8807950">
        <ele>1022.8</ele>
        <time>2020-07-17T08:04:29Z</time>
      </trkpt>
      <trkpt lat="37.5647280" lon="-3.8809180">
        <ele>1021.2</ele>
        <time>2020-07-17T08:04:31Z</time>
      </trkpt>
      <trkpt lat="37.5646560" lon="-3.8810360">
        <ele>1020.6</ele>
        <time>2020-07-17T08:04:32Z</time>
      </trkpt>
      <trkpt lat="37.5646240" lon="-3.8811680">
        <ele>1019.6</ele>
        <time>2020-07-17T08:04:33Z</time>
      </trkpt>
      <trkpt lat="37.5646250" lon="-3.8812370">
        <ele>1018.4</ele>
        <time>2020-07-17T08:04:34Z</time>
      </trkpt>
      <trkpt lat="37.5646400" lon="-3.8814080">
        <ele>1017.2</ele>
        <time>2020-07-17T08:04:35Z</time>
      </trkpt>
      <trkpt lat="37.5646550" lon="-3.8815800">
        <ele>1016.2</ele>
        <time>2020-07-17T08:04:36Z</time>
      </trkpt>
      <trkpt lat="37.5646770" lon="-3.8817440">
        <ele>1015.4</ele>
        <time>2020-07-17T08:04:37Z</time>
      </trkpt>
      <trkpt lat="37.5646950" lon="-3.8818980">
        <ele>1014.4</ele>
        <time>2020-07-17T08:04:38Z</time>
      </trkpt>
      <trkpt lat="37.5647220" lon="-3.8822150">
        <ele>1012.4</ele>
        <time>2020-07-17T08:04:40Z</time>
      </trkpt>
      <trkpt lat="37.5647220" lon="-3.8823450">
        <ele>1011.4</ele>
        <time>2020-07-17T08:04:41Z</time>
      </trkpt>
      <trkpt lat="37.5646950" lon="-3.8825170">
        <ele>1010.4</ele>
        <time>2020-07-17T08:04:42Z</time>
      </trkpt>
      <trkpt lat="37.5645610" lon="-3.8827630">
        <ele>1008.6</ele>
        <time>2020-07-17T08:04:44Z</time>
      </trkpt>
      <trkpt lat="37.5644070" lon="-3.8829710">
        <ele>1007.4</ele>
        <time>2020-07-17T08:04:46Z</time>
      </trkpt>
      <trkpt lat="37.5642560" lon="-3.8831850">
        <ele>1006.4</ele>
        <time>2020-07-17T08:04:48Z</time>
      </trkpt>
      <trkpt lat="37.5641860" lon="-3.8832820">
        <ele>1006.2</ele>
        <time>2020-07-17T08:04:49Z</time>
      </trkpt>
      <trkpt lat="37.5640000" lon="-3.8835760">
        <ele>1006.0</ele>
        <time>2020-07-17T08:04:52Z</time>
      </trkpt>
      <trkpt lat="37.5639710" lon="-3.8836770">
        <ele>1006.0</ele>
        <time>2020-07-17T08:04:53Z</time>
      </trkpt>
      <trkpt lat="37.5640130" lon="-3.8838990">
        <ele>1005.6</ele>
        <time>2020-07-17T08:04:55Z</time>
      </trkpt>
      <trkpt lat="37.5641310" lon="-3.8840980">
        <ele>1004.6</ele>
        <time>2020-07-17T08:04:57Z</time>
      </trkpt>
      <trkpt lat="37.5641840" lon="-3.8841890">
        <ele>1003.8</ele>
        <time>2020-07-17T08:04:58Z</time>
      </trkpt>
      <trkpt lat="37.5642270" lon="-3.8842970">
        <ele>1003.2</ele>
        <time>2020-07-17T08:04:59Z</time>
      </trkpt>
      <trkpt lat="37.5642260" lon="-3.8845420">
        <ele>1002.0</ele>
        <time>2020-07-17T08:05:01Z</time>
      </trkpt>
      <trkpt lat="37.5642070" lon="-3.8848220">
        <ele>1001.0</ele>
        <time>2020-07-17T08:05:03Z</time>
      </trkpt>
      <trkpt lat="37.5642040" lon="-3.8850950">
        <ele>999.2</ele>
        <time>2020-07-17T08:05:05Z</time>
      </trkpt>
      <trkpt lat="37.5641980" lon="-3.8852300">
        <ele>998.4</ele>
        <time>2020-07-17T08:05:06Z</time>
      </trkpt>
      <trkpt lat="37.5641880" lon="-3.8853980">
        <ele>997.8</ele>
        <time>2020-07-17T08:05:07Z</time>
      </trkpt>
      <trkpt lat="37.5641740" lon="-3.8856980">
        <ele>996.8</ele>
        <time>2020-07-17T08:05:09Z</time>
      </trkpt>
      <trkpt lat="37.5641650" lon="-3.8859750">
        <ele>995.6</ele>
        <time>2020-07-17T08:05:11Z</time>
      </trkpt>
      <trkpt lat="37.5641420" lon="-3.8863020">
        <ele>993.8</ele>
        <time>2020-07-17T08:05:13Z</time>
      </trkpt>
      <trkpt lat="37.5641160" lon="-3.8866160">
        <ele>992.2</ele>
        <time>2020-07-17T08:05:15Z</time>
      </trkpt>
      <trkpt lat="37.5641220" lon="-3.8868910">
        <ele>991.0</ele>
        <time>2020-07-17T08:05:17Z</time>
      </trkpt>
      <trkpt lat="37.5641330" lon="-3.8870910">
        <ele>990.0</ele>
        <time>2020-07-17T08:05:18Z</time>
      </trkpt>
      <trkpt lat="37.5641400" lon="-3.8872520">
        <ele>989.2</ele>
        <time>2020-07-17T08:05:19Z</time>
      </trkpt>
      <trkpt lat="37.5641970" lon="-3.8875470">
        <ele>988.0</ele>
        <time>2020-07-17T08:05:21Z</time>
      </trkpt>
      <trkpt lat="37.5642710" lon="-3.8876840">
        <ele>987.4</ele>
        <time>2020-07-17T08:05:22Z</time>
      </trkpt>
      <trkpt lat="37.5644200" lon="-3.8879120">
        <ele>986.6</ele>
        <time>2020-07-17T08:05:24Z</time>
      </trkpt>
      <trkpt lat="37.5644600" lon="-3.8880640">
        <ele>986.0</ele>
        <time>2020-07-17T08:05:25Z</time>
      </trkpt>
      <trkpt lat="37.5644540" lon="-3.8881920">
        <ele>985.2</ele>
        <time>2020-07-17T08:05:26Z</time>
      </trkpt>
      <trkpt lat="37.5643760" lon="-3.8884870">
        <ele>983.8</ele>
        <time>2020-07-17T08:05:28Z</time>
      </trkpt>
      <trkpt lat="37.5642540" lon="-3.8887540">
        <ele>982.2</ele>
        <time>2020-07-17T08:05:30Z</time>
      </trkpt>
      <trkpt lat="37.5641500" lon="-3.8890200">
        <ele>980.8</ele>
        <time>2020-07-17T08:05:32Z</time>
      </trkpt>
      <trkpt lat="37.5641770" lon="-3.8892890">
        <ele>979.0</ele>
        <time>2020-07-17T08:05:34Z</time>
      </trkpt>
      <trkpt lat="37.5643160" lon="-3.8895020">
        <ele>977.8</ele>
        <time>2020-07-17T08:05:36Z</time>
      </trkpt>
      <trkpt lat="37.5643900" lon="-3.8897500">
        <ele>976.0</ele>
        <time>2020-07-17T08:05:38Z</time>
      </trkpt>
      <trkpt lat="37.5643580" lon="-3.8898830">
        <ele>975.0</ele>
        <time>2020-07-17T08:05:39Z</time>
      </trkpt>
      <trkpt lat="37.5643160" lon="-3.8900080">
        <ele>973.8</ele>
        <time>2020-07-17T08:05:40Z</time>
      </trkpt>
      <trkpt lat="37.5642130" lon="-3.8902540">
        <ele>972.2</ele>
        <time>2020-07-17T08:05:42Z</time>
      </trkpt>
      <trkpt lat="37.5640930" lon="-3.8905010">
        <ele>970.8</ele>
        <time>2020-07-17T08:05:44Z</time>
      </trkpt>
      <trkpt lat="37.5639670" lon="-3.8907380">
        <ele>969.4</ele>
        <time>2020-07-17T08:05:46Z</time>
      </trkpt>
      <trkpt lat="37.5638050" lon="-3.8909910">
        <ele>967.8</ele>
        <time>2020-07-17T08:05:48Z</time>
      </trkpt>
      <trkpt lat="37.5637170" lon="-3.8911020">
        <ele>967.0</ele>
        <time>2020-07-17T08:05:49Z</time>
      </trkpt>
      <trkpt lat="37.5636240" lon="-3.8912080">
        <ele>966.2</ele>
        <time>2020-07-17T08:05:50Z</time>
      </trkpt>
      <trkpt lat="37.5634310" lon="-3.8914190">
        <ele>964.8</ele>
        <time>2020-07-17T08:05:52Z</time>
      </trkpt>
      <trkpt lat="37.5632310" lon="-3.8916300">
        <ele>963.2</ele>
        <time>2020-07-17T08:05:54Z</time>
      </trkpt>
      <trkpt lat="37.5630410" lon="-3.8917800">
        <ele>961.8</ele>
        <time>2020-07-17T08:05:56Z</time>
      </trkpt>
      <trkpt lat="37.5629280" lon="-3.8918270">
        <ele>961.2</ele>
        <time>2020-07-17T08:05:57Z</time>
      </trkpt>
      <trkpt lat="37.5628330" lon="-3.8918190">
        <ele>960.6</ele>
        <time>2020-07-17T08:05:58Z</time>
      </trkpt>
      <trkpt lat="37.5627620" lon="-3.8917530">
        <ele>960.0</ele>
        <time>2020-07-17T08:05:59Z</time>
      </trkpt>
      <trkpt lat="37.5627210" lon="-3.8916410">
        <ele>959.2</ele>
        <time>2020-07-17T08:06:00Z</time>
      </trkpt>
      <trkpt lat="37.5627190" lon="-3.8915290">
        <ele>958.4</ele>
        <time>2020-07-17T08:06:01Z</time>
      </trkpt>
      <trkpt lat="37.5627180" lon="-3.8913880">
        <ele>957.8</ele>
        <time>2020-07-17T08:06:02Z</time>
      </trkpt>
      <trkpt lat="37.5627180" lon="-3.8912530">
        <ele>956.6</ele>
        <time>2020-07-17T08:06:03Z</time>
      </trkpt>
      <trkpt lat="37.5627170" lon="-3.8909800">
        <ele>955.2</ele>
        <time>2020-07-17T08:06:05Z</time>
      </trkpt>
      <trkpt lat="37.5627230" lon="-3.8908480">
        <ele>954.6</ele>
        <time>2020-07-17T08:06:06Z</time>
      </trkpt>
      <trkpt lat="37.5627420" lon="-3.8906910">
        <ele>954.0</ele>
        <time>2020-07-17T08:06:07Z</time>
      </trkpt>
      <trkpt lat="37.5627940" lon="-3.8904270">
        <ele>952.6</ele>
        <time>2020-07-17T08:06:09Z</time>
      </trkpt>
      <trkpt lat="37.5627860" lon="-3.8903170">
        <ele>952.0</ele>
        <time>2020-07-17T08:06:10Z</time>
      </trkpt>
      <trkpt lat="37.5627450" lon="-3.8902420">
        <ele>951.2</ele>
        <time>2020-07-17T08:06:11Z</time>
      </trkpt>
      <trkpt lat="37.5625850" lon="-3.8902090">
        <ele>949.8</ele>
        <time>2020-07-17T08:06:13Z</time>
      </trkpt>
      <trkpt lat="37.5624470" lon="-3.8903350">
        <ele>948.4</ele>
        <time>2020-07-17T08:06:15Z</time>
      </trkpt>
      <trkpt lat="37.5623820" lon="-3.8903970">
        <ele>948.0</ele>
        <time>2020-07-17T08:06:16Z</time>
      </trkpt>
      <trkpt lat="37.5622190" lon="-3.8905510">
        <ele>947.2</ele>
        <time>2020-07-17T08:06:18Z</time>
      </trkpt>
      <trkpt lat="37.5621330" lon="-3.8906120">
        <ele>947.0</ele>
        <time>2020-07-17T08:06:19Z</time>
      </trkpt>
      <trkpt lat="37.5620320" lon="-3.8906370">
        <ele>946.6</ele>
        <time>2020-07-17T08:06:20Z</time>
      </trkpt>
      <trkpt lat="37.5618300" lon="-3.8905970">
        <ele>945.8</ele>
        <time>2020-07-17T08:06:22Z</time>
      </trkpt>
      <trkpt lat="37.5617320" lon="-3.8905970">
        <ele>945.4</ele>
        <time>2020-07-17T08:06:23Z</time>
      </trkpt>
      <trkpt lat="37.5616330" lon="-3.8906420">
        <ele>944.6</ele>
        <time>2020-07-17T08:06:24Z</time>
      </trkpt>
      <trkpt lat="37.5615620" lon="-3.8907350">
        <ele>943.8</ele>
        <time>2020-07-17T08:06:25Z</time>
      </trkpt>
      <trkpt lat="37.5615270" lon="-3.8908570">
        <ele>943.4</ele>
        <time>2020-07-17T08:06:26Z</time>
      </trkpt>
      <trkpt lat="37.5615230" lon="-3.8909990">
        <ele>942.6</ele>
        <time>2020-07-17T08:06:27Z</time>
      </trkpt>
      <trkpt lat="37.5615450" lon="-3.8911300">
        <ele>941.8</ele>
        <time>2020-07-17T08:06:28Z</time>
      </trkpt>
      <trkpt lat="37.5615680" lon="-3.8912610">
        <ele>941.2</ele>
        <time>2020-07-17T08:06:29Z</time>
      </trkpt>
      <trkpt lat="37.5615790" lon="-3.8914110">
        <ele>940.6</ele>
        <time>2020-07-17T08:06:30Z</time>
      </trkpt>
      <trkpt lat="37.5615410" lon="-3.8917070">
        <ele>939.0</ele>
        <time>2020-07-17T08:06:32Z</time>
      </trkpt>
      <trkpt lat="37.5614980" lon="-3.8918500">
        <ele>938.4</ele>
        <time>2020-07-17T08:06:33Z</time>
      </trkpt>
      <trkpt lat="37.5614420" lon="-3.8919870">
        <ele>937.4</ele>
        <time>2020-07-17T08:06:34Z</time>
      </trkpt>
      <trkpt lat="37.5613890" lon="-3.8921220">
        <ele>937.2</ele>
        <time>2020-07-17T08:06:35Z</time>
      </trkpt>
      <trkpt lat="37.5613160" lon="-3.8923370">
        <ele>936.0</ele>
        <time>2020-07-17T08:06:37Z</time>
      </trkpt>
      <trkpt lat="37.5613020" lon="-3.8924870">
        <ele>935.0</ele>
        <time>2020-07-17T08:06:38Z</time>
      </trkpt>
      <trkpt lat="37.5613660" lon="-3.8927770">
        <ele>933.4</ele>
        <time>2020-07-17T08:06:40Z</time>
      </trkpt>
      <trkpt lat="37.5614480" lon="-3.8929660">
        <ele>932.8</ele>
        <time>2020-07-17T08:06:41Z</time>
      </trkpt>
      <trkpt lat="37.5614940" lon="-3.8931080">
        <ele>931.8</ele>
        <time>2020-07-17T08:06:42Z</time>
      </trkpt>
      <trkpt lat="37.5614940" lon="-3.8932430">
        <ele>931.2</ele>
        <time>2020-07-17T08:06:43Z</time>
      </trkpt>
      <trkpt lat="37.5614570" lon="-3.8933720">
        <ele>930.8</ele>
        <time>2020-07-17T08:06:44Z</time>
      </trkpt>
      <trkpt lat="37.5614000" lon="-3.8934940">
        <ele>930.0</ele>
        <time>2020-07-17T08:06:45Z</time>
      </trkpt>
      <trkpt lat="37.5613470" lon="-3.8936030">
        <ele>929.0</ele>
        <time>2020-07-17T08:06:46Z</time>
      </trkpt>
      <trkpt lat="37.5612700" lon="-3.8937260">
        <ele>927.6</ele>
        <time>2020-07-17T08:06:47Z</time>
      </trkpt>
      <trkpt lat="37.5611670" lon="-3.8938210">
        <ele>926.6</ele>
        <time>2020-07-17T08:06:48Z</time>
      </trkpt>
      <trkpt lat="37.5609380" lon="-3.8939370">
        <ele>924.6</ele>
        <time>2020-07-17T08:06:50Z</time>
      </trkpt>
      <trkpt lat="37.5608390" lon="-3.8939770">
        <ele>923.8</ele>
        <time>2020-07-17T08:06:51Z</time>
      </trkpt>
      <trkpt lat="37.5607410" lon="-3.8940410">
        <ele>923.0</ele>
        <time>2020-07-17T08:06:52Z</time>
      </trkpt>
      <trkpt lat="37.5606790" lon="-3.8941390">
        <ele>922.0</ele>
        <time>2020-07-17T08:06:53Z</time>
      </trkpt>
      <trkpt lat="37.5606380" lon="-3.8942710">
        <ele>921.0</ele>
        <time>2020-07-17T08:06:54Z</time>
      </trkpt>
      <trkpt lat="37.5606380" lon="-3.8944060">
        <ele>920.0</ele>
        <time>2020-07-17T08:06:55Z</time>
      </trkpt>
      <trkpt lat="37.5606400" lon="-3.8946880">
        <ele>918.0</ele>
        <time>2020-07-17T08:06:57Z</time>
      </trkpt>
      <trkpt lat="37.5606320" lon="-3.8948330">
        <ele>917.0</ele>
        <time>2020-07-17T08:06:58Z</time>
      </trkpt>
      <trkpt lat="37.5606220" lon="-3.8949750">
        <ele>916.2</ele>
        <time>2020-07-17T08:06:59Z</time>
      </trkpt>
      <trkpt lat="37.5606100" lon="-3.8951300">
        <ele>915.0</ele>
        <time>2020-07-17T08:07:00Z</time>
      </trkpt>
      <trkpt lat="37.5605650" lon="-3.8954310">
        <ele>914.0</ele>
        <time>2020-07-17T08:07:02Z</time>
      </trkpt>
      <trkpt lat="37.5605460" lon="-3.8957190">
        <ele>912.4</ele>
        <time>2020-07-17T08:07:04Z</time>
      </trkpt>
      <trkpt lat="37.5606200" lon="-3.8959480">
        <ele>910.4</ele>
        <time>2020-07-17T08:07:06Z</time>
      </trkpt>
      <trkpt lat="37.5606990" lon="-3.8960460">
        <ele>909.2</ele>
        <time>2020-07-17T08:07:07Z</time>
      </trkpt>
      <trkpt lat="37.5607750" lon="-3.8961420">
        <ele>907.4</ele>
        <time>2020-07-17T08:07:08Z</time>
      </trkpt>
      <trkpt lat="37.5608380" lon="-3.8962510">
        <ele>906.6</ele>
        <time>2020-07-17T08:07:09Z</time>
      </trkpt>
      <trkpt lat="37.5608790" lon="-3.8963780">
        <ele>905.6</ele>
        <time>2020-07-17T08:07:10Z</time>
      </trkpt>
      <trkpt lat="37.5608960" lon="-3.8964970">
        <ele>904.6</ele>
        <time>2020-07-17T08:07:11Z</time>
      </trkpt>
      <trkpt lat="37.5609080" lon="-3.8966560">
        <ele>904.0</ele>
        <time>2020-07-17T08:07:12Z</time>
      </trkpt>
      <trkpt lat="37.5609120" lon="-3.8968020">
        <ele>903.2</ele>
        <time>2020-07-17T08:07:13Z</time>
      </trkpt>
      <trkpt lat="37.5609160" lon="-3.8969510">
        <ele>902.4</ele>
        <time>2020-07-17T08:07:14Z</time>
      </trkpt>
      <trkpt lat="37.5609190" lon="-3.8970930">
        <ele>901.6</ele>
        <time>2020-07-17T08:07:15Z</time>
      </trkpt>
      <trkpt lat="37.5609080" lon="-3.8972140">
        <ele>901.0</ele>
        <time>2020-07-17T08:07:16Z</time>
      </trkpt>
      <trkpt lat="37.5607870" lon="-3.8974330">
        <ele>899.2</ele>
        <time>2020-07-17T08:07:18Z</time>
      </trkpt>
      <trkpt lat="37.5606000" lon="-3.8975620">
        <ele>897.4</ele>
        <time>2020-07-17T08:07:20Z</time>
      </trkpt>
      <trkpt lat="37.5605210" lon="-3.8976080">
        <ele>896.6</ele>
        <time>2020-07-17T08:07:21Z</time>
      </trkpt>
      <trkpt lat="37.5603990" lon="-3.8976930">
        <ele>895.8</ele>
        <time>2020-07-17T08:07:22Z</time>
      </trkpt>
      <trkpt lat="37.5603150" lon="-3.8977780">
        <ele>895.4</ele>
        <time>2020-07-17T08:07:23Z</time>
      </trkpt>
      <trkpt lat="37.5602310" lon="-3.8978930">
        <ele>894.6</ele>
        <time>2020-07-17T08:07:24Z</time>
      </trkpt>
      <trkpt lat="37.5600550" lon="-3.8982930">
        <ele>893.2</ele>
        <time>2020-07-17T08:07:27Z</time>
      </trkpt>
      <trkpt lat="37.5599600" lon="-3.8985690">
        <ele>891.8</ele>
        <time>2020-07-17T08:07:29Z</time>
      </trkpt>
      <trkpt lat="37.5599240" lon="-3.8987160">
        <ele>890.4</ele>
        <time>2020-07-17T08:07:30Z</time>
      </trkpt>
      <trkpt lat="37.5599050" lon="-3.8988420">
        <ele>889.6</ele>
        <time>2020-07-17T08:07:31Z</time>
      </trkpt>
      <trkpt lat="37.5599090" lon="-3.8989950">
        <ele>888.6</ele>
        <time>2020-07-17T08:07:32Z</time>
      </trkpt>
      <trkpt lat="37.5599390" lon="-3.8991310">
        <ele>887.4</ele>
        <time>2020-07-17T08:07:33Z</time>
      </trkpt>
      <trkpt lat="37.5600190" lon="-3.8993890">
        <ele>886.2</ele>
        <time>2020-07-17T08:07:35Z</time>
      </trkpt>
      <trkpt lat="37.5600320" lon="-3.8995240">
        <ele>885.0</ele>
        <time>2020-07-17T08:07:36Z</time>
      </trkpt>
      <trkpt lat="37.5599710" lon="-3.8998190">
        <ele>883.8</ele>
        <time>2020-07-17T08:07:38Z</time>
      </trkpt>
      <trkpt lat="37.5598600" lon="-3.9000600">
        <ele>882.0</ele>
        <time>2020-07-17T08:07:40Z</time>
      </trkpt>
      <trkpt lat="37.5598020" lon="-3.9001230">
        <ele>881.4</ele>
        <time>2020-07-17T08:07:41Z</time>
      </trkpt>
      <trkpt lat="37.5597160" lon="-3.9001510">
        <ele>880.8</ele>
        <time>2020-07-17T08:07:42Z</time>
      </trkpt>
      <trkpt lat="37.5596350" lon="-3.9001160">
        <ele>879.8</ele>
        <time>2020-07-17T08:07:43Z</time>
      </trkpt>
      <trkpt lat="37.5595660" lon="-3.9000470">
        <ele>879.0</ele>
        <time>2020-07-17T08:07:44Z</time>
      </trkpt>
      <trkpt lat="37.5594930" lon="-3.8999750">
        <ele>878.2</ele>
        <time>2020-07-17T08:07:45Z</time>
      </trkpt>
      <trkpt lat="37.5594100" lon="-3.8999260">
        <ele>877.6</ele>
        <time>2020-07-17T08:07:46Z</time>
      </trkpt>
      <trkpt lat="37.5591990" lon="-3.8999200">
        <ele>876.6</ele>
        <time>2020-07-17T08:07:48Z</time>
      </trkpt>
      <trkpt lat="37.5589860" lon="-3.8999970">
        <ele>875.6</ele>
        <time>2020-07-17T08:07:50Z</time>
      </trkpt>
      <trkpt lat="37.5588960" lon="-3.9000520">
        <ele>874.6</ele>
        <time>2020-07-17T08:07:51Z</time>
      </trkpt>
      <trkpt lat="37.5587830" lon="-3.9001290">
        <ele>873.4</ele>
        <time>2020-07-17T08:07:52Z</time>
      </trkpt>
      <trkpt lat="37.5585770" lon="-3.9002710">
        <ele>871.8</ele>
        <time>2020-07-17T08:07:54Z</time>
      </trkpt>
      <trkpt lat="37.5583910" lon="-3.9004400">
        <ele>870.0</ele>
        <time>2020-07-17T08:07:56Z</time>
      </trkpt>
      <trkpt lat="37.5582750" lon="-3.9007090">
        <ele>868.4</ele>
        <time>2020-07-17T08:07:58Z</time>
      </trkpt>
      <trkpt lat="37.5582360" lon="-3.9010080">
        <ele>866.8</ele>
        <time>2020-07-17T08:08:00Z</time>
      </trkpt>
      <trkpt lat="37.5582170" lon="-3.9011510">
        <ele>866.0</ele>
        <time>2020-07-17T08:08:01Z</time>
      </trkpt>
      <trkpt lat="37.5581900" lon="-3.9013120">
        <ele>865.4</ele>
        <time>2020-07-17T08:08:02Z</time>
      </trkpt>
      <trkpt lat="37.5581320" lon="-3.9016190">
        <ele>863.8</ele>
        <time>2020-07-17T08:08:04Z</time>
      </trkpt>
      <trkpt lat="37.5580600" lon="-3.9019080">
        <ele>862.4</ele>
        <time>2020-07-17T08:08:06Z</time>
      </trkpt>
      <trkpt lat="37.5580010" lon="-3.9020680">
        <ele>861.8</ele>
        <time>2020-07-17T08:08:07Z</time>
      </trkpt>
      <trkpt lat="37.5579310" lon="-3.9022010">
        <ele>860.8</ele>
        <time>2020-07-17T08:08:08Z</time>
      </trkpt>
      <trkpt lat="37.5578490" lon="-3.9023220">
        <ele>860.0</ele>
        <time>2020-07-17T08:08:09Z</time>
      </trkpt>
      <trkpt lat="37.5577600" lon="-3.9024230">
        <ele>859.4</ele>
        <time>2020-07-17T08:08:10Z</time>
      </trkpt>
      <trkpt lat="37.5575560" lon="-3.9025720">
        <ele>858.2</ele>
        <time>2020-07-17T08:08:12Z</time>
      </trkpt>
      <trkpt lat="37.5573350" lon="-3.9026190">
        <ele>856.6</ele>
        <time>2020-07-17T08:08:14Z</time>
      </trkpt>
      <trkpt lat="37.5572210" lon="-3.9025980">
        <ele>855.6</ele>
        <time>2020-07-17T08:08:15Z</time>
      </trkpt>
      <trkpt lat="37.5571200" lon="-3.9025450">
        <ele>854.6</ele>
        <time>2020-07-17T08:08:16Z</time>
      </trkpt>
      <trkpt lat="37.5570230" lon="-3.9024700">
        <ele>853.4</ele>
        <time>2020-07-17T08:08:17Z</time>
      </trkpt>
      <trkpt lat="37.5569200" lon="-3.9023930">
        <ele>852.4</ele>
        <time>2020-07-17T08:08:18Z</time>
      </trkpt>
      <trkpt lat="37.5568260" lon="-3.9023540">
        <ele>851.4</ele>
        <time>2020-07-17T08:08:19Z</time>
      </trkpt>
      <trkpt lat="37.5567320" lon="-3.9023660">
        <ele>850.2</ele>
        <time>2020-07-17T08:08:20Z</time>
      </trkpt>
      <trkpt lat="37.5565740" lon="-3.9025060">
        <ele>848.4</ele>
        <time>2020-07-17T08:08:22Z</time>
      </trkpt>
      <trkpt lat="37.5565260" lon="-3.9026070">
        <ele>847.2</ele>
        <time>2020-07-17T08:08:23Z</time>
      </trkpt>
      <trkpt lat="37.5565010" lon="-3.9027110">
        <ele>846.6</ele>
        <time>2020-07-17T08:08:24Z</time>
      </trkpt>
      <trkpt lat="37.5564930" lon="-3.9028720">
        <ele>845.8</ele>
        <time>2020-07-17T08:08:25Z</time>
      </trkpt>
      <trkpt lat="37.5564990" lon="-3.9029980">
        <ele>844.8</ele>
        <time>2020-07-17T08:08:26Z</time>
      </trkpt>
      <trkpt lat="37.5564890" lon="-3.9031420">
        <ele>844.2</ele>
        <time>2020-07-17T08:08:27Z</time>
      </trkpt>
      <trkpt lat="37.5564060" lon="-3.9033980">
        <ele>843.0</ele>
        <time>2020-07-17T08:08:29Z</time>
      </trkpt>
      <trkpt lat="37.5562900" lon="-3.9036460">
        <ele>841.8</ele>
        <time>2020-07-17T08:08:31Z</time>
      </trkpt>
      <trkpt lat="37.5561600" lon="-3.9039200">
        <ele>840.4</ele>
        <time>2020-07-17T08:08:33Z</time>
      </trkpt>
      <trkpt lat="37.5561180" lon="-3.9042040">
        <ele>839.2</ele>
        <time>2020-07-17T08:08:35Z</time>
      </trkpt>
      <trkpt lat="37.5561850" lon="-3.9044870">
        <ele>837.4</ele>
        <time>2020-07-17T08:08:37Z</time>
      </trkpt>
      <trkpt lat="37.5562350" lon="-3.9046240">
        <ele>836.2</ele>
        <time>2020-07-17T08:08:38Z</time>
      </trkpt>
      <trkpt lat="37.5563220" lon="-3.9049000">
        <ele>834.4</ele>
        <time>2020-07-17T08:08:40Z</time>
      </trkpt>
      <trkpt lat="37.5563410" lon="-3.9050170">
        <ele>833.6</ele>
        <time>2020-07-17T08:08:41Z</time>
      </trkpt>
      <trkpt lat="37.5563360" lon="-3.9051780">
        <ele>832.6</ele>
        <time>2020-07-17T08:08:42Z</time>
      </trkpt>
      <trkpt lat="37.5562990" lon="-3.9053130">
        <ele>831.8</ele>
        <time>2020-07-17T08:08:43Z</time>
      </trkpt>
      <trkpt lat="37.5562500" lon="-3.9054440">
        <ele>831.0</ele>
        <time>2020-07-17T08:08:44Z</time>
      </trkpt>
      <trkpt lat="37.5561330" lon="-3.9056840">
        <ele>829.4</ele>
        <time>2020-07-17T08:08:46Z</time>
      </trkpt>
      <trkpt lat="37.5559740" lon="-3.9059290">
        <ele>828.0</ele>
        <time>2020-07-17T08:08:48Z</time>
      </trkpt>
      <trkpt lat="37.5558890" lon="-3.9060420">
        <ele>827.4</ele>
        <time>2020-07-17T08:08:49Z</time>
      </trkpt>
      <trkpt lat="37.5558040" lon="-3.9061540">
        <ele>826.8</ele>
        <time>2020-07-17T08:08:50Z</time>
      </trkpt>
      <trkpt lat="37.5556430" lon="-3.9063940">
        <ele>825.6</ele>
        <time>2020-07-17T08:08:52Z</time>
      </trkpt>
      <trkpt lat="37.5555000" lon="-3.9066570">
        <ele>824.2</ele>
        <time>2020-07-17T08:08:54Z</time>
      </trkpt>
      <trkpt lat="37.5554310" lon="-3.9067930">
        <ele>823.6</ele>
        <time>2020-07-17T08:08:55Z</time>
      </trkpt>
      <trkpt lat="37.5552310" lon="-3.9072150">
        <ele>823.2</ele>
        <time>2020-07-17T08:08:58Z</time>
      </trkpt>
      <trkpt lat="37.5551680" lon="-3.9073470">
        <ele>821.0</ele>
        <time>2020-07-17T08:08:59Z</time>
      </trkpt>
      <trkpt lat="37.5550360" lon="-3.9076280">
        <ele>819.0</ele>
        <time>2020-07-17T08:09:01Z</time>
      </trkpt>
      <trkpt lat="37.5549650" lon="-3.9077760">
        <ele>818.0</ele>
        <time>2020-07-17T08:09:02Z</time>
      </trkpt>
      <trkpt lat="37.5549050" lon="-3.9078940">
        <ele>816.8</ele>
        <time>2020-07-17T08:09:03Z</time>
      </trkpt>
      <trkpt lat="37.5548350" lon="-3.9079900">
        <ele>815.8</ele>
        <time>2020-07-17T08:09:04Z</time>
      </trkpt>
      <trkpt lat="37.5547670" lon="-3.9080880">
        <ele>815.8</ele>
        <time>2020-07-17T08:09:05Z</time>
      </trkpt>
      <trkpt lat="37.5546560" lon="-3.9080510">
        <ele>814.8</ele>
        <time>2020-07-17T08:09:06Z</time>
      </trkpt>
      <trkpt lat="37.5545510" lon="-3.9080100">
        <ele>814.0</ele>
        <time>2020-07-17T08:09:07Z</time>
      </trkpt>
      <trkpt lat="37.5544760" lon="-3.9079280">
        <ele>812.6</ele>
        <time>2020-07-17T08:09:08Z</time>
      </trkpt>
      <trkpt lat="37.5544230" lon="-3.9078250">
        <ele>812.2</ele>
        <time>2020-07-17T08:09:09Z</time>
      </trkpt>
      <trkpt lat="37.5543530" lon="-3.9076160">
        <ele>811.6</ele>
        <time>2020-07-17T08:09:11Z</time>
      </trkpt>
      <trkpt lat="37.5543230" lon="-3.9074760">
        <ele>811.4</ele>
        <time>2020-07-17T08:09:12Z</time>
      </trkpt>
      <trkpt lat="37.5543040" lon="-3.9072260">
        <ele>810.6</ele>
        <time>2020-07-17T08:09:14Z</time>
      </trkpt>
      <trkpt lat="37.5542990" lon="-3.9070970">
        <ele>810.2</ele>
        <time>2020-07-17T08:09:15Z</time>
      </trkpt>
      <trkpt lat="37.5542930" lon="-3.9069790">
        <ele>809.8</ele>
        <time>2020-07-17T08:09:16Z</time>
      </trkpt>
      <trkpt lat="37.5542840" lon="-3.9068380">
        <ele>809.6</ele>
        <time>2020-07-17T08:09:17Z</time>
      </trkpt>
      <trkpt lat="37.5542360" lon="-3.9065770">
        <ele>807.4</ele>
        <time>2020-07-17T08:09:19Z</time>
      </trkpt>
      <trkpt lat="37.5541780" lon="-3.9064800">
        <ele>806.4</ele>
        <time>2020-07-17T08:09:20Z</time>
      </trkpt>
      <trkpt lat="37.5540010" lon="-3.9064140">
        <ele>804.6</ele>
        <time>2020-07-17T08:09:22Z</time>
      </trkpt>
      <trkpt lat="37.5538280" lon="-3.9065210">
        <ele>803.0</ele>
        <time>2020-07-17T08:09:24Z</time>
      </trkpt>
      <trkpt lat="37.5536800" lon="-3.9066880">
        <ele>801.4</ele>
        <time>2020-07-17T08:09:26Z</time>
      </trkpt>
      <trkpt lat="37.5536050" lon="-3.9067930">
        <ele>800.8</ele>
        <time>2020-07-17T08:09:27Z</time>
      </trkpt>
      <trkpt lat="37.5535380" lon="-3.9068980">
        <ele>800.0</ele>
        <time>2020-07-17T08:09:28Z</time>
      </trkpt>
      <trkpt lat="37.5534010" lon="-3.9071030">
        <ele>798.6</ele>
        <time>2020-07-17T08:09:30Z</time>
      </trkpt>
      <trkpt lat="37.5533210" lon="-3.9071620">
        <ele>797.8</ele>
        <time>2020-07-17T08:09:31Z</time>
      </trkpt>
      <trkpt lat="37.5532210" lon="-3.9071770">
        <ele>797.2</ele>
        <time>2020-07-17T08:09:32Z</time>
      </trkpt>
      <trkpt lat="37.5531280" lon="-3.9071380">
        <ele>796.6</ele>
        <time>2020-07-17T08:09:33Z</time>
      </trkpt>
      <trkpt lat="37.5530510" lon="-3.9070490">
        <ele>795.8</ele>
        <time>2020-07-17T08:09:34Z</time>
      </trkpt>
      <trkpt lat="37.5530090" lon="-3.9069400">
        <ele>795.4</ele>
        <time>2020-07-17T08:09:35Z</time>
      </trkpt>
      <trkpt lat="37.5529350" lon="-3.9066890">
        <ele>794.4</ele>
        <time>2020-07-17T08:09:37Z</time>
      </trkpt>
      <trkpt lat="37.5528680" lon="-3.9064470">
        <ele>793.2</ele>
        <time>2020-07-17T08:09:39Z</time>
      </trkpt>
      <trkpt lat="37.5527820" lon="-3.9062320">
        <ele>792.0</ele>
        <time>2020-07-17T08:09:41Z</time>
      </trkpt>
      <trkpt lat="37.5526950" lon="-3.9061260">
        <ele>791.6</ele>
        <time>2020-07-17T08:09:42Z</time>
      </trkpt>
      <trkpt lat="37.5524990" lon="-3.9060330">
        <ele>790.6</ele>
        <time>2020-07-17T08:09:44Z</time>
      </trkpt>
      <trkpt lat="37.5522950" lon="-3.9060310">
        <ele>789.4</ele>
        <time>2020-07-17T08:09:46Z</time>
      </trkpt>
      <trkpt lat="37.5521930" lon="-3.9060760">
        <ele>788.8</ele>
        <time>2020-07-17T08:09:47Z</time>
      </trkpt>
      <trkpt lat="37.5520950" lon="-3.9061370">
        <ele>788.0</ele>
        <time>2020-07-17T08:09:48Z</time>
      </trkpt>
      <trkpt lat="37.5520020" lon="-3.9061990">
        <ele>787.4</ele>
        <time>2020-07-17T08:09:49Z</time>
      </trkpt>
      <trkpt lat="37.5519040" lon="-3.9062520">
        <ele>786.6</ele>
        <time>2020-07-17T08:09:50Z</time>
      </trkpt>
      <trkpt lat="37.5518070" lon="-3.9062900">
        <ele>786.0</ele>
        <time>2020-07-17T08:09:51Z</time>
      </trkpt>
      <trkpt lat="37.5516960" lon="-3.9063080">
        <ele>785.4</ele>
        <time>2020-07-17T08:09:52Z</time>
      </trkpt>
      <trkpt lat="37.5514840" lon="-3.9063010">
        <ele>784.6</ele>
        <time>2020-07-17T08:09:54Z</time>
      </trkpt>
      <trkpt lat="37.5513850" lon="-3.9063470">
        <ele>784.2</ele>
        <time>2020-07-17T08:09:55Z</time>
      </trkpt>
      <trkpt lat="37.5513150" lon="-3.9064280">
        <ele>783.8</ele>
        <time>2020-07-17T08:09:56Z</time>
      </trkpt>
      <trkpt lat="37.5512220" lon="-3.9066740">
        <ele>783.0</ele>
        <time>2020-07-17T08:09:58Z</time>
      </trkpt>
      <trkpt lat="37.5512540" lon="-3.9069200">
        <ele>782.6</ele>
        <time>2020-07-17T08:10:00Z</time>
      </trkpt>
      <trkpt lat="37.5512660" lon="-3.9070320">
        <ele>782.6</ele>
        <time>2020-07-17T08:10:01Z</time>
      </trkpt>
      <trkpt lat="37.5512750" lon="-3.9071640">
        <ele>782.8</ele>
        <time>2020-07-17T08:10:02Z</time>
      </trkpt>
      <trkpt lat="37.5512830" lon="-3.9072840">
        <ele>782.8</ele>
        <time>2020-07-17T08:10:03Z</time>
      </trkpt>
      <trkpt lat="37.5512800" lon="-3.9075180">
        <ele>782.8</ele>
        <time>2020-07-17T08:10:05Z</time>
      </trkpt>
      <trkpt lat="37.5512710" lon="-3.9076350">
        <ele>782.6</ele>
        <time>2020-07-17T08:10:06Z</time>
      </trkpt>
      <trkpt lat="37.5512570" lon="-3.9077640">
        <ele>782.6</ele>
        <time>2020-07-17T08:10:07Z</time>
      </trkpt>
      <trkpt lat="37.5512170" lon="-3.9079940">
        <ele>782.2</ele>
        <time>2020-07-17T08:10:09Z</time>
      </trkpt>
      <trkpt lat="37.5511940" lon="-3.9081070">
        <ele>782.0</ele>
        <time>2020-07-17T08:10:10Z</time>
      </trkpt>
      <trkpt lat="37.5511690" lon="-3.9082050">
        <ele>781.6</ele>
        <time>2020-07-17T08:10:11Z</time>
      </trkpt>
      <trkpt lat="37.5510020" lon="-3.9087170">
        <ele>781.4</ele>
        <time>2020-07-17T08:10:16Z</time>
      </trkpt>
      <trkpt lat="37.5509580" lon="-3.9088150">
        <ele>781.4</ele>
        <time>2020-07-17T08:10:17Z</time>
      </trkpt>
      <trkpt lat="37.5508240" lon="-3.9090710">
        <ele>781.4</ele>
        <time>2020-07-17T08:10:20Z</time>
      </trkpt>
      <trkpt lat="37.5506950" lon="-3.9092890">
        <ele>781.6</ele>
        <time>2020-07-17T08:10:23Z</time>
      </trkpt>
      <trkpt lat="37.5505760" lon="-3.9094880">
        <ele>782.0</ele>
        <time>2020-07-17T08:10:26Z</time>
      </trkpt>
      <trkpt lat="37.5505170" lon="-3.9096350">
        <ele>782.4</ele>
        <time>2020-07-17T08:10:28Z</time>
      </trkpt>
      <trkpt lat="37.5505020" lon="-3.9097050">
        <ele>782.4</ele>
        <time>2020-07-17T08:10:29Z</time>
      </trkpt>
      <trkpt lat="37.5504780" lon="-3.9099740">
        <ele>783.0</ele>
        <time>2020-07-17T08:10:33Z</time>
      </trkpt>
      <trkpt lat="37.5504800" lon="-3.9100260">
        <ele>783.4</ele>
        <time>2020-07-17T08:10:34Z</time>
      </trkpt>
      <trkpt lat="37.5504910" lon="-3.9101740">
        <ele>784.2</ele>
        <time>2020-07-17T08:10:37Z</time>
      </trkpt>
      <trkpt lat="37.5504920" lon="-3.9103030">
        <ele>785.0</ele>
        <time>2020-07-17T08:10:40Z</time>
      </trkpt>
      <trkpt lat="37.5504910" lon="-3.9103860">
        <ele>785.4</ele>
        <time>2020-07-17T08:10:42Z</time>
      </trkpt>
      <trkpt lat="37.5504620" lon="-3.9105550">
        <ele>786.4</ele>
        <time>2020-07-17T08:10:46Z</time>
      </trkpt>
      <trkpt lat="37.5504440" lon="-3.9105960">
        <ele>786.6</ele>
        <time>2020-07-17T08:10:47Z</time>
      </trkpt>
      <trkpt lat="37.5503240" lon="-3.9107650">
        <ele>787.6</ele>
        <time>2020-07-17T08:10:53Z</time>
      </trkpt>
      <trkpt lat="37.5502270" lon="-3.9108370">
        <ele>788.6</ele>
        <time>2020-07-17T08:10:57Z</time>
      </trkpt>
      <trkpt lat="37.5500870" lon="-3.9109340">
        <ele>789.8</ele>
        <time>2020-07-17T08:11:03Z</time>
      </trkpt>
      <trkpt lat="37.5500640" lon="-3.9109540">
        <ele>789.8</ele>
        <time>2020-07-17T08:11:04Z</time>
      </trkpt>
      <trkpt lat="37.5499160" lon="-3.9110490">
        <ele>790.8</ele>
        <time>2020-07-17T08:11:10Z</time>
      </trkpt>
      <trkpt lat="37.5498420" lon="-3.9110990">
        <ele>791.4</ele>
        <time>2020-07-17T08:11:13Z</time>
      </trkpt>
      <trkpt lat="37.5497710" lon="-3.9111510">
        <ele>792.0</ele>
        <time>2020-07-17T08:11:16Z</time>
      </trkpt>
      <trkpt lat="37.5496480" lon="-3.9112290">
        <ele>793.0</ele>
        <time>2020-07-17T08:11:21Z</time>
      </trkpt>
      <trkpt lat="37.5496210" lon="-3.9112450">
        <ele>793.2</ele>
        <time>2020-07-17T08:11:22Z</time>
      </trkpt>
      <trkpt lat="37.5495010" lon="-3.9113060">
        <ele>794.2</ele>
        <time>2020-07-17T08:11:27Z</time>
      </trkpt>
      <trkpt lat="37.5494040" lon="-3.9113420">
        <ele>795.2</ele>
        <time>2020-07-17T08:11:31Z</time>
      </trkpt>
      <trkpt lat="37.5493760" lon="-3.9113530">
        <ele>795.4</ele>
        <time>2020-07-17T08:11:32Z</time>
      </trkpt>
      <trkpt lat="37.5492110" lon="-3.9113930">
        <ele>796.4</ele>
        <time>2020-07-17T08:11:38Z</time>
      </trkpt>
      <trkpt lat="37.5491540" lon="-3.9114060">
        <ele>796.8</ele>
        <time>2020-07-17T08:11:40Z</time>
      </trkpt>
      <trkpt lat="37.5490160" lon="-3.9114260">
        <ele>797.6</ele>
        <time>2020-07-17T08:11:45Z</time>
      </trkpt>
      <trkpt lat="37.5489540" lon="-3.9114330">
        <ele>798.0</ele>
        <time>2020-07-17T08:11:47Z</time>
      </trkpt>
      <trkpt lat="37.5488580" lon="-3.9114290">
        <ele>798.8</ele>
        <time>2020-07-17T08:11:50Z</time>
      </trkpt>
      <trkpt lat="37.5487030" lon="-3.9114410">
        <ele>799.4</ele>
        <time>2020-07-17T08:11:55Z</time>
      </trkpt>
      <trkpt lat="37.5485710" lon="-3.9114670">
        <ele>799.8</ele>
        <time>2020-07-17T08:11:59Z</time>
      </trkpt>
      <trkpt lat="37.5484920" lon="-3.9114870">
        <ele>800.0</ele>
        <time>2020-07-17T08:12:01Z</time>
      </trkpt>
      <trkpt lat="37.5484470" lon="-3.9115100">
        <ele>800.2</ele>
        <time>2020-07-17T08:12:02Z</time>
      </trkpt>
      <trkpt lat="37.5482920" lon="-3.9116820">
        <ele>800.4</ele>
        <time>2020-07-17T08:12:06Z</time>
      </trkpt>
      <trkpt lat="37.5482520" lon="-3.9117480">
        <ele>800.4</ele>
        <time>2020-07-17T08:12:07Z</time>
      </trkpt>
      <trkpt lat="37.5481130" lon="-3.9120360">
        <ele>800.0</ele>
        <time>2020-07-17T08:12:11Z</time>
      </trkpt>
      <trkpt lat="37.5480060" lon="-3.9123180">
        <ele>799.2</ele>
        <time>2020-07-17T08:12:14Z</time>
      </trkpt>
      <trkpt lat="37.5479780" lon="-3.9124010">
        <ele>798.8</ele>
        <time>2020-07-17T08:12:15Z</time>
      </trkpt>
      <trkpt lat="37.5479110" lon="-3.9126100">
        <ele>798.0</ele>
        <time>2020-07-17T08:12:17Z</time>
      </trkpt>
      <trkpt lat="37.5478780" lon="-3.9127260">
        <ele>797.6</ele>
        <time>2020-07-17T08:12:18Z</time>
      </trkpt>
      <trkpt lat="37.5478130" lon="-3.9130550">
        <ele>796.2</ele>
        <time>2020-07-17T08:12:21Z</time>
      </trkpt>
      <trkpt lat="37.5478000" lon="-3.9131890">
        <ele>795.8</ele>
        <time>2020-07-17T08:12:22Z</time>
      </trkpt>
      <trkpt lat="37.5477880" lon="-3.9134350">
        <ele>795.2</ele>
        <time>2020-07-17T08:12:24Z</time>
      </trkpt>
      <trkpt lat="37.5477820" lon="-3.9135540">
        <ele>794.8</ele>
        <time>2020-07-17T08:12:25Z</time>
      </trkpt>
      <trkpt lat="37.5477660" lon="-3.9138020">
        <ele>794.2</ele>
        <time>2020-07-17T08:12:27Z</time>
      </trkpt>
      <trkpt lat="37.5477480" lon="-3.9139220">
        <ele>793.8</ele>
        <time>2020-07-17T08:12:28Z</time>
      </trkpt>
      <trkpt lat="37.5477130" lon="-3.9140270">
        <ele>793.6</ele>
        <time>2020-07-17T08:12:29Z</time>
      </trkpt>
      <trkpt lat="37.5475910" lon="-3.9142180">
        <ele>792.8</ele>
        <time>2020-07-17T08:12:31Z</time>
      </trkpt>
      <trkpt lat="37.5475110" lon="-3.9143110">
        <ele>792.4</ele>
        <time>2020-07-17T08:12:32Z</time>
      </trkpt>
      <trkpt lat="37.5474360" lon="-3.9143980">
        <ele>792.2</ele>
        <time>2020-07-17T08:12:33Z</time>
      </trkpt>
      <trkpt lat="37.5473090" lon="-3.9145880">
        <ele>791.4</ele>
        <time>2020-07-17T08:12:35Z</time>
      </trkpt>
      <trkpt lat="37.5472660" lon="-3.9147050">
        <ele>790.4</ele>
        <time>2020-07-17T08:12:36Z</time>
      </trkpt>
      <trkpt lat="37.5472490" lon="-3.9148360">
        <ele>790.0</ele>
        <time>2020-07-17T08:12:37Z</time>
      </trkpt>
      <trkpt lat="37.5472590" lon="-3.9149650">
        <ele>789.4</ele>
        <time>2020-07-17T08:12:38Z</time>
      </trkpt>
      <trkpt lat="37.5472870" lon="-3.9150860">
        <ele>788.6</ele>
        <time>2020-07-17T08:12:39Z</time>
      </trkpt>
      <trkpt lat="37.5473430" lon="-3.9152220">
        <ele>788.2</ele>
        <time>2020-07-17T08:12:41Z</time>
      </trkpt>
      <trkpt lat="37.5474040" lon="-3.9152880">
        <ele>787.8</ele>
        <time>2020-07-17T08:12:42Z</time>
      </trkpt>
      <trkpt lat="37.5475020" lon="-3.9153460">
        <ele>787.0</ele>
        <time>2020-07-17T08:12:43Z</time>
      </trkpt>
      <trkpt lat="37.5476020" lon="-3.9153690">
        <ele>786.4</ele>
        <time>2020-07-17T08:12:44Z</time>
      </trkpt>
      <trkpt lat="37.5477030" lon="-3.9153930">
        <ele>785.6</ele>
        <time>2020-07-17T08:12:45Z</time>
      </trkpt>
      <trkpt lat="37.5479100" lon="-3.9154410">
        <ele>784.2</ele>
        <time>2020-07-17T08:12:47Z</time>
      </trkpt>
      <trkpt lat="37.5481080" lon="-3.9155460">
        <ele>783.0</ele>
        <time>2020-07-17T08:12:49Z</time>
      </trkpt>
      <trkpt lat="37.5481860" lon="-3.9157810">
        <ele>781.8</ele>
        <time>2020-07-17T08:12:51Z</time>
      </trkpt>
      <trkpt lat="37.5481490" lon="-3.9160400">
        <ele>780.8</ele>
        <time>2020-07-17T08:12:53Z</time>
      </trkpt>
      <trkpt lat="37.5481250" lon="-3.9161650">
        <ele>780.2</ele>
        <time>2020-07-17T08:12:54Z</time>
      </trkpt>
      <trkpt lat="37.5481020" lon="-3.9163060">
        <ele>779.6</ele>
        <time>2020-07-17T08:12:55Z</time>
      </trkpt>
      <trkpt lat="37.5480920" lon="-3.9164440">
        <ele>778.6</ele>
        <time>2020-07-17T08:12:56Z</time>
      </trkpt>
      <trkpt lat="37.5481050" lon="-3.9165670">
        <ele>778.0</ele>
        <time>2020-07-17T08:12:57Z</time>
      </trkpt>
      <trkpt lat="37.5481450" lon="-3.9166800">
        <ele>776.8</ele>
        <time>2020-07-17T08:12:58Z</time>
      </trkpt>
      <trkpt lat="37.5482180" lon="-3.9167510">
        <ele>775.8</ele>
        <time>2020-07-17T08:12:59Z</time>
      </trkpt>
      <trkpt lat="37.5483050" lon="-3.9167730">
        <ele>774.8</ele>
        <time>2020-07-17T08:13:00Z</time>
      </trkpt>
      <trkpt lat="37.5484020" lon="-3.9167670">
        <ele>774.0</ele>
        <time>2020-07-17T08:13:01Z</time>
      </trkpt>
      <trkpt lat="37.5484830" lon="-3.9167370">
        <ele>773.0</ele>
        <time>2020-07-17T08:13:02Z</time>
      </trkpt>
      <trkpt lat="37.5486640" lon="-3.9166530">
        <ele>772.0</ele>
        <time>2020-07-17T08:13:04Z</time>
      </trkpt>
      <trkpt lat="37.5487470" lon="-3.9166020">
        <ele>771.8</ele>
        <time>2020-07-17T08:13:05Z</time>
      </trkpt>
      <trkpt lat="37.5488230" lon="-3.9165560">
        <ele>771.4</ele>
        <time>2020-07-17T08:13:06Z</time>
      </trkpt>
      <trkpt lat="37.5489080" lon="-3.9165420">
        <ele>771.2</ele>
        <time>2020-07-17T08:13:07Z</time>
      </trkpt>
      <trkpt lat="37.5489930" lon="-3.9165930">
        <ele>771.0</ele>
        <time>2020-07-17T08:13:08Z</time>
      </trkpt>
      <trkpt lat="37.5490350" lon="-3.9167950">
        <ele>770.8</ele>
        <time>2020-07-17T08:13:10Z</time>
      </trkpt>
      <trkpt lat="37.5490000" lon="-3.9169930">
        <ele>770.4</ele>
        <time>2020-07-17T08:13:12Z</time>
      </trkpt>
      <trkpt lat="37.5490000" lon="-3.9171140">
        <ele>770.2</ele>
        <time>2020-07-17T08:13:13Z</time>
      </trkpt>
      <trkpt lat="37.5490500" lon="-3.9173210">
        <ele>769.6</ele>
        <time>2020-07-17T08:13:15Z</time>
      </trkpt>
      <trkpt lat="37.5490940" lon="-3.9174150">
        <ele>769.4</ele>
        <time>2020-07-17T08:13:16Z</time>
      </trkpt>
      <trkpt lat="37.5491290" lon="-3.9175080">
        <ele>769.2</ele>
        <time>2020-07-17T08:13:17Z</time>
      </trkpt>
      <trkpt lat="37.5491420" lon="-3.9176200">
        <ele>769.0</ele>
        <time>2020-07-17T08:13:18Z</time>
      </trkpt>
      <trkpt lat="37.5491240" lon="-3.9177340">
        <ele>769.0</ele>
        <time>2020-07-17T08:13:19Z</time>
      </trkpt>
      <trkpt lat="37.5490010" lon="-3.9179060">
        <ele>768.6</ele>
        <time>2020-07-17T08:13:21Z</time>
      </trkpt>
      <trkpt lat="37.5489280" lon="-3.9179580">
        <ele>768.4</ele>
        <time>2020-07-17T08:13:22Z</time>
      </trkpt>
      <trkpt lat="37.5487600" lon="-3.9180870">
        <ele>768.0</ele>
        <time>2020-07-17T08:13:24Z</time>
      </trkpt>
      <trkpt lat="37.5486020" lon="-3.9182720">
        <ele>767.2</ele>
        <time>2020-07-17T08:13:26Z</time>
      </trkpt>
      <trkpt lat="37.5485290" lon="-3.9183640">
        <ele>766.6</ele>
        <time>2020-07-17T08:13:27Z</time>
      </trkpt>
      <trkpt lat="37.5484490" lon="-3.9184700">
        <ele>766.0</ele>
        <time>2020-07-17T08:13:28Z</time>
      </trkpt>
      <trkpt lat="37.5482880" lon="-3.9186600">
        <ele>764.6</ele>
        <time>2020-07-17T08:13:30Z</time>
      </trkpt>
      <trkpt lat="37.5481170" lon="-3.9188490">
        <ele>763.2</ele>
        <time>2020-07-17T08:13:32Z</time>
      </trkpt>
      <trkpt lat="37.5480270" lon="-3.9189630">
        <ele>762.4</ele>
        <time>2020-07-17T08:13:33Z</time>
      </trkpt>
      <trkpt lat="37.5479490" lon="-3.9190750">
        <ele>761.4</ele>
        <time>2020-07-17T08:13:34Z</time>
      </trkpt>
      <trkpt lat="37.5477690" lon="-3.9192610">
        <ele>760.2</ele>
        <time>2020-07-17T08:13:36Z</time>
      </trkpt>
      <trkpt lat="37.5476710" lon="-3.9193400">
        <ele>759.6</ele>
        <time>2020-07-17T08:13:37Z</time>
      </trkpt>
      <trkpt lat="37.5475600" lon="-3.9194370">
        <ele>758.8</ele>
        <time>2020-07-17T08:13:38Z</time>
      </trkpt>
      <trkpt lat="37.5474700" lon="-3.9195410">
        <ele>758.2</ele>
        <time>2020-07-17T08:13:39Z</time>
      </trkpt>
      <trkpt lat="37.5473930" lon="-3.9196610">
        <ele>757.6</ele>
        <time>2020-07-17T08:13:40Z</time>
      </trkpt>
      <trkpt lat="37.5473300" lon="-3.9197900">
        <ele>757.0</ele>
        <time>2020-07-17T08:13:41Z</time>
      </trkpt>
      <trkpt lat="37.5472930" lon="-3.9199070">
        <ele>756.4</ele>
        <time>2020-07-17T08:13:42Z</time>
      </trkpt>
      <trkpt lat="37.5472660" lon="-3.9202010">
        <ele>755.2</ele>
        <time>2020-07-17T08:13:44Z</time>
      </trkpt>
      <trkpt lat="37.5473690" lon="-3.9204090">
        <ele>753.4</ele>
        <time>2020-07-17T08:13:46Z</time>
      </trkpt>
      <trkpt lat="37.5474500" lon="-3.9204540">
        <ele>752.4</ele>
        <time>2020-07-17T08:13:47Z</time>
      </trkpt>
      <trkpt lat="37.5475530" lon="-3.9204800">
        <ele>751.6</ele>
        <time>2020-07-17T08:13:48Z</time>
      </trkpt>
      <trkpt lat="37.5476620" lon="-3.9204870">
        <ele>750.6</ele>
        <time>2020-07-17T08:13:49Z</time>
      </trkpt>
      <trkpt lat="37.5478720" lon="-3.9204960">
        <ele>749.2</ele>
        <time>2020-07-17T08:13:51Z</time>
      </trkpt>
      <trkpt lat="37.5480970" lon="-3.9204980">
        <ele>748.0</ele>
        <time>2020-07-17T08:13:53Z</time>
      </trkpt>
      <trkpt lat="37.5483270" lon="-3.9204920">
        <ele>746.8</ele>
        <time>2020-07-17T08:13:55Z</time>
      </trkpt>
      <trkpt lat="37.5485540" lon="-3.9204910">
        <ele>745.8</ele>
        <time>2020-07-17T08:13:57Z</time>
      </trkpt>
      <trkpt lat="37.5487940" lon="-3.9205050">
        <ele>744.4</ele>
        <time>2020-07-17T08:13:59Z</time>
      </trkpt>
      <trkpt lat="37.5488910" lon="-3.9205400">
        <ele>743.8</ele>
        <time>2020-07-17T08:14:00Z</time>
      </trkpt>
      <trkpt lat="37.5489690" lon="-3.9206190">
        <ele>743.2</ele>
        <time>2020-07-17T08:14:01Z</time>
      </trkpt>
      <trkpt lat="37.5489930" lon="-3.9208580">
        <ele>742.0</ele>
        <time>2020-07-17T08:14:03Z</time>
      </trkpt>
      <trkpt lat="37.5488750" lon="-3.9210630">
        <ele>740.4</ele>
        <time>2020-07-17T08:14:05Z</time>
      </trkpt>
      <trkpt lat="37.5486960" lon="-3.9212000">
        <ele>738.6</ele>
        <time>2020-07-17T08:14:07Z</time>
      </trkpt>
      <trkpt lat="37.5486010" lon="-3.9212730">
        <ele>738.0</ele>
        <time>2020-07-17T08:14:08Z</time>
      </trkpt>
      <trkpt lat="37.5485050" lon="-3.9213510">
        <ele>737.2</ele>
        <time>2020-07-17T08:14:09Z</time>
      </trkpt>
      <trkpt lat="37.5484120" lon="-3.9214300">
        <ele>736.6</ele>
        <time>2020-07-17T08:14:10Z</time>
      </trkpt>
      <trkpt lat="37.5483180" lon="-3.9215100">
        <ele>736.2</ele>
        <time>2020-07-17T08:14:11Z</time>
      </trkpt>
      <trkpt lat="37.5481140" lon="-3.9216450">
        <ele>734.8</ele>
        <time>2020-07-17T08:14:13Z</time>
      </trkpt>
      <trkpt lat="37.5480000" lon="-3.9216870">
        <ele>734.0</ele>
        <time>2020-07-17T08:14:14Z</time>
      </trkpt>
      <trkpt lat="37.5478810" lon="-3.9217180">
        <ele>733.0</ele>
        <time>2020-07-17T08:14:15Z</time>
      </trkpt>
      <trkpt lat="37.5476580" lon="-3.9218000">
        <ele>731.2</ele>
        <time>2020-07-17T08:14:17Z</time>
      </trkpt>
      <trkpt lat="37.5475540" lon="-3.9218550">
        <ele>730.4</ele>
        <time>2020-07-17T08:14:18Z</time>
      </trkpt>
      <trkpt lat="37.5474350" lon="-3.9219280">
        <ele>729.8</ele>
        <time>2020-07-17T08:14:19Z</time>
      </trkpt>
      <trkpt lat="37.5473450" lon="-3.9220260">
        <ele>729.0</ele>
        <time>2020-07-17T08:14:20Z</time>
      </trkpt>
      <trkpt lat="37.5472670" lon="-3.9221410">
        <ele>728.2</ele>
        <time>2020-07-17T08:14:21Z</time>
      </trkpt>
      <trkpt lat="37.5471410" lon="-3.9223880">
        <ele>726.2</ele>
        <time>2020-07-17T08:14:23Z</time>
      </trkpt>
      <trkpt lat="37.5470870" lon="-3.9225090">
        <ele>725.2</ele>
        <time>2020-07-17T08:14:24Z</time>
      </trkpt>
      <trkpt lat="37.5470500" lon="-3.9226440">
        <ele>724.0</ele>
        <time>2020-07-17T08:14:25Z</time>
      </trkpt>
      <trkpt lat="37.5470700" lon="-3.9228780">
        <ele>722.6</ele>
        <time>2020-07-17T08:14:27Z</time>
      </trkpt>
      <trkpt lat="37.5471790" lon="-3.9231700">
        <ele>721.2</ele>
        <time>2020-07-17T08:14:29Z</time>
      </trkpt>
      <trkpt lat="37.5472260" lon="-3.9232890">
        <ele>720.4</ele>
        <time>2020-07-17T08:14:30Z</time>
      </trkpt>
      <trkpt lat="37.5472540" lon="-3.9234330">
        <ele>719.6</ele>
        <time>2020-07-17T08:14:31Z</time>
      </trkpt>
      <trkpt lat="37.5472420" lon="-3.9235710">
        <ele>718.8</ele>
        <time>2020-07-17T08:14:32Z</time>
      </trkpt>
      <trkpt lat="37.5471980" lon="-3.9237090">
        <ele>718.4</ele>
        <time>2020-07-17T08:14:33Z</time>
      </trkpt>
      <trkpt lat="37.5471380" lon="-3.9238270">
        <ele>717.8</ele>
        <time>2020-07-17T08:14:34Z</time>
      </trkpt>
      <trkpt lat="37.5470720" lon="-3.9239440">
        <ele>717.2</ele>
        <time>2020-07-17T08:14:35Z</time>
      </trkpt>
      <trkpt lat="37.5469270" lon="-3.9241520">
        <ele>715.8</ele>
        <time>2020-07-17T08:14:37Z</time>
      </trkpt>
      <trkpt lat="37.5468460" lon="-3.9242680">
        <ele>715.2</ele>
        <time>2020-07-17T08:14:38Z</time>
      </trkpt>
      <trkpt lat="37.5467680" lon="-3.9243770">
        <ele>714.8</ele>
        <time>2020-07-17T08:14:39Z</time>
      </trkpt>
      <trkpt lat="37.5465900" lon="-3.9245730">
        <ele>713.8</ele>
        <time>2020-07-17T08:14:41Z</time>
      </trkpt>
      <trkpt lat="37.5464950" lon="-3.9246320">
        <ele>713.4</ele>
        <time>2020-07-17T08:14:42Z</time>
      </trkpt>
      <trkpt lat="37.5462450" lon="-3.9246740">
        <ele>712.2</ele>
        <time>2020-07-17T08:14:44Z</time>
      </trkpt>
      <trkpt lat="37.5460070" lon="-3.9245840">
        <ele>710.6</ele>
        <time>2020-07-17T08:14:46Z</time>
      </trkpt>
      <trkpt lat="37.5458970" lon="-3.9245360">
        <ele>710.0</ele>
        <time>2020-07-17T08:14:47Z</time>
      </trkpt>
      <trkpt lat="37.5457820" lon="-3.9244960">
        <ele>709.2</ele>
        <time>2020-07-17T08:14:48Z</time>
      </trkpt>
      <trkpt lat="37.5456610" lon="-3.9244810">
        <ele>708.2</ele>
        <time>2020-07-17T08:14:49Z</time>
      </trkpt>
      <trkpt lat="37.5455510" lon="-3.9245100">
        <ele>707.2</ele>
        <time>2020-07-17T08:14:50Z</time>
      </trkpt>
      <trkpt lat="37.5454530" lon="-3.9245740">
        <ele>706.2</ele>
        <time>2020-07-17T08:14:51Z</time>
      </trkpt>
      <trkpt lat="37.5453850" lon="-3.9246690">
        <ele>705.0</ele>
        <time>2020-07-17T08:14:52Z</time>
      </trkpt>
      <trkpt lat="37.5453260" lon="-3.9247990">
        <ele>704.0</ele>
        <time>2020-07-17T08:14:53Z</time>
      </trkpt>
      <trkpt lat="37.5452870" lon="-3.9249320">
        <ele>702.8</ele>
        <time>2020-07-17T08:14:54Z</time>
      </trkpt>
      <trkpt lat="37.5452490" lon="-3.9250760">
        <ele>701.8</ele>
        <time>2020-07-17T08:14:55Z</time>
      </trkpt>
      <trkpt lat="37.5452130" lon="-3.9252280">
        <ele>701.0</ele>
        <time>2020-07-17T08:14:56Z</time>
      </trkpt>
      <trkpt lat="37.5451910" lon="-3.9253720">
        <ele>700.0</ele>
        <time>2020-07-17T08:14:57Z</time>
      </trkpt>
      <trkpt lat="37.5451810" lon="-3.9255490">
        <ele>699.0</ele>
        <time>2020-07-17T08:14:58Z</time>
      </trkpt>
      <trkpt lat="37.5451920" lon="-3.9257020">
        <ele>698.2</ele>
        <time>2020-07-17T08:14:59Z</time>
      </trkpt>
      <trkpt lat="37.5451260" lon="-3.9259850">
        <ele>696.4</ele>
        <time>2020-07-17T08:15:01Z</time>
      </trkpt>
      <trkpt lat="37.5449860" lon="-3.9262290">
        <ele>695.0</ele>
        <time>2020-07-17T08:15:03Z</time>
      </trkpt>
      <trkpt lat="37.5449510" lon="-3.9263880">
        <ele>694.2</ele>
        <time>2020-07-17T08:15:04Z</time>
      </trkpt>
      <trkpt lat="37.5449340" lon="-3.9265460">
        <ele>693.0</ele>
        <time>2020-07-17T08:15:05Z</time>
      </trkpt>
      <trkpt lat="37.5448310" lon="-3.9268300">
        <ele>691.6</ele>
        <time>2020-07-17T08:15:07Z</time>
      </trkpt>
      <trkpt lat="37.5446190" lon="-3.9270610">
        <ele>690.0</ele>
        <time>2020-07-17T08:15:09Z</time>
      </trkpt>
      <trkpt lat="37.5445000" lon="-3.9271420">
        <ele>688.8</ele>
        <time>2020-07-17T08:15:10Z</time>
      </trkpt>
      <trkpt lat="37.5443800" lon="-3.9272230">
        <ele>687.8</ele>
        <time>2020-07-17T08:15:11Z</time>
      </trkpt>
      <trkpt lat="37.5442730" lon="-3.9272970">
        <ele>686.6</ele>
        <time>2020-07-17T08:15:12Z</time>
      </trkpt>
      <trkpt lat="37.5441430" lon="-3.9273900">
        <ele>685.4</ele>
        <time>2020-07-17T08:15:13Z</time>
      </trkpt>
      <trkpt lat="37.5440160" lon="-3.9274750">
        <ele>684.2</ele>
        <time>2020-07-17T08:15:14Z</time>
      </trkpt>
      <trkpt lat="37.5439020" lon="-3.9275430">
        <ele>683.2</ele>
        <time>2020-07-17T08:15:15Z</time>
      </trkpt>
      <trkpt lat="37.5437050" lon="-3.9277090">
        <ele>681.4</ele>
        <time>2020-07-17T08:15:17Z</time>
      </trkpt>
      <trkpt lat="37.5435560" lon="-3.9279830">
        <ele>679.8</ele>
        <time>2020-07-17T08:15:19Z</time>
      </trkpt>
      <trkpt lat="37.5434430" lon="-3.9282790">
        <ele>678.6</ele>
        <time>2020-07-17T08:15:21Z</time>
      </trkpt>
      <trkpt lat="37.5433640" lon="-3.9283970">
        <ele>678.0</ele>
        <time>2020-07-17T08:15:22Z</time>
      </trkpt>
      <trkpt lat="37.5432490" lon="-3.9285150">
        <ele>677.2</ele>
        <time>2020-07-17T08:15:23Z</time>
      </trkpt>
      <trkpt lat="37.5431400" lon="-3.9286000">
        <ele>676.2</ele>
        <time>2020-07-17T08:15:24Z</time>
      </trkpt>
      <trkpt lat="37.5430270" lon="-3.9287020">
        <ele>675.4</ele>
        <time>2020-07-17T08:15:25Z</time>
      </trkpt>
      <trkpt lat="37.5428310" lon="-3.9289320">
        <ele>675.8</ele>
        <time>2020-07-17T08:15:27Z</time>
      </trkpt>
      <trkpt lat="37.5427320" lon="-3.9290590">
        <ele>674.6</ele>
        <time>2020-07-17T08:15:28Z</time>
      </trkpt>
      <trkpt lat="37.5426270" lon="-3.9291840">
        <ele>672.8</ele>
        <time>2020-07-17T08:15:29Z</time>
      </trkpt>
      <trkpt lat="37.5424090" lon="-3.9293900">
        <ele>671.0</ele>
        <time>2020-07-17T08:15:31Z</time>
      </trkpt>
      <trkpt lat="37.5422930" lon="-3.9294840">
        <ele>670.2</ele>
        <time>2020-07-17T08:15:32Z</time>
      </trkpt>
      <trkpt lat="37.5421650" lon="-3.9295860">
        <ele>669.4</ele>
        <time>2020-07-17T08:15:33Z</time>
      </trkpt>
      <trkpt lat="37.5419240" lon="-3.9297800">
        <ele>667.4</ele>
        <time>2020-07-17T08:15:35Z</time>
      </trkpt>
      <trkpt lat="37.5418110" lon="-3.9298720">
        <ele>666.4</ele>
        <time>2020-07-17T08:15:36Z</time>
      </trkpt>
      <trkpt lat="37.5415660" lon="-3.9300840">
        <ele>664.6</ele>
        <time>2020-07-17T08:15:38Z</time>
      </trkpt>
      <trkpt lat="37.5414560" lon="-3.9301990">
        <ele>663.6</ele>
        <time>2020-07-17T08:15:39Z</time>
      </trkpt>
      <trkpt lat="37.5413520" lon="-3.9303200">
        <ele>662.8</ele>
        <time>2020-07-17T08:15:40Z</time>
      </trkpt>
      <trkpt lat="37.5411540" lon="-3.9305550">
        <ele>660.8</ele>
        <time>2020-07-17T08:15:42Z</time>
      </trkpt>
      <trkpt lat="37.5409440" lon="-3.9308130">
        <ele>659.2</ele>
        <time>2020-07-17T08:15:44Z</time>
      </trkpt>
      <trkpt lat="37.5407550" lon="-3.9310660">
        <ele>657.6</ele>
        <time>2020-07-17T08:15:46Z</time>
      </trkpt>
      <trkpt lat="37.5405780" lon="-3.9312970">
        <ele>656.4</ele>
        <time>2020-07-17T08:15:48Z</time>
      </trkpt>
      <trkpt lat="37.5403670" lon="-3.9315280">
        <ele>654.8</ele>
        <time>2020-07-17T08:15:50Z</time>
      </trkpt>
      <trkpt lat="37.5401660" lon="-3.9317260">
        <ele>653.8</ele>
        <time>2020-07-17T08:15:52Z</time>
      </trkpt>
      <trkpt lat="37.5399650" lon="-3.9319350">
        <ele>651.8</ele>
        <time>2020-07-17T08:15:54Z</time>
      </trkpt>
      <trkpt lat="37.5397780" lon="-3.9321650">
        <ele>650.6</ele>
        <time>2020-07-17T08:15:56Z</time>
      </trkpt>
      <trkpt lat="37.5394190" lon="-3.9325720">
        <ele>649.4</ele>
        <time>2020-07-17T08:16:00Z</time>
      </trkpt>
      <trkpt lat="37.5392370" lon="-3.9327630">
        <ele>648.4</ele>
        <time>2020-07-17T08:16:02Z</time>
      </trkpt>
      <trkpt lat="37.5391490" lon="-3.9328680">
        <ele>648.0</ele>
        <time>2020-07-17T08:16:03Z</time>
      </trkpt>
      <trkpt lat="37.5389790" lon="-3.9331000">
        <ele>646.4</ele>
        <time>2020-07-17T08:16:05Z</time>
      </trkpt>
      <trkpt lat="37.5388970" lon="-3.9332070">
        <ele>645.2</ele>
        <time>2020-07-17T08:16:06Z</time>
      </trkpt>
      <trkpt lat="37.5388080" lon="-3.9333230">
        <ele>644.4</ele>
        <time>2020-07-17T08:16:07Z</time>
      </trkpt>
      <trkpt lat="37.5387130" lon="-3.9334450">
        <ele>643.6</ele>
        <time>2020-07-17T08:16:08Z</time>
      </trkpt>
      <trkpt lat="37.5385100" lon="-3.9336440">
        <ele>642.0</ele>
        <time>2020-07-17T08:16:10Z</time>
      </trkpt>
      <trkpt lat="37.5383960" lon="-3.9337170">
        <ele>641.0</ele>
        <time>2020-07-17T08:16:11Z</time>
      </trkpt>
      <trkpt lat="37.5382930" lon="-3.9337860">
        <ele>640.4</ele>
        <time>2020-07-17T08:16:12Z</time>
      </trkpt>
      <trkpt lat="37.5381760" lon="-3.9338880">
        <ele>639.6</ele>
        <time>2020-07-17T08:16:13Z</time>
      </trkpt>
      <trkpt lat="37.5380750" lon="-3.9340010">
        <ele>638.8</ele>
        <time>2020-07-17T08:16:14Z</time>
      </trkpt>
      <trkpt lat="37.5379830" lon="-3.9341220">
        <ele>637.8</ele>
        <time>2020-07-17T08:16:15Z</time>
      </trkpt>
      <trkpt lat="37.5378920" lon="-3.9342380">
        <ele>637.0</ele>
        <time>2020-07-17T08:16:16Z</time>
      </trkpt>
      <trkpt lat="37.5377100" lon="-3.9344540">
        <ele>635.2</ele>
        <time>2020-07-17T08:16:18Z</time>
      </trkpt>
      <trkpt lat="37.5374990" lon="-3.9346260">
        <ele>633.4</ele>
        <time>2020-07-17T08:16:20Z</time>
      </trkpt>
      <trkpt lat="37.5372730" lon="-3.9347540">
        <ele>632.2</ele>
        <time>2020-07-17T08:16:22Z</time>
      </trkpt>
      <trkpt lat="37.5370320" lon="-3.9348470">
        <ele>630.6</ele>
        <time>2020-07-17T08:16:24Z</time>
      </trkpt>
      <trkpt lat="37.5369040" lon="-3.9348910">
        <ele>629.8</ele>
        <time>2020-07-17T08:16:25Z</time>
      </trkpt>
      <trkpt lat="37.5367920" lon="-3.9349380">
        <ele>629.4</ele>
        <time>2020-07-17T08:16:26Z</time>
      </trkpt>
      <trkpt lat="37.5365810" lon="-3.9350420">
        <ele>628.2</ele>
        <time>2020-07-17T08:16:28Z</time>
      </trkpt>
      <trkpt lat="37.5364840" lon="-3.9351030">
        <ele>628.0</ele>
        <time>2020-07-17T08:16:29Z</time>
      </trkpt>
      <trkpt lat="37.5361380" lon="-3.9353850">
        <ele>627.0</ele>
        <time>2020-07-17T08:16:33Z</time>
      </trkpt>
      <trkpt lat="37.5360790" lon="-3.9354790">
        <ele>626.8</ele>
        <time>2020-07-17T08:16:34Z</time>
      </trkpt>
      <trkpt lat="37.5359860" lon="-3.9356620">
        <ele>626.2</ele>
        <time>2020-07-17T08:16:36Z</time>
      </trkpt>
      <trkpt lat="37.5359450" lon="-3.9357570">
        <ele>626.2</ele>
        <time>2020-07-17T08:16:37Z</time>
      </trkpt>
      <trkpt lat="37.5359110" lon="-3.9358550">
        <ele>626.2</ele>
        <time>2020-07-17T08:16:38Z</time>
      </trkpt>
      <trkpt lat="37.5358510" lon="-3.9360350">
        <ele>626.6</ele>
        <time>2020-07-17T08:16:40Z</time>
      </trkpt>
      <trkpt lat="37.5358280" lon="-3.9361220">
        <ele>626.8</ele>
        <time>2020-07-17T08:16:41Z</time>
      </trkpt>
      <trkpt lat="37.5358170" lon="-3.9362000">
        <ele>627.0</ele>
        <time>2020-07-17T08:16:42Z</time>
      </trkpt>
      <trkpt lat="37.5358080" lon="-3.9362960">
        <ele>627.2</ele>
        <time>2020-07-17T08:16:43Z</time>
      </trkpt>
      <trkpt lat="37.5357810" lon="-3.9365080">
        <ele>627.4</ele>
        <time>2020-07-17T08:16:46Z</time>
      </trkpt>
      <trkpt lat="37.5357610" lon="-3.9365630">
        <ele>627.6</ele>
        <time>2020-07-17T08:16:47Z</time>
      </trkpt>
      <trkpt lat="37.5357140" lon="-3.9366710">
        <ele>628.0</ele>
        <time>2020-07-17T08:16:49Z</time>
      </trkpt>
      <trkpt lat="37.5356750" lon="-3.9367620">
        <ele>628.4</ele>
        <time>2020-07-17T08:16:51Z</time>
      </trkpt>
      <trkpt lat="37.5356600" lon="-3.9367960">
        <ele>628.4</ele>
        <time>2020-07-17T08:16:52Z</time>
      </trkpt>
      <trkpt lat="37.5356100" lon="-3.9368950">
        <ele>628.8</ele>
        <time>2020-07-17T08:16:55Z</time>
      </trkpt>
      <trkpt lat="37.5356000" lon="-3.9369290">
        <ele>629.0</ele>
        <time>2020-07-17T08:16:56Z</time>
      </trkpt>
      <trkpt lat="37.5355670" lon="-3.9369820">
        <ele>629.2</ele>
        <time>2020-07-17T08:16:58Z</time>
      </trkpt>
      <trkpt lat="37.5355140" lon="-3.9370600">
        <ele>630.0</ele>
        <time>2020-07-17T08:17:01Z</time>
      </trkpt>
      <trkpt lat="37.5354550" lon="-3.9371130">
        <ele>630.4</ele>
        <time>2020-07-17T08:17:04Z</time>
      </trkpt>
      <trkpt lat="37.5354380" lon="-3.9371290">
        <ele>630.4</ele>
        <time>2020-07-17T08:17:05Z</time>
      </trkpt>
      <trkpt lat="37.5353520" lon="-3.9371660">
        <ele>631.0</ele>
        <time>2020-07-17T08:17:09Z</time>
      </trkpt>
      <trkpt lat="37.5353100" lon="-3.9371850">
        <ele>631.6</ele>
        <time>2020-07-17T08:17:11Z</time>
      </trkpt>
      <trkpt lat="37.5352440" lon="-3.9371990">
        <ele>632.2</ele>
        <time>2020-07-17T08:17:14Z</time>
      </trkpt>
      <trkpt lat="37.5351280" lon="-3.9372110">
        <ele>633.0</ele>
        <time>2020-07-17T08:17:19Z</time>
      </trkpt>
      <trkpt lat="37.5351040" lon="-3.9372060">
        <ele>633.2</ele>
        <time>2020-07-17T08:17:20Z</time>
      </trkpt>
      <trkpt lat="37.5349900" lon="-3.9372070">
        <ele>634.2</ele>
        <time>2020-07-17T08:17:25Z</time>
      </trkpt>
      <trkpt lat="37.5349670" lon="-3.9372070">
        <ele>634.4</ele>
        <time>2020-07-17T08:17:26Z</time>
      </trkpt>
      <trkpt lat="37.5348770" lon="-3.9372050">
        <ele>635.2</ele>
        <time>2020-07-17T08:17:30Z</time>
      </trkpt>
      <trkpt lat="37.5347830" lon="-3.9371910">
        <ele>636.2</ele>
        <time>2020-07-17T08:17:34Z</time>
      </trkpt>
      <trkpt lat="37.5347390" lon="-3.9371890">
        <ele>636.4</ele>
        <time>2020-07-17T08:17:36Z</time>
      </trkpt>
      <trkpt lat="37.5345750" lon="-3.9371960">
        <ele>637.6</ele>
        <time>2020-07-17T08:17:43Z</time>
      </trkpt>
      <trkpt lat="37.5344580" lon="-3.9372070">
        <ele>638.6</ele>
        <time>2020-07-17T08:17:48Z</time>
      </trkpt>
      <trkpt lat="37.5343620" lon="-3.9372030">
        <ele>639.6</ele>
        <time>2020-07-17T08:17:52Z</time>
      </trkpt>
      <trkpt lat="37.5343330" lon="-3.9371980">
        <ele>639.8</ele>
        <time>2020-07-17T08:17:53Z</time>
      </trkpt>
      <trkpt lat="37.5341650" lon="-3.9371450">
        <ele>640.8</ele>
        <time>2020-07-17T08:17:59Z</time>
      </trkpt>
      <trkpt lat="37.5340060" lon="-3.9370970">
        <ele>642.0</ele>
        <time>2020-07-17T08:18:05Z</time>
      </trkpt>
      <trkpt lat="37.5339160" lon="-3.9371330">
        <ele>642.4</ele>
        <time>2020-07-17T08:18:08Z</time>
      </trkpt>
      <trkpt lat="37.5338620" lon="-3.9372130">
        <ele>642.8</ele>
        <time>2020-07-17T08:18:10Z</time>
      </trkpt>
      <trkpt lat="37.5338210" lon="-3.9373220">
        <ele>642.8</ele>
        <time>2020-07-17T08:18:12Z</time>
      </trkpt>
      <trkpt lat="37.5337120" lon="-3.9376560">
        <ele>642.2</ele>
        <time>2020-07-17T08:18:16Z</time>
      </trkpt>
      <trkpt lat="37.5335850" lon="-3.9380660">
        <ele>640.8</ele>
        <time>2020-07-17T08:18:20Z</time>
      </trkpt>
      <trkpt lat="37.5335500" lon="-3.9381810">
        <ele>640.2</ele>
        <time>2020-07-17T08:18:21Z</time>
      </trkpt>
      <trkpt lat="37.5335170" lon="-3.9382850">
        <ele>640.0</ele>
        <time>2020-07-17T08:18:22Z</time>
      </trkpt>
      <trkpt lat="37.5334730" lon="-3.9384220">
        <ele>639.2</ele>
        <time>2020-07-17T08:18:23Z</time>
      </trkpt>
      <trkpt lat="37.5334380" lon="-3.9385340">
        <ele>638.4</ele>
        <time>2020-07-17T08:18:24Z</time>
      </trkpt>
      <trkpt lat="37.5333950" lon="-3.9386720">
        <ele>637.6</ele>
        <time>2020-07-17T08:18:25Z</time>
      </trkpt>
      <trkpt lat="37.5333100" lon="-3.9389220">
        <ele>636.0</ele>
        <time>2020-07-17T08:18:27Z</time>
      </trkpt>
      <trkpt lat="37.5332600" lon="-3.9390770">
        <ele>635.2</ele>
        <time>2020-07-17T08:18:28Z</time>
      </trkpt>
      <trkpt lat="37.5332180" lon="-3.9392230">
        <ele>634.4</ele>
        <time>2020-07-17T08:18:29Z</time>
      </trkpt>
      <trkpt lat="37.5331790" lon="-3.9393540">
        <ele>633.6</ele>
        <time>2020-07-17T08:18:30Z</time>
      </trkpt>
      <trkpt lat="37.5331330" lon="-3.9395200">
        <ele>633.0</ele>
        <time>2020-07-17T08:18:31Z</time>
      </trkpt>
      <trkpt lat="37.5331060" lon="-3.9396600">
        <ele>632.2</ele>
        <time>2020-07-17T08:18:32Z</time>
      </trkpt>
      <trkpt lat="37.5330900" lon="-3.9398230">
        <ele>631.6</ele>
        <time>2020-07-17T08:18:33Z</time>
      </trkpt>
      <trkpt lat="37.5330970" lon="-3.9401570">
        <ele>630.6</ele>
        <time>2020-07-17T08:18:35Z</time>
      </trkpt>
      <trkpt lat="37.5331270" lon="-3.9404400">
        <ele>629.8</ele>
        <time>2020-07-17T08:18:37Z</time>
      </trkpt>
      <trkpt lat="37.5331470" lon="-3.9406020">
        <ele>629.6</ele>
        <time>2020-07-17T08:18:38Z</time>
      </trkpt>
      <trkpt lat="37.5331830" lon="-3.9408880">
        <ele>628.8</ele>
        <time>2020-07-17T08:18:40Z</time>
      </trkpt>
      <trkpt lat="37.5331980" lon="-3.9410280">
        <ele>628.4</ele>
        <time>2020-07-17T08:18:41Z</time>
      </trkpt>
      <trkpt lat="37.5332120" lon="-3.9412910">
        <ele>627.8</ele>
        <time>2020-07-17T08:18:43Z</time>
      </trkpt>
      <trkpt lat="37.5332040" lon="-3.9414350">
        <ele>627.4</ele>
        <time>2020-07-17T08:18:44Z</time>
      </trkpt>
      <trkpt lat="37.5331870" lon="-3.9415620">
        <ele>627.4</ele>
        <time>2020-07-17T08:18:45Z</time>
      </trkpt>
      <trkpt lat="37.5331600" lon="-3.9416870">
        <ele>627.0</ele>
        <time>2020-07-17T08:18:46Z</time>
      </trkpt>
      <trkpt lat="37.5330380" lon="-3.9420280">
        <ele>626.0</ele>
        <time>2020-07-17T08:18:49Z</time>
      </trkpt>
      <trkpt lat="37.5329850" lon="-3.9421310">
        <ele>625.6</ele>
        <time>2020-07-17T08:18:50Z</time>
      </trkpt>
      <trkpt lat="37.5329290" lon="-3.9422310">
        <ele>625.2</ele>
        <time>2020-07-17T08:18:51Z</time>
      </trkpt>
      <trkpt lat="37.5328220" lon="-3.9424150">
        <ele>624.4</ele>
        <time>2020-07-17T08:18:53Z</time>
      </trkpt>
      <trkpt lat="37.5327680" lon="-3.9425150">
        <ele>624.0</ele>
        <time>2020-07-17T08:18:54Z</time>
      </trkpt>
      <trkpt lat="37.5326600" lon="-3.9427290">
        <ele>623.4</ele>
        <time>2020-07-17T08:18:56Z</time>
      </trkpt>
      <trkpt lat="37.5326180" lon="-3.9428230">
        <ele>623.2</ele>
        <time>2020-07-17T08:18:57Z</time>
      </trkpt>
      <trkpt lat="37.5324520" lon="-3.9432650">
        <ele>622.6</ele>
        <time>2020-07-17T08:19:01Z</time>
      </trkpt>
      <trkpt lat="37.5323870" lon="-3.9434830">
        <ele>622.2</ele>
        <time>2020-07-17T08:19:03Z</time>
      </trkpt>
      <trkpt lat="37.5323460" lon="-3.9437080">
        <ele>622.0</ele>
        <time>2020-07-17T08:19:05Z</time>
      </trkpt>
      <trkpt lat="37.5323330" lon="-3.9438130">
        <ele>621.8</ele>
        <time>2020-07-17T08:19:06Z</time>
      </trkpt>
      <trkpt lat="37.5322970" lon="-3.9442690">
        <ele>621.2</ele>
        <time>2020-07-17T08:19:10Z</time>
      </trkpt>
      <trkpt lat="37.5322880" lon="-3.9443820">
        <ele>621.0</ele>
        <time>2020-07-17T08:19:11Z</time>
      </trkpt>
      <trkpt lat="37.5322780" lon="-3.9444740">
        <ele>620.8</ele>
        <time>2020-07-17T08:19:12Z</time>
      </trkpt>
      <trkpt lat="37.5322840" lon="-3.9451300">
        <ele>620.4</ele>
        <time>2020-07-17T08:19:18Z</time>
      </trkpt>
      <trkpt lat="37.5323320" lon="-3.9453460">
        <ele>620.2</ele>
        <time>2020-07-17T08:19:20Z</time>
      </trkpt>
      <trkpt lat="37.5324060" lon="-3.9455300">
        <ele>619.8</ele>
        <time>2020-07-17T08:19:22Z</time>
      </trkpt>
      <trkpt lat="37.5324940" lon="-3.9457050">
        <ele>619.2</ele>
        <time>2020-07-17T08:19:24Z</time>
      </trkpt>
      <trkpt lat="37.5325710" lon="-3.9458390">
        <ele>618.4</ele>
        <time>2020-07-17T08:19:26Z</time>
      </trkpt>
      <trkpt lat="37.5327020" lon="-3.9460540">
        <ele>617.2</ele>
        <time>2020-07-17T08:19:29Z</time>
      </trkpt>
      <trkpt lat="37.5327910" lon="-3.9462250">
        <ele>616.4</ele>
        <time>2020-07-17T08:19:31Z</time>
      </trkpt>
      <trkpt lat="37.5328320" lon="-3.9462990">
        <ele>616.0</ele>
        <time>2020-07-17T08:19:32Z</time>
      </trkpt>
      <trkpt lat="37.5329810" lon="-3.9465840">
        <ele>614.6</ele>
        <time>2020-07-17T08:19:35Z</time>
      </trkpt>
      <trkpt lat="37.5330620" lon="-3.9467640">
        <ele>614.0</ele>
        <time>2020-07-17T08:19:37Z</time>
      </trkpt>
      <trkpt lat="37.5331080" lon="-3.9468640">
        <ele>613.6</ele>
        <time>2020-07-17T08:19:38Z</time>
      </trkpt>
      <trkpt lat="37.5332650" lon="-3.9472590">
        <ele>613.0</ele>
        <time>2020-07-17T08:19:42Z</time>
      </trkpt>
      <trkpt lat="37.5333190" lon="-3.9474850">
        <ele>613.0</ele>
        <time>2020-07-17T08:19:44Z</time>
      </trkpt>
      <trkpt lat="37.5333690" lon="-3.9477750">
        <ele>612.6</ele>
        <time>2020-07-17T08:19:47Z</time>
      </trkpt>
      <trkpt lat="37.5334350" lon="-3.9479810">
        <ele>612.2</ele>
        <time>2020-07-17T08:19:49Z</time>
      </trkpt>
      <trkpt lat="37.5335170" lon="-3.9481580">
        <ele>611.8</ele>
        <time>2020-07-17T08:19:51Z</time>
      </trkpt>
      <trkpt lat="37.5336470" lon="-3.9484120">
        <ele>611.6</ele>
        <time>2020-07-17T08:19:54Z</time>
      </trkpt>
      <trkpt lat="37.5337000" lon="-3.9485050">
        <ele>611.4</ele>
        <time>2020-07-17T08:19:55Z</time>
      </trkpt>
      <trkpt lat="37.5338810" lon="-3.9488380">
        <ele>611.2</ele>
        <time>2020-07-17T08:19:59Z</time>
      </trkpt>
      <trkpt lat="37.5339670" lon="-3.9490070">
        <ele>611.0</ele>
        <time>2020-07-17T08:20:01Z</time>
      </trkpt>
      <trkpt lat="37.5340040" lon="-3.9490890">
        <ele>611.0</ele>
        <time>2020-07-17T08:20:02Z</time>
      </trkpt>
      <trkpt lat="37.5342430" lon="-3.9497580">
        <ele>610.8</ele>
        <time>2020-07-17T08:20:09Z</time>
      </trkpt>
      <trkpt lat="37.5344260" lon="-3.9502080">
        <ele>610.6</ele>
        <time>2020-07-17T08:20:14Z</time>
      </trkpt>
      <trkpt lat="37.5344730" lon="-3.9502850">
        <ele>610.4</ele>
        <time>2020-07-17T08:20:15Z</time>
      </trkpt>
      <trkpt lat="37.5347100" lon="-3.9507580">
        <ele>610.2</ele>
        <time>2020-07-17T08:20:21Z</time>
      </trkpt>
      <trkpt lat="37.5348950" lon="-3.9512340">
        <ele>610.6</ele>
        <time>2020-07-17T08:20:27Z</time>
      </trkpt>
      <trkpt lat="37.5350930" lon="-3.9515990">
        <ele>610.4</ele>
        <time>2020-07-17T08:20:32Z</time>
      </trkpt>
      <trkpt lat="37.5351910" lon="-3.9520610">
        <ele>610.2</ele>
        <time>2020-07-17T08:20:37Z</time>
      </trkpt>
      <trkpt lat="37.5352820" lon="-3.9524490">
        <ele>609.2</ele>
        <time>2020-07-17T08:20:41Z</time>
      </trkpt>
      <trkpt lat="37.5353500" lon="-3.9527280">
        <ele>608.6</ele>
        <time>2020-07-17T08:20:44Z</time>
      </trkpt>
      <trkpt lat="37.5354070" lon="-3.9529070">
        <ele>608.2</ele>
        <time>2020-07-17T08:20:46Z</time>
      </trkpt>
      <trkpt lat="37.5355260" lon="-3.9531550">
        <ele>608.0</ele>
        <time>2020-07-17T08:20:49Z</time>
      </trkpt>
      <trkpt lat="37.5358260" lon="-3.9536500">
        <ele>608.2</ele>
        <time>2020-07-17T08:20:56Z</time>
      </trkpt>
      <trkpt lat="37.5360030" lon="-3.9538690">
        <ele>609.0</ele>
        <time>2020-07-17T08:21:00Z</time>
      </trkpt>
      <trkpt lat="37.5360570" lon="-3.9539210">
        <ele>609.2</ele>
        <time>2020-07-17T08:21:01Z</time>
      </trkpt>
      <trkpt lat="37.5361000" lon="-3.9539570">
        <ele>609.4</ele>
        <time>2020-07-17T08:21:02Z</time>
      </trkpt>
      <trkpt lat="37.5362000" lon="-3.9540500">
        <ele>610.0</ele>
        <time>2020-07-17T08:21:04Z</time>
      </trkpt>
      <trkpt lat="37.5362840" lon="-3.9541380">
        <ele>610.4</ele>
        <time>2020-07-17T08:21:06Z</time>
      </trkpt>
      <trkpt lat="37.5363910" lon="-3.9542430">
        <ele>610.6</ele>
        <time>2020-07-17T08:21:08Z</time>
      </trkpt>
      <trkpt lat="37.5365940" lon="-3.9545210">
        <ele>610.0</ele>
        <time>2020-07-17T08:21:12Z</time>
      </trkpt>
      <trkpt lat="37.5366910" lon="-3.9547480">
        <ele>609.2</ele>
        <time>2020-07-17T08:21:14Z</time>
      </trkpt>
      <trkpt lat="37.5367730" lon="-3.9549680">
        <ele>608.2</ele>
        <time>2020-07-17T08:21:16Z</time>
      </trkpt>
      <trkpt lat="37.5368860" lon="-3.9551690">
        <ele>607.0</ele>
        <time>2020-07-17T08:21:18Z</time>
      </trkpt>
      <trkpt lat="37.5369690" lon="-3.9552660">
        <ele>606.2</ele>
        <time>2020-07-17T08:21:19Z</time>
      </trkpt>
      <trkpt lat="37.5370510" lon="-3.9553380">
        <ele>605.6</ele>
        <time>2020-07-17T08:21:20Z</time>
      </trkpt>
      <trkpt lat="37.5372680" lon="-3.9555350">
        <ele>604.2</ele>
        <time>2020-07-17T08:21:23Z</time>
      </trkpt>
      <trkpt lat="37.5374660" lon="-3.9557570">
        <ele>604.0</ele>
        <time>2020-07-17T08:21:26Z</time>
      </trkpt>
      <trkpt lat="37.5375100" lon="-3.9558350">
        <ele>604.0</ele>
        <time>2020-07-17T08:21:27Z</time>
      </trkpt>
      <trkpt lat="37.5375570" lon="-3.9559360">
        <ele>604.0</ele>
        <time>2020-07-17T08:21:28Z</time>
      </trkpt>
      <trkpt lat="37.5376420" lon="-3.9561330">
        <ele>603.6</ele>
        <time>2020-07-17T08:21:30Z</time>
      </trkpt>
      <trkpt lat="37.5377010" lon="-3.9562330">
        <ele>603.2</ele>
        <time>2020-07-17T08:21:31Z</time>
      </trkpt>
      <trkpt lat="37.5377670" lon="-3.9563010">
        <ele>602.8</ele>
        <time>2020-07-17T08:21:32Z</time>
      </trkpt>
      <trkpt lat="37.5380060" lon="-3.9565030">
        <ele>601.8</ele>
        <time>2020-07-17T08:21:35Z</time>
      </trkpt>
      <trkpt lat="37.5380680" lon="-3.9565760">
        <ele>601.4</ele>
        <time>2020-07-17T08:21:36Z</time>
      </trkpt>
      <trkpt lat="37.5383240" lon="-3.9569070">
        <ele>600.6</ele>
        <time>2020-07-17T08:21:40Z</time>
      </trkpt>
      <trkpt lat="37.5383930" lon="-3.9569730">
        <ele>600.4</ele>
        <time>2020-07-17T08:21:41Z</time>
      </trkpt>
      <trkpt lat="37.5386770" lon="-3.9571990">
        <ele>599.6</ele>
        <time>2020-07-17T08:21:45Z</time>
      </trkpt>
      <trkpt lat="37.5387320" lon="-3.9572680">
        <ele>599.6</ele>
        <time>2020-07-17T08:21:46Z</time>
      </trkpt>
      <trkpt lat="37.5388890" lon="-3.9574960">
        <ele>598.8</ele>
        <time>2020-07-17T08:21:49Z</time>
      </trkpt>
      <trkpt lat="37.5389870" lon="-3.9576670">
        <ele>598.4</ele>
        <time>2020-07-17T08:21:51Z</time>
      </trkpt>
      <trkpt lat="37.5391590" lon="-3.9578890">
        <ele>597.6</ele>
        <time>2020-07-17T08:21:54Z</time>
      </trkpt>
      <trkpt lat="37.5393090" lon="-3.9579770">
        <ele>597.4</ele>
        <time>2020-07-17T08:21:56Z</time>
      </trkpt>
      <trkpt lat="37.5393780" lon="-3.9580060">
        <ele>597.4</ele>
        <time>2020-07-17T08:21:57Z</time>
      </trkpt>
      <trkpt lat="37.5394500" lon="-3.9580360">
        <ele>597.2</ele>
        <time>2020-07-17T08:21:58Z</time>
      </trkpt>
      <trkpt lat="37.5397110" lon="-3.9581580">
        <ele>598.2</ele>
        <time>2020-07-17T08:22:02Z</time>
      </trkpt>
      <trkpt lat="37.5397750" lon="-3.9582030">
        <ele>598.6</ele>
        <time>2020-07-17T08:22:03Z</time>
      </trkpt>
      <trkpt lat="37.5399350" lon="-3.9583510">
        <ele>599.0</ele>
        <time>2020-07-17T08:22:06Z</time>
      </trkpt>
      <trkpt lat="37.5400550" lon="-3.9584570">
        <ele>599.0</ele>
        <time>2020-07-17T08:22:08Z</time>
      </trkpt>
      <trkpt lat="37.5401260" lon="-3.9585030">
        <ele>599.0</ele>
        <time>2020-07-17T08:22:09Z</time>
      </trkpt>
      <trkpt lat="37.5403300" lon="-3.9585570">
        <ele>598.8</ele>
        <time>2020-07-17T08:22:12Z</time>
      </trkpt>
      <trkpt lat="37.5404160" lon="-3.9585710">
        <ele>598.8</ele>
        <time>2020-07-17T08:22:13Z</time>
      </trkpt>
      <trkpt lat="37.5407730" lon="-3.9586730">
        <ele>598.4</ele>
        <time>2020-07-17T08:22:18Z</time>
      </trkpt>
      <trkpt lat="37.5408500" lon="-3.9587260">
        <ele>598.2</ele>
        <time>2020-07-17T08:22:19Z</time>
      </trkpt>
      <trkpt lat="37.5411620" lon="-3.9590150">
        <ele>597.8</ele>
        <time>2020-07-17T08:22:24Z</time>
      </trkpt>
      <trkpt lat="37.5415420" lon="-3.9593720">
        <ele>597.4</ele>
        <time>2020-07-17T08:22:30Z</time>
      </trkpt>
      <trkpt lat="37.5418180" lon="-3.9596080">
        <ele>596.8</ele>
        <time>2020-07-17T08:22:34Z</time>
      </trkpt>
      <trkpt lat="37.5420260" lon="-3.9597400">
        <ele>596.4</ele>
        <time>2020-07-17T08:22:37Z</time>
      </trkpt>
      <trkpt lat="37.5422490" lon="-3.9598520">
        <ele>596.2</ele>
        <time>2020-07-17T08:22:40Z</time>
      </trkpt>
      <trkpt lat="37.5424940" lon="-3.9600200">
        <ele>596.6</ele>
        <time>2020-07-17T08:22:44Z</time>
      </trkpt>
      <trkpt lat="37.5425390" lon="-3.9600770">
        <ele>596.8</ele>
        <time>2020-07-17T08:22:45Z</time>
      </trkpt>
      <trkpt lat="37.5427320" lon="-3.9603680">
        <ele>597.6</ele>
        <time>2020-07-17T08:22:50Z</time>
      </trkpt>
      <trkpt lat="37.5427650" lon="-3.9604260">
        <ele>597.8</ele>
        <time>2020-07-17T08:22:51Z</time>
      </trkpt>
      <trkpt lat="37.5428300" lon="-3.9605420">
        <ele>598.6</ele>
        <time>2020-07-17T08:22:53Z</time>
      </trkpt>
      <trkpt lat="37.5428890" lon="-3.9606520">
        <ele>598.8</ele>
        <time>2020-07-17T08:22:55Z</time>
      </trkpt>
      <trkpt lat="37.5429840" lon="-3.9608220">
        <ele>599.6</ele>
        <time>2020-07-17T08:22:58Z</time>
      </trkpt>
      <trkpt lat="37.5430160" lon="-3.9608780">
        <ele>599.8</ele>
        <time>2020-07-17T08:22:59Z</time>
      </trkpt>
      <trkpt lat="37.5430430" lon="-3.9609310">
        <ele>600.2</ele>
        <time>2020-07-17T08:23:00Z</time>
      </trkpt>
      <trkpt lat="37.5430980" lon="-3.9610400">
        <ele>600.4</ele>
        <time>2020-07-17T08:23:02Z</time>
      </trkpt>
      <trkpt lat="37.5431750" lon="-3.9612200">
        <ele>601.0</ele>
        <time>2020-07-17T08:23:05Z</time>
      </trkpt>
      <trkpt lat="37.5432460" lon="-3.9614370">
        <ele>601.4</ele>
        <time>2020-07-17T08:23:08Z</time>
      </trkpt>
      <trkpt lat="37.5433990" lon="-3.9620240">
        <ele>601.0</ele>
        <time>2020-07-17T08:23:15Z</time>
      </trkpt>
      <trkpt lat="37.5434300" lon="-3.9622150">
        <ele>600.4</ele>
        <time>2020-07-17T08:23:17Z</time>
      </trkpt>
      <trkpt lat="37.5434320" lon="-3.9623210">
        <ele>600.0</ele>
        <time>2020-07-17T08:23:18Z</time>
      </trkpt>
      <trkpt lat="37.5434260" lon="-3.9624450">
        <ele>599.6</ele>
        <time>2020-07-17T08:23:19Z</time>
      </trkpt>
      <trkpt lat="37.5433930" lon="-3.9626770">
        <ele>598.6</ele>
        <time>2020-07-17T08:23:21Z</time>
      </trkpt>
      <trkpt lat="37.5433770" lon="-3.9627830">
        <ele>598.0</ele>
        <time>2020-07-17T08:23:22Z</time>
      </trkpt>
      <trkpt lat="37.5433750" lon="-3.9629230">
        <ele>597.6</ele>
        <time>2020-07-17T08:23:23Z</time>
      </trkpt>
      <trkpt lat="37.5434420" lon="-3.9631660">
        <ele>596.2</ele>
        <time>2020-07-17T08:23:25Z</time>
      </trkpt>
      <trkpt lat="37.5435090" lon="-3.9632690">
        <ele>595.6</ele>
        <time>2020-07-17T08:23:26Z</time>
      </trkpt>
      <trkpt lat="37.5435750" lon="-3.9633530">
        <ele>595.2</ele>
        <time>2020-07-17T08:23:27Z</time>
      </trkpt>
      <trkpt lat="37.5437430" lon="-3.9635330">
        <ele>594.2</ele>
        <time>2020-07-17T08:23:29Z</time>
      </trkpt>
      <trkpt lat="37.5438160" lon="-3.9635980">
        <ele>593.8</ele>
        <time>2020-07-17T08:23:30Z</time>
      </trkpt>
      <trkpt lat="37.5439880" lon="-3.9637250">
        <ele>593.0</ele>
        <time>2020-07-17T08:23:32Z</time>
      </trkpt>
      <trkpt lat="37.5440710" lon="-3.9637820">
        <ele>592.8</ele>
        <time>2020-07-17T08:23:33Z</time>
      </trkpt>
      <trkpt lat="37.5441440" lon="-3.9638360">
        <ele>592.6</ele>
        <time>2020-07-17T08:23:34Z</time>
      </trkpt>
      <trkpt lat="37.5442750" lon="-3.9639310">
        <ele>592.6</ele>
        <time>2020-07-17T08:23:36Z</time>
      </trkpt>
      <trkpt lat="37.5443980" lon="-3.9640350">
        <ele>593.0</ele>
        <time>2020-07-17T08:23:38Z</time>
      </trkpt>
      <trkpt lat="37.5445280" lon="-3.9641450">
        <ele>593.6</ele>
        <time>2020-07-17T08:23:40Z</time>
      </trkpt>
      <trkpt lat="37.5445970" lon="-3.9642040">
        <ele>593.8</ele>
        <time>2020-07-17T08:23:41Z</time>
      </trkpt>
      <trkpt lat="37.5448150" lon="-3.9643920">
        <ele>593.6</ele>
        <time>2020-07-17T08:23:44Z</time>
      </trkpt>
      <trkpt lat="37.5450530" lon="-3.9645670">
        <ele>592.6</ele>
        <time>2020-07-17T08:23:47Z</time>
      </trkpt>
      <trkpt lat="37.5453010" lon="-3.9647550">
        <ele>591.6</ele>
        <time>2020-07-17T08:23:50Z</time>
      </trkpt>
      <trkpt lat="37.5454490" lon="-3.9648560">
        <ele>591.0</ele>
        <time>2020-07-17T08:23:52Z</time>
      </trkpt>
      <trkpt lat="37.5458160" lon="-3.9650440">
        <ele>590.8</ele>
        <time>2020-07-17T08:23:57Z</time>
      </trkpt>
      <trkpt lat="37.5460780" lon="-3.9652330">
        <ele>591.0</ele>
        <time>2020-07-17T08:24:01Z</time>
      </trkpt>
      <trkpt lat="37.5461220" lon="-3.9652970">
        <ele>591.0</ele>
        <time>2020-07-17T08:24:02Z</time>
      </trkpt>
      <trkpt lat="37.5462390" lon="-3.9654690">
        <ele>590.8</ele>
        <time>2020-07-17T08:24:04Z</time>
      </trkpt>
      <trkpt lat="37.5463100" lon="-3.9655370">
        <ele>590.6</ele>
        <time>2020-07-17T08:24:05Z</time>
      </trkpt>
      <trkpt lat="37.5463880" lon="-3.9655700">
        <ele>590.0</ele>
        <time>2020-07-17T08:24:06Z</time>
      </trkpt>
      <trkpt lat="37.5464820" lon="-3.9655860">
        <ele>589.4</ele>
        <time>2020-07-17T08:24:07Z</time>
      </trkpt>
      <trkpt lat="37.5466850" lon="-3.9656330">
        <ele>588.6</ele>
        <time>2020-07-17T08:24:09Z</time>
      </trkpt>
      <trkpt lat="37.5467810" lon="-3.9656700">
        <ele>588.0</ele>
        <time>2020-07-17T08:24:10Z</time>
      </trkpt>
      <trkpt lat="37.5469470" lon="-3.9657530">
        <ele>587.0</ele>
        <time>2020-07-17T08:24:12Z</time>
      </trkpt>
      <trkpt lat="37.5470490" lon="-3.9658170">
        <ele>586.6</ele>
        <time>2020-07-17T08:24:13Z</time>
      </trkpt>
      <trkpt lat="37.5471260" lon="-3.9658850">
        <ele>586.2</ele>
        <time>2020-07-17T08:24:14Z</time>
      </trkpt>
      <trkpt lat="37.5471970" lon="-3.9659640">
        <ele>586.0</ele>
        <time>2020-07-17T08:24:15Z</time>
      </trkpt>
      <trkpt lat="37.5473220" lon="-3.9661090">
        <ele>585.8</ele>
        <time>2020-07-17T08:24:17Z</time>
      </trkpt>
      <trkpt lat="37.5476180" lon="-3.9665370">
        <ele>585.0</ele>
        <time>2020-07-17T08:24:22Z</time>
      </trkpt>
      <trkpt lat="37.5476650" lon="-3.9666480">
        <ele>584.8</ele>
        <time>2020-07-17T08:24:23Z</time>
      </trkpt>
      <trkpt lat="37.5478280" lon="-3.9670260">
        <ele>584.6</ele>
        <time>2020-07-17T08:24:27Z</time>
      </trkpt>
      <trkpt lat="37.5481900" lon="-3.9675250">
        <ele>583.8</ele>
        <time>2020-07-17T08:24:33Z</time>
      </trkpt>
      <trkpt lat="37.5482500" lon="-3.9676010">
        <ele>583.8</ele>
        <time>2020-07-17T08:24:34Z</time>
      </trkpt>
      <trkpt lat="37.5483840" lon="-3.9678230">
        <ele>583.6</ele>
        <time>2020-07-17T08:24:37Z</time>
      </trkpt>
      <trkpt lat="37.5484130" lon="-3.9679100">
        <ele>583.6</ele>
        <time>2020-07-17T08:24:38Z</time>
      </trkpt>
      <trkpt lat="37.5484270" lon="-3.9681030">
        <ele>583.6</ele>
        <time>2020-07-17T08:24:40Z</time>
      </trkpt>
      <trkpt lat="37.5484180" lon="-3.9681990">
        <ele>583.6</ele>
        <time>2020-07-17T08:24:41Z</time>
      </trkpt>
      <trkpt lat="37.5484010" lon="-3.9682800">
        <ele>583.8</ele>
        <time>2020-07-17T08:24:42Z</time>
      </trkpt>
      <trkpt lat="37.5483210" lon="-3.9684570">
        <ele>584.0</ele>
        <time>2020-07-17T08:24:44Z</time>
      </trkpt>
      <trkpt lat="37.5482170" lon="-3.9686030">
        <ele>584.2</ele>
        <time>2020-07-17T08:24:46Z</time>
      </trkpt>
      <trkpt lat="37.5481360" lon="-3.9687440">
        <ele>584.4</ele>
        <time>2020-07-17T08:24:48Z</time>
      </trkpt>
      <trkpt lat="37.5480870" lon="-3.9690340">
        <ele>584.6</ele>
        <time>2020-07-17T08:24:51Z</time>
      </trkpt>
      <trkpt lat="37.5480970" lon="-3.9692130">
        <ele>584.8</ele>
        <time>2020-07-17T08:24:53Z</time>
      </trkpt>
      <trkpt lat="37.5480920" lon="-3.9692980">
        <ele>584.8</ele>
        <time>2020-07-17T08:24:54Z</time>
      </trkpt>
      <trkpt lat="37.5480780" lon="-3.9693880">
        <ele>585.0</ele>
        <time>2020-07-17T08:24:55Z</time>
      </trkpt>
      <trkpt lat="37.5479890" lon="-3.9696070">
        <ele>585.4</ele>
        <time>2020-07-17T08:24:58Z</time>
      </trkpt>
      <trkpt lat="37.5479450" lon="-3.9696860">
        <ele>585.6</ele>
        <time>2020-07-17T08:24:59Z</time>
      </trkpt>
      <trkpt lat="37.5478490" lon="-3.9698310">
        <ele>585.6</ele>
        <time>2020-07-17T08:25:01Z</time>
      </trkpt>
      <trkpt lat="37.5476810" lon="-3.9700750">
        <ele>585.4</ele>
        <time>2020-07-17T08:25:04Z</time>
      </trkpt>
      <trkpt lat="37.5474930" lon="-3.9704620">
        <ele>583.8</ele>
        <time>2020-07-17T08:25:08Z</time>
      </trkpt>
      <trkpt lat="37.5474510" lon="-3.9705810">
        <ele>583.2</ele>
        <time>2020-07-17T08:25:09Z</time>
      </trkpt>
      <trkpt lat="37.5474150" lon="-3.9706930">
        <ele>582.6</ele>
        <time>2020-07-17T08:25:10Z</time>
      </trkpt>
      <trkpt lat="37.5473510" lon="-3.9709010">
        <ele>581.6</ele>
        <time>2020-07-17T08:25:12Z</time>
      </trkpt>
      <trkpt lat="37.5472350" lon="-3.9712420">
        <ele>580.4</ele>
        <time>2020-07-17T08:25:15Z</time>
      </trkpt>
      <trkpt lat="37.5471960" lon="-3.9713440">
        <ele>580.2</ele>
        <time>2020-07-17T08:25:16Z</time>
      </trkpt>
      <trkpt lat="37.5471380" lon="-3.9715240">
        <ele>579.8</ele>
        <time>2020-07-17T08:25:18Z</time>
      </trkpt>
      <trkpt lat="37.5471180" lon="-3.9716290">
        <ele>579.6</ele>
        <time>2020-07-17T08:25:19Z</time>
      </trkpt>
      <trkpt lat="37.5471220" lon="-3.9717330">
        <ele>579.6</ele>
        <time>2020-07-17T08:25:20Z</time>
      </trkpt>
      <trkpt lat="37.5471400" lon="-3.9718380">
        <ele>579.2</ele>
        <time>2020-07-17T08:25:21Z</time>
      </trkpt>
      <trkpt lat="37.5471870" lon="-3.9720510">
        <ele>579.0</ele>
        <time>2020-07-17T08:25:23Z</time>
      </trkpt>
      <trkpt lat="37.5472570" lon="-3.9722820">
        <ele>578.4</ele>
        <time>2020-07-17T08:25:25Z</time>
      </trkpt>
      <trkpt lat="37.5472890" lon="-3.9723890">
        <ele>578.0</ele>
        <time>2020-07-17T08:25:26Z</time>
      </trkpt>
      <trkpt lat="37.5473300" lon="-3.9726100">
        <ele>577.2</ele>
        <time>2020-07-17T08:25:28Z</time>
      </trkpt>
      <trkpt lat="37.5473400" lon="-3.9727180">
        <ele>576.8</ele>
        <time>2020-07-17T08:25:29Z</time>
      </trkpt>
      <trkpt lat="37.5473590" lon="-3.9729160">
        <ele>576.6</ele>
        <time>2020-07-17T08:25:31Z</time>
      </trkpt>
      <trkpt lat="37.5473840" lon="-3.9730010">
        <ele>576.6</ele>
        <time>2020-07-17T08:25:32Z</time>
      </trkpt>
      <trkpt lat="37.5474220" lon="-3.9730890">
        <ele>576.8</ele>
        <time>2020-07-17T08:25:33Z</time>
      </trkpt>
      <trkpt lat="37.5475090" lon="-3.9732340">
        <ele>577.2</ele>
        <time>2020-07-17T08:25:35Z</time>
      </trkpt>
      <trkpt lat="37.5475900" lon="-3.9733660">
        <ele>577.4</ele>
        <time>2020-07-17T08:25:37Z</time>
      </trkpt>
      <trkpt lat="37.5476810" lon="-3.9735710">
        <ele>577.6</ele>
        <time>2020-07-17T08:25:40Z</time>
      </trkpt>
      <trkpt lat="37.5476830" lon="-3.9737040">
        <ele>577.8</ele>
        <time>2020-07-17T08:25:42Z</time>
      </trkpt>
      <trkpt lat="37.5476630" lon="-3.9737760">
        <ele>578.2</ele>
        <time>2020-07-17T08:25:43Z</time>
      </trkpt>
      <trkpt lat="37.5476050" lon="-3.9738860">
        <ele>578.6</ele>
        <time>2020-07-17T08:25:45Z</time>
      </trkpt>
      <trkpt lat="37.5475750" lon="-3.9739400">
        <ele>579.0</ele>
        <time>2020-07-17T08:25:46Z</time>
      </trkpt>
      <trkpt lat="37.5475060" lon="-3.9740510">
        <ele>579.4</ele>
        <time>2020-07-17T08:25:48Z</time>
      </trkpt>
      <trkpt lat="37.5474340" lon="-3.9741760">
        <ele>579.8</ele>
        <time>2020-07-17T08:25:50Z</time>
      </trkpt>
      <trkpt lat="37.5473940" lon="-3.9742340">
        <ele>580.0</ele>
        <time>2020-07-17T08:25:51Z</time>
      </trkpt>
      <trkpt lat="37.5473550" lon="-3.9742900">
        <ele>580.0</ele>
        <time>2020-07-17T08:25:52Z</time>
      </trkpt>
      <trkpt lat="37.5472480" lon="-3.9745070">
        <ele>580.2</ele>
        <time>2020-07-17T08:25:55Z</time>
      </trkpt>
      <trkpt lat="37.5472020" lon="-3.9746580">
        <ele>580.2</ele>
        <time>2020-07-17T08:25:57Z</time>
      </trkpt>
      <trkpt lat="37.5471350" lon="-3.9751110">
        <ele>579.8</ele>
        <time>2020-07-17T08:26:02Z</time>
      </trkpt>
      <trkpt lat="37.5471050" lon="-3.9756460">
        <ele>578.8</ele>
        <time>2020-07-17T08:26:07Z</time>
      </trkpt>
      <trkpt lat="37.5470990" lon="-3.9757640">
        <ele>578.6</ele>
        <time>2020-07-17T08:26:08Z</time>
      </trkpt>
      <trkpt lat="37.5470980" lon="-3.9760100">
        <ele>578.0</ele>
        <time>2020-07-17T08:26:10Z</time>
      </trkpt>
      <trkpt lat="37.5471200" lon="-3.9763500">
        <ele>576.6</ele>
        <time>2020-07-17T08:26:13Z</time>
      </trkpt>
      <trkpt lat="37.5471520" lon="-3.9764930">
        <ele>576.0</ele>
        <time>2020-07-17T08:26:14Z</time>
      </trkpt>
      <trkpt lat="37.5471780" lon="-3.9766030">
        <ele>575.6</ele>
        <time>2020-07-17T08:26:15Z</time>
      </trkpt>
      <trkpt lat="37.5472050" lon="-3.9767120">
        <ele>575.0</ele>
        <time>2020-07-17T08:26:16Z</time>
      </trkpt>
      <trkpt lat="37.5472550" lon="-3.9770400">
        <ele>574.4</ele>
        <time>2020-07-17T08:26:19Z</time>
      </trkpt>
      <trkpt lat="37.5472600" lon="-3.9771410">
        <ele>574.4</ele>
        <time>2020-07-17T08:26:20Z</time>
      </trkpt>
      <trkpt lat="37.5472990" lon="-3.9777330">
        <ele>574.6</ele>
        <time>2020-07-17T08:26:26Z</time>
      </trkpt>
      <trkpt lat="37.5473110" lon="-3.9778150">
        <ele>574.8</ele>
        <time>2020-07-17T08:26:27Z</time>
      </trkpt>
      <trkpt lat="37.5473510" lon="-3.9779620">
        <ele>574.8</ele>
        <time>2020-07-17T08:26:29Z</time>
      </trkpt>
      <trkpt lat="37.5474060" lon="-3.9780990">
        <ele>575.4</ele>
        <time>2020-07-17T08:26:31Z</time>
      </trkpt>
      <trkpt lat="37.5474300" lon="-3.9781580">
        <ele>575.6</ele>
        <time>2020-07-17T08:26:32Z</time>
      </trkpt>
      <trkpt lat="37.5475010" lon="-3.9783730">
        <ele>576.6</ele>
        <time>2020-07-17T08:26:35Z</time>
      </trkpt>
      <trkpt lat="37.5475130" lon="-3.9784410">
        <ele>576.6</ele>
        <time>2020-07-17T08:26:36Z</time>
      </trkpt>
      <trkpt lat="37.5475360" lon="-3.9786030">
        <ele>576.6</ele>
        <time>2020-07-17T08:26:38Z</time>
      </trkpt>
      <trkpt lat="37.5476100" lon="-3.9790640">
        <ele>576.8</ele>
        <time>2020-07-17T08:26:44Z</time>
      </trkpt>
      <trkpt lat="37.5476200" lon="-3.9792150">
        <ele>576.8</ele>
        <time>2020-07-17T08:26:46Z</time>
      </trkpt>
      <trkpt lat="37.5476110" lon="-3.9792810">
        <ele>577.0</ele>
        <time>2020-07-17T08:26:47Z</time>
      </trkpt>
      <trkpt lat="37.5474940" lon="-3.9795400">
        <ele>577.2</ele>
        <time>2020-07-17T08:26:51Z</time>
      </trkpt>
      <trkpt lat="37.5474590" lon="-3.9795980">
        <ele>577.4</ele>
        <time>2020-07-17T08:26:52Z</time>
      </trkpt>
      <trkpt lat="37.5473390" lon="-3.9797750">
        <ele>577.6</ele>
        <time>2020-07-17T08:26:55Z</time>
      </trkpt>
      <trkpt lat="37.5472280" lon="-3.9799330">
        <ele>578.0</ele>
        <time>2020-07-17T08:26:58Z</time>
      </trkpt>
      <trkpt lat="37.5470300" lon="-3.9802180">
        <ele>578.6</ele>
        <time>2020-07-17T08:27:03Z</time>
      </trkpt>
      <trkpt lat="37.5467770" lon="-3.9805030">
        <ele>578.8</ele>
        <time>2020-07-17T08:27:08Z</time>
      </trkpt>
      <trkpt lat="37.5464790" lon="-3.9806800">
        <ele>577.8</ele>
        <time>2020-07-17T08:27:12Z</time>
      </trkpt>
      <trkpt lat="37.5463960" lon="-3.9807390">
        <ele>577.4</ele>
        <time>2020-07-17T08:27:13Z</time>
      </trkpt>
      <trkpt lat="37.5463150" lon="-3.9808090">
        <ele>577.2</ele>
        <time>2020-07-17T08:27:14Z</time>
      </trkpt>
      <trkpt lat="37.5461930" lon="-3.9809960">
        <ele>576.2</ele>
        <time>2020-07-17T08:27:16Z</time>
      </trkpt>
      <trkpt lat="37.5461180" lon="-3.9811920">
        <ele>575.2</ele>
        <time>2020-07-17T08:27:18Z</time>
      </trkpt>
      <trkpt lat="37.5460820" lon="-3.9812920">
        <ele>574.8</ele>
        <time>2020-07-17T08:27:19Z</time>
      </trkpt>
      <trkpt lat="37.5459080" lon="-3.9817990">
        <ele>575.6</ele>
        <time>2020-07-17T08:27:25Z</time>
      </trkpt>
      <trkpt lat="37.5458590" lon="-3.9819370">
        <ele>576.2</ele>
        <time>2020-07-17T08:27:27Z</time>
      </trkpt>
      <trkpt lat="37.5456940" lon="-3.9824040">
        <ele>577.0</ele>
        <time>2020-07-17T08:27:33Z</time>
      </trkpt>
      <trkpt lat="37.5455880" lon="-3.9827720">
        <ele>577.2</ele>
        <time>2020-07-17T08:27:38Z</time>
      </trkpt>
      <trkpt lat="37.5455860" lon="-3.9828410">
        <ele>577.4</ele>
        <time>2020-07-17T08:27:39Z</time>
      </trkpt>
      <trkpt lat="37.5455850" lon="-3.9830380">
        <ele>578.6</ele>
        <time>2020-07-17T08:27:42Z</time>
      </trkpt>
      <trkpt lat="37.5455890" lon="-3.9831070">
        <ele>579.0</ele>
        <time>2020-07-17T08:27:43Z</time>
      </trkpt>
      <trkpt lat="37.5455930" lon="-3.9832470">
        <ele>579.6</ele>
        <time>2020-07-17T08:27:45Z</time>
      </trkpt>
      <trkpt lat="37.5456040" lon="-3.9834640">
        <ele>580.4</ele>
        <time>2020-07-17T08:27:48Z</time>
      </trkpt>
      <trkpt lat="37.5456310" lon="-3.9837250">
        <ele>580.4</ele>
        <time>2020-07-17T08:27:51Z</time>
      </trkpt>
      <trkpt lat="37.5456620" lon="-3.9839810">
        <ele>580.0</ele>
        <time>2020-07-17T08:27:54Z</time>
      </trkpt>
      <trkpt lat="37.5456670" lon="-3.9842640">
        <ele>579.0</ele>
        <time>2020-07-17T08:27:57Z</time>
      </trkpt>
      <trkpt lat="37.5456510" lon="-3.9843570">
        <ele>579.0</ele>
        <time>2020-07-17T08:27:58Z</time>
      </trkpt>
      <trkpt lat="37.5456230" lon="-3.9844520">
        <ele>578.6</ele>
        <time>2020-07-17T08:27:59Z</time>
      </trkpt>
      <trkpt lat="37.5455400" lon="-3.9846400">
        <ele>578.2</ele>
        <time>2020-07-17T08:28:01Z</time>
      </trkpt>
      <trkpt lat="37.5453810" lon="-3.9848710">
        <ele>577.6</ele>
        <time>2020-07-17T08:28:04Z</time>
      </trkpt>
      <trkpt lat="37.5453210" lon="-3.9849470">
        <ele>577.4</ele>
        <time>2020-07-17T08:28:05Z</time>
      </trkpt>
      <trkpt lat="37.5449610" lon="-3.9854120">
        <ele>576.6</ele>
        <time>2020-07-17T08:28:11Z</time>
      </trkpt>
      <trkpt lat="37.5448440" lon="-3.9855980">
        <ele>576.2</ele>
        <time>2020-07-17T08:28:13Z</time>
      </trkpt>
      <trkpt lat="37.5447370" lon="-3.9857820">
        <ele>575.8</ele>
        <time>2020-07-17T08:28:15Z</time>
      </trkpt>
      <trkpt lat="37.5446490" lon="-3.9859610">
        <ele>575.4</ele>
        <time>2020-07-17T08:28:17Z</time>
      </trkpt>
      <trkpt lat="37.5445740" lon="-3.9861680">
        <ele>575.0</ele>
        <time>2020-07-17T08:28:19Z</time>
      </trkpt>
      <trkpt lat="37.5443730" lon="-3.9868560">
        <ele>575.0</ele>
        <time>2020-07-17T08:28:26Z</time>
      </trkpt>
      <trkpt lat="37.5443730" lon="-3.9869500">
        <ele>575.0</ele>
        <time>2020-07-17T08:28:27Z</time>
      </trkpt>
      <trkpt lat="37.5444350" lon="-3.9872580">
        <ele>575.0</ele>
        <time>2020-07-17T08:28:30Z</time>
      </trkpt>
      <trkpt lat="37.5444690" lon="-3.9873570">
        <ele>575.0</ele>
        <time>2020-07-17T08:28:31Z</time>
      </trkpt>
      <trkpt lat="37.5446620" lon="-3.9878920">
        <ele>574.8</ele>
        <time>2020-07-17T08:28:37Z</time>
      </trkpt>
      <trkpt lat="37.5448110" lon="-3.9883480">
        <ele>574.2</ele>
        <time>2020-07-17T08:28:41Z</time>
      </trkpt>
      <trkpt lat="37.5448450" lon="-3.9884560">
        <ele>573.8</ele>
        <time>2020-07-17T08:28:42Z</time>
      </trkpt>
      <trkpt lat="37.5448930" lon="-3.9887270">
        <ele>572.8</ele>
        <time>2020-07-17T08:28:44Z</time>
      </trkpt>
      <trkpt lat="37.5448790" lon="-3.9888720">
        <ele>572.2</ele>
        <time>2020-07-17T08:28:45Z</time>
      </trkpt>
      <trkpt lat="37.5448570" lon="-3.9890050">
        <ele>571.4</ele>
        <time>2020-07-17T08:28:46Z</time>
      </trkpt>
      <trkpt lat="37.5447880" lon="-3.9892420">
        <ele>570.0</ele>
        <time>2020-07-17T08:28:48Z</time>
      </trkpt>
      <trkpt lat="37.5447470" lon="-3.9893830">
        <ele>569.2</ele>
        <time>2020-07-17T08:28:49Z</time>
      </trkpt>
      <trkpt lat="37.5447080" lon="-3.9895190">
        <ele>568.6</ele>
        <time>2020-07-17T08:28:50Z</time>
      </trkpt>
      <trkpt lat="37.5446020" lon="-3.9899000">
        <ele>567.4</ele>
        <time>2020-07-17T08:28:53Z</time>
      </trkpt>
      <trkpt lat="37.5444840" lon="-3.9902810">
        <ele>566.2</ele>
        <time>2020-07-17T08:28:56Z</time>
      </trkpt>
      <trkpt lat="37.5444200" lon="-3.9905150">
        <ele>565.8</ele>
        <time>2020-07-17T08:28:58Z</time>
      </trkpt>
      <trkpt lat="37.5443440" lon="-3.9908980">
        <ele>565.0</ele>
        <time>2020-07-17T08:29:01Z</time>
      </trkpt>
      <trkpt lat="37.5443060" lon="-3.9911470">
        <ele>564.6</ele>
        <time>2020-07-17T08:29:03Z</time>
      </trkpt>
      <trkpt lat="37.5442410" lon="-3.9913790">
        <ele>564.2</ele>
        <time>2020-07-17T08:29:05Z</time>
      </trkpt>
      <trkpt lat="37.5441980" lon="-3.9914760">
        <ele>563.8</ele>
        <time>2020-07-17T08:29:06Z</time>
      </trkpt>
      <trkpt lat="37.5441540" lon="-3.9915740">
        <ele>563.8</ele>
        <time>2020-07-17T08:29:07Z</time>
      </trkpt>
      <trkpt lat="37.5441130" lon="-3.9916790">
        <ele>563.8</ele>
        <time>2020-07-17T08:29:08Z</time>
      </trkpt>
      <trkpt lat="37.5439590" lon="-3.9920190">
        <ele>564.4</ele>
        <time>2020-07-17T08:29:12Z</time>
      </trkpt>
      <trkpt lat="37.5439130" lon="-3.9920890">
        <ele>564.8</ele>
        <time>2020-07-17T08:29:13Z</time>
      </trkpt>
      <trkpt lat="37.5438130" lon="-3.9922280">
        <ele>565.2</ele>
        <time>2020-07-17T08:29:15Z</time>
      </trkpt>
      <trkpt lat="37.5437680" lon="-3.9922830">
        <ele>565.4</ele>
        <time>2020-07-17T08:29:16Z</time>
      </trkpt>
      <trkpt lat="37.5437230" lon="-3.9923230">
        <ele>565.6</ele>
        <time>2020-07-17T08:29:17Z</time>
      </trkpt>
      <trkpt lat="37.5436190" lon="-3.9923880">
        <ele>566.2</ele>
        <time>2020-07-17T08:29:19Z</time>
      </trkpt>
      <trkpt lat="37.5435660" lon="-3.9924130">
        <ele>566.6</ele>
        <time>2020-07-17T08:29:20Z</time>
      </trkpt>
      <trkpt lat="37.5434220" lon="-3.9924450">
        <ele>567.4</ele>
        <time>2020-07-17T08:29:23Z</time>
      </trkpt>
      <trkpt lat="37.5433250" lon="-3.9924340">
        <ele>567.8</ele>
        <time>2020-07-17T08:29:25Z</time>
      </trkpt>
      <trkpt lat="37.5432350" lon="-3.9923890">
        <ele>568.4</ele>
        <time>2020-07-17T08:29:27Z</time>
      </trkpt>
      <trkpt lat="37.5431500" lon="-3.9923230">
        <ele>569.0</ele>
        <time>2020-07-17T08:29:29Z</time>
      </trkpt>
      <trkpt lat="37.5431140" lon="-3.9922860">
        <ele>569.4</ele>
        <time>2020-07-17T08:29:30Z</time>
      </trkpt>
      <trkpt lat="37.5430450" lon="-3.9921990">
        <ele>570.0</ele>
        <time>2020-07-17T08:29:32Z</time>
      </trkpt>
      <trkpt lat="37.5429790" lon="-3.9921030">
        <ele>570.2</ele>
        <time>2020-07-17T08:29:34Z</time>
      </trkpt>
      <trkpt lat="37.5429250" lon="-3.9919950">
        <ele>570.4</ele>
        <time>2020-07-17T08:29:36Z</time>
      </trkpt>
      <trkpt lat="37.5428620" lon="-3.9918040">
        <ele>570.8</ele>
        <time>2020-07-17T08:29:39Z</time>
      </trkpt>
      <trkpt lat="37.5428480" lon="-3.9917400">
        <ele>571.0</ele>
        <time>2020-07-17T08:29:40Z</time>
      </trkpt>
      <trkpt lat="37.5427590" lon="-3.9913440">
        <ele>571.4</ele>
        <time>2020-07-17T08:29:46Z</time>
      </trkpt>
      <trkpt lat="37.5427440" lon="-3.9912820">
        <ele>571.6</ele>
        <time>2020-07-17T08:29:47Z</time>
      </trkpt>
      <trkpt lat="37.5426850" lon="-3.9909720">
        <ele>572.6</ele>
        <time>2020-07-17T08:29:52Z</time>
      </trkpt>
      <trkpt lat="37.5426700" lon="-3.9908570">
        <ele>573.0</ele>
        <time>2020-07-17T08:29:54Z</time>
      </trkpt>
      <trkpt lat="37.5426510" lon="-3.9906950">
        <ele>573.8</ele>
        <time>2020-07-17T08:29:57Z</time>
      </trkpt>
      <trkpt lat="37.5426310" lon="-3.9905280">
        <ele>574.6</ele>
        <time>2020-07-17T08:30:00Z</time>
      </trkpt>
      <trkpt lat="37.5426150" lon="-3.9904730">
        <ele>574.8</ele>
        <time>2020-07-17T08:30:01Z</time>
      </trkpt>
      <trkpt lat="37.5425050" lon="-3.9903450">
        <ele>575.2</ele>
        <time>2020-07-17T08:30:04Z</time>
      </trkpt>
      <trkpt lat="37.5423130" lon="-3.9903310">
        <ele>575.2</ele>
        <time>2020-07-17T08:30:07Z</time>
      </trkpt>
      <trkpt lat="37.5421760" lon="-3.9905200">
        <ele>574.8</ele>
        <time>2020-07-17T08:30:10Z</time>
      </trkpt>
      <trkpt lat="37.5421880" lon="-3.9907390">
        <ele>574.0</ele>
        <time>2020-07-17T08:30:13Z</time>
      </trkpt>
      <trkpt lat="37.5422580" lon="-3.9909130">
        <ele>574.6</ele>
        <time>2020-07-17T08:30:16Z</time>
      </trkpt>
      <trkpt lat="37.5422810" lon="-3.9909660">
        <ele>575.0</ele>
        <time>2020-07-17T08:30:17Z</time>
      </trkpt>
      <trkpt lat="37.5423220" lon="-3.9910910">
        <ele>575.6</ele>
        <time>2020-07-17T08:30:19Z</time>
      </trkpt>
      <trkpt lat="37.5423540" lon="-3.9912270">
        <ele>575.8</ele>
        <time>2020-07-17T08:30:21Z</time>
      </trkpt>
      <trkpt lat="37.5423670" lon="-3.9913670">
        <ele>576.0</ele>
        <time>2020-07-17T08:30:23Z</time>
      </trkpt>
      <trkpt lat="37.5423650" lon="-3.9914340">
        <ele>575.8</ele>
        <time>2020-07-17T08:30:24Z</time>
      </trkpt>
      <trkpt lat="37.5423440" lon="-3.9916890">
        <ele>576.0</ele>
        <time>2020-07-17T08:30:28Z</time>
      </trkpt>
      <trkpt lat="37.5423080" lon="-3.9919550">
        <ele>576.8</ele>
        <time>2020-07-17T08:30:33Z</time>
      </trkpt>
      <trkpt lat="37.5422730" lon="-3.9920820">
        <ele>577.4</ele>
        <time>2020-07-17T08:30:35Z</time>
      </trkpt>
      <trkpt lat="37.5421400" lon="-3.9922540">
        <ele>578.0</ele>
        <time>2020-07-17T08:30:39Z</time>
      </trkpt>
      <trkpt lat="37.5419720" lon="-3.9923250">
        <ele>578.6</ele>
        <time>2020-07-17T08:30:43Z</time>
      </trkpt>
      <trkpt lat="37.5419240" lon="-3.9923420">
        <ele>578.8</ele>
        <time>2020-07-17T08:30:44Z</time>
      </trkpt>
      <trkpt lat="37.5417840" lon="-3.9923820">
        <ele>579.2</ele>
        <time>2020-07-17T08:30:47Z</time>
      </trkpt>
      <trkpt lat="37.5416270" lon="-3.9924400">
        <ele>579.8</ele>
        <time>2020-07-17T08:30:51Z</time>
      </trkpt>
      <trkpt lat="37.5415160" lon="-3.9925800">
        <ele>580.4</ele>
        <time>2020-07-17T08:30:55Z</time>
      </trkpt>
      <trkpt lat="37.5415090" lon="-3.9927200">
        <ele>581.4</ele>
        <time>2020-07-17T08:30:58Z</time>
      </trkpt>
      <trkpt lat="37.5415240" lon="-3.9927660">
        <ele>581.8</ele>
        <time>2020-07-17T08:30:59Z</time>
      </trkpt>
      <trkpt lat="37.5415600" lon="-3.9928510">
        <ele>582.4</ele>
        <time>2020-07-17T08:31:01Z</time>
      </trkpt>
      <trkpt lat="37.5416630" lon="-3.9930180">
        <ele>583.4</ele>
        <time>2020-07-17T08:31:05Z</time>
      </trkpt>
      <trkpt lat="37.5417660" lon="-3.9933050">
        <ele>584.2</ele>
        <time>2020-07-17T08:31:11Z</time>
      </trkpt>
      <trkpt lat="37.5417760" lon="-3.9933990">
        <ele>584.6</ele>
        <time>2020-07-17T08:31:13Z</time>
      </trkpt>
      <trkpt lat="37.5417700" lon="-3.9936450">
        <ele>585.6</ele>
        <time>2020-07-17T08:31:18Z</time>
      </trkpt>
      <trkpt lat="37.5417090" lon="-3.9938240">
        <ele>586.8</ele>
        <time>2020-07-17T08:31:22Z</time>
      </trkpt>
      <trkpt lat="37.5416850" lon="-3.9938630">
        <ele>587.2</ele>
        <time>2020-07-17T08:31:23Z</time>
      </trkpt>
      <trkpt lat="37.5415720" lon="-3.9939770">
        <ele>588.0</ele>
        <time>2020-07-17T08:31:27Z</time>
      </trkpt>
      <trkpt lat="37.5415040" lon="-3.9940190">
        <ele>588.6</ele>
        <time>2020-07-17T08:31:29Z</time>
      </trkpt>
      <trkpt lat="37.5413960" lon="-3.9940630">
        <ele>589.2</ele>
        <time>2020-07-17T08:31:32Z</time>
      </trkpt>
      <trkpt lat="37.5412610" lon="-3.9940920">
        <ele>589.4</ele>
        <time>2020-07-17T08:31:35Z</time>
      </trkpt>
      <trkpt lat="37.5409180" lon="-3.9940860">
        <ele>589.6</ele>
        <time>2020-07-17T08:31:42Z</time>
      </trkpt>
      <trkpt lat="37.5407500" lon="-3.9940760">
        <ele>589.6</ele>
        <time>2020-07-17T08:31:45Z</time>
      </trkpt>
      <trkpt lat="37.5406410" lon="-3.9941120">
        <ele>589.6</ele>
        <time>2020-07-17T08:31:47Z</time>
      </trkpt>
      <trkpt lat="37.5405390" lon="-3.9941730">
        <ele>589.4</ele>
        <time>2020-07-17T08:31:49Z</time>
      </trkpt>
      <trkpt lat="37.5404120" lon="-3.9942590">
        <ele>589.6</ele>
        <time>2020-07-17T08:31:52Z</time>
      </trkpt>
      <trkpt lat="37.5403080" lon="-3.9943480">
        <ele>590.2</ele>
        <time>2020-07-17T08:31:55Z</time>
      </trkpt>
      <trkpt lat="37.5402500" lon="-3.9944130">
        <ele>590.6</ele>
        <time>2020-07-17T08:31:57Z</time>
      </trkpt>
      <trkpt lat="37.5402030" lon="-3.9945370">
        <ele>591.4</ele>
        <time>2020-07-17T08:32:00Z</time>
      </trkpt>
      <trkpt lat="37.5401920" lon="-3.9945830">
        <ele>591.8</ele>
        <time>2020-07-17T08:32:01Z</time>
      </trkpt>
      <trkpt lat="37.5401800" lon="-3.9946720">
        <ele>592.6</ele>
        <time>2020-07-17T08:32:03Z</time>
      </trkpt>
      <trkpt lat="37.5401650" lon="-3.9948070">
        <ele>593.8</ele>
        <time>2020-07-17T08:32:06Z</time>
      </trkpt>
      <trkpt lat="37.5401570" lon="-3.9948940">
        <ele>594.6</ele>
        <time>2020-07-17T08:32:08Z</time>
      </trkpt>
      <trkpt lat="37.5401440" lon="-3.9949790">
        <ele>595.0</ele>
        <time>2020-07-17T08:32:10Z</time>
      </trkpt>
      <trkpt lat="37.5401240" lon="-3.9951500">
        <ele>596.2</ele>
        <time>2020-07-17T08:32:14Z</time>
      </trkpt>
      <trkpt lat="37.5400650" lon="-3.9954470">
        <ele>597.2</ele>
        <time>2020-07-17T08:32:20Z</time>
      </trkpt>
      <trkpt lat="37.5400410" lon="-3.9955490">
        <ele>597.6</ele>
        <time>2020-07-17T08:32:22Z</time>
      </trkpt>
      <trkpt lat="37.5399680" lon="-3.9958010">
        <ele>598.4</ele>
        <time>2020-07-17T08:32:27Z</time>
      </trkpt>
      <trkpt lat="37.5398940" lon="-3.9959890">
        <ele>598.8</ele>
        <time>2020-07-17T08:32:31Z</time>
      </trkpt>
      <trkpt lat="37.5398530" lon="-3.9961220">
        <ele>599.4</ele>
        <time>2020-07-17T08:32:34Z</time>
      </trkpt>
      <trkpt lat="37.5398330" lon="-3.9962440">
        <ele>599.8</ele>
        <time>2020-07-17T08:32:37Z</time>
      </trkpt>
      <trkpt lat="37.5398680" lon="-3.9963890">
        <ele>600.6</ele>
        <time>2020-07-17T08:32:41Z</time>
      </trkpt>
      <trkpt lat="37.5398870" lon="-3.9964290">
        <ele>600.8</ele>
        <time>2020-07-17T08:32:42Z</time>
      </trkpt>
      <trkpt lat="37.5399170" lon="-3.9964790">
        <ele>600.8</ele>
        <time>2020-07-17T08:32:43Z</time>
      </trkpt>
      <trkpt lat="37.5400070" lon="-3.9966530">
        <ele>600.8</ele>
        <time>2020-07-17T08:32:46Z</time>
      </trkpt>
      <trkpt lat="37.5400390" lon="-3.9967150">
        <ele>600.6</ele>
        <time>2020-07-17T08:32:47Z</time>
      </trkpt>
      <trkpt lat="37.5401170" lon="-3.9968570">
        <ele>599.8</ele>
        <time>2020-07-17T08:32:49Z</time>
      </trkpt>
      <trkpt lat="37.5401590" lon="-3.9969270">
        <ele>599.6</ele>
        <time>2020-07-17T08:32:50Z</time>
      </trkpt>
      <trkpt lat="37.5402040" lon="-3.9970000">
        <ele>599.4</ele>
        <time>2020-07-17T08:32:51Z</time>
      </trkpt>
      <trkpt lat="37.5402450" lon="-3.9970730">
        <ele>599.0</ele>
        <time>2020-07-17T08:32:52Z</time>
      </trkpt>
      <trkpt lat="37.5402900" lon="-3.9971630">
        <ele>598.8</ele>
        <time>2020-07-17T08:32:53Z</time>
      </trkpt>
      <trkpt lat="37.5403760" lon="-3.9973540">
        <ele>598.2</ele>
        <time>2020-07-17T08:32:55Z</time>
      </trkpt>
      <trkpt lat="37.5404590" lon="-3.9975610">
        <ele>597.4</ele>
        <time>2020-07-17T08:32:57Z</time>
      </trkpt>
      <trkpt lat="37.5405000" lon="-3.9976840">
        <ele>597.0</ele>
        <time>2020-07-17T08:32:58Z</time>
      </trkpt>
      <trkpt lat="37.5405960" lon="-3.9980700">
        <ele>595.8</ele>
        <time>2020-07-17T08:33:01Z</time>
      </trkpt>
      <trkpt lat="37.5406170" lon="-3.9981990">
        <ele>595.4</ele>
        <time>2020-07-17T08:33:02Z</time>
      </trkpt>
      <trkpt lat="37.5406440" lon="-3.9985080">
        <ele>594.6</ele>
        <time>2020-07-17T08:33:04Z</time>
      </trkpt>
      <trkpt lat="37.5406440" lon="-3.9987560">
        <ele>593.4</ele>
        <time>2020-07-17T08:33:06Z</time>
      </trkpt>
      <trkpt lat="37.5406190" lon="-3.9991250">
        <ele>591.8</ele>
        <time>2020-07-17T08:33:08Z</time>
      </trkpt>
      <trkpt lat="37.5405980" lon="-3.9992920">
        <ele>590.8</ele>
        <time>2020-07-17T08:33:09Z</time>
      </trkpt>
      <trkpt lat="37.5405750" lon="-3.9994530">
        <ele>590.0</ele>
        <time>2020-07-17T08:33:10Z</time>
      </trkpt>
      <trkpt lat="37.5405490" lon="-3.9996140">
        <ele>589.2</ele>
        <time>2020-07-17T08:33:11Z</time>
      </trkpt>
      <trkpt lat="37.5404910" lon="-3.9999500">
        <ele>587.4</ele>
        <time>2020-07-17T08:33:13Z</time>
      </trkpt>
      <trkpt lat="37.5404300" lon="-4.0002960">
        <ele>585.6</ele>
        <time>2020-07-17T08:33:15Z</time>
      </trkpt>
      <trkpt lat="37.5404000" lon="-4.0004680">
        <ele>584.6</ele>
        <time>2020-07-17T08:33:16Z</time>
      </trkpt>
      <trkpt lat="37.5403720" lon="-4.0006220">
        <ele>583.8</ele>
        <time>2020-07-17T08:33:17Z</time>
      </trkpt>
      <trkpt lat="37.5403100" lon="-4.0009720">
        <ele>581.8</ele>
        <time>2020-07-17T08:33:19Z</time>
      </trkpt>
      <trkpt lat="37.5402470" lon="-4.0013160">
        <ele>580.4</ele>
        <time>2020-07-17T08:33:21Z</time>
      </trkpt>
      <trkpt lat="37.5401880" lon="-4.0016490">
        <ele>579.0</ele>
        <time>2020-07-17T08:33:23Z</time>
      </trkpt>
      <trkpt lat="37.5401290" lon="-4.0019960">
        <ele>577.8</ele>
        <time>2020-07-17T08:33:25Z</time>
      </trkpt>
      <trkpt lat="37.5400760" lon="-4.0023370">
        <ele>576.6</ele>
        <time>2020-07-17T08:33:27Z</time>
      </trkpt>
      <trkpt lat="37.5400490" lon="-4.0025170">
        <ele>575.8</ele>
        <time>2020-07-17T08:33:28Z</time>
      </trkpt>
      <trkpt lat="37.5400260" lon="-4.0027040">
        <ele>574.8</ele>
        <time>2020-07-17T08:33:29Z</time>
      </trkpt>
      <trkpt lat="37.5399930" lon="-4.0030690">
        <ele>573.0</ele>
        <time>2020-07-17T08:33:31Z</time>
      </trkpt>
      <trkpt lat="37.5399840" lon="-4.0032450">
        <ele>571.8</ele>
        <time>2020-07-17T08:33:32Z</time>
      </trkpt>
      <trkpt lat="37.5399800" lon="-4.0034310">
        <ele>570.8</ele>
        <time>2020-07-17T08:33:33Z</time>
      </trkpt>
      <trkpt lat="37.5399820" lon="-4.0036170">
        <ele>569.4</ele>
        <time>2020-07-17T08:33:34Z</time>
      </trkpt>
      <trkpt lat="37.5399890" lon="-4.0038020">
        <ele>568.4</ele>
        <time>2020-07-17T08:33:35Z</time>
      </trkpt>
      <trkpt lat="37.5400170" lon="-4.0041520">
        <ele>566.6</ele>
        <time>2020-07-17T08:33:37Z</time>
      </trkpt>
      <trkpt lat="37.5400400" lon="-4.0043430">
        <ele>565.6</ele>
        <time>2020-07-17T08:33:38Z</time>
      </trkpt>
      <trkpt lat="37.5400660" lon="-4.0045190">
        <ele>565.0</ele>
        <time>2020-07-17T08:33:39Z</time>
      </trkpt>
      <trkpt lat="37.5401310" lon="-4.0048620">
        <ele>563.4</ele>
        <time>2020-07-17T08:33:41Z</time>
      </trkpt>
      <trkpt lat="37.5402100" lon="-4.0051840">
        <ele>562.4</ele>
        <time>2020-07-17T08:33:43Z</time>
      </trkpt>
      <trkpt lat="37.5402610" lon="-4.0053540">
        <ele>561.8</ele>
        <time>2020-07-17T08:33:44Z</time>
      </trkpt>
      <trkpt lat="37.5404240" lon="-4.0058050">
        <ele>560.8</ele>
        <time>2020-07-17T08:33:47Z</time>
      </trkpt>
      <trkpt lat="37.5404830" lon="-4.0059450">
        <ele>560.6</ele>
        <time>2020-07-17T08:33:48Z</time>
      </trkpt>
      <trkpt lat="37.5406900" lon="-4.0063710">
        <ele>559.6</ele>
        <time>2020-07-17T08:33:51Z</time>
      </trkpt>
      <trkpt lat="37.5408370" lon="-4.0066280">
        <ele>558.6</ele>
        <time>2020-07-17T08:33:53Z</time>
      </trkpt>
      <trkpt lat="37.5409960" lon="-4.0068700">
        <ele>557.4</ele>
        <time>2020-07-17T08:33:55Z</time>
      </trkpt>
      <trkpt lat="37.5412470" lon="-4.0072020">
        <ele>556.2</ele>
        <time>2020-07-17T08:33:58Z</time>
      </trkpt>
      <trkpt lat="37.5415930" lon="-4.0076480">
        <ele>555.2</ele>
        <time>2020-07-17T08:34:02Z</time>
      </trkpt>
      <trkpt lat="37.5418540" lon="-4.0079770">
        <ele>554.0</ele>
        <time>2020-07-17T08:34:05Z</time>
      </trkpt>
      <trkpt lat="37.5419300" lon="-4.0080750">
        <ele>554.0</ele>
        <time>2020-07-17T08:34:06Z</time>
      </trkpt>
      <trkpt lat="37.5420930" lon="-4.0082920">
        <ele>553.4</ele>
        <time>2020-07-17T08:34:08Z</time>
      </trkpt>
      <trkpt lat="37.5422460" lon="-4.0085090">
        <ele>553.0</ele>
        <time>2020-07-17T08:34:10Z</time>
      </trkpt>
      <trkpt lat="37.5425150" lon="-4.0089500">
        <ele>551.8</ele>
        <time>2020-07-17T08:34:14Z</time>
      </trkpt>
      <trkpt lat="37.5427840" lon="-4.0095220">
        <ele>550.6</ele>
        <time>2020-07-17T08:34:19Z</time>
      </trkpt>
      <trkpt lat="37.5428280" lon="-4.0096290">
        <ele>550.6</ele>
        <time>2020-07-17T08:34:20Z</time>
      </trkpt>
      <trkpt lat="37.5431070" lon="-4.0102830">
        <ele>550.2</ele>
        <time>2020-07-17T08:34:26Z</time>
      </trkpt>
      <trkpt lat="37.5432350" lon="-4.0105910">
        <ele>550.4</ele>
        <time>2020-07-17T08:34:29Z</time>
      </trkpt>
      <trkpt lat="37.5434010" lon="-4.0110840">
        <ele>550.6</ele>
        <time>2020-07-17T08:34:34Z</time>
      </trkpt>
      <trkpt lat="37.5434210" lon="-4.0111830">
        <ele>550.8</ele>
        <time>2020-07-17T08:34:35Z</time>
      </trkpt>
      <trkpt lat="37.5434500" lon="-4.0114850">
        <ele>551.0</ele>
        <time>2020-07-17T08:34:38Z</time>
      </trkpt>
      <trkpt lat="37.5434450" lon="-4.0116870">
        <ele>551.4</ele>
        <time>2020-07-17T08:34:40Z</time>
      </trkpt>
      <trkpt lat="37.5434070" lon="-4.0119750">
        <ele>551.8</ele>
        <time>2020-07-17T08:34:43Z</time>
      </trkpt>
      <trkpt lat="37.5433660" lon="-4.0121730">
        <ele>551.8</ele>
        <time>2020-07-17T08:34:45Z</time>
      </trkpt>
      <trkpt lat="37.5432150" lon="-4.0128420">
        <ele>551.4</ele>
        <time>2020-07-17T08:34:52Z</time>
      </trkpt>
      <trkpt lat="37.5431490" lon="-4.0131360">
        <ele>551.4</ele>
        <time>2020-07-17T08:34:55Z</time>
      </trkpt>
      <trkpt lat="37.5430050" lon="-4.0138270">
        <ele>550.8</ele>
        <time>2020-07-17T08:35:02Z</time>
      </trkpt>
      <trkpt lat="37.5429790" lon="-4.0140470">
        <ele>550.8</ele>
        <time>2020-07-17T08:35:04Z</time>
      </trkpt>
      <trkpt lat="37.5429710" lon="-4.0141580">
        <ele>550.6</ele>
        <time>2020-07-17T08:35:05Z</time>
      </trkpt>
      <trkpt lat="37.5429790" lon="-4.0145980">
        <ele>550.0</ele>
        <time>2020-07-17T08:35:09Z</time>
      </trkpt>
      <trkpt lat="37.5430240" lon="-4.0151410">
        <ele>550.0</ele>
        <time>2020-07-17T08:35:14Z</time>
      </trkpt>
      <trkpt lat="37.5430440" lon="-4.0153610">
        <ele>549.6</ele>
        <time>2020-07-17T08:35:16Z</time>
      </trkpt>
      <trkpt lat="37.5430620" lon="-4.0155700">
        <ele>549.2</ele>
        <time>2020-07-17T08:35:18Z</time>
      </trkpt>
      <trkpt lat="37.5431280" lon="-4.0163260">
        <ele>548.6</ele>
        <time>2020-07-17T08:35:25Z</time>
      </trkpt>
      <trkpt lat="37.5431580" lon="-4.0166570">
        <ele>548.2</ele>
        <time>2020-07-17T08:35:28Z</time>
      </trkpt>
      <trkpt lat="37.5432220" lon="-4.0173490">
        <ele>548.8</ele>
        <time>2020-07-17T08:35:35Z</time>
      </trkpt>
      <trkpt lat="37.5432380" lon="-4.0175370">
        <ele>549.2</ele>
        <time>2020-07-17T08:35:37Z</time>
      </trkpt>
      <trkpt lat="37.5432620" lon="-4.0178190">
        <ele>549.8</ele>
        <time>2020-07-17T08:35:40Z</time>
      </trkpt>
      <trkpt lat="37.5432870" lon="-4.0180800">
        <ele>550.4</ele>
        <time>2020-07-17T08:35:43Z</time>
      </trkpt>
      <trkpt lat="37.5433020" lon="-4.0182550">
        <ele>550.8</ele>
        <time>2020-07-17T08:35:45Z</time>
      </trkpt>
      <trkpt lat="37.5433570" lon="-4.0189070">
        <ele>552.0</ele>
        <time>2020-07-17T08:35:53Z</time>
      </trkpt>
      <trkpt lat="37.5433640" lon="-4.0189850">
        <ele>552.0</ele>
        <time>2020-07-17T08:35:54Z</time>
      </trkpt>
      <trkpt lat="37.5434220" lon="-4.0196360">
        <ele>553.0</ele>
        <time>2020-07-17T08:36:02Z</time>
      </trkpt>
      <trkpt lat="37.5434510" lon="-4.0199690">
        <ele>553.4</ele>
        <time>2020-07-17T08:36:06Z</time>
      </trkpt>
      <trkpt lat="37.5435190" lon="-4.0207450">
        <ele>553.8</ele>
        <time>2020-07-17T08:36:15Z</time>
      </trkpt>
      <trkpt lat="37.5435340" lon="-4.0209090">
        <ele>554.0</ele>
        <time>2020-07-17T08:36:17Z</time>
      </trkpt>
      <trkpt lat="37.5435490" lon="-4.0210890">
        <ele>554.0</ele>
        <time>2020-07-17T08:36:19Z</time>
      </trkpt>
      <trkpt lat="37.5436130" lon="-4.0218030">
        <ele>554.2</ele>
        <time>2020-07-17T08:36:27Z</time>
      </trkpt>
      <trkpt lat="37.5436380" lon="-4.0220910">
        <ele>554.0</ele>
        <time>2020-07-17T08:36:30Z</time>
      </trkpt>
      <trkpt lat="37.5436770" lon="-4.0224960">
        <ele>553.6</ele>
        <time>2020-07-17T08:36:34Z</time>
      </trkpt>
      <trkpt lat="37.5437140" lon="-4.0229120">
        <ele>552.8</ele>
        <time>2020-07-17T08:36:38Z</time>
      </trkpt>
      <trkpt lat="37.5437420" lon="-4.0232350">
        <ele>552.4</ele>
        <time>2020-07-17T08:36:41Z</time>
      </trkpt>
      <trkpt lat="37.5437710" lon="-4.0235650">
        <ele>552.4</ele>
        <time>2020-07-17T08:36:44Z</time>
      </trkpt>
      <trkpt lat="37.5438190" lon="-4.0241160">
        <ele>551.6</ele>
        <time>2020-07-17T08:36:49Z</time>
      </trkpt>
      <trkpt lat="37.5438670" lon="-4.0246430">
        <ele>551.6</ele>
        <time>2020-07-17T08:36:54Z</time>
      </trkpt>
      <trkpt lat="37.5439300" lon="-4.0253850">
        <ele>551.4</ele>
        <time>2020-07-17T08:37:01Z</time>
      </trkpt>
      <trkpt lat="37.5439770" lon="-4.0258880">
        <ele>551.6</ele>
        <time>2020-07-17T08:37:06Z</time>
      </trkpt>
      <trkpt lat="37.5440380" lon="-4.0265920">
        <ele>551.4</ele>
        <time>2020-07-17T08:37:13Z</time>
      </trkpt>
      <trkpt lat="37.5440900" lon="-4.0271900">
        <ele>551.2</ele>
        <time>2020-07-17T08:37:19Z</time>
      </trkpt>
      <trkpt lat="37.5441540" lon="-4.0278880">
        <ele>551.2</ele>
        <time>2020-07-17T08:37:26Z</time>
      </trkpt>
      <trkpt lat="37.5442150" lon="-4.0285780">
        <ele>551.2</ele>
        <time>2020-07-17T08:37:33Z</time>
      </trkpt>
      <trkpt lat="37.5442790" lon="-4.0292660">
        <ele>551.0</ele>
        <time>2020-07-17T08:37:40Z</time>
      </trkpt>
      <trkpt lat="37.5443480" lon="-4.0298710">
        <ele>550.8</ele>
        <time>2020-07-17T08:37:46Z</time>
      </trkpt>
      <trkpt lat="37.5444010" lon="-4.0303150">
        <ele>550.4</ele>
        <time>2020-07-17T08:37:50Z</time>
      </trkpt>
      <trkpt lat="37.5444440" lon="-4.0306730">
        <ele>549.2</ele>
        <time>2020-07-17T08:37:53Z</time>
      </trkpt>
      <trkpt lat="37.5445070" lon="-4.0311690">
        <ele>547.8</ele>
        <time>2020-07-17T08:37:57Z</time>
      </trkpt>
      <trkpt lat="37.5445400" lon="-4.0314420">
        <ele>547.0</ele>
        <time>2020-07-17T08:37:59Z</time>
      </trkpt>
      <trkpt lat="37.5445550" lon="-4.0315710">
        <ele>546.4</ele>
        <time>2020-07-17T08:38:00Z</time>
      </trkpt>
      <trkpt lat="37.5445720" lon="-4.0317190">
        <ele>545.8</ele>
        <time>2020-07-17T08:38:01Z</time>
      </trkpt>
      <trkpt lat="37.5445880" lon="-4.0318490">
        <ele>545.4</ele>
        <time>2020-07-17T08:38:02Z</time>
      </trkpt>
      <trkpt lat="37.5446420" lon="-4.0322870">
        <ele>543.8</ele>
        <time>2020-07-17T08:38:05Z</time>
      </trkpt>
      <trkpt lat="37.5446950" lon="-4.0327230">
        <ele>542.8</ele>
        <time>2020-07-17T08:38:08Z</time>
      </trkpt>
      <trkpt lat="37.5447310" lon="-4.0330110">
        <ele>541.8</ele>
        <time>2020-07-17T08:38:10Z</time>
      </trkpt>
      <trkpt lat="37.5447630" lon="-4.0332730">
        <ele>540.8</ele>
        <time>2020-07-17T08:38:12Z</time>
      </trkpt>
      <trkpt lat="37.5448270" lon="-4.0338030">
        <ele>540.0</ele>
        <time>2020-07-17T08:38:16Z</time>
      </trkpt>
      <trkpt lat="37.5448900" lon="-4.0342820">
        <ele>539.6</ele>
        <time>2020-07-17T08:38:20Z</time>
      </trkpt>
      <trkpt lat="37.5449480" lon="-4.0346140">
        <ele>540.0</ele>
        <time>2020-07-17T08:38:23Z</time>
      </trkpt>
      <trkpt lat="37.5451100" lon="-4.0352140">
        <ele>539.8</ele>
        <time>2020-07-17T08:38:29Z</time>
      </trkpt>
      <trkpt lat="37.5452630" lon="-4.0355630">
        <ele>540.0</ele>
        <time>2020-07-17T08:38:33Z</time>
      </trkpt>
      <trkpt lat="37.5453920" lon="-4.0358110">
        <ele>540.4</ele>
        <time>2020-07-17T08:38:36Z</time>
      </trkpt>
      <trkpt lat="37.5454830" lon="-4.0359830">
        <ele>540.8</ele>
        <time>2020-07-17T08:38:38Z</time>
      </trkpt>
      <trkpt lat="37.5456120" lon="-4.0362370">
        <ele>541.0</ele>
        <time>2020-07-17T08:38:41Z</time>
      </trkpt>
      <trkpt lat="37.5457450" lon="-4.0364830">
        <ele>540.8</ele>
        <time>2020-07-17T08:38:44Z</time>
      </trkpt>
      <trkpt lat="37.5459630" lon="-4.0368930">
        <ele>541.4</ele>
        <time>2020-07-17T08:38:49Z</time>
      </trkpt>
      <trkpt lat="37.5461300" lon="-4.0372040">
        <ele>541.4</ele>
        <time>2020-07-17T08:38:53Z</time>
      </trkpt>
      <trkpt lat="37.5463100" lon="-4.0375400">
        <ele>542.0</ele>
        <time>2020-07-17T08:38:58Z</time>
      </trkpt>
      <trkpt lat="37.5463450" lon="-4.0376000">
        <ele>542.2</ele>
        <time>2020-07-17T08:38:59Z</time>
      </trkpt>
      <trkpt lat="37.5464340" lon="-4.0377610">
        <ele>543.0</ele>
        <time>2020-07-17T08:39:02Z</time>
      </trkpt>
      <trkpt lat="37.5465340" lon="-4.0379540">
        <ele>544.0</ele>
        <time>2020-07-17T08:39:06Z</time>
      </trkpt>
      <trkpt lat="37.5465560" lon="-4.0379980">
        <ele>544.2</ele>
        <time>2020-07-17T08:39:07Z</time>
      </trkpt>
      <trkpt lat="37.5466930" lon="-4.0382610">
        <ele>545.2</ele>
        <time>2020-07-17T08:39:13Z</time>
      </trkpt>
      <trkpt lat="37.5467700" lon="-4.0384140">
        <ele>545.8</ele>
        <time>2020-07-17T08:39:16Z</time>
      </trkpt>
      <trkpt lat="37.5468140" lon="-4.0385040">
        <ele>546.2</ele>
        <time>2020-07-17T08:39:18Z</time>
      </trkpt>
      <trkpt lat="37.5469000" lon="-4.0386770">
        <ele>547.4</ele>
        <time>2020-07-17T08:39:22Z</time>
      </trkpt>
      <trkpt lat="37.5470040" lon="-4.0388910">
        <ele>548.6</ele>
        <time>2020-07-17T08:39:27Z</time>
      </trkpt>
      <trkpt lat="37.5470430" lon="-4.0389750">
        <ele>549.0</ele>
        <time>2020-07-17T08:39:29Z</time>
      </trkpt>
      <trkpt lat="37.5471030" lon="-4.0391060">
        <ele>549.6</ele>
        <time>2020-07-17T08:39:32Z</time>
      </trkpt>
      <trkpt lat="37.5472380" lon="-4.0394050">
        <ele>550.8</ele>
        <time>2020-07-17T08:39:39Z</time>
      </trkpt>
      <trkpt lat="37.5472720" lon="-4.0394850">
        <ele>551.4</ele>
        <time>2020-07-17T08:39:41Z</time>
      </trkpt>
      <trkpt lat="37.5473120" lon="-4.0395740">
        <ele>552.0</ele>
        <time>2020-07-17T08:39:43Z</time>
      </trkpt>
      <trkpt lat="37.5474010" lon="-4.0397820">
        <ele>553.2</ele>
        <time>2020-07-17T08:39:48Z</time>
      </trkpt>
      <trkpt lat="37.5474370" lon="-4.0398650">
        <ele>553.6</ele>
        <time>2020-07-17T08:39:50Z</time>
      </trkpt>
      <trkpt lat="37.5474870" lon="-4.0399900">
        <ele>554.2</ele>
        <time>2020-07-17T08:39:53Z</time>
      </trkpt>
      <trkpt lat="37.5476000" lon="-4.0402600">
        <ele>555.4</ele>
        <time>2020-07-17T08:39:59Z</time>
      </trkpt>
      <trkpt lat="37.5476340" lon="-4.0403480">
        <ele>555.6</ele>
        <time>2020-07-17T08:40:01Z</time>
      </trkpt>
      <trkpt lat="37.5476880" lon="-4.0404780">
        <ele>556.4</ele>
        <time>2020-07-17T08:40:04Z</time>
      </trkpt>
      <trkpt lat="37.5477540" lon="-4.0406380">
        <ele>557.4</ele>
        <time>2020-07-17T08:40:08Z</time>
      </trkpt>
      <trkpt lat="37.5477960" lon="-4.0407510">
        <ele>558.2</ele>
        <time>2020-07-17T08:40:11Z</time>
      </trkpt>
      <trkpt lat="37.5478300" lon="-4.0408300">
        <ele>558.6</ele>
        <time>2020-07-17T08:40:13Z</time>
      </trkpt>
      <trkpt lat="37.5479040" lon="-4.0410170">
        <ele>559.6</ele>
        <time>2020-07-17T08:40:18Z</time>
      </trkpt>
      <trkpt lat="37.5479490" lon="-4.0411260">
        <ele>560.2</ele>
        <time>2020-07-17T08:40:21Z</time>
      </trkpt>
      <trkpt lat="37.5479930" lon="-4.0412380">
        <ele>560.8</ele>
        <time>2020-07-17T08:40:24Z</time>
      </trkpt>
      <trkpt lat="37.5480510" lon="-4.0413830">
        <ele>561.8</ele>
        <time>2020-07-17T08:40:28Z</time>
      </trkpt>
      <trkpt lat="37.5480920" lon="-4.0414890">
        <ele>562.4</ele>
        <time>2020-07-17T08:40:31Z</time>
      </trkpt>
      <trkpt lat="37.5481190" lon="-4.0415630">
        <ele>562.8</ele>
        <time>2020-07-17T08:40:33Z</time>
      </trkpt>
      <trkpt lat="37.5481920" lon="-4.0417430">
        <ele>564.0</ele>
        <time>2020-07-17T08:40:38Z</time>
      </trkpt>
      <trkpt lat="37.5482590" lon="-4.0419180">
        <ele>565.0</ele>
        <time>2020-07-17T08:40:43Z</time>
      </trkpt>
      <trkpt lat="37.5483250" lon="-4.0420870">
        <ele>566.2</ele>
        <time>2020-07-17T08:40:48Z</time>
      </trkpt>
      <trkpt lat="37.5483790" lon="-4.0422210">
        <ele>567.2</ele>
        <time>2020-07-17T08:40:52Z</time>
      </trkpt>
      <trkpt lat="37.5484070" lon="-4.0422930">
        <ele>567.8</ele>
        <time>2020-07-17T08:40:54Z</time>
      </trkpt>
      <trkpt lat="37.5484340" lon="-4.0423590">
        <ele>568.2</ele>
        <time>2020-07-17T08:40:56Z</time>
      </trkpt>
      <trkpt lat="37.5484860" lon="-4.0424960">
        <ele>569.4</ele>
        <time>2020-07-17T08:41:00Z</time>
      </trkpt>
      <trkpt lat="37.5485400" lon="-4.0426260">
        <ele>570.2</ele>
        <time>2020-07-17T08:41:04Z</time>
      </trkpt>
      <trkpt lat="37.5485650" lon="-4.0426910">
        <ele>570.6</ele>
        <time>2020-07-17T08:41:06Z</time>
      </trkpt>
      <trkpt lat="37.5486260" lon="-4.0428540">
        <ele>571.8</ele>
        <time>2020-07-17T08:41:11Z</time>
      </trkpt>
      <trkpt lat="37.5486810" lon="-4.0429890">
        <ele>572.8</ele>
        <time>2020-07-17T08:41:15Z</time>
      </trkpt>
      <trkpt lat="37.5487060" lon="-4.0430550">
        <ele>573.4</ele>
        <time>2020-07-17T08:41:17Z</time>
      </trkpt>
      <trkpt lat="37.5487320" lon="-4.0431240">
        <ele>574.0</ele>
        <time>2020-07-17T08:41:19Z</time>
      </trkpt>
      <trkpt lat="37.5487850" lon="-4.0432560">
        <ele>575.0</ele>
        <time>2020-07-17T08:41:23Z</time>
      </trkpt>
      <trkpt lat="37.5488400" lon="-4.0433920">
        <ele>576.0</ele>
        <time>2020-07-17T08:41:27Z</time>
      </trkpt>
      <trkpt lat="37.5488650" lon="-4.0434580">
        <ele>576.6</ele>
        <time>2020-07-17T08:41:29Z</time>
      </trkpt>
      <trkpt lat="37.5489060" lon="-4.0435600">
        <ele>577.4</ele>
        <time>2020-07-17T08:41:32Z</time>
      </trkpt>
      <trkpt lat="37.5489600" lon="-4.0436870">
        <ele>578.4</ele>
        <time>2020-07-17T08:41:36Z</time>
      </trkpt>
      <trkpt lat="37.5490160" lon="-4.0438190">
        <ele>579.4</ele>
        <time>2020-07-17T08:41:40Z</time>
      </trkpt>
      <trkpt lat="37.5490290" lon="-4.0438470">
        <ele>579.4</ele>
        <time>2020-07-17T08:41:41Z</time>
      </trkpt>
      <trkpt lat="37.5490980" lon="-4.0440070">
        <ele>580.6</ele>
        <time>2020-07-17T08:41:46Z</time>
      </trkpt>
      <trkpt lat="37.5491700" lon="-4.0441650">
        <ele>581.8</ele>
        <time>2020-07-17T08:41:51Z</time>
      </trkpt>
      <trkpt lat="37.5492000" lon="-4.0442280">
        <ele>582.4</ele>
        <time>2020-07-17T08:41:53Z</time>
      </trkpt>
      <trkpt lat="37.5492330" lon="-4.0442930">
        <ele>583.0</ele>
        <time>2020-07-17T08:41:55Z</time>
      </trkpt>
      <trkpt lat="37.5493130" lon="-4.0444510">
        <ele>584.2</ele>
        <time>2020-07-17T08:42:00Z</time>
      </trkpt>
      <trkpt lat="37.5493670" lon="-4.0445380">
        <ele>584.8</ele>
        <time>2020-07-17T08:42:03Z</time>
      </trkpt>
      <trkpt lat="37.5494010" lon="-4.0445980">
        <ele>585.2</ele>
        <time>2020-07-17T08:42:05Z</time>
      </trkpt>
      <trkpt lat="37.5494830" lon="-4.0447170">
        <ele>586.0</ele>
        <time>2020-07-17T08:42:09Z</time>
      </trkpt>
      <trkpt lat="37.5495030" lon="-4.0447460">
        <ele>586.4</ele>
        <time>2020-07-17T08:42:10Z</time>
      </trkpt>
      <trkpt lat="37.5495870" lon="-4.0448570">
        <ele>587.4</ele>
        <time>2020-07-17T08:42:14Z</time>
      </trkpt>
      <trkpt lat="37.5496970" lon="-4.0449850">
        <ele>588.8</ele>
        <time>2020-07-17T08:42:19Z</time>
      </trkpt>
      <trkpt lat="37.5497830" lon="-4.0450780">
        <ele>589.8</ele>
        <time>2020-07-17T08:42:23Z</time>
      </trkpt>
      <trkpt lat="37.5498950" lon="-4.0451880">
        <ele>591.0</ele>
        <time>2020-07-17T08:42:28Z</time>
      </trkpt>
      <trkpt lat="37.5499400" lon="-4.0452310">
        <ele>591.4</ele>
        <time>2020-07-17T08:42:30Z</time>
      </trkpt>
      <trkpt lat="37.5500090" lon="-4.0452930">
        <ele>592.0</ele>
        <time>2020-07-17T08:42:33Z</time>
      </trkpt>
      <trkpt lat="37.5501270" lon="-4.0453920">
        <ele>593.2</ele>
        <time>2020-07-17T08:42:38Z</time>
      </trkpt>
      <trkpt lat="37.5501500" lon="-4.0454110">
        <ele>593.4</ele>
        <time>2020-07-17T08:42:39Z</time>
      </trkpt>
      <trkpt lat="37.5502470" lon="-4.0454840">
        <ele>594.6</ele>
        <time>2020-07-17T08:42:43Z</time>
      </trkpt>
      <trkpt lat="37.5503770" lon="-4.0455670">
        <ele>595.6</ele>
        <time>2020-07-17T08:42:48Z</time>
      </trkpt>
      <trkpt lat="37.5504560" lon="-4.0456110">
        <ele>596.2</ele>
        <time>2020-07-17T08:42:51Z</time>
      </trkpt>
      <trkpt lat="37.5505080" lon="-4.0456390">
        <ele>596.6</ele>
        <time>2020-07-17T08:42:53Z</time>
      </trkpt>
      <trkpt lat="37.5506410" lon="-4.0456960">
        <ele>597.6</ele>
        <time>2020-07-17T08:42:58Z</time>
      </trkpt>
      <trkpt lat="37.5507180" lon="-4.0457330">
        <ele>598.6</ele>
        <time>2020-07-17T08:43:01Z</time>
      </trkpt>
      <trkpt lat="37.5507460" lon="-4.0457460">
        <ele>598.8</ele>
        <time>2020-07-17T08:43:02Z</time>
      </trkpt>
      <trkpt lat="37.5508880" lon="-4.0458030">
        <ele>600.0</ele>
        <time>2020-07-17T08:43:07Z</time>
      </trkpt>
      <trkpt lat="37.5509160" lon="-4.0458130">
        <ele>600.2</ele>
        <time>2020-07-17T08:43:08Z</time>
      </trkpt>
      <trkpt lat="37.5510230" lon="-4.0458500">
        <ele>601.0</ele>
        <time>2020-07-17T08:43:12Z</time>
      </trkpt>
      <trkpt lat="37.5511530" lon="-4.0458950">
        <ele>602.2</ele>
        <time>2020-07-17T08:43:17Z</time>
      </trkpt>
      <trkpt lat="37.5512070" lon="-4.0459140">
        <ele>602.6</ele>
        <time>2020-07-17T08:43:19Z</time>
      </trkpt>
      <trkpt lat="37.5512870" lon="-4.0459410">
        <ele>603.4</ele>
        <time>2020-07-17T08:43:22Z</time>
      </trkpt>
      <trkpt lat="37.5514230" lon="-4.0459860">
        <ele>604.6</ele>
        <time>2020-07-17T08:43:27Z</time>
      </trkpt>
      <trkpt lat="37.5514740" lon="-4.0460040">
        <ele>605.0</ele>
        <time>2020-07-17T08:43:29Z</time>
      </trkpt>
      <trkpt lat="37.5515840" lon="-4.0460410">
        <ele>605.6</ele>
        <time>2020-07-17T08:43:33Z</time>
      </trkpt>
      <trkpt lat="37.5517450" lon="-4.0460920">
        <ele>606.8</ele>
        <time>2020-07-17T08:43:39Z</time>
      </trkpt>
      <trkpt lat="37.5518840" lon="-4.0461340">
        <ele>607.8</ele>
        <time>2020-07-17T08:43:44Z</time>
      </trkpt>
      <trkpt lat="37.5519970" lon="-4.0461680">
        <ele>609.0</ele>
        <time>2020-07-17T08:43:48Z</time>
      </trkpt>
      <trkpt lat="37.5520520" lon="-4.0461860">
        <ele>609.4</ele>
        <time>2020-07-17T08:43:50Z</time>
      </trkpt>
      <trkpt lat="37.5521340" lon="-4.0462120">
        <ele>610.0</ele>
        <time>2020-07-17T08:43:53Z</time>
      </trkpt>
      <trkpt lat="37.5522740" lon="-4.0462590">
        <ele>611.2</ele>
        <time>2020-07-17T08:43:58Z</time>
      </trkpt>
      <trkpt lat="37.5523310" lon="-4.0462770">
        <ele>611.6</ele>
        <time>2020-07-17T08:44:00Z</time>
      </trkpt>
      <trkpt lat="37.5524160" lon="-4.0463100">
        <ele>612.2</ele>
        <time>2020-07-17T08:44:03Z</time>
      </trkpt>
      <trkpt lat="37.5525620" lon="-4.0463680">
        <ele>613.4</ele>
        <time>2020-07-17T08:44:08Z</time>
      </trkpt>
      <trkpt lat="37.5526800" lon="-4.0464180">
        <ele>614.4</ele>
        <time>2020-07-17T08:44:12Z</time>
      </trkpt>
      <trkpt lat="37.5527100" lon="-4.0464300">
        <ele>614.4</ele>
        <time>2020-07-17T08:44:13Z</time>
      </trkpt>
      <trkpt lat="37.5529150" lon="-4.0465280">
        <ele>615.6</ele>
        <time>2020-07-17T08:44:20Z</time>
      </trkpt>
      <trkpt lat="37.5530080" lon="-4.0465760">
        <ele>615.8</ele>
        <time>2020-07-17T08:44:23Z</time>
      </trkpt>
      <trkpt lat="37.5531490" lon="-4.0466590">
        <ele>616.6</ele>
        <time>2020-07-17T08:44:27Z</time>
      </trkpt>
      <trkpt lat="37.5533720" lon="-4.0467830">
        <ele>617.8</ele>
        <time>2020-07-17T08:44:33Z</time>
      </trkpt>
      <trkpt lat="37.5536590" lon="-4.0469790">
        <ele>618.8</ele>
        <time>2020-07-17T08:44:41Z</time>
      </trkpt>
      <trkpt lat="37.5537730" lon="-4.0470660">
        <ele>619.2</ele>
        <time>2020-07-17T08:44:44Z</time>
      </trkpt>
      <trkpt lat="37.5539530" lon="-4.0472140">
        <ele>619.8</ele>
        <time>2020-07-17T08:44:49Z</time>
      </trkpt>
      <trkpt lat="37.5541950" lon="-4.0474370">
        <ele>621.0</ele>
        <time>2020-07-17T08:44:56Z</time>
      </trkpt>
      <trkpt lat="37.5542640" lon="-4.0475050">
        <ele>621.2</ele>
        <time>2020-07-17T08:44:58Z</time>
      </trkpt>
      <trkpt lat="37.5544510" lon="-4.0477020">
        <ele>622.0</ele>
        <time>2020-07-17T08:45:04Z</time>
      </trkpt>
      <trkpt lat="37.5545730" lon="-4.0478330">
        <ele>622.6</ele>
        <time>2020-07-17T08:45:08Z</time>
      </trkpt>
      <trkpt lat="37.5546600" lon="-4.0479330">
        <ele>623.2</ele>
        <time>2020-07-17T08:45:11Z</time>
      </trkpt>
      <trkpt lat="37.5548460" lon="-4.0481700">
        <ele>624.0</ele>
        <time>2020-07-17T08:45:17Z</time>
      </trkpt>
      <trkpt lat="37.5548800" lon="-4.0482130">
        <ele>624.2</ele>
        <time>2020-07-17T08:45:18Z</time>
      </trkpt>
      <trkpt lat="37.5550900" lon="-4.0484970">
        <ele>625.4</ele>
        <time>2020-07-17T08:45:25Z</time>
      </trkpt>
      <trkpt lat="37.5552350" lon="-4.0486950">
        <ele>626.0</ele>
        <time>2020-07-17T08:45:30Z</time>
      </trkpt>
      <trkpt lat="37.5553240" lon="-4.0488170">
        <ele>626.6</ele>
        <time>2020-07-17T08:45:33Z</time>
      </trkpt>
      <trkpt lat="37.5554430" lon="-4.0489810">
        <ele>627.2</ele>
        <time>2020-07-17T08:45:37Z</time>
      </trkpt>
      <trkpt lat="37.5554750" lon="-4.0490160">
        <ele>627.2</ele>
        <time>2020-07-17T08:45:38Z</time>
      </trkpt>
      <trkpt lat="37.5556080" lon="-4.0491600">
        <ele>627.6</ele>
        <time>2020-07-17T08:45:42Z</time>
      </trkpt>
      <trkpt lat="37.5556380" lon="-4.0492010">
        <ele>627.6</ele>
        <time>2020-07-17T08:45:43Z</time>
      </trkpt>
      <trkpt lat="37.5558130" lon="-4.0494470">
        <ele>628.6</ele>
        <time>2020-07-17T08:45:49Z</time>
      </trkpt>
      <trkpt lat="37.5559270" lon="-4.0496110">
        <ele>629.4</ele>
        <time>2020-07-17T08:45:53Z</time>
      </trkpt>
      <trkpt lat="37.5559880" lon="-4.0497000">
        <ele>629.8</ele>
        <time>2020-07-17T08:45:55Z</time>
      </trkpt>
      <trkpt lat="37.5562140" lon="-4.0500490">
        <ele>630.8</ele>
        <time>2020-07-17T08:46:03Z</time>
      </trkpt>
      <trkpt lat="37.5562420" lon="-4.0500950">
        <ele>631.0</ele>
        <time>2020-07-17T08:46:04Z</time>
      </trkpt>
      <trkpt lat="37.5564330" lon="-4.0504190">
        <ele>632.0</ele>
        <time>2020-07-17T08:46:11Z</time>
      </trkpt>
      <trkpt lat="37.5565670" lon="-4.0506680">
        <ele>632.6</ele>
        <time>2020-07-17T08:46:16Z</time>
      </trkpt>
      <trkpt lat="37.5566560" lon="-4.0508280">
        <ele>633.0</ele>
        <time>2020-07-17T08:46:19Z</time>
      </trkpt>
      <trkpt lat="37.5568640" lon="-4.0512190">
        <ele>633.2</ele>
        <time>2020-07-17T08:46:26Z</time>
      </trkpt>
      <trkpt lat="37.5571100" lon="-4.0517040">
        <ele>633.2</ele>
        <time>2020-07-17T08:46:33Z</time>
      </trkpt>
      <trkpt lat="37.5572230" lon="-4.0519340">
        <ele>632.8</ele>
        <time>2020-07-17T08:46:36Z</time>
      </trkpt>
      <trkpt lat="37.5574200" lon="-4.0523440">
        <ele>632.8</ele>
        <time>2020-07-17T08:46:41Z</time>
      </trkpt>
      <trkpt lat="37.5577410" lon="-4.0529760">
        <ele>632.0</ele>
        <time>2020-07-17T08:46:48Z</time>
      </trkpt>
      <trkpt lat="37.5577860" lon="-4.0530680">
        <ele>631.8</ele>
        <time>2020-07-17T08:46:49Z</time>
      </trkpt>
      <trkpt lat="37.5578760" lon="-4.0532500">
        <ele>631.4</ele>
        <time>2020-07-17T08:46:51Z</time>
      </trkpt>
      <trkpt lat="37.5582100" lon="-4.0539210">
        <ele>631.0</ele>
        <time>2020-07-17T08:46:58Z</time>
      </trkpt>
      <trkpt lat="37.5583030" lon="-4.0541080">
        <ele>630.6</ele>
        <time>2020-07-17T08:47:00Z</time>
      </trkpt>
      <trkpt lat="37.5584370" lon="-4.0543790">
        <ele>630.4</ele>
        <time>2020-07-17T08:47:03Z</time>
      </trkpt>
      <trkpt lat="37.5586100" lon="-4.0547250">
        <ele>631.0</ele>
        <time>2020-07-17T08:47:07Z</time>
      </trkpt>
      <trkpt lat="37.5587350" lon="-4.0549800">
        <ele>631.4</ele>
        <time>2020-07-17T08:47:10Z</time>
      </trkpt>
      <trkpt lat="37.5588170" lon="-4.0551430">
        <ele>631.6</ele>
        <time>2020-07-17T08:47:12Z</time>
      </trkpt>
      <trkpt lat="37.5590230" lon="-4.0555230">
        <ele>632.2</ele>
        <time>2020-07-17T08:47:17Z</time>
      </trkpt>
      <trkpt lat="37.5591120" lon="-4.0556700">
        <ele>633.0</ele>
        <time>2020-07-17T08:47:19Z</time>
      </trkpt>
      <trkpt lat="37.5591960" lon="-4.0558070">
        <ele>633.4</ele>
        <time>2020-07-17T08:47:21Z</time>
      </trkpt>
      <trkpt lat="37.5594830" lon="-4.0562090">
        <ele>634.0</ele>
        <time>2020-07-17T08:47:27Z</time>
      </trkpt>
      <trkpt lat="37.5596370" lon="-4.0563930">
        <ele>634.4</ele>
        <time>2020-07-17T08:47:30Z</time>
      </trkpt>
      <trkpt lat="37.5598000" lon="-4.0565600">
        <ele>635.0</ele>
        <time>2020-07-17T08:47:33Z</time>
      </trkpt>
      <trkpt lat="37.5601430" lon="-4.0568590">
        <ele>635.4</ele>
        <time>2020-07-17T08:47:39Z</time>
      </trkpt>
      <trkpt lat="37.5606370" lon="-4.0571790">
        <ele>636.0</ele>
        <time>2020-07-17T08:47:47Z</time>
      </trkpt>
      <trkpt lat="37.5611350" lon="-4.0573770">
        <ele>635.8</ele>
        <time>2020-07-17T08:47:54Z</time>
      </trkpt>
      <trkpt lat="37.5616750" lon="-4.0574970">
        <ele>635.2</ele>
        <time>2020-07-17T08:48:01Z</time>
      </trkpt>
      <trkpt lat="37.5619300" lon="-4.0575250">
        <ele>635.0</ele>
        <time>2020-07-17T08:48:04Z</time>
      </trkpt>
      <trkpt lat="37.5622620" lon="-4.0575400">
        <ele>634.6</ele>
        <time>2020-07-17T08:48:08Z</time>
      </trkpt>
      <trkpt lat="37.5624340" lon="-4.0575400">
        <ele>634.2</ele>
        <time>2020-07-17T08:48:10Z</time>
      </trkpt>
      <trkpt lat="37.5626890" lon="-4.0575380">
        <ele>634.2</ele>
        <time>2020-07-17T08:48:13Z</time>
      </trkpt>
      <trkpt lat="37.5628590" lon="-4.0575370">
        <ele>634.0</ele>
        <time>2020-07-17T08:48:15Z</time>
      </trkpt>
      <trkpt lat="37.5631150" lon="-4.0575350">
        <ele>633.4</ele>
        <time>2020-07-17T08:48:18Z</time>
      </trkpt>
      <trkpt lat="37.5635360" lon="-4.0575460">
        <ele>633.0</ele>
        <time>2020-07-17T08:48:23Z</time>
      </trkpt>
      <trkpt lat="37.5636260" lon="-4.0575540">
        <ele>633.0</ele>
        <time>2020-07-17T08:48:24Z</time>
      </trkpt>
      <trkpt lat="37.5641720" lon="-4.0576490">
        <ele>633.0</ele>
        <time>2020-07-17T08:48:31Z</time>
      </trkpt>
      <trkpt lat="37.5647440" lon="-4.0578380">
        <ele>633.6</ele>
        <time>2020-07-17T08:48:39Z</time>
      </trkpt>
      <trkpt lat="37.5649460" lon="-4.0579270">
        <ele>634.0</ele>
        <time>2020-07-17T08:48:42Z</time>
      </trkpt>
      <trkpt lat="37.5652770" lon="-4.0580980">
        <ele>634.6</ele>
        <time>2020-07-17T08:48:47Z</time>
      </trkpt>
      <trkpt lat="37.5653450" lon="-4.0581380">
        <ele>634.8</ele>
        <time>2020-07-17T08:48:48Z</time>
      </trkpt>
      <trkpt lat="37.5654800" lon="-4.0582190">
        <ele>635.0</ele>
        <time>2020-07-17T08:48:50Z</time>
      </trkpt>
      <trkpt lat="37.5658170" lon="-4.0584170">
        <ele>635.4</ele>
        <time>2020-07-17T08:48:55Z</time>
      </trkpt>
      <trkpt lat="37.5660250" lon="-4.0585230">
        <ele>635.6</ele>
        <time>2020-07-17T08:48:58Z</time>
      </trkpt>
      <trkpt lat="37.5662890" lon="-4.0586800">
        <ele>636.2</ele>
        <time>2020-07-17T08:49:02Z</time>
      </trkpt>
      <trkpt lat="37.5667400" lon="-4.0589560">
        <ele>637.0</ele>
        <time>2020-07-17T08:49:09Z</time>
      </trkpt>
      <trkpt lat="37.5668050" lon="-4.0589970">
        <ele>637.2</ele>
        <time>2020-07-17T08:49:10Z</time>
      </trkpt>
      <trkpt lat="37.5673450" lon="-4.0593490">
        <ele>637.2</ele>
        <time>2020-07-17T08:49:18Z</time>
      </trkpt>
      <trkpt lat="37.5674830" lon="-4.0594470">
        <ele>637.2</ele>
        <time>2020-07-17T08:49:20Z</time>
      </trkpt>
      <trkpt lat="37.5680010" lon="-4.0598190">
        <ele>636.6</ele>
        <time>2020-07-17T08:49:27Z</time>
      </trkpt>
      <trkpt lat="37.5680750" lon="-4.0598760">
        <ele>636.6</ele>
        <time>2020-07-17T08:49:28Z</time>
      </trkpt>
      <trkpt lat="37.5682370" lon="-4.0600010">
        <ele>636.0</ele>
        <time>2020-07-17T08:49:30Z</time>
      </trkpt>
      <trkpt lat="37.5684810" lon="-4.0601970">
        <ele>634.8</ele>
        <time>2020-07-17T08:49:33Z</time>
      </trkpt>
      <trkpt lat="37.5686480" lon="-4.0603390">
        <ele>634.0</ele>
        <time>2020-07-17T08:49:35Z</time>
      </trkpt>
      <trkpt lat="37.5687340" lon="-4.0604130">
        <ele>633.6</ele>
        <time>2020-07-17T08:49:36Z</time>
      </trkpt>
      <trkpt lat="37.5689070" lon="-4.0605650">
        <ele>632.6</ele>
        <time>2020-07-17T08:49:38Z</time>
      </trkpt>
      <trkpt lat="37.5691600" lon="-4.0607940">
        <ele>631.4</ele>
        <time>2020-07-17T08:49:41Z</time>
      </trkpt>
      <trkpt lat="37.5693450" lon="-4.0609670">
        <ele>630.4</ele>
        <time>2020-07-17T08:49:43Z</time>
      </trkpt>
      <trkpt lat="37.5694380" lon="-4.0610550">
        <ele>630.0</ele>
        <time>2020-07-17T08:49:44Z</time>
      </trkpt>
      <trkpt lat="37.5695280" lon="-4.0611410">
        <ele>629.6</ele>
        <time>2020-07-17T08:49:45Z</time>
      </trkpt>
      <trkpt lat="37.5697010" lon="-4.0613110">
        <ele>628.8</ele>
        <time>2020-07-17T08:49:47Z</time>
      </trkpt>
      <trkpt lat="37.5698870" lon="-4.0615010">
        <ele>627.6</ele>
        <time>2020-07-17T08:49:49Z</time>
      </trkpt>
      <trkpt lat="37.5700610" lon="-4.0616850">
        <ele>626.4</ele>
        <time>2020-07-17T08:49:51Z</time>
      </trkpt>
      <trkpt lat="37.5702400" lon="-4.0618790">
        <ele>625.2</ele>
        <time>2020-07-17T08:49:53Z</time>
      </trkpt>
      <trkpt lat="37.5703370" lon="-4.0619870">
        <ele>624.6</ele>
        <time>2020-07-17T08:49:54Z</time>
      </trkpt>
      <trkpt lat="37.5704240" lon="-4.0620870">
        <ele>623.8</ele>
        <time>2020-07-17T08:49:55Z</time>
      </trkpt>
      <trkpt lat="37.5706820" lon="-4.0623880">
        <ele>622.4</ele>
        <time>2020-07-17T08:49:58Z</time>
      </trkpt>
      <trkpt lat="37.5709900" lon="-4.0627650">
        <ele>621.8</ele>
        <time>2020-07-17T08:50:02Z</time>
      </trkpt>
      <trkpt lat="37.5713850" lon="-4.0632750">
        <ele>621.6</ele>
        <time>2020-07-17T08:50:08Z</time>
      </trkpt>
      <trkpt lat="37.5715520" lon="-4.0635020">
        <ele>622.2</ele>
        <time>2020-07-17T08:50:11Z</time>
      </trkpt>
      <trkpt lat="37.5717160" lon="-4.0637360">
        <ele>623.0</ele>
        <time>2020-07-17T08:50:14Z</time>
      </trkpt>
      <trkpt lat="37.5717660" lon="-4.0638080">
        <ele>623.4</ele>
        <time>2020-07-17T08:50:15Z</time>
      </trkpt>
      <trkpt lat="37.5718130" lon="-4.0638740">
        <ele>623.6</ele>
        <time>2020-07-17T08:50:16Z</time>
      </trkpt>
      <trkpt lat="37.5719600" lon="-4.0640880">
        <ele>624.0</ele>
        <time>2020-07-17T08:50:19Z</time>
      </trkpt>
      <trkpt lat="37.5720650" lon="-4.0642420">
        <ele>624.2</ele>
        <time>2020-07-17T08:50:23Z</time>
      </trkpt>
      <trkpt lat="37.5721690" lon="-4.0643970">
        <ele>624.8</ele>
        <time>2020-07-17T08:50:25Z</time>
      </trkpt>
      <trkpt lat="37.5722740" lon="-4.0645510">
        <ele>625.0</ele>
        <time>2020-07-17T08:50:26Z</time>
      </trkpt>
      <trkpt lat="37.5725920" lon="-4.0650340">
        <ele>625.2</ele>
        <time>2020-07-17T08:50:33Z</time>
      </trkpt>
      <trkpt lat="37.5726780" lon="-4.0651680">
        <ele>625.4</ele>
        <time>2020-07-17T08:50:35Z</time>
      </trkpt>
      <trkpt lat="37.5730320" lon="-4.0657290">
        <ele>625.8</ele>
        <time>2020-07-17T08:50:43Z</time>
      </trkpt>
      <trkpt lat="37.5732550" lon="-4.0660850">
        <ele>625.6</ele>
        <time>2020-07-17T08:50:48Z</time>
      </trkpt>
      <trkpt lat="37.5736110" lon="-4.0667150">
        <ele>625.4</ele>
        <time>2020-07-17T08:50:56Z</time>
      </trkpt>
      <trkpt lat="37.5736580" lon="-4.0668090">
        <ele>625.4</ele>
        <time>2020-07-17T08:50:57Z</time>
      </trkpt>
      <trkpt lat="37.5738600" lon="-4.0672570">
        <ele>625.4</ele>
        <time>2020-07-17T08:51:02Z</time>
      </trkpt>
      <trkpt lat="37.5739650" lon="-4.0675340">
        <ele>625.0</ele>
        <time>2020-07-17T08:51:05Z</time>
      </trkpt>
      <trkpt lat="37.5740600" lon="-4.0678320">
        <ele>624.6</ele>
        <time>2020-07-17T08:51:08Z</time>
      </trkpt>
      <trkpt lat="37.5741670" lon="-4.0682500">
        <ele>624.0</ele>
        <time>2020-07-17T08:51:12Z</time>
      </trkpt>
      <trkpt lat="37.5741900" lon="-4.0683520">
        <ele>623.8</ele>
        <time>2020-07-17T08:51:13Z</time>
      </trkpt>
      <trkpt lat="37.5742130" lon="-4.0684650">
        <ele>623.6</ele>
        <time>2020-07-17T08:51:14Z</time>
      </trkpt>
      <trkpt lat="37.5742940" lon="-4.0690170">
        <ele>622.4</ele>
        <time>2020-07-17T08:51:19Z</time>
      </trkpt>
      <trkpt lat="37.5743060" lon="-4.0691280">
        <ele>622.2</ele>
        <time>2020-07-17T08:51:20Z</time>
      </trkpt>
      <trkpt lat="37.5743150" lon="-4.0692360">
        <ele>622.2</ele>
        <time>2020-07-17T08:51:21Z</time>
      </trkpt>
      <trkpt lat="37.5743300" lon="-4.0694630">
        <ele>621.6</ele>
        <time>2020-07-17T08:51:23Z</time>
      </trkpt>
      <trkpt lat="37.5743340" lon="-4.0695910">
        <ele>621.4</ele>
        <time>2020-07-17T08:51:24Z</time>
      </trkpt>
      <trkpt lat="37.5743410" lon="-4.0699390">
        <ele>621.2</ele>
        <time>2020-07-17T08:51:27Z</time>
      </trkpt>
      <trkpt lat="37.5743520" lon="-4.0702960">
        <ele>620.4</ele>
        <time>2020-07-17T08:51:30Z</time>
      </trkpt>
      <trkpt lat="37.5743370" lon="-4.0706570">
        <ele>619.4</ele>
        <time>2020-07-17T08:51:33Z</time>
      </trkpt>
      <trkpt lat="37.5743290" lon="-4.0707860">
        <ele>619.0</ele>
        <time>2020-07-17T08:51:34Z</time>
      </trkpt>
      <trkpt lat="37.5743170" lon="-4.0714100">
        <ele>618.0</ele>
        <time>2020-07-17T08:51:39Z</time>
      </trkpt>
      <trkpt lat="37.5743170" lon="-4.0716450">
        <ele>617.6</ele>
        <time>2020-07-17T08:51:41Z</time>
      </trkpt>
      <trkpt lat="37.5743320" lon="-4.0721640">
        <ele>616.8</ele>
        <time>2020-07-17T08:51:45Z</time>
      </trkpt>
      <trkpt lat="37.5743730" lon="-4.0726690">
        <ele>616.0</ele>
        <time>2020-07-17T08:51:49Z</time>
      </trkpt>
      <trkpt lat="37.5744050" lon="-4.0729100">
        <ele>615.4</ele>
        <time>2020-07-17T08:51:51Z</time>
      </trkpt>
      <trkpt lat="37.5744600" lon="-4.0732940">
        <ele>614.2</ele>
        <time>2020-07-17T08:51:54Z</time>
      </trkpt>
      <trkpt lat="37.5745500" lon="-4.0737820">
        <ele>613.6</ele>
        <time>2020-07-17T08:51:58Z</time>
      </trkpt>
      <trkpt lat="37.5746010" lon="-4.0740350">
        <ele>613.2</ele>
        <time>2020-07-17T08:52:00Z</time>
      </trkpt>
      <trkpt lat="37.5747510" lon="-4.0747740">
        <ele>612.0</ele>
        <time>2020-07-17T08:52:06Z</time>
      </trkpt>
      <trkpt lat="37.5749030" lon="-4.0755140">
        <ele>611.0</ele>
        <time>2020-07-17T08:52:12Z</time>
      </trkpt>
      <trkpt lat="37.5749320" lon="-4.0756550">
        <ele>610.8</ele>
        <time>2020-07-17T08:52:13Z</time>
      </trkpt>
      <trkpt lat="37.5750320" lon="-4.0761450">
        <ele>609.6</ele>
        <time>2020-07-17T08:52:17Z</time>
      </trkpt>
      <trkpt lat="37.5751860" lon="-4.0769030">
        <ele>608.4</ele>
        <time>2020-07-17T08:52:23Z</time>
      </trkpt>
      <trkpt lat="37.5753160" lon="-4.0775480">
        <ele>607.6</ele>
        <time>2020-07-17T08:52:28Z</time>
      </trkpt>
      <trkpt lat="37.5753660" lon="-4.0778010">
        <ele>607.2</ele>
        <time>2020-07-17T08:52:30Z</time>
      </trkpt>
      <trkpt lat="37.5754690" lon="-4.0783110">
        <ele>606.2</ele>
        <time>2020-07-17T08:52:34Z</time>
      </trkpt>
      <trkpt lat="37.5755740" lon="-4.0788120">
        <ele>605.2</ele>
        <time>2020-07-17T08:52:38Z</time>
      </trkpt>
      <trkpt lat="37.5756740" lon="-4.0793090">
        <ele>604.0</ele>
        <time>2020-07-17T08:52:42Z</time>
      </trkpt>
      <trkpt lat="37.5756980" lon="-4.0794290">
        <ele>604.0</ele>
        <time>2020-07-17T08:52:43Z</time>
      </trkpt>
      <trkpt lat="37.5757480" lon="-4.0796800">
        <ele>603.8</ele>
        <time>2020-07-17T08:52:45Z</time>
      </trkpt>
      <trkpt lat="37.5758200" lon="-4.0800440">
        <ele>603.2</ele>
        <time>2020-07-17T08:52:48Z</time>
      </trkpt>
      <trkpt lat="37.5758460" lon="-4.0801720">
        <ele>602.8</ele>
        <time>2020-07-17T08:52:49Z</time>
      </trkpt>
      <trkpt lat="37.5759940" lon="-4.0809070">
        <ele>602.0</ele>
        <time>2020-07-17T08:52:55Z</time>
      </trkpt>
      <trkpt lat="37.5760160" lon="-4.0810220">
        <ele>601.6</ele>
        <time>2020-07-17T08:52:56Z</time>
      </trkpt>
      <trkpt lat="37.5760900" lon="-4.0813870">
        <ele>600.6</ele>
        <time>2020-07-17T08:52:59Z</time>
      </trkpt>
      <trkpt lat="37.5762410" lon="-4.0821360">
        <ele>599.6</ele>
        <time>2020-07-17T08:53:05Z</time>
      </trkpt>
      <trkpt lat="37.5762890" lon="-4.0823790">
        <ele>599.4</ele>
        <time>2020-07-17T08:53:07Z</time>
      </trkpt>
      <trkpt lat="37.5763170" lon="-4.0825170">
        <ele>599.2</ele>
        <time>2020-07-17T08:53:08Z</time>
      </trkpt>
      <trkpt lat="37.5764180" lon="-4.0830160">
        <ele>598.2</ele>
        <time>2020-07-17T08:53:12Z</time>
      </trkpt>
      <trkpt lat="37.5765670" lon="-4.0837480">
        <ele>597.0</ele>
        <time>2020-07-17T08:53:18Z</time>
      </trkpt>
      <trkpt lat="37.5767200" lon="-4.0845080">
        <ele>596.2</ele>
        <time>2020-07-17T08:53:24Z</time>
      </trkpt>
      <trkpt lat="37.5767650" lon="-4.0847340">
        <ele>596.0</ele>
        <time>2020-07-17T08:53:26Z</time>
      </trkpt>
      <trkpt lat="37.5768680" lon="-4.0852350">
        <ele>594.2</ele>
        <time>2020-07-17T08:53:30Z</time>
      </trkpt>
      <trkpt lat="37.5769640" lon="-4.0857290">
        <ele>593.2</ele>
        <time>2020-07-17T08:53:34Z</time>
      </trkpt>
      <trkpt lat="37.5771170" lon="-4.0864770">
        <ele>592.0</ele>
        <time>2020-07-17T08:53:40Z</time>
      </trkpt>
      <trkpt lat="37.5772410" lon="-4.0870940">
        <ele>591.0</ele>
        <time>2020-07-17T08:53:45Z</time>
      </trkpt>
      <trkpt lat="37.5772880" lon="-4.0873310">
        <ele>590.8</ele>
        <time>2020-07-17T08:53:47Z</time>
      </trkpt>
      <trkpt lat="37.5773650" lon="-4.0877100">
        <ele>590.0</ele>
        <time>2020-07-17T08:53:50Z</time>
      </trkpt>
      <trkpt lat="37.5774870" lon="-4.0883250">
        <ele>589.0</ele>
        <time>2020-07-17T08:53:55Z</time>
      </trkpt>
      <trkpt lat="37.5775600" lon="-4.0886900">
        <ele>588.2</ele>
        <time>2020-07-17T08:53:58Z</time>
      </trkpt>
      <trkpt lat="37.5776550" lon="-4.0891850">
        <ele>587.8</ele>
        <time>2020-07-17T08:54:02Z</time>
      </trkpt>
      <trkpt lat="37.5777450" lon="-4.0896710">
        <ele>586.8</ele>
        <time>2020-07-17T08:54:06Z</time>
      </trkpt>
      <trkpt lat="37.5778130" lon="-4.0900510">
        <ele>585.8</ele>
        <time>2020-07-17T08:54:09Z</time>
      </trkpt>
      <trkpt lat="37.5778800" lon="-4.0904320">
        <ele>584.4</ele>
        <time>2020-07-17T08:54:12Z</time>
      </trkpt>
      <trkpt lat="37.5779010" lon="-4.0905530">
        <ele>584.2</ele>
        <time>2020-07-17T08:54:13Z</time>
      </trkpt>
      <trkpt lat="37.5779670" lon="-4.0909340">
        <ele>583.4</ele>
        <time>2020-07-17T08:54:16Z</time>
      </trkpt>
      <trkpt lat="37.5780760" lon="-4.0915730">
        <ele>582.2</ele>
        <time>2020-07-17T08:54:21Z</time>
      </trkpt>
      <trkpt lat="37.5781430" lon="-4.0919740">
        <ele>580.8</ele>
        <time>2020-07-17T08:54:24Z</time>
      </trkpt>
      <trkpt lat="37.5781870" lon="-4.0922290">
        <ele>579.6</ele>
        <time>2020-07-17T08:54:26Z</time>
      </trkpt>
      <trkpt lat="37.5782540" lon="-4.0926300">
        <ele>578.2</ele>
        <time>2020-07-17T08:54:29Z</time>
      </trkpt>
      <trkpt lat="37.5783250" lon="-4.0930410">
        <ele>577.4</ele>
        <time>2020-07-17T08:54:32Z</time>
      </trkpt>
      <trkpt lat="37.5783470" lon="-4.0931700">
        <ele>577.2</ele>
        <time>2020-07-17T08:54:33Z</time>
      </trkpt>
      <trkpt lat="37.5784180" lon="-4.0935760">
        <ele>576.0</ele>
        <time>2020-07-17T08:54:36Z</time>
      </trkpt>
      <trkpt lat="37.5784720" lon="-4.0938600">
        <ele>575.2</ele>
        <time>2020-07-17T08:54:38Z</time>
      </trkpt>
      <trkpt lat="37.5784980" lon="-4.0940000">
        <ele>574.8</ele>
        <time>2020-07-17T08:54:39Z</time>
      </trkpt>
      <trkpt lat="37.5786310" lon="-4.0946930">
        <ele>573.6</ele>
        <time>2020-07-17T08:54:44Z</time>
      </trkpt>
      <trkpt lat="37.5787440" lon="-4.0952470">
        <ele>572.4</ele>
        <time>2020-07-17T08:54:48Z</time>
      </trkpt>
      <trkpt lat="37.5787740" lon="-4.0953890">
        <ele>571.8</ele>
        <time>2020-07-17T08:54:49Z</time>
      </trkpt>
      <trkpt lat="37.5788030" lon="-4.0955270">
        <ele>571.4</ele>
        <time>2020-07-17T08:54:50Z</time>
      </trkpt>
      <trkpt lat="37.5788890" lon="-4.0959210">
        <ele>570.4</ele>
        <time>2020-07-17T08:54:53Z</time>
      </trkpt>
      <trkpt lat="37.5790430" lon="-4.0966150">
        <ele>569.0</ele>
        <time>2020-07-17T08:54:58Z</time>
      </trkpt>
      <trkpt lat="37.5791320" lon="-4.0970010">
        <ele>568.4</ele>
        <time>2020-07-17T08:55:01Z</time>
      </trkpt>
      <trkpt lat="37.5791970" lon="-4.0972700">
        <ele>568.0</ele>
        <time>2020-07-17T08:55:03Z</time>
      </trkpt>
      <trkpt lat="37.5793260" lon="-4.0978000">
        <ele>567.0</ele>
        <time>2020-07-17T08:55:07Z</time>
      </trkpt>
      <trkpt lat="37.5794250" lon="-4.0981990">
        <ele>565.8</ele>
        <time>2020-07-17T08:55:10Z</time>
      </trkpt>
      <trkpt lat="37.5795250" lon="-4.0985980">
        <ele>564.6</ele>
        <time>2020-07-17T08:55:13Z</time>
      </trkpt>
      <trkpt lat="37.5796240" lon="-4.0989950">
        <ele>563.6</ele>
        <time>2020-07-17T08:55:16Z</time>
      </trkpt>
      <trkpt lat="37.5797670" lon="-4.0995520">
        <ele>562.6</ele>
        <time>2020-07-17T08:55:20Z</time>
      </trkpt>
      <trkpt lat="37.5798360" lon="-4.0998290">
        <ele>562.0</ele>
        <time>2020-07-17T08:55:22Z</time>
      </trkpt>
      <trkpt lat="37.5799030" lon="-4.1001020">
        <ele>561.4</ele>
        <time>2020-07-17T08:55:24Z</time>
      </trkpt>
      <trkpt lat="37.5800040" lon="-4.1005040">
        <ele>560.4</ele>
        <time>2020-07-17T08:55:27Z</time>
      </trkpt>
      <trkpt lat="37.5801040" lon="-4.1009040">
        <ele>559.2</ele>
        <time>2020-07-17T08:55:30Z</time>
      </trkpt>
      <trkpt lat="37.5801690" lon="-4.1011710">
        <ele>558.2</ele>
        <time>2020-07-17T08:55:32Z</time>
      </trkpt>
      <trkpt lat="37.5802010" lon="-4.1012980">
        <ele>557.4</ele>
        <time>2020-07-17T08:55:33Z</time>
      </trkpt>
      <trkpt lat="37.5802660" lon="-4.1015710">
        <ele>557.0</ele>
        <time>2020-07-17T08:55:35Z</time>
      </trkpt>
      <trkpt lat="37.5803950" lon="-4.1021080">
        <ele>555.8</ele>
        <time>2020-07-17T08:55:39Z</time>
      </trkpt>
      <trkpt lat="37.5804870" lon="-4.1025060">
        <ele>554.6</ele>
        <time>2020-07-17T08:55:42Z</time>
      </trkpt>
      <trkpt lat="37.5805770" lon="-4.1028990">
        <ele>553.4</ele>
        <time>2020-07-17T08:55:45Z</time>
      </trkpt>
      <trkpt lat="37.5806630" lon="-4.1032890">
        <ele>552.8</ele>
        <time>2020-07-17T08:55:48Z</time>
      </trkpt>
      <trkpt lat="37.5807450" lon="-4.1036780">
        <ele>552.0</ele>
        <time>2020-07-17T08:55:51Z</time>
      </trkpt>
      <trkpt lat="37.5808290" lon="-4.1040790">
        <ele>551.0</ele>
        <time>2020-07-17T08:55:54Z</time>
      </trkpt>
      <trkpt lat="37.5809590" lon="-4.1047080">
        <ele>550.0</ele>
        <time>2020-07-17T08:55:59Z</time>
      </trkpt>
      <trkpt lat="37.5809860" lon="-4.1048430">
        <ele>549.6</ele>
        <time>2020-07-17T08:56:00Z</time>
      </trkpt>
      <trkpt lat="37.5810620" lon="-4.1052220">
        <ele>548.8</ele>
        <time>2020-07-17T08:56:03Z</time>
      </trkpt>
      <trkpt lat="37.5812120" lon="-4.1059970">
        <ele>547.6</ele>
        <time>2020-07-17T08:56:09Z</time>
      </trkpt>
      <trkpt lat="37.5812850" lon="-4.1063890">
        <ele>546.6</ele>
        <time>2020-07-17T08:56:12Z</time>
      </trkpt>
      <trkpt lat="37.5813320" lon="-4.1066530">
        <ele>545.8</ele>
        <time>2020-07-17T08:56:14Z</time>
      </trkpt>
      <trkpt lat="37.5813540" lon="-4.1067830">
        <ele>545.6</ele>
        <time>2020-07-17T08:56:15Z</time>
      </trkpt>
      <trkpt lat="37.5814690" lon="-4.1074420">
        <ele>544.4</ele>
        <time>2020-07-17T08:56:20Z</time>
      </trkpt>
      <trkpt lat="37.5815340" lon="-4.1078280">
        <ele>543.4</ele>
        <time>2020-07-17T08:56:23Z</time>
      </trkpt>
      <trkpt lat="37.5816010" lon="-4.1082390">
        <ele>542.0</ele>
        <time>2020-07-17T08:56:26Z</time>
      </trkpt>
      <trkpt lat="37.5816260" lon="-4.1083830">
        <ele>541.8</ele>
        <time>2020-07-17T08:56:27Z</time>
      </trkpt>
      <trkpt lat="37.5817150" lon="-4.1089200">
        <ele>540.8</ele>
        <time>2020-07-17T08:56:31Z</time>
      </trkpt>
      <trkpt lat="37.5818310" lon="-4.1096030">
        <ele>539.4</ele>
        <time>2020-07-17T08:56:36Z</time>
      </trkpt>
      <trkpt lat="37.5819040" lon="-4.1100320">
        <ele>537.8</ele>
        <time>2020-07-17T08:56:39Z</time>
      </trkpt>
      <trkpt lat="37.5819750" lon="-4.1104520">
        <ele>536.6</ele>
        <time>2020-07-17T08:56:42Z</time>
      </trkpt>
      <trkpt lat="37.5820520" lon="-4.1108740">
        <ele>535.4</ele>
        <time>2020-07-17T08:56:45Z</time>
      </trkpt>
      <trkpt lat="37.5821280" lon="-4.1112940">
        <ele>534.4</ele>
        <time>2020-07-17T08:56:48Z</time>
      </trkpt>
      <trkpt lat="37.5822050" lon="-4.1117060">
        <ele>533.2</ele>
        <time>2020-07-17T08:56:51Z</time>
      </trkpt>
      <trkpt lat="37.5822850" lon="-4.1121280">
        <ele>531.8</ele>
        <time>2020-07-17T08:56:54Z</time>
      </trkpt>
      <trkpt lat="37.5823690" lon="-4.1125420">
        <ele>530.8</ele>
        <time>2020-07-17T08:56:57Z</time>
      </trkpt>
      <trkpt lat="37.5824230" lon="-4.1128110">
        <ele>529.6</ele>
        <time>2020-07-17T08:56:59Z</time>
      </trkpt>
      <trkpt lat="37.5825110" lon="-4.1132410">
        <ele>528.2</ele>
        <time>2020-07-17T08:57:02Z</time>
      </trkpt>
      <trkpt lat="37.5825400" lon="-4.1133790">
        <ele>527.8</ele>
        <time>2020-07-17T08:57:03Z</time>
      </trkpt>
      <trkpt lat="37.5825980" lon="-4.1136540">
        <ele>527.0</ele>
        <time>2020-07-17T08:57:05Z</time>
      </trkpt>
      <trkpt lat="37.5826620" lon="-4.1139480">
        <ele>525.8</ele>
        <time>2020-07-17T08:57:07Z</time>
      </trkpt>
      <trkpt lat="37.5827240" lon="-4.1142320">
        <ele>524.6</ele>
        <time>2020-07-17T08:57:09Z</time>
      </trkpt>
      <trkpt lat="37.5828200" lon="-4.1146540">
        <ele>523.4</ele>
        <time>2020-07-17T08:57:12Z</time>
      </trkpt>
      <trkpt lat="37.5828840" lon="-4.1149350">
        <ele>522.4</ele>
        <time>2020-07-17T08:57:14Z</time>
      </trkpt>
      <trkpt lat="37.5829160" lon="-4.1150770">
        <ele>521.8</ele>
        <time>2020-07-17T08:57:15Z</time>
      </trkpt>
      <trkpt lat="37.5829760" lon="-4.1153470">
        <ele>520.6</ele>
        <time>2020-07-17T08:57:17Z</time>
      </trkpt>
      <trkpt lat="37.5830470" lon="-4.1156440">
        <ele>519.6</ele>
        <time>2020-07-17T08:57:19Z</time>
      </trkpt>
      <trkpt lat="37.5831130" lon="-4.1159230">
        <ele>518.4</ele>
        <time>2020-07-17T08:57:21Z</time>
      </trkpt>
      <trkpt lat="37.5831820" lon="-4.1162040">
        <ele>517.0</ele>
        <time>2020-07-17T08:57:23Z</time>
      </trkpt>
      <trkpt lat="37.5832230" lon="-4.1163650">
        <ele>516.6</ele>
        <time>2020-07-17T08:57:24Z</time>
      </trkpt>
      <trkpt lat="37.5832600" lon="-4.1165100">
        <ele>516.0</ele>
        <time>2020-07-17T08:57:25Z</time>
      </trkpt>
      <trkpt lat="37.5833350" lon="-4.1168050">
        <ele>515.0</ele>
        <time>2020-07-17T08:57:27Z</time>
      </trkpt>
      <trkpt lat="37.5834080" lon="-4.1170930">
        <ele>514.0</ele>
        <time>2020-07-17T08:57:29Z</time>
      </trkpt>
      <trkpt lat="37.5834870" lon="-4.1173910">
        <ele>513.0</ele>
        <time>2020-07-17T08:57:31Z</time>
      </trkpt>
      <trkpt lat="37.5836090" lon="-4.1178420">
        <ele>511.6</ele>
        <time>2020-07-17T08:57:34Z</time>
      </trkpt>
      <trkpt lat="37.5836440" lon="-4.1179770">
        <ele>511.2</ele>
        <time>2020-07-17T08:57:35Z</time>
      </trkpt>
      <trkpt lat="37.5837260" lon="-4.1182770">
        <ele>510.4</ele>
        <time>2020-07-17T08:57:37Z</time>
      </trkpt>
      <trkpt lat="37.5838460" lon="-4.1187090">
        <ele>509.0</ele>
        <time>2020-07-17T08:57:40Z</time>
      </trkpt>
      <trkpt lat="37.5839260" lon="-4.1189970">
        <ele>507.4</ele>
        <time>2020-07-17T08:57:42Z</time>
      </trkpt>
      <trkpt lat="37.5839650" lon="-4.1191370">
        <ele>506.4</ele>
        <time>2020-07-17T08:57:43Z</time>
      </trkpt>
      <trkpt lat="37.5840080" lon="-4.1192870">
        <ele>505.8</ele>
        <time>2020-07-17T08:57:44Z</time>
      </trkpt>
      <trkpt lat="37.5840860" lon="-4.1195670">
        <ele>504.8</ele>
        <time>2020-07-17T08:57:46Z</time>
      </trkpt>
      <trkpt lat="37.5841680" lon="-4.1198680">
        <ele>503.6</ele>
        <time>2020-07-17T08:57:48Z</time>
      </trkpt>
      <trkpt lat="37.5842840" lon="-4.1202920">
        <ele>502.2</ele>
        <time>2020-07-17T08:57:51Z</time>
      </trkpt>
      <trkpt lat="37.5844020" lon="-4.1207300">
        <ele>501.2</ele>
        <time>2020-07-17T08:57:54Z</time>
      </trkpt>
      <trkpt lat="37.5844750" lon="-4.1210010">
        <ele>500.4</ele>
        <time>2020-07-17T08:57:56Z</time>
      </trkpt>
      <trkpt lat="37.5845170" lon="-4.1211520">
        <ele>500.0</ele>
        <time>2020-07-17T08:57:57Z</time>
      </trkpt>
      <trkpt lat="37.5846410" lon="-4.1215710">
        <ele>498.8</ele>
        <time>2020-07-17T08:58:00Z</time>
      </trkpt>
      <trkpt lat="37.5847670" lon="-4.1219900">
        <ele>497.4</ele>
        <time>2020-07-17T08:58:03Z</time>
      </trkpt>
      <trkpt lat="37.5848430" lon="-4.1222630">
        <ele>496.2</ele>
        <time>2020-07-17T08:58:05Z</time>
      </trkpt>
      <trkpt lat="37.5849230" lon="-4.1225560">
        <ele>494.8</ele>
        <time>2020-07-17T08:58:07Z</time>
      </trkpt>
      <trkpt lat="37.5850330" lon="-4.1229760">
        <ele>493.6</ele>
        <time>2020-07-17T08:58:10Z</time>
      </trkpt>
      <trkpt lat="37.5851750" lon="-4.1235250">
        <ele>492.6</ele>
        <time>2020-07-17T08:58:14Z</time>
      </trkpt>
      <trkpt lat="37.5852450" lon="-4.1237830">
        <ele>491.6</ele>
        <time>2020-07-17T08:58:16Z</time>
      </trkpt>
      <trkpt lat="37.5852810" lon="-4.1239150">
        <ele>491.2</ele>
        <time>2020-07-17T08:58:17Z</time>
      </trkpt>
      <trkpt lat="37.5853830" lon="-4.1242990">
        <ele>490.2</ele>
        <time>2020-07-17T08:58:20Z</time>
      </trkpt>
      <trkpt lat="37.5855680" lon="-4.1249630">
        <ele>488.8</ele>
        <time>2020-07-17T08:58:25Z</time>
      </trkpt>
      <trkpt lat="37.5856010" lon="-4.1250830">
        <ele>488.6</ele>
        <time>2020-07-17T08:58:26Z</time>
      </trkpt>
      <trkpt lat="37.5857390" lon="-4.1255980">
        <ele>487.8</ele>
        <time>2020-07-17T08:58:30Z</time>
      </trkpt>
      <trkpt lat="37.5859050" lon="-4.1262050">
        <ele>486.6</ele>
        <time>2020-07-17T08:58:35Z</time>
      </trkpt>
      <trkpt lat="37.5861060" lon="-4.1269320">
        <ele>485.8</ele>
        <time>2020-07-17T08:58:41Z</time>
      </trkpt>
      <trkpt lat="37.5861730" lon="-4.1271750">
        <ele>485.4</ele>
        <time>2020-07-17T08:58:43Z</time>
      </trkpt>
      <trkpt lat="37.5862700" lon="-4.1275330">
        <ele>484.4</ele>
        <time>2020-07-17T08:58:46Z</time>
      </trkpt>
      <trkpt lat="37.5863030" lon="-4.1276570">
        <ele>484.2</ele>
        <time>2020-07-17T08:58:47Z</time>
      </trkpt>
      <trkpt lat="37.5864090" lon="-4.1280470">
        <ele>482.8</ele>
        <time>2020-07-17T08:58:50Z</time>
      </trkpt>
      <trkpt lat="37.5865140" lon="-4.1284260">
        <ele>481.6</ele>
        <time>2020-07-17T08:58:53Z</time>
      </trkpt>
      <trkpt lat="37.5865890" lon="-4.1286980">
        <ele>480.8</ele>
        <time>2020-07-17T08:58:55Z</time>
      </trkpt>
      <trkpt lat="37.5866240" lon="-4.1288240">
        <ele>480.4</ele>
        <time>2020-07-17T08:58:56Z</time>
      </trkpt>
      <trkpt lat="37.5867710" lon="-4.1293650">
        <ele>479.0</ele>
        <time>2020-07-17T08:59:00Z</time>
      </trkpt>
      <trkpt lat="37.5868820" lon="-4.1297630">
        <ele>477.8</ele>
        <time>2020-07-17T08:59:03Z</time>
      </trkpt>
      <trkpt lat="37.5869550" lon="-4.1300340">
        <ele>477.0</ele>
        <time>2020-07-17T08:59:05Z</time>
      </trkpt>
      <trkpt lat="37.5869890" lon="-4.1301610">
        <ele>476.8</ele>
        <time>2020-07-17T08:59:06Z</time>
      </trkpt>
      <trkpt lat="37.5871370" lon="-4.1307170">
        <ele>475.6</ele>
        <time>2020-07-17T08:59:10Z</time>
      </trkpt>
      <trkpt lat="37.5872380" lon="-4.1311330">
        <ele>474.0</ele>
        <time>2020-07-17T08:59:13Z</time>
      </trkpt>
      <trkpt lat="37.5872870" lon="-4.1314120">
        <ele>473.0</ele>
        <time>2020-07-17T08:59:15Z</time>
      </trkpt>
      <trkpt lat="37.5873020" lon="-4.1315450">
        <ele>472.6</ele>
        <time>2020-07-17T08:59:16Z</time>
      </trkpt>
      <trkpt lat="37.5873250" lon="-4.1319850">
        <ele>471.4</ele>
        <time>2020-07-17T08:59:19Z</time>
      </trkpt>
      <trkpt lat="37.5873250" lon="-4.1321290">
        <ele>471.0</ele>
        <time>2020-07-17T08:59:20Z</time>
      </trkpt>
      <trkpt lat="37.5873130" lon="-4.1324140">
        <ele>470.2</ele>
        <time>2020-07-17T08:59:22Z</time>
      </trkpt>
      <trkpt lat="37.5872660" lon="-4.1328270">
        <ele>469.6</ele>
        <time>2020-07-17T08:59:25Z</time>
      </trkpt>
      <trkpt lat="37.5872200" lon="-4.1330930">
        <ele>469.2</ele>
        <time>2020-07-17T08:59:27Z</time>
      </trkpt>
      <trkpt lat="37.5870870" lon="-4.1335910">
        <ele>468.4</ele>
        <time>2020-07-17T08:59:31Z</time>
      </trkpt>
      <trkpt lat="37.5868730" lon="-4.1341900">
        <ele>468.2</ele>
        <time>2020-07-17T08:59:36Z</time>
      </trkpt>
      <trkpt lat="37.5866550" lon="-4.1347760">
        <ele>467.4</ele>
        <time>2020-07-17T08:59:41Z</time>
      </trkpt>
      <trkpt lat="37.5865590" lon="-4.1350340">
        <ele>467.0</ele>
        <time>2020-07-17T08:59:43Z</time>
      </trkpt>
      <trkpt lat="37.5862860" lon="-4.1357700">
        <ele>465.8</ele>
        <time>2020-07-17T08:59:49Z</time>
      </trkpt>
      <trkpt lat="37.5861970" lon="-4.1360080">
        <ele>465.6</ele>
        <time>2020-07-17T08:59:51Z</time>
      </trkpt>
      <trkpt lat="37.5860050" lon="-4.1365190">
        <ele>464.8</ele>
        <time>2020-07-17T08:59:55Z</time>
      </trkpt>
      <trkpt lat="37.5857700" lon="-4.1371540">
        <ele>463.8</ele>
        <time>2020-07-17T09:00:00Z</time>
      </trkpt>
      <trkpt lat="37.5857260" lon="-4.1372730">
        <ele>463.6</ele>
        <time>2020-07-17T09:00:01Z</time>
      </trkpt>
      <trkpt lat="37.5854940" lon="-4.1379010">
        <ele>462.8</ele>
        <time>2020-07-17T09:00:06Z</time>
      </trkpt>
      <trkpt lat="37.5853980" lon="-4.1381620">
        <ele>462.4</ele>
        <time>2020-07-17T09:00:08Z</time>
      </trkpt>
      <trkpt lat="37.5851570" lon="-4.1388030">
        <ele>461.6</ele>
        <time>2020-07-17T09:00:13Z</time>
      </trkpt>
      <trkpt lat="37.5851050" lon="-4.1389390">
        <ele>461.4</ele>
        <time>2020-07-17T09:00:14Z</time>
      </trkpt>
      <trkpt lat="37.5849460" lon="-4.1393250">
        <ele>460.0</ele>
        <time>2020-07-17T09:00:17Z</time>
      </trkpt>
      <trkpt lat="37.5848200" lon="-4.1396050">
        <ele>458.8</ele>
        <time>2020-07-17T09:00:19Z</time>
      </trkpt>
      <trkpt lat="37.5846950" lon="-4.1398600">
        <ele>457.6</ele>
        <time>2020-07-17T09:00:21Z</time>
      </trkpt>
      <trkpt lat="37.5845560" lon="-4.1401120">
        <ele>456.4</ele>
        <time>2020-07-17T09:00:23Z</time>
      </trkpt>
      <trkpt lat="37.5843180" lon="-4.1404910">
        <ele>454.6</ele>
        <time>2020-07-17T09:00:26Z</time>
      </trkpt>
      <trkpt lat="37.5842290" lon="-4.1406210">
        <ele>454.2</ele>
        <time>2020-07-17T09:00:27Z</time>
      </trkpt>
      <trkpt lat="37.5841430" lon="-4.1407430">
        <ele>453.4</ele>
        <time>2020-07-17T09:00:28Z</time>
      </trkpt>
      <trkpt lat="37.5839610" lon="-4.1409760">
        <ele>452.2</ele>
        <time>2020-07-17T09:00:30Z</time>
      </trkpt>
      <trkpt lat="37.5837670" lon="-4.1412000">
        <ele>451.2</ele>
        <time>2020-07-17T09:00:32Z</time>
      </trkpt>
      <trkpt lat="37.5836670" lon="-4.1413080">
        <ele>450.8</ele>
        <time>2020-07-17T09:00:33Z</time>
      </trkpt>
      <trkpt lat="37.5835660" lon="-4.1414130">
        <ele>450.4</ele>
        <time>2020-07-17T09:00:34Z</time>
      </trkpt>
      <trkpt lat="37.5834730" lon="-4.1415070">
        <ele>449.8</ele>
        <time>2020-07-17T09:00:35Z</time>
      </trkpt>
      <trkpt lat="37.5832520" lon="-4.1417190">
        <ele>448.2</ele>
        <time>2020-07-17T09:00:37Z</time>
      </trkpt>
      <trkpt lat="37.5831430" lon="-4.1418200">
        <ele>447.2</ele>
        <time>2020-07-17T09:00:38Z</time>
      </trkpt>
      <trkpt lat="37.5829260" lon="-4.1420200">
        <ele>445.6</ele>
        <time>2020-07-17T09:00:40Z</time>
      </trkpt>
      <trkpt lat="37.5827040" lon="-4.1422240">
        <ele>444.2</ele>
        <time>2020-07-17T09:00:42Z</time>
      </trkpt>
      <trkpt lat="37.5824850" lon="-4.1424340">
        <ele>443.0</ele>
        <time>2020-07-17T09:00:44Z</time>
      </trkpt>
      <trkpt lat="37.5822860" lon="-4.1426620">
        <ele>441.6</ele>
        <time>2020-07-17T09:00:46Z</time>
      </trkpt>
      <trkpt lat="37.5821950" lon="-4.1427900">
        <ele>441.0</ele>
        <time>2020-07-17T09:00:47Z</time>
      </trkpt>
      <trkpt lat="37.5821050" lon="-4.1429400">
        <ele>440.2</ele>
        <time>2020-07-17T09:00:48Z</time>
      </trkpt>
      <trkpt lat="37.5819630" lon="-4.1432360">
        <ele>438.6</ele>
        <time>2020-07-17T09:00:50Z</time>
      </trkpt>
      <trkpt lat="37.5818400" lon="-4.1435440">
        <ele>437.2</ele>
        <time>2020-07-17T09:00:52Z</time>
      </trkpt>
      <trkpt lat="37.5817250" lon="-4.1438520">
        <ele>435.8</ele>
        <time>2020-07-17T09:00:54Z</time>
      </trkpt>
      <trkpt lat="37.5815540" lon="-4.1443070">
        <ele>434.4</ele>
        <time>2020-07-17T09:00:57Z</time>
      </trkpt>
      <trkpt lat="37.5814440" lon="-4.1445980">
        <ele>433.2</ele>
        <time>2020-07-17T09:00:59Z</time>
      </trkpt>
      <trkpt lat="37.5813830" lon="-4.1447600">
        <ele>432.6</ele>
        <time>2020-07-17T09:01:00Z</time>
      </trkpt>
      <trkpt lat="37.5813290" lon="-4.1449020">
        <ele>432.0</ele>
        <time>2020-07-17T09:01:01Z</time>
      </trkpt>
      <trkpt lat="37.5812680" lon="-4.1450650">
        <ele>431.0</ele>
        <time>2020-07-17T09:01:02Z</time>
      </trkpt>
      <trkpt lat="37.5811540" lon="-4.1453680">
        <ele>429.8</ele>
        <time>2020-07-17T09:01:04Z</time>
      </trkpt>
      <trkpt lat="37.5810420" lon="-4.1456660">
        <ele>428.4</ele>
        <time>2020-07-17T09:01:06Z</time>
      </trkpt>
      <trkpt lat="37.5809810" lon="-4.1458290">
        <ele>428.0</ele>
        <time>2020-07-17T09:01:07Z</time>
      </trkpt>
      <trkpt lat="37.5808660" lon="-4.1461310">
        <ele>427.2</ele>
        <time>2020-07-17T09:01:09Z</time>
      </trkpt>
      <trkpt lat="37.5806390" lon="-4.1467280">
        <ele>426.0</ele>
        <time>2020-07-17T09:01:13Z</time>
      </trkpt>
      <trkpt lat="37.5805840" lon="-4.1468740">
        <ele>425.6</ele>
        <time>2020-07-17T09:01:14Z</time>
      </trkpt>
      <trkpt lat="37.5804230" lon="-4.1473020">
        <ele>425.0</ele>
        <time>2020-07-17T09:01:17Z</time>
      </trkpt>
      <trkpt lat="37.5802560" lon="-4.1477450">
        <ele>424.0</ele>
        <time>2020-07-17T09:01:20Z</time>
      </trkpt>
      <trkpt lat="37.5802040" lon="-4.1478780">
        <ele>423.6</ele>
        <time>2020-07-17T09:01:21Z</time>
      </trkpt>
      <trkpt lat="37.5800940" lon="-4.1481630">
        <ele>422.6</ele>
        <time>2020-07-17T09:01:23Z</time>
      </trkpt>
      <trkpt lat="37.5799330" lon="-4.1485870">
        <ele>421.4</ele>
        <time>2020-07-17T09:01:26Z</time>
      </trkpt>
      <trkpt lat="37.5796720" lon="-4.1492810">
        <ele>420.2</ele>
        <time>2020-07-17T09:01:31Z</time>
      </trkpt>
      <trkpt lat="37.5796180" lon="-4.1494260">
        <ele>419.8</ele>
        <time>2020-07-17T09:01:32Z</time>
      </trkpt>
      <trkpt lat="37.5795160" lon="-4.1497000">
        <ele>419.0</ele>
        <time>2020-07-17T09:01:34Z</time>
      </trkpt>
      <trkpt lat="37.5792620" lon="-4.1503720">
        <ele>418.0</ele>
        <time>2020-07-17T09:01:39Z</time>
      </trkpt>
      <trkpt lat="37.5790080" lon="-4.1510360">
        <ele>416.8</ele>
        <time>2020-07-17T09:01:44Z</time>
      </trkpt>
      <trkpt lat="37.5789560" lon="-4.1511720">
        <ele>416.2</ele>
        <time>2020-07-17T09:01:45Z</time>
      </trkpt>
      <trkpt lat="37.5788530" lon="-4.1514290">
        <ele>415.4</ele>
        <time>2020-07-17T09:01:47Z</time>
      </trkpt>
      <trkpt lat="37.5786490" lon="-4.1518250">
        <ele>414.2</ele>
        <time>2020-07-17T09:01:50Z</time>
      </trkpt>
      <trkpt lat="37.5783950" lon="-4.1521520">
        <ele>413.0</ele>
        <time>2020-07-17T09:01:53Z</time>
      </trkpt>
      <trkpt lat="37.5782810" lon="-4.1522590">
        <ele>412.6</ele>
        <time>2020-07-17T09:01:54Z</time>
      </trkpt>
      <trkpt lat="37.5781690" lon="-4.1523450">
        <ele>412.0</ele>
        <time>2020-07-17T09:01:55Z</time>
      </trkpt>
      <trkpt lat="37.5779250" lon="-4.1524810">
        <ele>410.4</ele>
        <time>2020-07-17T09:01:57Z</time>
      </trkpt>
      <trkpt lat="37.5776700" lon="-4.1525740">
        <ele>409.2</ele>
        <time>2020-07-17T09:01:59Z</time>
      </trkpt>
      <trkpt lat="37.5773960" lon="-4.1526520">
        <ele>408.0</ele>
        <time>2020-07-17T09:02:01Z</time>
      </trkpt>
      <trkpt lat="37.5771100" lon="-4.1527380">
        <ele>406.6</ele>
        <time>2020-07-17T09:02:03Z</time>
      </trkpt>
      <trkpt lat="37.5768440" lon="-4.1528400">
        <ele>405.2</ele>
        <time>2020-07-17T09:02:05Z</time>
      </trkpt>
      <trkpt lat="37.5765710" lon="-4.1529970">
        <ele>403.0</ele>
        <time>2020-07-17T09:02:07Z</time>
      </trkpt>
      <trkpt lat="37.5764460" lon="-4.1530950">
        <ele>401.8</ele>
        <time>2020-07-17T09:02:08Z</time>
      </trkpt>
      <trkpt lat="37.5763320" lon="-4.1532010">
        <ele>400.8</ele>
        <time>2020-07-17T09:02:09Z</time>
      </trkpt>
      <trkpt lat="37.5762220" lon="-4.1533220">
        <ele>399.8</ele>
        <time>2020-07-17T09:02:10Z</time>
      </trkpt>
      <trkpt lat="37.5761340" lon="-4.1534350">
        <ele>399.0</ele>
        <time>2020-07-17T09:02:11Z</time>
      </trkpt>
      <trkpt lat="37.5759460" lon="-4.1537430">
        <ele>397.4</ele>
        <time>2020-07-17T09:02:13Z</time>
      </trkpt>
      <trkpt lat="37.5758110" lon="-4.1540640">
        <ele>395.6</ele>
        <time>2020-07-17T09:02:15Z</time>
      </trkpt>
      <trkpt lat="37.5757640" lon="-4.1542210">
        <ele>394.6</ele>
        <time>2020-07-17T09:02:16Z</time>
      </trkpt>
      <trkpt lat="37.5757230" lon="-4.1543960">
        <ele>393.8</ele>
        <time>2020-07-17T09:02:17Z</time>
      </trkpt>
      <trkpt lat="37.5756770" lon="-4.1547560">
        <ele>392.6</ele>
        <time>2020-07-17T09:02:19Z</time>
      </trkpt>
      <trkpt lat="37.5756740" lon="-4.1550920">
        <ele>391.2</ele>
        <time>2020-07-17T09:02:21Z</time>
      </trkpt>
      <trkpt lat="37.5756830" lon="-4.1552690">
        <ele>390.6</ele>
        <time>2020-07-17T09:02:22Z</time>
      </trkpt>
      <trkpt lat="37.5756960" lon="-4.1554330">
        <ele>389.8</ele>
        <time>2020-07-17T09:02:23Z</time>
      </trkpt>
      <trkpt lat="37.5757120" lon="-4.1556250">
        <ele>388.8</ele>
        <time>2020-07-17T09:02:24Z</time>
      </trkpt>
      <trkpt lat="37.5757270" lon="-4.1557830">
        <ele>387.6</ele>
        <time>2020-07-17T09:02:25Z</time>
      </trkpt>
      <trkpt lat="37.5757420" lon="-4.1559480">
        <ele>386.6</ele>
        <time>2020-07-17T09:02:26Z</time>
      </trkpt>
      <trkpt lat="37.5757790" lon="-4.1563080">
        <ele>384.2</ele>
        <time>2020-07-17T09:02:28Z</time>
      </trkpt>
      <trkpt lat="37.5758250" lon="-4.1566550">
        <ele>382.4</ele>
        <time>2020-07-17T09:02:30Z</time>
      </trkpt>
      <trkpt lat="37.5758820" lon="-4.1569810">
        <ele>381.4</ele>
        <time>2020-07-17T09:02:32Z</time>
      </trkpt>
      <trkpt lat="37.5759370" lon="-4.1571540">
        <ele>380.2</ele>
        <time>2020-07-17T09:02:33Z</time>
      </trkpt>
      <trkpt lat="37.5760500" lon="-4.1574520">
        <ele>378.4</ele>
        <time>2020-07-17T09:02:35Z</time>
      </trkpt>
      <trkpt lat="37.5762070" lon="-4.1577410">
        <ele>376.6</ele>
        <time>2020-07-17T09:02:37Z</time>
      </trkpt>
      <trkpt lat="37.5762960" lon="-4.1578700">
        <ele>375.8</ele>
        <time>2020-07-17T09:02:38Z</time>
      </trkpt>
      <trkpt lat="37.5763890" lon="-4.1579860">
        <ele>375.0</ele>
        <time>2020-07-17T09:02:39Z</time>
      </trkpt>
      <trkpt lat="37.5765820" lon="-4.1581830">
        <ele>373.8</ele>
        <time>2020-07-17T09:02:41Z</time>
      </trkpt>
      <trkpt lat="37.5766990" lon="-4.1582870">
        <ele>372.8</ele>
        <time>2020-07-17T09:02:42Z</time>
      </trkpt>
      <trkpt lat="37.5768050" lon="-4.1583730">
        <ele>372.2</ele>
        <time>2020-07-17T09:02:43Z</time>
      </trkpt>
      <trkpt lat="37.5770230" lon="-4.1585350">
        <ele>370.8</ele>
        <time>2020-07-17T09:02:45Z</time>
      </trkpt>
      <trkpt lat="37.5772250" lon="-4.1586780">
        <ele>370.0</ele>
        <time>2020-07-17T09:02:47Z</time>
      </trkpt>
      <trkpt lat="37.5773340" lon="-4.1587540">
        <ele>369.6</ele>
        <time>2020-07-17T09:02:48Z</time>
      </trkpt>
      <trkpt lat="37.5777280" lon="-4.1590240">
        <ele>368.6</ele>
        <time>2020-07-17T09:02:52Z</time>
      </trkpt>
      <trkpt lat="37.5778150" lon="-4.1590840">
        <ele>368.4</ele>
        <time>2020-07-17T09:02:53Z</time>
      </trkpt>
      <trkpt lat="37.5783310" lon="-4.1594450">
        <ele>368.0</ele>
        <time>2020-07-17T09:02:59Z</time>
      </trkpt>
      <trkpt lat="37.5784160" lon="-4.1595030">
        <ele>368.0</ele>
        <time>2020-07-17T09:03:00Z</time>
      </trkpt>
      <trkpt lat="37.5787120" lon="-4.1596840">
        <ele>368.0</ele>
        <time>2020-07-17T09:03:04Z</time>
      </trkpt>
      <trkpt lat="37.5787750" lon="-4.1597140">
        <ele>368.0</ele>
        <time>2020-07-17T09:03:05Z</time>
      </trkpt>
      <trkpt lat="37.5790000" lon="-4.1598510">
        <ele>368.2</ele>
        <time>2020-07-17T09:03:09Z</time>
      </trkpt>
      <trkpt lat="37.5790350" lon="-4.1598980">
        <ele>368.2</ele>
        <time>2020-07-17T09:03:10Z</time>
      </trkpt>
      <trkpt lat="37.5790630" lon="-4.1600590">
        <ele>368.6</ele>
        <time>2020-07-17T09:03:13Z</time>
      </trkpt>
      <trkpt lat="37.5789600" lon="-4.1602120">
        <ele>368.4</ele>
        <time>2020-07-17T09:03:16Z</time>
      </trkpt>
      <trkpt lat="37.5788320" lon="-4.1602560">
        <ele>368.0</ele>
        <time>2020-07-17T09:03:18Z</time>
      </trkpt>
      <trkpt lat="37.5787680" lon="-4.1602660">
        <ele>368.0</ele>
        <time>2020-07-17T09:03:19Z</time>
      </trkpt>
      <trkpt lat="37.5786450" lon="-4.1602990">
        <ele>367.8</ele>
        <time>2020-07-17T09:03:21Z</time>
      </trkpt>
      <trkpt lat="37.5785260" lon="-4.1603600">
        <ele>368.0</ele>
        <time>2020-07-17T09:03:23Z</time>
      </trkpt>
      <trkpt lat="37.5780090" lon="-4.1606370">
        <ele>368.8</ele>
        <time>2020-07-17T09:03:32Z</time>
      </trkpt>
      <trkpt lat="37.5778940" lon="-4.1606910">
        <ele>369.2</ele>
        <time>2020-07-17T09:03:34Z</time>
      </trkpt>
      <trkpt lat="37.5775420" lon="-4.1608590">
        <ele>369.4</ele>
        <time>2020-07-17T09:03:40Z</time>
      </trkpt>
      <trkpt lat="37.5774860" lon="-4.1608860">
        <ele>369.6</ele>
        <time>2020-07-17T09:03:41Z</time>
      </trkpt>
      <trkpt lat="37.5773610" lon="-4.1609510">
        <ele>369.6</ele>
        <time>2020-07-17T09:03:43Z</time>
      </trkpt>
      <trkpt lat="37.5771060" lon="-4.1610820">
        <ele>369.6</ele>
        <time>2020-07-17T09:03:47Z</time>
      </trkpt>
      <trkpt lat="37.5768330" lon="-4.1612150">
        <ele>369.8</ele>
        <time>2020-07-17T09:03:51Z</time>
      </trkpt>
      <trkpt lat="37.5766910" lon="-4.1612820">
        <ele>369.8</ele>
        <time>2020-07-17T09:03:53Z</time>
      </trkpt>
      <trkpt lat="37.5763920" lon="-4.1614210">
        <ele>369.8</ele>
        <time>2020-07-17T09:03:57Z</time>
      </trkpt>
      <trkpt lat="37.5761720" lon="-4.1615270">
        <ele>369.6</ele>
        <time>2020-07-17T09:04:00Z</time>
      </trkpt>
      <trkpt lat="37.5756410" lon="-4.1617830">
        <ele>369.6</ele>
        <time>2020-07-17T09:04:07Z</time>
      </trkpt>
      <trkpt lat="37.5754160" lon="-4.1618940">
        <ele>369.4</ele>
        <time>2020-07-17T09:04:10Z</time>
      </trkpt>
      <trkpt lat="37.5749640" lon="-4.1621120">
        <ele>369.0</ele>
        <time>2020-07-17T09:04:16Z</time>
      </trkpt>
      <trkpt lat="37.5745680" lon="-4.1622620">
        <ele>368.6</ele>
        <time>2020-07-17T09:04:21Z</time>
      </trkpt>
      <trkpt lat="37.5741570" lon="-4.1623100">
        <ele>368.8</ele>
        <time>2020-07-17T09:04:26Z</time>
      </trkpt>
      <trkpt lat="37.5736410" lon="-4.1622490">
        <ele>368.6</ele>
        <time>2020-07-17T09:04:32Z</time>
      </trkpt>
      <trkpt lat="37.5734700" lon="-4.1622190">
        <ele>368.2</ele>
        <time>2020-07-17T09:04:34Z</time>
      </trkpt>
      <trkpt lat="37.5728940" lon="-4.1621660">
        <ele>368.8</ele>
        <time>2020-07-17T09:04:41Z</time>
      </trkpt>
      <trkpt lat="37.5727880" lon="-4.1621750">
        <ele>369.0</ele>
        <time>2020-07-17T09:04:42Z</time>
      </trkpt>
      <trkpt lat="37.5723810" lon="-4.1622870">
        <ele>368.2</ele>
        <time>2020-07-17T09:04:47Z</time>
      </trkpt>
      <trkpt lat="37.5719150" lon="-4.1625470">
        <ele>368.6</ele>
        <time>2020-07-17T09:04:53Z</time>
      </trkpt>
      <trkpt lat="37.5716050" lon="-4.1627560">
        <ele>369.0</ele>
        <time>2020-07-17T09:04:57Z</time>
      </trkpt>
      <trkpt lat="37.5715300" lon="-4.1628050">
        <ele>369.2</ele>
        <time>2020-07-17T09:04:58Z</time>
      </trkpt>
      <trkpt lat="37.5710080" lon="-4.1630870">
        <ele>369.4</ele>
        <time>2020-07-17T09:05:05Z</time>
      </trkpt>
      <trkpt lat="37.5709330" lon="-4.1631120">
        <ele>369.6</ele>
        <time>2020-07-17T09:05:06Z</time>
      </trkpt>
      <trkpt lat="37.5705530" lon="-4.1631850">
        <ele>370.0</ele>
        <time>2020-07-17T09:05:11Z</time>
      </trkpt>
      <trkpt lat="37.5700030" lon="-4.1632330">
        <ele>370.0</ele>
        <time>2020-07-17T09:05:18Z</time>
      </trkpt>
      <trkpt lat="37.5697030" lon="-4.1632940">
        <ele>370.0</ele>
        <time>2020-07-17T09:05:22Z</time>
      </trkpt>
      <trkpt lat="37.5693280" lon="-4.1634630">
        <ele>369.6</ele>
        <time>2020-07-17T09:05:27Z</time>
      </trkpt>
      <trkpt lat="37.5688430" lon="-4.1638300">
        <ele>369.6</ele>
        <time>2020-07-17T09:05:34Z</time>
      </trkpt>
      <trkpt lat="37.5683750" lon="-4.1642060">
        <ele>370.0</ele>
        <time>2020-07-17T09:05:41Z</time>
      </trkpt>
      <trkpt lat="37.5681570" lon="-4.1643320">
        <ele>370.2</ele>
        <time>2020-07-17T09:05:44Z</time>
      </trkpt>
      <trkpt lat="37.5677880" lon="-4.1644990">
        <ele>370.6</ele>
        <time>2020-07-17T09:05:49Z</time>
      </trkpt>
      <trkpt lat="37.5675680" lon="-4.1645950">
        <ele>371.0</ele>
        <time>2020-07-17T09:05:52Z</time>
      </trkpt>
      <trkpt lat="37.5669900" lon="-4.1648500">
        <ele>371.6</ele>
        <time>2020-07-17T09:06:00Z</time>
      </trkpt>
      <trkpt lat="37.5668460" lon="-4.1649140">
        <ele>371.6</ele>
        <time>2020-07-17T09:06:02Z</time>
      </trkpt>
      <trkpt lat="37.5664870" lon="-4.1650600">
        <ele>372.4</ele>
        <time>2020-07-17T09:06:07Z</time>
      </trkpt>
      <trkpt lat="37.5663460" lon="-4.1651050">
        <ele>372.6</ele>
        <time>2020-07-17T09:06:09Z</time>
      </trkpt>
      <trkpt lat="37.5662730" lon="-4.1651220">
        <ele>372.8</ele>
        <time>2020-07-17T09:06:10Z</time>
      </trkpt>
      <trkpt lat="37.5659130" lon="-4.1651510">
        <ele>373.2</ele>
        <time>2020-07-17T09:06:15Z</time>
      </trkpt>
      <trkpt lat="37.5653350" lon="-4.1650940">
        <ele>373.8</ele>
        <time>2020-07-17T09:06:23Z</time>
      </trkpt>
      <trkpt lat="37.5652610" lon="-4.1650840">
        <ele>373.8</ele>
        <time>2020-07-17T09:06:24Z</time>
      </trkpt>
      <trkpt lat="37.5646930" lon="-4.1650020">
        <ele>374.4</ele>
        <time>2020-07-17T09:06:32Z</time>
      </trkpt>
      <trkpt lat="37.5645640" lon="-4.1649680">
        <ele>374.8</ele>
        <time>2020-07-17T09:06:34Z</time>
      </trkpt>
      <trkpt lat="37.5642540" lon="-4.1648550">
        <ele>376.0</ele>
        <time>2020-07-17T09:06:39Z</time>
      </trkpt>
      <trkpt lat="37.5641910" lon="-4.1648290">
        <ele>376.2</ele>
        <time>2020-07-17T09:06:40Z</time>
      </trkpt>
      <trkpt lat="37.5638850" lon="-4.1646980">
        <ele>377.0</ele>
        <time>2020-07-17T09:06:45Z</time>
      </trkpt>
      <trkpt lat="37.5637650" lon="-4.1646620">
        <ele>377.4</ele>
        <time>2020-07-17T09:06:47Z</time>
      </trkpt>
      <trkpt lat="37.5635810" lon="-4.1646250">
        <ele>378.0</ele>
        <time>2020-07-17T09:06:50Z</time>
      </trkpt>
      <trkpt lat="37.5633530" lon="-4.1646160">
        <ele>379.2</ele>
        <time>2020-07-17T09:06:54Z</time>
      </trkpt>
      <trkpt lat="37.5631360" lon="-4.1646530">
        <ele>380.2</ele>
        <time>2020-07-17T09:06:58Z</time>
      </trkpt>
      <trkpt lat="37.5629830" lon="-4.1646930">
        <ele>381.0</ele>
        <time>2020-07-17T09:07:01Z</time>
      </trkpt>
      <trkpt lat="37.5628800" lon="-4.1647300">
        <ele>381.4</ele>
        <time>2020-07-17T09:07:03Z</time>
      </trkpt>
      <trkpt lat="37.5626150" lon="-4.1648370">
        <ele>382.8</ele>
        <time>2020-07-17T09:07:09Z</time>
      </trkpt>
      <trkpt lat="37.5624100" lon="-4.1649130">
        <ele>384.0</ele>
        <time>2020-07-17T09:07:15Z</time>
      </trkpt>
      <trkpt lat="37.5623810" lon="-4.1649250">
        <ele>384.4</ele>
        <time>2020-07-17T09:07:16Z</time>
      </trkpt>
      <trkpt lat="37.5623170" lon="-4.1649460">
        <ele>385.2</ele>
        <time>2020-07-17T09:07:18Z</time>
      </trkpt>
      <trkpt lat="37.5622290" lon="-4.1649690">
        <ele>386.4</ele>
        <time>2020-07-17T09:07:21Z</time>
      </trkpt>
      <trkpt lat="37.5621380" lon="-4.1649830">
        <ele>387.2</ele>
        <time>2020-07-17T09:07:24Z</time>
      </trkpt>
      <trkpt lat="37.5621070" lon="-4.1649880">
        <ele>387.6</ele>
        <time>2020-07-17T09:07:25Z</time>
      </trkpt>
      <trkpt lat="37.5619880" lon="-4.1650120">
        <ele>388.6</ele>
        <time>2020-07-17T09:07:29Z</time>
      </trkpt>
      <trkpt lat="37.5618480" lon="-4.1650260">
        <ele>390.0</ele>
        <time>2020-07-17T09:07:34Z</time>
      </trkpt>
      <trkpt lat="37.5617300" lon="-4.1650420">
        <ele>391.0</ele>
        <time>2020-07-17T09:07:38Z</time>
      </trkpt>
      <trkpt lat="37.5616500" lon="-4.1650440">
        <ele>392.0</ele>
        <time>2020-07-17T09:07:41Z</time>
      </trkpt>
      <trkpt lat="37.5616200" lon="-4.1650430">
        <ele>392.4</ele>
        <time>2020-07-17T09:07:42Z</time>
      </trkpt>
      <trkpt lat="37.5615400" lon="-4.1650390">
        <ele>393.2</ele>
        <time>2020-07-17T09:07:45Z</time>
      </trkpt>
      <trkpt lat="37.5614300" lon="-4.1650220">
        <ele>394.4</ele>
        <time>2020-07-17T09:07:49Z</time>
      </trkpt>
      <trkpt lat="37.5614020" lon="-4.1650190">
        <ele>394.8</ele>
        <time>2020-07-17T09:07:50Z</time>
      </trkpt>
      <trkpt lat="37.5613210" lon="-4.1650070">
        <ele>395.6</ele>
        <time>2020-07-17T09:07:53Z</time>
      </trkpt>
      <trkpt lat="37.5611840" lon="-4.1649910">
        <ele>396.6</ele>
        <time>2020-07-17T09:07:58Z</time>
      </trkpt>
      <trkpt lat="37.5611260" lon="-4.1649820">
        <ele>397.0</ele>
        <time>2020-07-17T09:08:00Z</time>
      </trkpt>
      <trkpt lat="37.5610370" lon="-4.1649730">
        <ele>397.8</ele>
        <time>2020-07-17T09:08:03Z</time>
      </trkpt>
      <trkpt lat="37.5608540" lon="-4.1649610">
        <ele>398.8</ele>
        <time>2020-07-17T09:08:09Z</time>
      </trkpt>
      <trkpt lat="37.5607910" lon="-4.1649560">
        <ele>399.2</ele>
        <time>2020-07-17T09:08:11Z</time>
      </trkpt>
      <trkpt lat="37.5606520" lon="-4.1649530">
        <ele>400.0</ele>
        <time>2020-07-17T09:08:15Z</time>
      </trkpt>
      <trkpt lat="37.5604370" lon="-4.1649690">
        <ele>400.6</ele>
        <time>2020-07-17T09:08:21Z</time>
      </trkpt>
      <trkpt lat="37.5603980" lon="-4.1649730">
        <ele>400.8</ele>
        <time>2020-07-17T09:08:22Z</time>
      </trkpt>
      <trkpt lat="37.5603620" lon="-4.1649780">
        <ele>401.0</ele>
        <time>2020-07-17T09:08:23Z</time>
      </trkpt>
      <trkpt lat="37.5601390" lon="-4.1650170">
        <ele>402.2</ele>
        <time>2020-07-17T09:08:29Z</time>
      </trkpt>
      <trkpt lat="37.5600230" lon="-4.1650460">
        <ele>402.6</ele>
        <time>2020-07-17T09:08:32Z</time>
      </trkpt>
      <trkpt lat="37.5597900" lon="-4.1651220">
        <ele>403.2</ele>
        <time>2020-07-17T09:08:38Z</time>
      </trkpt>
      <trkpt lat="37.5597160" lon="-4.1651490">
        <ele>403.4</ele>
        <time>2020-07-17T09:08:40Z</time>
      </trkpt>
      <trkpt lat="37.5596420" lon="-4.1651890">
        <ele>403.6</ele>
        <time>2020-07-17T09:08:42Z</time>
      </trkpt>
      <trkpt lat="37.5595280" lon="-4.1652460">
        <ele>404.2</ele>
        <time>2020-07-17T09:08:45Z</time>
      </trkpt>
      <trkpt lat="37.5594930" lon="-4.1652650">
        <ele>404.4</ele>
        <time>2020-07-17T09:08:46Z</time>
      </trkpt>
      <trkpt lat="37.5592680" lon="-4.1653960">
        <ele>405.4</ele>
        <time>2020-07-17T09:08:52Z</time>
      </trkpt>
      <trkpt lat="37.5590510" lon="-4.1655310">
        <ele>406.4</ele>
        <time>2020-07-17T09:08:58Z</time>
      </trkpt>
      <trkpt lat="37.5590150" lon="-4.1655530">
        <ele>406.6</ele>
        <time>2020-07-17T09:08:59Z</time>
      </trkpt>
      <trkpt lat="37.5587900" lon="-4.1656880">
        <ele>407.4</ele>
        <time>2020-07-17T09:09:05Z</time>
      </trkpt>
      <trkpt lat="37.5586200" lon="-4.1657820">
        <ele>408.6</ele>
        <time>2020-07-17T09:09:09Z</time>
      </trkpt>
      <trkpt lat="37.5583980" lon="-4.1658910">
        <ele>409.6</ele>
        <time>2020-07-17T09:09:14Z</time>
      </trkpt>
      <trkpt lat="37.5581750" lon="-4.1659650">
        <ele>410.8</ele>
        <time>2020-07-17T09:09:19Z</time>
      </trkpt>
      <trkpt lat="37.5578540" lon="-4.1659990">
        <ele>411.8</ele>
        <time>2020-07-17T09:09:26Z</time>
      </trkpt>
      <trkpt lat="37.5577610" lon="-4.1660000">
        <ele>412.2</ele>
        <time>2020-07-17T09:09:28Z</time>
      </trkpt>
      <trkpt lat="37.5576290" lon="-4.1659840">
        <ele>413.0</ele>
        <time>2020-07-17T09:09:31Z</time>
      </trkpt>
      <trkpt lat="37.5574110" lon="-4.1659330">
        <ele>414.2</ele>
        <time>2020-07-17T09:09:36Z</time>
      </trkpt>
      <trkpt lat="37.5571540" lon="-4.1658270">
        <ele>415.4</ele>
        <time>2020-07-17T09:09:42Z</time>
      </trkpt>
      <trkpt lat="37.5570710" lon="-4.1657810">
        <ele>415.6</ele>
        <time>2020-07-17T09:09:44Z</time>
      </trkpt>
      <trkpt lat="37.5568770" lon="-4.1656460">
        <ele>416.4</ele>
        <time>2020-07-17T09:09:49Z</time>
      </trkpt>
      <trkpt lat="37.5567740" lon="-4.1655650">
        <ele>417.2</ele>
        <time>2020-07-17T09:09:52Z</time>
      </trkpt>
      <trkpt lat="37.5567310" lon="-4.1655300">
        <ele>417.4</ele>
        <time>2020-07-17T09:09:53Z</time>
      </trkpt>
      <trkpt lat="37.5565230" lon="-4.1653510">
        <ele>418.6</ele>
        <time>2020-07-17T09:09:59Z</time>
      </trkpt>
      <trkpt lat="37.5563900" lon="-4.1652270">
        <ele>419.4</ele>
        <time>2020-07-17T09:10:03Z</time>
      </trkpt>
      <trkpt lat="37.5563570" lon="-4.1651960">
        <ele>419.6</ele>
        <time>2020-07-17T09:10:04Z</time>
      </trkpt>
      <trkpt lat="37.5561130" lon="-4.1649810">
        <ele>420.6</ele>
        <time>2020-07-17T09:10:11Z</time>
      </trkpt>
      <trkpt lat="37.5559200" lon="-4.1648000">
        <ele>421.8</ele>
        <time>2020-07-17T09:10:17Z</time>
      </trkpt>
      <trkpt lat="37.5558840" lon="-4.1647730">
        <ele>422.2</ele>
        <time>2020-07-17T09:10:18Z</time>
      </trkpt>
      <trkpt lat="37.5558500" lon="-4.1647430">
        <ele>422.6</ele>
        <time>2020-07-17T09:10:19Z</time>
      </trkpt>
      <trkpt lat="37.5557870" lon="-4.1646820">
        <ele>423.0</ele>
        <time>2020-07-17T09:10:21Z</time>
      </trkpt>
      <trkpt lat="37.5556500" lon="-4.1645510">
        <ele>423.6</ele>
        <time>2020-07-17T09:10:25Z</time>
      </trkpt>
      <trkpt lat="37.5555850" lon="-4.1644930">
        <ele>424.2</ele>
        <time>2020-07-17T09:10:27Z</time>
      </trkpt>
      <trkpt lat="37.5552700" lon="-4.1642040">
        <ele>425.2</ele>
        <time>2020-07-17T09:10:36Z</time>
      </trkpt>
      <trkpt lat="37.5552330" lon="-4.1641710">
        <ele>425.6</ele>
        <time>2020-07-17T09:10:37Z</time>
      </trkpt>
      <trkpt lat="37.5551280" lon="-4.1640770">
        <ele>426.2</ele>
        <time>2020-07-17T09:10:40Z</time>
      </trkpt>
      <trkpt lat="37.5549880" lon="-4.1639440">
        <ele>426.6</ele>
        <time>2020-07-17T09:10:44Z</time>
      </trkpt>
      <trkpt lat="37.5548470" lon="-4.1638060">
        <ele>427.2</ele>
        <time>2020-07-17T09:10:48Z</time>
      </trkpt>
      <trkpt lat="37.5548110" lon="-4.1637710">
        <ele>427.4</ele>
        <time>2020-07-17T09:10:49Z</time>
      </trkpt>
      <trkpt lat="37.5547730" lon="-4.1637400">
        <ele>427.4</ele>
        <time>2020-07-17T09:10:50Z</time>
      </trkpt>
      <trkpt lat="37.5546940" lon="-4.1636730">
        <ele>427.6</ele>
        <time>2020-07-17T09:10:52Z</time>
      </trkpt>
      <trkpt lat="37.5546170" lon="-4.1636010">
        <ele>427.6</ele>
        <time>2020-07-17T09:10:54Z</time>
      </trkpt>
      <trkpt lat="37.5543660" lon="-4.1633720">
        <ele>428.4</ele>
        <time>2020-07-17T09:11:00Z</time>
      </trkpt>
      <trkpt lat="37.5541510" lon="-4.1631720">
        <ele>429.0</ele>
        <time>2020-07-17T09:11:05Z</time>
      </trkpt>
      <trkpt lat="37.5539180" lon="-4.1629590">
        <ele>429.4</ele>
        <time>2020-07-17T09:11:10Z</time>
      </trkpt>
      <trkpt lat="37.5536420" lon="-4.1627080">
        <ele>430.0</ele>
        <time>2020-07-17T09:11:16Z</time>
      </trkpt>
      <trkpt lat="37.5534060" lon="-4.1624870">
        <ele>430.4</ele>
        <time>2020-07-17T09:11:21Z</time>
      </trkpt>
      <trkpt lat="37.5532080" lon="-4.1623080">
        <ele>431.0</ele>
        <time>2020-07-17T09:11:25Z</time>
      </trkpt>
      <trkpt lat="37.5529590" lon="-4.1620760">
        <ele>431.6</ele>
        <time>2020-07-17T09:11:30Z</time>
      </trkpt>
      <trkpt lat="37.5526600" lon="-4.1618100">
        <ele>432.0</ele>
        <time>2020-07-17T09:11:36Z</time>
      </trkpt>
      <trkpt lat="37.5523590" lon="-4.1615290">
        <ele>432.6</ele>
        <time>2020-07-17T09:11:42Z</time>
      </trkpt>
      <trkpt lat="37.5519540" lon="-4.1611570">
        <ele>433.4</ele>
        <time>2020-07-17T09:11:50Z</time>
      </trkpt>
      <trkpt lat="37.5518530" lon="-4.1610630">
        <ele>433.8</ele>
        <time>2020-07-17T09:11:52Z</time>
      </trkpt>
      <trkpt lat="37.5513990" lon="-4.1606400">
        <ele>434.4</ele>
        <time>2020-07-17T09:12:01Z</time>
      </trkpt>
      <trkpt lat="37.5513450" lon="-4.1605870">
        <ele>434.6</ele>
        <time>2020-07-17T09:12:02Z</time>
      </trkpt>
      <trkpt lat="37.5512460" lon="-4.1604950">
        <ele>434.8</ele>
        <time>2020-07-17T09:12:04Z</time>
      </trkpt>
      <trkpt lat="37.5509800" lon="-4.1602470">
        <ele>435.6</ele>
        <time>2020-07-17T09:12:09Z</time>
      </trkpt>
      <trkpt lat="37.5508700" lon="-4.1601520">
        <ele>436.0</ele>
        <time>2020-07-17T09:12:11Z</time>
      </trkpt>
      <trkpt lat="37.5506470" lon="-4.1599520">
        <ele>436.4</ele>
        <time>2020-07-17T09:12:15Z</time>
      </trkpt>
      <trkpt lat="37.5503780" lon="-4.1597100">
        <ele>437.0</ele>
        <time>2020-07-17T09:12:20Z</time>
      </trkpt>
      <trkpt lat="37.5498790" lon="-4.1593200">
        <ele>437.8</ele>
        <time>2020-07-17T09:12:29Z</time>
      </trkpt>
      <trkpt lat="37.5498150" lon="-4.1592840">
        <ele>438.0</ele>
        <time>2020-07-17T09:12:30Z</time>
      </trkpt>
      <trkpt lat="37.5493950" lon="-4.1590940">
        <ele>439.0</ele>
        <time>2020-07-17T09:12:37Z</time>
      </trkpt>
      <trkpt lat="37.5493340" lon="-4.1590740">
        <ele>439.2</ele>
        <time>2020-07-17T09:12:38Z</time>
      </trkpt>
      <trkpt lat="37.5489620" lon="-4.1589730">
        <ele>440.0</ele>
        <time>2020-07-17T09:12:44Z</time>
      </trkpt>
      <trkpt lat="37.5488940" lon="-4.1589550">
        <ele>440.2</ele>
        <time>2020-07-17T09:12:45Z</time>
      </trkpt>
      <trkpt lat="37.5485740" lon="-4.1588740">
        <ele>441.0</ele>
        <time>2020-07-17T09:12:50Z</time>
      </trkpt>
      <trkpt lat="37.5484490" lon="-4.1588410">
        <ele>441.4</ele>
        <time>2020-07-17T09:12:52Z</time>
      </trkpt>
      <trkpt lat="37.5482570" lon="-4.1587910">
        <ele>441.8</ele>
        <time>2020-07-17T09:12:55Z</time>
      </trkpt>
      <trkpt lat="37.5480050" lon="-4.1587260">
        <ele>442.4</ele>
        <time>2020-07-17T09:12:59Z</time>
      </trkpt>
      <trkpt lat="37.5474330" lon="-4.1585800">
        <ele>443.2</ele>
        <time>2020-07-17T09:13:08Z</time>
      </trkpt>
      <trkpt lat="37.5473090" lon="-4.1585500">
        <ele>443.6</ele>
        <time>2020-07-17T09:13:10Z</time>
      </trkpt>
      <trkpt lat="37.5467500" lon="-4.1584090">
        <ele>444.6</ele>
        <time>2020-07-17T09:13:19Z</time>
      </trkpt>
      <trkpt lat="37.5466850" lon="-4.1583920">
        <ele>444.6</ele>
        <time>2020-07-17T09:13:20Z</time>
      </trkpt>
      <trkpt lat="37.5465610" lon="-4.1583590">
        <ele>444.6</ele>
        <time>2020-07-17T09:13:22Z</time>
      </trkpt>
      <trkpt lat="37.5459930" lon="-4.1582110">
        <ele>445.2</ele>
        <time>2020-07-17T09:13:31Z</time>
      </trkpt>
      <trkpt lat="37.5456800" lon="-4.1581320">
        <ele>445.6</ele>
        <time>2020-07-17T09:13:36Z</time>
      </trkpt>
      <trkpt lat="37.5456140" lon="-4.1581140">
        <ele>445.8</ele>
        <time>2020-07-17T09:13:37Z</time>
      </trkpt>
      <trkpt lat="37.5450520" lon="-4.1579660">
        <ele>446.2</ele>
        <time>2020-07-17T09:13:46Z</time>
      </trkpt>
      <trkpt lat="37.5447890" lon="-4.1578970">
        <ele>446.6</ele>
        <time>2020-07-17T09:13:50Z</time>
      </trkpt>
      <trkpt lat="37.5446010" lon="-4.1578520">
        <ele>446.8</ele>
        <time>2020-07-17T09:13:53Z</time>
      </trkpt>
      <trkpt lat="37.5441600" lon="-4.1577380">
        <ele>447.8</ele>
        <time>2020-07-17T09:14:00Z</time>
      </trkpt>
      <trkpt lat="37.5440380" lon="-4.1577070">
        <ele>447.8</ele>
        <time>2020-07-17T09:14:02Z</time>
      </trkpt>
      <trkpt lat="37.5435580" lon="-4.1575860">
        <ele>449.0</ele>
        <time>2020-07-17T09:14:10Z</time>
      </trkpt>
      <trkpt lat="37.5432610" lon="-4.1575090">
        <ele>449.4</ele>
        <time>2020-07-17T09:14:15Z</time>
      </trkpt>
      <trkpt lat="37.5430200" lon="-4.1574390">
        <ele>450.0</ele>
        <time>2020-07-17T09:14:19Z</time>
      </trkpt>
      <trkpt lat="37.5428320" lon="-4.1573870">
        <ele>450.6</ele>
        <time>2020-07-17T09:14:22Z</time>
      </trkpt>
      <trkpt lat="37.5426480" lon="-4.1573430">
        <ele>451.2</ele>
        <time>2020-07-17T09:14:25Z</time>
      </trkpt>
      <trkpt lat="37.5421660" lon="-4.1572210">
        <ele>452.2</ele>
        <time>2020-07-17T09:14:33Z</time>
      </trkpt>
      <trkpt lat="37.5421080" lon="-4.1572070">
        <ele>452.2</ele>
        <time>2020-07-17T09:14:34Z</time>
      </trkpt>
      <trkpt lat="37.5416280" lon="-4.1570850">
        <ele>453.2</ele>
        <time>2020-07-17T09:14:42Z</time>
      </trkpt>
      <trkpt lat="37.5413970" lon="-4.1570230">
        <ele>453.8</ele>
        <time>2020-07-17T09:14:46Z</time>
      </trkpt>
      <trkpt lat="37.5412180" lon="-4.1569760">
        <ele>454.2</ele>
        <time>2020-07-17T09:14:49Z</time>
      </trkpt>
      <trkpt lat="37.5407590" lon="-4.1568540">
        <ele>455.4</ele>
        <time>2020-07-17T09:14:57Z</time>
      </trkpt>
      <trkpt lat="37.5405890" lon="-4.1568100">
        <ele>455.8</ele>
        <time>2020-07-17T09:15:00Z</time>
      </trkpt>
      <trkpt lat="37.5402580" lon="-4.1567290">
        <ele>456.4</ele>
        <time>2020-07-17T09:15:06Z</time>
      </trkpt>
      <trkpt lat="37.5398020" lon="-4.1566390">
        <ele>457.6</ele>
        <time>2020-07-17T09:15:14Z</time>
      </trkpt>
      <trkpt lat="37.5392910" lon="-4.1565660">
        <ele>458.6</ele>
        <time>2020-07-17T09:15:23Z</time>
      </trkpt>
      <trkpt lat="37.5391210" lon="-4.1565510">
        <ele>459.0</ele>
        <time>2020-07-17T09:15:26Z</time>
      </trkpt>
      <trkpt lat="37.5388370" lon="-4.1565310">
        <ele>459.8</ele>
        <time>2020-07-17T09:15:31Z</time>
      </trkpt>
      <trkpt lat="37.5385420" lon="-4.1565020">
        <ele>460.4</ele>
        <time>2020-07-17T09:15:36Z</time>
      </trkpt>
      <trkpt lat="37.5383530" lon="-4.1564890">
        <ele>460.8</ele>
        <time>2020-07-17T09:15:39Z</time>
      </trkpt>
      <trkpt lat="37.5378830" lon="-4.1564580">
        <ele>461.8</ele>
        <time>2020-07-17T09:15:47Z</time>
      </trkpt>
      <trkpt lat="37.5378240" lon="-4.1564530">
        <ele>462.0</ele>
        <time>2020-07-17T09:15:48Z</time>
      </trkpt>
      <trkpt lat="37.5374220" lon="-4.1564220">
        <ele>462.8</ele>
        <time>2020-07-17T09:15:55Z</time>
      </trkpt>
      <trkpt lat="37.5370850" lon="-4.1563960">
        <ele>464.0</ele>
        <time>2020-07-17T09:16:01Z</time>
      </trkpt>
      <trkpt lat="37.5370270" lon="-4.1563910">
        <ele>464.0</ele>
        <time>2020-07-17T09:16:02Z</time>
      </trkpt>
      <trkpt lat="37.5366500" lon="-4.1563620">
        <ele>465.2</ele>
        <time>2020-07-17T09:16:09Z</time>
      </trkpt>
      <trkpt lat="37.5364430" lon="-4.1563460">
        <ele>466.0</ele>
        <time>2020-07-17T09:16:13Z</time>
      </trkpt>
      <trkpt lat="37.5363930" lon="-4.1563420">
        <ele>466.2</ele>
        <time>2020-07-17T09:16:14Z</time>
      </trkpt>
      <trkpt lat="37.5361510" lon="-4.1563260">
        <ele>467.4</ele>
        <time>2020-07-17T09:16:19Z</time>
      </trkpt>
      <trkpt lat="37.5358600" lon="-4.1563050">
        <ele>468.4</ele>
        <time>2020-07-17T09:16:25Z</time>
      </trkpt>
      <trkpt lat="37.5357190" lon="-4.1562920">
        <ele>469.0</ele>
        <time>2020-07-17T09:16:28Z</time>
      </trkpt>
      <trkpt lat="37.5355740" lon="-4.1562810">
        <ele>469.6</ele>
        <time>2020-07-17T09:16:31Z</time>
      </trkpt>
      <trkpt lat="37.5351740" lon="-4.1562540">
        <ele>470.6</ele>
        <time>2020-07-17T09:16:39Z</time>
      </trkpt>
      <trkpt lat="37.5348590" lon="-4.1562440">
        <ele>471.8</ele>
        <time>2020-07-17T09:16:45Z</time>
      </trkpt>
      <trkpt lat="37.5344930" lon="-4.1562600">
        <ele>472.4</ele>
        <time>2020-07-17T09:16:52Z</time>
      </trkpt>
      <trkpt lat="37.5343870" lon="-4.1562690">
        <ele>473.0</ele>
        <time>2020-07-17T09:16:54Z</time>
      </trkpt>
      <trkpt lat="37.5340770" lon="-4.1563150">
        <ele>474.0</ele>
        <time>2020-07-17T09:17:00Z</time>
      </trkpt>
      <trkpt lat="37.5339250" lon="-4.1563500">
        <ele>474.4</ele>
        <time>2020-07-17T09:17:03Z</time>
      </trkpt>
      <trkpt lat="37.5336720" lon="-4.1564130">
        <ele>475.2</ele>
        <time>2020-07-17T09:17:08Z</time>
      </trkpt>
      <trkpt lat="37.5334120" lon="-4.1564770">
        <ele>475.8</ele>
        <time>2020-07-17T09:17:13Z</time>
      </trkpt>
      <trkpt lat="37.5333040" lon="-4.1565050">
        <ele>476.2</ele>
        <time>2020-07-17T09:17:15Z</time>
      </trkpt>
      <trkpt lat="37.5330350" lon="-4.1565890">
        <ele>477.2</ele>
        <time>2020-07-17T09:17:20Z</time>
      </trkpt>
      <trkpt lat="37.5329830" lon="-4.1566050">
        <ele>477.4</ele>
        <time>2020-07-17T09:17:21Z</time>
      </trkpt>
      <trkpt lat="37.5326090" lon="-4.1567340">
        <ele>478.4</ele>
        <time>2020-07-17T09:17:28Z</time>
      </trkpt>
      <trkpt lat="37.5324990" lon="-4.1567680">
        <ele>478.6</ele>
        <time>2020-07-17T09:17:30Z</time>
      </trkpt>
      <trkpt lat="37.5320560" lon="-4.1568950">
        <ele>479.6</ele>
        <time>2020-07-17T09:17:38Z</time>
      </trkpt>
      <trkpt lat="37.5317720" lon="-4.1569810">
        <ele>480.4</ele>
        <time>2020-07-17T09:17:43Z</time>
      </trkpt>
      <trkpt lat="37.5317170" lon="-4.1569980">
        <ele>480.6</ele>
        <time>2020-07-17T09:17:44Z</time>
      </trkpt>
      <trkpt lat="37.5313290" lon="-4.1571220">
        <ele>481.6</ele>
        <time>2020-07-17T09:17:51Z</time>
      </trkpt>
      <trkpt lat="37.5310550" lon="-4.1572040">
        <ele>482.4</ele>
        <time>2020-07-17T09:17:56Z</time>
      </trkpt>
      <trkpt lat="37.5309410" lon="-4.1572370">
        <ele>482.8</ele>
        <time>2020-07-17T09:17:58Z</time>
      </trkpt>
      <trkpt lat="37.5305500" lon="-4.1573450">
        <ele>483.8</ele>
        <time>2020-07-17T09:18:05Z</time>
      </trkpt>
      <trkpt lat="37.5303260" lon="-4.1574040">
        <ele>484.2</ele>
        <time>2020-07-17T09:18:09Z</time>
      </trkpt>
      <trkpt lat="37.5298800" lon="-4.1575040">
        <ele>484.8</ele>
        <time>2020-07-17T09:18:17Z</time>
      </trkpt>
      <trkpt lat="37.5296330" lon="-4.1575460">
        <ele>485.4</ele>
        <time>2020-07-17T09:18:21Z</time>
      </trkpt>
      <trkpt lat="37.5293920" lon="-4.1575920">
        <ele>485.8</ele>
        <time>2020-07-17T09:18:25Z</time>
      </trkpt>
      <trkpt lat="37.5289150" lon="-4.1576920">
        <ele>487.0</ele>
        <time>2020-07-17T09:18:33Z</time>
      </trkpt>
      <trkpt lat="37.5288590" lon="-4.1577040">
        <ele>487.0</ele>
        <time>2020-07-17T09:18:34Z</time>
      </trkpt>
      <trkpt lat="37.5283230" lon="-4.1578240">
        <ele>488.0</ele>
        <time>2020-07-17T09:18:43Z</time>
      </trkpt>
      <trkpt lat="37.5281440" lon="-4.1578650">
        <ele>488.6</ele>
        <time>2020-07-17T09:18:46Z</time>
      </trkpt>
      <trkpt lat="37.5279620" lon="-4.1579060">
        <ele>489.0</ele>
        <time>2020-07-17T09:18:49Z</time>
      </trkpt>
      <trkpt lat="37.5274270" lon="-4.1580280">
        <ele>490.0</ele>
        <time>2020-07-17T09:18:58Z</time>
      </trkpt>
      <trkpt lat="37.5273710" lon="-4.1580390">
        <ele>490.0</ele>
        <time>2020-07-17T09:18:59Z</time>
      </trkpt>
      <trkpt lat="37.5268420" lon="-4.1581480">
        <ele>491.2</ele>
        <time>2020-07-17T09:19:08Z</time>
      </trkpt>
      <trkpt lat="37.5267310" lon="-4.1581690">
        <ele>491.4</ele>
        <time>2020-07-17T09:19:10Z</time>
      </trkpt>
      <trkpt lat="37.5263310" lon="-4.1582380">
        <ele>492.2</ele>
        <time>2020-07-17T09:19:17Z</time>
      </trkpt>
      <trkpt lat="37.5262150" lon="-4.1582530">
        <ele>492.8</ele>
        <time>2020-07-17T09:19:19Z</time>
      </trkpt>
      <trkpt lat="37.5260000" lon="-4.1582810">
        <ele>493.4</ele>
        <time>2020-07-17T09:19:23Z</time>
      </trkpt>
      <trkpt lat="37.5257830" lon="-4.1583100">
        <ele>494.6</ele>
        <time>2020-07-17T09:19:27Z</time>
      </trkpt>
      <trkpt lat="37.5257320" lon="-4.1583170">
        <ele>494.8</ele>
        <time>2020-07-17T09:19:28Z</time>
      </trkpt>
      <trkpt lat="37.5255310" lon="-4.1583420">
        <ele>495.8</ele>
        <time>2020-07-17T09:19:32Z</time>
      </trkpt>
      <trkpt lat="37.5253480" lon="-4.1583660">
        <ele>496.4</ele>
        <time>2020-07-17T09:19:36Z</time>
      </trkpt>
      <trkpt lat="37.5252570" lon="-4.1583810">
        <ele>496.8</ele>
        <time>2020-07-17T09:19:38Z</time>
      </trkpt>
      <trkpt lat="37.5250090" lon="-4.1584310">
        <ele>498.0</ele>
        <time>2020-07-17T09:19:44Z</time>
      </trkpt>
      <trkpt lat="37.5248940" lon="-4.1584690">
        <ele>498.6</ele>
        <time>2020-07-17T09:19:47Z</time>
      </trkpt>
      <trkpt lat="37.5248510" lon="-4.1584830">
        <ele>499.0</ele>
        <time>2020-07-17T09:19:48Z</time>
      </trkpt>
      <trkpt lat="37.5246590" lon="-4.1585480">
        <ele>500.2</ele>
        <time>2020-07-17T09:19:53Z</time>
      </trkpt>
      <trkpt lat="37.5245820" lon="-4.1585760">
        <ele>500.8</ele>
        <time>2020-07-17T09:19:55Z</time>
      </trkpt>
      <trkpt lat="37.5244720" lon="-4.1586200">
        <ele>501.4</ele>
        <time>2020-07-17T09:19:58Z</time>
      </trkpt>
      <trkpt lat="37.5242700" lon="-4.1587150">
        <ele>502.2</ele>
        <time>2020-07-17T09:20:04Z</time>
      </trkpt>
      <trkpt lat="37.5242460" lon="-4.1587270">
        <ele>502.6</ele>
        <time>2020-07-17T09:20:05Z</time>
      </trkpt>
      <trkpt lat="37.5240780" lon="-4.1588190">
        <ele>503.6</ele>
        <time>2020-07-17T09:20:10Z</time>
      </trkpt>
      <trkpt lat="37.5239490" lon="-4.1588910">
        <ele>504.8</ele>
        <time>2020-07-17T09:20:14Z</time>
      </trkpt>
      <trkpt lat="37.5239170" lon="-4.1589080">
        <ele>505.0</ele>
        <time>2020-07-17T09:20:15Z</time>
      </trkpt>
      <trkpt lat="37.5237580" lon="-4.1589960">
        <ele>505.8</ele>
        <time>2020-07-17T09:20:20Z</time>
      </trkpt>
      <trkpt lat="37.5236310" lon="-4.1590660">
        <ele>506.8</ele>
        <time>2020-07-17T09:20:24Z</time>
      </trkpt>
      <trkpt lat="37.5234760" lon="-4.1591470">
        <ele>507.6</ele>
        <time>2020-07-17T09:20:29Z</time>
      </trkpt>
      <trkpt lat="37.5234130" lon="-4.1591790">
        <ele>508.0</ele>
        <time>2020-07-17T09:20:31Z</time>
      </trkpt>
      <trkpt lat="37.5232540" lon="-4.1592630">
        <ele>509.0</ele>
        <time>2020-07-17T09:20:36Z</time>
      </trkpt>
      <trkpt lat="37.5230910" lon="-4.1593410">
        <ele>510.2</ele>
        <time>2020-07-17T09:20:41Z</time>
      </trkpt>
      <trkpt lat="37.5230550" lon="-4.1593570">
        <ele>510.4</ele>
        <time>2020-07-17T09:20:42Z</time>
      </trkpt>
      <trkpt lat="37.5228890" lon="-4.1594460">
        <ele>511.4</ele>
        <time>2020-07-17T09:20:47Z</time>
      </trkpt>
      <trkpt lat="37.5227540" lon="-4.1595140">
        <ele>512.0</ele>
        <time>2020-07-17T09:20:51Z</time>
      </trkpt>
      <trkpt lat="37.5226520" lon="-4.1595700">
        <ele>512.4</ele>
        <time>2020-07-17T09:20:54Z</time>
      </trkpt>
      <trkpt lat="37.5225190" lon="-4.1596370">
        <ele>513.6</ele>
        <time>2020-07-17T09:20:58Z</time>
      </trkpt>
      <trkpt lat="37.5223860" lon="-4.1596890">
        <ele>514.6</ele>
        <time>2020-07-17T09:21:02Z</time>
      </trkpt>
      <trkpt lat="37.5223520" lon="-4.1597030">
        <ele>514.8</ele>
        <time>2020-07-17T09:21:03Z</time>
      </trkpt>
      <trkpt lat="37.5221600" lon="-4.1597830">
        <ele>515.8</ele>
        <time>2020-07-17T09:21:09Z</time>
      </trkpt>
      <trkpt lat="37.5220590" lon="-4.1598190">
        <ele>516.2</ele>
        <time>2020-07-17T09:21:12Z</time>
      </trkpt>
      <trkpt lat="37.5218890" lon="-4.1598730">
        <ele>517.0</ele>
        <time>2020-07-17T09:21:17Z</time>
      </trkpt>
      <trkpt lat="37.5217870" lon="-4.1599130">
        <ele>518.0</ele>
        <time>2020-07-17T09:21:20Z</time>
      </trkpt>
      <trkpt lat="37.5217550" lon="-4.1599250">
        <ele>518.2</ele>
        <time>2020-07-17T09:21:21Z</time>
      </trkpt>
      <trkpt lat="37.5215160" lon="-4.1600200">
        <ele>519.2</ele>
        <time>2020-07-17T09:21:28Z</time>
      </trkpt>
      <trkpt lat="37.5214120" lon="-4.1600580">
        <ele>519.6</ele>
        <time>2020-07-17T09:21:31Z</time>
      </trkpt>
      <trkpt lat="37.5212660" lon="-4.1601050">
        <ele>520.2</ele>
        <time>2020-07-17T09:21:35Z</time>
      </trkpt>
      <trkpt lat="37.5210890" lon="-4.1601700">
        <ele>521.4</ele>
        <time>2020-07-17T09:21:40Z</time>
      </trkpt>
      <trkpt lat="37.5209810" lon="-4.1602060">
        <ele>522.2</ele>
        <time>2020-07-17T09:21:43Z</time>
      </trkpt>
      <trkpt lat="37.5209110" lon="-4.1602300">
        <ele>522.6</ele>
        <time>2020-07-17T09:21:45Z</time>
      </trkpt>
      <trkpt lat="37.5207380" lon="-4.1602980">
        <ele>523.6</ele>
        <time>2020-07-17T09:21:50Z</time>
      </trkpt>
      <trkpt lat="37.5206680" lon="-4.1603210">
        <ele>524.0</ele>
        <time>2020-07-17T09:21:52Z</time>
      </trkpt>
      <trkpt lat="37.5205300" lon="-4.1603670">
        <ele>524.8</ele>
        <time>2020-07-17T09:21:56Z</time>
      </trkpt>
      <trkpt lat="37.5203140" lon="-4.1604440">
        <ele>526.0</ele>
        <time>2020-07-17T09:22:02Z</time>
      </trkpt>
      <trkpt lat="37.5202040" lon="-4.1604820">
        <ele>526.6</ele>
        <time>2020-07-17T09:22:05Z</time>
      </trkpt>
      <trkpt lat="37.5200910" lon="-4.1605230">
        <ele>527.0</ele>
        <time>2020-07-17T09:22:08Z</time>
      </trkpt>
      <trkpt lat="37.5198150" lon="-4.1606150">
        <ele>528.2</ele>
        <time>2020-07-17T09:22:15Z</time>
      </trkpt>
      <trkpt lat="37.5197780" lon="-4.1606270">
        <ele>528.2</ele>
        <time>2020-07-17T09:22:16Z</time>
      </trkpt>
      <trkpt lat="37.5193890" lon="-4.1607350">
        <ele>529.2</ele>
        <time>2020-07-17T09:22:25Z</time>
      </trkpt>
      <trkpt lat="37.5191230" lon="-4.1608370">
        <ele>529.6</ele>
        <time>2020-07-17T09:22:31Z</time>
      </trkpt>
      <trkpt lat="37.5189800" lon="-4.1609070">
        <ele>529.8</ele>
        <time>2020-07-17T09:22:34Z</time>
      </trkpt>
      <trkpt lat="37.5188330" lon="-4.1609890">
        <ele>529.8</ele>
        <time>2020-07-17T09:22:37Z</time>
      </trkpt>
      <trkpt lat="37.5187440" lon="-4.1610500">
        <ele>530.0</ele>
        <time>2020-07-17T09:22:39Z</time>
      </trkpt>
      <trkpt lat="37.5184510" lon="-4.1613010">
        <ele>530.2</ele>
        <time>2020-07-17T09:22:46Z</time>
      </trkpt>
      <trkpt lat="37.5183300" lon="-4.1614330">
        <ele>530.6</ele>
        <time>2020-07-17T09:22:49Z</time>
      </trkpt>
      <trkpt lat="37.5180030" lon="-4.1618130">
        <ele>530.8</ele>
        <time>2020-07-17T09:22:57Z</time>
      </trkpt>
      <trkpt lat="37.5177390" lon="-4.1621630">
        <ele>530.6</ele>
        <time>2020-07-17T09:23:03Z</time>
      </trkpt>
      <trkpt lat="37.5176990" lon="-4.1622270">
        <ele>530.6</ele>
        <time>2020-07-17T09:23:04Z</time>
      </trkpt>
      <trkpt lat="37.5174470" lon="-4.1627250">
        <ele>530.0</ele>
        <time>2020-07-17T09:23:11Z</time>
      </trkpt>
      <trkpt lat="37.5172160" lon="-4.1632580">
        <ele>530.8</ele>
        <time>2020-07-17T09:23:19Z</time>
      </trkpt>
      <trkpt lat="37.5171630" lon="-4.1633720">
        <ele>531.2</ele>
        <time>2020-07-17T09:23:21Z</time>
      </trkpt>
      <trkpt lat="37.5171350" lon="-4.1634280">
        <ele>531.4</ele>
        <time>2020-07-17T09:23:22Z</time>
      </trkpt>
      <trkpt lat="37.5170760" lon="-4.1635300">
        <ele>531.8</ele>
        <time>2020-07-17T09:23:24Z</time>
      </trkpt>
      <trkpt lat="37.5170200" lon="-4.1636170">
        <ele>532.2</ele>
        <time>2020-07-17T09:23:26Z</time>
      </trkpt>
      <trkpt lat="37.5169880" lon="-4.1636630">
        <ele>532.6</ele>
        <time>2020-07-17T09:23:27Z</time>
      </trkpt>
      <trkpt lat="37.5168660" lon="-4.1638180">
        <ele>533.2</ele>
        <time>2020-07-17T09:23:31Z</time>
      </trkpt>
      <trkpt lat="37.5168030" lon="-4.1638920">
        <ele>533.8</ele>
        <time>2020-07-17T09:23:33Z</time>
      </trkpt>
      <trkpt lat="37.5167720" lon="-4.1639220">
        <ele>534.2</ele>
        <time>2020-07-17T09:23:34Z</time>
      </trkpt>
      <trkpt lat="37.5166760" lon="-4.1640180">
        <ele>535.0</ele>
        <time>2020-07-17T09:23:37Z</time>
      </trkpt>
      <trkpt lat="37.5165430" lon="-4.1641190">
        <ele>536.0</ele>
        <time>2020-07-17T09:23:41Z</time>
      </trkpt>
      <trkpt lat="37.5165070" lon="-4.1641430">
        <ele>536.2</ele>
        <time>2020-07-17T09:23:42Z</time>
      </trkpt>
      <trkpt lat="37.5163470" lon="-4.1642470">
        <ele>537.2</ele>
        <time>2020-07-17T09:23:47Z</time>
      </trkpt>
      <trkpt lat="37.5162250" lon="-4.1643160">
        <ele>538.0</ele>
        <time>2020-07-17T09:23:51Z</time>
      </trkpt>
      <trkpt lat="37.5161970" lon="-4.1643310">
        <ele>538.2</ele>
        <time>2020-07-17T09:23:52Z</time>
      </trkpt>
      <trkpt lat="37.5161600" lon="-4.1643660">
        <ele>538.8</ele>
        <time>2020-07-17T09:23:54Z</time>
      </trkpt>
      <trkpt lat="37.5161670" lon="-4.1643870">
        <ele>539.0</ele>
        <time>2020-07-17T09:23:55Z</time>
      </trkpt>
      <trkpt lat="37.5161790" lon="-4.1644110">
        <ele>539.2</ele>
        <time>2020-07-17T09:23:56Z</time>
      </trkpt>
      <trkpt lat="37.5161820" lon="-4.1645250">
        <ele>539.8</ele>
        <time>2020-07-17T09:23:59Z</time>
      </trkpt>
      <trkpt lat="37.5161760" lon="-4.1645670">
        <ele>540.0</ele>
        <time>2020-07-17T09:24:00Z</time>
      </trkpt>
      <trkpt lat="37.5161620" lon="-4.1647040">
        <ele>540.4</ele>
        <time>2020-07-17T09:24:03Z</time>
      </trkpt>
      <trkpt lat="37.5161470" lon="-4.1648580">
        <ele>540.6</ele>
        <time>2020-07-17T09:24:06Z</time>
      </trkpt>
      <trkpt lat="37.5161080" lon="-4.1651600">
        <ele>540.6</ele>
        <time>2020-07-17T09:24:10Z</time>
      </trkpt>
      <trkpt lat="37.5160580" lon="-4.1654810">
        <ele>539.6</ele>
        <time>2020-07-17T09:24:13Z</time>
      </trkpt>
      <trkpt lat="37.5160380" lon="-4.1656030">
        <ele>538.8</ele>
        <time>2020-07-17T09:24:14Z</time>
      </trkpt>
      <trkpt lat="37.5159900" lon="-4.1658090">
        <ele>536.6</ele>
        <time>2020-07-17T09:24:16Z</time>
      </trkpt>
      <trkpt lat="37.5159470" lon="-4.1659070">
        <ele>535.6</ele>
        <time>2020-07-17T09:24:17Z</time>
      </trkpt>
      <trkpt lat="37.5158840" lon="-4.1659840">
        <ele>534.6</ele>
        <time>2020-07-17T09:24:18Z</time>
      </trkpt>
      <trkpt lat="37.5158000" lon="-4.1660410">
        <ele>533.8</ele>
        <time>2020-07-17T09:24:19Z</time>
      </trkpt>
      <trkpt lat="37.5157060" lon="-4.1660710">
        <ele>532.8</ele>
        <time>2020-07-17T09:24:20Z</time>
      </trkpt>
      <trkpt lat="37.5156100" lon="-4.1660710">
        <ele>532.0</ele>
        <time>2020-07-17T09:24:21Z</time>
      </trkpt>
      <trkpt lat="37.5155080" lon="-4.1660370">
        <ele>531.2</ele>
        <time>2020-07-17T09:24:22Z</time>
      </trkpt>
      <trkpt lat="37.5154140" lon="-4.1659770">
        <ele>530.2</ele>
        <time>2020-07-17T09:24:23Z</time>
      </trkpt>
      <trkpt lat="37.5153290" lon="-4.1659130">
        <ele>529.4</ele>
        <time>2020-07-17T09:24:24Z</time>
      </trkpt>
      <trkpt lat="37.5151520" lon="-4.1657940">
        <ele>528.2</ele>
        <time>2020-07-17T09:24:26Z</time>
      </trkpt>
      <trkpt lat="37.5150590" lon="-4.1657480">
        <ele>527.8</ele>
        <time>2020-07-17T09:24:27Z</time>
      </trkpt>
      <trkpt lat="37.5149690" lon="-4.1657110">
        <ele>527.8</ele>
        <time>2020-07-17T09:24:28Z</time>
      </trkpt>
      <trkpt lat="37.5147040" lon="-4.1655990">
        <ele>527.6</ele>
        <time>2020-07-17T09:24:31Z</time>
      </trkpt>
      <trkpt lat="37.5145540" lon="-4.1654630">
        <ele>527.4</ele>
        <time>2020-07-17T09:24:33Z</time>
      </trkpt>
      <trkpt lat="37.5144540" lon="-4.1651650">
        <ele>527.6</ele>
        <time>2020-07-17T09:24:36Z</time>
      </trkpt>
      <trkpt lat="37.5144210" lon="-4.1648290">
        <ele>527.4</ele>
        <time>2020-07-17T09:24:39Z</time>
      </trkpt>
      <trkpt lat="37.5142880" lon="-4.1646850">
        <ele>527.2</ele>
        <time>2020-07-17T09:24:41Z</time>
      </trkpt>
      <trkpt lat="37.5140830" lon="-4.1646970">
        <ele>526.4</ele>
        <time>2020-07-17T09:24:43Z</time>
      </trkpt>
      <trkpt lat="37.5139960" lon="-4.1647660">
        <ele>525.8</ele>
        <time>2020-07-17T09:24:44Z</time>
      </trkpt>
      <trkpt lat="37.5139150" lon="-4.1648440">
        <ele>525.2</ele>
        <time>2020-07-17T09:24:45Z</time>
      </trkpt>
      <trkpt lat="37.5138380" lon="-4.1649120">
        <ele>524.6</ele>
        <time>2020-07-17T09:24:46Z</time>
      </trkpt>
      <trkpt lat="37.5137400" lon="-4.1649770">
        <ele>524.0</ele>
        <time>2020-07-17T09:24:47Z</time>
      </trkpt>
      <trkpt lat="37.5135350" lon="-4.1650590">
        <ele>523.4</ele>
        <time>2020-07-17T09:24:49Z</time>
      </trkpt>
      <trkpt lat="37.5132350" lon="-4.1650040">
        <ele>522.6</ele>
        <time>2020-07-17T09:24:52Z</time>
      </trkpt>
      <trkpt lat="37.5130790" lon="-4.1648260">
        <ele>522.2</ele>
        <time>2020-07-17T09:24:54Z</time>
      </trkpt>
      <trkpt lat="37.5130170" lon="-4.1647200">
        <ele>522.0</ele>
        <time>2020-07-17T09:24:55Z</time>
      </trkpt>
      <trkpt lat="37.5129070" lon="-4.1644970">
        <ele>521.6</ele>
        <time>2020-07-17T09:24:57Z</time>
      </trkpt>
      <trkpt lat="37.5128040" lon="-4.1642800">
        <ele>521.2</ele>
        <time>2020-07-17T09:24:59Z</time>
      </trkpt>
      <trkpt lat="37.5127460" lon="-4.1641690">
        <ele>520.8</ele>
        <time>2020-07-17T09:25:00Z</time>
      </trkpt>
      <trkpt lat="37.5126870" lon="-4.1640790">
        <ele>520.4</ele>
        <time>2020-07-17T09:25:01Z</time>
      </trkpt>
      <trkpt lat="37.5125010" lon="-4.1639970">
        <ele>520.0</ele>
        <time>2020-07-17T09:25:03Z</time>
      </trkpt>
      <trkpt lat="37.5123190" lon="-4.1640630">
        <ele>519.6</ele>
        <time>2020-07-17T09:25:05Z</time>
      </trkpt>
      <trkpt lat="37.5122270" lon="-4.1640760">
        <ele>519.6</ele>
        <time>2020-07-17T09:25:06Z</time>
      </trkpt>
      <trkpt lat="37.5120480" lon="-4.1639850">
        <ele>519.2</ele>
        <time>2020-07-17T09:25:08Z</time>
      </trkpt>
      <trkpt lat="37.5119330" lon="-4.1638060">
        <ele>519.0</ele>
        <time>2020-07-17T09:25:10Z</time>
      </trkpt>
      <trkpt lat="37.5118810" lon="-4.1637120">
        <ele>518.8</ele>
        <time>2020-07-17T09:25:11Z</time>
      </trkpt>
      <trkpt lat="37.5118160" lon="-4.1636140">
        <ele>518.8</ele>
        <time>2020-07-17T09:25:12Z</time>
      </trkpt>
      <trkpt lat="37.5116650" lon="-4.1635030">
        <ele>518.8</ele>
        <time>2020-07-17T09:25:14Z</time>
      </trkpt>
      <trkpt lat="37.5115130" lon="-4.1635250">
        <ele>518.8</ele>
        <time>2020-07-17T09:25:16Z</time>
      </trkpt>
      <trkpt lat="37.5113620" lon="-4.1635950">
        <ele>519.0</ele>
        <time>2020-07-17T09:25:18Z</time>
      </trkpt>
      <trkpt lat="37.5112180" lon="-4.1636410">
        <ele>519.4</ele>
        <time>2020-07-17T09:25:20Z</time>
      </trkpt>
      <trkpt lat="37.5110700" lon="-4.1636330">
        <ele>520.0</ele>
        <time>2020-07-17T09:25:22Z</time>
      </trkpt>
      <trkpt lat="37.5109920" lon="-4.1636100">
        <ele>520.2</ele>
        <time>2020-07-17T09:25:23Z</time>
      </trkpt>
      <trkpt lat="37.5109100" lon="-4.1635770">
        <ele>520.4</ele>
        <time>2020-07-17T09:25:24Z</time>
      </trkpt>
      <trkpt lat="37.5105770" lon="-4.1634310">
        <ele>519.8</ele>
        <time>2020-07-17T09:25:28Z</time>
      </trkpt>
      <trkpt lat="37.5104860" lon="-4.1633920">
        <ele>519.4</ele>
        <time>2020-07-17T09:25:29Z</time>
      </trkpt>
      <trkpt lat="37.5103150" lon="-4.1633000">
        <ele>518.6</ele>
        <time>2020-07-17T09:25:31Z</time>
      </trkpt>
      <trkpt lat="37.5101480" lon="-4.1631650">
        <ele>518.0</ele>
        <time>2020-07-17T09:25:33Z</time>
      </trkpt>
      <trkpt lat="37.5100050" lon="-4.1629870">
        <ele>517.4</ele>
        <time>2020-07-17T09:25:35Z</time>
      </trkpt>
      <trkpt lat="37.5098580" lon="-4.1628040">
        <ele>516.8</ele>
        <time>2020-07-17T09:25:37Z</time>
      </trkpt>
      <trkpt lat="37.5097700" lon="-4.1627230">
        <ele>516.6</ele>
        <time>2020-07-17T09:25:38Z</time>
      </trkpt>
      <trkpt lat="37.5096720" lon="-4.1626610">
        <ele>516.2</ele>
        <time>2020-07-17T09:25:39Z</time>
      </trkpt>
      <trkpt lat="37.5095730" lon="-4.1626330">
        <ele>515.6</ele>
        <time>2020-07-17T09:25:40Z</time>
      </trkpt>
      <trkpt lat="37.5094680" lon="-4.1626440">
        <ele>515.2</ele>
        <time>2020-07-17T09:25:41Z</time>
      </trkpt>
      <trkpt lat="37.5093660" lon="-4.1627060">
        <ele>514.8</ele>
        <time>2020-07-17T09:25:42Z</time>
      </trkpt>
      <trkpt lat="37.5092380" lon="-4.1629180">
        <ele>513.6</ele>
        <time>2020-07-17T09:25:44Z</time>
      </trkpt>
      <trkpt lat="37.5091900" lon="-4.1630360">
        <ele>513.2</ele>
        <time>2020-07-17T09:25:45Z</time>
      </trkpt>
      <trkpt lat="37.5091480" lon="-4.1631500">
        <ele>512.4</ele>
        <time>2020-07-17T09:25:46Z</time>
      </trkpt>
      <trkpt lat="37.5090010" lon="-4.1635470">
        <ele>511.0</ele>
        <time>2020-07-17T09:25:49Z</time>
      </trkpt>
      <trkpt lat="37.5089530" lon="-4.1636750">
        <ele>510.6</ele>
        <time>2020-07-17T09:25:50Z</time>
      </trkpt>
      <trkpt lat="37.5088530" lon="-4.1639390">
        <ele>509.6</ele>
        <time>2020-07-17T09:25:52Z</time>
      </trkpt>
      <trkpt lat="37.5087460" lon="-4.1642130">
        <ele>508.8</ele>
        <time>2020-07-17T09:25:54Z</time>
      </trkpt>
      <trkpt lat="37.5086900" lon="-4.1643320">
        <ele>508.2</ele>
        <time>2020-07-17T09:25:55Z</time>
      </trkpt>
      <trkpt lat="37.5086250" lon="-4.1644460">
        <ele>507.8</ele>
        <time>2020-07-17T09:25:56Z</time>
      </trkpt>
      <trkpt lat="37.5084730" lon="-4.1646610">
        <ele>507.2</ele>
        <time>2020-07-17T09:25:58Z</time>
      </trkpt>
      <trkpt lat="37.5083050" lon="-4.1648630">
        <ele>506.8</ele>
        <time>2020-07-17T09:26:00Z</time>
      </trkpt>
      <trkpt lat="37.5082290" lon="-4.1649360">
        <ele>506.6</ele>
        <time>2020-07-17T09:26:01Z</time>
      </trkpt>
      <trkpt lat="37.5080290" lon="-4.1650160">
        <ele>506.0</ele>
        <time>2020-07-17T09:26:03Z</time>
      </trkpt>
      <trkpt lat="37.5078260" lon="-4.1649590">
        <ele>505.0</ele>
        <time>2020-07-17T09:26:05Z</time>
      </trkpt>
      <trkpt lat="37.5077380" lon="-4.1649140">
        <ele>505.0</ele>
        <time>2020-07-17T09:26:06Z</time>
      </trkpt>
      <trkpt lat="37.5074160" lon="-4.1647130">
        <ele>505.6</ele>
        <time>2020-07-17T09:26:10Z</time>
      </trkpt>
      <trkpt lat="37.5073540" lon="-4.1646520">
        <ele>506.0</ele>
        <time>2020-07-17T09:26:11Z</time>
      </trkpt>
      <trkpt lat="37.5072500" lon="-4.1644990">
        <ele>506.6</ele>
        <time>2020-07-17T09:26:13Z</time>
      </trkpt>
      <trkpt lat="37.5072150" lon="-4.1644160">
        <ele>507.0</ele>
        <time>2020-07-17T09:26:14Z</time>
      </trkpt>
      <trkpt lat="37.5071860" lon="-4.1643310">
        <ele>507.4</ele>
        <time>2020-07-17T09:26:15Z</time>
      </trkpt>
      <trkpt lat="37.5071440" lon="-4.1641620">
        <ele>507.6</ele>
        <time>2020-07-17T09:26:17Z</time>
      </trkpt>
      <trkpt lat="37.5071090" lon="-4.1639780">
        <ele>508.0</ele>
        <time>2020-07-17T09:26:19Z</time>
      </trkpt>
      <trkpt lat="37.5070620" lon="-4.1638090">
        <ele>508.2</ele>
        <time>2020-07-17T09:26:21Z</time>
      </trkpt>
      <trkpt lat="37.5069950" lon="-4.1636450">
        <ele>508.4</ele>
        <time>2020-07-17T09:26:23Z</time>
      </trkpt>
      <trkpt lat="37.5068760" lon="-4.1634060">
        <ele>508.6</ele>
        <time>2020-07-17T09:26:26Z</time>
      </trkpt>
      <trkpt lat="37.5067210" lon="-4.1630760">
        <ele>509.0</ele>
        <time>2020-07-17T09:26:30Z</time>
      </trkpt>
      <trkpt lat="37.5066850" lon="-4.1629930">
        <ele>509.0</ele>
        <time>2020-07-17T09:26:31Z</time>
      </trkpt>
      <trkpt lat="37.5065060" lon="-4.1626620">
        <ele>508.4</ele>
        <time>2020-07-17T09:26:35Z</time>
      </trkpt>
      <trkpt lat="37.5064530" lon="-4.1626070">
        <ele>508.2</ele>
        <time>2020-07-17T09:26:36Z</time>
      </trkpt>
      <trkpt lat="37.5063070" lon="-4.1625640">
        <ele>508.2</ele>
        <time>2020-07-17T09:26:38Z</time>
      </trkpt>
      <trkpt lat="37.5061110" lon="-4.1626630">
        <ele>508.2</ele>
        <time>2020-07-17T09:26:41Z</time>
      </trkpt>
      <trkpt lat="37.5060480" lon="-4.1627090">
        <ele>508.4</ele>
        <time>2020-07-17T09:26:42Z</time>
      </trkpt>
      <trkpt lat="37.5058360" lon="-4.1628890">
        <ele>509.2</ele>
        <time>2020-07-17T09:26:46Z</time>
      </trkpt>
      <trkpt lat="37.5057760" lon="-4.1629420">
        <ele>509.4</ele>
        <time>2020-07-17T09:26:47Z</time>
      </trkpt>
      <trkpt lat="37.5053170" lon="-4.1633380">
        <ele>510.2</ele>
        <time>2020-07-17T09:26:55Z</time>
      </trkpt>
      <trkpt lat="37.5051730" lon="-4.1633910">
        <ele>510.0</ele>
        <time>2020-07-17T09:26:57Z</time>
      </trkpt>
      <trkpt lat="37.5050150" lon="-4.1633820">
        <ele>509.8</ele>
        <time>2020-07-17T09:26:59Z</time>
      </trkpt>
      <trkpt lat="37.5048620" lon="-4.1633360">
        <ele>509.4</ele>
        <time>2020-07-17T09:27:01Z</time>
      </trkpt>
      <trkpt lat="37.5046270" lon="-4.1632400">
        <ele>509.2</ele>
        <time>2020-07-17T09:27:04Z</time>
      </trkpt>
      <trkpt lat="37.5045520" lon="-4.1632010">
        <ele>509.0</ele>
        <time>2020-07-17T09:27:05Z</time>
      </trkpt>
      <trkpt lat="37.5042710" lon="-4.1630060">
        <ele>508.8</ele>
        <time>2020-07-17T09:27:09Z</time>
      </trkpt>
      <trkpt lat="37.5039810" lon="-4.1628320">
        <ele>509.8</ele>
        <time>2020-07-17T09:27:14Z</time>
      </trkpt>
      <trkpt lat="37.5039270" lon="-4.1628140">
        <ele>510.2</ele>
        <time>2020-07-17T09:27:15Z</time>
      </trkpt>
      <trkpt lat="37.5038150" lon="-4.1628000">
        <ele>511.0</ele>
        <time>2020-07-17T09:27:17Z</time>
      </trkpt>
      <trkpt lat="37.5037530" lon="-4.1628020">
        <ele>511.4</ele>
        <time>2020-07-17T09:27:18Z</time>
      </trkpt>
      <trkpt lat="37.5036900" lon="-4.1628100">
        <ele>511.8</ele>
        <time>2020-07-17T09:27:19Z</time>
      </trkpt>
      <trkpt lat="37.5034440" lon="-4.1629430">
        <ele>512.2</ele>
        <time>2020-07-17T09:27:23Z</time>
      </trkpt>
      <trkpt lat="37.5033470" lon="-4.1630730">
        <ele>512.2</ele>
        <time>2020-07-17T09:27:25Z</time>
      </trkpt>
      <trkpt lat="37.5030650" lon="-4.1634520">
        <ele>511.8</ele>
        <time>2020-07-17T09:27:31Z</time>
      </trkpt>
      <trkpt lat="37.5028410" lon="-4.1637370">
        <ele>512.6</ele>
        <time>2020-07-17T09:27:36Z</time>
      </trkpt>
      <trkpt lat="37.5027060" lon="-4.1638920">
        <ele>512.8</ele>
        <time>2020-07-17T09:27:39Z</time>
      </trkpt>
      <trkpt lat="37.5025380" lon="-4.1640860">
        <ele>513.6</ele>
        <time>2020-07-17T09:27:43Z</time>
      </trkpt>
      <trkpt lat="37.5023380" lon="-4.1643110">
        <ele>514.4</ele>
        <time>2020-07-17T09:27:48Z</time>
      </trkpt>
      <trkpt lat="37.5023000" lon="-4.1643560">
        <ele>514.6</ele>
        <time>2020-07-17T09:27:49Z</time>
      </trkpt>
      <trkpt lat="37.5021510" lon="-4.1645280">
        <ele>515.8</ele>
        <time>2020-07-17T09:27:53Z</time>
      </trkpt>
      <trkpt lat="37.5020510" lon="-4.1646460">
        <ele>517.0</ele>
        <time>2020-07-17T09:27:56Z</time>
      </trkpt>
      <trkpt lat="37.5020180" lon="-4.1646830">
        <ele>517.2</ele>
        <time>2020-07-17T09:27:57Z</time>
      </trkpt>
      <trkpt lat="37.5018980" lon="-4.1648220">
        <ele>518.0</ele>
        <time>2020-07-17T09:28:01Z</time>
      </trkpt>
      <trkpt lat="37.5017520" lon="-4.1649880">
        <ele>519.0</ele>
        <time>2020-07-17T09:28:06Z</time>
      </trkpt>
      <trkpt lat="37.5017210" lon="-4.1650210">
        <ele>519.2</ele>
        <time>2020-07-17T09:28:07Z</time>
      </trkpt>
      <trkpt lat="37.5015490" lon="-4.1652130">
        <ele>520.2</ele>
        <time>2020-07-17T09:28:13Z</time>
      </trkpt>
      <trkpt lat="37.5014410" lon="-4.1653430">
        <ele>521.4</ele>
        <time>2020-07-17T09:28:17Z</time>
      </trkpt>
      <trkpt lat="37.5014140" lon="-4.1653740">
        <ele>521.8</ele>
        <time>2020-07-17T09:28:18Z</time>
      </trkpt>
      <trkpt lat="37.5013080" lon="-4.1654970">
        <ele>522.6</ele>
        <time>2020-07-17T09:28:22Z</time>
      </trkpt>
      <trkpt lat="37.5011450" lon="-4.1656860">
        <ele>523.6</ele>
        <time>2020-07-17T09:28:28Z</time>
      </trkpt>
      <trkpt lat="37.5009570" lon="-4.1659110">
        <ele>524.8</ele>
        <time>2020-07-17T09:28:35Z</time>
      </trkpt>
      <trkpt lat="37.5008460" lon="-4.1660380">
        <ele>525.8</ele>
        <time>2020-07-17T09:28:39Z</time>
      </trkpt>
      <trkpt lat="37.5007940" lon="-4.1660990">
        <ele>526.2</ele>
        <time>2020-07-17T09:28:41Z</time>
      </trkpt>
      <trkpt lat="37.5006810" lon="-4.1662290">
        <ele>527.0</ele>
        <time>2020-07-17T09:28:45Z</time>
      </trkpt>
      <trkpt lat="37.5005180" lon="-4.1664230">
        <ele>528.0</ele>
        <time>2020-07-17T09:28:51Z</time>
      </trkpt>
      <trkpt lat="37.5004890" lon="-4.1664560">
        <ele>528.0</ele>
        <time>2020-07-17T09:28:52Z</time>
      </trkpt>
      <trkpt lat="37.5003170" lon="-4.1666520">
        <ele>529.0</ele>
        <time>2020-07-17T09:28:58Z</time>
      </trkpt>
      <trkpt lat="37.5001740" lon="-4.1668160">
        <ele>530.0</ele>
        <time>2020-07-17T09:29:03Z</time>
      </trkpt>
      <trkpt lat="37.5000940" lon="-4.1669120">
        <ele>530.6</ele>
        <time>2020-07-17T09:29:06Z</time>
      </trkpt>
      <trkpt lat="37.5000090" lon="-4.1670060">
        <ele>531.2</ele>
        <time>2020-07-17T09:29:09Z</time>
      </trkpt>
      <trkpt lat="37.4998200" lon="-4.1672230">
        <ele>532.0</ele>
        <time>2020-07-17T09:29:16Z</time>
      </trkpt>
      <trkpt lat="37.4997620" lon="-4.1672910">
        <ele>532.4</ele>
        <time>2020-07-17T09:29:18Z</time>
      </trkpt>
      <trkpt lat="37.4996300" lon="-4.1674510">
        <ele>533.4</ele>
        <time>2020-07-17T09:29:23Z</time>
      </trkpt>
      <trkpt lat="37.4995480" lon="-4.1675410">
        <ele>534.0</ele>
        <time>2020-07-17T09:29:26Z</time>
      </trkpt>
      <trkpt lat="37.4994930" lon="-4.1676030">
        <ele>534.4</ele>
        <time>2020-07-17T09:29:28Z</time>
      </trkpt>
      <trkpt lat="37.4993320" lon="-4.1677890">
        <ele>535.4</ele>
        <time>2020-07-17T09:29:34Z</time>
      </trkpt>
      <trkpt lat="37.4992480" lon="-4.1678830">
        <ele>535.8</ele>
        <time>2020-07-17T09:29:37Z</time>
      </trkpt>
      <trkpt lat="37.4991370" lon="-4.1680050">
        <ele>536.6</ele>
        <time>2020-07-17T09:29:41Z</time>
      </trkpt>
      <trkpt lat="37.4990000" lon="-4.1681560">
        <ele>537.6</ele>
        <time>2020-07-17T09:29:46Z</time>
      </trkpt>
      <trkpt lat="37.4988810" lon="-4.1682820">
        <ele>538.4</ele>
        <time>2020-07-17T09:29:50Z</time>
      </trkpt>
      <trkpt lat="37.4988230" lon="-4.1683400">
        <ele>538.8</ele>
        <time>2020-07-17T09:29:52Z</time>
      </trkpt>
      <trkpt lat="37.4986150" lon="-4.1685430">
        <ele>539.8</ele>
        <time>2020-07-17T09:29:59Z</time>
      </trkpt>
      <trkpt lat="37.4985870" lon="-4.1685720">
        <ele>540.0</ele>
        <time>2020-07-17T09:30:00Z</time>
      </trkpt>
      <trkpt lat="37.4984420" lon="-4.1687240">
        <ele>541.0</ele>
        <time>2020-07-17T09:30:05Z</time>
      </trkpt>
      <trkpt lat="37.4982960" lon="-4.1688700">
        <ele>541.8</ele>
        <time>2020-07-17T09:30:10Z</time>
      </trkpt>
      <trkpt lat="37.4982670" lon="-4.1689000">
        <ele>542.0</ele>
        <time>2020-07-17T09:30:11Z</time>
      </trkpt>
      <trkpt lat="37.4981110" lon="-4.1690430">
        <ele>542.8</ele>
        <time>2020-07-17T09:30:16Z</time>
      </trkpt>
      <trkpt lat="37.4980460" lon="-4.1691020">
        <ele>543.2</ele>
        <time>2020-07-17T09:30:18Z</time>
      </trkpt>
      <trkpt lat="37.4979580" lon="-4.1691860">
        <ele>543.6</ele>
        <time>2020-07-17T09:30:21Z</time>
      </trkpt>
      <trkpt lat="37.4978720" lon="-4.1692700">
        <ele>544.2</ele>
        <time>2020-07-17T09:30:24Z</time>
      </trkpt>
      <trkpt lat="37.4976990" lon="-4.1694240">
        <ele>545.2</ele>
        <time>2020-07-17T09:30:30Z</time>
      </trkpt>
      <trkpt lat="37.4976410" lon="-4.1694770">
        <ele>545.6</ele>
        <time>2020-07-17T09:30:32Z</time>
      </trkpt>
      <trkpt lat="37.4975270" lon="-4.1695770">
        <ele>546.2</ele>
        <time>2020-07-17T09:30:36Z</time>
      </trkpt>
      <trkpt lat="37.4973210" lon="-4.1697570">
        <ele>547.6</ele>
        <time>2020-07-17T09:30:43Z</time>
      </trkpt>
      <trkpt lat="37.4971200" lon="-4.1699440">
        <ele>548.6</ele>
        <time>2020-07-17T09:30:50Z</time>
      </trkpt>
      <trkpt lat="37.4970070" lon="-4.1700520">
        <ele>549.4</ele>
        <time>2020-07-17T09:30:54Z</time>
      </trkpt>
      <trkpt lat="37.4969520" lon="-4.1701010">
        <ele>549.6</ele>
        <time>2020-07-17T09:30:56Z</time>
      </trkpt>
      <trkpt lat="37.4967540" lon="-4.1702850">
        <ele>550.8</ele>
        <time>2020-07-17T09:31:03Z</time>
      </trkpt>
      <trkpt lat="37.4967260" lon="-4.1703080">
        <ele>550.8</ele>
        <time>2020-07-17T09:31:04Z</time>
      </trkpt>
      <trkpt lat="37.4965230" lon="-4.1704800">
        <ele>552.0</ele>
        <time>2020-07-17T09:31:11Z</time>
      </trkpt>
      <trkpt lat="37.4963530" lon="-4.1706320">
        <ele>553.0</ele>
        <time>2020-07-17T09:31:17Z</time>
      </trkpt>
      <trkpt lat="37.4961930" lon="-4.1707680">
        <ele>554.0</ele>
        <time>2020-07-17T09:31:22Z</time>
      </trkpt>
      <trkpt lat="37.4960160" lon="-4.1709220">
        <ele>555.0</ele>
        <time>2020-07-17T09:31:28Z</time>
      </trkpt>
      <trkpt lat="37.4958060" lon="-4.1711030">
        <ele>556.0</ele>
        <time>2020-07-17T09:31:35Z</time>
      </trkpt>
      <trkpt lat="37.4956600" lon="-4.1712280">
        <ele>557.0</ele>
        <time>2020-07-17T09:31:40Z</time>
      </trkpt>
      <trkpt lat="37.4954530" lon="-4.1714170">
        <ele>558.0</ele>
        <time>2020-07-17T09:31:47Z</time>
      </trkpt>
      <trkpt lat="37.4954230" lon="-4.1714420">
        <ele>558.2</ele>
        <time>2020-07-17T09:31:48Z</time>
      </trkpt>
      <trkpt lat="37.4952720" lon="-4.1715700">
        <ele>559.2</ele>
        <time>2020-07-17T09:31:53Z</time>
      </trkpt>
      <trkpt lat="37.4950890" lon="-4.1717290">
        <ele>560.2</ele>
        <time>2020-07-17T09:31:59Z</time>
      </trkpt>
      <trkpt lat="37.4950300" lon="-4.1717800">
        <ele>560.6</ele>
        <time>2020-07-17T09:32:01Z</time>
      </trkpt>
      <trkpt lat="37.4949100" lon="-4.1718860">
        <ele>561.4</ele>
        <time>2020-07-17T09:32:05Z</time>
      </trkpt>
      <trkpt lat="37.4946990" lon="-4.1720690">
        <ele>562.4</ele>
        <time>2020-07-17T09:32:12Z</time>
      </trkpt>
      <trkpt lat="37.4944870" lon="-4.1722620">
        <ele>563.6</ele>
        <time>2020-07-17T09:32:19Z</time>
      </trkpt>
      <trkpt lat="37.4943640" lon="-4.1723770">
        <ele>564.2</ele>
        <time>2020-07-17T09:32:23Z</time>
      </trkpt>
      <trkpt lat="37.4943030" lon="-4.1724370">
        <ele>564.8</ele>
        <time>2020-07-17T09:32:25Z</time>
      </trkpt>
      <trkpt lat="37.4941830" lon="-4.1725630">
        <ele>565.6</ele>
        <time>2020-07-17T09:32:29Z</time>
      </trkpt>
      <trkpt lat="37.4941270" lon="-4.1726260">
        <ele>565.8</ele>
        <time>2020-07-17T09:32:31Z</time>
      </trkpt>
      <trkpt lat="37.4940720" lon="-4.1726950">
        <ele>566.0</ele>
        <time>2020-07-17T09:32:33Z</time>
      </trkpt>
      <trkpt lat="37.4939260" lon="-4.1729060">
        <ele>566.8</ele>
        <time>2020-07-17T09:32:39Z</time>
      </trkpt>
      <trkpt lat="37.4937830" lon="-4.1731340">
        <ele>567.4</ele>
        <time>2020-07-17T09:32:45Z</time>
      </trkpt>
      <trkpt lat="37.4936330" lon="-4.1733830">
        <ele>567.8</ele>
        <time>2020-07-17T09:32:51Z</time>
      </trkpt>
      <trkpt lat="37.4935190" lon="-4.1735700">
        <ele>568.0</ele>
        <time>2020-07-17T09:32:55Z</time>
      </trkpt>
      <trkpt lat="37.4934580" lon="-4.1736740">
        <ele>568.0</ele>
        <time>2020-07-17T09:32:57Z</time>
      </trkpt>
      <trkpt lat="37.4933570" lon="-4.1738350">
        <ele>568.0</ele>
        <time>2020-07-17T09:33:00Z</time>
      </trkpt>
      <trkpt lat="37.4932850" lon="-4.1739570">
        <ele>567.8</ele>
        <time>2020-07-17T09:33:02Z</time>
      </trkpt>
      <trkpt lat="37.4932080" lon="-4.1740800">
        <ele>567.6</ele>
        <time>2020-07-17T09:33:04Z</time>
      </trkpt>
      <trkpt lat="37.4931220" lon="-4.1742140">
        <ele>567.4</ele>
        <time>2020-07-17T09:33:06Z</time>
      </trkpt>
      <trkpt lat="37.4929760" lon="-4.1744380">
        <ele>566.8</ele>
        <time>2020-07-17T09:33:09Z</time>
      </trkpt>
      <trkpt lat="37.4928120" lon="-4.1746810">
        <ele>566.2</ele>
        <time>2020-07-17T09:33:12Z</time>
      </trkpt>
      <trkpt lat="37.4926950" lon="-4.1748530">
        <ele>565.6</ele>
        <time>2020-07-17T09:33:14Z</time>
      </trkpt>
      <trkpt lat="37.4926280" lon="-4.1749480">
        <ele>565.2</ele>
        <time>2020-07-17T09:33:15Z</time>
      </trkpt>
      <trkpt lat="37.4924930" lon="-4.1751400">
        <ele>564.6</ele>
        <time>2020-07-17T09:33:17Z</time>
      </trkpt>
      <trkpt lat="37.4923500" lon="-4.1753390">
        <ele>563.6</ele>
        <time>2020-07-17T09:33:19Z</time>
      </trkpt>
      <trkpt lat="37.4922700" lon="-4.1754480">
        <ele>562.8</ele>
        <time>2020-07-17T09:33:20Z</time>
      </trkpt>
      <trkpt lat="37.4921960" lon="-4.1755470">
        <ele>562.0</ele>
        <time>2020-07-17T09:33:21Z</time>
      </trkpt>
      <trkpt lat="37.4920170" lon="-4.1757680">
        <ele>560.2</ele>
        <time>2020-07-17T09:33:23Z</time>
      </trkpt>
      <trkpt lat="37.4918120" lon="-4.1759520">
        <ele>558.6</ele>
        <time>2020-07-17T09:33:25Z</time>
      </trkpt>
      <trkpt lat="37.4915770" lon="-4.1760780">
        <ele>556.4</ele>
        <time>2020-07-17T09:33:27Z</time>
      </trkpt>
      <trkpt lat="37.4914560" lon="-4.1761170">
        <ele>555.8</ele>
        <time>2020-07-17T09:33:28Z</time>
      </trkpt>
      <trkpt lat="37.4913220" lon="-4.1761470">
        <ele>555.0</ele>
        <time>2020-07-17T09:33:29Z</time>
      </trkpt>
      <trkpt lat="37.4911960" lon="-4.1761670">
        <ele>554.0</ele>
        <time>2020-07-17T09:33:30Z</time>
      </trkpt>
      <trkpt lat="37.4910650" lon="-4.1761820">
        <ele>553.4</ele>
        <time>2020-07-17T09:33:31Z</time>
      </trkpt>
      <trkpt lat="37.4909240" lon="-4.1761970">
        <ele>552.6</ele>
        <time>2020-07-17T09:33:32Z</time>
      </trkpt>
      <trkpt lat="37.4907900" lon="-4.1762110">
        <ele>551.4</ele>
        <time>2020-07-17T09:33:33Z</time>
      </trkpt>
      <trkpt lat="37.4905280" lon="-4.1762240">
        <ele>550.0</ele>
        <time>2020-07-17T09:33:35Z</time>
      </trkpt>
      <trkpt lat="37.4904120" lon="-4.1762170">
        <ele>549.2</ele>
        <time>2020-07-17T09:33:36Z</time>
      </trkpt>
      <trkpt lat="37.4902860" lon="-4.1761700">
        <ele>548.6</ele>
        <time>2020-07-17T09:33:37Z</time>
      </trkpt>
      <trkpt lat="37.4901160" lon="-4.1759620">
        <ele>547.8</ele>
        <time>2020-07-17T09:33:39Z</time>
      </trkpt>
      <trkpt lat="37.4900710" lon="-4.1758350">
        <ele>547.4</ele>
        <time>2020-07-17T09:33:40Z</time>
      </trkpt>
      <trkpt lat="37.4900050" lon="-4.1755500">
        <ele>546.2</ele>
        <time>2020-07-17T09:33:42Z</time>
      </trkpt>
      <trkpt lat="37.4898890" lon="-4.1751900">
        <ele>545.0</ele>
        <time>2020-07-17T09:33:45Z</time>
      </trkpt>
      <trkpt lat="37.4898350" lon="-4.1750880">
        <ele>545.0</ele>
        <time>2020-07-17T09:33:46Z</time>
      </trkpt>
      <trkpt lat="37.4897240" lon="-4.1750700">
        <ele>544.6</ele>
        <time>2020-07-17T09:33:47Z</time>
      </trkpt>
      <trkpt lat="37.4896250" lon="-4.1750790">
        <ele>544.6</ele>
        <time>2020-07-17T09:33:48Z</time>
      </trkpt>
      <trkpt lat="37.4895380" lon="-4.1751340">
        <ele>544.0</ele>
        <time>2020-07-17T09:33:49Z</time>
      </trkpt>
      <trkpt lat="37.4894560" lon="-4.1752010">
        <ele>543.8</ele>
        <time>2020-07-17T09:33:50Z</time>
      </trkpt>
      <trkpt lat="37.4894300" lon="-4.1753200">
        <ele>543.4</ele>
        <time>2020-07-17T09:33:51Z</time>
      </trkpt>
      <trkpt lat="37.4893930" lon="-4.1754420">
        <ele>543.0</ele>
        <time>2020-07-17T09:33:52Z</time>
      </trkpt>
      <trkpt lat="37.4893660" lon="-4.1755610">
        <ele>543.0</ele>
        <time>2020-07-17T09:33:53Z</time>
      </trkpt>
      <trkpt lat="37.4892740" lon="-4.1760540">
        <ele>542.0</ele>
        <time>2020-07-17T09:33:57Z</time>
      </trkpt>
      <trkpt lat="37.4892530" lon="-4.1761710">
        <ele>541.8</ele>
        <time>2020-07-17T09:33:58Z</time>
      </trkpt>
      <trkpt lat="37.4892080" lon="-4.1764270">
        <ele>540.6</ele>
        <time>2020-07-17T09:34:00Z</time>
      </trkpt>
      <trkpt lat="37.4891580" lon="-4.1766870">
        <ele>539.0</ele>
        <time>2020-07-17T09:34:02Z</time>
      </trkpt>
      <trkpt lat="37.4891330" lon="-4.1768240">
        <ele>538.4</ele>
        <time>2020-07-17T09:34:03Z</time>
      </trkpt>
      <trkpt lat="37.4891100" lon="-4.1769540">
        <ele>538.0</ele>
        <time>2020-07-17T09:34:04Z</time>
      </trkpt>
      <trkpt lat="37.4890860" lon="-4.1770930">
        <ele>537.4</ele>
        <time>2020-07-17T09:34:05Z</time>
      </trkpt>
      <trkpt lat="37.4890610" lon="-4.1772320">
        <ele>536.8</ele>
        <time>2020-07-17T09:34:06Z</time>
      </trkpt>
      <trkpt lat="37.4890050" lon="-4.1775260">
        <ele>535.6</ele>
        <time>2020-07-17T09:34:08Z</time>
      </trkpt>
      <trkpt lat="37.4889250" lon="-4.1777900">
        <ele>534.8</ele>
        <time>2020-07-17T09:34:10Z</time>
      </trkpt>
      <trkpt lat="37.4888480" lon="-4.1779050">
        <ele>534.4</ele>
        <time>2020-07-17T09:34:11Z</time>
      </trkpt>
      <trkpt lat="37.4887470" lon="-4.1779880">
        <ele>533.8</ele>
        <time>2020-07-17T09:34:12Z</time>
      </trkpt>
      <trkpt lat="37.4886400" lon="-4.1780390">
        <ele>533.2</ele>
        <time>2020-07-17T09:34:13Z</time>
      </trkpt>
      <trkpt lat="37.4884210" lon="-4.1781040">
        <ele>532.4</ele>
        <time>2020-07-17T09:34:15Z</time>
      </trkpt>
      <trkpt lat="37.4883150" lon="-4.1781330">
        <ele>531.8</ele>
        <time>2020-07-17T09:34:16Z</time>
      </trkpt>
      <trkpt lat="37.4881960" lon="-4.1781790">
        <ele>531.6</ele>
        <time>2020-07-17T09:34:17Z</time>
      </trkpt>
      <trkpt lat="37.4880070" lon="-4.1783390">
        <ele>530.6</ele>
        <time>2020-07-17T09:34:19Z</time>
      </trkpt>
      <trkpt lat="37.4878980" lon="-4.1785770">
        <ele>529.0</ele>
        <time>2020-07-17T09:34:21Z</time>
      </trkpt>
      <trkpt lat="37.4878450" lon="-4.1788610">
        <ele>527.4</ele>
        <time>2020-07-17T09:34:23Z</time>
      </trkpt>
      <trkpt lat="37.4878290" lon="-4.1789990">
        <ele>527.0</ele>
        <time>2020-07-17T09:34:24Z</time>
      </trkpt>
      <trkpt lat="37.4877840" lon="-4.1792670">
        <ele>526.2</ele>
        <time>2020-07-17T09:34:26Z</time>
      </trkpt>
      <trkpt lat="37.4877430" lon="-4.1794060">
        <ele>526.0</ele>
        <time>2020-07-17T09:34:27Z</time>
      </trkpt>
      <trkpt lat="37.4876940" lon="-4.1795270">
        <ele>525.8</ele>
        <time>2020-07-17T09:34:28Z</time>
      </trkpt>
      <trkpt lat="37.4875720" lon="-4.1797740">
        <ele>525.0</ele>
        <time>2020-07-17T09:34:30Z</time>
      </trkpt>
      <trkpt lat="37.4874630" lon="-4.1800370">
        <ele>524.4</ele>
        <time>2020-07-17T09:34:32Z</time>
      </trkpt>
      <trkpt lat="37.4874320" lon="-4.1801780">
        <ele>524.0</ele>
        <time>2020-07-17T09:34:33Z</time>
      </trkpt>
      <trkpt lat="37.4874540" lon="-4.1806110">
        <ele>523.0</ele>
        <time>2020-07-17T09:34:36Z</time>
      </trkpt>
      <trkpt lat="37.4874890" lon="-4.1807630">
        <ele>522.6</ele>
        <time>2020-07-17T09:34:37Z</time>
      </trkpt>
      <trkpt lat="37.4875680" lon="-4.1810460">
        <ele>521.4</ele>
        <time>2020-07-17T09:34:39Z</time>
      </trkpt>
      <trkpt lat="37.4876660" lon="-4.1813070">
        <ele>519.8</ele>
        <time>2020-07-17T09:34:41Z</time>
      </trkpt>
      <trkpt lat="37.4877090" lon="-4.1814230">
        <ele>518.6</ele>
        <time>2020-07-17T09:34:42Z</time>
      </trkpt>
      <trkpt lat="37.4877120" lon="-4.1817090">
        <ele>517.0</ele>
        <time>2020-07-17T09:34:44Z</time>
      </trkpt>
      <trkpt lat="37.4875730" lon="-4.1818720">
        <ele>515.8</ele>
        <time>2020-07-17T09:34:46Z</time>
      </trkpt>
      <trkpt lat="37.4873500" lon="-4.1819130">
        <ele>514.6</ele>
        <time>2020-07-17T09:34:48Z</time>
      </trkpt>
      <trkpt lat="37.4872400" lon="-4.1819130">
        <ele>514.2</ele>
        <time>2020-07-17T09:34:49Z</time>
      </trkpt>
      <trkpt lat="37.4870170" lon="-4.1819140">
        <ele>513.2</ele>
        <time>2020-07-17T09:34:51Z</time>
      </trkpt>
      <trkpt lat="37.4865510" lon="-4.1818860">
        <ele>511.8</ele>
        <time>2020-07-17T09:34:55Z</time>
      </trkpt>
      <trkpt lat="37.4864480" lon="-4.1818550">
        <ele>511.4</ele>
        <time>2020-07-17T09:34:56Z</time>
      </trkpt>
      <trkpt lat="37.4863380" lon="-4.1818020">
        <ele>510.6</ele>
        <time>2020-07-17T09:34:57Z</time>
      </trkpt>
      <trkpt lat="37.4862450" lon="-4.1817390">
        <ele>510.2</ele>
        <time>2020-07-17T09:34:58Z</time>
      </trkpt>
      <trkpt lat="37.4861630" lon="-4.1816680">
        <ele>509.6</ele>
        <time>2020-07-17T09:34:59Z</time>
      </trkpt>
      <trkpt lat="37.4859980" lon="-4.1814630">
        <ele>509.0</ele>
        <time>2020-07-17T09:35:01Z</time>
      </trkpt>
      <trkpt lat="37.4858770" lon="-4.1812210">
        <ele>508.4</ele>
        <time>2020-07-17T09:35:03Z</time>
      </trkpt>
      <trkpt lat="37.4858240" lon="-4.1811010">
        <ele>507.8</ele>
        <time>2020-07-17T09:35:04Z</time>
      </trkpt>
      <trkpt lat="37.4857650" lon="-4.1809820">
        <ele>507.4</ele>
        <time>2020-07-17T09:35:05Z</time>
      </trkpt>
      <trkpt lat="37.4856930" lon="-4.1808650">
        <ele>507.0</ele>
        <time>2020-07-17T09:35:06Z</time>
      </trkpt>
      <trkpt lat="37.4856070" lon="-4.1807480">
        <ele>506.2</ele>
        <time>2020-07-17T09:35:07Z</time>
      </trkpt>
      <trkpt lat="37.4855240" lon="-4.1806420">
        <ele>505.8</ele>
        <time>2020-07-17T09:35:08Z</time>
      </trkpt>
      <trkpt lat="37.4854200" lon="-4.1805550">
        <ele>504.8</ele>
        <time>2020-07-17T09:35:09Z</time>
      </trkpt>
      <trkpt lat="37.4852190" lon="-4.1804440">
        <ele>503.2</ele>
        <time>2020-07-17T09:35:11Z</time>
      </trkpt>
      <trkpt lat="37.4849990" lon="-4.1804930">
        <ele>502.0</ele>
        <time>2020-07-17T09:35:13Z</time>
      </trkpt>
      <trkpt lat="37.4848360" lon="-4.1806660">
        <ele>501.0</ele>
        <time>2020-07-17T09:35:15Z</time>
      </trkpt>
      <trkpt lat="37.4846030" lon="-4.1809530">
        <ele>499.8</ele>
        <time>2020-07-17T09:35:18Z</time>
      </trkpt>
      <trkpt lat="37.4843510" lon="-4.1812240">
        <ele>498.4</ele>
        <time>2020-07-17T09:35:21Z</time>
      </trkpt>
      <trkpt lat="37.4840390" lon="-4.1814470">
        <ele>497.0</ele>
        <time>2020-07-17T09:35:24Z</time>
      </trkpt>
      <trkpt lat="37.4839340" lon="-4.1815080">
        <ele>496.4</ele>
        <time>2020-07-17T09:35:25Z</time>
      </trkpt>
      <trkpt lat="37.4838270" lon="-4.1815730">
        <ele>495.6</ele>
        <time>2020-07-17T09:35:26Z</time>
      </trkpt>
      <trkpt lat="37.4836180" lon="-4.1817340">
        <ele>494.4</ele>
        <time>2020-07-17T09:35:28Z</time>
      </trkpt>
      <trkpt lat="37.4835150" lon="-4.1818330">
        <ele>494.0</ele>
        <time>2020-07-17T09:35:29Z</time>
      </trkpt>
      <trkpt lat="37.4834210" lon="-4.1819300">
        <ele>493.2</ele>
        <time>2020-07-17T09:35:30Z</time>
      </trkpt>
      <trkpt lat="37.4832340" lon="-4.1821340">
        <ele>492.0</ele>
        <time>2020-07-17T09:35:32Z</time>
      </trkpt>
      <trkpt lat="37.4830550" lon="-4.1823330">
        <ele>490.8</ele>
        <time>2020-07-17T09:35:34Z</time>
      </trkpt>
      <trkpt lat="37.4828730" lon="-4.1825320">
        <ele>490.4</ele>
        <time>2020-07-17T09:35:36Z</time>
      </trkpt>
      <trkpt lat="37.4826760" lon="-4.1827110">
        <ele>489.8</ele>
        <time>2020-07-17T09:35:38Z</time>
      </trkpt>
      <trkpt lat="37.4824940" lon="-4.1828450">
        <ele>489.4</ele>
        <time>2020-07-17T09:35:40Z</time>
      </trkpt>
      <trkpt lat="37.4821160" lon="-4.1830780">
        <ele>488.8</ele>
        <time>2020-07-17T09:35:44Z</time>
      </trkpt>
      <trkpt lat="37.4819410" lon="-4.1831800">
        <ele>488.6</ele>
        <time>2020-07-17T09:35:46Z</time>
      </trkpt>
      <trkpt lat="37.4813750" lon="-4.1834910">
        <ele>487.8</ele>
        <time>2020-07-17T09:35:52Z</time>
      </trkpt>
      <trkpt lat="37.4812710" lon="-4.1835220">
        <ele>487.6</ele>
        <time>2020-07-17T09:35:53Z</time>
      </trkpt>
      <trkpt lat="37.4808790" lon="-4.1836300">
        <ele>486.4</ele>
        <time>2020-07-17T09:35:57Z</time>
      </trkpt>
      <trkpt lat="37.4807910" lon="-4.1836680">
        <ele>486.0</ele>
        <time>2020-07-17T09:35:58Z</time>
      </trkpt>
      <trkpt lat="37.4806980" lon="-4.1837210">
        <ele>486.0</ele>
        <time>2020-07-17T09:35:59Z</time>
      </trkpt>
      <trkpt lat="37.4804500" lon="-4.1839270">
        <ele>485.4</ele>
        <time>2020-07-17T09:36:02Z</time>
      </trkpt>
      <trkpt lat="37.4803810" lon="-4.1840020">
        <ele>485.2</ele>
        <time>2020-07-17T09:36:03Z</time>
      </trkpt>
      <trkpt lat="37.4802400" lon="-4.1841370">
        <ele>485.0</ele>
        <time>2020-07-17T09:36:05Z</time>
      </trkpt>
      <trkpt lat="37.4800690" lon="-4.1842150">
        <ele>485.2</ele>
        <time>2020-07-17T09:36:07Z</time>
      </trkpt>
      <trkpt lat="37.4798200" lon="-4.1842360">
        <ele>485.2</ele>
        <time>2020-07-17T09:36:10Z</time>
      </trkpt>
      <trkpt lat="37.4797400" lon="-4.1842390">
        <ele>485.2</ele>
        <time>2020-07-17T09:36:11Z</time>
      </trkpt>
      <trkpt lat="37.4795220" lon="-4.1842520">
        <ele>485.8</ele>
        <time>2020-07-17T09:36:14Z</time>
      </trkpt>
      <trkpt lat="37.4794050" lon="-4.1842670">
        <ele>486.8</ele>
        <time>2020-07-17T09:36:16Z</time>
      </trkpt>
      <trkpt lat="37.4792830" lon="-4.1842810">
        <ele>487.8</ele>
        <time>2020-07-17T09:36:18Z</time>
      </trkpt>
      <trkpt lat="37.4791230" lon="-4.1842990">
        <ele>488.8</ele>
        <time>2020-07-17T09:36:21Z</time>
      </trkpt>
      <trkpt lat="37.4790730" lon="-4.1843080">
        <ele>489.2</ele>
        <time>2020-07-17T09:36:22Z</time>
      </trkpt>
      <trkpt lat="37.4788960" lon="-4.1843380">
        <ele>489.6</ele>
        <time>2020-07-17T09:36:25Z</time>
      </trkpt>
      <trkpt lat="37.4787310" lon="-4.1844030">
        <ele>489.8</ele>
        <time>2020-07-17T09:36:28Z</time>
      </trkpt>
      <trkpt lat="37.4784100" lon="-4.1846290">
        <ele>490.2</ele>
        <time>2020-07-17T09:36:34Z</time>
      </trkpt>
      <trkpt lat="37.4783150" lon="-4.1847240">
        <ele>490.2</ele>
        <time>2020-07-17T09:36:36Z</time>
      </trkpt>
      <trkpt lat="37.4780880" lon="-4.1849350">
        <ele>490.6</ele>
        <time>2020-07-17T09:36:41Z</time>
      </trkpt>
      <trkpt lat="37.4780370" lon="-4.1849660">
        <ele>490.8</ele>
        <time>2020-07-17T09:36:42Z</time>
      </trkpt>
      <trkpt lat="37.4779350" lon="-4.1850120">
        <ele>491.4</ele>
        <time>2020-07-17T09:36:44Z</time>
      </trkpt>
      <trkpt lat="37.4778450" lon="-4.1850420">
        <ele>491.6</ele>
        <time>2020-07-17T09:36:46Z</time>
      </trkpt>
      <trkpt lat="37.4774330" lon="-4.1851250">
        <ele>491.8</ele>
        <time>2020-07-17T09:36:53Z</time>
      </trkpt>
      <trkpt lat="37.4773240" lon="-4.1851470">
        <ele>492.0</ele>
        <time>2020-07-17T09:36:55Z</time>
      </trkpt>
      <trkpt lat="37.4770720" lon="-4.1851730">
        <ele>492.6</ele>
        <time>2020-07-17T09:37:00Z</time>
      </trkpt>
      <trkpt lat="37.4769850" lon="-4.1851670">
        <ele>493.0</ele>
        <time>2020-07-17T09:37:02Z</time>
      </trkpt>
      <trkpt lat="37.4768980" lon="-4.1851550">
        <ele>493.6</ele>
        <time>2020-07-17T09:37:04Z</time>
      </trkpt>
      <trkpt lat="37.4766860" lon="-4.1850890">
        <ele>494.2</ele>
        <time>2020-07-17T09:37:09Z</time>
      </trkpt>
      <trkpt lat="37.4765660" lon="-4.1850310">
        <ele>494.8</ele>
        <time>2020-07-17T09:37:12Z</time>
      </trkpt>
      <trkpt lat="37.4764980" lon="-4.1849990">
        <ele>495.2</ele>
        <time>2020-07-17T09:37:14Z</time>
      </trkpt>
      <trkpt lat="37.4764040" lon="-4.1849670">
        <ele>495.8</ele>
        <time>2020-07-17T09:37:17Z</time>
      </trkpt>
      <trkpt lat="37.4762430" lon="-4.1849300">
        <ele>496.8</ele>
        <time>2020-07-17T09:37:22Z</time>
      </trkpt>
      <trkpt lat="37.4760600" lon="-4.1849000">
        <ele>498.0</ele>
        <time>2020-07-17T09:37:28Z</time>
      </trkpt>
      <trkpt lat="37.4760270" lon="-4.1848970">
        <ele>498.2</ele>
        <time>2020-07-17T09:37:29Z</time>
      </trkpt>
      <trkpt lat="37.4759090" lon="-4.1848910">
        <ele>499.0</ele>
        <time>2020-07-17T09:37:33Z</time>
      </trkpt>
      <trkpt lat="37.4758200" lon="-4.1848940">
        <ele>499.4</ele>
        <time>2020-07-17T09:37:36Z</time>
      </trkpt>
      <trkpt lat="37.4756900" lon="-4.1848940">
        <ele>500.2</ele>
        <time>2020-07-17T09:37:40Z</time>
      </trkpt>
      <trkpt lat="37.4755880" lon="-4.1848960">
        <ele>500.8</ele>
        <time>2020-07-17T09:37:43Z</time>
      </trkpt>
      <trkpt lat="37.4755000" lon="-4.1849060">
        <ele>501.2</ele>
        <time>2020-07-17T09:37:46Z</time>
      </trkpt>
      <trkpt lat="37.4753450" lon="-4.1849380">
        <ele>502.0</ele>
        <time>2020-07-17T09:37:51Z</time>
      </trkpt>
      <trkpt lat="37.4753150" lon="-4.1849430">
        <ele>502.2</ele>
        <time>2020-07-17T09:37:52Z</time>
      </trkpt>
      <trkpt lat="37.4751410" lon="-4.1849700">
        <ele>503.4</ele>
        <time>2020-07-17T09:37:58Z</time>
      </trkpt>
      <trkpt lat="37.4750790" lon="-4.1849890">
        <ele>503.6</ele>
        <time>2020-07-17T09:38:00Z</time>
      </trkpt>
      <trkpt lat="37.4749330" lon="-4.1850360">
        <ele>504.4</ele>
        <time>2020-07-17T09:38:05Z</time>
      </trkpt>
      <trkpt lat="37.4747870" lon="-4.1851100">
        <ele>505.4</ele>
        <time>2020-07-17T09:38:10Z</time>
      </trkpt>
      <trkpt lat="37.4747580" lon="-4.1851290">
        <ele>505.6</ele>
        <time>2020-07-17T09:38:11Z</time>
      </trkpt>
      <trkpt lat="37.4745700" lon="-4.1853030">
        <ele>506.6</ele>
        <time>2020-07-17T09:38:18Z</time>
      </trkpt>
      <trkpt lat="37.4744670" lon="-4.1854530">
        <ele>507.6</ele>
        <time>2020-07-17T09:38:23Z</time>
      </trkpt>
      <trkpt lat="37.4744480" lon="-4.1854860">
        <ele>507.6</ele>
        <time>2020-07-17T09:38:24Z</time>
      </trkpt>
      <trkpt lat="37.4744160" lon="-4.1855500">
        <ele>508.0</ele>
        <time>2020-07-17T09:38:26Z</time>
      </trkpt>
      <trkpt lat="37.4743300" lon="-4.1857080">
        <ele>508.8</ele>
        <time>2020-07-17T09:38:31Z</time>
      </trkpt>
      <trkpt lat="37.4743100" lon="-4.1857370">
        <ele>509.0</ele>
        <time>2020-07-17T09:38:32Z</time>
      </trkpt>
      <trkpt lat="37.4742410" lon="-4.1858310">
        <ele>510.2</ele>
        <time>2020-07-17T09:38:36Z</time>
      </trkpt>
      <trkpt lat="37.4741500" lon="-4.1859170">
        <ele>511.0</ele>
        <time>2020-07-17T09:38:40Z</time>
      </trkpt>
      <trkpt lat="37.4741270" lon="-4.1859340">
        <ele>511.2</ele>
        <time>2020-07-17T09:38:41Z</time>
      </trkpt>
      <trkpt lat="37.4740060" lon="-4.1860030">
        <ele>512.2</ele>
        <time>2020-07-17T09:38:45Z</time>
      </trkpt>
      <trkpt lat="37.4739750" lon="-4.1860070">
        <ele>512.4</ele>
        <time>2020-07-17T09:38:46Z</time>
      </trkpt>
      <trkpt lat="37.4738610" lon="-4.1859800">
        <ele>512.8</ele>
        <time>2020-07-17T09:38:49Z</time>
      </trkpt>
      <trkpt lat="37.4738320" lon="-4.1859440">
        <ele>512.8</ele>
        <time>2020-07-17T09:38:50Z</time>
      </trkpt>
      <trkpt lat="37.4737410" lon="-4.1857200">
        <ele>512.2</ele>
        <time>2020-07-17T09:38:54Z</time>
      </trkpt>
      <trkpt lat="37.4737250" lon="-4.1856540">
        <ele>512.0</ele>
        <time>2020-07-17T09:38:55Z</time>
      </trkpt>
      <trkpt lat="37.4736470" lon="-4.1853770">
        <ele>511.8</ele>
        <time>2020-07-17T09:38:59Z</time>
      </trkpt>
      <trkpt lat="37.4735970" lon="-4.1852370">
        <ele>511.8</ele>
        <time>2020-07-17T09:39:01Z</time>
      </trkpt>
      <trkpt lat="37.4734090" lon="-4.1850270">
        <ele>511.4</ele>
        <time>2020-07-17T09:39:05Z</time>
      </trkpt>
      <trkpt lat="37.4732950" lon="-4.1849600">
        <ele>511.2</ele>
        <time>2020-07-17T09:39:07Z</time>
      </trkpt>
      <trkpt lat="37.4730800" lon="-4.1848720">
        <ele>511.6</ele>
        <time>2020-07-17T09:39:11Z</time>
      </trkpt>
      <trkpt lat="37.4730250" lon="-4.1848650">
        <ele>511.8</ele>
        <time>2020-07-17T09:39:12Z</time>
      </trkpt>
      <trkpt lat="37.4728230" lon="-4.1848580">
        <ele>512.4</ele>
        <time>2020-07-17T09:39:16Z</time>
      </trkpt>
      <trkpt lat="37.4727680" lon="-4.1848530">
        <ele>512.6</ele>
        <time>2020-07-17T09:39:17Z</time>
      </trkpt>
      <trkpt lat="37.4726330" lon="-4.1848030">
        <ele>513.2</ele>
        <time>2020-07-17T09:39:20Z</time>
      </trkpt>
      <trkpt lat="37.4725910" lon="-4.1847770">
        <ele>513.4</ele>
        <time>2020-07-17T09:39:21Z</time>
      </trkpt>
      <trkpt lat="37.4723430" lon="-4.1845940">
        <ele>514.6</ele>
        <time>2020-07-17T09:39:27Z</time>
      </trkpt>
      <trkpt lat="37.4723010" lon="-4.1845770">
        <ele>514.8</ele>
        <time>2020-07-17T09:39:28Z</time>
      </trkpt>
      <trkpt lat="37.4721230" lon="-4.1845290">
        <ele>515.8</ele>
        <time>2020-07-17T09:39:32Z</time>
      </trkpt>
      <trkpt lat="37.4719610" lon="-4.1844910">
        <ele>516.6</ele>
        <time>2020-07-17T09:39:36Z</time>
      </trkpt>
      <trkpt lat="37.4719170" lon="-4.1844820">
        <ele>516.8</ele>
        <time>2020-07-17T09:39:37Z</time>
      </trkpt>
      <trkpt lat="37.4716220" lon="-4.1844540">
        <ele>517.8</ele>
        <time>2020-07-17T09:39:44Z</time>
      </trkpt>
      <trkpt lat="37.4715830" lon="-4.1844570">
        <ele>518.0</ele>
        <time>2020-07-17T09:39:45Z</time>
      </trkpt>
      <trkpt lat="37.4715000" lon="-4.1844700">
        <ele>518.4</ele>
        <time>2020-07-17T09:39:47Z</time>
      </trkpt>
      <trkpt lat="37.4713430" lon="-4.1845320">
        <ele>519.0</ele>
        <time>2020-07-17T09:39:51Z</time>
      </trkpt>
      <trkpt lat="37.4713050" lon="-4.1845540">
        <ele>519.2</ele>
        <time>2020-07-17T09:39:52Z</time>
      </trkpt>
      <trkpt lat="37.4711330" lon="-4.1846920">
        <ele>520.2</ele>
        <time>2020-07-17T09:39:57Z</time>
      </trkpt>
      <trkpt lat="37.4710550" lon="-4.1847590">
        <ele>520.2</ele>
        <time>2020-07-17T09:39:59Z</time>
      </trkpt>
      <trkpt lat="37.4707810" lon="-4.1850610">
        <ele>520.8</ele>
        <time>2020-07-17T09:40:07Z</time>
      </trkpt>
      <trkpt lat="37.4706670" lon="-4.1852270">
        <ele>521.2</ele>
        <time>2020-07-17T09:40:11Z</time>
      </trkpt>
      <trkpt lat="37.4705540" lon="-4.1853920">
        <ele>521.8</ele>
        <time>2020-07-17T09:40:15Z</time>
      </trkpt>
      <trkpt lat="37.4704960" lon="-4.1854750">
        <ele>522.2</ele>
        <time>2020-07-17T09:40:17Z</time>
      </trkpt>
      <trkpt lat="37.4703890" lon="-4.1855880">
        <ele>522.6</ele>
        <time>2020-07-17T09:40:20Z</time>
      </trkpt>
      <trkpt lat="37.4703000" lon="-4.1856410">
        <ele>522.8</ele>
        <time>2020-07-17T09:40:22Z</time>
      </trkpt>
      <trkpt lat="37.4701380" lon="-4.1856760">
        <ele>523.0</ele>
        <time>2020-07-17T09:40:25Z</time>
      </trkpt>
      <trkpt lat="37.4700250" lon="-4.1856790">
        <ele>522.8</ele>
        <time>2020-07-17T09:40:27Z</time>
      </trkpt>
      <trkpt lat="37.4697970" lon="-4.1856630">
        <ele>522.6</ele>
        <time>2020-07-17T09:40:31Z</time>
      </trkpt>
      <trkpt lat="37.4695550" lon="-4.1855980">
        <ele>522.6</ele>
        <time>2020-07-17T09:40:35Z</time>
      </trkpt>
      <trkpt lat="37.4692560" lon="-4.1854590">
        <ele>522.4</ele>
        <time>2020-07-17T09:40:40Z</time>
      </trkpt>
      <trkpt lat="37.4690710" lon="-4.1853570">
        <ele>522.0</ele>
        <time>2020-07-17T09:40:43Z</time>
      </trkpt>
      <trkpt lat="37.4687650" lon="-4.1851880">
        <ele>521.6</ele>
        <time>2020-07-17T09:40:48Z</time>
      </trkpt>
      <trkpt lat="37.4685060" lon="-4.1850870">
        <ele>521.6</ele>
        <time>2020-07-17T09:40:52Z</time>
      </trkpt>
      <trkpt lat="37.4681530" lon="-4.1850710">
        <ele>521.2</ele>
        <time>2020-07-17T09:40:57Z</time>
      </trkpt>
      <trkpt lat="37.4680880" lon="-4.1850810">
        <ele>521.2</ele>
        <time>2020-07-17T09:40:58Z</time>
      </trkpt>
      <trkpt lat="37.4677460" lon="-4.1852070">
        <ele>521.4</ele>
        <time>2020-07-17T09:41:03Z</time>
      </trkpt>
      <trkpt lat="37.4676880" lon="-4.1852510">
        <ele>521.2</ele>
        <time>2020-07-17T09:41:04Z</time>
      </trkpt>
      <trkpt lat="37.4675330" lon="-4.1854410">
        <ele>521.2</ele>
        <time>2020-07-17T09:41:07Z</time>
      </trkpt>
      <trkpt lat="37.4674580" lon="-4.1855880">
        <ele>521.0</ele>
        <time>2020-07-17T09:41:09Z</time>
      </trkpt>
      <trkpt lat="37.4672330" lon="-4.1860370">
        <ele>520.8</ele>
        <time>2020-07-17T09:41:15Z</time>
      </trkpt>
      <trkpt lat="37.4669240" lon="-4.1866750">
        <ele>521.4</ele>
        <time>2020-07-17T09:41:24Z</time>
      </trkpt>
      <trkpt lat="37.4668300" lon="-4.1868670">
        <ele>522.0</ele>
        <time>2020-07-17T09:41:27Z</time>
      </trkpt>
      <trkpt lat="37.4668010" lon="-4.1869230">
        <ele>522.4</ele>
        <time>2020-07-17T09:41:28Z</time>
      </trkpt>
      <trkpt lat="37.4667360" lon="-4.1870420">
        <ele>523.0</ele>
        <time>2020-07-17T09:41:30Z</time>
      </trkpt>
      <trkpt lat="37.4666670" lon="-4.1871580">
        <ele>523.4</ele>
        <time>2020-07-17T09:41:32Z</time>
      </trkpt>
      <trkpt lat="37.4666020" lon="-4.1872620">
        <ele>523.8</ele>
        <time>2020-07-17T09:41:34Z</time>
      </trkpt>
      <trkpt lat="37.4664960" lon="-4.1874150">
        <ele>524.4</ele>
        <time>2020-07-17T09:41:37Z</time>
      </trkpt>
      <trkpt lat="37.4664590" lon="-4.1874620">
        <ele>524.6</ele>
        <time>2020-07-17T09:41:38Z</time>
      </trkpt>
      <trkpt lat="37.4663820" lon="-4.1875500">
        <ele>525.0</ele>
        <time>2020-07-17T09:41:40Z</time>
      </trkpt>
      <trkpt lat="37.4662510" lon="-4.1876740">
        <ele>525.6</ele>
        <time>2020-07-17T09:41:43Z</time>
      </trkpt>
      <trkpt lat="37.4660750" lon="-4.1878080">
        <ele>526.4</ele>
        <time>2020-07-17T09:41:47Z</time>
      </trkpt>
      <trkpt lat="37.4660290" lon="-4.1878370">
        <ele>526.6</ele>
        <time>2020-07-17T09:41:48Z</time>
      </trkpt>
      <trkpt lat="37.4657080" lon="-4.1879890">
        <ele>527.8</ele>
        <time>2020-07-17T09:41:55Z</time>
      </trkpt>
      <trkpt lat="37.4656640" lon="-4.1880050">
        <ele>527.8</ele>
        <time>2020-07-17T09:41:56Z</time>
      </trkpt>
      <trkpt lat="37.4652920" lon="-4.1880690">
        <ele>528.6</ele>
        <time>2020-07-17T09:42:03Z</time>
      </trkpt>
      <trkpt lat="37.4647450" lon="-4.1880960">
        <ele>528.8</ele>
        <time>2020-07-17T09:42:12Z</time>
      </trkpt>
      <trkpt lat="37.4646200" lon="-4.1881020">
        <ele>528.8</ele>
        <time>2020-07-17T09:42:14Z</time>
      </trkpt>
      <trkpt lat="37.4642460" lon="-4.1881200">
        <ele>528.4</ele>
        <time>2020-07-17T09:42:20Z</time>
      </trkpt>
      <trkpt lat="37.4639940" lon="-4.1881360">
        <ele>528.4</ele>
        <time>2020-07-17T09:42:24Z</time>
      </trkpt>
      <trkpt lat="37.4638760" lon="-4.1881410">
        <ele>528.6</ele>
        <time>2020-07-17T09:42:26Z</time>
      </trkpt>
      <trkpt lat="37.4636380" lon="-4.1881540">
        <ele>528.8</ele>
        <time>2020-07-17T09:42:30Z</time>
      </trkpt>
      <trkpt lat="37.4635860" lon="-4.1881580">
        <ele>528.8</ele>
        <time>2020-07-17T09:42:31Z</time>
      </trkpt>
      <trkpt lat="37.4633040" lon="-4.1881890">
        <ele>529.2</ele>
        <time>2020-07-17T09:42:36Z</time>
      </trkpt>
      <trkpt lat="37.4630310" lon="-4.1882290">
        <ele>529.8</ele>
        <time>2020-07-17T09:42:41Z</time>
      </trkpt>
      <trkpt lat="37.4627000" lon="-4.1882920">
        <ele>530.2</ele>
        <time>2020-07-17T09:42:47Z</time>
      </trkpt>
      <trkpt lat="37.4623640" lon="-4.1883420">
        <ele>531.0</ele>
        <time>2020-07-17T09:42:53Z</time>
      </trkpt>
      <trkpt lat="37.4622560" lon="-4.1883610">
        <ele>531.2</ele>
        <time>2020-07-17T09:42:55Z</time>
      </trkpt>
      <trkpt lat="37.4618750" lon="-4.1884180">
        <ele>531.6</ele>
        <time>2020-07-17T09:43:02Z</time>
      </trkpt>
      <trkpt lat="37.4614360" lon="-4.1885060">
        <ele>532.0</ele>
        <time>2020-07-17T09:43:10Z</time>
      </trkpt>
      <trkpt lat="37.4613140" lon="-4.1885330">
        <ele>532.0</ele>
        <time>2020-07-17T09:43:12Z</time>
      </trkpt>
      <trkpt lat="37.4607510" lon="-4.1887170">
        <ele>532.4</ele>
        <time>2020-07-17T09:43:22Z</time>
      </trkpt>
      <trkpt lat="37.4605800" lon="-4.1887920">
        <ele>532.8</ele>
        <time>2020-07-17T09:43:25Z</time>
      </trkpt>
      <trkpt lat="37.4603160" lon="-4.1889370">
        <ele>533.0</ele>
        <time>2020-07-17T09:43:30Z</time>
      </trkpt>
      <trkpt lat="37.4602700" lon="-4.1889660">
        <ele>533.2</ele>
        <time>2020-07-17T09:43:31Z</time>
      </trkpt>
      <trkpt lat="37.4597760" lon="-4.1893220">
        <ele>534.0</ele>
        <time>2020-07-17T09:43:41Z</time>
      </trkpt>
      <trkpt lat="37.4593000" lon="-4.1896830">
        <ele>534.8</ele>
        <time>2020-07-17T09:43:51Z</time>
      </trkpt>
      <trkpt lat="37.4591560" lon="-4.1897900">
        <ele>535.2</ele>
        <time>2020-07-17T09:43:54Z</time>
      </trkpt>
      <trkpt lat="37.4589150" lon="-4.1899630">
        <ele>536.0</ele>
        <time>2020-07-17T09:43:59Z</time>
      </trkpt>
      <trkpt lat="37.4587590" lon="-4.1900480">
        <ele>536.2</ele>
        <time>2020-07-17T09:44:02Z</time>
      </trkpt>
      <trkpt lat="37.4585020" lon="-4.1901860">
        <ele>536.6</ele>
        <time>2020-07-17T09:44:07Z</time>
      </trkpt>
      <trkpt lat="37.4581500" lon="-4.1903690">
        <ele>537.2</ele>
        <time>2020-07-17T09:44:14Z</time>
      </trkpt>
      <trkpt lat="37.4581020" lon="-4.1903950">
        <ele>537.4</ele>
        <time>2020-07-17T09:44:15Z</time>
      </trkpt>
      <trkpt lat="37.4576490" lon="-4.1906320">
        <ele>538.2</ele>
        <time>2020-07-17T09:44:24Z</time>
      </trkpt>
      <trkpt lat="37.4575580" lon="-4.1906790">
        <ele>538.4</ele>
        <time>2020-07-17T09:44:26Z</time>
      </trkpt>
      <trkpt lat="37.4570870" lon="-4.1909650">
        <ele>539.4</ele>
        <time>2020-07-17T09:44:36Z</time>
      </trkpt>
      <trkpt lat="37.4570360" lon="-4.1909990">
        <ele>539.6</ele>
        <time>2020-07-17T09:44:37Z</time>
      </trkpt>
      <trkpt lat="37.4566900" lon="-4.1912620">
        <ele>540.4</ele>
        <time>2020-07-17T09:44:45Z</time>
      </trkpt>
      <trkpt lat="37.4566100" lon="-4.1913330">
        <ele>540.8</ele>
        <time>2020-07-17T09:44:47Z</time>
      </trkpt>
      <trkpt lat="37.4564270" lon="-4.1915310">
        <ele>541.6</ele>
        <time>2020-07-17T09:44:52Z</time>
      </trkpt>
      <trkpt lat="37.4563170" lon="-4.1916520">
        <ele>542.0</ele>
        <time>2020-07-17T09:44:55Z</time>
      </trkpt>
      <trkpt lat="37.4562080" lon="-4.1917570">
        <ele>542.8</ele>
        <time>2020-07-17T09:44:58Z</time>
      </trkpt>
      <trkpt lat="37.4560500" lon="-4.1918830">
        <ele>543.6</ele>
        <time>2020-07-17T09:45:02Z</time>
      </trkpt>
      <trkpt lat="37.4559700" lon="-4.1919360">
        <ele>544.0</ele>
        <time>2020-07-17T09:45:04Z</time>
      </trkpt>
      <trkpt lat="37.4557040" lon="-4.1921180">
        <ele>544.8</ele>
        <time>2020-07-17T09:45:11Z</time>
      </trkpt>
      <trkpt lat="37.4556640" lon="-4.1921460">
        <ele>545.0</ele>
        <time>2020-07-17T09:45:12Z</time>
      </trkpt>
      <trkpt lat="37.4553660" lon="-4.1923470">
        <ele>546.2</ele>
        <time>2020-07-17T09:45:20Z</time>
      </trkpt>
      <trkpt lat="37.4552160" lon="-4.1924620">
        <ele>546.8</ele>
        <time>2020-07-17T09:45:24Z</time>
      </trkpt>
      <trkpt lat="37.4551070" lon="-4.1925610">
        <ele>547.2</ele>
        <time>2020-07-17T09:45:27Z</time>
      </trkpt>
      <trkpt lat="37.4548910" lon="-4.1927590">
        <ele>547.8</ele>
        <time>2020-07-17T09:45:33Z</time>
      </trkpt>
      <trkpt lat="37.4548200" lon="-4.1928250">
        <ele>548.2</ele>
        <time>2020-07-17T09:45:35Z</time>
      </trkpt>
      <trkpt lat="37.4547850" lon="-4.1928570">
        <ele>548.2</ele>
        <time>2020-07-17T09:45:36Z</time>
      </trkpt>
      <trkpt lat="37.4545350" lon="-4.1930610">
        <ele>548.6</ele>
        <time>2020-07-17T09:45:42Z</time>
      </trkpt>
      <trkpt lat="37.4543960" lon="-4.1931700">
        <ele>548.2</ele>
        <time>2020-07-17T09:45:45Z</time>
      </trkpt>
      <trkpt lat="37.4541950" lon="-4.1933090">
        <ele>548.6</ele>
        <time>2020-07-17T09:45:49Z</time>
      </trkpt>
      <trkpt lat="37.4539850" lon="-4.1934280">
        <ele>548.6</ele>
        <time>2020-07-17T09:45:53Z</time>
      </trkpt>
      <trkpt lat="37.4538300" lon="-4.1935030">
        <ele>548.8</ele>
        <time>2020-07-17T09:45:56Z</time>
      </trkpt>
      <trkpt lat="37.4536550" lon="-4.1935820">
        <ele>548.6</ele>
        <time>2020-07-17T09:45:59Z</time>
      </trkpt>
      <trkpt lat="37.4534300" lon="-4.1936850">
        <ele>548.2</ele>
        <time>2020-07-17T09:46:03Z</time>
      </trkpt>
      <trkpt lat="37.4530940" lon="-4.1938380">
        <ele>548.2</ele>
        <time>2020-07-17T09:46:09Z</time>
      </trkpt>
      <trkpt lat="37.4530430" lon="-4.1938620">
        <ele>548.2</ele>
        <time>2020-07-17T09:46:10Z</time>
      </trkpt>
      <trkpt lat="37.4526340" lon="-4.1940540">
        <ele>548.4</ele>
        <time>2020-07-17T09:46:17Z</time>
      </trkpt>
      <trkpt lat="37.4525760" lon="-4.1940790">
        <ele>548.4</ele>
        <time>2020-07-17T09:46:18Z</time>
      </trkpt>
      <trkpt lat="37.4520880" lon="-4.1942500">
        <ele>548.2</ele>
        <time>2020-07-17T09:46:26Z</time>
      </trkpt>
      <trkpt lat="37.4520180" lon="-4.1942670">
        <ele>548.0</ele>
        <time>2020-07-17T09:46:27Z</time>
      </trkpt>
      <trkpt lat="37.4515400" lon="-4.1943630">
        <ele>547.6</ele>
        <time>2020-07-17T09:46:34Z</time>
      </trkpt>
      <trkpt lat="37.4513960" lon="-4.1943950">
        <ele>547.4</ele>
        <time>2020-07-17T09:46:36Z</time>
      </trkpt>
      <trkpt lat="37.4512440" lon="-4.1944340">
        <ele>547.2</ele>
        <time>2020-07-17T09:46:38Z</time>
      </trkpt>
      <trkpt lat="37.4509440" lon="-4.1945120">
        <ele>546.6</ele>
        <time>2020-07-17T09:46:42Z</time>
      </trkpt>
      <trkpt lat="37.4507960" lon="-4.1945550">
        <ele>546.2</ele>
        <time>2020-07-17T09:46:44Z</time>
      </trkpt>
      <trkpt lat="37.4506620" lon="-4.1945880">
        <ele>545.8</ele>
        <time>2020-07-17T09:46:46Z</time>
      </trkpt>
      <trkpt lat="37.4505710" lon="-4.1945950">
        <ele>545.6</ele>
        <time>2020-07-17T09:46:47Z</time>
      </trkpt>
      <trkpt lat="37.4503510" lon="-4.1945530">
        <ele>545.2</ele>
        <time>2020-07-17T09:46:50Z</time>
      </trkpt>
      <trkpt lat="37.4502910" lon="-4.1945350">
        <ele>545.4</ele>
        <time>2020-07-17T09:46:51Z</time>
      </trkpt>
      <trkpt lat="37.4499870" lon="-4.1944260">
        <ele>545.6</ele>
        <time>2020-07-17T09:46:56Z</time>
      </trkpt>
      <trkpt lat="37.4498760" lon="-4.1943840">
        <ele>546.0</ele>
        <time>2020-07-17T09:46:58Z</time>
      </trkpt>
      <trkpt lat="37.4497200" lon="-4.1943260">
        <ele>546.6</ele>
        <time>2020-07-17T09:47:01Z</time>
      </trkpt>
      <trkpt lat="37.4495690" lon="-4.1942800">
        <ele>547.2</ele>
        <time>2020-07-17T09:47:04Z</time>
      </trkpt>
      <trkpt lat="37.4493590" lon="-4.1942460">
        <ele>547.8</ele>
        <time>2020-07-17T09:47:08Z</time>
      </trkpt>
      <trkpt lat="37.4493080" lon="-4.1942490">
        <ele>548.0</ele>
        <time>2020-07-17T09:47:09Z</time>
      </trkpt>
      <trkpt lat="37.4492680" lon="-4.1942560">
        <ele>548.2</ele>
        <time>2020-07-17T09:47:10Z</time>
      </trkpt>
      <trkpt lat="37.4492250" lon="-4.1942710">
        <ele>548.4</ele>
        <time>2020-07-17T09:47:11Z</time>
      </trkpt>
      <trkpt lat="37.4490870" lon="-4.1943780">
        <ele>549.2</ele>
        <time>2020-07-17T09:47:15Z</time>
      </trkpt>
      <trkpt lat="37.4490680" lon="-4.1944050">
        <ele>549.4</ele>
        <time>2020-07-17T09:47:16Z</time>
      </trkpt>
      <trkpt lat="37.4490160" lon="-4.1945220">
        <ele>550.4</ele>
        <time>2020-07-17T09:47:19Z</time>
      </trkpt>
      <trkpt lat="37.4490050" lon="-4.1945620">
        <ele>550.8</ele>
        <time>2020-07-17T09:47:20Z</time>
      </trkpt>
      <trkpt lat="37.4489990" lon="-4.1946910">
        <ele>551.8</ele>
        <time>2020-07-17T09:47:23Z</time>
      </trkpt>
      <trkpt lat="37.4490090" lon="-4.1947810">
        <ele>552.6</ele>
        <time>2020-07-17T09:47:25Z</time>
      </trkpt>
      <trkpt lat="37.4490360" lon="-4.1948720">
        <ele>553.0</ele>
        <time>2020-07-17T09:47:27Z</time>
      </trkpt>
      <trkpt lat="37.4490950" lon="-4.1950010">
        <ele>554.2</ele>
        <time>2020-07-17T09:47:30Z</time>
      </trkpt>
      <trkpt lat="37.4492190" lon="-4.1952360">
        <ele>555.0</ele>
        <time>2020-07-17T09:47:35Z</time>
      </trkpt>
      <trkpt lat="37.4492990" lon="-4.1954030">
        <ele>555.0</ele>
        <time>2020-07-17T09:47:38Z</time>
      </trkpt>
      <trkpt lat="37.4495010" lon="-4.1958680">
        <ele>554.4</ele>
        <time>2020-07-17T09:47:45Z</time>
      </trkpt>
      <trkpt lat="37.4497070" lon="-4.1965030">
        <ele>553.2</ele>
        <time>2020-07-17T09:47:53Z</time>
      </trkpt>
      <trkpt lat="37.4498070" lon="-4.1968400">
        <ele>553.0</ele>
        <time>2020-07-17T09:47:57Z</time>
      </trkpt>
      <trkpt lat="37.4498530" lon="-4.1970040">
        <ele>553.0</ele>
        <time>2020-07-17T09:47:59Z</time>
      </trkpt>
      <trkpt lat="37.4499160" lon="-4.1972450">
        <ele>553.2</ele>
        <time>2020-07-17T09:48:02Z</time>
      </trkpt>
      <trkpt lat="37.4499360" lon="-4.1973210">
        <ele>553.4</ele>
        <time>2020-07-17T09:48:03Z</time>
      </trkpt>
      <trkpt lat="37.4500350" lon="-4.1976970">
        <ele>553.6</ele>
        <time>2020-07-17T09:48:08Z</time>
      </trkpt>
      <trkpt lat="37.4501270" lon="-4.1980600">
        <ele>554.2</ele>
        <time>2020-07-17T09:48:13Z</time>
      </trkpt>
      <trkpt lat="37.4501460" lon="-4.1981300">
        <ele>554.4</ele>
        <time>2020-07-17T09:48:14Z</time>
      </trkpt>
      <trkpt lat="37.4502180" lon="-4.1984130">
        <ele>555.4</ele>
        <time>2020-07-17T09:48:18Z</time>
      </trkpt>
      <trkpt lat="37.4503060" lon="-4.1987540">
        <ele>556.2</ele>
        <time>2020-07-17T09:48:23Z</time>
      </trkpt>
      <trkpt lat="37.4503230" lon="-4.1988220">
        <ele>556.4</ele>
        <time>2020-07-17T09:48:24Z</time>
      </trkpt>
      <trkpt lat="37.4504610" lon="-4.1994260">
        <ele>557.4</ele>
        <time>2020-07-17T09:48:33Z</time>
      </trkpt>
      <trkpt lat="37.4504850" lon="-4.1995580">
        <ele>558.0</ele>
        <time>2020-07-17T09:48:35Z</time>
      </trkpt>
      <trkpt lat="37.4505160" lon="-4.1997570">
        <ele>558.6</ele>
        <time>2020-07-17T09:48:38Z</time>
      </trkpt>
      <trkpt lat="37.4505600" lon="-4.2002140">
        <ele>559.4</ele>
        <time>2020-07-17T09:48:45Z</time>
      </trkpt>
      <trkpt lat="37.4505650" lon="-4.2004080">
        <ele>559.8</ele>
        <time>2020-07-17T09:48:48Z</time>
      </trkpt>
      <trkpt lat="37.4505580" lon="-4.2008710">
        <ele>560.6</ele>
        <time>2020-07-17T09:48:55Z</time>
      </trkpt>
      <trkpt lat="37.4505490" lon="-4.2010040">
        <ele>560.8</ele>
        <time>2020-07-17T09:48:57Z</time>
      </trkpt>
      <trkpt lat="37.4504940" lon="-4.2015920">
        <ele>561.8</ele>
        <time>2020-07-17T09:49:06Z</time>
      </trkpt>
      <trkpt lat="37.4504780" lon="-4.2017320">
        <ele>562.2</ele>
        <time>2020-07-17T09:49:08Z</time>
      </trkpt>
      <trkpt lat="37.4504270" lon="-4.2021870">
        <ele>563.0</ele>
        <time>2020-07-17T09:49:15Z</time>
      </trkpt>
      <trkpt lat="37.4503980" lon="-4.2024500">
        <ele>563.4</ele>
        <time>2020-07-17T09:49:19Z</time>
      </trkpt>
      <trkpt lat="37.4503770" lon="-4.2026380">
        <ele>564.0</ele>
        <time>2020-07-17T09:49:22Z</time>
      </trkpt>
      <trkpt lat="37.4503160" lon="-4.2032330">
        <ele>564.8</ele>
        <time>2020-07-17T09:49:31Z</time>
      </trkpt>
      <trkpt lat="37.4503000" lon="-4.2033750">
        <ele>565.0</ele>
        <time>2020-07-17T09:49:33Z</time>
      </trkpt>
      <trkpt lat="37.4502350" lon="-4.2039760">
        <ele>566.0</ele>
        <time>2020-07-17T09:49:42Z</time>
      </trkpt>
      <trkpt lat="37.4502290" lon="-4.2040420">
        <ele>566.2</ele>
        <time>2020-07-17T09:49:43Z</time>
      </trkpt>
      <trkpt lat="37.4501780" lon="-4.2044890">
        <ele>567.4</ele>
        <time>2020-07-17T09:49:50Z</time>
      </trkpt>
      <trkpt lat="37.4501650" lon="-4.2046050">
        <ele>567.8</ele>
        <time>2020-07-17T09:49:52Z</time>
      </trkpt>
      <trkpt lat="37.4501460" lon="-4.2047890">
        <ele>568.4</ele>
        <time>2020-07-17T09:49:55Z</time>
      </trkpt>
      <trkpt lat="37.4501220" lon="-4.2050160">
        <ele>569.0</ele>
        <time>2020-07-17T09:49:59Z</time>
      </trkpt>
      <trkpt lat="37.4501120" lon="-4.2051120">
        <ele>569.4</ele>
        <time>2020-07-17T09:50:01Z</time>
      </trkpt>
      <trkpt lat="37.4500900" lon="-4.2053200">
        <ele>570.6</ele>
        <time>2020-07-17T09:50:05Z</time>
      </trkpt>
      <trkpt lat="37.4500700" lon="-4.2055100">
        <ele>571.8</ele>
        <time>2020-07-17T09:50:09Z</time>
      </trkpt>
      <trkpt lat="37.4500560" lon="-4.2056520">
        <ele>572.4</ele>
        <time>2020-07-17T09:50:12Z</time>
      </trkpt>
      <trkpt lat="37.4500450" lon="-4.2057460">
        <ele>573.0</ele>
        <time>2020-07-17T09:50:14Z</time>
      </trkpt>
      <trkpt lat="37.4500190" lon="-4.2059780">
        <ele>574.0</ele>
        <time>2020-07-17T09:50:19Z</time>
      </trkpt>
      <trkpt lat="37.4500040" lon="-4.2061060">
        <ele>574.8</ele>
        <time>2020-07-17T09:50:22Z</time>
      </trkpt>
      <trkpt lat="37.4499920" lon="-4.2062000">
        <ele>575.4</ele>
        <time>2020-07-17T09:50:24Z</time>
      </trkpt>
      <trkpt lat="37.4499670" lon="-4.2064180">
        <ele>576.6</ele>
        <time>2020-07-17T09:50:29Z</time>
      </trkpt>
      <trkpt lat="37.4499430" lon="-4.2065920">
        <ele>577.4</ele>
        <time>2020-07-17T09:50:33Z</time>
      </trkpt>
      <trkpt lat="37.4499380" lon="-4.2066320">
        <ele>577.6</ele>
        <time>2020-07-17T09:50:34Z</time>
      </trkpt>
      <trkpt lat="37.4498920" lon="-4.2069040">
        <ele>578.6</ele>
        <time>2020-07-17T09:50:40Z</time>
      </trkpt>
      <trkpt lat="37.4498580" lon="-4.2070930">
        <ele>579.2</ele>
        <time>2020-07-17T09:50:44Z</time>
      </trkpt>
      <trkpt lat="37.4498410" lon="-4.2071750">
        <ele>579.8</ele>
        <time>2020-07-17T09:50:46Z</time>
      </trkpt>
      <trkpt lat="37.4497950" lon="-4.2073610">
        <ele>580.8</ele>
        <time>2020-07-17T09:50:50Z</time>
      </trkpt>
      <trkpt lat="37.4497520" lon="-4.2075380">
        <ele>581.4</ele>
        <time>2020-07-17T09:50:54Z</time>
      </trkpt>
      <trkpt lat="37.4497020" lon="-4.2077100">
        <ele>581.8</ele>
        <time>2020-07-17T09:50:58Z</time>
      </trkpt>
      <trkpt lat="37.4495860" lon="-4.2080720">
        <ele>583.0</ele>
        <time>2020-07-17T09:51:06Z</time>
      </trkpt>
      <trkpt lat="37.4495670" lon="-4.2081250">
        <ele>583.0</ele>
        <time>2020-07-17T09:51:07Z</time>
      </trkpt>
      <trkpt lat="37.4494530" lon="-4.2083980">
        <ele>583.8</ele>
        <time>2020-07-17T09:51:13Z</time>
      </trkpt>
      <trkpt lat="37.4493740" lon="-4.2085830">
        <ele>584.0</ele>
        <time>2020-07-17T09:51:17Z</time>
      </trkpt>
      <trkpt lat="37.4492390" lon="-4.2088620">
        <ele>584.4</ele>
        <time>2020-07-17T09:51:23Z</time>
      </trkpt>
      <trkpt lat="37.4491680" lon="-4.2090000">
        <ele>584.6</ele>
        <time>2020-07-17T09:51:26Z</time>
      </trkpt>
      <trkpt lat="37.4490880" lon="-4.2091490">
        <ele>584.6</ele>
        <time>2020-07-17T09:51:29Z</time>
      </trkpt>
      <trkpt lat="37.4490380" lon="-4.2092370">
        <ele>584.8</ele>
        <time>2020-07-17T09:51:31Z</time>
      </trkpt>
      <trkpt lat="37.4489800" lon="-4.2093350">
        <ele>585.0</ele>
        <time>2020-07-17T09:51:33Z</time>
      </trkpt>
      <trkpt lat="37.4488970" lon="-4.2094670">
        <ele>585.0</ele>
        <time>2020-07-17T09:51:36Z</time>
      </trkpt>
      <trkpt lat="37.4488640" lon="-4.2095170">
        <ele>585.0</ele>
        <time>2020-07-17T09:51:37Z</time>
      </trkpt>
      <trkpt lat="37.4486690" lon="-4.2097830">
        <ele>585.6</ele>
        <time>2020-07-17T09:51:43Z</time>
      </trkpt>
      <trkpt lat="37.4484840" lon="-4.2100190">
        <ele>585.8</ele>
        <time>2020-07-17T09:51:48Z</time>
      </trkpt>
      <trkpt lat="37.4482360" lon="-4.2102980">
        <ele>586.0</ele>
        <time>2020-07-17T09:51:54Z</time>
      </trkpt>
      <trkpt lat="37.4480120" lon="-4.2105160">
        <ele>586.6</ele>
        <time>2020-07-17T09:51:59Z</time>
      </trkpt>
      <trkpt lat="37.4477910" lon="-4.2107120">
        <ele>587.0</ele>
        <time>2020-07-17T09:52:04Z</time>
      </trkpt>
      <trkpt lat="37.4476050" lon="-4.2108570">
        <ele>587.6</ele>
        <time>2020-07-17T09:52:08Z</time>
      </trkpt>
      <trkpt lat="37.4474760" lon="-4.2109460">
        <ele>588.2</ele>
        <time>2020-07-17T09:52:11Z</time>
      </trkpt>
      <trkpt lat="37.4472930" lon="-4.2110690">
        <ele>588.8</ele>
        <time>2020-07-17T09:52:15Z</time>
      </trkpt>
      <trkpt lat="37.4472080" lon="-4.2111200">
        <ele>589.2</ele>
        <time>2020-07-17T09:52:17Z</time>
      </trkpt>
      <trkpt lat="37.4470470" lon="-4.2112150">
        <ele>590.2</ele>
        <time>2020-07-17T09:52:21Z</time>
      </trkpt>
      <trkpt lat="37.4469280" lon="-4.2112770">
        <ele>591.0</ele>
        <time>2020-07-17T09:52:24Z</time>
      </trkpt>
      <trkpt lat="37.4468170" lon="-4.2113290">
        <ele>591.4</ele>
        <time>2020-07-17T09:52:27Z</time>
      </trkpt>
      <trkpt lat="37.4466060" lon="-4.2114240">
        <ele>592.4</ele>
        <time>2020-07-17T09:52:33Z</time>
      </trkpt>
      <trkpt lat="37.4465360" lon="-4.2114550">
        <ele>592.8</ele>
        <time>2020-07-17T09:52:35Z</time>
      </trkpt>
      <trkpt lat="37.4464300" lon="-4.2114990">
        <ele>593.4</ele>
        <time>2020-07-17T09:52:38Z</time>
      </trkpt>
      <trkpt lat="37.4462230" lon="-4.2115890">
        <ele>594.6</ele>
        <time>2020-07-17T09:52:44Z</time>
      </trkpt>
      <trkpt lat="37.4461880" lon="-4.2116010">
        <ele>594.6</ele>
        <time>2020-07-17T09:52:45Z</time>
      </trkpt>
      <trkpt lat="37.4459840" lon="-4.2116820">
        <ele>595.6</ele>
        <time>2020-07-17T09:52:51Z</time>
      </trkpt>
      <trkpt lat="37.4458280" lon="-4.2117460">
        <ele>596.4</ele>
        <time>2020-07-17T09:52:55Z</time>
      </trkpt>
      <trkpt lat="37.4457690" lon="-4.2117730">
        <ele>596.8</ele>
        <time>2020-07-17T09:52:57Z</time>
      </trkpt>
      <trkpt lat="37.4455640" lon="-4.2118660">
        <ele>597.8</ele>
        <time>2020-07-17T09:53:03Z</time>
      </trkpt>
      <trkpt lat="37.4454310" lon="-4.2119310">
        <ele>598.6</ele>
        <time>2020-07-17T09:53:07Z</time>
      </trkpt>
      <trkpt lat="37.4453640" lon="-4.2119680">
        <ele>599.0</ele>
        <time>2020-07-17T09:53:09Z</time>
      </trkpt>
      <trkpt lat="37.4451400" lon="-4.2120970">
        <ele>600.0</ele>
        <time>2020-07-17T09:53:16Z</time>
      </trkpt>
      <trkpt lat="37.4450710" lon="-4.2121420">
        <ele>600.6</ele>
        <time>2020-07-17T09:53:18Z</time>
      </trkpt>
      <trkpt lat="37.4449790" lon="-4.2122070">
        <ele>601.2</ele>
        <time>2020-07-17T09:53:21Z</time>
      </trkpt>
      <trkpt lat="37.4447630" lon="-4.2123690">
        <ele>602.2</ele>
        <time>2020-07-17T09:53:28Z</time>
      </trkpt>
      <trkpt lat="37.4447320" lon="-4.2123950">
        <ele>602.4</ele>
        <time>2020-07-17T09:53:29Z</time>
      </trkpt>
      <trkpt lat="37.4445840" lon="-4.2125200">
        <ele>603.4</ele>
        <time>2020-07-17T09:53:34Z</time>
      </trkpt>
      <trkpt lat="37.4444150" lon="-4.2126760">
        <ele>604.4</ele>
        <time>2020-07-17T09:53:40Z</time>
      </trkpt>
      <trkpt lat="37.4443890" lon="-4.2127020">
        <ele>604.6</ele>
        <time>2020-07-17T09:53:41Z</time>
      </trkpt>
      <trkpt lat="37.4442230" lon="-4.2128780">
        <ele>605.6</ele>
        <time>2020-07-17T09:53:47Z</time>
      </trkpt>
      <trkpt lat="37.4441140" lon="-4.2130050">
        <ele>606.4</ele>
        <time>2020-07-17T09:53:51Z</time>
      </trkpt>
      <trkpt lat="37.4440850" lon="-4.2130400">
        <ele>606.6</ele>
        <time>2020-07-17T09:53:52Z</time>
      </trkpt>
      <trkpt lat="37.4439340" lon="-4.2132360">
        <ele>607.8</ele>
        <time>2020-07-17T09:53:58Z</time>
      </trkpt>
      <trkpt lat="37.4438600" lon="-4.2133320">
        <ele>608.2</ele>
        <time>2020-07-17T09:54:01Z</time>
      </trkpt>
      <trkpt lat="37.4437870" lon="-4.2134300">
        <ele>608.8</ele>
        <time>2020-07-17T09:54:04Z</time>
      </trkpt>
      <trkpt lat="37.4436720" lon="-4.2135940">
        <ele>609.8</ele>
        <time>2020-07-17T09:54:09Z</time>
      </trkpt>
      <trkpt lat="37.4435850" lon="-4.2137190">
        <ele>610.8</ele>
        <time>2020-07-17T09:54:13Z</time>
      </trkpt>
      <trkpt lat="37.4435630" lon="-4.2137510">
        <ele>611.0</ele>
        <time>2020-07-17T09:54:14Z</time>
      </trkpt>
      <trkpt lat="37.4433890" lon="-4.2140100">
        <ele>612.0</ele>
        <time>2020-07-17T09:54:22Z</time>
      </trkpt>
      <trkpt lat="37.4433420" lon="-4.2140780">
        <ele>612.6</ele>
        <time>2020-07-17T09:54:24Z</time>
      </trkpt>
      <trkpt lat="37.4432730" lon="-4.2141770">
        <ele>613.2</ele>
        <time>2020-07-17T09:54:27Z</time>
      </trkpt>
      <trkpt lat="37.4431390" lon="-4.2143710">
        <ele>614.2</ele>
        <time>2020-07-17T09:54:33Z</time>
      </trkpt>
      <trkpt lat="37.4430530" lon="-4.2145000">
        <ele>614.8</ele>
        <time>2020-07-17T09:54:37Z</time>
      </trkpt>
      <trkpt lat="37.4429870" lon="-4.2145970">
        <ele>615.2</ele>
        <time>2020-07-17T09:54:40Z</time>
      </trkpt>
      <trkpt lat="37.4428530" lon="-4.2147970">
        <ele>616.4</ele>
        <time>2020-07-17T09:54:46Z</time>
      </trkpt>
      <trkpt lat="37.4427590" lon="-4.2149330">
        <ele>617.0</ele>
        <time>2020-07-17T09:54:50Z</time>
      </trkpt>
      <trkpt lat="37.4427150" lon="-4.2149960">
        <ele>617.4</ele>
        <time>2020-07-17T09:54:52Z</time>
      </trkpt>
      <trkpt lat="37.4425820" lon="-4.2151900">
        <ele>618.6</ele>
        <time>2020-07-17T09:54:58Z</time>
      </trkpt>
      <trkpt lat="37.4424940" lon="-4.2153250">
        <ele>619.2</ele>
        <time>2020-07-17T09:55:02Z</time>
      </trkpt>
      <trkpt lat="37.4424260" lon="-4.2154170">
        <ele>619.6</ele>
        <time>2020-07-17T09:55:05Z</time>
      </trkpt>
      <trkpt lat="37.4423000" lon="-4.2156080">
        <ele>620.6</ele>
        <time>2020-07-17T09:55:11Z</time>
      </trkpt>
      <trkpt lat="37.4422550" lon="-4.2156750">
        <ele>621.0</ele>
        <time>2020-07-17T09:55:13Z</time>
      </trkpt>
      <trkpt lat="37.4421620" lon="-4.2158020">
        <ele>621.8</ele>
        <time>2020-07-17T09:55:17Z</time>
      </trkpt>
      <trkpt lat="37.4420270" lon="-4.2160060">
        <ele>622.6</ele>
        <time>2020-07-17T09:55:23Z</time>
      </trkpt>
      <trkpt lat="37.4420040" lon="-4.2160390">
        <ele>622.8</ele>
        <time>2020-07-17T09:55:24Z</time>
      </trkpt>
      <trkpt lat="37.4418920" lon="-4.2162110">
        <ele>624.0</ele>
        <time>2020-07-17T09:55:29Z</time>
      </trkpt>
      <trkpt lat="37.4417810" lon="-4.2163920">
        <ele>624.8</ele>
        <time>2020-07-17T09:55:34Z</time>
      </trkpt>
      <trkpt lat="37.4417340" lon="-4.2164670">
        <ele>625.0</ele>
        <time>2020-07-17T09:55:36Z</time>
      </trkpt>
      <trkpt lat="37.4415930" lon="-4.2166930">
        <ele>626.2</ele>
        <time>2020-07-17T09:55:42Z</time>
      </trkpt>
      <trkpt lat="37.4415450" lon="-4.2167680">
        <ele>626.6</ele>
        <time>2020-07-17T09:55:44Z</time>
      </trkpt>
      <trkpt lat="37.4414200" lon="-4.2169540">
        <ele>627.2</ele>
        <time>2020-07-17T09:55:49Z</time>
      </trkpt>
      <trkpt lat="37.4412380" lon="-4.2172200">
        <ele>628.2</ele>
        <time>2020-07-17T09:55:56Z</time>
      </trkpt>
      <trkpt lat="37.4412080" lon="-4.2172620">
        <ele>628.4</ele>
        <time>2020-07-17T09:55:57Z</time>
      </trkpt>
      <trkpt lat="37.4409860" lon="-4.2175860">
        <ele>629.2</ele>
        <time>2020-07-17T09:56:05Z</time>
      </trkpt>
      <trkpt lat="37.4409540" lon="-4.2176280">
        <ele>629.4</ele>
        <time>2020-07-17T09:56:06Z</time>
      </trkpt>
      <trkpt lat="37.4407250" lon="-4.2179500">
        <ele>630.0</ele>
        <time>2020-07-17T09:56:13Z</time>
      </trkpt>
      <trkpt lat="37.4405900" lon="-4.2181330">
        <ele>630.4</ele>
        <time>2020-07-17T09:56:17Z</time>
      </trkpt>
      <trkpt lat="37.4405310" lon="-4.2182320">
        <ele>630.6</ele>
        <time>2020-07-17T09:56:19Z</time>
      </trkpt>
      <trkpt lat="37.4404970" lon="-4.2183490">
        <ele>630.8</ele>
        <time>2020-07-17T09:56:21Z</time>
      </trkpt>
      <trkpt lat="37.4404780" lon="-4.2184830">
        <ele>631.0</ele>
        <time>2020-07-17T09:56:23Z</time>
      </trkpt>
      <trkpt lat="37.4404760" lon="-4.2185390">
        <ele>631.0</ele>
        <time>2020-07-17T09:56:25Z</time>
      </trkpt>
      <trkpt lat="37.4404700" lon="-4.2187080">
        <ele>631.0</ele>
        <time>2020-07-17T09:56:27Z</time>
      </trkpt>
      <trkpt lat="37.4404500" lon="-4.2187420">
        <ele>631.0</ele>
        <time>2020-07-17T09:56:29Z</time>
      </trkpt>
      <trkpt lat="37.4404420" lon="-4.2187440">
        <ele>631.2</ele>
        <time>2020-07-17T09:56:30Z</time>
      </trkpt>
      <trkpt lat="37.4404410" lon="-4.2187430">
        <ele>631.4</ele>
        <time>2020-07-17T09:56:32Z</time>
      </trkpt>
      <trkpt lat="37.4403100" lon="-4.2187240">
        <ele>631.2</ele>
        <time>2020-07-17T10:00:08Z</time>
      </trkpt>
      <trkpt lat="37.4402880" lon="-4.2187450">
        <ele>631.2</ele>
        <time>2020-07-17T10:00:09Z</time>
      </trkpt>
      <trkpt lat="37.4401680" lon="-4.2187780">
        <ele>631.0</ele>
        <time>2020-07-17T10:00:13Z</time>
      </trkpt>
      <trkpt lat="37.4401360" lon="-4.2187760">
        <ele>631.0</ele>
        <time>2020-07-17T10:00:14Z</time>
      </trkpt>
      <trkpt lat="37.4400130" lon="-4.2188300">
        <ele>631.2</ele>
        <time>2020-07-17T10:00:18Z</time>
      </trkpt>
      <trkpt lat="37.4399870" lon="-4.2188710">
        <ele>631.2</ele>
        <time>2020-07-17T10:00:19Z</time>
      </trkpt>
      <trkpt lat="37.4399360" lon="-4.2189520">
        <ele>631.4</ele>
        <time>2020-07-17T10:00:21Z</time>
      </trkpt>
      <trkpt lat="37.4398550" lon="-4.2190820">
        <ele>631.6</ele>
        <time>2020-07-17T10:00:24Z</time>
      </trkpt>
      <trkpt lat="37.4397920" lon="-4.2191760">
        <ele>632.0</ele>
        <time>2020-07-17T10:00:26Z</time>
      </trkpt>
      <trkpt lat="37.4397270" lon="-4.2192670">
        <ele>632.2</ele>
        <time>2020-07-17T10:00:28Z</time>
      </trkpt>
      <trkpt lat="37.4396210" lon="-4.2194150">
        <ele>632.6</ele>
        <time>2020-07-17T10:00:31Z</time>
      </trkpt>
      <trkpt lat="37.4395500" lon="-4.2195110">
        <ele>632.6</ele>
        <time>2020-07-17T10:00:33Z</time>
      </trkpt>
      <trkpt lat="37.4393690" lon="-4.2197320">
        <ele>633.0</ele>
        <time>2020-07-17T10:00:38Z</time>
      </trkpt>
      <trkpt lat="37.4391850" lon="-4.2199370">
        <ele>633.2</ele>
        <time>2020-07-17T10:00:43Z</time>
      </trkpt>
      <trkpt lat="37.4389990" lon="-4.2201260">
        <ele>633.6</ele>
        <time>2020-07-17T10:00:48Z</time>
      </trkpt>
      <trkpt lat="37.4389310" lon="-4.2201930">
        <ele>633.6</ele>
        <time>2020-07-17T10:00:50Z</time>
      </trkpt>
      <trkpt lat="37.4388340" lon="-4.2202730">
        <ele>633.8</ele>
        <time>2020-07-17T10:00:52Z</time>
      </trkpt>
      <trkpt lat="37.4383420" lon="-4.2206810">
        <ele>634.6</ele>
        <time>2020-07-17T10:01:04Z</time>
      </trkpt>
      <trkpt lat="37.4382480" lon="-4.2207590">
        <ele>634.8</ele>
        <time>2020-07-17T10:01:07Z</time>
      </trkpt>
      <trkpt lat="37.4378470" lon="-4.2210840">
        <ele>635.4</ele>
        <time>2020-07-17T10:01:16Z</time>
      </trkpt>
      <trkpt lat="37.4377690" lon="-4.2211490">
        <ele>635.6</ele>
        <time>2020-07-17T10:01:18Z</time>
      </trkpt>
      <trkpt lat="37.4375650" lon="-4.2213160">
        <ele>635.8</ele>
        <time>2020-07-17T10:01:23Z</time>
      </trkpt>
      <trkpt lat="37.4371860" lon="-4.2216350">
        <ele>636.2</ele>
        <time>2020-07-17T10:01:32Z</time>
      </trkpt>
      <trkpt lat="37.4370980" lon="-4.2217300">
        <ele>636.2</ele>
        <time>2020-07-17T10:01:34Z</time>
      </trkpt>
      <trkpt lat="37.4369340" lon="-4.2219390">
        <ele>636.0</ele>
        <time>2020-07-17T10:01:38Z</time>
      </trkpt>
      <trkpt lat="37.4368360" lon="-4.2220870">
        <ele>635.8</ele>
        <time>2020-07-17T10:01:41Z</time>
      </trkpt>
      <trkpt lat="37.4367450" lon="-4.2221940">
        <ele>635.4</ele>
        <time>2020-07-17T10:01:45Z</time>
      </trkpt>
      <trkpt lat="37.4366000" lon="-4.2222880">
        <ele>635.0</ele>
        <time>2020-07-17T10:01:50Z</time>
      </trkpt>
      <trkpt lat="37.4365880" lon="-4.2223050">
        <ele>635.0</ele>
        <time>2020-07-17T10:01:53Z</time>
      </trkpt>
      <trkpt lat="37.4365560" lon="-4.2223460">
        <ele>635.4</ele>
        <time>2020-07-17T10:01:57Z</time>
      </trkpt>
      <trkpt lat="37.4365230" lon="-4.2223710">
        <ele>635.2</ele>
        <time>2020-07-17T10:01:59Z</time>
      </trkpt>
      <trkpt lat="37.4365030" lon="-4.2223930">
        <ele>634.6</ele>
        <time>2020-07-17T10:02:01Z</time>
      </trkpt>
      <trkpt lat="37.4364770" lon="-4.2224220">
        <ele>634.0</ele>
        <time>2020-07-17T10:02:04Z</time>
      </trkpt>
      <trkpt lat="37.4364670" lon="-4.2224450">
        <ele>634.0</ele>
        <time>2020-07-17T10:02:06Z</time>
      </trkpt>
      <trkpt lat="37.4364340" lon="-4.2224880">
        <ele>634.2</ele>
        <time>2020-07-17T10:02:13Z</time>
      </trkpt>
      <trkpt lat="37.4363910" lon="-4.2225850">
        <ele>634.2</ele>
        <time>2020-07-17T10:04:44Z</time>
      </trkpt>
      <trkpt lat="37.4363970" lon="-4.2226610">
        <ele>634.2</ele>
        <time>2020-07-17T10:04:47Z</time>
      </trkpt>
      <trkpt lat="37.4363820" lon="-4.2227310">
        <ele>634.2</ele>
        <time>2020-07-17T10:04:49Z</time>
      </trkpt>
      <trkpt lat="37.4363950" lon="-4.2228540">
        <ele>633.8</ele>
        <time>2020-07-17T10:04:53Z</time>
      </trkpt>
      <trkpt lat="37.4364630" lon="-4.2229930">
        <ele>634.0</ele>
        <time>2020-07-17T10:04:58Z</time>
      </trkpt>
      <trkpt lat="37.4364560" lon="-4.2231970">
        <ele>634.0</ele>
        <time>2020-07-17T10:05:02Z</time>
      </trkpt>
      <trkpt lat="37.4364480" lon="-4.2232480">
        <ele>633.8</ele>
        <time>2020-07-17T10:05:03Z</time>
      </trkpt>
      <trkpt lat="37.4364400" lon="-4.2232990">
        <ele>633.6</ele>
        <time>2020-07-17T10:05:04Z</time>
      </trkpt>
      <trkpt lat="37.4364080" lon="-4.2235770">
        <ele>633.4</ele>
        <time>2020-07-17T10:05:09Z</time>
      </trkpt>
      <trkpt lat="37.4363610" lon="-4.2239830">
        <ele>632.4</ele>
        <time>2020-07-17T10:05:15Z</time>
      </trkpt>
      <trkpt lat="37.4363520" lon="-4.2240550">
        <ele>632.2</ele>
        <time>2020-07-17T10:05:16Z</time>
      </trkpt>
      <trkpt lat="37.4363220" lon="-4.2243180">
        <ele>631.8</ele>
        <time>2020-07-17T10:05:19Z</time>
      </trkpt>
      <trkpt lat="37.4362950" lon="-4.2244890">
        <ele>631.6</ele>
        <time>2020-07-17T10:05:21Z</time>
      </trkpt>
      <trkpt lat="37.4362840" lon="-4.2245870">
        <ele>631.2</ele>
        <time>2020-07-17T10:05:22Z</time>
      </trkpt>
      <trkpt lat="37.4362560" lon="-4.2248790">
        <ele>630.6</ele>
        <time>2020-07-17T10:05:25Z</time>
      </trkpt>
      <trkpt lat="37.4362320" lon="-4.2250830">
        <ele>630.2</ele>
        <time>2020-07-17T10:05:27Z</time>
      </trkpt>
      <trkpt lat="37.4362070" lon="-4.2252850">
        <ele>629.4</ele>
        <time>2020-07-17T10:05:29Z</time>
      </trkpt>
      <trkpt lat="37.4361820" lon="-4.2254960">
        <ele>629.0</ele>
        <time>2020-07-17T10:05:31Z</time>
      </trkpt>
      <trkpt lat="37.4361160" lon="-4.2261190">
        <ele>628.0</ele>
        <time>2020-07-17T10:05:37Z</time>
      </trkpt>
      <trkpt lat="37.4361110" lon="-4.2262170">
        <ele>627.6</ele>
        <time>2020-07-17T10:05:38Z</time>
      </trkpt>
      <trkpt lat="37.4361230" lon="-4.2267230">
        <ele>627.0</ele>
        <time>2020-07-17T10:05:43Z</time>
      </trkpt>
      <trkpt lat="37.4361470" lon="-4.2269250">
        <ele>626.6</ele>
        <time>2020-07-17T10:05:45Z</time>
      </trkpt>
      <trkpt lat="37.4362850" lon="-4.2275010">
        <ele>626.4</ele>
        <time>2020-07-17T10:05:51Z</time>
      </trkpt>
      <trkpt lat="37.4365150" lon="-4.2280210">
        <ele>626.0</ele>
        <time>2020-07-17T10:05:57Z</time>
      </trkpt>
      <trkpt lat="37.4365890" lon="-4.2281420">
        <ele>625.8</ele>
        <time>2020-07-17T10:05:59Z</time>
      </trkpt>
      <trkpt lat="37.4368230" lon="-4.2284670">
        <ele>625.2</ele>
        <time>2020-07-17T10:06:03Z</time>
      </trkpt>
      <trkpt lat="37.4369310" lon="-4.2285950">
        <ele>625.2</ele>
        <time>2020-07-17T10:06:05Z</time>
      </trkpt>
      <trkpt lat="37.4370500" lon="-4.2287400">
        <ele>625.0</ele>
        <time>2020-07-17T10:06:07Z</time>
      </trkpt>
      <trkpt lat="37.4371660" lon="-4.2288820">
        <ele>624.8</ele>
        <time>2020-07-17T10:06:09Z</time>
      </trkpt>
      <trkpt lat="37.4373470" lon="-4.2291030">
        <ele>624.4</ele>
        <time>2020-07-17T10:06:12Z</time>
      </trkpt>
      <trkpt lat="37.4377180" lon="-4.2296530">
        <ele>623.8</ele>
        <time>2020-07-17T10:06:19Z</time>
      </trkpt>
      <trkpt lat="37.4379550" lon="-4.2301620">
        <ele>623.2</ele>
        <time>2020-07-17T10:06:25Z</time>
      </trkpt>
      <trkpt lat="37.4380440" lon="-4.2304330">
        <ele>622.6</ele>
        <time>2020-07-17T10:06:28Z</time>
      </trkpt>
      <trkpt lat="37.4381120" lon="-4.2307040">
        <ele>622.4</ele>
        <time>2020-07-17T10:06:31Z</time>
      </trkpt>
      <trkpt lat="37.4381790" lon="-4.2310680">
        <ele>622.0</ele>
        <time>2020-07-17T10:06:35Z</time>
      </trkpt>
      <trkpt lat="37.4382090" lon="-4.2313450">
        <ele>622.0</ele>
        <time>2020-07-17T10:06:38Z</time>
      </trkpt>
      <trkpt lat="37.4382210" lon="-4.2315990">
        <ele>621.6</ele>
        <time>2020-07-17T10:06:41Z</time>
      </trkpt>
      <trkpt lat="37.4382280" lon="-4.2320470">
        <ele>621.2</ele>
        <time>2020-07-17T10:06:46Z</time>
      </trkpt>
      <trkpt lat="37.4382260" lon="-4.2322390">
        <ele>621.0</ele>
        <time>2020-07-17T10:06:48Z</time>
      </trkpt>
      <trkpt lat="37.4382240" lon="-4.2324380">
        <ele>620.4</ele>
        <time>2020-07-17T10:06:50Z</time>
      </trkpt>
      <trkpt lat="37.4382230" lon="-4.2327410">
        <ele>620.2</ele>
        <time>2020-07-17T10:06:53Z</time>
      </trkpt>
      <trkpt lat="37.4382220" lon="-4.2332860">
        <ele>619.2</ele>
        <time>2020-07-17T10:06:58Z</time>
      </trkpt>
      <trkpt lat="37.4382210" lon="-4.2336270">
        <ele>618.8</ele>
        <time>2020-07-17T10:07:01Z</time>
      </trkpt>
      <trkpt lat="37.4382220" lon="-4.2339870">
        <ele>618.2</ele>
        <time>2020-07-17T10:07:04Z</time>
      </trkpt>
      <trkpt lat="37.4382220" lon="-4.2343500">
        <ele>616.8</ele>
        <time>2020-07-17T10:07:07Z</time>
      </trkpt>
      <trkpt lat="37.4382280" lon="-4.2345930">
        <ele>615.8</ele>
        <time>2020-07-17T10:07:09Z</time>
      </trkpt>
      <trkpt lat="37.4382390" lon="-4.2348250">
        <ele>615.0</ele>
        <time>2020-07-17T10:07:11Z</time>
      </trkpt>
      <trkpt lat="37.4382480" lon="-4.2349690">
        <ele>614.4</ele>
        <time>2020-07-17T10:07:12Z</time>
      </trkpt>
      <trkpt lat="37.4383120" lon="-4.2354450">
        <ele>613.2</ele>
        <time>2020-07-17T10:07:16Z</time>
      </trkpt>
      <trkpt lat="37.4383340" lon="-4.2355680">
        <ele>612.8</ele>
        <time>2020-07-17T10:07:17Z</time>
      </trkpt>
      <trkpt lat="37.4383900" lon="-4.2358200">
        <ele>612.0</ele>
        <time>2020-07-17T10:07:19Z</time>
      </trkpt>
      <trkpt lat="37.4384940" lon="-4.2361870">
        <ele>610.8</ele>
        <time>2020-07-17T10:07:22Z</time>
      </trkpt>
      <trkpt lat="37.4385300" lon="-4.2362980">
        <ele>610.8</ele>
        <time>2020-07-17T10:07:23Z</time>
      </trkpt>
      <trkpt lat="37.4387160" lon="-4.2367760">
        <ele>609.8</ele>
        <time>2020-07-17T10:07:27Z</time>
      </trkpt>
      <trkpt lat="37.4388040" lon="-4.2369920">
        <ele>609.0</ele>
        <time>2020-07-17T10:07:29Z</time>
      </trkpt>
      <trkpt lat="37.4388540" lon="-4.2371140">
        <ele>608.6</ele>
        <time>2020-07-17T10:07:30Z</time>
      </trkpt>
      <trkpt lat="37.4390480" lon="-4.2375580">
        <ele>607.4</ele>
        <time>2020-07-17T10:07:34Z</time>
      </trkpt>
      <trkpt lat="37.4392320" lon="-4.2379790">
        <ele>606.2</ele>
        <time>2020-07-17T10:07:38Z</time>
      </trkpt>
      <trkpt lat="37.4394300" lon="-4.2384960">
        <ele>605.2</ele>
        <time>2020-07-17T10:07:43Z</time>
      </trkpt>
      <trkpt lat="37.4395250" lon="-4.2388280">
        <ele>604.0</ele>
        <time>2020-07-17T10:07:46Z</time>
      </trkpt>
      <trkpt lat="37.4396190" lon="-4.2393230">
        <ele>603.0</ele>
        <time>2020-07-17T10:07:50Z</time>
      </trkpt>
      <trkpt lat="37.4396820" lon="-4.2396870">
        <ele>602.4</ele>
        <time>2020-07-17T10:07:53Z</time>
      </trkpt>
      <trkpt lat="37.4397820" lon="-4.2401550">
        <ele>602.0</ele>
        <time>2020-07-17T10:07:57Z</time>
      </trkpt>
      <trkpt lat="37.4398500" lon="-4.2403590">
        <ele>601.8</ele>
        <time>2020-07-17T10:07:59Z</time>
      </trkpt>
      <trkpt lat="37.4399790" lon="-4.2406390">
        <ele>601.8</ele>
        <time>2020-07-17T10:08:02Z</time>
      </trkpt>
      <trkpt lat="37.4400730" lon="-4.2408070">
        <ele>601.8</ele>
        <time>2020-07-17T10:08:04Z</time>
      </trkpt>
      <trkpt lat="37.4401200" lon="-4.2408790">
        <ele>602.0</ele>
        <time>2020-07-17T10:08:05Z</time>
      </trkpt>
      <trkpt lat="37.4403700" lon="-4.2412550">
        <ele>602.4</ele>
        <time>2020-07-17T10:08:10Z</time>
      </trkpt>
      <trkpt lat="37.4406320" lon="-4.2417450">
        <ele>602.2</ele>
        <time>2020-07-17T10:08:16Z</time>
      </trkpt>
      <trkpt lat="37.4407310" lon="-4.2420450">
        <ele>601.8</ele>
        <time>2020-07-17T10:08:19Z</time>
      </trkpt>
      <trkpt lat="37.4408270" lon="-4.2423670">
        <ele>601.0</ele>
        <time>2020-07-17T10:08:22Z</time>
      </trkpt>
      <trkpt lat="37.4408600" lon="-4.2424740">
        <ele>600.6</ele>
        <time>2020-07-17T10:08:23Z</time>
      </trkpt>
      <trkpt lat="37.4409650" lon="-4.2428350">
        <ele>599.6</ele>
        <time>2020-07-17T10:08:26Z</time>
      </trkpt>
      <trkpt lat="37.4410420" lon="-4.2431020">
        <ele>598.4</ele>
        <time>2020-07-17T10:08:28Z</time>
      </trkpt>
      <trkpt lat="37.4411200" lon="-4.2433770">
        <ele>597.2</ele>
        <time>2020-07-17T10:08:30Z</time>
      </trkpt>
      <trkpt lat="37.4412030" lon="-4.2436590">
        <ele>596.0</ele>
        <time>2020-07-17T10:08:32Z</time>
      </trkpt>
      <trkpt lat="37.4412890" lon="-4.2439510">
        <ele>594.8</ele>
        <time>2020-07-17T10:08:34Z</time>
      </trkpt>
      <trkpt lat="37.4413330" lon="-4.2440910">
        <ele>594.2</ele>
        <time>2020-07-17T10:08:35Z</time>
      </trkpt>
      <trkpt lat="37.4413820" lon="-4.2442400">
        <ele>593.4</ele>
        <time>2020-07-17T10:08:36Z</time>
      </trkpt>
      <trkpt lat="37.4414910" lon="-4.2445460">
        <ele>591.6</ele>
        <time>2020-07-17T10:08:38Z</time>
      </trkpt>
      <trkpt lat="37.4415550" lon="-4.2447040">
        <ele>590.4</ele>
        <time>2020-07-17T10:08:39Z</time>
      </trkpt>
      <trkpt lat="37.4416640" lon="-4.2449600">
        <ele>589.4</ele>
        <time>2020-07-17T10:08:41Z</time>
      </trkpt>
      <trkpt lat="37.4417450" lon="-4.2451330">
        <ele>588.4</ele>
        <time>2020-07-17T10:08:42Z</time>
      </trkpt>
      <trkpt lat="37.4419030" lon="-4.2454420">
        <ele>587.0</ele>
        <time>2020-07-17T10:08:44Z</time>
      </trkpt>
      <trkpt lat="37.4420560" lon="-4.2457120">
        <ele>585.4</ele>
        <time>2020-07-17T10:08:46Z</time>
      </trkpt>
      <trkpt lat="37.4421240" lon="-4.2458210">
        <ele>584.8</ele>
        <time>2020-07-17T10:08:47Z</time>
      </trkpt>
      <trkpt lat="37.4422310" lon="-4.2459850">
        <ele>584.2</ele>
        <time>2020-07-17T10:08:48Z</time>
      </trkpt>
      <trkpt lat="37.4424040" lon="-4.2462330">
        <ele>582.8</ele>
        <time>2020-07-17T10:08:50Z</time>
      </trkpt>
      <trkpt lat="37.4426680" lon="-4.2465680">
        <ele>581.8</ele>
        <time>2020-07-17T10:08:53Z</time>
      </trkpt>
      <trkpt lat="37.4429580" lon="-4.2468850">
        <ele>580.6</ele>
        <time>2020-07-17T10:08:56Z</time>
      </trkpt>
      <trkpt lat="37.4432440" lon="-4.2471690">
        <ele>579.8</ele>
        <time>2020-07-17T10:08:59Z</time>
      </trkpt>
      <trkpt lat="37.4433530" lon="-4.2472750">
        <ele>579.4</ele>
        <time>2020-07-17T10:09:00Z</time>
      </trkpt>
      <trkpt lat="37.4437380" lon="-4.2476520">
        <ele>578.4</ele>
        <time>2020-07-17T10:09:04Z</time>
      </trkpt>
      <trkpt lat="37.4440980" lon="-4.2480340">
        <ele>577.2</ele>
        <time>2020-07-17T10:09:08Z</time>
      </trkpt>
      <trkpt lat="37.4445180" lon="-4.2485600">
        <ele>576.0</ele>
        <time>2020-07-17T10:09:13Z</time>
      </trkpt>
      <trkpt lat="37.4446750" lon="-4.2487750">
        <ele>575.4</ele>
        <time>2020-07-17T10:09:15Z</time>
      </trkpt>
      <trkpt lat="37.4449040" lon="-4.2490860">
        <ele>574.8</ele>
        <time>2020-07-17T10:09:18Z</time>
      </trkpt>
      <trkpt lat="37.4452010" lon="-4.2494980">
        <ele>573.8</ele>
        <time>2020-07-17T10:09:22Z</time>
      </trkpt>
      <trkpt lat="37.4453480" lon="-4.2497020">
        <ele>573.2</ele>
        <time>2020-07-17T10:09:24Z</time>
      </trkpt>
      <trkpt lat="37.4454930" lon="-4.2499020">
        <ele>572.6</ele>
        <time>2020-07-17T10:09:26Z</time>
      </trkpt>
      <trkpt lat="37.4458620" lon="-4.2504150">
        <ele>571.8</ele>
        <time>2020-07-17T10:09:31Z</time>
      </trkpt>
      <trkpt lat="37.4460120" lon="-4.2506210">
        <ele>571.4</ele>
        <time>2020-07-17T10:09:33Z</time>
      </trkpt>
      <trkpt lat="37.4462320" lon="-4.2509240">
        <ele>570.6</ele>
        <time>2020-07-17T10:09:36Z</time>
      </trkpt>
      <trkpt lat="37.4463130" lon="-4.2510350">
        <ele>570.0</ele>
        <time>2020-07-17T10:09:37Z</time>
      </trkpt>
      <trkpt lat="37.4466150" lon="-4.2514490">
        <ele>568.8</ele>
        <time>2020-07-17T10:09:41Z</time>
      </trkpt>
      <trkpt lat="37.4468720" lon="-4.2518000">
        <ele>567.4</ele>
        <time>2020-07-17T10:09:44Z</time>
      </trkpt>
      <trkpt lat="37.4469550" lon="-4.2519150">
        <ele>566.8</ele>
        <time>2020-07-17T10:09:45Z</time>
      </trkpt>
      <trkpt lat="37.4470370" lon="-4.2520220">
        <ele>566.2</ele>
        <time>2020-07-17T10:09:46Z</time>
      </trkpt>
      <trkpt lat="37.4473110" lon="-4.2523790">
        <ele>564.6</ele>
        <time>2020-07-17T10:09:49Z</time>
      </trkpt>
      <trkpt lat="37.4475960" lon="-4.2527350">
        <ele>563.0</ele>
        <time>2020-07-17T10:09:52Z</time>
      </trkpt>
      <trkpt lat="37.4477940" lon="-4.2529740">
        <ele>561.6</ele>
        <time>2020-07-17T10:09:54Z</time>
      </trkpt>
      <trkpt lat="37.4478950" lon="-4.2530940">
        <ele>560.4</ele>
        <time>2020-07-17T10:09:55Z</time>
      </trkpt>
      <trkpt lat="37.4480970" lon="-4.2533360">
        <ele>559.2</ele>
        <time>2020-07-17T10:09:57Z</time>
      </trkpt>
      <trkpt lat="37.4482950" lon="-4.2535720">
        <ele>558.0</ele>
        <time>2020-07-17T10:09:59Z</time>
      </trkpt>
      <trkpt lat="37.4485040" lon="-4.2538160">
        <ele>556.0</ele>
        <time>2020-07-17T10:10:01Z</time>
      </trkpt>
      <trkpt lat="37.4486150" lon="-4.2539470">
        <ele>555.0</ele>
        <time>2020-07-17T10:10:02Z</time>
      </trkpt>
      <trkpt lat="37.4488240" lon="-4.2541940">
        <ele>553.0</ele>
        <time>2020-07-17T10:10:04Z</time>
      </trkpt>
      <trkpt lat="37.4489250" lon="-4.2543140">
        <ele>551.8</ele>
        <time>2020-07-17T10:10:05Z</time>
      </trkpt>
      <trkpt lat="37.4490290" lon="-4.2544370">
        <ele>550.8</ele>
        <time>2020-07-17T10:10:06Z</time>
      </trkpt>
      <trkpt lat="37.4492420" lon="-4.2546900">
        <ele>548.8</ele>
        <time>2020-07-17T10:10:08Z</time>
      </trkpt>
      <trkpt lat="37.4493520" lon="-4.2548190">
        <ele>548.0</ele>
        <time>2020-07-17T10:10:09Z</time>
      </trkpt>
      <trkpt lat="37.4494590" lon="-4.2549450">
        <ele>547.2</ele>
        <time>2020-07-17T10:10:10Z</time>
      </trkpt>
      <trkpt lat="37.4496710" lon="-4.2551940">
        <ele>545.8</ele>
        <time>2020-07-17T10:10:12Z</time>
      </trkpt>
      <trkpt lat="37.4498860" lon="-4.2554490">
        <ele>544.0</ele>
        <time>2020-07-17T10:10:14Z</time>
      </trkpt>
      <trkpt lat="37.4500960" lon="-4.2556910">
        <ele>542.6</ele>
        <time>2020-07-17T10:10:16Z</time>
      </trkpt>
      <trkpt lat="37.4503240" lon="-4.2559370">
        <ele>541.4</ele>
        <time>2020-07-17T10:10:18Z</time>
      </trkpt>
      <trkpt lat="37.4505580" lon="-4.2561730">
        <ele>540.4</ele>
        <time>2020-07-17T10:10:20Z</time>
      </trkpt>
      <trkpt lat="37.4506690" lon="-4.2562760">
        <ele>539.4</ele>
        <time>2020-07-17T10:10:21Z</time>
      </trkpt>
      <trkpt lat="37.4507970" lon="-4.2563890">
        <ele>538.2</ele>
        <time>2020-07-17T10:10:22Z</time>
      </trkpt>
      <trkpt lat="37.4509130" lon="-4.2564880">
        <ele>537.0</ele>
        <time>2020-07-17T10:10:23Z</time>
      </trkpt>
      <trkpt lat="37.4510430" lon="-4.2565930">
        <ele>535.8</ele>
        <time>2020-07-17T10:10:24Z</time>
      </trkpt>
      <trkpt lat="37.4512850" lon="-4.2567790">
        <ele>533.8</ele>
        <time>2020-07-17T10:10:26Z</time>
      </trkpt>
      <trkpt lat="37.4515400" lon="-4.2569690">
        <ele>532.2</ele>
        <time>2020-07-17T10:10:28Z</time>
      </trkpt>
      <trkpt lat="37.4516620" lon="-4.2570590">
        <ele>531.2</ele>
        <time>2020-07-17T10:10:29Z</time>
      </trkpt>
      <trkpt lat="37.4517950" lon="-4.2571570">
        <ele>530.0</ele>
        <time>2020-07-17T10:10:30Z</time>
      </trkpt>
      <trkpt lat="37.4520480" lon="-4.2573380">
        <ele>528.4</ele>
        <time>2020-07-17T10:10:32Z</time>
      </trkpt>
      <trkpt lat="37.4523000" lon="-4.2575190">
        <ele>526.6</ele>
        <time>2020-07-17T10:10:34Z</time>
      </trkpt>
      <trkpt lat="37.4525400" lon="-4.2576880">
        <ele>525.4</ele>
        <time>2020-07-17T10:10:36Z</time>
      </trkpt>
      <trkpt lat="37.4526690" lon="-4.2577810">
        <ele>524.4</ele>
        <time>2020-07-17T10:10:37Z</time>
      </trkpt>
      <trkpt lat="37.4529120" lon="-4.2579530">
        <ele>522.8</ele>
        <time>2020-07-17T10:10:39Z</time>
      </trkpt>
      <trkpt lat="37.4531360" lon="-4.2581150">
        <ele>521.2</ele>
        <time>2020-07-17T10:10:41Z</time>
      </trkpt>
      <trkpt lat="37.4533900" lon="-4.2582970">
        <ele>520.4</ele>
        <time>2020-07-17T10:10:43Z</time>
      </trkpt>
      <trkpt lat="37.4535090" lon="-4.2583810">
        <ele>519.8</ele>
        <time>2020-07-17T10:10:44Z</time>
      </trkpt>
      <trkpt lat="37.4537380" lon="-4.2585450">
        <ele>518.4</ele>
        <time>2020-07-17T10:10:46Z</time>
      </trkpt>
      <trkpt lat="37.4539780" lon="-4.2587130">
        <ele>517.2</ele>
        <time>2020-07-17T10:10:48Z</time>
      </trkpt>
      <trkpt lat="37.4542040" lon="-4.2588760">
        <ele>515.8</ele>
        <time>2020-07-17T10:10:50Z</time>
      </trkpt>
      <trkpt lat="37.4544230" lon="-4.2590330">
        <ele>514.8</ele>
        <time>2020-07-17T10:10:52Z</time>
      </trkpt>
      <trkpt lat="37.4545240" lon="-4.2591050">
        <ele>514.4</ele>
        <time>2020-07-17T10:10:53Z</time>
      </trkpt>
      <trkpt lat="37.4547380" lon="-4.2592530">
        <ele>513.6</ele>
        <time>2020-07-17T10:10:55Z</time>
      </trkpt>
      <trkpt lat="37.4551250" lon="-4.2595260">
        <ele>513.2</ele>
        <time>2020-07-17T10:10:59Z</time>
      </trkpt>
      <trkpt lat="37.4552280" lon="-4.2595990">
        <ele>513.0</ele>
        <time>2020-07-17T10:11:00Z</time>
      </trkpt>
      <trkpt lat="37.4554170" lon="-4.2597310">
        <ele>512.8</ele>
        <time>2020-07-17T10:11:02Z</time>
      </trkpt>
      <trkpt lat="37.4556030" lon="-4.2598560">
        <ele>512.6</ele>
        <time>2020-07-17T10:11:04Z</time>
      </trkpt>
      <trkpt lat="37.4560560" lon="-4.2601520">
        <ele>512.0</ele>
        <time>2020-07-17T10:11:09Z</time>
      </trkpt>
      <trkpt lat="37.4563920" lon="-4.2603630">
        <ele>512.2</ele>
        <time>2020-07-17T10:11:13Z</time>
      </trkpt>
      <trkpt lat="37.4566190" lon="-4.2605080">
        <ele>512.4</ele>
        <time>2020-07-17T10:11:16Z</time>
      </trkpt>
      <trkpt lat="37.4569220" lon="-4.2606860">
        <ele>512.8</ele>
        <time>2020-07-17T10:11:20Z</time>
      </trkpt>
      <trkpt lat="37.4569840" lon="-4.2607280">
        <ele>513.0</ele>
        <time>2020-07-17T10:11:21Z</time>
      </trkpt>
      <trkpt lat="37.4571920" lon="-4.2608540">
        <ele>513.6</ele>
        <time>2020-07-17T10:11:24Z</time>
      </trkpt>
      <trkpt lat="37.4573910" lon="-4.2609670">
        <ele>514.2</ele>
        <time>2020-07-17T10:11:27Z</time>
      </trkpt>
      <trkpt lat="37.4575160" lon="-4.2610400">
        <ele>514.8</ele>
        <time>2020-07-17T10:11:29Z</time>
      </trkpt>
      <trkpt lat="37.4575830" lon="-4.2610820">
        <ele>515.0</ele>
        <time>2020-07-17T10:11:30Z</time>
      </trkpt>
      <trkpt lat="37.4577710" lon="-4.2611990">
        <ele>515.6</ele>
        <time>2020-07-17T10:11:33Z</time>
      </trkpt>
      <trkpt lat="37.4578920" lon="-4.2612760">
        <ele>515.8</ele>
        <time>2020-07-17T10:11:35Z</time>
      </trkpt>
      <trkpt lat="37.4581420" lon="-4.2614380">
        <ele>516.8</ele>
        <time>2020-07-17T10:11:39Z</time>
      </trkpt>
      <trkpt lat="37.4582020" lon="-4.2614760">
        <ele>517.0</ele>
        <time>2020-07-17T10:11:40Z</time>
      </trkpt>
      <trkpt lat="37.4582550" lon="-4.2615090">
        <ele>517.0</ele>
        <time>2020-07-17T10:11:41Z</time>
      </trkpt>
      <trkpt lat="37.4585390" lon="-4.2616970">
        <ele>518.0</ele>
        <time>2020-07-17T10:11:46Z</time>
      </trkpt>
      <trkpt lat="37.4587040" lon="-4.2618070">
        <ele>518.4</ele>
        <time>2020-07-17T10:11:49Z</time>
      </trkpt>
      <trkpt lat="37.4588620" lon="-4.2619190">
        <ele>519.0</ele>
        <time>2020-07-17T10:11:52Z</time>
      </trkpt>
      <trkpt lat="37.4591720" lon="-4.2621460">
        <ele>520.0</ele>
        <time>2020-07-17T10:11:58Z</time>
      </trkpt>
      <trkpt lat="37.4593260" lon="-4.2622610">
        <ele>520.4</ele>
        <time>2020-07-17T10:12:01Z</time>
      </trkpt>
      <trkpt lat="37.4597810" lon="-4.2626330">
        <ele>521.2</ele>
        <time>2020-07-17T10:12:10Z</time>
      </trkpt>
      <trkpt lat="37.4598830" lon="-4.2627250">
        <ele>521.4</ele>
        <time>2020-07-17T10:12:12Z</time>
      </trkpt>
      <trkpt lat="37.4601900" lon="-4.2630440">
        <ele>521.2</ele>
        <time>2020-07-17T10:12:18Z</time>
      </trkpt>
      <trkpt lat="37.4602980" lon="-4.2631650">
        <ele>521.2</ele>
        <time>2020-07-17T10:12:20Z</time>
      </trkpt>
      <trkpt lat="37.4605160" lon="-4.2634290">
        <ele>520.6</ele>
        <time>2020-07-17T10:12:24Z</time>
      </trkpt>
      <trkpt lat="37.4606790" lon="-4.2636470">
        <ele>520.2</ele>
        <time>2020-07-17T10:12:27Z</time>
      </trkpt>
      <trkpt lat="37.4607330" lon="-4.2637240">
        <ele>520.0</ele>
        <time>2020-07-17T10:12:28Z</time>
      </trkpt>
      <trkpt lat="37.4608860" lon="-4.2639600">
        <ele>519.6</ele>
        <time>2020-07-17T10:12:31Z</time>
      </trkpt>
      <trkpt lat="37.4609910" lon="-4.2641290">
        <ele>519.4</ele>
        <time>2020-07-17T10:12:33Z</time>
      </trkpt>
      <trkpt lat="37.4611420" lon="-4.2643890">
        <ele>518.8</ele>
        <time>2020-07-17T10:12:36Z</time>
      </trkpt>
      <trkpt lat="37.4612390" lon="-4.2645780">
        <ele>518.2</ele>
        <time>2020-07-17T10:12:38Z</time>
      </trkpt>
      <trkpt lat="37.4612850" lon="-4.2646720">
        <ele>517.8</ele>
        <time>2020-07-17T10:12:39Z</time>
      </trkpt>
      <trkpt lat="37.4614170" lon="-4.2649640">
        <ele>516.6</ele>
        <time>2020-07-17T10:12:42Z</time>
      </trkpt>
      <trkpt lat="37.4614600" lon="-4.2650640">
        <ele>516.4</ele>
        <time>2020-07-17T10:12:43Z</time>
      </trkpt>
      <trkpt lat="37.4615760" lon="-4.2653690">
        <ele>515.6</ele>
        <time>2020-07-17T10:12:46Z</time>
      </trkpt>
      <trkpt lat="37.4617260" lon="-4.2658170">
        <ele>514.6</ele>
        <time>2020-07-17T10:12:50Z</time>
      </trkpt>
      <trkpt lat="37.4617590" lon="-4.2659230">
        <ele>514.4</ele>
        <time>2020-07-17T10:12:51Z</time>
      </trkpt>
      <trkpt lat="37.4619020" lon="-4.2663790">
        <ele>513.0</ele>
        <time>2020-07-17T10:12:55Z</time>
      </trkpt>
      <trkpt lat="37.4620030" lon="-4.2667120">
        <ele>511.8</ele>
        <time>2020-07-17T10:12:58Z</time>
      </trkpt>
      <trkpt lat="37.4620620" lon="-4.2669330">
        <ele>511.2</ele>
        <time>2020-07-17T10:13:00Z</time>
      </trkpt>
      <trkpt lat="37.4622200" lon="-4.2674540">
        <ele>510.8</ele>
        <time>2020-07-17T10:13:05Z</time>
      </trkpt>
      <trkpt lat="37.4622770" lon="-4.2676440">
        <ele>511.0</ele>
        <time>2020-07-17T10:13:07Z</time>
      </trkpt>
      <trkpt lat="37.4624330" lon="-4.2681560">
        <ele>512.4</ele>
        <time>2020-07-17T10:13:13Z</time>
      </trkpt>
      <trkpt lat="37.4624560" lon="-4.2682340">
        <ele>512.6</ele>
        <time>2020-07-17T10:13:14Z</time>
      </trkpt>
      <trkpt lat="37.4625030" lon="-4.2683850">
        <ele>512.8</ele>
        <time>2020-07-17T10:13:16Z</time>
      </trkpt>
      <trkpt lat="37.4625740" lon="-4.2686150">
        <ele>513.6</ele>
        <time>2020-07-17T10:13:19Z</time>
      </trkpt>
      <trkpt lat="37.4625970" lon="-4.2686880">
        <ele>514.0</ele>
        <time>2020-07-17T10:13:20Z</time>
      </trkpt>
      <trkpt lat="37.4626860" lon="-4.2689790">
        <ele>514.8</ele>
        <time>2020-07-17T10:13:24Z</time>
      </trkpt>
      <trkpt lat="37.4627080" lon="-4.2690480">
        <ele>515.0</ele>
        <time>2020-07-17T10:13:25Z</time>
      </trkpt>
      <trkpt lat="37.4627940" lon="-4.2693170">
        <ele>516.0</ele>
        <time>2020-07-17T10:13:29Z</time>
      </trkpt>
      <trkpt lat="37.4628580" lon="-4.2695100">
        <ele>516.6</ele>
        <time>2020-07-17T10:13:32Z</time>
      </trkpt>
      <trkpt lat="37.4629070" lon="-4.2696910">
        <ele>517.2</ele>
        <time>2020-07-17T10:13:35Z</time>
      </trkpt>
      <trkpt lat="37.4629930" lon="-4.2699870">
        <ele>518.0</ele>
        <time>2020-07-17T10:13:40Z</time>
      </trkpt>
      <trkpt lat="37.4630050" lon="-4.2700310">
        <ele>518.2</ele>
        <time>2020-07-17T10:13:41Z</time>
      </trkpt>
      <trkpt lat="37.4630950" lon="-4.2703270">
        <ele>519.2</ele>
        <time>2020-07-17T10:13:46Z</time>
      </trkpt>
      <trkpt lat="37.4631590" lon="-4.2705570">
        <ele>519.8</ele>
        <time>2020-07-17T10:13:50Z</time>
      </trkpt>
      <trkpt lat="37.4632030" lon="-4.2707850">
        <ele>520.4</ele>
        <time>2020-07-17T10:13:54Z</time>
      </trkpt>
      <trkpt lat="37.4632360" lon="-4.2710560">
        <ele>521.0</ele>
        <time>2020-07-17T10:13:59Z</time>
      </trkpt>
      <trkpt lat="37.4632360" lon="-4.2710560">
        <ele>521.4</ele>
        <time>2020-07-17T10:14:03Z</time>
      </trkpt>
      <trkpt lat="37.4632960" lon="-4.2715840">
        <ele>522.4</ele>
        <time>2020-07-17T10:14:08Z</time>
      </trkpt>
      <trkpt lat="37.4633030" lon="-4.2716980">
        <ele>522.8</ele>
        <time>2020-07-17T10:14:10Z</time>
      </trkpt>
      <trkpt lat="37.4633140" lon="-4.2719850">
        <ele>523.6</ele>
        <time>2020-07-17T10:14:15Z</time>
      </trkpt>
      <trkpt lat="37.4633100" lon="-4.2722590">
        <ele>524.2</ele>
        <time>2020-07-17T10:14:20Z</time>
      </trkpt>
      <trkpt lat="37.4633030" lon="-4.2724150">
        <ele>524.6</ele>
        <time>2020-07-17T10:14:23Z</time>
      </trkpt>
      <trkpt lat="37.4632850" lon="-4.2726780">
        <ele>525.8</ele>
        <time>2020-07-17T10:14:28Z</time>
      </trkpt>
      <trkpt lat="37.4632730" lon="-4.2728290">
        <ele>526.6</ele>
        <time>2020-07-17T10:14:31Z</time>
      </trkpt>
      <trkpt lat="37.4632630" lon="-4.2729340">
        <ele>527.0</ele>
        <time>2020-07-17T10:14:33Z</time>
      </trkpt>
      <trkpt lat="37.4632080" lon="-4.2733380">
        <ele>528.0</ele>
        <time>2020-07-17T10:14:41Z</time>
      </trkpt>
      <trkpt lat="37.4631730" lon="-4.2735510">
        <ele>529.0</ele>
        <time>2020-07-17T10:14:45Z</time>
      </trkpt>
      <trkpt lat="37.4631640" lon="-4.2736020">
        <ele>529.2</ele>
        <time>2020-07-17T10:14:46Z</time>
      </trkpt>
      <trkpt lat="37.4631270" lon="-4.2738180">
        <ele>530.4</ele>
        <time>2020-07-17T10:14:50Z</time>
      </trkpt>
      <trkpt lat="37.4631190" lon="-4.2738660">
        <ele>530.6</ele>
        <time>2020-07-17T10:14:51Z</time>
      </trkpt>
      <trkpt lat="37.4630710" lon="-4.2741220">
        <ele>531.4</ele>
        <time>2020-07-17T10:14:56Z</time>
      </trkpt>
      <trkpt lat="37.4630150" lon="-4.2744250">
        <ele>532.4</ele>
        <time>2020-07-17T10:15:02Z</time>
      </trkpt>
      <trkpt lat="37.4630080" lon="-4.2744720">
        <ele>532.4</ele>
        <time>2020-07-17T10:15:03Z</time>
      </trkpt>
      <trkpt lat="37.4629710" lon="-4.2747250">
        <ele>533.8</ele>
        <time>2020-07-17T10:15:08Z</time>
      </trkpt>
      <trkpt lat="37.4629320" lon="-4.2749740">
        <ele>535.0</ele>
        <time>2020-07-17T10:15:13Z</time>
      </trkpt>
      <trkpt lat="37.4629100" lon="-4.2752260">
        <ele>536.0</ele>
        <time>2020-07-17T10:15:18Z</time>
      </trkpt>
      <trkpt lat="37.4628870" lon="-4.2754810">
        <ele>536.8</ele>
        <time>2020-07-17T10:15:23Z</time>
      </trkpt>
      <trkpt lat="37.4628820" lon="-4.2755910">
        <ele>537.2</ele>
        <time>2020-07-17T10:15:25Z</time>
      </trkpt>
      <trkpt lat="37.4628750" lon="-4.2758030">
        <ele>538.2</ele>
        <time>2020-07-17T10:15:29Z</time>
      </trkpt>
      <trkpt lat="37.4628740" lon="-4.2760880">
        <ele>539.2</ele>
        <time>2020-07-17T10:15:34Z</time>
      </trkpt>
      <trkpt lat="37.4628740" lon="-4.2761400">
        <ele>539.4</ele>
        <time>2020-07-17T10:15:35Z</time>
      </trkpt>
      <trkpt lat="37.4628870" lon="-4.2765380">
        <ele>540.2</ele>
        <time>2020-07-17T10:15:42Z</time>
      </trkpt>
      <trkpt lat="37.4629050" lon="-4.2767630">
        <ele>540.6</ele>
        <time>2020-07-17T10:15:46Z</time>
      </trkpt>
      <trkpt lat="37.4629330" lon="-4.2770530">
        <ele>541.2</ele>
        <time>2020-07-17T10:15:51Z</time>
      </trkpt>
      <trkpt lat="37.4629860" lon="-4.2774080">
        <ele>542.2</ele>
        <time>2020-07-17T10:15:57Z</time>
      </trkpt>
      <trkpt lat="37.4629960" lon="-4.2774660">
        <ele>542.2</ele>
        <time>2020-07-17T10:15:58Z</time>
      </trkpt>
      <trkpt lat="37.4630400" lon="-4.2776980">
        <ele>542.8</ele>
        <time>2020-07-17T10:16:02Z</time>
      </trkpt>
      <trkpt lat="37.4631190" lon="-4.2780410">
        <ele>543.2</ele>
        <time>2020-07-17T10:16:08Z</time>
      </trkpt>
      <trkpt lat="37.4631320" lon="-4.2780990">
        <ele>543.4</ele>
        <time>2020-07-17T10:16:09Z</time>
      </trkpt>
      <trkpt lat="37.4632490" lon="-4.2785490">
        <ele>544.4</ele>
        <time>2020-07-17T10:16:17Z</time>
      </trkpt>
      <trkpt lat="37.4633060" lon="-4.2787430">
        <ele>544.6</ele>
        <time>2020-07-17T10:16:20Z</time>
      </trkpt>
      <trkpt lat="37.4634200" lon="-4.2791630">
        <ele>545.4</ele>
        <time>2020-07-17T10:16:27Z</time>
      </trkpt>
      <trkpt lat="37.4635080" lon="-4.2794610">
        <ele>546.0</ele>
        <time>2020-07-17T10:16:32Z</time>
      </trkpt>
      <trkpt lat="37.4635440" lon="-4.2795800">
        <ele>546.4</ele>
        <time>2020-07-17T10:16:34Z</time>
      </trkpt>
      <trkpt lat="37.4636440" lon="-4.2799400">
        <ele>547.4</ele>
        <time>2020-07-17T10:16:40Z</time>
      </trkpt>
      <trkpt lat="37.4636790" lon="-4.2800610">
        <ele>547.6</ele>
        <time>2020-07-17T10:16:42Z</time>
      </trkpt>
      <trkpt lat="37.4638410" lon="-4.2806550">
        <ele>548.6</ele>
        <time>2020-07-17T10:16:52Z</time>
      </trkpt>
      <trkpt lat="37.4638710" lon="-4.2807710">
        <ele>548.8</ele>
        <time>2020-07-17T10:16:54Z</time>
      </trkpt>
      <trkpt lat="37.4639330" lon="-4.2810050">
        <ele>549.6</ele>
        <time>2020-07-17T10:16:58Z</time>
      </trkpt>
      <trkpt lat="37.4640450" lon="-4.2814570">
        <ele>550.2</ele>
        <time>2020-07-17T10:17:06Z</time>
      </trkpt>
      <trkpt lat="37.4641080" lon="-4.2817380">
        <ele>550.6</ele>
        <time>2020-07-17T10:17:11Z</time>
      </trkpt>
      <trkpt lat="37.4641620" lon="-4.2819870">
        <ele>551.2</ele>
        <time>2020-07-17T10:17:15Z</time>
      </trkpt>
      <trkpt lat="37.4642130" lon="-4.2822410">
        <ele>551.6</ele>
        <time>2020-07-17T10:17:19Z</time>
      </trkpt>
      <trkpt lat="37.4642610" lon="-4.2824810">
        <ele>552.2</ele>
        <time>2020-07-17T10:17:23Z</time>
      </trkpt>
      <trkpt lat="37.4643240" lon="-4.2827980">
        <ele>552.8</ele>
        <time>2020-07-17T10:17:28Z</time>
      </trkpt>
      <trkpt lat="37.4643990" lon="-4.2831840">
        <ele>553.2</ele>
        <time>2020-07-17T10:17:34Z</time>
      </trkpt>
      <trkpt lat="37.4644820" lon="-4.2835920">
        <ele>553.8</ele>
        <time>2020-07-17T10:17:40Z</time>
      </trkpt>
      <trkpt lat="37.4645360" lon="-4.2838670">
        <ele>554.0</ele>
        <time>2020-07-17T10:17:44Z</time>
      </trkpt>
      <trkpt lat="37.4645490" lon="-4.2839370">
        <ele>554.0</ele>
        <time>2020-07-17T10:17:45Z</time>
      </trkpt>
      <trkpt lat="37.4646050" lon="-4.2842190">
        <ele>553.8</ele>
        <time>2020-07-17T10:17:49Z</time>
      </trkpt>
      <trkpt lat="37.4646740" lon="-4.2845860">
        <ele>553.6</ele>
        <time>2020-07-17T10:17:54Z</time>
      </trkpt>
      <trkpt lat="37.4646880" lon="-4.2846580">
        <ele>553.6</ele>
        <time>2020-07-17T10:17:55Z</time>
      </trkpt>
      <trkpt lat="37.4647920" lon="-4.2851860">
        <ele>553.6</ele>
        <time>2020-07-17T10:18:02Z</time>
      </trkpt>
      <trkpt lat="37.4648910" lon="-4.2856640">
        <ele>553.0</ele>
        <time>2020-07-17T10:18:08Z</time>
      </trkpt>
      <trkpt lat="37.4649050" lon="-4.2857400">
        <ele>553.0</ele>
        <time>2020-07-17T10:18:09Z</time>
      </trkpt>
      <trkpt lat="37.4649350" lon="-4.2858840">
        <ele>552.8</ele>
        <time>2020-07-17T10:18:11Z</time>
      </trkpt>
      <trkpt lat="37.4649680" lon="-4.2860470">
        <ele>552.8</ele>
        <time>2020-07-17T10:18:13Z</time>
      </trkpt>
      <trkpt lat="37.4650770" lon="-4.2865900">
        <ele>552.8</ele>
        <time>2020-07-17T10:18:20Z</time>
      </trkpt>
      <trkpt lat="37.4651120" lon="-4.2867660">
        <ele>552.6</ele>
        <time>2020-07-17T10:18:22Z</time>
      </trkpt>
      <trkpt lat="37.4652030" lon="-4.2872090">
        <ele>552.2</ele>
        <time>2020-07-17T10:18:27Z</time>
      </trkpt>
      <trkpt lat="37.4652200" lon="-4.2873010">
        <ele>552.0</ele>
        <time>2020-07-17T10:18:28Z</time>
      </trkpt>
      <trkpt lat="37.4652560" lon="-4.2874880">
        <ele>551.6</ele>
        <time>2020-07-17T10:18:30Z</time>
      </trkpt>
      <trkpt lat="37.4653930" lon="-4.2881740">
        <ele>550.6</ele>
        <time>2020-07-17T10:18:37Z</time>
      </trkpt>
      <trkpt lat="37.4654840" lon="-4.2884720">
        <ele>550.2</ele>
        <time>2020-07-17T10:18:40Z</time>
      </trkpt>
      <trkpt lat="37.4655230" lon="-4.2885450">
        <ele>549.8</ele>
        <time>2020-07-17T10:18:41Z</time>
      </trkpt>
      <trkpt lat="37.4655850" lon="-4.2886860">
        <ele>549.4</ele>
        <time>2020-07-17T10:18:43Z</time>
      </trkpt>
      <trkpt lat="37.4655760" lon="-4.2887310">
        <ele>549.4</ele>
        <time>2020-07-17T10:18:44Z</time>
      </trkpt>
      <trkpt lat="37.4655070" lon="-4.2887880">
        <ele>548.6</ele>
        <time>2020-07-17T10:18:47Z</time>
      </trkpt>
      <trkpt lat="37.4654790" lon="-4.2888050">
        <ele>548.4</ele>
        <time>2020-07-17T10:18:48Z</time>
      </trkpt>
      <trkpt lat="37.4654500" lon="-4.2888260">
        <ele>548.2</ele>
        <time>2020-07-17T10:18:49Z</time>
      </trkpt>
      <trkpt lat="37.4654120" lon="-4.2888470">
        <ele>548.0</ele>
        <time>2020-07-17T10:18:50Z</time>
      </trkpt>
      <trkpt lat="37.4653750" lon="-4.2888690">
        <ele>547.8</ele>
        <time>2020-07-17T10:18:51Z</time>
      </trkpt>
      <trkpt lat="37.4652880" lon="-4.2889120">
        <ele>547.8</ele>
        <time>2020-07-17T10:18:53Z</time>
      </trkpt>
      <trkpt lat="37.4651190" lon="-4.2889680">
        <ele>547.8</ele>
        <time>2020-07-17T10:18:56Z</time>
      </trkpt>
      <trkpt lat="37.4649000" lon="-4.2890080">
        <ele>547.6</ele>
        <time>2020-07-17T10:18:59Z</time>
      </trkpt>
      <trkpt lat="37.4647320" lon="-4.2890280">
        <ele>547.2</ele>
        <time>2020-07-17T10:19:01Z</time>
      </trkpt>
      <trkpt lat="37.4643460" lon="-4.2889980">
        <ele>546.0</ele>
        <time>2020-07-17T10:19:05Z</time>
      </trkpt>
      <trkpt lat="37.4640430" lon="-4.2888530">
        <ele>544.6</ele>
        <time>2020-07-17T10:19:08Z</time>
      </trkpt>
      <trkpt lat="37.4639520" lon="-4.2887880">
        <ele>544.0</ele>
        <time>2020-07-17T10:19:09Z</time>
      </trkpt>
      <trkpt lat="37.4638610" lon="-4.2887190">
        <ele>543.4</ele>
        <time>2020-07-17T10:19:10Z</time>
      </trkpt>
      <trkpt lat="37.4636740" lon="-4.2885630">
        <ele>542.2</ele>
        <time>2020-07-17T10:19:12Z</time>
      </trkpt>
      <trkpt lat="37.4634900" lon="-4.2884020">
        <ele>540.6</ele>
        <time>2020-07-17T10:19:14Z</time>
      </trkpt>
      <trkpt lat="37.4634070" lon="-4.2883270">
        <ele>540.2</ele>
        <time>2020-07-17T10:19:15Z</time>
      </trkpt>
      <trkpt lat="37.4632240" lon="-4.2881630">
        <ele>539.4</ele>
        <time>2020-07-17T10:19:17Z</time>
      </trkpt>
      <trkpt lat="37.4629490" lon="-4.2879110">
        <ele>538.0</ele>
        <time>2020-07-17T10:19:20Z</time>
      </trkpt>
      <trkpt lat="37.4626010" lon="-4.2875960">
        <ele>537.0</ele>
        <time>2020-07-17T10:19:24Z</time>
      </trkpt>
      <trkpt lat="37.4624370" lon="-4.2874470">
        <ele>536.8</ele>
        <time>2020-07-17T10:19:26Z</time>
      </trkpt>
      <trkpt lat="37.4620980" lon="-4.2871420">
        <ele>536.0</ele>
        <time>2020-07-17T10:19:30Z</time>
      </trkpt>
      <trkpt lat="37.4617720" lon="-4.2868460">
        <ele>534.8</ele>
        <time>2020-07-17T10:19:34Z</time>
      </trkpt>
      <trkpt lat="37.4614390" lon="-4.2865470">
        <ele>534.4</ele>
        <time>2020-07-17T10:19:38Z</time>
      </trkpt>
      <trkpt lat="37.4610850" lon="-4.2862910">
        <ele>533.6</ele>
        <time>2020-07-17T10:19:42Z</time>
      </trkpt>
      <trkpt lat="37.4609910" lon="-4.2862400">
        <ele>533.2</ele>
        <time>2020-07-17T10:19:43Z</time>
      </trkpt>
      <trkpt lat="37.4607030" lon="-4.2861230">
        <ele>532.4</ele>
        <time>2020-07-17T10:19:46Z</time>
      </trkpt>
      <trkpt lat="37.4604020" lon="-4.2860080">
        <ele>532.0</ele>
        <time>2020-07-17T10:19:49Z</time>
      </trkpt>
      <trkpt lat="37.4599110" lon="-4.2858280">
        <ele>531.2</ele>
        <time>2020-07-17T10:19:54Z</time>
      </trkpt>
      <trkpt lat="37.4596380" lon="-4.2857230">
        <ele>531.0</ele>
        <time>2020-07-17T10:19:57Z</time>
      </trkpt>
      <trkpt lat="37.4592550" lon="-4.2855570">
        <ele>531.6</ele>
        <time>2020-07-17T10:20:02Z</time>
      </trkpt>
      <trkpt lat="37.4590740" lon="-4.2854510">
        <ele>532.8</ele>
        <time>2020-07-17T10:20:05Z</time>
      </trkpt>
      <trkpt lat="37.4589650" lon="-4.2853690">
        <ele>533.4</ele>
        <time>2020-07-17T10:20:07Z</time>
      </trkpt>
      <trkpt lat="37.4589160" lon="-4.2853280">
        <ele>533.8</ele>
        <time>2020-07-17T10:20:08Z</time>
      </trkpt>
      <trkpt lat="37.4587990" lon="-4.2852110">
        <ele>534.8</ele>
        <time>2020-07-17T10:20:11Z</time>
      </trkpt>
      <trkpt lat="37.4587600" lon="-4.2851630">
        <ele>535.0</ele>
        <time>2020-07-17T10:20:12Z</time>
      </trkpt>
      <trkpt lat="37.4587270" lon="-4.2851190">
        <ele>535.4</ele>
        <time>2020-07-17T10:20:13Z</time>
      </trkpt>
      <trkpt lat="37.4586360" lon="-4.2849910">
        <ele>536.4</ele>
        <time>2020-07-17T10:20:16Z</time>
      </trkpt>
      <trkpt lat="37.4585220" lon="-4.2848080">
        <ele>537.6</ele>
        <time>2020-07-17T10:20:20Z</time>
      </trkpt>
      <trkpt lat="37.4584430" lon="-4.2846720">
        <ele>538.2</ele>
        <time>2020-07-17T10:20:23Z</time>
      </trkpt>
      <trkpt lat="37.4583920" lon="-4.2845740">
        <ele>538.6</ele>
        <time>2020-07-17T10:20:25Z</time>
      </trkpt>
      <trkpt lat="37.4582280" lon="-4.2842260">
        <ele>539.8</ele>
        <time>2020-07-17T10:20:32Z</time>
      </trkpt>
      <trkpt lat="37.4581850" lon="-4.2841220">
        <ele>540.0</ele>
        <time>2020-07-17T10:20:34Z</time>
      </trkpt>
      <trkpt lat="37.4580400" lon="-4.2837660">
        <ele>540.8</ele>
        <time>2020-07-17T10:20:41Z</time>
      </trkpt>
      <trkpt lat="37.4579940" lon="-4.2836560">
        <ele>541.0</ele>
        <time>2020-07-17T10:20:43Z</time>
      </trkpt>
      <trkpt lat="37.4577930" lon="-4.2832090">
        <ele>541.8</ele>
        <time>2020-07-17T10:20:52Z</time>
      </trkpt>
      <trkpt lat="37.4575720" lon="-4.2828460">
        <ele>542.8</ele>
        <time>2020-07-17T10:21:00Z</time>
      </trkpt>
      <trkpt lat="37.4575440" lon="-4.2828070">
        <ele>543.0</ele>
        <time>2020-07-17T10:21:01Z</time>
      </trkpt>
      <trkpt lat="37.4573710" lon="-4.2825600">
        <ele>543.6</ele>
        <time>2020-07-17T10:21:07Z</time>
      </trkpt>
      <trkpt lat="37.4573140" lon="-4.2824800">
        <ele>544.0</ele>
        <time>2020-07-17T10:21:09Z</time>
      </trkpt>
      <trkpt lat="37.4572270" lon="-4.2823970">
        <ele>544.2</ele>
        <time>2020-07-17T10:21:12Z</time>
      </trkpt>
      <trkpt lat="37.4571020" lon="-4.2823420">
        <ele>544.6</ele>
        <time>2020-07-17T10:21:15Z</time>
      </trkpt>
      <trkpt lat="37.4570380" lon="-4.2823310">
        <ele>544.8</ele>
        <time>2020-07-17T10:21:17Z</time>
      </trkpt>
      <trkpt lat="37.4569140" lon="-4.2823060">
        <ele>545.4</ele>
        <time>2020-07-17T10:21:20Z</time>
      </trkpt>
      <trkpt lat="37.4568080" lon="-4.2822850">
        <ele>546.2</ele>
        <time>2020-07-17T10:21:23Z</time>
      </trkpt>
      <trkpt lat="37.4567700" lon="-4.2822790">
        <ele>546.4</ele>
        <time>2020-07-17T10:21:24Z</time>
      </trkpt>
      <trkpt lat="37.4565880" lon="-4.2822450">
        <ele>547.6</ele>
        <time>2020-07-17T10:21:29Z</time>
      </trkpt>
      <trkpt lat="37.4563950" lon="-4.2822070">
        <ele>548.4</ele>
        <time>2020-07-17T10:21:34Z</time>
      </trkpt>
      <trkpt lat="37.4563570" lon="-4.2821990">
        <ele>548.6</ele>
        <time>2020-07-17T10:21:35Z</time>
      </trkpt>
      <trkpt lat="37.4561370" lon="-4.2821490">
        <ele>549.8</ele>
        <time>2020-07-17T10:21:41Z</time>
      </trkpt>
      <trkpt lat="37.4560210" lon="-4.2821100">
        <ele>550.6</ele>
        <time>2020-07-17T10:21:44Z</time>
      </trkpt>
      <trkpt lat="37.4559860" lon="-4.2820950">
        <ele>551.0</ele>
        <time>2020-07-17T10:21:45Z</time>
      </trkpt>
      <trkpt lat="37.4558160" lon="-4.2819920">
        <ele>552.0</ele>
        <time>2020-07-17T10:21:50Z</time>
      </trkpt>
      <trkpt lat="37.4557570" lon="-4.2819260">
        <ele>552.4</ele>
        <time>2020-07-17T10:21:52Z</time>
      </trkpt>
      <trkpt lat="37.4556680" lon="-4.2818260">
        <ele>553.0</ele>
        <time>2020-07-17T10:21:55Z</time>
      </trkpt>
      <trkpt lat="37.4555130" lon="-4.2816130">
        <ele>554.2</ele>
        <time>2020-07-17T10:22:01Z</time>
      </trkpt>
      <trkpt lat="37.4554850" lon="-4.2815750">
        <ele>554.2</ele>
        <time>2020-07-17T10:22:02Z</time>
      </trkpt>
      <trkpt lat="37.4554040" lon="-4.2814680">
        <ele>555.2</ele>
        <time>2020-07-17T10:22:05Z</time>
      </trkpt>
      <trkpt lat="37.4552880" lon="-4.2813100">
        <ele>556.4</ele>
        <time>2020-07-17T10:22:09Z</time>
      </trkpt>
      <trkpt lat="37.4551940" lon="-4.2811830">
        <ele>557.0</ele>
        <time>2020-07-17T10:22:12Z</time>
      </trkpt>
      <trkpt lat="37.4550050" lon="-4.2809310">
        <ele>557.2</ele>
        <time>2020-07-17T10:22:17Z</time>
      </trkpt>
      <trkpt lat="37.4546900" lon="-4.2805210">
        <ele>556.2</ele>
        <time>2020-07-17T10:22:23Z</time>
      </trkpt>
      <trkpt lat="37.4545140" lon="-4.2802960">
        <ele>555.0</ele>
        <time>2020-07-17T10:22:26Z</time>
      </trkpt>
      <trkpt lat="37.4543870" lon="-4.2801340">
        <ele>553.8</ele>
        <time>2020-07-17T10:22:28Z</time>
      </trkpt>
      <trkpt lat="37.4542550" lon="-4.2799660">
        <ele>552.8</ele>
        <time>2020-07-17T10:22:30Z</time>
      </trkpt>
      <trkpt lat="37.4541900" lon="-4.2798840">
        <ele>552.4</ele>
        <time>2020-07-17T10:22:31Z</time>
      </trkpt>
      <trkpt lat="37.4541180" lon="-4.2797880">
        <ele>551.8</ele>
        <time>2020-07-17T10:22:32Z</time>
      </trkpt>
      <trkpt lat="37.4540490" lon="-4.2796960">
        <ele>551.2</ele>
        <time>2020-07-17T10:22:33Z</time>
      </trkpt>
      <trkpt lat="37.4539180" lon="-4.2795290">
        <ele>550.2</ele>
        <time>2020-07-17T10:22:35Z</time>
      </trkpt>
      <trkpt lat="37.4538570" lon="-4.2794550">
        <ele>549.6</ele>
        <time>2020-07-17T10:22:36Z</time>
      </trkpt>
      <trkpt lat="37.4538110" lon="-4.2793850">
        <ele>549.2</ele>
        <time>2020-07-17T10:22:37Z</time>
      </trkpt>
      <trkpt lat="37.4537920" lon="-4.2793250">
        <ele>548.8</ele>
        <time>2020-07-17T10:22:38Z</time>
      </trkpt>
      <trkpt lat="37.4537860" lon="-4.2792710">
        <ele>548.4</ele>
        <time>2020-07-17T10:22:39Z</time>
      </trkpt>
      <trkpt lat="37.4537940" lon="-4.2791790">
        <ele>547.8</ele>
        <time>2020-07-17T10:22:41Z</time>
      </trkpt>
      <trkpt lat="37.4538120" lon="-4.2791380">
        <ele>547.6</ele>
        <time>2020-07-17T10:22:42Z</time>
      </trkpt>
      <trkpt lat="37.4538290" lon="-4.2791080">
        <ele>547.4</ele>
        <time>2020-07-17T10:22:43Z</time>
      </trkpt>
      <trkpt lat="37.4538330" lon="-4.2790900">
        <ele>547.2</ele>
        <time>2020-07-17T10:22:46Z</time>
      </trkpt>
      <trkpt lat="37.4538370" lon="-4.2790880">
        <ele>547.2</ele>
        <time>2020-07-17T10:22:47Z</time>
      </trkpt>
      <trkpt lat="37.4537730" lon="-4.2792980">
        <ele>547.0</ele>
        <time>2020-07-17T10:32:48Z</time>
      </trkpt>
      <trkpt lat="37.4537640" lon="-4.2793130">
        <ele>547.0</ele>
        <time>2020-07-17T10:32:49Z</time>
      </trkpt>
      <trkpt lat="37.4537490" lon="-4.2793690">
        <ele>547.0</ele>
        <time>2020-07-17T10:32:51Z</time>
      </trkpt>
      <trkpt lat="37.4537700" lon="-4.2793920">
        <ele>546.8</ele>
        <time>2020-07-17T10:32:52Z</time>
      </trkpt>
      <trkpt lat="37.4537870" lon="-4.2794330">
        <ele>546.8</ele>
        <time>2020-07-17T10:32:53Z</time>
      </trkpt>
      <trkpt lat="37.4537900" lon="-4.2794620">
        <ele>546.8</ele>
        <time>2020-07-17T10:32:54Z</time>
      </trkpt>
      <trkpt lat="37.4538150" lon="-4.2795380">
        <ele>546.6</ele>
        <time>2020-07-17T10:32:56Z</time>
      </trkpt>
      <trkpt lat="37.4538510" lon="-4.2795640">
        <ele>546.8</ele>
        <time>2020-07-17T10:32:57Z</time>
      </trkpt>
      <trkpt lat="37.4540000" lon="-4.2797340">
        <ele>547.0</ele>
        <time>2020-07-17T10:33:02Z</time>
      </trkpt>
      <trkpt lat="37.4540600" lon="-4.2798080">
        <ele>547.4</ele>
        <time>2020-07-17T10:33:04Z</time>
      </trkpt>
      <trkpt lat="37.4540880" lon="-4.2798490">
        <ele>547.4</ele>
        <time>2020-07-17T10:33:05Z</time>
      </trkpt>
      <trkpt lat="37.4541460" lon="-4.2799230">
        <ele>547.8</ele>
        <time>2020-07-17T10:33:07Z</time>
      </trkpt>
      <trkpt lat="37.4542100" lon="-4.2800010">
        <ele>548.2</ele>
        <time>2020-07-17T10:33:09Z</time>
      </trkpt>
      <trkpt lat="37.4542660" lon="-4.2800770">
        <ele>548.4</ele>
        <time>2020-07-17T10:33:11Z</time>
      </trkpt>
      <trkpt lat="37.4542870" lon="-4.2801110">
        <ele>548.6</ele>
        <time>2020-07-17T10:33:12Z</time>
      </trkpt>
      <trkpt lat="37.4543170" lon="-4.2801540">
        <ele>548.8</ele>
        <time>2020-07-17T10:33:13Z</time>
      </trkpt>
      <trkpt lat="37.4543480" lon="-4.2801900">
        <ele>549.0</ele>
        <time>2020-07-17T10:33:14Z</time>
      </trkpt>
      <trkpt lat="37.4543800" lon="-4.2802240">
        <ele>549.4</ele>
        <time>2020-07-17T10:33:15Z</time>
      </trkpt>
      <trkpt lat="37.4544350" lon="-4.2802940">
        <ele>549.8</ele>
        <time>2020-07-17T10:33:17Z</time>
      </trkpt>
      <trkpt lat="37.4544660" lon="-4.2803320">
        <ele>550.0</ele>
        <time>2020-07-17T10:33:18Z</time>
      </trkpt>
      <trkpt lat="37.4545220" lon="-4.2804000">
        <ele>550.4</ele>
        <time>2020-07-17T10:33:20Z</time>
      </trkpt>
      <trkpt lat="37.4545740" lon="-4.2804680">
        <ele>550.8</ele>
        <time>2020-07-17T10:33:22Z</time>
      </trkpt>
      <trkpt lat="37.4546010" lon="-4.2805060">
        <ele>551.2</ele>
        <time>2020-07-17T10:33:23Z</time>
      </trkpt>
      <trkpt lat="37.4546780" lon="-4.2806130">
        <ele>552.0</ele>
        <time>2020-07-17T10:33:26Z</time>
      </trkpt>
      <trkpt lat="37.4547030" lon="-4.2806460">
        <ele>552.4</ele>
        <time>2020-07-17T10:33:27Z</time>
      </trkpt>
      <trkpt lat="37.4547310" lon="-4.2806830">
        <ele>552.6</ele>
        <time>2020-07-17T10:33:28Z</time>
      </trkpt>
      <trkpt lat="37.4548350" lon="-4.2808220">
        <ele>553.4</ele>
        <time>2020-07-17T10:33:32Z</time>
      </trkpt>
      <trkpt lat="37.4549410" lon="-4.2809470">
        <ele>554.0</ele>
        <time>2020-07-17T10:33:36Z</time>
      </trkpt>
      <trkpt lat="37.4549910" lon="-4.2810100">
        <ele>554.4</ele>
        <time>2020-07-17T10:33:38Z</time>
      </trkpt>
      <trkpt lat="37.4551060" lon="-4.2811630">
        <ele>555.6</ele>
        <time>2020-07-17T10:33:43Z</time>
      </trkpt>
      <trkpt lat="37.4551490" lon="-4.2812250">
        <ele>556.0</ele>
        <time>2020-07-17T10:33:45Z</time>
      </trkpt>
      <trkpt lat="37.4552420" lon="-4.2813550">
        <ele>556.6</ele>
        <time>2020-07-17T10:33:49Z</time>
      </trkpt>
      <trkpt lat="37.4553690" lon="-4.2815140">
        <ele>557.0</ele>
        <time>2020-07-17T10:33:53Z</time>
      </trkpt>
      <trkpt lat="37.4555480" lon="-4.2817410">
        <ele>556.6</ele>
        <time>2020-07-17T10:33:57Z</time>
      </trkpt>
      <trkpt lat="37.4557810" lon="-4.2820190">
        <ele>555.6</ele>
        <time>2020-07-17T10:34:01Z</time>
      </trkpt>
      <trkpt lat="37.4558610" lon="-4.2820680">
        <ele>555.2</ele>
        <time>2020-07-17T10:34:02Z</time>
      </trkpt>
      <trkpt lat="37.4560310" lon="-4.2821420">
        <ele>554.6</ele>
        <time>2020-07-17T10:34:04Z</time>
      </trkpt>
      <trkpt lat="37.4561200" lon="-4.2821710">
        <ele>554.2</ele>
        <time>2020-07-17T10:34:05Z</time>
      </trkpt>
      <trkpt lat="37.4562090" lon="-4.2821870">
        <ele>553.6</ele>
        <time>2020-07-17T10:34:06Z</time>
      </trkpt>
      <trkpt lat="37.4563200" lon="-4.2822060">
        <ele>552.6</ele>
        <time>2020-07-17T10:34:07Z</time>
      </trkpt>
      <trkpt lat="37.4564210" lon="-4.2822250">
        <ele>552.0</ele>
        <time>2020-07-17T10:34:08Z</time>
      </trkpt>
      <trkpt lat="37.4565250" lon="-4.2822430">
        <ele>551.4</ele>
        <time>2020-07-17T10:34:09Z</time>
      </trkpt>
      <trkpt lat="37.4566310" lon="-4.2822630">
        <ele>550.8</ele>
        <time>2020-07-17T10:34:10Z</time>
      </trkpt>
      <trkpt lat="37.4568450" lon="-4.2823060">
        <ele>549.8</ele>
        <time>2020-07-17T10:34:12Z</time>
      </trkpt>
      <trkpt lat="37.4570580" lon="-4.2823460">
        <ele>548.6</ele>
        <time>2020-07-17T10:34:14Z</time>
      </trkpt>
      <trkpt lat="37.4571570" lon="-4.2823770">
        <ele>548.0</ele>
        <time>2020-07-17T10:34:15Z</time>
      </trkpt>
      <trkpt lat="37.4572500" lon="-4.2824150">
        <ele>547.6</ele>
        <time>2020-07-17T10:34:16Z</time>
      </trkpt>
      <trkpt lat="37.4573190" lon="-4.2824890">
        <ele>547.2</ele>
        <time>2020-07-17T10:34:17Z</time>
      </trkpt>
      <trkpt lat="37.4573790" lon="-4.2825820">
        <ele>546.4</ele>
        <time>2020-07-17T10:34:18Z</time>
      </trkpt>
      <trkpt lat="37.4575100" lon="-4.2827730">
        <ele>545.2</ele>
        <time>2020-07-17T10:34:20Z</time>
      </trkpt>
      <trkpt lat="37.4575730" lon="-4.2828620">
        <ele>545.0</ele>
        <time>2020-07-17T10:34:21Z</time>
      </trkpt>
      <trkpt lat="37.4576330" lon="-4.2829450">
        <ele>544.8</ele>
        <time>2020-07-17T10:34:22Z</time>
      </trkpt>
      <trkpt lat="37.4577570" lon="-4.2831460">
        <ele>544.0</ele>
        <time>2020-07-17T10:34:24Z</time>
      </trkpt>
      <trkpt lat="37.4578590" lon="-4.2833480">
        <ele>543.8</ele>
        <time>2020-07-17T10:34:26Z</time>
      </trkpt>
      <trkpt lat="37.4579050" lon="-4.2834450">
        <ele>543.6</ele>
        <time>2020-07-17T10:34:27Z</time>
      </trkpt>
      <trkpt lat="37.4580450" lon="-4.2837660">
        <ele>542.6</ele>
        <time>2020-07-17T10:34:30Z</time>
      </trkpt>
      <trkpt lat="37.4582230" lon="-4.2841760">
        <ele>541.4</ele>
        <time>2020-07-17T10:34:34Z</time>
      </trkpt>
      <trkpt lat="37.4582670" lon="-4.2842750">
        <ele>541.4</ele>
        <time>2020-07-17T10:34:35Z</time>
      </trkpt>
      <trkpt lat="37.4584090" lon="-4.2845640">
        <ele>540.2</ele>
        <time>2020-07-17T10:34:38Z</time>
      </trkpt>
      <trkpt lat="37.4585350" lon="-4.2848710">
        <ele>539.6</ele>
        <time>2020-07-17T10:34:41Z</time>
      </trkpt>
      <trkpt lat="37.4585580" lon="-4.2849690">
        <ele>539.6</ele>
        <time>2020-07-17T10:34:42Z</time>
      </trkpt>
      <trkpt lat="37.4586170" lon="-4.2851960">
        <ele>539.2</ele>
        <time>2020-07-17T10:34:44Z</time>
      </trkpt>
      <trkpt lat="37.4586470" lon="-4.2852930">
        <ele>538.8</ele>
        <time>2020-07-17T10:34:45Z</time>
      </trkpt>
      <trkpt lat="37.4587110" lon="-4.2854690">
        <ele>538.8</ele>
        <time>2020-07-17T10:34:47Z</time>
      </trkpt>
      <trkpt lat="37.4587780" lon="-4.2856590">
        <ele>539.0</ele>
        <time>2020-07-17T10:34:49Z</time>
      </trkpt>
      <trkpt lat="37.4588710" lon="-4.2859200">
        <ele>539.8</ele>
        <time>2020-07-17T10:34:52Z</time>
      </trkpt>
      <trkpt lat="37.4589040" lon="-4.2860000">
        <ele>539.8</ele>
        <time>2020-07-17T10:34:53Z</time>
      </trkpt>
      <trkpt lat="37.4589230" lon="-4.2860800">
        <ele>539.8</ele>
        <time>2020-07-17T10:34:54Z</time>
      </trkpt>
      <trkpt lat="37.4589830" lon="-4.2862950">
        <ele>540.0</ele>
        <time>2020-07-17T10:34:57Z</time>
      </trkpt>
      <trkpt lat="37.4590010" lon="-4.2863740">
        <ele>540.4</ele>
        <time>2020-07-17T10:34:58Z</time>
      </trkpt>
      <trkpt lat="37.4590230" lon="-4.2865210">
        <ele>540.6</ele>
        <time>2020-07-17T10:35:00Z</time>
      </trkpt>
      <trkpt lat="37.4590310" lon="-4.2866620">
        <ele>540.8</ele>
        <time>2020-07-17T10:35:02Z</time>
      </trkpt>
      <trkpt lat="37.4590410" lon="-4.2867370">
        <ele>541.0</ele>
        <time>2020-07-17T10:35:03Z</time>
      </trkpt>
      <trkpt lat="37.4590860" lon="-4.2869390">
        <ele>541.4</ele>
        <time>2020-07-17T10:35:06Z</time>
      </trkpt>
      <trkpt lat="37.4591130" lon="-4.2871430">
        <ele>541.2</ele>
        <time>2020-07-17T10:35:09Z</time>
      </trkpt>
      <trkpt lat="37.4591230" lon="-4.2872120">
        <ele>541.4</ele>
        <time>2020-07-17T10:35:10Z</time>
      </trkpt>
      <trkpt lat="37.4591640" lon="-4.2873290">
        <ele>541.8</ele>
        <time>2020-07-17T10:35:12Z</time>
      </trkpt>
      <trkpt lat="37.4591950" lon="-4.2874640">
        <ele>542.6</ele>
        <time>2020-07-17T10:35:14Z</time>
      </trkpt>
      <trkpt lat="37.4592130" lon="-4.2875900">
        <ele>542.8</ele>
        <time>2020-07-17T10:35:16Z</time>
      </trkpt>
      <trkpt lat="37.4592370" lon="-4.2877700">
        <ele>543.2</ele>
        <time>2020-07-17T10:35:19Z</time>
      </trkpt>
      <trkpt lat="37.4592500" lon="-4.2878260">
        <ele>543.6</ele>
        <time>2020-07-17T10:35:20Z</time>
      </trkpt>
      <trkpt lat="37.4592680" lon="-4.2879350">
        <ele>543.8</ele>
        <time>2020-07-17T10:35:22Z</time>
      </trkpt>
      <trkpt lat="37.4592960" lon="-4.2881660">
        <ele>544.6</ele>
        <time>2020-07-17T10:35:26Z</time>
      </trkpt>
      <trkpt lat="37.4592970" lon="-4.2882790">
        <ele>544.8</ele>
        <time>2020-07-17T10:35:28Z</time>
      </trkpt>
      <trkpt lat="37.4592910" lon="-4.2886190">
        <ele>545.6</ele>
        <time>2020-07-17T10:35:34Z</time>
      </trkpt>
      <trkpt lat="37.4592830" lon="-4.2888410">
        <ele>546.2</ele>
        <time>2020-07-17T10:35:38Z</time>
      </trkpt>
      <trkpt lat="37.4592780" lon="-4.2889600">
        <ele>546.6</ele>
        <time>2020-07-17T10:35:40Z</time>
      </trkpt>
      <trkpt lat="37.4593070" lon="-4.2892690">
        <ele>546.8</ele>
        <time>2020-07-17T10:35:45Z</time>
      </trkpt>
      <trkpt lat="37.4593690" lon="-4.2896640">
        <ele>547.0</ele>
        <time>2020-07-17T10:35:51Z</time>
      </trkpt>
      <trkpt lat="37.4593950" lon="-4.2898080">
        <ele>547.2</ele>
        <time>2020-07-17T10:35:53Z</time>
      </trkpt>
      <trkpt lat="37.4594050" lon="-4.2898770">
        <ele>547.0</ele>
        <time>2020-07-17T10:35:54Z</time>
      </trkpt>
      <trkpt lat="37.4594520" lon="-4.2901940">
        <ele>547.0</ele>
        <time>2020-07-17T10:35:58Z</time>
      </trkpt>
      <trkpt lat="37.4595050" lon="-4.2905190">
        <ele>546.2</ele>
        <time>2020-07-17T10:36:02Z</time>
      </trkpt>
      <trkpt lat="37.4595470" lon="-4.2907730">
        <ele>546.2</ele>
        <time>2020-07-17T10:36:05Z</time>
      </trkpt>
      <trkpt lat="37.4596070" lon="-4.2911700">
        <ele>546.2</ele>
        <time>2020-07-17T10:36:10Z</time>
      </trkpt>
      <trkpt lat="37.4596350" lon="-4.2913110">
        <ele>546.4</ele>
        <time>2020-07-17T10:36:12Z</time>
      </trkpt>
      <trkpt lat="37.4597210" lon="-4.2918380">
        <ele>547.0</ele>
        <time>2020-07-17T10:36:19Z</time>
      </trkpt>
      <trkpt lat="37.4597750" lon="-4.2921930">
        <ele>547.8</ele>
        <time>2020-07-17T10:36:24Z</time>
      </trkpt>
      <trkpt lat="37.4598580" lon="-4.2925430">
        <ele>548.2</ele>
        <time>2020-07-17T10:36:29Z</time>
      </trkpt>
      <trkpt lat="37.4599480" lon="-4.2927230">
        <ele>548.4</ele>
        <time>2020-07-17T10:36:32Z</time>
      </trkpt>
      <trkpt lat="37.4600420" lon="-4.2928190">
        <ele>548.8</ele>
        <time>2020-07-17T10:36:34Z</time>
      </trkpt>
      <trkpt lat="37.4601360" lon="-4.2928920">
        <ele>548.8</ele>
        <time>2020-07-17T10:36:36Z</time>
      </trkpt>
      <trkpt lat="37.4603670" lon="-4.2930200">
        <ele>549.0</ele>
        <time>2020-07-17T10:36:40Z</time>
      </trkpt>
      <trkpt lat="37.4609080" lon="-4.2933270">
        <ele>548.0</ele>
        <time>2020-07-17T10:36:49Z</time>
      </trkpt>
      <trkpt lat="37.4610290" lon="-4.2933960">
        <ele>548.0</ele>
        <time>2020-07-17T10:36:51Z</time>
      </trkpt>
      <trkpt lat="37.4613300" lon="-4.2935800">
        <ele>548.6</ele>
        <time>2020-07-17T10:36:56Z</time>
      </trkpt>
      <trkpt lat="37.4613700" lon="-4.2936400">
        <ele>548.6</ele>
        <time>2020-07-17T10:36:57Z</time>
      </trkpt>
      <trkpt lat="37.4614190" lon="-4.2938850">
        <ele>548.6</ele>
        <time>2020-07-17T10:37:00Z</time>
      </trkpt>
      <trkpt lat="37.4614250" lon="-4.2940610">
        <ele>548.6</ele>
        <time>2020-07-17T10:37:02Z</time>
      </trkpt>
      <trkpt lat="37.4614370" lon="-4.2944260">
        <ele>547.8</ele>
        <time>2020-07-17T10:37:06Z</time>
      </trkpt>
      <trkpt lat="37.4614470" lon="-4.2946120">
        <ele>547.6</ele>
        <time>2020-07-17T10:37:08Z</time>
      </trkpt>
      <trkpt lat="37.4614660" lon="-4.2950610">
        <ele>547.6</ele>
        <time>2020-07-17T10:37:13Z</time>
      </trkpt>
      <trkpt lat="37.4614710" lon="-4.2952330">
        <ele>547.6</ele>
        <time>2020-07-17T10:37:15Z</time>
      </trkpt>
      <trkpt lat="37.4614850" lon="-4.2955710">
        <ele>547.8</ele>
        <time>2020-07-17T10:37:19Z</time>
      </trkpt>
      <trkpt lat="37.4615300" lon="-4.2959030">
        <ele>547.8</ele>
        <time>2020-07-17T10:37:23Z</time>
      </trkpt>
      <trkpt lat="37.4615610" lon="-4.2959770">
        <ele>547.8</ele>
        <time>2020-07-17T10:37:24Z</time>
      </trkpt>
      <trkpt lat="37.4616540" lon="-4.2960970">
        <ele>548.0</ele>
        <time>2020-07-17T10:37:26Z</time>
      </trkpt>
      <trkpt lat="37.4618340" lon="-4.2961470">
        <ele>548.2</ele>
        <time>2020-07-17T10:37:29Z</time>
      </trkpt>
      <trkpt lat="37.4619380" lon="-4.2961360">
        <ele>548.6</ele>
        <time>2020-07-17T10:37:31Z</time>
      </trkpt>
      <trkpt lat="37.4619850" lon="-4.2961210">
        <ele>549.0</ele>
        <time>2020-07-17T10:37:32Z</time>
      </trkpt>
      <trkpt lat="37.4620370" lon="-4.2961050">
        <ele>549.2</ele>
        <time>2020-07-17T10:37:33Z</time>
      </trkpt>
      <trkpt lat="37.4621800" lon="-4.2960710">
        <ele>550.2</ele>
        <time>2020-07-17T10:37:36Z</time>
      </trkpt>
      <trkpt lat="37.4622790" lon="-4.2960440">
        <ele>550.4</ele>
        <time>2020-07-17T10:37:38Z</time>
      </trkpt>
      <trkpt lat="37.4623710" lon="-4.2960180">
        <ele>550.8</ele>
        <time>2020-07-17T10:37:40Z</time>
      </trkpt>
      <trkpt lat="37.4624600" lon="-4.2959940">
        <ele>551.2</ele>
        <time>2020-07-17T10:37:42Z</time>
      </trkpt>
      <trkpt lat="37.4625900" lon="-4.2959580">
        <ele>552.0</ele>
        <time>2020-07-17T10:37:45Z</time>
      </trkpt>
      <trkpt lat="37.4626720" lon="-4.2959350">
        <ele>552.4</ele>
        <time>2020-07-17T10:37:47Z</time>
      </trkpt>
      <trkpt lat="37.4628470" lon="-4.2958820">
        <ele>553.4</ele>
        <time>2020-07-17T10:37:51Z</time>
      </trkpt>
      <trkpt lat="37.4629340" lon="-4.2958550">
        <ele>554.0</ele>
        <time>2020-07-17T10:37:53Z</time>
      </trkpt>
      <trkpt lat="37.4629760" lon="-4.2958490">
        <ele>554.2</ele>
        <time>2020-07-17T10:37:54Z</time>
      </trkpt>
      <trkpt lat="37.4631010" lon="-4.2958320">
        <ele>554.6</ele>
        <time>2020-07-17T10:37:57Z</time>
      </trkpt>
      <trkpt lat="37.4631870" lon="-4.2958260">
        <ele>555.0</ele>
        <time>2020-07-17T10:37:59Z</time>
      </trkpt>
      <trkpt lat="37.4632330" lon="-4.2958320">
        <ele>555.2</ele>
        <time>2020-07-17T10:38:00Z</time>
      </trkpt>
      <trkpt lat="37.4633180" lon="-4.2958520">
        <ele>555.4</ele>
        <time>2020-07-17T10:38:02Z</time>
      </trkpt>
      <trkpt lat="37.4633680" lon="-4.2958650">
        <ele>555.8</ele>
        <time>2020-07-17T10:38:03Z</time>
      </trkpt>
      <trkpt lat="37.4634120" lon="-4.2958830">
        <ele>556.2</ele>
        <time>2020-07-17T10:38:04Z</time>
      </trkpt>
      <trkpt lat="37.4637230" lon="-4.2960500">
        <ele>556.8</ele>
        <time>2020-07-17T10:38:11Z</time>
      </trkpt>
      <trkpt lat="37.4638990" lon="-4.2961390">
        <ele>557.2</ele>
        <time>2020-07-17T10:38:15Z</time>
      </trkpt>
      <trkpt lat="37.4640360" lon="-4.2961690">
        <ele>557.4</ele>
        <time>2020-07-17T10:38:18Z</time>
      </trkpt>
      <trkpt lat="37.4641260" lon="-4.2961480">
        <ele>557.4</ele>
        <time>2020-07-17T10:38:20Z</time>
      </trkpt>
      <trkpt lat="37.4642090" lon="-4.2960990">
        <ele>557.6</ele>
        <time>2020-07-17T10:38:22Z</time>
      </trkpt>
      <trkpt lat="37.4642850" lon="-4.2960460">
        <ele>558.0</ele>
        <time>2020-07-17T10:38:24Z</time>
      </trkpt>
      <trkpt lat="37.4643980" lon="-4.2959640">
        <ele>558.4</ele>
        <time>2020-07-17T10:38:27Z</time>
      </trkpt>
      <trkpt lat="37.4645080" lon="-4.2958920">
        <ele>559.2</ele>
        <time>2020-07-17T10:38:30Z</time>
      </trkpt>
      <trkpt lat="37.4645850" lon="-4.2958540">
        <ele>559.8</ele>
        <time>2020-07-17T10:38:32Z</time>
      </trkpt>
      <trkpt lat="37.4646700" lon="-4.2958440">
        <ele>560.2</ele>
        <time>2020-07-17T10:38:34Z</time>
      </trkpt>
      <trkpt lat="37.4647510" lon="-4.2958640">
        <ele>560.4</ele>
        <time>2020-07-17T10:38:36Z</time>
      </trkpt>
      <trkpt lat="37.4648610" lon="-4.2959710">
        <ele>560.6</ele>
        <time>2020-07-17T10:38:39Z</time>
      </trkpt>
      <trkpt lat="37.4649190" lon="-4.2960620">
        <ele>560.6</ele>
        <time>2020-07-17T10:38:41Z</time>
      </trkpt>
      <trkpt lat="37.4649810" lon="-4.2961620">
        <ele>560.8</ele>
        <time>2020-07-17T10:38:43Z</time>
      </trkpt>
      <trkpt lat="37.4650430" lon="-4.2962640">
        <ele>561.0</ele>
        <time>2020-07-17T10:38:45Z</time>
      </trkpt>
      <trkpt lat="37.4652400" lon="-4.2966430">
        <ele>561.4</ele>
        <time>2020-07-17T10:38:52Z</time>
      </trkpt>
      <trkpt lat="37.4654290" lon="-4.2970190">
        <ele>562.2</ele>
        <time>2020-07-17T10:38:59Z</time>
      </trkpt>
      <trkpt lat="37.4655080" lon="-4.2971800">
        <ele>562.4</ele>
        <time>2020-07-17T10:39:02Z</time>
      </trkpt>
      <trkpt lat="37.4657000" lon="-4.2975510">
        <ele>563.4</ele>
        <time>2020-07-17T10:39:09Z</time>
      </trkpt>
      <trkpt lat="37.4657530" lon="-4.2976550">
        <ele>563.6</ele>
        <time>2020-07-17T10:39:11Z</time>
      </trkpt>
      <trkpt lat="37.4659400" lon="-4.2980190">
        <ele>564.6</ele>
        <time>2020-07-17T10:39:18Z</time>
      </trkpt>
      <trkpt lat="37.4659860" lon="-4.2981060">
        <ele>564.8</ele>
        <time>2020-07-17T10:39:21Z</time>
      </trkpt>
      <trkpt lat="37.4659850" lon="-4.2981040">
        <ele>565.0</ele>
        <time>2020-07-17T10:39:22Z</time>
      </trkpt>
      <trkpt lat="37.4660270" lon="-4.2980960">
        <ele>565.2</ele>
        <time>2020-07-17T10:42:00Z</time>
      </trkpt>
      <trkpt lat="37.4660290" lon="-4.2981110">
        <ele>565.2</ele>
        <time>2020-07-17T10:42:01Z</time>
      </trkpt>
      <trkpt lat="37.4660320" lon="-4.2981310">
        <ele>565.2</ele>
        <time>2020-07-17T10:42:02Z</time>
      </trkpt>
      <trkpt lat="37.4660420" lon="-4.2981530">
        <ele>565.2</ele>
        <time>2020-07-17T10:42:03Z</time>
      </trkpt>
      <trkpt lat="37.4660650" lon="-4.2982070">
        <ele>565.4</ele>
        <time>2020-07-17T10:42:05Z</time>
      </trkpt>
      <trkpt lat="37.4660970" lon="-4.2982670">
        <ele>565.6</ele>
        <time>2020-07-17T10:42:07Z</time>
      </trkpt>
      <trkpt lat="37.4661120" lon="-4.2982980">
        <ele>565.6</ele>
        <time>2020-07-17T10:42:08Z</time>
      </trkpt>
      <trkpt lat="37.4662000" lon="-4.2984830">
        <ele>565.8</ele>
        <time>2020-07-17T10:42:13Z</time>
      </trkpt>
      <trkpt lat="37.4663360" lon="-4.2987750">
        <ele>565.8</ele>
        <time>2020-07-17T10:42:19Z</time>
      </trkpt>
      <trkpt lat="37.4663830" lon="-4.2988770">
        <ele>566.0</ele>
        <time>2020-07-17T10:42:21Z</time>
      </trkpt>
      <trkpt lat="37.4664610" lon="-4.2990460">
        <ele>566.8</ele>
        <time>2020-07-17T10:42:24Z</time>
      </trkpt>
      <trkpt lat="37.4665450" lon="-4.2992150">
        <ele>567.0</ele>
        <time>2020-07-17T10:42:27Z</time>
      </trkpt>
      <trkpt lat="37.4665710" lon="-4.2992700">
        <ele>567.0</ele>
        <time>2020-07-17T10:42:28Z</time>
      </trkpt>
      <trkpt lat="37.4666580" lon="-4.2994350">
        <ele>566.8</ele>
        <time>2020-07-17T10:42:31Z</time>
      </trkpt>
      <trkpt lat="37.4667750" lon="-4.2996690">
        <ele>567.2</ele>
        <time>2020-07-17T10:42:35Z</time>
      </trkpt>
      <trkpt lat="37.4668950" lon="-4.2999060">
        <ele>567.6</ele>
        <time>2020-07-17T10:42:39Z</time>
      </trkpt>
      <trkpt lat="37.4669500" lon="-4.3000080">
        <ele>567.6</ele>
        <time>2020-07-17T10:42:41Z</time>
      </trkpt>
      <trkpt lat="37.4669770" lon="-4.3000690">
        <ele>568.0</ele>
        <time>2020-07-17T10:42:42Z</time>
      </trkpt>
      <trkpt lat="37.4670020" lon="-4.3001240">
        <ele>567.8</ele>
        <time>2020-07-17T10:42:43Z</time>
      </trkpt>
      <trkpt lat="37.4670610" lon="-4.3003040">
        <ele>568.2</ele>
        <time>2020-07-17T10:42:46Z</time>
      </trkpt>
      <trkpt lat="37.4670830" lon="-4.3004560">
        <ele>568.2</ele>
        <time>2020-07-17T10:42:48Z</time>
      </trkpt>
      <trkpt lat="37.4671150" lon="-4.3009540">
        <ele>567.6</ele>
        <time>2020-07-17T10:42:54Z</time>
      </trkpt>
      <trkpt lat="37.4671090" lon="-4.3012180">
        <ele>567.4</ele>
        <time>2020-07-17T10:42:57Z</time>
      </trkpt>
      <trkpt lat="37.4671060" lon="-4.3013980">
        <ele>566.8</ele>
        <time>2020-07-17T10:42:59Z</time>
      </trkpt>
      <trkpt lat="37.4670990" lon="-4.3015800">
        <ele>566.6</ele>
        <time>2020-07-17T10:43:01Z</time>
      </trkpt>
      <trkpt lat="37.4670900" lon="-4.3017700">
        <ele>566.0</ele>
        <time>2020-07-17T10:43:03Z</time>
      </trkpt>
      <trkpt lat="37.4670860" lon="-4.3019480">
        <ele>565.6</ele>
        <time>2020-07-17T10:43:05Z</time>
      </trkpt>
      <trkpt lat="37.4670670" lon="-4.3024190">
        <ele>565.2</ele>
        <time>2020-07-17T10:43:10Z</time>
      </trkpt>
      <trkpt lat="37.4670640" lon="-4.3024990">
        <ele>565.2</ele>
        <time>2020-07-17T10:43:11Z</time>
      </trkpt>
      <trkpt lat="37.4670490" lon="-4.3028730">
        <ele>565.2</ele>
        <time>2020-07-17T10:43:15Z</time>
      </trkpt>
      <trkpt lat="37.4670390" lon="-4.3030410">
        <ele>565.0</ele>
        <time>2020-07-17T10:43:17Z</time>
      </trkpt>
      <trkpt lat="37.4670210" lon="-4.3036310">
        <ele>566.2</ele>
        <time>2020-07-17T10:43:24Z</time>
      </trkpt>
      <trkpt lat="37.4670120" lon="-4.3038660">
        <ele>566.2</ele>
        <time>2020-07-17T10:43:27Z</time>
      </trkpt>
      <trkpt lat="37.4669750" lon="-4.3042490">
        <ele>566.6</ele>
        <time>2020-07-17T10:43:32Z</time>
      </trkpt>
      <trkpt lat="37.4668560" lon="-4.3047630">
        <ele>567.4</ele>
        <time>2020-07-17T10:43:39Z</time>
      </trkpt>
      <trkpt lat="37.4668170" lon="-4.3048990">
        <ele>568.0</ele>
        <time>2020-07-17T10:43:41Z</time>
      </trkpt>
      <trkpt lat="37.4667290" lon="-4.3051950">
        <ele>568.4</ele>
        <time>2020-07-17T10:43:45Z</time>
      </trkpt>
      <trkpt lat="37.4666640" lon="-4.3054140">
        <ele>568.6</ele>
        <time>2020-07-17T10:43:48Z</time>
      </trkpt>
      <trkpt lat="37.4665660" lon="-4.3059450">
        <ele>568.8</ele>
        <time>2020-07-17T10:43:55Z</time>
      </trkpt>
      <trkpt lat="37.4665040" lon="-4.3063220">
        <ele>569.0</ele>
        <time>2020-07-17T10:44:00Z</time>
      </trkpt>
      <trkpt lat="37.4664440" lon="-4.3066800">
        <ele>569.8</ele>
        <time>2020-07-17T10:44:05Z</time>
      </trkpt>
      <trkpt lat="37.4663840" lon="-4.3068930">
        <ele>570.2</ele>
        <time>2020-07-17T10:44:08Z</time>
      </trkpt>
      <trkpt lat="37.4663130" lon="-4.3070830">
        <ele>570.2</ele>
        <time>2020-07-17T10:44:11Z</time>
      </trkpt>
      <trkpt lat="37.4662840" lon="-4.3071560">
        <ele>570.4</ele>
        <time>2020-07-17T10:44:12Z</time>
      </trkpt>
      <trkpt lat="37.4661170" lon="-4.3075400">
        <ele>570.4</ele>
        <time>2020-07-17T10:44:18Z</time>
      </trkpt>
      <trkpt lat="37.4658610" lon="-4.3081550">
        <ele>570.8</ele>
        <time>2020-07-17T10:44:27Z</time>
      </trkpt>
      <trkpt lat="37.4658290" lon="-4.3082240">
        <ele>570.6</ele>
        <time>2020-07-17T10:44:28Z</time>
      </trkpt>
      <trkpt lat="37.4655980" lon="-4.3087840">
        <ele>570.4</ele>
        <time>2020-07-17T10:44:36Z</time>
      </trkpt>
      <trkpt lat="37.4655810" lon="-4.3088630">
        <ele>570.6</ele>
        <time>2020-07-17T10:44:37Z</time>
      </trkpt>
      <trkpt lat="37.4655610" lon="-4.3090850">
        <ele>570.6</ele>
        <time>2020-07-17T10:44:40Z</time>
      </trkpt>
      <trkpt lat="37.4655750" lon="-4.3092200">
        <ele>570.8</ele>
        <time>2020-07-17T10:44:42Z</time>
      </trkpt>
      <trkpt lat="37.4656090" lon="-4.3093400">
        <ele>571.0</ele>
        <time>2020-07-17T10:44:44Z</time>
      </trkpt>
      <trkpt lat="37.4656270" lon="-4.3093950">
        <ele>571.2</ele>
        <time>2020-07-17T10:44:45Z</time>
      </trkpt>
      <trkpt lat="37.4656550" lon="-4.3094940">
        <ele>571.8</ele>
        <time>2020-07-17T10:44:47Z</time>
      </trkpt>
      <trkpt lat="37.4656700" lon="-4.3095950">
        <ele>572.6</ele>
        <time>2020-07-17T10:44:49Z</time>
      </trkpt>
      <trkpt lat="37.4656740" lon="-4.3096890">
        <ele>573.4</ele>
        <time>2020-07-17T10:44:51Z</time>
      </trkpt>
      <trkpt lat="37.4656730" lon="-4.3097430">
        <ele>573.6</ele>
        <time>2020-07-17T10:44:52Z</time>
      </trkpt>
      <trkpt lat="37.4656700" lon="-4.3097870">
        <ele>573.8</ele>
        <time>2020-07-17T10:44:53Z</time>
      </trkpt>
      <trkpt lat="37.4656450" lon="-4.3099660">
        <ele>574.8</ele>
        <time>2020-07-17T10:44:57Z</time>
      </trkpt>
      <trkpt lat="37.4656080" lon="-4.3100790">
        <ele>575.4</ele>
        <time>2020-07-17T10:45:00Z</time>
      </trkpt>
      <trkpt lat="37.4655740" lon="-4.3101850">
        <ele>575.8</ele>
        <time>2020-07-17T10:45:03Z</time>
      </trkpt>
      <trkpt lat="37.4655120" lon="-4.3103020">
        <ele>576.8</ele>
        <time>2020-07-17T10:45:07Z</time>
      </trkpt>
      <trkpt lat="37.4654820" lon="-4.3103640">
        <ele>577.0</ele>
        <time>2020-07-17T10:45:09Z</time>
      </trkpt>
      <trkpt lat="37.4654560" lon="-4.3104170">
        <ele>577.6</ele>
        <time>2020-07-17T10:45:13Z</time>
      </trkpt>
      <trkpt lat="37.4654780" lon="-4.3104530">
        <ele>578.0</ele>
        <time>2020-07-17T10:45:17Z</time>
      </trkpt>
      <trkpt lat="37.4654990" lon="-4.3104720">
        <ele>578.0</ele>
        <time>2020-07-17T10:45:18Z</time>
      </trkpt>
      <trkpt lat="37.4655130" lon="-4.3105020">
        <ele>578.2</ele>
        <time>2020-07-17T10:45:19Z</time>
      </trkpt>
      <trkpt lat="37.4654840" lon="-4.3106070">
        <ele>578.6</ele>
        <time>2020-07-17T10:45:22Z</time>
      </trkpt>
      <trkpt lat="37.4654400" lon="-4.3106660">
        <ele>578.8</ele>
        <time>2020-07-17T10:45:24Z</time>
      </trkpt>
      <trkpt lat="37.4653820" lon="-4.3107590">
        <ele>579.2</ele>
        <time>2020-07-17T10:45:27Z</time>
      </trkpt>
      <trkpt lat="37.4653440" lon="-4.3108190">
        <ele>579.4</ele>
        <time>2020-07-17T10:45:29Z</time>
      </trkpt>
      <trkpt lat="37.4652790" lon="-4.3109140">
        <ele>580.2</ele>
        <time>2020-07-17T10:45:32Z</time>
      </trkpt>
      <trkpt lat="37.4651760" lon="-4.3110610">
        <ele>581.4</ele>
        <time>2020-07-17T10:45:37Z</time>
      </trkpt>
      <trkpt lat="37.4651320" lon="-4.3111170">
        <ele>582.0</ele>
        <time>2020-07-17T10:45:39Z</time>
      </trkpt>
      <trkpt lat="37.4650440" lon="-4.3112280">
        <ele>582.6</ele>
        <time>2020-07-17T10:45:43Z</time>
      </trkpt>
      <trkpt lat="37.4649020" lon="-4.3113820">
        <ele>583.6</ele>
        <time>2020-07-17T10:45:49Z</time>
      </trkpt>
      <trkpt lat="37.4648270" lon="-4.3114550">
        <ele>584.2</ele>
        <time>2020-07-17T10:45:52Z</time>
      </trkpt>
      <trkpt lat="37.4647740" lon="-4.3115000">
        <ele>584.8</ele>
        <time>2020-07-17T10:45:54Z</time>
      </trkpt>
      <trkpt lat="37.4646440" lon="-4.3116050">
        <ele>585.8</ele>
        <time>2020-07-17T10:45:59Z</time>
      </trkpt>
      <trkpt lat="37.4645330" lon="-4.3116840">
        <ele>586.4</ele>
        <time>2020-07-17T10:46:03Z</time>
      </trkpt>
      <trkpt lat="37.4644780" lon="-4.3117210">
        <ele>586.8</ele>
        <time>2020-07-17T10:46:05Z</time>
      </trkpt>
      <trkpt lat="37.4642740" lon="-4.3118370">
        <ele>588.0</ele>
        <time>2020-07-17T10:46:12Z</time>
      </trkpt>
      <trkpt lat="37.4642340" lon="-4.3118530">
        <ele>588.2</ele>
        <time>2020-07-17T10:46:13Z</time>
      </trkpt>
      <trkpt lat="37.4640670" lon="-4.3119330">
        <ele>589.2</ele>
        <time>2020-07-17T10:46:19Z</time>
      </trkpt>
      <trkpt lat="37.4639430" lon="-4.3119790">
        <ele>590.2</ele>
        <time>2020-07-17T10:46:23Z</time>
      </trkpt>
      <trkpt lat="37.4637570" lon="-4.3120370">
        <ele>591.4</ele>
        <time>2020-07-17T10:46:29Z</time>
      </trkpt>
      <trkpt lat="37.4636240" lon="-4.3120570">
        <ele>591.8</ele>
        <time>2020-07-17T10:46:33Z</time>
      </trkpt>
      <trkpt lat="37.4635280" lon="-4.3120700">
        <ele>592.4</ele>
        <time>2020-07-17T10:46:36Z</time>
      </trkpt>
      <trkpt lat="37.4633560" lon="-4.3120800">
        <ele>593.6</ele>
        <time>2020-07-17T10:46:41Z</time>
      </trkpt>
      <trkpt lat="37.4632170" lon="-4.3120750">
        <ele>594.2</ele>
        <time>2020-07-17T10:46:45Z</time>
      </trkpt>
      <trkpt lat="37.4631510" lon="-4.3120710">
        <ele>594.6</ele>
        <time>2020-07-17T10:46:47Z</time>
      </trkpt>
      <trkpt lat="37.4629850" lon="-4.3120560">
        <ele>595.6</ele>
        <time>2020-07-17T10:46:52Z</time>
      </trkpt>
      <trkpt lat="37.4627840" lon="-4.3120430">
        <ele>596.8</ele>
        <time>2020-07-17T10:46:58Z</time>
      </trkpt>
      <trkpt lat="37.4627190" lon="-4.3120370">
        <ele>597.2</ele>
        <time>2020-07-17T10:47:00Z</time>
      </trkpt>
      <trkpt lat="37.4626180" lon="-4.3120260">
        <ele>597.8</ele>
        <time>2020-07-17T10:47:03Z</time>
      </trkpt>
      <trkpt lat="37.4624230" lon="-4.3120040">
        <ele>599.0</ele>
        <time>2020-07-17T10:47:09Z</time>
      </trkpt>
      <trkpt lat="37.4623310" lon="-4.3119970">
        <ele>599.4</ele>
        <time>2020-07-17T10:47:12Z</time>
      </trkpt>
      <trkpt lat="37.4622000" lon="-4.3119890">
        <ele>600.0</ele>
        <time>2020-07-17T10:47:16Z</time>
      </trkpt>
      <trkpt lat="37.4620030" lon="-4.3119780">
        <ele>601.2</ele>
        <time>2020-07-17T10:47:22Z</time>
      </trkpt>
      <trkpt lat="37.4619700" lon="-4.3119780">
        <ele>601.4</ele>
        <time>2020-07-17T10:47:23Z</time>
      </trkpt>
      <trkpt lat="37.4618400" lon="-4.3119860">
        <ele>602.4</ele>
        <time>2020-07-17T10:47:27Z</time>
      </trkpt>
      <trkpt lat="37.4616520" lon="-4.3120160">
        <ele>603.4</ele>
        <time>2020-07-17T10:47:33Z</time>
      </trkpt>
      <trkpt lat="37.4616210" lon="-4.3120240">
        <ele>603.6</ele>
        <time>2020-07-17T10:47:34Z</time>
      </trkpt>
      <trkpt lat="37.4615000" lon="-4.3120530">
        <ele>604.4</ele>
        <time>2020-07-17T10:47:38Z</time>
      </trkpt>
      <trkpt lat="37.4613810" lon="-4.3121000">
        <ele>605.0</ele>
        <time>2020-07-17T10:47:42Z</time>
      </trkpt>
      <trkpt lat="37.4613220" lon="-4.3121300">
        <ele>605.2</ele>
        <time>2020-07-17T10:47:44Z</time>
      </trkpt>
      <trkpt lat="37.4612620" lon="-4.3121600">
        <ele>605.6</ele>
        <time>2020-07-17T10:47:46Z</time>
      </trkpt>
      <trkpt lat="37.4611400" lon="-4.3122220">
        <ele>606.8</ele>
        <time>2020-07-17T10:47:50Z</time>
      </trkpt>
      <trkpt lat="37.4610860" lon="-4.3122560">
        <ele>607.2</ele>
        <time>2020-07-17T10:47:52Z</time>
      </trkpt>
      <trkpt lat="37.4610070" lon="-4.3123130">
        <ele>607.8</ele>
        <time>2020-07-17T10:47:55Z</time>
      </trkpt>
      <trkpt lat="37.4608120" lon="-4.3124790">
        <ele>608.8</ele>
        <time>2020-07-17T10:48:03Z</time>
      </trkpt>
      <trkpt lat="37.4607880" lon="-4.3125000">
        <ele>609.0</ele>
        <time>2020-07-17T10:48:04Z</time>
      </trkpt>
      <trkpt lat="37.4606770" lon="-4.3126240">
        <ele>610.0</ele>
        <time>2020-07-17T10:48:09Z</time>
      </trkpt>
      <trkpt lat="37.4605670" lon="-4.3127550">
        <ele>611.0</ele>
        <time>2020-07-17T10:48:14Z</time>
      </trkpt>
      <trkpt lat="37.4605470" lon="-4.3127820">
        <ele>611.0</ele>
        <time>2020-07-17T10:48:15Z</time>
      </trkpt>
      <trkpt lat="37.4604540" lon="-4.3129270">
        <ele>612.2</ele>
        <time>2020-07-17T10:48:20Z</time>
      </trkpt>
      <trkpt lat="37.4603440" lon="-4.3131250">
        <ele>613.0</ele>
        <time>2020-07-17T10:48:26Z</time>
      </trkpt>
      <trkpt lat="37.4603310" lon="-4.3131580">
        <ele>613.2</ele>
        <time>2020-07-17T10:48:27Z</time>
      </trkpt>
      <trkpt lat="37.4602380" lon="-4.3133730">
        <ele>614.2</ele>
        <time>2020-07-17T10:48:33Z</time>
      </trkpt>
      <trkpt lat="37.4602080" lon="-4.3134510">
        <ele>614.6</ele>
        <time>2020-07-17T10:48:35Z</time>
      </trkpt>
      <trkpt lat="37.4601650" lon="-4.3135660">
        <ele>615.4</ele>
        <time>2020-07-17T10:48:38Z</time>
      </trkpt>
      <trkpt lat="37.4600980" lon="-4.3138080">
        <ele>616.2</ele>
        <time>2020-07-17T10:48:44Z</time>
      </trkpt>
      <trkpt lat="37.4600890" lon="-4.3138490">
        <ele>616.4</ele>
        <time>2020-07-17T10:48:45Z</time>
      </trkpt>
      <trkpt lat="37.4600380" lon="-4.3141320">
        <ele>617.6</ele>
        <time>2020-07-17T10:48:52Z</time>
      </trkpt>
      <trkpt lat="37.4600150" lon="-4.3142970">
        <ele>618.8</ele>
        <time>2020-07-17T10:48:56Z</time>
      </trkpt>
      <trkpt lat="37.4599800" lon="-4.3145420">
        <ele>619.8</ele>
        <time>2020-07-17T10:49:02Z</time>
      </trkpt>
      <trkpt lat="37.4599580" lon="-4.3147040">
        <ele>620.6</ele>
        <time>2020-07-17T10:49:06Z</time>
      </trkpt>
      <trkpt lat="37.4599470" lon="-4.3147870">
        <ele>620.8</ele>
        <time>2020-07-17T10:49:08Z</time>
      </trkpt>
      <trkpt lat="37.4599140" lon="-4.3149840">
        <ele>621.8</ele>
        <time>2020-07-17T10:49:13Z</time>
      </trkpt>
      <trkpt lat="37.4598800" lon="-4.3151330">
        <ele>623.0</ele>
        <time>2020-07-17T10:49:17Z</time>
      </trkpt>
      <trkpt lat="37.4598720" lon="-4.3151710">
        <ele>623.4</ele>
        <time>2020-07-17T10:49:18Z</time>
      </trkpt>
      <trkpt lat="37.4598120" lon="-4.3153640">
        <ele>624.2</ele>
        <time>2020-07-17T10:49:23Z</time>
      </trkpt>
      <trkpt lat="37.4597330" lon="-4.3155640">
        <ele>624.6</ele>
        <time>2020-07-17T10:49:28Z</time>
      </trkpt>
      <trkpt lat="37.4596390" lon="-4.3157720">
        <ele>625.2</ele>
        <time>2020-07-17T10:49:33Z</time>
      </trkpt>
      <trkpt lat="37.4595820" lon="-4.3158880">
        <ele>625.8</ele>
        <time>2020-07-17T10:49:36Z</time>
      </trkpt>
      <trkpt lat="37.4595260" lon="-4.3160110">
        <ele>626.2</ele>
        <time>2020-07-17T10:49:39Z</time>
      </trkpt>
      <trkpt lat="37.4593960" lon="-4.3162910">
        <ele>627.2</ele>
        <time>2020-07-17T10:49:46Z</time>
      </trkpt>
      <trkpt lat="37.4592940" lon="-4.3165770">
        <ele>628.4</ele>
        <time>2020-07-17T10:49:53Z</time>
      </trkpt>
      <trkpt lat="37.4592720" lon="-4.3166660">
        <ele>628.8</ele>
        <time>2020-07-17T10:49:55Z</time>
      </trkpt>
      <trkpt lat="37.4592530" lon="-4.3167540">
        <ele>629.4</ele>
        <time>2020-07-17T10:49:57Z</time>
      </trkpt>
      <trkpt lat="37.4592170" lon="-4.3169900">
        <ele>630.4</ele>
        <time>2020-07-17T10:50:02Z</time>
      </trkpt>
      <trkpt lat="37.4592050" lon="-4.3171470">
        <ele>630.8</ele>
        <time>2020-07-17T10:50:05Z</time>
      </trkpt>
      <trkpt lat="37.4591900" lon="-4.3175640">
        <ele>631.4</ele>
        <time>2020-07-17T10:50:12Z</time>
      </trkpt>
      <trkpt lat="37.4592100" lon="-4.3180890">
        <ele>632.4</ele>
        <time>2020-07-17T10:50:20Z</time>
      </trkpt>
      <trkpt lat="37.4592180" lon="-4.3183480">
        <ele>633.0</ele>
        <time>2020-07-17T10:50:24Z</time>
      </trkpt>
      <trkpt lat="37.4592530" lon="-4.3188780">
        <ele>633.4</ele>
        <time>2020-07-17T10:50:32Z</time>
      </trkpt>
      <trkpt lat="37.4592460" lon="-4.3193330">
        <ele>633.6</ele>
        <time>2020-07-17T10:50:39Z</time>
      </trkpt>
      <trkpt lat="37.4592390" lon="-4.3193950">
        <ele>633.6</ele>
        <time>2020-07-17T10:50:40Z</time>
      </trkpt>
      <trkpt lat="37.4591780" lon="-4.3198080">
        <ele>634.4</ele>
        <time>2020-07-17T10:50:47Z</time>
      </trkpt>
      <trkpt lat="37.4591660" lon="-4.3198660">
        <ele>634.4</ele>
        <time>2020-07-17T10:50:48Z</time>
      </trkpt>
      <trkpt lat="37.4591530" lon="-4.3199270">
        <ele>634.6</ele>
        <time>2020-07-17T10:50:49Z</time>
      </trkpt>
      <trkpt lat="37.4591030" lon="-4.3201140">
        <ele>634.6</ele>
        <time>2020-07-17T10:50:52Z</time>
      </trkpt>
      <trkpt lat="37.4590370" lon="-4.3203640">
        <ele>635.0</ele>
        <time>2020-07-17T10:50:56Z</time>
      </trkpt>
      <trkpt lat="37.4589540" lon="-4.3206840">
        <ele>635.0</ele>
        <time>2020-07-17T10:51:01Z</time>
      </trkpt>
      <trkpt lat="37.4588910" lon="-4.3209460">
        <ele>635.6</ele>
        <time>2020-07-17T10:51:05Z</time>
      </trkpt>
      <trkpt lat="37.4588760" lon="-4.3210090">
        <ele>635.6</ele>
        <time>2020-07-17T10:51:06Z</time>
      </trkpt>
      <trkpt lat="37.4588690" lon="-4.3210750">
        <ele>635.8</ele>
        <time>2020-07-17T10:51:07Z</time>
      </trkpt>
      <trkpt lat="37.4588380" lon="-4.3213990">
        <ele>636.0</ele>
        <time>2020-07-17T10:51:12Z</time>
      </trkpt>
      <trkpt lat="37.4588200" lon="-4.3220330">
        <ele>636.6</ele>
        <time>2020-07-17T10:51:21Z</time>
      </trkpt>
      <trkpt lat="37.4588200" lon="-4.3221710">
        <ele>636.8</ele>
        <time>2020-07-17T10:51:23Z</time>
      </trkpt>
      <trkpt lat="37.4588180" lon="-4.3227190">
        <ele>637.8</ele>
        <time>2020-07-17T10:51:31Z</time>
      </trkpt>
      <trkpt lat="37.4588150" lon="-4.3230580">
        <ele>638.0</ele>
        <time>2020-07-17T10:51:36Z</time>
      </trkpt>
      <trkpt lat="37.4588110" lon="-4.3237530">
        <ele>638.6</ele>
        <time>2020-07-17T10:51:46Z</time>
      </trkpt>
      <trkpt lat="37.4588110" lon="-4.3238170">
        <ele>638.8</ele>
        <time>2020-07-17T10:51:47Z</time>
      </trkpt>
      <trkpt lat="37.4588120" lon="-4.3240240">
        <ele>639.0</ele>
        <time>2020-07-17T10:51:50Z</time>
      </trkpt>
      <trkpt lat="37.4588070" lon="-4.3246120">
        <ele>639.8</ele>
        <time>2020-07-17T10:51:59Z</time>
      </trkpt>
      <trkpt lat="37.4588070" lon="-4.3247340">
        <ele>640.0</ele>
        <time>2020-07-17T10:52:01Z</time>
      </trkpt>
      <trkpt lat="37.4588050" lon="-4.3249660">
        <ele>640.4</ele>
        <time>2020-07-17T10:52:05Z</time>
      </trkpt>
      <trkpt lat="37.4588040" lon="-4.3250760">
        <ele>640.8</ele>
        <time>2020-07-17T10:52:07Z</time>
      </trkpt>
      <trkpt lat="37.4588030" lon="-4.3251880">
        <ele>641.2</ele>
        <time>2020-07-17T10:52:09Z</time>
      </trkpt>
      <trkpt lat="37.4588020" lon="-4.3252460">
        <ele>641.4</ele>
        <time>2020-07-17T10:52:10Z</time>
      </trkpt>
      <trkpt lat="37.4588000" lon="-4.3253480">
        <ele>641.8</ele>
        <time>2020-07-17T10:52:12Z</time>
      </trkpt>
      <trkpt lat="37.4587990" lon="-4.3255130">
        <ele>642.4</ele>
        <time>2020-07-17T10:52:15Z</time>
      </trkpt>
      <trkpt lat="37.4587990" lon="-4.3257290">
        <ele>643.0</ele>
        <time>2020-07-17T10:52:19Z</time>
      </trkpt>
      <trkpt lat="37.4587950" lon="-4.3257810">
        <ele>643.2</ele>
        <time>2020-07-17T10:52:20Z</time>
      </trkpt>
      <trkpt lat="37.4587930" lon="-4.3260450">
        <ele>644.0</ele>
        <time>2020-07-17T10:52:25Z</time>
      </trkpt>
      <trkpt lat="37.4587890" lon="-4.3262880">
        <ele>644.8</ele>
        <time>2020-07-17T10:52:29Z</time>
      </trkpt>
      <trkpt lat="37.4587890" lon="-4.3263470">
        <ele>645.2</ele>
        <time>2020-07-17T10:52:30Z</time>
      </trkpt>
      <trkpt lat="37.4587880" lon="-4.3265650">
        <ele>646.2</ele>
        <time>2020-07-17T10:52:34Z</time>
      </trkpt>
      <trkpt lat="37.4587850" lon="-4.3268900">
        <ele>647.0</ele>
        <time>2020-07-17T10:52:40Z</time>
      </trkpt>
      <trkpt lat="37.4587850" lon="-4.3270010">
        <ele>647.4</ele>
        <time>2020-07-17T10:52:42Z</time>
      </trkpt>
      <trkpt lat="37.4587820" lon="-4.3272730">
        <ele>648.4</ele>
        <time>2020-07-17T10:52:47Z</time>
      </trkpt>
      <trkpt lat="37.4587820" lon="-4.3275480">
        <ele>649.4</ele>
        <time>2020-07-17T10:52:52Z</time>
      </trkpt>
      <trkpt lat="37.4587820" lon="-4.3275980">
        <ele>649.6</ele>
        <time>2020-07-17T10:52:53Z</time>
      </trkpt>
      <trkpt lat="37.4587800" lon="-4.3278790">
        <ele>650.0</ele>
        <time>2020-07-17T10:52:58Z</time>
      </trkpt>
      <trkpt lat="37.4587850" lon="-4.3280400">
        <ele>650.4</ele>
        <time>2020-07-17T10:53:01Z</time>
      </trkpt>
      <trkpt lat="37.4588160" lon="-4.3281480">
        <ele>650.6</ele>
        <time>2020-07-17T10:53:03Z</time>
      </trkpt>
      <trkpt lat="37.4589210" lon="-4.3283790">
        <ele>651.6</ele>
        <time>2020-07-17T10:53:08Z</time>
      </trkpt>
      <trkpt lat="37.4589400" lon="-4.3284220">
        <ele>651.8</ele>
        <time>2020-07-17T10:53:09Z</time>
      </trkpt>
      <trkpt lat="37.4589600" lon="-4.3284680">
        <ele>652.4</ele>
        <time>2020-07-17T10:53:10Z</time>
      </trkpt>
      <trkpt lat="37.4589780" lon="-4.3285080">
        <ele>653.0</ele>
        <time>2020-07-17T10:53:11Z</time>
      </trkpt>
      <trkpt lat="37.4590210" lon="-4.3286020">
        <ele>653.6</ele>
        <time>2020-07-17T10:53:13Z</time>
      </trkpt>
      <trkpt lat="37.4590410" lon="-4.3286510">
        <ele>654.0</ele>
        <time>2020-07-17T10:53:14Z</time>
      </trkpt>
      <trkpt lat="37.4591050" lon="-4.3288440">
        <ele>654.8</ele>
        <time>2020-07-17T10:53:18Z</time>
      </trkpt>
      <trkpt lat="37.4591350" lon="-4.3289400">
        <ele>654.8</ele>
        <time>2020-07-17T10:53:20Z</time>
      </trkpt>
      <trkpt lat="37.4591680" lon="-4.3290290">
        <ele>655.2</ele>
        <time>2020-07-17T10:53:22Z</time>
      </trkpt>
      <trkpt lat="37.4592570" lon="-4.3292930">
        <ele>656.4</ele>
        <time>2020-07-17T10:53:28Z</time>
      </trkpt>
      <trkpt lat="37.4593090" lon="-4.3294650">
        <ele>657.4</ele>
        <time>2020-07-17T10:53:32Z</time>
      </trkpt>
      <trkpt lat="37.4593510" lon="-4.3296860">
        <ele>658.2</ele>
        <time>2020-07-17T10:53:37Z</time>
      </trkpt>
      <trkpt lat="37.4593560" lon="-4.3297270">
        <ele>658.4</ele>
        <time>2020-07-17T10:53:38Z</time>
      </trkpt>
      <trkpt lat="37.4593780" lon="-4.3300120">
        <ele>659.4</ele>
        <time>2020-07-17T10:53:44Z</time>
      </trkpt>
      <trkpt lat="37.4593820" lon="-4.3301030">
        <ele>660.0</ele>
        <time>2020-07-17T10:53:46Z</time>
      </trkpt>
      <trkpt lat="37.4594010" lon="-4.3302920">
        <ele>660.8</ele>
        <time>2020-07-17T10:53:50Z</time>
      </trkpt>
      <trkpt lat="37.4594390" lon="-4.3306220">
        <ele>661.8</ele>
        <time>2020-07-17T10:53:57Z</time>
      </trkpt>
      <trkpt lat="37.4595270" lon="-4.3309890">
        <ele>662.8</ele>
        <time>2020-07-17T10:54:05Z</time>
      </trkpt>
      <trkpt lat="37.4596980" lon="-4.3313360">
        <ele>663.8</ele>
        <time>2020-07-17T10:54:13Z</time>
      </trkpt>
      <trkpt lat="37.4598230" lon="-4.3315450">
        <ele>665.0</ele>
        <time>2020-07-17T10:54:18Z</time>
      </trkpt>
      <trkpt lat="37.4599640" lon="-4.3317940">
        <ele>665.8</ele>
        <time>2020-07-17T10:54:24Z</time>
      </trkpt>
      <trkpt lat="37.4600610" lon="-4.3319550">
        <ele>666.2</ele>
        <time>2020-07-17T10:54:28Z</time>
      </trkpt>
      <trkpt lat="37.4601830" lon="-4.3321600">
        <ele>667.2</ele>
        <time>2020-07-17T10:54:33Z</time>
      </trkpt>
      <trkpt lat="37.4602080" lon="-4.3322040">
        <ele>667.6</ele>
        <time>2020-07-17T10:54:34Z</time>
      </trkpt>
      <trkpt lat="37.4603520" lon="-4.3324510">
        <ele>668.4</ele>
        <time>2020-07-17T10:54:40Z</time>
      </trkpt>
      <trkpt lat="37.4604240" lon="-4.3325660">
        <ele>669.0</ele>
        <time>2020-07-17T10:54:43Z</time>
      </trkpt>
      <trkpt lat="37.4604710" lon="-4.3326440">
        <ele>669.6</ele>
        <time>2020-07-17T10:54:45Z</time>
      </trkpt>
      <trkpt lat="37.4606080" lon="-4.3328870">
        <ele>670.6</ele>
        <time>2020-07-17T10:54:51Z</time>
      </trkpt>
      <trkpt lat="37.4606340" lon="-4.3329300">
        <ele>670.6</ele>
        <time>2020-07-17T10:54:52Z</time>
      </trkpt>
      <trkpt lat="37.4607770" lon="-4.3331860">
        <ele>671.4</ele>
        <time>2020-07-17T10:54:58Z</time>
      </trkpt>
      <trkpt lat="37.4608280" lon="-4.3332720">
        <ele>671.8</ele>
        <time>2020-07-17T10:55:00Z</time>
      </trkpt>
      <trkpt lat="37.4610400" lon="-4.3336340">
        <ele>672.8</ele>
        <time>2020-07-17T10:55:08Z</time>
      </trkpt>
      <trkpt lat="37.4612060" lon="-4.3339100">
        <ele>673.4</ele>
        <time>2020-07-17T10:55:14Z</time>
      </trkpt>
      <trkpt lat="37.4612870" lon="-4.3340370">
        <ele>673.8</ele>
        <time>2020-07-17T10:55:17Z</time>
      </trkpt>
      <trkpt lat="37.4613140" lon="-4.3340810">
        <ele>674.0</ele>
        <time>2020-07-17T10:55:18Z</time>
      </trkpt>
      <trkpt lat="37.4614400" lon="-4.3342900">
        <ele>674.6</ele>
        <time>2020-07-17T10:55:23Z</time>
      </trkpt>
      <trkpt lat="37.4614860" lon="-4.3343790">
        <ele>674.8</ele>
        <time>2020-07-17T10:55:25Z</time>
      </trkpt>
      <trkpt lat="37.4615550" lon="-4.3345030">
        <ele>675.0</ele>
        <time>2020-07-17T10:55:28Z</time>
      </trkpt>
      <trkpt lat="37.4616550" lon="-4.3346730">
        <ele>675.6</ele>
        <time>2020-07-17T10:55:32Z</time>
      </trkpt>
      <trkpt lat="37.4616810" lon="-4.3347120">
        <ele>675.6</ele>
        <time>2020-07-17T10:55:33Z</time>
      </trkpt>
      <trkpt lat="37.4618030" lon="-4.3349200">
        <ele>676.2</ele>
        <time>2020-07-17T10:55:38Z</time>
      </trkpt>
      <trkpt lat="37.4619110" lon="-4.3350990">
        <ele>676.6</ele>
        <time>2020-07-17T10:55:42Z</time>
      </trkpt>
      <trkpt lat="37.4621270" lon="-4.3354650">
        <ele>677.2</ele>
        <time>2020-07-17T10:55:50Z</time>
      </trkpt>
      <trkpt lat="37.4622430" lon="-4.3357010">
        <ele>678.0</ele>
        <time>2020-07-17T10:55:55Z</time>
      </trkpt>
      <trkpt lat="37.4622710" lon="-4.3358090">
        <ele>678.4</ele>
        <time>2020-07-17T10:55:57Z</time>
      </trkpt>
      <trkpt lat="37.4622910" lon="-4.3359200">
        <ele>678.8</ele>
        <time>2020-07-17T10:55:59Z</time>
      </trkpt>
      <trkpt lat="37.4623020" lon="-4.3361700">
        <ele>679.2</ele>
        <time>2020-07-17T10:56:03Z</time>
      </trkpt>
      <trkpt lat="37.4623050" lon="-4.3363120">
        <ele>679.6</ele>
        <time>2020-07-17T10:56:05Z</time>
      </trkpt>
      <trkpt lat="37.4623410" lon="-4.3365660">
        <ele>679.2</ele>
        <time>2020-07-17T10:56:08Z</time>
      </trkpt>
      <trkpt lat="37.4624980" lon="-4.3368870">
        <ele>678.4</ele>
        <time>2020-07-17T10:56:12Z</time>
      </trkpt>
      <trkpt lat="37.4626950" lon="-4.3371900">
        <ele>677.8</ele>
        <time>2020-07-17T10:56:16Z</time>
      </trkpt>
      <trkpt lat="37.4627960" lon="-4.3373450">
        <ele>677.4</ele>
        <time>2020-07-17T10:56:18Z</time>
      </trkpt>
      <trkpt lat="37.4629410" lon="-4.3375690">
        <ele>676.8</ele>
        <time>2020-07-17T10:56:21Z</time>
      </trkpt>
      <trkpt lat="37.4633090" lon="-4.3381530">
        <ele>677.4</ele>
        <time>2020-07-17T10:56:29Z</time>
      </trkpt>
      <trkpt lat="37.4633910" lon="-4.3383200">
        <ele>677.2</ele>
        <time>2020-07-17T10:56:31Z</time>
      </trkpt>
      <trkpt lat="37.4634660" lon="-4.3386010">
        <ele>676.8</ele>
        <time>2020-07-17T10:56:34Z</time>
      </trkpt>
      <trkpt lat="37.4635500" lon="-4.3391120">
        <ele>677.2</ele>
        <time>2020-07-17T10:56:40Z</time>
      </trkpt>
      <trkpt lat="37.4636180" lon="-4.3395430">
        <ele>678.4</ele>
        <time>2020-07-17T10:56:46Z</time>
      </trkpt>
      <trkpt lat="37.4636420" lon="-4.3396840">
        <ele>678.8</ele>
        <time>2020-07-17T10:56:48Z</time>
      </trkpt>
      <trkpt lat="37.4636780" lon="-4.3398830">
        <ele>679.4</ele>
        <time>2020-07-17T10:56:51Z</time>
      </trkpt>
      <trkpt lat="37.4636940" lon="-4.3399540">
        <ele>679.6</ele>
        <time>2020-07-17T10:56:52Z</time>
      </trkpt>
      <trkpt lat="37.4637240" lon="-4.3401530">
        <ele>680.2</ele>
        <time>2020-07-17T10:56:55Z</time>
      </trkpt>
      <trkpt lat="37.4637530" lon="-4.3403470">
        <ele>680.8</ele>
        <time>2020-07-17T10:56:58Z</time>
      </trkpt>
      <trkpt lat="37.4637910" lon="-4.3405900">
        <ele>681.6</ele>
        <time>2020-07-17T10:57:02Z</time>
      </trkpt>
      <trkpt lat="37.4638120" lon="-4.3407020">
        <ele>681.8</ele>
        <time>2020-07-17T10:57:04Z</time>
      </trkpt>
      <trkpt lat="37.4638630" lon="-4.3410350">
        <ele>682.8</ele>
        <time>2020-07-17T10:57:10Z</time>
      </trkpt>
      <trkpt lat="37.4638700" lon="-4.3410840">
        <ele>683.0</ele>
        <time>2020-07-17T10:57:11Z</time>
      </trkpt>
      <trkpt lat="37.4639490" lon="-4.3415820">
        <ele>684.0</ele>
        <time>2020-07-17T10:57:20Z</time>
      </trkpt>
      <trkpt lat="37.4639590" lon="-4.3416320">
        <ele>684.2</ele>
        <time>2020-07-17T10:57:21Z</time>
      </trkpt>
      <trkpt lat="37.4640660" lon="-4.3421390">
        <ele>685.2</ele>
        <time>2020-07-17T10:57:30Z</time>
      </trkpt>
      <trkpt lat="37.4640820" lon="-4.3421920">
        <ele>685.4</ele>
        <time>2020-07-17T10:57:31Z</time>
      </trkpt>
      <trkpt lat="37.4642110" lon="-4.3425810">
        <ele>686.0</ele>
        <time>2020-07-17T10:57:38Z</time>
      </trkpt>
      <trkpt lat="37.4642500" lon="-4.3426950">
        <ele>686.2</ele>
        <time>2020-07-17T10:57:40Z</time>
      </trkpt>
      <trkpt lat="37.4642680" lon="-4.3427430">
        <ele>686.2</ele>
        <time>2020-07-17T10:57:41Z</time>
      </trkpt>
      <trkpt lat="37.4644310" lon="-4.3431920">
        <ele>687.0</ele>
        <time>2020-07-17T10:57:49Z</time>
      </trkpt>
      <trkpt lat="37.4644520" lon="-4.3432480">
        <ele>687.0</ele>
        <time>2020-07-17T10:57:50Z</time>
      </trkpt>
      <trkpt lat="37.4644730" lon="-4.3433000">
        <ele>687.4</ele>
        <time>2020-07-17T10:57:51Z</time>
      </trkpt>
      <trkpt lat="37.4646420" lon="-4.3437350">
        <ele>687.8</ele>
        <time>2020-07-17T10:57:59Z</time>
      </trkpt>
      <trkpt lat="37.4647400" lon="-4.3440010">
        <ele>688.6</ele>
        <time>2020-07-17T10:58:04Z</time>
      </trkpt>
      <trkpt lat="37.4648300" lon="-4.3442570">
        <ele>689.4</ele>
        <time>2020-07-17T10:58:09Z</time>
      </trkpt>
      <trkpt lat="37.4648640" lon="-4.3443490">
        <ele>689.8</ele>
        <time>2020-07-17T10:58:11Z</time>
      </trkpt>
      <trkpt lat="37.4649380" lon="-4.3446010">
        <ele>690.6</ele>
        <time>2020-07-17T10:58:16Z</time>
      </trkpt>
      <trkpt lat="37.4649540" lon="-4.3446470">
        <ele>691.0</ele>
        <time>2020-07-17T10:58:17Z</time>
      </trkpt>
      <trkpt lat="37.4650460" lon="-4.3448940">
        <ele>691.8</ele>
        <time>2020-07-17T10:58:22Z</time>
      </trkpt>
      <trkpt lat="37.4650780" lon="-4.3449930">
        <ele>692.0</ele>
        <time>2020-07-17T10:58:24Z</time>
      </trkpt>
      <trkpt lat="37.4650940" lon="-4.3450440">
        <ele>692.2</ele>
        <time>2020-07-17T10:58:25Z</time>
      </trkpt>
      <trkpt lat="37.4651850" lon="-4.3452950">
        <ele>693.2</ele>
        <time>2020-07-17T10:58:30Z</time>
      </trkpt>
      <trkpt lat="37.4652520" lon="-4.3454890">
        <ele>693.6</ele>
        <time>2020-07-17T10:58:34Z</time>
      </trkpt>
      <trkpt lat="37.4653200" lon="-4.3456810">
        <ele>694.2</ele>
        <time>2020-07-17T10:58:38Z</time>
      </trkpt>
      <trkpt lat="37.4654210" lon="-4.3459670">
        <ele>695.4</ele>
        <time>2020-07-17T10:58:44Z</time>
      </trkpt>
      <trkpt lat="37.4655320" lon="-4.3462840">
        <ele>696.4</ele>
        <time>2020-07-17T10:58:51Z</time>
      </trkpt>
      <trkpt lat="37.4656590" lon="-4.3466480">
        <ele>697.4</ele>
        <time>2020-07-17T10:58:59Z</time>
      </trkpt>
      <trkpt lat="37.4657260" lon="-4.3468370">
        <ele>698.4</ele>
        <time>2020-07-17T10:59:03Z</time>
      </trkpt>
      <trkpt lat="37.4658300" lon="-4.3471120">
        <ele>699.0</ele>
        <time>2020-07-17T10:59:09Z</time>
      </trkpt>
      <trkpt lat="37.4658630" lon="-4.3471990">
        <ele>699.2</ele>
        <time>2020-07-17T10:59:11Z</time>
      </trkpt>
      <trkpt lat="37.4658970" lon="-4.3473020">
        <ele>699.4</ele>
        <time>2020-07-17T10:59:13Z</time>
      </trkpt>
      <trkpt lat="37.4659440" lon="-4.3474480">
        <ele>700.0</ele>
        <time>2020-07-17T10:59:16Z</time>
      </trkpt>
      <trkpt lat="37.4660130" lon="-4.3476420">
        <ele>700.4</ele>
        <time>2020-07-17T10:59:20Z</time>
      </trkpt>
      <trkpt lat="37.4660410" lon="-4.3477390">
        <ele>701.0</ele>
        <time>2020-07-17T10:59:22Z</time>
      </trkpt>
      <trkpt lat="37.4660500" lon="-4.3477860">
        <ele>701.0</ele>
        <time>2020-07-17T10:59:23Z</time>
      </trkpt>
      <trkpt lat="37.4660520" lon="-4.3478440">
        <ele>701.2</ele>
        <time>2020-07-17T10:59:24Z</time>
      </trkpt>
      <trkpt lat="37.4660260" lon="-4.3479460">
        <ele>701.4</ele>
        <time>2020-07-17T10:59:26Z</time>
      </trkpt>
      <trkpt lat="37.4660000" lon="-4.3479960">
        <ele>701.6</ele>
        <time>2020-07-17T10:59:27Z</time>
      </trkpt>
      <trkpt lat="37.4658970" lon="-4.3480820">
        <ele>701.8</ele>
        <time>2020-07-17T10:59:30Z</time>
      </trkpt>
      <trkpt lat="37.4657740" lon="-4.3481060">
        <ele>702.6</ele>
        <time>2020-07-17T10:59:33Z</time>
      </trkpt>
      <trkpt lat="37.4657300" lon="-4.3481130">
        <ele>702.8</ele>
        <time>2020-07-17T10:59:34Z</time>
      </trkpt>
      <trkpt lat="37.4656910" lon="-4.3481180">
        <ele>703.2</ele>
        <time>2020-07-17T10:59:35Z</time>
      </trkpt>
      <trkpt lat="37.4654330" lon="-4.3481390">
        <ele>703.8</ele>
        <time>2020-07-17T10:59:41Z</time>
      </trkpt>
      <trkpt lat="37.4652990" lon="-4.3481490">
        <ele>704.4</ele>
        <time>2020-07-17T10:59:44Z</time>
      </trkpt>
      <trkpt lat="37.4651850" lon="-4.3481640">
        <ele>704.8</ele>
        <time>2020-07-17T10:59:47Z</time>
      </trkpt>
      <trkpt lat="37.4651340" lon="-4.3481800">
        <ele>705.0</ele>
        <time>2020-07-17T10:59:48Z</time>
      </trkpt>
      <trkpt lat="37.4650180" lon="-4.3482270">
        <ele>705.4</ele>
        <time>2020-07-17T10:59:51Z</time>
      </trkpt>
      <trkpt lat="37.4649800" lon="-4.3482510">
        <ele>705.6</ele>
        <time>2020-07-17T10:59:52Z</time>
      </trkpt>
      <trkpt lat="37.4648440" lon="-4.3483380">
        <ele>706.0</ele>
        <time>2020-07-17T10:59:56Z</time>
      </trkpt>
      <trkpt lat="37.4647520" lon="-4.3484240">
        <ele>706.6</ele>
        <time>2020-07-17T10:59:59Z</time>
      </trkpt>
      <trkpt lat="37.4646620" lon="-4.3485180">
        <ele>707.2</ele>
        <time>2020-07-17T11:00:02Z</time>
      </trkpt>
      <trkpt lat="37.4645460" lon="-4.3486330">
        <ele>708.0</ele>
        <time>2020-07-17T11:00:06Z</time>
      </trkpt>
      <trkpt lat="37.4645150" lon="-4.3486620">
        <ele>708.4</ele>
        <time>2020-07-17T11:00:07Z</time>
      </trkpt>
      <trkpt lat="37.4644020" lon="-4.3487680">
        <ele>709.4</ele>
        <time>2020-07-17T11:00:11Z</time>
      </trkpt>
      <trkpt lat="37.4643150" lon="-4.3488540">
        <ele>710.4</ele>
        <time>2020-07-17T11:00:14Z</time>
      </trkpt>
      <trkpt lat="37.4642870" lon="-4.3488800">
        <ele>710.6</ele>
        <time>2020-07-17T11:00:15Z</time>
      </trkpt>
      <trkpt lat="37.4640950" lon="-4.3489850">
        <ele>711.6</ele>
        <time>2020-07-17T11:00:21Z</time>
      </trkpt>
      <trkpt lat="37.4639450" lon="-4.3489740">
        <ele>712.8</ele>
        <time>2020-07-17T11:00:25Z</time>
      </trkpt>
      <trkpt lat="37.4639110" lon="-4.3489580">
        <ele>712.8</ele>
        <time>2020-07-17T11:00:26Z</time>
      </trkpt>
      <trkpt lat="37.4637640" lon="-4.3488160">
        <ele>713.6</ele>
        <time>2020-07-17T11:00:31Z</time>
      </trkpt>
      <trkpt lat="37.4637140" lon="-4.3487580">
        <ele>713.8</ele>
        <time>2020-07-17T11:00:33Z</time>
      </trkpt>
      <trkpt lat="37.4635670" lon="-4.3485760">
        <ele>714.4</ele>
        <time>2020-07-17T11:00:39Z</time>
      </trkpt>
      <trkpt lat="37.4634890" lon="-4.3484860">
        <ele>714.8</ele>
        <time>2020-07-17T11:00:42Z</time>
      </trkpt>
      <trkpt lat="37.4633250" lon="-4.3483100">
        <ele>715.4</ele>
        <time>2020-07-17T11:00:48Z</time>
      </trkpt>
      <trkpt lat="37.4632710" lon="-4.3482470">
        <ele>715.8</ele>
        <time>2020-07-17T11:00:50Z</time>
      </trkpt>
      <trkpt lat="37.4631310" lon="-4.3480400">
        <ele>716.8</ele>
        <time>2020-07-17T11:00:56Z</time>
      </trkpt>
      <trkpt lat="37.4631100" lon="-4.3479970">
        <ele>717.0</ele>
        <time>2020-07-17T11:00:57Z</time>
      </trkpt>
      <trkpt lat="37.4630230" lon="-4.3477950">
        <ele>717.6</ele>
        <time>2020-07-17T11:01:02Z</time>
      </trkpt>
      <trkpt lat="37.4629770" lon="-4.3476800">
        <ele>718.4</ele>
        <time>2020-07-17T11:01:05Z</time>
      </trkpt>
      <trkpt lat="37.4628940" lon="-4.3474840">
        <ele>719.4</ele>
        <time>2020-07-17T11:01:10Z</time>
      </trkpt>
      <trkpt lat="37.4628420" lon="-4.3474240">
        <ele>720.0</ele>
        <time>2020-07-17T11:01:12Z</time>
      </trkpt>
      <trkpt lat="37.4627440" lon="-4.3473750">
        <ele>720.4</ele>
        <time>2020-07-17T11:01:15Z</time>
      </trkpt>
      <trkpt lat="37.4626710" lon="-4.3473780">
        <ele>720.6</ele>
        <time>2020-07-17T11:01:17Z</time>
      </trkpt>
      <trkpt lat="37.4625190" lon="-4.3474200">
        <ele>721.8</ele>
        <time>2020-07-17T11:01:21Z</time>
      </trkpt>
      <trkpt lat="37.4624070" lon="-4.3474500">
        <ele>722.2</ele>
        <time>2020-07-17T11:01:24Z</time>
      </trkpt>
      <trkpt lat="37.4622270" lon="-4.3474620">
        <ele>722.8</ele>
        <time>2020-07-17T11:01:29Z</time>
      </trkpt>
      <trkpt lat="37.4621570" lon="-4.3474400">
        <ele>723.2</ele>
        <time>2020-07-17T11:01:31Z</time>
      </trkpt>
      <trkpt lat="37.4620590" lon="-4.3473250">
        <ele>723.8</ele>
        <time>2020-07-17T11:01:35Z</time>
      </trkpt>
      <trkpt lat="37.4620440" lon="-4.3472880">
        <ele>724.0</ele>
        <time>2020-07-17T11:01:36Z</time>
      </trkpt>
      <trkpt lat="37.4620030" lon="-4.3470750">
        <ele>725.0</ele>
        <time>2020-07-17T11:01:41Z</time>
      </trkpt>
      <trkpt lat="37.4619550" lon="-4.3467030">
        <ele>726.0</ele>
        <time>2020-07-17T11:01:49Z</time>
      </trkpt>
      <trkpt lat="37.4619470" lon="-4.3466570">
        <ele>726.2</ele>
        <time>2020-07-17T11:01:50Z</time>
      </trkpt>
      <trkpt lat="37.4618570" lon="-4.3464510">
        <ele>727.0</ele>
        <time>2020-07-17T11:01:55Z</time>
      </trkpt>
      <trkpt lat="37.4618330" lon="-4.3464180">
        <ele>727.2</ele>
        <time>2020-07-17T11:01:56Z</time>
      </trkpt>
      <trkpt lat="37.4616930" lon="-4.3462540">
        <ele>728.4</ele>
        <time>2020-07-17T11:02:01Z</time>
      </trkpt>
      <trkpt lat="37.4616310" lon="-4.3461970">
        <ele>728.4</ele>
        <time>2020-07-17T11:02:03Z</time>
      </trkpt>
      <trkpt lat="37.4614480" lon="-4.3461570">
        <ele>729.2</ele>
        <time>2020-07-17T11:02:08Z</time>
      </trkpt>
      <trkpt lat="37.4614100" lon="-4.3461590">
        <ele>729.4</ele>
        <time>2020-07-17T11:02:09Z</time>
      </trkpt>
      <trkpt lat="37.4612430" lon="-4.3462150">
        <ele>730.2</ele>
        <time>2020-07-17T11:02:14Z</time>
      </trkpt>
      <trkpt lat="37.4612220" lon="-4.3462750">
        <ele>730.6</ele>
        <time>2020-07-17T11:02:16Z</time>
      </trkpt>
      <trkpt lat="37.4612350" lon="-4.3463480">
        <ele>731.2</ele>
        <time>2020-07-17T11:02:18Z</time>
      </trkpt>
      <trkpt lat="37.4612600" lon="-4.3464170">
        <ele>731.8</ele>
        <time>2020-07-17T11:02:20Z</time>
      </trkpt>
      <trkpt lat="37.4612710" lon="-4.3464520">
        <ele>732.2</ele>
        <time>2020-07-17T11:02:21Z</time>
      </trkpt>
      <trkpt lat="37.4613040" lon="-4.3465690">
        <ele>732.8</ele>
        <time>2020-07-17T11:02:24Z</time>
      </trkpt>
      <trkpt lat="37.4613140" lon="-4.3466070">
        <ele>733.0</ele>
        <time>2020-07-17T11:02:25Z</time>
      </trkpt>
      <trkpt lat="37.4613480" lon="-4.3467240">
        <ele>733.6</ele>
        <time>2020-07-17T11:02:28Z</time>
      </trkpt>
      <trkpt lat="37.4613820" lon="-4.3468470">
        <ele>734.0</ele>
        <time>2020-07-17T11:02:31Z</time>
      </trkpt>
      <trkpt lat="37.4613940" lon="-4.3468900">
        <ele>734.4</ele>
        <time>2020-07-17T11:02:32Z</time>
      </trkpt>
      <trkpt lat="37.4614280" lon="-4.3470110">
        <ele>735.2</ele>
        <time>2020-07-17T11:02:35Z</time>
      </trkpt>
      <trkpt lat="37.4614740" lon="-4.3471760">
        <ele>736.2</ele>
        <time>2020-07-17T11:02:39Z</time>
      </trkpt>
      <trkpt lat="37.4615230" lon="-4.3473320">
        <ele>737.2</ele>
        <time>2020-07-17T11:02:43Z</time>
      </trkpt>
      <trkpt lat="37.4615330" lon="-4.3473720">
        <ele>737.2</ele>
        <time>2020-07-17T11:02:44Z</time>
      </trkpt>
      <trkpt lat="37.4615900" lon="-4.3475700">
        <ele>738.4</ele>
        <time>2020-07-17T11:02:49Z</time>
      </trkpt>
      <trkpt lat="37.4616710" lon="-4.3478510">
        <ele>739.4</ele>
        <time>2020-07-17T11:02:56Z</time>
      </trkpt>
      <trkpt lat="37.4617280" lon="-4.3480480">
        <ele>740.6</ele>
        <time>2020-07-17T11:03:01Z</time>
      </trkpt>
      <trkpt lat="37.4617690" lon="-4.3482000">
        <ele>741.8</ele>
        <time>2020-07-17T11:03:05Z</time>
      </trkpt>
      <trkpt lat="37.4617800" lon="-4.3482380">
        <ele>742.0</ele>
        <time>2020-07-17T11:03:06Z</time>
      </trkpt>
      <trkpt lat="37.4618320" lon="-4.3484190">
        <ele>743.0</ele>
        <time>2020-07-17T11:03:11Z</time>
      </trkpt>
      <trkpt lat="37.4618970" lon="-4.3486450">
        <ele>744.0</ele>
        <time>2020-07-17T11:03:17Z</time>
      </trkpt>
      <trkpt lat="37.4619080" lon="-4.3486860">
        <ele>744.0</ele>
        <time>2020-07-17T11:03:18Z</time>
      </trkpt>
      <trkpt lat="37.4619660" lon="-4.3488960">
        <ele>745.0</ele>
        <time>2020-07-17T11:03:24Z</time>
      </trkpt>
      <trkpt lat="37.4620140" lon="-4.3490690">
        <ele>746.2</ele>
        <time>2020-07-17T11:03:28Z</time>
      </trkpt>
      <trkpt lat="37.4620240" lon="-4.3491040">
        <ele>746.4</ele>
        <time>2020-07-17T11:03:29Z</time>
      </trkpt>
      <trkpt lat="37.4620810" lon="-4.3492980">
        <ele>747.4</ele>
        <time>2020-07-17T11:03:34Z</time>
      </trkpt>
      <trkpt lat="37.4621490" lon="-4.3495290">
        <ele>748.6</ele>
        <time>2020-07-17T11:03:40Z</time>
      </trkpt>
      <trkpt lat="37.4621820" lon="-4.3496430">
        <ele>749.2</ele>
        <time>2020-07-17T11:03:43Z</time>
      </trkpt>
      <trkpt lat="37.4622020" lon="-4.3497190">
        <ele>749.6</ele>
        <time>2020-07-17T11:03:45Z</time>
      </trkpt>
      <trkpt lat="37.4622440" lon="-4.3498700">
        <ele>750.6</ele>
        <time>2020-07-17T11:03:49Z</time>
      </trkpt>
      <trkpt lat="37.4623020" lon="-4.3500510">
        <ele>751.8</ele>
        <time>2020-07-17T11:03:54Z</time>
      </trkpt>
      <trkpt lat="37.4623460" lon="-4.3502000">
        <ele>752.6</ele>
        <time>2020-07-17T11:03:58Z</time>
      </trkpt>
      <trkpt lat="37.4623660" lon="-4.3502670">
        <ele>752.8</ele>
        <time>2020-07-17T11:04:00Z</time>
      </trkpt>
      <trkpt lat="37.4624120" lon="-4.3504200">
        <ele>754.0</ele>
        <time>2020-07-17T11:04:04Z</time>
      </trkpt>
      <trkpt lat="37.4624570" lon="-4.3505710">
        <ele>755.0</ele>
        <time>2020-07-17T11:04:08Z</time>
      </trkpt>
      <trkpt lat="37.4624800" lon="-4.3506480">
        <ele>755.4</ele>
        <time>2020-07-17T11:04:10Z</time>
      </trkpt>
      <trkpt lat="37.4625230" lon="-4.3508010">
        <ele>756.2</ele>
        <time>2020-07-17T11:04:14Z</time>
      </trkpt>
      <trkpt lat="37.4625810" lon="-4.3510310">
        <ele>757.2</ele>
        <time>2020-07-17T11:04:20Z</time>
      </trkpt>
      <trkpt lat="37.4626100" lon="-4.3511430">
        <ele>757.8</ele>
        <time>2020-07-17T11:04:23Z</time>
      </trkpt>
      <trkpt lat="37.4626290" lon="-4.3512250">
        <ele>758.4</ele>
        <time>2020-07-17T11:04:25Z</time>
      </trkpt>
      <trkpt lat="37.4626510" lon="-4.3513460">
        <ele>759.4</ele>
        <time>2020-07-17T11:04:28Z</time>
      </trkpt>
      <trkpt lat="37.4626810" lon="-4.3515040">
        <ele>760.4</ele>
        <time>2020-07-17T11:04:32Z</time>
      </trkpt>
      <trkpt lat="37.4626870" lon="-4.3515440">
        <ele>760.6</ele>
        <time>2020-07-17T11:04:33Z</time>
      </trkpt>
      <trkpt lat="37.4627190" lon="-4.3517860">
        <ele>761.8</ele>
        <time>2020-07-17T11:04:39Z</time>
      </trkpt>
      <trkpt lat="37.4627370" lon="-4.3519470">
        <ele>762.4</ele>
        <time>2020-07-17T11:04:43Z</time>
      </trkpt>
      <trkpt lat="37.4627510" lon="-4.3520640">
        <ele>762.8</ele>
        <time>2020-07-17T11:04:46Z</time>
      </trkpt>
      <trkpt lat="37.4627770" lon="-4.3523060">
        <ele>763.8</ele>
        <time>2020-07-17T11:04:52Z</time>
      </trkpt>
      <trkpt lat="37.4627840" lon="-4.3523850">
        <ele>764.2</ele>
        <time>2020-07-17T11:04:54Z</time>
      </trkpt>
      <trkpt lat="37.4628000" lon="-4.3525390">
        <ele>765.0</ele>
        <time>2020-07-17T11:04:58Z</time>
      </trkpt>
      <trkpt lat="37.4628260" lon="-4.3528440">
        <ele>766.2</ele>
        <time>2020-07-17T11:05:06Z</time>
      </trkpt>
      <trkpt lat="37.4628300" lon="-4.3528840">
        <ele>766.6</ele>
        <time>2020-07-17T11:05:07Z</time>
      </trkpt>
      <trkpt lat="37.4628440" lon="-4.3530340">
        <ele>767.2</ele>
        <time>2020-07-17T11:05:11Z</time>
      </trkpt>
      <trkpt lat="37.4628670" lon="-4.3533090">
        <ele>768.4</ele>
        <time>2020-07-17T11:05:18Z</time>
      </trkpt>
      <trkpt lat="37.4628690" lon="-4.3533480">
        <ele>768.6</ele>
        <time>2020-07-17T11:05:19Z</time>
      </trkpt>
      <trkpt lat="37.4628920" lon="-4.3535480">
        <ele>769.6</ele>
        <time>2020-07-17T11:05:24Z</time>
      </trkpt>
      <trkpt lat="37.4629110" lon="-4.3537560">
        <ele>770.4</ele>
        <time>2020-07-17T11:05:29Z</time>
      </trkpt>
      <trkpt lat="37.4629190" lon="-4.3538420">
        <ele>770.8</ele>
        <time>2020-07-17T11:05:31Z</time>
      </trkpt>
      <trkpt lat="37.4629470" lon="-4.3541350">
        <ele>772.0</ele>
        <time>2020-07-17T11:05:38Z</time>
      </trkpt>
      <trkpt lat="37.4629510" lon="-4.3541770">
        <ele>772.0</ele>
        <time>2020-07-17T11:05:39Z</time>
      </trkpt>
      <trkpt lat="37.4629680" lon="-4.3544450">
        <ele>773.0</ele>
        <time>2020-07-17T11:05:45Z</time>
      </trkpt>
      <trkpt lat="37.4629760" lon="-4.3546310">
        <ele>773.8</ele>
        <time>2020-07-17T11:05:49Z</time>
      </trkpt>
      <trkpt lat="37.4629780" lon="-4.3546830">
        <ele>774.0</ele>
        <time>2020-07-17T11:05:50Z</time>
      </trkpt>
      <trkpt lat="37.4629950" lon="-4.3550380">
        <ele>775.2</ele>
        <time>2020-07-17T11:05:57Z</time>
      </trkpt>
      <trkpt lat="37.4629980" lon="-4.3550900">
        <ele>775.2</ele>
        <time>2020-07-17T11:05:58Z</time>
      </trkpt>
      <trkpt lat="37.4630030" lon="-4.3553590">
        <ele>775.2</ele>
        <time>2020-07-17T11:06:03Z</time>
      </trkpt>
      <trkpt lat="37.4630000" lon="-4.3555840">
        <ele>775.4</ele>
        <time>2020-07-17T11:06:07Z</time>
      </trkpt>
      <trkpt lat="37.4629970" lon="-4.3558800">
        <ele>775.8</ele>
        <time>2020-07-17T11:06:12Z</time>
      </trkpt>
      <trkpt lat="37.4629890" lon="-4.3561320">
        <ele>775.6</ele>
        <time>2020-07-17T11:06:16Z</time>
      </trkpt>
      <trkpt lat="37.4629860" lon="-4.3561970">
        <ele>775.6</ele>
        <time>2020-07-17T11:06:17Z</time>
      </trkpt>
      <trkpt lat="37.4629670" lon="-4.3566500">
        <ele>774.8</ele>
        <time>2020-07-17T11:06:23Z</time>
      </trkpt>
      <trkpt lat="37.4629540" lon="-4.3569100">
        <ele>774.0</ele>
        <time>2020-07-17T11:06:26Z</time>
      </trkpt>
      <trkpt lat="37.4629420" lon="-4.3571020">
        <ele>773.8</ele>
        <time>2020-07-17T11:06:28Z</time>
      </trkpt>
      <trkpt lat="37.4629280" lon="-4.3573050">
        <ele>773.4</ele>
        <time>2020-07-17T11:06:30Z</time>
      </trkpt>
      <trkpt lat="37.4629220" lon="-4.3574040">
        <ele>773.2</ele>
        <time>2020-07-17T11:06:31Z</time>
      </trkpt>
      <trkpt lat="37.4629140" lon="-4.3575200">
        <ele>772.8</ele>
        <time>2020-07-17T11:06:32Z</time>
      </trkpt>
      <trkpt lat="37.4628870" lon="-4.3578500">
        <ele>771.8</ele>
        <time>2020-07-17T11:06:35Z</time>
      </trkpt>
      <trkpt lat="37.4628640" lon="-4.3580930">
        <ele>770.8</ele>
        <time>2020-07-17T11:06:37Z</time>
      </trkpt>
      <trkpt lat="37.4628390" lon="-4.3583350">
        <ele>769.8</ele>
        <time>2020-07-17T11:06:39Z</time>
      </trkpt>
      <trkpt lat="37.4628250" lon="-4.3584580">
        <ele>769.4</ele>
        <time>2020-07-17T11:06:40Z</time>
      </trkpt>
      <trkpt lat="37.4627730" lon="-4.3588350">
        <ele>768.4</ele>
        <time>2020-07-17T11:06:43Z</time>
      </trkpt>
      <trkpt lat="37.4627360" lon="-4.3590930">
        <ele>767.4</ele>
        <time>2020-07-17T11:06:45Z</time>
      </trkpt>
      <trkpt lat="37.4627180" lon="-4.3592140">
        <ele>767.2</ele>
        <time>2020-07-17T11:06:46Z</time>
      </trkpt>
      <trkpt lat="37.4626320" lon="-4.3597550">
        <ele>765.8</ele>
        <time>2020-07-17T11:06:50Z</time>
      </trkpt>
      <trkpt lat="37.4626100" lon="-4.3598820">
        <ele>765.4</ele>
        <time>2020-07-17T11:06:51Z</time>
      </trkpt>
      <trkpt lat="37.4625640" lon="-4.3601540">
        <ele>764.6</ele>
        <time>2020-07-17T11:06:53Z</time>
      </trkpt>
      <trkpt lat="37.4625140" lon="-4.3604360">
        <ele>763.4</ele>
        <time>2020-07-17T11:06:55Z</time>
      </trkpt>
      <trkpt lat="37.4624670" lon="-4.3607110">
        <ele>762.0</ele>
        <time>2020-07-17T11:06:57Z</time>
      </trkpt>
      <trkpt lat="37.4624200" lon="-4.3609810">
        <ele>760.8</ele>
        <time>2020-07-17T11:06:59Z</time>
      </trkpt>
      <trkpt lat="37.4623720" lon="-4.3612600">
        <ele>759.4</ele>
        <time>2020-07-17T11:07:01Z</time>
      </trkpt>
      <trkpt lat="37.4623460" lon="-4.3614090">
        <ele>758.8</ele>
        <time>2020-07-17T11:07:02Z</time>
      </trkpt>
      <trkpt lat="37.4623200" lon="-4.3615480">
        <ele>758.4</ele>
        <time>2020-07-17T11:07:03Z</time>
      </trkpt>
      <trkpt lat="37.4622480" lon="-4.3619640">
        <ele>757.2</ele>
        <time>2020-07-17T11:07:06Z</time>
      </trkpt>
      <trkpt lat="37.4622220" lon="-4.3621150">
        <ele>756.6</ele>
        <time>2020-07-17T11:07:07Z</time>
      </trkpt>
      <trkpt lat="37.4621720" lon="-4.3623980">
        <ele>755.8</ele>
        <time>2020-07-17T11:07:09Z</time>
      </trkpt>
      <trkpt lat="37.4620920" lon="-4.3628410">
        <ele>754.6</ele>
        <time>2020-07-17T11:07:12Z</time>
      </trkpt>
      <trkpt lat="37.4620140" lon="-4.3632890">
        <ele>753.4</ele>
        <time>2020-07-17T11:07:15Z</time>
      </trkpt>
      <trkpt lat="37.4619630" lon="-4.3635760">
        <ele>752.2</ele>
        <time>2020-07-17T11:07:17Z</time>
      </trkpt>
      <trkpt lat="37.4619350" lon="-4.3637380">
        <ele>751.6</ele>
        <time>2020-07-17T11:07:18Z</time>
      </trkpt>
      <trkpt lat="37.4619090" lon="-4.3638890">
        <ele>750.8</ele>
        <time>2020-07-17T11:07:19Z</time>
      </trkpt>
      <trkpt lat="37.4618580" lon="-4.3641900">
        <ele>749.2</ele>
        <time>2020-07-17T11:07:21Z</time>
      </trkpt>
      <trkpt lat="37.4618040" lon="-4.3644950">
        <ele>747.8</ele>
        <time>2020-07-17T11:07:23Z</time>
      </trkpt>
      <trkpt lat="37.4617760" lon="-4.3646540">
        <ele>747.4</ele>
        <time>2020-07-17T11:07:24Z</time>
      </trkpt>
      <trkpt lat="37.4617480" lon="-4.3648130">
        <ele>746.6</ele>
        <time>2020-07-17T11:07:25Z</time>
      </trkpt>
      <trkpt lat="37.4616950" lon="-4.3651230">
        <ele>745.6</ele>
        <time>2020-07-17T11:07:27Z</time>
      </trkpt>
      <trkpt lat="37.4616440" lon="-4.3654180">
        <ele>744.4</ele>
        <time>2020-07-17T11:07:29Z</time>
      </trkpt>
      <trkpt lat="37.4615880" lon="-4.3657350">
        <ele>743.2</ele>
        <time>2020-07-17T11:07:31Z</time>
      </trkpt>
      <trkpt lat="37.4615050" lon="-4.3661990">
        <ele>742.0</ele>
        <time>2020-07-17T11:07:34Z</time>
      </trkpt>
      <trkpt lat="37.4614230" lon="-4.3666660">
        <ele>740.8</ele>
        <time>2020-07-17T11:07:37Z</time>
      </trkpt>
      <trkpt lat="37.4613710" lon="-4.3669750">
        <ele>739.4</ele>
        <time>2020-07-17T11:07:39Z</time>
      </trkpt>
      <trkpt lat="37.4613450" lon="-4.3671300">
        <ele>738.6</ele>
        <time>2020-07-17T11:07:40Z</time>
      </trkpt>
      <trkpt lat="37.4613200" lon="-4.3672820">
        <ele>738.0</ele>
        <time>2020-07-17T11:07:41Z</time>
      </trkpt>
      <trkpt lat="37.4612970" lon="-4.3674330">
        <ele>736.6</ele>
        <time>2020-07-17T11:07:42Z</time>
      </trkpt>
      <trkpt lat="37.4612550" lon="-4.3677310">
        <ele>735.0</ele>
        <time>2020-07-17T11:07:44Z</time>
      </trkpt>
      <trkpt lat="37.4612230" lon="-4.3680110">
        <ele>734.0</ele>
        <time>2020-07-17T11:07:46Z</time>
      </trkpt>
      <trkpt lat="37.4612090" lon="-4.3681540">
        <ele>733.8</ele>
        <time>2020-07-17T11:07:47Z</time>
      </trkpt>
      <trkpt lat="37.4611990" lon="-4.3684510">
        <ele>732.8</ele>
        <time>2020-07-17T11:07:49Z</time>
      </trkpt>
      <trkpt lat="37.4611950" lon="-4.3687350">
        <ele>731.4</ele>
        <time>2020-07-17T11:07:51Z</time>
      </trkpt>
      <trkpt lat="37.4611980" lon="-4.3688900">
        <ele>730.8</ele>
        <time>2020-07-17T11:07:52Z</time>
      </trkpt>
      <trkpt lat="37.4612030" lon="-4.3690280">
        <ele>730.4</ele>
        <time>2020-07-17T11:07:53Z</time>
      </trkpt>
      <trkpt lat="37.4612260" lon="-4.3693400">
        <ele>729.2</ele>
        <time>2020-07-17T11:07:55Z</time>
      </trkpt>
      <trkpt lat="37.4612630" lon="-4.3696440">
        <ele>728.0</ele>
        <time>2020-07-17T11:07:57Z</time>
      </trkpt>
      <trkpt lat="37.4613100" lon="-4.3699350">
        <ele>726.8</ele>
        <time>2020-07-17T11:07:59Z</time>
      </trkpt>
      <trkpt lat="37.4613420" lon="-4.3701040">
        <ele>725.8</ele>
        <time>2020-07-17T11:08:00Z</time>
      </trkpt>
      <trkpt lat="37.4614060" lon="-4.3704120">
        <ele>724.0</ele>
        <time>2020-07-17T11:08:02Z</time>
      </trkpt>
      <trkpt lat="37.4614410" lon="-4.3705650">
        <ele>723.2</ele>
        <time>2020-07-17T11:08:03Z</time>
      </trkpt>
      <trkpt lat="37.4614770" lon="-4.3707170">
        <ele>722.6</ele>
        <time>2020-07-17T11:08:04Z</time>
      </trkpt>
      <trkpt lat="37.4615460" lon="-4.3710210">
        <ele>721.0</ele>
        <time>2020-07-17T11:08:06Z</time>
      </trkpt>
      <trkpt lat="37.4616180" lon="-4.3713380">
        <ele>719.6</ele>
        <time>2020-07-17T11:08:08Z</time>
      </trkpt>
      <trkpt lat="37.4616840" lon="-4.3716410">
        <ele>718.2</ele>
        <time>2020-07-17T11:08:10Z</time>
      </trkpt>
      <trkpt lat="37.4617470" lon="-4.3719400">
        <ele>717.6</ele>
        <time>2020-07-17T11:08:12Z</time>
      </trkpt>
      <trkpt lat="37.4617780" lon="-4.3720870">
        <ele>717.0</ele>
        <time>2020-07-17T11:08:13Z</time>
      </trkpt>
      <trkpt lat="37.4618580" lon="-4.3725140">
        <ele>716.0</ele>
        <time>2020-07-17T11:08:16Z</time>
      </trkpt>
      <trkpt lat="37.4619020" lon="-4.3728250">
        <ele>714.6</ele>
        <time>2020-07-17T11:08:18Z</time>
      </trkpt>
      <trkpt lat="37.4619220" lon="-4.3729740">
        <ele>714.0</ele>
        <time>2020-07-17T11:08:19Z</time>
      </trkpt>
      <trkpt lat="37.4619420" lon="-4.3731260">
        <ele>713.4</ele>
        <time>2020-07-17T11:08:20Z</time>
      </trkpt>
      <trkpt lat="37.4619740" lon="-4.3734300">
        <ele>711.6</ele>
        <time>2020-07-17T11:08:22Z</time>
      </trkpt>
      <trkpt lat="37.4619980" lon="-4.3737250">
        <ele>710.4</ele>
        <time>2020-07-17T11:08:24Z</time>
      </trkpt>
      <trkpt lat="37.4620190" lon="-4.3740450">
        <ele>708.8</ele>
        <time>2020-07-17T11:08:26Z</time>
      </trkpt>
      <trkpt lat="37.4620300" lon="-4.3742070">
        <ele>708.0</ele>
        <time>2020-07-17T11:08:27Z</time>
      </trkpt>
      <trkpt lat="37.4620390" lon="-4.3743640">
        <ele>706.6</ele>
        <time>2020-07-17T11:08:28Z</time>
      </trkpt>
      <trkpt lat="37.4620560" lon="-4.3746840">
        <ele>705.2</ele>
        <time>2020-07-17T11:08:30Z</time>
      </trkpt>
      <trkpt lat="37.4620720" lon="-4.3750110">
        <ele>703.6</ele>
        <time>2020-07-17T11:08:32Z</time>
      </trkpt>
      <trkpt lat="37.4620860" lon="-4.3753310">
        <ele>702.2</ele>
        <time>2020-07-17T11:08:34Z</time>
      </trkpt>
      <trkpt lat="37.4621010" lon="-4.3756550">
        <ele>701.4</ele>
        <time>2020-07-17T11:08:36Z</time>
      </trkpt>
      <trkpt lat="37.4621110" lon="-4.3758320">
        <ele>700.8</ele>
        <time>2020-07-17T11:08:37Z</time>
      </trkpt>
      <trkpt lat="37.4621280" lon="-4.3761570">
        <ele>699.4</ele>
        <time>2020-07-17T11:08:39Z</time>
      </trkpt>
      <trkpt lat="37.4621430" lon="-4.3764660">
        <ele>698.2</ele>
        <time>2020-07-17T11:08:41Z</time>
      </trkpt>
      <trkpt lat="37.4621580" lon="-4.3768020">
        <ele>697.2</ele>
        <time>2020-07-17T11:08:43Z</time>
      </trkpt>
      <trkpt lat="37.4621720" lon="-4.3771100">
        <ele>696.0</ele>
        <time>2020-07-17T11:08:45Z</time>
      </trkpt>
      <trkpt lat="37.4621780" lon="-4.3772500">
        <ele>695.6</ele>
        <time>2020-07-17T11:08:46Z</time>
      </trkpt>
      <trkpt lat="37.4621920" lon="-4.3775410">
        <ele>694.6</ele>
        <time>2020-07-17T11:08:48Z</time>
      </trkpt>
      <trkpt lat="37.4622100" lon="-4.3779260">
        <ele>694.2</ele>
        <time>2020-07-17T11:08:51Z</time>
      </trkpt>
      <trkpt lat="37.4622270" lon="-4.3782990">
        <ele>693.6</ele>
        <time>2020-07-17T11:08:54Z</time>
      </trkpt>
      <trkpt lat="37.4622490" lon="-4.3787640">
        <ele>692.4</ele>
        <time>2020-07-17T11:08:58Z</time>
      </trkpt>
      <trkpt lat="37.4622530" lon="-4.3788690">
        <ele>692.4</ele>
        <time>2020-07-17T11:08:59Z</time>
      </trkpt>
      <trkpt lat="37.4622830" lon="-4.3795290">
        <ele>691.8</ele>
        <time>2020-07-17T11:09:05Z</time>
      </trkpt>
      <trkpt lat="37.4622940" lon="-4.3797510">
        <ele>691.2</ele>
        <time>2020-07-17T11:09:07Z</time>
      </trkpt>
      <trkpt lat="37.4623090" lon="-4.3800720">
        <ele>690.8</ele>
        <time>2020-07-17T11:09:10Z</time>
      </trkpt>
      <trkpt lat="37.4623400" lon="-4.3807050">
        <ele>690.2</ele>
        <time>2020-07-17T11:09:16Z</time>
      </trkpt>
      <trkpt lat="37.4623690" lon="-4.3812420">
        <ele>689.2</ele>
        <time>2020-07-17T11:09:21Z</time>
      </trkpt>
      <trkpt lat="37.4623770" lon="-4.3813580">
        <ele>689.0</ele>
        <time>2020-07-17T11:09:22Z</time>
      </trkpt>
      <trkpt lat="37.4624190" lon="-4.3820420">
        <ele>688.2</ele>
        <time>2020-07-17T11:09:28Z</time>
      </trkpt>
      <trkpt lat="37.4624230" lon="-4.3821500">
        <ele>687.8</ele>
        <time>2020-07-17T11:09:29Z</time>
      </trkpt>
      <trkpt lat="37.4624230" lon="-4.3825440">
        <ele>686.8</ele>
        <time>2020-07-17T11:09:32Z</time>
      </trkpt>
      <trkpt lat="37.4623840" lon="-4.3829370">
        <ele>685.2</ele>
        <time>2020-07-17T11:09:35Z</time>
      </trkpt>
      <trkpt lat="37.4623310" lon="-4.3832110">
        <ele>684.0</ele>
        <time>2020-07-17T11:09:37Z</time>
      </trkpt>
      <trkpt lat="37.4622510" lon="-4.3834970">
        <ele>682.8</ele>
        <time>2020-07-17T11:09:39Z</time>
      </trkpt>
      <trkpt lat="37.4621530" lon="-4.3837740">
        <ele>681.4</ele>
        <time>2020-07-17T11:09:41Z</time>
      </trkpt>
      <trkpt lat="37.4620290" lon="-4.3840870">
        <ele>679.6</ele>
        <time>2020-07-17T11:09:43Z</time>
      </trkpt>
      <trkpt lat="37.4619680" lon="-4.3842360">
        <ele>679.0</ele>
        <time>2020-07-17T11:09:44Z</time>
      </trkpt>
      <trkpt lat="37.4619040" lon="-4.3843930">
        <ele>678.4</ele>
        <time>2020-07-17T11:09:45Z</time>
      </trkpt>
      <trkpt lat="37.4617910" lon="-4.3846970">
        <ele>677.2</ele>
        <time>2020-07-17T11:09:47Z</time>
      </trkpt>
      <trkpt lat="37.4617000" lon="-4.3850270">
        <ele>675.0</ele>
        <time>2020-07-17T11:09:49Z</time>
      </trkpt>
      <trkpt lat="37.4616660" lon="-4.3852010">
        <ele>673.8</ele>
        <time>2020-07-17T11:09:50Z</time>
      </trkpt>
      <trkpt lat="37.4616440" lon="-4.3853620">
        <ele>672.6</ele>
        <time>2020-07-17T11:09:51Z</time>
      </trkpt>
      <trkpt lat="37.4616270" lon="-4.3855420">
        <ele>671.2</ele>
        <time>2020-07-17T11:09:52Z</time>
      </trkpt>
      <trkpt lat="37.4616190" lon="-4.3857120">
        <ele>670.0</ele>
        <time>2020-07-17T11:09:53Z</time>
      </trkpt>
      <trkpt lat="37.4616240" lon="-4.3860640">
        <ele>668.2</ele>
        <time>2020-07-17T11:09:55Z</time>
      </trkpt>
      <trkpt lat="37.4616330" lon="-4.3862240">
        <ele>667.2</ele>
        <time>2020-07-17T11:09:56Z</time>
      </trkpt>
      <trkpt lat="37.4616440" lon="-4.3864070">
        <ele>666.0</ele>
        <time>2020-07-17T11:09:57Z</time>
      </trkpt>
      <trkpt lat="37.4616540" lon="-4.3865760">
        <ele>665.0</ele>
        <time>2020-07-17T11:09:58Z</time>
      </trkpt>
      <trkpt lat="37.4616640" lon="-4.3867420">
        <ele>664.2</ele>
        <time>2020-07-17T11:09:59Z</time>
      </trkpt>
      <trkpt lat="37.4616840" lon="-4.3870780">
        <ele>662.6</ele>
        <time>2020-07-17T11:10:01Z</time>
      </trkpt>
      <trkpt lat="37.4617030" lon="-4.3874320">
        <ele>660.8</ele>
        <time>2020-07-17T11:10:03Z</time>
      </trkpt>
      <trkpt lat="37.4617240" lon="-4.3877620">
        <ele>658.8</ele>
        <time>2020-07-17T11:10:05Z</time>
      </trkpt>
      <trkpt lat="37.4617460" lon="-4.3881060">
        <ele>656.8</ele>
        <time>2020-07-17T11:10:07Z</time>
      </trkpt>
      <trkpt lat="37.4617560" lon="-4.3882830">
        <ele>655.8</ele>
        <time>2020-07-17T11:10:08Z</time>
      </trkpt>
      <trkpt lat="37.4617670" lon="-4.3884470">
        <ele>654.6</ele>
        <time>2020-07-17T11:10:09Z</time>
      </trkpt>
      <trkpt lat="37.4617750" lon="-4.3886210">
        <ele>653.4</ele>
        <time>2020-07-17T11:10:10Z</time>
      </trkpt>
      <trkpt lat="37.4617810" lon="-4.3889720">
        <ele>651.8</ele>
        <time>2020-07-17T11:10:12Z</time>
      </trkpt>
      <trkpt lat="37.4617610" lon="-4.3892960">
        <ele>650.4</ele>
        <time>2020-07-17T11:10:14Z</time>
      </trkpt>
      <trkpt lat="37.4617090" lon="-4.3896220">
        <ele>648.8</ele>
        <time>2020-07-17T11:10:16Z</time>
      </trkpt>
      <trkpt lat="37.4616290" lon="-4.3899220">
        <ele>646.6</ele>
        <time>2020-07-17T11:10:18Z</time>
      </trkpt>
      <trkpt lat="37.4615800" lon="-4.3900720">
        <ele>645.4</ele>
        <time>2020-07-17T11:10:19Z</time>
      </trkpt>
      <trkpt lat="37.4614650" lon="-4.3903580">
        <ele>644.0</ele>
        <time>2020-07-17T11:10:21Z</time>
      </trkpt>
      <trkpt lat="37.4613960" lon="-4.3905110">
        <ele>643.0</ele>
        <time>2020-07-17T11:10:22Z</time>
      </trkpt>
      <trkpt lat="37.4613300" lon="-4.3906510">
        <ele>642.4</ele>
        <time>2020-07-17T11:10:23Z</time>
      </trkpt>
      <trkpt lat="37.4612610" lon="-4.3907940">
        <ele>641.8</ele>
        <time>2020-07-17T11:10:24Z</time>
      </trkpt>
      <trkpt lat="37.4611880" lon="-4.3909430">
        <ele>641.0</ele>
        <time>2020-07-17T11:10:25Z</time>
      </trkpt>
      <trkpt lat="37.4610440" lon="-4.3912300">
        <ele>639.4</ele>
        <time>2020-07-17T11:10:27Z</time>
      </trkpt>
      <trkpt lat="37.4609060" lon="-4.3915050">
        <ele>637.8</ele>
        <time>2020-07-17T11:10:29Z</time>
      </trkpt>
      <trkpt lat="37.4608310" lon="-4.3916550">
        <ele>636.8</ele>
        <time>2020-07-17T11:10:30Z</time>
      </trkpt>
      <trkpt lat="37.4607660" lon="-4.3917870">
        <ele>636.6</ele>
        <time>2020-07-17T11:10:31Z</time>
      </trkpt>
      <trkpt lat="37.4606190" lon="-4.3920790">
        <ele>635.2</ele>
        <time>2020-07-17T11:10:33Z</time>
      </trkpt>
      <trkpt lat="37.4604780" lon="-4.3923610">
        <ele>633.8</ele>
        <time>2020-07-17T11:10:35Z</time>
      </trkpt>
      <trkpt lat="37.4603380" lon="-4.3926440">
        <ele>631.8</ele>
        <time>2020-07-17T11:10:37Z</time>
      </trkpt>
      <trkpt lat="37.4602010" lon="-4.3929210">
        <ele>629.8</ele>
        <time>2020-07-17T11:10:39Z</time>
      </trkpt>
      <trkpt lat="37.4601280" lon="-4.3930670">
        <ele>628.8</ele>
        <time>2020-07-17T11:10:40Z</time>
      </trkpt>
      <trkpt lat="37.4599850" lon="-4.3933560">
        <ele>627.0</ele>
        <time>2020-07-17T11:10:42Z</time>
      </trkpt>
      <trkpt lat="37.4598490" lon="-4.3936410">
        <ele>625.4</ele>
        <time>2020-07-17T11:10:44Z</time>
      </trkpt>
      <trkpt lat="37.4597270" lon="-4.3939280">
        <ele>624.4</ele>
        <time>2020-07-17T11:10:46Z</time>
      </trkpt>
      <trkpt lat="37.4596670" lon="-4.3940800">
        <ele>623.6</ele>
        <time>2020-07-17T11:10:47Z</time>
      </trkpt>
      <trkpt lat="37.4596100" lon="-4.3942390">
        <ele>622.8</ele>
        <time>2020-07-17T11:10:48Z</time>
      </trkpt>
      <trkpt lat="37.4595170" lon="-4.3945540">
        <ele>621.4</ele>
        <time>2020-07-17T11:10:50Z</time>
      </trkpt>
      <trkpt lat="37.4594810" lon="-4.3947030">
        <ele>620.6</ele>
        <time>2020-07-17T11:10:51Z</time>
      </trkpt>
      <trkpt lat="37.4594460" lon="-4.3948770">
        <ele>620.0</ele>
        <time>2020-07-17T11:10:52Z</time>
      </trkpt>
      <trkpt lat="37.4593970" lon="-4.3952000">
        <ele>618.8</ele>
        <time>2020-07-17T11:10:54Z</time>
      </trkpt>
      <trkpt lat="37.4593820" lon="-4.3953690">
        <ele>618.2</ele>
        <time>2020-07-17T11:10:55Z</time>
      </trkpt>
      <trkpt lat="37.4593730" lon="-4.3955240">
        <ele>617.6</ele>
        <time>2020-07-17T11:10:56Z</time>
      </trkpt>
      <trkpt lat="37.4593700" lon="-4.3958590">
        <ele>615.8</ele>
        <time>2020-07-17T11:10:58Z</time>
      </trkpt>
      <trkpt lat="37.4593780" lon="-4.3962040">
        <ele>614.2</ele>
        <time>2020-07-17T11:11:00Z</time>
      </trkpt>
      <trkpt lat="37.4593930" lon="-4.3965480">
        <ele>612.6</ele>
        <time>2020-07-17T11:11:02Z</time>
      </trkpt>
      <trkpt lat="37.4594030" lon="-4.3967210">
        <ele>611.6</ele>
        <time>2020-07-17T11:11:03Z</time>
      </trkpt>
      <trkpt lat="37.4594100" lon="-4.3968920">
        <ele>611.4</ele>
        <time>2020-07-17T11:11:04Z</time>
      </trkpt>
      <trkpt lat="37.4594120" lon="-4.3972180">
        <ele>610.2</ele>
        <time>2020-07-17T11:11:06Z</time>
      </trkpt>
      <trkpt lat="37.4593980" lon="-4.3973980">
        <ele>609.2</ele>
        <time>2020-07-17T11:11:07Z</time>
      </trkpt>
      <trkpt lat="37.4593770" lon="-4.3975680">
        <ele>608.2</ele>
        <time>2020-07-17T11:11:08Z</time>
      </trkpt>
      <trkpt lat="37.4593500" lon="-4.3977340">
        <ele>606.8</ele>
        <time>2020-07-17T11:11:09Z</time>
      </trkpt>
      <trkpt lat="37.4592940" lon="-4.3979940">
        <ele>606.0</ele>
        <time>2020-07-17T11:11:11Z</time>
      </trkpt>
      <trkpt lat="37.4592250" lon="-4.3982200">
        <ele>605.4</ele>
        <time>2020-07-17T11:11:12Z</time>
      </trkpt>
      <trkpt lat="37.4591040" lon="-4.3985230">
        <ele>604.0</ele>
        <time>2020-07-17T11:11:14Z</time>
      </trkpt>
      <trkpt lat="37.4589530" lon="-4.3988060">
        <ele>602.2</ele>
        <time>2020-07-17T11:11:16Z</time>
      </trkpt>
      <trkpt lat="37.4588700" lon="-4.3989450">
        <ele>601.4</ele>
        <time>2020-07-17T11:11:17Z</time>
      </trkpt>
      <trkpt lat="37.4587660" lon="-4.3990790">
        <ele>600.0</ele>
        <time>2020-07-17T11:11:18Z</time>
      </trkpt>
      <trkpt lat="37.4586680" lon="-4.3992010">
        <ele>598.6</ele>
        <time>2020-07-17T11:11:19Z</time>
      </trkpt>
      <trkpt lat="37.4585680" lon="-4.3993180">
        <ele>597.2</ele>
        <time>2020-07-17T11:11:20Z</time>
      </trkpt>
      <trkpt lat="37.4584760" lon="-4.3994270">
        <ele>595.8</ele>
        <time>2020-07-17T11:11:21Z</time>
      </trkpt>
      <trkpt lat="37.4583710" lon="-4.3995480">
        <ele>594.8</ele>
        <time>2020-07-17T11:11:22Z</time>
      </trkpt>
      <trkpt lat="37.4582720" lon="-4.3996620">
        <ele>593.6</ele>
        <time>2020-07-17T11:11:23Z</time>
      </trkpt>
      <trkpt lat="37.4581640" lon="-4.3997820">
        <ele>592.4</ele>
        <time>2020-07-17T11:11:24Z</time>
      </trkpt>
      <trkpt lat="37.4580580" lon="-4.3999010">
        <ele>591.4</ele>
        <time>2020-07-17T11:11:25Z</time>
      </trkpt>
      <trkpt lat="37.4579620" lon="-4.4000090">
        <ele>590.4</ele>
        <time>2020-07-17T11:11:26Z</time>
      </trkpt>
      <trkpt lat="37.4577660" lon="-4.4002330">
        <ele>588.8</ele>
        <time>2020-07-17T11:11:29Z</time>
      </trkpt>
      <trkpt lat="37.4574980" lon="-4.4005350">
        <ele>587.4</ele>
        <time>2020-07-17T11:11:31Z</time>
      </trkpt>
      <trkpt lat="37.4574030" lon="-4.4006430">
        <ele>586.2</ele>
        <time>2020-07-17T11:11:32Z</time>
      </trkpt>
      <trkpt lat="37.4572930" lon="-4.4007670">
        <ele>585.0</ele>
        <time>2020-07-17T11:11:33Z</time>
      </trkpt>
      <trkpt lat="37.4571880" lon="-4.4008860">
        <ele>583.8</ele>
        <time>2020-07-17T11:11:34Z</time>
      </trkpt>
      <trkpt lat="37.4570930" lon="-4.4009950">
        <ele>583.2</ele>
        <time>2020-07-17T11:11:35Z</time>
      </trkpt>
      <trkpt lat="37.4569950" lon="-4.4011130">
        <ele>582.0</ele>
        <time>2020-07-17T11:11:36Z</time>
      </trkpt>
      <trkpt lat="37.4569010" lon="-4.4012370">
        <ele>580.8</ele>
        <time>2020-07-17T11:11:37Z</time>
      </trkpt>
      <trkpt lat="37.4568030" lon="-4.4013810">
        <ele>580.0</ele>
        <time>2020-07-17T11:11:38Z</time>
      </trkpt>
      <trkpt lat="37.4567210" lon="-4.4015200">
        <ele>579.2</ele>
        <time>2020-07-17T11:11:39Z</time>
      </trkpt>
      <trkpt lat="37.4565770" lon="-4.4018150">
        <ele>577.4</ele>
        <time>2020-07-17T11:11:41Z</time>
      </trkpt>
      <trkpt lat="37.4564700" lon="-4.4021170">
        <ele>576.0</ele>
        <time>2020-07-17T11:11:43Z</time>
      </trkpt>
      <trkpt lat="37.4564280" lon="-4.4022710">
        <ele>575.0</ele>
        <time>2020-07-17T11:11:44Z</time>
      </trkpt>
      <trkpt lat="37.4563940" lon="-4.4024310">
        <ele>573.8</ele>
        <time>2020-07-17T11:11:45Z</time>
      </trkpt>
      <trkpt lat="37.4563490" lon="-4.4027480">
        <ele>572.2</ele>
        <time>2020-07-17T11:11:47Z</time>
      </trkpt>
      <trkpt lat="37.4563350" lon="-4.4029250">
        <ele>571.0</ele>
        <time>2020-07-17T11:11:48Z</time>
      </trkpt>
      <trkpt lat="37.4563310" lon="-4.4030960">
        <ele>570.0</ele>
        <time>2020-07-17T11:11:49Z</time>
      </trkpt>
      <trkpt lat="37.4563440" lon="-4.4034320">
        <ele>568.4</ele>
        <time>2020-07-17T11:11:51Z</time>
      </trkpt>
      <trkpt lat="37.4563720" lon="-4.4037660">
        <ele>567.2</ele>
        <time>2020-07-17T11:11:53Z</time>
      </trkpt>
      <trkpt lat="37.4564040" lon="-4.4040760">
        <ele>565.8</ele>
        <time>2020-07-17T11:11:55Z</time>
      </trkpt>
      <trkpt lat="37.4564180" lon="-4.4042440">
        <ele>565.4</ele>
        <time>2020-07-17T11:11:56Z</time>
      </trkpt>
      <trkpt lat="37.4564280" lon="-4.4043960">
        <ele>564.6</ele>
        <time>2020-07-17T11:11:57Z</time>
      </trkpt>
      <trkpt lat="37.4564440" lon="-4.4047210">
        <ele>563.4</ele>
        <time>2020-07-17T11:11:59Z</time>
      </trkpt>
      <trkpt lat="37.4564410" lon="-4.4048720">
        <ele>562.8</ele>
        <time>2020-07-17T11:12:00Z</time>
      </trkpt>
      <trkpt lat="37.4564340" lon="-4.4050350">
        <ele>562.2</ele>
        <time>2020-07-17T11:12:01Z</time>
      </trkpt>
      <trkpt lat="37.4563890" lon="-4.4054930">
        <ele>561.0</ele>
        <time>2020-07-17T11:12:04Z</time>
      </trkpt>
      <trkpt lat="37.4563720" lon="-4.4056400">
        <ele>560.8</ele>
        <time>2020-07-17T11:12:05Z</time>
      </trkpt>
      <trkpt lat="37.4563420" lon="-4.4059320">
        <ele>559.8</ele>
        <time>2020-07-17T11:12:07Z</time>
      </trkpt>
      <trkpt lat="37.4563250" lon="-4.4060910">
        <ele>559.2</ele>
        <time>2020-07-17T11:12:08Z</time>
      </trkpt>
      <trkpt lat="37.4563150" lon="-4.4063820">
        <ele>558.2</ele>
        <time>2020-07-17T11:12:10Z</time>
      </trkpt>
      <trkpt lat="37.4563240" lon="-4.4066760">
        <ele>557.6</ele>
        <time>2020-07-17T11:12:12Z</time>
      </trkpt>
      <trkpt lat="37.4563380" lon="-4.4068370">
        <ele>557.0</ele>
        <time>2020-07-17T11:12:13Z</time>
      </trkpt>
      <trkpt lat="37.4563800" lon="-4.4071280">
        <ele>556.2</ele>
        <time>2020-07-17T11:12:15Z</time>
      </trkpt>
      <trkpt lat="37.4564070" lon="-4.4072680">
        <ele>555.6</ele>
        <time>2020-07-17T11:12:16Z</time>
      </trkpt>
      <trkpt lat="37.4564290" lon="-4.4073740">
        <ele>555.4</ele>
        <time>2020-07-17T11:12:17Z</time>
      </trkpt>
      <trkpt lat="37.4565340" lon="-4.4078250">
        <ele>554.4</ele>
        <time>2020-07-17T11:12:20Z</time>
      </trkpt>
      <trkpt lat="37.4566450" lon="-4.4083670">
        <ele>553.4</ele>
        <time>2020-07-17T11:12:24Z</time>
      </trkpt>
      <trkpt lat="37.4567030" lon="-4.4087730">
        <ele>552.4</ele>
        <time>2020-07-17T11:12:27Z</time>
      </trkpt>
      <trkpt lat="37.4567430" lon="-4.4091950">
        <ele>551.4</ele>
        <time>2020-07-17T11:12:30Z</time>
      </trkpt>
      <trkpt lat="37.4567460" lon="-4.4093270">
        <ele>551.2</ele>
        <time>2020-07-17T11:12:31Z</time>
      </trkpt>
      <trkpt lat="37.4567370" lon="-4.4097780">
        <ele>550.2</ele>
        <time>2020-07-17T11:12:34Z</time>
      </trkpt>
      <trkpt lat="37.4567250" lon="-4.4099170">
        <ele>549.8</ele>
        <time>2020-07-17T11:12:35Z</time>
      </trkpt>
      <trkpt lat="37.4566850" lon="-4.4102110">
        <ele>548.8</ele>
        <time>2020-07-17T11:12:37Z</time>
      </trkpt>
      <trkpt lat="37.4566110" lon="-4.4105080">
        <ele>548.0</ele>
        <time>2020-07-17T11:12:39Z</time>
      </trkpt>
      <trkpt lat="37.4565690" lon="-4.4106460">
        <ele>547.6</ele>
        <time>2020-07-17T11:12:40Z</time>
      </trkpt>
      <trkpt lat="37.4564720" lon="-4.4109060">
        <ele>546.2</ele>
        <time>2020-07-17T11:12:42Z</time>
      </trkpt>
      <trkpt lat="37.4563460" lon="-4.4111700">
        <ele>545.0</ele>
        <time>2020-07-17T11:12:44Z</time>
      </trkpt>
      <trkpt lat="37.4561950" lon="-4.4114180">
        <ele>543.2</ele>
        <time>2020-07-17T11:12:46Z</time>
      </trkpt>
      <trkpt lat="37.4560480" lon="-4.4116130">
        <ele>542.0</ele>
        <time>2020-07-17T11:12:48Z</time>
      </trkpt>
      <trkpt lat="37.4558430" lon="-4.4118610">
        <ele>540.4</ele>
        <time>2020-07-17T11:12:50Z</time>
      </trkpt>
      <trkpt lat="37.4556660" lon="-4.4120640">
        <ele>539.0</ele>
        <time>2020-07-17T11:12:52Z</time>
      </trkpt>
      <trkpt lat="37.4554760" lon="-4.4122890">
        <ele>537.2</ele>
        <time>2020-07-17T11:12:54Z</time>
      </trkpt>
      <trkpt lat="37.4553890" lon="-4.4124060">
        <ele>536.6</ele>
        <time>2020-07-17T11:12:55Z</time>
      </trkpt>
      <trkpt lat="37.4553030" lon="-4.4125380">
        <ele>535.8</ele>
        <time>2020-07-17T11:12:56Z</time>
      </trkpt>
      <trkpt lat="37.4551530" lon="-4.4128040">
        <ele>534.6</ele>
        <time>2020-07-17T11:12:58Z</time>
      </trkpt>
      <trkpt lat="37.4550890" lon="-4.4129420">
        <ele>534.0</ele>
        <time>2020-07-17T11:12:59Z</time>
      </trkpt>
      <trkpt lat="37.4550340" lon="-4.4130810">
        <ele>533.2</ele>
        <time>2020-07-17T11:13:00Z</time>
      </trkpt>
      <trkpt lat="37.4549450" lon="-4.4133640">
        <ele>531.6</ele>
        <time>2020-07-17T11:13:02Z</time>
      </trkpt>
      <trkpt lat="37.4549070" lon="-4.4135190">
        <ele>531.2</ele>
        <time>2020-07-17T11:13:03Z</time>
      </trkpt>
      <trkpt lat="37.4548790" lon="-4.4136630">
        <ele>530.6</ele>
        <time>2020-07-17T11:13:04Z</time>
      </trkpt>
      <trkpt lat="37.4548420" lon="-4.4139480">
        <ele>529.2</ele>
        <time>2020-07-17T11:13:06Z</time>
      </trkpt>
      <trkpt lat="37.4548330" lon="-4.4140810">
        <ele>528.6</ele>
        <time>2020-07-17T11:13:07Z</time>
      </trkpt>
      <trkpt lat="37.4548270" lon="-4.4142340">
        <ele>527.8</ele>
        <time>2020-07-17T11:13:08Z</time>
      </trkpt>
      <trkpt lat="37.4548300" lon="-4.4145090">
        <ele>526.4</ele>
        <time>2020-07-17T11:13:10Z</time>
      </trkpt>
      <trkpt lat="37.4548410" lon="-4.4147640">
        <ele>526.0</ele>
        <time>2020-07-17T11:13:12Z</time>
      </trkpt>
      <trkpt lat="37.4548520" lon="-4.4150430">
        <ele>525.4</ele>
        <time>2020-07-17T11:13:14Z</time>
      </trkpt>
      <trkpt lat="37.4548550" lon="-4.4151640">
        <ele>525.2</ele>
        <time>2020-07-17T11:13:15Z</time>
      </trkpt>
      <trkpt lat="37.4548580" lon="-4.4152980">
        <ele>525.2</ele>
        <time>2020-07-17T11:13:16Z</time>
      </trkpt>
      <trkpt lat="37.4548440" lon="-4.4156740">
        <ele>524.6</ele>
        <time>2020-07-17T11:13:19Z</time>
      </trkpt>
      <trkpt lat="37.4548330" lon="-4.4157980">
        <ele>524.2</ele>
        <time>2020-07-17T11:13:20Z</time>
      </trkpt>
      <trkpt lat="37.4547990" lon="-4.4160400">
        <ele>523.6</ele>
        <time>2020-07-17T11:13:22Z</time>
      </trkpt>
      <trkpt lat="37.4547620" lon="-4.4162870">
        <ele>523.2</ele>
        <time>2020-07-17T11:13:24Z</time>
      </trkpt>
      <trkpt lat="37.4547400" lon="-4.4164150">
        <ele>523.0</ele>
        <time>2020-07-17T11:13:25Z</time>
      </trkpt>
      <trkpt lat="37.4546990" lon="-4.4166470">
        <ele>522.2</ele>
        <time>2020-07-17T11:13:27Z</time>
      </trkpt>
      <trkpt lat="37.4546420" lon="-4.4170100">
        <ele>521.0</ele>
        <time>2020-07-17T11:13:30Z</time>
      </trkpt>
      <trkpt lat="37.4546090" lon="-4.4173930">
        <ele>520.2</ele>
        <time>2020-07-17T11:13:33Z</time>
      </trkpt>
      <trkpt lat="37.4546090" lon="-4.4175180">
        <ele>519.8</ele>
        <time>2020-07-17T11:13:34Z</time>
      </trkpt>
      <trkpt lat="37.4546650" lon="-4.4180360">
        <ele>518.2</ele>
        <time>2020-07-17T11:13:38Z</time>
      </trkpt>
      <trkpt lat="37.4547280" lon="-4.4182850">
        <ele>517.6</ele>
        <time>2020-07-17T11:13:40Z</time>
      </trkpt>
      <trkpt lat="37.4548180" lon="-4.4185260">
        <ele>516.8</ele>
        <time>2020-07-17T11:13:42Z</time>
      </trkpt>
      <trkpt lat="37.4549360" lon="-4.4187700">
        <ele>515.8</ele>
        <time>2020-07-17T11:13:44Z</time>
      </trkpt>
      <trkpt lat="37.4550730" lon="-4.4189900">
        <ele>514.4</ele>
        <time>2020-07-17T11:13:46Z</time>
      </trkpt>
      <trkpt lat="37.4552050" lon="-4.4191800">
        <ele>513.0</ele>
        <time>2020-07-17T11:13:48Z</time>
      </trkpt>
      <trkpt lat="37.4553760" lon="-4.4194210">
        <ele>511.4</ele>
        <time>2020-07-17T11:13:50Z</time>
      </trkpt>
      <trkpt lat="37.4555300" lon="-4.4196270">
        <ele>510.2</ele>
        <time>2020-07-17T11:13:52Z</time>
      </trkpt>
      <trkpt lat="37.4556870" lon="-4.4198420">
        <ele>508.8</ele>
        <time>2020-07-17T11:13:54Z</time>
      </trkpt>
      <trkpt lat="37.4558350" lon="-4.4200580">
        <ele>507.4</ele>
        <time>2020-07-17T11:13:56Z</time>
      </trkpt>
      <trkpt lat="37.4559800" lon="-4.4202770">
        <ele>506.2</ele>
        <time>2020-07-17T11:13:58Z</time>
      </trkpt>
      <trkpt lat="37.4561090" lon="-4.4204880">
        <ele>505.2</ele>
        <time>2020-07-17T11:14:00Z</time>
      </trkpt>
      <trkpt lat="37.4561770" lon="-4.4206100">
        <ele>504.8</ele>
        <time>2020-07-17T11:14:01Z</time>
      </trkpt>
      <trkpt lat="37.4563000" lon="-4.4208450">
        <ele>503.8</ele>
        <time>2020-07-17T11:14:03Z</time>
      </trkpt>
      <trkpt lat="37.4563570" lon="-4.4209660">
        <ele>503.4</ele>
        <time>2020-07-17T11:14:04Z</time>
      </trkpt>
      <trkpt lat="37.4564680" lon="-4.4212000">
        <ele>502.6</ele>
        <time>2020-07-17T11:14:06Z</time>
      </trkpt>
      <trkpt lat="37.4565190" lon="-4.4213190">
        <ele>502.2</ele>
        <time>2020-07-17T11:14:07Z</time>
      </trkpt>
      <trkpt lat="37.4566630" lon="-4.4216960">
        <ele>501.0</ele>
        <time>2020-07-17T11:14:10Z</time>
      </trkpt>
      <trkpt lat="37.4567380" lon="-4.4219220">
        <ele>500.4</ele>
        <time>2020-07-17T11:14:12Z</time>
      </trkpt>
      <trkpt lat="37.4568080" lon="-4.4221660">
        <ele>499.8</ele>
        <time>2020-07-17T11:14:14Z</time>
      </trkpt>
      <trkpt lat="37.4568390" lon="-4.4222800">
        <ele>499.8</ele>
        <time>2020-07-17T11:14:15Z</time>
      </trkpt>
      <trkpt lat="37.4569180" lon="-4.4225980">
        <ele>499.4</ele>
        <time>2020-07-17T11:14:18Z</time>
      </trkpt>
      <trkpt lat="37.4569990" lon="-4.4230020">
        <ele>499.4</ele>
        <time>2020-07-17T11:14:22Z</time>
      </trkpt>
      <trkpt lat="37.4570280" lon="-4.4231990">
        <ele>499.4</ele>
        <time>2020-07-17T11:14:24Z</time>
      </trkpt>
      <trkpt lat="37.4570600" lon="-4.4234690">
        <ele>499.6</ele>
        <time>2020-07-17T11:14:27Z</time>
      </trkpt>
      <trkpt lat="37.4570860" lon="-4.4237250">
        <ele>500.4</ele>
        <time>2020-07-17T11:14:30Z</time>
      </trkpt>
      <trkpt lat="37.4570950" lon="-4.4238140">
        <ele>500.6</ele>
        <time>2020-07-17T11:14:31Z</time>
      </trkpt>
      <trkpt lat="37.4570990" lon="-4.4238900">
        <ele>501.0</ele>
        <time>2020-07-17T11:14:32Z</time>
      </trkpt>
      <trkpt lat="37.4571040" lon="-4.4241450">
        <ele>501.4</ele>
        <time>2020-07-17T11:14:35Z</time>
      </trkpt>
      <trkpt lat="37.4571090" lon="-4.4243960">
        <ele>501.8</ele>
        <time>2020-07-17T11:14:38Z</time>
      </trkpt>
      <trkpt lat="37.4571070" lon="-4.4245590">
        <ele>502.0</ele>
        <time>2020-07-17T11:14:40Z</time>
      </trkpt>
      <trkpt lat="37.4571000" lon="-4.4247210">
        <ele>502.2</ele>
        <time>2020-07-17T11:14:42Z</time>
      </trkpt>
      <trkpt lat="37.4570770" lon="-4.4250610">
        <ele>502.6</ele>
        <time>2020-07-17T11:14:46Z</time>
      </trkpt>
      <trkpt lat="37.4570690" lon="-4.4251370">
        <ele>502.6</ele>
        <time>2020-07-17T11:14:47Z</time>
      </trkpt>
      <trkpt lat="37.4569920" lon="-4.4258370">
        <ele>502.6</ele>
        <time>2020-07-17T11:14:55Z</time>
      </trkpt>
      <trkpt lat="37.4569610" lon="-4.4261150">
        <ele>502.4</ele>
        <time>2020-07-17T11:14:58Z</time>
      </trkpt>
      <trkpt lat="37.4568770" lon="-4.4268110">
        <ele>501.6</ele>
        <time>2020-07-17T11:15:05Z</time>
      </trkpt>
      <trkpt lat="37.4568650" lon="-4.4269210">
        <ele>501.6</ele>
        <time>2020-07-17T11:15:06Z</time>
      </trkpt>
      <trkpt lat="37.4568430" lon="-4.4271470">
        <ele>501.2</ele>
        <time>2020-07-17T11:15:08Z</time>
      </trkpt>
      <trkpt lat="37.4568150" lon="-4.4273730">
        <ele>500.8</ele>
        <time>2020-07-17T11:15:10Z</time>
      </trkpt>
      <trkpt lat="37.4567930" lon="-4.4275820">
        <ele>500.2</ele>
        <time>2020-07-17T11:15:12Z</time>
      </trkpt>
      <trkpt lat="37.4567790" lon="-4.4277070">
        <ele>499.4</ele>
        <time>2020-07-17T11:15:13Z</time>
      </trkpt>
      <trkpt lat="37.4567660" lon="-4.4278170">
        <ele>499.0</ele>
        <time>2020-07-17T11:15:14Z</time>
      </trkpt>
      <trkpt lat="37.4567530" lon="-4.4279180">
        <ele>498.4</ele>
        <time>2020-07-17T11:15:15Z</time>
      </trkpt>
      <trkpt lat="37.4567300" lon="-4.4281100">
        <ele>497.8</ele>
        <time>2020-07-17T11:15:17Z</time>
      </trkpt>
      <trkpt lat="37.4566990" lon="-4.4283580">
        <ele>497.2</ele>
        <time>2020-07-17T11:15:19Z</time>
      </trkpt>
      <trkpt lat="37.4566720" lon="-4.4285810">
        <ele>496.6</ele>
        <time>2020-07-17T11:15:21Z</time>
      </trkpt>
      <trkpt lat="37.4566580" lon="-4.4286820">
        <ele>496.2</ele>
        <time>2020-07-17T11:15:22Z</time>
      </trkpt>
      <trkpt lat="37.4566430" lon="-4.4287900">
        <ele>496.2</ele>
        <time>2020-07-17T11:15:23Z</time>
      </trkpt>
      <trkpt lat="37.4566260" lon="-4.4293540">
        <ele>495.0</ele>
        <time>2020-07-17T11:15:28Z</time>
      </trkpt>
      <trkpt lat="37.4566310" lon="-4.4294670">
        <ele>494.8</ele>
        <time>2020-07-17T11:15:29Z</time>
      </trkpt>
      <trkpt lat="37.4566480" lon="-4.4297080">
        <ele>494.0</ele>
        <time>2020-07-17T11:15:31Z</time>
      </trkpt>
      <trkpt lat="37.4566570" lon="-4.4298230">
        <ele>493.8</ele>
        <time>2020-07-17T11:15:32Z</time>
      </trkpt>
      <trkpt lat="37.4566780" lon="-4.4300900">
        <ele>492.4</ele>
        <time>2020-07-17T11:15:34Z</time>
      </trkpt>
      <trkpt lat="37.4566980" lon="-4.4303570">
        <ele>491.0</ele>
        <time>2020-07-17T11:15:36Z</time>
      </trkpt>
      <trkpt lat="37.4567170" lon="-4.4306500">
        <ele>489.2</ele>
        <time>2020-07-17T11:15:38Z</time>
      </trkpt>
      <trkpt lat="37.4567270" lon="-4.4309410">
        <ele>487.4</ele>
        <time>2020-07-17T11:15:40Z</time>
      </trkpt>
      <trkpt lat="37.4567210" lon="-4.4312270">
        <ele>485.6</ele>
        <time>2020-07-17T11:15:42Z</time>
      </trkpt>
      <trkpt lat="37.4567090" lon="-4.4315270">
        <ele>483.6</ele>
        <time>2020-07-17T11:15:44Z</time>
      </trkpt>
      <trkpt lat="37.4567090" lon="-4.4316430">
        <ele>482.6</ele>
        <time>2020-07-17T11:15:45Z</time>
      </trkpt>
      <trkpt lat="37.4567160" lon="-4.4317430">
        <ele>481.6</ele>
        <time>2020-07-17T11:15:46Z</time>
      </trkpt>
      <trkpt lat="37.4567550" lon="-4.4319230">
        <ele>480.2</ele>
        <time>2020-07-17T11:15:48Z</time>
      </trkpt>
      <trkpt lat="37.4567520" lon="-4.4320010">
        <ele>479.4</ele>
        <time>2020-07-17T11:15:49Z</time>
      </trkpt>
      <trkpt lat="37.4567520" lon="-4.4320790">
        <ele>479.0</ele>
        <time>2020-07-17T11:15:50Z</time>
      </trkpt>
      <trkpt lat="37.4566680" lon="-4.4320670">
        <ele>478.8</ele>
        <time>2020-07-17T11:15:51Z</time>
      </trkpt>
      <trkpt lat="37.4564780" lon="-4.4320080">
        <ele>478.2</ele>
        <time>2020-07-17T11:15:54Z</time>
      </trkpt>
      <trkpt lat="37.4564090" lon="-4.4319980">
        <ele>478.2</ele>
        <time>2020-07-17T11:15:55Z</time>
      </trkpt>
      <trkpt lat="37.4563460" lon="-4.4319990">
        <ele>478.2</ele>
        <time>2020-07-17T11:15:56Z</time>
      </trkpt>
      <trkpt lat="37.4562230" lon="-4.4320170">
        <ele>478.2</ele>
        <time>2020-07-17T11:15:58Z</time>
      </trkpt>
      <trkpt lat="37.4561100" lon="-4.4320300">
        <ele>478.4</ele>
        <time>2020-07-17T11:16:00Z</time>
      </trkpt>
      <trkpt lat="37.4560410" lon="-4.4320450">
        <ele>478.4</ele>
        <time>2020-07-17T11:16:01Z</time>
      </trkpt>
      <trkpt lat="37.4559270" lon="-4.4320700">
        <ele>478.6</ele>
        <time>2020-07-17T11:16:03Z</time>
      </trkpt>
      <trkpt lat="37.4558730" lon="-4.4320800">
        <ele>478.6</ele>
        <time>2020-07-17T11:16:04Z</time>
      </trkpt>
      <trkpt lat="37.4558170" lon="-4.4320830">
        <ele>478.8</ele>
        <time>2020-07-17T11:16:05Z</time>
      </trkpt>
      <trkpt lat="37.4557050" lon="-4.4320470">
        <ele>479.2</ele>
        <time>2020-07-17T11:16:07Z</time>
      </trkpt>
      <trkpt lat="37.4556410" lon="-4.4320170">
        <ele>479.2</ele>
        <time>2020-07-17T11:16:08Z</time>
      </trkpt>
      <trkpt lat="37.4555030" lon="-4.4319730">
        <ele>479.6</ele>
        <time>2020-07-17T11:16:10Z</time>
      </trkpt>
      <trkpt lat="37.4552700" lon="-4.4319250">
        <ele>479.4</ele>
        <time>2020-07-17T11:16:13Z</time>
      </trkpt>
      <trkpt lat="37.4552700" lon="-4.4319250">
        <ele>479.4</ele>
        <time>2020-07-17T11:16:14Z</time>
      </trkpt>
      <trkpt lat="37.4548520" lon="-4.4318600">
        <ele>478.8</ele>
        <time>2020-07-17T11:16:19Z</time>
      </trkpt>
      <trkpt lat="37.4546540" lon="-4.4318560">
        <ele>479.0</ele>
        <time>2020-07-17T11:16:22Z</time>
      </trkpt>
      <trkpt lat="37.4543930" lon="-4.4318970">
        <ele>479.4</ele>
        <time>2020-07-17T11:16:26Z</time>
      </trkpt>
      <trkpt lat="37.4542740" lon="-4.4319460">
        <ele>479.6</ele>
        <time>2020-07-17T11:16:28Z</time>
      </trkpt>
      <trkpt lat="37.4540530" lon="-4.4320820">
        <ele>480.0</ele>
        <time>2020-07-17T11:16:32Z</time>
      </trkpt>
      <trkpt lat="37.4539420" lon="-4.4321640">
        <ele>480.2</ele>
        <time>2020-07-17T11:16:34Z</time>
      </trkpt>
      <trkpt lat="37.4536840" lon="-4.4323450">
        <ele>480.0</ele>
        <time>2020-07-17T11:16:40Z</time>
      </trkpt>
      <trkpt lat="37.4534250" lon="-4.4325250">
        <ele>479.4</ele>
        <time>2020-07-17T11:16:43Z</time>
      </trkpt>
      <trkpt lat="37.4529220" lon="-4.4328690">
        <ele>479.6</ele>
        <time>2020-07-17T11:16:52Z</time>
      </trkpt>
      <trkpt lat="37.4528040" lon="-4.4329400">
        <ele>479.6</ele>
        <time>2020-07-17T11:16:54Z</time>
      </trkpt>
      <trkpt lat="37.4526220" lon="-4.4330130">
        <ele>479.8</ele>
        <time>2020-07-17T11:16:57Z</time>
      </trkpt>
      <trkpt lat="37.4524900" lon="-4.4330350">
        <ele>480.0</ele>
        <time>2020-07-17T11:16:59Z</time>
      </trkpt>
      <trkpt lat="37.4521540" lon="-4.4329870">
        <ele>480.6</ele>
        <time>2020-07-17T11:17:04Z</time>
      </trkpt>
      <trkpt lat="37.4518270" lon="-4.4328680">
        <ele>481.0</ele>
        <time>2020-07-17T11:17:09Z</time>
      </trkpt>
      <trkpt lat="37.4516370" lon="-4.4327980">
        <ele>481.2</ele>
        <time>2020-07-17T11:17:12Z</time>
      </trkpt>
      <trkpt lat="37.4511220" lon="-4.4325910">
        <ele>481.8</ele>
        <time>2020-07-17T11:17:20Z</time>
      </trkpt>
      <trkpt lat="37.4509480" lon="-4.4325040">
        <ele>482.0</ele>
        <time>2020-07-17T11:17:23Z</time>
      </trkpt>
      <trkpt lat="37.4508920" lon="-4.4324750">
        <ele>482.2</ele>
        <time>2020-07-17T11:17:24Z</time>
      </trkpt>
      <trkpt lat="37.4505890" lon="-4.4322870">
        <ele>483.4</ele>
        <time>2020-07-17T11:17:30Z</time>
      </trkpt>
      <trkpt lat="37.4505430" lon="-4.4322610">
        <ele>483.6</ele>
        <time>2020-07-17T11:17:31Z</time>
      </trkpt>
      <trkpt lat="37.4504120" lon="-4.4321720">
        <ele>484.0</ele>
        <time>2020-07-17T11:17:34Z</time>
      </trkpt>
      <trkpt lat="37.4502860" lon="-4.4320860">
        <ele>484.4</ele>
        <time>2020-07-17T11:17:37Z</time>
      </trkpt>
      <trkpt lat="37.4501600" lon="-4.4320020">
        <ele>485.2</ele>
        <time>2020-07-17T11:17:40Z</time>
      </trkpt>
      <trkpt lat="37.4500850" lon="-4.4319520">
        <ele>485.4</ele>
        <time>2020-07-17T11:17:42Z</time>
      </trkpt>
      <trkpt lat="37.4500370" lon="-4.4319190">
        <ele>485.6</ele>
        <time>2020-07-17T11:17:43Z</time>
      </trkpt>
      <trkpt lat="37.4499200" lon="-4.4318400">
        <ele>486.6</ele>
        <time>2020-07-17T11:17:46Z</time>
      </trkpt>
      <trkpt lat="37.4498050" lon="-4.4317660">
        <ele>487.8</ele>
        <time>2020-07-17T11:17:49Z</time>
      </trkpt>
      <trkpt lat="37.4496890" lon="-4.4316930">
        <ele>488.6</ele>
        <time>2020-07-17T11:17:52Z</time>
      </trkpt>
      <trkpt lat="37.4496480" lon="-4.4316670">
        <ele>488.8</ele>
        <time>2020-07-17T11:17:53Z</time>
      </trkpt>
      <trkpt lat="37.4493760" lon="-4.4314830">
        <ele>489.8</ele>
        <time>2020-07-17T11:18:00Z</time>
      </trkpt>
      <trkpt lat="37.4493340" lon="-4.4314570">
        <ele>490.0</ele>
        <time>2020-07-17T11:18:01Z</time>
      </trkpt>
      <trkpt lat="37.4491270" lon="-4.4313560">
        <ele>491.0</ele>
        <time>2020-07-17T11:18:06Z</time>
      </trkpt>
      <trkpt lat="37.4489570" lon="-4.4312810">
        <ele>491.8</ele>
        <time>2020-07-17T11:18:10Z</time>
      </trkpt>
      <trkpt lat="37.4488300" lon="-4.4312310">
        <ele>492.2</ele>
        <time>2020-07-17T11:18:13Z</time>
      </trkpt>
      <trkpt lat="37.4485010" lon="-4.4310690">
        <ele>493.2</ele>
        <time>2020-07-17T11:18:21Z</time>
      </trkpt>
      <trkpt lat="37.4481770" lon="-4.4307850">
        <ele>494.2</ele>
        <time>2020-07-17T11:18:30Z</time>
      </trkpt>
      <trkpt lat="37.4480060" lon="-4.4307190">
        <ele>495.4</ele>
        <time>2020-07-17T11:18:34Z</time>
      </trkpt>
      <trkpt lat="37.4479630" lon="-4.4307140">
        <ele>495.4</ele>
        <time>2020-07-17T11:18:35Z</time>
      </trkpt>
      <trkpt lat="37.4479160" lon="-4.4306720">
        <ele>495.6</ele>
        <time>2020-07-17T11:18:36Z</time>
      </trkpt>
      <trkpt lat="37.4478150" lon="-4.4306630">
        <ele>495.6</ele>
        <time>2020-07-17T11:18:38Z</time>
      </trkpt>
      <trkpt lat="37.4475060" lon="-4.4306260">
        <ele>495.6</ele>
        <time>2020-07-17T11:18:43Z</time>
      </trkpt>
      <trkpt lat="37.4471120" lon="-4.4305660">
        <ele>494.8</ele>
        <time>2020-07-17T11:18:49Z</time>
      </trkpt>
      <trkpt lat="37.4470610" lon="-4.4305710">
        <ele>494.2</ele>
        <time>2020-07-17T11:18:50Z</time>
      </trkpt>
      <trkpt lat="37.4469470" lon="-4.4305670">
        <ele>494.4</ele>
        <time>2020-07-17T11:18:52Z</time>
      </trkpt>
      <trkpt lat="37.4468250" lon="-4.4305510">
        <ele>495.2</ele>
        <time>2020-07-17T11:18:54Z</time>
      </trkpt>
      <trkpt lat="37.4467630" lon="-4.4305430">
        <ele>495.6</ele>
        <time>2020-07-17T11:18:55Z</time>
      </trkpt>
      <trkpt lat="37.4462540" lon="-4.4304830">
        <ele>495.8</ele>
        <time>2020-07-17T11:19:03Z</time>
      </trkpt>
      <trkpt lat="37.4456780" lon="-4.4304150">
        <ele>496.4</ele>
        <time>2020-07-17T11:19:12Z</time>
      </trkpt>
      <trkpt lat="37.4456090" lon="-4.4304010">
        <ele>496.4</ele>
        <time>2020-07-17T11:19:13Z</time>
      </trkpt>
      <trkpt lat="37.4452800" lon="-4.4303620">
        <ele>496.8</ele>
        <time>2020-07-17T11:19:18Z</time>
      </trkpt>
      <trkpt lat="37.4449480" lon="-4.4303170">
        <ele>497.2</ele>
        <time>2020-07-17T11:19:23Z</time>
      </trkpt>
      <trkpt lat="37.4444860" lon="-4.4302590">
        <ele>497.4</ele>
        <time>2020-07-17T11:19:30Z</time>
      </trkpt>
      <trkpt lat="37.4442250" lon="-4.4302260">
        <ele>497.2</ele>
        <time>2020-07-17T11:19:34Z</time>
      </trkpt>
      <trkpt lat="37.4439090" lon="-4.4301820">
        <ele>497.8</ele>
        <time>2020-07-17T11:19:39Z</time>
      </trkpt>
      <trkpt lat="37.4436020" lon="-4.4301410">
        <ele>498.2</ele>
        <time>2020-07-17T11:19:44Z</time>
      </trkpt>
      <trkpt lat="37.4430090" lon="-4.4301030">
        <ele>498.2</ele>
        <time>2020-07-17T11:19:54Z</time>
      </trkpt>
      <trkpt lat="37.4425340" lon="-4.4301750">
        <ele>498.4</ele>
        <time>2020-07-17T11:20:02Z</time>
      </trkpt>
      <trkpt lat="37.4421600" lon="-4.4302950">
        <ele>498.8</ele>
        <time>2020-07-17T11:20:08Z</time>
      </trkpt>
      <trkpt lat="37.4419800" lon="-4.4303710">
        <ele>498.8</ele>
        <time>2020-07-17T11:20:11Z</time>
      </trkpt>
      <trkpt lat="37.4414680" lon="-4.4306570">
        <ele>499.0</ele>
        <time>2020-07-17T11:20:20Z</time>
      </trkpt>
      <trkpt lat="37.4414110" lon="-4.4306930">
        <ele>499.2</ele>
        <time>2020-07-17T11:20:21Z</time>
      </trkpt>
      <trkpt lat="37.4410950" lon="-4.4309180">
        <ele>499.8</ele>
        <time>2020-07-17T11:20:27Z</time>
      </trkpt>
      <trkpt lat="37.4409370" lon="-4.4310260">
        <ele>499.8</ele>
        <time>2020-07-17T11:20:30Z</time>
      </trkpt>
      <trkpt lat="37.4404550" lon="-4.4313600">
        <ele>500.4</ele>
        <time>2020-07-17T11:20:39Z</time>
      </trkpt>
      <trkpt lat="37.4404030" lon="-4.4313930">
        <ele>500.4</ele>
        <time>2020-07-17T11:20:40Z</time>
      </trkpt>
      <trkpt lat="37.4400710" lon="-4.4315750">
        <ele>500.6</ele>
        <time>2020-07-17T11:20:46Z</time>
      </trkpt>
      <trkpt lat="37.4400190" lon="-4.4316000">
        <ele>500.6</ele>
        <time>2020-07-17T11:20:47Z</time>
      </trkpt>
      <trkpt lat="37.4397930" lon="-4.4316930">
        <ele>501.0</ele>
        <time>2020-07-17T11:20:51Z</time>
      </trkpt>
      <trkpt lat="37.4394930" lon="-4.4317830">
        <ele>501.2</ele>
        <time>2020-07-17T11:20:56Z</time>
      </trkpt>
      <trkpt lat="37.4391990" lon="-4.4318320">
        <ele>502.0</ele>
        <time>2020-07-17T11:21:01Z</time>
      </trkpt>
      <trkpt lat="37.4389640" lon="-4.4318520">
        <ele>501.8</ele>
        <time>2020-07-17T11:21:05Z</time>
      </trkpt>
      <trkpt lat="37.4385370" lon="-4.4318380">
        <ele>502.0</ele>
        <time>2020-07-17T11:21:12Z</time>
      </trkpt>
      <trkpt lat="37.4379930" lon="-4.4317370">
        <ele>502.8</ele>
        <time>2020-07-17T11:21:21Z</time>
      </trkpt>
      <trkpt lat="37.4378020" lon="-4.4316880">
        <ele>503.0</ele>
        <time>2020-07-17T11:21:24Z</time>
      </trkpt>
      <trkpt lat="37.4374830" lon="-4.4316040">
        <ele>503.0</ele>
        <time>2020-07-17T11:21:29Z</time>
      </trkpt>
      <trkpt lat="37.4369080" lon="-4.4314570">
        <ele>503.4</ele>
        <time>2020-07-17T11:21:38Z</time>
      </trkpt>
      <trkpt lat="37.4363560" lon="-4.4313600">
        <ele>503.4</ele>
        <time>2020-07-17T11:21:47Z</time>
      </trkpt>
      <trkpt lat="37.4362900" lon="-4.4313520">
        <ele>503.4</ele>
        <time>2020-07-17T11:21:48Z</time>
      </trkpt>
      <trkpt lat="37.4357750" lon="-4.4313590">
        <ele>503.8</ele>
        <time>2020-07-17T11:21:57Z</time>
      </trkpt>
      <trkpt lat="37.4355480" lon="-4.4313940">
        <ele>504.0</ele>
        <time>2020-07-17T11:22:01Z</time>
      </trkpt>
      <trkpt lat="37.4353290" lon="-4.4314490">
        <ele>504.4</ele>
        <time>2020-07-17T11:22:05Z</time>
      </trkpt>
      <trkpt lat="37.4351000" lon="-4.4315170">
        <ele>505.0</ele>
        <time>2020-07-17T11:22:09Z</time>
      </trkpt>
      <trkpt lat="37.4348860" lon="-4.4315960">
        <ele>505.6</ele>
        <time>2020-07-17T11:22:13Z</time>
      </trkpt>
      <trkpt lat="37.4346860" lon="-4.4316950">
        <ele>506.0</ele>
        <time>2020-07-17T11:22:17Z</time>
      </trkpt>
      <trkpt lat="37.4344750" lon="-4.4318190">
        <ele>506.2</ele>
        <time>2020-07-17T11:22:21Z</time>
      </trkpt>
      <trkpt lat="37.4343700" lon="-4.4318870">
        <ele>506.2</ele>
        <time>2020-07-17T11:22:23Z</time>
      </trkpt>
      <trkpt lat="37.4340640" lon="-4.4321150">
        <ele>507.0</ele>
        <time>2020-07-17T11:22:29Z</time>
      </trkpt>
      <trkpt lat="37.4340140" lon="-4.4321590">
        <ele>507.2</ele>
        <time>2020-07-17T11:22:30Z</time>
      </trkpt>
      <trkpt lat="37.4336970" lon="-4.4324830">
        <ele>507.8</ele>
        <time>2020-07-17T11:22:37Z</time>
      </trkpt>
      <trkpt lat="37.4335230" lon="-4.4326920">
        <ele>508.2</ele>
        <time>2020-07-17T11:22:41Z</time>
      </trkpt>
      <trkpt lat="37.4332990" lon="-4.4330070">
        <ele>508.6</ele>
        <time>2020-07-17T11:22:47Z</time>
      </trkpt>
      <trkpt lat="37.4330400" lon="-4.4334340">
        <ele>509.4</ele>
        <time>2020-07-17T11:22:54Z</time>
      </trkpt>
      <trkpt lat="37.4329780" lon="-4.4335600">
        <ele>510.0</ele>
        <time>2020-07-17T11:22:56Z</time>
      </trkpt>
      <trkpt lat="37.4329430" lon="-4.4336150">
        <ele>510.0</ele>
        <time>2020-07-17T11:22:57Z</time>
      </trkpt>
      <trkpt lat="37.4328700" lon="-4.4337180">
        <ele>510.4</ele>
        <time>2020-07-17T11:22:59Z</time>
      </trkpt>
      <trkpt lat="37.4327690" lon="-4.4338850">
        <ele>510.6</ele>
        <time>2020-07-17T11:23:02Z</time>
      </trkpt>
      <trkpt lat="37.4325590" lon="-4.4342230">
        <ele>511.4</ele>
        <time>2020-07-17T11:23:08Z</time>
      </trkpt>
      <trkpt lat="37.4324140" lon="-4.4344330">
        <ele>511.4</ele>
        <time>2020-07-17T11:23:12Z</time>
      </trkpt>
      <trkpt lat="37.4322150" lon="-4.4346940">
        <ele>511.6</ele>
        <time>2020-07-17T11:23:17Z</time>
      </trkpt>
      <trkpt lat="37.4320360" lon="-4.4348870">
        <ele>512.0</ele>
        <time>2020-07-17T11:23:21Z</time>
      </trkpt>
      <trkpt lat="37.4319040" lon="-4.4350190">
        <ele>512.4</ele>
        <time>2020-07-17T11:23:24Z</time>
      </trkpt>
      <trkpt lat="37.4316200" lon="-4.4352630">
        <ele>512.6</ele>
        <time>2020-07-17T11:23:30Z</time>
      </trkpt>
      <trkpt lat="37.4311000" lon="-4.4356030">
        <ele>513.0</ele>
        <time>2020-07-17T11:23:40Z</time>
      </trkpt>
      <trkpt lat="37.4307580" lon="-4.4357470">
        <ele>513.0</ele>
        <time>2020-07-17T11:23:46Z</time>
      </trkpt>
      <trkpt lat="37.4304630" lon="-4.4358390">
        <ele>513.6</ele>
        <time>2020-07-17T11:23:51Z</time>
      </trkpt>
      <trkpt lat="37.4301680" lon="-4.4359240">
        <ele>513.8</ele>
        <time>2020-07-17T11:23:56Z</time>
      </trkpt>
      <trkpt lat="37.4295860" lon="-4.4360880">
        <ele>513.6</ele>
        <time>2020-07-17T11:24:06Z</time>
      </trkpt>
      <trkpt lat="37.4291180" lon="-4.4362410">
        <ele>514.0</ele>
        <time>2020-07-17T11:24:14Z</time>
      </trkpt>
      <trkpt lat="37.4286310" lon="-4.4364880">
        <ele>514.4</ele>
        <time>2020-07-17T11:24:23Z</time>
      </trkpt>
      <trkpt lat="37.4285760" lon="-4.4365180">
        <ele>514.6</ele>
        <time>2020-07-17T11:24:24Z</time>
      </trkpt>
      <trkpt lat="37.4282090" lon="-4.4367890">
        <ele>515.2</ele>
        <time>2020-07-17T11:24:31Z</time>
      </trkpt>
      <trkpt lat="37.4278100" lon="-4.4371800">
        <ele>515.6</ele>
        <time>2020-07-17T11:24:39Z</time>
      </trkpt>
      <trkpt lat="37.4275760" lon="-4.4374530">
        <ele>515.4</ele>
        <time>2020-07-17T11:24:44Z</time>
      </trkpt>
      <trkpt lat="37.4274510" lon="-4.4376250">
        <ele>515.6</ele>
        <time>2020-07-17T11:24:47Z</time>
      </trkpt>
      <trkpt lat="37.4272010" lon="-4.4379730">
        <ele>515.0</ele>
        <time>2020-07-17T11:24:53Z</time>
      </trkpt>
      <trkpt lat="37.4268470" lon="-4.4384810">
        <ele>515.8</ele>
        <time>2020-07-17T11:25:02Z</time>
      </trkpt>
      <trkpt lat="37.4265130" lon="-4.4390150">
        <ele>515.0</ele>
        <time>2020-07-17T11:25:11Z</time>
      </trkpt>
      <trkpt lat="37.4264810" lon="-4.4390740">
        <ele>515.2</ele>
        <time>2020-07-17T11:25:12Z</time>
      </trkpt>
      <trkpt lat="37.4261770" lon="-4.4397160">
        <ele>515.6</ele>
        <time>2020-07-17T11:25:22Z</time>
      </trkpt>
      <trkpt lat="37.4258880" lon="-4.4403550">
        <ele>516.4</ele>
        <time>2020-07-17T11:25:32Z</time>
      </trkpt>
      <trkpt lat="37.4258580" lon="-4.4404200">
        <ele>516.6</ele>
        <time>2020-07-17T11:25:33Z</time>
      </trkpt>
      <trkpt lat="37.4258280" lon="-4.4404830">
        <ele>516.8</ele>
        <time>2020-07-17T11:25:34Z</time>
      </trkpt>
      <trkpt lat="37.4255320" lon="-4.4410140">
        <ele>517.4</ele>
        <time>2020-07-17T11:25:43Z</time>
      </trkpt>
      <trkpt lat="37.4253450" lon="-4.4412880">
        <ele>517.8</ele>
        <time>2020-07-17T11:25:48Z</time>
      </trkpt>
      <trkpt lat="37.4251780" lon="-4.4414890">
        <ele>517.8</ele>
        <time>2020-07-17T11:25:52Z</time>
      </trkpt>
      <trkpt lat="37.4248120" lon="-4.4418720">
        <ele>518.0</ele>
        <time>2020-07-17T11:26:00Z</time>
      </trkpt>
      <trkpt lat="37.4243750" lon="-4.4422790">
        <ele>518.4</ele>
        <time>2020-07-17T11:26:09Z</time>
      </trkpt>
      <trkpt lat="37.4242770" lon="-4.4423690">
        <ele>518.4</ele>
        <time>2020-07-17T11:26:11Z</time>
      </trkpt>
      <trkpt lat="37.4238810" lon="-4.4427550">
        <ele>518.4</ele>
        <time>2020-07-17T11:26:19Z</time>
      </trkpt>
      <trkpt lat="37.4234990" lon="-4.4432180">
        <ele>517.4</ele>
        <time>2020-07-17T11:26:27Z</time>
      </trkpt>
      <trkpt lat="37.4232700" lon="-4.4435660">
        <ele>516.6</ele>
        <time>2020-07-17T11:26:32Z</time>
      </trkpt>
      <trkpt lat="37.4231450" lon="-4.4437940">
        <ele>516.2</ele>
        <time>2020-07-17T11:26:35Z</time>
      </trkpt>
      <trkpt lat="37.4228870" lon="-4.4443870">
        <ele>515.8</ele>
        <time>2020-07-17T11:26:42Z</time>
      </trkpt>
      <trkpt lat="37.4228530" lon="-4.4444820">
        <ele>515.4</ele>
        <time>2020-07-17T11:26:43Z</time>
      </trkpt>
      <trkpt lat="37.4226720" lon="-4.4451270">
        <ele>515.4</ele>
        <time>2020-07-17T11:26:50Z</time>
      </trkpt>
      <trkpt lat="37.4226210" lon="-4.4453920">
        <ele>515.0</ele>
        <time>2020-07-17T11:26:53Z</time>
      </trkpt>
      <trkpt lat="37.4226090" lon="-4.4454830">
        <ele>514.6</ele>
        <time>2020-07-17T11:26:54Z</time>
      </trkpt>
      <trkpt lat="37.4225830" lon="-4.4456580">
        <ele>514.2</ele>
        <time>2020-07-17T11:26:56Z</time>
      </trkpt>
      <trkpt lat="37.4225760" lon="-4.4457370">
        <ele>514.2</ele>
        <time>2020-07-17T11:26:57Z</time>
      </trkpt>
      <trkpt lat="37.4225350" lon="-4.4461910">
        <ele>513.8</ele>
        <time>2020-07-17T11:27:02Z</time>
      </trkpt>
      <trkpt lat="37.4224980" lon="-4.4465910">
        <ele>513.2</ele>
        <time>2020-07-17T11:27:06Z</time>
      </trkpt>
      <trkpt lat="37.4224910" lon="-4.4466860">
        <ele>513.0</ele>
        <time>2020-07-17T11:27:07Z</time>
      </trkpt>
      <trkpt lat="37.4224570" lon="-4.4470880">
        <ele>512.8</ele>
        <time>2020-07-17T11:27:11Z</time>
      </trkpt>
      <trkpt lat="37.4224150" lon="-4.4475050">
        <ele>512.8</ele>
        <time>2020-07-17T11:27:15Z</time>
      </trkpt>
      <trkpt lat="37.4223800" lon="-4.4479210">
        <ele>511.8</ele>
        <time>2020-07-17T11:27:19Z</time>
      </trkpt>
      <trkpt lat="37.4223620" lon="-4.4482230">
        <ele>511.2</ele>
        <time>2020-07-17T11:27:22Z</time>
      </trkpt>
      <trkpt lat="37.4223580" lon="-4.4487330">
        <ele>510.8</ele>
        <time>2020-07-17T11:27:27Z</time>
      </trkpt>
      <trkpt lat="37.4223780" lon="-4.4490460">
        <ele>510.2</ele>
        <time>2020-07-17T11:27:30Z</time>
      </trkpt>
      <trkpt lat="37.4224730" lon="-4.4496460">
        <ele>510.2</ele>
        <time>2020-07-17T11:27:36Z</time>
      </trkpt>
      <trkpt lat="37.4225440" lon="-4.4499480">
        <ele>509.4</ele>
        <time>2020-07-17T11:27:39Z</time>
      </trkpt>
      <trkpt lat="37.4227000" lon="-4.4504330">
        <ele>508.6</ele>
        <time>2020-07-17T11:27:44Z</time>
      </trkpt>
      <trkpt lat="37.4227350" lon="-4.4505280">
        <ele>508.2</ele>
        <time>2020-07-17T11:27:45Z</time>
      </trkpt>
      <trkpt lat="37.4229730" lon="-4.4511740">
        <ele>507.4</ele>
        <time>2020-07-17T11:27:52Z</time>
      </trkpt>
      <trkpt lat="37.4230070" lon="-4.4512640">
        <ele>507.0</ele>
        <time>2020-07-17T11:27:53Z</time>
      </trkpt>
      <trkpt lat="37.4230430" lon="-4.4513570">
        <ele>507.0</ele>
        <time>2020-07-17T11:27:54Z</time>
      </trkpt>
      <trkpt lat="37.4232870" lon="-4.4519940">
        <ele>505.8</ele>
        <time>2020-07-17T11:28:01Z</time>
      </trkpt>
      <trkpt lat="37.4234160" lon="-4.4523590">
        <ele>505.6</ele>
        <time>2020-07-17T11:28:05Z</time>
      </trkpt>
      <trkpt lat="37.4235680" lon="-4.4530140">
        <ele>504.8</ele>
        <time>2020-07-17T11:28:12Z</time>
      </trkpt>
      <trkpt lat="37.4236480" lon="-4.4537390">
        <ele>504.6</ele>
        <time>2020-07-17T11:28:19Z</time>
      </trkpt>
      <trkpt lat="37.4236520" lon="-4.4539430">
        <ele>504.2</ele>
        <time>2020-07-17T11:28:21Z</time>
      </trkpt>
      <trkpt lat="37.4236380" lon="-4.4540840">
        <ele>503.6</ele>
        <time>2020-07-17T11:28:25Z</time>
      </trkpt>
      <trkpt lat="37.4236230" lon="-4.4542250">
        <ele>503.0</ele>
        <time>2020-07-17T11:28:27Z</time>
      </trkpt>
      <trkpt lat="37.4235210" lon="-4.4552120">
        <ele>502.8</ele>
        <time>2020-07-17T11:28:34Z</time>
      </trkpt>
      <trkpt lat="37.4234530" lon="-4.4554900">
        <ele>502.4</ele>
        <time>2020-07-17T11:28:37Z</time>
      </trkpt>
      <trkpt lat="37.4233420" lon="-4.4558280">
        <ele>501.6</ele>
        <time>2020-07-17T11:28:41Z</time>
      </trkpt>
      <trkpt lat="37.4232580" lon="-4.4560490">
        <ele>501.4</ele>
        <time>2020-07-17T11:28:43Z</time>
      </trkpt>
      <trkpt lat="37.4230980" lon="-4.4563910">
        <ele>500.2</ele>
        <time>2020-07-17T11:28:47Z</time>
      </trkpt>
      <trkpt lat="37.4227590" lon="-4.4569650">
        <ele>499.2</ele>
        <time>2020-07-17T11:28:54Z</time>
      </trkpt>
      <trkpt lat="37.4227060" lon="-4.4570400">
        <ele>499.2</ele>
        <time>2020-07-17T11:28:55Z</time>
      </trkpt>
      <trkpt lat="37.4222810" lon="-4.4575880">
        <ele>498.2</ele>
        <time>2020-07-17T11:29:03Z</time>
      </trkpt>
      <trkpt lat="37.4222300" lon="-4.4576520">
        <ele>498.0</ele>
        <time>2020-07-17T11:29:04Z</time>
      </trkpt>
      <trkpt lat="37.4220870" lon="-4.4578310">
        <ele>497.8</ele>
        <time>2020-07-17T11:29:07Z</time>
      </trkpt>
      <trkpt lat="37.4219450" lon="-4.4580060">
        <ele>497.6</ele>
        <time>2020-07-17T11:29:10Z</time>
      </trkpt>
      <trkpt lat="37.4217560" lon="-4.4582370">
        <ele>497.4</ele>
        <time>2020-07-17T11:29:14Z</time>
      </trkpt>
      <trkpt lat="37.4217120" lon="-4.4582980">
        <ele>497.2</ele>
        <time>2020-07-17T11:29:15Z</time>
      </trkpt>
      <trkpt lat="37.4216670" lon="-4.4583570">
        <ele>497.0</ele>
        <time>2020-07-17T11:29:16Z</time>
      </trkpt>
      <trkpt lat="37.4215870" lon="-4.4584210">
        <ele>496.6</ele>
        <time>2020-07-17T11:29:18Z</time>
      </trkpt>
      <trkpt lat="37.4215410" lon="-4.4584060">
        <ele>496.4</ele>
        <time>2020-07-17T11:29:19Z</time>
      </trkpt>
      <trkpt lat="37.4214090" lon="-4.4583240">
        <ele>496.0</ele>
        <time>2020-07-17T11:29:22Z</time>
      </trkpt>
      <trkpt lat="37.4212750" lon="-4.4584020">
        <ele>495.4</ele>
        <time>2020-07-17T11:29:25Z</time>
      </trkpt>
      <trkpt lat="37.4211950" lon="-4.4584910">
        <ele>494.6</ele>
        <time>2020-07-17T11:29:27Z</time>
      </trkpt>
      <trkpt lat="37.4210480" lon="-4.4586350">
        <ele>493.2</ele>
        <time>2020-07-17T11:29:30Z</time>
      </trkpt>
      <trkpt lat="37.4206600" lon="-4.4589650">
        <ele>492.8</ele>
        <time>2020-07-17T11:29:37Z</time>
      </trkpt>
      <trkpt lat="37.4205360" lon="-4.4590670">
        <ele>492.2</ele>
        <time>2020-07-17T11:29:39Z</time>
      </trkpt>
      <trkpt lat="37.4200640" lon="-4.4594990">
        <ele>491.0</ele>
        <time>2020-07-17T11:29:47Z</time>
      </trkpt>
      <trkpt lat="37.4196980" lon="-4.4598690">
        <ele>489.6</ele>
        <time>2020-07-17T11:29:53Z</time>
      </trkpt>
      <trkpt lat="37.4195330" lon="-4.4600860">
        <ele>489.0</ele>
        <time>2020-07-17T11:29:56Z</time>
      </trkpt>
      <trkpt lat="37.4192790" lon="-4.4604760">
        <ele>488.2</ele>
        <time>2020-07-17T11:30:01Z</time>
      </trkpt>
      <trkpt lat="37.4191850" lon="-4.4606540">
        <ele>487.4</ele>
        <time>2020-07-17T11:30:03Z</time>
      </trkpt>
      <trkpt lat="37.4190560" lon="-4.4609280">
        <ele>487.2</ele>
        <time>2020-07-17T11:30:06Z</time>
      </trkpt>
      <trkpt lat="37.4188100" lon="-4.4614490">
        <ele>486.0</ele>
        <time>2020-07-17T11:30:12Z</time>
      </trkpt>
      <trkpt lat="37.4185780" lon="-4.4619730">
        <ele>485.0</ele>
        <time>2020-07-17T11:30:18Z</time>
      </trkpt>
      <trkpt lat="37.4184340" lon="-4.4623170">
        <ele>484.0</ele>
        <time>2020-07-17T11:30:22Z</time>
      </trkpt>
      <trkpt lat="37.4183970" lon="-4.4624050">
        <ele>483.8</ele>
        <time>2020-07-17T11:30:23Z</time>
      </trkpt>
      <trkpt lat="37.4180910" lon="-4.4629650">
        <ele>483.6</ele>
        <time>2020-07-17T11:30:30Z</time>
      </trkpt>
      <trkpt lat="37.4177800" lon="-4.4633950">
        <ele>482.6</ele>
        <time>2020-07-17T11:30:36Z</time>
      </trkpt>
      <trkpt lat="37.4177380" lon="-4.4634620">
        <ele>482.4</ele>
        <time>2020-07-17T11:30:37Z</time>
      </trkpt>
      <trkpt lat="37.4174250" lon="-4.4640400">
        <ele>481.6</ele>
        <time>2020-07-17T11:30:44Z</time>
      </trkpt>
      <trkpt lat="37.4173880" lon="-4.4641280">
        <ele>481.6</ele>
        <time>2020-07-17T11:30:45Z</time>
      </trkpt>
      <trkpt lat="37.4173530" lon="-4.4642140">
        <ele>481.4</ele>
        <time>2020-07-17T11:30:46Z</time>
      </trkpt>
      <trkpt lat="37.4172050" lon="-4.4646970">
        <ele>480.8</ele>
        <time>2020-07-17T11:30:51Z</time>
      </trkpt>
      <trkpt lat="37.4170880" lon="-4.4652950">
        <ele>480.4</ele>
        <time>2020-07-17T11:30:57Z</time>
      </trkpt>
      <trkpt lat="37.4169880" lon="-4.4656970">
        <ele>479.2</ele>
        <time>2020-07-17T11:31:01Z</time>
      </trkpt>
      <trkpt lat="37.4169010" lon="-4.4659860">
        <ele>478.8</ele>
        <time>2020-07-17T11:31:04Z</time>
      </trkpt>
      <trkpt lat="37.4166890" lon="-4.4665290">
        <ele>478.4</ele>
        <time>2020-07-17T11:31:10Z</time>
      </trkpt>
      <trkpt lat="37.4166240" lon="-4.4666980">
        <ele>478.0</ele>
        <time>2020-07-17T11:31:12Z</time>
      </trkpt>
      <trkpt lat="37.4163700" lon="-4.4673410">
        <ele>477.4</ele>
        <time>2020-07-17T11:31:19Z</time>
      </trkpt>
      <trkpt lat="37.4162960" lon="-4.4675180">
        <ele>476.8</ele>
        <time>2020-07-17T11:31:21Z</time>
      </trkpt>
      <trkpt lat="37.4160440" lon="-4.4681510">
        <ele>476.4</ele>
        <time>2020-07-17T11:31:28Z</time>
      </trkpt>
      <trkpt lat="37.4160080" lon="-4.4682330">
        <ele>476.2</ele>
        <time>2020-07-17T11:31:29Z</time>
      </trkpt>
      <trkpt lat="37.4159010" lon="-4.4685060">
        <ele>475.6</ele>
        <time>2020-07-17T11:31:32Z</time>
      </trkpt>
      <trkpt lat="37.4157590" lon="-4.4689800">
        <ele>475.0</ele>
        <time>2020-07-17T11:31:37Z</time>
      </trkpt>
      <trkpt lat="37.4157590" lon="-4.4689800">
        <ele>474.4</ele>
        <time>2020-07-17T11:31:40Z</time>
      </trkpt>
      <trkpt lat="37.4155110" lon="-4.4698340">
        <ele>473.8</ele>
        <time>2020-07-17T11:31:46Z</time>
      </trkpt>
      <trkpt lat="37.4153860" lon="-4.4702020">
        <ele>473.4</ele>
        <time>2020-07-17T11:31:50Z</time>
      </trkpt>
      <trkpt lat="37.4152060" lon="-4.4706560">
        <ele>473.0</ele>
        <time>2020-07-17T11:31:55Z</time>
      </trkpt>
      <trkpt lat="37.4150850" lon="-4.4709200">
        <ele>472.8</ele>
        <time>2020-07-17T11:31:58Z</time>
      </trkpt>
      <trkpt lat="37.4149760" lon="-4.4710780">
        <ele>472.6</ele>
        <time>2020-07-17T11:32:00Z</time>
      </trkpt>
      <trkpt lat="37.4148660" lon="-4.4712300">
        <ele>472.2</ele>
        <time>2020-07-17T11:32:02Z</time>
      </trkpt>
      <trkpt lat="37.4146010" lon="-4.4715200">
        <ele>471.0</ele>
        <time>2020-07-17T11:32:06Z</time>
      </trkpt>
      <trkpt lat="37.4145380" lon="-4.4715770">
        <ele>470.8</ele>
        <time>2020-07-17T11:32:07Z</time>
      </trkpt>
      <trkpt lat="37.4142820" lon="-4.4718160">
        <ele>470.0</ele>
        <time>2020-07-17T11:32:11Z</time>
      </trkpt>
      <trkpt lat="37.4141960" lon="-4.4719870">
        <ele>469.8</ele>
        <time>2020-07-17T11:32:13Z</time>
      </trkpt>
      <trkpt lat="37.4141360" lon="-4.4722350">
        <ele>469.6</ele>
        <time>2020-07-17T11:32:16Z</time>
      </trkpt>
      <trkpt lat="37.4141010" lon="-4.4722990">
        <ele>469.4</ele>
        <time>2020-07-17T11:32:17Z</time>
      </trkpt>
      <trkpt lat="37.4139210" lon="-4.4724710">
        <ele>469.0</ele>
        <time>2020-07-17T11:32:20Z</time>
      </trkpt>
      <trkpt lat="37.4138700" lon="-4.4725360">
        <ele>469.0</ele>
        <time>2020-07-17T11:32:21Z</time>
      </trkpt>
      <trkpt lat="37.4137420" lon="-4.4727450">
        <ele>469.0</ele>
        <time>2020-07-17T11:32:24Z</time>
      </trkpt>
      <trkpt lat="37.4134180" lon="-4.4732750">
        <ele>469.2</ele>
        <time>2020-07-17T11:32:32Z</time>
      </trkpt>
      <trkpt lat="37.4133070" lon="-4.4734620">
        <ele>469.0</ele>
        <time>2020-07-17T11:32:35Z</time>
      </trkpt>
      <trkpt lat="37.4131670" lon="-4.4737000">
        <ele>469.6</ele>
        <time>2020-07-17T11:32:39Z</time>
      </trkpt>
      <trkpt lat="37.4130460" lon="-4.4739410">
        <ele>470.0</ele>
        <time>2020-07-17T11:32:43Z</time>
      </trkpt>
      <trkpt lat="37.4129500" lon="-4.4741480">
        <ele>469.8</ele>
        <time>2020-07-17T11:32:47Z</time>
      </trkpt>
      <trkpt lat="37.4128210" lon="-4.4744160">
        <ele>471.2</ele>
        <time>2020-07-17T11:32:52Z</time>
      </trkpt>
      <trkpt lat="37.4127480" lon="-4.4745600">
        <ele>471.6</ele>
        <time>2020-07-17T11:32:55Z</time>
      </trkpt>
      <trkpt lat="37.4126350" lon="-4.4747960">
        <ele>472.2</ele>
        <time>2020-07-17T11:33:00Z</time>
      </trkpt>
      <trkpt lat="37.4125280" lon="-4.4750400">
        <ele>472.8</ele>
        <time>2020-07-17T11:33:05Z</time>
      </trkpt>
      <trkpt lat="37.4124920" lon="-4.4751400">
        <ele>473.2</ele>
        <time>2020-07-17T11:33:07Z</time>
      </trkpt>
      <trkpt lat="37.4125110" lon="-4.4752580">
        <ele>473.2</ele>
        <time>2020-07-17T11:33:10Z</time>
      </trkpt>
      <trkpt lat="37.4125280" lon="-4.4752960">
        <ele>473.4</ele>
        <time>2020-07-17T11:33:11Z</time>
      </trkpt>
      <trkpt lat="37.4125640" lon="-4.4754030">
        <ele>473.4</ele>
        <time>2020-07-17T11:33:13Z</time>
      </trkpt>
      <trkpt lat="37.4125610" lon="-4.4754600">
        <ele>473.4</ele>
        <time>2020-07-17T11:33:14Z</time>
      </trkpt>
      <trkpt lat="37.4124730" lon="-4.4756640">
        <ele>473.6</ele>
        <time>2020-07-17T11:33:18Z</time>
      </trkpt>
      <trkpt lat="37.4123000" lon="-4.4758110">
        <ele>473.8</ele>
        <time>2020-07-17T11:33:22Z</time>
      </trkpt>
      <trkpt lat="37.4122550" lon="-4.4758550">
        <ele>473.8</ele>
        <time>2020-07-17T11:33:23Z</time>
      </trkpt>
      <trkpt lat="37.4121350" lon="-4.4759980">
        <ele>474.0</ele>
        <time>2020-07-17T11:33:26Z</time>
      </trkpt>
      <trkpt lat="37.4121200" lon="-4.4760580">
        <ele>474.2</ele>
        <time>2020-07-17T11:33:27Z</time>
      </trkpt>
      <trkpt lat="37.4120990" lon="-4.4761350">
        <ele>474.4</ele>
        <time>2020-07-17T11:33:28Z</time>
      </trkpt>
      <trkpt lat="37.4120460" lon="-4.4763220">
        <ele>475.0</ele>
        <time>2020-07-17T11:33:31Z</time>
      </trkpt>
      <trkpt lat="37.4120140" lon="-4.4764600">
        <ele>475.4</ele>
        <time>2020-07-17T11:33:33Z</time>
      </trkpt>
      <trkpt lat="37.4118880" lon="-4.4769580">
        <ele>476.2</ele>
        <time>2020-07-17T11:33:40Z</time>
      </trkpt>
      <trkpt lat="37.4117560" lon="-4.4774430">
        <ele>476.4</ele>
        <time>2020-07-17T11:33:47Z</time>
      </trkpt>
      <trkpt lat="37.4117350" lon="-4.4775300">
        <ele>476.6</ele>
        <time>2020-07-17T11:33:48Z</time>
      </trkpt>
      <trkpt lat="37.4115930" lon="-4.4780970">
        <ele>477.0</ele>
        <time>2020-07-17T11:33:56Z</time>
      </trkpt>
      <trkpt lat="37.4115620" lon="-4.4782370">
        <ele>477.0</ele>
        <time>2020-07-17T11:33:58Z</time>
      </trkpt>
      <trkpt lat="37.4115210" lon="-4.4784440">
        <ele>476.6</ele>
        <time>2020-07-17T11:34:02Z</time>
      </trkpt>
      <trkpt lat="37.4115300" lon="-4.4787490">
        <ele>476.6</ele>
        <time>2020-07-17T11:34:07Z</time>
      </trkpt>
      <trkpt lat="37.4115240" lon="-4.4788930">
        <ele>476.6</ele>
        <time>2020-07-17T11:34:09Z</time>
      </trkpt>
      <trkpt lat="37.4115030" lon="-4.4791130">
        <ele>476.4</ele>
        <time>2020-07-17T11:34:12Z</time>
      </trkpt>
      <trkpt lat="37.4114900" lon="-4.4792830">
        <ele>476.2</ele>
        <time>2020-07-17T11:34:14Z</time>
      </trkpt>
      <trkpt lat="37.4114770" lon="-4.4793580">
        <ele>476.2</ele>
        <time>2020-07-17T11:34:15Z</time>
      </trkpt>
      <trkpt lat="37.4114470" lon="-4.4794900">
        <ele>475.6</ele>
        <time>2020-07-17T11:34:17Z</time>
      </trkpt>
      <trkpt lat="37.4114220" lon="-4.4796210">
        <ele>475.4</ele>
        <time>2020-07-17T11:34:19Z</time>
      </trkpt>
      <trkpt lat="37.4113970" lon="-4.4798570">
        <ele>474.8</ele>
        <time>2020-07-17T11:34:22Z</time>
      </trkpt>
      <trkpt lat="37.4113990" lon="-4.4800300">
        <ele>474.2</ele>
        <time>2020-07-17T11:34:24Z</time>
      </trkpt>
      <trkpt lat="37.4113940" lon="-4.4801670">
        <ele>473.8</ele>
        <time>2020-07-17T11:34:26Z</time>
      </trkpt>
      <trkpt lat="37.4114070" lon="-4.4802640">
        <ele>473.6</ele>
        <time>2020-07-17T11:34:28Z</time>
      </trkpt>
      <trkpt lat="37.4114350" lon="-4.4802970">
        <ele>473.4</ele>
        <time>2020-07-17T11:34:29Z</time>
      </trkpt>
      <trkpt lat="37.4115340" lon="-4.4803650">
        <ele>473.2</ele>
        <time>2020-07-17T11:34:32Z</time>
      </trkpt>
      <trkpt lat="37.4115430" lon="-4.4804120">
        <ele>473.2</ele>
        <time>2020-07-17T11:34:33Z</time>
      </trkpt>
      <trkpt lat="37.4115300" lon="-4.4804610">
        <ele>473.2</ele>
        <time>2020-07-17T11:34:34Z</time>
      </trkpt>
      <trkpt lat="37.4114730" lon="-4.4805520">
        <ele>472.8</ele>
        <time>2020-07-17T11:34:36Z</time>
      </trkpt>
      <trkpt lat="37.4114330" lon="-4.4806270">
        <ele>471.8</ele>
        <time>2020-07-17T11:34:38Z</time>
      </trkpt>
      <trkpt lat="37.4114130" lon="-4.4806500">
        <ele>471.4</ele>
        <time>2020-07-17T11:34:39Z</time>
      </trkpt>
      <trkpt lat="37.4113710" lon="-4.4807170">
        <ele>470.6</ele>
        <time>2020-07-17T11:34:42Z</time>
      </trkpt>
      <trkpt lat="37.4113660" lon="-4.4808300">
        <ele>470.0</ele>
        <time>2020-07-17T11:34:45Z</time>
      </trkpt>
      <trkpt lat="37.4113730" lon="-4.4808710">
        <ele>470.0</ele>
        <time>2020-07-17T11:34:46Z</time>
      </trkpt>
      <trkpt lat="37.4113930" lon="-4.4809200">
        <ele>470.0</ele>
        <time>2020-07-17T11:34:47Z</time>
      </trkpt>
      <trkpt lat="37.4114260" lon="-4.4810180">
        <ele>470.2</ele>
        <time>2020-07-17T11:34:49Z</time>
      </trkpt>
      <trkpt lat="37.4114570" lon="-4.4811270">
        <ele>470.4</ele>
        <time>2020-07-17T11:34:51Z</time>
      </trkpt>
      <trkpt lat="37.4114910" lon="-4.4812570">
        <ele>470.4</ele>
        <time>2020-07-17T11:34:53Z</time>
      </trkpt>
      <trkpt lat="37.4115440" lon="-4.4814490">
        <ele>470.6</ele>
        <time>2020-07-17T11:34:56Z</time>
      </trkpt>
      <trkpt lat="37.4115700" lon="-4.4815910">
        <ele>470.6</ele>
        <time>2020-07-17T11:34:58Z</time>
      </trkpt>
      <trkpt lat="37.4116080" lon="-4.4818040">
        <ele>470.2</ele>
        <time>2020-07-17T11:35:01Z</time>
      </trkpt>
      <trkpt lat="37.4116170" lon="-4.4818800">
        <ele>469.8</ele>
        <time>2020-07-17T11:35:02Z</time>
      </trkpt>
      <trkpt lat="37.4116160" lon="-4.4820140">
        <ele>469.8</ele>
        <time>2020-07-17T11:35:04Z</time>
      </trkpt>
      <trkpt lat="37.4116040" lon="-4.4821390">
        <ele>469.6</ele>
        <time>2020-07-17T11:35:06Z</time>
      </trkpt>
      <trkpt lat="37.4115770" lon="-4.4822100">
        <ele>469.2</ele>
        <time>2020-07-17T11:35:08Z</time>
      </trkpt>
      <trkpt lat="37.4115110" lon="-4.4821980">
        <ele>468.8</ele>
        <time>2020-07-17T11:35:11Z</time>
      </trkpt>
      <trkpt lat="37.4114930" lon="-4.4822950">
        <ele>468.8</ele>
        <time>2020-07-17T11:35:14Z</time>
      </trkpt>
      <trkpt lat="37.4114900" lon="-4.4823870">
        <ele>468.8</ele>
        <time>2020-07-17T11:35:16Z</time>
      </trkpt>
      <trkpt lat="37.4114920" lon="-4.4825050">
        <ele>469.0</ele>
        <time>2020-07-17T11:35:18Z</time>
      </trkpt>
      <trkpt lat="37.4114890" lon="-4.4825630">
        <ele>469.0</ele>
        <time>2020-07-17T11:35:19Z</time>
      </trkpt>
      <trkpt lat="37.4114900" lon="-4.4828030">
        <ele>469.0</ele>
        <time>2020-07-17T11:35:23Z</time>
      </trkpt>
      <trkpt lat="37.4115040" lon="-4.4829150">
        <ele>469.6</ele>
        <time>2020-07-17T11:35:25Z</time>
      </trkpt>
      <trkpt lat="37.4115160" lon="-4.4830910">
        <ele>470.2</ele>
        <time>2020-07-17T11:35:28Z</time>
      </trkpt>
      <trkpt lat="37.4115160" lon="-4.4832180">
        <ele>470.4</ele>
        <time>2020-07-17T11:35:30Z</time>
      </trkpt>
      <trkpt lat="37.4115170" lon="-4.4832680">
        <ele>470.4</ele>
        <time>2020-07-17T11:35:31Z</time>
      </trkpt>
      <trkpt lat="37.4114950" lon="-4.4833290">
        <ele>470.2</ele>
        <time>2020-07-17T11:35:34Z</time>
      </trkpt>
      <trkpt lat="37.4113620" lon="-4.4833320">
        <ele>469.8</ele>
        <time>2020-07-17T11:35:38Z</time>
      </trkpt>
      <trkpt lat="37.4112450" lon="-4.4833290">
        <ele>470.0</ele>
        <time>2020-07-17T11:35:41Z</time>
      </trkpt>
      <trkpt lat="37.4111550" lon="-4.4833260">
        <ele>470.2</ele>
        <time>2020-07-17T11:35:43Z</time>
      </trkpt>
      <trkpt lat="37.4110680" lon="-4.4833200">
        <ele>470.6</ele>
        <time>2020-07-17T11:35:45Z</time>
      </trkpt>
      <trkpt lat="37.4110330" lon="-4.4833150">
        <ele>470.8</ele>
        <time>2020-07-17T11:35:46Z</time>
      </trkpt>
      <trkpt lat="37.4109450" lon="-4.4833330">
        <ele>471.2</ele>
        <time>2020-07-17T11:35:48Z</time>
      </trkpt>
      <trkpt lat="37.4108640" lon="-4.4833360">
        <ele>471.6</ele>
        <time>2020-07-17T11:35:50Z</time>
      </trkpt>
      <trkpt lat="37.4107830" lon="-4.4833390">
        <ele>472.0</ele>
        <time>2020-07-17T11:35:52Z</time>
      </trkpt>
      <trkpt lat="37.4106640" lon="-4.4833490">
        <ele>472.8</ele>
        <time>2020-07-17T11:35:55Z</time>
      </trkpt>
      <trkpt lat="37.4106270" lon="-4.4833510">
        <ele>473.2</ele>
        <time>2020-07-17T11:35:56Z</time>
      </trkpt>
      <trkpt lat="37.4104800" lon="-4.4834060">
        <ele>474.0</ele>
        <time>2020-07-17T11:36:00Z</time>
      </trkpt>
      <trkpt lat="37.4103270" lon="-4.4834740">
        <ele>474.4</ele>
        <time>2020-07-17T11:36:05Z</time>
      </trkpt>
      <trkpt lat="37.4102440" lon="-4.4834980">
        <ele>474.8</ele>
        <time>2020-07-17T11:36:09Z</time>
      </trkpt>
      <trkpt lat="37.4101840" lon="-4.4835000">
        <ele>475.6</ele>
        <time>2020-07-17T11:36:13Z</time>
      </trkpt>
      <trkpt lat="37.4101220" lon="-4.4835310">
        <ele>475.8</ele>
        <time>2020-07-17T11:36:16Z</time>
      </trkpt>
      <trkpt lat="37.4100590" lon="-4.4835470">
        <ele>475.8</ele>
        <time>2020-07-17T11:36:18Z</time>
      </trkpt>
      <trkpt lat="37.4098910" lon="-4.4836050">
        <ele>476.2</ele>
        <time>2020-07-17T11:36:23Z</time>
      </trkpt>
      <trkpt lat="37.4097440" lon="-4.4836460">
        <ele>476.6</ele>
        <time>2020-07-17T11:36:27Z</time>
      </trkpt>
      <trkpt lat="37.4096880" lon="-4.4836610">
        <ele>476.8</ele>
        <time>2020-07-17T11:36:29Z</time>
      </trkpt>
      <trkpt lat="37.4096710" lon="-4.4836670">
        <ele>476.8</ele>
        <time>2020-07-17T11:36:30Z</time>
      </trkpt>
      <trkpt lat="37.4096430" lon="-4.4836740">
        <ele>476.8</ele>
        <time>2020-07-17T11:36:32Z</time>
      </trkpt>
      <trkpt lat="37.4096060" lon="-4.4836600">
        <ele>476.8</ele>
        <time>2020-07-17T11:36:35Z</time>
      </trkpt>
      <trkpt lat="37.4095980" lon="-4.4836510">
        <ele>476.8</ele>
        <time>2020-07-17T11:36:36Z</time>
      </trkpt>
      <trkpt lat="37.4095820" lon="-4.4836010">
        <ele>476.8</ele>
        <time>2020-07-17T11:36:39Z</time>
      </trkpt>
      <trkpt lat="37.4095730" lon="-4.4835520">
        <ele>477.0</ele>
        <time>2020-07-17T11:36:42Z</time>
      </trkpt>
      <trkpt lat="37.4095730" lon="-4.4835550">
        <ele>477.0</ele>
        <time>2020-07-17T11:36:44Z</time>
      </trkpt>
      <trkpt lat="37.4095670" lon="-4.4835640">
        <ele>477.2</ele>
        <time>2020-07-17T11:36:48Z</time>
      </trkpt>
      <trkpt lat="37.4095340" lon="-4.4836550">
        <ele>478.4</ele>
        <time>2020-07-17T12:11:41Z</time>
      </trkpt>
      <trkpt lat="37.4095280" lon="-4.4836280">
        <ele>478.6</ele>
        <time>2020-07-17T12:11:42Z</time>
      </trkpt>
      <trkpt lat="37.4095110" lon="-4.4835170">
        <ele>478.6</ele>
        <time>2020-07-17T12:11:45Z</time>
      </trkpt>
      <trkpt lat="37.4095320" lon="-4.4833750">
        <ele>479.0</ele>
        <time>2020-07-17T12:11:49Z</time>
      </trkpt>
      <trkpt lat="37.4095390" lon="-4.4832910">
        <ele>479.0</ele>
        <time>2020-07-17T12:11:53Z</time>
      </trkpt>
      <trkpt lat="37.4095400" lon="-4.4832550">
        <ele>479.0</ele>
        <time>2020-07-17T12:11:54Z</time>
      </trkpt>
      <trkpt lat="37.4095850" lon="-4.4830570">
        <ele>478.8</ele>
        <time>2020-07-17T12:11:59Z</time>
      </trkpt>
      <trkpt lat="37.4096040" lon="-4.4828880">
        <ele>478.8</ele>
        <time>2020-07-17T12:12:03Z</time>
      </trkpt>
      <trkpt lat="37.4096530" lon="-4.4826630">
        <ele>478.0</ele>
        <time>2020-07-17T12:12:07Z</time>
      </trkpt>
      <trkpt lat="37.4096690" lon="-4.4826130">
        <ele>477.8</ele>
        <time>2020-07-17T12:12:08Z</time>
      </trkpt>
      <trkpt lat="37.4097400" lon="-4.4823860">
        <ele>477.2</ele>
        <time>2020-07-17T12:12:12Z</time>
      </trkpt>
      <trkpt lat="37.4097540" lon="-4.4823220">
        <ele>477.2</ele>
        <time>2020-07-17T12:12:13Z</time>
      </trkpt>
      <trkpt lat="37.4097830" lon="-4.4821990">
        <ele>476.6</ele>
        <time>2020-07-17T12:12:16Z</time>
      </trkpt>
      <trkpt lat="37.4097940" lon="-4.4821890">
        <ele>476.4</ele>
        <time>2020-07-17T12:12:17Z</time>
      </trkpt>
      <trkpt lat="37.4098190" lon="-4.4821430">
        <ele>476.2</ele>
        <time>2020-07-17T12:12:19Z</time>
      </trkpt>
      <trkpt lat="37.4098390" lon="-4.4820110">
        <ele>475.8</ele>
        <time>2020-07-17T12:12:23Z</time>
      </trkpt>
      <trkpt lat="37.4098210" lon="-4.4818890">
        <ele>475.6</ele>
        <time>2020-07-17T12:12:26Z</time>
      </trkpt>
      <trkpt lat="37.4098000" lon="-4.4817570">
        <ele>475.8</ele>
        <time>2020-07-17T12:12:29Z</time>
      </trkpt>
      <trkpt lat="37.4098170" lon="-4.4815640">
        <ele>476.0</ele>
        <time>2020-07-17T12:12:33Z</time>
      </trkpt>
      <trkpt lat="37.4098180" lon="-4.4814580">
        <ele>475.8</ele>
        <time>2020-07-17T12:12:35Z</time>
      </trkpt>
      <trkpt lat="37.4098220" lon="-4.4813410">
        <ele>475.6</ele>
        <time>2020-07-17T12:12:38Z</time>
      </trkpt>
      <trkpt lat="37.4098400" lon="-4.4811820">
        <ele>475.4</ele>
        <time>2020-07-17T12:12:42Z</time>
      </trkpt>
      <trkpt lat="37.4098410" lon="-4.4811390">
        <ele>475.4</ele>
        <time>2020-07-17T12:12:43Z</time>
      </trkpt>
      <trkpt lat="37.4098360" lon="-4.4810480">
        <ele>475.4</ele>
        <time>2020-07-17T12:12:45Z</time>
      </trkpt>
      <trkpt lat="37.4098390" lon="-4.4809590">
        <ele>475.6</ele>
        <time>2020-07-17T12:12:47Z</time>
      </trkpt>
      <trkpt lat="37.4098350" lon="-4.4809150">
        <ele>475.6</ele>
        <time>2020-07-17T12:12:48Z</time>
      </trkpt>
      <trkpt lat="37.4098440" lon="-4.4807410">
        <ele>476.2</ele>
        <time>2020-07-17T12:12:52Z</time>
      </trkpt>
      <trkpt lat="37.4098380" lon="-4.4807010">
        <ele>476.2</ele>
        <time>2020-07-17T12:12:53Z</time>
      </trkpt>
      <trkpt lat="37.4098450" lon="-4.4805800">
        <ele>476.4</ele>
        <time>2020-07-17T12:12:56Z</time>
      </trkpt>
      <trkpt lat="37.4098490" lon="-4.4805000">
        <ele>476.8</ele>
        <time>2020-07-17T12:12:58Z</time>
      </trkpt>
      <trkpt lat="37.4098670" lon="-4.4803500">
        <ele>477.0</ele>
        <time>2020-07-17T12:13:02Z</time>
      </trkpt>
      <trkpt lat="37.4098710" lon="-4.4803110">
        <ele>477.0</ele>
        <time>2020-07-17T12:13:03Z</time>
      </trkpt>
      <trkpt lat="37.4098860" lon="-4.4802230">
        <ele>477.2</ele>
        <time>2020-07-17T12:13:05Z</time>
      </trkpt>
      <trkpt lat="37.4098880" lon="-4.4801490">
        <ele>477.6</ele>
        <time>2020-07-17T12:13:07Z</time>
      </trkpt>
      <trkpt lat="37.4098830" lon="-4.4801150">
        <ele>477.8</ele>
        <time>2020-07-17T12:13:08Z</time>
      </trkpt>
      <trkpt lat="37.4098770" lon="-4.4799380">
        <ele>477.8</ele>
        <time>2020-07-17T12:13:12Z</time>
      </trkpt>
      <trkpt lat="37.4098860" lon="-4.4797100">
        <ele>478.2</ele>
        <time>2020-07-17T12:13:17Z</time>
      </trkpt>
      <trkpt lat="37.4098900" lon="-4.4796140">
        <ele>478.4</ele>
        <time>2020-07-17T12:13:19Z</time>
      </trkpt>
      <trkpt lat="37.4098750" lon="-4.4794340">
        <ele>478.6</ele>
        <time>2020-07-17T12:13:23Z</time>
      </trkpt>
      <trkpt lat="37.4098740" lon="-4.4791940">
        <ele>479.4</ele>
        <time>2020-07-17T12:13:28Z</time>
      </trkpt>
      <trkpt lat="37.4098790" lon="-4.4790380">
        <ele>479.8</ele>
        <time>2020-07-17T12:13:31Z</time>
      </trkpt>
      <trkpt lat="37.4098770" lon="-4.4787040">
        <ele>480.2</ele>
        <time>2020-07-17T12:13:36Z</time>
      </trkpt>
      <trkpt lat="37.4098730" lon="-4.4786460">
        <ele>480.4</ele>
        <time>2020-07-17T12:13:37Z</time>
      </trkpt>
      <trkpt lat="37.4098080" lon="-4.4784560">
        <ele>480.8</ele>
        <time>2020-07-17T12:13:41Z</time>
      </trkpt>
      <trkpt lat="37.4097220" lon="-4.4784330">
        <ele>481.2</ele>
        <time>2020-07-17T12:13:44Z</time>
      </trkpt>
      <trkpt lat="37.4096700" lon="-4.4784260">
        <ele>481.6</ele>
        <time>2020-07-17T12:13:46Z</time>
      </trkpt>
      <trkpt lat="37.4095840" lon="-4.4783880">
        <ele>482.8</ele>
        <time>2020-07-17T12:13:50Z</time>
      </trkpt>
      <trkpt lat="37.4095770" lon="-4.4783820">
        <ele>483.4</ele>
        <time>2020-07-17T12:13:52Z</time>
      </trkpt>
      <trkpt lat="37.4095480" lon="-4.4783160">
        <ele>484.4</ele>
        <time>2020-07-17T12:16:07Z</time>
      </trkpt>
      <trkpt lat="37.4095750" lon="-4.4783190">
        <ele>484.4</ele>
        <time>2020-07-17T12:16:08Z</time>
      </trkpt>
      <trkpt lat="37.4097280" lon="-4.4783440">
        <ele>483.4</ele>
        <time>2020-07-17T12:16:14Z</time>
      </trkpt>
      <trkpt lat="37.4097440" lon="-4.4783340">
        <ele>483.2</ele>
        <time>2020-07-17T12:16:15Z</time>
      </trkpt>
      <trkpt lat="37.4097650" lon="-4.4782720">
        <ele>482.0</ele>
        <time>2020-07-17T12:16:18Z</time>
      </trkpt>
      <trkpt lat="37.4097670" lon="-4.4782550">
        <ele>481.8</ele>
        <time>2020-07-17T12:16:19Z</time>
      </trkpt>
      <trkpt lat="37.4097860" lon="-4.4782330">
        <ele>481.4</ele>
        <time>2020-07-17T12:16:22Z</time>
      </trkpt>
      <trkpt lat="37.4097820" lon="-4.4781970">
        <ele>481.4</ele>
        <time>2020-07-17T12:16:49Z</time>
      </trkpt>
      <trkpt lat="37.4097940" lon="-4.4781820">
        <ele>481.4</ele>
        <time>2020-07-17T12:16:50Z</time>
      </trkpt>
      <trkpt lat="37.4098340" lon="-4.4781580">
        <ele>481.2</ele>
        <time>2020-07-17T12:16:52Z</time>
      </trkpt>
      <trkpt lat="37.4098520" lon="-4.4781440">
        <ele>480.8</ele>
        <time>2020-07-17T12:16:53Z</time>
      </trkpt>
      <trkpt lat="37.4098520" lon="-4.4781430">
        <ele>480.4</ele>
        <time>2020-07-17T12:16:54Z</time>
      </trkpt>
      <trkpt lat="37.4098530" lon="-4.4781410">
        <ele>480.0</ele>
        <time>2020-07-17T12:16:55Z</time>
      </trkpt>
      <trkpt lat="37.4098530" lon="-4.4781400">
        <ele>479.6</ele>
        <time>2020-07-17T12:16:56Z</time>
      </trkpt>
      <trkpt lat="37.4098540" lon="-4.4781390">
        <ele>479.4</ele>
        <time>2020-07-17T12:16:59Z</time>
      </trkpt>
      <trkpt lat="37.4098540" lon="-4.4781370">
        <ele>479.4</ele>
        <time>2020-07-17T12:17:00Z</time>
      </trkpt>
      <trkpt lat="37.4098550" lon="-4.4781360">
        <ele>479.4</ele>
        <time>2020-07-17T12:17:02Z</time>
      </trkpt>
      <trkpt lat="37.4098550" lon="-4.4781350">
        <ele>478.8</ele>
        <time>2020-07-17T12:17:11Z</time>
      </trkpt>
      <trkpt lat="37.4098560" lon="-4.4781330">
        <ele>478.8</ele>
        <time>2020-07-17T12:17:12Z</time>
      </trkpt>
      <trkpt lat="37.4098560" lon="-4.4781320">
        <ele>478.8</ele>
        <time>2020-07-17T12:17:14Z</time>
      </trkpt>
      <trkpt lat="37.4098570" lon="-4.4781310">
        <ele>479.2</ele>
        <time>2020-07-17T12:17:16Z</time>
      </trkpt>
      <trkpt lat="37.4098570" lon="-4.4781290">
        <ele>479.2</ele>
        <time>2020-07-17T12:17:18Z</time>
      </trkpt>
      <trkpt lat="37.4098580" lon="-4.4781280">
        <ele>479.4</ele>
        <time>2020-07-17T12:17:22Z</time>
      </trkpt>
      <trkpt lat="37.4098580" lon="-4.4781270">
        <ele>479.4</ele>
        <time>2020-07-17T12:17:23Z</time>
      </trkpt>
      <trkpt lat="37.4098590" lon="-4.4781250">
        <ele>479.4</ele>
        <time>2020-07-17T12:17:27Z</time>
      </trkpt>
      <trkpt lat="37.4098590" lon="-4.4781240">
        <ele>479.6</ele>
        <time>2020-07-17T12:17:33Z</time>
      </trkpt>
      <trkpt lat="37.4098600" lon="-4.4781230">
        <ele>479.4</ele>
        <time>2020-07-17T12:17:36Z</time>
      </trkpt>
      <trkpt lat="37.4098600" lon="-4.4781210">
        <ele>479.4</ele>
        <time>2020-07-17T12:17:41Z</time>
      </trkpt>
      <trkpt lat="37.4098610" lon="-4.4781200">
        <ele>479.4</ele>
        <time>2020-07-17T12:17:42Z</time>
      </trkpt>
      <trkpt lat="37.4098610" lon="-4.4781190">
        <ele>479.4</ele>
        <time>2020-07-17T12:17:43Z</time>
      </trkpt>
      <trkpt lat="37.4098620" lon="-4.4781170">
        <ele>479.4</ele>
        <time>2020-07-17T12:17:44Z</time>
      </trkpt>
      <trkpt lat="37.4098620" lon="-4.4781160">
        <ele>479.4</ele>
        <time>2020-07-17T12:17:46Z</time>
      </trkpt>
      <trkpt lat="37.4098630" lon="-4.4781150">
        <ele>479.4</ele>
        <time>2020-07-17T12:17:49Z</time>
      </trkpt>
      <trkpt lat="37.4098630" lon="-4.4781130">
        <ele>479.4</ele>
        <time>2020-07-17T12:17:51Z</time>
      </trkpt>
      <trkpt lat="37.4098640" lon="-4.4781120">
        <ele>479.4</ele>
        <time>2020-07-17T12:17:53Z</time>
      </trkpt>
      <trkpt lat="37.4098640" lon="-4.4781110">
        <ele>479.4</ele>
        <time>2020-07-17T12:17:55Z</time>
      </trkpt>
      <trkpt lat="37.4098650" lon="-4.4781090">
        <ele>479.4</ele>
        <time>2020-07-17T12:17:58Z</time>
      </trkpt>
      <trkpt lat="37.4098650" lon="-4.4781080">
        <ele>479.4</ele>
        <time>2020-07-17T12:18:01Z</time>
      </trkpt>
      <trkpt lat="37.4098660" lon="-4.4781070">
        <ele>479.4</ele>
        <time>2020-07-17T12:18:02Z</time>
      </trkpt>
      <trkpt lat="37.4098660" lon="-4.4781050">
        <ele>479.4</ele>
        <time>2020-07-17T12:18:03Z</time>
      </trkpt>
      <trkpt lat="37.4098670" lon="-4.4781040">
        <ele>479.4</ele>
        <time>2020-07-17T12:18:05Z</time>
      </trkpt>
      <trkpt lat="37.4098670" lon="-4.4781030">
        <ele>479.4</ele>
        <time>2020-07-17T12:18:09Z</time>
      </trkpt>
      <trkpt lat="37.4098680" lon="-4.4781010">
        <ele>479.4</ele>
        <time>2020-07-17T12:18:10Z</time>
      </trkpt>
      <trkpt lat="37.4098680" lon="-4.4781000">
        <ele>479.4</ele>
        <time>2020-07-17T12:18:11Z</time>
      </trkpt>
      <trkpt lat="37.4098690" lon="-4.4780990">
        <ele>479.4</ele>
        <time>2020-07-17T12:18:13Z</time>
      </trkpt>
      <trkpt lat="37.4098690" lon="-4.4780970">
        <ele>479.4</ele>
        <time>2020-07-17T12:18:14Z</time>
      </trkpt>
      <trkpt lat="37.4098700" lon="-4.4780960">
        <ele>479.4</ele>
        <time>2020-07-17T12:18:15Z</time>
      </trkpt>
      <trkpt lat="37.4098700" lon="-4.4780950">
        <ele>479.4</ele>
        <time>2020-07-17T12:18:17Z</time>
      </trkpt>
      <trkpt lat="37.4098710" lon="-4.4780930">
        <ele>479.4</ele>
        <time>2020-07-17T12:18:18Z</time>
      </trkpt>
      <trkpt lat="37.4098710" lon="-4.4780920">
        <ele>479.4</ele>
        <time>2020-07-17T12:18:23Z</time>
      </trkpt>
      <trkpt lat="37.4098720" lon="-4.4780910">
        <ele>479.4</ele>
        <time>2020-07-17T12:18:25Z</time>
      </trkpt>
      <trkpt lat="37.4098720" lon="-4.4780890">
        <ele>479.4</ele>
        <time>2020-07-17T12:18:27Z</time>
      </trkpt>
      <trkpt lat="37.4098730" lon="-4.4780880">
        <ele>479.4</ele>
        <time>2020-07-17T12:18:29Z</time>
      </trkpt>
      <trkpt lat="37.4098730" lon="-4.4780870">
        <ele>479.4</ele>
        <time>2020-07-17T12:18:31Z</time>
      </trkpt>
      <trkpt lat="37.4098740" lon="-4.4780850">
        <ele>479.4</ele>
        <time>2020-07-17T12:18:35Z</time>
      </trkpt>
      <trkpt lat="37.4098740" lon="-4.4780840">
        <ele>479.2</ele>
        <time>2020-07-17T12:18:38Z</time>
      </trkpt>
      <trkpt lat="37.4098750" lon="-4.4780830">
        <ele>479.2</ele>
        <time>2020-07-17T12:18:40Z</time>
      </trkpt>
      <trkpt lat="37.4098750" lon="-4.4780810">
        <ele>479.2</ele>
        <time>2020-07-17T12:18:41Z</time>
      </trkpt>
      <trkpt lat="37.4098760" lon="-4.4780800">
        <ele>479.2</ele>
        <time>2020-07-17T12:18:43Z</time>
      </trkpt>
      <trkpt lat="37.4098760" lon="-4.4780790">
        <ele>479.0</ele>
        <time>2020-07-17T12:18:49Z</time>
      </trkpt>
      <trkpt lat="37.4098770" lon="-4.4780770">
        <ele>479.0</ele>
        <time>2020-07-17T12:18:52Z</time>
      </trkpt>
      <trkpt lat="37.4098770" lon="-4.4780760">
        <ele>479.0</ele>
        <time>2020-07-17T12:18:54Z</time>
      </trkpt>
      <trkpt lat="37.4098780" lon="-4.4780750">
        <ele>479.0</ele>
        <time>2020-07-17T12:18:57Z</time>
      </trkpt>
      <trkpt lat="37.4098780" lon="-4.4780730">
        <ele>479.2</ele>
        <time>2020-07-17T12:18:58Z</time>
      </trkpt>
      <trkpt lat="37.4098790" lon="-4.4780720">
        <ele>479.2</ele>
        <time>2020-07-17T12:19:02Z</time>
      </trkpt>
      <trkpt lat="37.4098790" lon="-4.4780710">
        <ele>479.0</ele>
        <time>2020-07-17T12:19:06Z</time>
      </trkpt>
      <trkpt lat="37.4098800" lon="-4.4780690">
        <ele>479.2</ele>
        <time>2020-07-17T12:19:08Z</time>
      </trkpt>
      <trkpt lat="37.4098800" lon="-4.4780680">
        <ele>478.8</ele>
        <time>2020-07-17T12:19:11Z</time>
      </trkpt>
      <trkpt lat="37.4098810" lon="-4.4780670">
        <ele>479.0</ele>
        <time>2020-07-17T12:19:15Z</time>
      </trkpt>
      <trkpt lat="37.4098810" lon="-4.4780650">
        <ele>479.2</ele>
        <time>2020-07-17T12:19:20Z</time>
      </trkpt>
      <trkpt lat="37.4098820" lon="-4.4780640">
        <ele>479.0</ele>
        <time>2020-07-17T12:19:23Z</time>
      </trkpt>
      <trkpt lat="37.4098820" lon="-4.4780630">
        <ele>479.0</ele>
        <time>2020-07-17T12:19:24Z</time>
      </trkpt>
      <trkpt lat="37.4098830" lon="-4.4780610">
        <ele>479.0</ele>
        <time>2020-07-17T12:19:25Z</time>
      </trkpt>
      <trkpt lat="37.4098830" lon="-4.4780600">
        <ele>479.2</ele>
        <time>2020-07-17T12:19:27Z</time>
      </trkpt>
      <trkpt lat="37.4098840" lon="-4.4780590">
        <ele>479.2</ele>
        <time>2020-07-17T12:19:29Z</time>
      </trkpt>
      <trkpt lat="37.4098840" lon="-4.4780570">
        <ele>479.2</ele>
        <time>2020-07-17T12:19:31Z</time>
      </trkpt>
      <trkpt lat="37.4098850" lon="-4.4780560">
        <ele>479.2</ele>
        <time>2020-07-17T12:19:32Z</time>
      </trkpt>
      <trkpt lat="37.4098850" lon="-4.4780550">
        <ele>479.4</ele>
        <time>2020-07-17T12:19:34Z</time>
      </trkpt>
      <trkpt lat="37.4098860" lon="-4.4780530">
        <ele>479.4</ele>
        <time>2020-07-17T12:19:35Z</time>
      </trkpt>
      <trkpt lat="37.4098860" lon="-4.4780520">
        <ele>479.2</ele>
        <time>2020-07-17T12:19:37Z</time>
      </trkpt>
      <trkpt lat="37.4098870" lon="-4.4780510">
        <ele>478.6</ele>
        <time>2020-07-17T12:19:40Z</time>
      </trkpt>
      <trkpt lat="37.4098870" lon="-4.4780490">
        <ele>478.4</ele>
        <time>2020-07-17T12:19:41Z</time>
      </trkpt>
      <trkpt lat="37.4098880" lon="-4.4780480">
        <ele>478.4</ele>
        <time>2020-07-17T12:19:44Z</time>
      </trkpt>
      <trkpt lat="37.4098880" lon="-4.4780470">
        <ele>478.6</ele>
        <time>2020-07-17T12:19:45Z</time>
      </trkpt>
      <trkpt lat="37.4098890" lon="-4.4780450">
        <ele>478.6</ele>
        <time>2020-07-17T12:19:46Z</time>
      </trkpt>
      <trkpt lat="37.4098890" lon="-4.4780440">
        <ele>478.4</ele>
        <time>2020-07-17T12:19:49Z</time>
      </trkpt>
      <trkpt lat="37.4098900" lon="-4.4780430">
        <ele>478.4</ele>
        <time>2020-07-17T12:19:51Z</time>
      </trkpt>
      <trkpt lat="37.4098900" lon="-4.4780410">
        <ele>478.6</ele>
        <time>2020-07-17T12:19:52Z</time>
      </trkpt>
      <trkpt lat="37.4098910" lon="-4.4780400">
        <ele>478.6</ele>
        <time>2020-07-17T12:19:55Z</time>
      </trkpt>
      <trkpt lat="37.4098910" lon="-4.4780390">
        <ele>478.4</ele>
        <time>2020-07-17T12:19:58Z</time>
      </trkpt>
      <trkpt lat="37.4098920" lon="-4.4780370">
        <ele>478.2</ele>
        <time>2020-07-17T12:20:03Z</time>
      </trkpt>
      <trkpt lat="37.4098920" lon="-4.4780360">
        <ele>478.6</ele>
        <time>2020-07-17T12:20:07Z</time>
      </trkpt>
      <trkpt lat="37.4098930" lon="-4.4780350">
        <ele>478.6</ele>
        <time>2020-07-17T12:20:09Z</time>
      </trkpt>
      <trkpt lat="37.4098930" lon="-4.4780330">
        <ele>478.2</ele>
        <time>2020-07-17T12:20:11Z</time>
      </trkpt>
      <trkpt lat="37.4098940" lon="-4.4780320">
        <ele>478.2</ele>
        <time>2020-07-17T12:20:12Z</time>
      </trkpt>
      <trkpt lat="37.4098940" lon="-4.4780310">
        <ele>478.2</ele>
        <time>2020-07-17T12:20:16Z</time>
      </trkpt>
      <trkpt lat="37.4098950" lon="-4.4780290">
        <ele>478.2</ele>
        <time>2020-07-17T12:20:17Z</time>
      </trkpt>
      <trkpt lat="37.4098950" lon="-4.4780280">
        <ele>478.2</ele>
        <time>2020-07-17T12:20:18Z</time>
      </trkpt>
      <trkpt lat="37.4098960" lon="-4.4780270">
        <ele>478.2</ele>
        <time>2020-07-17T12:20:20Z</time>
      </trkpt>
      <trkpt lat="37.4098960" lon="-4.4780250">
        <ele>478.2</ele>
        <time>2020-07-17T12:20:22Z</time>
      </trkpt>
      <trkpt lat="37.4098970" lon="-4.4780240">
        <ele>478.2</ele>
        <time>2020-07-17T12:20:24Z</time>
      </trkpt>
      <trkpt lat="37.4098970" lon="-4.4780230">
        <ele>478.2</ele>
        <time>2020-07-17T12:20:25Z</time>
      </trkpt>
      <trkpt lat="37.4098980" lon="-4.4780210">
        <ele>478.2</ele>
        <time>2020-07-17T12:20:27Z</time>
      </trkpt>
      <trkpt lat="37.4098980" lon="-4.4780200">
        <ele>478.6</ele>
        <time>2020-07-17T12:20:31Z</time>
      </trkpt>
      <trkpt lat="37.4098990" lon="-4.4780190">
        <ele>479.2</ele>
        <time>2020-07-17T12:20:32Z</time>
      </trkpt>
      <trkpt lat="37.4098990" lon="-4.4780170">
        <ele>479.6</ele>
        <time>2020-07-17T12:20:33Z</time>
      </trkpt>
      <trkpt lat="37.4099000" lon="-4.4780160">
        <ele>480.8</ele>
        <time>2020-07-17T12:20:36Z</time>
      </trkpt>
      <trkpt lat="37.4099000" lon="-4.4780150">
        <ele>480.8</ele>
        <time>2020-07-17T12:20:38Z</time>
      </trkpt>
      <trkpt lat="37.4099010" lon="-4.4780130">
        <ele>480.8</ele>
        <time>2020-07-17T12:20:41Z</time>
      </trkpt>
      <trkpt lat="37.4099010" lon="-4.4780120">
        <ele>481.0</ele>
        <time>2020-07-17T12:20:43Z</time>
      </trkpt>
      <trkpt lat="37.4099020" lon="-4.4780110">
        <ele>481.0</ele>
        <time>2020-07-17T12:20:44Z</time>
      </trkpt>
      <trkpt lat="37.4099020" lon="-4.4780090">
        <ele>481.0</ele>
        <time>2020-07-17T12:20:45Z</time>
      </trkpt>
      <trkpt lat="37.4099030" lon="-4.4780080">
        <ele>481.0</ele>
        <time>2020-07-17T12:20:46Z</time>
      </trkpt>
      <trkpt lat="37.4099030" lon="-4.4780070">
        <ele>480.8</ele>
        <time>2020-07-17T12:20:51Z</time>
      </trkpt>
      <trkpt lat="37.4099040" lon="-4.4780050">
        <ele>480.8</ele>
        <time>2020-07-17T12:20:52Z</time>
      </trkpt>
      <trkpt lat="37.4099040" lon="-4.4780040">
        <ele>480.8</ele>
        <time>2020-07-17T12:20:53Z</time>
      </trkpt>
      <trkpt lat="37.4099050" lon="-4.4780030">
        <ele>480.8</ele>
        <time>2020-07-17T12:20:54Z</time>
      </trkpt>
      <trkpt lat="37.4099050" lon="-4.4780010">
        <ele>480.6</ele>
        <time>2020-07-17T12:20:56Z</time>
      </trkpt>
      <trkpt lat="37.4099060" lon="-4.4780000">
        <ele>480.6</ele>
        <time>2020-07-17T12:20:57Z</time>
      </trkpt>
      <trkpt lat="37.4099060" lon="-4.4779990">
        <ele>480.2</ele>
        <time>2020-07-17T12:21:05Z</time>
      </trkpt>
      <trkpt lat="37.4099070" lon="-4.4779970">
        <ele>480.4</ele>
        <time>2020-07-17T12:21:06Z</time>
      </trkpt>
      <trkpt lat="37.4099070" lon="-4.4779960">
        <ele>480.4</ele>
        <time>2020-07-17T12:21:07Z</time>
      </trkpt>
      <trkpt lat="37.4099180" lon="-4.4781040">
        <ele>480.2</ele>
        <time>2020-07-17T12:21:12Z</time>
      </trkpt>
      <trkpt lat="37.4099050" lon="-4.4781130">
        <ele>480.2</ele>
        <time>2020-07-17T12:21:17Z</time>
      </trkpt>
      <trkpt lat="37.4098930" lon="-4.4781220">
        <ele>480.2</ele>
        <time>2020-07-17T12:21:18Z</time>
      </trkpt>
      <trkpt lat="37.4098810" lon="-4.4781310">
        <ele>480.2</ele>
        <time>2020-07-17T12:21:21Z</time>
      </trkpt>
      <trkpt lat="37.4098690" lon="-4.4781400">
        <ele>480.2</ele>
        <time>2020-07-17T12:21:23Z</time>
      </trkpt>
      <trkpt lat="37.4098560" lon="-4.4781490">
        <ele>480.4</ele>
        <time>2020-07-17T12:21:24Z</time>
      </trkpt>
      <trkpt lat="37.4098440" lon="-4.4781580">
        <ele>480.4</ele>
        <time>2020-07-17T12:21:25Z</time>
      </trkpt>
      <trkpt lat="37.4098320" lon="-4.4781670">
        <ele>480.6</ele>
        <time>2020-07-17T12:21:27Z</time>
      </trkpt>
      <trkpt lat="37.4098190" lon="-4.4781760">
        <ele>480.6</ele>
        <time>2020-07-17T12:21:32Z</time>
      </trkpt>
      <trkpt lat="37.4098070" lon="-4.4781850">
        <ele>480.6</ele>
        <time>2020-07-17T12:21:33Z</time>
      </trkpt>
      <trkpt lat="37.4095920" lon="-4.4781750">
        <ele>480.6</ele>
        <time>2020-07-17T12:21:35Z</time>
      </trkpt>
      <trkpt lat="37.4096010" lon="-4.4781650">
        <ele>480.6</ele>
        <time>2020-07-17T12:21:39Z</time>
      </trkpt>
      <trkpt lat="37.4096100" lon="-4.4781540">
        <ele>480.6</ele>
        <time>2020-07-17T12:21:41Z</time>
      </trkpt>
      <trkpt lat="37.4096190" lon="-4.4781440">
        <ele>480.6</ele>
        <time>2020-07-17T12:21:42Z</time>
      </trkpt>
      <trkpt lat="37.4096280" lon="-4.4781340">
        <ele>480.6</ele>
        <time>2020-07-17T12:21:44Z</time>
      </trkpt>
      <trkpt lat="37.4096370" lon="-4.4781230">
        <ele>480.4</ele>
        <time>2020-07-17T12:21:45Z</time>
      </trkpt>
      <trkpt lat="37.4096460" lon="-4.4781130">
        <ele>482.0</ele>
        <time>2020-07-17T12:21:50Z</time>
      </trkpt>
      <trkpt lat="37.4096550" lon="-4.4781030">
        <ele>483.2</ele>
        <time>2020-07-17T12:21:52Z</time>
      </trkpt>
      <trkpt lat="37.4096640" lon="-4.4780920">
        <ele>484.6</ele>
        <time>2020-07-17T12:21:54Z</time>
      </trkpt>
      <trkpt lat="37.4096720" lon="-4.4780820">
        <ele>485.2</ele>
        <time>2020-07-17T12:21:55Z</time>
      </trkpt>
      <trkpt lat="37.4096810" lon="-4.4780720">
        <ele>485.8</ele>
        <time>2020-07-17T12:21:56Z</time>
      </trkpt>
      <trkpt lat="37.4096900" lon="-4.4780610">
        <ele>486.2</ele>
        <time>2020-07-17T12:21:57Z</time>
      </trkpt>
      <trkpt lat="37.4096990" lon="-4.4780510">
        <ele>487.0</ele>
        <time>2020-07-17T12:21:58Z</time>
      </trkpt>
      <trkpt lat="37.4097080" lon="-4.4780410">
        <ele>488.0</ele>
        <time>2020-07-17T12:22:00Z</time>
      </trkpt>
      <trkpt lat="37.4097170" lon="-4.4780300">
        <ele>488.8</ele>
        <time>2020-07-17T12:22:03Z</time>
      </trkpt>
      <trkpt lat="37.4097260" lon="-4.4780200">
        <ele>488.8</ele>
        <time>2020-07-17T12:22:05Z</time>
      </trkpt>
      <trkpt lat="37.4097350" lon="-4.4780100">
        <ele>488.8</ele>
        <time>2020-07-17T12:22:09Z</time>
      </trkpt>
      <trkpt lat="37.4097440" lon="-4.4779990">
        <ele>488.8</ele>
        <time>2020-07-17T12:22:10Z</time>
      </trkpt>
      <trkpt lat="37.4097530" lon="-4.4779890">
        <ele>488.6</ele>
        <time>2020-07-17T12:22:11Z</time>
      </trkpt>
      <trkpt lat="37.4097620" lon="-4.4779780">
        <ele>488.6</ele>
        <time>2020-07-17T12:22:12Z</time>
      </trkpt>
      <trkpt lat="37.4097710" lon="-4.4779680">
        <ele>488.6</ele>
        <time>2020-07-17T12:22:14Z</time>
      </trkpt>
      <trkpt lat="37.4097800" lon="-4.4779580">
        <ele>488.8</ele>
        <time>2020-07-17T12:22:15Z</time>
      </trkpt>
      <trkpt lat="37.4097890" lon="-4.4779470">
        <ele>488.8</ele>
        <time>2020-07-17T12:22:17Z</time>
      </trkpt>
      <trkpt lat="37.4097980" lon="-4.4779370">
        <ele>488.8</ele>
        <time>2020-07-17T12:22:18Z</time>
      </trkpt>
      <trkpt lat="37.4098070" lon="-4.4779270">
        <ele>488.8</ele>
        <time>2020-07-17T12:22:20Z</time>
      </trkpt>
      <trkpt lat="37.4098160" lon="-4.4779160">
        <ele>488.8</ele>
        <time>2020-07-17T12:22:21Z</time>
      </trkpt>
      <trkpt lat="37.4098250" lon="-4.4779060">
        <ele>488.8</ele>
        <time>2020-07-17T12:22:29Z</time>
      </trkpt>
      <trkpt lat="37.4098330" lon="-4.4778960">
        <ele>488.6</ele>
        <time>2020-07-17T12:22:35Z</time>
      </trkpt>
      <trkpt lat="37.4098420" lon="-4.4778850">
        <ele>488.6</ele>
        <time>2020-07-17T12:22:37Z</time>
      </trkpt>
      <trkpt lat="37.4098510" lon="-4.4778750">
        <ele>488.6</ele>
        <time>2020-07-17T12:22:40Z</time>
      </trkpt>
      <trkpt lat="37.4098600" lon="-4.4778650">
        <ele>488.8</ele>
        <time>2020-07-17T12:22:41Z</time>
      </trkpt>
      <trkpt lat="37.4098690" lon="-4.4778540">
        <ele>488.6</ele>
        <time>2020-07-17T12:22:42Z</time>
      </trkpt>
      <trkpt lat="37.4098780" lon="-4.4778440">
        <ele>488.6</ele>
        <time>2020-07-17T12:22:46Z</time>
      </trkpt>
      <trkpt lat="37.4098870" lon="-4.4778340">
        <ele>488.6</ele>
        <time>2020-07-17T12:22:48Z</time>
      </trkpt>
      <trkpt lat="37.4098960" lon="-4.4778230">
        <ele>488.6</ele>
        <time>2020-07-17T12:22:50Z</time>
      </trkpt>
      <trkpt lat="37.4099050" lon="-4.4778130">
        <ele>488.6</ele>
        <time>2020-07-17T12:22:52Z</time>
      </trkpt>
      <trkpt lat="37.4100620" lon="-4.4776320">
        <ele>488.6</ele>
        <time>2020-07-17T12:22:53Z</time>
      </trkpt>
    </trkseg>
  </trk>
</gpx>
